<?xml version="1.0" encoding="UTF-8" standalone="no" ?>
<gpx xmlns="http://www.topografix.com/GPX/1/1" xmlns:xsi="http://www.w3.org/2001/XMLSchema-instance" xsi:schemaLocation="http://www.topografix.com/GPX/1/1 http://www.topografix.com/GPX/1/1/gpx.xsd" version="1.1" creator="VisuGPX - https://www.visugpx.com">
  <metadata>
    <name>premiere partie voyage</name>
  </metadata>
  <trk>
    <name><![CDATA[Jour 3 La Couarde / La Tranche sur Mer]]></name>
    <trkseg>
      <trkpt lat="46.192" lon="-1.42616">
        <ele>2.6</ele>
        <time>2020-06-02T06:50:03Z</time>
      </trkpt>
      <trkpt lat="46.19203" lon="-1.42626">
        <ele>2.6</ele>
        <time>2020-06-02T06:50:04Z</time>
      </trkpt>
      <trkpt lat="46.19202" lon="-1.42624">
        <ele>2.6</ele>
        <time>2020-06-02T06:50:05Z</time>
      </trkpt>
      <trkpt lat="46.19202" lon="-1.42621">
        <ele>2.6</ele>
        <time>2020-06-02T06:50:06Z</time>
      </trkpt>
      <trkpt lat="46.19201" lon="-1.42621">
        <ele>2.6</ele>
        <time>2020-06-02T06:50:07Z</time>
      </trkpt>
      <trkpt lat="46.19202" lon="-1.42626">
        <ele>2.6</ele>
        <time>2020-06-02T06:50:08Z</time>
      </trkpt>
      <trkpt lat="46.19204" lon="-1.42623">
        <ele>2.6</ele>
        <time>2020-06-02T06:50:09Z</time>
      </trkpt>
      <trkpt lat="46.19202" lon="-1.42619">
        <ele>2.6</ele>
        <time>2020-06-02T06:50:10Z</time>
      </trkpt>
      <trkpt lat="46.19201" lon="-1.42615">
        <ele>2.6</ele>
        <time>2020-06-02T06:50:11Z</time>
      </trkpt>
      <trkpt lat="46.192" lon="-1.4261">
        <ele>2.6</ele>
        <time>2020-06-02T06:50:12Z</time>
      </trkpt>
      <trkpt lat="46.19199" lon="-1.42609">
        <ele>2.6</ele>
        <time>2020-06-02T06:50:13Z</time>
      </trkpt>
      <trkpt lat="46.19198" lon="-1.42604">
        <ele>2.6</ele>
        <time>2020-06-02T06:50:14Z</time>
      </trkpt>
      <trkpt lat="46.19197" lon="-1.42603">
        <ele>2.6</ele>
        <time>2020-06-02T06:50:15Z</time>
      </trkpt>
      <trkpt lat="46.19197" lon="-1.42598">
        <ele>2.6</ele>
        <time>2020-06-02T06:50:16Z</time>
      </trkpt>
      <trkpt lat="46.19197" lon="-1.42596">
        <ele>2.5</ele>
        <time>2020-06-02T06:50:17Z</time>
      </trkpt>
      <trkpt lat="46.19196" lon="-1.42593">
        <ele>2.5</ele>
        <time>2020-06-02T06:50:18Z</time>
      </trkpt>
      <trkpt lat="46.19195" lon="-1.42589">
        <ele>2.5</ele>
        <time>2020-06-02T06:50:20Z</time>
      </trkpt>
      <trkpt lat="46.19195" lon="-1.42585">
        <ele>2.5</ele>
        <time>2020-06-02T06:50:21Z</time>
      </trkpt>
      <trkpt lat="46.19195" lon="-1.42581">
        <ele>2.5</ele>
        <time>2020-06-02T06:50:22Z</time>
      </trkpt>
      <trkpt lat="46.19194" lon="-1.42577">
        <ele>2.5</ele>
        <time>2020-06-02T06:50:23Z</time>
      </trkpt>
      <trkpt lat="46.19193" lon="-1.42572">
        <ele>2.5</ele>
        <time>2020-06-02T06:50:24Z</time>
      </trkpt>
      <trkpt lat="46.19193" lon="-1.4257">
        <ele>2.5</ele>
        <time>2020-06-02T06:50:25Z</time>
      </trkpt>
      <trkpt lat="46.19193" lon="-1.42564">
        <ele>2.5</ele>
        <time>2020-06-02T06:50:26Z</time>
      </trkpt>
      <trkpt lat="46.19192" lon="-1.42558">
        <ele>2.5</ele>
        <time>2020-06-02T06:50:27Z</time>
      </trkpt>
      <trkpt lat="46.19192" lon="-1.42553">
        <ele>2.5</ele>
        <time>2020-06-02T06:50:28Z</time>
      </trkpt>
      <trkpt lat="46.19191" lon="-1.42548">
        <ele>2.6</ele>
        <time>2020-06-02T06:50:29Z</time>
      </trkpt>
      <trkpt lat="46.19191" lon="-1.42541">
        <ele>2.6</ele>
        <time>2020-06-02T06:50:30Z</time>
      </trkpt>
      <trkpt lat="46.19191" lon="-1.42535">
        <ele>2.6</ele>
        <time>2020-06-02T06:50:31Z</time>
      </trkpt>
      <trkpt lat="46.1919" lon="-1.42528">
        <ele>2.6</ele>
        <time>2020-06-02T06:50:32Z</time>
      </trkpt>
      <trkpt lat="46.19189" lon="-1.4252">
        <ele>2.6</ele>
        <time>2020-06-02T06:50:33Z</time>
      </trkpt>
      <trkpt lat="46.19189" lon="-1.42513">
        <ele>2.7</ele>
        <time>2020-06-02T06:50:34Z</time>
      </trkpt>
      <trkpt lat="46.19188" lon="-1.42506">
        <ele>2.7</ele>
        <time>2020-06-02T06:50:35Z</time>
      </trkpt>
      <trkpt lat="46.19189" lon="-1.42499">
        <ele>2.7</ele>
        <time>2020-06-02T06:50:36Z</time>
      </trkpt>
      <trkpt lat="46.19188" lon="-1.42492">
        <ele>2.7</ele>
        <time>2020-06-02T06:50:37Z</time>
      </trkpt>
      <trkpt lat="46.19187" lon="-1.42485">
        <ele>2.7</ele>
        <time>2020-06-02T06:50:38Z</time>
      </trkpt>
      <trkpt lat="46.19187" lon="-1.42478">
        <ele>2.8</ele>
        <time>2020-06-02T06:50:39Z</time>
      </trkpt>
      <trkpt lat="46.19186" lon="-1.42471">
        <ele>2.8</ele>
        <time>2020-06-02T06:50:40Z</time>
      </trkpt>
      <trkpt lat="46.19185" lon="-1.42464">
        <ele>2.8</ele>
        <time>2020-06-02T06:50:41Z</time>
      </trkpt>
      <trkpt lat="46.19185" lon="-1.42458">
        <ele>2.8</ele>
        <time>2020-06-02T06:50:42Z</time>
      </trkpt>
      <trkpt lat="46.19184" lon="-1.42451">
        <ele>2.9</ele>
        <time>2020-06-02T06:50:43Z</time>
      </trkpt>
      <trkpt lat="46.19184" lon="-1.42444">
        <ele>2.9</ele>
        <time>2020-06-02T06:50:44Z</time>
      </trkpt>
      <trkpt lat="46.19182" lon="-1.42436">
        <ele>2.9</ele>
        <time>2020-06-02T06:50:45Z</time>
      </trkpt>
      <trkpt lat="46.19182" lon="-1.4243">
        <ele>2.9</ele>
        <time>2020-06-02T06:50:46Z</time>
      </trkpt>
      <trkpt lat="46.19182" lon="-1.42424">
        <ele>3</ele>
        <time>2020-06-02T06:50:47Z</time>
      </trkpt>
      <trkpt lat="46.19182" lon="-1.42417">
        <ele>3</ele>
        <time>2020-06-02T06:50:48Z</time>
      </trkpt>
      <trkpt lat="46.19182" lon="-1.42411">
        <ele>3</ele>
        <time>2020-06-02T06:50:49Z</time>
      </trkpt>
      <trkpt lat="46.19181" lon="-1.42404">
        <ele>3</ele>
        <time>2020-06-02T06:50:50Z</time>
      </trkpt>
      <trkpt lat="46.19181" lon="-1.42397">
        <ele>3.1</ele>
        <time>2020-06-02T06:50:51Z</time>
      </trkpt>
      <trkpt lat="46.1918" lon="-1.42391">
        <ele>3.1</ele>
        <time>2020-06-02T06:50:52Z</time>
      </trkpt>
      <trkpt lat="46.19179" lon="-1.42385">
        <ele>3.1</ele>
        <time>2020-06-02T06:50:53Z</time>
      </trkpt>
      <trkpt lat="46.19179" lon="-1.42379">
        <ele>3.1</ele>
        <time>2020-06-02T06:50:54Z</time>
      </trkpt>
      <trkpt lat="46.19179" lon="-1.42374">
        <ele>3.1</ele>
        <time>2020-06-02T06:50:55Z</time>
      </trkpt>
      <trkpt lat="46.19179" lon="-1.42368">
        <ele>3.1</ele>
        <time>2020-06-02T06:50:56Z</time>
      </trkpt>
      <trkpt lat="46.19179" lon="-1.42363">
        <ele>3.2</ele>
        <time>2020-06-02T06:50:57Z</time>
      </trkpt>
      <trkpt lat="46.19179" lon="-1.42357">
        <ele>3.2</ele>
        <time>2020-06-02T06:50:58Z</time>
      </trkpt>
      <trkpt lat="46.19179" lon="-1.42351">
        <ele>3.2</ele>
        <time>2020-06-02T06:50:59Z</time>
      </trkpt>
      <trkpt lat="46.19179" lon="-1.42346">
        <ele>3.2</ele>
        <time>2020-06-02T06:51:00Z</time>
      </trkpt>
      <trkpt lat="46.1918" lon="-1.4234">
        <ele>3.1</ele>
        <time>2020-06-02T06:51:01Z</time>
      </trkpt>
      <trkpt lat="46.19181" lon="-1.42334">
        <ele>3.1</ele>
        <time>2020-06-02T06:51:02Z</time>
      </trkpt>
      <trkpt lat="46.19182" lon="-1.42328">
        <ele>3</ele>
        <time>2020-06-02T06:51:03Z</time>
      </trkpt>
      <trkpt lat="46.19184" lon="-1.42322">
        <ele>3</ele>
        <time>2020-06-02T06:51:04Z</time>
      </trkpt>
      <trkpt lat="46.19185" lon="-1.42317">
        <ele>2.8</ele>
        <time>2020-06-02T06:51:05Z</time>
      </trkpt>
      <trkpt lat="46.19187" lon="-1.42311">
        <ele>2.8</ele>
        <time>2020-06-02T06:51:06Z</time>
      </trkpt>
      <trkpt lat="46.1919" lon="-1.42307">
        <ele>2.8</ele>
        <time>2020-06-02T06:51:07Z</time>
      </trkpt>
      <trkpt lat="46.19193" lon="-1.42302">
        <ele>2.8</ele>
        <time>2020-06-02T06:51:08Z</time>
      </trkpt>
      <trkpt lat="46.19197" lon="-1.42296">
        <ele>2.8</ele>
        <time>2020-06-02T06:51:09Z</time>
      </trkpt>
      <trkpt lat="46.19201" lon="-1.42291">
        <ele>2.7</ele>
        <time>2020-06-02T06:51:10Z</time>
      </trkpt>
      <trkpt lat="46.19204" lon="-1.42286">
        <ele>2.7</ele>
        <time>2020-06-02T06:51:11Z</time>
      </trkpt>
      <trkpt lat="46.19208" lon="-1.42281">
        <ele>2.7</ele>
        <time>2020-06-02T06:51:12Z</time>
      </trkpt>
      <trkpt lat="46.19211" lon="-1.42277">
        <ele>2.6</ele>
        <time>2020-06-02T06:51:13Z</time>
      </trkpt>
      <trkpt lat="46.19215" lon="-1.42272">
        <ele>2.6</ele>
        <time>2020-06-02T06:51:14Z</time>
      </trkpt>
      <trkpt lat="46.19218" lon="-1.42266">
        <ele>2.6</ele>
        <time>2020-06-02T06:51:15Z</time>
      </trkpt>
      <trkpt lat="46.19221" lon="-1.42262">
        <ele>2.5</ele>
        <time>2020-06-02T06:51:16Z</time>
      </trkpt>
      <trkpt lat="46.19224" lon="-1.42258">
        <ele>2.5</ele>
        <time>2020-06-02T06:51:17Z</time>
      </trkpt>
      <trkpt lat="46.1923" lon="-1.42252">
        <ele>2.5</ele>
        <time>2020-06-02T06:51:18Z</time>
      </trkpt>
      <trkpt lat="46.19233" lon="-1.42248">
        <ele>2.5</ele>
        <time>2020-06-02T06:51:19Z</time>
      </trkpt>
      <trkpt lat="46.19236" lon="-1.42244">
        <ele>2.5</ele>
        <time>2020-06-02T06:51:20Z</time>
      </trkpt>
      <trkpt lat="46.1924" lon="-1.42239">
        <ele>2.4</ele>
        <time>2020-06-02T06:51:21Z</time>
      </trkpt>
      <trkpt lat="46.19243" lon="-1.42235">
        <ele>2.4</ele>
        <time>2020-06-02T06:51:22Z</time>
      </trkpt>
      <trkpt lat="46.19247" lon="-1.4223">
        <ele>2.4</ele>
        <time>2020-06-02T06:51:23Z</time>
      </trkpt>
      <trkpt lat="46.19251" lon="-1.42225">
        <ele>2.4</ele>
        <time>2020-06-02T06:51:24Z</time>
      </trkpt>
      <trkpt lat="46.19255" lon="-1.42221">
        <ele>2.4</ele>
        <time>2020-06-02T06:51:25Z</time>
      </trkpt>
      <trkpt lat="46.19258" lon="-1.42216">
        <ele>2.4</ele>
        <time>2020-06-02T06:51:26Z</time>
      </trkpt>
      <trkpt lat="46.19261" lon="-1.42212">
        <ele>2.4</ele>
        <time>2020-06-02T06:51:27Z</time>
      </trkpt>
      <trkpt lat="46.19264" lon="-1.42207">
        <ele>2.4</ele>
        <time>2020-06-02T06:51:28Z</time>
      </trkpt>
      <trkpt lat="46.19266" lon="-1.42202">
        <ele>2.4</ele>
        <time>2020-06-02T06:51:29Z</time>
      </trkpt>
      <trkpt lat="46.19269" lon="-1.42197">
        <ele>2.4</ele>
        <time>2020-06-02T06:51:30Z</time>
      </trkpt>
      <trkpt lat="46.19272" lon="-1.42193">
        <ele>2.4</ele>
        <time>2020-06-02T06:51:31Z</time>
      </trkpt>
      <trkpt lat="46.19275" lon="-1.42188">
        <ele>2.4</ele>
        <time>2020-06-02T06:51:32Z</time>
      </trkpt>
      <trkpt lat="46.19279" lon="-1.42185">
        <ele>2.4</ele>
        <time>2020-06-02T06:51:33Z</time>
      </trkpt>
      <trkpt lat="46.19283" lon="-1.42181">
        <ele>2.4</ele>
        <time>2020-06-02T06:51:34Z</time>
      </trkpt>
      <trkpt lat="46.19287" lon="-1.42177">
        <ele>2.4</ele>
        <time>2020-06-02T06:51:35Z</time>
      </trkpt>
      <trkpt lat="46.19291" lon="-1.42173">
        <ele>2.4</ele>
        <time>2020-06-02T06:51:36Z</time>
      </trkpt>
      <trkpt lat="46.19294" lon="-1.42169">
        <ele>2.4</ele>
        <time>2020-06-02T06:51:37Z</time>
      </trkpt>
      <trkpt lat="46.19297" lon="-1.42165">
        <ele>2.4</ele>
        <time>2020-06-02T06:51:38Z</time>
      </trkpt>
      <trkpt lat="46.19302" lon="-1.42163">
        <ele>2.3</ele>
        <time>2020-06-02T06:51:39Z</time>
      </trkpt>
      <trkpt lat="46.19306" lon="-1.42161">
        <ele>2.3</ele>
        <time>2020-06-02T06:51:40Z</time>
      </trkpt>
      <trkpt lat="46.1931" lon="-1.42161">
        <ele>2.3</ele>
        <time>2020-06-02T06:51:41Z</time>
      </trkpt>
      <trkpt lat="46.19314" lon="-1.42163">
        <ele>2.3</ele>
        <time>2020-06-02T06:51:42Z</time>
      </trkpt>
      <trkpt lat="46.19318" lon="-1.42165">
        <ele>2.3</ele>
        <time>2020-06-02T06:51:43Z</time>
      </trkpt>
      <trkpt lat="46.19322" lon="-1.42165">
        <ele>2.3</ele>
        <time>2020-06-02T06:51:44Z</time>
      </trkpt>
      <trkpt lat="46.19327" lon="-1.42165">
        <ele>2.3</ele>
        <time>2020-06-02T06:51:45Z</time>
      </trkpt>
      <trkpt lat="46.19332" lon="-1.42166">
        <ele>2.3</ele>
        <time>2020-06-02T06:51:46Z</time>
      </trkpt>
      <trkpt lat="46.19336" lon="-1.42167">
        <ele>2.3</ele>
        <time>2020-06-02T06:51:47Z</time>
      </trkpt>
      <trkpt lat="46.19339" lon="-1.42167">
        <ele>2.3</ele>
        <time>2020-06-02T06:51:48Z</time>
      </trkpt>
      <trkpt lat="46.19342" lon="-1.42161">
        <ele>2.3</ele>
        <time>2020-06-02T06:51:49Z</time>
      </trkpt>
      <trkpt lat="46.19343" lon="-1.42158">
        <ele>2.3</ele>
        <time>2020-06-02T06:51:50Z</time>
      </trkpt>
      <trkpt lat="46.19343" lon="-1.42151">
        <ele>2.2</ele>
        <time>2020-06-02T06:51:51Z</time>
      </trkpt>
      <trkpt lat="46.19343" lon="-1.42144">
        <ele>2.2</ele>
        <time>2020-06-02T06:51:52Z</time>
      </trkpt>
      <trkpt lat="46.19344" lon="-1.42137">
        <ele>2.2</ele>
        <time>2020-06-02T06:51:53Z</time>
      </trkpt>
      <trkpt lat="46.19344" lon="-1.4213">
        <ele>2.1</ele>
        <time>2020-06-02T06:51:54Z</time>
      </trkpt>
      <trkpt lat="46.19344" lon="-1.42123">
        <ele>2.1</ele>
        <time>2020-06-02T06:51:55Z</time>
      </trkpt>
      <trkpt lat="46.19345" lon="-1.42116">
        <ele>2.1</ele>
        <time>2020-06-02T06:51:56Z</time>
      </trkpt>
      <trkpt lat="46.19346" lon="-1.42108">
        <ele>2.1</ele>
        <time>2020-06-02T06:51:57Z</time>
      </trkpt>
      <trkpt lat="46.19347" lon="-1.42101">
        <ele>2.1</ele>
        <time>2020-06-02T06:51:58Z</time>
      </trkpt>
      <trkpt lat="46.19347" lon="-1.42094">
        <ele>2.1</ele>
        <time>2020-06-02T06:51:59Z</time>
      </trkpt>
      <trkpt lat="46.19348" lon="-1.42088">
        <ele>2.1</ele>
        <time>2020-06-02T06:52:00Z</time>
      </trkpt>
      <trkpt lat="46.19349" lon="-1.42081">
        <ele>2.1</ele>
        <time>2020-06-02T06:52:01Z</time>
      </trkpt>
      <trkpt lat="46.19349" lon="-1.42075">
        <ele>2.1</ele>
        <time>2020-06-02T06:52:02Z</time>
      </trkpt>
      <trkpt lat="46.19351" lon="-1.4207">
        <ele>2.1</ele>
        <time>2020-06-02T06:52:03Z</time>
      </trkpt>
      <trkpt lat="46.19351" lon="-1.42063">
        <ele>2.1</ele>
        <time>2020-06-02T06:52:04Z</time>
      </trkpt>
      <trkpt lat="46.19352" lon="-1.42057">
        <ele>2.1</ele>
        <time>2020-06-02T06:52:05Z</time>
      </trkpt>
      <trkpt lat="46.19352" lon="-1.42049">
        <ele>2.1</ele>
        <time>2020-06-02T06:52:06Z</time>
      </trkpt>
      <trkpt lat="46.19353" lon="-1.42041">
        <ele>2.1</ele>
        <time>2020-06-02T06:52:07Z</time>
      </trkpt>
      <trkpt lat="46.19354" lon="-1.42035">
        <ele>2.1</ele>
        <time>2020-06-02T06:52:08Z</time>
      </trkpt>
      <trkpt lat="46.19355" lon="-1.42028">
        <ele>2.2</ele>
        <time>2020-06-02T06:52:09Z</time>
      </trkpt>
      <trkpt lat="46.19355" lon="-1.4202">
        <ele>2.2</ele>
        <time>2020-06-02T06:52:10Z</time>
      </trkpt>
      <trkpt lat="46.19355" lon="-1.42013">
        <ele>2.3</ele>
        <time>2020-06-02T06:52:11Z</time>
      </trkpt>
      <trkpt lat="46.19353" lon="-1.42005">
        <ele>2.3</ele>
        <time>2020-06-02T06:52:12Z</time>
      </trkpt>
      <trkpt lat="46.19351" lon="-1.41998">
        <ele>2.4</ele>
        <time>2020-06-02T06:52:13Z</time>
      </trkpt>
      <trkpt lat="46.19352" lon="-1.41991">
        <ele>2.5</ele>
        <time>2020-06-02T06:52:14Z</time>
      </trkpt>
      <trkpt lat="46.19353" lon="-1.41985">
        <ele>2.6</ele>
        <time>2020-06-02T06:52:15Z</time>
      </trkpt>
      <trkpt lat="46.19354" lon="-1.41979">
        <ele>2.7</ele>
        <time>2020-06-02T06:52:16Z</time>
      </trkpt>
      <trkpt lat="46.19356" lon="-1.41972">
        <ele>2.8</ele>
        <time>2020-06-02T06:52:17Z</time>
      </trkpt>
      <trkpt lat="46.19358" lon="-1.41966">
        <ele>2.8</ele>
        <time>2020-06-02T06:52:18Z</time>
      </trkpt>
      <trkpt lat="46.1936" lon="-1.41961">
        <ele>2.9</ele>
        <time>2020-06-02T06:52:19Z</time>
      </trkpt>
      <trkpt lat="46.19363" lon="-1.41956">
        <ele>2.9</ele>
        <time>2020-06-02T06:52:20Z</time>
      </trkpt>
      <trkpt lat="46.19365" lon="-1.41951">
        <ele>2.9</ele>
        <time>2020-06-02T06:52:21Z</time>
      </trkpt>
      <trkpt lat="46.19367" lon="-1.41947">
        <ele>2.9</ele>
        <time>2020-06-02T06:52:22Z</time>
      </trkpt>
      <trkpt lat="46.19369" lon="-1.41943">
        <ele>2.9</ele>
        <time>2020-06-02T06:52:23Z</time>
      </trkpt>
      <trkpt lat="46.1937" lon="-1.41939">
        <ele>2.9</ele>
        <time>2020-06-02T06:52:24Z</time>
      </trkpt>
      <trkpt lat="46.19372" lon="-1.41934">
        <ele>2.9</ele>
        <time>2020-06-02T06:52:25Z</time>
      </trkpt>
      <trkpt lat="46.19375" lon="-1.4193">
        <ele>2.9</ele>
        <time>2020-06-02T06:52:26Z</time>
      </trkpt>
      <trkpt lat="46.19378" lon="-1.41925">
        <ele>2.8</ele>
        <time>2020-06-02T06:52:27Z</time>
      </trkpt>
      <trkpt lat="46.1938" lon="-1.4192">
        <ele>2.8</ele>
        <time>2020-06-02T06:52:28Z</time>
      </trkpt>
      <trkpt lat="46.19383" lon="-1.41915">
        <ele>2.8</ele>
        <time>2020-06-02T06:52:29Z</time>
      </trkpt>
      <trkpt lat="46.19385" lon="-1.4191">
        <ele>2.8</ele>
        <time>2020-06-02T06:52:30Z</time>
      </trkpt>
      <trkpt lat="46.19387" lon="-1.41905">
        <ele>2.8</ele>
        <time>2020-06-02T06:52:31Z</time>
      </trkpt>
      <trkpt lat="46.19389" lon="-1.41901">
        <ele>2.8</ele>
        <time>2020-06-02T06:52:32Z</time>
      </trkpt>
      <trkpt lat="46.19393" lon="-1.41896">
        <ele>2.8</ele>
        <time>2020-06-02T06:52:33Z</time>
      </trkpt>
      <trkpt lat="46.19394" lon="-1.41892">
        <ele>2.8</ele>
        <time>2020-06-02T06:52:34Z</time>
      </trkpt>
      <trkpt lat="46.19396" lon="-1.41887">
        <ele>2.7</ele>
        <time>2020-06-02T06:52:35Z</time>
      </trkpt>
      <trkpt lat="46.19399" lon="-1.41881">
        <ele>2.7</ele>
        <time>2020-06-02T06:52:36Z</time>
      </trkpt>
      <trkpt lat="46.19402" lon="-1.41874">
        <ele>2.7</ele>
        <time>2020-06-02T06:52:37Z</time>
      </trkpt>
      <trkpt lat="46.19405" lon="-1.41868">
        <ele>2.7</ele>
        <time>2020-06-02T06:52:38Z</time>
      </trkpt>
      <trkpt lat="46.19408" lon="-1.41862">
        <ele>2.6</ele>
        <time>2020-06-02T06:52:39Z</time>
      </trkpt>
      <trkpt lat="46.1941" lon="-1.41855">
        <ele>2.6</ele>
        <time>2020-06-02T06:52:40Z</time>
      </trkpt>
      <trkpt lat="46.19412" lon="-1.41848">
        <ele>2.6</ele>
        <time>2020-06-02T06:52:41Z</time>
      </trkpt>
      <trkpt lat="46.19414" lon="-1.41841">
        <ele>2.6</ele>
        <time>2020-06-02T06:52:42Z</time>
      </trkpt>
      <trkpt lat="46.19416" lon="-1.41833">
        <ele>2.6</ele>
        <time>2020-06-02T06:52:43Z</time>
      </trkpt>
      <trkpt lat="46.19417" lon="-1.41826">
        <ele>2.5</ele>
        <time>2020-06-02T06:52:44Z</time>
      </trkpt>
      <trkpt lat="46.19419" lon="-1.41818">
        <ele>2.5</ele>
        <time>2020-06-02T06:52:45Z</time>
      </trkpt>
      <trkpt lat="46.19418" lon="-1.4181">
        <ele>2.5</ele>
        <time>2020-06-02T06:52:46Z</time>
      </trkpt>
      <trkpt lat="46.19417" lon="-1.41803">
        <ele>2.5</ele>
        <time>2020-06-02T06:52:47Z</time>
      </trkpt>
      <trkpt lat="46.19417" lon="-1.41795">
        <ele>2.4</ele>
        <time>2020-06-02T06:52:48Z</time>
      </trkpt>
      <trkpt lat="46.19417" lon="-1.41787">
        <ele>2.4</ele>
        <time>2020-06-02T06:52:49Z</time>
      </trkpt>
      <trkpt lat="46.19417" lon="-1.41779">
        <ele>2.4</ele>
        <time>2020-06-02T06:52:50Z</time>
      </trkpt>
      <trkpt lat="46.19416" lon="-1.41772">
        <ele>2.4</ele>
        <time>2020-06-02T06:52:51Z</time>
      </trkpt>
      <trkpt lat="46.19416" lon="-1.41764">
        <ele>2.4</ele>
        <time>2020-06-02T06:52:52Z</time>
      </trkpt>
      <trkpt lat="46.19415" lon="-1.41757">
        <ele>2.3</ele>
        <time>2020-06-02T06:52:53Z</time>
      </trkpt>
      <trkpt lat="46.19414" lon="-1.41751">
        <ele>2.3</ele>
        <time>2020-06-02T06:52:54Z</time>
      </trkpt>
      <trkpt lat="46.19413" lon="-1.41745">
        <ele>2.3</ele>
        <time>2020-06-02T06:52:55Z</time>
      </trkpt>
      <trkpt lat="46.19411" lon="-1.41739">
        <ele>2.3</ele>
        <time>2020-06-02T06:52:56Z</time>
      </trkpt>
      <trkpt lat="46.19409" lon="-1.41734">
        <ele>2.3</ele>
        <time>2020-06-02T06:52:57Z</time>
      </trkpt>
      <trkpt lat="46.19407" lon="-1.41729">
        <ele>2.3</ele>
        <time>2020-06-02T06:52:58Z</time>
      </trkpt>
      <trkpt lat="46.19406" lon="-1.41722">
        <ele>2.2</ele>
        <time>2020-06-02T06:52:59Z</time>
      </trkpt>
      <trkpt lat="46.19404" lon="-1.41715">
        <ele>2.2</ele>
        <time>2020-06-02T06:53:00Z</time>
      </trkpt>
      <trkpt lat="46.19402" lon="-1.41708">
        <ele>2.2</ele>
        <time>2020-06-02T06:53:01Z</time>
      </trkpt>
      <trkpt lat="46.194" lon="-1.41701">
        <ele>2.2</ele>
        <time>2020-06-02T06:53:02Z</time>
      </trkpt>
      <trkpt lat="46.19398" lon="-1.41695">
        <ele>2.2</ele>
        <time>2020-06-02T06:53:03Z</time>
      </trkpt>
      <trkpt lat="46.19395" lon="-1.41689">
        <ele>2.1</ele>
        <time>2020-06-02T06:53:04Z</time>
      </trkpt>
      <trkpt lat="46.19393" lon="-1.41683">
        <ele>2.1</ele>
        <time>2020-06-02T06:53:05Z</time>
      </trkpt>
      <trkpt lat="46.19389" lon="-1.41676">
        <ele>2.1</ele>
        <time>2020-06-02T06:53:06Z</time>
      </trkpt>
      <trkpt lat="46.19386" lon="-1.4167">
        <ele>2.1</ele>
        <time>2020-06-02T06:53:07Z</time>
      </trkpt>
      <trkpt lat="46.19384" lon="-1.41663">
        <ele>2</ele>
        <time>2020-06-02T06:53:08Z</time>
      </trkpt>
      <trkpt lat="46.19381" lon="-1.41657">
        <ele>2</ele>
        <time>2020-06-02T06:53:09Z</time>
      </trkpt>
      <trkpt lat="46.19379" lon="-1.41652">
        <ele>2</ele>
        <time>2020-06-02T06:53:10Z</time>
      </trkpt>
      <trkpt lat="46.19376" lon="-1.41645">
        <ele>2</ele>
        <time>2020-06-02T06:53:11Z</time>
      </trkpt>
      <trkpt lat="46.19374" lon="-1.41639">
        <ele>1.9</ele>
        <time>2020-06-02T06:53:12Z</time>
      </trkpt>
      <trkpt lat="46.19371" lon="-1.41631">
        <ele>1.9</ele>
        <time>2020-06-02T06:53:13Z</time>
      </trkpt>
      <trkpt lat="46.1937" lon="-1.41624">
        <ele>1.9</ele>
        <time>2020-06-02T06:53:14Z</time>
      </trkpt>
      <trkpt lat="46.19369" lon="-1.41616">
        <ele>1.8</ele>
        <time>2020-06-02T06:53:15Z</time>
      </trkpt>
      <trkpt lat="46.19368" lon="-1.41607">
        <ele>1.8</ele>
        <time>2020-06-02T06:53:16Z</time>
      </trkpt>
      <trkpt lat="46.19367" lon="-1.41599">
        <ele>1.8</ele>
        <time>2020-06-02T06:53:17Z</time>
      </trkpt>
      <trkpt lat="46.19366" lon="-1.41591">
        <ele>1.8</ele>
        <time>2020-06-02T06:53:18Z</time>
      </trkpt>
      <trkpt lat="46.19365" lon="-1.41583">
        <ele>1.7</ele>
        <time>2020-06-02T06:53:19Z</time>
      </trkpt>
      <trkpt lat="46.19364" lon="-1.41577">
        <ele>1.7</ele>
        <time>2020-06-02T06:53:20Z</time>
      </trkpt>
      <trkpt lat="46.19363" lon="-1.4157">
        <ele>1.7</ele>
        <time>2020-06-02T06:53:21Z</time>
      </trkpt>
      <trkpt lat="46.19362" lon="-1.41562">
        <ele>1.7</ele>
        <time>2020-06-02T06:53:22Z</time>
      </trkpt>
      <trkpt lat="46.19362" lon="-1.41555">
        <ele>1.6</ele>
        <time>2020-06-02T06:53:23Z</time>
      </trkpt>
      <trkpt lat="46.19361" lon="-1.41548">
        <ele>1.6</ele>
        <time>2020-06-02T06:53:24Z</time>
      </trkpt>
      <trkpt lat="46.19361" lon="-1.4154">
        <ele>1.6</ele>
        <time>2020-06-02T06:53:25Z</time>
      </trkpt>
      <trkpt lat="46.19361" lon="-1.41533">
        <ele>1.5</ele>
        <time>2020-06-02T06:53:26Z</time>
      </trkpt>
      <trkpt lat="46.1936" lon="-1.41525">
        <ele>1.5</ele>
        <time>2020-06-02T06:53:27Z</time>
      </trkpt>
      <trkpt lat="46.1936" lon="-1.41518">
        <ele>1.5</ele>
        <time>2020-06-02T06:53:28Z</time>
      </trkpt>
      <trkpt lat="46.19359" lon="-1.4151">
        <ele>1.4</ele>
        <time>2020-06-02T06:53:29Z</time>
      </trkpt>
      <trkpt lat="46.19359" lon="-1.41502">
        <ele>1.4</ele>
        <time>2020-06-02T06:53:30Z</time>
      </trkpt>
      <trkpt lat="46.19358" lon="-1.41494">
        <ele>1.3</ele>
        <time>2020-06-02T06:53:31Z</time>
      </trkpt>
      <trkpt lat="46.19356" lon="-1.41486">
        <ele>1.3</ele>
        <time>2020-06-02T06:53:32Z</time>
      </trkpt>
      <trkpt lat="46.19355" lon="-1.41478">
        <ele>1.3</ele>
        <time>2020-06-02T06:53:33Z</time>
      </trkpt>
      <trkpt lat="46.19352" lon="-1.41471">
        <ele>1.2</ele>
        <time>2020-06-02T06:53:34Z</time>
      </trkpt>
      <trkpt lat="46.1935" lon="-1.41463">
        <ele>1.2</ele>
        <time>2020-06-02T06:53:35Z</time>
      </trkpt>
      <trkpt lat="46.19348" lon="-1.41456">
        <ele>1.2</ele>
        <time>2020-06-02T06:53:36Z</time>
      </trkpt>
      <trkpt lat="46.19347" lon="-1.41448">
        <ele>1.1</ele>
        <time>2020-06-02T06:53:37Z</time>
      </trkpt>
      <trkpt lat="46.19345" lon="-1.4144">
        <ele>1.1</ele>
        <time>2020-06-02T06:53:38Z</time>
      </trkpt>
      <trkpt lat="46.19343" lon="-1.41433">
        <ele>1.1</ele>
        <time>2020-06-02T06:53:39Z</time>
      </trkpt>
      <trkpt lat="46.19341" lon="-1.41426">
        <ele>1.1</ele>
        <time>2020-06-02T06:53:40Z</time>
      </trkpt>
      <trkpt lat="46.19341" lon="-1.41419">
        <ele>1.1</ele>
        <time>2020-06-02T06:53:41Z</time>
      </trkpt>
      <trkpt lat="46.19339" lon="-1.41412">
        <ele>1</ele>
        <time>2020-06-02T06:53:42Z</time>
      </trkpt>
      <trkpt lat="46.19338" lon="-1.41404">
        <ele>1</ele>
        <time>2020-06-02T06:53:43Z</time>
      </trkpt>
      <trkpt lat="46.19337" lon="-1.41396">
        <ele>1</ele>
        <time>2020-06-02T06:53:44Z</time>
      </trkpt>
      <trkpt lat="46.19336" lon="-1.41388">
        <ele>1</ele>
        <time>2020-06-02T06:53:45Z</time>
      </trkpt>
      <trkpt lat="46.19336" lon="-1.4138">
        <ele>0.9</ele>
        <time>2020-06-02T06:53:46Z</time>
      </trkpt>
      <trkpt lat="46.19336" lon="-1.41371">
        <ele>0.9</ele>
        <time>2020-06-02T06:53:47Z</time>
      </trkpt>
      <trkpt lat="46.19337" lon="-1.41363">
        <ele>0.9</ele>
        <time>2020-06-02T06:53:48Z</time>
      </trkpt>
      <trkpt lat="46.1934" lon="-1.41357">
        <ele>0.9</ele>
        <time>2020-06-02T06:53:49Z</time>
      </trkpt>
      <trkpt lat="46.19341" lon="-1.41349">
        <ele>0.9</ele>
        <time>2020-06-02T06:53:50Z</time>
      </trkpt>
      <trkpt lat="46.19342" lon="-1.41343">
        <ele>0.9</ele>
        <time>2020-06-02T06:53:51Z</time>
      </trkpt>
      <trkpt lat="46.19345" lon="-1.41336">
        <ele>0.9</ele>
        <time>2020-06-02T06:53:52Z</time>
      </trkpt>
      <trkpt lat="46.19348" lon="-1.4133">
        <ele>0.8</ele>
        <time>2020-06-02T06:53:53Z</time>
      </trkpt>
      <trkpt lat="46.1935" lon="-1.41324">
        <ele>0.8</ele>
        <time>2020-06-02T06:53:54Z</time>
      </trkpt>
      <trkpt lat="46.19353" lon="-1.41319">
        <ele>0.8</ele>
        <time>2020-06-02T06:53:55Z</time>
      </trkpt>
      <trkpt lat="46.19356" lon="-1.41313">
        <ele>0.8</ele>
        <time>2020-06-02T06:53:56Z</time>
      </trkpt>
      <trkpt lat="46.19359" lon="-1.41307">
        <ele>0.8</ele>
        <time>2020-06-02T06:53:57Z</time>
      </trkpt>
      <trkpt lat="46.19362" lon="-1.41301">
        <ele>0.8</ele>
        <time>2020-06-02T06:53:58Z</time>
      </trkpt>
      <trkpt lat="46.19365" lon="-1.41295">
        <ele>0.8</ele>
        <time>2020-06-02T06:53:59Z</time>
      </trkpt>
      <trkpt lat="46.19368" lon="-1.41289">
        <ele>0.8</ele>
        <time>2020-06-02T06:54:00Z</time>
      </trkpt>
      <trkpt lat="46.1937" lon="-1.41282">
        <ele>0.8</ele>
        <time>2020-06-02T06:54:01Z</time>
      </trkpt>
      <trkpt lat="46.19373" lon="-1.41277">
        <ele>0.8</ele>
        <time>2020-06-02T06:54:02Z</time>
      </trkpt>
      <trkpt lat="46.19375" lon="-1.4127">
        <ele>0.8</ele>
        <time>2020-06-02T06:54:03Z</time>
      </trkpt>
      <trkpt lat="46.19377" lon="-1.41263">
        <ele>0.8</ele>
        <time>2020-06-02T06:54:04Z</time>
      </trkpt>
      <trkpt lat="46.19378" lon="-1.41256">
        <ele>0.8</ele>
        <time>2020-06-02T06:54:05Z</time>
      </trkpt>
      <trkpt lat="46.1938" lon="-1.41249">
        <ele>0.8</ele>
        <time>2020-06-02T06:54:06Z</time>
      </trkpt>
      <trkpt lat="46.19381" lon="-1.41242">
        <ele>0.8</ele>
        <time>2020-06-02T06:54:07Z</time>
      </trkpt>
      <trkpt lat="46.19382" lon="-1.41234">
        <ele>0.8</ele>
        <time>2020-06-02T06:54:08Z</time>
      </trkpt>
      <trkpt lat="46.19383" lon="-1.41227">
        <ele>0.8</ele>
        <time>2020-06-02T06:54:09Z</time>
      </trkpt>
      <trkpt lat="46.19383" lon="-1.4122">
        <ele>0.8</ele>
        <time>2020-06-02T06:54:10Z</time>
      </trkpt>
      <trkpt lat="46.19383" lon="-1.41213">
        <ele>0.7</ele>
        <time>2020-06-02T06:54:11Z</time>
      </trkpt>
      <trkpt lat="46.19384" lon="-1.41207">
        <ele>0.7</ele>
        <time>2020-06-02T06:54:12Z</time>
      </trkpt>
      <trkpt lat="46.19385" lon="-1.412">
        <ele>0.7</ele>
        <time>2020-06-02T06:54:13Z</time>
      </trkpt>
      <trkpt lat="46.19385" lon="-1.41193">
        <ele>0.7</ele>
        <time>2020-06-02T06:54:14Z</time>
      </trkpt>
      <trkpt lat="46.19386" lon="-1.41187">
        <ele>0.7</ele>
        <time>2020-06-02T06:54:15Z</time>
      </trkpt>
      <trkpt lat="46.19386" lon="-1.4118">
        <ele>0.7</ele>
        <time>2020-06-02T06:54:16Z</time>
      </trkpt>
      <trkpt lat="46.19387" lon="-1.41173">
        <ele>0.7</ele>
        <time>2020-06-02T06:54:17Z</time>
      </trkpt>
      <trkpt lat="46.19388" lon="-1.41166">
        <ele>0.7</ele>
        <time>2020-06-02T06:54:18Z</time>
      </trkpt>
      <trkpt lat="46.19389" lon="-1.4116">
        <ele>0.7</ele>
        <time>2020-06-02T06:54:19Z</time>
      </trkpt>
      <trkpt lat="46.1939" lon="-1.41153">
        <ele>0.7</ele>
        <time>2020-06-02T06:54:20Z</time>
      </trkpt>
      <trkpt lat="46.19392" lon="-1.41147">
        <ele>0.7</ele>
        <time>2020-06-02T06:54:21Z</time>
      </trkpt>
      <trkpt lat="46.19394" lon="-1.41141">
        <ele>0.7</ele>
        <time>2020-06-02T06:54:22Z</time>
      </trkpt>
      <trkpt lat="46.19395" lon="-1.41135">
        <ele>0.7</ele>
        <time>2020-06-02T06:54:23Z</time>
      </trkpt>
      <trkpt lat="46.19397" lon="-1.41128">
        <ele>0.7</ele>
        <time>2020-06-02T06:54:24Z</time>
      </trkpt>
      <trkpt lat="46.19398" lon="-1.41122">
        <ele>0.7</ele>
        <time>2020-06-02T06:54:25Z</time>
      </trkpt>
      <trkpt lat="46.19401" lon="-1.41115">
        <ele>0.7</ele>
        <time>2020-06-02T06:54:26Z</time>
      </trkpt>
      <trkpt lat="46.19403" lon="-1.41108">
        <ele>0.7</ele>
        <time>2020-06-02T06:54:27Z</time>
      </trkpt>
      <trkpt lat="46.19404" lon="-1.41101">
        <ele>0.7</ele>
        <time>2020-06-02T06:54:28Z</time>
      </trkpt>
      <trkpt lat="46.19406" lon="-1.41094">
        <ele>0.7</ele>
        <time>2020-06-02T06:54:29Z</time>
      </trkpt>
      <trkpt lat="46.19408" lon="-1.41087">
        <ele>0.7</ele>
        <time>2020-06-02T06:54:30Z</time>
      </trkpt>
      <trkpt lat="46.19409" lon="-1.4108">
        <ele>0.7</ele>
        <time>2020-06-02T06:54:31Z</time>
      </trkpt>
      <trkpt lat="46.19409" lon="-1.41073">
        <ele>0.7</ele>
        <time>2020-06-02T06:54:32Z</time>
      </trkpt>
      <trkpt lat="46.19412" lon="-1.41066">
        <ele>0.7</ele>
        <time>2020-06-02T06:54:33Z</time>
      </trkpt>
      <trkpt lat="46.19413" lon="-1.41059">
        <ele>0.7</ele>
        <time>2020-06-02T06:54:34Z</time>
      </trkpt>
      <trkpt lat="46.19415" lon="-1.41053">
        <ele>0.7</ele>
        <time>2020-06-02T06:54:35Z</time>
      </trkpt>
      <trkpt lat="46.19416" lon="-1.41047">
        <ele>0.7</ele>
        <time>2020-06-02T06:54:36Z</time>
      </trkpt>
      <trkpt lat="46.19416" lon="-1.41041">
        <ele>0.7</ele>
        <time>2020-06-02T06:54:37Z</time>
      </trkpt>
      <trkpt lat="46.19415" lon="-1.41036">
        <ele>0.7</ele>
        <time>2020-06-02T06:54:38Z</time>
      </trkpt>
      <trkpt lat="46.19413" lon="-1.41032">
        <ele>0.7</ele>
        <time>2020-06-02T06:54:39Z</time>
      </trkpt>
      <trkpt lat="46.19411" lon="-1.41026">
        <ele>0.7</ele>
        <time>2020-06-02T06:54:40Z</time>
      </trkpt>
      <trkpt lat="46.19409" lon="-1.41019">
        <ele>0.7</ele>
        <time>2020-06-02T06:54:41Z</time>
      </trkpt>
      <trkpt lat="46.19407" lon="-1.41012">
        <ele>0.7</ele>
        <time>2020-06-02T06:54:42Z</time>
      </trkpt>
      <trkpt lat="46.19405" lon="-1.41004">
        <ele>0.7</ele>
        <time>2020-06-02T06:54:43Z</time>
      </trkpt>
      <trkpt lat="46.19403" lon="-1.40996">
        <ele>0.7</ele>
        <time>2020-06-02T06:54:44Z</time>
      </trkpt>
      <trkpt lat="46.194" lon="-1.40988">
        <ele>0.7</ele>
        <time>2020-06-02T06:54:45Z</time>
      </trkpt>
      <trkpt lat="46.19399" lon="-1.40979">
        <ele>0.7</ele>
        <time>2020-06-02T06:54:46Z</time>
      </trkpt>
      <trkpt lat="46.19397" lon="-1.40971">
        <ele>0.7</ele>
        <time>2020-06-02T06:54:47Z</time>
      </trkpt>
      <trkpt lat="46.19394" lon="-1.40964">
        <ele>0.8</ele>
        <time>2020-06-02T06:54:48Z</time>
      </trkpt>
      <trkpt lat="46.19393" lon="-1.40957">
        <ele>0.8</ele>
        <time>2020-06-02T06:54:49Z</time>
      </trkpt>
      <trkpt lat="46.19391" lon="-1.40951">
        <ele>0.8</ele>
        <time>2020-06-02T06:54:50Z</time>
      </trkpt>
      <trkpt lat="46.19389" lon="-1.40944">
        <ele>0.8</ele>
        <time>2020-06-02T06:54:51Z</time>
      </trkpt>
      <trkpt lat="46.19388" lon="-1.40938">
        <ele>0.8</ele>
        <time>2020-06-02T06:54:52Z</time>
      </trkpt>
      <trkpt lat="46.19386" lon="-1.40931">
        <ele>0.8</ele>
        <time>2020-06-02T06:54:53Z</time>
      </trkpt>
      <trkpt lat="46.19385" lon="-1.40924">
        <ele>0.8</ele>
        <time>2020-06-02T06:54:54Z</time>
      </trkpt>
      <trkpt lat="46.19384" lon="-1.40918">
        <ele>0.8</ele>
        <time>2020-06-02T06:54:55Z</time>
      </trkpt>
      <trkpt lat="46.19383" lon="-1.40912">
        <ele>0.8</ele>
        <time>2020-06-02T06:54:56Z</time>
      </trkpt>
      <trkpt lat="46.19381" lon="-1.40905">
        <ele>0.8</ele>
        <time>2020-06-02T06:54:57Z</time>
      </trkpt>
      <trkpt lat="46.19379" lon="-1.40898">
        <ele>0.8</ele>
        <time>2020-06-02T06:54:58Z</time>
      </trkpt>
      <trkpt lat="46.19378" lon="-1.4089">
        <ele>0.8</ele>
        <time>2020-06-02T06:54:59Z</time>
      </trkpt>
      <trkpt lat="46.19376" lon="-1.40883">
        <ele>0.8</ele>
        <time>2020-06-02T06:55:00Z</time>
      </trkpt>
      <trkpt lat="46.19374" lon="-1.40876">
        <ele>0.8</ele>
        <time>2020-06-02T06:55:01Z</time>
      </trkpt>
      <trkpt lat="46.19373" lon="-1.40871">
        <ele>0.8</ele>
        <time>2020-06-02T06:55:02Z</time>
      </trkpt>
      <trkpt lat="46.19371" lon="-1.40865">
        <ele>0.8</ele>
        <time>2020-06-02T06:55:03Z</time>
      </trkpt>
      <trkpt lat="46.1937" lon="-1.40859">
        <ele>0.9</ele>
        <time>2020-06-02T06:55:04Z</time>
      </trkpt>
      <trkpt lat="46.19369" lon="-1.40851">
        <ele>0.9</ele>
        <time>2020-06-02T06:55:05Z</time>
      </trkpt>
      <trkpt lat="46.19367" lon="-1.40844">
        <ele>0.9</ele>
        <time>2020-06-02T06:55:06Z</time>
      </trkpt>
      <trkpt lat="46.19366" lon="-1.40836">
        <ele>0.9</ele>
        <time>2020-06-02T06:55:07Z</time>
      </trkpt>
      <trkpt lat="46.19364" lon="-1.4083">
        <ele>0.9</ele>
        <time>2020-06-02T06:55:08Z</time>
      </trkpt>
      <trkpt lat="46.19363" lon="-1.40823">
        <ele>0.9</ele>
        <time>2020-06-02T06:55:09Z</time>
      </trkpt>
      <trkpt lat="46.19362" lon="-1.40816">
        <ele>0.9</ele>
        <time>2020-06-02T06:55:10Z</time>
      </trkpt>
      <trkpt lat="46.1936" lon="-1.4081">
        <ele>0.9</ele>
        <time>2020-06-02T06:55:11Z</time>
      </trkpt>
      <trkpt lat="46.19359" lon="-1.40804">
        <ele>0.9</ele>
        <time>2020-06-02T06:55:12Z</time>
      </trkpt>
      <trkpt lat="46.19357" lon="-1.40797">
        <ele>0.9</ele>
        <time>2020-06-02T06:55:13Z</time>
      </trkpt>
      <trkpt lat="46.19355" lon="-1.40791">
        <ele>0.9</ele>
        <time>2020-06-02T06:55:14Z</time>
      </trkpt>
      <trkpt lat="46.19354" lon="-1.40784">
        <ele>0.9</ele>
        <time>2020-06-02T06:55:15Z</time>
      </trkpt>
      <trkpt lat="46.19353" lon="-1.40776">
        <ele>1</ele>
        <time>2020-06-02T06:55:16Z</time>
      </trkpt>
      <trkpt lat="46.19351" lon="-1.40769">
        <ele>1</ele>
        <time>2020-06-02T06:55:17Z</time>
      </trkpt>
      <trkpt lat="46.19349" lon="-1.40762">
        <ele>1</ele>
        <time>2020-06-02T06:55:18Z</time>
      </trkpt>
      <trkpt lat="46.19347" lon="-1.40755">
        <ele>1</ele>
        <time>2020-06-02T06:55:19Z</time>
      </trkpt>
      <trkpt lat="46.19346" lon="-1.40747">
        <ele>1</ele>
        <time>2020-06-02T06:55:20Z</time>
      </trkpt>
      <trkpt lat="46.19343" lon="-1.40741">
        <ele>1.1</ele>
        <time>2020-06-02T06:55:21Z</time>
      </trkpt>
      <trkpt lat="46.19342" lon="-1.40733">
        <ele>1.1</ele>
        <time>2020-06-02T06:55:22Z</time>
      </trkpt>
      <trkpt lat="46.1934" lon="-1.40725">
        <ele>1.2</ele>
        <time>2020-06-02T06:55:23Z</time>
      </trkpt>
      <trkpt lat="46.19338" lon="-1.40717">
        <ele>1.2</ele>
        <time>2020-06-02T06:55:24Z</time>
      </trkpt>
      <trkpt lat="46.19336" lon="-1.40711">
        <ele>1.3</ele>
        <time>2020-06-02T06:55:25Z</time>
      </trkpt>
      <trkpt lat="46.19335" lon="-1.40703">
        <ele>1.3</ele>
        <time>2020-06-02T06:55:26Z</time>
      </trkpt>
      <trkpt lat="46.19333" lon="-1.40697">
        <ele>1.4</ele>
        <time>2020-06-02T06:55:27Z</time>
      </trkpt>
      <trkpt lat="46.19331" lon="-1.40689">
        <ele>1.4</ele>
        <time>2020-06-02T06:55:28Z</time>
      </trkpt>
      <trkpt lat="46.19328" lon="-1.40682">
        <ele>1.5</ele>
        <time>2020-06-02T06:55:29Z</time>
      </trkpt>
      <trkpt lat="46.19327" lon="-1.40676">
        <ele>1.5</ele>
        <time>2020-06-02T06:55:30Z</time>
      </trkpt>
      <trkpt lat="46.19324" lon="-1.40668">
        <ele>1.6</ele>
        <time>2020-06-02T06:55:31Z</time>
      </trkpt>
      <trkpt lat="46.19322" lon="-1.40662">
        <ele>1.6</ele>
        <time>2020-06-02T06:55:32Z</time>
      </trkpt>
      <trkpt lat="46.1932" lon="-1.40655">
        <ele>1.7</ele>
        <time>2020-06-02T06:55:33Z</time>
      </trkpt>
      <trkpt lat="46.19319" lon="-1.40649">
        <ele>1.7</ele>
        <time>2020-06-02T06:55:34Z</time>
      </trkpt>
      <trkpt lat="46.19316" lon="-1.40641">
        <ele>1.8</ele>
        <time>2020-06-02T06:55:35Z</time>
      </trkpt>
      <trkpt lat="46.19314" lon="-1.40635">
        <ele>1.8</ele>
        <time>2020-06-02T06:55:36Z</time>
      </trkpt>
      <trkpt lat="46.19312" lon="-1.40628">
        <ele>1.8</ele>
        <time>2020-06-02T06:55:37Z</time>
      </trkpt>
      <trkpt lat="46.19312" lon="-1.40621">
        <ele>1.8</ele>
        <time>2020-06-02T06:55:38Z</time>
      </trkpt>
      <trkpt lat="46.19311" lon="-1.40613">
        <ele>1.8</ele>
        <time>2020-06-02T06:55:39Z</time>
      </trkpt>
      <trkpt lat="46.19309" lon="-1.40606">
        <ele>1.8</ele>
        <time>2020-06-02T06:55:40Z</time>
      </trkpt>
      <trkpt lat="46.19308" lon="-1.40599">
        <ele>1.9</ele>
        <time>2020-06-02T06:55:41Z</time>
      </trkpt>
      <trkpt lat="46.19306" lon="-1.40593">
        <ele>1.9</ele>
        <time>2020-06-02T06:55:42Z</time>
      </trkpt>
      <trkpt lat="46.19305" lon="-1.40586">
        <ele>1.9</ele>
        <time>2020-06-02T06:55:43Z</time>
      </trkpt>
      <trkpt lat="46.19302" lon="-1.40578">
        <ele>2</ele>
        <time>2020-06-02T06:55:44Z</time>
      </trkpt>
      <trkpt lat="46.19301" lon="-1.40572">
        <ele>2.1</ele>
        <time>2020-06-02T06:55:45Z</time>
      </trkpt>
      <trkpt lat="46.19299" lon="-1.40566">
        <ele>2.1</ele>
        <time>2020-06-02T06:55:46Z</time>
      </trkpt>
      <trkpt lat="46.19297" lon="-1.40559">
        <ele>2.2</ele>
        <time>2020-06-02T06:55:47Z</time>
      </trkpt>
      <trkpt lat="46.19296" lon="-1.40552">
        <ele>2.3</ele>
        <time>2020-06-02T06:55:48Z</time>
      </trkpt>
      <trkpt lat="46.19295" lon="-1.40546">
        <ele>2.3</ele>
        <time>2020-06-02T06:55:49Z</time>
      </trkpt>
      <trkpt lat="46.19293" lon="-1.4054">
        <ele>2.4</ele>
        <time>2020-06-02T06:55:50Z</time>
      </trkpt>
      <trkpt lat="46.19291" lon="-1.40533">
        <ele>2.4</ele>
        <time>2020-06-02T06:55:51Z</time>
      </trkpt>
      <trkpt lat="46.19289" lon="-1.40528">
        <ele>2.4</ele>
        <time>2020-06-02T06:55:52Z</time>
      </trkpt>
      <trkpt lat="46.19288" lon="-1.40522">
        <ele>2.4</ele>
        <time>2020-06-02T06:55:53Z</time>
      </trkpt>
      <trkpt lat="46.19287" lon="-1.40516">
        <ele>2.4</ele>
        <time>2020-06-02T06:55:54Z</time>
      </trkpt>
      <trkpt lat="46.19285" lon="-1.4051">
        <ele>2.4</ele>
        <time>2020-06-02T06:55:55Z</time>
      </trkpt>
      <trkpt lat="46.19283" lon="-1.40504">
        <ele>2.4</ele>
        <time>2020-06-02T06:55:56Z</time>
      </trkpt>
      <trkpt lat="46.19282" lon="-1.40497">
        <ele>2.5</ele>
        <time>2020-06-02T06:55:57Z</time>
      </trkpt>
      <trkpt lat="46.1928" lon="-1.4049">
        <ele>2.5</ele>
        <time>2020-06-02T06:55:58Z</time>
      </trkpt>
      <trkpt lat="46.19278" lon="-1.40483">
        <ele>2.5</ele>
        <time>2020-06-02T06:55:59Z</time>
      </trkpt>
      <trkpt lat="46.19277" lon="-1.40478">
        <ele>2.5</ele>
        <time>2020-06-02T06:56:00Z</time>
      </trkpt>
      <trkpt lat="46.19275" lon="-1.4047">
        <ele>2.5</ele>
        <time>2020-06-02T06:56:01Z</time>
      </trkpt>
      <trkpt lat="46.19274" lon="-1.40465">
        <ele>2.5</ele>
        <time>2020-06-02T06:56:02Z</time>
      </trkpt>
      <trkpt lat="46.19273" lon="-1.4046">
        <ele>2.6</ele>
        <time>2020-06-02T06:56:03Z</time>
      </trkpt>
      <trkpt lat="46.19271" lon="-1.40456">
        <ele>2.6</ele>
        <time>2020-06-02T06:56:04Z</time>
      </trkpt>
      <trkpt lat="46.1927" lon="-1.40456">
        <ele>2.6</ele>
        <time>2020-06-02T06:56:05Z</time>
      </trkpt>
      <trkpt lat="46.1927" lon="-1.40454">
        <ele>2.6</ele>
        <time>2020-06-02T06:56:06Z</time>
      </trkpt>
      <trkpt lat="46.1927" lon="-1.40453">
        <ele>2.6</ele>
        <time>2020-06-02T06:56:07Z</time>
      </trkpt>
      <trkpt lat="46.19269" lon="-1.40453">
        <ele>2.6</ele>
        <time>2020-06-02T06:56:08Z</time>
      </trkpt>
      <trkpt lat="46.19269" lon="-1.40452">
        <ele>2.6</ele>
        <time>2020-06-02T06:56:09Z</time>
      </trkpt>
      <trkpt lat="46.19269" lon="-1.40451">
        <ele>2.6</ele>
        <time>2020-06-02T06:56:10Z</time>
      </trkpt>
      <trkpt lat="46.19269" lon="-1.40451">
        <ele>2.6</ele>
        <time>2020-06-02T06:56:11Z</time>
      </trkpt>
      <trkpt lat="46.19269" lon="-1.4045">
        <ele>2.6</ele>
        <time>2020-06-02T06:56:12Z</time>
      </trkpt>
      <trkpt lat="46.19269" lon="-1.40449">
        <ele>2.6</ele>
        <time>2020-06-02T06:56:13Z</time>
      </trkpt>
      <trkpt lat="46.19267" lon="-1.40445">
        <ele>2.6</ele>
        <time>2020-06-02T06:56:14Z</time>
      </trkpt>
      <trkpt lat="46.19266" lon="-1.40441">
        <ele>2.6</ele>
        <time>2020-06-02T06:56:15Z</time>
      </trkpt>
      <trkpt lat="46.19264" lon="-1.40435">
        <ele>2.6</ele>
        <time>2020-06-02T06:56:16Z</time>
      </trkpt>
      <trkpt lat="46.19263" lon="-1.4043">
        <ele>2.6</ele>
        <time>2020-06-02T06:56:17Z</time>
      </trkpt>
      <trkpt lat="46.19261" lon="-1.40424">
        <ele>2.6</ele>
        <time>2020-06-02T06:56:18Z</time>
      </trkpt>
      <trkpt lat="46.19259" lon="-1.40418">
        <ele>2.6</ele>
        <time>2020-06-02T06:56:19Z</time>
      </trkpt>
      <trkpt lat="46.19257" lon="-1.4041">
        <ele>2.5</ele>
        <time>2020-06-02T06:56:20Z</time>
      </trkpt>
      <trkpt lat="46.19255" lon="-1.40402">
        <ele>2.5</ele>
        <time>2020-06-02T06:56:21Z</time>
      </trkpt>
      <trkpt lat="46.19254" lon="-1.40394">
        <ele>2.5</ele>
        <time>2020-06-02T06:56:22Z</time>
      </trkpt>
      <trkpt lat="46.19252" lon="-1.40386">
        <ele>2.5</ele>
        <time>2020-06-02T06:56:23Z</time>
      </trkpt>
      <trkpt lat="46.19251" lon="-1.4038">
        <ele>2.5</ele>
        <time>2020-06-02T06:56:24Z</time>
      </trkpt>
      <trkpt lat="46.1925" lon="-1.40374">
        <ele>2.5</ele>
        <time>2020-06-02T06:56:25Z</time>
      </trkpt>
      <trkpt lat="46.19248" lon="-1.40365">
        <ele>2.5</ele>
        <time>2020-06-02T06:56:26Z</time>
      </trkpt>
      <trkpt lat="46.19246" lon="-1.40358">
        <ele>2.5</ele>
        <time>2020-06-02T06:56:27Z</time>
      </trkpt>
      <trkpt lat="46.19244" lon="-1.40351">
        <ele>2.5</ele>
        <time>2020-06-02T06:56:28Z</time>
      </trkpt>
      <trkpt lat="46.19243" lon="-1.40345">
        <ele>2.5</ele>
        <time>2020-06-02T06:56:29Z</time>
      </trkpt>
      <trkpt lat="46.19241" lon="-1.40338">
        <ele>2.5</ele>
        <time>2020-06-02T06:56:30Z</time>
      </trkpt>
      <trkpt lat="46.1924" lon="-1.40331">
        <ele>2.5</ele>
        <time>2020-06-02T06:56:31Z</time>
      </trkpt>
      <trkpt lat="46.19238" lon="-1.40324">
        <ele>2.4</ele>
        <time>2020-06-02T06:56:32Z</time>
      </trkpt>
      <trkpt lat="46.19236" lon="-1.40317">
        <ele>2.4</ele>
        <time>2020-06-02T06:56:33Z</time>
      </trkpt>
      <trkpt lat="46.19235" lon="-1.40311">
        <ele>2.4</ele>
        <time>2020-06-02T06:56:34Z</time>
      </trkpt>
      <trkpt lat="46.19233" lon="-1.40304">
        <ele>2.4</ele>
        <time>2020-06-02T06:56:35Z</time>
      </trkpt>
      <trkpt lat="46.19231" lon="-1.40298">
        <ele>2.4</ele>
        <time>2020-06-02T06:56:36Z</time>
      </trkpt>
      <trkpt lat="46.1923" lon="-1.40292">
        <ele>2.4</ele>
        <time>2020-06-02T06:56:37Z</time>
      </trkpt>
      <trkpt lat="46.19229" lon="-1.40285">
        <ele>2.4</ele>
        <time>2020-06-02T06:56:38Z</time>
      </trkpt>
      <trkpt lat="46.19227" lon="-1.40279">
        <ele>2.4</ele>
        <time>2020-06-02T06:56:39Z</time>
      </trkpt>
      <trkpt lat="46.19225" lon="-1.40273">
        <ele>2.4</ele>
        <time>2020-06-02T06:56:40Z</time>
      </trkpt>
      <trkpt lat="46.19224" lon="-1.40266">
        <ele>2.4</ele>
        <time>2020-06-02T06:56:41Z</time>
      </trkpt>
      <trkpt lat="46.19222" lon="-1.4026">
        <ele>2.4</ele>
        <time>2020-06-02T06:56:42Z</time>
      </trkpt>
      <trkpt lat="46.19221" lon="-1.40253">
        <ele>2.4</ele>
        <time>2020-06-02T06:56:43Z</time>
      </trkpt>
      <trkpt lat="46.1922" lon="-1.40245">
        <ele>2.4</ele>
        <time>2020-06-02T06:56:44Z</time>
      </trkpt>
      <trkpt lat="46.19218" lon="-1.40238">
        <ele>2.4</ele>
        <time>2020-06-02T06:56:45Z</time>
      </trkpt>
      <trkpt lat="46.19216" lon="-1.40231">
        <ele>2.4</ele>
        <time>2020-06-02T06:56:46Z</time>
      </trkpt>
      <trkpt lat="46.19214" lon="-1.40225">
        <ele>2.4</ele>
        <time>2020-06-02T06:56:47Z</time>
      </trkpt>
      <trkpt lat="46.19212" lon="-1.40219">
        <ele>2.4</ele>
        <time>2020-06-02T06:56:48Z</time>
      </trkpt>
      <trkpt lat="46.19211" lon="-1.40211">
        <ele>2.4</ele>
        <time>2020-06-02T06:56:49Z</time>
      </trkpt>
      <trkpt lat="46.19209" lon="-1.40205">
        <ele>2.4</ele>
        <time>2020-06-02T06:56:50Z</time>
      </trkpt>
      <trkpt lat="46.19207" lon="-1.402">
        <ele>2.4</ele>
        <time>2020-06-02T06:56:51Z</time>
      </trkpt>
      <trkpt lat="46.19205" lon="-1.40193">
        <ele>2.4</ele>
        <time>2020-06-02T06:56:52Z</time>
      </trkpt>
      <trkpt lat="46.19204" lon="-1.40187">
        <ele>2.4</ele>
        <time>2020-06-02T06:56:53Z</time>
      </trkpt>
      <trkpt lat="46.19202" lon="-1.4018">
        <ele>2.4</ele>
        <time>2020-06-02T06:56:54Z</time>
      </trkpt>
      <trkpt lat="46.192" lon="-1.40174">
        <ele>2.4</ele>
        <time>2020-06-02T06:56:55Z</time>
      </trkpt>
      <trkpt lat="46.19199" lon="-1.40168">
        <ele>2.4</ele>
        <time>2020-06-02T06:56:56Z</time>
      </trkpt>
      <trkpt lat="46.19198" lon="-1.40161">
        <ele>2.4</ele>
        <time>2020-06-02T06:56:57Z</time>
      </trkpt>
      <trkpt lat="46.19196" lon="-1.40155">
        <ele>2.4</ele>
        <time>2020-06-02T06:56:58Z</time>
      </trkpt>
      <trkpt lat="46.19194" lon="-1.4015">
        <ele>2.4</ele>
        <time>2020-06-02T06:56:59Z</time>
      </trkpt>
      <trkpt lat="46.19193" lon="-1.40142">
        <ele>2.4</ele>
        <time>2020-06-02T06:57:00Z</time>
      </trkpt>
      <trkpt lat="46.19192" lon="-1.40136">
        <ele>2.4</ele>
        <time>2020-06-02T06:57:01Z</time>
      </trkpt>
      <trkpt lat="46.1919" lon="-1.40131">
        <ele>2.4</ele>
        <time>2020-06-02T06:57:02Z</time>
      </trkpt>
      <trkpt lat="46.19188" lon="-1.40125">
        <ele>2.3</ele>
        <time>2020-06-02T06:57:03Z</time>
      </trkpt>
      <trkpt lat="46.19186" lon="-1.40119">
        <ele>2.3</ele>
        <time>2020-06-02T06:57:04Z</time>
      </trkpt>
      <trkpt lat="46.19185" lon="-1.40112">
        <ele>2.3</ele>
        <time>2020-06-02T06:57:05Z</time>
      </trkpt>
      <trkpt lat="46.19183" lon="-1.40105">
        <ele>2.3</ele>
        <time>2020-06-02T06:57:06Z</time>
      </trkpt>
      <trkpt lat="46.19181" lon="-1.40099">
        <ele>2.3</ele>
        <time>2020-06-02T06:57:07Z</time>
      </trkpt>
      <trkpt lat="46.1918" lon="-1.40093">
        <ele>2.3</ele>
        <time>2020-06-02T06:57:08Z</time>
      </trkpt>
      <trkpt lat="46.19178" lon="-1.40086">
        <ele>2.3</ele>
        <time>2020-06-02T06:57:09Z</time>
      </trkpt>
      <trkpt lat="46.19176" lon="-1.4008">
        <ele>2.3</ele>
        <time>2020-06-02T06:57:10Z</time>
      </trkpt>
      <trkpt lat="46.19174" lon="-1.40074">
        <ele>2.2</ele>
        <time>2020-06-02T06:57:11Z</time>
      </trkpt>
      <trkpt lat="46.19172" lon="-1.40067">
        <ele>2.2</ele>
        <time>2020-06-02T06:57:12Z</time>
      </trkpt>
      <trkpt lat="46.1917" lon="-1.4006">
        <ele>2.2</ele>
        <time>2020-06-02T06:57:13Z</time>
      </trkpt>
      <trkpt lat="46.19169" lon="-1.40054">
        <ele>2.2</ele>
        <time>2020-06-02T06:57:14Z</time>
      </trkpt>
      <trkpt lat="46.19167" lon="-1.40047">
        <ele>2.2</ele>
        <time>2020-06-02T06:57:15Z</time>
      </trkpt>
      <trkpt lat="46.19166" lon="-1.40041">
        <ele>2.2</ele>
        <time>2020-06-02T06:57:16Z</time>
      </trkpt>
      <trkpt lat="46.19164" lon="-1.40036">
        <ele>2.2</ele>
        <time>2020-06-02T06:57:17Z</time>
      </trkpt>
      <trkpt lat="46.19162" lon="-1.40029">
        <ele>2.2</ele>
        <time>2020-06-02T06:57:18Z</time>
      </trkpt>
      <trkpt lat="46.1916" lon="-1.40024">
        <ele>2.2</ele>
        <time>2020-06-02T06:57:19Z</time>
      </trkpt>
      <trkpt lat="46.19158" lon="-1.40017">
        <ele>2.2</ele>
        <time>2020-06-02T06:57:20Z</time>
      </trkpt>
      <trkpt lat="46.19157" lon="-1.40011">
        <ele>2.2</ele>
        <time>2020-06-02T06:57:21Z</time>
      </trkpt>
      <trkpt lat="46.19155" lon="-1.40004">
        <ele>2.2</ele>
        <time>2020-06-02T06:57:22Z</time>
      </trkpt>
      <trkpt lat="46.19153" lon="-1.39998">
        <ele>2.2</ele>
        <time>2020-06-02T06:57:23Z</time>
      </trkpt>
      <trkpt lat="46.19152" lon="-1.39993">
        <ele>2.2</ele>
        <time>2020-06-02T06:57:24Z</time>
      </trkpt>
      <trkpt lat="46.1915" lon="-1.39987">
        <ele>2.2</ele>
        <time>2020-06-02T06:57:25Z</time>
      </trkpt>
      <trkpt lat="46.19148" lon="-1.3998">
        <ele>2.3</ele>
        <time>2020-06-02T06:57:26Z</time>
      </trkpt>
      <trkpt lat="46.19146" lon="-1.39974">
        <ele>2.3</ele>
        <time>2020-06-02T06:57:27Z</time>
      </trkpt>
      <trkpt lat="46.19144" lon="-1.39968">
        <ele>2.3</ele>
        <time>2020-06-02T06:57:28Z</time>
      </trkpt>
      <trkpt lat="46.19142" lon="-1.39962">
        <ele>2.3</ele>
        <time>2020-06-02T06:57:29Z</time>
      </trkpt>
      <trkpt lat="46.1914" lon="-1.39955">
        <ele>2.3</ele>
        <time>2020-06-02T06:57:30Z</time>
      </trkpt>
      <trkpt lat="46.19138" lon="-1.39949">
        <ele>2.3</ele>
        <time>2020-06-02T06:57:31Z</time>
      </trkpt>
      <trkpt lat="46.19136" lon="-1.39942">
        <ele>2.3</ele>
        <time>2020-06-02T06:57:32Z</time>
      </trkpt>
      <trkpt lat="46.19135" lon="-1.39936">
        <ele>2.3</ele>
        <time>2020-06-02T06:57:33Z</time>
      </trkpt>
      <trkpt lat="46.19133" lon="-1.3993">
        <ele>2.4</ele>
        <time>2020-06-02T06:57:34Z</time>
      </trkpt>
      <trkpt lat="46.19131" lon="-1.39924">
        <ele>2.4</ele>
        <time>2020-06-02T06:57:35Z</time>
      </trkpt>
      <trkpt lat="46.19129" lon="-1.39918">
        <ele>2.4</ele>
        <time>2020-06-02T06:57:36Z</time>
      </trkpt>
      <trkpt lat="46.19127" lon="-1.39911">
        <ele>2.5</ele>
        <time>2020-06-02T06:57:37Z</time>
      </trkpt>
      <trkpt lat="46.19125" lon="-1.39906">
        <ele>2.5</ele>
        <time>2020-06-02T06:57:38Z</time>
      </trkpt>
      <trkpt lat="46.19123" lon="-1.39899">
        <ele>2.6</ele>
        <time>2020-06-02T06:57:39Z</time>
      </trkpt>
      <trkpt lat="46.19121" lon="-1.39893">
        <ele>2.6</ele>
        <time>2020-06-02T06:57:40Z</time>
      </trkpt>
      <trkpt lat="46.19119" lon="-1.39886">
        <ele>2.7</ele>
        <time>2020-06-02T06:57:41Z</time>
      </trkpt>
      <trkpt lat="46.19117" lon="-1.3988">
        <ele>2.8</ele>
        <time>2020-06-02T06:57:42Z</time>
      </trkpt>
      <trkpt lat="46.19115" lon="-1.39873">
        <ele>2.8</ele>
        <time>2020-06-02T06:57:43Z</time>
      </trkpt>
      <trkpt lat="46.19113" lon="-1.39867">
        <ele>2.9</ele>
        <time>2020-06-02T06:57:44Z</time>
      </trkpt>
      <trkpt lat="46.19111" lon="-1.3986">
        <ele>3</ele>
        <time>2020-06-02T06:57:45Z</time>
      </trkpt>
      <trkpt lat="46.1911" lon="-1.39855">
        <ele>3</ele>
        <time>2020-06-02T06:57:46Z</time>
      </trkpt>
      <trkpt lat="46.19107" lon="-1.39848">
        <ele>3.1</ele>
        <time>2020-06-02T06:57:47Z</time>
      </trkpt>
      <trkpt lat="46.19105" lon="-1.39842">
        <ele>3.1</ele>
        <time>2020-06-02T06:57:48Z</time>
      </trkpt>
      <trkpt lat="46.19102" lon="-1.39836">
        <ele>3.1</ele>
        <time>2020-06-02T06:57:49Z</time>
      </trkpt>
      <trkpt lat="46.19099" lon="-1.39829">
        <ele>3.2</ele>
        <time>2020-06-02T06:57:50Z</time>
      </trkpt>
      <trkpt lat="46.19097" lon="-1.39824">
        <ele>3.2</ele>
        <time>2020-06-02T06:57:51Z</time>
      </trkpt>
      <trkpt lat="46.19095" lon="-1.39818">
        <ele>3.2</ele>
        <time>2020-06-02T06:57:52Z</time>
      </trkpt>
      <trkpt lat="46.19093" lon="-1.39811">
        <ele>3.2</ele>
        <time>2020-06-02T06:57:53Z</time>
      </trkpt>
      <trkpt lat="46.19091" lon="-1.39804">
        <ele>3.2</ele>
        <time>2020-06-02T06:57:54Z</time>
      </trkpt>
      <trkpt lat="46.19088" lon="-1.39798">
        <ele>3.3</ele>
        <time>2020-06-02T06:57:55Z</time>
      </trkpt>
      <trkpt lat="46.19086" lon="-1.39792">
        <ele>3.4</ele>
        <time>2020-06-02T06:57:56Z</time>
      </trkpt>
      <trkpt lat="46.19084" lon="-1.39786">
        <ele>3.4</ele>
        <time>2020-06-02T06:57:57Z</time>
      </trkpt>
      <trkpt lat="46.19082" lon="-1.3978">
        <ele>3.5</ele>
        <time>2020-06-02T06:57:58Z</time>
      </trkpt>
      <trkpt lat="46.19079" lon="-1.39774">
        <ele>3.6</ele>
        <time>2020-06-02T06:57:59Z</time>
      </trkpt>
      <trkpt lat="46.19077" lon="-1.39767">
        <ele>3.6</ele>
        <time>2020-06-02T06:58:00Z</time>
      </trkpt>
      <trkpt lat="46.19075" lon="-1.3976">
        <ele>3.7</ele>
        <time>2020-06-02T06:58:01Z</time>
      </trkpt>
      <trkpt lat="46.19073" lon="-1.39753">
        <ele>3.8</ele>
        <time>2020-06-02T06:58:02Z</time>
      </trkpt>
      <trkpt lat="46.19071" lon="-1.39746">
        <ele>3.9</ele>
        <time>2020-06-02T06:58:03Z</time>
      </trkpt>
      <trkpt lat="46.19069" lon="-1.39739">
        <ele>3.9</ele>
        <time>2020-06-02T06:58:04Z</time>
      </trkpt>
      <trkpt lat="46.19068" lon="-1.39733">
        <ele>4</ele>
        <time>2020-06-02T06:58:05Z</time>
      </trkpt>
      <trkpt lat="46.19066" lon="-1.39726">
        <ele>4</ele>
        <time>2020-06-02T06:58:06Z</time>
      </trkpt>
      <trkpt lat="46.19063" lon="-1.39719">
        <ele>4.1</ele>
        <time>2020-06-02T06:58:07Z</time>
      </trkpt>
      <trkpt lat="46.19061" lon="-1.39713">
        <ele>4.1</ele>
        <time>2020-06-02T06:58:08Z</time>
      </trkpt>
      <trkpt lat="46.19059" lon="-1.39707">
        <ele>4.1</ele>
        <time>2020-06-02T06:58:09Z</time>
      </trkpt>
      <trkpt lat="46.19057" lon="-1.397">
        <ele>4.2</ele>
        <time>2020-06-02T06:58:10Z</time>
      </trkpt>
      <trkpt lat="46.19054" lon="-1.39695">
        <ele>4.2</ele>
        <time>2020-06-02T06:58:11Z</time>
      </trkpt>
      <trkpt lat="46.19051" lon="-1.39689">
        <ele>4.2</ele>
        <time>2020-06-02T06:58:12Z</time>
      </trkpt>
      <trkpt lat="46.19049" lon="-1.39683">
        <ele>4.2</ele>
        <time>2020-06-02T06:58:13Z</time>
      </trkpt>
      <trkpt lat="46.19047" lon="-1.39677">
        <ele>4.3</ele>
        <time>2020-06-02T06:58:14Z</time>
      </trkpt>
      <trkpt lat="46.19045" lon="-1.39671">
        <ele>4.3</ele>
        <time>2020-06-02T06:58:15Z</time>
      </trkpt>
      <trkpt lat="46.19043" lon="-1.39665">
        <ele>4.3</ele>
        <time>2020-06-02T06:58:16Z</time>
      </trkpt>
      <trkpt lat="46.1904" lon="-1.39659">
        <ele>4.3</ele>
        <time>2020-06-02T06:58:17Z</time>
      </trkpt>
      <trkpt lat="46.19038" lon="-1.39653">
        <ele>4.3</ele>
        <time>2020-06-02T06:58:18Z</time>
      </trkpt>
      <trkpt lat="46.19036" lon="-1.39647">
        <ele>4.4</ele>
        <time>2020-06-02T06:58:19Z</time>
      </trkpt>
      <trkpt lat="46.19034" lon="-1.39641">
        <ele>4.4</ele>
        <time>2020-06-02T06:58:20Z</time>
      </trkpt>
      <trkpt lat="46.19032" lon="-1.39634">
        <ele>4.4</ele>
        <time>2020-06-02T06:58:21Z</time>
      </trkpt>
      <trkpt lat="46.19031" lon="-1.39627">
        <ele>4.4</ele>
        <time>2020-06-02T06:58:22Z</time>
      </trkpt>
      <trkpt lat="46.19029" lon="-1.39621">
        <ele>4.5</ele>
        <time>2020-06-02T06:58:23Z</time>
      </trkpt>
      <trkpt lat="46.19027" lon="-1.39616">
        <ele>4.5</ele>
        <time>2020-06-02T06:58:24Z</time>
      </trkpt>
      <trkpt lat="46.19025" lon="-1.3961">
        <ele>4.5</ele>
        <time>2020-06-02T06:58:25Z</time>
      </trkpt>
      <trkpt lat="46.19024" lon="-1.39603">
        <ele>4.5</ele>
        <time>2020-06-02T06:58:26Z</time>
      </trkpt>
      <trkpt lat="46.19022" lon="-1.39597">
        <ele>4.5</ele>
        <time>2020-06-02T06:58:27Z</time>
      </trkpt>
      <trkpt lat="46.1902" lon="-1.39591">
        <ele>4.5</ele>
        <time>2020-06-02T06:58:28Z</time>
      </trkpt>
      <trkpt lat="46.19017" lon="-1.39585">
        <ele>4.5</ele>
        <time>2020-06-02T06:58:29Z</time>
      </trkpt>
      <trkpt lat="46.19015" lon="-1.39579">
        <ele>4.4</ele>
        <time>2020-06-02T06:58:30Z</time>
      </trkpt>
      <trkpt lat="46.19012" lon="-1.39574">
        <ele>4.4</ele>
        <time>2020-06-02T06:58:31Z</time>
      </trkpt>
      <trkpt lat="46.19009" lon="-1.39569">
        <ele>4.4</ele>
        <time>2020-06-02T06:58:32Z</time>
      </trkpt>
      <trkpt lat="46.19008" lon="-1.39563">
        <ele>4.4</ele>
        <time>2020-06-02T06:58:33Z</time>
      </trkpt>
      <trkpt lat="46.19005" lon="-1.39557">
        <ele>4.4</ele>
        <time>2020-06-02T06:58:34Z</time>
      </trkpt>
      <trkpt lat="46.19002" lon="-1.39551">
        <ele>4.4</ele>
        <time>2020-06-02T06:58:35Z</time>
      </trkpt>
      <trkpt lat="46.19" lon="-1.39545">
        <ele>4.4</ele>
        <time>2020-06-02T06:58:36Z</time>
      </trkpt>
      <trkpt lat="46.18997" lon="-1.39538">
        <ele>4.4</ele>
        <time>2020-06-02T06:58:37Z</time>
      </trkpt>
      <trkpt lat="46.18994" lon="-1.39531">
        <ele>4.4</ele>
        <time>2020-06-02T06:58:38Z</time>
      </trkpt>
      <trkpt lat="46.18992" lon="-1.39525">
        <ele>4.4</ele>
        <time>2020-06-02T06:58:39Z</time>
      </trkpt>
      <trkpt lat="46.18989" lon="-1.39519">
        <ele>4.5</ele>
        <time>2020-06-02T06:58:40Z</time>
      </trkpt>
      <trkpt lat="46.18986" lon="-1.39512">
        <ele>4.5</ele>
        <time>2020-06-02T06:58:41Z</time>
      </trkpt>
      <trkpt lat="46.18984" lon="-1.39506">
        <ele>4.5</ele>
        <time>2020-06-02T06:58:42Z</time>
      </trkpt>
      <trkpt lat="46.18982" lon="-1.395">
        <ele>4.5</ele>
        <time>2020-06-02T06:58:43Z</time>
      </trkpt>
      <trkpt lat="46.1898" lon="-1.39494">
        <ele>4.5</ele>
        <time>2020-06-02T06:58:44Z</time>
      </trkpt>
      <trkpt lat="46.18977" lon="-1.39488">
        <ele>4.5</ele>
        <time>2020-06-02T06:58:45Z</time>
      </trkpt>
      <trkpt lat="46.18975" lon="-1.39481">
        <ele>4.5</ele>
        <time>2020-06-02T06:58:46Z</time>
      </trkpt>
      <trkpt lat="46.18972" lon="-1.39474">
        <ele>4.5</ele>
        <time>2020-06-02T06:58:47Z</time>
      </trkpt>
      <trkpt lat="46.18972" lon="-1.39468">
        <ele>4.5</ele>
        <time>2020-06-02T06:58:48Z</time>
      </trkpt>
      <trkpt lat="46.18971" lon="-1.39461">
        <ele>4.5</ele>
        <time>2020-06-02T06:58:49Z</time>
      </trkpt>
      <trkpt lat="46.1897" lon="-1.39454">
        <ele>4.5</ele>
        <time>2020-06-02T06:58:50Z</time>
      </trkpt>
      <trkpt lat="46.18969" lon="-1.39448">
        <ele>4.5</ele>
        <time>2020-06-02T06:58:51Z</time>
      </trkpt>
      <trkpt lat="46.18968" lon="-1.3944">
        <ele>4.6</ele>
        <time>2020-06-02T06:58:52Z</time>
      </trkpt>
      <trkpt lat="46.18967" lon="-1.39433">
        <ele>4.6</ele>
        <time>2020-06-02T06:58:53Z</time>
      </trkpt>
      <trkpt lat="46.18967" lon="-1.39427">
        <ele>4.6</ele>
        <time>2020-06-02T06:58:54Z</time>
      </trkpt>
      <trkpt lat="46.18967" lon="-1.39421">
        <ele>4.6</ele>
        <time>2020-06-02T06:58:55Z</time>
      </trkpt>
      <trkpt lat="46.18967" lon="-1.39414">
        <ele>4.6</ele>
        <time>2020-06-02T06:58:56Z</time>
      </trkpt>
      <trkpt lat="46.18968" lon="-1.39408">
        <ele>4.7</ele>
        <time>2020-06-02T06:58:57Z</time>
      </trkpt>
      <trkpt lat="46.18967" lon="-1.394">
        <ele>4.7</ele>
        <time>2020-06-02T06:58:58Z</time>
      </trkpt>
      <trkpt lat="46.18966" lon="-1.39393">
        <ele>4.7</ele>
        <time>2020-06-02T06:58:59Z</time>
      </trkpt>
      <trkpt lat="46.18966" lon="-1.39385">
        <ele>4.8</ele>
        <time>2020-06-02T06:59:00Z</time>
      </trkpt>
      <trkpt lat="46.18965" lon="-1.39378">
        <ele>4.8</ele>
        <time>2020-06-02T06:59:01Z</time>
      </trkpt>
      <trkpt lat="46.18964" lon="-1.39371">
        <ele>4.8</ele>
        <time>2020-06-02T06:59:02Z</time>
      </trkpt>
      <trkpt lat="46.18964" lon="-1.39364">
        <ele>4.8</ele>
        <time>2020-06-02T06:59:03Z</time>
      </trkpt>
      <trkpt lat="46.18963" lon="-1.39358">
        <ele>4.8</ele>
        <time>2020-06-02T06:59:04Z</time>
      </trkpt>
      <trkpt lat="46.18963" lon="-1.39351">
        <ele>4.8</ele>
        <time>2020-06-02T06:59:05Z</time>
      </trkpt>
      <trkpt lat="46.18962" lon="-1.39341">
        <ele>4.8</ele>
        <time>2020-06-02T06:59:06Z</time>
      </trkpt>
      <trkpt lat="46.18961" lon="-1.39333">
        <ele>4.9</ele>
        <time>2020-06-02T06:59:07Z</time>
      </trkpt>
      <trkpt lat="46.18961" lon="-1.39325">
        <ele>4.9</ele>
        <time>2020-06-02T06:59:08Z</time>
      </trkpt>
      <trkpt lat="46.18961" lon="-1.39318">
        <ele>4.9</ele>
        <time>2020-06-02T06:59:09Z</time>
      </trkpt>
      <trkpt lat="46.18961" lon="-1.39312">
        <ele>4.9</ele>
        <time>2020-06-02T06:59:10Z</time>
      </trkpt>
      <trkpt lat="46.18961" lon="-1.39306">
        <ele>5</ele>
        <time>2020-06-02T06:59:11Z</time>
      </trkpt>
      <trkpt lat="46.1896" lon="-1.39299">
        <ele>5</ele>
        <time>2020-06-02T06:59:12Z</time>
      </trkpt>
      <trkpt lat="46.18959" lon="-1.3929">
        <ele>5</ele>
        <time>2020-06-02T06:59:13Z</time>
      </trkpt>
      <trkpt lat="46.18959" lon="-1.39281">
        <ele>5</ele>
        <time>2020-06-02T06:59:14Z</time>
      </trkpt>
      <trkpt lat="46.1896" lon="-1.39275">
        <ele>5.1</ele>
        <time>2020-06-02T06:59:15Z</time>
      </trkpt>
      <trkpt lat="46.1896" lon="-1.39268">
        <ele>5.1</ele>
        <time>2020-06-02T06:59:16Z</time>
      </trkpt>
      <trkpt lat="46.1896" lon="-1.39261">
        <ele>5.2</ele>
        <time>2020-06-02T06:59:17Z</time>
      </trkpt>
      <trkpt lat="46.1896" lon="-1.39255">
        <ele>5.2</ele>
        <time>2020-06-02T06:59:18Z</time>
      </trkpt>
      <trkpt lat="46.18958" lon="-1.39244">
        <ele>5.3</ele>
        <time>2020-06-02T06:59:19Z</time>
      </trkpt>
      <trkpt lat="46.18958" lon="-1.39236">
        <ele>5.3</ele>
        <time>2020-06-02T06:59:20Z</time>
      </trkpt>
      <trkpt lat="46.18959" lon="-1.39228">
        <ele>5.4</ele>
        <time>2020-06-02T06:59:21Z</time>
      </trkpt>
      <trkpt lat="46.1896" lon="-1.3922">
        <ele>5.4</ele>
        <time>2020-06-02T06:59:22Z</time>
      </trkpt>
      <trkpt lat="46.1896" lon="-1.39214">
        <ele>5.5</ele>
        <time>2020-06-02T06:59:23Z</time>
      </trkpt>
      <trkpt lat="46.18959" lon="-1.39207">
        <ele>5.5</ele>
        <time>2020-06-02T06:59:24Z</time>
      </trkpt>
      <trkpt lat="46.1896" lon="-1.39201">
        <ele>5.5</ele>
        <time>2020-06-02T06:59:25Z</time>
      </trkpt>
      <trkpt lat="46.18961" lon="-1.39195">
        <ele>5.6</ele>
        <time>2020-06-02T06:59:26Z</time>
      </trkpt>
      <trkpt lat="46.18962" lon="-1.39188">
        <ele>5.6</ele>
        <time>2020-06-02T06:59:27Z</time>
      </trkpt>
      <trkpt lat="46.18964" lon="-1.39181">
        <ele>5.6</ele>
        <time>2020-06-02T06:59:28Z</time>
      </trkpt>
      <trkpt lat="46.18965" lon="-1.39175">
        <ele>5.7</ele>
        <time>2020-06-02T06:59:29Z</time>
      </trkpt>
      <trkpt lat="46.18967" lon="-1.39169">
        <ele>5.7</ele>
        <time>2020-06-02T06:59:30Z</time>
      </trkpt>
      <trkpt lat="46.18968" lon="-1.39163">
        <ele>5.7</ele>
        <time>2020-06-02T06:59:31Z</time>
      </trkpt>
      <trkpt lat="46.18969" lon="-1.39155">
        <ele>5.7</ele>
        <time>2020-06-02T06:59:32Z</time>
      </trkpt>
      <trkpt lat="46.18971" lon="-1.39149">
        <ele>5.7</ele>
        <time>2020-06-02T06:59:33Z</time>
      </trkpt>
      <trkpt lat="46.18972" lon="-1.39143">
        <ele>5.7</ele>
        <time>2020-06-02T06:59:34Z</time>
      </trkpt>
      <trkpt lat="46.18972" lon="-1.39136">
        <ele>5.7</ele>
        <time>2020-06-02T06:59:35Z</time>
      </trkpt>
      <trkpt lat="46.18973" lon="-1.3913">
        <ele>5.7</ele>
        <time>2020-06-02T06:59:36Z</time>
      </trkpt>
      <trkpt lat="46.18974" lon="-1.39123">
        <ele>5.7</ele>
        <time>2020-06-02T06:59:37Z</time>
      </trkpt>
      <trkpt lat="46.18975" lon="-1.39115">
        <ele>5.7</ele>
        <time>2020-06-02T06:59:38Z</time>
      </trkpt>
      <trkpt lat="46.18976" lon="-1.39108">
        <ele>5.7</ele>
        <time>2020-06-02T06:59:39Z</time>
      </trkpt>
      <trkpt lat="46.18976" lon="-1.39099">
        <ele>5.7</ele>
        <time>2020-06-02T06:59:40Z</time>
      </trkpt>
      <trkpt lat="46.18978" lon="-1.39091">
        <ele>5.7</ele>
        <time>2020-06-02T06:59:41Z</time>
      </trkpt>
      <trkpt lat="46.1898" lon="-1.39085">
        <ele>5.7</ele>
        <time>2020-06-02T06:59:42Z</time>
      </trkpt>
      <trkpt lat="46.18981" lon="-1.39077">
        <ele>5.7</ele>
        <time>2020-06-02T06:59:43Z</time>
      </trkpt>
      <trkpt lat="46.18983" lon="-1.3907">
        <ele>5.7</ele>
        <time>2020-06-02T06:59:44Z</time>
      </trkpt>
      <trkpt lat="46.18984" lon="-1.39063">
        <ele>5.7</ele>
        <time>2020-06-02T06:59:45Z</time>
      </trkpt>
      <trkpt lat="46.18985" lon="-1.39058">
        <ele>5.7</ele>
        <time>2020-06-02T06:59:46Z</time>
      </trkpt>
      <trkpt lat="46.18986" lon="-1.39053">
        <ele>5.7</ele>
        <time>2020-06-02T06:59:47Z</time>
      </trkpt>
      <trkpt lat="46.18986" lon="-1.39047">
        <ele>5.7</ele>
        <time>2020-06-02T06:59:48Z</time>
      </trkpt>
      <trkpt lat="46.18986" lon="-1.39042">
        <ele>5.7</ele>
        <time>2020-06-02T06:59:49Z</time>
      </trkpt>
      <trkpt lat="46.18986" lon="-1.39036">
        <ele>5.7</ele>
        <time>2020-06-02T06:59:50Z</time>
      </trkpt>
      <trkpt lat="46.18987" lon="-1.39029">
        <ele>5.8</ele>
        <time>2020-06-02T06:59:51Z</time>
      </trkpt>
      <trkpt lat="46.18989" lon="-1.39022">
        <ele>5.8</ele>
        <time>2020-06-02T06:59:52Z</time>
      </trkpt>
      <trkpt lat="46.18989" lon="-1.39015">
        <ele>5.8</ele>
        <time>2020-06-02T06:59:53Z</time>
      </trkpt>
      <trkpt lat="46.1899" lon="-1.39007">
        <ele>5.8</ele>
        <time>2020-06-02T06:59:54Z</time>
      </trkpt>
      <trkpt lat="46.18991" lon="-1.38999">
        <ele>5.9</ele>
        <time>2020-06-02T06:59:55Z</time>
      </trkpt>
      <trkpt lat="46.18992" lon="-1.38991">
        <ele>5.9</ele>
        <time>2020-06-02T06:59:56Z</time>
      </trkpt>
      <trkpt lat="46.18993" lon="-1.38983">
        <ele>5.9</ele>
        <time>2020-06-02T06:59:57Z</time>
      </trkpt>
      <trkpt lat="46.18994" lon="-1.38976">
        <ele>6</ele>
        <time>2020-06-02T06:59:58Z</time>
      </trkpt>
      <trkpt lat="46.18994" lon="-1.38972">
        <ele>6</ele>
        <time>2020-06-02T06:59:59Z</time>
      </trkpt>
      <trkpt lat="46.18994" lon="-1.3897">
        <ele>6</ele>
        <time>2020-06-02T07:00:00Z</time>
      </trkpt>
      <trkpt lat="46.18994" lon="-1.38969">
        <ele>6</ele>
        <time>2020-06-02T07:00:01Z</time>
      </trkpt>
      <trkpt lat="46.18994" lon="-1.38968">
        <ele>6</ele>
        <time>2020-06-02T07:00:02Z</time>
      </trkpt>
      <trkpt lat="46.18994" lon="-1.38965">
        <ele>6</ele>
        <time>2020-06-02T07:00:03Z</time>
      </trkpt>
      <trkpt lat="46.18998" lon="-1.38963">
        <ele>6</ele>
        <time>2020-06-02T07:00:04Z</time>
      </trkpt>
      <trkpt lat="46.18998" lon="-1.38962">
        <ele>6</ele>
        <time>2020-06-02T07:00:05Z</time>
      </trkpt>
      <trkpt lat="46.19001" lon="-1.38959">
        <ele>6</ele>
        <time>2020-06-02T07:00:06Z</time>
      </trkpt>
      <trkpt lat="46.19002" lon="-1.38957">
        <ele>6</ele>
        <time>2020-06-02T07:00:07Z</time>
      </trkpt>
      <trkpt lat="46.19005" lon="-1.38953">
        <ele>6.1</ele>
        <time>2020-06-02T07:00:08Z</time>
      </trkpt>
      <trkpt lat="46.19006" lon="-1.38949">
        <ele>6.1</ele>
        <time>2020-06-02T07:00:09Z</time>
      </trkpt>
      <trkpt lat="46.19008" lon="-1.38945">
        <ele>6.1</ele>
        <time>2020-06-02T07:00:10Z</time>
      </trkpt>
      <trkpt lat="46.1901" lon="-1.3894">
        <ele>6.1</ele>
        <time>2020-06-02T07:00:11Z</time>
      </trkpt>
      <trkpt lat="46.19012" lon="-1.38935">
        <ele>6.2</ele>
        <time>2020-06-02T07:00:12Z</time>
      </trkpt>
      <trkpt lat="46.19013" lon="-1.38929">
        <ele>6.2</ele>
        <time>2020-06-02T07:00:13Z</time>
      </trkpt>
      <trkpt lat="46.19014" lon="-1.38923">
        <ele>6.2</ele>
        <time>2020-06-02T07:00:14Z</time>
      </trkpt>
      <trkpt lat="46.19013" lon="-1.38917">
        <ele>6.2</ele>
        <time>2020-06-02T07:00:15Z</time>
      </trkpt>
      <trkpt lat="46.19013" lon="-1.38912">
        <ele>6.3</ele>
        <time>2020-06-02T07:00:16Z</time>
      </trkpt>
      <trkpt lat="46.19012" lon="-1.38906">
        <ele>6.3</ele>
        <time>2020-06-02T07:00:17Z</time>
      </trkpt>
      <trkpt lat="46.19011" lon="-1.389">
        <ele>6.3</ele>
        <time>2020-06-02T07:00:18Z</time>
      </trkpt>
      <trkpt lat="46.1901" lon="-1.38894">
        <ele>6.3</ele>
        <time>2020-06-02T07:00:19Z</time>
      </trkpt>
      <trkpt lat="46.1901" lon="-1.38888">
        <ele>6.4</ele>
        <time>2020-06-02T07:00:20Z</time>
      </trkpt>
      <trkpt lat="46.1901" lon="-1.38882">
        <ele>6.4</ele>
        <time>2020-06-02T07:00:21Z</time>
      </trkpt>
      <trkpt lat="46.19009" lon="-1.38877">
        <ele>6.4</ele>
        <time>2020-06-02T07:00:22Z</time>
      </trkpt>
      <trkpt lat="46.1901" lon="-1.38874">
        <ele>6.4</ele>
        <time>2020-06-02T07:00:23Z</time>
      </trkpt>
      <trkpt lat="46.19009" lon="-1.38872">
        <ele>6.4</ele>
        <time>2020-06-02T07:00:24Z</time>
      </trkpt>
      <trkpt lat="46.19009" lon="-1.38871">
        <ele>6.4</ele>
        <time>2020-06-02T07:00:25Z</time>
      </trkpt>
      <trkpt lat="46.19009" lon="-1.38867">
        <ele>6.5</ele>
        <time>2020-06-02T07:00:26Z</time>
      </trkpt>
      <trkpt lat="46.19007" lon="-1.38865">
        <ele>6.5</ele>
        <time>2020-06-02T07:00:27Z</time>
      </trkpt>
      <trkpt lat="46.19007" lon="-1.38863">
        <ele>6.5</ele>
        <time>2020-06-02T07:00:28Z</time>
      </trkpt>
      <trkpt lat="46.19006" lon="-1.38861">
        <ele>6.5</ele>
        <time>2020-06-02T07:00:29Z</time>
      </trkpt>
      <trkpt lat="46.19006" lon="-1.38861">
        <ele>6.5</ele>
        <time>2020-06-02T07:00:30Z</time>
      </trkpt>
      <trkpt lat="46.19006" lon="-1.38861">
        <ele>6.5</ele>
        <time>2020-06-02T07:00:31Z</time>
      </trkpt>
      <trkpt lat="46.19006" lon="-1.38861">
        <ele>6.5</ele>
        <time>2020-06-02T07:00:32Z</time>
      </trkpt>
      <trkpt lat="46.19007" lon="-1.38861">
        <ele>6.5</ele>
        <time>2020-06-02T07:00:33Z</time>
      </trkpt>
      <trkpt lat="46.19007" lon="-1.38859">
        <ele>6.5</ele>
        <time>2020-06-02T07:00:34Z</time>
      </trkpt>
      <trkpt lat="46.19007" lon="-1.38859">
        <ele>6.5</ele>
        <time>2020-06-02T07:00:35Z</time>
      </trkpt>
      <trkpt lat="46.19008" lon="-1.38857">
        <ele>6.5</ele>
        <time>2020-06-02T07:00:36Z</time>
      </trkpt>
      <trkpt lat="46.19008" lon="-1.38857">
        <ele>6.5</ele>
        <time>2020-06-02T07:00:37Z</time>
      </trkpt>
      <trkpt lat="46.19008" lon="-1.38857">
        <ele>6.5</ele>
        <time>2020-06-02T07:00:38Z</time>
      </trkpt>
      <trkpt lat="46.19008" lon="-1.38855">
        <ele>6.5</ele>
        <time>2020-06-02T07:00:39Z</time>
      </trkpt>
      <trkpt lat="46.19008" lon="-1.38855">
        <ele>6.5</ele>
        <time>2020-06-02T07:00:40Z</time>
      </trkpt>
      <trkpt lat="46.19006" lon="-1.38858">
        <ele>6.5</ele>
        <time>2020-06-02T07:00:41Z</time>
      </trkpt>
      <trkpt lat="46.19007" lon="-1.38857">
        <ele>6.5</ele>
        <time>2020-06-02T07:00:42Z</time>
      </trkpt>
      <trkpt lat="46.19006" lon="-1.38858">
        <ele>6.5</ele>
        <time>2020-06-02T07:00:43Z</time>
      </trkpt>
      <trkpt lat="46.19005" lon="-1.38856">
        <ele>6.5</ele>
        <time>2020-06-02T07:00:44Z</time>
      </trkpt>
      <trkpt lat="46.19004" lon="-1.38854">
        <ele>6.5</ele>
        <time>2020-06-02T07:00:45Z</time>
      </trkpt>
      <trkpt lat="46.19004" lon="-1.38853">
        <ele>6.5</ele>
        <time>2020-06-02T07:00:46Z</time>
      </trkpt>
      <trkpt lat="46.19003" lon="-1.38851">
        <ele>6.5</ele>
        <time>2020-06-02T07:00:47Z</time>
      </trkpt>
      <trkpt lat="46.19004" lon="-1.38848">
        <ele>6.5</ele>
        <time>2020-06-02T07:00:48Z</time>
      </trkpt>
      <trkpt lat="46.19005" lon="-1.38845">
        <ele>6.6</ele>
        <time>2020-06-02T07:00:49Z</time>
      </trkpt>
      <trkpt lat="46.19005" lon="-1.38843">
        <ele>6.6</ele>
        <time>2020-06-02T07:00:50Z</time>
      </trkpt>
      <trkpt lat="46.19004" lon="-1.38837">
        <ele>6.6</ele>
        <time>2020-06-02T07:00:51Z</time>
      </trkpt>
      <trkpt lat="46.19004" lon="-1.38833">
        <ele>6.6</ele>
        <time>2020-06-02T07:00:52Z</time>
      </trkpt>
      <trkpt lat="46.19001" lon="-1.38821">
        <ele>6.6</ele>
        <time>2020-06-02T07:00:53Z</time>
      </trkpt>
      <trkpt lat="46.19" lon="-1.3881">
        <ele>6.6</ele>
        <time>2020-06-02T07:00:54Z</time>
      </trkpt>
      <trkpt lat="46.18999" lon="-1.38798">
        <ele>6.6</ele>
        <time>2020-06-02T07:00:55Z</time>
      </trkpt>
      <trkpt lat="46.18997" lon="-1.38788">
        <ele>6.6</ele>
        <time>2020-06-02T07:00:56Z</time>
      </trkpt>
      <trkpt lat="46.18996" lon="-1.38777">
        <ele>6.6</ele>
        <time>2020-06-02T07:00:57Z</time>
      </trkpt>
      <trkpt lat="46.18993" lon="-1.38762">
        <ele>6.7</ele>
        <time>2020-06-02T07:00:58Z</time>
      </trkpt>
      <trkpt lat="46.18991" lon="-1.38751">
        <ele>6.7</ele>
        <time>2020-06-02T07:00:59Z</time>
      </trkpt>
      <trkpt lat="46.1899" lon="-1.38739">
        <ele>6.7</ele>
        <time>2020-06-02T07:01:00Z</time>
      </trkpt>
      <trkpt lat="46.18985" lon="-1.38726">
        <ele>6.8</ele>
        <time>2020-06-02T07:01:01Z</time>
      </trkpt>
      <trkpt lat="46.18983" lon="-1.38717">
        <ele>6.8</ele>
        <time>2020-06-02T07:01:02Z</time>
      </trkpt>
      <trkpt lat="46.18981" lon="-1.38708">
        <ele>6.8</ele>
        <time>2020-06-02T07:01:03Z</time>
      </trkpt>
      <trkpt lat="46.18979" lon="-1.38701">
        <ele>6.9</ele>
        <time>2020-06-02T07:01:04Z</time>
      </trkpt>
      <trkpt lat="46.18978" lon="-1.38695">
        <ele>6.9</ele>
        <time>2020-06-02T07:01:05Z</time>
      </trkpt>
      <trkpt lat="46.18976" lon="-1.38689">
        <ele>6.9</ele>
        <time>2020-06-02T07:01:06Z</time>
      </trkpt>
      <trkpt lat="46.18974" lon="-1.38682">
        <ele>6.9</ele>
        <time>2020-06-02T07:01:07Z</time>
      </trkpt>
      <trkpt lat="46.18973" lon="-1.38675">
        <ele>7</ele>
        <time>2020-06-02T07:01:08Z</time>
      </trkpt>
      <trkpt lat="46.18971" lon="-1.38667">
        <ele>7</ele>
        <time>2020-06-02T07:01:09Z</time>
      </trkpt>
      <trkpt lat="46.1897" lon="-1.3866">
        <ele>7</ele>
        <time>2020-06-02T07:01:10Z</time>
      </trkpt>
      <trkpt lat="46.18968" lon="-1.38652">
        <ele>7</ele>
        <time>2020-06-02T07:01:11Z</time>
      </trkpt>
      <trkpt lat="46.18967" lon="-1.38645">
        <ele>7</ele>
        <time>2020-06-02T07:01:12Z</time>
      </trkpt>
      <trkpt lat="46.18965" lon="-1.38637">
        <ele>7.1</ele>
        <time>2020-06-02T07:01:13Z</time>
      </trkpt>
      <trkpt lat="46.18963" lon="-1.3863">
        <ele>7.1</ele>
        <time>2020-06-02T07:01:14Z</time>
      </trkpt>
      <trkpt lat="46.18961" lon="-1.38623">
        <ele>7.1</ele>
        <time>2020-06-02T07:01:15Z</time>
      </trkpt>
      <trkpt lat="46.18959" lon="-1.38616">
        <ele>7.1</ele>
        <time>2020-06-02T07:01:16Z</time>
      </trkpt>
      <trkpt lat="46.18956" lon="-1.38609">
        <ele>7.1</ele>
        <time>2020-06-02T07:01:17Z</time>
      </trkpt>
      <trkpt lat="46.18955" lon="-1.38602">
        <ele>7.1</ele>
        <time>2020-06-02T07:01:18Z</time>
      </trkpt>
      <trkpt lat="46.18953" lon="-1.38595">
        <ele>7.1</ele>
        <time>2020-06-02T07:01:19Z</time>
      </trkpt>
      <trkpt lat="46.18951" lon="-1.38589">
        <ele>7.1</ele>
        <time>2020-06-02T07:01:20Z</time>
      </trkpt>
      <trkpt lat="46.18949" lon="-1.38583">
        <ele>7.1</ele>
        <time>2020-06-02T07:01:21Z</time>
      </trkpt>
      <trkpt lat="46.18947" lon="-1.38577">
        <ele>7.1</ele>
        <time>2020-06-02T07:01:22Z</time>
      </trkpt>
      <trkpt lat="46.18945" lon="-1.3857">
        <ele>7.1</ele>
        <time>2020-06-02T07:01:23Z</time>
      </trkpt>
      <trkpt lat="46.18943" lon="-1.38563">
        <ele>7.1</ele>
        <time>2020-06-02T07:01:24Z</time>
      </trkpt>
      <trkpt lat="46.18941" lon="-1.38556">
        <ele>7.1</ele>
        <time>2020-06-02T07:01:25Z</time>
      </trkpt>
      <trkpt lat="46.18938" lon="-1.3855">
        <ele>7.1</ele>
        <time>2020-06-02T07:01:26Z</time>
      </trkpt>
      <trkpt lat="46.18936" lon="-1.38544">
        <ele>7.1</ele>
        <time>2020-06-02T07:01:27Z</time>
      </trkpt>
      <trkpt lat="46.18933" lon="-1.38538">
        <ele>7.1</ele>
        <time>2020-06-02T07:01:28Z</time>
      </trkpt>
      <trkpt lat="46.1893" lon="-1.38531">
        <ele>7.1</ele>
        <time>2020-06-02T07:01:29Z</time>
      </trkpt>
      <trkpt lat="46.18926" lon="-1.38523">
        <ele>7</ele>
        <time>2020-06-02T07:01:30Z</time>
      </trkpt>
      <trkpt lat="46.18923" lon="-1.38517">
        <ele>7</ele>
        <time>2020-06-02T07:01:31Z</time>
      </trkpt>
      <trkpt lat="46.1892" lon="-1.3851">
        <ele>7</ele>
        <time>2020-06-02T07:01:32Z</time>
      </trkpt>
      <trkpt lat="46.18918" lon="-1.38504">
        <ele>7</ele>
        <time>2020-06-02T07:01:33Z</time>
      </trkpt>
      <trkpt lat="46.18915" lon="-1.38497">
        <ele>6.9</ele>
        <time>2020-06-02T07:01:34Z</time>
      </trkpt>
      <trkpt lat="46.18912" lon="-1.3849">
        <ele>6.9</ele>
        <time>2020-06-02T07:01:35Z</time>
      </trkpt>
      <trkpt lat="46.18909" lon="-1.38484">
        <ele>6.9</ele>
        <time>2020-06-02T07:01:36Z</time>
      </trkpt>
      <trkpt lat="46.18905" lon="-1.38477">
        <ele>6.9</ele>
        <time>2020-06-02T07:01:37Z</time>
      </trkpt>
      <trkpt lat="46.18902" lon="-1.3847">
        <ele>6.9</ele>
        <time>2020-06-02T07:01:38Z</time>
      </trkpt>
      <trkpt lat="46.189" lon="-1.38464">
        <ele>6.8</ele>
        <time>2020-06-02T07:01:39Z</time>
      </trkpt>
      <trkpt lat="46.18897" lon="-1.38456">
        <ele>6.8</ele>
        <time>2020-06-02T07:01:40Z</time>
      </trkpt>
      <trkpt lat="46.18895" lon="-1.38449">
        <ele>6.8</ele>
        <time>2020-06-02T07:01:41Z</time>
      </trkpt>
      <trkpt lat="46.18892" lon="-1.38443">
        <ele>6.8</ele>
        <time>2020-06-02T07:01:42Z</time>
      </trkpt>
      <trkpt lat="46.1889" lon="-1.38436">
        <ele>6.8</ele>
        <time>2020-06-02T07:01:43Z</time>
      </trkpt>
      <trkpt lat="46.18888" lon="-1.3843">
        <ele>6.8</ele>
        <time>2020-06-02T07:01:44Z</time>
      </trkpt>
      <trkpt lat="46.18886" lon="-1.38423">
        <ele>6.8</ele>
        <time>2020-06-02T07:01:45Z</time>
      </trkpt>
      <trkpt lat="46.18883" lon="-1.38418">
        <ele>6.8</ele>
        <time>2020-06-02T07:01:46Z</time>
      </trkpt>
      <trkpt lat="46.18881" lon="-1.38412">
        <ele>6.8</ele>
        <time>2020-06-02T07:01:47Z</time>
      </trkpt>
      <trkpt lat="46.18878" lon="-1.38406">
        <ele>6.9</ele>
        <time>2020-06-02T07:01:48Z</time>
      </trkpt>
      <trkpt lat="46.18875" lon="-1.384">
        <ele>6.9</ele>
        <time>2020-06-02T07:01:49Z</time>
      </trkpt>
      <trkpt lat="46.18872" lon="-1.38394">
        <ele>6.9</ele>
        <time>2020-06-02T07:01:50Z</time>
      </trkpt>
      <trkpt lat="46.18869" lon="-1.38387">
        <ele>7</ele>
        <time>2020-06-02T07:01:51Z</time>
      </trkpt>
      <trkpt lat="46.18865" lon="-1.3838">
        <ele>7</ele>
        <time>2020-06-02T07:01:52Z</time>
      </trkpt>
      <trkpt lat="46.18863" lon="-1.38374">
        <ele>7</ele>
        <time>2020-06-02T07:01:53Z</time>
      </trkpt>
      <trkpt lat="46.1886" lon="-1.38369">
        <ele>7.1</ele>
        <time>2020-06-02T07:01:54Z</time>
      </trkpt>
      <trkpt lat="46.18858" lon="-1.38364">
        <ele>7.1</ele>
        <time>2020-06-02T07:01:55Z</time>
      </trkpt>
      <trkpt lat="46.18856" lon="-1.38359">
        <ele>7.1</ele>
        <time>2020-06-02T07:01:56Z</time>
      </trkpt>
      <trkpt lat="46.18854" lon="-1.38354">
        <ele>7.2</ele>
        <time>2020-06-02T07:01:57Z</time>
      </trkpt>
      <trkpt lat="46.18852" lon="-1.3835">
        <ele>7.2</ele>
        <time>2020-06-02T07:01:58Z</time>
      </trkpt>
      <trkpt lat="46.18851" lon="-1.38347">
        <ele>7.2</ele>
        <time>2020-06-02T07:01:59Z</time>
      </trkpt>
      <trkpt lat="46.18849" lon="-1.38342">
        <ele>7.2</ele>
        <time>2020-06-02T07:02:00Z</time>
      </trkpt>
      <trkpt lat="46.18848" lon="-1.38341">
        <ele>7.2</ele>
        <time>2020-06-02T07:02:01Z</time>
      </trkpt>
      <trkpt lat="46.18846" lon="-1.38339">
        <ele>7.3</ele>
        <time>2020-06-02T07:02:02Z</time>
      </trkpt>
      <trkpt lat="46.18846" lon="-1.38337">
        <ele>7.3</ele>
        <time>2020-06-02T07:02:03Z</time>
      </trkpt>
      <trkpt lat="46.18846" lon="-1.38335">
        <ele>7.3</ele>
        <time>2020-06-02T07:02:04Z</time>
      </trkpt>
      <trkpt lat="46.18848" lon="-1.38329">
        <ele>7.4</ele>
        <time>2020-06-02T07:02:05Z</time>
      </trkpt>
      <trkpt lat="46.18849" lon="-1.38325">
        <ele>7.4</ele>
        <time>2020-06-02T07:02:06Z</time>
      </trkpt>
      <trkpt lat="46.18851" lon="-1.38321">
        <ele>7.4</ele>
        <time>2020-06-02T07:02:07Z</time>
      </trkpt>
      <trkpt lat="46.18853" lon="-1.38316">
        <ele>7.6</ele>
        <time>2020-06-02T07:02:08Z</time>
      </trkpt>
      <trkpt lat="46.18855" lon="-1.3831">
        <ele>7.7</ele>
        <time>2020-06-02T07:02:09Z</time>
      </trkpt>
      <trkpt lat="46.18857" lon="-1.38306">
        <ele>7.7</ele>
        <time>2020-06-02T07:02:10Z</time>
      </trkpt>
      <trkpt lat="46.18859" lon="-1.38301">
        <ele>7.8</ele>
        <time>2020-06-02T07:02:11Z</time>
      </trkpt>
      <trkpt lat="46.18861" lon="-1.38294">
        <ele>7.9</ele>
        <time>2020-06-02T07:02:12Z</time>
      </trkpt>
      <trkpt lat="46.18862" lon="-1.38287">
        <ele>8</ele>
        <time>2020-06-02T07:02:13Z</time>
      </trkpt>
      <trkpt lat="46.18863" lon="-1.38281">
        <ele>8.1</ele>
        <time>2020-06-02T07:02:14Z</time>
      </trkpt>
      <trkpt lat="46.18864" lon="-1.38276">
        <ele>8.2</ele>
        <time>2020-06-02T07:02:15Z</time>
      </trkpt>
      <trkpt lat="46.18864" lon="-1.3827">
        <ele>8.3</ele>
        <time>2020-06-02T07:02:16Z</time>
      </trkpt>
      <trkpt lat="46.18863" lon="-1.38266">
        <ele>8.3</ele>
        <time>2020-06-02T07:02:17Z</time>
      </trkpt>
      <trkpt lat="46.18863" lon="-1.38262">
        <ele>8.3</ele>
        <time>2020-06-02T07:02:18Z</time>
      </trkpt>
      <trkpt lat="46.18863" lon="-1.38258">
        <ele>8.4</ele>
        <time>2020-06-02T07:02:19Z</time>
      </trkpt>
      <trkpt lat="46.18862" lon="-1.38251">
        <ele>8.4</ele>
        <time>2020-06-02T07:02:20Z</time>
      </trkpt>
      <trkpt lat="46.1886" lon="-1.38246">
        <ele>8.4</ele>
        <time>2020-06-02T07:02:21Z</time>
      </trkpt>
      <trkpt lat="46.18856" lon="-1.38244">
        <ele>8.4</ele>
        <time>2020-06-02T07:02:22Z</time>
      </trkpt>
      <trkpt lat="46.18852" lon="-1.38244">
        <ele>8.4</ele>
        <time>2020-06-02T07:02:23Z</time>
      </trkpt>
      <trkpt lat="46.18847" lon="-1.38245">
        <ele>8.4</ele>
        <time>2020-06-02T07:02:24Z</time>
      </trkpt>
      <trkpt lat="46.18842" lon="-1.38245">
        <ele>8.4</ele>
        <time>2020-06-02T07:02:25Z</time>
      </trkpt>
      <trkpt lat="46.18836" lon="-1.38245">
        <ele>8.4</ele>
        <time>2020-06-02T07:02:26Z</time>
      </trkpt>
      <trkpt lat="46.18831" lon="-1.38246">
        <ele>8.4</ele>
        <time>2020-06-02T07:02:27Z</time>
      </trkpt>
      <trkpt lat="46.18825" lon="-1.38246">
        <ele>8.3</ele>
        <time>2020-06-02T07:02:28Z</time>
      </trkpt>
      <trkpt lat="46.18821" lon="-1.38246">
        <ele>8.3</ele>
        <time>2020-06-02T07:02:29Z</time>
      </trkpt>
      <trkpt lat="46.18817" lon="-1.38246">
        <ele>8.3</ele>
        <time>2020-06-02T07:02:30Z</time>
      </trkpt>
      <trkpt lat="46.18812" lon="-1.38246">
        <ele>8.2</ele>
        <time>2020-06-02T07:02:31Z</time>
      </trkpt>
      <trkpt lat="46.18807" lon="-1.38246">
        <ele>8.2</ele>
        <time>2020-06-02T07:02:32Z</time>
      </trkpt>
      <trkpt lat="46.18803" lon="-1.38246">
        <ele>8.2</ele>
        <time>2020-06-02T07:02:33Z</time>
      </trkpt>
      <trkpt lat="46.188" lon="-1.38247">
        <ele>8.2</ele>
        <time>2020-06-02T07:02:34Z</time>
      </trkpt>
      <trkpt lat="46.18798" lon="-1.38248">
        <ele>8.1</ele>
        <time>2020-06-02T07:02:35Z</time>
      </trkpt>
      <trkpt lat="46.18795" lon="-1.38248">
        <ele>8.1</ele>
        <time>2020-06-02T07:02:36Z</time>
      </trkpt>
      <trkpt lat="46.18792" lon="-1.38249">
        <ele>8.1</ele>
        <time>2020-06-02T07:02:37Z</time>
      </trkpt>
      <trkpt lat="46.18788" lon="-1.3825">
        <ele>8</ele>
        <time>2020-06-02T07:02:38Z</time>
      </trkpt>
      <trkpt lat="46.18786" lon="-1.3825">
        <ele>8</ele>
        <time>2020-06-02T07:02:39Z</time>
      </trkpt>
      <trkpt lat="46.18783" lon="-1.38249">
        <ele>8</ele>
        <time>2020-06-02T07:02:40Z</time>
      </trkpt>
      <trkpt lat="46.18782" lon="-1.38247">
        <ele>8</ele>
        <time>2020-06-02T07:02:41Z</time>
      </trkpt>
      <trkpt lat="46.1878" lon="-1.38241">
        <ele>8</ele>
        <time>2020-06-02T07:02:42Z</time>
      </trkpt>
      <trkpt lat="46.18779" lon="-1.38234">
        <ele>8</ele>
        <time>2020-06-02T07:02:43Z</time>
      </trkpt>
      <trkpt lat="46.18777" lon="-1.38228">
        <ele>8</ele>
        <time>2020-06-02T07:02:44Z</time>
      </trkpt>
      <trkpt lat="46.18777" lon="-1.38222">
        <ele>8.1</ele>
        <time>2020-06-02T07:02:45Z</time>
      </trkpt>
      <trkpt lat="46.18775" lon="-1.38215">
        <ele>8.1</ele>
        <time>2020-06-02T07:02:46Z</time>
      </trkpt>
      <trkpt lat="46.18774" lon="-1.38209">
        <ele>8.1</ele>
        <time>2020-06-02T07:02:47Z</time>
      </trkpt>
      <trkpt lat="46.18773" lon="-1.38202">
        <ele>8.1</ele>
        <time>2020-06-02T07:02:48Z</time>
      </trkpt>
      <trkpt lat="46.18772" lon="-1.38196">
        <ele>8.2</ele>
        <time>2020-06-02T07:02:49Z</time>
      </trkpt>
      <trkpt lat="46.18771" lon="-1.38192">
        <ele>8.1</ele>
        <time>2020-06-02T07:02:50Z</time>
      </trkpt>
      <trkpt lat="46.18769" lon="-1.38185">
        <ele>8.1</ele>
        <time>2020-06-02T07:02:51Z</time>
      </trkpt>
      <trkpt lat="46.18768" lon="-1.38177">
        <ele>8.1</ele>
        <time>2020-06-02T07:02:52Z</time>
      </trkpt>
      <trkpt lat="46.18767" lon="-1.3817">
        <ele>7.8</ele>
        <time>2020-06-02T07:02:53Z</time>
      </trkpt>
      <trkpt lat="46.18766" lon="-1.38162">
        <ele>7.8</ele>
        <time>2020-06-02T07:02:54Z</time>
      </trkpt>
      <trkpt lat="46.18765" lon="-1.38153">
        <ele>7.6</ele>
        <time>2020-06-02T07:02:55Z</time>
      </trkpt>
      <trkpt lat="46.18765" lon="-1.38147">
        <ele>7.6</ele>
        <time>2020-06-02T07:02:56Z</time>
      </trkpt>
      <trkpt lat="46.18766" lon="-1.3814">
        <ele>7.5</ele>
        <time>2020-06-02T07:02:57Z</time>
      </trkpt>
      <trkpt lat="46.18765" lon="-1.38131">
        <ele>7.5</ele>
        <time>2020-06-02T07:02:58Z</time>
      </trkpt>
      <trkpt lat="46.18764" lon="-1.38122">
        <ele>7.5</ele>
        <time>2020-06-02T07:02:59Z</time>
      </trkpt>
      <trkpt lat="46.18764" lon="-1.38114">
        <ele>7.5</ele>
        <time>2020-06-02T07:03:00Z</time>
      </trkpt>
      <trkpt lat="46.18763" lon="-1.38107">
        <ele>7.5</ele>
        <time>2020-06-02T07:03:01Z</time>
      </trkpt>
      <trkpt lat="46.18762" lon="-1.38099">
        <ele>7.5</ele>
        <time>2020-06-02T07:03:02Z</time>
      </trkpt>
      <trkpt lat="46.18762" lon="-1.38092">
        <ele>7.5</ele>
        <time>2020-06-02T07:03:03Z</time>
      </trkpt>
      <trkpt lat="46.18762" lon="-1.38083">
        <ele>7.5</ele>
        <time>2020-06-02T07:03:04Z</time>
      </trkpt>
      <trkpt lat="46.18762" lon="-1.38075">
        <ele>7.5</ele>
        <time>2020-06-02T07:03:05Z</time>
      </trkpt>
      <trkpt lat="46.18762" lon="-1.38067">
        <ele>7.6</ele>
        <time>2020-06-02T07:03:06Z</time>
      </trkpt>
      <trkpt lat="46.18761" lon="-1.38058">
        <ele>7.6</ele>
        <time>2020-06-02T07:03:07Z</time>
      </trkpt>
      <trkpt lat="46.18761" lon="-1.38049">
        <ele>7.6</ele>
        <time>2020-06-02T07:03:08Z</time>
      </trkpt>
      <trkpt lat="46.18761" lon="-1.38041">
        <ele>7.6</ele>
        <time>2020-06-02T07:03:09Z</time>
      </trkpt>
      <trkpt lat="46.18761" lon="-1.38032">
        <ele>7.7</ele>
        <time>2020-06-02T07:03:10Z</time>
      </trkpt>
      <trkpt lat="46.18761" lon="-1.38024">
        <ele>7.7</ele>
        <time>2020-06-02T07:03:11Z</time>
      </trkpt>
      <trkpt lat="46.18762" lon="-1.38015">
        <ele>7.7</ele>
        <time>2020-06-02T07:03:12Z</time>
      </trkpt>
      <trkpt lat="46.18763" lon="-1.38007">
        <ele>7.8</ele>
        <time>2020-06-02T07:03:13Z</time>
      </trkpt>
      <trkpt lat="46.18764" lon="-1.37999">
        <ele>7.8</ele>
        <time>2020-06-02T07:03:14Z</time>
      </trkpt>
      <trkpt lat="46.18765" lon="-1.37991">
        <ele>7.8</ele>
        <time>2020-06-02T07:03:15Z</time>
      </trkpt>
      <trkpt lat="46.18767" lon="-1.37984">
        <ele>7.8</ele>
        <time>2020-06-02T07:03:16Z</time>
      </trkpt>
      <trkpt lat="46.18769" lon="-1.37976">
        <ele>7.8</ele>
        <time>2020-06-02T07:03:17Z</time>
      </trkpt>
      <trkpt lat="46.18771" lon="-1.37968">
        <ele>7.8</ele>
        <time>2020-06-02T07:03:18Z</time>
      </trkpt>
      <trkpt lat="46.18772" lon="-1.37962">
        <ele>7.9</ele>
        <time>2020-06-02T07:03:19Z</time>
      </trkpt>
      <trkpt lat="46.18775" lon="-1.37957">
        <ele>7.9</ele>
        <time>2020-06-02T07:03:20Z</time>
      </trkpt>
      <trkpt lat="46.18777" lon="-1.37951">
        <ele>7.9</ele>
        <time>2020-06-02T07:03:21Z</time>
      </trkpt>
      <trkpt lat="46.18779" lon="-1.37945">
        <ele>7.9</ele>
        <time>2020-06-02T07:03:22Z</time>
      </trkpt>
      <trkpt lat="46.1878" lon="-1.37939">
        <ele>7.9</ele>
        <time>2020-06-02T07:03:23Z</time>
      </trkpt>
      <trkpt lat="46.18781" lon="-1.37933">
        <ele>8</ele>
        <time>2020-06-02T07:03:24Z</time>
      </trkpt>
      <trkpt lat="46.18783" lon="-1.37925">
        <ele>8</ele>
        <time>2020-06-02T07:03:25Z</time>
      </trkpt>
      <trkpt lat="46.18785" lon="-1.37921">
        <ele>8</ele>
        <time>2020-06-02T07:03:26Z</time>
      </trkpt>
      <trkpt lat="46.18786" lon="-1.37914">
        <ele>8</ele>
        <time>2020-06-02T07:03:27Z</time>
      </trkpt>
      <trkpt lat="46.18787" lon="-1.37907">
        <ele>8</ele>
        <time>2020-06-02T07:03:28Z</time>
      </trkpt>
      <trkpt lat="46.18788" lon="-1.379">
        <ele>8.1</ele>
        <time>2020-06-02T07:03:29Z</time>
      </trkpt>
      <trkpt lat="46.18789" lon="-1.37892">
        <ele>8.1</ele>
        <time>2020-06-02T07:03:30Z</time>
      </trkpt>
      <trkpt lat="46.18792" lon="-1.37883">
        <ele>8.1</ele>
        <time>2020-06-02T07:03:31Z</time>
      </trkpt>
      <trkpt lat="46.18796" lon="-1.37876">
        <ele>8.1</ele>
        <time>2020-06-02T07:03:32Z</time>
      </trkpt>
      <trkpt lat="46.18798" lon="-1.3787">
        <ele>8.1</ele>
        <time>2020-06-02T07:03:33Z</time>
      </trkpt>
      <trkpt lat="46.18802" lon="-1.37863">
        <ele>8.1</ele>
        <time>2020-06-02T07:03:34Z</time>
      </trkpt>
      <trkpt lat="46.18805" lon="-1.37857">
        <ele>8.1</ele>
        <time>2020-06-02T07:03:35Z</time>
      </trkpt>
      <trkpt lat="46.18808" lon="-1.37851">
        <ele>8.1</ele>
        <time>2020-06-02T07:03:36Z</time>
      </trkpt>
      <trkpt lat="46.1881" lon="-1.37845">
        <ele>8.1</ele>
        <time>2020-06-02T07:03:37Z</time>
      </trkpt>
      <trkpt lat="46.18814" lon="-1.37839">
        <ele>8.1</ele>
        <time>2020-06-02T07:03:38Z</time>
      </trkpt>
      <trkpt lat="46.18818" lon="-1.37832">
        <ele>8.1</ele>
        <time>2020-06-02T07:03:39Z</time>
      </trkpt>
      <trkpt lat="46.18821" lon="-1.37825">
        <ele>8.1</ele>
        <time>2020-06-02T07:03:40Z</time>
      </trkpt>
      <trkpt lat="46.18824" lon="-1.37818">
        <ele>8.1</ele>
        <time>2020-06-02T07:03:41Z</time>
      </trkpt>
      <trkpt lat="46.18827" lon="-1.37812">
        <ele>8.1</ele>
        <time>2020-06-02T07:03:42Z</time>
      </trkpt>
      <trkpt lat="46.1883" lon="-1.37806">
        <ele>8.2</ele>
        <time>2020-06-02T07:03:43Z</time>
      </trkpt>
      <trkpt lat="46.18833" lon="-1.37799">
        <ele>8.2</ele>
        <time>2020-06-02T07:03:44Z</time>
      </trkpt>
      <trkpt lat="46.18836" lon="-1.37792">
        <ele>8.2</ele>
        <time>2020-06-02T07:03:45Z</time>
      </trkpt>
      <trkpt lat="46.18838" lon="-1.37786">
        <ele>8.1</ele>
        <time>2020-06-02T07:03:46Z</time>
      </trkpt>
      <trkpt lat="46.1884" lon="-1.3778">
        <ele>8.1</ele>
        <time>2020-06-02T07:03:47Z</time>
      </trkpt>
      <trkpt lat="46.18842" lon="-1.37775">
        <ele>8.1</ele>
        <time>2020-06-02T07:03:48Z</time>
      </trkpt>
      <trkpt lat="46.18844" lon="-1.37769">
        <ele>8.1</ele>
        <time>2020-06-02T07:03:49Z</time>
      </trkpt>
      <trkpt lat="46.18846" lon="-1.37763">
        <ele>8.1</ele>
        <time>2020-06-02T07:03:50Z</time>
      </trkpt>
      <trkpt lat="46.1885" lon="-1.37758">
        <ele>8.1</ele>
        <time>2020-06-02T07:03:51Z</time>
      </trkpt>
      <trkpt lat="46.18854" lon="-1.37753">
        <ele>8.1</ele>
        <time>2020-06-02T07:03:52Z</time>
      </trkpt>
      <trkpt lat="46.18858" lon="-1.37748">
        <ele>8.1</ele>
        <time>2020-06-02T07:03:53Z</time>
      </trkpt>
      <trkpt lat="46.18862" lon="-1.37743">
        <ele>8.1</ele>
        <time>2020-06-02T07:03:54Z</time>
      </trkpt>
      <trkpt lat="46.18866" lon="-1.37738">
        <ele>8.1</ele>
        <time>2020-06-02T07:03:55Z</time>
      </trkpt>
      <trkpt lat="46.1887" lon="-1.37732">
        <ele>8.1</ele>
        <time>2020-06-02T07:03:56Z</time>
      </trkpt>
      <trkpt lat="46.18874" lon="-1.37727">
        <ele>8.1</ele>
        <time>2020-06-02T07:03:57Z</time>
      </trkpt>
      <trkpt lat="46.18876" lon="-1.37723">
        <ele>8.2</ele>
        <time>2020-06-02T07:03:58Z</time>
      </trkpt>
      <trkpt lat="46.1888" lon="-1.37719">
        <ele>8.2</ele>
        <time>2020-06-02T07:03:59Z</time>
      </trkpt>
      <trkpt lat="46.18884" lon="-1.37715">
        <ele>8.2</ele>
        <time>2020-06-02T07:04:00Z</time>
      </trkpt>
      <trkpt lat="46.18888" lon="-1.37711">
        <ele>8.3</ele>
        <time>2020-06-02T07:04:01Z</time>
      </trkpt>
      <trkpt lat="46.18892" lon="-1.37705">
        <ele>8.3</ele>
        <time>2020-06-02T07:04:02Z</time>
      </trkpt>
      <trkpt lat="46.18896" lon="-1.377">
        <ele>8.4</ele>
        <time>2020-06-02T07:04:03Z</time>
      </trkpt>
      <trkpt lat="46.18899" lon="-1.37696">
        <ele>8.4</ele>
        <time>2020-06-02T07:04:04Z</time>
      </trkpt>
      <trkpt lat="46.18902" lon="-1.37691">
        <ele>8.5</ele>
        <time>2020-06-02T07:04:05Z</time>
      </trkpt>
      <trkpt lat="46.18905" lon="-1.37687">
        <ele>8.6</ele>
        <time>2020-06-02T07:04:06Z</time>
      </trkpt>
      <trkpt lat="46.18909" lon="-1.37682">
        <ele>8.6</ele>
        <time>2020-06-02T07:04:07Z</time>
      </trkpt>
      <trkpt lat="46.18913" lon="-1.37676">
        <ele>8.7</ele>
        <time>2020-06-02T07:04:08Z</time>
      </trkpt>
      <trkpt lat="46.18917" lon="-1.37672">
        <ele>8.7</ele>
        <time>2020-06-02T07:04:09Z</time>
      </trkpt>
      <trkpt lat="46.18921" lon="-1.37666">
        <ele>8.7</ele>
        <time>2020-06-02T07:04:10Z</time>
      </trkpt>
      <trkpt lat="46.18924" lon="-1.37663">
        <ele>8.8</ele>
        <time>2020-06-02T07:04:11Z</time>
      </trkpt>
      <trkpt lat="46.18928" lon="-1.37659">
        <ele>8.8</ele>
        <time>2020-06-02T07:04:12Z</time>
      </trkpt>
      <trkpt lat="46.18932" lon="-1.37655">
        <ele>8.9</ele>
        <time>2020-06-02T07:04:13Z</time>
      </trkpt>
      <trkpt lat="46.18936" lon="-1.37652">
        <ele>8.9</ele>
        <time>2020-06-02T07:04:14Z</time>
      </trkpt>
      <trkpt lat="46.1894" lon="-1.37648">
        <ele>9</ele>
        <time>2020-06-02T07:04:15Z</time>
      </trkpt>
      <trkpt lat="46.18943" lon="-1.37645">
        <ele>9</ele>
        <time>2020-06-02T07:04:16Z</time>
      </trkpt>
      <trkpt lat="46.18947" lon="-1.37642">
        <ele>9.1</ele>
        <time>2020-06-02T07:04:17Z</time>
      </trkpt>
      <trkpt lat="46.18951" lon="-1.37639">
        <ele>9.1</ele>
        <time>2020-06-02T07:04:18Z</time>
      </trkpt>
      <trkpt lat="46.18956" lon="-1.37636">
        <ele>9.2</ele>
        <time>2020-06-02T07:04:19Z</time>
      </trkpt>
      <trkpt lat="46.18959" lon="-1.37633">
        <ele>9.2</ele>
        <time>2020-06-02T07:04:20Z</time>
      </trkpt>
      <trkpt lat="46.18963" lon="-1.3763">
        <ele>9.2</ele>
        <time>2020-06-02T07:04:21Z</time>
      </trkpt>
      <trkpt lat="46.18968" lon="-1.37627">
        <ele>9.3</ele>
        <time>2020-06-02T07:04:22Z</time>
      </trkpt>
      <trkpt lat="46.18972" lon="-1.37625">
        <ele>9.3</ele>
        <time>2020-06-02T07:04:23Z</time>
      </trkpt>
      <trkpt lat="46.18977" lon="-1.37622">
        <ele>9.3</ele>
        <time>2020-06-02T07:04:24Z</time>
      </trkpt>
      <trkpt lat="46.18981" lon="-1.37618">
        <ele>9.4</ele>
        <time>2020-06-02T07:04:25Z</time>
      </trkpt>
      <trkpt lat="46.18984" lon="-1.37616">
        <ele>9.3</ele>
        <time>2020-06-02T07:04:26Z</time>
      </trkpt>
      <trkpt lat="46.18987" lon="-1.37613">
        <ele>9.3</ele>
        <time>2020-06-02T07:04:27Z</time>
      </trkpt>
      <trkpt lat="46.18991" lon="-1.3761">
        <ele>9.3</ele>
        <time>2020-06-02T07:04:28Z</time>
      </trkpt>
      <trkpt lat="46.18995" lon="-1.37608">
        <ele>9.3</ele>
        <time>2020-06-02T07:04:29Z</time>
      </trkpt>
      <trkpt lat="46.18998" lon="-1.37605">
        <ele>9.3</ele>
        <time>2020-06-02T07:04:30Z</time>
      </trkpt>
      <trkpt lat="46.19002" lon="-1.37602">
        <ele>9.3</ele>
        <time>2020-06-02T07:04:31Z</time>
      </trkpt>
      <trkpt lat="46.19005" lon="-1.376">
        <ele>9.3</ele>
        <time>2020-06-02T07:04:32Z</time>
      </trkpt>
      <trkpt lat="46.19009" lon="-1.37596">
        <ele>9.3</ele>
        <time>2020-06-02T07:04:33Z</time>
      </trkpt>
      <trkpt lat="46.19012" lon="-1.37594">
        <ele>9.3</ele>
        <time>2020-06-02T07:04:34Z</time>
      </trkpt>
      <trkpt lat="46.19016" lon="-1.3759">
        <ele>9.3</ele>
        <time>2020-06-02T07:04:35Z</time>
      </trkpt>
      <trkpt lat="46.1902" lon="-1.37586">
        <ele>9.3</ele>
        <time>2020-06-02T07:04:36Z</time>
      </trkpt>
      <trkpt lat="46.19024" lon="-1.37582">
        <ele>9.3</ele>
        <time>2020-06-02T07:04:37Z</time>
      </trkpt>
      <trkpt lat="46.19027" lon="-1.37579">
        <ele>9.2</ele>
        <time>2020-06-02T07:04:38Z</time>
      </trkpt>
      <trkpt lat="46.19031" lon="-1.37575">
        <ele>9.2</ele>
        <time>2020-06-02T07:04:39Z</time>
      </trkpt>
      <trkpt lat="46.19036" lon="-1.37572">
        <ele>9.2</ele>
        <time>2020-06-02T07:04:40Z</time>
      </trkpt>
      <trkpt lat="46.19039" lon="-1.37569">
        <ele>9.2</ele>
        <time>2020-06-02T07:04:41Z</time>
      </trkpt>
      <trkpt lat="46.19043" lon="-1.37566">
        <ele>9.2</ele>
        <time>2020-06-02T07:04:42Z</time>
      </trkpt>
      <trkpt lat="46.19048" lon="-1.37565">
        <ele>9.1</ele>
        <time>2020-06-02T07:04:43Z</time>
      </trkpt>
      <trkpt lat="46.19052" lon="-1.37562">
        <ele>9.1</ele>
        <time>2020-06-02T07:04:44Z</time>
      </trkpt>
      <trkpt lat="46.19056" lon="-1.37559">
        <ele>9.1</ele>
        <time>2020-06-02T07:04:45Z</time>
      </trkpt>
      <trkpt lat="46.1906" lon="-1.37556">
        <ele>9.1</ele>
        <time>2020-06-02T07:04:46Z</time>
      </trkpt>
      <trkpt lat="46.19065" lon="-1.37552">
        <ele>9.1</ele>
        <time>2020-06-02T07:04:47Z</time>
      </trkpt>
      <trkpt lat="46.1907" lon="-1.37547">
        <ele>9.1</ele>
        <time>2020-06-02T07:04:48Z</time>
      </trkpt>
      <trkpt lat="46.19074" lon="-1.37543">
        <ele>9.1</ele>
        <time>2020-06-02T07:04:49Z</time>
      </trkpt>
      <trkpt lat="46.19079" lon="-1.37539">
        <ele>9.1</ele>
        <time>2020-06-02T07:04:50Z</time>
      </trkpt>
      <trkpt lat="46.19082" lon="-1.37535">
        <ele>9.1</ele>
        <time>2020-06-02T07:04:51Z</time>
      </trkpt>
      <trkpt lat="46.19086" lon="-1.37531">
        <ele>9.1</ele>
        <time>2020-06-02T07:04:52Z</time>
      </trkpt>
      <trkpt lat="46.19089" lon="-1.37527">
        <ele>9.1</ele>
        <time>2020-06-02T07:04:53Z</time>
      </trkpt>
      <trkpt lat="46.19092" lon="-1.37524">
        <ele>9.1</ele>
        <time>2020-06-02T07:04:54Z</time>
      </trkpt>
      <trkpt lat="46.19095" lon="-1.3752">
        <ele>9.2</ele>
        <time>2020-06-02T07:04:55Z</time>
      </trkpt>
      <trkpt lat="46.19099" lon="-1.37517">
        <ele>9.2</ele>
        <time>2020-06-02T07:04:56Z</time>
      </trkpt>
      <trkpt lat="46.19102" lon="-1.37514">
        <ele>9.2</ele>
        <time>2020-06-02T07:04:57Z</time>
      </trkpt>
      <trkpt lat="46.19106" lon="-1.37511">
        <ele>9.2</ele>
        <time>2020-06-02T07:04:58Z</time>
      </trkpt>
      <trkpt lat="46.1911" lon="-1.37506">
        <ele>9.3</ele>
        <time>2020-06-02T07:04:59Z</time>
      </trkpt>
      <trkpt lat="46.19114" lon="-1.37502">
        <ele>9.3</ele>
        <time>2020-06-02T07:05:00Z</time>
      </trkpt>
      <trkpt lat="46.19117" lon="-1.37498">
        <ele>9.4</ele>
        <time>2020-06-02T07:05:01Z</time>
      </trkpt>
      <trkpt lat="46.1912" lon="-1.37494">
        <ele>9.5</ele>
        <time>2020-06-02T07:05:02Z</time>
      </trkpt>
      <trkpt lat="46.19124" lon="-1.37489">
        <ele>9.5</ele>
        <time>2020-06-02T07:05:03Z</time>
      </trkpt>
      <trkpt lat="46.19128" lon="-1.37485">
        <ele>9.6</ele>
        <time>2020-06-02T07:05:04Z</time>
      </trkpt>
      <trkpt lat="46.19131" lon="-1.37481">
        <ele>9.7</ele>
        <time>2020-06-02T07:05:05Z</time>
      </trkpt>
      <trkpt lat="46.19135" lon="-1.37477">
        <ele>9.7</ele>
        <time>2020-06-02T07:05:06Z</time>
      </trkpt>
      <trkpt lat="46.19138" lon="-1.37473">
        <ele>9.7</ele>
        <time>2020-06-02T07:05:07Z</time>
      </trkpt>
      <trkpt lat="46.19141" lon="-1.37469">
        <ele>9.8</ele>
        <time>2020-06-02T07:05:08Z</time>
      </trkpt>
      <trkpt lat="46.19145" lon="-1.37465">
        <ele>9.8</ele>
        <time>2020-06-02T07:05:09Z</time>
      </trkpt>
      <trkpt lat="46.19149" lon="-1.37461">
        <ele>9.8</ele>
        <time>2020-06-02T07:05:10Z</time>
      </trkpt>
      <trkpt lat="46.19152" lon="-1.37457">
        <ele>9.9</ele>
        <time>2020-06-02T07:05:11Z</time>
      </trkpt>
      <trkpt lat="46.19156" lon="-1.37454">
        <ele>9.9</ele>
        <time>2020-06-02T07:05:12Z</time>
      </trkpt>
      <trkpt lat="46.19159" lon="-1.37451">
        <ele>9.9</ele>
        <time>2020-06-02T07:05:13Z</time>
      </trkpt>
      <trkpt lat="46.19163" lon="-1.37449">
        <ele>9.9</ele>
        <time>2020-06-02T07:05:14Z</time>
      </trkpt>
      <trkpt lat="46.19168" lon="-1.37444">
        <ele>10</ele>
        <time>2020-06-02T07:05:15Z</time>
      </trkpt>
      <trkpt lat="46.19172" lon="-1.37441">
        <ele>10</ele>
        <time>2020-06-02T07:05:16Z</time>
      </trkpt>
      <trkpt lat="46.19177" lon="-1.37437">
        <ele>10</ele>
        <time>2020-06-02T07:05:17Z</time>
      </trkpt>
      <trkpt lat="46.19181" lon="-1.37434">
        <ele>10</ele>
        <time>2020-06-02T07:05:18Z</time>
      </trkpt>
      <trkpt lat="46.19185" lon="-1.37431">
        <ele>10.1</ele>
        <time>2020-06-02T07:05:19Z</time>
      </trkpt>
      <trkpt lat="46.19188" lon="-1.37428">
        <ele>10.1</ele>
        <time>2020-06-02T07:05:20Z</time>
      </trkpt>
      <trkpt lat="46.19193" lon="-1.37425">
        <ele>10.1</ele>
        <time>2020-06-02T07:05:21Z</time>
      </trkpt>
      <trkpt lat="46.19197" lon="-1.37421">
        <ele>10.1</ele>
        <time>2020-06-02T07:05:22Z</time>
      </trkpt>
      <trkpt lat="46.19202" lon="-1.37418">
        <ele>10.1</ele>
        <time>2020-06-02T07:05:23Z</time>
      </trkpt>
      <trkpt lat="46.19206" lon="-1.37415">
        <ele>10.1</ele>
        <time>2020-06-02T07:05:24Z</time>
      </trkpt>
      <trkpt lat="46.19211" lon="-1.37412">
        <ele>10.1</ele>
        <time>2020-06-02T07:05:25Z</time>
      </trkpt>
      <trkpt lat="46.19215" lon="-1.3741">
        <ele>10.1</ele>
        <time>2020-06-02T07:05:26Z</time>
      </trkpt>
      <trkpt lat="46.19219" lon="-1.37408">
        <ele>10.1</ele>
        <time>2020-06-02T07:05:27Z</time>
      </trkpt>
      <trkpt lat="46.19224" lon="-1.37406">
        <ele>10.1</ele>
        <time>2020-06-02T07:05:28Z</time>
      </trkpt>
      <trkpt lat="46.19228" lon="-1.37403">
        <ele>10.1</ele>
        <time>2020-06-02T07:05:29Z</time>
      </trkpt>
      <trkpt lat="46.19232" lon="-1.37401">
        <ele>10.1</ele>
        <time>2020-06-02T07:05:30Z</time>
      </trkpt>
      <trkpt lat="46.19236" lon="-1.374">
        <ele>10.1</ele>
        <time>2020-06-02T07:05:31Z</time>
      </trkpt>
      <trkpt lat="46.1924" lon="-1.37398">
        <ele>10.1</ele>
        <time>2020-06-02T07:05:32Z</time>
      </trkpt>
      <trkpt lat="46.19243" lon="-1.37397">
        <ele>10.1</ele>
        <time>2020-06-02T07:05:33Z</time>
      </trkpt>
      <trkpt lat="46.19247" lon="-1.37395">
        <ele>10.1</ele>
        <time>2020-06-02T07:05:34Z</time>
      </trkpt>
      <trkpt lat="46.19251" lon="-1.37393">
        <ele>10</ele>
        <time>2020-06-02T07:05:35Z</time>
      </trkpt>
      <trkpt lat="46.19255" lon="-1.37392">
        <ele>10</ele>
        <time>2020-06-02T07:05:36Z</time>
      </trkpt>
      <trkpt lat="46.19259" lon="-1.3739">
        <ele>10</ele>
        <time>2020-06-02T07:05:37Z</time>
      </trkpt>
      <trkpt lat="46.19263" lon="-1.37389">
        <ele>10</ele>
        <time>2020-06-02T07:05:38Z</time>
      </trkpt>
      <trkpt lat="46.19267" lon="-1.37387">
        <ele>10</ele>
        <time>2020-06-02T07:05:39Z</time>
      </trkpt>
      <trkpt lat="46.19272" lon="-1.37385">
        <ele>10</ele>
        <time>2020-06-02T07:05:40Z</time>
      </trkpt>
      <trkpt lat="46.19277" lon="-1.37385">
        <ele>10</ele>
        <time>2020-06-02T07:05:41Z</time>
      </trkpt>
      <trkpt lat="46.1928" lon="-1.37386">
        <ele>10</ele>
        <time>2020-06-02T07:05:42Z</time>
      </trkpt>
      <trkpt lat="46.19284" lon="-1.37387">
        <ele>10</ele>
        <time>2020-06-02T07:05:43Z</time>
      </trkpt>
      <trkpt lat="46.19287" lon="-1.37388">
        <ele>9.9</ele>
        <time>2020-06-02T07:05:44Z</time>
      </trkpt>
      <trkpt lat="46.19292" lon="-1.37389">
        <ele>9.9</ele>
        <time>2020-06-02T07:05:45Z</time>
      </trkpt>
      <trkpt lat="46.19296" lon="-1.3739">
        <ele>9.9</ele>
        <time>2020-06-02T07:05:46Z</time>
      </trkpt>
      <trkpt lat="46.193" lon="-1.37391">
        <ele>9.9</ele>
        <time>2020-06-02T07:05:47Z</time>
      </trkpt>
      <trkpt lat="46.19304" lon="-1.37393">
        <ele>9.9</ele>
        <time>2020-06-02T07:05:48Z</time>
      </trkpt>
      <trkpt lat="46.19309" lon="-1.37394">
        <ele>9.9</ele>
        <time>2020-06-02T07:05:49Z</time>
      </trkpt>
      <trkpt lat="46.19313" lon="-1.37394">
        <ele>9.9</ele>
        <time>2020-06-02T07:05:50Z</time>
      </trkpt>
      <trkpt lat="46.19316" lon="-1.37395">
        <ele>9.9</ele>
        <time>2020-06-02T07:05:51Z</time>
      </trkpt>
      <trkpt lat="46.1932" lon="-1.37396">
        <ele>9.8</ele>
        <time>2020-06-02T07:05:52Z</time>
      </trkpt>
      <trkpt lat="46.19324" lon="-1.37396">
        <ele>9.8</ele>
        <time>2020-06-02T07:05:53Z</time>
      </trkpt>
      <trkpt lat="46.1933" lon="-1.37397">
        <ele>9.8</ele>
        <time>2020-06-02T07:05:54Z</time>
      </trkpt>
      <trkpt lat="46.19335" lon="-1.37398">
        <ele>9.8</ele>
        <time>2020-06-02T07:05:55Z</time>
      </trkpt>
      <trkpt lat="46.19339" lon="-1.37399">
        <ele>9.8</ele>
        <time>2020-06-02T07:05:56Z</time>
      </trkpt>
      <trkpt lat="46.19344" lon="-1.374">
        <ele>9.8</ele>
        <time>2020-06-02T07:05:57Z</time>
      </trkpt>
      <trkpt lat="46.19349" lon="-1.374">
        <ele>9.8</ele>
        <time>2020-06-02T07:05:58Z</time>
      </trkpt>
      <trkpt lat="46.19353" lon="-1.37401">
        <ele>9.8</ele>
        <time>2020-06-02T07:05:59Z</time>
      </trkpt>
      <trkpt lat="46.19359" lon="-1.37401">
        <ele>9.8</ele>
        <time>2020-06-02T07:06:00Z</time>
      </trkpt>
      <trkpt lat="46.19364" lon="-1.37401">
        <ele>9.8</ele>
        <time>2020-06-02T07:06:01Z</time>
      </trkpt>
      <trkpt lat="46.19368" lon="-1.37402">
        <ele>9.8</ele>
        <time>2020-06-02T07:06:02Z</time>
      </trkpt>
      <trkpt lat="46.19373" lon="-1.37402">
        <ele>9.8</ele>
        <time>2020-06-02T07:06:03Z</time>
      </trkpt>
      <trkpt lat="46.19378" lon="-1.37403">
        <ele>9.8</ele>
        <time>2020-06-02T07:06:04Z</time>
      </trkpt>
      <trkpt lat="46.19381" lon="-1.37402">
        <ele>9.8</ele>
        <time>2020-06-02T07:06:05Z</time>
      </trkpt>
      <trkpt lat="46.19386" lon="-1.37402">
        <ele>9.8</ele>
        <time>2020-06-02T07:06:06Z</time>
      </trkpt>
      <trkpt lat="46.19392" lon="-1.37403">
        <ele>9.8</ele>
        <time>2020-06-02T07:06:07Z</time>
      </trkpt>
      <trkpt lat="46.19396" lon="-1.37404">
        <ele>9.8</ele>
        <time>2020-06-02T07:06:08Z</time>
      </trkpt>
      <trkpt lat="46.19401" lon="-1.37405">
        <ele>9.8</ele>
        <time>2020-06-02T07:06:09Z</time>
      </trkpt>
      <trkpt lat="46.19405" lon="-1.37406">
        <ele>9.7</ele>
        <time>2020-06-02T07:06:10Z</time>
      </trkpt>
      <trkpt lat="46.19411" lon="-1.37407">
        <ele>9.7</ele>
        <time>2020-06-02T07:06:11Z</time>
      </trkpt>
      <trkpt lat="46.19416" lon="-1.37407">
        <ele>9.7</ele>
        <time>2020-06-02T07:06:12Z</time>
      </trkpt>
      <trkpt lat="46.1942" lon="-1.37406">
        <ele>9.7</ele>
        <time>2020-06-02T07:06:13Z</time>
      </trkpt>
      <trkpt lat="46.19424" lon="-1.37406">
        <ele>9.7</ele>
        <time>2020-06-02T07:06:14Z</time>
      </trkpt>
      <trkpt lat="46.19428" lon="-1.37406">
        <ele>9.6</ele>
        <time>2020-06-02T07:06:15Z</time>
      </trkpt>
      <trkpt lat="46.19432" lon="-1.37407">
        <ele>9.6</ele>
        <time>2020-06-02T07:06:16Z</time>
      </trkpt>
      <trkpt lat="46.19436" lon="-1.37407">
        <ele>9.6</ele>
        <time>2020-06-02T07:06:17Z</time>
      </trkpt>
      <trkpt lat="46.19441" lon="-1.37408">
        <ele>9.6</ele>
        <time>2020-06-02T07:06:18Z</time>
      </trkpt>
      <trkpt lat="46.19445" lon="-1.37409">
        <ele>9.6</ele>
        <time>2020-06-02T07:06:19Z</time>
      </trkpt>
      <trkpt lat="46.19451" lon="-1.3741">
        <ele>9.6</ele>
        <time>2020-06-02T07:06:20Z</time>
      </trkpt>
      <trkpt lat="46.19456" lon="-1.3741">
        <ele>9.6</ele>
        <time>2020-06-02T07:06:21Z</time>
      </trkpt>
      <trkpt lat="46.1946" lon="-1.37412">
        <ele>9.6</ele>
        <time>2020-06-02T07:06:22Z</time>
      </trkpt>
      <trkpt lat="46.19465" lon="-1.37413">
        <ele>9.6</ele>
        <time>2020-06-02T07:06:23Z</time>
      </trkpt>
      <trkpt lat="46.1947" lon="-1.37415">
        <ele>9.6</ele>
        <time>2020-06-02T07:06:24Z</time>
      </trkpt>
      <trkpt lat="46.19474" lon="-1.37417">
        <ele>9.6</ele>
        <time>2020-06-02T07:06:25Z</time>
      </trkpt>
      <trkpt lat="46.1948" lon="-1.37418">
        <ele>9.6</ele>
        <time>2020-06-02T07:06:26Z</time>
      </trkpt>
      <trkpt lat="46.19484" lon="-1.37419">
        <ele>9.6</ele>
        <time>2020-06-02T07:06:27Z</time>
      </trkpt>
      <trkpt lat="46.19489" lon="-1.3742">
        <ele>9.7</ele>
        <time>2020-06-02T07:06:28Z</time>
      </trkpt>
      <trkpt lat="46.19494" lon="-1.37421">
        <ele>9.7</ele>
        <time>2020-06-02T07:06:29Z</time>
      </trkpt>
      <trkpt lat="46.19499" lon="-1.37423">
        <ele>9.7</ele>
        <time>2020-06-02T07:06:30Z</time>
      </trkpt>
      <trkpt lat="46.19504" lon="-1.37424">
        <ele>9.7</ele>
        <time>2020-06-02T07:06:31Z</time>
      </trkpt>
      <trkpt lat="46.19509" lon="-1.37425">
        <ele>9.7</ele>
        <time>2020-06-02T07:06:32Z</time>
      </trkpt>
      <trkpt lat="46.19515" lon="-1.37426">
        <ele>9.7</ele>
        <time>2020-06-02T07:06:33Z</time>
      </trkpt>
      <trkpt lat="46.19519" lon="-1.37427">
        <ele>9.7</ele>
        <time>2020-06-02T07:06:34Z</time>
      </trkpt>
      <trkpt lat="46.19523" lon="-1.37426">
        <ele>9.8</ele>
        <time>2020-06-02T07:06:35Z</time>
      </trkpt>
      <trkpt lat="46.1953" lon="-1.37425">
        <ele>9.8</ele>
        <time>2020-06-02T07:06:36Z</time>
      </trkpt>
      <trkpt lat="46.19535" lon="-1.37423">
        <ele>9.8</ele>
        <time>2020-06-02T07:06:37Z</time>
      </trkpt>
      <trkpt lat="46.1954" lon="-1.37422">
        <ele>9.8</ele>
        <time>2020-06-02T07:06:38Z</time>
      </trkpt>
      <trkpt lat="46.19544" lon="-1.37421">
        <ele>9.8</ele>
        <time>2020-06-02T07:06:39Z</time>
      </trkpt>
      <trkpt lat="46.19548" lon="-1.37421">
        <ele>9.8</ele>
        <time>2020-06-02T07:06:40Z</time>
      </trkpt>
      <trkpt lat="46.19552" lon="-1.37421">
        <ele>9.8</ele>
        <time>2020-06-02T07:06:41Z</time>
      </trkpt>
      <trkpt lat="46.19557" lon="-1.37421">
        <ele>9.9</ele>
        <time>2020-06-02T07:06:42Z</time>
      </trkpt>
      <trkpt lat="46.19562" lon="-1.37421">
        <ele>9.9</ele>
        <time>2020-06-02T07:06:43Z</time>
      </trkpt>
      <trkpt lat="46.19567" lon="-1.37421">
        <ele>9.9</ele>
        <time>2020-06-02T07:06:44Z</time>
      </trkpt>
      <trkpt lat="46.19572" lon="-1.37421">
        <ele>9.9</ele>
        <time>2020-06-02T07:06:45Z</time>
      </trkpt>
      <trkpt lat="46.19576" lon="-1.37421">
        <ele>9.9</ele>
        <time>2020-06-02T07:06:46Z</time>
      </trkpt>
      <trkpt lat="46.19581" lon="-1.37421">
        <ele>9.9</ele>
        <time>2020-06-02T07:06:47Z</time>
      </trkpt>
      <trkpt lat="46.19586" lon="-1.37422">
        <ele>9.9</ele>
        <time>2020-06-02T07:06:48Z</time>
      </trkpt>
      <trkpt lat="46.19591" lon="-1.37422">
        <ele>9.9</ele>
        <time>2020-06-02T07:06:49Z</time>
      </trkpt>
      <trkpt lat="46.19596" lon="-1.37422">
        <ele>9.9</ele>
        <time>2020-06-02T07:06:50Z</time>
      </trkpt>
      <trkpt lat="46.196" lon="-1.37422">
        <ele>9.9</ele>
        <time>2020-06-02T07:06:51Z</time>
      </trkpt>
      <trkpt lat="46.19605" lon="-1.37423">
        <ele>9.9</ele>
        <time>2020-06-02T07:06:52Z</time>
      </trkpt>
      <trkpt lat="46.19609" lon="-1.37423">
        <ele>10</ele>
        <time>2020-06-02T07:06:53Z</time>
      </trkpt>
      <trkpt lat="46.19614" lon="-1.37422">
        <ele>10</ele>
        <time>2020-06-02T07:06:54Z</time>
      </trkpt>
      <trkpt lat="46.19619" lon="-1.37421">
        <ele>10</ele>
        <time>2020-06-02T07:06:55Z</time>
      </trkpt>
      <trkpt lat="46.19624" lon="-1.3742">
        <ele>10</ele>
        <time>2020-06-02T07:06:56Z</time>
      </trkpt>
      <trkpt lat="46.19629" lon="-1.3742">
        <ele>10</ele>
        <time>2020-06-02T07:06:57Z</time>
      </trkpt>
      <trkpt lat="46.19635" lon="-1.3742">
        <ele>10</ele>
        <time>2020-06-02T07:06:58Z</time>
      </trkpt>
      <trkpt lat="46.1964" lon="-1.37421">
        <ele>10</ele>
        <time>2020-06-02T07:06:59Z</time>
      </trkpt>
      <trkpt lat="46.19646" lon="-1.37421">
        <ele>10</ele>
        <time>2020-06-02T07:07:00Z</time>
      </trkpt>
      <trkpt lat="46.19651" lon="-1.37421">
        <ele>10</ele>
        <time>2020-06-02T07:07:01Z</time>
      </trkpt>
      <trkpt lat="46.19656" lon="-1.37421">
        <ele>10</ele>
        <time>2020-06-02T07:07:02Z</time>
      </trkpt>
      <trkpt lat="46.19661" lon="-1.3742">
        <ele>9.9</ele>
        <time>2020-06-02T07:07:03Z</time>
      </trkpt>
      <trkpt lat="46.19665" lon="-1.3742">
        <ele>9.9</ele>
        <time>2020-06-02T07:07:04Z</time>
      </trkpt>
      <trkpt lat="46.1967" lon="-1.37421">
        <ele>9.9</ele>
        <time>2020-06-02T07:07:05Z</time>
      </trkpt>
      <trkpt lat="46.19676" lon="-1.37424">
        <ele>9.9</ele>
        <time>2020-06-02T07:07:06Z</time>
      </trkpt>
      <trkpt lat="46.1968" lon="-1.37428">
        <ele>9.9</ele>
        <time>2020-06-02T07:07:07Z</time>
      </trkpt>
      <trkpt lat="46.19681" lon="-1.37437">
        <ele>9.8</ele>
        <time>2020-06-02T07:07:08Z</time>
      </trkpt>
      <trkpt lat="46.19681" lon="-1.37445">
        <ele>9.8</ele>
        <time>2020-06-02T07:07:09Z</time>
      </trkpt>
      <trkpt lat="46.19681" lon="-1.37453">
        <ele>9.8</ele>
        <time>2020-06-02T07:07:10Z</time>
      </trkpt>
      <trkpt lat="46.19681" lon="-1.3746">
        <ele>9.8</ele>
        <time>2020-06-02T07:07:11Z</time>
      </trkpt>
      <trkpt lat="46.19681" lon="-1.37468">
        <ele>9.8</ele>
        <time>2020-06-02T07:07:12Z</time>
      </trkpt>
      <trkpt lat="46.19681" lon="-1.37478">
        <ele>9.8</ele>
        <time>2020-06-02T07:07:13Z</time>
      </trkpt>
      <trkpt lat="46.19681" lon="-1.37484">
        <ele>9.8</ele>
        <time>2020-06-02T07:07:14Z</time>
      </trkpt>
      <trkpt lat="46.1968" lon="-1.37491">
        <ele>9.8</ele>
        <time>2020-06-02T07:07:15Z</time>
      </trkpt>
      <trkpt lat="46.19681" lon="-1.37499">
        <ele>9.8</ele>
        <time>2020-06-02T07:07:16Z</time>
      </trkpt>
      <trkpt lat="46.1968" lon="-1.37506">
        <ele>9.8</ele>
        <time>2020-06-02T07:07:17Z</time>
      </trkpt>
      <trkpt lat="46.1968" lon="-1.37513">
        <ele>9.8</ele>
        <time>2020-06-02T07:07:18Z</time>
      </trkpt>
      <trkpt lat="46.1968" lon="-1.3752">
        <ele>9.7</ele>
        <time>2020-06-02T07:07:19Z</time>
      </trkpt>
      <trkpt lat="46.1968" lon="-1.37528">
        <ele>9.7</ele>
        <time>2020-06-02T07:07:20Z</time>
      </trkpt>
      <trkpt lat="46.1968" lon="-1.37535">
        <ele>9.7</ele>
        <time>2020-06-02T07:07:21Z</time>
      </trkpt>
      <trkpt lat="46.1968" lon="-1.37541">
        <ele>9.7</ele>
        <time>2020-06-02T07:07:22Z</time>
      </trkpt>
      <trkpt lat="46.19682" lon="-1.37549">
        <ele>9.7</ele>
        <time>2020-06-02T07:07:23Z</time>
      </trkpt>
      <trkpt lat="46.19687" lon="-1.37552">
        <ele>9.7</ele>
        <time>2020-06-02T07:07:24Z</time>
      </trkpt>
      <trkpt lat="46.19693" lon="-1.37551">
        <ele>9.7</ele>
        <time>2020-06-02T07:07:25Z</time>
      </trkpt>
      <trkpt lat="46.19699" lon="-1.37549">
        <ele>9.7</ele>
        <time>2020-06-02T07:07:26Z</time>
      </trkpt>
      <trkpt lat="46.19705" lon="-1.37549">
        <ele>9.7</ele>
        <time>2020-06-02T07:07:27Z</time>
      </trkpt>
      <trkpt lat="46.19711" lon="-1.37548">
        <ele>9.7</ele>
        <time>2020-06-02T07:07:28Z</time>
      </trkpt>
      <trkpt lat="46.19716" lon="-1.37548">
        <ele>9.7</ele>
        <time>2020-06-02T07:07:29Z</time>
      </trkpt>
      <trkpt lat="46.19721" lon="-1.37548">
        <ele>9.7</ele>
        <time>2020-06-02T07:07:30Z</time>
      </trkpt>
      <trkpt lat="46.19726" lon="-1.37547">
        <ele>9.7</ele>
        <time>2020-06-02T07:07:31Z</time>
      </trkpt>
      <trkpt lat="46.19731" lon="-1.37547">
        <ele>9.7</ele>
        <time>2020-06-02T07:07:32Z</time>
      </trkpt>
      <trkpt lat="46.19736" lon="-1.37547">
        <ele>9.7</ele>
        <time>2020-06-02T07:07:33Z</time>
      </trkpt>
      <trkpt lat="46.19742" lon="-1.37547">
        <ele>9.8</ele>
        <time>2020-06-02T07:07:34Z</time>
      </trkpt>
      <trkpt lat="46.19748" lon="-1.37547">
        <ele>9.8</ele>
        <time>2020-06-02T07:07:35Z</time>
      </trkpt>
      <trkpt lat="46.19753" lon="-1.37546">
        <ele>9.8</ele>
        <time>2020-06-02T07:07:36Z</time>
      </trkpt>
      <trkpt lat="46.19758" lon="-1.37546">
        <ele>9.9</ele>
        <time>2020-06-02T07:07:37Z</time>
      </trkpt>
      <trkpt lat="46.19763" lon="-1.37546">
        <ele>9.9</ele>
        <time>2020-06-02T07:07:38Z</time>
      </trkpt>
      <trkpt lat="46.19768" lon="-1.37546">
        <ele>9.9</ele>
        <time>2020-06-02T07:07:39Z</time>
      </trkpt>
      <trkpt lat="46.19773" lon="-1.37546">
        <ele>9.9</ele>
        <time>2020-06-02T07:07:40Z</time>
      </trkpt>
      <trkpt lat="46.19778" lon="-1.37546">
        <ele>10</ele>
        <time>2020-06-02T07:07:41Z</time>
      </trkpt>
      <trkpt lat="46.19783" lon="-1.37546">
        <ele>10</ele>
        <time>2020-06-02T07:07:42Z</time>
      </trkpt>
      <trkpt lat="46.19788" lon="-1.37546">
        <ele>10</ele>
        <time>2020-06-02T07:07:43Z</time>
      </trkpt>
      <trkpt lat="46.19793" lon="-1.37546">
        <ele>10</ele>
        <time>2020-06-02T07:07:44Z</time>
      </trkpt>
      <trkpt lat="46.19798" lon="-1.37546">
        <ele>10.1</ele>
        <time>2020-06-02T07:07:45Z</time>
      </trkpt>
      <trkpt lat="46.19803" lon="-1.37546">
        <ele>10.1</ele>
        <time>2020-06-02T07:07:46Z</time>
      </trkpt>
      <trkpt lat="46.19807" lon="-1.37546">
        <ele>10.1</ele>
        <time>2020-06-02T07:07:47Z</time>
      </trkpt>
      <trkpt lat="46.19811" lon="-1.37546">
        <ele>10.1</ele>
        <time>2020-06-02T07:07:48Z</time>
      </trkpt>
      <trkpt lat="46.19816" lon="-1.37545">
        <ele>10.2</ele>
        <time>2020-06-02T07:07:49Z</time>
      </trkpt>
      <trkpt lat="46.19821" lon="-1.37545">
        <ele>10.2</ele>
        <time>2020-06-02T07:07:50Z</time>
      </trkpt>
      <trkpt lat="46.19827" lon="-1.37545">
        <ele>10.3</ele>
        <time>2020-06-02T07:07:51Z</time>
      </trkpt>
      <trkpt lat="46.19833" lon="-1.37545">
        <ele>10.3</ele>
        <time>2020-06-02T07:07:52Z</time>
      </trkpt>
      <trkpt lat="46.19839" lon="-1.37545">
        <ele>10.3</ele>
        <time>2020-06-02T07:07:53Z</time>
      </trkpt>
      <trkpt lat="46.19843" lon="-1.37545">
        <ele>10.2</ele>
        <time>2020-06-02T07:07:54Z</time>
      </trkpt>
      <trkpt lat="46.19849" lon="-1.37546">
        <ele>10.2</ele>
        <time>2020-06-02T07:07:55Z</time>
      </trkpt>
      <trkpt lat="46.19854" lon="-1.37546">
        <ele>10.2</ele>
        <time>2020-06-02T07:07:56Z</time>
      </trkpt>
      <trkpt lat="46.19858" lon="-1.37546">
        <ele>10.2</ele>
        <time>2020-06-02T07:07:57Z</time>
      </trkpt>
      <trkpt lat="46.19863" lon="-1.37545">
        <ele>10.2</ele>
        <time>2020-06-02T07:07:58Z</time>
      </trkpt>
      <trkpt lat="46.19868" lon="-1.37546">
        <ele>10.2</ele>
        <time>2020-06-02T07:07:59Z</time>
      </trkpt>
      <trkpt lat="46.19873" lon="-1.37546">
        <ele>10.2</ele>
        <time>2020-06-02T07:08:00Z</time>
      </trkpt>
      <trkpt lat="46.19878" lon="-1.37545">
        <ele>10.2</ele>
        <time>2020-06-02T07:08:01Z</time>
      </trkpt>
      <trkpt lat="46.19883" lon="-1.37545">
        <ele>10.3</ele>
        <time>2020-06-02T07:08:02Z</time>
      </trkpt>
      <trkpt lat="46.19888" lon="-1.37545">
        <ele>10.3</ele>
        <time>2020-06-02T07:08:03Z</time>
      </trkpt>
      <trkpt lat="46.19894" lon="-1.37546">
        <ele>10.4</ele>
        <time>2020-06-02T07:08:04Z</time>
      </trkpt>
      <trkpt lat="46.19899" lon="-1.37546">
        <ele>10.5</ele>
        <time>2020-06-02T07:08:05Z</time>
      </trkpt>
      <trkpt lat="46.19903" lon="-1.37546">
        <ele>10.6</ele>
        <time>2020-06-02T07:08:06Z</time>
      </trkpt>
      <trkpt lat="46.19908" lon="-1.37546">
        <ele>10.6</ele>
        <time>2020-06-02T07:08:07Z</time>
      </trkpt>
      <trkpt lat="46.19913" lon="-1.37546">
        <ele>10.7</ele>
        <time>2020-06-02T07:08:08Z</time>
      </trkpt>
      <trkpt lat="46.19918" lon="-1.37546">
        <ele>10.8</ele>
        <time>2020-06-02T07:08:09Z</time>
      </trkpt>
      <trkpt lat="46.19922" lon="-1.37546">
        <ele>10.8</ele>
        <time>2020-06-02T07:08:10Z</time>
      </trkpt>
      <trkpt lat="46.19927" lon="-1.37545">
        <ele>10.8</ele>
        <time>2020-06-02T07:08:11Z</time>
      </trkpt>
      <trkpt lat="46.19933" lon="-1.37545">
        <ele>10.9</ele>
        <time>2020-06-02T07:08:12Z</time>
      </trkpt>
      <trkpt lat="46.19938" lon="-1.37545">
        <ele>10.9</ele>
        <time>2020-06-02T07:08:13Z</time>
      </trkpt>
      <trkpt lat="46.19943" lon="-1.37545">
        <ele>11</ele>
        <time>2020-06-02T07:08:14Z</time>
      </trkpt>
      <trkpt lat="46.19947" lon="-1.37544">
        <ele>11</ele>
        <time>2020-06-02T07:08:15Z</time>
      </trkpt>
      <trkpt lat="46.19953" lon="-1.37544">
        <ele>11</ele>
        <time>2020-06-02T07:08:16Z</time>
      </trkpt>
      <trkpt lat="46.19958" lon="-1.37543">
        <ele>11</ele>
        <time>2020-06-02T07:08:17Z</time>
      </trkpt>
      <trkpt lat="46.19962" lon="-1.37543">
        <ele>11</ele>
        <time>2020-06-02T07:08:18Z</time>
      </trkpt>
      <trkpt lat="46.19966" lon="-1.37543">
        <ele>11</ele>
        <time>2020-06-02T07:08:19Z</time>
      </trkpt>
      <trkpt lat="46.19971" lon="-1.37543">
        <ele>11</ele>
        <time>2020-06-02T07:08:20Z</time>
      </trkpt>
      <trkpt lat="46.19976" lon="-1.37543">
        <ele>11</ele>
        <time>2020-06-02T07:08:21Z</time>
      </trkpt>
      <trkpt lat="46.1998" lon="-1.37543">
        <ele>11</ele>
        <time>2020-06-02T07:08:22Z</time>
      </trkpt>
      <trkpt lat="46.19985" lon="-1.37542">
        <ele>11</ele>
        <time>2020-06-02T07:08:23Z</time>
      </trkpt>
      <trkpt lat="46.19989" lon="-1.37542">
        <ele>11</ele>
        <time>2020-06-02T07:08:24Z</time>
      </trkpt>
      <trkpt lat="46.19992" lon="-1.37542">
        <ele>11</ele>
        <time>2020-06-02T07:08:25Z</time>
      </trkpt>
      <trkpt lat="46.19996" lon="-1.37542">
        <ele>11</ele>
        <time>2020-06-02T07:08:26Z</time>
      </trkpt>
      <trkpt lat="46.2" lon="-1.37543">
        <ele>11.1</ele>
        <time>2020-06-02T07:08:27Z</time>
      </trkpt>
      <trkpt lat="46.20005" lon="-1.37543">
        <ele>11.1</ele>
        <time>2020-06-02T07:08:28Z</time>
      </trkpt>
      <trkpt lat="46.20008" lon="-1.37543">
        <ele>11.1</ele>
        <time>2020-06-02T07:08:29Z</time>
      </trkpt>
      <trkpt lat="46.20013" lon="-1.37544">
        <ele>11.1</ele>
        <time>2020-06-02T07:08:30Z</time>
      </trkpt>
      <trkpt lat="46.20018" lon="-1.37544">
        <ele>11.1</ele>
        <time>2020-06-02T07:08:31Z</time>
      </trkpt>
      <trkpt lat="46.20022" lon="-1.37544">
        <ele>11.1</ele>
        <time>2020-06-02T07:08:32Z</time>
      </trkpt>
      <trkpt lat="46.20026" lon="-1.37544">
        <ele>11.1</ele>
        <time>2020-06-02T07:08:33Z</time>
      </trkpt>
      <trkpt lat="46.2003" lon="-1.37542">
        <ele>11.1</ele>
        <time>2020-06-02T07:08:34Z</time>
      </trkpt>
      <trkpt lat="46.20034" lon="-1.37539">
        <ele>11.1</ele>
        <time>2020-06-02T07:08:35Z</time>
      </trkpt>
      <trkpt lat="46.20039" lon="-1.37536">
        <ele>11.2</ele>
        <time>2020-06-02T07:08:36Z</time>
      </trkpt>
      <trkpt lat="46.20043" lon="-1.37533">
        <ele>11.2</ele>
        <time>2020-06-02T07:08:37Z</time>
      </trkpt>
      <trkpt lat="46.20047" lon="-1.37531">
        <ele>11.2</ele>
        <time>2020-06-02T07:08:38Z</time>
      </trkpt>
      <trkpt lat="46.2005" lon="-1.37529">
        <ele>11.2</ele>
        <time>2020-06-02T07:08:39Z</time>
      </trkpt>
      <trkpt lat="46.20053" lon="-1.37527">
        <ele>11.2</ele>
        <time>2020-06-02T07:08:40Z</time>
      </trkpt>
      <trkpt lat="46.20056" lon="-1.37525">
        <ele>11.3</ele>
        <time>2020-06-02T07:08:41Z</time>
      </trkpt>
      <trkpt lat="46.20059" lon="-1.37524">
        <ele>11.3</ele>
        <time>2020-06-02T07:08:42Z</time>
      </trkpt>
      <trkpt lat="46.20063" lon="-1.37524">
        <ele>11.3</ele>
        <time>2020-06-02T07:08:43Z</time>
      </trkpt>
      <trkpt lat="46.20067" lon="-1.37525">
        <ele>11.3</ele>
        <time>2020-06-02T07:08:44Z</time>
      </trkpt>
      <trkpt lat="46.20071" lon="-1.37525">
        <ele>11.4</ele>
        <time>2020-06-02T07:08:45Z</time>
      </trkpt>
      <trkpt lat="46.20074" lon="-1.37524">
        <ele>11.4</ele>
        <time>2020-06-02T07:08:46Z</time>
      </trkpt>
      <trkpt lat="46.20078" lon="-1.37522">
        <ele>11.4</ele>
        <time>2020-06-02T07:08:47Z</time>
      </trkpt>
      <trkpt lat="46.20082" lon="-1.37519">
        <ele>11.5</ele>
        <time>2020-06-02T07:08:48Z</time>
      </trkpt>
      <trkpt lat="46.20083" lon="-1.37518">
        <ele>11.5</ele>
        <time>2020-06-02T07:08:49Z</time>
      </trkpt>
      <trkpt lat="46.20086" lon="-1.37519">
        <ele>11.5</ele>
        <time>2020-06-02T07:08:50Z</time>
      </trkpt>
      <trkpt lat="46.2009" lon="-1.37518">
        <ele>11.5</ele>
        <time>2020-06-02T07:08:51Z</time>
      </trkpt>
      <trkpt lat="46.20093" lon="-1.37515">
        <ele>11.6</ele>
        <time>2020-06-02T07:08:52Z</time>
      </trkpt>
      <trkpt lat="46.20095" lon="-1.37511">
        <ele>11.6</ele>
        <time>2020-06-02T07:08:53Z</time>
      </trkpt>
      <trkpt lat="46.20097" lon="-1.37505">
        <ele>11.5</ele>
        <time>2020-06-02T07:08:54Z</time>
      </trkpt>
      <trkpt lat="46.20099" lon="-1.37501">
        <ele>11.5</ele>
        <time>2020-06-02T07:08:55Z</time>
      </trkpt>
      <trkpt lat="46.20102" lon="-1.375">
        <ele>11.5</ele>
        <time>2020-06-02T07:08:56Z</time>
      </trkpt>
      <trkpt lat="46.20105" lon="-1.37499">
        <ele>11.5</ele>
        <time>2020-06-02T07:08:57Z</time>
      </trkpt>
      <trkpt lat="46.20108" lon="-1.37499">
        <ele>11.5</ele>
        <time>2020-06-02T07:08:58Z</time>
      </trkpt>
      <trkpt lat="46.20111" lon="-1.375">
        <ele>11.5</ele>
        <time>2020-06-02T07:08:59Z</time>
      </trkpt>
      <trkpt lat="46.20114" lon="-1.375">
        <ele>11.4</ele>
        <time>2020-06-02T07:09:00Z</time>
      </trkpt>
      <trkpt lat="46.20118" lon="-1.37499">
        <ele>11.3</ele>
        <time>2020-06-02T07:09:01Z</time>
      </trkpt>
      <trkpt lat="46.20121" lon="-1.37499">
        <ele>11.3</ele>
        <time>2020-06-02T07:09:02Z</time>
      </trkpt>
      <trkpt lat="46.20125" lon="-1.37497">
        <ele>11.3</ele>
        <time>2020-06-02T07:09:03Z</time>
      </trkpt>
      <trkpt lat="46.20129" lon="-1.37492">
        <ele>11.3</ele>
        <time>2020-06-02T07:09:04Z</time>
      </trkpt>
      <trkpt lat="46.2013" lon="-1.37483">
        <ele>11.3</ele>
        <time>2020-06-02T07:09:05Z</time>
      </trkpt>
      <trkpt lat="46.20132" lon="-1.37475">
        <ele>11.3</ele>
        <time>2020-06-02T07:09:06Z</time>
      </trkpt>
      <trkpt lat="46.20134" lon="-1.37468">
        <ele>11.3</ele>
        <time>2020-06-02T07:09:07Z</time>
      </trkpt>
      <trkpt lat="46.20136" lon="-1.37461">
        <ele>11.3</ele>
        <time>2020-06-02T07:09:08Z</time>
      </trkpt>
      <trkpt lat="46.20137" lon="-1.37454">
        <ele>11.3</ele>
        <time>2020-06-02T07:09:09Z</time>
      </trkpt>
      <trkpt lat="46.20139" lon="-1.37448">
        <ele>11.3</ele>
        <time>2020-06-02T07:09:10Z</time>
      </trkpt>
      <trkpt lat="46.20141" lon="-1.37441">
        <ele>11.3</ele>
        <time>2020-06-02T07:09:11Z</time>
      </trkpt>
      <trkpt lat="46.20143" lon="-1.37435">
        <ele>11.3</ele>
        <time>2020-06-02T07:09:12Z</time>
      </trkpt>
      <trkpt lat="46.20144" lon="-1.37429">
        <ele>11.3</ele>
        <time>2020-06-02T07:09:13Z</time>
      </trkpt>
      <trkpt lat="46.20146" lon="-1.37425">
        <ele>11.2</ele>
        <time>2020-06-02T07:09:14Z</time>
      </trkpt>
      <trkpt lat="46.20148" lon="-1.37419">
        <ele>11.2</ele>
        <time>2020-06-02T07:09:15Z</time>
      </trkpt>
      <trkpt lat="46.2015" lon="-1.37414">
        <ele>11.1</ele>
        <time>2020-06-02T07:09:16Z</time>
      </trkpt>
      <trkpt lat="46.20154" lon="-1.37409">
        <ele>11.1</ele>
        <time>2020-06-02T07:09:17Z</time>
      </trkpt>
      <trkpt lat="46.20157" lon="-1.37405">
        <ele>11.1</ele>
        <time>2020-06-02T07:09:18Z</time>
      </trkpt>
      <trkpt lat="46.2016" lon="-1.374">
        <ele>11</ele>
        <time>2020-06-02T07:09:19Z</time>
      </trkpt>
      <trkpt lat="46.20163" lon="-1.37395">
        <ele>11</ele>
        <time>2020-06-02T07:09:20Z</time>
      </trkpt>
      <trkpt lat="46.20167" lon="-1.37391">
        <ele>11</ele>
        <time>2020-06-02T07:09:21Z</time>
      </trkpt>
      <trkpt lat="46.20171" lon="-1.37386">
        <ele>10.9</ele>
        <time>2020-06-02T07:09:22Z</time>
      </trkpt>
      <trkpt lat="46.20175" lon="-1.37381">
        <ele>10.9</ele>
        <time>2020-06-02T07:09:23Z</time>
      </trkpt>
      <trkpt lat="46.20179" lon="-1.37376">
        <ele>10.9</ele>
        <time>2020-06-02T07:09:24Z</time>
      </trkpt>
      <trkpt lat="46.20183" lon="-1.37371">
        <ele>10.8</ele>
        <time>2020-06-02T07:09:25Z</time>
      </trkpt>
      <trkpt lat="46.20187" lon="-1.37366">
        <ele>10.8</ele>
        <time>2020-06-02T07:09:26Z</time>
      </trkpt>
      <trkpt lat="46.20191" lon="-1.37362">
        <ele>10.8</ele>
        <time>2020-06-02T07:09:27Z</time>
      </trkpt>
      <trkpt lat="46.20196" lon="-1.37357">
        <ele>10.7</ele>
        <time>2020-06-02T07:09:28Z</time>
      </trkpt>
      <trkpt lat="46.202" lon="-1.37352">
        <ele>10.7</ele>
        <time>2020-06-02T07:09:29Z</time>
      </trkpt>
      <trkpt lat="46.20203" lon="-1.37349">
        <ele>10.7</ele>
        <time>2020-06-02T07:09:30Z</time>
      </trkpt>
      <trkpt lat="46.20205" lon="-1.37344">
        <ele>10.6</ele>
        <time>2020-06-02T07:09:31Z</time>
      </trkpt>
      <trkpt lat="46.20208" lon="-1.37341">
        <ele>10.6</ele>
        <time>2020-06-02T07:09:32Z</time>
      </trkpt>
      <trkpt lat="46.20211" lon="-1.37337">
        <ele>11.3</ele>
        <time>2020-06-02T07:09:33Z</time>
      </trkpt>
      <trkpt lat="46.20214" lon="-1.37334">
        <ele>11.4</ele>
        <time>2020-06-02T07:09:34Z</time>
      </trkpt>
      <trkpt lat="46.20217" lon="-1.37331">
        <ele>11.4</ele>
        <time>2020-06-02T07:09:35Z</time>
      </trkpt>
      <trkpt lat="46.20221" lon="-1.37329">
        <ele>11.5</ele>
        <time>2020-06-02T07:09:36Z</time>
      </trkpt>
      <trkpt lat="46.20224" lon="-1.37327">
        <ele>11.5</ele>
        <time>2020-06-02T07:09:37Z</time>
      </trkpt>
      <trkpt lat="46.20227" lon="-1.37324">
        <ele>11.6</ele>
        <time>2020-06-02T07:09:38Z</time>
      </trkpt>
      <trkpt lat="46.20229" lon="-1.3732">
        <ele>11.6</ele>
        <time>2020-06-02T07:09:39Z</time>
      </trkpt>
      <trkpt lat="46.2023" lon="-1.37318">
        <ele>11.6</ele>
        <time>2020-06-02T07:09:40Z</time>
      </trkpt>
      <trkpt lat="46.2023" lon="-1.37314">
        <ele>11.6</ele>
        <time>2020-06-02T07:09:41Z</time>
      </trkpt>
      <trkpt lat="46.2023" lon="-1.37309">
        <ele>11.6</ele>
        <time>2020-06-02T07:09:42Z</time>
      </trkpt>
      <trkpt lat="46.20229" lon="-1.37307">
        <ele>11.7</ele>
        <time>2020-06-02T07:09:43Z</time>
      </trkpt>
      <trkpt lat="46.20229" lon="-1.37302">
        <ele>11.7</ele>
        <time>2020-06-02T07:09:44Z</time>
      </trkpt>
      <trkpt lat="46.20228" lon="-1.37297">
        <ele>11.7</ele>
        <time>2020-06-02T07:09:45Z</time>
      </trkpt>
      <trkpt lat="46.20227" lon="-1.37291">
        <ele>11.7</ele>
        <time>2020-06-02T07:09:46Z</time>
      </trkpt>
      <trkpt lat="46.20226" lon="-1.37284">
        <ele>11.7</ele>
        <time>2020-06-02T07:09:47Z</time>
      </trkpt>
      <trkpt lat="46.20224" lon="-1.37279">
        <ele>11.8</ele>
        <time>2020-06-02T07:09:48Z</time>
      </trkpt>
      <trkpt lat="46.20221" lon="-1.37272">
        <ele>11.8</ele>
        <time>2020-06-02T07:09:49Z</time>
      </trkpt>
      <trkpt lat="46.20218" lon="-1.37265">
        <ele>11.8</ele>
        <time>2020-06-02T07:09:50Z</time>
      </trkpt>
      <trkpt lat="46.20215" lon="-1.37259">
        <ele>11.9</ele>
        <time>2020-06-02T07:09:51Z</time>
      </trkpt>
      <trkpt lat="46.20211" lon="-1.37255">
        <ele>11.9</ele>
        <time>2020-06-02T07:09:52Z</time>
      </trkpt>
      <trkpt lat="46.20208" lon="-1.3725">
        <ele>11.9</ele>
        <time>2020-06-02T07:09:53Z</time>
      </trkpt>
      <trkpt lat="46.20203" lon="-1.37245">
        <ele>12</ele>
        <time>2020-06-02T07:09:54Z</time>
      </trkpt>
      <trkpt lat="46.20199" lon="-1.3724">
        <ele>12</ele>
        <time>2020-06-02T07:09:55Z</time>
      </trkpt>
      <trkpt lat="46.20196" lon="-1.37238">
        <ele>12</ele>
        <time>2020-06-02T07:09:56Z</time>
      </trkpt>
      <trkpt lat="46.20193" lon="-1.37235">
        <ele>12</ele>
        <time>2020-06-02T07:09:57Z</time>
      </trkpt>
      <trkpt lat="46.2019" lon="-1.37233">
        <ele>12</ele>
        <time>2020-06-02T07:09:58Z</time>
      </trkpt>
      <trkpt lat="46.20187" lon="-1.3723">
        <ele>12</ele>
        <time>2020-06-02T07:09:59Z</time>
      </trkpt>
      <trkpt lat="46.20185" lon="-1.37229">
        <ele>12</ele>
        <time>2020-06-02T07:10:00Z</time>
      </trkpt>
      <trkpt lat="46.20184" lon="-1.37228">
        <ele>12</ele>
        <time>2020-06-02T07:10:01Z</time>
      </trkpt>
      <trkpt lat="46.20182" lon="-1.37225">
        <ele>12</ele>
        <time>2020-06-02T07:10:02Z</time>
      </trkpt>
      <trkpt lat="46.20181" lon="-1.37224">
        <ele>12</ele>
        <time>2020-06-02T07:10:03Z</time>
      </trkpt>
      <trkpt lat="46.20179" lon="-1.3722">
        <ele>12</ele>
        <time>2020-06-02T07:10:04Z</time>
      </trkpt>
      <trkpt lat="46.20179" lon="-1.37219">
        <ele>12</ele>
        <time>2020-06-02T07:10:05Z</time>
      </trkpt>
      <trkpt lat="46.20178" lon="-1.37218">
        <ele>12</ele>
        <time>2020-06-02T07:10:06Z</time>
      </trkpt>
      <trkpt lat="46.20178" lon="-1.37217">
        <ele>12</ele>
        <time>2020-06-02T07:10:07Z</time>
      </trkpt>
      <trkpt lat="46.2018" lon="-1.37215">
        <ele>12.1</ele>
        <time>2020-06-02T07:10:08Z</time>
      </trkpt>
      <trkpt lat="46.20181" lon="-1.37212">
        <ele>12.1</ele>
        <time>2020-06-02T07:10:09Z</time>
      </trkpt>
      <trkpt lat="46.20183" lon="-1.37208">
        <ele>12.1</ele>
        <time>2020-06-02T07:10:10Z</time>
      </trkpt>
      <trkpt lat="46.20186" lon="-1.37205">
        <ele>12.1</ele>
        <time>2020-06-02T07:10:11Z</time>
      </trkpt>
      <trkpt lat="46.20187" lon="-1.372">
        <ele>12.1</ele>
        <time>2020-06-02T07:10:12Z</time>
      </trkpt>
      <trkpt lat="46.20189" lon="-1.37194">
        <ele>12.1</ele>
        <time>2020-06-02T07:10:13Z</time>
      </trkpt>
      <trkpt lat="46.2019" lon="-1.37187">
        <ele>12.1</ele>
        <time>2020-06-02T07:10:14Z</time>
      </trkpt>
      <trkpt lat="46.20192" lon="-1.37181">
        <ele>12.1</ele>
        <time>2020-06-02T07:10:15Z</time>
      </trkpt>
      <trkpt lat="46.20194" lon="-1.37175">
        <ele>12.1</ele>
        <time>2020-06-02T07:10:16Z</time>
      </trkpt>
      <trkpt lat="46.20195" lon="-1.37168">
        <ele>12.2</ele>
        <time>2020-06-02T07:10:17Z</time>
      </trkpt>
      <trkpt lat="46.20196" lon="-1.37162">
        <ele>12.2</ele>
        <time>2020-06-02T07:10:18Z</time>
      </trkpt>
      <trkpt lat="46.20198" lon="-1.37157">
        <ele>12.2</ele>
        <time>2020-06-02T07:10:19Z</time>
      </trkpt>
      <trkpt lat="46.20201" lon="-1.3715">
        <ele>12.2</ele>
        <time>2020-06-02T07:10:20Z</time>
      </trkpt>
      <trkpt lat="46.20203" lon="-1.37144">
        <ele>12.2</ele>
        <time>2020-06-02T07:10:21Z</time>
      </trkpt>
      <trkpt lat="46.20206" lon="-1.37139">
        <ele>12.2</ele>
        <time>2020-06-02T07:10:22Z</time>
      </trkpt>
      <trkpt lat="46.20207" lon="-1.37132">
        <ele>12.2</ele>
        <time>2020-06-02T07:10:23Z</time>
      </trkpt>
      <trkpt lat="46.20208" lon="-1.37127">
        <ele>12.3</ele>
        <time>2020-06-02T07:10:24Z</time>
      </trkpt>
      <trkpt lat="46.2021" lon="-1.37121">
        <ele>12.3</ele>
        <time>2020-06-02T07:10:25Z</time>
      </trkpt>
      <trkpt lat="46.20212" lon="-1.37115">
        <ele>12.3</ele>
        <time>2020-06-02T07:10:26Z</time>
      </trkpt>
      <trkpt lat="46.20214" lon="-1.37108">
        <ele>12.3</ele>
        <time>2020-06-02T07:10:27Z</time>
      </trkpt>
      <trkpt lat="46.20216" lon="-1.37101">
        <ele>12.3</ele>
        <time>2020-06-02T07:10:28Z</time>
      </trkpt>
      <trkpt lat="46.20217" lon="-1.37093">
        <ele>12.4</ele>
        <time>2020-06-02T07:10:29Z</time>
      </trkpt>
      <trkpt lat="46.20218" lon="-1.37086">
        <ele>12.4</ele>
        <time>2020-06-02T07:10:30Z</time>
      </trkpt>
      <trkpt lat="46.20219" lon="-1.37079">
        <ele>12.4</ele>
        <time>2020-06-02T07:10:31Z</time>
      </trkpt>
      <trkpt lat="46.2022" lon="-1.37073">
        <ele>12.4</ele>
        <time>2020-06-02T07:10:32Z</time>
      </trkpt>
      <trkpt lat="46.20222" lon="-1.37067">
        <ele>12.4</ele>
        <time>2020-06-02T07:10:33Z</time>
      </trkpt>
      <trkpt lat="46.20223" lon="-1.3706">
        <ele>12.4</ele>
        <time>2020-06-02T07:10:34Z</time>
      </trkpt>
      <trkpt lat="46.20224" lon="-1.37054">
        <ele>12.4</ele>
        <time>2020-06-02T07:10:35Z</time>
      </trkpt>
      <trkpt lat="46.20223" lon="-1.37049">
        <ele>12.4</ele>
        <time>2020-06-02T07:10:36Z</time>
      </trkpt>
      <trkpt lat="46.20222" lon="-1.37043">
        <ele>12.5</ele>
        <time>2020-06-02T07:10:37Z</time>
      </trkpt>
      <trkpt lat="46.20218" lon="-1.3704">
        <ele>12.5</ele>
        <time>2020-06-02T07:10:38Z</time>
      </trkpt>
      <trkpt lat="46.20216" lon="-1.37035">
        <ele>12.6</ele>
        <time>2020-06-02T07:10:39Z</time>
      </trkpt>
      <trkpt lat="46.20216" lon="-1.3703">
        <ele>12.6</ele>
        <time>2020-06-02T07:10:40Z</time>
      </trkpt>
      <trkpt lat="46.20216" lon="-1.37023">
        <ele>12.6</ele>
        <time>2020-06-02T07:10:41Z</time>
      </trkpt>
      <trkpt lat="46.20216" lon="-1.37017">
        <ele>12.7</ele>
        <time>2020-06-02T07:10:42Z</time>
      </trkpt>
      <trkpt lat="46.20216" lon="-1.3701">
        <ele>12.7</ele>
        <time>2020-06-02T07:10:43Z</time>
      </trkpt>
      <trkpt lat="46.20216" lon="-1.37003">
        <ele>12.7</ele>
        <time>2020-06-02T07:10:44Z</time>
      </trkpt>
      <trkpt lat="46.20217" lon="-1.36997">
        <ele>12.7</ele>
        <time>2020-06-02T07:10:45Z</time>
      </trkpt>
      <trkpt lat="46.20217" lon="-1.3699">
        <ele>12.8</ele>
        <time>2020-06-02T07:10:46Z</time>
      </trkpt>
      <trkpt lat="46.20218" lon="-1.36984">
        <ele>12.8</ele>
        <time>2020-06-02T07:10:47Z</time>
      </trkpt>
      <trkpt lat="46.20218" lon="-1.36977">
        <ele>12.8</ele>
        <time>2020-06-02T07:10:48Z</time>
      </trkpt>
      <trkpt lat="46.20218" lon="-1.36971">
        <ele>12.8</ele>
        <time>2020-06-02T07:10:49Z</time>
      </trkpt>
      <trkpt lat="46.20217" lon="-1.36965">
        <ele>12.9</ele>
        <time>2020-06-02T07:10:50Z</time>
      </trkpt>
      <trkpt lat="46.20217" lon="-1.36959">
        <ele>12.9</ele>
        <time>2020-06-02T07:10:51Z</time>
      </trkpt>
      <trkpt lat="46.20218" lon="-1.36953">
        <ele>12.9</ele>
        <time>2020-06-02T07:10:52Z</time>
      </trkpt>
      <trkpt lat="46.20218" lon="-1.36947">
        <ele>13</ele>
        <time>2020-06-02T07:10:53Z</time>
      </trkpt>
      <trkpt lat="46.20218" lon="-1.36941">
        <ele>13</ele>
        <time>2020-06-02T07:10:54Z</time>
      </trkpt>
      <trkpt lat="46.20217" lon="-1.36936">
        <ele>13</ele>
        <time>2020-06-02T07:10:55Z</time>
      </trkpt>
      <trkpt lat="46.20216" lon="-1.36931">
        <ele>13</ele>
        <time>2020-06-02T07:10:56Z</time>
      </trkpt>
      <trkpt lat="46.20215" lon="-1.36926">
        <ele>13.1</ele>
        <time>2020-06-02T07:10:57Z</time>
      </trkpt>
      <trkpt lat="46.20214" lon="-1.36921">
        <ele>13.1</ele>
        <time>2020-06-02T07:10:58Z</time>
      </trkpt>
      <trkpt lat="46.20213" lon="-1.36916">
        <ele>13.1</ele>
        <time>2020-06-02T07:10:59Z</time>
      </trkpt>
      <trkpt lat="46.20212" lon="-1.3691">
        <ele>13.1</ele>
        <time>2020-06-02T07:11:00Z</time>
      </trkpt>
      <trkpt lat="46.20212" lon="-1.36905">
        <ele>13.1</ele>
        <time>2020-06-02T07:11:01Z</time>
      </trkpt>
      <trkpt lat="46.2021" lon="-1.369">
        <ele>13.2</ele>
        <time>2020-06-02T07:11:02Z</time>
      </trkpt>
      <trkpt lat="46.2021" lon="-1.36895">
        <ele>13.2</ele>
        <time>2020-06-02T07:11:03Z</time>
      </trkpt>
      <trkpt lat="46.20209" lon="-1.3689">
        <ele>13.2</ele>
        <time>2020-06-02T07:11:04Z</time>
      </trkpt>
      <trkpt lat="46.20209" lon="-1.36889">
        <ele>13.2</ele>
        <time>2020-06-02T07:11:05Z</time>
      </trkpt>
      <trkpt lat="46.2021" lon="-1.36885">
        <ele>13.2</ele>
        <time>2020-06-02T07:11:06Z</time>
      </trkpt>
      <trkpt lat="46.20209" lon="-1.36883">
        <ele>13.2</ele>
        <time>2020-06-02T07:11:07Z</time>
      </trkpt>
      <trkpt lat="46.20209" lon="-1.36881">
        <ele>13.2</ele>
        <time>2020-06-02T07:11:08Z</time>
      </trkpt>
      <trkpt lat="46.20208" lon="-1.36882">
        <ele>13.4</ele>
        <time>2020-06-02T07:11:09Z</time>
      </trkpt>
      <trkpt lat="46.20208" lon="-1.36882">
        <ele>13.4</ele>
        <time>2020-06-02T07:11:10Z</time>
      </trkpt>
      <trkpt lat="46.20207" lon="-1.36881">
        <ele>13.4</ele>
        <time>2020-06-02T07:11:11Z</time>
      </trkpt>
      <trkpt lat="46.20206" lon="-1.36879">
        <ele>13.4</ele>
        <time>2020-06-02T07:11:12Z</time>
      </trkpt>
      <trkpt lat="46.20205" lon="-1.36879">
        <ele>13.4</ele>
        <time>2020-06-02T07:11:13Z</time>
      </trkpt>
      <trkpt lat="46.20204" lon="-1.36879">
        <ele>13.4</ele>
        <time>2020-06-02T07:11:14Z</time>
      </trkpt>
      <trkpt lat="46.20202" lon="-1.36878">
        <ele>13.4</ele>
        <time>2020-06-02T07:11:15Z</time>
      </trkpt>
      <trkpt lat="46.20199" lon="-1.3688">
        <ele>13.5</ele>
        <time>2020-06-02T07:11:16Z</time>
      </trkpt>
      <trkpt lat="46.20198" lon="-1.36879">
        <ele>13.5</ele>
        <time>2020-06-02T07:11:17Z</time>
      </trkpt>
      <trkpt lat="46.20194" lon="-1.36879">
        <ele>13.5</ele>
        <time>2020-06-02T07:11:18Z</time>
      </trkpt>
      <trkpt lat="46.20193" lon="-1.36878">
        <ele>13.6</ele>
        <time>2020-06-02T07:11:19Z</time>
      </trkpt>
      <trkpt lat="46.2019" lon="-1.36877">
        <ele>13.6</ele>
        <time>2020-06-02T07:11:20Z</time>
      </trkpt>
      <trkpt lat="46.20189" lon="-1.36877">
        <ele>13.6</ele>
        <time>2020-06-02T07:11:21Z</time>
      </trkpt>
      <trkpt lat="46.20186" lon="-1.36876">
        <ele>13.7</ele>
        <time>2020-06-02T07:11:22Z</time>
      </trkpt>
      <trkpt lat="46.20185" lon="-1.36876">
        <ele>13.7</ele>
        <time>2020-06-02T07:11:23Z</time>
      </trkpt>
      <trkpt lat="46.20182" lon="-1.36876">
        <ele>13.7</ele>
        <time>2020-06-02T07:11:24Z</time>
      </trkpt>
      <trkpt lat="46.20181" lon="-1.36875">
        <ele>13.7</ele>
        <time>2020-06-02T07:11:25Z</time>
      </trkpt>
      <trkpt lat="46.2018" lon="-1.36876">
        <ele>13.8</ele>
        <time>2020-06-02T07:11:26Z</time>
      </trkpt>
      <trkpt lat="46.20179" lon="-1.36875">
        <ele>13.8</ele>
        <time>2020-06-02T07:11:27Z</time>
      </trkpt>
      <trkpt lat="46.20178" lon="-1.36876">
        <ele>13.9</ele>
        <time>2020-06-02T07:11:28Z</time>
      </trkpt>
      <trkpt lat="46.20178" lon="-1.36879">
        <ele>13.9</ele>
        <time>2020-06-02T07:11:29Z</time>
      </trkpt>
      <trkpt lat="46.20177" lon="-1.36877">
        <ele>14</ele>
        <time>2020-06-02T07:11:30Z</time>
      </trkpt>
      <trkpt lat="46.20177" lon="-1.36877">
        <ele>14</ele>
        <time>2020-06-02T07:11:31Z</time>
      </trkpt>
      <trkpt lat="46.20178" lon="-1.36877">
        <ele>14</ele>
        <time>2020-06-02T07:11:32Z</time>
      </trkpt>
      <trkpt lat="46.20179" lon="-1.36876">
        <ele>14</ele>
        <time>2020-06-02T07:11:33Z</time>
      </trkpt>
      <trkpt lat="46.20179" lon="-1.36876">
        <ele>14</ele>
        <time>2020-06-02T07:11:34Z</time>
      </trkpt>
      <trkpt lat="46.20179" lon="-1.36876">
        <ele>14</ele>
        <time>2020-06-02T07:11:35Z</time>
      </trkpt>
      <trkpt lat="46.20179" lon="-1.36876">
        <ele>14</ele>
        <time>2020-06-02T07:11:36Z</time>
      </trkpt>
      <trkpt lat="46.20179" lon="-1.36876">
        <ele>14</ele>
        <time>2020-06-02T07:11:37Z</time>
      </trkpt>
      <trkpt lat="46.20179" lon="-1.36875">
        <ele>14</ele>
        <time>2020-06-02T07:11:38Z</time>
      </trkpt>
      <trkpt lat="46.20178" lon="-1.36875">
        <ele>14</ele>
        <time>2020-06-02T07:11:39Z</time>
      </trkpt>
      <trkpt lat="46.20178" lon="-1.36873">
        <ele>14.1</ele>
        <time>2020-06-02T07:11:40Z</time>
      </trkpt>
      <trkpt lat="46.20178" lon="-1.36871">
        <ele>14.1</ele>
        <time>2020-06-02T07:11:41Z</time>
      </trkpt>
      <trkpt lat="46.20178" lon="-1.36869">
        <ele>14.1</ele>
        <time>2020-06-02T07:11:42Z</time>
      </trkpt>
      <trkpt lat="46.20178" lon="-1.36869">
        <ele>14.1</ele>
        <time>2020-06-02T07:11:43Z</time>
      </trkpt>
      <trkpt lat="46.20178" lon="-1.36868">
        <ele>14.1</ele>
        <time>2020-06-02T07:11:44Z</time>
      </trkpt>
      <trkpt lat="46.20178" lon="-1.36867">
        <ele>14.1</ele>
        <time>2020-06-02T07:11:45Z</time>
      </trkpt>
      <trkpt lat="46.20178" lon="-1.36866">
        <ele>14.1</ele>
        <time>2020-06-02T07:11:46Z</time>
      </trkpt>
      <trkpt lat="46.20177" lon="-1.36866">
        <ele>14.1</ele>
        <time>2020-06-02T07:11:47Z</time>
      </trkpt>
      <trkpt lat="46.20177" lon="-1.36865">
        <ele>14.1</ele>
        <time>2020-06-02T07:11:48Z</time>
      </trkpt>
      <trkpt lat="46.20177" lon="-1.36865">
        <ele>14.1</ele>
        <time>2020-06-02T07:11:49Z</time>
      </trkpt>
      <trkpt lat="46.20177" lon="-1.36865">
        <ele>14.1</ele>
        <time>2020-06-02T07:11:50Z</time>
      </trkpt>
      <trkpt lat="46.20177" lon="-1.36865">
        <ele>14.1</ele>
        <time>2020-06-02T07:11:51Z</time>
      </trkpt>
      <trkpt lat="46.20177" lon="-1.36865">
        <ele>14.1</ele>
        <time>2020-06-02T07:11:52Z</time>
      </trkpt>
      <trkpt lat="46.20177" lon="-1.36865">
        <ele>14.1</ele>
        <time>2020-06-02T07:11:53Z</time>
      </trkpt>
      <trkpt lat="46.20177" lon="-1.36865">
        <ele>14.1</ele>
        <time>2020-06-02T07:11:54Z</time>
      </trkpt>
      <trkpt lat="46.20177" lon="-1.36865">
        <ele>14.1</ele>
        <time>2020-06-02T07:11:55Z</time>
      </trkpt>
      <trkpt lat="46.20177" lon="-1.36865">
        <ele>14.1</ele>
        <time>2020-06-02T07:11:56Z</time>
      </trkpt>
      <trkpt lat="46.20177" lon="-1.36865">
        <ele>14.1</ele>
        <time>2020-06-02T07:11:57Z</time>
      </trkpt>
      <trkpt lat="46.20177" lon="-1.36865">
        <ele>14.1</ele>
        <time>2020-06-02T07:11:58Z</time>
      </trkpt>
      <trkpt lat="46.20177" lon="-1.36865">
        <ele>14.1</ele>
        <time>2020-06-02T07:11:59Z</time>
      </trkpt>
      <trkpt lat="46.20177" lon="-1.36865">
        <ele>14.1</ele>
        <time>2020-06-02T07:12:00Z</time>
      </trkpt>
      <trkpt lat="46.20177" lon="-1.36865">
        <ele>14.1</ele>
        <time>2020-06-02T07:12:01Z</time>
      </trkpt>
      <trkpt lat="46.20177" lon="-1.36865">
        <ele>14.1</ele>
        <time>2020-06-02T07:12:02Z</time>
      </trkpt>
      <trkpt lat="46.20177" lon="-1.36865">
        <ele>14.1</ele>
        <time>2020-06-02T07:12:03Z</time>
      </trkpt>
      <trkpt lat="46.20177" lon="-1.36865">
        <ele>14.1</ele>
        <time>2020-06-02T07:12:04Z</time>
      </trkpt>
      <trkpt lat="46.20177" lon="-1.36865">
        <ele>14.1</ele>
        <time>2020-06-02T07:12:05Z</time>
      </trkpt>
      <trkpt lat="46.20177" lon="-1.36865">
        <ele>14.1</ele>
        <time>2020-06-02T07:12:06Z</time>
      </trkpt>
      <trkpt lat="46.20177" lon="-1.36865">
        <ele>14.1</ele>
        <time>2020-06-02T07:12:07Z</time>
      </trkpt>
      <trkpt lat="46.20177" lon="-1.36865">
        <ele>14.1</ele>
        <time>2020-06-02T07:12:08Z</time>
      </trkpt>
      <trkpt lat="46.20177" lon="-1.36865">
        <ele>14.1</ele>
        <time>2020-06-02T07:12:09Z</time>
      </trkpt>
      <trkpt lat="46.20177" lon="-1.36865">
        <ele>14.1</ele>
        <time>2020-06-02T07:12:10Z</time>
      </trkpt>
      <trkpt lat="46.20177" lon="-1.36865">
        <ele>14.1</ele>
        <time>2020-06-02T07:12:11Z</time>
      </trkpt>
      <trkpt lat="46.20177" lon="-1.36865">
        <ele>14.1</ele>
        <time>2020-06-02T07:12:12Z</time>
      </trkpt>
      <trkpt lat="46.20177" lon="-1.36865">
        <ele>14.1</ele>
        <time>2020-06-02T07:12:13Z</time>
      </trkpt>
      <trkpt lat="46.20177" lon="-1.36865">
        <ele>14.1</ele>
        <time>2020-06-02T07:12:14Z</time>
      </trkpt>
      <trkpt lat="46.20177" lon="-1.36865">
        <ele>14.1</ele>
        <time>2020-06-02T07:12:15Z</time>
      </trkpt>
      <trkpt lat="46.20177" lon="-1.36865">
        <ele>14.1</ele>
        <time>2020-06-02T07:12:16Z</time>
      </trkpt>
      <trkpt lat="46.20177" lon="-1.36865">
        <ele>14.1</ele>
        <time>2020-06-02T07:12:17Z</time>
      </trkpt>
      <trkpt lat="46.20177" lon="-1.36865">
        <ele>14.1</ele>
        <time>2020-06-02T07:12:18Z</time>
      </trkpt>
      <trkpt lat="46.20177" lon="-1.36865">
        <ele>14.1</ele>
        <time>2020-06-02T07:12:19Z</time>
      </trkpt>
      <trkpt lat="46.20177" lon="-1.36865">
        <ele>14.1</ele>
        <time>2020-06-02T07:12:20Z</time>
      </trkpt>
      <trkpt lat="46.20177" lon="-1.36865">
        <ele>14.1</ele>
        <time>2020-06-02T07:12:21Z</time>
      </trkpt>
      <trkpt lat="46.20177" lon="-1.36865">
        <ele>14.1</ele>
        <time>2020-06-02T07:12:22Z</time>
      </trkpt>
      <trkpt lat="46.20177" lon="-1.36865">
        <ele>14.1</ele>
        <time>2020-06-02T07:12:23Z</time>
      </trkpt>
      <trkpt lat="46.20177" lon="-1.36865">
        <ele>14.1</ele>
        <time>2020-06-02T07:12:24Z</time>
      </trkpt>
      <trkpt lat="46.20177" lon="-1.36865">
        <ele>14.1</ele>
        <time>2020-06-02T07:12:25Z</time>
      </trkpt>
      <trkpt lat="46.20177" lon="-1.36865">
        <ele>14.1</ele>
        <time>2020-06-02T07:12:26Z</time>
      </trkpt>
      <trkpt lat="46.20177" lon="-1.36865">
        <ele>14.1</ele>
        <time>2020-06-02T07:12:27Z</time>
      </trkpt>
      <trkpt lat="46.20177" lon="-1.36865">
        <ele>14.1</ele>
        <time>2020-06-02T07:12:28Z</time>
      </trkpt>
      <trkpt lat="46.20177" lon="-1.36865">
        <ele>14.1</ele>
        <time>2020-06-02T07:12:29Z</time>
      </trkpt>
      <trkpt lat="46.20177" lon="-1.36865">
        <ele>14.1</ele>
        <time>2020-06-02T07:12:30Z</time>
      </trkpt>
      <trkpt lat="46.20177" lon="-1.36865">
        <ele>14.1</ele>
        <time>2020-06-02T07:12:31Z</time>
      </trkpt>
      <trkpt lat="46.20177" lon="-1.36865">
        <ele>14.1</ele>
        <time>2020-06-02T07:12:32Z</time>
      </trkpt>
      <trkpt lat="46.20177" lon="-1.36865">
        <ele>14.1</ele>
        <time>2020-06-02T07:12:33Z</time>
      </trkpt>
      <trkpt lat="46.20177" lon="-1.36865">
        <ele>14.1</ele>
        <time>2020-06-02T07:12:34Z</time>
      </trkpt>
      <trkpt lat="46.20177" lon="-1.36865">
        <ele>14.1</ele>
        <time>2020-06-02T07:12:35Z</time>
      </trkpt>
      <trkpt lat="46.20177" lon="-1.36865">
        <ele>14.1</ele>
        <time>2020-06-02T07:12:36Z</time>
      </trkpt>
      <trkpt lat="46.20177" lon="-1.36865">
        <ele>14.1</ele>
        <time>2020-06-02T07:12:37Z</time>
      </trkpt>
      <trkpt lat="46.20177" lon="-1.36865">
        <ele>14.1</ele>
        <time>2020-06-02T07:12:38Z</time>
      </trkpt>
      <trkpt lat="46.20177" lon="-1.36865">
        <ele>14.1</ele>
        <time>2020-06-02T07:12:39Z</time>
      </trkpt>
      <trkpt lat="46.20177" lon="-1.36865">
        <ele>14.1</ele>
        <time>2020-06-02T07:12:40Z</time>
      </trkpt>
      <trkpt lat="46.20177" lon="-1.36865">
        <ele>14.1</ele>
        <time>2020-06-02T07:12:41Z</time>
      </trkpt>
      <trkpt lat="46.20177" lon="-1.36865">
        <ele>14.1</ele>
        <time>2020-06-02T07:12:42Z</time>
      </trkpt>
      <trkpt lat="46.20177" lon="-1.36865">
        <ele>14.1</ele>
        <time>2020-06-02T07:12:43Z</time>
      </trkpt>
      <trkpt lat="46.20177" lon="-1.36865">
        <ele>14.1</ele>
        <time>2020-06-02T07:12:44Z</time>
      </trkpt>
      <trkpt lat="46.20177" lon="-1.36865">
        <ele>14.1</ele>
        <time>2020-06-02T07:12:45Z</time>
      </trkpt>
      <trkpt lat="46.20177" lon="-1.36865">
        <ele>14.1</ele>
        <time>2020-06-02T07:12:46Z</time>
      </trkpt>
      <trkpt lat="46.20177" lon="-1.36865">
        <ele>14.1</ele>
        <time>2020-06-02T07:12:47Z</time>
      </trkpt>
      <trkpt lat="46.20177" lon="-1.36865">
        <ele>14.1</ele>
        <time>2020-06-02T07:12:48Z</time>
      </trkpt>
      <trkpt lat="46.20177" lon="-1.36865">
        <ele>14.1</ele>
        <time>2020-06-02T07:12:49Z</time>
      </trkpt>
      <trkpt lat="46.20177" lon="-1.36865">
        <ele>14.1</ele>
        <time>2020-06-02T07:12:50Z</time>
      </trkpt>
      <trkpt lat="46.20177" lon="-1.36865">
        <ele>14.1</ele>
        <time>2020-06-02T07:12:51Z</time>
      </trkpt>
      <trkpt lat="46.20177" lon="-1.36865">
        <ele>14.1</ele>
        <time>2020-06-02T07:12:52Z</time>
      </trkpt>
      <trkpt lat="46.20177" lon="-1.36865">
        <ele>14.1</ele>
        <time>2020-06-02T07:12:53Z</time>
      </trkpt>
      <trkpt lat="46.20177" lon="-1.36865">
        <ele>14.1</ele>
        <time>2020-06-02T07:12:54Z</time>
      </trkpt>
      <trkpt lat="46.20177" lon="-1.36865">
        <ele>14.1</ele>
        <time>2020-06-02T07:12:55Z</time>
      </trkpt>
      <trkpt lat="46.20177" lon="-1.36865">
        <ele>14.1</ele>
        <time>2020-06-02T07:12:56Z</time>
      </trkpt>
      <trkpt lat="46.20177" lon="-1.36865">
        <ele>14.1</ele>
        <time>2020-06-02T07:12:57Z</time>
      </trkpt>
      <trkpt lat="46.20177" lon="-1.36865">
        <ele>14.1</ele>
        <time>2020-06-02T07:12:58Z</time>
      </trkpt>
      <trkpt lat="46.20177" lon="-1.36865">
        <ele>14.1</ele>
        <time>2020-06-02T07:12:59Z</time>
      </trkpt>
      <trkpt lat="46.20177" lon="-1.36865">
        <ele>14.1</ele>
        <time>2020-06-02T07:13:00Z</time>
      </trkpt>
      <trkpt lat="46.20177" lon="-1.36865">
        <ele>14.1</ele>
        <time>2020-06-02T07:13:01Z</time>
      </trkpt>
      <trkpt lat="46.20177" lon="-1.36865">
        <ele>14.1</ele>
        <time>2020-06-02T07:13:02Z</time>
      </trkpt>
      <trkpt lat="46.20177" lon="-1.36865">
        <ele>14.1</ele>
        <time>2020-06-02T07:13:03Z</time>
      </trkpt>
      <trkpt lat="46.20177" lon="-1.36865">
        <ele>14.1</ele>
        <time>2020-06-02T07:13:04Z</time>
      </trkpt>
      <trkpt lat="46.20177" lon="-1.36865">
        <ele>14.1</ele>
        <time>2020-06-02T07:13:05Z</time>
      </trkpt>
      <trkpt lat="46.20177" lon="-1.36865">
        <ele>14.1</ele>
        <time>2020-06-02T07:13:06Z</time>
      </trkpt>
      <trkpt lat="46.20177" lon="-1.36865">
        <ele>14.1</ele>
        <time>2020-06-02T07:13:07Z</time>
      </trkpt>
      <trkpt lat="46.20177" lon="-1.36865">
        <ele>14.1</ele>
        <time>2020-06-02T07:13:08Z</time>
      </trkpt>
      <trkpt lat="46.20177" lon="-1.36865">
        <ele>14.1</ele>
        <time>2020-06-02T07:13:09Z</time>
      </trkpt>
      <trkpt lat="46.20177" lon="-1.36865">
        <ele>14.1</ele>
        <time>2020-06-02T07:13:10Z</time>
      </trkpt>
      <trkpt lat="46.20177" lon="-1.36865">
        <ele>14.1</ele>
        <time>2020-06-02T07:13:11Z</time>
      </trkpt>
      <trkpt lat="46.20177" lon="-1.36865">
        <ele>14.1</ele>
        <time>2020-06-02T07:13:12Z</time>
      </trkpt>
      <trkpt lat="46.20177" lon="-1.36865">
        <ele>14.1</ele>
        <time>2020-06-02T07:13:13Z</time>
      </trkpt>
      <trkpt lat="46.20177" lon="-1.36865">
        <ele>14.1</ele>
        <time>2020-06-02T07:13:14Z</time>
      </trkpt>
      <trkpt lat="46.20177" lon="-1.36865">
        <ele>14.1</ele>
        <time>2020-06-02T07:13:15Z</time>
      </trkpt>
      <trkpt lat="46.20177" lon="-1.36865">
        <ele>14.1</ele>
        <time>2020-06-02T07:13:16Z</time>
      </trkpt>
      <trkpt lat="46.20177" lon="-1.36865">
        <ele>14.1</ele>
        <time>2020-06-02T07:13:17Z</time>
      </trkpt>
      <trkpt lat="46.20177" lon="-1.36865">
        <ele>14.1</ele>
        <time>2020-06-02T07:13:18Z</time>
      </trkpt>
      <trkpt lat="46.20177" lon="-1.36865">
        <ele>14.1</ele>
        <time>2020-06-02T07:13:19Z</time>
      </trkpt>
      <trkpt lat="46.20177" lon="-1.36865">
        <ele>14.1</ele>
        <time>2020-06-02T07:13:20Z</time>
      </trkpt>
      <trkpt lat="46.20177" lon="-1.36865">
        <ele>14.1</ele>
        <time>2020-06-02T07:13:21Z</time>
      </trkpt>
      <trkpt lat="46.20177" lon="-1.36865">
        <ele>14.1</ele>
        <time>2020-06-02T07:13:22Z</time>
      </trkpt>
      <trkpt lat="46.20177" lon="-1.36865">
        <ele>14.1</ele>
        <time>2020-06-02T07:13:23Z</time>
      </trkpt>
      <trkpt lat="46.20177" lon="-1.36865">
        <ele>14.1</ele>
        <time>2020-06-02T07:13:24Z</time>
      </trkpt>
      <trkpt lat="46.20177" lon="-1.36865">
        <ele>14.1</ele>
        <time>2020-06-02T07:13:25Z</time>
      </trkpt>
      <trkpt lat="46.20177" lon="-1.36865">
        <ele>14.1</ele>
        <time>2020-06-02T07:13:26Z</time>
      </trkpt>
      <trkpt lat="46.20177" lon="-1.36865">
        <ele>14.1</ele>
        <time>2020-06-02T07:13:27Z</time>
      </trkpt>
      <trkpt lat="46.20177" lon="-1.36865">
        <ele>14.1</ele>
        <time>2020-06-02T07:13:28Z</time>
      </trkpt>
      <trkpt lat="46.20177" lon="-1.36865">
        <ele>14.1</ele>
        <time>2020-06-02T07:13:29Z</time>
      </trkpt>
      <trkpt lat="46.20177" lon="-1.36865">
        <ele>14.1</ele>
        <time>2020-06-02T07:13:30Z</time>
      </trkpt>
      <trkpt lat="46.20177" lon="-1.36865">
        <ele>14.1</ele>
        <time>2020-06-02T07:13:31Z</time>
      </trkpt>
      <trkpt lat="46.20177" lon="-1.36865">
        <ele>14.1</ele>
        <time>2020-06-02T07:13:32Z</time>
      </trkpt>
      <trkpt lat="46.20177" lon="-1.36865">
        <ele>14.1</ele>
        <time>2020-06-02T07:13:33Z</time>
      </trkpt>
      <trkpt lat="46.20177" lon="-1.36865">
        <ele>14.1</ele>
        <time>2020-06-02T07:13:34Z</time>
      </trkpt>
      <trkpt lat="46.20177" lon="-1.36865">
        <ele>14.1</ele>
        <time>2020-06-02T07:13:35Z</time>
      </trkpt>
      <trkpt lat="46.20177" lon="-1.36865">
        <ele>14.1</ele>
        <time>2020-06-02T07:13:36Z</time>
      </trkpt>
      <trkpt lat="46.20177" lon="-1.36865">
        <ele>14.1</ele>
        <time>2020-06-02T07:13:37Z</time>
      </trkpt>
      <trkpt lat="46.20177" lon="-1.36865">
        <ele>14.1</ele>
        <time>2020-06-02T07:13:38Z</time>
      </trkpt>
      <trkpt lat="46.20177" lon="-1.36865">
        <ele>14.1</ele>
        <time>2020-06-02T07:13:39Z</time>
      </trkpt>
      <trkpt lat="46.20177" lon="-1.36865">
        <ele>14.1</ele>
        <time>2020-06-02T07:13:40Z</time>
      </trkpt>
      <trkpt lat="46.20177" lon="-1.36865">
        <ele>14.1</ele>
        <time>2020-06-02T07:13:41Z</time>
      </trkpt>
      <trkpt lat="46.20177" lon="-1.36865">
        <ele>14.1</ele>
        <time>2020-06-02T07:13:42Z</time>
      </trkpt>
      <trkpt lat="46.20177" lon="-1.36865">
        <ele>14.1</ele>
        <time>2020-06-02T07:13:43Z</time>
      </trkpt>
      <trkpt lat="46.20177" lon="-1.36865">
        <ele>14.1</ele>
        <time>2020-06-02T07:13:44Z</time>
      </trkpt>
      <trkpt lat="46.20177" lon="-1.36865">
        <ele>14.1</ele>
        <time>2020-06-02T07:13:45Z</time>
      </trkpt>
      <trkpt lat="46.20177" lon="-1.36865">
        <ele>14.1</ele>
        <time>2020-06-02T07:13:46Z</time>
      </trkpt>
      <trkpt lat="46.20177" lon="-1.36865">
        <ele>14.1</ele>
        <time>2020-06-02T07:13:47Z</time>
      </trkpt>
      <trkpt lat="46.20177" lon="-1.36865">
        <ele>14.1</ele>
        <time>2020-06-02T07:13:48Z</time>
      </trkpt>
      <trkpt lat="46.20177" lon="-1.36865">
        <ele>14.1</ele>
        <time>2020-06-02T07:13:49Z</time>
      </trkpt>
      <trkpt lat="46.20177" lon="-1.36865">
        <ele>14.1</ele>
        <time>2020-06-02T07:13:50Z</time>
      </trkpt>
      <trkpt lat="46.20177" lon="-1.36865">
        <ele>14.1</ele>
        <time>2020-06-02T07:13:51Z</time>
      </trkpt>
      <trkpt lat="46.20177" lon="-1.36865">
        <ele>14.1</ele>
        <time>2020-06-02T07:13:52Z</time>
      </trkpt>
      <trkpt lat="46.20177" lon="-1.36865">
        <ele>14.1</ele>
        <time>2020-06-02T07:13:53Z</time>
      </trkpt>
      <trkpt lat="46.20177" lon="-1.36865">
        <ele>14.1</ele>
        <time>2020-06-02T07:13:54Z</time>
      </trkpt>
      <trkpt lat="46.20177" lon="-1.36865">
        <ele>14.1</ele>
        <time>2020-06-02T07:13:55Z</time>
      </trkpt>
      <trkpt lat="46.20177" lon="-1.36865">
        <ele>14.1</ele>
        <time>2020-06-02T07:13:56Z</time>
      </trkpt>
      <trkpt lat="46.20177" lon="-1.36865">
        <ele>14.1</ele>
        <time>2020-06-02T07:13:57Z</time>
      </trkpt>
      <trkpt lat="46.20177" lon="-1.36865">
        <ele>14.1</ele>
        <time>2020-06-02T07:13:58Z</time>
      </trkpt>
      <trkpt lat="46.20177" lon="-1.36865">
        <ele>14.1</ele>
        <time>2020-06-02T07:13:59Z</time>
      </trkpt>
      <trkpt lat="46.20177" lon="-1.36865">
        <ele>14.1</ele>
        <time>2020-06-02T07:14:00Z</time>
      </trkpt>
      <trkpt lat="46.20177" lon="-1.36865">
        <ele>14.1</ele>
        <time>2020-06-02T07:14:01Z</time>
      </trkpt>
      <trkpt lat="46.20177" lon="-1.36865">
        <ele>14.1</ele>
        <time>2020-06-02T07:14:02Z</time>
      </trkpt>
      <trkpt lat="46.20177" lon="-1.36865">
        <ele>14.1</ele>
        <time>2020-06-02T07:14:03Z</time>
      </trkpt>
      <trkpt lat="46.20177" lon="-1.36865">
        <ele>14.1</ele>
        <time>2020-06-02T07:14:04Z</time>
      </trkpt>
      <trkpt lat="46.20177" lon="-1.36865">
        <ele>14.1</ele>
        <time>2020-06-02T07:14:05Z</time>
      </trkpt>
      <trkpt lat="46.20177" lon="-1.36865">
        <ele>14.1</ele>
        <time>2020-06-02T07:14:06Z</time>
      </trkpt>
      <trkpt lat="46.20177" lon="-1.36865">
        <ele>14.1</ele>
        <time>2020-06-02T07:14:07Z</time>
      </trkpt>
      <trkpt lat="46.20177" lon="-1.36865">
        <ele>14.1</ele>
        <time>2020-06-02T07:14:08Z</time>
      </trkpt>
      <trkpt lat="46.20177" lon="-1.36865">
        <ele>14.1</ele>
        <time>2020-06-02T07:14:09Z</time>
      </trkpt>
      <trkpt lat="46.20177" lon="-1.36865">
        <ele>14.1</ele>
        <time>2020-06-02T07:14:10Z</time>
      </trkpt>
      <trkpt lat="46.20178" lon="-1.36862">
        <ele>14.1</ele>
        <time>2020-06-02T07:14:11Z</time>
      </trkpt>
      <trkpt lat="46.20178" lon="-1.36862">
        <ele>14.1</ele>
        <time>2020-06-02T07:14:12Z</time>
      </trkpt>
      <trkpt lat="46.20178" lon="-1.36862">
        <ele>14.1</ele>
        <time>2020-06-02T07:14:13Z</time>
      </trkpt>
      <trkpt lat="46.20178" lon="-1.36862">
        <ele>14.1</ele>
        <time>2020-06-02T07:14:14Z</time>
      </trkpt>
      <trkpt lat="46.20178" lon="-1.36862">
        <ele>14.1</ele>
        <time>2020-06-02T07:14:15Z</time>
      </trkpt>
      <trkpt lat="46.20178" lon="-1.36862">
        <ele>14.1</ele>
        <time>2020-06-02T07:14:16Z</time>
      </trkpt>
      <trkpt lat="46.20178" lon="-1.36862">
        <ele>14.1</ele>
        <time>2020-06-02T07:14:17Z</time>
      </trkpt>
      <trkpt lat="46.20178" lon="-1.36862">
        <ele>14.1</ele>
        <time>2020-06-02T07:14:18Z</time>
      </trkpt>
      <trkpt lat="46.20178" lon="-1.36862">
        <ele>14.1</ele>
        <time>2020-06-02T07:14:19Z</time>
      </trkpt>
      <trkpt lat="46.20178" lon="-1.36862">
        <ele>14.1</ele>
        <time>2020-06-02T07:14:20Z</time>
      </trkpt>
      <trkpt lat="46.20178" lon="-1.36862">
        <ele>14.1</ele>
        <time>2020-06-02T07:14:21Z</time>
      </trkpt>
      <trkpt lat="46.20178" lon="-1.36862">
        <ele>14.1</ele>
        <time>2020-06-02T07:14:22Z</time>
      </trkpt>
      <trkpt lat="46.20178" lon="-1.36862">
        <ele>14.1</ele>
        <time>2020-06-02T07:14:23Z</time>
      </trkpt>
      <trkpt lat="46.20178" lon="-1.36862">
        <ele>14.1</ele>
        <time>2020-06-02T07:14:24Z</time>
      </trkpt>
      <trkpt lat="46.20178" lon="-1.36862">
        <ele>14.1</ele>
        <time>2020-06-02T07:14:25Z</time>
      </trkpt>
      <trkpt lat="46.20178" lon="-1.36862">
        <ele>14.1</ele>
        <time>2020-06-02T07:14:26Z</time>
      </trkpt>
      <trkpt lat="46.20178" lon="-1.36862">
        <ele>14.1</ele>
        <time>2020-06-02T07:14:27Z</time>
      </trkpt>
      <trkpt lat="46.20178" lon="-1.36862">
        <ele>14.1</ele>
        <time>2020-06-02T07:14:28Z</time>
      </trkpt>
      <trkpt lat="46.20178" lon="-1.36862">
        <ele>14.1</ele>
        <time>2020-06-02T07:14:29Z</time>
      </trkpt>
      <trkpt lat="46.20178" lon="-1.36862">
        <ele>14.1</ele>
        <time>2020-06-02T07:14:30Z</time>
      </trkpt>
      <trkpt lat="46.20178" lon="-1.36862">
        <ele>14.1</ele>
        <time>2020-06-02T07:14:31Z</time>
      </trkpt>
      <trkpt lat="46.20178" lon="-1.36862">
        <ele>14.1</ele>
        <time>2020-06-02T07:14:32Z</time>
      </trkpt>
      <trkpt lat="46.20178" lon="-1.36862">
        <ele>14.1</ele>
        <time>2020-06-02T07:14:33Z</time>
      </trkpt>
      <trkpt lat="46.20178" lon="-1.36862">
        <ele>14.1</ele>
        <time>2020-06-02T07:14:34Z</time>
      </trkpt>
      <trkpt lat="46.20178" lon="-1.36862">
        <ele>14.1</ele>
        <time>2020-06-02T07:14:35Z</time>
      </trkpt>
      <trkpt lat="46.20178" lon="-1.36862">
        <ele>14.1</ele>
        <time>2020-06-02T07:14:36Z</time>
      </trkpt>
      <trkpt lat="46.20178" lon="-1.36862">
        <ele>14.1</ele>
        <time>2020-06-02T07:14:37Z</time>
      </trkpt>
      <trkpt lat="46.20178" lon="-1.36862">
        <ele>14.1</ele>
        <time>2020-06-02T07:14:38Z</time>
      </trkpt>
      <trkpt lat="46.20178" lon="-1.36862">
        <ele>14.1</ele>
        <time>2020-06-02T07:14:39Z</time>
      </trkpt>
      <trkpt lat="46.20178" lon="-1.36862">
        <ele>14.1</ele>
        <time>2020-06-02T07:14:40Z</time>
      </trkpt>
      <trkpt lat="46.20178" lon="-1.36862">
        <ele>14.1</ele>
        <time>2020-06-02T07:14:41Z</time>
      </trkpt>
      <trkpt lat="46.20178" lon="-1.36862">
        <ele>14.1</ele>
        <time>2020-06-02T07:14:42Z</time>
      </trkpt>
      <trkpt lat="46.20178" lon="-1.36862">
        <ele>14.1</ele>
        <time>2020-06-02T07:14:43Z</time>
      </trkpt>
      <trkpt lat="46.20178" lon="-1.36862">
        <ele>14.1</ele>
        <time>2020-06-02T07:14:44Z</time>
      </trkpt>
      <trkpt lat="46.20178" lon="-1.36862">
        <ele>14.1</ele>
        <time>2020-06-02T07:14:45Z</time>
      </trkpt>
      <trkpt lat="46.20178" lon="-1.36862">
        <ele>14.1</ele>
        <time>2020-06-02T07:14:46Z</time>
      </trkpt>
      <trkpt lat="46.20178" lon="-1.36862">
        <ele>14.1</ele>
        <time>2020-06-02T07:14:47Z</time>
      </trkpt>
      <trkpt lat="46.20178" lon="-1.36862">
        <ele>14.1</ele>
        <time>2020-06-02T07:14:48Z</time>
      </trkpt>
      <trkpt lat="46.20178" lon="-1.36862">
        <ele>14.1</ele>
        <time>2020-06-02T07:14:49Z</time>
      </trkpt>
      <trkpt lat="46.20178" lon="-1.36862">
        <ele>14.1</ele>
        <time>2020-06-02T07:14:50Z</time>
      </trkpt>
      <trkpt lat="46.20178" lon="-1.36862">
        <ele>14.1</ele>
        <time>2020-06-02T07:14:51Z</time>
      </trkpt>
      <trkpt lat="46.20178" lon="-1.36862">
        <ele>14.1</ele>
        <time>2020-06-02T07:14:52Z</time>
      </trkpt>
      <trkpt lat="46.20178" lon="-1.36862">
        <ele>14.1</ele>
        <time>2020-06-02T07:14:53Z</time>
      </trkpt>
      <trkpt lat="46.20178" lon="-1.36862">
        <ele>14.1</ele>
        <time>2020-06-02T07:14:54Z</time>
      </trkpt>
      <trkpt lat="46.20178" lon="-1.36862">
        <ele>14.1</ele>
        <time>2020-06-02T07:14:55Z</time>
      </trkpt>
      <trkpt lat="46.20178" lon="-1.36862">
        <ele>14.1</ele>
        <time>2020-06-02T07:14:56Z</time>
      </trkpt>
      <trkpt lat="46.20178" lon="-1.36862">
        <ele>14.1</ele>
        <time>2020-06-02T07:14:57Z</time>
      </trkpt>
      <trkpt lat="46.20178" lon="-1.36862">
        <ele>14.1</ele>
        <time>2020-06-02T07:14:58Z</time>
      </trkpt>
      <trkpt lat="46.20178" lon="-1.36862">
        <ele>14.1</ele>
        <time>2020-06-02T07:14:59Z</time>
      </trkpt>
      <trkpt lat="46.20178" lon="-1.36862">
        <ele>14.1</ele>
        <time>2020-06-02T07:15:00Z</time>
      </trkpt>
      <trkpt lat="46.20178" lon="-1.36862">
        <ele>14.1</ele>
        <time>2020-06-02T07:15:01Z</time>
      </trkpt>
      <trkpt lat="46.20179" lon="-1.36862">
        <ele>14.1</ele>
        <time>2020-06-02T07:15:02Z</time>
      </trkpt>
      <trkpt lat="46.20179" lon="-1.36862">
        <ele>14.1</ele>
        <time>2020-06-02T07:15:03Z</time>
      </trkpt>
      <trkpt lat="46.20179" lon="-1.36862">
        <ele>14.1</ele>
        <time>2020-06-02T07:15:04Z</time>
      </trkpt>
      <trkpt lat="46.20179" lon="-1.36862">
        <ele>14.1</ele>
        <time>2020-06-02T07:15:05Z</time>
      </trkpt>
      <trkpt lat="46.20179" lon="-1.36862">
        <ele>14.1</ele>
        <time>2020-06-02T07:15:06Z</time>
      </trkpt>
      <trkpt lat="46.20179" lon="-1.36862">
        <ele>14.1</ele>
        <time>2020-06-02T07:15:07Z</time>
      </trkpt>
      <trkpt lat="46.20179" lon="-1.36862">
        <ele>14.1</ele>
        <time>2020-06-02T07:15:08Z</time>
      </trkpt>
      <trkpt lat="46.20179" lon="-1.36862">
        <ele>14.1</ele>
        <time>2020-06-02T07:15:09Z</time>
      </trkpt>
      <trkpt lat="46.20179" lon="-1.36862">
        <ele>14.1</ele>
        <time>2020-06-02T07:15:10Z</time>
      </trkpt>
      <trkpt lat="46.20179" lon="-1.36862">
        <ele>14.1</ele>
        <time>2020-06-02T07:15:11Z</time>
      </trkpt>
      <trkpt lat="46.20179" lon="-1.36862">
        <ele>14.1</ele>
        <time>2020-06-02T07:15:12Z</time>
      </trkpt>
      <trkpt lat="46.20179" lon="-1.36862">
        <ele>14.1</ele>
        <time>2020-06-02T07:15:13Z</time>
      </trkpt>
      <trkpt lat="46.20179" lon="-1.36862">
        <ele>14.1</ele>
        <time>2020-06-02T07:15:14Z</time>
      </trkpt>
      <trkpt lat="46.20179" lon="-1.36862">
        <ele>14.1</ele>
        <time>2020-06-02T07:15:15Z</time>
      </trkpt>
      <trkpt lat="46.20179" lon="-1.36862">
        <ele>14.1</ele>
        <time>2020-06-02T07:15:16Z</time>
      </trkpt>
      <trkpt lat="46.20179" lon="-1.36862">
        <ele>14.1</ele>
        <time>2020-06-02T07:15:17Z</time>
      </trkpt>
      <trkpt lat="46.20179" lon="-1.36862">
        <ele>14.1</ele>
        <time>2020-06-02T07:15:18Z</time>
      </trkpt>
      <trkpt lat="46.20179" lon="-1.36862">
        <ele>14.1</ele>
        <time>2020-06-02T07:15:19Z</time>
      </trkpt>
      <trkpt lat="46.20179" lon="-1.36862">
        <ele>14.1</ele>
        <time>2020-06-02T07:15:20Z</time>
      </trkpt>
      <trkpt lat="46.20179" lon="-1.36862">
        <ele>14.1</ele>
        <time>2020-06-02T07:15:21Z</time>
      </trkpt>
      <trkpt lat="46.20179" lon="-1.36862">
        <ele>14.1</ele>
        <time>2020-06-02T07:15:22Z</time>
      </trkpt>
      <trkpt lat="46.20179" lon="-1.36862">
        <ele>14.1</ele>
        <time>2020-06-02T07:15:23Z</time>
      </trkpt>
      <trkpt lat="46.20179" lon="-1.36862">
        <ele>14.1</ele>
        <time>2020-06-02T07:15:24Z</time>
      </trkpt>
      <trkpt lat="46.20179" lon="-1.36862">
        <ele>14.1</ele>
        <time>2020-06-02T07:15:25Z</time>
      </trkpt>
      <trkpt lat="46.20179" lon="-1.36862">
        <ele>14.1</ele>
        <time>2020-06-02T07:15:26Z</time>
      </trkpt>
      <trkpt lat="46.20179" lon="-1.36862">
        <ele>14.1</ele>
        <time>2020-06-02T07:15:27Z</time>
      </trkpt>
      <trkpt lat="46.20179" lon="-1.36862">
        <ele>14.1</ele>
        <time>2020-06-02T07:15:28Z</time>
      </trkpt>
      <trkpt lat="46.20179" lon="-1.36862">
        <ele>14.1</ele>
        <time>2020-06-02T07:15:29Z</time>
      </trkpt>
      <trkpt lat="46.20179" lon="-1.36862">
        <ele>14.1</ele>
        <time>2020-06-02T07:15:30Z</time>
      </trkpt>
      <trkpt lat="46.20179" lon="-1.36862">
        <ele>14.1</ele>
        <time>2020-06-02T07:15:31Z</time>
      </trkpt>
      <trkpt lat="46.20179" lon="-1.36862">
        <ele>14.1</ele>
        <time>2020-06-02T07:15:32Z</time>
      </trkpt>
      <trkpt lat="46.20179" lon="-1.36862">
        <ele>14.1</ele>
        <time>2020-06-02T07:15:33Z</time>
      </trkpt>
      <trkpt lat="46.20179" lon="-1.36862">
        <ele>14.1</ele>
        <time>2020-06-02T07:15:34Z</time>
      </trkpt>
      <trkpt lat="46.20179" lon="-1.36862">
        <ele>14.1</ele>
        <time>2020-06-02T07:15:35Z</time>
      </trkpt>
      <trkpt lat="46.20179" lon="-1.36862">
        <ele>14.1</ele>
        <time>2020-06-02T07:15:36Z</time>
      </trkpt>
      <trkpt lat="46.20179" lon="-1.36862">
        <ele>14.1</ele>
        <time>2020-06-02T07:15:37Z</time>
      </trkpt>
      <trkpt lat="46.20179" lon="-1.36862">
        <ele>14.1</ele>
        <time>2020-06-02T07:15:38Z</time>
      </trkpt>
      <trkpt lat="46.20179" lon="-1.36862">
        <ele>14.1</ele>
        <time>2020-06-02T07:15:39Z</time>
      </trkpt>
      <trkpt lat="46.20179" lon="-1.36862">
        <ele>14.1</ele>
        <time>2020-06-02T07:15:40Z</time>
      </trkpt>
      <trkpt lat="46.20179" lon="-1.36862">
        <ele>14.1</ele>
        <time>2020-06-02T07:15:41Z</time>
      </trkpt>
      <trkpt lat="46.20179" lon="-1.36862">
        <ele>14.1</ele>
        <time>2020-06-02T07:15:42Z</time>
      </trkpt>
      <trkpt lat="46.20179" lon="-1.36862">
        <ele>14.1</ele>
        <time>2020-06-02T07:15:43Z</time>
      </trkpt>
      <trkpt lat="46.20179" lon="-1.36862">
        <ele>14.1</ele>
        <time>2020-06-02T07:15:44Z</time>
      </trkpt>
      <trkpt lat="46.20179" lon="-1.36862">
        <ele>14.1</ele>
        <time>2020-06-02T07:15:45Z</time>
      </trkpt>
      <trkpt lat="46.20179" lon="-1.36862">
        <ele>14.1</ele>
        <time>2020-06-02T07:15:46Z</time>
      </trkpt>
      <trkpt lat="46.20179" lon="-1.36862">
        <ele>14.1</ele>
        <time>2020-06-02T07:15:47Z</time>
      </trkpt>
      <trkpt lat="46.20179" lon="-1.36862">
        <ele>14.1</ele>
        <time>2020-06-02T07:15:48Z</time>
      </trkpt>
      <trkpt lat="46.20179" lon="-1.36861">
        <ele>14.1</ele>
        <time>2020-06-02T07:15:49Z</time>
      </trkpt>
      <trkpt lat="46.20179" lon="-1.36861">
        <ele>14.1</ele>
        <time>2020-06-02T07:15:50Z</time>
      </trkpt>
      <trkpt lat="46.20179" lon="-1.36861">
        <ele>14.1</ele>
        <time>2020-06-02T07:15:51Z</time>
      </trkpt>
      <trkpt lat="46.20179" lon="-1.36861">
        <ele>14.1</ele>
        <time>2020-06-02T07:15:52Z</time>
      </trkpt>
      <trkpt lat="46.20179" lon="-1.36861">
        <ele>14.1</ele>
        <time>2020-06-02T07:15:53Z</time>
      </trkpt>
      <trkpt lat="46.20179" lon="-1.36861">
        <ele>14.1</ele>
        <time>2020-06-02T07:15:54Z</time>
      </trkpt>
      <trkpt lat="46.20179" lon="-1.36861">
        <ele>14.1</ele>
        <time>2020-06-02T07:15:55Z</time>
      </trkpt>
      <trkpt lat="46.20179" lon="-1.36861">
        <ele>14.1</ele>
        <time>2020-06-02T07:15:56Z</time>
      </trkpt>
      <trkpt lat="46.20179" lon="-1.36861">
        <ele>14.1</ele>
        <time>2020-06-02T07:15:57Z</time>
      </trkpt>
      <trkpt lat="46.20179" lon="-1.36861">
        <ele>14.1</ele>
        <time>2020-06-02T07:15:58Z</time>
      </trkpt>
      <trkpt lat="46.20179" lon="-1.36861">
        <ele>14.2</ele>
        <time>2020-06-02T07:15:59Z</time>
      </trkpt>
      <trkpt lat="46.20179" lon="-1.36861">
        <ele>14.2</ele>
        <time>2020-06-02T07:16:00Z</time>
      </trkpt>
      <trkpt lat="46.20179" lon="-1.36861">
        <ele>14.2</ele>
        <time>2020-06-02T07:16:01Z</time>
      </trkpt>
      <trkpt lat="46.20179" lon="-1.36861">
        <ele>14.2</ele>
        <time>2020-06-02T07:16:02Z</time>
      </trkpt>
      <trkpt lat="46.20179" lon="-1.36861">
        <ele>14.2</ele>
        <time>2020-06-02T07:16:03Z</time>
      </trkpt>
      <trkpt lat="46.20179" lon="-1.36861">
        <ele>14.2</ele>
        <time>2020-06-02T07:16:04Z</time>
      </trkpt>
      <trkpt lat="46.20179" lon="-1.36861">
        <ele>14.2</ele>
        <time>2020-06-02T07:16:05Z</time>
      </trkpt>
      <trkpt lat="46.20179" lon="-1.36861">
        <ele>14.2</ele>
        <time>2020-06-02T07:16:06Z</time>
      </trkpt>
      <trkpt lat="46.20179" lon="-1.36861">
        <ele>14.2</ele>
        <time>2020-06-02T07:16:07Z</time>
      </trkpt>
      <trkpt lat="46.20179" lon="-1.36861">
        <ele>14.2</ele>
        <time>2020-06-02T07:16:08Z</time>
      </trkpt>
      <trkpt lat="46.20179" lon="-1.36861">
        <ele>14.2</ele>
        <time>2020-06-02T07:16:09Z</time>
      </trkpt>
      <trkpt lat="46.20179" lon="-1.36861">
        <ele>14.2</ele>
        <time>2020-06-02T07:16:10Z</time>
      </trkpt>
      <trkpt lat="46.20179" lon="-1.36861">
        <ele>14.2</ele>
        <time>2020-06-02T07:16:11Z</time>
      </trkpt>
      <trkpt lat="46.20179" lon="-1.36861">
        <ele>14.2</ele>
        <time>2020-06-02T07:16:12Z</time>
      </trkpt>
      <trkpt lat="46.20179" lon="-1.36861">
        <ele>14.2</ele>
        <time>2020-06-02T07:16:13Z</time>
      </trkpt>
      <trkpt lat="46.20179" lon="-1.36861">
        <ele>14.2</ele>
        <time>2020-06-02T07:16:14Z</time>
      </trkpt>
      <trkpt lat="46.20179" lon="-1.36861">
        <ele>14.2</ele>
        <time>2020-06-02T07:16:15Z</time>
      </trkpt>
      <trkpt lat="46.20179" lon="-1.36861">
        <ele>14.2</ele>
        <time>2020-06-02T07:16:16Z</time>
      </trkpt>
      <trkpt lat="46.20179" lon="-1.36861">
        <ele>14.2</ele>
        <time>2020-06-02T07:16:17Z</time>
      </trkpt>
      <trkpt lat="46.20179" lon="-1.36861">
        <ele>14.2</ele>
        <time>2020-06-02T07:16:18Z</time>
      </trkpt>
      <trkpt lat="46.20179" lon="-1.36861">
        <ele>14.2</ele>
        <time>2020-06-02T07:16:19Z</time>
      </trkpt>
      <trkpt lat="46.20179" lon="-1.36861">
        <ele>14.2</ele>
        <time>2020-06-02T07:16:20Z</time>
      </trkpt>
      <trkpt lat="46.20179" lon="-1.36861">
        <ele>14.2</ele>
        <time>2020-06-02T07:16:21Z</time>
      </trkpt>
      <trkpt lat="46.20179" lon="-1.36861">
        <ele>14.2</ele>
        <time>2020-06-02T07:16:22Z</time>
      </trkpt>
      <trkpt lat="46.20179" lon="-1.36861">
        <ele>14.2</ele>
        <time>2020-06-02T07:16:23Z</time>
      </trkpt>
      <trkpt lat="46.20179" lon="-1.36861">
        <ele>14.2</ele>
        <time>2020-06-02T07:16:24Z</time>
      </trkpt>
      <trkpt lat="46.20179" lon="-1.36861">
        <ele>14.2</ele>
        <time>2020-06-02T07:16:25Z</time>
      </trkpt>
      <trkpt lat="46.20179" lon="-1.36861">
        <ele>14.2</ele>
        <time>2020-06-02T07:16:26Z</time>
      </trkpt>
      <trkpt lat="46.20179" lon="-1.36861">
        <ele>14.2</ele>
        <time>2020-06-02T07:16:27Z</time>
      </trkpt>
      <trkpt lat="46.20179" lon="-1.36861">
        <ele>14.2</ele>
        <time>2020-06-02T07:16:28Z</time>
      </trkpt>
      <trkpt lat="46.20179" lon="-1.36861">
        <ele>14.2</ele>
        <time>2020-06-02T07:16:29Z</time>
      </trkpt>
      <trkpt lat="46.20179" lon="-1.36861">
        <ele>14.2</ele>
        <time>2020-06-02T07:16:30Z</time>
      </trkpt>
      <trkpt lat="46.20179" lon="-1.36861">
        <ele>14.2</ele>
        <time>2020-06-02T07:16:31Z</time>
      </trkpt>
      <trkpt lat="46.20179" lon="-1.36861">
        <ele>14.2</ele>
        <time>2020-06-02T07:16:32Z</time>
      </trkpt>
      <trkpt lat="46.20179" lon="-1.36861">
        <ele>14.2</ele>
        <time>2020-06-02T07:16:33Z</time>
      </trkpt>
      <trkpt lat="46.20179" lon="-1.36861">
        <ele>14.2</ele>
        <time>2020-06-02T07:16:34Z</time>
      </trkpt>
      <trkpt lat="46.20179" lon="-1.36861">
        <ele>14.2</ele>
        <time>2020-06-02T07:16:35Z</time>
      </trkpt>
      <trkpt lat="46.20179" lon="-1.36861">
        <ele>14.2</ele>
        <time>2020-06-02T07:16:36Z</time>
      </trkpt>
      <trkpt lat="46.20179" lon="-1.36861">
        <ele>14.2</ele>
        <time>2020-06-02T07:16:37Z</time>
      </trkpt>
      <trkpt lat="46.20179" lon="-1.36861">
        <ele>14.2</ele>
        <time>2020-06-02T07:16:38Z</time>
      </trkpt>
      <trkpt lat="46.20179" lon="-1.36861">
        <ele>14.2</ele>
        <time>2020-06-02T07:16:39Z</time>
      </trkpt>
      <trkpt lat="46.20179" lon="-1.36861">
        <ele>14.2</ele>
        <time>2020-06-02T07:16:40Z</time>
      </trkpt>
      <trkpt lat="46.20179" lon="-1.36861">
        <ele>14.2</ele>
        <time>2020-06-02T07:16:41Z</time>
      </trkpt>
      <trkpt lat="46.20179" lon="-1.36861">
        <ele>14.2</ele>
        <time>2020-06-02T07:16:42Z</time>
      </trkpt>
      <trkpt lat="46.20179" lon="-1.36861">
        <ele>14.1</ele>
        <time>2020-06-02T07:16:43Z</time>
      </trkpt>
      <trkpt lat="46.20179" lon="-1.36861">
        <ele>14.1</ele>
        <time>2020-06-02T07:16:44Z</time>
      </trkpt>
      <trkpt lat="46.20179" lon="-1.36861">
        <ele>14.1</ele>
        <time>2020-06-02T07:16:45Z</time>
      </trkpt>
      <trkpt lat="46.20179" lon="-1.36861">
        <ele>14.1</ele>
        <time>2020-06-02T07:16:46Z</time>
      </trkpt>
      <trkpt lat="46.20179" lon="-1.36861">
        <ele>14.1</ele>
        <time>2020-06-02T07:16:47Z</time>
      </trkpt>
      <trkpt lat="46.20179" lon="-1.36861">
        <ele>14.1</ele>
        <time>2020-06-02T07:16:48Z</time>
      </trkpt>
      <trkpt lat="46.20179" lon="-1.36861">
        <ele>14.1</ele>
        <time>2020-06-02T07:16:49Z</time>
      </trkpt>
      <trkpt lat="46.20179" lon="-1.36861">
        <ele>14.1</ele>
        <time>2020-06-02T07:16:50Z</time>
      </trkpt>
      <trkpt lat="46.20179" lon="-1.36861">
        <ele>14.1</ele>
        <time>2020-06-02T07:16:51Z</time>
      </trkpt>
      <trkpt lat="46.20179" lon="-1.36861">
        <ele>14.1</ele>
        <time>2020-06-02T07:16:52Z</time>
      </trkpt>
      <trkpt lat="46.20179" lon="-1.36861">
        <ele>14.1</ele>
        <time>2020-06-02T07:16:53Z</time>
      </trkpt>
      <trkpt lat="46.20179" lon="-1.36861">
        <ele>14.1</ele>
        <time>2020-06-02T07:16:54Z</time>
      </trkpt>
      <trkpt lat="46.20179" lon="-1.36861">
        <ele>14.1</ele>
        <time>2020-06-02T07:16:55Z</time>
      </trkpt>
      <trkpt lat="46.20179" lon="-1.36861">
        <ele>14.1</ele>
        <time>2020-06-02T07:16:56Z</time>
      </trkpt>
      <trkpt lat="46.20179" lon="-1.36861">
        <ele>14.1</ele>
        <time>2020-06-02T07:16:57Z</time>
      </trkpt>
      <trkpt lat="46.20179" lon="-1.36861">
        <ele>14.1</ele>
        <time>2020-06-02T07:16:58Z</time>
      </trkpt>
      <trkpt lat="46.20179" lon="-1.36861">
        <ele>14.1</ele>
        <time>2020-06-02T07:16:59Z</time>
      </trkpt>
      <trkpt lat="46.20179" lon="-1.36861">
        <ele>14.1</ele>
        <time>2020-06-02T07:17:00Z</time>
      </trkpt>
      <trkpt lat="46.20179" lon="-1.36861">
        <ele>14.1</ele>
        <time>2020-06-02T07:17:01Z</time>
      </trkpt>
      <trkpt lat="46.20179" lon="-1.36861">
        <ele>14.1</ele>
        <time>2020-06-02T07:17:02Z</time>
      </trkpt>
      <trkpt lat="46.20179" lon="-1.36861">
        <ele>14.1</ele>
        <time>2020-06-02T07:17:03Z</time>
      </trkpt>
      <trkpt lat="46.20179" lon="-1.36861">
        <ele>14.1</ele>
        <time>2020-06-02T07:17:04Z</time>
      </trkpt>
      <trkpt lat="46.20179" lon="-1.36861">
        <ele>14.1</ele>
        <time>2020-06-02T07:17:05Z</time>
      </trkpt>
      <trkpt lat="46.20179" lon="-1.36861">
        <ele>14.1</ele>
        <time>2020-06-02T07:17:06Z</time>
      </trkpt>
      <trkpt lat="46.20179" lon="-1.36861">
        <ele>14.1</ele>
        <time>2020-06-02T07:17:07Z</time>
      </trkpt>
      <trkpt lat="46.20179" lon="-1.36861">
        <ele>14.1</ele>
        <time>2020-06-02T07:17:08Z</time>
      </trkpt>
      <trkpt lat="46.20179" lon="-1.36861">
        <ele>14.1</ele>
        <time>2020-06-02T07:17:09Z</time>
      </trkpt>
      <trkpt lat="46.20179" lon="-1.36861">
        <ele>14.1</ele>
        <time>2020-06-02T07:17:10Z</time>
      </trkpt>
      <trkpt lat="46.20179" lon="-1.36861">
        <ele>14.1</ele>
        <time>2020-06-02T07:17:11Z</time>
      </trkpt>
      <trkpt lat="46.20179" lon="-1.36861">
        <ele>14.1</ele>
        <time>2020-06-02T07:17:12Z</time>
      </trkpt>
      <trkpt lat="46.20179" lon="-1.36861">
        <ele>14.1</ele>
        <time>2020-06-02T07:17:13Z</time>
      </trkpt>
      <trkpt lat="46.20179" lon="-1.36861">
        <ele>14.1</ele>
        <time>2020-06-02T07:17:14Z</time>
      </trkpt>
      <trkpt lat="46.20179" lon="-1.36861">
        <ele>14.1</ele>
        <time>2020-06-02T07:17:15Z</time>
      </trkpt>
      <trkpt lat="46.20179" lon="-1.36861">
        <ele>14.1</ele>
        <time>2020-06-02T07:17:16Z</time>
      </trkpt>
      <trkpt lat="46.20179" lon="-1.36861">
        <ele>14.1</ele>
        <time>2020-06-02T07:17:17Z</time>
      </trkpt>
      <trkpt lat="46.20179" lon="-1.36861">
        <ele>14.1</ele>
        <time>2020-06-02T07:17:18Z</time>
      </trkpt>
      <trkpt lat="46.20179" lon="-1.36861">
        <ele>14.1</ele>
        <time>2020-06-02T07:17:19Z</time>
      </trkpt>
      <trkpt lat="46.20179" lon="-1.36861">
        <ele>14.1</ele>
        <time>2020-06-02T07:17:20Z</time>
      </trkpt>
      <trkpt lat="46.20179" lon="-1.36861">
        <ele>14.1</ele>
        <time>2020-06-02T07:17:21Z</time>
      </trkpt>
      <trkpt lat="46.20179" lon="-1.36861">
        <ele>14.1</ele>
        <time>2020-06-02T07:17:22Z</time>
      </trkpt>
      <trkpt lat="46.20179" lon="-1.36861">
        <ele>14.1</ele>
        <time>2020-06-02T07:17:23Z</time>
      </trkpt>
      <trkpt lat="46.20179" lon="-1.36861">
        <ele>14.1</ele>
        <time>2020-06-02T07:17:24Z</time>
      </trkpt>
      <trkpt lat="46.20179" lon="-1.36861">
        <ele>14.1</ele>
        <time>2020-06-02T07:17:25Z</time>
      </trkpt>
      <trkpt lat="46.2018" lon="-1.36861">
        <ele>14.1</ele>
        <time>2020-06-02T07:17:26Z</time>
      </trkpt>
      <trkpt lat="46.2018" lon="-1.36861">
        <ele>14.1</ele>
        <time>2020-06-02T07:17:27Z</time>
      </trkpt>
      <trkpt lat="46.2018" lon="-1.36861">
        <ele>14.1</ele>
        <time>2020-06-02T07:17:28Z</time>
      </trkpt>
      <trkpt lat="46.2018" lon="-1.36861">
        <ele>14.1</ele>
        <time>2020-06-02T07:17:29Z</time>
      </trkpt>
      <trkpt lat="46.2018" lon="-1.36861">
        <ele>14.1</ele>
        <time>2020-06-02T07:17:30Z</time>
      </trkpt>
      <trkpt lat="46.2018" lon="-1.36861">
        <ele>14.1</ele>
        <time>2020-06-02T07:17:31Z</time>
      </trkpt>
      <trkpt lat="46.2018" lon="-1.3686">
        <ele>14.1</ele>
        <time>2020-06-02T07:17:32Z</time>
      </trkpt>
      <trkpt lat="46.2018" lon="-1.3686">
        <ele>14.1</ele>
        <time>2020-06-02T07:17:33Z</time>
      </trkpt>
      <trkpt lat="46.2018" lon="-1.3686">
        <ele>14.1</ele>
        <time>2020-06-02T07:17:34Z</time>
      </trkpt>
      <trkpt lat="46.2018" lon="-1.3686">
        <ele>14.1</ele>
        <time>2020-06-02T07:17:35Z</time>
      </trkpt>
      <trkpt lat="46.2018" lon="-1.3686">
        <ele>14.1</ele>
        <time>2020-06-02T07:17:36Z</time>
      </trkpt>
      <trkpt lat="46.2018" lon="-1.3686">
        <ele>14.1</ele>
        <time>2020-06-02T07:17:37Z</time>
      </trkpt>
      <trkpt lat="46.2018" lon="-1.3686">
        <ele>14.1</ele>
        <time>2020-06-02T07:17:38Z</time>
      </trkpt>
      <trkpt lat="46.2018" lon="-1.3686">
        <ele>14.1</ele>
        <time>2020-06-02T07:17:39Z</time>
      </trkpt>
      <trkpt lat="46.2018" lon="-1.3686">
        <ele>14.1</ele>
        <time>2020-06-02T07:17:40Z</time>
      </trkpt>
      <trkpt lat="46.2018" lon="-1.3686">
        <ele>14.1</ele>
        <time>2020-06-02T07:17:41Z</time>
      </trkpt>
      <trkpt lat="46.2018" lon="-1.3686">
        <ele>14.1</ele>
        <time>2020-06-02T07:17:42Z</time>
      </trkpt>
      <trkpt lat="46.2018" lon="-1.3686">
        <ele>14.1</ele>
        <time>2020-06-02T07:17:43Z</time>
      </trkpt>
      <trkpt lat="46.2018" lon="-1.3686">
        <ele>14.1</ele>
        <time>2020-06-02T07:17:44Z</time>
      </trkpt>
      <trkpt lat="46.2018" lon="-1.3686">
        <ele>14.1</ele>
        <time>2020-06-02T07:17:45Z</time>
      </trkpt>
      <trkpt lat="46.2018" lon="-1.3686">
        <ele>14.1</ele>
        <time>2020-06-02T07:17:46Z</time>
      </trkpt>
      <trkpt lat="46.2018" lon="-1.3686">
        <ele>14.1</ele>
        <time>2020-06-02T07:17:47Z</time>
      </trkpt>
      <trkpt lat="46.2018" lon="-1.3686">
        <ele>14.1</ele>
        <time>2020-06-02T07:17:48Z</time>
      </trkpt>
      <trkpt lat="46.2018" lon="-1.3686">
        <ele>14.1</ele>
        <time>2020-06-02T07:17:49Z</time>
      </trkpt>
      <trkpt lat="46.2018" lon="-1.3686">
        <ele>14.1</ele>
        <time>2020-06-02T07:17:50Z</time>
      </trkpt>
      <trkpt lat="46.2018" lon="-1.3686">
        <ele>14.1</ele>
        <time>2020-06-02T07:17:51Z</time>
      </trkpt>
      <trkpt lat="46.2018" lon="-1.3686">
        <ele>14.1</ele>
        <time>2020-06-02T07:17:52Z</time>
      </trkpt>
      <trkpt lat="46.2018" lon="-1.3686">
        <ele>14.1</ele>
        <time>2020-06-02T07:17:53Z</time>
      </trkpt>
      <trkpt lat="46.2018" lon="-1.3686">
        <ele>14.1</ele>
        <time>2020-06-02T07:17:54Z</time>
      </trkpt>
      <trkpt lat="46.2018" lon="-1.3686">
        <ele>14.1</ele>
        <time>2020-06-02T07:17:55Z</time>
      </trkpt>
      <trkpt lat="46.2018" lon="-1.3686">
        <ele>14.1</ele>
        <time>2020-06-02T07:17:56Z</time>
      </trkpt>
      <trkpt lat="46.2018" lon="-1.3686">
        <ele>14.1</ele>
        <time>2020-06-02T07:17:57Z</time>
      </trkpt>
      <trkpt lat="46.2018" lon="-1.3686">
        <ele>14.1</ele>
        <time>2020-06-02T07:17:58Z</time>
      </trkpt>
      <trkpt lat="46.2018" lon="-1.3686">
        <ele>14.1</ele>
        <time>2020-06-02T07:17:59Z</time>
      </trkpt>
      <trkpt lat="46.2018" lon="-1.3686">
        <ele>14.1</ele>
        <time>2020-06-02T07:18:00Z</time>
      </trkpt>
      <trkpt lat="46.2018" lon="-1.3686">
        <ele>14.1</ele>
        <time>2020-06-02T07:18:01Z</time>
      </trkpt>
      <trkpt lat="46.2018" lon="-1.3686">
        <ele>14.1</ele>
        <time>2020-06-02T07:18:02Z</time>
      </trkpt>
      <trkpt lat="46.2018" lon="-1.3686">
        <ele>14.1</ele>
        <time>2020-06-02T07:18:03Z</time>
      </trkpt>
      <trkpt lat="46.2018" lon="-1.3686">
        <ele>14.1</ele>
        <time>2020-06-02T07:18:04Z</time>
      </trkpt>
      <trkpt lat="46.2018" lon="-1.3686">
        <ele>14.1</ele>
        <time>2020-06-02T07:18:05Z</time>
      </trkpt>
      <trkpt lat="46.2018" lon="-1.3686">
        <ele>14.1</ele>
        <time>2020-06-02T07:18:06Z</time>
      </trkpt>
      <trkpt lat="46.2018" lon="-1.3686">
        <ele>14.1</ele>
        <time>2020-06-02T07:18:07Z</time>
      </trkpt>
      <trkpt lat="46.2018" lon="-1.3686">
        <ele>14.1</ele>
        <time>2020-06-02T07:18:08Z</time>
      </trkpt>
      <trkpt lat="46.2018" lon="-1.3686">
        <ele>14.1</ele>
        <time>2020-06-02T07:18:09Z</time>
      </trkpt>
      <trkpt lat="46.2018" lon="-1.3686">
        <ele>14.1</ele>
        <time>2020-06-02T07:18:10Z</time>
      </trkpt>
      <trkpt lat="46.2018" lon="-1.3686">
        <ele>14.1</ele>
        <time>2020-06-02T07:18:11Z</time>
      </trkpt>
      <trkpt lat="46.2018" lon="-1.3686">
        <ele>14.1</ele>
        <time>2020-06-02T07:18:12Z</time>
      </trkpt>
      <trkpt lat="46.2018" lon="-1.3686">
        <ele>14.1</ele>
        <time>2020-06-02T07:18:13Z</time>
      </trkpt>
      <trkpt lat="46.2018" lon="-1.3686">
        <ele>14.1</ele>
        <time>2020-06-02T07:18:14Z</time>
      </trkpt>
      <trkpt lat="46.2018" lon="-1.3686">
        <ele>14.1</ele>
        <time>2020-06-02T07:18:15Z</time>
      </trkpt>
      <trkpt lat="46.2018" lon="-1.3686">
        <ele>14.1</ele>
        <time>2020-06-02T07:18:16Z</time>
      </trkpt>
      <trkpt lat="46.2018" lon="-1.3686">
        <ele>14.1</ele>
        <time>2020-06-02T07:18:17Z</time>
      </trkpt>
      <trkpt lat="46.2018" lon="-1.3686">
        <ele>14.1</ele>
        <time>2020-06-02T07:18:18Z</time>
      </trkpt>
      <trkpt lat="46.2018" lon="-1.3686">
        <ele>14.1</ele>
        <time>2020-06-02T07:18:19Z</time>
      </trkpt>
      <trkpt lat="46.2018" lon="-1.3686">
        <ele>14.1</ele>
        <time>2020-06-02T07:18:20Z</time>
      </trkpt>
      <trkpt lat="46.2018" lon="-1.3686">
        <ele>14.1</ele>
        <time>2020-06-02T07:18:21Z</time>
      </trkpt>
      <trkpt lat="46.2018" lon="-1.3686">
        <ele>14.1</ele>
        <time>2020-06-02T07:18:22Z</time>
      </trkpt>
      <trkpt lat="46.2018" lon="-1.3686">
        <ele>14.1</ele>
        <time>2020-06-02T07:18:23Z</time>
      </trkpt>
      <trkpt lat="46.2018" lon="-1.3686">
        <ele>14.1</ele>
        <time>2020-06-02T07:18:24Z</time>
      </trkpt>
      <trkpt lat="46.2018" lon="-1.3686">
        <ele>14.1</ele>
        <time>2020-06-02T07:18:25Z</time>
      </trkpt>
      <trkpt lat="46.2018" lon="-1.3686">
        <ele>14.1</ele>
        <time>2020-06-02T07:18:26Z</time>
      </trkpt>
      <trkpt lat="46.2018" lon="-1.3686">
        <ele>14.1</ele>
        <time>2020-06-02T07:18:27Z</time>
      </trkpt>
      <trkpt lat="46.2018" lon="-1.3686">
        <ele>14.1</ele>
        <time>2020-06-02T07:18:28Z</time>
      </trkpt>
      <trkpt lat="46.2018" lon="-1.3686">
        <ele>14.1</ele>
        <time>2020-06-02T07:18:29Z</time>
      </trkpt>
      <trkpt lat="46.2018" lon="-1.3686">
        <ele>14.1</ele>
        <time>2020-06-02T07:18:30Z</time>
      </trkpt>
      <trkpt lat="46.2018" lon="-1.3686">
        <ele>14.1</ele>
        <time>2020-06-02T07:18:31Z</time>
      </trkpt>
      <trkpt lat="46.2018" lon="-1.3686">
        <ele>14.1</ele>
        <time>2020-06-02T07:18:32Z</time>
      </trkpt>
      <trkpt lat="46.2018" lon="-1.3686">
        <ele>14.1</ele>
        <time>2020-06-02T07:18:33Z</time>
      </trkpt>
      <trkpt lat="46.2018" lon="-1.3686">
        <ele>14.1</ele>
        <time>2020-06-02T07:18:34Z</time>
      </trkpt>
      <trkpt lat="46.2018" lon="-1.3686">
        <ele>14.1</ele>
        <time>2020-06-02T07:18:35Z</time>
      </trkpt>
      <trkpt lat="46.2018" lon="-1.3686">
        <ele>14.1</ele>
        <time>2020-06-02T07:18:36Z</time>
      </trkpt>
      <trkpt lat="46.2018" lon="-1.3686">
        <ele>14.1</ele>
        <time>2020-06-02T07:18:37Z</time>
      </trkpt>
      <trkpt lat="46.2018" lon="-1.3686">
        <ele>14.1</ele>
        <time>2020-06-02T07:18:38Z</time>
      </trkpt>
      <trkpt lat="46.2018" lon="-1.3686">
        <ele>14.1</ele>
        <time>2020-06-02T07:18:39Z</time>
      </trkpt>
      <trkpt lat="46.2018" lon="-1.3686">
        <ele>14.1</ele>
        <time>2020-06-02T07:18:40Z</time>
      </trkpt>
      <trkpt lat="46.2018" lon="-1.3686">
        <ele>14.1</ele>
        <time>2020-06-02T07:18:41Z</time>
      </trkpt>
      <trkpt lat="46.2018" lon="-1.3686">
        <ele>14.1</ele>
        <time>2020-06-02T07:18:42Z</time>
      </trkpt>
      <trkpt lat="46.2018" lon="-1.3686">
        <ele>14.1</ele>
        <time>2020-06-02T07:18:43Z</time>
      </trkpt>
      <trkpt lat="46.2018" lon="-1.3686">
        <ele>14.1</ele>
        <time>2020-06-02T07:18:44Z</time>
      </trkpt>
      <trkpt lat="46.2018" lon="-1.3686">
        <ele>14.1</ele>
        <time>2020-06-02T07:18:45Z</time>
      </trkpt>
      <trkpt lat="46.2018" lon="-1.3686">
        <ele>14.1</ele>
        <time>2020-06-02T07:18:46Z</time>
      </trkpt>
      <trkpt lat="46.2018" lon="-1.3686">
        <ele>14.1</ele>
        <time>2020-06-02T07:18:47Z</time>
      </trkpt>
      <trkpt lat="46.2018" lon="-1.3686">
        <ele>14.1</ele>
        <time>2020-06-02T07:18:48Z</time>
      </trkpt>
      <trkpt lat="46.2018" lon="-1.3686">
        <ele>14.1</ele>
        <time>2020-06-02T07:18:49Z</time>
      </trkpt>
      <trkpt lat="46.2018" lon="-1.3686">
        <ele>14.1</ele>
        <time>2020-06-02T07:18:50Z</time>
      </trkpt>
      <trkpt lat="46.2018" lon="-1.3686">
        <ele>14.1</ele>
        <time>2020-06-02T07:18:51Z</time>
      </trkpt>
      <trkpt lat="46.2018" lon="-1.3686">
        <ele>14.1</ele>
        <time>2020-06-02T07:18:52Z</time>
      </trkpt>
      <trkpt lat="46.2018" lon="-1.3686">
        <ele>14.1</ele>
        <time>2020-06-02T07:18:53Z</time>
      </trkpt>
      <trkpt lat="46.2018" lon="-1.3686">
        <ele>14.1</ele>
        <time>2020-06-02T07:18:54Z</time>
      </trkpt>
      <trkpt lat="46.2018" lon="-1.3686">
        <ele>14.1</ele>
        <time>2020-06-02T07:18:55Z</time>
      </trkpt>
      <trkpt lat="46.2018" lon="-1.3686">
        <ele>14.1</ele>
        <time>2020-06-02T07:18:56Z</time>
      </trkpt>
      <trkpt lat="46.2018" lon="-1.3686">
        <ele>14.1</ele>
        <time>2020-06-02T07:18:57Z</time>
      </trkpt>
      <trkpt lat="46.2018" lon="-1.3686">
        <ele>14.1</ele>
        <time>2020-06-02T07:18:58Z</time>
      </trkpt>
      <trkpt lat="46.2018" lon="-1.3686">
        <ele>14.1</ele>
        <time>2020-06-02T07:18:59Z</time>
      </trkpt>
      <trkpt lat="46.2018" lon="-1.3686">
        <ele>14.1</ele>
        <time>2020-06-02T07:19:00Z</time>
      </trkpt>
      <trkpt lat="46.2018" lon="-1.3686">
        <ele>14.1</ele>
        <time>2020-06-02T07:19:01Z</time>
      </trkpt>
      <trkpt lat="46.2018" lon="-1.3686">
        <ele>14.1</ele>
        <time>2020-06-02T07:19:02Z</time>
      </trkpt>
      <trkpt lat="46.2018" lon="-1.3686">
        <ele>14.1</ele>
        <time>2020-06-02T07:19:03Z</time>
      </trkpt>
      <trkpt lat="46.2018" lon="-1.3686">
        <ele>14.1</ele>
        <time>2020-06-02T07:19:04Z</time>
      </trkpt>
      <trkpt lat="46.2018" lon="-1.3686">
        <ele>14.1</ele>
        <time>2020-06-02T07:19:05Z</time>
      </trkpt>
      <trkpt lat="46.2018" lon="-1.3686">
        <ele>14.1</ele>
        <time>2020-06-02T07:19:06Z</time>
      </trkpt>
      <trkpt lat="46.2018" lon="-1.3686">
        <ele>14.1</ele>
        <time>2020-06-02T07:19:07Z</time>
      </trkpt>
      <trkpt lat="46.2018" lon="-1.3686">
        <ele>14.1</ele>
        <time>2020-06-02T07:19:08Z</time>
      </trkpt>
      <trkpt lat="46.2018" lon="-1.3686">
        <ele>14.1</ele>
        <time>2020-06-02T07:19:09Z</time>
      </trkpt>
      <trkpt lat="46.2018" lon="-1.3686">
        <ele>14.1</ele>
        <time>2020-06-02T07:19:10Z</time>
      </trkpt>
      <trkpt lat="46.2018" lon="-1.3686">
        <ele>14.1</ele>
        <time>2020-06-02T07:19:11Z</time>
      </trkpt>
      <trkpt lat="46.2018" lon="-1.3686">
        <ele>14.1</ele>
        <time>2020-06-02T07:19:12Z</time>
      </trkpt>
      <trkpt lat="46.2018" lon="-1.3686">
        <ele>14.1</ele>
        <time>2020-06-02T07:19:13Z</time>
      </trkpt>
      <trkpt lat="46.2018" lon="-1.36859">
        <ele>14.1</ele>
        <time>2020-06-02T07:19:14Z</time>
      </trkpt>
      <trkpt lat="46.2018" lon="-1.36859">
        <ele>14.1</ele>
        <time>2020-06-02T07:19:15Z</time>
      </trkpt>
      <trkpt lat="46.2018" lon="-1.36859">
        <ele>14.1</ele>
        <time>2020-06-02T07:19:16Z</time>
      </trkpt>
      <trkpt lat="46.2018" lon="-1.36859">
        <ele>14.1</ele>
        <time>2020-06-02T07:19:17Z</time>
      </trkpt>
      <trkpt lat="46.2018" lon="-1.36859">
        <ele>14.1</ele>
        <time>2020-06-02T07:19:18Z</time>
      </trkpt>
      <trkpt lat="46.2018" lon="-1.36859">
        <ele>14.1</ele>
        <time>2020-06-02T07:19:19Z</time>
      </trkpt>
      <trkpt lat="46.2018" lon="-1.36859">
        <ele>14.1</ele>
        <time>2020-06-02T07:19:20Z</time>
      </trkpt>
      <trkpt lat="46.2018" lon="-1.36859">
        <ele>14.1</ele>
        <time>2020-06-02T07:19:21Z</time>
      </trkpt>
      <trkpt lat="46.2018" lon="-1.36859">
        <ele>14.1</ele>
        <time>2020-06-02T07:19:22Z</time>
      </trkpt>
      <trkpt lat="46.2018" lon="-1.36859">
        <ele>14.1</ele>
        <time>2020-06-02T07:19:23Z</time>
      </trkpt>
      <trkpt lat="46.2018" lon="-1.36859">
        <ele>14.1</ele>
        <time>2020-06-02T07:19:24Z</time>
      </trkpt>
      <trkpt lat="46.2018" lon="-1.36859">
        <ele>14.1</ele>
        <time>2020-06-02T07:19:25Z</time>
      </trkpt>
      <trkpt lat="46.2018" lon="-1.36859">
        <ele>14.1</ele>
        <time>2020-06-02T07:19:26Z</time>
      </trkpt>
      <trkpt lat="46.2018" lon="-1.36859">
        <ele>14.1</ele>
        <time>2020-06-02T07:19:27Z</time>
      </trkpt>
      <trkpt lat="46.2018" lon="-1.36859">
        <ele>14.1</ele>
        <time>2020-06-02T07:19:28Z</time>
      </trkpt>
      <trkpt lat="46.2018" lon="-1.36859">
        <ele>14.1</ele>
        <time>2020-06-02T07:19:29Z</time>
      </trkpt>
      <trkpt lat="46.2018" lon="-1.36859">
        <ele>14.1</ele>
        <time>2020-06-02T07:19:30Z</time>
      </trkpt>
      <trkpt lat="46.2018" lon="-1.36859">
        <ele>14.1</ele>
        <time>2020-06-02T07:19:31Z</time>
      </trkpt>
      <trkpt lat="46.2018" lon="-1.36859">
        <ele>14.1</ele>
        <time>2020-06-02T07:19:32Z</time>
      </trkpt>
      <trkpt lat="46.2018" lon="-1.36859">
        <ele>14.1</ele>
        <time>2020-06-02T07:19:33Z</time>
      </trkpt>
      <trkpt lat="46.2018" lon="-1.36859">
        <ele>14.1</ele>
        <time>2020-06-02T07:19:34Z</time>
      </trkpt>
      <trkpt lat="46.2018" lon="-1.36859">
        <ele>14.1</ele>
        <time>2020-06-02T07:19:35Z</time>
      </trkpt>
      <trkpt lat="46.2018" lon="-1.36859">
        <ele>14.1</ele>
        <time>2020-06-02T07:19:36Z</time>
      </trkpt>
      <trkpt lat="46.2018" lon="-1.36859">
        <ele>14.1</ele>
        <time>2020-06-02T07:19:37Z</time>
      </trkpt>
      <trkpt lat="46.2018" lon="-1.36859">
        <ele>14.1</ele>
        <time>2020-06-02T07:19:38Z</time>
      </trkpt>
      <trkpt lat="46.2018" lon="-1.36859">
        <ele>14.1</ele>
        <time>2020-06-02T07:19:39Z</time>
      </trkpt>
      <trkpt lat="46.2018" lon="-1.36859">
        <ele>14.1</ele>
        <time>2020-06-02T07:19:40Z</time>
      </trkpt>
      <trkpt lat="46.2018" lon="-1.36859">
        <ele>14.1</ele>
        <time>2020-06-02T07:19:41Z</time>
      </trkpt>
      <trkpt lat="46.2018" lon="-1.36859">
        <ele>14.1</ele>
        <time>2020-06-02T07:19:42Z</time>
      </trkpt>
      <trkpt lat="46.2018" lon="-1.36859">
        <ele>14.1</ele>
        <time>2020-06-02T07:19:43Z</time>
      </trkpt>
      <trkpt lat="46.2018" lon="-1.36859">
        <ele>14.1</ele>
        <time>2020-06-02T07:19:44Z</time>
      </trkpt>
      <trkpt lat="46.2018" lon="-1.36859">
        <ele>14.1</ele>
        <time>2020-06-02T07:19:45Z</time>
      </trkpt>
      <trkpt lat="46.2018" lon="-1.36859">
        <ele>14.1</ele>
        <time>2020-06-02T07:19:46Z</time>
      </trkpt>
      <trkpt lat="46.2018" lon="-1.36859">
        <ele>14.1</ele>
        <time>2020-06-02T07:19:47Z</time>
      </trkpt>
      <trkpt lat="46.2018" lon="-1.36859">
        <ele>14.1</ele>
        <time>2020-06-02T07:19:48Z</time>
      </trkpt>
      <trkpt lat="46.2018" lon="-1.36859">
        <ele>14.1</ele>
        <time>2020-06-02T07:19:49Z</time>
      </trkpt>
      <trkpt lat="46.2018" lon="-1.36859">
        <ele>14.1</ele>
        <time>2020-06-02T07:19:50Z</time>
      </trkpt>
      <trkpt lat="46.20181" lon="-1.36859">
        <ele>14.1</ele>
        <time>2020-06-02T07:19:51Z</time>
      </trkpt>
      <trkpt lat="46.20181" lon="-1.36859">
        <ele>14.1</ele>
        <time>2020-06-02T07:19:52Z</time>
      </trkpt>
      <trkpt lat="46.20181" lon="-1.36859">
        <ele>14.1</ele>
        <time>2020-06-02T07:19:53Z</time>
      </trkpt>
      <trkpt lat="46.20181" lon="-1.36859">
        <ele>14.1</ele>
        <time>2020-06-02T07:19:54Z</time>
      </trkpt>
      <trkpt lat="46.20181" lon="-1.36859">
        <ele>14.1</ele>
        <time>2020-06-02T07:19:55Z</time>
      </trkpt>
      <trkpt lat="46.20181" lon="-1.36859">
        <ele>14.1</ele>
        <time>2020-06-02T07:19:56Z</time>
      </trkpt>
      <trkpt lat="46.20181" lon="-1.36859">
        <ele>14.1</ele>
        <time>2020-06-02T07:19:57Z</time>
      </trkpt>
      <trkpt lat="46.20181" lon="-1.36859">
        <ele>14.1</ele>
        <time>2020-06-02T07:19:58Z</time>
      </trkpt>
      <trkpt lat="46.20181" lon="-1.36859">
        <ele>14.1</ele>
        <time>2020-06-02T07:19:59Z</time>
      </trkpt>
      <trkpt lat="46.20181" lon="-1.36859">
        <ele>14.1</ele>
        <time>2020-06-02T07:20:00Z</time>
      </trkpt>
      <trkpt lat="46.20181" lon="-1.36859">
        <ele>14.1</ele>
        <time>2020-06-02T07:20:01Z</time>
      </trkpt>
      <trkpt lat="46.20181" lon="-1.36859">
        <ele>14.1</ele>
        <time>2020-06-02T07:20:02Z</time>
      </trkpt>
      <trkpt lat="46.20181" lon="-1.36859">
        <ele>14.1</ele>
        <time>2020-06-02T07:20:03Z</time>
      </trkpt>
      <trkpt lat="46.20181" lon="-1.36859">
        <ele>14.1</ele>
        <time>2020-06-02T07:20:04Z</time>
      </trkpt>
      <trkpt lat="46.20181" lon="-1.36859">
        <ele>14.1</ele>
        <time>2020-06-02T07:20:05Z</time>
      </trkpt>
      <trkpt lat="46.20181" lon="-1.36859">
        <ele>14.1</ele>
        <time>2020-06-02T07:20:06Z</time>
      </trkpt>
      <trkpt lat="46.20181" lon="-1.36859">
        <ele>14.1</ele>
        <time>2020-06-02T07:20:07Z</time>
      </trkpt>
      <trkpt lat="46.20181" lon="-1.36859">
        <ele>14.1</ele>
        <time>2020-06-02T07:20:08Z</time>
      </trkpt>
      <trkpt lat="46.20181" lon="-1.36859">
        <ele>14.1</ele>
        <time>2020-06-02T07:20:09Z</time>
      </trkpt>
      <trkpt lat="46.20181" lon="-1.36859">
        <ele>14.1</ele>
        <time>2020-06-02T07:20:10Z</time>
      </trkpt>
      <trkpt lat="46.20181" lon="-1.36859">
        <ele>14.1</ele>
        <time>2020-06-02T07:20:11Z</time>
      </trkpt>
      <trkpt lat="46.20181" lon="-1.36859">
        <ele>14.1</ele>
        <time>2020-06-02T07:20:12Z</time>
      </trkpt>
      <trkpt lat="46.20181" lon="-1.36859">
        <ele>14.1</ele>
        <time>2020-06-02T07:20:13Z</time>
      </trkpt>
      <trkpt lat="46.20181" lon="-1.36859">
        <ele>14.1</ele>
        <time>2020-06-02T07:20:14Z</time>
      </trkpt>
      <trkpt lat="46.20181" lon="-1.36859">
        <ele>14.1</ele>
        <time>2020-06-02T07:20:15Z</time>
      </trkpt>
      <trkpt lat="46.20181" lon="-1.36859">
        <ele>14.1</ele>
        <time>2020-06-02T07:20:16Z</time>
      </trkpt>
      <trkpt lat="46.20181" lon="-1.36859">
        <ele>14.1</ele>
        <time>2020-06-02T07:20:17Z</time>
      </trkpt>
      <trkpt lat="46.20181" lon="-1.36859">
        <ele>14.1</ele>
        <time>2020-06-02T07:20:18Z</time>
      </trkpt>
      <trkpt lat="46.20181" lon="-1.36859">
        <ele>14.1</ele>
        <time>2020-06-02T07:20:19Z</time>
      </trkpt>
      <trkpt lat="46.20181" lon="-1.36859">
        <ele>14.1</ele>
        <time>2020-06-02T07:20:20Z</time>
      </trkpt>
      <trkpt lat="46.20181" lon="-1.36859">
        <ele>14.1</ele>
        <time>2020-06-02T07:20:21Z</time>
      </trkpt>
      <trkpt lat="46.20181" lon="-1.36859">
        <ele>14.1</ele>
        <time>2020-06-02T07:20:22Z</time>
      </trkpt>
      <trkpt lat="46.20181" lon="-1.36859">
        <ele>14.1</ele>
        <time>2020-06-02T07:20:23Z</time>
      </trkpt>
      <trkpt lat="46.20181" lon="-1.36859">
        <ele>14.1</ele>
        <time>2020-06-02T07:20:24Z</time>
      </trkpt>
      <trkpt lat="46.20181" lon="-1.36859">
        <ele>14.1</ele>
        <time>2020-06-02T07:20:25Z</time>
      </trkpt>
      <trkpt lat="46.20181" lon="-1.36859">
        <ele>14.1</ele>
        <time>2020-06-02T07:20:26Z</time>
      </trkpt>
      <trkpt lat="46.20181" lon="-1.36859">
        <ele>14.1</ele>
        <time>2020-06-02T07:20:27Z</time>
      </trkpt>
      <trkpt lat="46.20181" lon="-1.36859">
        <ele>14.1</ele>
        <time>2020-06-02T07:20:28Z</time>
      </trkpt>
      <trkpt lat="46.20181" lon="-1.36859">
        <ele>14.1</ele>
        <time>2020-06-02T07:20:29Z</time>
      </trkpt>
      <trkpt lat="46.20181" lon="-1.36859">
        <ele>14.1</ele>
        <time>2020-06-02T07:20:30Z</time>
      </trkpt>
      <trkpt lat="46.20181" lon="-1.36859">
        <ele>14.1</ele>
        <time>2020-06-02T07:20:31Z</time>
      </trkpt>
      <trkpt lat="46.20181" lon="-1.36859">
        <ele>14.1</ele>
        <time>2020-06-02T07:20:32Z</time>
      </trkpt>
      <trkpt lat="46.20181" lon="-1.36859">
        <ele>14.1</ele>
        <time>2020-06-02T07:20:33Z</time>
      </trkpt>
      <trkpt lat="46.20181" lon="-1.36859">
        <ele>14.1</ele>
        <time>2020-06-02T07:20:34Z</time>
      </trkpt>
      <trkpt lat="46.20181" lon="-1.36859">
        <ele>14.1</ele>
        <time>2020-06-02T07:20:35Z</time>
      </trkpt>
      <trkpt lat="46.20181" lon="-1.36859">
        <ele>14.1</ele>
        <time>2020-06-02T07:20:36Z</time>
      </trkpt>
      <trkpt lat="46.20181" lon="-1.36859">
        <ele>14.1</ele>
        <time>2020-06-02T07:20:37Z</time>
      </trkpt>
      <trkpt lat="46.20181" lon="-1.36859">
        <ele>14.1</ele>
        <time>2020-06-02T07:20:38Z</time>
      </trkpt>
      <trkpt lat="46.20181" lon="-1.36859">
        <ele>14.1</ele>
        <time>2020-06-02T07:20:39Z</time>
      </trkpt>
      <trkpt lat="46.20181" lon="-1.36859">
        <ele>14.1</ele>
        <time>2020-06-02T07:20:40Z</time>
      </trkpt>
      <trkpt lat="46.20181" lon="-1.36859">
        <ele>14.1</ele>
        <time>2020-06-02T07:20:41Z</time>
      </trkpt>
      <trkpt lat="46.20181" lon="-1.36858">
        <ele>14.1</ele>
        <time>2020-06-02T07:20:42Z</time>
      </trkpt>
      <trkpt lat="46.20181" lon="-1.36858">
        <ele>14.1</ele>
        <time>2020-06-02T07:20:43Z</time>
      </trkpt>
      <trkpt lat="46.20181" lon="-1.36858">
        <ele>14.1</ele>
        <time>2020-06-02T07:20:44Z</time>
      </trkpt>
      <trkpt lat="46.20181" lon="-1.36858">
        <ele>14.1</ele>
        <time>2020-06-02T07:20:45Z</time>
      </trkpt>
      <trkpt lat="46.20181" lon="-1.36858">
        <ele>14.1</ele>
        <time>2020-06-02T07:20:46Z</time>
      </trkpt>
      <trkpt lat="46.20181" lon="-1.36857">
        <ele>14.1</ele>
        <time>2020-06-02T07:20:47Z</time>
      </trkpt>
      <trkpt lat="46.20182" lon="-1.36857">
        <ele>14.1</ele>
        <time>2020-06-02T07:20:48Z</time>
      </trkpt>
      <trkpt lat="46.20182" lon="-1.36857">
        <ele>14.2</ele>
        <time>2020-06-02T07:20:49Z</time>
      </trkpt>
      <trkpt lat="46.20182" lon="-1.36857">
        <ele>14.2</ele>
        <time>2020-06-02T07:20:50Z</time>
      </trkpt>
      <trkpt lat="46.20182" lon="-1.36857">
        <ele>14.2</ele>
        <time>2020-06-02T07:20:51Z</time>
      </trkpt>
      <trkpt lat="46.20182" lon="-1.36856">
        <ele>14.2</ele>
        <time>2020-06-02T07:20:52Z</time>
      </trkpt>
      <trkpt lat="46.20182" lon="-1.36856">
        <ele>14.2</ele>
        <time>2020-06-02T07:20:53Z</time>
      </trkpt>
      <trkpt lat="46.20182" lon="-1.36856">
        <ele>14.2</ele>
        <time>2020-06-02T07:20:54Z</time>
      </trkpt>
      <trkpt lat="46.20182" lon="-1.36856">
        <ele>14.2</ele>
        <time>2020-06-02T07:20:55Z</time>
      </trkpt>
      <trkpt lat="46.20182" lon="-1.36856">
        <ele>14.2</ele>
        <time>2020-06-02T07:20:56Z</time>
      </trkpt>
      <trkpt lat="46.20182" lon="-1.36855">
        <ele>14.2</ele>
        <time>2020-06-02T07:20:57Z</time>
      </trkpt>
      <trkpt lat="46.20183" lon="-1.36855">
        <ele>14.2</ele>
        <time>2020-06-02T07:20:58Z</time>
      </trkpt>
      <trkpt lat="46.20183" lon="-1.36855">
        <ele>14.2</ele>
        <time>2020-06-02T07:20:59Z</time>
      </trkpt>
      <trkpt lat="46.20183" lon="-1.36855">
        <ele>14.2</ele>
        <time>2020-06-02T07:21:00Z</time>
      </trkpt>
      <trkpt lat="46.20183" lon="-1.36855">
        <ele>14.2</ele>
        <time>2020-06-02T07:21:01Z</time>
      </trkpt>
      <trkpt lat="46.20183" lon="-1.36854">
        <ele>14.2</ele>
        <time>2020-06-02T07:21:02Z</time>
      </trkpt>
      <trkpt lat="46.20183" lon="-1.36854">
        <ele>14.2</ele>
        <time>2020-06-02T07:21:03Z</time>
      </trkpt>
      <trkpt lat="46.20183" lon="-1.36852">
        <ele>14.2</ele>
        <time>2020-06-02T07:21:04Z</time>
      </trkpt>
      <trkpt lat="46.20182" lon="-1.3685">
        <ele>14.2</ele>
        <time>2020-06-02T07:21:05Z</time>
      </trkpt>
      <trkpt lat="46.20181" lon="-1.36846">
        <ele>14.2</ele>
        <time>2020-06-02T07:21:06Z</time>
      </trkpt>
      <trkpt lat="46.20181" lon="-1.36844">
        <ele>14.2</ele>
        <time>2020-06-02T07:21:07Z</time>
      </trkpt>
      <trkpt lat="46.20179" lon="-1.3684">
        <ele>14.2</ele>
        <time>2020-06-02T07:21:08Z</time>
      </trkpt>
      <trkpt lat="46.20178" lon="-1.36839">
        <ele>14.2</ele>
        <time>2020-06-02T07:21:09Z</time>
      </trkpt>
      <trkpt lat="46.20178" lon="-1.36834">
        <ele>14.2</ele>
        <time>2020-06-02T07:21:10Z</time>
      </trkpt>
      <trkpt lat="46.20178" lon="-1.36832">
        <ele>14.2</ele>
        <time>2020-06-02T07:21:11Z</time>
      </trkpt>
      <trkpt lat="46.20178" lon="-1.36827">
        <ele>14.2</ele>
        <time>2020-06-02T07:21:12Z</time>
      </trkpt>
      <trkpt lat="46.20178" lon="-1.36825">
        <ele>14.2</ele>
        <time>2020-06-02T07:21:13Z</time>
      </trkpt>
      <trkpt lat="46.20178" lon="-1.36821">
        <ele>14.2</ele>
        <time>2020-06-02T07:21:14Z</time>
      </trkpt>
      <trkpt lat="46.20178" lon="-1.36815">
        <ele>14.2</ele>
        <time>2020-06-02T07:21:15Z</time>
      </trkpt>
      <trkpt lat="46.20177" lon="-1.3681">
        <ele>14.2</ele>
        <time>2020-06-02T07:21:16Z</time>
      </trkpt>
      <trkpt lat="46.20177" lon="-1.36806">
        <ele>14.2</ele>
        <time>2020-06-02T07:21:17Z</time>
      </trkpt>
      <trkpt lat="46.20176" lon="-1.36801">
        <ele>14.2</ele>
        <time>2020-06-02T07:21:18Z</time>
      </trkpt>
      <trkpt lat="46.20176" lon="-1.36796">
        <ele>14.2</ele>
        <time>2020-06-02T07:21:19Z</time>
      </trkpt>
      <trkpt lat="46.20176" lon="-1.36792">
        <ele>14.2</ele>
        <time>2020-06-02T07:21:20Z</time>
      </trkpt>
      <trkpt lat="46.20177" lon="-1.36787">
        <ele>14.1</ele>
        <time>2020-06-02T07:21:21Z</time>
      </trkpt>
      <trkpt lat="46.20177" lon="-1.36783">
        <ele>14.1</ele>
        <time>2020-06-02T07:21:22Z</time>
      </trkpt>
      <trkpt lat="46.20176" lon="-1.36779">
        <ele>14.1</ele>
        <time>2020-06-02T07:21:23Z</time>
      </trkpt>
      <trkpt lat="46.20176" lon="-1.36774">
        <ele>14</ele>
        <time>2020-06-02T07:21:24Z</time>
      </trkpt>
      <trkpt lat="46.20175" lon="-1.36768">
        <ele>14</ele>
        <time>2020-06-02T07:21:25Z</time>
      </trkpt>
      <trkpt lat="46.20174" lon="-1.36766">
        <ele>14</ele>
        <time>2020-06-02T07:21:26Z</time>
      </trkpt>
      <trkpt lat="46.20174" lon="-1.3676">
        <ele>13.8</ele>
        <time>2020-06-02T07:21:27Z</time>
      </trkpt>
      <trkpt lat="46.20172" lon="-1.36756">
        <ele>13.8</ele>
        <time>2020-06-02T07:21:28Z</time>
      </trkpt>
      <trkpt lat="46.2017" lon="-1.36752">
        <ele>13.8</ele>
        <time>2020-06-02T07:21:29Z</time>
      </trkpt>
      <trkpt lat="46.20168" lon="-1.36747">
        <ele>13.8</ele>
        <time>2020-06-02T07:21:30Z</time>
      </trkpt>
      <trkpt lat="46.20167" lon="-1.36742">
        <ele>13.8</ele>
        <time>2020-06-02T07:21:31Z</time>
      </trkpt>
      <trkpt lat="46.20164" lon="-1.36735">
        <ele>13.9</ele>
        <time>2020-06-02T07:21:32Z</time>
      </trkpt>
      <trkpt lat="46.20164" lon="-1.3673">
        <ele>13.9</ele>
        <time>2020-06-02T07:21:33Z</time>
      </trkpt>
      <trkpt lat="46.20162" lon="-1.36723">
        <ele>13.9</ele>
        <time>2020-06-02T07:21:34Z</time>
      </trkpt>
      <trkpt lat="46.2016" lon="-1.36716">
        <ele>13.9</ele>
        <time>2020-06-02T07:21:35Z</time>
      </trkpt>
      <trkpt lat="46.20158" lon="-1.36711">
        <ele>13.9</ele>
        <time>2020-06-02T07:21:36Z</time>
      </trkpt>
      <trkpt lat="46.20157" lon="-1.36705">
        <ele>13.8</ele>
        <time>2020-06-02T07:21:37Z</time>
      </trkpt>
      <trkpt lat="46.20155" lon="-1.367">
        <ele>13.8</ele>
        <time>2020-06-02T07:21:38Z</time>
      </trkpt>
      <trkpt lat="46.20153" lon="-1.36694">
        <ele>13.8</ele>
        <time>2020-06-02T07:21:39Z</time>
      </trkpt>
      <trkpt lat="46.20151" lon="-1.36688">
        <ele>13.7</ele>
        <time>2020-06-02T07:21:40Z</time>
      </trkpt>
      <trkpt lat="46.2015" lon="-1.36679">
        <ele>13.7</ele>
        <time>2020-06-02T07:21:41Z</time>
      </trkpt>
      <trkpt lat="46.20149" lon="-1.36672">
        <ele>13.6</ele>
        <time>2020-06-02T07:21:42Z</time>
      </trkpt>
      <trkpt lat="46.20147" lon="-1.36664">
        <ele>13.6</ele>
        <time>2020-06-02T07:21:43Z</time>
      </trkpt>
      <trkpt lat="46.20144" lon="-1.36658">
        <ele>13.6</ele>
        <time>2020-06-02T07:21:44Z</time>
      </trkpt>
      <trkpt lat="46.20141" lon="-1.36652">
        <ele>13.6</ele>
        <time>2020-06-02T07:21:45Z</time>
      </trkpt>
      <trkpt lat="46.2014" lon="-1.36644">
        <ele>13.6</ele>
        <time>2020-06-02T07:21:46Z</time>
      </trkpt>
      <trkpt lat="46.20138" lon="-1.36637">
        <ele>13.6</ele>
        <time>2020-06-02T07:21:47Z</time>
      </trkpt>
      <trkpt lat="46.20137" lon="-1.36631">
        <ele>13.6</ele>
        <time>2020-06-02T07:21:48Z</time>
      </trkpt>
      <trkpt lat="46.20135" lon="-1.36625">
        <ele>13.5</ele>
        <time>2020-06-02T07:21:49Z</time>
      </trkpt>
      <trkpt lat="46.20134" lon="-1.3662">
        <ele>13.4</ele>
        <time>2020-06-02T07:21:50Z</time>
      </trkpt>
      <trkpt lat="46.20133" lon="-1.36615">
        <ele>13.3</ele>
        <time>2020-06-02T07:21:51Z</time>
      </trkpt>
      <trkpt lat="46.20132" lon="-1.3661">
        <ele>13.2</ele>
        <time>2020-06-02T07:21:52Z</time>
      </trkpt>
      <trkpt lat="46.20131" lon="-1.36603">
        <ele>13.1</ele>
        <time>2020-06-02T07:21:53Z</time>
      </trkpt>
      <trkpt lat="46.2013" lon="-1.36598">
        <ele>13</ele>
        <time>2020-06-02T07:21:54Z</time>
      </trkpt>
      <trkpt lat="46.20129" lon="-1.36593">
        <ele>12.9</ele>
        <time>2020-06-02T07:21:55Z</time>
      </trkpt>
      <trkpt lat="46.20129" lon="-1.36588">
        <ele>12.8</ele>
        <time>2020-06-02T07:21:56Z</time>
      </trkpt>
      <trkpt lat="46.20129" lon="-1.36586">
        <ele>12.8</ele>
        <time>2020-06-02T07:21:57Z</time>
      </trkpt>
      <trkpt lat="46.20128" lon="-1.36583">
        <ele>12.7</ele>
        <time>2020-06-02T07:21:58Z</time>
      </trkpt>
      <trkpt lat="46.20127" lon="-1.36582">
        <ele>12.7</ele>
        <time>2020-06-02T07:21:59Z</time>
      </trkpt>
      <trkpt lat="46.20127" lon="-1.36577">
        <ele>12.6</ele>
        <time>2020-06-02T07:22:00Z</time>
      </trkpt>
      <trkpt lat="46.20127" lon="-1.36575">
        <ele>12.5</ele>
        <time>2020-06-02T07:22:01Z</time>
      </trkpt>
      <trkpt lat="46.20126" lon="-1.3657">
        <ele>12.5</ele>
        <time>2020-06-02T07:22:02Z</time>
      </trkpt>
      <trkpt lat="46.20126" lon="-1.36565">
        <ele>12.4</ele>
        <time>2020-06-02T07:22:03Z</time>
      </trkpt>
      <trkpt lat="46.20124" lon="-1.36558">
        <ele>12.3</ele>
        <time>2020-06-02T07:22:04Z</time>
      </trkpt>
      <trkpt lat="46.20124" lon="-1.36552">
        <ele>12.2</ele>
        <time>2020-06-02T07:22:05Z</time>
      </trkpt>
      <trkpt lat="46.20122" lon="-1.36545">
        <ele>12.1</ele>
        <time>2020-06-02T07:22:06Z</time>
      </trkpt>
      <trkpt lat="46.20121" lon="-1.36536">
        <ele>12</ele>
        <time>2020-06-02T07:22:07Z</time>
      </trkpt>
      <trkpt lat="46.2012" lon="-1.36528">
        <ele>12</ele>
        <time>2020-06-02T07:22:08Z</time>
      </trkpt>
      <trkpt lat="46.20118" lon="-1.36522">
        <ele>11.9</ele>
        <time>2020-06-02T07:22:09Z</time>
      </trkpt>
      <trkpt lat="46.20118" lon="-1.36517">
        <ele>11.9</ele>
        <time>2020-06-02T07:22:10Z</time>
      </trkpt>
      <trkpt lat="46.20116" lon="-1.36512">
        <ele>11.8</ele>
        <time>2020-06-02T07:22:11Z</time>
      </trkpt>
      <trkpt lat="46.20115" lon="-1.36508">
        <ele>11.8</ele>
        <time>2020-06-02T07:22:12Z</time>
      </trkpt>
      <trkpt lat="46.20114" lon="-1.36503">
        <ele>11.8</ele>
        <time>2020-06-02T07:22:13Z</time>
      </trkpt>
      <trkpt lat="46.20113" lon="-1.36498">
        <ele>11.7</ele>
        <time>2020-06-02T07:22:14Z</time>
      </trkpt>
      <trkpt lat="46.20112" lon="-1.36492">
        <ele>11.7</ele>
        <time>2020-06-02T07:22:15Z</time>
      </trkpt>
      <trkpt lat="46.20111" lon="-1.36487">
        <ele>11.6</ele>
        <time>2020-06-02T07:22:16Z</time>
      </trkpt>
      <trkpt lat="46.2011" lon="-1.36481">
        <ele>11.6</ele>
        <time>2020-06-02T07:22:17Z</time>
      </trkpt>
      <trkpt lat="46.20109" lon="-1.36474">
        <ele>11.5</ele>
        <time>2020-06-02T07:22:18Z</time>
      </trkpt>
      <trkpt lat="46.20109" lon="-1.36467">
        <ele>11.5</ele>
        <time>2020-06-02T07:22:19Z</time>
      </trkpt>
      <trkpt lat="46.20107" lon="-1.36462">
        <ele>11.5</ele>
        <time>2020-06-02T07:22:20Z</time>
      </trkpt>
      <trkpt lat="46.20106" lon="-1.36455">
        <ele>11.4</ele>
        <time>2020-06-02T07:22:21Z</time>
      </trkpt>
      <trkpt lat="46.20105" lon="-1.3645">
        <ele>11.4</ele>
        <time>2020-06-02T07:22:22Z</time>
      </trkpt>
      <trkpt lat="46.20104" lon="-1.36444">
        <ele>11.4</ele>
        <time>2020-06-02T07:22:23Z</time>
      </trkpt>
      <trkpt lat="46.20102" lon="-1.36439">
        <ele>11.4</ele>
        <time>2020-06-02T07:22:24Z</time>
      </trkpt>
      <trkpt lat="46.20101" lon="-1.36433">
        <ele>11.4</ele>
        <time>2020-06-02T07:22:25Z</time>
      </trkpt>
      <trkpt lat="46.20099" lon="-1.36427">
        <ele>11.4</ele>
        <time>2020-06-02T07:22:26Z</time>
      </trkpt>
      <trkpt lat="46.20097" lon="-1.36422">
        <ele>11.4</ele>
        <time>2020-06-02T07:22:27Z</time>
      </trkpt>
      <trkpt lat="46.20095" lon="-1.36418">
        <ele>11.3</ele>
        <time>2020-06-02T07:22:28Z</time>
      </trkpt>
      <trkpt lat="46.20089" lon="-1.36415">
        <ele>11.3</ele>
        <time>2020-06-02T07:22:29Z</time>
      </trkpt>
      <trkpt lat="46.20089" lon="-1.3641">
        <ele>11.3</ele>
        <time>2020-06-02T07:22:30Z</time>
      </trkpt>
      <trkpt lat="46.20087" lon="-1.36406">
        <ele>11.3</ele>
        <time>2020-06-02T07:22:31Z</time>
      </trkpt>
      <trkpt lat="46.20086" lon="-1.36404">
        <ele>11.3</ele>
        <time>2020-06-02T07:22:32Z</time>
      </trkpt>
      <trkpt lat="46.20084" lon="-1.36401">
        <ele>11.3</ele>
        <time>2020-06-02T07:22:33Z</time>
      </trkpt>
      <trkpt lat="46.20082" lon="-1.36396">
        <ele>11.3</ele>
        <time>2020-06-02T07:22:34Z</time>
      </trkpt>
      <trkpt lat="46.20082" lon="-1.36395">
        <ele>11.3</ele>
        <time>2020-06-02T07:22:35Z</time>
      </trkpt>
      <trkpt lat="46.20081" lon="-1.3639">
        <ele>11.3</ele>
        <time>2020-06-02T07:22:36Z</time>
      </trkpt>
      <trkpt lat="46.20079" lon="-1.36385">
        <ele>11.3</ele>
        <time>2020-06-02T07:22:37Z</time>
      </trkpt>
      <trkpt lat="46.20078" lon="-1.36379">
        <ele>11.3</ele>
        <time>2020-06-02T07:22:38Z</time>
      </trkpt>
      <trkpt lat="46.20077" lon="-1.36372">
        <ele>11.3</ele>
        <time>2020-06-02T07:22:39Z</time>
      </trkpt>
      <trkpt lat="46.20076" lon="-1.36366">
        <ele>11.3</ele>
        <time>2020-06-02T07:22:40Z</time>
      </trkpt>
      <trkpt lat="46.20074" lon="-1.36361">
        <ele>11.3</ele>
        <time>2020-06-02T07:22:41Z</time>
      </trkpt>
      <trkpt lat="46.20072" lon="-1.36355">
        <ele>11.3</ele>
        <time>2020-06-02T07:22:42Z</time>
      </trkpt>
      <trkpt lat="46.2007" lon="-1.36349">
        <ele>11.3</ele>
        <time>2020-06-02T07:22:43Z</time>
      </trkpt>
      <trkpt lat="46.20068" lon="-1.36343">
        <ele>11.3</ele>
        <time>2020-06-02T07:22:44Z</time>
      </trkpt>
      <trkpt lat="46.20067" lon="-1.36337">
        <ele>11.3</ele>
        <time>2020-06-02T07:22:45Z</time>
      </trkpt>
      <trkpt lat="46.20065" lon="-1.36331">
        <ele>11.3</ele>
        <time>2020-06-02T07:22:46Z</time>
      </trkpt>
      <trkpt lat="46.20064" lon="-1.36325">
        <ele>11.3</ele>
        <time>2020-06-02T07:22:47Z</time>
      </trkpt>
      <trkpt lat="46.20062" lon="-1.36319">
        <ele>11.3</ele>
        <time>2020-06-02T07:22:48Z</time>
      </trkpt>
      <trkpt lat="46.20061" lon="-1.36314">
        <ele>11.4</ele>
        <time>2020-06-02T07:22:49Z</time>
      </trkpt>
      <trkpt lat="46.20059" lon="-1.36309">
        <ele>11.4</ele>
        <time>2020-06-02T07:22:50Z</time>
      </trkpt>
      <trkpt lat="46.20059" lon="-1.36304">
        <ele>11.4</ele>
        <time>2020-06-02T07:22:51Z</time>
      </trkpt>
      <trkpt lat="46.20059" lon="-1.36298">
        <ele>11.4</ele>
        <time>2020-06-02T07:22:52Z</time>
      </trkpt>
      <trkpt lat="46.20059" lon="-1.36296">
        <ele>11.4</ele>
        <time>2020-06-02T07:22:53Z</time>
      </trkpt>
      <trkpt lat="46.20058" lon="-1.36292">
        <ele>11.4</ele>
        <time>2020-06-02T07:22:54Z</time>
      </trkpt>
      <trkpt lat="46.20056" lon="-1.36289">
        <ele>11.4</ele>
        <time>2020-06-02T07:22:55Z</time>
      </trkpt>
      <trkpt lat="46.20054" lon="-1.36284">
        <ele>11.4</ele>
        <time>2020-06-02T07:22:56Z</time>
      </trkpt>
      <trkpt lat="46.20052" lon="-1.36281">
        <ele>11.4</ele>
        <time>2020-06-02T07:22:57Z</time>
      </trkpt>
      <trkpt lat="46.20049" lon="-1.36278">
        <ele>11.4</ele>
        <time>2020-06-02T07:22:58Z</time>
      </trkpt>
      <trkpt lat="46.20047" lon="-1.36274">
        <ele>11.4</ele>
        <time>2020-06-02T07:22:59Z</time>
      </trkpt>
      <trkpt lat="46.20044" lon="-1.3627">
        <ele>11.4</ele>
        <time>2020-06-02T07:23:00Z</time>
      </trkpt>
      <trkpt lat="46.20041" lon="-1.36268">
        <ele>11.4</ele>
        <time>2020-06-02T07:23:01Z</time>
      </trkpt>
      <trkpt lat="46.20036" lon="-1.36265">
        <ele>11.5</ele>
        <time>2020-06-02T07:23:02Z</time>
      </trkpt>
      <trkpt lat="46.20032" lon="-1.36263">
        <ele>11.5</ele>
        <time>2020-06-02T07:23:03Z</time>
      </trkpt>
      <trkpt lat="46.20028" lon="-1.36261">
        <ele>11.5</ele>
        <time>2020-06-02T07:23:04Z</time>
      </trkpt>
      <trkpt lat="46.20024" lon="-1.3626">
        <ele>11.5</ele>
        <time>2020-06-02T07:23:05Z</time>
      </trkpt>
      <trkpt lat="46.20018" lon="-1.36261">
        <ele>11.4</ele>
        <time>2020-06-02T07:23:06Z</time>
      </trkpt>
      <trkpt lat="46.20014" lon="-1.36261">
        <ele>11.4</ele>
        <time>2020-06-02T07:23:07Z</time>
      </trkpt>
      <trkpt lat="46.20009" lon="-1.36262">
        <ele>11.4</ele>
        <time>2020-06-02T07:23:08Z</time>
      </trkpt>
      <trkpt lat="46.20005" lon="-1.36263">
        <ele>11.4</ele>
        <time>2020-06-02T07:23:09Z</time>
      </trkpt>
      <trkpt lat="46.19999" lon="-1.36264">
        <ele>11.4</ele>
        <time>2020-06-02T07:23:10Z</time>
      </trkpt>
      <trkpt lat="46.19994" lon="-1.36265">
        <ele>11.3</ele>
        <time>2020-06-02T07:23:11Z</time>
      </trkpt>
      <trkpt lat="46.19989" lon="-1.36266">
        <ele>11.3</ele>
        <time>2020-06-02T07:23:12Z</time>
      </trkpt>
      <trkpt lat="46.19985" lon="-1.36266">
        <ele>11.3</ele>
        <time>2020-06-02T07:23:13Z</time>
      </trkpt>
      <trkpt lat="46.19981" lon="-1.36266">
        <ele>11.3</ele>
        <time>2020-06-02T07:23:14Z</time>
      </trkpt>
      <trkpt lat="46.19977" lon="-1.36265">
        <ele>11.3</ele>
        <time>2020-06-02T07:23:15Z</time>
      </trkpt>
      <trkpt lat="46.19972" lon="-1.36263">
        <ele>11.3</ele>
        <time>2020-06-02T07:23:16Z</time>
      </trkpt>
      <trkpt lat="46.19967" lon="-1.3626">
        <ele>11.3</ele>
        <time>2020-06-02T07:23:17Z</time>
      </trkpt>
      <trkpt lat="46.19962" lon="-1.36256">
        <ele>11.3</ele>
        <time>2020-06-02T07:23:18Z</time>
      </trkpt>
      <trkpt lat="46.19957" lon="-1.36253">
        <ele>11.3</ele>
        <time>2020-06-02T07:23:19Z</time>
      </trkpt>
      <trkpt lat="46.19953" lon="-1.36249">
        <ele>11.3</ele>
        <time>2020-06-02T07:23:20Z</time>
      </trkpt>
      <trkpt lat="46.19948" lon="-1.36246">
        <ele>11.3</ele>
        <time>2020-06-02T07:23:21Z</time>
      </trkpt>
      <trkpt lat="46.19944" lon="-1.36241">
        <ele>11.3</ele>
        <time>2020-06-02T07:23:22Z</time>
      </trkpt>
      <trkpt lat="46.19941" lon="-1.36236">
        <ele>11.3</ele>
        <time>2020-06-02T07:23:23Z</time>
      </trkpt>
      <trkpt lat="46.19938" lon="-1.3623">
        <ele>11.3</ele>
        <time>2020-06-02T07:23:24Z</time>
      </trkpt>
      <trkpt lat="46.19935" lon="-1.36224">
        <ele>11.3</ele>
        <time>2020-06-02T07:23:25Z</time>
      </trkpt>
      <trkpt lat="46.19932" lon="-1.36219">
        <ele>11.3</ele>
        <time>2020-06-02T07:23:26Z</time>
      </trkpt>
      <trkpt lat="46.19929" lon="-1.36214">
        <ele>11.3</ele>
        <time>2020-06-02T07:23:27Z</time>
      </trkpt>
      <trkpt lat="46.19925" lon="-1.36209">
        <ele>11.3</ele>
        <time>2020-06-02T07:23:28Z</time>
      </trkpt>
      <trkpt lat="46.19922" lon="-1.36204">
        <ele>11.3</ele>
        <time>2020-06-02T07:23:29Z</time>
      </trkpt>
      <trkpt lat="46.19919" lon="-1.362">
        <ele>11.2</ele>
        <time>2020-06-02T07:23:30Z</time>
      </trkpt>
      <trkpt lat="46.19916" lon="-1.36195">
        <ele>11.2</ele>
        <time>2020-06-02T07:23:31Z</time>
      </trkpt>
      <trkpt lat="46.19912" lon="-1.3619">
        <ele>11.2</ele>
        <time>2020-06-02T07:23:32Z</time>
      </trkpt>
      <trkpt lat="46.1991" lon="-1.36184">
        <ele>11.2</ele>
        <time>2020-06-02T07:23:33Z</time>
      </trkpt>
      <trkpt lat="46.19908" lon="-1.36179">
        <ele>11.1</ele>
        <time>2020-06-02T07:23:34Z</time>
      </trkpt>
      <trkpt lat="46.19905" lon="-1.36173">
        <ele>11.1</ele>
        <time>2020-06-02T07:23:35Z</time>
      </trkpt>
      <trkpt lat="46.19903" lon="-1.36168">
        <ele>11.1</ele>
        <time>2020-06-02T07:23:36Z</time>
      </trkpt>
      <trkpt lat="46.199" lon="-1.36163">
        <ele>11.1</ele>
        <time>2020-06-02T07:23:37Z</time>
      </trkpt>
      <trkpt lat="46.19897" lon="-1.36156">
        <ele>11</ele>
        <time>2020-06-02T07:23:38Z</time>
      </trkpt>
      <trkpt lat="46.19895" lon="-1.36151">
        <ele>11</ele>
        <time>2020-06-02T07:23:39Z</time>
      </trkpt>
      <trkpt lat="46.19891" lon="-1.36145">
        <ele>10.9</ele>
        <time>2020-06-02T07:23:40Z</time>
      </trkpt>
      <trkpt lat="46.19889" lon="-1.36139">
        <ele>10.9</ele>
        <time>2020-06-02T07:23:41Z</time>
      </trkpt>
      <trkpt lat="46.19885" lon="-1.36132">
        <ele>10.8</ele>
        <time>2020-06-02T07:23:42Z</time>
      </trkpt>
      <trkpt lat="46.19882" lon="-1.36126">
        <ele>10.7</ele>
        <time>2020-06-02T07:23:43Z</time>
      </trkpt>
      <trkpt lat="46.19879" lon="-1.3612">
        <ele>10.6</ele>
        <time>2020-06-02T07:23:44Z</time>
      </trkpt>
      <trkpt lat="46.19877" lon="-1.36113">
        <ele>10.5</ele>
        <time>2020-06-02T07:23:45Z</time>
      </trkpt>
      <trkpt lat="46.19874" lon="-1.36106">
        <ele>10.4</ele>
        <time>2020-06-02T07:23:46Z</time>
      </trkpt>
      <trkpt lat="46.19872" lon="-1.36099">
        <ele>10.4</ele>
        <time>2020-06-02T07:23:47Z</time>
      </trkpt>
      <trkpt lat="46.1987" lon="-1.36092">
        <ele>10.3</ele>
        <time>2020-06-02T07:23:48Z</time>
      </trkpt>
      <trkpt lat="46.19868" lon="-1.36084">
        <ele>10.3</ele>
        <time>2020-06-02T07:23:49Z</time>
      </trkpt>
      <trkpt lat="46.19865" lon="-1.36078">
        <ele>10.2</ele>
        <time>2020-06-02T07:23:50Z</time>
      </trkpt>
      <trkpt lat="46.19861" lon="-1.36073">
        <ele>10.1</ele>
        <time>2020-06-02T07:23:51Z</time>
      </trkpt>
      <trkpt lat="46.19857" lon="-1.36069">
        <ele>10.2</ele>
        <time>2020-06-02T07:23:52Z</time>
      </trkpt>
      <trkpt lat="46.19853" lon="-1.36065">
        <ele>10.2</ele>
        <time>2020-06-02T07:23:53Z</time>
      </trkpt>
      <trkpt lat="46.1985" lon="-1.3606">
        <ele>10.2</ele>
        <time>2020-06-02T07:23:54Z</time>
      </trkpt>
      <trkpt lat="46.19847" lon="-1.36053">
        <ele>10.2</ele>
        <time>2020-06-02T07:23:55Z</time>
      </trkpt>
      <trkpt lat="46.19845" lon="-1.36046">
        <ele>10.2</ele>
        <time>2020-06-02T07:23:56Z</time>
      </trkpt>
      <trkpt lat="46.19847" lon="-1.36041">
        <ele>10.2</ele>
        <time>2020-06-02T07:23:57Z</time>
      </trkpt>
      <trkpt lat="46.1985" lon="-1.36035">
        <ele>10.2</ele>
        <time>2020-06-02T07:23:58Z</time>
      </trkpt>
      <trkpt lat="46.19853" lon="-1.36029">
        <ele>10.3</ele>
        <time>2020-06-02T07:23:59Z</time>
      </trkpt>
      <trkpt lat="46.19857" lon="-1.36023">
        <ele>10.4</ele>
        <time>2020-06-02T07:24:00Z</time>
      </trkpt>
      <trkpt lat="46.1986" lon="-1.36016">
        <ele>10.5</ele>
        <time>2020-06-02T07:24:01Z</time>
      </trkpt>
      <trkpt lat="46.19864" lon="-1.36009">
        <ele>10.5</ele>
        <time>2020-06-02T07:24:02Z</time>
      </trkpt>
      <trkpt lat="46.19867" lon="-1.36001">
        <ele>10.5</ele>
        <time>2020-06-02T07:24:03Z</time>
      </trkpt>
      <trkpt lat="46.1987" lon="-1.35994">
        <ele>10.5</ele>
        <time>2020-06-02T07:24:04Z</time>
      </trkpt>
      <trkpt lat="46.19871" lon="-1.35986">
        <ele>10.5</ele>
        <time>2020-06-02T07:24:05Z</time>
      </trkpt>
      <trkpt lat="46.19874" lon="-1.35979">
        <ele>10.5</ele>
        <time>2020-06-02T07:24:06Z</time>
      </trkpt>
      <trkpt lat="46.19876" lon="-1.35971">
        <ele>10.5</ele>
        <time>2020-06-02T07:24:07Z</time>
      </trkpt>
      <trkpt lat="46.19878" lon="-1.35963">
        <ele>10.5</ele>
        <time>2020-06-02T07:24:08Z</time>
      </trkpt>
      <trkpt lat="46.1988" lon="-1.35955">
        <ele>10.5</ele>
        <time>2020-06-02T07:24:09Z</time>
      </trkpt>
      <trkpt lat="46.19881" lon="-1.35947">
        <ele>10.5</ele>
        <time>2020-06-02T07:24:10Z</time>
      </trkpt>
      <trkpt lat="46.19883" lon="-1.35939">
        <ele>10.5</ele>
        <time>2020-06-02T07:24:11Z</time>
      </trkpt>
      <trkpt lat="46.19885" lon="-1.35929">
        <ele>10.5</ele>
        <time>2020-06-02T07:24:12Z</time>
      </trkpt>
      <trkpt lat="46.19887" lon="-1.35921">
        <ele>10.5</ele>
        <time>2020-06-02T07:24:13Z</time>
      </trkpt>
      <trkpt lat="46.19889" lon="-1.35913">
        <ele>10.5</ele>
        <time>2020-06-02T07:24:14Z</time>
      </trkpt>
      <trkpt lat="46.1989" lon="-1.35904">
        <ele>10.5</ele>
        <time>2020-06-02T07:24:15Z</time>
      </trkpt>
      <trkpt lat="46.19892" lon="-1.35896">
        <ele>10.5</ele>
        <time>2020-06-02T07:24:16Z</time>
      </trkpt>
      <trkpt lat="46.19894" lon="-1.35888">
        <ele>10.5</ele>
        <time>2020-06-02T07:24:17Z</time>
      </trkpt>
      <trkpt lat="46.19895" lon="-1.3588">
        <ele>10.5</ele>
        <time>2020-06-02T07:24:18Z</time>
      </trkpt>
      <trkpt lat="46.19896" lon="-1.35871">
        <ele>10.5</ele>
        <time>2020-06-02T07:24:19Z</time>
      </trkpt>
      <trkpt lat="46.19897" lon="-1.35863">
        <ele>10.5</ele>
        <time>2020-06-02T07:24:20Z</time>
      </trkpt>
      <trkpt lat="46.19898" lon="-1.35856">
        <ele>10.5</ele>
        <time>2020-06-02T07:24:21Z</time>
      </trkpt>
      <trkpt lat="46.19898" lon="-1.3585">
        <ele>10.6</ele>
        <time>2020-06-02T07:24:22Z</time>
      </trkpt>
      <trkpt lat="46.19897" lon="-1.35846">
        <ele>10.6</ele>
        <time>2020-06-02T07:24:23Z</time>
      </trkpt>
      <trkpt lat="46.19897" lon="-1.35842">
        <ele>10.6</ele>
        <time>2020-06-02T07:24:24Z</time>
      </trkpt>
      <trkpt lat="46.19896" lon="-1.35837">
        <ele>10.6</ele>
        <time>2020-06-02T07:24:25Z</time>
      </trkpt>
      <trkpt lat="46.19894" lon="-1.3583">
        <ele>10.6</ele>
        <time>2020-06-02T07:24:26Z</time>
      </trkpt>
      <trkpt lat="46.19894" lon="-1.35824">
        <ele>10.6</ele>
        <time>2020-06-02T07:24:27Z</time>
      </trkpt>
      <trkpt lat="46.19892" lon="-1.35818">
        <ele>10.6</ele>
        <time>2020-06-02T07:24:28Z</time>
      </trkpt>
      <trkpt lat="46.19892" lon="-1.35812">
        <ele>10.6</ele>
        <time>2020-06-02T07:24:29Z</time>
      </trkpt>
      <trkpt lat="46.1989" lon="-1.35806">
        <ele>10.6</ele>
        <time>2020-06-02T07:24:30Z</time>
      </trkpt>
      <trkpt lat="46.19889" lon="-1.358">
        <ele>10.6</ele>
        <time>2020-06-02T07:24:31Z</time>
      </trkpt>
      <trkpt lat="46.19886" lon="-1.35794">
        <ele>10.6</ele>
        <time>2020-06-02T07:24:32Z</time>
      </trkpt>
      <trkpt lat="46.19884" lon="-1.35787">
        <ele>10.6</ele>
        <time>2020-06-02T07:24:33Z</time>
      </trkpt>
      <trkpt lat="46.19882" lon="-1.35781">
        <ele>10.6</ele>
        <time>2020-06-02T07:24:34Z</time>
      </trkpt>
      <trkpt lat="46.19881" lon="-1.35775">
        <ele>10.6</ele>
        <time>2020-06-02T07:24:35Z</time>
      </trkpt>
      <trkpt lat="46.19878" lon="-1.35769">
        <ele>10.6</ele>
        <time>2020-06-02T07:24:36Z</time>
      </trkpt>
      <trkpt lat="46.19875" lon="-1.35762">
        <ele>10.6</ele>
        <time>2020-06-02T07:24:37Z</time>
      </trkpt>
      <trkpt lat="46.19873" lon="-1.35755">
        <ele>10.7</ele>
        <time>2020-06-02T07:24:38Z</time>
      </trkpt>
      <trkpt lat="46.19871" lon="-1.35748">
        <ele>10.7</ele>
        <time>2020-06-02T07:24:39Z</time>
      </trkpt>
      <trkpt lat="46.1987" lon="-1.35742">
        <ele>10.7</ele>
        <time>2020-06-02T07:24:40Z</time>
      </trkpt>
      <trkpt lat="46.19869" lon="-1.35735">
        <ele>10.7</ele>
        <time>2020-06-02T07:24:41Z</time>
      </trkpt>
      <trkpt lat="46.19867" lon="-1.35729">
        <ele>10.7</ele>
        <time>2020-06-02T07:24:42Z</time>
      </trkpt>
      <trkpt lat="46.19865" lon="-1.35723">
        <ele>10.7</ele>
        <time>2020-06-02T07:24:43Z</time>
      </trkpt>
      <trkpt lat="46.19864" lon="-1.35716">
        <ele>10.8</ele>
        <time>2020-06-02T07:24:44Z</time>
      </trkpt>
      <trkpt lat="46.19862" lon="-1.35709">
        <ele>10.8</ele>
        <time>2020-06-02T07:24:45Z</time>
      </trkpt>
      <trkpt lat="46.19861" lon="-1.35702">
        <ele>10.8</ele>
        <time>2020-06-02T07:24:46Z</time>
      </trkpt>
      <trkpt lat="46.19859" lon="-1.35695">
        <ele>10.8</ele>
        <time>2020-06-02T07:24:47Z</time>
      </trkpt>
      <trkpt lat="46.19858" lon="-1.35687">
        <ele>10.8</ele>
        <time>2020-06-02T07:24:48Z</time>
      </trkpt>
      <trkpt lat="46.19856" lon="-1.35679">
        <ele>10.9</ele>
        <time>2020-06-02T07:24:49Z</time>
      </trkpt>
      <trkpt lat="46.19854" lon="-1.35672">
        <ele>10.9</ele>
        <time>2020-06-02T07:24:50Z</time>
      </trkpt>
      <trkpt lat="46.19852" lon="-1.35664">
        <ele>10.9</ele>
        <time>2020-06-02T07:24:51Z</time>
      </trkpt>
      <trkpt lat="46.1985" lon="-1.35657">
        <ele>11</ele>
        <time>2020-06-02T07:24:52Z</time>
      </trkpt>
      <trkpt lat="46.19848" lon="-1.35649">
        <ele>11</ele>
        <time>2020-06-02T07:24:53Z</time>
      </trkpt>
      <trkpt lat="46.19846" lon="-1.35641">
        <ele>11</ele>
        <time>2020-06-02T07:24:54Z</time>
      </trkpt>
      <trkpt lat="46.19844" lon="-1.35633">
        <ele>11.1</ele>
        <time>2020-06-02T07:24:55Z</time>
      </trkpt>
      <trkpt lat="46.19842" lon="-1.35625">
        <ele>11.1</ele>
        <time>2020-06-02T07:24:56Z</time>
      </trkpt>
      <trkpt lat="46.19841" lon="-1.35617">
        <ele>11.1</ele>
        <time>2020-06-02T07:24:57Z</time>
      </trkpt>
      <trkpt lat="46.19839" lon="-1.3561">
        <ele>11.2</ele>
        <time>2020-06-02T07:24:58Z</time>
      </trkpt>
      <trkpt lat="46.19836" lon="-1.35602">
        <ele>11.2</ele>
        <time>2020-06-02T07:24:59Z</time>
      </trkpt>
      <trkpt lat="46.19835" lon="-1.35594">
        <ele>11.3</ele>
        <time>2020-06-02T07:25:00Z</time>
      </trkpt>
      <trkpt lat="46.19831" lon="-1.35587">
        <ele>11.3</ele>
        <time>2020-06-02T07:25:01Z</time>
      </trkpt>
      <trkpt lat="46.19829" lon="-1.35579">
        <ele>11.4</ele>
        <time>2020-06-02T07:25:02Z</time>
      </trkpt>
      <trkpt lat="46.19828" lon="-1.3557">
        <ele>11.5</ele>
        <time>2020-06-02T07:25:03Z</time>
      </trkpt>
      <trkpt lat="46.19826" lon="-1.35562">
        <ele>11.5</ele>
        <time>2020-06-02T07:25:04Z</time>
      </trkpt>
      <trkpt lat="46.19825" lon="-1.35555">
        <ele>11.5</ele>
        <time>2020-06-02T07:25:05Z</time>
      </trkpt>
      <trkpt lat="46.19822" lon="-1.35546">
        <ele>11.6</ele>
        <time>2020-06-02T07:25:06Z</time>
      </trkpt>
      <trkpt lat="46.1982" lon="-1.35539">
        <ele>11.6</ele>
        <time>2020-06-02T07:25:07Z</time>
      </trkpt>
      <trkpt lat="46.19818" lon="-1.35531">
        <ele>11.6</ele>
        <time>2020-06-02T07:25:08Z</time>
      </trkpt>
      <trkpt lat="46.19816" lon="-1.35523">
        <ele>11.6</ele>
        <time>2020-06-02T07:25:09Z</time>
      </trkpt>
      <trkpt lat="46.19814" lon="-1.35516">
        <ele>11.6</ele>
        <time>2020-06-02T07:25:10Z</time>
      </trkpt>
      <trkpt lat="46.19812" lon="-1.35508">
        <ele>11.7</ele>
        <time>2020-06-02T07:25:11Z</time>
      </trkpt>
      <trkpt lat="46.1981" lon="-1.35501">
        <ele>11.7</ele>
        <time>2020-06-02T07:25:12Z</time>
      </trkpt>
      <trkpt lat="46.19808" lon="-1.35496">
        <ele>11.7</ele>
        <time>2020-06-02T07:25:13Z</time>
      </trkpt>
      <trkpt lat="46.19805" lon="-1.3549">
        <ele>11.7</ele>
        <time>2020-06-02T07:25:14Z</time>
      </trkpt>
      <trkpt lat="46.19802" lon="-1.35484">
        <ele>11.7</ele>
        <time>2020-06-02T07:25:15Z</time>
      </trkpt>
      <trkpt lat="46.198" lon="-1.35479">
        <ele>11.7</ele>
        <time>2020-06-02T07:25:16Z</time>
      </trkpt>
      <trkpt lat="46.19798" lon="-1.35474">
        <ele>11.7</ele>
        <time>2020-06-02T07:25:17Z</time>
      </trkpt>
      <trkpt lat="46.19797" lon="-1.35468">
        <ele>11.7</ele>
        <time>2020-06-02T07:25:18Z</time>
      </trkpt>
      <trkpt lat="46.19799" lon="-1.35462">
        <ele>11.7</ele>
        <time>2020-06-02T07:25:19Z</time>
      </trkpt>
      <trkpt lat="46.19803" lon="-1.3546">
        <ele>11.7</ele>
        <time>2020-06-02T07:25:20Z</time>
      </trkpt>
      <trkpt lat="46.19807" lon="-1.3546">
        <ele>11.6</ele>
        <time>2020-06-02T07:25:21Z</time>
      </trkpt>
      <trkpt lat="46.19811" lon="-1.35459">
        <ele>11.6</ele>
        <time>2020-06-02T07:25:22Z</time>
      </trkpt>
      <trkpt lat="46.19816" lon="-1.35456">
        <ele>11.6</ele>
        <time>2020-06-02T07:25:23Z</time>
      </trkpt>
      <trkpt lat="46.1982" lon="-1.35453">
        <ele>11.5</ele>
        <time>2020-06-02T07:25:24Z</time>
      </trkpt>
      <trkpt lat="46.19823" lon="-1.35451">
        <ele>11.5</ele>
        <time>2020-06-02T07:25:25Z</time>
      </trkpt>
      <trkpt lat="46.19825" lon="-1.35448">
        <ele>11.5</ele>
        <time>2020-06-02T07:25:26Z</time>
      </trkpt>
      <trkpt lat="46.19825" lon="-1.35447">
        <ele>11.5</ele>
        <time>2020-06-02T07:25:27Z</time>
      </trkpt>
      <trkpt lat="46.19827" lon="-1.35444">
        <ele>11.5</ele>
        <time>2020-06-02T07:25:28Z</time>
      </trkpt>
      <trkpt lat="46.19827" lon="-1.35442">
        <ele>11.5</ele>
        <time>2020-06-02T07:25:29Z</time>
      </trkpt>
      <trkpt lat="46.19829" lon="-1.35441">
        <ele>11.5</ele>
        <time>2020-06-02T07:25:30Z</time>
      </trkpt>
      <trkpt lat="46.1983" lon="-1.3544">
        <ele>11.5</ele>
        <time>2020-06-02T07:25:31Z</time>
      </trkpt>
      <trkpt lat="46.19831" lon="-1.35443">
        <ele>11.5</ele>
        <time>2020-06-02T07:25:32Z</time>
      </trkpt>
      <trkpt lat="46.19831" lon="-1.35445">
        <ele>11.5</ele>
        <time>2020-06-02T07:25:33Z</time>
      </trkpt>
      <trkpt lat="46.1983" lon="-1.35448">
        <ele>11.5</ele>
        <time>2020-06-02T07:25:34Z</time>
      </trkpt>
      <trkpt lat="46.19829" lon="-1.35449">
        <ele>11.5</ele>
        <time>2020-06-02T07:25:35Z</time>
      </trkpt>
      <trkpt lat="46.19827" lon="-1.35453">
        <ele>11.5</ele>
        <time>2020-06-02T07:25:36Z</time>
      </trkpt>
      <trkpt lat="46.19825" lon="-1.35458">
        <ele>11.5</ele>
        <time>2020-06-02T07:25:37Z</time>
      </trkpt>
      <trkpt lat="46.19823" lon="-1.35461">
        <ele>11.6</ele>
        <time>2020-06-02T07:25:38Z</time>
      </trkpt>
      <trkpt lat="46.1982" lon="-1.3546">
        <ele>11.6</ele>
        <time>2020-06-02T07:25:39Z</time>
      </trkpt>
      <trkpt lat="46.19816" lon="-1.35459">
        <ele>11.6</ele>
        <time>2020-06-02T07:25:40Z</time>
      </trkpt>
      <trkpt lat="46.19815" lon="-1.35453">
        <ele>11.6</ele>
        <time>2020-06-02T07:25:41Z</time>
      </trkpt>
      <trkpt lat="46.19812" lon="-1.35447">
        <ele>11.6</ele>
        <time>2020-06-02T07:25:42Z</time>
      </trkpt>
      <trkpt lat="46.19809" lon="-1.35442">
        <ele>11.6</ele>
        <time>2020-06-02T07:25:43Z</time>
      </trkpt>
      <trkpt lat="46.19806" lon="-1.35436">
        <ele>11.6</ele>
        <time>2020-06-02T07:25:44Z</time>
      </trkpt>
      <trkpt lat="46.19802" lon="-1.35429">
        <ele>11.5</ele>
        <time>2020-06-02T07:25:45Z</time>
      </trkpt>
      <trkpt lat="46.19798" lon="-1.35423">
        <ele>11.5</ele>
        <time>2020-06-02T07:25:46Z</time>
      </trkpt>
      <trkpt lat="46.19791" lon="-1.35416">
        <ele>11.5</ele>
        <time>2020-06-02T07:25:47Z</time>
      </trkpt>
      <trkpt lat="46.19787" lon="-1.3541">
        <ele>11.5</ele>
        <time>2020-06-02T07:25:48Z</time>
      </trkpt>
      <trkpt lat="46.19783" lon="-1.35404">
        <ele>11.5</ele>
        <time>2020-06-02T07:25:49Z</time>
      </trkpt>
      <trkpt lat="46.1978" lon="-1.35398">
        <ele>11.5</ele>
        <time>2020-06-02T07:25:50Z</time>
      </trkpt>
      <trkpt lat="46.19777" lon="-1.35391">
        <ele>11.5</ele>
        <time>2020-06-02T07:25:51Z</time>
      </trkpt>
      <trkpt lat="46.19775" lon="-1.35383">
        <ele>11.5</ele>
        <time>2020-06-02T07:25:52Z</time>
      </trkpt>
      <trkpt lat="46.19772" lon="-1.35376">
        <ele>11.5</ele>
        <time>2020-06-02T07:25:53Z</time>
      </trkpt>
      <trkpt lat="46.1977" lon="-1.35368">
        <ele>11.5</ele>
        <time>2020-06-02T07:25:54Z</time>
      </trkpt>
      <trkpt lat="46.19767" lon="-1.3536">
        <ele>11.5</ele>
        <time>2020-06-02T07:25:55Z</time>
      </trkpt>
      <trkpt lat="46.19764" lon="-1.35353">
        <ele>11.4</ele>
        <time>2020-06-02T07:25:56Z</time>
      </trkpt>
      <trkpt lat="46.19761" lon="-1.35344">
        <ele>11.4</ele>
        <time>2020-06-02T07:25:57Z</time>
      </trkpt>
      <trkpt lat="46.19758" lon="-1.35336">
        <ele>11.4</ele>
        <time>2020-06-02T07:25:58Z</time>
      </trkpt>
      <trkpt lat="46.19756" lon="-1.35328">
        <ele>11.4</ele>
        <time>2020-06-02T07:25:59Z</time>
      </trkpt>
      <trkpt lat="46.19753" lon="-1.3532">
        <ele>11.4</ele>
        <time>2020-06-02T07:26:00Z</time>
      </trkpt>
      <trkpt lat="46.1975" lon="-1.35312">
        <ele>11.4</ele>
        <time>2020-06-02T07:26:01Z</time>
      </trkpt>
      <trkpt lat="46.19747" lon="-1.35304">
        <ele>11.4</ele>
        <time>2020-06-02T07:26:02Z</time>
      </trkpt>
      <trkpt lat="46.19744" lon="-1.35296">
        <ele>11.4</ele>
        <time>2020-06-02T07:26:03Z</time>
      </trkpt>
      <trkpt lat="46.19741" lon="-1.35288">
        <ele>11.4</ele>
        <time>2020-06-02T07:26:04Z</time>
      </trkpt>
      <trkpt lat="46.19736" lon="-1.35278">
        <ele>11.3</ele>
        <time>2020-06-02T07:26:05Z</time>
      </trkpt>
      <trkpt lat="46.19732" lon="-1.35268">
        <ele>11.3</ele>
        <time>2020-06-02T07:26:06Z</time>
      </trkpt>
      <trkpt lat="46.19728" lon="-1.35259">
        <ele>11.3</ele>
        <time>2020-06-02T07:26:07Z</time>
      </trkpt>
      <trkpt lat="46.19723" lon="-1.35249">
        <ele>11.3</ele>
        <time>2020-06-02T07:26:08Z</time>
      </trkpt>
      <trkpt lat="46.19719" lon="-1.35241">
        <ele>11.2</ele>
        <time>2020-06-02T07:26:09Z</time>
      </trkpt>
      <trkpt lat="46.19714" lon="-1.35232">
        <ele>11.2</ele>
        <time>2020-06-02T07:26:10Z</time>
      </trkpt>
      <trkpt lat="46.1971" lon="-1.35223">
        <ele>11.2</ele>
        <time>2020-06-02T07:26:11Z</time>
      </trkpt>
      <trkpt lat="46.19706" lon="-1.35215">
        <ele>11.2</ele>
        <time>2020-06-02T07:26:12Z</time>
      </trkpt>
      <trkpt lat="46.19701" lon="-1.35207">
        <ele>11.1</ele>
        <time>2020-06-02T07:26:13Z</time>
      </trkpt>
      <trkpt lat="46.19697" lon="-1.35198">
        <ele>11.1</ele>
        <time>2020-06-02T07:26:14Z</time>
      </trkpt>
      <trkpt lat="46.19693" lon="-1.35188">
        <ele>11.1</ele>
        <time>2020-06-02T07:26:15Z</time>
      </trkpt>
      <trkpt lat="46.19689" lon="-1.3518">
        <ele>11.1</ele>
        <time>2020-06-02T07:26:16Z</time>
      </trkpt>
      <trkpt lat="46.19685" lon="-1.35172">
        <ele>11.1</ele>
        <time>2020-06-02T07:26:17Z</time>
      </trkpt>
      <trkpt lat="46.19681" lon="-1.35162">
        <ele>11.1</ele>
        <time>2020-06-02T07:26:18Z</time>
      </trkpt>
      <trkpt lat="46.19676" lon="-1.35154">
        <ele>11</ele>
        <time>2020-06-02T07:26:19Z</time>
      </trkpt>
      <trkpt lat="46.19672" lon="-1.35146">
        <ele>11</ele>
        <time>2020-06-02T07:26:20Z</time>
      </trkpt>
      <trkpt lat="46.19668" lon="-1.35137">
        <ele>11</ele>
        <time>2020-06-02T07:26:21Z</time>
      </trkpt>
      <trkpt lat="46.19663" lon="-1.35128">
        <ele>10.9</ele>
        <time>2020-06-02T07:26:22Z</time>
      </trkpt>
      <trkpt lat="46.19659" lon="-1.35119">
        <ele>10.9</ele>
        <time>2020-06-02T07:26:23Z</time>
      </trkpt>
      <trkpt lat="46.19655" lon="-1.3511">
        <ele>10.9</ele>
        <time>2020-06-02T07:26:24Z</time>
      </trkpt>
      <trkpt lat="46.19651" lon="-1.35102">
        <ele>10.9</ele>
        <time>2020-06-02T07:26:25Z</time>
      </trkpt>
      <trkpt lat="46.19647" lon="-1.35093">
        <ele>10.9</ele>
        <time>2020-06-02T07:26:26Z</time>
      </trkpt>
      <trkpt lat="46.19643" lon="-1.35085">
        <ele>10.9</ele>
        <time>2020-06-02T07:26:27Z</time>
      </trkpt>
      <trkpt lat="46.19639" lon="-1.35077">
        <ele>10.9</ele>
        <time>2020-06-02T07:26:28Z</time>
      </trkpt>
      <trkpt lat="46.19636" lon="-1.35069">
        <ele>10.9</ele>
        <time>2020-06-02T07:26:29Z</time>
      </trkpt>
      <trkpt lat="46.19633" lon="-1.35062">
        <ele>10.9</ele>
        <time>2020-06-02T07:26:30Z</time>
      </trkpt>
      <trkpt lat="46.1963" lon="-1.35056">
        <ele>10.9</ele>
        <time>2020-06-02T07:26:31Z</time>
      </trkpt>
      <trkpt lat="46.19627" lon="-1.35051">
        <ele>10.9</ele>
        <time>2020-06-02T07:26:32Z</time>
      </trkpt>
      <trkpt lat="46.19624" lon="-1.35045">
        <ele>10.9</ele>
        <time>2020-06-02T07:26:33Z</time>
      </trkpt>
      <trkpt lat="46.19621" lon="-1.3504">
        <ele>10.9</ele>
        <time>2020-06-02T07:26:34Z</time>
      </trkpt>
      <trkpt lat="46.19619" lon="-1.35034">
        <ele>10.9</ele>
        <time>2020-06-02T07:26:35Z</time>
      </trkpt>
      <trkpt lat="46.19616" lon="-1.35029">
        <ele>10.9</ele>
        <time>2020-06-02T07:26:36Z</time>
      </trkpt>
      <trkpt lat="46.19614" lon="-1.35023">
        <ele>10.9</ele>
        <time>2020-06-02T07:26:37Z</time>
      </trkpt>
      <trkpt lat="46.19612" lon="-1.35017">
        <ele>10.9</ele>
        <time>2020-06-02T07:26:38Z</time>
      </trkpt>
      <trkpt lat="46.1961" lon="-1.35011">
        <ele>11</ele>
        <time>2020-06-02T07:26:39Z</time>
      </trkpt>
      <trkpt lat="46.19608" lon="-1.35004">
        <ele>11</ele>
        <time>2020-06-02T07:26:40Z</time>
      </trkpt>
      <trkpt lat="46.19605" lon="-1.34998">
        <ele>11</ele>
        <time>2020-06-02T07:26:41Z</time>
      </trkpt>
      <trkpt lat="46.19602" lon="-1.34991">
        <ele>11</ele>
        <time>2020-06-02T07:26:42Z</time>
      </trkpt>
      <trkpt lat="46.19598" lon="-1.34985">
        <ele>11</ele>
        <time>2020-06-02T07:26:43Z</time>
      </trkpt>
      <trkpt lat="46.19595" lon="-1.34978">
        <ele>11.1</ele>
        <time>2020-06-02T07:26:44Z</time>
      </trkpt>
      <trkpt lat="46.19591" lon="-1.34972">
        <ele>11.1</ele>
        <time>2020-06-02T07:26:45Z</time>
      </trkpt>
      <trkpt lat="46.19587" lon="-1.34966">
        <ele>11.1</ele>
        <time>2020-06-02T07:26:46Z</time>
      </trkpt>
      <trkpt lat="46.19584" lon="-1.34959">
        <ele>11.1</ele>
        <time>2020-06-02T07:26:47Z</time>
      </trkpt>
      <trkpt lat="46.1958" lon="-1.34953">
        <ele>11.1</ele>
        <time>2020-06-02T07:26:48Z</time>
      </trkpt>
      <trkpt lat="46.19576" lon="-1.34948">
        <ele>11.1</ele>
        <time>2020-06-02T07:26:49Z</time>
      </trkpt>
      <trkpt lat="46.19572" lon="-1.34942">
        <ele>11.1</ele>
        <time>2020-06-02T07:26:50Z</time>
      </trkpt>
      <trkpt lat="46.19567" lon="-1.34936">
        <ele>11.1</ele>
        <time>2020-06-02T07:26:51Z</time>
      </trkpt>
      <trkpt lat="46.19564" lon="-1.3493">
        <ele>11.1</ele>
        <time>2020-06-02T07:26:52Z</time>
      </trkpt>
      <trkpt lat="46.1956" lon="-1.34924">
        <ele>11.1</ele>
        <time>2020-06-02T07:26:53Z</time>
      </trkpt>
      <trkpt lat="46.19556" lon="-1.34919">
        <ele>11.1</ele>
        <time>2020-06-02T07:26:54Z</time>
      </trkpt>
      <trkpt lat="46.19553" lon="-1.34913">
        <ele>11.1</ele>
        <time>2020-06-02T07:26:55Z</time>
      </trkpt>
      <trkpt lat="46.1955" lon="-1.34908">
        <ele>11.1</ele>
        <time>2020-06-02T07:26:56Z</time>
      </trkpt>
      <trkpt lat="46.19548" lon="-1.34902">
        <ele>11.1</ele>
        <time>2020-06-02T07:26:57Z</time>
      </trkpt>
      <trkpt lat="46.19546" lon="-1.34896">
        <ele>11.1</ele>
        <time>2020-06-02T07:26:58Z</time>
      </trkpt>
      <trkpt lat="46.19543" lon="-1.3489">
        <ele>11.1</ele>
        <time>2020-06-02T07:26:59Z</time>
      </trkpt>
      <trkpt lat="46.1954" lon="-1.34885">
        <ele>11.1</ele>
        <time>2020-06-02T07:27:00Z</time>
      </trkpt>
      <trkpt lat="46.19537" lon="-1.3488">
        <ele>11</ele>
        <time>2020-06-02T07:27:01Z</time>
      </trkpt>
      <trkpt lat="46.19533" lon="-1.34875">
        <ele>11</ele>
        <time>2020-06-02T07:27:02Z</time>
      </trkpt>
      <trkpt lat="46.19529" lon="-1.3487">
        <ele>11</ele>
        <time>2020-06-02T07:27:03Z</time>
      </trkpt>
      <trkpt lat="46.19525" lon="-1.34865">
        <ele>11</ele>
        <time>2020-06-02T07:27:04Z</time>
      </trkpt>
      <trkpt lat="46.19521" lon="-1.3486">
        <ele>11</ele>
        <time>2020-06-02T07:27:05Z</time>
      </trkpt>
      <trkpt lat="46.19518" lon="-1.34855">
        <ele>11</ele>
        <time>2020-06-02T07:27:06Z</time>
      </trkpt>
      <trkpt lat="46.19514" lon="-1.3485">
        <ele>10.9</ele>
        <time>2020-06-02T07:27:07Z</time>
      </trkpt>
      <trkpt lat="46.19511" lon="-1.34844">
        <ele>10.9</ele>
        <time>2020-06-02T07:27:08Z</time>
      </trkpt>
      <trkpt lat="46.19507" lon="-1.34838">
        <ele>10.9</ele>
        <time>2020-06-02T07:27:09Z</time>
      </trkpt>
      <trkpt lat="46.19503" lon="-1.34833">
        <ele>10.9</ele>
        <time>2020-06-02T07:27:10Z</time>
      </trkpt>
      <trkpt lat="46.195" lon="-1.34827">
        <ele>10.9</ele>
        <time>2020-06-02T07:27:11Z</time>
      </trkpt>
      <trkpt lat="46.19497" lon="-1.34821">
        <ele>10.8</ele>
        <time>2020-06-02T07:27:12Z</time>
      </trkpt>
      <trkpt lat="46.19494" lon="-1.34815">
        <ele>10.8</ele>
        <time>2020-06-02T07:27:13Z</time>
      </trkpt>
      <trkpt lat="46.1949" lon="-1.34809">
        <ele>10.8</ele>
        <time>2020-06-02T07:27:14Z</time>
      </trkpt>
      <trkpt lat="46.19486" lon="-1.34803">
        <ele>10.8</ele>
        <time>2020-06-02T07:27:15Z</time>
      </trkpt>
      <trkpt lat="46.19482" lon="-1.34798">
        <ele>10.8</ele>
        <time>2020-06-02T07:27:16Z</time>
      </trkpt>
      <trkpt lat="46.19478" lon="-1.34791">
        <ele>10.7</ele>
        <time>2020-06-02T07:27:17Z</time>
      </trkpt>
      <trkpt lat="46.19475" lon="-1.34785">
        <ele>10.7</ele>
        <time>2020-06-02T07:27:18Z</time>
      </trkpt>
      <trkpt lat="46.19471" lon="-1.34779">
        <ele>10.7</ele>
        <time>2020-06-02T07:27:19Z</time>
      </trkpt>
      <trkpt lat="46.19468" lon="-1.34772">
        <ele>10.7</ele>
        <time>2020-06-02T07:27:20Z</time>
      </trkpt>
      <trkpt lat="46.19464" lon="-1.34766">
        <ele>10.6</ele>
        <time>2020-06-02T07:27:21Z</time>
      </trkpt>
      <trkpt lat="46.19461" lon="-1.3476">
        <ele>10.6</ele>
        <time>2020-06-02T07:27:22Z</time>
      </trkpt>
      <trkpt lat="46.19458" lon="-1.34753">
        <ele>10.6</ele>
        <time>2020-06-02T07:27:23Z</time>
      </trkpt>
      <trkpt lat="46.19456" lon="-1.34746">
        <ele>10.6</ele>
        <time>2020-06-02T07:27:24Z</time>
      </trkpt>
      <trkpt lat="46.19454" lon="-1.34739">
        <ele>10.6</ele>
        <time>2020-06-02T07:27:25Z</time>
      </trkpt>
      <trkpt lat="46.19452" lon="-1.34732">
        <ele>10.6</ele>
        <time>2020-06-02T07:27:26Z</time>
      </trkpt>
      <trkpt lat="46.19449" lon="-1.34727">
        <ele>10.6</ele>
        <time>2020-06-02T07:27:27Z</time>
      </trkpt>
      <trkpt lat="46.19446" lon="-1.34721">
        <ele>10.6</ele>
        <time>2020-06-02T07:27:28Z</time>
      </trkpt>
      <trkpt lat="46.19444" lon="-1.34714">
        <ele>10.5</ele>
        <time>2020-06-02T07:27:29Z</time>
      </trkpt>
      <trkpt lat="46.19442" lon="-1.34708">
        <ele>10.5</ele>
        <time>2020-06-02T07:27:30Z</time>
      </trkpt>
      <trkpt lat="46.19439" lon="-1.34702">
        <ele>10.5</ele>
        <time>2020-06-02T07:27:31Z</time>
      </trkpt>
      <trkpt lat="46.19438" lon="-1.34695">
        <ele>10.5</ele>
        <time>2020-06-02T07:27:32Z</time>
      </trkpt>
      <trkpt lat="46.19435" lon="-1.34688">
        <ele>10.5</ele>
        <time>2020-06-02T07:27:33Z</time>
      </trkpt>
      <trkpt lat="46.19433" lon="-1.34681">
        <ele>10.5</ele>
        <time>2020-06-02T07:27:34Z</time>
      </trkpt>
      <trkpt lat="46.19431" lon="-1.34673">
        <ele>10.6</ele>
        <time>2020-06-02T07:27:35Z</time>
      </trkpt>
      <trkpt lat="46.1943" lon="-1.34667">
        <ele>10.6</ele>
        <time>2020-06-02T07:27:36Z</time>
      </trkpt>
      <trkpt lat="46.19428" lon="-1.34663">
        <ele>10.6</ele>
        <time>2020-06-02T07:27:37Z</time>
      </trkpt>
      <trkpt lat="46.19428" lon="-1.34659">
        <ele>10.7</ele>
        <time>2020-06-02T07:27:38Z</time>
      </trkpt>
      <trkpt lat="46.19426" lon="-1.34654">
        <ele>10.8</ele>
        <time>2020-06-02T07:27:39Z</time>
      </trkpt>
      <trkpt lat="46.19425" lon="-1.34654">
        <ele>10.8</ele>
        <time>2020-06-02T07:27:40Z</time>
      </trkpt>
      <trkpt lat="46.19422" lon="-1.34655">
        <ele>11.1</ele>
        <time>2020-06-02T07:27:41Z</time>
      </trkpt>
      <trkpt lat="46.19421" lon="-1.34655">
        <ele>11.1</ele>
        <time>2020-06-02T07:27:42Z</time>
      </trkpt>
      <trkpt lat="46.19418" lon="-1.34655">
        <ele>11.1</ele>
        <time>2020-06-02T07:27:43Z</time>
      </trkpt>
      <trkpt lat="46.19417" lon="-1.34654">
        <ele>11.1</ele>
        <time>2020-06-02T07:27:44Z</time>
      </trkpt>
      <trkpt lat="46.19414" lon="-1.34653">
        <ele>11.2</ele>
        <time>2020-06-02T07:27:45Z</time>
      </trkpt>
      <trkpt lat="46.19413" lon="-1.34653">
        <ele>11.2</ele>
        <time>2020-06-02T07:27:46Z</time>
      </trkpt>
      <trkpt lat="46.1941" lon="-1.34653">
        <ele>11.2</ele>
        <time>2020-06-02T07:27:47Z</time>
      </trkpt>
      <trkpt lat="46.19409" lon="-1.34653">
        <ele>11.2</ele>
        <time>2020-06-02T07:27:48Z</time>
      </trkpt>
      <trkpt lat="46.19405" lon="-1.34655">
        <ele>11.2</ele>
        <time>2020-06-02T07:27:49Z</time>
      </trkpt>
      <trkpt lat="46.19403" lon="-1.34655">
        <ele>11.2</ele>
        <time>2020-06-02T07:27:50Z</time>
      </trkpt>
      <trkpt lat="46.194" lon="-1.34657">
        <ele>11.2</ele>
        <time>2020-06-02T07:27:51Z</time>
      </trkpt>
      <trkpt lat="46.19396" lon="-1.34659">
        <ele>11.2</ele>
        <time>2020-06-02T07:27:52Z</time>
      </trkpt>
      <trkpt lat="46.19392" lon="-1.3466">
        <ele>11.2</ele>
        <time>2020-06-02T07:27:53Z</time>
      </trkpt>
      <trkpt lat="46.19388" lon="-1.3466">
        <ele>11.2</ele>
        <time>2020-06-02T07:27:54Z</time>
      </trkpt>
      <trkpt lat="46.19384" lon="-1.3466">
        <ele>11.2</ele>
        <time>2020-06-02T07:27:55Z</time>
      </trkpt>
      <trkpt lat="46.19379" lon="-1.34658">
        <ele>11.2</ele>
        <time>2020-06-02T07:27:56Z</time>
      </trkpt>
      <trkpt lat="46.19376" lon="-1.34654">
        <ele>11.2</ele>
        <time>2020-06-02T07:27:57Z</time>
      </trkpt>
      <trkpt lat="46.19371" lon="-1.34651">
        <ele>11.2</ele>
        <time>2020-06-02T07:27:58Z</time>
      </trkpt>
      <trkpt lat="46.19367" lon="-1.34648">
        <ele>11.2</ele>
        <time>2020-06-02T07:27:59Z</time>
      </trkpt>
      <trkpt lat="46.19363" lon="-1.34644">
        <ele>11.2</ele>
        <time>2020-06-02T07:28:00Z</time>
      </trkpt>
      <trkpt lat="46.19359" lon="-1.34641">
        <ele>11.2</ele>
        <time>2020-06-02T07:28:01Z</time>
      </trkpt>
      <trkpt lat="46.19354" lon="-1.34637">
        <ele>11.2</ele>
        <time>2020-06-02T07:28:02Z</time>
      </trkpt>
      <trkpt lat="46.1935" lon="-1.34634">
        <ele>11.2</ele>
        <time>2020-06-02T07:28:03Z</time>
      </trkpt>
      <trkpt lat="46.19346" lon="-1.34631">
        <ele>11.2</ele>
        <time>2020-06-02T07:28:04Z</time>
      </trkpt>
      <trkpt lat="46.19341" lon="-1.34628">
        <ele>11.2</ele>
        <time>2020-06-02T07:28:05Z</time>
      </trkpt>
      <trkpt lat="46.19337" lon="-1.34626">
        <ele>11.2</ele>
        <time>2020-06-02T07:28:06Z</time>
      </trkpt>
      <trkpt lat="46.19332" lon="-1.34623">
        <ele>11.2</ele>
        <time>2020-06-02T07:28:07Z</time>
      </trkpt>
      <trkpt lat="46.19328" lon="-1.34622">
        <ele>11.2</ele>
        <time>2020-06-02T07:28:08Z</time>
      </trkpt>
      <trkpt lat="46.19323" lon="-1.34619">
        <ele>11.2</ele>
        <time>2020-06-02T07:28:09Z</time>
      </trkpt>
      <trkpt lat="46.19318" lon="-1.34617">
        <ele>11.1</ele>
        <time>2020-06-02T07:28:10Z</time>
      </trkpt>
      <trkpt lat="46.19315" lon="-1.34614">
        <ele>11.1</ele>
        <time>2020-06-02T07:28:11Z</time>
      </trkpt>
      <trkpt lat="46.19314" lon="-1.34609">
        <ele>11.1</ele>
        <time>2020-06-02T07:28:12Z</time>
      </trkpt>
      <trkpt lat="46.19312" lon="-1.34603">
        <ele>11.1</ele>
        <time>2020-06-02T07:28:13Z</time>
      </trkpt>
      <trkpt lat="46.19311" lon="-1.34596">
        <ele>11</ele>
        <time>2020-06-02T07:28:14Z</time>
      </trkpt>
      <trkpt lat="46.19309" lon="-1.3459">
        <ele>11</ele>
        <time>2020-06-02T07:28:15Z</time>
      </trkpt>
      <trkpt lat="46.19307" lon="-1.34583">
        <ele>11</ele>
        <time>2020-06-02T07:28:16Z</time>
      </trkpt>
      <trkpt lat="46.19306" lon="-1.34576">
        <ele>10.9</ele>
        <time>2020-06-02T07:28:17Z</time>
      </trkpt>
      <trkpt lat="46.19305" lon="-1.34569">
        <ele>10.9</ele>
        <time>2020-06-02T07:28:18Z</time>
      </trkpt>
      <trkpt lat="46.19305" lon="-1.34561">
        <ele>10.9</ele>
        <time>2020-06-02T07:28:19Z</time>
      </trkpt>
      <trkpt lat="46.19303" lon="-1.34553">
        <ele>10.9</ele>
        <time>2020-06-02T07:28:20Z</time>
      </trkpt>
      <trkpt lat="46.19301" lon="-1.34546">
        <ele>10.8</ele>
        <time>2020-06-02T07:28:21Z</time>
      </trkpt>
      <trkpt lat="46.19299" lon="-1.3454">
        <ele>10.8</ele>
        <time>2020-06-02T07:28:22Z</time>
      </trkpt>
      <trkpt lat="46.19296" lon="-1.34533">
        <ele>10.8</ele>
        <time>2020-06-02T07:28:23Z</time>
      </trkpt>
      <trkpt lat="46.19294" lon="-1.34526">
        <ele>10.7</ele>
        <time>2020-06-02T07:28:24Z</time>
      </trkpt>
      <trkpt lat="46.19291" lon="-1.3452">
        <ele>10.7</ele>
        <time>2020-06-02T07:28:25Z</time>
      </trkpt>
      <trkpt lat="46.1929" lon="-1.34513">
        <ele>10.7</ele>
        <time>2020-06-02T07:28:26Z</time>
      </trkpt>
      <trkpt lat="46.19288" lon="-1.34506">
        <ele>10.7</ele>
        <time>2020-06-02T07:28:27Z</time>
      </trkpt>
      <trkpt lat="46.19287" lon="-1.34498">
        <ele>10.7</ele>
        <time>2020-06-02T07:28:28Z</time>
      </trkpt>
      <trkpt lat="46.19285" lon="-1.34491">
        <ele>10.7</ele>
        <time>2020-06-02T07:28:29Z</time>
      </trkpt>
      <trkpt lat="46.19283" lon="-1.34484">
        <ele>10.7</ele>
        <time>2020-06-02T07:28:30Z</time>
      </trkpt>
      <trkpt lat="46.19282" lon="-1.34477">
        <ele>10.7</ele>
        <time>2020-06-02T07:28:31Z</time>
      </trkpt>
      <trkpt lat="46.1928" lon="-1.3447">
        <ele>10.7</ele>
        <time>2020-06-02T07:28:32Z</time>
      </trkpt>
      <trkpt lat="46.19278" lon="-1.34463">
        <ele>10.7</ele>
        <time>2020-06-02T07:28:33Z</time>
      </trkpt>
      <trkpt lat="46.19275" lon="-1.34457">
        <ele>10.6</ele>
        <time>2020-06-02T07:28:34Z</time>
      </trkpt>
      <trkpt lat="46.19274" lon="-1.3445">
        <ele>10.6</ele>
        <time>2020-06-02T07:28:35Z</time>
      </trkpt>
      <trkpt lat="46.19271" lon="-1.34443">
        <ele>10.5</ele>
        <time>2020-06-02T07:28:36Z</time>
      </trkpt>
      <trkpt lat="46.19269" lon="-1.34437">
        <ele>10.4</ele>
        <time>2020-06-02T07:28:37Z</time>
      </trkpt>
      <trkpt lat="46.19268" lon="-1.3443">
        <ele>10.3</ele>
        <time>2020-06-02T07:28:38Z</time>
      </trkpt>
      <trkpt lat="46.19267" lon="-1.34423">
        <ele>10.2</ele>
        <time>2020-06-02T07:28:39Z</time>
      </trkpt>
      <trkpt lat="46.19265" lon="-1.34416">
        <ele>10.1</ele>
        <time>2020-06-02T07:28:40Z</time>
      </trkpt>
      <trkpt lat="46.19264" lon="-1.34409">
        <ele>10</ele>
        <time>2020-06-02T07:28:41Z</time>
      </trkpt>
      <trkpt lat="46.19262" lon="-1.34402">
        <ele>9.9</ele>
        <time>2020-06-02T07:28:42Z</time>
      </trkpt>
      <trkpt lat="46.19261" lon="-1.34394">
        <ele>9.9</ele>
        <time>2020-06-02T07:28:43Z</time>
      </trkpt>
      <trkpt lat="46.1926" lon="-1.34387">
        <ele>9.8</ele>
        <time>2020-06-02T07:28:44Z</time>
      </trkpt>
      <trkpt lat="46.19259" lon="-1.3438">
        <ele>9.8</ele>
        <time>2020-06-02T07:28:45Z</time>
      </trkpt>
      <trkpt lat="46.19257" lon="-1.34373">
        <ele>9.8</ele>
        <time>2020-06-02T07:28:46Z</time>
      </trkpt>
      <trkpt lat="46.19256" lon="-1.34366">
        <ele>9.7</ele>
        <time>2020-06-02T07:28:47Z</time>
      </trkpt>
      <trkpt lat="46.19255" lon="-1.34359">
        <ele>9.7</ele>
        <time>2020-06-02T07:28:48Z</time>
      </trkpt>
      <trkpt lat="46.19253" lon="-1.34352">
        <ele>9.6</ele>
        <time>2020-06-02T07:28:49Z</time>
      </trkpt>
      <trkpt lat="46.19251" lon="-1.34346">
        <ele>9.6</ele>
        <time>2020-06-02T07:28:50Z</time>
      </trkpt>
      <trkpt lat="46.1925" lon="-1.34339">
        <ele>9.5</ele>
        <time>2020-06-02T07:28:51Z</time>
      </trkpt>
      <trkpt lat="46.19248" lon="-1.34332">
        <ele>9.4</ele>
        <time>2020-06-02T07:28:52Z</time>
      </trkpt>
      <trkpt lat="46.19247" lon="-1.34326">
        <ele>9.3</ele>
        <time>2020-06-02T07:28:53Z</time>
      </trkpt>
      <trkpt lat="46.19245" lon="-1.34319">
        <ele>9.3</ele>
        <time>2020-06-02T07:28:54Z</time>
      </trkpt>
      <trkpt lat="46.19244" lon="-1.34312">
        <ele>9.2</ele>
        <time>2020-06-02T07:28:55Z</time>
      </trkpt>
      <trkpt lat="46.19242" lon="-1.34305">
        <ele>9.1</ele>
        <time>2020-06-02T07:28:56Z</time>
      </trkpt>
      <trkpt lat="46.1924" lon="-1.34298">
        <ele>9</ele>
        <time>2020-06-02T07:28:57Z</time>
      </trkpt>
      <trkpt lat="46.1924" lon="-1.3429">
        <ele>9</ele>
        <time>2020-06-02T07:28:58Z</time>
      </trkpt>
      <trkpt lat="46.19237" lon="-1.34283">
        <ele>8.9</ele>
        <time>2020-06-02T07:28:59Z</time>
      </trkpt>
      <trkpt lat="46.19236" lon="-1.34276">
        <ele>8.8</ele>
        <time>2020-06-02T07:29:00Z</time>
      </trkpt>
      <trkpt lat="46.19233" lon="-1.34269">
        <ele>8.7</ele>
        <time>2020-06-02T07:29:01Z</time>
      </trkpt>
      <trkpt lat="46.1923" lon="-1.34262">
        <ele>8.6</ele>
        <time>2020-06-02T07:29:02Z</time>
      </trkpt>
      <trkpt lat="46.19228" lon="-1.34254">
        <ele>8.5</ele>
        <time>2020-06-02T07:29:03Z</time>
      </trkpt>
      <trkpt lat="46.19226" lon="-1.34247">
        <ele>8.4</ele>
        <time>2020-06-02T07:29:04Z</time>
      </trkpt>
      <trkpt lat="46.19224" lon="-1.34239">
        <ele>8.3</ele>
        <time>2020-06-02T07:29:05Z</time>
      </trkpt>
      <trkpt lat="46.19223" lon="-1.34231">
        <ele>8.2</ele>
        <time>2020-06-02T07:29:06Z</time>
      </trkpt>
      <trkpt lat="46.19222" lon="-1.34223">
        <ele>8.1</ele>
        <time>2020-06-02T07:29:07Z</time>
      </trkpt>
      <trkpt lat="46.1922" lon="-1.34215">
        <ele>8</ele>
        <time>2020-06-02T07:29:08Z</time>
      </trkpt>
      <trkpt lat="46.19219" lon="-1.34207">
        <ele>7.9</ele>
        <time>2020-06-02T07:29:09Z</time>
      </trkpt>
      <trkpt lat="46.19217" lon="-1.34199">
        <ele>7.8</ele>
        <time>2020-06-02T07:29:10Z</time>
      </trkpt>
      <trkpt lat="46.19215" lon="-1.34191">
        <ele>7.7</ele>
        <time>2020-06-02T07:29:11Z</time>
      </trkpt>
      <trkpt lat="46.19214" lon="-1.34183">
        <ele>7.6</ele>
        <time>2020-06-02T07:29:12Z</time>
      </trkpt>
      <trkpt lat="46.19212" lon="-1.34175">
        <ele>7.6</ele>
        <time>2020-06-02T07:29:13Z</time>
      </trkpt>
      <trkpt lat="46.1921" lon="-1.34167">
        <ele>7.5</ele>
        <time>2020-06-02T07:29:14Z</time>
      </trkpt>
      <trkpt lat="46.19208" lon="-1.34159">
        <ele>7.4</ele>
        <time>2020-06-02T07:29:15Z</time>
      </trkpt>
      <trkpt lat="46.19206" lon="-1.34151">
        <ele>7.3</ele>
        <time>2020-06-02T07:29:16Z</time>
      </trkpt>
      <trkpt lat="46.19204" lon="-1.34143">
        <ele>7.2</ele>
        <time>2020-06-02T07:29:17Z</time>
      </trkpt>
      <trkpt lat="46.19203" lon="-1.34134">
        <ele>7.1</ele>
        <time>2020-06-02T07:29:18Z</time>
      </trkpt>
      <trkpt lat="46.19201" lon="-1.34126">
        <ele>7</ele>
        <time>2020-06-02T07:29:19Z</time>
      </trkpt>
      <trkpt lat="46.19198" lon="-1.34119">
        <ele>6.9</ele>
        <time>2020-06-02T07:29:20Z</time>
      </trkpt>
      <trkpt lat="46.19196" lon="-1.34111">
        <ele>6.8</ele>
        <time>2020-06-02T07:29:21Z</time>
      </trkpt>
      <trkpt lat="46.19193" lon="-1.34103">
        <ele>6.7</ele>
        <time>2020-06-02T07:29:22Z</time>
      </trkpt>
      <trkpt lat="46.19191" lon="-1.34094">
        <ele>6.6</ele>
        <time>2020-06-02T07:29:23Z</time>
      </trkpt>
      <trkpt lat="46.19189" lon="-1.34086">
        <ele>6.5</ele>
        <time>2020-06-02T07:29:24Z</time>
      </trkpt>
      <trkpt lat="46.19187" lon="-1.34077">
        <ele>6.4</ele>
        <time>2020-06-02T07:29:25Z</time>
      </trkpt>
      <trkpt lat="46.19185" lon="-1.34069">
        <ele>6.3</ele>
        <time>2020-06-02T07:29:26Z</time>
      </trkpt>
      <trkpt lat="46.19183" lon="-1.34061">
        <ele>6.2</ele>
        <time>2020-06-02T07:29:27Z</time>
      </trkpt>
      <trkpt lat="46.19181" lon="-1.34054">
        <ele>6.1</ele>
        <time>2020-06-02T07:29:28Z</time>
      </trkpt>
      <trkpt lat="46.19179" lon="-1.34046">
        <ele>6</ele>
        <time>2020-06-02T07:29:29Z</time>
      </trkpt>
      <trkpt lat="46.19178" lon="-1.34038">
        <ele>6</ele>
        <time>2020-06-02T07:29:30Z</time>
      </trkpt>
      <trkpt lat="46.19176" lon="-1.3403">
        <ele>5.9</ele>
        <time>2020-06-02T07:29:31Z</time>
      </trkpt>
      <trkpt lat="46.19173" lon="-1.34023">
        <ele>5.8</ele>
        <time>2020-06-02T07:29:32Z</time>
      </trkpt>
      <trkpt lat="46.19171" lon="-1.34016">
        <ele>5.8</ele>
        <time>2020-06-02T07:29:33Z</time>
      </trkpt>
      <trkpt lat="46.19169" lon="-1.34008">
        <ele>5.8</ele>
        <time>2020-06-02T07:29:34Z</time>
      </trkpt>
      <trkpt lat="46.19168" lon="-1.34001">
        <ele>5.8</ele>
        <time>2020-06-02T07:29:35Z</time>
      </trkpt>
      <trkpt lat="46.19166" lon="-1.33994">
        <ele>5.7</ele>
        <time>2020-06-02T07:29:36Z</time>
      </trkpt>
      <trkpt lat="46.19164" lon="-1.33986">
        <ele>5.7</ele>
        <time>2020-06-02T07:29:37Z</time>
      </trkpt>
      <trkpt lat="46.19162" lon="-1.33978">
        <ele>5.7</ele>
        <time>2020-06-02T07:29:38Z</time>
      </trkpt>
      <trkpt lat="46.1916" lon="-1.33971">
        <ele>5.7</ele>
        <time>2020-06-02T07:29:39Z</time>
      </trkpt>
      <trkpt lat="46.19158" lon="-1.33963">
        <ele>5.6</ele>
        <time>2020-06-02T07:29:40Z</time>
      </trkpt>
      <trkpt lat="46.19155" lon="-1.33956">
        <ele>5.6</ele>
        <time>2020-06-02T07:29:41Z</time>
      </trkpt>
      <trkpt lat="46.19153" lon="-1.33951">
        <ele>5.6</ele>
        <time>2020-06-02T07:29:42Z</time>
      </trkpt>
      <trkpt lat="46.1915" lon="-1.33945">
        <ele>5.6</ele>
        <time>2020-06-02T07:29:43Z</time>
      </trkpt>
      <trkpt lat="46.19148" lon="-1.33938">
        <ele>5.7</ele>
        <time>2020-06-02T07:29:44Z</time>
      </trkpt>
      <trkpt lat="46.19144" lon="-1.33933">
        <ele>5.7</ele>
        <time>2020-06-02T07:29:45Z</time>
      </trkpt>
      <trkpt lat="46.19142" lon="-1.33926">
        <ele>5.7</ele>
        <time>2020-06-02T07:29:46Z</time>
      </trkpt>
      <trkpt lat="46.19138" lon="-1.3392">
        <ele>5.8</ele>
        <time>2020-06-02T07:29:47Z</time>
      </trkpt>
      <trkpt lat="46.19135" lon="-1.33915">
        <ele>5.8</ele>
        <time>2020-06-02T07:29:48Z</time>
      </trkpt>
      <trkpt lat="46.19131" lon="-1.3391">
        <ele>5.9</ele>
        <time>2020-06-02T07:29:49Z</time>
      </trkpt>
      <trkpt lat="46.19129" lon="-1.33904">
        <ele>5.9</ele>
        <time>2020-06-02T07:29:50Z</time>
      </trkpt>
      <trkpt lat="46.19128" lon="-1.33897">
        <ele>5.9</ele>
        <time>2020-06-02T07:29:51Z</time>
      </trkpt>
      <trkpt lat="46.19127" lon="-1.3389">
        <ele>5.9</ele>
        <time>2020-06-02T07:29:52Z</time>
      </trkpt>
      <trkpt lat="46.19126" lon="-1.33883">
        <ele>6</ele>
        <time>2020-06-02T07:29:53Z</time>
      </trkpt>
      <trkpt lat="46.19124" lon="-1.33877">
        <ele>6</ele>
        <time>2020-06-02T07:29:54Z</time>
      </trkpt>
      <trkpt lat="46.19122" lon="-1.33873">
        <ele>6</ele>
        <time>2020-06-02T07:29:55Z</time>
      </trkpt>
      <trkpt lat="46.19121" lon="-1.33869">
        <ele>6</ele>
        <time>2020-06-02T07:29:56Z</time>
      </trkpt>
      <trkpt lat="46.1912" lon="-1.33868">
        <ele>6</ele>
        <time>2020-06-02T07:29:57Z</time>
      </trkpt>
      <trkpt lat="46.1912" lon="-1.33865">
        <ele>6</ele>
        <time>2020-06-02T07:29:58Z</time>
      </trkpt>
      <trkpt lat="46.19119" lon="-1.33863">
        <ele>6</ele>
        <time>2020-06-02T07:29:59Z</time>
      </trkpt>
      <trkpt lat="46.19119" lon="-1.33862">
        <ele>6</ele>
        <time>2020-06-02T07:30:00Z</time>
      </trkpt>
      <trkpt lat="46.19119" lon="-1.33857">
        <ele>6.2</ele>
        <time>2020-06-02T07:30:01Z</time>
      </trkpt>
      <trkpt lat="46.19117" lon="-1.33853">
        <ele>6.2</ele>
        <time>2020-06-02T07:30:02Z</time>
      </trkpt>
      <trkpt lat="46.19114" lon="-1.33849">
        <ele>6.2</ele>
        <time>2020-06-02T07:30:03Z</time>
      </trkpt>
      <trkpt lat="46.19111" lon="-1.33845">
        <ele>6.2</ele>
        <time>2020-06-02T07:30:04Z</time>
      </trkpt>
      <trkpt lat="46.19108" lon="-1.3384">
        <ele>6.1</ele>
        <time>2020-06-02T07:30:05Z</time>
      </trkpt>
      <trkpt lat="46.19105" lon="-1.33835">
        <ele>6.1</ele>
        <time>2020-06-02T07:30:06Z</time>
      </trkpt>
      <trkpt lat="46.19101" lon="-1.33831">
        <ele>6.1</ele>
        <time>2020-06-02T07:30:07Z</time>
      </trkpt>
      <trkpt lat="46.19099" lon="-1.33825">
        <ele>6.1</ele>
        <time>2020-06-02T07:30:08Z</time>
      </trkpt>
      <trkpt lat="46.19097" lon="-1.33819">
        <ele>6.1</ele>
        <time>2020-06-02T07:30:09Z</time>
      </trkpt>
      <trkpt lat="46.19095" lon="-1.33813">
        <ele>6.1</ele>
        <time>2020-06-02T07:30:10Z</time>
      </trkpt>
      <trkpt lat="46.19092" lon="-1.33806">
        <ele>6.1</ele>
        <time>2020-06-02T07:30:11Z</time>
      </trkpt>
      <trkpt lat="46.1909" lon="-1.338">
        <ele>6.1</ele>
        <time>2020-06-02T07:30:12Z</time>
      </trkpt>
      <trkpt lat="46.19087" lon="-1.33793">
        <ele>6.1</ele>
        <time>2020-06-02T07:30:13Z</time>
      </trkpt>
      <trkpt lat="46.19085" lon="-1.33787">
        <ele>6.1</ele>
        <time>2020-06-02T07:30:14Z</time>
      </trkpt>
      <trkpt lat="46.19082" lon="-1.33781">
        <ele>6.1</ele>
        <time>2020-06-02T07:30:15Z</time>
      </trkpt>
      <trkpt lat="46.1908" lon="-1.33775">
        <ele>6.1</ele>
        <time>2020-06-02T07:30:16Z</time>
      </trkpt>
      <trkpt lat="46.19079" lon="-1.33768">
        <ele>6</ele>
        <time>2020-06-02T07:30:17Z</time>
      </trkpt>
      <trkpt lat="46.19075" lon="-1.33762">
        <ele>6</ele>
        <time>2020-06-02T07:30:18Z</time>
      </trkpt>
      <trkpt lat="46.19073" lon="-1.33756">
        <ele>6</ele>
        <time>2020-06-02T07:30:19Z</time>
      </trkpt>
      <trkpt lat="46.19071" lon="-1.33749">
        <ele>6</ele>
        <time>2020-06-02T07:30:20Z</time>
      </trkpt>
      <trkpt lat="46.19069" lon="-1.33742">
        <ele>5.9</ele>
        <time>2020-06-02T07:30:21Z</time>
      </trkpt>
      <trkpt lat="46.19068" lon="-1.33735">
        <ele>5.9</ele>
        <time>2020-06-02T07:30:22Z</time>
      </trkpt>
      <trkpt lat="46.19066" lon="-1.33728">
        <ele>5.9</ele>
        <time>2020-06-02T07:30:23Z</time>
      </trkpt>
      <trkpt lat="46.19065" lon="-1.33721">
        <ele>5.9</ele>
        <time>2020-06-02T07:30:24Z</time>
      </trkpt>
      <trkpt lat="46.19063" lon="-1.33713">
        <ele>5.9</ele>
        <time>2020-06-02T07:30:25Z</time>
      </trkpt>
      <trkpt lat="46.19062" lon="-1.33705">
        <ele>5.9</ele>
        <time>2020-06-02T07:30:26Z</time>
      </trkpt>
      <trkpt lat="46.1906" lon="-1.33696">
        <ele>5.9</ele>
        <time>2020-06-02T07:30:27Z</time>
      </trkpt>
      <trkpt lat="46.1906" lon="-1.33688">
        <ele>5.9</ele>
        <time>2020-06-02T07:30:28Z</time>
      </trkpt>
      <trkpt lat="46.19059" lon="-1.3368">
        <ele>5.9</ele>
        <time>2020-06-02T07:30:29Z</time>
      </trkpt>
      <trkpt lat="46.19057" lon="-1.33673">
        <ele>5.9</ele>
        <time>2020-06-02T07:30:30Z</time>
      </trkpt>
      <trkpt lat="46.19055" lon="-1.33666">
        <ele>5.9</ele>
        <time>2020-06-02T07:30:31Z</time>
      </trkpt>
      <trkpt lat="46.19054" lon="-1.3366">
        <ele>5.9</ele>
        <time>2020-06-02T07:30:32Z</time>
      </trkpt>
      <trkpt lat="46.19052" lon="-1.33653">
        <ele>5.9</ele>
        <time>2020-06-02T07:30:33Z</time>
      </trkpt>
      <trkpt lat="46.1905" lon="-1.33648">
        <ele>5.9</ele>
        <time>2020-06-02T07:30:34Z</time>
      </trkpt>
      <trkpt lat="46.19045" lon="-1.33644">
        <ele>5.9</ele>
        <time>2020-06-02T07:30:35Z</time>
      </trkpt>
      <trkpt lat="46.19043" lon="-1.33638">
        <ele>5.9</ele>
        <time>2020-06-02T07:30:36Z</time>
      </trkpt>
      <trkpt lat="46.19041" lon="-1.33633">
        <ele>6</ele>
        <time>2020-06-02T07:30:37Z</time>
      </trkpt>
      <trkpt lat="46.1904" lon="-1.33627">
        <ele>6</ele>
        <time>2020-06-02T07:30:38Z</time>
      </trkpt>
      <trkpt lat="46.19038" lon="-1.33621">
        <ele>6</ele>
        <time>2020-06-02T07:30:39Z</time>
      </trkpt>
      <trkpt lat="46.19037" lon="-1.33615">
        <ele>6.1</ele>
        <time>2020-06-02T07:30:40Z</time>
      </trkpt>
      <trkpt lat="46.19035" lon="-1.3361">
        <ele>6.1</ele>
        <time>2020-06-02T07:30:41Z</time>
      </trkpt>
      <trkpt lat="46.19034" lon="-1.33605">
        <ele>6.1</ele>
        <time>2020-06-02T07:30:42Z</time>
      </trkpt>
      <trkpt lat="46.19031" lon="-1.33599">
        <ele>6.2</ele>
        <time>2020-06-02T07:30:43Z</time>
      </trkpt>
      <trkpt lat="46.19031" lon="-1.33592">
        <ele>6.2</ele>
        <time>2020-06-02T07:30:44Z</time>
      </trkpt>
      <trkpt lat="46.19029" lon="-1.33585">
        <ele>6.3</ele>
        <time>2020-06-02T07:30:45Z</time>
      </trkpt>
      <trkpt lat="46.19027" lon="-1.33579">
        <ele>6.3</ele>
        <time>2020-06-02T07:30:46Z</time>
      </trkpt>
      <trkpt lat="46.19025" lon="-1.33572">
        <ele>6.4</ele>
        <time>2020-06-02T07:30:47Z</time>
      </trkpt>
      <trkpt lat="46.19024" lon="-1.33566">
        <ele>6.4</ele>
        <time>2020-06-02T07:30:48Z</time>
      </trkpt>
      <trkpt lat="46.19021" lon="-1.33559">
        <ele>6.4</ele>
        <time>2020-06-02T07:30:49Z</time>
      </trkpt>
      <trkpt lat="46.19019" lon="-1.33553">
        <ele>6.4</ele>
        <time>2020-06-02T07:30:50Z</time>
      </trkpt>
      <trkpt lat="46.19019" lon="-1.33547">
        <ele>6.4</ele>
        <time>2020-06-02T07:30:51Z</time>
      </trkpt>
      <trkpt lat="46.19019" lon="-1.33541">
        <ele>6.3</ele>
        <time>2020-06-02T07:30:52Z</time>
      </trkpt>
      <trkpt lat="46.19018" lon="-1.33535">
        <ele>6.3</ele>
        <time>2020-06-02T07:30:53Z</time>
      </trkpt>
      <trkpt lat="46.19018" lon="-1.3353">
        <ele>6.3</ele>
        <time>2020-06-02T07:30:54Z</time>
      </trkpt>
      <trkpt lat="46.19017" lon="-1.33526">
        <ele>6.2</ele>
        <time>2020-06-02T07:30:55Z</time>
      </trkpt>
      <trkpt lat="46.19014" lon="-1.33524">
        <ele>6.2</ele>
        <time>2020-06-02T07:30:56Z</time>
      </trkpt>
      <trkpt lat="46.19013" lon="-1.33524">
        <ele>6.2</ele>
        <time>2020-06-02T07:30:57Z</time>
      </trkpt>
      <trkpt lat="46.1901" lon="-1.33522">
        <ele>6.2</ele>
        <time>2020-06-02T07:30:58Z</time>
      </trkpt>
      <trkpt lat="46.19009" lon="-1.33522">
        <ele>6.2</ele>
        <time>2020-06-02T07:30:59Z</time>
      </trkpt>
      <trkpt lat="46.19008" lon="-1.33521">
        <ele>6.1</ele>
        <time>2020-06-02T07:31:00Z</time>
      </trkpt>
      <trkpt lat="46.19006" lon="-1.3352">
        <ele>6.1</ele>
        <time>2020-06-02T07:31:01Z</time>
      </trkpt>
      <trkpt lat="46.19005" lon="-1.3352">
        <ele>6.1</ele>
        <time>2020-06-02T07:31:02Z</time>
      </trkpt>
      <trkpt lat="46.19003" lon="-1.33519">
        <ele>6.1</ele>
        <time>2020-06-02T07:31:03Z</time>
      </trkpt>
      <trkpt lat="46.19" lon="-1.33518">
        <ele>6.1</ele>
        <time>2020-06-02T07:31:04Z</time>
      </trkpt>
      <trkpt lat="46.18997" lon="-1.33519">
        <ele>6.1</ele>
        <time>2020-06-02T07:31:05Z</time>
      </trkpt>
      <trkpt lat="46.18994" lon="-1.33517">
        <ele>6</ele>
        <time>2020-06-02T07:31:06Z</time>
      </trkpt>
      <trkpt lat="46.18994" lon="-1.33516">
        <ele>6</ele>
        <time>2020-06-02T07:31:07Z</time>
      </trkpt>
      <trkpt lat="46.18991" lon="-1.33513">
        <ele>6</ele>
        <time>2020-06-02T07:31:08Z</time>
      </trkpt>
      <trkpt lat="46.1899" lon="-1.33508">
        <ele>5.9</ele>
        <time>2020-06-02T07:31:09Z</time>
      </trkpt>
      <trkpt lat="46.18989" lon="-1.33503">
        <ele>5.8</ele>
        <time>2020-06-02T07:31:10Z</time>
      </trkpt>
      <trkpt lat="46.18989" lon="-1.33497">
        <ele>5.8</ele>
        <time>2020-06-02T07:31:11Z</time>
      </trkpt>
      <trkpt lat="46.18988" lon="-1.33492">
        <ele>5.7</ele>
        <time>2020-06-02T07:31:12Z</time>
      </trkpt>
      <trkpt lat="46.18988" lon="-1.33486">
        <ele>5.7</ele>
        <time>2020-06-02T07:31:13Z</time>
      </trkpt>
      <trkpt lat="46.18988" lon="-1.3348">
        <ele>5.6</ele>
        <time>2020-06-02T07:31:14Z</time>
      </trkpt>
      <trkpt lat="46.18987" lon="-1.33474">
        <ele>5.5</ele>
        <time>2020-06-02T07:31:15Z</time>
      </trkpt>
      <trkpt lat="46.18986" lon="-1.33469">
        <ele>5.5</ele>
        <time>2020-06-02T07:31:16Z</time>
      </trkpt>
      <trkpt lat="46.18984" lon="-1.33463">
        <ele>5.4</ele>
        <time>2020-06-02T07:31:17Z</time>
      </trkpt>
      <trkpt lat="46.18985" lon="-1.33459">
        <ele>5.4</ele>
        <time>2020-06-02T07:31:18Z</time>
      </trkpt>
      <trkpt lat="46.18988" lon="-1.33456">
        <ele>5.4</ele>
        <time>2020-06-02T07:31:19Z</time>
      </trkpt>
      <trkpt lat="46.1899" lon="-1.33455">
        <ele>5.4</ele>
        <time>2020-06-02T07:31:20Z</time>
      </trkpt>
      <trkpt lat="46.18993" lon="-1.33453">
        <ele>5.3</ele>
        <time>2020-06-02T07:31:21Z</time>
      </trkpt>
      <trkpt lat="46.18996" lon="-1.33451">
        <ele>5.2</ele>
        <time>2020-06-02T07:31:22Z</time>
      </trkpt>
      <trkpt lat="46.19" lon="-1.3345">
        <ele>5.2</ele>
        <time>2020-06-02T07:31:23Z</time>
      </trkpt>
      <trkpt lat="46.19003" lon="-1.33449">
        <ele>5.2</ele>
        <time>2020-06-02T07:31:24Z</time>
      </trkpt>
      <trkpt lat="46.19006" lon="-1.33447">
        <ele>5.1</ele>
        <time>2020-06-02T07:31:25Z</time>
      </trkpt>
      <trkpt lat="46.1901" lon="-1.33446">
        <ele>5.1</ele>
        <time>2020-06-02T07:31:26Z</time>
      </trkpt>
      <trkpt lat="46.19013" lon="-1.33444">
        <ele>5</ele>
        <time>2020-06-02T07:31:27Z</time>
      </trkpt>
      <trkpt lat="46.19017" lon="-1.33443">
        <ele>5</ele>
        <time>2020-06-02T07:31:28Z</time>
      </trkpt>
      <trkpt lat="46.19021" lon="-1.3344">
        <ele>5</ele>
        <time>2020-06-02T07:31:29Z</time>
      </trkpt>
      <trkpt lat="46.19025" lon="-1.33437">
        <ele>4.9</ele>
        <time>2020-06-02T07:31:30Z</time>
      </trkpt>
      <trkpt lat="46.1903" lon="-1.33434">
        <ele>4.9</ele>
        <time>2020-06-02T07:31:31Z</time>
      </trkpt>
      <trkpt lat="46.19034" lon="-1.3343">
        <ele>4.8</ele>
        <time>2020-06-02T07:31:32Z</time>
      </trkpt>
      <trkpt lat="46.19039" lon="-1.33427">
        <ele>4.8</ele>
        <time>2020-06-02T07:31:33Z</time>
      </trkpt>
      <trkpt lat="46.19043" lon="-1.33424">
        <ele>4.7</ele>
        <time>2020-06-02T07:31:34Z</time>
      </trkpt>
      <trkpt lat="46.19047" lon="-1.3342">
        <ele>4.7</ele>
        <time>2020-06-02T07:31:35Z</time>
      </trkpt>
      <trkpt lat="46.19051" lon="-1.33416">
        <ele>4.7</ele>
        <time>2020-06-02T07:31:36Z</time>
      </trkpt>
      <trkpt lat="46.19054" lon="-1.33409">
        <ele>4.7</ele>
        <time>2020-06-02T07:31:37Z</time>
      </trkpt>
      <trkpt lat="46.19058" lon="-1.33405">
        <ele>4.6</ele>
        <time>2020-06-02T07:31:38Z</time>
      </trkpt>
      <trkpt lat="46.19061" lon="-1.33401">
        <ele>4.6</ele>
        <time>2020-06-02T07:31:39Z</time>
      </trkpt>
      <trkpt lat="46.19064" lon="-1.33399">
        <ele>4.6</ele>
        <time>2020-06-02T07:31:40Z</time>
      </trkpt>
      <trkpt lat="46.19068" lon="-1.33398">
        <ele>4.5</ele>
        <time>2020-06-02T07:31:41Z</time>
      </trkpt>
      <trkpt lat="46.19071" lon="-1.33395">
        <ele>4.5</ele>
        <time>2020-06-02T07:31:42Z</time>
      </trkpt>
      <trkpt lat="46.19074" lon="-1.33397">
        <ele>4.4</ele>
        <time>2020-06-02T07:31:43Z</time>
      </trkpt>
      <trkpt lat="46.19075" lon="-1.33399">
        <ele>4.4</ele>
        <time>2020-06-02T07:31:44Z</time>
      </trkpt>
      <trkpt lat="46.19076" lon="-1.33403">
        <ele>4.4</ele>
        <time>2020-06-02T07:31:45Z</time>
      </trkpt>
      <trkpt lat="46.19079" lon="-1.33406">
        <ele>4.4</ele>
        <time>2020-06-02T07:31:46Z</time>
      </trkpt>
      <trkpt lat="46.19082" lon="-1.33408">
        <ele>4.3</ele>
        <time>2020-06-02T07:31:47Z</time>
      </trkpt>
      <trkpt lat="46.19085" lon="-1.33408">
        <ele>4.3</ele>
        <time>2020-06-02T07:31:48Z</time>
      </trkpt>
      <trkpt lat="46.19087" lon="-1.33405">
        <ele>4.2</ele>
        <time>2020-06-02T07:31:49Z</time>
      </trkpt>
      <trkpt lat="46.1909" lon="-1.33402">
        <ele>4.1</ele>
        <time>2020-06-02T07:31:50Z</time>
      </trkpt>
      <trkpt lat="46.19092" lon="-1.33398">
        <ele>3.9</ele>
        <time>2020-06-02T07:31:51Z</time>
      </trkpt>
      <trkpt lat="46.19094" lon="-1.33396">
        <ele>3.9</ele>
        <time>2020-06-02T07:31:52Z</time>
      </trkpt>
      <trkpt lat="46.19096" lon="-1.33393">
        <ele>3.9</ele>
        <time>2020-06-02T07:31:53Z</time>
      </trkpt>
      <trkpt lat="46.19097" lon="-1.33388">
        <ele>4</ele>
        <time>2020-06-02T07:31:54Z</time>
      </trkpt>
      <trkpt lat="46.19096" lon="-1.33386">
        <ele>4</ele>
        <time>2020-06-02T07:31:55Z</time>
      </trkpt>
      <trkpt lat="46.19095" lon="-1.33382">
        <ele>4</ele>
        <time>2020-06-02T07:31:56Z</time>
      </trkpt>
      <trkpt lat="46.19093" lon="-1.33377">
        <ele>3.9</ele>
        <time>2020-06-02T07:31:57Z</time>
      </trkpt>
      <trkpt lat="46.19091" lon="-1.33372">
        <ele>3.8</ele>
        <time>2020-06-02T07:31:58Z</time>
      </trkpt>
      <trkpt lat="46.1909" lon="-1.33367">
        <ele>3.7</ele>
        <time>2020-06-02T07:31:59Z</time>
      </trkpt>
      <trkpt lat="46.19089" lon="-1.33361">
        <ele>3.6</ele>
        <time>2020-06-02T07:32:00Z</time>
      </trkpt>
      <trkpt lat="46.19087" lon="-1.33356">
        <ele>3.5</ele>
        <time>2020-06-02T07:32:01Z</time>
      </trkpt>
      <trkpt lat="46.19087" lon="-1.3335">
        <ele>3.4</ele>
        <time>2020-06-02T07:32:02Z</time>
      </trkpt>
      <trkpt lat="46.19088" lon="-1.33345">
        <ele>3.4</ele>
        <time>2020-06-02T07:32:03Z</time>
      </trkpt>
      <trkpt lat="46.19088" lon="-1.33339">
        <ele>3.4</ele>
        <time>2020-06-02T07:32:04Z</time>
      </trkpt>
      <trkpt lat="46.19088" lon="-1.33334">
        <ele>3.4</ele>
        <time>2020-06-02T07:32:05Z</time>
      </trkpt>
      <trkpt lat="46.19088" lon="-1.33328">
        <ele>3.3</ele>
        <time>2020-06-02T07:32:06Z</time>
      </trkpt>
      <trkpt lat="46.19088" lon="-1.33322">
        <ele>3.3</ele>
        <time>2020-06-02T07:32:07Z</time>
      </trkpt>
      <trkpt lat="46.19089" lon="-1.33316">
        <ele>3.3</ele>
        <time>2020-06-02T07:32:08Z</time>
      </trkpt>
      <trkpt lat="46.19089" lon="-1.3331">
        <ele>3.3</ele>
        <time>2020-06-02T07:32:09Z</time>
      </trkpt>
      <trkpt lat="46.19091" lon="-1.33303">
        <ele>3.3</ele>
        <time>2020-06-02T07:32:10Z</time>
      </trkpt>
      <trkpt lat="46.19091" lon="-1.33296">
        <ele>3.3</ele>
        <time>2020-06-02T07:32:11Z</time>
      </trkpt>
      <trkpt lat="46.1909" lon="-1.33289">
        <ele>3.3</ele>
        <time>2020-06-02T07:32:12Z</time>
      </trkpt>
      <trkpt lat="46.19091" lon="-1.33282">
        <ele>3.3</ele>
        <time>2020-06-02T07:32:13Z</time>
      </trkpt>
      <trkpt lat="46.19092" lon="-1.33275">
        <ele>3.3</ele>
        <time>2020-06-02T07:32:14Z</time>
      </trkpt>
      <trkpt lat="46.19092" lon="-1.33268">
        <ele>3.3</ele>
        <time>2020-06-02T07:32:15Z</time>
      </trkpt>
      <trkpt lat="46.19092" lon="-1.33261">
        <ele>3.4</ele>
        <time>2020-06-02T07:32:16Z</time>
      </trkpt>
      <trkpt lat="46.19092" lon="-1.33254">
        <ele>3.4</ele>
        <time>2020-06-02T07:32:17Z</time>
      </trkpt>
      <trkpt lat="46.19092" lon="-1.33246">
        <ele>3.4</ele>
        <time>2020-06-02T07:32:18Z</time>
      </trkpt>
      <trkpt lat="46.19091" lon="-1.33239">
        <ele>3.4</ele>
        <time>2020-06-02T07:32:19Z</time>
      </trkpt>
      <trkpt lat="46.19089" lon="-1.33231">
        <ele>3.4</ele>
        <time>2020-06-02T07:32:20Z</time>
      </trkpt>
      <trkpt lat="46.19088" lon="-1.33224">
        <ele>3.4</ele>
        <time>2020-06-02T07:32:21Z</time>
      </trkpt>
      <trkpt lat="46.19086" lon="-1.33217">
        <ele>3.3</ele>
        <time>2020-06-02T07:32:22Z</time>
      </trkpt>
      <trkpt lat="46.19084" lon="-1.3321">
        <ele>3.3</ele>
        <time>2020-06-02T07:32:23Z</time>
      </trkpt>
      <trkpt lat="46.19082" lon="-1.33203">
        <ele>3.3</ele>
        <time>2020-06-02T07:32:24Z</time>
      </trkpt>
      <trkpt lat="46.1908" lon="-1.33196">
        <ele>3.3</ele>
        <time>2020-06-02T07:32:25Z</time>
      </trkpt>
      <trkpt lat="46.19078" lon="-1.33189">
        <ele>3.3</ele>
        <time>2020-06-02T07:32:26Z</time>
      </trkpt>
      <trkpt lat="46.19076" lon="-1.33181">
        <ele>3.3</ele>
        <time>2020-06-02T07:32:27Z</time>
      </trkpt>
      <trkpt lat="46.19075" lon="-1.33174">
        <ele>3.3</ele>
        <time>2020-06-02T07:32:28Z</time>
      </trkpt>
      <trkpt lat="46.19074" lon="-1.33167">
        <ele>3.2</ele>
        <time>2020-06-02T07:32:29Z</time>
      </trkpt>
      <trkpt lat="46.19073" lon="-1.3316">
        <ele>3.2</ele>
        <time>2020-06-02T07:32:30Z</time>
      </trkpt>
      <trkpt lat="46.19073" lon="-1.33152">
        <ele>3.2</ele>
        <time>2020-06-02T07:32:31Z</time>
      </trkpt>
      <trkpt lat="46.19074" lon="-1.33144">
        <ele>3.2</ele>
        <time>2020-06-02T07:32:32Z</time>
      </trkpt>
      <trkpt lat="46.19074" lon="-1.33136">
        <ele>3.2</ele>
        <time>2020-06-02T07:32:33Z</time>
      </trkpt>
      <trkpt lat="46.19075" lon="-1.33128">
        <ele>3.2</ele>
        <time>2020-06-02T07:32:34Z</time>
      </trkpt>
      <trkpt lat="46.19076" lon="-1.3312">
        <ele>3.2</ele>
        <time>2020-06-02T07:32:35Z</time>
      </trkpt>
      <trkpt lat="46.19077" lon="-1.33112">
        <ele>3.1</ele>
        <time>2020-06-02T07:32:36Z</time>
      </trkpt>
      <trkpt lat="46.19079" lon="-1.33104">
        <ele>3.1</ele>
        <time>2020-06-02T07:32:37Z</time>
      </trkpt>
      <trkpt lat="46.19081" lon="-1.33097">
        <ele>3</ele>
        <time>2020-06-02T07:32:38Z</time>
      </trkpt>
      <trkpt lat="46.19083" lon="-1.3309">
        <ele>3</ele>
        <time>2020-06-02T07:32:39Z</time>
      </trkpt>
      <trkpt lat="46.19084" lon="-1.33082">
        <ele>2.9</ele>
        <time>2020-06-02T07:32:40Z</time>
      </trkpt>
      <trkpt lat="46.19086" lon="-1.33074">
        <ele>2.9</ele>
        <time>2020-06-02T07:32:41Z</time>
      </trkpt>
      <trkpt lat="46.19087" lon="-1.33067">
        <ele>2.9</ele>
        <time>2020-06-02T07:32:42Z</time>
      </trkpt>
      <trkpt lat="46.19089" lon="-1.33059">
        <ele>2.9</ele>
        <time>2020-06-02T07:32:43Z</time>
      </trkpt>
      <trkpt lat="46.19091" lon="-1.33051">
        <ele>2.9</ele>
        <time>2020-06-02T07:32:44Z</time>
      </trkpt>
      <trkpt lat="46.19092" lon="-1.33043">
        <ele>2.9</ele>
        <time>2020-06-02T07:32:45Z</time>
      </trkpt>
      <trkpt lat="46.19095" lon="-1.33036">
        <ele>2.9</ele>
        <time>2020-06-02T07:32:46Z</time>
      </trkpt>
      <trkpt lat="46.19099" lon="-1.3303">
        <ele>2.9</ele>
        <time>2020-06-02T07:32:47Z</time>
      </trkpt>
      <trkpt lat="46.19102" lon="-1.33023">
        <ele>2.9</ele>
        <time>2020-06-02T07:32:48Z</time>
      </trkpt>
      <trkpt lat="46.19104" lon="-1.33016">
        <ele>2.9</ele>
        <time>2020-06-02T07:32:49Z</time>
      </trkpt>
      <trkpt lat="46.19107" lon="-1.3301">
        <ele>2.9</ele>
        <time>2020-06-02T07:32:50Z</time>
      </trkpt>
      <trkpt lat="46.19108" lon="-1.33003">
        <ele>2.9</ele>
        <time>2020-06-02T07:32:51Z</time>
      </trkpt>
      <trkpt lat="46.19109" lon="-1.32996">
        <ele>2.9</ele>
        <time>2020-06-02T07:32:52Z</time>
      </trkpt>
      <trkpt lat="46.1911" lon="-1.32989">
        <ele>2.9</ele>
        <time>2020-06-02T07:32:53Z</time>
      </trkpt>
      <trkpt lat="46.1911" lon="-1.32982">
        <ele>2.9</ele>
        <time>2020-06-02T07:32:54Z</time>
      </trkpt>
      <trkpt lat="46.1911" lon="-1.32974">
        <ele>2.9</ele>
        <time>2020-06-02T07:32:55Z</time>
      </trkpt>
      <trkpt lat="46.19108" lon="-1.32967">
        <ele>2.9</ele>
        <time>2020-06-02T07:32:56Z</time>
      </trkpt>
      <trkpt lat="46.19106" lon="-1.32961">
        <ele>2.9</ele>
        <time>2020-06-02T07:32:57Z</time>
      </trkpt>
      <trkpt lat="46.19104" lon="-1.32954">
        <ele>2.9</ele>
        <time>2020-06-02T07:32:58Z</time>
      </trkpt>
      <trkpt lat="46.19101" lon="-1.32947">
        <ele>2.9</ele>
        <time>2020-06-02T07:32:59Z</time>
      </trkpt>
      <trkpt lat="46.19099" lon="-1.3294">
        <ele>2.9</ele>
        <time>2020-06-02T07:33:00Z</time>
      </trkpt>
      <trkpt lat="46.19096" lon="-1.32934">
        <ele>2.9</ele>
        <time>2020-06-02T07:33:01Z</time>
      </trkpt>
      <trkpt lat="46.19093" lon="-1.32928">
        <ele>2.9</ele>
        <time>2020-06-02T07:33:02Z</time>
      </trkpt>
      <trkpt lat="46.1909" lon="-1.32922">
        <ele>3</ele>
        <time>2020-06-02T07:33:03Z</time>
      </trkpt>
      <trkpt lat="46.19085" lon="-1.32917">
        <ele>3</ele>
        <time>2020-06-02T07:33:04Z</time>
      </trkpt>
      <trkpt lat="46.19082" lon="-1.32911">
        <ele>3</ele>
        <time>2020-06-02T07:33:05Z</time>
      </trkpt>
      <trkpt lat="46.19078" lon="-1.32906">
        <ele>3</ele>
        <time>2020-06-02T07:33:06Z</time>
      </trkpt>
      <trkpt lat="46.19074" lon="-1.32901">
        <ele>3</ele>
        <time>2020-06-02T07:33:07Z</time>
      </trkpt>
      <trkpt lat="46.19071" lon="-1.32895">
        <ele>3.1</ele>
        <time>2020-06-02T07:33:08Z</time>
      </trkpt>
      <trkpt lat="46.19068" lon="-1.32889">
        <ele>3.1</ele>
        <time>2020-06-02T07:33:09Z</time>
      </trkpt>
      <trkpt lat="46.19065" lon="-1.32883">
        <ele>3.1</ele>
        <time>2020-06-02T07:33:10Z</time>
      </trkpt>
      <trkpt lat="46.19061" lon="-1.32878">
        <ele>3.1</ele>
        <time>2020-06-02T07:33:11Z</time>
      </trkpt>
      <trkpt lat="46.19058" lon="-1.32873">
        <ele>3.2</ele>
        <time>2020-06-02T07:33:12Z</time>
      </trkpt>
      <trkpt lat="46.19055" lon="-1.32867">
        <ele>3.2</ele>
        <time>2020-06-02T07:33:13Z</time>
      </trkpt>
      <trkpt lat="46.19051" lon="-1.32861">
        <ele>3.2</ele>
        <time>2020-06-02T07:33:14Z</time>
      </trkpt>
      <trkpt lat="46.19048" lon="-1.32856">
        <ele>3.2</ele>
        <time>2020-06-02T07:33:15Z</time>
      </trkpt>
      <trkpt lat="46.19045" lon="-1.32851">
        <ele>3.2</ele>
        <time>2020-06-02T07:33:16Z</time>
      </trkpt>
      <trkpt lat="46.19041" lon="-1.32846">
        <ele>3.2</ele>
        <time>2020-06-02T07:33:17Z</time>
      </trkpt>
      <trkpt lat="46.19037" lon="-1.32842">
        <ele>3.2</ele>
        <time>2020-06-02T07:33:18Z</time>
      </trkpt>
      <trkpt lat="46.19034" lon="-1.32838">
        <ele>3.3</ele>
        <time>2020-06-02T07:33:19Z</time>
      </trkpt>
      <trkpt lat="46.19031" lon="-1.32833">
        <ele>3.3</ele>
        <time>2020-06-02T07:33:20Z</time>
      </trkpt>
      <trkpt lat="46.19028" lon="-1.32829">
        <ele>3.4</ele>
        <time>2020-06-02T07:33:21Z</time>
      </trkpt>
      <trkpt lat="46.19026" lon="-1.32823">
        <ele>3.4</ele>
        <time>2020-06-02T07:33:22Z</time>
      </trkpt>
      <trkpt lat="46.19023" lon="-1.32819">
        <ele>3.5</ele>
        <time>2020-06-02T07:33:23Z</time>
      </trkpt>
      <trkpt lat="46.1902" lon="-1.32815">
        <ele>3.5</ele>
        <time>2020-06-02T07:33:24Z</time>
      </trkpt>
      <trkpt lat="46.19019" lon="-1.3281">
        <ele>3.6</ele>
        <time>2020-06-02T07:33:25Z</time>
      </trkpt>
      <trkpt lat="46.19015" lon="-1.32806">
        <ele>3.6</ele>
        <time>2020-06-02T07:33:26Z</time>
      </trkpt>
      <trkpt lat="46.19012" lon="-1.32802">
        <ele>3.7</ele>
        <time>2020-06-02T07:33:27Z</time>
      </trkpt>
      <trkpt lat="46.19009" lon="-1.32797">
        <ele>3.7</ele>
        <time>2020-06-02T07:33:28Z</time>
      </trkpt>
      <trkpt lat="46.19006" lon="-1.32792">
        <ele>3.7</ele>
        <time>2020-06-02T07:33:29Z</time>
      </trkpt>
      <trkpt lat="46.19003" lon="-1.32787">
        <ele>3.6</ele>
        <time>2020-06-02T07:33:30Z</time>
      </trkpt>
      <trkpt lat="46.19" lon="-1.32782">
        <ele>3.6</ele>
        <time>2020-06-02T07:33:31Z</time>
      </trkpt>
      <trkpt lat="46.18998" lon="-1.32778">
        <ele>3.6</ele>
        <time>2020-06-02T07:33:32Z</time>
      </trkpt>
      <trkpt lat="46.18995" lon="-1.32773">
        <ele>3.5</ele>
        <time>2020-06-02T07:33:33Z</time>
      </trkpt>
      <trkpt lat="46.18992" lon="-1.32767">
        <ele>3.4</ele>
        <time>2020-06-02T07:33:34Z</time>
      </trkpt>
      <trkpt lat="46.18988" lon="-1.32761">
        <ele>3.4</ele>
        <time>2020-06-02T07:33:35Z</time>
      </trkpt>
      <trkpt lat="46.18984" lon="-1.32756">
        <ele>3.3</ele>
        <time>2020-06-02T07:33:36Z</time>
      </trkpt>
      <trkpt lat="46.1898" lon="-1.32751">
        <ele>3.3</ele>
        <time>2020-06-02T07:33:37Z</time>
      </trkpt>
      <trkpt lat="46.18977" lon="-1.32746">
        <ele>3.2</ele>
        <time>2020-06-02T07:33:38Z</time>
      </trkpt>
      <trkpt lat="46.18973" lon="-1.32742">
        <ele>3.2</ele>
        <time>2020-06-02T07:33:39Z</time>
      </trkpt>
      <trkpt lat="46.1897" lon="-1.32737">
        <ele>3.2</ele>
        <time>2020-06-02T07:33:40Z</time>
      </trkpt>
      <trkpt lat="46.18967" lon="-1.32732">
        <ele>3.2</ele>
        <time>2020-06-02T07:33:41Z</time>
      </trkpt>
      <trkpt lat="46.18963" lon="-1.32726">
        <ele>3.2</ele>
        <time>2020-06-02T07:33:42Z</time>
      </trkpt>
      <trkpt lat="46.18959" lon="-1.32721">
        <ele>3.2</ele>
        <time>2020-06-02T07:33:43Z</time>
      </trkpt>
      <trkpt lat="46.18956" lon="-1.32716">
        <ele>3.2</ele>
        <time>2020-06-02T07:33:44Z</time>
      </trkpt>
      <trkpt lat="46.18953" lon="-1.3271">
        <ele>3.2</ele>
        <time>2020-06-02T07:33:45Z</time>
      </trkpt>
      <trkpt lat="46.1895" lon="-1.32704">
        <ele>3.2</ele>
        <time>2020-06-02T07:33:46Z</time>
      </trkpt>
      <trkpt lat="46.18947" lon="-1.32698">
        <ele>3.2</ele>
        <time>2020-06-02T07:33:47Z</time>
      </trkpt>
      <trkpt lat="46.18943" lon="-1.32692">
        <ele>3.2</ele>
        <time>2020-06-02T07:33:48Z</time>
      </trkpt>
      <trkpt lat="46.1894" lon="-1.32687">
        <ele>3.3</ele>
        <time>2020-06-02T07:33:49Z</time>
      </trkpt>
      <trkpt lat="46.18936" lon="-1.32681">
        <ele>3.3</ele>
        <time>2020-06-02T07:33:50Z</time>
      </trkpt>
      <trkpt lat="46.18932" lon="-1.32676">
        <ele>3.3</ele>
        <time>2020-06-02T07:33:51Z</time>
      </trkpt>
      <trkpt lat="46.18928" lon="-1.32672">
        <ele>3.3</ele>
        <time>2020-06-02T07:33:52Z</time>
      </trkpt>
      <trkpt lat="46.18924" lon="-1.32666">
        <ele>3.3</ele>
        <time>2020-06-02T07:33:53Z</time>
      </trkpt>
      <trkpt lat="46.18921" lon="-1.3266">
        <ele>3.3</ele>
        <time>2020-06-02T07:33:54Z</time>
      </trkpt>
      <trkpt lat="46.18918" lon="-1.32655">
        <ele>3.3</ele>
        <time>2020-06-02T07:33:55Z</time>
      </trkpt>
      <trkpt lat="46.18916" lon="-1.32648">
        <ele>3.3</ele>
        <time>2020-06-02T07:33:56Z</time>
      </trkpt>
      <trkpt lat="46.18913" lon="-1.32642">
        <ele>3.3</ele>
        <time>2020-06-02T07:33:57Z</time>
      </trkpt>
      <trkpt lat="46.1891" lon="-1.32637">
        <ele>3.3</ele>
        <time>2020-06-02T07:33:58Z</time>
      </trkpt>
      <trkpt lat="46.18907" lon="-1.32632">
        <ele>3.4</ele>
        <time>2020-06-02T07:33:59Z</time>
      </trkpt>
      <trkpt lat="46.18905" lon="-1.32626">
        <ele>3.4</ele>
        <time>2020-06-02T07:34:00Z</time>
      </trkpt>
      <trkpt lat="46.18902" lon="-1.3262">
        <ele>3.4</ele>
        <time>2020-06-02T07:34:01Z</time>
      </trkpt>
      <trkpt lat="46.18899" lon="-1.32614">
        <ele>3.4</ele>
        <time>2020-06-02T07:34:02Z</time>
      </trkpt>
      <trkpt lat="46.18895" lon="-1.32608">
        <ele>3.4</ele>
        <time>2020-06-02T07:34:03Z</time>
      </trkpt>
      <trkpt lat="46.18893" lon="-1.32601">
        <ele>3.4</ele>
        <time>2020-06-02T07:34:04Z</time>
      </trkpt>
      <trkpt lat="46.18891" lon="-1.32594">
        <ele>3.4</ele>
        <time>2020-06-02T07:34:05Z</time>
      </trkpt>
      <trkpt lat="46.18888" lon="-1.32587">
        <ele>3.4</ele>
        <time>2020-06-02T07:34:06Z</time>
      </trkpt>
      <trkpt lat="46.18883" lon="-1.32582">
        <ele>3.5</ele>
        <time>2020-06-02T07:34:07Z</time>
      </trkpt>
      <trkpt lat="46.18881" lon="-1.32576">
        <ele>3.5</ele>
        <time>2020-06-02T07:34:08Z</time>
      </trkpt>
      <trkpt lat="46.18878" lon="-1.3257">
        <ele>3.5</ele>
        <time>2020-06-02T07:34:09Z</time>
      </trkpt>
      <trkpt lat="46.18875" lon="-1.32564">
        <ele>3.5</ele>
        <time>2020-06-02T07:34:10Z</time>
      </trkpt>
      <trkpt lat="46.18874" lon="-1.32557">
        <ele>3.6</ele>
        <time>2020-06-02T07:34:11Z</time>
      </trkpt>
      <trkpt lat="46.18872" lon="-1.3255">
        <ele>3.6</ele>
        <time>2020-06-02T07:34:12Z</time>
      </trkpt>
      <trkpt lat="46.1887" lon="-1.32544">
        <ele>3.6</ele>
        <time>2020-06-02T07:34:13Z</time>
      </trkpt>
      <trkpt lat="46.18867" lon="-1.32538">
        <ele>3.6</ele>
        <time>2020-06-02T07:34:14Z</time>
      </trkpt>
      <trkpt lat="46.18863" lon="-1.32532">
        <ele>3.7</ele>
        <time>2020-06-02T07:34:15Z</time>
      </trkpt>
      <trkpt lat="46.18861" lon="-1.32525">
        <ele>3.6</ele>
        <time>2020-06-02T07:34:16Z</time>
      </trkpt>
      <trkpt lat="46.18857" lon="-1.32519">
        <ele>3.6</ele>
        <time>2020-06-02T07:34:17Z</time>
      </trkpt>
      <trkpt lat="46.18855" lon="-1.32513">
        <ele>3.6</ele>
        <time>2020-06-02T07:34:18Z</time>
      </trkpt>
      <trkpt lat="46.18852" lon="-1.32507">
        <ele>3.7</ele>
        <time>2020-06-02T07:34:19Z</time>
      </trkpt>
      <trkpt lat="46.1885" lon="-1.325">
        <ele>3.6</ele>
        <time>2020-06-02T07:34:20Z</time>
      </trkpt>
      <trkpt lat="46.18847" lon="-1.32495">
        <ele>3.6</ele>
        <time>2020-06-02T07:34:21Z</time>
      </trkpt>
      <trkpt lat="46.18845" lon="-1.32489">
        <ele>3.5</ele>
        <time>2020-06-02T07:34:22Z</time>
      </trkpt>
      <trkpt lat="46.18842" lon="-1.32483">
        <ele>3.5</ele>
        <time>2020-06-02T07:34:23Z</time>
      </trkpt>
      <trkpt lat="46.1884" lon="-1.32478">
        <ele>3.4</ele>
        <time>2020-06-02T07:34:24Z</time>
      </trkpt>
      <trkpt lat="46.18837" lon="-1.32471">
        <ele>3.4</ele>
        <time>2020-06-02T07:34:25Z</time>
      </trkpt>
      <trkpt lat="46.18834" lon="-1.32465">
        <ele>3.3</ele>
        <time>2020-06-02T07:34:26Z</time>
      </trkpt>
      <trkpt lat="46.18832" lon="-1.32457">
        <ele>3.3</ele>
        <time>2020-06-02T07:34:27Z</time>
      </trkpt>
      <trkpt lat="46.18826" lon="-1.32453">
        <ele>3.2</ele>
        <time>2020-06-02T07:34:28Z</time>
      </trkpt>
      <trkpt lat="46.18823" lon="-1.32447">
        <ele>3.2</ele>
        <time>2020-06-02T07:34:29Z</time>
      </trkpt>
      <trkpt lat="46.1882" lon="-1.3244">
        <ele>3.1</ele>
        <time>2020-06-02T07:34:30Z</time>
      </trkpt>
      <trkpt lat="46.18818" lon="-1.32435">
        <ele>3.1</ele>
        <time>2020-06-02T07:34:31Z</time>
      </trkpt>
      <trkpt lat="46.18814" lon="-1.32431">
        <ele>3.1</ele>
        <time>2020-06-02T07:34:32Z</time>
      </trkpt>
      <trkpt lat="46.1881" lon="-1.32431">
        <ele>3.1</ele>
        <time>2020-06-02T07:34:33Z</time>
      </trkpt>
      <trkpt lat="46.18805" lon="-1.32434">
        <ele>3</ele>
        <time>2020-06-02T07:34:34Z</time>
      </trkpt>
      <trkpt lat="46.188" lon="-1.32435">
        <ele>3.1</ele>
        <time>2020-06-02T07:34:35Z</time>
      </trkpt>
      <trkpt lat="46.18795" lon="-1.32437">
        <ele>3.2</ele>
        <time>2020-06-02T07:34:36Z</time>
      </trkpt>
      <trkpt lat="46.1879" lon="-1.32438">
        <ele>3.2</ele>
        <time>2020-06-02T07:34:37Z</time>
      </trkpt>
      <trkpt lat="46.18786" lon="-1.32439">
        <ele>3.3</ele>
        <time>2020-06-02T07:34:38Z</time>
      </trkpt>
      <trkpt lat="46.18781" lon="-1.32442">
        <ele>3.3</ele>
        <time>2020-06-02T07:34:39Z</time>
      </trkpt>
      <trkpt lat="46.18777" lon="-1.32443">
        <ele>3.3</ele>
        <time>2020-06-02T07:34:40Z</time>
      </trkpt>
      <trkpt lat="46.18772" lon="-1.32445">
        <ele>3.4</ele>
        <time>2020-06-02T07:34:41Z</time>
      </trkpt>
      <trkpt lat="46.18768" lon="-1.32447">
        <ele>3.4</ele>
        <time>2020-06-02T07:34:42Z</time>
      </trkpt>
      <trkpt lat="46.18764" lon="-1.32448">
        <ele>3.5</ele>
        <time>2020-06-02T07:34:43Z</time>
      </trkpt>
      <trkpt lat="46.1876" lon="-1.32449">
        <ele>3.5</ele>
        <time>2020-06-02T07:34:44Z</time>
      </trkpt>
      <trkpt lat="46.18755" lon="-1.32448">
        <ele>3.5</ele>
        <time>2020-06-02T07:34:45Z</time>
      </trkpt>
      <trkpt lat="46.18751" lon="-1.32446">
        <ele>3.6</ele>
        <time>2020-06-02T07:34:46Z</time>
      </trkpt>
      <trkpt lat="46.18748" lon="-1.32441">
        <ele>3.5</ele>
        <time>2020-06-02T07:34:47Z</time>
      </trkpt>
      <trkpt lat="46.18745" lon="-1.32436">
        <ele>3.5</ele>
        <time>2020-06-02T07:34:48Z</time>
      </trkpt>
      <trkpt lat="46.1874" lon="-1.32432">
        <ele>3.5</ele>
        <time>2020-06-02T07:34:49Z</time>
      </trkpt>
      <trkpt lat="46.18738" lon="-1.32425">
        <ele>3.5</ele>
        <time>2020-06-02T07:34:50Z</time>
      </trkpt>
      <trkpt lat="46.18735" lon="-1.32419">
        <ele>3.4</ele>
        <time>2020-06-02T07:34:51Z</time>
      </trkpt>
      <trkpt lat="46.18733" lon="-1.32412">
        <ele>3.4</ele>
        <time>2020-06-02T07:34:52Z</time>
      </trkpt>
      <trkpt lat="46.18731" lon="-1.32406">
        <ele>3.4</ele>
        <time>2020-06-02T07:34:53Z</time>
      </trkpt>
      <trkpt lat="46.18729" lon="-1.324">
        <ele>3.4</ele>
        <time>2020-06-02T07:34:54Z</time>
      </trkpt>
      <trkpt lat="46.18727" lon="-1.32393">
        <ele>3.3</ele>
        <time>2020-06-02T07:34:55Z</time>
      </trkpt>
      <trkpt lat="46.18726" lon="-1.32386">
        <ele>3.3</ele>
        <time>2020-06-02T07:34:56Z</time>
      </trkpt>
      <trkpt lat="46.18723" lon="-1.32379">
        <ele>3.3</ele>
        <time>2020-06-02T07:34:57Z</time>
      </trkpt>
      <trkpt lat="46.18721" lon="-1.32372">
        <ele>3.2</ele>
        <time>2020-06-02T07:34:58Z</time>
      </trkpt>
      <trkpt lat="46.18718" lon="-1.32365">
        <ele>3.2</ele>
        <time>2020-06-02T07:34:59Z</time>
      </trkpt>
      <trkpt lat="46.18716" lon="-1.32358">
        <ele>3.2</ele>
        <time>2020-06-02T07:35:00Z</time>
      </trkpt>
      <trkpt lat="46.18714" lon="-1.3235">
        <ele>3.1</ele>
        <time>2020-06-02T07:35:01Z</time>
      </trkpt>
      <trkpt lat="46.18712" lon="-1.32343">
        <ele>3.1</ele>
        <time>2020-06-02T07:35:02Z</time>
      </trkpt>
      <trkpt lat="46.1871" lon="-1.32335">
        <ele>3</ele>
        <time>2020-06-02T07:35:03Z</time>
      </trkpt>
      <trkpt lat="46.18708" lon="-1.32327">
        <ele>2.9</ele>
        <time>2020-06-02T07:35:04Z</time>
      </trkpt>
      <trkpt lat="46.18705" lon="-1.32319">
        <ele>2.9</ele>
        <time>2020-06-02T07:35:05Z</time>
      </trkpt>
      <trkpt lat="46.18702" lon="-1.32312">
        <ele>2.8</ele>
        <time>2020-06-02T07:35:06Z</time>
      </trkpt>
      <trkpt lat="46.187" lon="-1.32305">
        <ele>2.8</ele>
        <time>2020-06-02T07:35:07Z</time>
      </trkpt>
      <trkpt lat="46.18697" lon="-1.32298">
        <ele>2.7</ele>
        <time>2020-06-02T07:35:08Z</time>
      </trkpt>
      <trkpt lat="46.18695" lon="-1.32291">
        <ele>2.7</ele>
        <time>2020-06-02T07:35:09Z</time>
      </trkpt>
      <trkpt lat="46.18693" lon="-1.32283">
        <ele>2.7</ele>
        <time>2020-06-02T07:35:10Z</time>
      </trkpt>
      <trkpt lat="46.18691" lon="-1.32275">
        <ele>2.7</ele>
        <time>2020-06-02T07:35:11Z</time>
      </trkpt>
      <trkpt lat="46.18688" lon="-1.32268">
        <ele>2.7</ele>
        <time>2020-06-02T07:35:12Z</time>
      </trkpt>
      <trkpt lat="46.18686" lon="-1.32261">
        <ele>2.7</ele>
        <time>2020-06-02T07:35:13Z</time>
      </trkpt>
      <trkpt lat="46.18683" lon="-1.32254">
        <ele>2.7</ele>
        <time>2020-06-02T07:35:14Z</time>
      </trkpt>
      <trkpt lat="46.1868" lon="-1.32246">
        <ele>2.7</ele>
        <time>2020-06-02T07:35:15Z</time>
      </trkpt>
      <trkpt lat="46.18677" lon="-1.32239">
        <ele>2.7</ele>
        <time>2020-06-02T07:35:16Z</time>
      </trkpt>
      <trkpt lat="46.18673" lon="-1.32232">
        <ele>2.8</ele>
        <time>2020-06-02T07:35:17Z</time>
      </trkpt>
      <trkpt lat="46.18671" lon="-1.32224">
        <ele>2.8</ele>
        <time>2020-06-02T07:35:18Z</time>
      </trkpt>
      <trkpt lat="46.18666" lon="-1.32218">
        <ele>2.8</ele>
        <time>2020-06-02T07:35:19Z</time>
      </trkpt>
      <trkpt lat="46.18664" lon="-1.3221">
        <ele>2.9</ele>
        <time>2020-06-02T07:35:20Z</time>
      </trkpt>
      <trkpt lat="46.18661" lon="-1.32203">
        <ele>2.9</ele>
        <time>2020-06-02T07:35:21Z</time>
      </trkpt>
      <trkpt lat="46.18657" lon="-1.32196">
        <ele>2.9</ele>
        <time>2020-06-02T07:35:22Z</time>
      </trkpt>
      <trkpt lat="46.18655" lon="-1.32189">
        <ele>2.9</ele>
        <time>2020-06-02T07:35:23Z</time>
      </trkpt>
      <trkpt lat="46.18653" lon="-1.32181">
        <ele>3</ele>
        <time>2020-06-02T07:35:24Z</time>
      </trkpt>
      <trkpt lat="46.1865" lon="-1.32174">
        <ele>3</ele>
        <time>2020-06-02T07:35:25Z</time>
      </trkpt>
      <trkpt lat="46.18648" lon="-1.32166">
        <ele>3</ele>
        <time>2020-06-02T07:35:26Z</time>
      </trkpt>
      <trkpt lat="46.18648" lon="-1.32158">
        <ele>3.1</ele>
        <time>2020-06-02T07:35:27Z</time>
      </trkpt>
      <trkpt lat="46.18648" lon="-1.3215">
        <ele>3.2</ele>
        <time>2020-06-02T07:35:28Z</time>
      </trkpt>
      <trkpt lat="46.18647" lon="-1.32142">
        <ele>3.3</ele>
        <time>2020-06-02T07:35:29Z</time>
      </trkpt>
      <trkpt lat="46.18646" lon="-1.32134">
        <ele>3.4</ele>
        <time>2020-06-02T07:35:30Z</time>
      </trkpt>
      <trkpt lat="46.18646" lon="-1.32126">
        <ele>3.5</ele>
        <time>2020-06-02T07:35:31Z</time>
      </trkpt>
      <trkpt lat="46.18646" lon="-1.32119">
        <ele>3.5</ele>
        <time>2020-06-02T07:35:32Z</time>
      </trkpt>
      <trkpt lat="46.18646" lon="-1.32111">
        <ele>3.5</ele>
        <time>2020-06-02T07:35:33Z</time>
      </trkpt>
      <trkpt lat="46.18645" lon="-1.32104">
        <ele>3.5</ele>
        <time>2020-06-02T07:35:34Z</time>
      </trkpt>
      <trkpt lat="46.18646" lon="-1.32096">
        <ele>3.5</ele>
        <time>2020-06-02T07:35:35Z</time>
      </trkpt>
      <trkpt lat="46.18646" lon="-1.32089">
        <ele>3.6</ele>
        <time>2020-06-02T07:35:36Z</time>
      </trkpt>
      <trkpt lat="46.18645" lon="-1.32081">
        <ele>3.6</ele>
        <time>2020-06-02T07:35:37Z</time>
      </trkpt>
      <trkpt lat="46.18644" lon="-1.32074">
        <ele>3.7</ele>
        <time>2020-06-02T07:35:38Z</time>
      </trkpt>
      <trkpt lat="46.18643" lon="-1.32067">
        <ele>3.7</ele>
        <time>2020-06-02T07:35:39Z</time>
      </trkpt>
      <trkpt lat="46.18641" lon="-1.3206">
        <ele>3.7</ele>
        <time>2020-06-02T07:35:40Z</time>
      </trkpt>
      <trkpt lat="46.1864" lon="-1.32052">
        <ele>3.8</ele>
        <time>2020-06-02T07:35:41Z</time>
      </trkpt>
      <trkpt lat="46.18638" lon="-1.32045">
        <ele>3.8</ele>
        <time>2020-06-02T07:35:42Z</time>
      </trkpt>
      <trkpt lat="46.18637" lon="-1.32037">
        <ele>3.9</ele>
        <time>2020-06-02T07:35:43Z</time>
      </trkpt>
      <trkpt lat="46.18634" lon="-1.3203">
        <ele>3.9</ele>
        <time>2020-06-02T07:35:44Z</time>
      </trkpt>
      <trkpt lat="46.18634" lon="-1.32022">
        <ele>4</ele>
        <time>2020-06-02T07:35:45Z</time>
      </trkpt>
      <trkpt lat="46.18632" lon="-1.32015">
        <ele>4</ele>
        <time>2020-06-02T07:35:46Z</time>
      </trkpt>
      <trkpt lat="46.18631" lon="-1.32008">
        <ele>4</ele>
        <time>2020-06-02T07:35:47Z</time>
      </trkpt>
      <trkpt lat="46.18629" lon="-1.32">
        <ele>4.1</ele>
        <time>2020-06-02T07:35:48Z</time>
      </trkpt>
      <trkpt lat="46.18627" lon="-1.31992">
        <ele>4.2</ele>
        <time>2020-06-02T07:35:49Z</time>
      </trkpt>
      <trkpt lat="46.18625" lon="-1.31986">
        <ele>4.2</ele>
        <time>2020-06-02T07:35:50Z</time>
      </trkpt>
      <trkpt lat="46.18622" lon="-1.3198">
        <ele>4.3</ele>
        <time>2020-06-02T07:35:51Z</time>
      </trkpt>
      <trkpt lat="46.18618" lon="-1.31974">
        <ele>4.4</ele>
        <time>2020-06-02T07:35:52Z</time>
      </trkpt>
      <trkpt lat="46.18615" lon="-1.31969">
        <ele>4.5</ele>
        <time>2020-06-02T07:35:53Z</time>
      </trkpt>
      <trkpt lat="46.18611" lon="-1.31962">
        <ele>4.5</ele>
        <time>2020-06-02T07:35:54Z</time>
      </trkpt>
      <trkpt lat="46.18608" lon="-1.31957">
        <ele>4.6</ele>
        <time>2020-06-02T07:35:55Z</time>
      </trkpt>
      <trkpt lat="46.18604" lon="-1.31952">
        <ele>4.7</ele>
        <time>2020-06-02T07:35:56Z</time>
      </trkpt>
      <trkpt lat="46.186" lon="-1.31948">
        <ele>4.8</ele>
        <time>2020-06-02T07:35:57Z</time>
      </trkpt>
      <trkpt lat="46.18595" lon="-1.31944">
        <ele>4.9</ele>
        <time>2020-06-02T07:35:58Z</time>
      </trkpt>
      <trkpt lat="46.18591" lon="-1.3194">
        <ele>5</ele>
        <time>2020-06-02T07:35:59Z</time>
      </trkpt>
      <trkpt lat="46.18587" lon="-1.31936">
        <ele>5.1</ele>
        <time>2020-06-02T07:36:00Z</time>
      </trkpt>
      <trkpt lat="46.18582" lon="-1.31933">
        <ele>5.2</ele>
        <time>2020-06-02T07:36:01Z</time>
      </trkpt>
      <trkpt lat="46.18578" lon="-1.31928">
        <ele>5.3</ele>
        <time>2020-06-02T07:36:02Z</time>
      </trkpt>
      <trkpt lat="46.18574" lon="-1.31924">
        <ele>5.4</ele>
        <time>2020-06-02T07:36:03Z</time>
      </trkpt>
      <trkpt lat="46.1857" lon="-1.31919">
        <ele>5.5</ele>
        <time>2020-06-02T07:36:04Z</time>
      </trkpt>
      <trkpt lat="46.18566" lon="-1.31915">
        <ele>5.7</ele>
        <time>2020-06-02T07:36:05Z</time>
      </trkpt>
      <trkpt lat="46.18563" lon="-1.3191">
        <ele>5.8</ele>
        <time>2020-06-02T07:36:06Z</time>
      </trkpt>
      <trkpt lat="46.18559" lon="-1.31905">
        <ele>5.9</ele>
        <time>2020-06-02T07:36:07Z</time>
      </trkpt>
      <trkpt lat="46.18556" lon="-1.319">
        <ele>6.1</ele>
        <time>2020-06-02T07:36:08Z</time>
      </trkpt>
      <trkpt lat="46.18552" lon="-1.31895">
        <ele>6.2</ele>
        <time>2020-06-02T07:36:09Z</time>
      </trkpt>
      <trkpt lat="46.18549" lon="-1.3189">
        <ele>6.3</ele>
        <time>2020-06-02T07:36:10Z</time>
      </trkpt>
      <trkpt lat="46.18546" lon="-1.31885">
        <ele>6.3</ele>
        <time>2020-06-02T07:36:11Z</time>
      </trkpt>
      <trkpt lat="46.18544" lon="-1.3188">
        <ele>6.4</ele>
        <time>2020-06-02T07:36:12Z</time>
      </trkpt>
      <trkpt lat="46.18541" lon="-1.31874">
        <ele>6.6</ele>
        <time>2020-06-02T07:36:13Z</time>
      </trkpt>
      <trkpt lat="46.18539" lon="-1.31869">
        <ele>6.7</ele>
        <time>2020-06-02T07:36:14Z</time>
      </trkpt>
      <trkpt lat="46.18537" lon="-1.31863">
        <ele>6.8</ele>
        <time>2020-06-02T07:36:15Z</time>
      </trkpt>
      <trkpt lat="46.18535" lon="-1.31856">
        <ele>6.9</ele>
        <time>2020-06-02T07:36:16Z</time>
      </trkpt>
      <trkpt lat="46.18533" lon="-1.3185">
        <ele>7</ele>
        <time>2020-06-02T07:36:17Z</time>
      </trkpt>
      <trkpt lat="46.18531" lon="-1.31844">
        <ele>7.1</ele>
        <time>2020-06-02T07:36:18Z</time>
      </trkpt>
      <trkpt lat="46.18529" lon="-1.31837">
        <ele>7.2</ele>
        <time>2020-06-02T07:36:19Z</time>
      </trkpt>
      <trkpt lat="46.18527" lon="-1.3183">
        <ele>7.3</ele>
        <time>2020-06-02T07:36:20Z</time>
      </trkpt>
      <trkpt lat="46.18525" lon="-1.31823">
        <ele>7.5</ele>
        <time>2020-06-02T07:36:21Z</time>
      </trkpt>
      <trkpt lat="46.18523" lon="-1.31817">
        <ele>7.6</ele>
        <time>2020-06-02T07:36:22Z</time>
      </trkpt>
      <trkpt lat="46.18521" lon="-1.31811">
        <ele>7.6</ele>
        <time>2020-06-02T07:36:23Z</time>
      </trkpt>
      <trkpt lat="46.18518" lon="-1.31805">
        <ele>7.7</ele>
        <time>2020-06-02T07:36:24Z</time>
      </trkpt>
      <trkpt lat="46.18517" lon="-1.31799">
        <ele>7.8</ele>
        <time>2020-06-02T07:36:25Z</time>
      </trkpt>
      <trkpt lat="46.18515" lon="-1.31793">
        <ele>7.8</ele>
        <time>2020-06-02T07:36:26Z</time>
      </trkpt>
      <trkpt lat="46.18513" lon="-1.31788">
        <ele>7.8</ele>
        <time>2020-06-02T07:36:27Z</time>
      </trkpt>
      <trkpt lat="46.18511" lon="-1.31783">
        <ele>7.9</ele>
        <time>2020-06-02T07:36:28Z</time>
      </trkpt>
      <trkpt lat="46.18509" lon="-1.31778">
        <ele>8</ele>
        <time>2020-06-02T07:36:29Z</time>
      </trkpt>
      <trkpt lat="46.18507" lon="-1.31774">
        <ele>8</ele>
        <time>2020-06-02T07:36:30Z</time>
      </trkpt>
      <trkpt lat="46.18505" lon="-1.31769">
        <ele>8.1</ele>
        <time>2020-06-02T07:36:31Z</time>
      </trkpt>
      <trkpt lat="46.18503" lon="-1.31763">
        <ele>8.1</ele>
        <time>2020-06-02T07:36:32Z</time>
      </trkpt>
      <trkpt lat="46.18501" lon="-1.31757">
        <ele>8.2</ele>
        <time>2020-06-02T07:36:33Z</time>
      </trkpt>
      <trkpt lat="46.18499" lon="-1.3175">
        <ele>8.3</ele>
        <time>2020-06-02T07:36:34Z</time>
      </trkpt>
      <trkpt lat="46.18497" lon="-1.31744">
        <ele>8.4</ele>
        <time>2020-06-02T07:36:35Z</time>
      </trkpt>
      <trkpt lat="46.18496" lon="-1.31737">
        <ele>8.5</ele>
        <time>2020-06-02T07:36:36Z</time>
      </trkpt>
      <trkpt lat="46.18494" lon="-1.3173">
        <ele>8.6</ele>
        <time>2020-06-02T07:36:37Z</time>
      </trkpt>
      <trkpt lat="46.18492" lon="-1.31722">
        <ele>8.8</ele>
        <time>2020-06-02T07:36:38Z</time>
      </trkpt>
      <trkpt lat="46.18491" lon="-1.31715">
        <ele>8.9</ele>
        <time>2020-06-02T07:36:39Z</time>
      </trkpt>
      <trkpt lat="46.1849" lon="-1.31708">
        <ele>9</ele>
        <time>2020-06-02T07:36:40Z</time>
      </trkpt>
      <trkpt lat="46.18489" lon="-1.31702">
        <ele>9.1</ele>
        <time>2020-06-02T07:36:41Z</time>
      </trkpt>
      <trkpt lat="46.18489" lon="-1.31696">
        <ele>9.2</ele>
        <time>2020-06-02T07:36:42Z</time>
      </trkpt>
      <trkpt lat="46.18488" lon="-1.31689">
        <ele>9.3</ele>
        <time>2020-06-02T07:36:43Z</time>
      </trkpt>
      <trkpt lat="46.18488" lon="-1.31685">
        <ele>9.3</ele>
        <time>2020-06-02T07:36:44Z</time>
      </trkpt>
      <trkpt lat="46.18488" lon="-1.31678">
        <ele>9.4</ele>
        <time>2020-06-02T07:36:45Z</time>
      </trkpt>
      <trkpt lat="46.18488" lon="-1.31671">
        <ele>9.5</ele>
        <time>2020-06-02T07:36:46Z</time>
      </trkpt>
      <trkpt lat="46.18488" lon="-1.31666">
        <ele>9.5</ele>
        <time>2020-06-02T07:36:47Z</time>
      </trkpt>
      <trkpt lat="46.18487" lon="-1.31661">
        <ele>9.5</ele>
        <time>2020-06-02T07:36:48Z</time>
      </trkpt>
      <trkpt lat="46.18487" lon="-1.31655">
        <ele>9.6</ele>
        <time>2020-06-02T07:36:49Z</time>
      </trkpt>
      <trkpt lat="46.18487" lon="-1.31648">
        <ele>9.6</ele>
        <time>2020-06-02T07:36:50Z</time>
      </trkpt>
      <trkpt lat="46.18487" lon="-1.31641">
        <ele>9.7</ele>
        <time>2020-06-02T07:36:51Z</time>
      </trkpt>
      <trkpt lat="46.18487" lon="-1.31635">
        <ele>9.7</ele>
        <time>2020-06-02T07:36:52Z</time>
      </trkpt>
      <trkpt lat="46.18486" lon="-1.31628">
        <ele>9.8</ele>
        <time>2020-06-02T07:36:53Z</time>
      </trkpt>
      <trkpt lat="46.18487" lon="-1.31621">
        <ele>9.8</ele>
        <time>2020-06-02T07:36:54Z</time>
      </trkpt>
      <trkpt lat="46.18488" lon="-1.31614">
        <ele>9.9</ele>
        <time>2020-06-02T07:36:55Z</time>
      </trkpt>
      <trkpt lat="46.18488" lon="-1.31608">
        <ele>9.9</ele>
        <time>2020-06-02T07:36:56Z</time>
      </trkpt>
      <trkpt lat="46.18489" lon="-1.31601">
        <ele>9.9</ele>
        <time>2020-06-02T07:36:57Z</time>
      </trkpt>
      <trkpt lat="46.1849" lon="-1.31595">
        <ele>9.9</ele>
        <time>2020-06-02T07:36:58Z</time>
      </trkpt>
      <trkpt lat="46.18491" lon="-1.31588">
        <ele>9.9</ele>
        <time>2020-06-02T07:36:59Z</time>
      </trkpt>
      <trkpt lat="46.18492" lon="-1.31579">
        <ele>9.8</ele>
        <time>2020-06-02T07:37:00Z</time>
      </trkpt>
      <trkpt lat="46.18493" lon="-1.31572">
        <ele>9.8</ele>
        <time>2020-06-02T07:37:01Z</time>
      </trkpt>
      <trkpt lat="46.18495" lon="-1.31565">
        <ele>9.7</ele>
        <time>2020-06-02T07:37:02Z</time>
      </trkpt>
      <trkpt lat="46.18496" lon="-1.31557">
        <ele>9.6</ele>
        <time>2020-06-02T07:37:03Z</time>
      </trkpt>
      <trkpt lat="46.18497" lon="-1.31549">
        <ele>9.6</ele>
        <time>2020-06-02T07:37:04Z</time>
      </trkpt>
      <trkpt lat="46.18497" lon="-1.31542">
        <ele>9.5</ele>
        <time>2020-06-02T07:37:05Z</time>
      </trkpt>
      <trkpt lat="46.18499" lon="-1.31533">
        <ele>9.4</ele>
        <time>2020-06-02T07:37:06Z</time>
      </trkpt>
      <trkpt lat="46.185" lon="-1.31525">
        <ele>9.3</ele>
        <time>2020-06-02T07:37:07Z</time>
      </trkpt>
      <trkpt lat="46.18501" lon="-1.31516">
        <ele>9.3</ele>
        <time>2020-06-02T07:37:08Z</time>
      </trkpt>
      <trkpt lat="46.18503" lon="-1.3151">
        <ele>9.2</ele>
        <time>2020-06-02T07:37:09Z</time>
      </trkpt>
      <trkpt lat="46.18503" lon="-1.31502">
        <ele>9.1</ele>
        <time>2020-06-02T07:37:10Z</time>
      </trkpt>
      <trkpt lat="46.18504" lon="-1.31493">
        <ele>9.1</ele>
        <time>2020-06-02T07:37:11Z</time>
      </trkpt>
      <trkpt lat="46.18506" lon="-1.31487">
        <ele>9</ele>
        <time>2020-06-02T07:37:12Z</time>
      </trkpt>
      <trkpt lat="46.18507" lon="-1.31479">
        <ele>8.9</ele>
        <time>2020-06-02T07:37:13Z</time>
      </trkpt>
      <trkpt lat="46.18507" lon="-1.31472">
        <ele>8.9</ele>
        <time>2020-06-02T07:37:14Z</time>
      </trkpt>
      <trkpt lat="46.18508" lon="-1.31465">
        <ele>8.8</ele>
        <time>2020-06-02T07:37:15Z</time>
      </trkpt>
      <trkpt lat="46.18509" lon="-1.31458">
        <ele>8.7</ele>
        <time>2020-06-02T07:37:16Z</time>
      </trkpt>
      <trkpt lat="46.1851" lon="-1.31451">
        <ele>8.7</ele>
        <time>2020-06-02T07:37:17Z</time>
      </trkpt>
      <trkpt lat="46.1851" lon="-1.31444">
        <ele>8.7</ele>
        <time>2020-06-02T07:37:18Z</time>
      </trkpt>
      <trkpt lat="46.18511" lon="-1.31437">
        <ele>8.6</ele>
        <time>2020-06-02T07:37:19Z</time>
      </trkpt>
      <trkpt lat="46.18513" lon="-1.3143">
        <ele>8.6</ele>
        <time>2020-06-02T07:37:20Z</time>
      </trkpt>
      <trkpt lat="46.18514" lon="-1.31422">
        <ele>8.6</ele>
        <time>2020-06-02T07:37:21Z</time>
      </trkpt>
      <trkpt lat="46.18515" lon="-1.31413">
        <ele>8.5</ele>
        <time>2020-06-02T07:37:22Z</time>
      </trkpt>
      <trkpt lat="46.18516" lon="-1.31406">
        <ele>8.5</ele>
        <time>2020-06-02T07:37:23Z</time>
      </trkpt>
      <trkpt lat="46.18517" lon="-1.314">
        <ele>8.5</ele>
        <time>2020-06-02T07:37:24Z</time>
      </trkpt>
      <trkpt lat="46.18519" lon="-1.31394">
        <ele>8.5</ele>
        <time>2020-06-02T07:37:25Z</time>
      </trkpt>
      <trkpt lat="46.18519" lon="-1.31386">
        <ele>8.5</ele>
        <time>2020-06-02T07:37:26Z</time>
      </trkpt>
      <trkpt lat="46.1852" lon="-1.31378">
        <ele>8.5</ele>
        <time>2020-06-02T07:37:27Z</time>
      </trkpt>
      <trkpt lat="46.1852" lon="-1.3137">
        <ele>8.5</ele>
        <time>2020-06-02T07:37:28Z</time>
      </trkpt>
      <trkpt lat="46.1852" lon="-1.31363">
        <ele>8.5</ele>
        <time>2020-06-02T07:37:29Z</time>
      </trkpt>
      <trkpt lat="46.18522" lon="-1.31355">
        <ele>8.5</ele>
        <time>2020-06-02T07:37:30Z</time>
      </trkpt>
      <trkpt lat="46.18523" lon="-1.31347">
        <ele>8.6</ele>
        <time>2020-06-02T07:37:31Z</time>
      </trkpt>
      <trkpt lat="46.18524" lon="-1.31338">
        <ele>8.6</ele>
        <time>2020-06-02T07:37:32Z</time>
      </trkpt>
      <trkpt lat="46.18525" lon="-1.3133">
        <ele>8.6</ele>
        <time>2020-06-02T07:37:33Z</time>
      </trkpt>
      <trkpt lat="46.18525" lon="-1.31323">
        <ele>8.6</ele>
        <time>2020-06-02T07:37:34Z</time>
      </trkpt>
      <trkpt lat="46.18525" lon="-1.31315">
        <ele>8.6</ele>
        <time>2020-06-02T07:37:35Z</time>
      </trkpt>
      <trkpt lat="46.18526" lon="-1.31308">
        <ele>8.6</ele>
        <time>2020-06-02T07:37:36Z</time>
      </trkpt>
      <trkpt lat="46.18526" lon="-1.31301">
        <ele>8.6</ele>
        <time>2020-06-02T07:37:37Z</time>
      </trkpt>
      <trkpt lat="46.18526" lon="-1.31294">
        <ele>8.7</ele>
        <time>2020-06-02T07:37:38Z</time>
      </trkpt>
      <trkpt lat="46.18525" lon="-1.31287">
        <ele>8.7</ele>
        <time>2020-06-02T07:37:39Z</time>
      </trkpt>
      <trkpt lat="46.18525" lon="-1.3128">
        <ele>8.7</ele>
        <time>2020-06-02T07:37:40Z</time>
      </trkpt>
      <trkpt lat="46.18525" lon="-1.31272">
        <ele>8.7</ele>
        <time>2020-06-02T07:37:41Z</time>
      </trkpt>
      <trkpt lat="46.18526" lon="-1.31265">
        <ele>8.7</ele>
        <time>2020-06-02T07:37:42Z</time>
      </trkpt>
      <trkpt lat="46.18526" lon="-1.31257">
        <ele>8.7</ele>
        <time>2020-06-02T07:37:43Z</time>
      </trkpt>
      <trkpt lat="46.18525" lon="-1.31248">
        <ele>8.8</ele>
        <time>2020-06-02T07:37:44Z</time>
      </trkpt>
      <trkpt lat="46.18524" lon="-1.3124">
        <ele>8.8</ele>
        <time>2020-06-02T07:37:45Z</time>
      </trkpt>
      <trkpt lat="46.18524" lon="-1.31232">
        <ele>8.8</ele>
        <time>2020-06-02T07:37:46Z</time>
      </trkpt>
      <trkpt lat="46.18523" lon="-1.31226">
        <ele>8.8</ele>
        <time>2020-06-02T07:37:47Z</time>
      </trkpt>
      <trkpt lat="46.18524" lon="-1.3122">
        <ele>8.8</ele>
        <time>2020-06-02T07:37:48Z</time>
      </trkpt>
      <trkpt lat="46.18523" lon="-1.31212">
        <ele>8.8</ele>
        <time>2020-06-02T07:37:49Z</time>
      </trkpt>
      <trkpt lat="46.18524" lon="-1.31205">
        <ele>8.8</ele>
        <time>2020-06-02T07:37:50Z</time>
      </trkpt>
      <trkpt lat="46.18524" lon="-1.31197">
        <ele>8.9</ele>
        <time>2020-06-02T07:37:51Z</time>
      </trkpt>
      <trkpt lat="46.18524" lon="-1.31191">
        <ele>8.9</ele>
        <time>2020-06-02T07:37:52Z</time>
      </trkpt>
      <trkpt lat="46.18525" lon="-1.31184">
        <ele>8.9</ele>
        <time>2020-06-02T07:37:53Z</time>
      </trkpt>
      <trkpt lat="46.18525" lon="-1.31178">
        <ele>8.9</ele>
        <time>2020-06-02T07:37:54Z</time>
      </trkpt>
      <trkpt lat="46.18525" lon="-1.3117">
        <ele>8.9</ele>
        <time>2020-06-02T07:37:55Z</time>
      </trkpt>
      <trkpt lat="46.18525" lon="-1.31162">
        <ele>9</ele>
        <time>2020-06-02T07:37:56Z</time>
      </trkpt>
      <trkpt lat="46.18525" lon="-1.31155">
        <ele>9</ele>
        <time>2020-06-02T07:37:57Z</time>
      </trkpt>
      <trkpt lat="46.18525" lon="-1.31149">
        <ele>9</ele>
        <time>2020-06-02T07:37:58Z</time>
      </trkpt>
      <trkpt lat="46.18524" lon="-1.31141">
        <ele>9</ele>
        <time>2020-06-02T07:37:59Z</time>
      </trkpt>
      <trkpt lat="46.18525" lon="-1.31135">
        <ele>9.1</ele>
        <time>2020-06-02T07:38:00Z</time>
      </trkpt>
      <trkpt lat="46.18525" lon="-1.31127">
        <ele>9.1</ele>
        <time>2020-06-02T07:38:01Z</time>
      </trkpt>
      <trkpt lat="46.18525" lon="-1.31121">
        <ele>9.1</ele>
        <time>2020-06-02T07:38:02Z</time>
      </trkpt>
      <trkpt lat="46.18525" lon="-1.31115">
        <ele>9.1</ele>
        <time>2020-06-02T07:38:03Z</time>
      </trkpt>
      <trkpt lat="46.18526" lon="-1.31109">
        <ele>9.1</ele>
        <time>2020-06-02T07:38:04Z</time>
      </trkpt>
      <trkpt lat="46.18527" lon="-1.31101">
        <ele>9.2</ele>
        <time>2020-06-02T07:38:05Z</time>
      </trkpt>
      <trkpt lat="46.18526" lon="-1.31092">
        <ele>9.2</ele>
        <time>2020-06-02T07:38:06Z</time>
      </trkpt>
      <trkpt lat="46.18526" lon="-1.31084">
        <ele>9.2</ele>
        <time>2020-06-02T07:38:07Z</time>
      </trkpt>
      <trkpt lat="46.18526" lon="-1.31077">
        <ele>9.2</ele>
        <time>2020-06-02T07:38:08Z</time>
      </trkpt>
      <trkpt lat="46.18525" lon="-1.31069">
        <ele>9.3</ele>
        <time>2020-06-02T07:38:09Z</time>
      </trkpt>
      <trkpt lat="46.18523" lon="-1.3106">
        <ele>9.3</ele>
        <time>2020-06-02T07:38:10Z</time>
      </trkpt>
      <trkpt lat="46.18522" lon="-1.31054">
        <ele>9.4</ele>
        <time>2020-06-02T07:38:11Z</time>
      </trkpt>
      <trkpt lat="46.18521" lon="-1.31045">
        <ele>9.4</ele>
        <time>2020-06-02T07:38:12Z</time>
      </trkpt>
      <trkpt lat="46.1852" lon="-1.31037">
        <ele>9.5</ele>
        <time>2020-06-02T07:38:13Z</time>
      </trkpt>
      <trkpt lat="46.1852" lon="-1.31031">
        <ele>9.5</ele>
        <time>2020-06-02T07:38:14Z</time>
      </trkpt>
      <trkpt lat="46.18519" lon="-1.31023">
        <ele>9.6</ele>
        <time>2020-06-02T07:38:15Z</time>
      </trkpt>
      <trkpt lat="46.18519" lon="-1.31015">
        <ele>9.6</ele>
        <time>2020-06-02T07:38:16Z</time>
      </trkpt>
      <trkpt lat="46.18518" lon="-1.31007">
        <ele>9.7</ele>
        <time>2020-06-02T07:38:17Z</time>
      </trkpt>
      <trkpt lat="46.18517" lon="-1.31">
        <ele>9.7</ele>
        <time>2020-06-02T07:38:18Z</time>
      </trkpt>
      <trkpt lat="46.18517" lon="-1.30995">
        <ele>9.7</ele>
        <time>2020-06-02T07:38:19Z</time>
      </trkpt>
      <trkpt lat="46.18517" lon="-1.30989">
        <ele>9.8</ele>
        <time>2020-06-02T07:38:20Z</time>
      </trkpt>
      <trkpt lat="46.18518" lon="-1.30982">
        <ele>9.8</ele>
        <time>2020-06-02T07:38:21Z</time>
      </trkpt>
      <trkpt lat="46.18517" lon="-1.30974">
        <ele>9.8</ele>
        <time>2020-06-02T07:38:22Z</time>
      </trkpt>
      <trkpt lat="46.18517" lon="-1.30969">
        <ele>9.9</ele>
        <time>2020-06-02T07:38:23Z</time>
      </trkpt>
      <trkpt lat="46.18517" lon="-1.30963">
        <ele>9.9</ele>
        <time>2020-06-02T07:38:24Z</time>
      </trkpt>
      <trkpt lat="46.18517" lon="-1.30956">
        <ele>9.9</ele>
        <time>2020-06-02T07:38:25Z</time>
      </trkpt>
      <trkpt lat="46.18516" lon="-1.30947">
        <ele>10</ele>
        <time>2020-06-02T07:38:26Z</time>
      </trkpt>
      <trkpt lat="46.18515" lon="-1.3094">
        <ele>10</ele>
        <time>2020-06-02T07:38:27Z</time>
      </trkpt>
      <trkpt lat="46.18516" lon="-1.30936">
        <ele>10.1</ele>
        <time>2020-06-02T07:38:28Z</time>
      </trkpt>
      <trkpt lat="46.18514" lon="-1.3093">
        <ele>10.1</ele>
        <time>2020-06-02T07:38:29Z</time>
      </trkpt>
      <trkpt lat="46.18513" lon="-1.30922">
        <ele>10.2</ele>
        <time>2020-06-02T07:38:30Z</time>
      </trkpt>
      <trkpt lat="46.18514" lon="-1.30917">
        <ele>10.2</ele>
        <time>2020-06-02T07:38:31Z</time>
      </trkpt>
      <trkpt lat="46.18517" lon="-1.30911">
        <ele>10.2</ele>
        <time>2020-06-02T07:38:32Z</time>
      </trkpt>
      <trkpt lat="46.18519" lon="-1.30907">
        <ele>10.2</ele>
        <time>2020-06-02T07:38:33Z</time>
      </trkpt>
      <trkpt lat="46.18519" lon="-1.309">
        <ele>10.2</ele>
        <time>2020-06-02T07:38:34Z</time>
      </trkpt>
      <trkpt lat="46.18518" lon="-1.30895">
        <ele>10.2</ele>
        <time>2020-06-02T07:38:35Z</time>
      </trkpt>
      <trkpt lat="46.18517" lon="-1.30893">
        <ele>10.2</ele>
        <time>2020-06-02T07:38:36Z</time>
      </trkpt>
      <trkpt lat="46.18517" lon="-1.30888">
        <ele>10.2</ele>
        <time>2020-06-02T07:38:37Z</time>
      </trkpt>
      <trkpt lat="46.18516" lon="-1.30883">
        <ele>10.2</ele>
        <time>2020-06-02T07:38:38Z</time>
      </trkpt>
      <trkpt lat="46.18516" lon="-1.30878">
        <ele>10.3</ele>
        <time>2020-06-02T07:38:39Z</time>
      </trkpt>
      <trkpt lat="46.18515" lon="-1.30873">
        <ele>10.3</ele>
        <time>2020-06-02T07:38:40Z</time>
      </trkpt>
      <trkpt lat="46.18515" lon="-1.30869">
        <ele>10.3</ele>
        <time>2020-06-02T07:38:41Z</time>
      </trkpt>
      <trkpt lat="46.18515" lon="-1.30866">
        <ele>10.3</ele>
        <time>2020-06-02T07:38:42Z</time>
      </trkpt>
      <trkpt lat="46.18515" lon="-1.30866">
        <ele>10.3</ele>
        <time>2020-06-02T07:38:43Z</time>
      </trkpt>
      <trkpt lat="46.18515" lon="-1.30866">
        <ele>10.3</ele>
        <time>2020-06-02T07:38:44Z</time>
      </trkpt>
      <trkpt lat="46.18515" lon="-1.30865">
        <ele>10.3</ele>
        <time>2020-06-02T07:38:45Z</time>
      </trkpt>
      <trkpt lat="46.18515" lon="-1.30865">
        <ele>10.3</ele>
        <time>2020-06-02T07:38:46Z</time>
      </trkpt>
      <trkpt lat="46.18515" lon="-1.30865">
        <ele>10.3</ele>
        <time>2020-06-02T07:38:47Z</time>
      </trkpt>
      <trkpt lat="46.18515" lon="-1.30865">
        <ele>10.3</ele>
        <time>2020-06-02T07:38:48Z</time>
      </trkpt>
      <trkpt lat="46.18515" lon="-1.30864">
        <ele>10.3</ele>
        <time>2020-06-02T07:38:49Z</time>
      </trkpt>
      <trkpt lat="46.18515" lon="-1.30864">
        <ele>10.3</ele>
        <time>2020-06-02T07:38:50Z</time>
      </trkpt>
      <trkpt lat="46.18515" lon="-1.30864">
        <ele>10.3</ele>
        <time>2020-06-02T07:38:51Z</time>
      </trkpt>
      <trkpt lat="46.18515" lon="-1.30859">
        <ele>10.3</ele>
        <time>2020-06-02T07:38:52Z</time>
      </trkpt>
      <trkpt lat="46.18515" lon="-1.30858">
        <ele>10.3</ele>
        <time>2020-06-02T07:38:53Z</time>
      </trkpt>
      <trkpt lat="46.18514" lon="-1.30851">
        <ele>10.2</ele>
        <time>2020-06-02T07:38:54Z</time>
      </trkpt>
      <trkpt lat="46.18514" lon="-1.30849">
        <ele>10.2</ele>
        <time>2020-06-02T07:38:55Z</time>
      </trkpt>
      <trkpt lat="46.18513" lon="-1.30844">
        <ele>10.2</ele>
        <time>2020-06-02T07:38:56Z</time>
      </trkpt>
      <trkpt lat="46.18512" lon="-1.30839">
        <ele>10.2</ele>
        <time>2020-06-02T07:38:57Z</time>
      </trkpt>
      <trkpt lat="46.18512" lon="-1.30833">
        <ele>10.2</ele>
        <time>2020-06-02T07:38:58Z</time>
      </trkpt>
      <trkpt lat="46.18512" lon="-1.30828">
        <ele>10.2</ele>
        <time>2020-06-02T07:38:59Z</time>
      </trkpt>
      <trkpt lat="46.18512" lon="-1.3082">
        <ele>10.2</ele>
        <time>2020-06-02T07:39:00Z</time>
      </trkpt>
      <trkpt lat="46.18512" lon="-1.30813">
        <ele>10.1</ele>
        <time>2020-06-02T07:39:01Z</time>
      </trkpt>
      <trkpt lat="46.18512" lon="-1.30807">
        <ele>10.1</ele>
        <time>2020-06-02T07:39:02Z</time>
      </trkpt>
      <trkpt lat="46.18513" lon="-1.30799">
        <ele>10</ele>
        <time>2020-06-02T07:39:03Z</time>
      </trkpt>
      <trkpt lat="46.18516" lon="-1.30795">
        <ele>9.9</ele>
        <time>2020-06-02T07:39:04Z</time>
      </trkpt>
      <trkpt lat="46.1852" lon="-1.30791">
        <ele>9.7</ele>
        <time>2020-06-02T07:39:05Z</time>
      </trkpt>
      <trkpt lat="46.18526" lon="-1.30792">
        <ele>9.5</ele>
        <time>2020-06-02T07:39:06Z</time>
      </trkpt>
      <trkpt lat="46.18532" lon="-1.30792">
        <ele>9.4</ele>
        <time>2020-06-02T07:39:07Z</time>
      </trkpt>
      <trkpt lat="46.18537" lon="-1.30792">
        <ele>9.2</ele>
        <time>2020-06-02T07:39:08Z</time>
      </trkpt>
      <trkpt lat="46.18542" lon="-1.30792">
        <ele>9</ele>
        <time>2020-06-02T07:39:09Z</time>
      </trkpt>
      <trkpt lat="46.18547" lon="-1.30792">
        <ele>8.9</ele>
        <time>2020-06-02T07:39:10Z</time>
      </trkpt>
      <trkpt lat="46.18552" lon="-1.30793">
        <ele>8.7</ele>
        <time>2020-06-02T07:39:11Z</time>
      </trkpt>
      <trkpt lat="46.18558" lon="-1.30794">
        <ele>8.6</ele>
        <time>2020-06-02T07:39:12Z</time>
      </trkpt>
      <trkpt lat="46.18563" lon="-1.30795">
        <ele>8.5</ele>
        <time>2020-06-02T07:39:13Z</time>
      </trkpt>
      <trkpt lat="46.18569" lon="-1.30796">
        <ele>8.4</ele>
        <time>2020-06-02T07:39:14Z</time>
      </trkpt>
      <trkpt lat="46.18574" lon="-1.30798">
        <ele>8.3</ele>
        <time>2020-06-02T07:39:15Z</time>
      </trkpt>
      <trkpt lat="46.1858" lon="-1.30799">
        <ele>8.3</ele>
        <time>2020-06-02T07:39:16Z</time>
      </trkpt>
      <trkpt lat="46.18586" lon="-1.308">
        <ele>8.2</ele>
        <time>2020-06-02T07:39:17Z</time>
      </trkpt>
      <trkpt lat="46.18592" lon="-1.308">
        <ele>8.1</ele>
        <time>2020-06-02T07:39:18Z</time>
      </trkpt>
      <trkpt lat="46.18597" lon="-1.308">
        <ele>8.1</ele>
        <time>2020-06-02T07:39:19Z</time>
      </trkpt>
      <trkpt lat="46.18603" lon="-1.30802">
        <ele>8</ele>
        <time>2020-06-02T07:39:20Z</time>
      </trkpt>
      <trkpt lat="46.18609" lon="-1.30802">
        <ele>7.9</ele>
        <time>2020-06-02T07:39:21Z</time>
      </trkpt>
      <trkpt lat="46.18615" lon="-1.30802">
        <ele>7.9</ele>
        <time>2020-06-02T07:39:22Z</time>
      </trkpt>
      <trkpt lat="46.1862" lon="-1.30803">
        <ele>7.8</ele>
        <time>2020-06-02T07:39:23Z</time>
      </trkpt>
      <trkpt lat="46.18625" lon="-1.30805">
        <ele>7.8</ele>
        <time>2020-06-02T07:39:24Z</time>
      </trkpt>
      <trkpt lat="46.1863" lon="-1.30807">
        <ele>7.7</ele>
        <time>2020-06-02T07:39:25Z</time>
      </trkpt>
      <trkpt lat="46.18636" lon="-1.30807">
        <ele>7.7</ele>
        <time>2020-06-02T07:39:26Z</time>
      </trkpt>
      <trkpt lat="46.18641" lon="-1.30808">
        <ele>7.7</ele>
        <time>2020-06-02T07:39:27Z</time>
      </trkpt>
      <trkpt lat="46.18646" lon="-1.30808">
        <ele>7.6</ele>
        <time>2020-06-02T07:39:28Z</time>
      </trkpt>
      <trkpt lat="46.18652" lon="-1.30809">
        <ele>7.6</ele>
        <time>2020-06-02T07:39:29Z</time>
      </trkpt>
      <trkpt lat="46.18657" lon="-1.3081">
        <ele>7.6</ele>
        <time>2020-06-02T07:39:30Z</time>
      </trkpt>
      <trkpt lat="46.18663" lon="-1.30811">
        <ele>7.6</ele>
        <time>2020-06-02T07:39:31Z</time>
      </trkpt>
      <trkpt lat="46.18668" lon="-1.30812">
        <ele>7.5</ele>
        <time>2020-06-02T07:39:32Z</time>
      </trkpt>
      <trkpt lat="46.18674" lon="-1.30813">
        <ele>7.5</ele>
        <time>2020-06-02T07:39:33Z</time>
      </trkpt>
      <trkpt lat="46.18679" lon="-1.30814">
        <ele>7.5</ele>
        <time>2020-06-02T07:39:34Z</time>
      </trkpt>
      <trkpt lat="46.18685" lon="-1.30815">
        <ele>7.5</ele>
        <time>2020-06-02T07:39:35Z</time>
      </trkpt>
      <trkpt lat="46.1869" lon="-1.30816">
        <ele>7.5</ele>
        <time>2020-06-02T07:39:36Z</time>
      </trkpt>
      <trkpt lat="46.18696" lon="-1.30817">
        <ele>7.5</ele>
        <time>2020-06-02T07:39:37Z</time>
      </trkpt>
      <trkpt lat="46.18701" lon="-1.30818">
        <ele>7.5</ele>
        <time>2020-06-02T07:39:38Z</time>
      </trkpt>
      <trkpt lat="46.18706" lon="-1.30819">
        <ele>7.4</ele>
        <time>2020-06-02T07:39:39Z</time>
      </trkpt>
      <trkpt lat="46.18711" lon="-1.30818">
        <ele>7.4</ele>
        <time>2020-06-02T07:39:40Z</time>
      </trkpt>
      <trkpt lat="46.18716" lon="-1.30819">
        <ele>7.4</ele>
        <time>2020-06-02T07:39:41Z</time>
      </trkpt>
      <trkpt lat="46.18722" lon="-1.3082">
        <ele>7.3</ele>
        <time>2020-06-02T07:39:42Z</time>
      </trkpt>
      <trkpt lat="46.18727" lon="-1.3082">
        <ele>7.3</ele>
        <time>2020-06-02T07:39:43Z</time>
      </trkpt>
      <trkpt lat="46.18733" lon="-1.30822">
        <ele>7.2</ele>
        <time>2020-06-02T07:39:44Z</time>
      </trkpt>
      <trkpt lat="46.18738" lon="-1.30823">
        <ele>7.2</ele>
        <time>2020-06-02T07:39:45Z</time>
      </trkpt>
      <trkpt lat="46.18743" lon="-1.30824">
        <ele>7.2</ele>
        <time>2020-06-02T07:39:46Z</time>
      </trkpt>
      <trkpt lat="46.18748" lon="-1.30824">
        <ele>7.2</ele>
        <time>2020-06-02T07:39:47Z</time>
      </trkpt>
      <trkpt lat="46.18754" lon="-1.30822">
        <ele>7.1</ele>
        <time>2020-06-02T07:39:48Z</time>
      </trkpt>
      <trkpt lat="46.18758" lon="-1.30818">
        <ele>7.1</ele>
        <time>2020-06-02T07:39:49Z</time>
      </trkpt>
      <trkpt lat="46.18761" lon="-1.3081">
        <ele>7.1</ele>
        <time>2020-06-02T07:39:50Z</time>
      </trkpt>
      <trkpt lat="46.1876" lon="-1.30803">
        <ele>7.2</ele>
        <time>2020-06-02T07:39:51Z</time>
      </trkpt>
      <trkpt lat="46.18759" lon="-1.30795">
        <ele>7.3</ele>
        <time>2020-06-02T07:39:52Z</time>
      </trkpt>
      <trkpt lat="46.18757" lon="-1.30788">
        <ele>7.4</ele>
        <time>2020-06-02T07:39:53Z</time>
      </trkpt>
      <trkpt lat="46.18755" lon="-1.30782">
        <ele>7.5</ele>
        <time>2020-06-02T07:39:54Z</time>
      </trkpt>
      <trkpt lat="46.18754" lon="-1.30775">
        <ele>7.5</ele>
        <time>2020-06-02T07:39:55Z</time>
      </trkpt>
      <trkpt lat="46.18753" lon="-1.30768">
        <ele>7.6</ele>
        <time>2020-06-02T07:39:56Z</time>
      </trkpt>
      <trkpt lat="46.18752" lon="-1.30762">
        <ele>7.7</ele>
        <time>2020-06-02T07:39:57Z</time>
      </trkpt>
      <trkpt lat="46.18751" lon="-1.30756">
        <ele>7.8</ele>
        <time>2020-06-02T07:39:58Z</time>
      </trkpt>
      <trkpt lat="46.1875" lon="-1.30751">
        <ele>7.8</ele>
        <time>2020-06-02T07:39:59Z</time>
      </trkpt>
      <trkpt lat="46.18749" lon="-1.30745">
        <ele>7.9</ele>
        <time>2020-06-02T07:40:00Z</time>
      </trkpt>
      <trkpt lat="46.18747" lon="-1.30737">
        <ele>8</ele>
        <time>2020-06-02T07:40:01Z</time>
      </trkpt>
      <trkpt lat="46.18746" lon="-1.30732">
        <ele>8</ele>
        <time>2020-06-02T07:40:02Z</time>
      </trkpt>
      <trkpt lat="46.18745" lon="-1.30726">
        <ele>8</ele>
        <time>2020-06-02T07:40:03Z</time>
      </trkpt>
      <trkpt lat="46.18743" lon="-1.30721">
        <ele>8.1</ele>
        <time>2020-06-02T07:40:04Z</time>
      </trkpt>
      <trkpt lat="46.18742" lon="-1.30716">
        <ele>8.1</ele>
        <time>2020-06-02T07:40:05Z</time>
      </trkpt>
      <trkpt lat="46.18741" lon="-1.3071">
        <ele>8.1</ele>
        <time>2020-06-02T07:40:06Z</time>
      </trkpt>
      <trkpt lat="46.1874" lon="-1.30705">
        <ele>8.1</ele>
        <time>2020-06-02T07:40:07Z</time>
      </trkpt>
      <trkpt lat="46.18739" lon="-1.30699">
        <ele>8.1</ele>
        <time>2020-06-02T07:40:08Z</time>
      </trkpt>
      <trkpt lat="46.18738" lon="-1.30692">
        <ele>8.1</ele>
        <time>2020-06-02T07:40:09Z</time>
      </trkpt>
      <trkpt lat="46.18737" lon="-1.30686">
        <ele>8.2</ele>
        <time>2020-06-02T07:40:10Z</time>
      </trkpt>
      <trkpt lat="46.18737" lon="-1.30679">
        <ele>8.2</ele>
        <time>2020-06-02T07:40:11Z</time>
      </trkpt>
      <trkpt lat="46.18737" lon="-1.30672">
        <ele>8.2</ele>
        <time>2020-06-02T07:40:12Z</time>
      </trkpt>
      <trkpt lat="46.18737" lon="-1.30666">
        <ele>8.3</ele>
        <time>2020-06-02T07:40:13Z</time>
      </trkpt>
      <trkpt lat="46.18737" lon="-1.3066">
        <ele>8.3</ele>
        <time>2020-06-02T07:40:14Z</time>
      </trkpt>
      <trkpt lat="46.18737" lon="-1.30653">
        <ele>8.3</ele>
        <time>2020-06-02T07:40:15Z</time>
      </trkpt>
      <trkpt lat="46.18737" lon="-1.30646">
        <ele>8.4</ele>
        <time>2020-06-02T07:40:16Z</time>
      </trkpt>
      <trkpt lat="46.18736" lon="-1.30639">
        <ele>8.4</ele>
        <time>2020-06-02T07:40:17Z</time>
      </trkpt>
      <trkpt lat="46.18735" lon="-1.30632">
        <ele>8.4</ele>
        <time>2020-06-02T07:40:18Z</time>
      </trkpt>
      <trkpt lat="46.18735" lon="-1.30625">
        <ele>8.4</ele>
        <time>2020-06-02T07:40:19Z</time>
      </trkpt>
      <trkpt lat="46.18734" lon="-1.30618">
        <ele>8.4</ele>
        <time>2020-06-02T07:40:20Z</time>
      </trkpt>
      <trkpt lat="46.18733" lon="-1.30611">
        <ele>8.4</ele>
        <time>2020-06-02T07:40:21Z</time>
      </trkpt>
      <trkpt lat="46.18732" lon="-1.30605">
        <ele>8.5</ele>
        <time>2020-06-02T07:40:22Z</time>
      </trkpt>
      <trkpt lat="46.18732" lon="-1.30598">
        <ele>8.5</ele>
        <time>2020-06-02T07:40:23Z</time>
      </trkpt>
      <trkpt lat="46.18731" lon="-1.30592">
        <ele>8.5</ele>
        <time>2020-06-02T07:40:24Z</time>
      </trkpt>
      <trkpt lat="46.1873" lon="-1.30585">
        <ele>8.5</ele>
        <time>2020-06-02T07:40:25Z</time>
      </trkpt>
      <trkpt lat="46.18729" lon="-1.30579">
        <ele>8.5</ele>
        <time>2020-06-02T07:40:26Z</time>
      </trkpt>
      <trkpt lat="46.18729" lon="-1.30572">
        <ele>8.5</ele>
        <time>2020-06-02T07:40:27Z</time>
      </trkpt>
      <trkpt lat="46.18729" lon="-1.30566">
        <ele>8.5</ele>
        <time>2020-06-02T07:40:28Z</time>
      </trkpt>
      <trkpt lat="46.18728" lon="-1.30559">
        <ele>8.6</ele>
        <time>2020-06-02T07:40:29Z</time>
      </trkpt>
      <trkpt lat="46.18728" lon="-1.30553">
        <ele>8.6</ele>
        <time>2020-06-02T07:40:30Z</time>
      </trkpt>
      <trkpt lat="46.18727" lon="-1.30546">
        <ele>8.6</ele>
        <time>2020-06-02T07:40:31Z</time>
      </trkpt>
      <trkpt lat="46.18727" lon="-1.30539">
        <ele>8.6</ele>
        <time>2020-06-02T07:40:32Z</time>
      </trkpt>
      <trkpt lat="46.18726" lon="-1.30531">
        <ele>8.7</ele>
        <time>2020-06-02T07:40:33Z</time>
      </trkpt>
      <trkpt lat="46.18725" lon="-1.30525">
        <ele>8.7</ele>
        <time>2020-06-02T07:40:34Z</time>
      </trkpt>
      <trkpt lat="46.18725" lon="-1.30518">
        <ele>8.7</ele>
        <time>2020-06-02T07:40:35Z</time>
      </trkpt>
      <trkpt lat="46.18725" lon="-1.30513">
        <ele>8.7</ele>
        <time>2020-06-02T07:40:36Z</time>
      </trkpt>
      <trkpt lat="46.18723" lon="-1.30506">
        <ele>8.8</ele>
        <time>2020-06-02T07:40:37Z</time>
      </trkpt>
      <trkpt lat="46.18722" lon="-1.30499">
        <ele>8.8</ele>
        <time>2020-06-02T07:40:38Z</time>
      </trkpt>
      <trkpt lat="46.18721" lon="-1.30493">
        <ele>8.9</ele>
        <time>2020-06-02T07:40:39Z</time>
      </trkpt>
      <trkpt lat="46.18721" lon="-1.30486">
        <ele>9</ele>
        <time>2020-06-02T07:40:40Z</time>
      </trkpt>
      <trkpt lat="46.18721" lon="-1.30479">
        <ele>9.1</ele>
        <time>2020-06-02T07:40:41Z</time>
      </trkpt>
      <trkpt lat="46.1872" lon="-1.30473">
        <ele>9.1</ele>
        <time>2020-06-02T07:40:42Z</time>
      </trkpt>
      <trkpt lat="46.18719" lon="-1.30467">
        <ele>9.2</ele>
        <time>2020-06-02T07:40:43Z</time>
      </trkpt>
      <trkpt lat="46.18718" lon="-1.30461">
        <ele>9.2</ele>
        <time>2020-06-02T07:40:44Z</time>
      </trkpt>
      <trkpt lat="46.18717" lon="-1.30455">
        <ele>9.3</ele>
        <time>2020-06-02T07:40:45Z</time>
      </trkpt>
      <trkpt lat="46.18716" lon="-1.30447">
        <ele>9.3</ele>
        <time>2020-06-02T07:40:46Z</time>
      </trkpt>
      <trkpt lat="46.18716" lon="-1.30441">
        <ele>9.3</ele>
        <time>2020-06-02T07:40:47Z</time>
      </trkpt>
      <trkpt lat="46.18715" lon="-1.30435">
        <ele>9.3</ele>
        <time>2020-06-02T07:40:48Z</time>
      </trkpt>
      <trkpt lat="46.18713" lon="-1.30429">
        <ele>9.3</ele>
        <time>2020-06-02T07:40:49Z</time>
      </trkpt>
      <trkpt lat="46.18712" lon="-1.30422">
        <ele>9.3</ele>
        <time>2020-06-02T07:40:50Z</time>
      </trkpt>
      <trkpt lat="46.18712" lon="-1.30415">
        <ele>9.3</ele>
        <time>2020-06-02T07:40:51Z</time>
      </trkpt>
      <trkpt lat="46.18711" lon="-1.30408">
        <ele>9.3</ele>
        <time>2020-06-02T07:40:52Z</time>
      </trkpt>
      <trkpt lat="46.18711" lon="-1.30401">
        <ele>9.3</ele>
        <time>2020-06-02T07:40:53Z</time>
      </trkpt>
      <trkpt lat="46.18711" lon="-1.30394">
        <ele>9.3</ele>
        <time>2020-06-02T07:40:54Z</time>
      </trkpt>
      <trkpt lat="46.1871" lon="-1.30386">
        <ele>9.4</ele>
        <time>2020-06-02T07:40:55Z</time>
      </trkpt>
      <trkpt lat="46.18709" lon="-1.3038">
        <ele>9.4</ele>
        <time>2020-06-02T07:40:56Z</time>
      </trkpt>
      <trkpt lat="46.18708" lon="-1.30374">
        <ele>9.4</ele>
        <time>2020-06-02T07:40:57Z</time>
      </trkpt>
      <trkpt lat="46.18707" lon="-1.30368">
        <ele>9.4</ele>
        <time>2020-06-02T07:40:58Z</time>
      </trkpt>
      <trkpt lat="46.18706" lon="-1.30362">
        <ele>9.4</ele>
        <time>2020-06-02T07:40:59Z</time>
      </trkpt>
      <trkpt lat="46.18706" lon="-1.30356">
        <ele>9.4</ele>
        <time>2020-06-02T07:41:00Z</time>
      </trkpt>
      <trkpt lat="46.18705" lon="-1.3035">
        <ele>9.4</ele>
        <time>2020-06-02T07:41:01Z</time>
      </trkpt>
      <trkpt lat="46.18705" lon="-1.30343">
        <ele>9.4</ele>
        <time>2020-06-02T07:41:02Z</time>
      </trkpt>
      <trkpt lat="46.18704" lon="-1.30336">
        <ele>9.4</ele>
        <time>2020-06-02T07:41:03Z</time>
      </trkpt>
      <trkpt lat="46.18704" lon="-1.3033">
        <ele>9.4</ele>
        <time>2020-06-02T07:41:04Z</time>
      </trkpt>
      <trkpt lat="46.18703" lon="-1.30323">
        <ele>9.4</ele>
        <time>2020-06-02T07:41:05Z</time>
      </trkpt>
      <trkpt lat="46.18702" lon="-1.30316">
        <ele>9.4</ele>
        <time>2020-06-02T07:41:06Z</time>
      </trkpt>
      <trkpt lat="46.18702" lon="-1.30309">
        <ele>9.4</ele>
        <time>2020-06-02T07:41:07Z</time>
      </trkpt>
      <trkpt lat="46.18701" lon="-1.30302">
        <ele>9.4</ele>
        <time>2020-06-02T07:41:08Z</time>
      </trkpt>
      <trkpt lat="46.18701" lon="-1.30296">
        <ele>9.4</ele>
        <time>2020-06-02T07:41:09Z</time>
      </trkpt>
      <trkpt lat="46.187" lon="-1.30289">
        <ele>9.5</ele>
        <time>2020-06-02T07:41:10Z</time>
      </trkpt>
      <trkpt lat="46.18699" lon="-1.30282">
        <ele>9.5</ele>
        <time>2020-06-02T07:41:11Z</time>
      </trkpt>
      <trkpt lat="46.18698" lon="-1.30275">
        <ele>9.6</ele>
        <time>2020-06-02T07:41:12Z</time>
      </trkpt>
      <trkpt lat="46.18697" lon="-1.30269">
        <ele>9.6</ele>
        <time>2020-06-02T07:41:13Z</time>
      </trkpt>
      <trkpt lat="46.18696" lon="-1.30262">
        <ele>9.6</ele>
        <time>2020-06-02T07:41:14Z</time>
      </trkpt>
      <trkpt lat="46.18695" lon="-1.30256">
        <ele>9.7</ele>
        <time>2020-06-02T07:41:15Z</time>
      </trkpt>
      <trkpt lat="46.18694" lon="-1.30249">
        <ele>9.8</ele>
        <time>2020-06-02T07:41:16Z</time>
      </trkpt>
      <trkpt lat="46.18693" lon="-1.30242">
        <ele>9.8</ele>
        <time>2020-06-02T07:41:17Z</time>
      </trkpt>
      <trkpt lat="46.18691" lon="-1.30236">
        <ele>9.9</ele>
        <time>2020-06-02T07:41:18Z</time>
      </trkpt>
      <trkpt lat="46.1869" lon="-1.3023">
        <ele>10</ele>
        <time>2020-06-02T07:41:19Z</time>
      </trkpt>
      <trkpt lat="46.18688" lon="-1.30224">
        <ele>10.1</ele>
        <time>2020-06-02T07:41:20Z</time>
      </trkpt>
      <trkpt lat="46.18687" lon="-1.30218">
        <ele>10.2</ele>
        <time>2020-06-02T07:41:21Z</time>
      </trkpt>
      <trkpt lat="46.18687" lon="-1.30212">
        <ele>10.3</ele>
        <time>2020-06-02T07:41:22Z</time>
      </trkpt>
      <trkpt lat="46.18687" lon="-1.30206">
        <ele>10.3</ele>
        <time>2020-06-02T07:41:23Z</time>
      </trkpt>
      <trkpt lat="46.18687" lon="-1.302">
        <ele>10.4</ele>
        <time>2020-06-02T07:41:24Z</time>
      </trkpt>
      <trkpt lat="46.18687" lon="-1.30195">
        <ele>10.4</ele>
        <time>2020-06-02T07:41:25Z</time>
      </trkpt>
      <trkpt lat="46.18687" lon="-1.3019">
        <ele>10.4</ele>
        <time>2020-06-02T07:41:26Z</time>
      </trkpt>
      <trkpt lat="46.18687" lon="-1.30185">
        <ele>10.5</ele>
        <time>2020-06-02T07:41:27Z</time>
      </trkpt>
      <trkpt lat="46.18688" lon="-1.30177">
        <ele>10.5</ele>
        <time>2020-06-02T07:41:28Z</time>
      </trkpt>
      <trkpt lat="46.18687" lon="-1.30171">
        <ele>10.6</ele>
        <time>2020-06-02T07:41:29Z</time>
      </trkpt>
      <trkpt lat="46.18686" lon="-1.30165">
        <ele>10.7</ele>
        <time>2020-06-02T07:41:30Z</time>
      </trkpt>
      <trkpt lat="46.18685" lon="-1.30159">
        <ele>10.8</ele>
        <time>2020-06-02T07:41:31Z</time>
      </trkpt>
      <trkpt lat="46.18685" lon="-1.30152">
        <ele>10.9</ele>
        <time>2020-06-02T07:41:32Z</time>
      </trkpt>
      <trkpt lat="46.18684" lon="-1.30146">
        <ele>11</ele>
        <time>2020-06-02T07:41:33Z</time>
      </trkpt>
      <trkpt lat="46.18683" lon="-1.3014">
        <ele>11.1</ele>
        <time>2020-06-02T07:41:34Z</time>
      </trkpt>
      <trkpt lat="46.18683" lon="-1.30134">
        <ele>11.2</ele>
        <time>2020-06-02T07:41:35Z</time>
      </trkpt>
      <trkpt lat="46.18683" lon="-1.30128">
        <ele>11.3</ele>
        <time>2020-06-02T07:41:36Z</time>
      </trkpt>
      <trkpt lat="46.18684" lon="-1.30122">
        <ele>11.3</ele>
        <time>2020-06-02T07:41:37Z</time>
      </trkpt>
      <trkpt lat="46.18684" lon="-1.30116">
        <ele>11.4</ele>
        <time>2020-06-02T07:41:38Z</time>
      </trkpt>
      <trkpt lat="46.18684" lon="-1.3011">
        <ele>11.5</ele>
        <time>2020-06-02T07:41:39Z</time>
      </trkpt>
      <trkpt lat="46.18685" lon="-1.30104">
        <ele>11.6</ele>
        <time>2020-06-02T07:41:40Z</time>
      </trkpt>
      <trkpt lat="46.18686" lon="-1.30098">
        <ele>11.6</ele>
        <time>2020-06-02T07:41:41Z</time>
      </trkpt>
      <trkpt lat="46.18686" lon="-1.30092">
        <ele>11.7</ele>
        <time>2020-06-02T07:41:42Z</time>
      </trkpt>
      <trkpt lat="46.18686" lon="-1.30085">
        <ele>11.8</ele>
        <time>2020-06-02T07:41:43Z</time>
      </trkpt>
      <trkpt lat="46.18685" lon="-1.3008">
        <ele>11.8</ele>
        <time>2020-06-02T07:41:44Z</time>
      </trkpt>
      <trkpt lat="46.18687" lon="-1.30073">
        <ele>11.9</ele>
        <time>2020-06-02T07:41:45Z</time>
      </trkpt>
      <trkpt lat="46.18688" lon="-1.30067">
        <ele>12</ele>
        <time>2020-06-02T07:41:46Z</time>
      </trkpt>
      <trkpt lat="46.1869" lon="-1.30061">
        <ele>12</ele>
        <time>2020-06-02T07:41:47Z</time>
      </trkpt>
      <trkpt lat="46.18691" lon="-1.30055">
        <ele>12</ele>
        <time>2020-06-02T07:41:48Z</time>
      </trkpt>
      <trkpt lat="46.18693" lon="-1.30049">
        <ele>12.1</ele>
        <time>2020-06-02T07:41:49Z</time>
      </trkpt>
      <trkpt lat="46.18695" lon="-1.30043">
        <ele>12.1</ele>
        <time>2020-06-02T07:41:50Z</time>
      </trkpt>
      <trkpt lat="46.18698" lon="-1.30037">
        <ele>12.2</ele>
        <time>2020-06-02T07:41:51Z</time>
      </trkpt>
      <trkpt lat="46.187" lon="-1.30029">
        <ele>12.2</ele>
        <time>2020-06-02T07:41:52Z</time>
      </trkpt>
      <trkpt lat="46.18702" lon="-1.30022">
        <ele>12.2</ele>
        <time>2020-06-02T07:41:53Z</time>
      </trkpt>
      <trkpt lat="46.18703" lon="-1.30014">
        <ele>12.3</ele>
        <time>2020-06-02T07:41:54Z</time>
      </trkpt>
      <trkpt lat="46.18705" lon="-1.30008">
        <ele>12.3</ele>
        <time>2020-06-02T07:41:55Z</time>
      </trkpt>
      <trkpt lat="46.18706" lon="-1.30001">
        <ele>12.3</ele>
        <time>2020-06-02T07:41:56Z</time>
      </trkpt>
      <trkpt lat="46.18708" lon="-1.29994">
        <ele>12.3</ele>
        <time>2020-06-02T07:41:57Z</time>
      </trkpt>
      <trkpt lat="46.18709" lon="-1.29987">
        <ele>12.3</ele>
        <time>2020-06-02T07:41:58Z</time>
      </trkpt>
      <trkpt lat="46.18711" lon="-1.29979">
        <ele>12.3</ele>
        <time>2020-06-02T07:41:59Z</time>
      </trkpt>
      <trkpt lat="46.18712" lon="-1.29971">
        <ele>12.3</ele>
        <time>2020-06-02T07:42:00Z</time>
      </trkpt>
      <trkpt lat="46.18714" lon="-1.29964">
        <ele>12.3</ele>
        <time>2020-06-02T07:42:01Z</time>
      </trkpt>
      <trkpt lat="46.18715" lon="-1.29956">
        <ele>12.3</ele>
        <time>2020-06-02T07:42:02Z</time>
      </trkpt>
      <trkpt lat="46.18715" lon="-1.29949">
        <ele>12.2</ele>
        <time>2020-06-02T07:42:03Z</time>
      </trkpt>
      <trkpt lat="46.18715" lon="-1.29941">
        <ele>12.2</ele>
        <time>2020-06-02T07:42:04Z</time>
      </trkpt>
      <trkpt lat="46.18714" lon="-1.29934">
        <ele>12.2</ele>
        <time>2020-06-02T07:42:05Z</time>
      </trkpt>
      <trkpt lat="46.18714" lon="-1.29927">
        <ele>12.2</ele>
        <time>2020-06-02T07:42:06Z</time>
      </trkpt>
      <trkpt lat="46.18715" lon="-1.2992">
        <ele>12.1</ele>
        <time>2020-06-02T07:42:07Z</time>
      </trkpt>
      <trkpt lat="46.18715" lon="-1.29913">
        <ele>12.1</ele>
        <time>2020-06-02T07:42:08Z</time>
      </trkpt>
      <trkpt lat="46.18715" lon="-1.29906">
        <ele>12.1</ele>
        <time>2020-06-02T07:42:09Z</time>
      </trkpt>
      <trkpt lat="46.18715" lon="-1.29899">
        <ele>12.1</ele>
        <time>2020-06-02T07:42:10Z</time>
      </trkpt>
      <trkpt lat="46.18716" lon="-1.29892">
        <ele>12.1</ele>
        <time>2020-06-02T07:42:11Z</time>
      </trkpt>
      <trkpt lat="46.18715" lon="-1.29884">
        <ele>12.1</ele>
        <time>2020-06-02T07:42:12Z</time>
      </trkpt>
      <trkpt lat="46.18713" lon="-1.29878">
        <ele>12.1</ele>
        <time>2020-06-02T07:42:13Z</time>
      </trkpt>
      <trkpt lat="46.18712" lon="-1.2987">
        <ele>12.1</ele>
        <time>2020-06-02T07:42:14Z</time>
      </trkpt>
      <trkpt lat="46.18712" lon="-1.29863">
        <ele>12.1</ele>
        <time>2020-06-02T07:42:15Z</time>
      </trkpt>
      <trkpt lat="46.18711" lon="-1.29856">
        <ele>12.1</ele>
        <time>2020-06-02T07:42:16Z</time>
      </trkpt>
      <trkpt lat="46.18711" lon="-1.29848">
        <ele>12.2</ele>
        <time>2020-06-02T07:42:17Z</time>
      </trkpt>
      <trkpt lat="46.18712" lon="-1.2984">
        <ele>12.2</ele>
        <time>2020-06-02T07:42:18Z</time>
      </trkpt>
      <trkpt lat="46.18712" lon="-1.29833">
        <ele>12.2</ele>
        <time>2020-06-02T07:42:19Z</time>
      </trkpt>
      <trkpt lat="46.18712" lon="-1.29826">
        <ele>12.2</ele>
        <time>2020-06-02T07:42:20Z</time>
      </trkpt>
      <trkpt lat="46.18711" lon="-1.29819">
        <ele>12.2</ele>
        <time>2020-06-02T07:42:21Z</time>
      </trkpt>
      <trkpt lat="46.18711" lon="-1.29812">
        <ele>12.2</ele>
        <time>2020-06-02T07:42:22Z</time>
      </trkpt>
      <trkpt lat="46.1871" lon="-1.29805">
        <ele>12.2</ele>
        <time>2020-06-02T07:42:23Z</time>
      </trkpt>
      <trkpt lat="46.1871" lon="-1.29797">
        <ele>12.2</ele>
        <time>2020-06-02T07:42:24Z</time>
      </trkpt>
      <trkpt lat="46.18709" lon="-1.29789">
        <ele>12.2</ele>
        <time>2020-06-02T07:42:25Z</time>
      </trkpt>
      <trkpt lat="46.18709" lon="-1.29782">
        <ele>12.3</ele>
        <time>2020-06-02T07:42:26Z</time>
      </trkpt>
      <trkpt lat="46.18709" lon="-1.29775">
        <ele>12.2</ele>
        <time>2020-06-02T07:42:27Z</time>
      </trkpt>
      <trkpt lat="46.18709" lon="-1.29768">
        <ele>12.2</ele>
        <time>2020-06-02T07:42:28Z</time>
      </trkpt>
      <trkpt lat="46.18709" lon="-1.2976">
        <ele>12.2</ele>
        <time>2020-06-02T07:42:29Z</time>
      </trkpt>
      <trkpt lat="46.18709" lon="-1.29752">
        <ele>12.1</ele>
        <time>2020-06-02T07:42:30Z</time>
      </trkpt>
      <trkpt lat="46.18709" lon="-1.29745">
        <ele>12.1</ele>
        <time>2020-06-02T07:42:31Z</time>
      </trkpt>
      <trkpt lat="46.18709" lon="-1.29738">
        <ele>12</ele>
        <time>2020-06-02T07:42:32Z</time>
      </trkpt>
      <trkpt lat="46.18709" lon="-1.29731">
        <ele>12</ele>
        <time>2020-06-02T07:42:33Z</time>
      </trkpt>
      <trkpt lat="46.18709" lon="-1.29724">
        <ele>11.9</ele>
        <time>2020-06-02T07:42:34Z</time>
      </trkpt>
      <trkpt lat="46.18708" lon="-1.29716">
        <ele>11.9</ele>
        <time>2020-06-02T07:42:35Z</time>
      </trkpt>
      <trkpt lat="46.18709" lon="-1.2971">
        <ele>11.8</ele>
        <time>2020-06-02T07:42:36Z</time>
      </trkpt>
      <trkpt lat="46.18708" lon="-1.29704">
        <ele>11.8</ele>
        <time>2020-06-02T07:42:37Z</time>
      </trkpt>
      <trkpt lat="46.18708" lon="-1.29698">
        <ele>11.8</ele>
        <time>2020-06-02T07:42:38Z</time>
      </trkpt>
      <trkpt lat="46.18707" lon="-1.29691">
        <ele>11.7</ele>
        <time>2020-06-02T07:42:39Z</time>
      </trkpt>
      <trkpt lat="46.18706" lon="-1.29685">
        <ele>11.7</ele>
        <time>2020-06-02T07:42:40Z</time>
      </trkpt>
      <trkpt lat="46.18703" lon="-1.2968">
        <ele>11.6</ele>
        <time>2020-06-02T07:42:41Z</time>
      </trkpt>
      <trkpt lat="46.18701" lon="-1.29673">
        <ele>11.6</ele>
        <time>2020-06-02T07:42:42Z</time>
      </trkpt>
      <trkpt lat="46.18699" lon="-1.29666">
        <ele>11.5</ele>
        <time>2020-06-02T07:42:43Z</time>
      </trkpt>
      <trkpt lat="46.18696" lon="-1.29658">
        <ele>11.4</ele>
        <time>2020-06-02T07:42:44Z</time>
      </trkpt>
      <trkpt lat="46.18693" lon="-1.2965">
        <ele>11.3</ele>
        <time>2020-06-02T07:42:45Z</time>
      </trkpt>
      <trkpt lat="46.18691" lon="-1.29643">
        <ele>11.3</ele>
        <time>2020-06-02T07:42:46Z</time>
      </trkpt>
      <trkpt lat="46.18689" lon="-1.29636">
        <ele>11.2</ele>
        <time>2020-06-02T07:42:47Z</time>
      </trkpt>
      <trkpt lat="46.18686" lon="-1.29629">
        <ele>11.2</ele>
        <time>2020-06-02T07:42:48Z</time>
      </trkpt>
      <trkpt lat="46.18683" lon="-1.29624">
        <ele>11.2</ele>
        <time>2020-06-02T07:42:49Z</time>
      </trkpt>
      <trkpt lat="46.18679" lon="-1.29619">
        <ele>11.1</ele>
        <time>2020-06-02T07:42:50Z</time>
      </trkpt>
      <trkpt lat="46.18674" lon="-1.29615">
        <ele>11.1</ele>
        <time>2020-06-02T07:42:51Z</time>
      </trkpt>
      <trkpt lat="46.18669" lon="-1.2961">
        <ele>11.1</ele>
        <time>2020-06-02T07:42:52Z</time>
      </trkpt>
      <trkpt lat="46.18663" lon="-1.29608">
        <ele>11.1</ele>
        <time>2020-06-02T07:42:53Z</time>
      </trkpt>
      <trkpt lat="46.18658" lon="-1.29605">
        <ele>11</ele>
        <time>2020-06-02T07:42:54Z</time>
      </trkpt>
      <trkpt lat="46.18652" lon="-1.29603">
        <ele>11</ele>
        <time>2020-06-02T07:42:55Z</time>
      </trkpt>
      <trkpt lat="46.18646" lon="-1.29602">
        <ele>11</ele>
        <time>2020-06-02T07:42:56Z</time>
      </trkpt>
      <trkpt lat="46.1864" lon="-1.29601">
        <ele>11</ele>
        <time>2020-06-02T07:42:57Z</time>
      </trkpt>
      <trkpt lat="46.18634" lon="-1.29601">
        <ele>11</ele>
        <time>2020-06-02T07:42:58Z</time>
      </trkpt>
      <trkpt lat="46.18629" lon="-1.29601">
        <ele>11</ele>
        <time>2020-06-02T07:42:59Z</time>
      </trkpt>
      <trkpt lat="46.18624" lon="-1.29601">
        <ele>11</ele>
        <time>2020-06-02T07:43:00Z</time>
      </trkpt>
      <trkpt lat="46.18619" lon="-1.296">
        <ele>11</ele>
        <time>2020-06-02T07:43:01Z</time>
      </trkpt>
      <trkpt lat="46.18615" lon="-1.29599">
        <ele>11</ele>
        <time>2020-06-02T07:43:02Z</time>
      </trkpt>
      <trkpt lat="46.18609" lon="-1.29599">
        <ele>11</ele>
        <time>2020-06-02T07:43:03Z</time>
      </trkpt>
      <trkpt lat="46.18604" lon="-1.29599">
        <ele>11</ele>
        <time>2020-06-02T07:43:04Z</time>
      </trkpt>
      <trkpt lat="46.18599" lon="-1.29599">
        <ele>11</ele>
        <time>2020-06-02T07:43:05Z</time>
      </trkpt>
      <trkpt lat="46.18594" lon="-1.29598">
        <ele>11</ele>
        <time>2020-06-02T07:43:06Z</time>
      </trkpt>
      <trkpt lat="46.18588" lon="-1.29598">
        <ele>11</ele>
        <time>2020-06-02T07:43:07Z</time>
      </trkpt>
      <trkpt lat="46.18583" lon="-1.29597">
        <ele>11</ele>
        <time>2020-06-02T07:43:08Z</time>
      </trkpt>
      <trkpt lat="46.18577" lon="-1.29597">
        <ele>11</ele>
        <time>2020-06-02T07:43:09Z</time>
      </trkpt>
      <trkpt lat="46.18572" lon="-1.29596">
        <ele>11</ele>
        <time>2020-06-02T07:43:10Z</time>
      </trkpt>
      <trkpt lat="46.18566" lon="-1.29596">
        <ele>11</ele>
        <time>2020-06-02T07:43:11Z</time>
      </trkpt>
      <trkpt lat="46.18561" lon="-1.29596">
        <ele>11</ele>
        <time>2020-06-02T07:43:12Z</time>
      </trkpt>
      <trkpt lat="46.18556" lon="-1.29594">
        <ele>11</ele>
        <time>2020-06-02T07:43:13Z</time>
      </trkpt>
      <trkpt lat="46.1855" lon="-1.29594">
        <ele>11</ele>
        <time>2020-06-02T07:43:14Z</time>
      </trkpt>
      <trkpt lat="46.18544" lon="-1.29594">
        <ele>11</ele>
        <time>2020-06-02T07:43:15Z</time>
      </trkpt>
      <trkpt lat="46.18539" lon="-1.29595">
        <ele>11</ele>
        <time>2020-06-02T07:43:16Z</time>
      </trkpt>
      <trkpt lat="46.18534" lon="-1.29597">
        <ele>11</ele>
        <time>2020-06-02T07:43:17Z</time>
      </trkpt>
      <trkpt lat="46.18529" lon="-1.296">
        <ele>11</ele>
        <time>2020-06-02T07:43:18Z</time>
      </trkpt>
      <trkpt lat="46.18523" lon="-1.29602">
        <ele>11</ele>
        <time>2020-06-02T07:43:19Z</time>
      </trkpt>
      <trkpt lat="46.18518" lon="-1.29605">
        <ele>11</ele>
        <time>2020-06-02T07:43:20Z</time>
      </trkpt>
      <trkpt lat="46.18513" lon="-1.29608">
        <ele>11</ele>
        <time>2020-06-02T07:43:21Z</time>
      </trkpt>
      <trkpt lat="46.18507" lon="-1.2961">
        <ele>11</ele>
        <time>2020-06-02T07:43:22Z</time>
      </trkpt>
      <trkpt lat="46.18502" lon="-1.29612">
        <ele>11</ele>
        <time>2020-06-02T07:43:23Z</time>
      </trkpt>
      <trkpt lat="46.18497" lon="-1.29615">
        <ele>11</ele>
        <time>2020-06-02T07:43:24Z</time>
      </trkpt>
      <trkpt lat="46.18491" lon="-1.29616">
        <ele>11</ele>
        <time>2020-06-02T07:43:25Z</time>
      </trkpt>
      <trkpt lat="46.18486" lon="-1.29618">
        <ele>10.9</ele>
        <time>2020-06-02T07:43:26Z</time>
      </trkpt>
      <trkpt lat="46.1848" lon="-1.2962">
        <ele>10.9</ele>
        <time>2020-06-02T07:43:27Z</time>
      </trkpt>
      <trkpt lat="46.18474" lon="-1.29623">
        <ele>10.9</ele>
        <time>2020-06-02T07:43:28Z</time>
      </trkpt>
      <trkpt lat="46.18469" lon="-1.29626">
        <ele>10.9</ele>
        <time>2020-06-02T07:43:29Z</time>
      </trkpt>
      <trkpt lat="46.18464" lon="-1.29627">
        <ele>10.9</ele>
        <time>2020-06-02T07:43:30Z</time>
      </trkpt>
      <trkpt lat="46.1846" lon="-1.2963">
        <ele>10.9</ele>
        <time>2020-06-02T07:43:31Z</time>
      </trkpt>
      <trkpt lat="46.18455" lon="-1.29632">
        <ele>10.9</ele>
        <time>2020-06-02T07:43:32Z</time>
      </trkpt>
      <trkpt lat="46.1845" lon="-1.29635">
        <ele>10.9</ele>
        <time>2020-06-02T07:43:33Z</time>
      </trkpt>
      <trkpt lat="46.18445" lon="-1.29636">
        <ele>10.9</ele>
        <time>2020-06-02T07:43:34Z</time>
      </trkpt>
      <trkpt lat="46.1844" lon="-1.29633">
        <ele>10.9</ele>
        <time>2020-06-02T07:43:35Z</time>
      </trkpt>
      <trkpt lat="46.18438" lon="-1.29626">
        <ele>10.9</ele>
        <time>2020-06-02T07:43:36Z</time>
      </trkpt>
      <trkpt lat="46.18439" lon="-1.29619">
        <ele>10.8</ele>
        <time>2020-06-02T07:43:37Z</time>
      </trkpt>
      <trkpt lat="46.18442" lon="-1.2961">
        <ele>10.7</ele>
        <time>2020-06-02T07:43:38Z</time>
      </trkpt>
      <trkpt lat="46.18443" lon="-1.29604">
        <ele>10.6</ele>
        <time>2020-06-02T07:43:39Z</time>
      </trkpt>
      <trkpt lat="46.18444" lon="-1.29595">
        <ele>10.4</ele>
        <time>2020-06-02T07:43:40Z</time>
      </trkpt>
      <trkpt lat="46.18446" lon="-1.29587">
        <ele>10.3</ele>
        <time>2020-06-02T07:43:41Z</time>
      </trkpt>
      <trkpt lat="46.18447" lon="-1.2958">
        <ele>10.1</ele>
        <time>2020-06-02T07:43:42Z</time>
      </trkpt>
      <trkpt lat="46.18447" lon="-1.29573">
        <ele>10</ele>
        <time>2020-06-02T07:43:43Z</time>
      </trkpt>
      <trkpt lat="46.18448" lon="-1.29567">
        <ele>9.9</ele>
        <time>2020-06-02T07:43:44Z</time>
      </trkpt>
      <trkpt lat="46.18448" lon="-1.2956">
        <ele>9.9</ele>
        <time>2020-06-02T07:43:45Z</time>
      </trkpt>
      <trkpt lat="46.18449" lon="-1.29553">
        <ele>9.8</ele>
        <time>2020-06-02T07:43:46Z</time>
      </trkpt>
      <trkpt lat="46.18449" lon="-1.29546">
        <ele>9.8</ele>
        <time>2020-06-02T07:43:47Z</time>
      </trkpt>
      <trkpt lat="46.18449" lon="-1.29538">
        <ele>9.8</ele>
        <time>2020-06-02T07:43:48Z</time>
      </trkpt>
      <trkpt lat="46.1845" lon="-1.2953">
        <ele>9.7</ele>
        <time>2020-06-02T07:43:49Z</time>
      </trkpt>
      <trkpt lat="46.18451" lon="-1.29522">
        <ele>9.7</ele>
        <time>2020-06-02T07:43:50Z</time>
      </trkpt>
      <trkpt lat="46.18451" lon="-1.29515">
        <ele>9.6</ele>
        <time>2020-06-02T07:43:51Z</time>
      </trkpt>
      <trkpt lat="46.18451" lon="-1.29508">
        <ele>9.6</ele>
        <time>2020-06-02T07:43:52Z</time>
      </trkpt>
      <trkpt lat="46.1845" lon="-1.29502">
        <ele>9.5</ele>
        <time>2020-06-02T07:43:53Z</time>
      </trkpt>
      <trkpt lat="46.1845" lon="-1.29495">
        <ele>9.4</ele>
        <time>2020-06-02T07:43:54Z</time>
      </trkpt>
      <trkpt lat="46.18449" lon="-1.29487">
        <ele>9.4</ele>
        <time>2020-06-02T07:43:55Z</time>
      </trkpt>
      <trkpt lat="46.18448" lon="-1.2948">
        <ele>9.3</ele>
        <time>2020-06-02T07:43:56Z</time>
      </trkpt>
      <trkpt lat="46.18448" lon="-1.29474">
        <ele>9.2</ele>
        <time>2020-06-02T07:43:57Z</time>
      </trkpt>
      <trkpt lat="46.18448" lon="-1.29467">
        <ele>9.1</ele>
        <time>2020-06-02T07:43:58Z</time>
      </trkpt>
      <trkpt lat="46.18448" lon="-1.29459">
        <ele>9.1</ele>
        <time>2020-06-02T07:43:59Z</time>
      </trkpt>
      <trkpt lat="46.18448" lon="-1.29453">
        <ele>9</ele>
        <time>2020-06-02T07:44:00Z</time>
      </trkpt>
      <trkpt lat="46.18448" lon="-1.29446">
        <ele>8.9</ele>
        <time>2020-06-02T07:44:01Z</time>
      </trkpt>
      <trkpt lat="46.18449" lon="-1.29439">
        <ele>8.8</ele>
        <time>2020-06-02T07:44:02Z</time>
      </trkpt>
      <trkpt lat="46.18449" lon="-1.29431">
        <ele>8.8</ele>
        <time>2020-06-02T07:44:03Z</time>
      </trkpt>
      <trkpt lat="46.18448" lon="-1.29423">
        <ele>8.7</ele>
        <time>2020-06-02T07:44:04Z</time>
      </trkpt>
      <trkpt lat="46.18448" lon="-1.29415">
        <ele>8.6</ele>
        <time>2020-06-02T07:44:05Z</time>
      </trkpt>
      <trkpt lat="46.18448" lon="-1.29406">
        <ele>8.5</ele>
        <time>2020-06-02T07:44:06Z</time>
      </trkpt>
      <trkpt lat="46.18447" lon="-1.29399">
        <ele>8.5</ele>
        <time>2020-06-02T07:44:07Z</time>
      </trkpt>
      <trkpt lat="46.18447" lon="-1.29392">
        <ele>8.4</ele>
        <time>2020-06-02T07:44:08Z</time>
      </trkpt>
      <trkpt lat="46.18448" lon="-1.29382">
        <ele>8.3</ele>
        <time>2020-06-02T07:44:09Z</time>
      </trkpt>
      <trkpt lat="46.18448" lon="-1.29374">
        <ele>8.2</ele>
        <time>2020-06-02T07:44:10Z</time>
      </trkpt>
      <trkpt lat="46.18448" lon="-1.29365">
        <ele>8.1</ele>
        <time>2020-06-02T07:44:11Z</time>
      </trkpt>
      <trkpt lat="46.18448" lon="-1.29356">
        <ele>7.9</ele>
        <time>2020-06-02T07:44:12Z</time>
      </trkpt>
      <trkpt lat="46.18449" lon="-1.29349">
        <ele>7.8</ele>
        <time>2020-06-02T07:44:13Z</time>
      </trkpt>
      <trkpt lat="46.1845" lon="-1.29341">
        <ele>7.7</ele>
        <time>2020-06-02T07:44:14Z</time>
      </trkpt>
      <trkpt lat="46.1845" lon="-1.29334">
        <ele>7.6</ele>
        <time>2020-06-02T07:44:15Z</time>
      </trkpt>
      <trkpt lat="46.18451" lon="-1.29326">
        <ele>7.5</ele>
        <time>2020-06-02T07:44:16Z</time>
      </trkpt>
      <trkpt lat="46.18452" lon="-1.29319">
        <ele>7.4</ele>
        <time>2020-06-02T07:44:17Z</time>
      </trkpt>
      <trkpt lat="46.18453" lon="-1.29312">
        <ele>7.3</ele>
        <time>2020-06-02T07:44:18Z</time>
      </trkpt>
      <trkpt lat="46.18454" lon="-1.29306">
        <ele>7.3</ele>
        <time>2020-06-02T07:44:19Z</time>
      </trkpt>
      <trkpt lat="46.18454" lon="-1.29299">
        <ele>7.3</ele>
        <time>2020-06-02T07:44:20Z</time>
      </trkpt>
      <trkpt lat="46.18453" lon="-1.29292">
        <ele>7.2</ele>
        <time>2020-06-02T07:44:21Z</time>
      </trkpt>
      <trkpt lat="46.18455" lon="-1.29285">
        <ele>7.2</ele>
        <time>2020-06-02T07:44:22Z</time>
      </trkpt>
      <trkpt lat="46.18456" lon="-1.29278">
        <ele>7.2</ele>
        <time>2020-06-02T07:44:23Z</time>
      </trkpt>
      <trkpt lat="46.18458" lon="-1.29272">
        <ele>7.2</ele>
        <time>2020-06-02T07:44:24Z</time>
      </trkpt>
      <trkpt lat="46.18459" lon="-1.29266">
        <ele>7.1</ele>
        <time>2020-06-02T07:44:25Z</time>
      </trkpt>
      <trkpt lat="46.1846" lon="-1.29259">
        <ele>7.1</ele>
        <time>2020-06-02T07:44:26Z</time>
      </trkpt>
      <trkpt lat="46.18461" lon="-1.29254">
        <ele>7.1</ele>
        <time>2020-06-02T07:44:27Z</time>
      </trkpt>
      <trkpt lat="46.18462" lon="-1.29249">
        <ele>7</ele>
        <time>2020-06-02T07:44:28Z</time>
      </trkpt>
      <trkpt lat="46.18463" lon="-1.29243">
        <ele>7</ele>
        <time>2020-06-02T07:44:29Z</time>
      </trkpt>
      <trkpt lat="46.18464" lon="-1.29237">
        <ele>6.9</ele>
        <time>2020-06-02T07:44:30Z</time>
      </trkpt>
      <trkpt lat="46.18464" lon="-1.29231">
        <ele>6.8</ele>
        <time>2020-06-02T07:44:31Z</time>
      </trkpt>
      <trkpt lat="46.18466" lon="-1.29225">
        <ele>6.7</ele>
        <time>2020-06-02T07:44:32Z</time>
      </trkpt>
      <trkpt lat="46.18467" lon="-1.29219">
        <ele>6.7</ele>
        <time>2020-06-02T07:44:33Z</time>
      </trkpt>
      <trkpt lat="46.18468" lon="-1.29213">
        <ele>6.6</ele>
        <time>2020-06-02T07:44:34Z</time>
      </trkpt>
      <trkpt lat="46.1847" lon="-1.29207">
        <ele>6.5</ele>
        <time>2020-06-02T07:44:35Z</time>
      </trkpt>
      <trkpt lat="46.18471" lon="-1.292">
        <ele>6.4</ele>
        <time>2020-06-02T07:44:36Z</time>
      </trkpt>
      <trkpt lat="46.18472" lon="-1.29193">
        <ele>6.3</ele>
        <time>2020-06-02T07:44:37Z</time>
      </trkpt>
      <trkpt lat="46.18472" lon="-1.29185">
        <ele>6.2</ele>
        <time>2020-06-02T07:44:38Z</time>
      </trkpt>
      <trkpt lat="46.18474" lon="-1.29177">
        <ele>6.1</ele>
        <time>2020-06-02T07:44:39Z</time>
      </trkpt>
      <trkpt lat="46.18475" lon="-1.29171">
        <ele>6</ele>
        <time>2020-06-02T07:44:40Z</time>
      </trkpt>
      <trkpt lat="46.18477" lon="-1.29165">
        <ele>5.9</ele>
        <time>2020-06-02T07:44:41Z</time>
      </trkpt>
      <trkpt lat="46.18477" lon="-1.29158">
        <ele>5.9</ele>
        <time>2020-06-02T07:44:42Z</time>
      </trkpt>
      <trkpt lat="46.18478" lon="-1.29152">
        <ele>5.8</ele>
        <time>2020-06-02T07:44:43Z</time>
      </trkpt>
      <trkpt lat="46.18478" lon="-1.29145">
        <ele>5.7</ele>
        <time>2020-06-02T07:44:44Z</time>
      </trkpt>
      <trkpt lat="46.1848" lon="-1.2914">
        <ele>5.7</ele>
        <time>2020-06-02T07:44:45Z</time>
      </trkpt>
      <trkpt lat="46.18481" lon="-1.29133">
        <ele>5.6</ele>
        <time>2020-06-02T07:44:46Z</time>
      </trkpt>
      <trkpt lat="46.18482" lon="-1.29127">
        <ele>5.5</ele>
        <time>2020-06-02T07:44:47Z</time>
      </trkpt>
      <trkpt lat="46.18482" lon="-1.29121">
        <ele>5.5</ele>
        <time>2020-06-02T07:44:48Z</time>
      </trkpt>
      <trkpt lat="46.18483" lon="-1.29116">
        <ele>5.4</ele>
        <time>2020-06-02T07:44:49Z</time>
      </trkpt>
      <trkpt lat="46.18484" lon="-1.29112">
        <ele>5.4</ele>
        <time>2020-06-02T07:44:50Z</time>
      </trkpt>
      <trkpt lat="46.18485" lon="-1.29107">
        <ele>5.4</ele>
        <time>2020-06-02T07:44:51Z</time>
      </trkpt>
      <trkpt lat="46.18486" lon="-1.29102">
        <ele>5.4</ele>
        <time>2020-06-02T07:44:52Z</time>
      </trkpt>
      <trkpt lat="46.18487" lon="-1.29097">
        <ele>5.4</ele>
        <time>2020-06-02T07:44:53Z</time>
      </trkpt>
      <trkpt lat="46.18487" lon="-1.29095">
        <ele>5.4</ele>
        <time>2020-06-02T07:44:54Z</time>
      </trkpt>
      <trkpt lat="46.18485" lon="-1.29094">
        <ele>5.4</ele>
        <time>2020-06-02T07:44:55Z</time>
      </trkpt>
      <trkpt lat="46.18485" lon="-1.29094">
        <ele>5.4</ele>
        <time>2020-06-02T07:44:56Z</time>
      </trkpt>
      <trkpt lat="46.18485" lon="-1.29095">
        <ele>5.4</ele>
        <time>2020-06-02T07:44:57Z</time>
      </trkpt>
      <trkpt lat="46.18485" lon="-1.29096">
        <ele>5.4</ele>
        <time>2020-06-02T07:44:58Z</time>
      </trkpt>
      <trkpt lat="46.18485" lon="-1.29098">
        <ele>5.4</ele>
        <time>2020-06-02T07:44:59Z</time>
      </trkpt>
      <trkpt lat="46.18484" lon="-1.29098">
        <ele>5.4</ele>
        <time>2020-06-02T07:45:00Z</time>
      </trkpt>
      <trkpt lat="46.18484" lon="-1.29098">
        <ele>5.4</ele>
        <time>2020-06-02T07:45:01Z</time>
      </trkpt>
      <trkpt lat="46.18484" lon="-1.29099">
        <ele>5.4</ele>
        <time>2020-06-02T07:45:02Z</time>
      </trkpt>
      <trkpt lat="46.18484" lon="-1.29099">
        <ele>5.4</ele>
        <time>2020-06-02T07:45:03Z</time>
      </trkpt>
      <trkpt lat="46.18484" lon="-1.29099">
        <ele>5.4</ele>
        <time>2020-06-02T07:45:04Z</time>
      </trkpt>
      <trkpt lat="46.18483" lon="-1.29099">
        <ele>5.4</ele>
        <time>2020-06-02T07:45:05Z</time>
      </trkpt>
      <trkpt lat="46.18483" lon="-1.29099">
        <ele>5.4</ele>
        <time>2020-06-02T07:45:06Z</time>
      </trkpt>
      <trkpt lat="46.18483" lon="-1.29099">
        <ele>5.4</ele>
        <time>2020-06-02T07:45:07Z</time>
      </trkpt>
      <trkpt lat="46.18483" lon="-1.29099">
        <ele>5.4</ele>
        <time>2020-06-02T07:45:08Z</time>
      </trkpt>
      <trkpt lat="46.18482" lon="-1.29099">
        <ele>5.4</ele>
        <time>2020-06-02T07:45:09Z</time>
      </trkpt>
      <trkpt lat="46.18482" lon="-1.29099">
        <ele>5.4</ele>
        <time>2020-06-02T07:45:10Z</time>
      </trkpt>
      <trkpt lat="46.18482" lon="-1.291">
        <ele>5.4</ele>
        <time>2020-06-02T07:45:11Z</time>
      </trkpt>
      <trkpt lat="46.18482" lon="-1.291">
        <ele>5.4</ele>
        <time>2020-06-02T07:45:12Z</time>
      </trkpt>
      <trkpt lat="46.18482" lon="-1.291">
        <ele>5.4</ele>
        <time>2020-06-02T07:45:13Z</time>
      </trkpt>
      <trkpt lat="46.18481" lon="-1.291">
        <ele>5.4</ele>
        <time>2020-06-02T07:45:14Z</time>
      </trkpt>
      <trkpt lat="46.18481" lon="-1.291">
        <ele>5.4</ele>
        <time>2020-06-02T07:45:15Z</time>
      </trkpt>
      <trkpt lat="46.18481" lon="-1.291">
        <ele>5.4</ele>
        <time>2020-06-02T07:45:16Z</time>
      </trkpt>
      <trkpt lat="46.18479" lon="-1.29099">
        <ele>5.5</ele>
        <time>2020-06-02T07:45:17Z</time>
      </trkpt>
      <trkpt lat="46.18478" lon="-1.29098">
        <ele>5.5</ele>
        <time>2020-06-02T07:45:18Z</time>
      </trkpt>
      <trkpt lat="46.18477" lon="-1.29097">
        <ele>5.5</ele>
        <time>2020-06-02T07:45:19Z</time>
      </trkpt>
      <trkpt lat="46.18474" lon="-1.29095">
        <ele>5.5</ele>
        <time>2020-06-02T07:45:20Z</time>
      </trkpt>
      <trkpt lat="46.18473" lon="-1.29095">
        <ele>5.6</ele>
        <time>2020-06-02T07:45:21Z</time>
      </trkpt>
      <trkpt lat="46.1847" lon="-1.29094">
        <ele>5.6</ele>
        <time>2020-06-02T07:45:22Z</time>
      </trkpt>
      <trkpt lat="46.18469" lon="-1.29094">
        <ele>5.6</ele>
        <time>2020-06-02T07:45:23Z</time>
      </trkpt>
      <trkpt lat="46.18467" lon="-1.29092">
        <ele>5.7</ele>
        <time>2020-06-02T07:45:24Z</time>
      </trkpt>
      <trkpt lat="46.18466" lon="-1.29092">
        <ele>5.7</ele>
        <time>2020-06-02T07:45:25Z</time>
      </trkpt>
      <trkpt lat="46.18462" lon="-1.29092">
        <ele>5.7</ele>
        <time>2020-06-02T07:45:26Z</time>
      </trkpt>
      <trkpt lat="46.18461" lon="-1.29092">
        <ele>5.8</ele>
        <time>2020-06-02T07:45:27Z</time>
      </trkpt>
      <trkpt lat="46.18457" lon="-1.29091">
        <ele>5.8</ele>
        <time>2020-06-02T07:45:28Z</time>
      </trkpt>
      <trkpt lat="46.18456" lon="-1.2909">
        <ele>5.8</ele>
        <time>2020-06-02T07:45:29Z</time>
      </trkpt>
      <trkpt lat="46.18453" lon="-1.2909">
        <ele>5.9</ele>
        <time>2020-06-02T07:45:30Z</time>
      </trkpt>
      <trkpt lat="46.1845" lon="-1.29089">
        <ele>5.9</ele>
        <time>2020-06-02T07:45:31Z</time>
      </trkpt>
      <trkpt lat="46.18447" lon="-1.29088">
        <ele>6</ele>
        <time>2020-06-02T07:45:32Z</time>
      </trkpt>
      <trkpt lat="46.18443" lon="-1.29087">
        <ele>6</ele>
        <time>2020-06-02T07:45:33Z</time>
      </trkpt>
      <trkpt lat="46.1844" lon="-1.29086">
        <ele>6</ele>
        <time>2020-06-02T07:45:34Z</time>
      </trkpt>
      <trkpt lat="46.18436" lon="-1.29086">
        <ele>6.1</ele>
        <time>2020-06-02T07:45:35Z</time>
      </trkpt>
      <trkpt lat="46.18432" lon="-1.29086">
        <ele>6.1</ele>
        <time>2020-06-02T07:45:36Z</time>
      </trkpt>
      <trkpt lat="46.18428" lon="-1.29087">
        <ele>6.1</ele>
        <time>2020-06-02T07:45:37Z</time>
      </trkpt>
      <trkpt lat="46.18425" lon="-1.29088">
        <ele>6.1</ele>
        <time>2020-06-02T07:45:38Z</time>
      </trkpt>
      <trkpt lat="46.18422" lon="-1.29087">
        <ele>6.1</ele>
        <time>2020-06-02T07:45:39Z</time>
      </trkpt>
      <trkpt lat="46.18419" lon="-1.29087">
        <ele>6.1</ele>
        <time>2020-06-02T07:45:40Z</time>
      </trkpt>
      <trkpt lat="46.18415" lon="-1.29087">
        <ele>6.1</ele>
        <time>2020-06-02T07:45:41Z</time>
      </trkpt>
      <trkpt lat="46.18412" lon="-1.29088">
        <ele>6.1</ele>
        <time>2020-06-02T07:45:42Z</time>
      </trkpt>
      <trkpt lat="46.18409" lon="-1.29089">
        <ele>6</ele>
        <time>2020-06-02T07:45:43Z</time>
      </trkpt>
      <trkpt lat="46.18406" lon="-1.2909">
        <ele>6</ele>
        <time>2020-06-02T07:45:44Z</time>
      </trkpt>
      <trkpt lat="46.18403" lon="-1.29089">
        <ele>6</ele>
        <time>2020-06-02T07:45:45Z</time>
      </trkpt>
      <trkpt lat="46.18399" lon="-1.29087">
        <ele>6</ele>
        <time>2020-06-02T07:45:46Z</time>
      </trkpt>
      <trkpt lat="46.18395" lon="-1.29085">
        <ele>5.9</ele>
        <time>2020-06-02T07:45:47Z</time>
      </trkpt>
      <trkpt lat="46.1839" lon="-1.29081">
        <ele>5.9</ele>
        <time>2020-06-02T07:45:48Z</time>
      </trkpt>
      <trkpt lat="46.18387" lon="-1.29079">
        <ele>5.9</ele>
        <time>2020-06-02T07:45:49Z</time>
      </trkpt>
      <trkpt lat="46.18383" lon="-1.29078">
        <ele>5.9</ele>
        <time>2020-06-02T07:45:50Z</time>
      </trkpt>
      <trkpt lat="46.18379" lon="-1.29075">
        <ele>5.8</ele>
        <time>2020-06-02T07:45:51Z</time>
      </trkpt>
      <trkpt lat="46.18375" lon="-1.29073">
        <ele>5.8</ele>
        <time>2020-06-02T07:45:52Z</time>
      </trkpt>
      <trkpt lat="46.18372" lon="-1.2907">
        <ele>5.8</ele>
        <time>2020-06-02T07:45:53Z</time>
      </trkpt>
      <trkpt lat="46.18368" lon="-1.29068">
        <ele>5.7</ele>
        <time>2020-06-02T07:45:54Z</time>
      </trkpt>
      <trkpt lat="46.18364" lon="-1.29066">
        <ele>5.7</ele>
        <time>2020-06-02T07:45:55Z</time>
      </trkpt>
      <trkpt lat="46.1836" lon="-1.29062">
        <ele>5.6</ele>
        <time>2020-06-02T07:45:56Z</time>
      </trkpt>
      <trkpt lat="46.18357" lon="-1.2906">
        <ele>5.5</ele>
        <time>2020-06-02T07:45:57Z</time>
      </trkpt>
      <trkpt lat="46.18353" lon="-1.29058">
        <ele>5.5</ele>
        <time>2020-06-02T07:45:58Z</time>
      </trkpt>
      <trkpt lat="46.1835" lon="-1.29056">
        <ele>5.4</ele>
        <time>2020-06-02T07:45:59Z</time>
      </trkpt>
      <trkpt lat="46.18347" lon="-1.29054">
        <ele>5.4</ele>
        <time>2020-06-02T07:46:00Z</time>
      </trkpt>
      <trkpt lat="46.18344" lon="-1.29052">
        <ele>5.3</ele>
        <time>2020-06-02T07:46:01Z</time>
      </trkpt>
      <trkpt lat="46.18339" lon="-1.2905">
        <ele>5.3</ele>
        <time>2020-06-02T07:46:02Z</time>
      </trkpt>
      <trkpt lat="46.18336" lon="-1.29049">
        <ele>5.2</ele>
        <time>2020-06-02T07:46:03Z</time>
      </trkpt>
      <trkpt lat="46.18332" lon="-1.29048">
        <ele>5.1</ele>
        <time>2020-06-02T07:46:04Z</time>
      </trkpt>
      <trkpt lat="46.18329" lon="-1.29047">
        <ele>5.1</ele>
        <time>2020-06-02T07:46:05Z</time>
      </trkpt>
      <trkpt lat="46.18325" lon="-1.29044">
        <ele>5</ele>
        <time>2020-06-02T07:46:06Z</time>
      </trkpt>
      <trkpt lat="46.18322" lon="-1.29041">
        <ele>5</ele>
        <time>2020-06-02T07:46:07Z</time>
      </trkpt>
      <trkpt lat="46.18318" lon="-1.29038">
        <ele>4.9</ele>
        <time>2020-06-02T07:46:08Z</time>
      </trkpt>
      <trkpt lat="46.18314" lon="-1.29037">
        <ele>4.8</ele>
        <time>2020-06-02T07:46:09Z</time>
      </trkpt>
      <trkpt lat="46.1831" lon="-1.29034">
        <ele>4.8</ele>
        <time>2020-06-02T07:46:10Z</time>
      </trkpt>
      <trkpt lat="46.18307" lon="-1.29031">
        <ele>4.8</ele>
        <time>2020-06-02T07:46:11Z</time>
      </trkpt>
      <trkpt lat="46.18303" lon="-1.29028">
        <ele>4.7</ele>
        <time>2020-06-02T07:46:12Z</time>
      </trkpt>
      <trkpt lat="46.18299" lon="-1.29024">
        <ele>4.7</ele>
        <time>2020-06-02T07:46:13Z</time>
      </trkpt>
      <trkpt lat="46.18295" lon="-1.29023">
        <ele>4.7</ele>
        <time>2020-06-02T07:46:14Z</time>
      </trkpt>
      <trkpt lat="46.18291" lon="-1.29022">
        <ele>4.6</ele>
        <time>2020-06-02T07:46:15Z</time>
      </trkpt>
      <trkpt lat="46.18288" lon="-1.29021">
        <ele>4.6</ele>
        <time>2020-06-02T07:46:16Z</time>
      </trkpt>
      <trkpt lat="46.18286" lon="-1.29019">
        <ele>4.6</ele>
        <time>2020-06-02T07:46:17Z</time>
      </trkpt>
      <trkpt lat="46.18284" lon="-1.29014">
        <ele>4.6</ele>
        <time>2020-06-02T07:46:18Z</time>
      </trkpt>
      <trkpt lat="46.18283" lon="-1.29013">
        <ele>4.6</ele>
        <time>2020-06-02T07:46:19Z</time>
      </trkpt>
      <trkpt lat="46.18282" lon="-1.29009">
        <ele>4.6</ele>
        <time>2020-06-02T07:46:20Z</time>
      </trkpt>
      <trkpt lat="46.18281" lon="-1.29008">
        <ele>4.6</ele>
        <time>2020-06-02T07:46:21Z</time>
      </trkpt>
      <trkpt lat="46.1828" lon="-1.29007">
        <ele>4.6</ele>
        <time>2020-06-02T07:46:22Z</time>
      </trkpt>
      <trkpt lat="46.18279" lon="-1.29006">
        <ele>4.6</ele>
        <time>2020-06-02T07:46:23Z</time>
      </trkpt>
      <trkpt lat="46.18278" lon="-1.29005">
        <ele>4.6</ele>
        <time>2020-06-02T07:46:24Z</time>
      </trkpt>
      <trkpt lat="46.18278" lon="-1.29003">
        <ele>4.6</ele>
        <time>2020-06-02T07:46:25Z</time>
      </trkpt>
      <trkpt lat="46.18277" lon="-1.29002">
        <ele>4.6</ele>
        <time>2020-06-02T07:46:26Z</time>
      </trkpt>
      <trkpt lat="46.18275" lon="-1.28999">
        <ele>4.6</ele>
        <time>2020-06-02T07:46:27Z</time>
      </trkpt>
      <trkpt lat="46.18274" lon="-1.28998">
        <ele>4.6</ele>
        <time>2020-06-02T07:46:28Z</time>
      </trkpt>
      <trkpt lat="46.18272" lon="-1.28994">
        <ele>4.6</ele>
        <time>2020-06-02T07:46:29Z</time>
      </trkpt>
      <trkpt lat="46.18271" lon="-1.28993">
        <ele>4.6</ele>
        <time>2020-06-02T07:46:30Z</time>
      </trkpt>
      <trkpt lat="46.18269" lon="-1.2899">
        <ele>4.6</ele>
        <time>2020-06-02T07:46:31Z</time>
      </trkpt>
      <trkpt lat="46.18268" lon="-1.28988">
        <ele>4.6</ele>
        <time>2020-06-02T07:46:32Z</time>
      </trkpt>
      <trkpt lat="46.18266" lon="-1.28985">
        <ele>4.6</ele>
        <time>2020-06-02T07:46:33Z</time>
      </trkpt>
      <trkpt lat="46.18265" lon="-1.28983">
        <ele>4.6</ele>
        <time>2020-06-02T07:46:34Z</time>
      </trkpt>
      <trkpt lat="46.18264" lon="-1.2898">
        <ele>4.6</ele>
        <time>2020-06-02T07:46:35Z</time>
      </trkpt>
      <trkpt lat="46.18262" lon="-1.28975">
        <ele>4.7</ele>
        <time>2020-06-02T07:46:36Z</time>
      </trkpt>
      <trkpt lat="46.18261" lon="-1.28975">
        <ele>4.7</ele>
        <time>2020-06-02T07:46:37Z</time>
      </trkpt>
      <trkpt lat="46.18259" lon="-1.28971">
        <ele>4.7</ele>
        <time>2020-06-02T07:46:38Z</time>
      </trkpt>
      <trkpt lat="46.18257" lon="-1.28968">
        <ele>4.7</ele>
        <time>2020-06-02T07:46:39Z</time>
      </trkpt>
      <trkpt lat="46.18254" lon="-1.28964">
        <ele>4.7</ele>
        <time>2020-06-02T07:46:40Z</time>
      </trkpt>
      <trkpt lat="46.18252" lon="-1.2896">
        <ele>4.8</ele>
        <time>2020-06-02T07:46:41Z</time>
      </trkpt>
      <trkpt lat="46.18249" lon="-1.28956">
        <ele>4.8</ele>
        <time>2020-06-02T07:46:42Z</time>
      </trkpt>
      <trkpt lat="46.18246" lon="-1.28953">
        <ele>4.9</ele>
        <time>2020-06-02T07:46:43Z</time>
      </trkpt>
      <trkpt lat="46.18243" lon="-1.28949">
        <ele>4.9</ele>
        <time>2020-06-02T07:46:44Z</time>
      </trkpt>
      <trkpt lat="46.1824" lon="-1.28945">
        <ele>5</ele>
        <time>2020-06-02T07:46:45Z</time>
      </trkpt>
      <trkpt lat="46.18236" lon="-1.28943">
        <ele>5.1</ele>
        <time>2020-06-02T07:46:46Z</time>
      </trkpt>
      <trkpt lat="46.18232" lon="-1.28941">
        <ele>5.1</ele>
        <time>2020-06-02T07:46:47Z</time>
      </trkpt>
      <trkpt lat="46.18229" lon="-1.2894">
        <ele>5.2</ele>
        <time>2020-06-02T07:46:48Z</time>
      </trkpt>
      <trkpt lat="46.18225" lon="-1.28939">
        <ele>5.2</ele>
        <time>2020-06-02T07:46:49Z</time>
      </trkpt>
      <trkpt lat="46.18222" lon="-1.28938">
        <ele>5.3</ele>
        <time>2020-06-02T07:46:50Z</time>
      </trkpt>
      <trkpt lat="46.18218" lon="-1.28937">
        <ele>5.3</ele>
        <time>2020-06-02T07:46:51Z</time>
      </trkpt>
      <trkpt lat="46.18214" lon="-1.28936">
        <ele>5.4</ele>
        <time>2020-06-02T07:46:52Z</time>
      </trkpt>
      <trkpt lat="46.18211" lon="-1.28933">
        <ele>5.4</ele>
        <time>2020-06-02T07:46:53Z</time>
      </trkpt>
      <trkpt lat="46.18208" lon="-1.28932">
        <ele>5.5</ele>
        <time>2020-06-02T07:46:54Z</time>
      </trkpt>
      <trkpt lat="46.18204" lon="-1.28929">
        <ele>5.5</ele>
        <time>2020-06-02T07:46:55Z</time>
      </trkpt>
      <trkpt lat="46.18201" lon="-1.28926">
        <ele>5.5</ele>
        <time>2020-06-02T07:46:56Z</time>
      </trkpt>
      <trkpt lat="46.18197" lon="-1.28922">
        <ele>5.6</ele>
        <time>2020-06-02T07:46:57Z</time>
      </trkpt>
      <trkpt lat="46.18193" lon="-1.28921">
        <ele>5.6</ele>
        <time>2020-06-02T07:46:58Z</time>
      </trkpt>
      <trkpt lat="46.1819" lon="-1.28918">
        <ele>5.6</ele>
        <time>2020-06-02T07:46:59Z</time>
      </trkpt>
      <trkpt lat="46.18187" lon="-1.28917">
        <ele>5.7</ele>
        <time>2020-06-02T07:47:00Z</time>
      </trkpt>
      <trkpt lat="46.18183" lon="-1.28916">
        <ele>5.7</ele>
        <time>2020-06-02T07:47:01Z</time>
      </trkpt>
      <trkpt lat="46.1818" lon="-1.28915">
        <ele>5.7</ele>
        <time>2020-06-02T07:47:02Z</time>
      </trkpt>
      <trkpt lat="46.18177" lon="-1.28917">
        <ele>5.8</ele>
        <time>2020-06-02T07:47:03Z</time>
      </trkpt>
      <trkpt lat="46.18173" lon="-1.28921">
        <ele>5.8</ele>
        <time>2020-06-02T07:47:04Z</time>
      </trkpt>
      <trkpt lat="46.18172" lon="-1.28927">
        <ele>5.9</ele>
        <time>2020-06-02T07:47:05Z</time>
      </trkpt>
      <trkpt lat="46.18171" lon="-1.28932">
        <ele>5.9</ele>
        <time>2020-06-02T07:47:06Z</time>
      </trkpt>
      <trkpt lat="46.18169" lon="-1.28937">
        <ele>5.9</ele>
        <time>2020-06-02T07:47:07Z</time>
      </trkpt>
      <trkpt lat="46.18167" lon="-1.28942">
        <ele>6</ele>
        <time>2020-06-02T07:47:08Z</time>
      </trkpt>
      <trkpt lat="46.18165" lon="-1.28946">
        <ele>6</ele>
        <time>2020-06-02T07:47:09Z</time>
      </trkpt>
      <trkpt lat="46.18163" lon="-1.28951">
        <ele>6</ele>
        <time>2020-06-02T07:47:10Z</time>
      </trkpt>
      <trkpt lat="46.18161" lon="-1.28956">
        <ele>6</ele>
        <time>2020-06-02T07:47:11Z</time>
      </trkpt>
      <trkpt lat="46.1816" lon="-1.28958">
        <ele>6</ele>
        <time>2020-06-02T07:47:12Z</time>
      </trkpt>
      <trkpt lat="46.18157" lon="-1.28963">
        <ele>6</ele>
        <time>2020-06-02T07:47:13Z</time>
      </trkpt>
      <trkpt lat="46.18155" lon="-1.28968">
        <ele>5.9</ele>
        <time>2020-06-02T07:47:14Z</time>
      </trkpt>
      <trkpt lat="46.18153" lon="-1.28973">
        <ele>5.9</ele>
        <time>2020-06-02T07:47:15Z</time>
      </trkpt>
      <trkpt lat="46.1815" lon="-1.28978">
        <ele>5.9</ele>
        <time>2020-06-02T07:47:16Z</time>
      </trkpt>
      <trkpt lat="46.18148" lon="-1.28983">
        <ele>5.9</ele>
        <time>2020-06-02T07:47:17Z</time>
      </trkpt>
      <trkpt lat="46.18145" lon="-1.28988">
        <ele>5.9</ele>
        <time>2020-06-02T07:47:18Z</time>
      </trkpt>
      <trkpt lat="46.18143" lon="-1.28995">
        <ele>5.9</ele>
        <time>2020-06-02T07:47:19Z</time>
      </trkpt>
      <trkpt lat="46.18142" lon="-1.29">
        <ele>5.8</ele>
        <time>2020-06-02T07:47:20Z</time>
      </trkpt>
      <trkpt lat="46.18139" lon="-1.29005">
        <ele>5.8</ele>
        <time>2020-06-02T07:47:21Z</time>
      </trkpt>
      <trkpt lat="46.18137" lon="-1.29009">
        <ele>5.8</ele>
        <time>2020-06-02T07:47:22Z</time>
      </trkpt>
      <trkpt lat="46.18135" lon="-1.29014">
        <ele>5.8</ele>
        <time>2020-06-02T07:47:23Z</time>
      </trkpt>
      <trkpt lat="46.18132" lon="-1.29019">
        <ele>5.8</ele>
        <time>2020-06-02T07:47:24Z</time>
      </trkpt>
      <trkpt lat="46.1813" lon="-1.29023">
        <ele>5.8</ele>
        <time>2020-06-02T07:47:25Z</time>
      </trkpt>
      <trkpt lat="46.18129" lon="-1.29027">
        <ele>5.8</ele>
        <time>2020-06-02T07:47:26Z</time>
      </trkpt>
      <trkpt lat="46.18127" lon="-1.29032">
        <ele>5.8</ele>
        <time>2020-06-02T07:47:27Z</time>
      </trkpt>
      <trkpt lat="46.18124" lon="-1.29037">
        <ele>5.7</ele>
        <time>2020-06-02T07:47:28Z</time>
      </trkpt>
      <trkpt lat="46.18122" lon="-1.29041">
        <ele>5.7</ele>
        <time>2020-06-02T07:47:29Z</time>
      </trkpt>
      <trkpt lat="46.18121" lon="-1.29046">
        <ele>5.7</ele>
        <time>2020-06-02T07:47:30Z</time>
      </trkpt>
      <trkpt lat="46.18119" lon="-1.29051">
        <ele>5.7</ele>
        <time>2020-06-02T07:47:31Z</time>
      </trkpt>
      <trkpt lat="46.18117" lon="-1.29057">
        <ele>5.6</ele>
        <time>2020-06-02T07:47:32Z</time>
      </trkpt>
      <trkpt lat="46.18114" lon="-1.29061">
        <ele>5.5</ele>
        <time>2020-06-02T07:47:33Z</time>
      </trkpt>
      <trkpt lat="46.18112" lon="-1.29064">
        <ele>5.5</ele>
        <time>2020-06-02T07:47:34Z</time>
      </trkpt>
      <trkpt lat="46.18109" lon="-1.29066">
        <ele>5.4</ele>
        <time>2020-06-02T07:47:35Z</time>
      </trkpt>
      <trkpt lat="46.18106" lon="-1.29065">
        <ele>5.4</ele>
        <time>2020-06-02T07:47:36Z</time>
      </trkpt>
      <trkpt lat="46.18104" lon="-1.2906">
        <ele>5.3</ele>
        <time>2020-06-02T07:47:37Z</time>
      </trkpt>
      <trkpt lat="46.18101" lon="-1.29056">
        <ele>5.3</ele>
        <time>2020-06-02T07:47:38Z</time>
      </trkpt>
      <trkpt lat="46.18098" lon="-1.29052">
        <ele>5.2</ele>
        <time>2020-06-02T07:47:39Z</time>
      </trkpt>
      <trkpt lat="46.18096" lon="-1.2905">
        <ele>5.2</ele>
        <time>2020-06-02T07:47:40Z</time>
      </trkpt>
      <trkpt lat="46.18093" lon="-1.29047">
        <ele>5.2</ele>
        <time>2020-06-02T07:47:41Z</time>
      </trkpt>
      <trkpt lat="46.1809" lon="-1.29044">
        <ele>5.1</ele>
        <time>2020-06-02T07:47:42Z</time>
      </trkpt>
      <trkpt lat="46.18087" lon="-1.29041">
        <ele>5.1</ele>
        <time>2020-06-02T07:47:43Z</time>
      </trkpt>
      <trkpt lat="46.18085" lon="-1.29037">
        <ele>5.1</ele>
        <time>2020-06-02T07:47:44Z</time>
      </trkpt>
      <trkpt lat="46.18081" lon="-1.29033">
        <ele>5</ele>
        <time>2020-06-02T07:47:45Z</time>
      </trkpt>
      <trkpt lat="46.18078" lon="-1.29031">
        <ele>5</ele>
        <time>2020-06-02T07:47:46Z</time>
      </trkpt>
      <trkpt lat="46.18075" lon="-1.29028">
        <ele>5</ele>
        <time>2020-06-02T07:47:47Z</time>
      </trkpt>
      <trkpt lat="46.18072" lon="-1.29026">
        <ele>4.9</ele>
        <time>2020-06-02T07:47:48Z</time>
      </trkpt>
      <trkpt lat="46.18069" lon="-1.29022">
        <ele>4.9</ele>
        <time>2020-06-02T07:47:49Z</time>
      </trkpt>
      <trkpt lat="46.18066" lon="-1.29019">
        <ele>4.9</ele>
        <time>2020-06-02T07:47:50Z</time>
      </trkpt>
      <trkpt lat="46.18063" lon="-1.29017">
        <ele>4.8</ele>
        <time>2020-06-02T07:47:51Z</time>
      </trkpt>
      <trkpt lat="46.1806" lon="-1.29014">
        <ele>4.8</ele>
        <time>2020-06-02T07:47:52Z</time>
      </trkpt>
      <trkpt lat="46.18057" lon="-1.2901">
        <ele>4.8</ele>
        <time>2020-06-02T07:47:53Z</time>
      </trkpt>
      <trkpt lat="46.18054" lon="-1.29008">
        <ele>4.7</ele>
        <time>2020-06-02T07:47:54Z</time>
      </trkpt>
      <trkpt lat="46.1805" lon="-1.29005">
        <ele>4.7</ele>
        <time>2020-06-02T07:47:55Z</time>
      </trkpt>
      <trkpt lat="46.18046" lon="-1.29002">
        <ele>4.7</ele>
        <time>2020-06-02T07:47:56Z</time>
      </trkpt>
      <trkpt lat="46.18042" lon="-1.28999">
        <ele>4.6</ele>
        <time>2020-06-02T07:47:57Z</time>
      </trkpt>
      <trkpt lat="46.18039" lon="-1.28995">
        <ele>4.6</ele>
        <time>2020-06-02T07:47:58Z</time>
      </trkpt>
      <trkpt lat="46.18036" lon="-1.28992">
        <ele>4.6</ele>
        <time>2020-06-02T07:47:59Z</time>
      </trkpt>
      <trkpt lat="46.18032" lon="-1.2899">
        <ele>4.6</ele>
        <time>2020-06-02T07:48:00Z</time>
      </trkpt>
      <trkpt lat="46.18028" lon="-1.28986">
        <ele>4.6</ele>
        <time>2020-06-02T07:48:01Z</time>
      </trkpt>
      <trkpt lat="46.18025" lon="-1.28984">
        <ele>4.6</ele>
        <time>2020-06-02T07:48:02Z</time>
      </trkpt>
      <trkpt lat="46.18021" lon="-1.2898">
        <ele>4.6</ele>
        <time>2020-06-02T07:48:03Z</time>
      </trkpt>
      <trkpt lat="46.18017" lon="-1.28976">
        <ele>4.6</ele>
        <time>2020-06-02T07:48:04Z</time>
      </trkpt>
      <trkpt lat="46.18013" lon="-1.28972">
        <ele>4.6</ele>
        <time>2020-06-02T07:48:05Z</time>
      </trkpt>
      <trkpt lat="46.1801" lon="-1.28969">
        <ele>4.6</ele>
        <time>2020-06-02T07:48:06Z</time>
      </trkpt>
      <trkpt lat="46.18007" lon="-1.28967">
        <ele>4.6</ele>
        <time>2020-06-02T07:48:07Z</time>
      </trkpt>
      <trkpt lat="46.18003" lon="-1.28964">
        <ele>4.6</ele>
        <time>2020-06-02T07:48:08Z</time>
      </trkpt>
      <trkpt lat="46.18" lon="-1.28961">
        <ele>4.6</ele>
        <time>2020-06-02T07:48:09Z</time>
      </trkpt>
      <trkpt lat="46.17996" lon="-1.28958">
        <ele>4.6</ele>
        <time>2020-06-02T07:48:10Z</time>
      </trkpt>
      <trkpt lat="46.17993" lon="-1.28954">
        <ele>4.6</ele>
        <time>2020-06-02T07:48:11Z</time>
      </trkpt>
      <trkpt lat="46.17991" lon="-1.28953">
        <ele>4.5</ele>
        <time>2020-06-02T07:48:12Z</time>
      </trkpt>
      <trkpt lat="46.17987" lon="-1.28952">
        <ele>4.5</ele>
        <time>2020-06-02T07:48:13Z</time>
      </trkpt>
      <trkpt lat="46.17985" lon="-1.28952">
        <ele>4.5</ele>
        <time>2020-06-02T07:48:14Z</time>
      </trkpt>
      <trkpt lat="46.17982" lon="-1.28953">
        <ele>4.5</ele>
        <time>2020-06-02T07:48:15Z</time>
      </trkpt>
      <trkpt lat="46.1798" lon="-1.28951">
        <ele>4.5</ele>
        <time>2020-06-02T07:48:16Z</time>
      </trkpt>
      <trkpt lat="46.17979" lon="-1.2895">
        <ele>4.5</ele>
        <time>2020-06-02T07:48:17Z</time>
      </trkpt>
      <trkpt lat="46.17979" lon="-1.2895">
        <ele>4.5</ele>
        <time>2020-06-02T07:48:18Z</time>
      </trkpt>
      <trkpt lat="46.17979" lon="-1.28948">
        <ele>4.5</ele>
        <time>2020-06-02T07:48:19Z</time>
      </trkpt>
      <trkpt lat="46.17979" lon="-1.28948">
        <ele>4.5</ele>
        <time>2020-06-02T07:48:20Z</time>
      </trkpt>
      <trkpt lat="46.17979" lon="-1.28947">
        <ele>4.5</ele>
        <time>2020-06-02T07:48:21Z</time>
      </trkpt>
      <trkpt lat="46.17978" lon="-1.28947">
        <ele>4.5</ele>
        <time>2020-06-02T07:48:22Z</time>
      </trkpt>
      <trkpt lat="46.17978" lon="-1.28946">
        <ele>4.5</ele>
        <time>2020-06-02T07:48:23Z</time>
      </trkpt>
      <trkpt lat="46.17978" lon="-1.28946">
        <ele>4.5</ele>
        <time>2020-06-02T07:48:24Z</time>
      </trkpt>
      <trkpt lat="46.17978" lon="-1.28945">
        <ele>4.5</ele>
        <time>2020-06-02T07:48:25Z</time>
      </trkpt>
      <trkpt lat="46.17978" lon="-1.28945">
        <ele>4.5</ele>
        <time>2020-06-02T07:48:26Z</time>
      </trkpt>
      <trkpt lat="46.17978" lon="-1.28944">
        <ele>4.5</ele>
        <time>2020-06-02T07:48:27Z</time>
      </trkpt>
      <trkpt lat="46.17978" lon="-1.28944">
        <ele>4.5</ele>
        <time>2020-06-02T07:48:28Z</time>
      </trkpt>
      <trkpt lat="46.17977" lon="-1.28939">
        <ele>4.5</ele>
        <time>2020-06-02T07:48:29Z</time>
      </trkpt>
      <trkpt lat="46.17976" lon="-1.28938">
        <ele>4.5</ele>
        <time>2020-06-02T07:48:30Z</time>
      </trkpt>
      <trkpt lat="46.17974" lon="-1.28936">
        <ele>4.5</ele>
        <time>2020-06-02T07:48:31Z</time>
      </trkpt>
      <trkpt lat="46.17973" lon="-1.28935">
        <ele>4.5</ele>
        <time>2020-06-02T07:48:32Z</time>
      </trkpt>
      <trkpt lat="46.17969" lon="-1.28931">
        <ele>4.4</ele>
        <time>2020-06-02T07:48:33Z</time>
      </trkpt>
      <trkpt lat="46.17968" lon="-1.2893">
        <ele>4.4</ele>
        <time>2020-06-02T07:48:34Z</time>
      </trkpt>
      <trkpt lat="46.17965" lon="-1.28928">
        <ele>4.4</ele>
        <time>2020-06-02T07:48:35Z</time>
      </trkpt>
      <trkpt lat="46.17962" lon="-1.28926">
        <ele>4.4</ele>
        <time>2020-06-02T07:48:36Z</time>
      </trkpt>
      <trkpt lat="46.17959" lon="-1.28923">
        <ele>4.4</ele>
        <time>2020-06-02T07:48:37Z</time>
      </trkpt>
      <trkpt lat="46.17955" lon="-1.2892">
        <ele>4.4</ele>
        <time>2020-06-02T07:48:38Z</time>
      </trkpt>
      <trkpt lat="46.17951" lon="-1.28918">
        <ele>4.4</ele>
        <time>2020-06-02T07:48:39Z</time>
      </trkpt>
      <trkpt lat="46.17946" lon="-1.28915">
        <ele>4.4</ele>
        <time>2020-06-02T07:48:40Z</time>
      </trkpt>
      <trkpt lat="46.17942" lon="-1.28912">
        <ele>4.4</ele>
        <time>2020-06-02T07:48:41Z</time>
      </trkpt>
      <trkpt lat="46.17938" lon="-1.2891">
        <ele>4.4</ele>
        <time>2020-06-02T07:48:42Z</time>
      </trkpt>
      <trkpt lat="46.17933" lon="-1.28908">
        <ele>4.4</ele>
        <time>2020-06-02T07:48:43Z</time>
      </trkpt>
      <trkpt lat="46.1793" lon="-1.28905">
        <ele>4.5</ele>
        <time>2020-06-02T07:48:44Z</time>
      </trkpt>
      <trkpt lat="46.17927" lon="-1.28903">
        <ele>4.5</ele>
        <time>2020-06-02T07:48:45Z</time>
      </trkpt>
      <trkpt lat="46.17923" lon="-1.28901">
        <ele>4.5</ele>
        <time>2020-06-02T07:48:46Z</time>
      </trkpt>
      <trkpt lat="46.17919" lon="-1.289">
        <ele>4.5</ele>
        <time>2020-06-02T07:48:47Z</time>
      </trkpt>
      <trkpt lat="46.17915" lon="-1.28897">
        <ele>4.5</ele>
        <time>2020-06-02T07:48:48Z</time>
      </trkpt>
      <trkpt lat="46.17912" lon="-1.28894">
        <ele>4.5</ele>
        <time>2020-06-02T07:48:49Z</time>
      </trkpt>
      <trkpt lat="46.17908" lon="-1.28891">
        <ele>4.5</ele>
        <time>2020-06-02T07:48:50Z</time>
      </trkpt>
      <trkpt lat="46.17904" lon="-1.28889">
        <ele>4.5</ele>
        <time>2020-06-02T07:48:51Z</time>
      </trkpt>
      <trkpt lat="46.179" lon="-1.28886">
        <ele>4.5</ele>
        <time>2020-06-02T07:48:52Z</time>
      </trkpt>
      <trkpt lat="46.17896" lon="-1.28883">
        <ele>4.5</ele>
        <time>2020-06-02T07:48:53Z</time>
      </trkpt>
      <trkpt lat="46.17893" lon="-1.28881">
        <ele>4.6</ele>
        <time>2020-06-02T07:48:54Z</time>
      </trkpt>
      <trkpt lat="46.17889" lon="-1.28883">
        <ele>4.6</ele>
        <time>2020-06-02T07:48:55Z</time>
      </trkpt>
      <trkpt lat="46.17887" lon="-1.28886">
        <ele>4.6</ele>
        <time>2020-06-02T07:48:56Z</time>
      </trkpt>
      <trkpt lat="46.17885" lon="-1.28889">
        <ele>4.6</ele>
        <time>2020-06-02T07:48:57Z</time>
      </trkpt>
      <trkpt lat="46.17882" lon="-1.28892">
        <ele>4.6</ele>
        <time>2020-06-02T07:48:58Z</time>
      </trkpt>
      <trkpt lat="46.17879" lon="-1.28894">
        <ele>4.6</ele>
        <time>2020-06-02T07:48:59Z</time>
      </trkpt>
      <trkpt lat="46.17875" lon="-1.28896">
        <ele>4.6</ele>
        <time>2020-06-02T07:49:00Z</time>
      </trkpt>
      <trkpt lat="46.17872" lon="-1.28898">
        <ele>4.6</ele>
        <time>2020-06-02T07:49:01Z</time>
      </trkpt>
      <trkpt lat="46.17869" lon="-1.28901">
        <ele>4.6</ele>
        <time>2020-06-02T07:49:02Z</time>
      </trkpt>
      <trkpt lat="46.17865" lon="-1.28905">
        <ele>4.5</ele>
        <time>2020-06-02T07:49:03Z</time>
      </trkpt>
      <trkpt lat="46.17862" lon="-1.28908">
        <ele>4.5</ele>
        <time>2020-06-02T07:49:04Z</time>
      </trkpt>
      <trkpt lat="46.17858" lon="-1.28912">
        <ele>4.4</ele>
        <time>2020-06-02T07:49:05Z</time>
      </trkpt>
      <trkpt lat="46.17854" lon="-1.28915">
        <ele>4.4</ele>
        <time>2020-06-02T07:49:06Z</time>
      </trkpt>
      <trkpt lat="46.1785" lon="-1.28918">
        <ele>4.3</ele>
        <time>2020-06-02T07:49:07Z</time>
      </trkpt>
      <trkpt lat="46.17846" lon="-1.28921">
        <ele>4.2</ele>
        <time>2020-06-02T07:49:08Z</time>
      </trkpt>
      <trkpt lat="46.17842" lon="-1.28924">
        <ele>4.1</ele>
        <time>2020-06-02T07:49:09Z</time>
      </trkpt>
      <trkpt lat="46.17838" lon="-1.28926">
        <ele>4</ele>
        <time>2020-06-02T07:49:10Z</time>
      </trkpt>
      <trkpt lat="46.17835" lon="-1.28929">
        <ele>3.9</ele>
        <time>2020-06-02T07:49:11Z</time>
      </trkpt>
      <trkpt lat="46.17832" lon="-1.28932">
        <ele>3.8</ele>
        <time>2020-06-02T07:49:12Z</time>
      </trkpt>
      <trkpt lat="46.17829" lon="-1.28934">
        <ele>3.8</ele>
        <time>2020-06-02T07:49:13Z</time>
      </trkpt>
      <trkpt lat="46.17827" lon="-1.28936">
        <ele>3.7</ele>
        <time>2020-06-02T07:49:14Z</time>
      </trkpt>
      <trkpt lat="46.17824" lon="-1.28939">
        <ele>3.7</ele>
        <time>2020-06-02T07:49:15Z</time>
      </trkpt>
      <trkpt lat="46.17824" lon="-1.28941">
        <ele>3.6</ele>
        <time>2020-06-02T07:49:16Z</time>
      </trkpt>
      <trkpt lat="46.1782" lon="-1.28944">
        <ele>3.6</ele>
        <time>2020-06-02T07:49:17Z</time>
      </trkpt>
      <trkpt lat="46.17819" lon="-1.28945">
        <ele>3.6</ele>
        <time>2020-06-02T07:49:18Z</time>
      </trkpt>
      <trkpt lat="46.17817" lon="-1.28946">
        <ele>3.5</ele>
        <time>2020-06-02T07:49:19Z</time>
      </trkpt>
      <trkpt lat="46.17814" lon="-1.28949">
        <ele>3.5</ele>
        <time>2020-06-02T07:49:20Z</time>
      </trkpt>
      <trkpt lat="46.17812" lon="-1.2895">
        <ele>3.5</ele>
        <time>2020-06-02T07:49:21Z</time>
      </trkpt>
      <trkpt lat="46.17809" lon="-1.2895">
        <ele>3.5</ele>
        <time>2020-06-02T07:49:22Z</time>
      </trkpt>
      <trkpt lat="46.17807" lon="-1.2895">
        <ele>3.5</ele>
        <time>2020-06-02T07:49:23Z</time>
      </trkpt>
      <trkpt lat="46.17804" lon="-1.28947">
        <ele>3.5</ele>
        <time>2020-06-02T07:49:24Z</time>
      </trkpt>
      <trkpt lat="46.17803" lon="-1.28946">
        <ele>3.5</ele>
        <time>2020-06-02T07:49:25Z</time>
      </trkpt>
      <trkpt lat="46.178" lon="-1.28945">
        <ele>3.5</ele>
        <time>2020-06-02T07:49:26Z</time>
      </trkpt>
      <trkpt lat="46.17797" lon="-1.28943">
        <ele>3.5</ele>
        <time>2020-06-02T07:49:27Z</time>
      </trkpt>
      <trkpt lat="46.17795" lon="-1.28941">
        <ele>3.6</ele>
        <time>2020-06-02T07:49:28Z</time>
      </trkpt>
      <trkpt lat="46.17791" lon="-1.28939">
        <ele>3.6</ele>
        <time>2020-06-02T07:49:29Z</time>
      </trkpt>
      <trkpt lat="46.1779" lon="-1.28939">
        <ele>3.6</ele>
        <time>2020-06-02T07:49:30Z</time>
      </trkpt>
      <trkpt lat="46.17786" lon="-1.28938">
        <ele>3.6</ele>
        <time>2020-06-02T07:49:31Z</time>
      </trkpt>
      <trkpt lat="46.17784" lon="-1.28939">
        <ele>3.6</ele>
        <time>2020-06-02T07:49:32Z</time>
      </trkpt>
      <trkpt lat="46.1778" lon="-1.28939">
        <ele>3.6</ele>
        <time>2020-06-02T07:49:33Z</time>
      </trkpt>
      <trkpt lat="46.17776" lon="-1.28936">
        <ele>3.6</ele>
        <time>2020-06-02T07:49:34Z</time>
      </trkpt>
      <trkpt lat="46.17772" lon="-1.28934">
        <ele>3.6</ele>
        <time>2020-06-02T07:49:35Z</time>
      </trkpt>
      <trkpt lat="46.17768" lon="-1.2893">
        <ele>3.7</ele>
        <time>2020-06-02T07:49:36Z</time>
      </trkpt>
      <trkpt lat="46.17763" lon="-1.28926">
        <ele>3.7</ele>
        <time>2020-06-02T07:49:37Z</time>
      </trkpt>
      <trkpt lat="46.17758" lon="-1.28922">
        <ele>3.8</ele>
        <time>2020-06-02T07:49:38Z</time>
      </trkpt>
      <trkpt lat="46.17752" lon="-1.28919">
        <ele>3.8</ele>
        <time>2020-06-02T07:49:39Z</time>
      </trkpt>
      <trkpt lat="46.17747" lon="-1.28915">
        <ele>3.8</ele>
        <time>2020-06-02T07:49:40Z</time>
      </trkpt>
      <trkpt lat="46.17741" lon="-1.2891">
        <ele>3.8</ele>
        <time>2020-06-02T07:49:41Z</time>
      </trkpt>
      <trkpt lat="46.17735" lon="-1.28905">
        <ele>3.9</ele>
        <time>2020-06-02T07:49:42Z</time>
      </trkpt>
      <trkpt lat="46.17729" lon="-1.289">
        <ele>3.9</ele>
        <time>2020-06-02T07:49:43Z</time>
      </trkpt>
      <trkpt lat="46.17723" lon="-1.28896">
        <ele>4</ele>
        <time>2020-06-02T07:49:44Z</time>
      </trkpt>
      <trkpt lat="46.17717" lon="-1.28893">
        <ele>4.1</ele>
        <time>2020-06-02T07:49:45Z</time>
      </trkpt>
      <trkpt lat="46.17712" lon="-1.28888">
        <ele>4.3</ele>
        <time>2020-06-02T07:49:46Z</time>
      </trkpt>
      <trkpt lat="46.17707" lon="-1.28883">
        <ele>4.4</ele>
        <time>2020-06-02T07:49:47Z</time>
      </trkpt>
      <trkpt lat="46.17702" lon="-1.28879">
        <ele>4.6</ele>
        <time>2020-06-02T07:49:48Z</time>
      </trkpt>
      <trkpt lat="46.17696" lon="-1.28875">
        <ele>4.7</ele>
        <time>2020-06-02T07:49:49Z</time>
      </trkpt>
      <trkpt lat="46.17691" lon="-1.28871">
        <ele>4.8</ele>
        <time>2020-06-02T07:49:50Z</time>
      </trkpt>
      <trkpt lat="46.17686" lon="-1.28868">
        <ele>4.8</ele>
        <time>2020-06-02T07:49:51Z</time>
      </trkpt>
      <trkpt lat="46.17681" lon="-1.28864">
        <ele>4.9</ele>
        <time>2020-06-02T07:49:52Z</time>
      </trkpt>
      <trkpt lat="46.17676" lon="-1.28859">
        <ele>5.1</ele>
        <time>2020-06-02T07:49:53Z</time>
      </trkpt>
      <trkpt lat="46.1767" lon="-1.28854">
        <ele>5.2</ele>
        <time>2020-06-02T07:49:54Z</time>
      </trkpt>
      <trkpt lat="46.17664" lon="-1.28848">
        <ele>5.3</ele>
        <time>2020-06-02T07:49:55Z</time>
      </trkpt>
      <trkpt lat="46.17659" lon="-1.28844">
        <ele>5.4</ele>
        <time>2020-06-02T07:49:56Z</time>
      </trkpt>
      <trkpt lat="46.17653" lon="-1.2884">
        <ele>5.5</ele>
        <time>2020-06-02T07:49:57Z</time>
      </trkpt>
      <trkpt lat="46.17648" lon="-1.28836">
        <ele>5.5</ele>
        <time>2020-06-02T07:49:58Z</time>
      </trkpt>
      <trkpt lat="46.17643" lon="-1.28831">
        <ele>5.5</ele>
        <time>2020-06-02T07:49:59Z</time>
      </trkpt>
      <trkpt lat="46.17638" lon="-1.28826">
        <ele>5.6</ele>
        <time>2020-06-02T07:50:00Z</time>
      </trkpt>
      <trkpt lat="46.17634" lon="-1.28822">
        <ele>5.6</ele>
        <time>2020-06-02T07:50:01Z</time>
      </trkpt>
      <trkpt lat="46.17628" lon="-1.28818">
        <ele>5.6</ele>
        <time>2020-06-02T07:50:02Z</time>
      </trkpt>
      <trkpt lat="46.17621" lon="-1.28814">
        <ele>5.6</ele>
        <time>2020-06-02T07:50:03Z</time>
      </trkpt>
      <trkpt lat="46.17615" lon="-1.28809">
        <ele>5.7</ele>
        <time>2020-06-02T07:50:04Z</time>
      </trkpt>
      <trkpt lat="46.17609" lon="-1.28804">
        <ele>5.7</ele>
        <time>2020-06-02T07:50:05Z</time>
      </trkpt>
      <trkpt lat="46.17603" lon="-1.28799">
        <ele>5.7</ele>
        <time>2020-06-02T07:50:06Z</time>
      </trkpt>
      <trkpt lat="46.17597" lon="-1.28795">
        <ele>5.7</ele>
        <time>2020-06-02T07:50:07Z</time>
      </trkpt>
      <trkpt lat="46.17591" lon="-1.2879">
        <ele>5.7</ele>
        <time>2020-06-02T07:50:08Z</time>
      </trkpt>
      <trkpt lat="46.17584" lon="-1.28784">
        <ele>5.7</ele>
        <time>2020-06-02T07:50:09Z</time>
      </trkpt>
      <trkpt lat="46.17579" lon="-1.28779">
        <ele>5.7</ele>
        <time>2020-06-02T07:50:10Z</time>
      </trkpt>
      <trkpt lat="46.17572" lon="-1.28773">
        <ele>5.7</ele>
        <time>2020-06-02T07:50:11Z</time>
      </trkpt>
      <trkpt lat="46.17567" lon="-1.28768">
        <ele>5.7</ele>
        <time>2020-06-02T07:50:12Z</time>
      </trkpt>
      <trkpt lat="46.17561" lon="-1.28762">
        <ele>5.7</ele>
        <time>2020-06-02T07:50:13Z</time>
      </trkpt>
      <trkpt lat="46.17555" lon="-1.28757">
        <ele>5.7</ele>
        <time>2020-06-02T07:50:14Z</time>
      </trkpt>
      <trkpt lat="46.17547" lon="-1.2875">
        <ele>5.7</ele>
        <time>2020-06-02T07:50:15Z</time>
      </trkpt>
      <trkpt lat="46.17541" lon="-1.28745">
        <ele>5.8</ele>
        <time>2020-06-02T07:50:16Z</time>
      </trkpt>
      <trkpt lat="46.17536" lon="-1.28741">
        <ele>5.8</ele>
        <time>2020-06-02T07:50:17Z</time>
      </trkpt>
      <trkpt lat="46.1753" lon="-1.28737">
        <ele>5.8</ele>
        <time>2020-06-02T07:50:18Z</time>
      </trkpt>
      <trkpt lat="46.17524" lon="-1.28732">
        <ele>5.9</ele>
        <time>2020-06-02T07:50:19Z</time>
      </trkpt>
      <trkpt lat="46.17516" lon="-1.28727">
        <ele>5.9</ele>
        <time>2020-06-02T07:50:20Z</time>
      </trkpt>
      <trkpt lat="46.17508" lon="-1.28721">
        <ele>5.9</ele>
        <time>2020-06-02T07:50:21Z</time>
      </trkpt>
      <trkpt lat="46.17504" lon="-1.28716">
        <ele>5.9</ele>
        <time>2020-06-02T07:50:22Z</time>
      </trkpt>
      <trkpt lat="46.17498" lon="-1.2871">
        <ele>5.9</ele>
        <time>2020-06-02T07:50:23Z</time>
      </trkpt>
      <trkpt lat="46.17493" lon="-1.28704">
        <ele>6</ele>
        <time>2020-06-02T07:50:24Z</time>
      </trkpt>
      <trkpt lat="46.17486" lon="-1.28698">
        <ele>6</ele>
        <time>2020-06-02T07:50:25Z</time>
      </trkpt>
      <trkpt lat="46.17479" lon="-1.28692">
        <ele>6</ele>
        <time>2020-06-02T07:50:26Z</time>
      </trkpt>
      <trkpt lat="46.17473" lon="-1.28686">
        <ele>6</ele>
        <time>2020-06-02T07:50:27Z</time>
      </trkpt>
      <trkpt lat="46.17466" lon="-1.2868">
        <ele>6</ele>
        <time>2020-06-02T07:50:28Z</time>
      </trkpt>
      <trkpt lat="46.1746" lon="-1.28675">
        <ele>6.1</ele>
        <time>2020-06-02T07:50:29Z</time>
      </trkpt>
      <trkpt lat="46.17453" lon="-1.28671">
        <ele>6.1</ele>
        <time>2020-06-02T07:50:30Z</time>
      </trkpt>
      <trkpt lat="46.17446" lon="-1.28666">
        <ele>6.1</ele>
        <time>2020-06-02T07:50:31Z</time>
      </trkpt>
      <trkpt lat="46.1744" lon="-1.28661">
        <ele>6.2</ele>
        <time>2020-06-02T07:50:32Z</time>
      </trkpt>
      <trkpt lat="46.17434" lon="-1.28656">
        <ele>6.2</ele>
        <time>2020-06-02T07:50:33Z</time>
      </trkpt>
      <trkpt lat="46.17428" lon="-1.28651">
        <ele>6.2</ele>
        <time>2020-06-02T07:50:34Z</time>
      </trkpt>
      <trkpt lat="46.17422" lon="-1.28648">
        <ele>6.3</ele>
        <time>2020-06-02T07:50:35Z</time>
      </trkpt>
      <trkpt lat="46.17415" lon="-1.28643">
        <ele>6.3</ele>
        <time>2020-06-02T07:50:36Z</time>
      </trkpt>
      <trkpt lat="46.17408" lon="-1.28638">
        <ele>6.3</ele>
        <time>2020-06-02T07:50:37Z</time>
      </trkpt>
      <trkpt lat="46.17401" lon="-1.28634">
        <ele>6.3</ele>
        <time>2020-06-02T07:50:38Z</time>
      </trkpt>
      <trkpt lat="46.17395" lon="-1.28629">
        <ele>6.4</ele>
        <time>2020-06-02T07:50:39Z</time>
      </trkpt>
      <trkpt lat="46.17388" lon="-1.28623">
        <ele>6.4</ele>
        <time>2020-06-02T07:50:40Z</time>
      </trkpt>
      <trkpt lat="46.17382" lon="-1.28618">
        <ele>6.4</ele>
        <time>2020-06-02T07:50:41Z</time>
      </trkpt>
      <trkpt lat="46.17375" lon="-1.28612">
        <ele>6.4</ele>
        <time>2020-06-02T07:50:42Z</time>
      </trkpt>
      <trkpt lat="46.17369" lon="-1.28607">
        <ele>6.5</ele>
        <time>2020-06-02T07:50:43Z</time>
      </trkpt>
      <trkpt lat="46.17362" lon="-1.28602">
        <ele>6.5</ele>
        <time>2020-06-02T07:50:44Z</time>
      </trkpt>
      <trkpt lat="46.17356" lon="-1.28596">
        <ele>6.5</ele>
        <time>2020-06-02T07:50:45Z</time>
      </trkpt>
      <trkpt lat="46.1735" lon="-1.28591">
        <ele>6.5</ele>
        <time>2020-06-02T07:50:46Z</time>
      </trkpt>
      <trkpt lat="46.17343" lon="-1.28586">
        <ele>6.4</ele>
        <time>2020-06-02T07:50:47Z</time>
      </trkpt>
      <trkpt lat="46.17338" lon="-1.2858">
        <ele>6.4</ele>
        <time>2020-06-02T07:50:48Z</time>
      </trkpt>
      <trkpt lat="46.17332" lon="-1.28576">
        <ele>6.4</ele>
        <time>2020-06-02T07:50:49Z</time>
      </trkpt>
      <trkpt lat="46.17326" lon="-1.28571">
        <ele>6.4</ele>
        <time>2020-06-02T07:50:50Z</time>
      </trkpt>
      <trkpt lat="46.17321" lon="-1.28567">
        <ele>6.4</ele>
        <time>2020-06-02T07:50:51Z</time>
      </trkpt>
      <trkpt lat="46.17315" lon="-1.28561">
        <ele>6.4</ele>
        <time>2020-06-02T07:50:52Z</time>
      </trkpt>
      <trkpt lat="46.17309" lon="-1.28556">
        <ele>6.4</ele>
        <time>2020-06-02T07:50:53Z</time>
      </trkpt>
      <trkpt lat="46.17303" lon="-1.2855">
        <ele>6.4</ele>
        <time>2020-06-02T07:50:54Z</time>
      </trkpt>
      <trkpt lat="46.17297" lon="-1.28545">
        <ele>6.4</ele>
        <time>2020-06-02T07:50:55Z</time>
      </trkpt>
      <trkpt lat="46.1729" lon="-1.28539">
        <ele>6.4</ele>
        <time>2020-06-02T07:50:56Z</time>
      </trkpt>
      <trkpt lat="46.17284" lon="-1.28534">
        <ele>6.4</ele>
        <time>2020-06-02T07:50:57Z</time>
      </trkpt>
      <trkpt lat="46.17278" lon="-1.28529">
        <ele>6.4</ele>
        <time>2020-06-02T07:50:58Z</time>
      </trkpt>
      <trkpt lat="46.17272" lon="-1.28523">
        <ele>6.4</ele>
        <time>2020-06-02T07:50:59Z</time>
      </trkpt>
      <trkpt lat="46.17265" lon="-1.28518">
        <ele>6.4</ele>
        <time>2020-06-02T07:51:00Z</time>
      </trkpt>
      <trkpt lat="46.17258" lon="-1.28513">
        <ele>6.4</ele>
        <time>2020-06-02T07:51:01Z</time>
      </trkpt>
      <trkpt lat="46.17251" lon="-1.28508">
        <ele>6.3</ele>
        <time>2020-06-02T07:51:02Z</time>
      </trkpt>
      <trkpt lat="46.17245" lon="-1.28504">
        <ele>6.3</ele>
        <time>2020-06-02T07:51:03Z</time>
      </trkpt>
      <trkpt lat="46.17238" lon="-1.28499">
        <ele>6.3</ele>
        <time>2020-06-02T07:51:04Z</time>
      </trkpt>
      <trkpt lat="46.17232" lon="-1.28494">
        <ele>6.3</ele>
        <time>2020-06-02T07:51:05Z</time>
      </trkpt>
      <trkpt lat="46.17225" lon="-1.28488">
        <ele>6.3</ele>
        <time>2020-06-02T07:51:06Z</time>
      </trkpt>
      <trkpt lat="46.17218" lon="-1.28484">
        <ele>6.3</ele>
        <time>2020-06-02T07:51:07Z</time>
      </trkpt>
      <trkpt lat="46.17212" lon="-1.28478">
        <ele>6.3</ele>
        <time>2020-06-02T07:51:08Z</time>
      </trkpt>
      <trkpt lat="46.17205" lon="-1.28473">
        <ele>6.2</ele>
        <time>2020-06-02T07:51:09Z</time>
      </trkpt>
      <trkpt lat="46.17197" lon="-1.28467">
        <ele>6.2</ele>
        <time>2020-06-02T07:51:10Z</time>
      </trkpt>
      <trkpt lat="46.1719" lon="-1.28463">
        <ele>6.2</ele>
        <time>2020-06-02T07:51:11Z</time>
      </trkpt>
      <trkpt lat="46.17183" lon="-1.28458">
        <ele>6.1</ele>
        <time>2020-06-02T07:51:12Z</time>
      </trkpt>
      <trkpt lat="46.17176" lon="-1.28452">
        <ele>6</ele>
        <time>2020-06-02T07:51:13Z</time>
      </trkpt>
      <trkpt lat="46.1717" lon="-1.28447">
        <ele>6</ele>
        <time>2020-06-02T07:51:14Z</time>
      </trkpt>
      <trkpt lat="46.17163" lon="-1.28442">
        <ele>5.9</ele>
        <time>2020-06-02T07:51:15Z</time>
      </trkpt>
      <trkpt lat="46.17157" lon="-1.28437">
        <ele>5.8</ele>
        <time>2020-06-02T07:51:16Z</time>
      </trkpt>
      <trkpt lat="46.17151" lon="-1.28432">
        <ele>5.8</ele>
        <time>2020-06-02T07:51:17Z</time>
      </trkpt>
      <trkpt lat="46.17144" lon="-1.28427">
        <ele>5.7</ele>
        <time>2020-06-02T07:51:18Z</time>
      </trkpt>
      <trkpt lat="46.17137" lon="-1.28418">
        <ele>5.6</ele>
        <time>2020-06-02T07:51:19Z</time>
      </trkpt>
      <trkpt lat="46.1713" lon="-1.28413">
        <ele>5.5</ele>
        <time>2020-06-02T07:51:20Z</time>
      </trkpt>
      <trkpt lat="46.17123" lon="-1.28407">
        <ele>5.4</ele>
        <time>2020-06-02T07:51:21Z</time>
      </trkpt>
      <trkpt lat="46.17116" lon="-1.28401">
        <ele>5.3</ele>
        <time>2020-06-02T07:51:22Z</time>
      </trkpt>
      <trkpt lat="46.17109" lon="-1.28396">
        <ele>5.2</ele>
        <time>2020-06-02T07:51:23Z</time>
      </trkpt>
      <trkpt lat="46.17103" lon="-1.28391">
        <ele>5.1</ele>
        <time>2020-06-02T07:51:24Z</time>
      </trkpt>
      <trkpt lat="46.17095" lon="-1.28386">
        <ele>5</ele>
        <time>2020-06-02T07:51:25Z</time>
      </trkpt>
      <trkpt lat="46.17089" lon="-1.28381">
        <ele>5</ele>
        <time>2020-06-02T07:51:26Z</time>
      </trkpt>
      <trkpt lat="46.17082" lon="-1.28376">
        <ele>4.9</ele>
        <time>2020-06-02T07:51:27Z</time>
      </trkpt>
      <trkpt lat="46.17075" lon="-1.28371">
        <ele>4.8</ele>
        <time>2020-06-02T07:51:28Z</time>
      </trkpt>
      <trkpt lat="46.17069" lon="-1.28366">
        <ele>4.8</ele>
        <time>2020-06-02T07:51:29Z</time>
      </trkpt>
      <trkpt lat="46.17062" lon="-1.28361">
        <ele>4.7</ele>
        <time>2020-06-02T07:51:30Z</time>
      </trkpt>
      <trkpt lat="46.17055" lon="-1.28355">
        <ele>4.7</ele>
        <time>2020-06-02T07:51:31Z</time>
      </trkpt>
      <trkpt lat="46.17049" lon="-1.2835">
        <ele>4.7</ele>
        <time>2020-06-02T07:51:32Z</time>
      </trkpt>
      <trkpt lat="46.17041" lon="-1.28344">
        <ele>4.5</ele>
        <time>2020-06-02T07:51:33Z</time>
      </trkpt>
      <trkpt lat="46.17035" lon="-1.28339">
        <ele>4.4</ele>
        <time>2020-06-02T07:51:34Z</time>
      </trkpt>
      <trkpt lat="46.17028" lon="-1.28334">
        <ele>4.4</ele>
        <time>2020-06-02T07:51:35Z</time>
      </trkpt>
      <trkpt lat="46.17021" lon="-1.28328">
        <ele>4.3</ele>
        <time>2020-06-02T07:51:36Z</time>
      </trkpt>
      <trkpt lat="46.17015" lon="-1.28323">
        <ele>4.2</ele>
        <time>2020-06-02T07:51:37Z</time>
      </trkpt>
      <trkpt lat="46.17008" lon="-1.28317">
        <ele>4.1</ele>
        <time>2020-06-02T07:51:38Z</time>
      </trkpt>
      <trkpt lat="46.17002" lon="-1.28312">
        <ele>4</ele>
        <time>2020-06-02T07:51:39Z</time>
      </trkpt>
      <trkpt lat="46.16995" lon="-1.28307">
        <ele>3.9</ele>
        <time>2020-06-02T07:51:40Z</time>
      </trkpt>
      <trkpt lat="46.16989" lon="-1.28302">
        <ele>3.8</ele>
        <time>2020-06-02T07:51:41Z</time>
      </trkpt>
      <trkpt lat="46.16982" lon="-1.28297">
        <ele>3.8</ele>
        <time>2020-06-02T07:51:42Z</time>
      </trkpt>
      <trkpt lat="46.16975" lon="-1.28292">
        <ele>3.7</ele>
        <time>2020-06-02T07:51:43Z</time>
      </trkpt>
      <trkpt lat="46.16969" lon="-1.28286">
        <ele>3.7</ele>
        <time>2020-06-02T07:51:44Z</time>
      </trkpt>
      <trkpt lat="46.16962" lon="-1.28283">
        <ele>3.7</ele>
        <time>2020-06-02T07:51:45Z</time>
      </trkpt>
      <trkpt lat="46.16954" lon="-1.28282">
        <ele>3.7</ele>
        <time>2020-06-02T07:51:46Z</time>
      </trkpt>
      <trkpt lat="46.16947" lon="-1.28283">
        <ele>3.7</ele>
        <time>2020-06-02T07:51:47Z</time>
      </trkpt>
      <trkpt lat="46.16939" lon="-1.28284">
        <ele>3.6</ele>
        <time>2020-06-02T07:51:48Z</time>
      </trkpt>
      <trkpt lat="46.16931" lon="-1.28286">
        <ele>3.6</ele>
        <time>2020-06-02T07:51:49Z</time>
      </trkpt>
      <trkpt lat="46.16924" lon="-1.28289">
        <ele>3.5</ele>
        <time>2020-06-02T07:51:50Z</time>
      </trkpt>
      <trkpt lat="46.16917" lon="-1.28293">
        <ele>3.5</ele>
        <time>2020-06-02T07:51:51Z</time>
      </trkpt>
      <trkpt lat="46.1691" lon="-1.28297">
        <ele>3.5</ele>
        <time>2020-06-02T07:51:52Z</time>
      </trkpt>
      <trkpt lat="46.16903" lon="-1.28302">
        <ele>3.4</ele>
        <time>2020-06-02T07:51:53Z</time>
      </trkpt>
      <trkpt lat="46.16896" lon="-1.28306">
        <ele>3.4</ele>
        <time>2020-06-02T07:51:54Z</time>
      </trkpt>
      <trkpt lat="46.16889" lon="-1.2831">
        <ele>3.4</ele>
        <time>2020-06-02T07:51:55Z</time>
      </trkpt>
      <trkpt lat="46.16883" lon="-1.28314">
        <ele>3.4</ele>
        <time>2020-06-02T07:51:56Z</time>
      </trkpt>
      <trkpt lat="46.16876" lon="-1.28317">
        <ele>3.4</ele>
        <time>2020-06-02T07:51:57Z</time>
      </trkpt>
      <trkpt lat="46.16869" lon="-1.28321">
        <ele>3.5</ele>
        <time>2020-06-02T07:51:58Z</time>
      </trkpt>
      <trkpt lat="46.16862" lon="-1.28324">
        <ele>3.6</ele>
        <time>2020-06-02T07:51:59Z</time>
      </trkpt>
      <trkpt lat="46.16856" lon="-1.28327">
        <ele>3.7</ele>
        <time>2020-06-02T07:52:00Z</time>
      </trkpt>
      <trkpt lat="46.16849" lon="-1.28329">
        <ele>3.8</ele>
        <time>2020-06-02T07:52:01Z</time>
      </trkpt>
      <trkpt lat="46.16843" lon="-1.2833">
        <ele>3.9</ele>
        <time>2020-06-02T07:52:02Z</time>
      </trkpt>
      <trkpt lat="46.16836" lon="-1.28331">
        <ele>3.9</ele>
        <time>2020-06-02T07:52:03Z</time>
      </trkpt>
      <trkpt lat="46.16829" lon="-1.28332">
        <ele>4</ele>
        <time>2020-06-02T07:52:04Z</time>
      </trkpt>
      <trkpt lat="46.16824" lon="-1.28332">
        <ele>3.9</ele>
        <time>2020-06-02T07:52:05Z</time>
      </trkpt>
      <trkpt lat="46.16819" lon="-1.28332">
        <ele>3.9</ele>
        <time>2020-06-02T07:52:06Z</time>
      </trkpt>
      <trkpt lat="46.16814" lon="-1.28332">
        <ele>3.9</ele>
        <time>2020-06-02T07:52:07Z</time>
      </trkpt>
      <trkpt lat="46.16811" lon="-1.28333">
        <ele>3.9</ele>
        <time>2020-06-02T07:52:08Z</time>
      </trkpt>
      <trkpt lat="46.16807" lon="-1.28332">
        <ele>3.9</ele>
        <time>2020-06-02T07:52:09Z</time>
      </trkpt>
      <trkpt lat="46.16803" lon="-1.28331">
        <ele>3.9</ele>
        <time>2020-06-02T07:52:10Z</time>
      </trkpt>
      <trkpt lat="46.168" lon="-1.2833">
        <ele>3.9</ele>
        <time>2020-06-02T07:52:11Z</time>
      </trkpt>
      <trkpt lat="46.16797" lon="-1.28328">
        <ele>3.9</ele>
        <time>2020-06-02T07:52:12Z</time>
      </trkpt>
      <trkpt lat="46.16794" lon="-1.28328">
        <ele>3.9</ele>
        <time>2020-06-02T07:52:13Z</time>
      </trkpt>
      <trkpt lat="46.1679" lon="-1.28327">
        <ele>3.9</ele>
        <time>2020-06-02T07:52:14Z</time>
      </trkpt>
      <trkpt lat="46.16787" lon="-1.28326">
        <ele>3.9</ele>
        <time>2020-06-02T07:52:15Z</time>
      </trkpt>
      <trkpt lat="46.16783" lon="-1.28325">
        <ele>3.9</ele>
        <time>2020-06-02T07:52:16Z</time>
      </trkpt>
      <trkpt lat="46.16779" lon="-1.28324">
        <ele>3.9</ele>
        <time>2020-06-02T07:52:17Z</time>
      </trkpt>
      <trkpt lat="46.16775" lon="-1.28322">
        <ele>3.9</ele>
        <time>2020-06-02T07:52:18Z</time>
      </trkpt>
      <trkpt lat="46.16772" lon="-1.2832">
        <ele>3.9</ele>
        <time>2020-06-02T07:52:19Z</time>
      </trkpt>
      <trkpt lat="46.16769" lon="-1.28317">
        <ele>4</ele>
        <time>2020-06-02T07:52:20Z</time>
      </trkpt>
      <trkpt lat="46.16768" lon="-1.28312">
        <ele>4</ele>
        <time>2020-06-02T07:52:21Z</time>
      </trkpt>
      <trkpt lat="46.16767" lon="-1.28311">
        <ele>4</ele>
        <time>2020-06-02T07:52:22Z</time>
      </trkpt>
      <trkpt lat="46.16766" lon="-1.28307">
        <ele>4</ele>
        <time>2020-06-02T07:52:23Z</time>
      </trkpt>
      <trkpt lat="46.16763" lon="-1.28304">
        <ele>3.9</ele>
        <time>2020-06-02T07:52:24Z</time>
      </trkpt>
      <trkpt lat="46.16761" lon="-1.28304">
        <ele>3.9</ele>
        <time>2020-06-02T07:52:25Z</time>
      </trkpt>
      <trkpt lat="46.16758" lon="-1.28303">
        <ele>3.9</ele>
        <time>2020-06-02T07:52:26Z</time>
      </trkpt>
      <trkpt lat="46.16756" lon="-1.283">
        <ele>3.9</ele>
        <time>2020-06-02T07:52:27Z</time>
      </trkpt>
      <trkpt lat="46.16752" lon="-1.28298">
        <ele>3.9</ele>
        <time>2020-06-02T07:52:28Z</time>
      </trkpt>
      <trkpt lat="46.16749" lon="-1.28296">
        <ele>3.9</ele>
        <time>2020-06-02T07:52:29Z</time>
      </trkpt>
      <trkpt lat="46.16745" lon="-1.28294">
        <ele>3.9</ele>
        <time>2020-06-02T07:52:30Z</time>
      </trkpt>
      <trkpt lat="46.16742" lon="-1.28291">
        <ele>3.9</ele>
        <time>2020-06-02T07:52:31Z</time>
      </trkpt>
      <trkpt lat="46.16738" lon="-1.28288">
        <ele>3.9</ele>
        <time>2020-06-02T07:52:32Z</time>
      </trkpt>
      <trkpt lat="46.16735" lon="-1.28286">
        <ele>3.9</ele>
        <time>2020-06-02T07:52:33Z</time>
      </trkpt>
      <trkpt lat="46.16731" lon="-1.28283">
        <ele>3.9</ele>
        <time>2020-06-02T07:52:34Z</time>
      </trkpt>
      <trkpt lat="46.16727" lon="-1.2828">
        <ele>3.9</ele>
        <time>2020-06-02T07:52:35Z</time>
      </trkpt>
      <trkpt lat="46.16723" lon="-1.28277">
        <ele>3.9</ele>
        <time>2020-06-02T07:52:36Z</time>
      </trkpt>
      <trkpt lat="46.16719" lon="-1.28273">
        <ele>3.9</ele>
        <time>2020-06-02T07:52:37Z</time>
      </trkpt>
      <trkpt lat="46.16715" lon="-1.2827">
        <ele>3.9</ele>
        <time>2020-06-02T07:52:38Z</time>
      </trkpt>
      <trkpt lat="46.16711" lon="-1.28266">
        <ele>3.9</ele>
        <time>2020-06-02T07:52:39Z</time>
      </trkpt>
      <trkpt lat="46.16707" lon="-1.28263">
        <ele>3.9</ele>
        <time>2020-06-02T07:52:40Z</time>
      </trkpt>
      <trkpt lat="46.16703" lon="-1.2826">
        <ele>3.9</ele>
        <time>2020-06-02T07:52:41Z</time>
      </trkpt>
      <trkpt lat="46.16699" lon="-1.28257">
        <ele>3.9</ele>
        <time>2020-06-02T07:52:42Z</time>
      </trkpt>
      <trkpt lat="46.16695" lon="-1.28254">
        <ele>3.8</ele>
        <time>2020-06-02T07:52:43Z</time>
      </trkpt>
      <trkpt lat="46.16691" lon="-1.2825">
        <ele>3.8</ele>
        <time>2020-06-02T07:52:44Z</time>
      </trkpt>
      <trkpt lat="46.16687" lon="-1.28247">
        <ele>3.8</ele>
        <time>2020-06-02T07:52:45Z</time>
      </trkpt>
      <trkpt lat="46.16683" lon="-1.28244">
        <ele>3.8</ele>
        <time>2020-06-02T07:52:46Z</time>
      </trkpt>
      <trkpt lat="46.16679" lon="-1.28241">
        <ele>3.8</ele>
        <time>2020-06-02T07:52:47Z</time>
      </trkpt>
      <trkpt lat="46.16675" lon="-1.28238">
        <ele>3.8</ele>
        <time>2020-06-02T07:52:48Z</time>
      </trkpt>
      <trkpt lat="46.16671" lon="-1.28235">
        <ele>3.8</ele>
        <time>2020-06-02T07:52:49Z</time>
      </trkpt>
      <trkpt lat="46.16667" lon="-1.28232">
        <ele>3.8</ele>
        <time>2020-06-02T07:52:50Z</time>
      </trkpt>
      <trkpt lat="46.16663" lon="-1.28228">
        <ele>3.8</ele>
        <time>2020-06-02T07:52:51Z</time>
      </trkpt>
      <trkpt lat="46.16659" lon="-1.28225">
        <ele>3.8</ele>
        <time>2020-06-02T07:52:52Z</time>
      </trkpt>
      <trkpt lat="46.16656" lon="-1.28221">
        <ele>3.8</ele>
        <time>2020-06-02T07:52:53Z</time>
      </trkpt>
      <trkpt lat="46.16652" lon="-1.28218">
        <ele>3.8</ele>
        <time>2020-06-02T07:52:54Z</time>
      </trkpt>
      <trkpt lat="46.16648" lon="-1.28214">
        <ele>3.8</ele>
        <time>2020-06-02T07:52:55Z</time>
      </trkpt>
      <trkpt lat="46.16645" lon="-1.28211">
        <ele>3.8</ele>
        <time>2020-06-02T07:52:56Z</time>
      </trkpt>
      <trkpt lat="46.16641" lon="-1.28207">
        <ele>3.8</ele>
        <time>2020-06-02T07:52:57Z</time>
      </trkpt>
      <trkpt lat="46.16637" lon="-1.28204">
        <ele>3.8</ele>
        <time>2020-06-02T07:52:58Z</time>
      </trkpt>
      <trkpt lat="46.16634" lon="-1.282">
        <ele>3.8</ele>
        <time>2020-06-02T07:52:59Z</time>
      </trkpt>
      <trkpt lat="46.16631" lon="-1.28197">
        <ele>3.8</ele>
        <time>2020-06-02T07:53:00Z</time>
      </trkpt>
      <trkpt lat="46.16627" lon="-1.28194">
        <ele>3.8</ele>
        <time>2020-06-02T07:53:01Z</time>
      </trkpt>
      <trkpt lat="46.16623" lon="-1.28191">
        <ele>3.8</ele>
        <time>2020-06-02T07:53:02Z</time>
      </trkpt>
      <trkpt lat="46.16619" lon="-1.28188">
        <ele>3.8</ele>
        <time>2020-06-02T07:53:03Z</time>
      </trkpt>
      <trkpt lat="46.16614" lon="-1.28186">
        <ele>3.8</ele>
        <time>2020-06-02T07:53:04Z</time>
      </trkpt>
      <trkpt lat="46.1661" lon="-1.28185">
        <ele>3.8</ele>
        <time>2020-06-02T07:53:05Z</time>
      </trkpt>
      <trkpt lat="46.16605" lon="-1.28183">
        <ele>3.8</ele>
        <time>2020-06-02T07:53:06Z</time>
      </trkpt>
      <trkpt lat="46.16601" lon="-1.28181">
        <ele>3.8</ele>
        <time>2020-06-02T07:53:07Z</time>
      </trkpt>
      <trkpt lat="46.16597" lon="-1.2818">
        <ele>3.9</ele>
        <time>2020-06-02T07:53:08Z</time>
      </trkpt>
      <trkpt lat="46.16593" lon="-1.28178">
        <ele>3.9</ele>
        <time>2020-06-02T07:53:09Z</time>
      </trkpt>
      <trkpt lat="46.16588" lon="-1.28176">
        <ele>3.9</ele>
        <time>2020-06-02T07:53:10Z</time>
      </trkpt>
      <trkpt lat="46.16583" lon="-1.28176">
        <ele>3.9</ele>
        <time>2020-06-02T07:53:11Z</time>
      </trkpt>
      <trkpt lat="46.16579" lon="-1.28175">
        <ele>3.9</ele>
        <time>2020-06-02T07:53:12Z</time>
      </trkpt>
      <trkpt lat="46.16574" lon="-1.28177">
        <ele>3.9</ele>
        <time>2020-06-02T07:53:13Z</time>
      </trkpt>
      <trkpt lat="46.1657" lon="-1.28178">
        <ele>3.9</ele>
        <time>2020-06-02T07:53:14Z</time>
      </trkpt>
      <trkpt lat="46.16565" lon="-1.28178">
        <ele>4</ele>
        <time>2020-06-02T07:53:15Z</time>
      </trkpt>
      <trkpt lat="46.16561" lon="-1.28178">
        <ele>4</ele>
        <time>2020-06-02T07:53:16Z</time>
      </trkpt>
      <trkpt lat="46.16556" lon="-1.28178">
        <ele>4</ele>
        <time>2020-06-02T07:53:17Z</time>
      </trkpt>
      <trkpt lat="46.16552" lon="-1.28178">
        <ele>4</ele>
        <time>2020-06-02T07:53:18Z</time>
      </trkpt>
      <trkpt lat="46.16547" lon="-1.28179">
        <ele>4</ele>
        <time>2020-06-02T07:53:19Z</time>
      </trkpt>
      <trkpt lat="46.16543" lon="-1.28179">
        <ele>4</ele>
        <time>2020-06-02T07:53:20Z</time>
      </trkpt>
      <trkpt lat="46.16538" lon="-1.28178">
        <ele>4</ele>
        <time>2020-06-02T07:53:21Z</time>
      </trkpt>
      <trkpt lat="46.16534" lon="-1.28179">
        <ele>4.1</ele>
        <time>2020-06-02T07:53:22Z</time>
      </trkpt>
      <trkpt lat="46.16529" lon="-1.28179">
        <ele>4.1</ele>
        <time>2020-06-02T07:53:23Z</time>
      </trkpt>
      <trkpt lat="46.16524" lon="-1.28179">
        <ele>4.1</ele>
        <time>2020-06-02T07:53:24Z</time>
      </trkpt>
      <trkpt lat="46.16519" lon="-1.28179">
        <ele>4.1</ele>
        <time>2020-06-02T07:53:25Z</time>
      </trkpt>
      <trkpt lat="46.16514" lon="-1.28179">
        <ele>4.1</ele>
        <time>2020-06-02T07:53:26Z</time>
      </trkpt>
      <trkpt lat="46.16509" lon="-1.28179">
        <ele>4.1</ele>
        <time>2020-06-02T07:53:27Z</time>
      </trkpt>
      <trkpt lat="46.16505" lon="-1.28179">
        <ele>4.1</ele>
        <time>2020-06-02T07:53:28Z</time>
      </trkpt>
      <trkpt lat="46.165" lon="-1.28178">
        <ele>4.1</ele>
        <time>2020-06-02T07:53:29Z</time>
      </trkpt>
      <trkpt lat="46.16496" lon="-1.28177">
        <ele>4</ele>
        <time>2020-06-02T07:53:30Z</time>
      </trkpt>
      <trkpt lat="46.16491" lon="-1.28176">
        <ele>4</ele>
        <time>2020-06-02T07:53:31Z</time>
      </trkpt>
      <trkpt lat="46.16487" lon="-1.28176">
        <ele>4</ele>
        <time>2020-06-02T07:53:32Z</time>
      </trkpt>
      <trkpt lat="46.16482" lon="-1.28176">
        <ele>4</ele>
        <time>2020-06-02T07:53:33Z</time>
      </trkpt>
      <trkpt lat="46.16479" lon="-1.28176">
        <ele>4</ele>
        <time>2020-06-02T07:53:34Z</time>
      </trkpt>
      <trkpt lat="46.16475" lon="-1.28175">
        <ele>3.9</ele>
        <time>2020-06-02T07:53:35Z</time>
      </trkpt>
      <trkpt lat="46.16472" lon="-1.28173">
        <ele>3.9</ele>
        <time>2020-06-02T07:53:36Z</time>
      </trkpt>
      <trkpt lat="46.16469" lon="-1.28171">
        <ele>3.9</ele>
        <time>2020-06-02T07:53:37Z</time>
      </trkpt>
      <trkpt lat="46.16465" lon="-1.2817">
        <ele>3.9</ele>
        <time>2020-06-02T07:53:38Z</time>
      </trkpt>
      <trkpt lat="46.16463" lon="-1.28166">
        <ele>3.9</ele>
        <time>2020-06-02T07:53:39Z</time>
      </trkpt>
      <trkpt lat="46.16462" lon="-1.28161">
        <ele>3.9</ele>
        <time>2020-06-02T07:53:40Z</time>
      </trkpt>
      <trkpt lat="46.1646" lon="-1.28156">
        <ele>3.8</ele>
        <time>2020-06-02T07:53:41Z</time>
      </trkpt>
      <trkpt lat="46.16458" lon="-1.28152">
        <ele>3.8</ele>
        <time>2020-06-02T07:53:42Z</time>
      </trkpt>
      <trkpt lat="46.16455" lon="-1.28147">
        <ele>3.8</ele>
        <time>2020-06-02T07:53:43Z</time>
      </trkpt>
      <trkpt lat="46.16452" lon="-1.28143">
        <ele>3.8</ele>
        <time>2020-06-02T07:53:44Z</time>
      </trkpt>
      <trkpt lat="46.16449" lon="-1.28139">
        <ele>3.8</ele>
        <time>2020-06-02T07:53:45Z</time>
      </trkpt>
      <trkpt lat="46.16446" lon="-1.28136">
        <ele>3.8</ele>
        <time>2020-06-02T07:53:46Z</time>
      </trkpt>
      <trkpt lat="46.16444" lon="-1.28133">
        <ele>3.8</ele>
        <time>2020-06-02T07:53:47Z</time>
      </trkpt>
      <trkpt lat="46.16441" lon="-1.2813">
        <ele>3.8</ele>
        <time>2020-06-02T07:53:48Z</time>
      </trkpt>
      <trkpt lat="46.16438" lon="-1.28127">
        <ele>3.8</ele>
        <time>2020-06-02T07:53:49Z</time>
      </trkpt>
      <trkpt lat="46.16436" lon="-1.28124">
        <ele>3.8</ele>
        <time>2020-06-02T07:53:50Z</time>
      </trkpt>
      <trkpt lat="46.16433" lon="-1.28121">
        <ele>3.8</ele>
        <time>2020-06-02T07:53:51Z</time>
      </trkpt>
      <trkpt lat="46.16431" lon="-1.28118">
        <ele>3.8</ele>
        <time>2020-06-02T07:53:52Z</time>
      </trkpt>
      <trkpt lat="46.16429" lon="-1.28116">
        <ele>3.8</ele>
        <time>2020-06-02T07:53:53Z</time>
      </trkpt>
      <trkpt lat="46.16427" lon="-1.28112">
        <ele>3.8</ele>
        <time>2020-06-02T07:53:54Z</time>
      </trkpt>
      <trkpt lat="46.16425" lon="-1.2811">
        <ele>3.8</ele>
        <time>2020-06-02T07:53:55Z</time>
      </trkpt>
      <trkpt lat="46.16422" lon="-1.28107">
        <ele>3.8</ele>
        <time>2020-06-02T07:53:56Z</time>
      </trkpt>
      <trkpt lat="46.16419" lon="-1.28105">
        <ele>3.8</ele>
        <time>2020-06-02T07:53:57Z</time>
      </trkpt>
      <trkpt lat="46.16417" lon="-1.28102">
        <ele>3.8</ele>
        <time>2020-06-02T07:53:58Z</time>
      </trkpt>
      <trkpt lat="46.16414" lon="-1.281">
        <ele>3.8</ele>
        <time>2020-06-02T07:53:59Z</time>
      </trkpt>
      <trkpt lat="46.16411" lon="-1.28097">
        <ele>3.8</ele>
        <time>2020-06-02T07:54:00Z</time>
      </trkpt>
      <trkpt lat="46.16409" lon="-1.28094">
        <ele>3.8</ele>
        <time>2020-06-02T07:54:01Z</time>
      </trkpt>
      <trkpt lat="46.16406" lon="-1.28091">
        <ele>3.8</ele>
        <time>2020-06-02T07:54:02Z</time>
      </trkpt>
      <trkpt lat="46.16403" lon="-1.28088">
        <ele>3.8</ele>
        <time>2020-06-02T07:54:03Z</time>
      </trkpt>
      <trkpt lat="46.164" lon="-1.28084">
        <ele>3.8</ele>
        <time>2020-06-02T07:54:04Z</time>
      </trkpt>
      <trkpt lat="46.16397" lon="-1.2808">
        <ele>3.8</ele>
        <time>2020-06-02T07:54:05Z</time>
      </trkpt>
      <trkpt lat="46.16394" lon="-1.28076">
        <ele>3.8</ele>
        <time>2020-06-02T07:54:06Z</time>
      </trkpt>
      <trkpt lat="46.16393" lon="-1.2807">
        <ele>3.8</ele>
        <time>2020-06-02T07:54:07Z</time>
      </trkpt>
      <trkpt lat="46.1639" lon="-1.28066">
        <ele>3.8</ele>
        <time>2020-06-02T07:54:08Z</time>
      </trkpt>
      <trkpt lat="46.16387" lon="-1.28062">
        <ele>3.8</ele>
        <time>2020-06-02T07:54:09Z</time>
      </trkpt>
      <trkpt lat="46.16385" lon="-1.28057">
        <ele>3.8</ele>
        <time>2020-06-02T07:54:10Z</time>
      </trkpt>
      <trkpt lat="46.16381" lon="-1.28053">
        <ele>3.8</ele>
        <time>2020-06-02T07:54:11Z</time>
      </trkpt>
      <trkpt lat="46.16379" lon="-1.28049">
        <ele>3.8</ele>
        <time>2020-06-02T07:54:12Z</time>
      </trkpt>
      <trkpt lat="46.16376" lon="-1.28044">
        <ele>3.8</ele>
        <time>2020-06-02T07:54:13Z</time>
      </trkpt>
      <trkpt lat="46.16375" lon="-1.28039">
        <ele>3.8</ele>
        <time>2020-06-02T07:54:14Z</time>
      </trkpt>
      <trkpt lat="46.16372" lon="-1.28033">
        <ele>3.8</ele>
        <time>2020-06-02T07:54:15Z</time>
      </trkpt>
      <trkpt lat="46.16369" lon="-1.28027">
        <ele>3.9</ele>
        <time>2020-06-02T07:54:16Z</time>
      </trkpt>
      <trkpt lat="46.16366" lon="-1.28023">
        <ele>3.9</ele>
        <time>2020-06-02T07:54:17Z</time>
      </trkpt>
      <trkpt lat="46.16363" lon="-1.28018">
        <ele>3.9</ele>
        <time>2020-06-02T07:54:18Z</time>
      </trkpt>
      <trkpt lat="46.1636" lon="-1.28012">
        <ele>3.9</ele>
        <time>2020-06-02T07:54:19Z</time>
      </trkpt>
      <trkpt lat="46.16357" lon="-1.28008">
        <ele>3.9</ele>
        <time>2020-06-02T07:54:20Z</time>
      </trkpt>
      <trkpt lat="46.16354" lon="-1.28004">
        <ele>3.9</ele>
        <time>2020-06-02T07:54:21Z</time>
      </trkpt>
      <trkpt lat="46.16351" lon="-1.27999">
        <ele>3.9</ele>
        <time>2020-06-02T07:54:22Z</time>
      </trkpt>
      <trkpt lat="46.16349" lon="-1.27994">
        <ele>3.9</ele>
        <time>2020-06-02T07:54:23Z</time>
      </trkpt>
      <trkpt lat="46.16346" lon="-1.27989">
        <ele>3.9</ele>
        <time>2020-06-02T07:54:24Z</time>
      </trkpt>
      <trkpt lat="46.16343" lon="-1.27982">
        <ele>3.9</ele>
        <time>2020-06-02T07:54:25Z</time>
      </trkpt>
      <trkpt lat="46.1634" lon="-1.27976">
        <ele>3.9</ele>
        <time>2020-06-02T07:54:26Z</time>
      </trkpt>
      <trkpt lat="46.16337" lon="-1.27971">
        <ele>3.9</ele>
        <time>2020-06-02T07:54:27Z</time>
      </trkpt>
      <trkpt lat="46.16333" lon="-1.27965">
        <ele>3.9</ele>
        <time>2020-06-02T07:54:28Z</time>
      </trkpt>
      <trkpt lat="46.1633" lon="-1.2796">
        <ele>3.9</ele>
        <time>2020-06-02T07:54:29Z</time>
      </trkpt>
      <trkpt lat="46.16328" lon="-1.27956">
        <ele>3.9</ele>
        <time>2020-06-02T07:54:30Z</time>
      </trkpt>
      <trkpt lat="46.16326" lon="-1.27953">
        <ele>3.9</ele>
        <time>2020-06-02T07:54:31Z</time>
      </trkpt>
      <trkpt lat="46.16324" lon="-1.27948">
        <ele>3.9</ele>
        <time>2020-06-02T07:54:32Z</time>
      </trkpt>
      <trkpt lat="46.16321" lon="-1.27944">
        <ele>3.9</ele>
        <time>2020-06-02T07:54:33Z</time>
      </trkpt>
      <trkpt lat="46.1632" lon="-1.27943">
        <ele>3.8</ele>
        <time>2020-06-02T07:54:34Z</time>
      </trkpt>
      <trkpt lat="46.16318" lon="-1.27939">
        <ele>3.8</ele>
        <time>2020-06-02T07:54:35Z</time>
      </trkpt>
      <trkpt lat="46.16316" lon="-1.27936">
        <ele>3.8</ele>
        <time>2020-06-02T07:54:36Z</time>
      </trkpt>
      <trkpt lat="46.16314" lon="-1.27932">
        <ele>3.8</ele>
        <time>2020-06-02T07:54:37Z</time>
      </trkpt>
      <trkpt lat="46.16311" lon="-1.27928">
        <ele>3.8</ele>
        <time>2020-06-02T07:54:38Z</time>
      </trkpt>
      <trkpt lat="46.16309" lon="-1.27924">
        <ele>3.8</ele>
        <time>2020-06-02T07:54:39Z</time>
      </trkpt>
      <trkpt lat="46.16307" lon="-1.2792">
        <ele>3.8</ele>
        <time>2020-06-02T07:54:40Z</time>
      </trkpt>
      <trkpt lat="46.16304" lon="-1.27916">
        <ele>3.8</ele>
        <time>2020-06-02T07:54:41Z</time>
      </trkpt>
      <trkpt lat="46.16302" lon="-1.27911">
        <ele>3.8</ele>
        <time>2020-06-02T07:54:42Z</time>
      </trkpt>
      <trkpt lat="46.16301" lon="-1.27909">
        <ele>3.8</ele>
        <time>2020-06-02T07:54:43Z</time>
      </trkpt>
      <trkpt lat="46.16299" lon="-1.27904">
        <ele>3.8</ele>
        <time>2020-06-02T07:54:44Z</time>
      </trkpt>
      <trkpt lat="46.16298" lon="-1.27898">
        <ele>3.8</ele>
        <time>2020-06-02T07:54:45Z</time>
      </trkpt>
      <trkpt lat="46.16297" lon="-1.27892">
        <ele>3.8</ele>
        <time>2020-06-02T07:54:46Z</time>
      </trkpt>
      <trkpt lat="46.16296" lon="-1.27885">
        <ele>3.8</ele>
        <time>2020-06-02T07:54:47Z</time>
      </trkpt>
      <trkpt lat="46.16294" lon="-1.2788">
        <ele>3.8</ele>
        <time>2020-06-02T07:54:48Z</time>
      </trkpt>
      <trkpt lat="46.16293" lon="-1.27875">
        <ele>3.8</ele>
        <time>2020-06-02T07:54:49Z</time>
      </trkpt>
      <trkpt lat="46.16293" lon="-1.27871">
        <ele>3.8</ele>
        <time>2020-06-02T07:54:50Z</time>
      </trkpt>
      <trkpt lat="46.16291" lon="-1.27864">
        <ele>3.8</ele>
        <time>2020-06-02T07:54:51Z</time>
      </trkpt>
      <trkpt lat="46.1629" lon="-1.27862">
        <ele>3.8</ele>
        <time>2020-06-02T07:54:52Z</time>
      </trkpt>
      <trkpt lat="46.16285" lon="-1.27854">
        <ele>3.8</ele>
        <time>2020-06-02T07:54:53Z</time>
      </trkpt>
      <trkpt lat="46.16281" lon="-1.27849">
        <ele>3.7</ele>
        <time>2020-06-02T07:54:54Z</time>
      </trkpt>
      <trkpt lat="46.16278" lon="-1.27845">
        <ele>3.7</ele>
        <time>2020-06-02T07:54:55Z</time>
      </trkpt>
      <trkpt lat="46.16273" lon="-1.27839">
        <ele>3.7</ele>
        <time>2020-06-02T07:54:56Z</time>
      </trkpt>
      <trkpt lat="46.16269" lon="-1.27835">
        <ele>3.7</ele>
        <time>2020-06-02T07:54:57Z</time>
      </trkpt>
      <trkpt lat="46.16266" lon="-1.2783">
        <ele>3.6</ele>
        <time>2020-06-02T07:54:58Z</time>
      </trkpt>
      <trkpt lat="46.16263" lon="-1.27826">
        <ele>3.6</ele>
        <time>2020-06-02T07:54:59Z</time>
      </trkpt>
      <trkpt lat="46.1626" lon="-1.27823">
        <ele>3.6</ele>
        <time>2020-06-02T07:55:00Z</time>
      </trkpt>
      <trkpt lat="46.16258" lon="-1.27818">
        <ele>3.6</ele>
        <time>2020-06-02T07:55:01Z</time>
      </trkpt>
      <trkpt lat="46.16254" lon="-1.27814">
        <ele>3.5</ele>
        <time>2020-06-02T07:55:02Z</time>
      </trkpt>
      <trkpt lat="46.1625" lon="-1.27808">
        <ele>3.5</ele>
        <time>2020-06-02T07:55:03Z</time>
      </trkpt>
      <trkpt lat="46.16246" lon="-1.27805">
        <ele>3.5</ele>
        <time>2020-06-02T07:55:04Z</time>
      </trkpt>
      <trkpt lat="46.16242" lon="-1.27801">
        <ele>3.4</ele>
        <time>2020-06-02T07:55:05Z</time>
      </trkpt>
      <trkpt lat="46.16239" lon="-1.27797">
        <ele>3.4</ele>
        <time>2020-06-02T07:55:06Z</time>
      </trkpt>
      <trkpt lat="46.16236" lon="-1.27792">
        <ele>3.4</ele>
        <time>2020-06-02T07:55:07Z</time>
      </trkpt>
      <trkpt lat="46.16233" lon="-1.27788">
        <ele>3.4</ele>
        <time>2020-06-02T07:55:08Z</time>
      </trkpt>
      <trkpt lat="46.1623" lon="-1.27784">
        <ele>3.4</ele>
        <time>2020-06-02T07:55:09Z</time>
      </trkpt>
      <trkpt lat="46.16225" lon="-1.27777">
        <ele>3.4</ele>
        <time>2020-06-02T07:55:10Z</time>
      </trkpt>
      <trkpt lat="46.16222" lon="-1.27772">
        <ele>3.4</ele>
        <time>2020-06-02T07:55:11Z</time>
      </trkpt>
      <trkpt lat="46.16218" lon="-1.27767">
        <ele>3.5</ele>
        <time>2020-06-02T07:55:12Z</time>
      </trkpt>
      <trkpt lat="46.16214" lon="-1.27762">
        <ele>3.5</ele>
        <time>2020-06-02T07:55:13Z</time>
      </trkpt>
      <trkpt lat="46.16211" lon="-1.27757">
        <ele>3.5</ele>
        <time>2020-06-02T07:55:14Z</time>
      </trkpt>
      <trkpt lat="46.16207" lon="-1.27753">
        <ele>3.6</ele>
        <time>2020-06-02T07:55:15Z</time>
      </trkpt>
      <trkpt lat="46.16204" lon="-1.27749">
        <ele>3.6</ele>
        <time>2020-06-02T07:55:16Z</time>
      </trkpt>
      <trkpt lat="46.16199" lon="-1.27745">
        <ele>3.7</ele>
        <time>2020-06-02T07:55:17Z</time>
      </trkpt>
      <trkpt lat="46.16196" lon="-1.2774">
        <ele>3.7</ele>
        <time>2020-06-02T07:55:18Z</time>
      </trkpt>
      <trkpt lat="46.16192" lon="-1.27734">
        <ele>3.8</ele>
        <time>2020-06-02T07:55:19Z</time>
      </trkpt>
      <trkpt lat="46.16188" lon="-1.2773">
        <ele>3.8</ele>
        <time>2020-06-02T07:55:20Z</time>
      </trkpt>
      <trkpt lat="46.16184" lon="-1.27726">
        <ele>3.9</ele>
        <time>2020-06-02T07:55:21Z</time>
      </trkpt>
      <trkpt lat="46.1618" lon="-1.27723">
        <ele>3.9</ele>
        <time>2020-06-02T07:55:22Z</time>
      </trkpt>
      <trkpt lat="46.16176" lon="-1.27719">
        <ele>4</ele>
        <time>2020-06-02T07:55:23Z</time>
      </trkpt>
      <trkpt lat="46.16171" lon="-1.27717">
        <ele>4</ele>
        <time>2020-06-02T07:55:24Z</time>
      </trkpt>
      <trkpt lat="46.16168" lon="-1.27713">
        <ele>4</ele>
        <time>2020-06-02T07:55:25Z</time>
      </trkpt>
      <trkpt lat="46.16165" lon="-1.2771">
        <ele>4.1</ele>
        <time>2020-06-02T07:55:26Z</time>
      </trkpt>
      <trkpt lat="46.16162" lon="-1.27707">
        <ele>4.1</ele>
        <time>2020-06-02T07:55:27Z</time>
      </trkpt>
      <trkpt lat="46.16159" lon="-1.27704">
        <ele>4.1</ele>
        <time>2020-06-02T07:55:28Z</time>
      </trkpt>
      <trkpt lat="46.16155" lon="-1.27701">
        <ele>4.1</ele>
        <time>2020-06-02T07:55:29Z</time>
      </trkpt>
      <trkpt lat="46.16152" lon="-1.27699">
        <ele>4.2</ele>
        <time>2020-06-02T07:55:30Z</time>
      </trkpt>
      <trkpt lat="46.16148" lon="-1.27696">
        <ele>4.2</ele>
        <time>2020-06-02T07:55:31Z</time>
      </trkpt>
      <trkpt lat="46.16144" lon="-1.27693">
        <ele>4.2</ele>
        <time>2020-06-02T07:55:32Z</time>
      </trkpt>
      <trkpt lat="46.16141" lon="-1.27692">
        <ele>4.2</ele>
        <time>2020-06-02T07:55:33Z</time>
      </trkpt>
      <trkpt lat="46.16138" lon="-1.2769">
        <ele>4.2</ele>
        <time>2020-06-02T07:55:34Z</time>
      </trkpt>
      <trkpt lat="46.16135" lon="-1.27691">
        <ele>4.3</ele>
        <time>2020-06-02T07:55:35Z</time>
      </trkpt>
      <trkpt lat="46.16131" lon="-1.2769">
        <ele>4.3</ele>
        <time>2020-06-02T07:55:36Z</time>
      </trkpt>
      <trkpt lat="46.16128" lon="-1.27688">
        <ele>4.2</ele>
        <time>2020-06-02T07:55:37Z</time>
      </trkpt>
      <trkpt lat="46.16125" lon="-1.27687">
        <ele>4.2</ele>
        <time>2020-06-02T07:55:38Z</time>
      </trkpt>
      <trkpt lat="46.16122" lon="-1.27686">
        <ele>4.2</ele>
        <time>2020-06-02T07:55:39Z</time>
      </trkpt>
      <trkpt lat="46.16119" lon="-1.27684">
        <ele>4.2</ele>
        <time>2020-06-02T07:55:40Z</time>
      </trkpt>
      <trkpt lat="46.16117" lon="-1.27683">
        <ele>4.1</ele>
        <time>2020-06-02T07:55:41Z</time>
      </trkpt>
      <trkpt lat="46.16115" lon="-1.27679">
        <ele>4.1</ele>
        <time>2020-06-02T07:55:42Z</time>
      </trkpt>
      <trkpt lat="46.16114" lon="-1.27678">
        <ele>4.1</ele>
        <time>2020-06-02T07:55:43Z</time>
      </trkpt>
      <trkpt lat="46.16112" lon="-1.27674">
        <ele>4.1</ele>
        <time>2020-06-02T07:55:44Z</time>
      </trkpt>
      <trkpt lat="46.1611" lon="-1.27671">
        <ele>4.1</ele>
        <time>2020-06-02T07:55:45Z</time>
      </trkpt>
      <trkpt lat="46.16108" lon="-1.27668">
        <ele>4</ele>
        <time>2020-06-02T07:55:46Z</time>
      </trkpt>
      <trkpt lat="46.16106" lon="-1.27664">
        <ele>4</ele>
        <time>2020-06-02T07:55:47Z</time>
      </trkpt>
      <trkpt lat="46.16104" lon="-1.27659">
        <ele>4</ele>
        <time>2020-06-02T07:55:48Z</time>
      </trkpt>
      <trkpt lat="46.16102" lon="-1.27656">
        <ele>4</ele>
        <time>2020-06-02T07:55:49Z</time>
      </trkpt>
      <trkpt lat="46.161" lon="-1.27652">
        <ele>4</ele>
        <time>2020-06-02T07:55:50Z</time>
      </trkpt>
      <trkpt lat="46.16098" lon="-1.27647">
        <ele>4</ele>
        <time>2020-06-02T07:55:51Z</time>
      </trkpt>
      <trkpt lat="46.16097" lon="-1.27643">
        <ele>3.9</ele>
        <time>2020-06-02T07:55:52Z</time>
      </trkpt>
      <trkpt lat="46.16094" lon="-1.27639">
        <ele>3.9</ele>
        <time>2020-06-02T07:55:53Z</time>
      </trkpt>
      <trkpt lat="46.16092" lon="-1.27634">
        <ele>3.9</ele>
        <time>2020-06-02T07:55:54Z</time>
      </trkpt>
      <trkpt lat="46.1609" lon="-1.2763">
        <ele>3.8</ele>
        <time>2020-06-02T07:55:55Z</time>
      </trkpt>
      <trkpt lat="46.16088" lon="-1.27627">
        <ele>3.8</ele>
        <time>2020-06-02T07:55:56Z</time>
      </trkpt>
      <trkpt lat="46.16086" lon="-1.27623">
        <ele>3.8</ele>
        <time>2020-06-02T07:55:57Z</time>
      </trkpt>
      <trkpt lat="46.16085" lon="-1.27618">
        <ele>3.7</ele>
        <time>2020-06-02T07:55:58Z</time>
      </trkpt>
      <trkpt lat="46.16083" lon="-1.27613">
        <ele>3.7</ele>
        <time>2020-06-02T07:55:59Z</time>
      </trkpt>
      <trkpt lat="46.1608" lon="-1.27608">
        <ele>3.7</ele>
        <time>2020-06-02T07:56:00Z</time>
      </trkpt>
      <trkpt lat="46.16077" lon="-1.27604">
        <ele>3.7</ele>
        <time>2020-06-02T07:56:01Z</time>
      </trkpt>
      <trkpt lat="46.16075" lon="-1.27599">
        <ele>3.7</ele>
        <time>2020-06-02T07:56:02Z</time>
      </trkpt>
      <trkpt lat="46.16074" lon="-1.27593">
        <ele>3.7</ele>
        <time>2020-06-02T07:56:03Z</time>
      </trkpt>
      <trkpt lat="46.16073" lon="-1.27588">
        <ele>3.7</ele>
        <time>2020-06-02T07:56:04Z</time>
      </trkpt>
      <trkpt lat="46.16072" lon="-1.27582">
        <ele>3.6</ele>
        <time>2020-06-02T07:56:05Z</time>
      </trkpt>
      <trkpt lat="46.1607" lon="-1.27577">
        <ele>3.6</ele>
        <time>2020-06-02T07:56:06Z</time>
      </trkpt>
      <trkpt lat="46.16067" lon="-1.27571">
        <ele>3.6</ele>
        <time>2020-06-02T07:56:07Z</time>
      </trkpt>
      <trkpt lat="46.16065" lon="-1.27566">
        <ele>3.6</ele>
        <time>2020-06-02T07:56:08Z</time>
      </trkpt>
      <trkpt lat="46.16062" lon="-1.2756">
        <ele>3.6</ele>
        <time>2020-06-02T07:56:09Z</time>
      </trkpt>
      <trkpt lat="46.1606" lon="-1.27554">
        <ele>3.6</ele>
        <time>2020-06-02T07:56:10Z</time>
      </trkpt>
      <trkpt lat="46.16057" lon="-1.27548">
        <ele>3.6</ele>
        <time>2020-06-02T07:56:11Z</time>
      </trkpt>
      <trkpt lat="46.16055" lon="-1.27543">
        <ele>3.6</ele>
        <time>2020-06-02T07:56:12Z</time>
      </trkpt>
      <trkpt lat="46.16053" lon="-1.27537">
        <ele>3.6</ele>
        <time>2020-06-02T07:56:13Z</time>
      </trkpt>
      <trkpt lat="46.16051" lon="-1.27531">
        <ele>3.6</ele>
        <time>2020-06-02T07:56:14Z</time>
      </trkpt>
      <trkpt lat="46.16049" lon="-1.27525">
        <ele>3.6</ele>
        <time>2020-06-02T07:56:15Z</time>
      </trkpt>
      <trkpt lat="46.16047" lon="-1.2752">
        <ele>3.6</ele>
        <time>2020-06-02T07:56:16Z</time>
      </trkpt>
      <trkpt lat="46.16046" lon="-1.27515">
        <ele>3.6</ele>
        <time>2020-06-02T07:56:17Z</time>
      </trkpt>
      <trkpt lat="46.16044" lon="-1.2751">
        <ele>3.6</ele>
        <time>2020-06-02T07:56:18Z</time>
      </trkpt>
      <trkpt lat="46.16042" lon="-1.27506">
        <ele>3.6</ele>
        <time>2020-06-02T07:56:19Z</time>
      </trkpt>
      <trkpt lat="46.16039" lon="-1.27502">
        <ele>3.6</ele>
        <time>2020-06-02T07:56:20Z</time>
      </trkpt>
      <trkpt lat="46.16038" lon="-1.27501">
        <ele>3.6</ele>
        <time>2020-06-02T07:56:21Z</time>
      </trkpt>
      <trkpt lat="46.16037" lon="-1.275">
        <ele>3.6</ele>
        <time>2020-06-02T07:56:22Z</time>
      </trkpt>
      <trkpt lat="46.16036" lon="-1.275">
        <ele>3.6</ele>
        <time>2020-06-02T07:56:23Z</time>
      </trkpt>
      <trkpt lat="46.16035" lon="-1.27499">
        <ele>3.6</ele>
        <time>2020-06-02T07:56:24Z</time>
      </trkpt>
      <trkpt lat="46.16033" lon="-1.27498">
        <ele>3.6</ele>
        <time>2020-06-02T07:56:25Z</time>
      </trkpt>
      <trkpt lat="46.1603" lon="-1.27496">
        <ele>3.6</ele>
        <time>2020-06-02T07:56:26Z</time>
      </trkpt>
      <trkpt lat="46.16029" lon="-1.27495">
        <ele>3.5</ele>
        <time>2020-06-02T07:56:27Z</time>
      </trkpt>
      <trkpt lat="46.16026" lon="-1.27493">
        <ele>3.5</ele>
        <time>2020-06-02T07:56:28Z</time>
      </trkpt>
      <trkpt lat="46.16023" lon="-1.27492">
        <ele>3.5</ele>
        <time>2020-06-02T07:56:29Z</time>
      </trkpt>
      <trkpt lat="46.16022" lon="-1.27488">
        <ele>3.5</ele>
        <time>2020-06-02T07:56:30Z</time>
      </trkpt>
      <trkpt lat="46.16021" lon="-1.27483">
        <ele>3.5</ele>
        <time>2020-06-02T07:56:31Z</time>
      </trkpt>
      <trkpt lat="46.16021" lon="-1.27478">
        <ele>3.5</ele>
        <time>2020-06-02T07:56:32Z</time>
      </trkpt>
      <trkpt lat="46.16022" lon="-1.27474">
        <ele>3.5</ele>
        <time>2020-06-02T07:56:33Z</time>
      </trkpt>
      <trkpt lat="46.16022" lon="-1.27469">
        <ele>3.6</ele>
        <time>2020-06-02T07:56:34Z</time>
      </trkpt>
      <trkpt lat="46.16022" lon="-1.27464">
        <ele>3.6</ele>
        <time>2020-06-02T07:56:35Z</time>
      </trkpt>
      <trkpt lat="46.16022" lon="-1.27462">
        <ele>3.6</ele>
        <time>2020-06-02T07:56:36Z</time>
      </trkpt>
      <trkpt lat="46.1602" lon="-1.27459">
        <ele>3.6</ele>
        <time>2020-06-02T07:56:37Z</time>
      </trkpt>
      <trkpt lat="46.1602" lon="-1.27458">
        <ele>3.6</ele>
        <time>2020-06-02T07:56:38Z</time>
      </trkpt>
      <trkpt lat="46.16018" lon="-1.27454">
        <ele>3.6</ele>
        <time>2020-06-02T07:56:39Z</time>
      </trkpt>
      <trkpt lat="46.16017" lon="-1.2745">
        <ele>3.6</ele>
        <time>2020-06-02T07:56:40Z</time>
      </trkpt>
      <trkpt lat="46.16016" lon="-1.27449">
        <ele>3.6</ele>
        <time>2020-06-02T07:56:41Z</time>
      </trkpt>
      <trkpt lat="46.16013" lon="-1.27445">
        <ele>3.6</ele>
        <time>2020-06-02T07:56:42Z</time>
      </trkpt>
      <trkpt lat="46.16012" lon="-1.27443">
        <ele>3.6</ele>
        <time>2020-06-02T07:56:43Z</time>
      </trkpt>
      <trkpt lat="46.16011" lon="-1.27439">
        <ele>3.6</ele>
        <time>2020-06-02T07:56:44Z</time>
      </trkpt>
      <trkpt lat="46.16008" lon="-1.27436">
        <ele>3.6</ele>
        <time>2020-06-02T07:56:45Z</time>
      </trkpt>
      <trkpt lat="46.16005" lon="-1.27432">
        <ele>3.6</ele>
        <time>2020-06-02T07:56:46Z</time>
      </trkpt>
      <trkpt lat="46.16003" lon="-1.27427">
        <ele>3.6</ele>
        <time>2020-06-02T07:56:47Z</time>
      </trkpt>
      <trkpt lat="46.16002" lon="-1.27426">
        <ele>3.6</ele>
        <time>2020-06-02T07:56:48Z</time>
      </trkpt>
      <trkpt lat="46.16" lon="-1.27422">
        <ele>3.6</ele>
        <time>2020-06-02T07:56:49Z</time>
      </trkpt>
      <trkpt lat="46.15998" lon="-1.27418">
        <ele>3.6</ele>
        <time>2020-06-02T07:56:50Z</time>
      </trkpt>
      <trkpt lat="46.15997" lon="-1.27414">
        <ele>3.6</ele>
        <time>2020-06-02T07:56:51Z</time>
      </trkpt>
      <trkpt lat="46.15995" lon="-1.2741">
        <ele>3.6</ele>
        <time>2020-06-02T07:56:52Z</time>
      </trkpt>
      <trkpt lat="46.15994" lon="-1.27404">
        <ele>3.6</ele>
        <time>2020-06-02T07:56:53Z</time>
      </trkpt>
      <trkpt lat="46.15993" lon="-1.27398">
        <ele>3.6</ele>
        <time>2020-06-02T07:56:54Z</time>
      </trkpt>
      <trkpt lat="46.15992" lon="-1.27393">
        <ele>3.6</ele>
        <time>2020-06-02T07:56:55Z</time>
      </trkpt>
      <trkpt lat="46.1599" lon="-1.27387">
        <ele>3.6</ele>
        <time>2020-06-02T07:56:56Z</time>
      </trkpt>
      <trkpt lat="46.1599" lon="-1.27381">
        <ele>3.6</ele>
        <time>2020-06-02T07:56:57Z</time>
      </trkpt>
      <trkpt lat="46.15988" lon="-1.27375">
        <ele>3.6</ele>
        <time>2020-06-02T07:56:58Z</time>
      </trkpt>
      <trkpt lat="46.15987" lon="-1.27369">
        <ele>3.6</ele>
        <time>2020-06-02T07:56:59Z</time>
      </trkpt>
      <trkpt lat="46.15986" lon="-1.27363">
        <ele>3.6</ele>
        <time>2020-06-02T07:57:00Z</time>
      </trkpt>
      <trkpt lat="46.15985" lon="-1.27356">
        <ele>3.6</ele>
        <time>2020-06-02T07:57:01Z</time>
      </trkpt>
      <trkpt lat="46.15984" lon="-1.2735">
        <ele>3.6</ele>
        <time>2020-06-02T07:57:02Z</time>
      </trkpt>
      <trkpt lat="46.15983" lon="-1.27344">
        <ele>3.6</ele>
        <time>2020-06-02T07:57:03Z</time>
      </trkpt>
      <trkpt lat="46.15982" lon="-1.27338">
        <ele>3.6</ele>
        <time>2020-06-02T07:57:04Z</time>
      </trkpt>
      <trkpt lat="46.1598" lon="-1.27331">
        <ele>3.7</ele>
        <time>2020-06-02T07:57:05Z</time>
      </trkpt>
      <trkpt lat="46.15979" lon="-1.27324">
        <ele>3.7</ele>
        <time>2020-06-02T07:57:06Z</time>
      </trkpt>
      <trkpt lat="46.15977" lon="-1.27318">
        <ele>3.7</ele>
        <time>2020-06-02T07:57:07Z</time>
      </trkpt>
      <trkpt lat="46.15976" lon="-1.27311">
        <ele>3.7</ele>
        <time>2020-06-02T07:57:08Z</time>
      </trkpt>
      <trkpt lat="46.15974" lon="-1.27304">
        <ele>3.7</ele>
        <time>2020-06-02T07:57:09Z</time>
      </trkpt>
      <trkpt lat="46.15973" lon="-1.27297">
        <ele>3.7</ele>
        <time>2020-06-02T07:57:10Z</time>
      </trkpt>
      <trkpt lat="46.15972" lon="-1.27292">
        <ele>3.7</ele>
        <time>2020-06-02T07:57:11Z</time>
      </trkpt>
      <trkpt lat="46.15971" lon="-1.27285">
        <ele>3.7</ele>
        <time>2020-06-02T07:57:12Z</time>
      </trkpt>
      <trkpt lat="46.15969" lon="-1.27278">
        <ele>3.7</ele>
        <time>2020-06-02T07:57:13Z</time>
      </trkpt>
      <trkpt lat="46.15967" lon="-1.27272">
        <ele>3.8</ele>
        <time>2020-06-02T07:57:14Z</time>
      </trkpt>
      <trkpt lat="46.15966" lon="-1.27264">
        <ele>3.8</ele>
        <time>2020-06-02T07:57:15Z</time>
      </trkpt>
      <trkpt lat="46.15965" lon="-1.27255">
        <ele>3.8</ele>
        <time>2020-06-02T07:57:16Z</time>
      </trkpt>
      <trkpt lat="46.15965" lon="-1.27248">
        <ele>3.8</ele>
        <time>2020-06-02T07:57:17Z</time>
      </trkpt>
      <trkpt lat="46.15965" lon="-1.27241">
        <ele>3.8</ele>
        <time>2020-06-02T07:57:18Z</time>
      </trkpt>
      <trkpt lat="46.15964" lon="-1.27234">
        <ele>3.8</ele>
        <time>2020-06-02T07:57:19Z</time>
      </trkpt>
      <trkpt lat="46.15964" lon="-1.27227">
        <ele>3.8</ele>
        <time>2020-06-02T07:57:20Z</time>
      </trkpt>
      <trkpt lat="46.15964" lon="-1.27219">
        <ele>3.8</ele>
        <time>2020-06-02T07:57:21Z</time>
      </trkpt>
      <trkpt lat="46.15965" lon="-1.27212">
        <ele>3.8</ele>
        <time>2020-06-02T07:57:22Z</time>
      </trkpt>
      <trkpt lat="46.15965" lon="-1.27205">
        <ele>3.8</ele>
        <time>2020-06-02T07:57:23Z</time>
      </trkpt>
      <trkpt lat="46.15966" lon="-1.27197">
        <ele>3.8</ele>
        <time>2020-06-02T07:57:24Z</time>
      </trkpt>
      <trkpt lat="46.15966" lon="-1.27189">
        <ele>3.8</ele>
        <time>2020-06-02T07:57:25Z</time>
      </trkpt>
      <trkpt lat="46.15966" lon="-1.27181">
        <ele>3.8</ele>
        <time>2020-06-02T07:57:26Z</time>
      </trkpt>
      <trkpt lat="46.15965" lon="-1.27173">
        <ele>3.8</ele>
        <time>2020-06-02T07:57:27Z</time>
      </trkpt>
      <trkpt lat="46.15964" lon="-1.27166">
        <ele>3.8</ele>
        <time>2020-06-02T07:57:28Z</time>
      </trkpt>
      <trkpt lat="46.15964" lon="-1.27158">
        <ele>3.8</ele>
        <time>2020-06-02T07:57:29Z</time>
      </trkpt>
      <trkpt lat="46.15963" lon="-1.2715">
        <ele>3.8</ele>
        <time>2020-06-02T07:57:30Z</time>
      </trkpt>
      <trkpt lat="46.15963" lon="-1.27143">
        <ele>3.8</ele>
        <time>2020-06-02T07:57:31Z</time>
      </trkpt>
      <trkpt lat="46.15963" lon="-1.27136">
        <ele>3.8</ele>
        <time>2020-06-02T07:57:32Z</time>
      </trkpt>
      <trkpt lat="46.15963" lon="-1.2713">
        <ele>3.8</ele>
        <time>2020-06-02T07:57:33Z</time>
      </trkpt>
      <trkpt lat="46.15962" lon="-1.27123">
        <ele>3.8</ele>
        <time>2020-06-02T07:57:34Z</time>
      </trkpt>
      <trkpt lat="46.15962" lon="-1.27117">
        <ele>3.8</ele>
        <time>2020-06-02T07:57:35Z</time>
      </trkpt>
      <trkpt lat="46.15962" lon="-1.27111">
        <ele>3.8</ele>
        <time>2020-06-02T07:57:36Z</time>
      </trkpt>
      <trkpt lat="46.15961" lon="-1.27103">
        <ele>3.8</ele>
        <time>2020-06-02T07:57:37Z</time>
      </trkpt>
      <trkpt lat="46.15961" lon="-1.27096">
        <ele>3.8</ele>
        <time>2020-06-02T07:57:38Z</time>
      </trkpt>
      <trkpt lat="46.15961" lon="-1.27089">
        <ele>3.8</ele>
        <time>2020-06-02T07:57:39Z</time>
      </trkpt>
      <trkpt lat="46.15961" lon="-1.27082">
        <ele>3.8</ele>
        <time>2020-06-02T07:57:40Z</time>
      </trkpt>
      <trkpt lat="46.15961" lon="-1.27074">
        <ele>3.8</ele>
        <time>2020-06-02T07:57:41Z</time>
      </trkpt>
      <trkpt lat="46.15961" lon="-1.27067">
        <ele>3.8</ele>
        <time>2020-06-02T07:57:42Z</time>
      </trkpt>
      <trkpt lat="46.1596" lon="-1.27061">
        <ele>3.8</ele>
        <time>2020-06-02T07:57:43Z</time>
      </trkpt>
      <trkpt lat="46.1596" lon="-1.27055">
        <ele>3.8</ele>
        <time>2020-06-02T07:57:44Z</time>
      </trkpt>
      <trkpt lat="46.15961" lon="-1.27049">
        <ele>3.8</ele>
        <time>2020-06-02T07:57:45Z</time>
      </trkpt>
      <trkpt lat="46.15961" lon="-1.27043">
        <ele>3.9</ele>
        <time>2020-06-02T07:57:46Z</time>
      </trkpt>
      <trkpt lat="46.15962" lon="-1.27037">
        <ele>3.9</ele>
        <time>2020-06-02T07:57:47Z</time>
      </trkpt>
      <trkpt lat="46.15962" lon="-1.27031">
        <ele>3.9</ele>
        <time>2020-06-02T07:57:48Z</time>
      </trkpt>
      <trkpt lat="46.15963" lon="-1.27026">
        <ele>3.9</ele>
        <time>2020-06-02T07:57:49Z</time>
      </trkpt>
      <trkpt lat="46.15963" lon="-1.27021">
        <ele>3.9</ele>
        <time>2020-06-02T07:57:50Z</time>
      </trkpt>
      <trkpt lat="46.15963" lon="-1.27016">
        <ele>3.9</ele>
        <time>2020-06-02T07:57:51Z</time>
      </trkpt>
      <trkpt lat="46.15963" lon="-1.27009">
        <ele>3.9</ele>
        <time>2020-06-02T07:57:52Z</time>
      </trkpt>
      <trkpt lat="46.15963" lon="-1.27003">
        <ele>3.9</ele>
        <time>2020-06-02T07:57:53Z</time>
      </trkpt>
      <trkpt lat="46.15964" lon="-1.26995">
        <ele>3.9</ele>
        <time>2020-06-02T07:57:54Z</time>
      </trkpt>
      <trkpt lat="46.15964" lon="-1.26987">
        <ele>3.9</ele>
        <time>2020-06-02T07:57:55Z</time>
      </trkpt>
      <trkpt lat="46.15965" lon="-1.2698">
        <ele>3.9</ele>
        <time>2020-06-02T07:57:56Z</time>
      </trkpt>
      <trkpt lat="46.15966" lon="-1.26973">
        <ele>3.9</ele>
        <time>2020-06-02T07:57:57Z</time>
      </trkpt>
      <trkpt lat="46.15968" lon="-1.26966">
        <ele>3.9</ele>
        <time>2020-06-02T07:57:58Z</time>
      </trkpt>
      <trkpt lat="46.1597" lon="-1.2696">
        <ele>3.9</ele>
        <time>2020-06-02T07:57:59Z</time>
      </trkpt>
      <trkpt lat="46.15971" lon="-1.26952">
        <ele>3.9</ele>
        <time>2020-06-02T07:58:00Z</time>
      </trkpt>
      <trkpt lat="46.15972" lon="-1.26945">
        <ele>3.9</ele>
        <time>2020-06-02T07:58:01Z</time>
      </trkpt>
      <trkpt lat="46.15972" lon="-1.26937">
        <ele>3.9</ele>
        <time>2020-06-02T07:58:02Z</time>
      </trkpt>
      <trkpt lat="46.15972" lon="-1.26929">
        <ele>3.9</ele>
        <time>2020-06-02T07:58:03Z</time>
      </trkpt>
      <trkpt lat="46.15971" lon="-1.2692">
        <ele>3.9</ele>
        <time>2020-06-02T07:58:04Z</time>
      </trkpt>
      <trkpt lat="46.15971" lon="-1.26911">
        <ele>3.9</ele>
        <time>2020-06-02T07:58:05Z</time>
      </trkpt>
      <trkpt lat="46.15972" lon="-1.26903">
        <ele>3.9</ele>
        <time>2020-06-02T07:58:06Z</time>
      </trkpt>
      <trkpt lat="46.15972" lon="-1.26896">
        <ele>3.9</ele>
        <time>2020-06-02T07:58:07Z</time>
      </trkpt>
      <trkpt lat="46.15973" lon="-1.26888">
        <ele>3.9</ele>
        <time>2020-06-02T07:58:08Z</time>
      </trkpt>
      <trkpt lat="46.15974" lon="-1.2688">
        <ele>3.9</ele>
        <time>2020-06-02T07:58:09Z</time>
      </trkpt>
      <trkpt lat="46.15974" lon="-1.26874">
        <ele>3.9</ele>
        <time>2020-06-02T07:58:10Z</time>
      </trkpt>
      <trkpt lat="46.15975" lon="-1.26868">
        <ele>3.9</ele>
        <time>2020-06-02T07:58:11Z</time>
      </trkpt>
      <trkpt lat="46.15975" lon="-1.26861">
        <ele>3.9</ele>
        <time>2020-06-02T07:58:12Z</time>
      </trkpt>
      <trkpt lat="46.15976" lon="-1.26855">
        <ele>3.9</ele>
        <time>2020-06-02T07:58:13Z</time>
      </trkpt>
      <trkpt lat="46.15976" lon="-1.26847">
        <ele>3.9</ele>
        <time>2020-06-02T07:58:14Z</time>
      </trkpt>
      <trkpt lat="46.15977" lon="-1.26839">
        <ele>4</ele>
        <time>2020-06-02T07:58:15Z</time>
      </trkpt>
      <trkpt lat="46.15977" lon="-1.26831">
        <ele>4</ele>
        <time>2020-06-02T07:58:16Z</time>
      </trkpt>
      <trkpt lat="46.15978" lon="-1.26823">
        <ele>4</ele>
        <time>2020-06-02T07:58:17Z</time>
      </trkpt>
      <trkpt lat="46.15979" lon="-1.26815">
        <ele>4</ele>
        <time>2020-06-02T07:58:18Z</time>
      </trkpt>
      <trkpt lat="46.15979" lon="-1.26807">
        <ele>4</ele>
        <time>2020-06-02T07:58:19Z</time>
      </trkpt>
      <trkpt lat="46.1598" lon="-1.26799">
        <ele>4</ele>
        <time>2020-06-02T07:58:20Z</time>
      </trkpt>
      <trkpt lat="46.15981" lon="-1.2679">
        <ele>4</ele>
        <time>2020-06-02T07:58:21Z</time>
      </trkpt>
      <trkpt lat="46.15982" lon="-1.26781">
        <ele>4</ele>
        <time>2020-06-02T07:58:22Z</time>
      </trkpt>
      <trkpt lat="46.15982" lon="-1.26774">
        <ele>4</ele>
        <time>2020-06-02T07:58:23Z</time>
      </trkpt>
      <trkpt lat="46.15983" lon="-1.26766">
        <ele>4</ele>
        <time>2020-06-02T07:58:24Z</time>
      </trkpt>
      <trkpt lat="46.15983" lon="-1.26759">
        <ele>4</ele>
        <time>2020-06-02T07:58:25Z</time>
      </trkpt>
      <trkpt lat="46.15985" lon="-1.26751">
        <ele>4</ele>
        <time>2020-06-02T07:58:26Z</time>
      </trkpt>
      <trkpt lat="46.15987" lon="-1.26744">
        <ele>4</ele>
        <time>2020-06-02T07:58:27Z</time>
      </trkpt>
      <trkpt lat="46.15988" lon="-1.26736">
        <ele>4</ele>
        <time>2020-06-02T07:58:28Z</time>
      </trkpt>
      <trkpt lat="46.15988" lon="-1.26728">
        <ele>4</ele>
        <time>2020-06-02T07:58:29Z</time>
      </trkpt>
      <trkpt lat="46.15989" lon="-1.2672">
        <ele>4</ele>
        <time>2020-06-02T07:58:30Z</time>
      </trkpt>
      <trkpt lat="46.1599" lon="-1.26713">
        <ele>4</ele>
        <time>2020-06-02T07:58:31Z</time>
      </trkpt>
      <trkpt lat="46.15991" lon="-1.26707">
        <ele>4</ele>
        <time>2020-06-02T07:58:32Z</time>
      </trkpt>
      <trkpt lat="46.15992" lon="-1.26699">
        <ele>4</ele>
        <time>2020-06-02T07:58:33Z</time>
      </trkpt>
      <trkpt lat="46.15994" lon="-1.26693">
        <ele>4</ele>
        <time>2020-06-02T07:58:34Z</time>
      </trkpt>
      <trkpt lat="46.15995" lon="-1.26686">
        <ele>4</ele>
        <time>2020-06-02T07:58:35Z</time>
      </trkpt>
      <trkpt lat="46.15995" lon="-1.26677">
        <ele>4</ele>
        <time>2020-06-02T07:58:36Z</time>
      </trkpt>
      <trkpt lat="46.15997" lon="-1.26669">
        <ele>4</ele>
        <time>2020-06-02T07:58:37Z</time>
      </trkpt>
      <trkpt lat="46.15998" lon="-1.2666">
        <ele>4.1</ele>
        <time>2020-06-02T07:58:38Z</time>
      </trkpt>
      <trkpt lat="46.16" lon="-1.26652">
        <ele>4.1</ele>
        <time>2020-06-02T07:58:39Z</time>
      </trkpt>
      <trkpt lat="46.16001" lon="-1.26644">
        <ele>4.1</ele>
        <time>2020-06-02T07:58:40Z</time>
      </trkpt>
      <trkpt lat="46.16002" lon="-1.26636">
        <ele>4.1</ele>
        <time>2020-06-02T07:58:41Z</time>
      </trkpt>
      <trkpt lat="46.16003" lon="-1.26628">
        <ele>4.2</ele>
        <time>2020-06-02T07:58:42Z</time>
      </trkpt>
      <trkpt lat="46.16004" lon="-1.26621">
        <ele>4.2</ele>
        <time>2020-06-02T07:58:43Z</time>
      </trkpt>
      <trkpt lat="46.16003" lon="-1.26614">
        <ele>4.3</ele>
        <time>2020-06-02T07:58:44Z</time>
      </trkpt>
      <trkpt lat="46.16001" lon="-1.26607">
        <ele>4.3</ele>
        <time>2020-06-02T07:58:45Z</time>
      </trkpt>
      <trkpt lat="46.15998" lon="-1.26601">
        <ele>4.4</ele>
        <time>2020-06-02T07:58:46Z</time>
      </trkpt>
      <trkpt lat="46.15996" lon="-1.26596">
        <ele>4.4</ele>
        <time>2020-06-02T07:58:47Z</time>
      </trkpt>
      <trkpt lat="46.15994" lon="-1.26592">
        <ele>4.5</ele>
        <time>2020-06-02T07:58:48Z</time>
      </trkpt>
      <trkpt lat="46.15993" lon="-1.26587">
        <ele>4.5</ele>
        <time>2020-06-02T07:58:49Z</time>
      </trkpt>
      <trkpt lat="46.15992" lon="-1.26581">
        <ele>4.5</ele>
        <time>2020-06-02T07:58:50Z</time>
      </trkpt>
      <trkpt lat="46.15991" lon="-1.26575">
        <ele>4.5</ele>
        <time>2020-06-02T07:58:51Z</time>
      </trkpt>
      <trkpt lat="46.1599" lon="-1.2657">
        <ele>4.5</ele>
        <time>2020-06-02T07:58:52Z</time>
      </trkpt>
      <trkpt lat="46.15989" lon="-1.26565">
        <ele>4.5</ele>
        <time>2020-06-02T07:58:53Z</time>
      </trkpt>
      <trkpt lat="46.15989" lon="-1.26559">
        <ele>4.5</ele>
        <time>2020-06-02T07:58:54Z</time>
      </trkpt>
      <trkpt lat="46.15988" lon="-1.26553">
        <ele>4.5</ele>
        <time>2020-06-02T07:58:55Z</time>
      </trkpt>
      <trkpt lat="46.15988" lon="-1.26546">
        <ele>4.5</ele>
        <time>2020-06-02T07:58:56Z</time>
      </trkpt>
      <trkpt lat="46.15988" lon="-1.2654">
        <ele>4.5</ele>
        <time>2020-06-02T07:58:57Z</time>
      </trkpt>
      <trkpt lat="46.15989" lon="-1.26535">
        <ele>4.5</ele>
        <time>2020-06-02T07:58:58Z</time>
      </trkpt>
      <trkpt lat="46.15989" lon="-1.26529">
        <ele>4.5</ele>
        <time>2020-06-02T07:58:59Z</time>
      </trkpt>
      <trkpt lat="46.15989" lon="-1.26522">
        <ele>4.5</ele>
        <time>2020-06-02T07:59:00Z</time>
      </trkpt>
      <trkpt lat="46.15989" lon="-1.26514">
        <ele>4.5</ele>
        <time>2020-06-02T07:59:01Z</time>
      </trkpt>
      <trkpt lat="46.1599" lon="-1.26507">
        <ele>4.6</ele>
        <time>2020-06-02T07:59:02Z</time>
      </trkpt>
      <trkpt lat="46.15991" lon="-1.265">
        <ele>4.6</ele>
        <time>2020-06-02T07:59:03Z</time>
      </trkpt>
      <trkpt lat="46.15992" lon="-1.26493">
        <ele>4.6</ele>
        <time>2020-06-02T07:59:04Z</time>
      </trkpt>
      <trkpt lat="46.15994" lon="-1.26485">
        <ele>4.6</ele>
        <time>2020-06-02T07:59:05Z</time>
      </trkpt>
      <trkpt lat="46.15999" lon="-1.26477">
        <ele>4.7</ele>
        <time>2020-06-02T07:59:06Z</time>
      </trkpt>
      <trkpt lat="46.16001" lon="-1.2647">
        <ele>4.7</ele>
        <time>2020-06-02T07:59:07Z</time>
      </trkpt>
      <trkpt lat="46.16003" lon="-1.26462">
        <ele>4.8</ele>
        <time>2020-06-02T07:59:08Z</time>
      </trkpt>
      <trkpt lat="46.16005" lon="-1.26455">
        <ele>4.9</ele>
        <time>2020-06-02T07:59:09Z</time>
      </trkpt>
      <trkpt lat="46.16007" lon="-1.26448">
        <ele>4.9</ele>
        <time>2020-06-02T07:59:10Z</time>
      </trkpt>
      <trkpt lat="46.1601" lon="-1.26441">
        <ele>4.9</ele>
        <time>2020-06-02T07:59:11Z</time>
      </trkpt>
      <trkpt lat="46.16012" lon="-1.26433">
        <ele>4.9</ele>
        <time>2020-06-02T07:59:12Z</time>
      </trkpt>
      <trkpt lat="46.16015" lon="-1.26425">
        <ele>5</ele>
        <time>2020-06-02T07:59:13Z</time>
      </trkpt>
      <trkpt lat="46.16018" lon="-1.26417">
        <ele>5</ele>
        <time>2020-06-02T07:59:14Z</time>
      </trkpt>
      <trkpt lat="46.16021" lon="-1.2641">
        <ele>5</ele>
        <time>2020-06-02T07:59:15Z</time>
      </trkpt>
      <trkpt lat="46.16024" lon="-1.26403">
        <ele>5.1</ele>
        <time>2020-06-02T07:59:16Z</time>
      </trkpt>
      <trkpt lat="46.16026" lon="-1.26394">
        <ele>5.2</ele>
        <time>2020-06-02T07:59:17Z</time>
      </trkpt>
      <trkpt lat="46.16028" lon="-1.26385">
        <ele>5.2</ele>
        <time>2020-06-02T07:59:18Z</time>
      </trkpt>
      <trkpt lat="46.16028" lon="-1.26377">
        <ele>5.3</ele>
        <time>2020-06-02T07:59:19Z</time>
      </trkpt>
      <trkpt lat="46.16028" lon="-1.2637">
        <ele>5.3</ele>
        <time>2020-06-02T07:59:20Z</time>
      </trkpt>
      <trkpt lat="46.16028" lon="-1.26363">
        <ele>5.3</ele>
        <time>2020-06-02T07:59:21Z</time>
      </trkpt>
      <trkpt lat="46.16028" lon="-1.26355">
        <ele>5.3</ele>
        <time>2020-06-02T07:59:22Z</time>
      </trkpt>
      <trkpt lat="46.16029" lon="-1.26347">
        <ele>5.4</ele>
        <time>2020-06-02T07:59:23Z</time>
      </trkpt>
      <trkpt lat="46.16032" lon="-1.26342">
        <ele>5.4</ele>
        <time>2020-06-02T07:59:24Z</time>
      </trkpt>
      <trkpt lat="46.16035" lon="-1.26337">
        <ele>5.4</ele>
        <time>2020-06-02T07:59:25Z</time>
      </trkpt>
      <trkpt lat="46.16038" lon="-1.26333">
        <ele>5.4</ele>
        <time>2020-06-02T07:59:26Z</time>
      </trkpt>
      <trkpt lat="46.16041" lon="-1.26329">
        <ele>5.4</ele>
        <time>2020-06-02T07:59:27Z</time>
      </trkpt>
      <trkpt lat="46.16045" lon="-1.26324">
        <ele>5.4</ele>
        <time>2020-06-02T07:59:28Z</time>
      </trkpt>
      <trkpt lat="46.16048" lon="-1.26318">
        <ele>5.4</ele>
        <time>2020-06-02T07:59:29Z</time>
      </trkpt>
      <trkpt lat="46.16051" lon="-1.26312">
        <ele>5.5</ele>
        <time>2020-06-02T07:59:30Z</time>
      </trkpt>
      <trkpt lat="46.16053" lon="-1.26307">
        <ele>5.5</ele>
        <time>2020-06-02T07:59:31Z</time>
      </trkpt>
      <trkpt lat="46.16056" lon="-1.26301">
        <ele>5.5</ele>
        <time>2020-06-02T07:59:32Z</time>
      </trkpt>
      <trkpt lat="46.1606" lon="-1.26295">
        <ele>5.5</ele>
        <time>2020-06-02T07:59:33Z</time>
      </trkpt>
      <trkpt lat="46.16063" lon="-1.2629">
        <ele>5.5</ele>
        <time>2020-06-02T07:59:34Z</time>
      </trkpt>
      <trkpt lat="46.16065" lon="-1.26285">
        <ele>5.5</ele>
        <time>2020-06-02T07:59:35Z</time>
      </trkpt>
      <trkpt lat="46.16068" lon="-1.2628">
        <ele>5.5</ele>
        <time>2020-06-02T07:59:36Z</time>
      </trkpt>
      <trkpt lat="46.16072" lon="-1.26274">
        <ele>5.5</ele>
        <time>2020-06-02T07:59:37Z</time>
      </trkpt>
      <trkpt lat="46.16075" lon="-1.26267">
        <ele>5.5</ele>
        <time>2020-06-02T07:59:38Z</time>
      </trkpt>
      <trkpt lat="46.16078" lon="-1.2626">
        <ele>5.5</ele>
        <time>2020-06-02T07:59:39Z</time>
      </trkpt>
      <trkpt lat="46.16082" lon="-1.26254">
        <ele>5.5</ele>
        <time>2020-06-02T07:59:40Z</time>
      </trkpt>
      <trkpt lat="46.16085" lon="-1.26247">
        <ele>5.5</ele>
        <time>2020-06-02T07:59:41Z</time>
      </trkpt>
      <trkpt lat="46.16087" lon="-1.26239">
        <ele>5.5</ele>
        <time>2020-06-02T07:59:42Z</time>
      </trkpt>
      <trkpt lat="46.1609" lon="-1.26232">
        <ele>5.5</ele>
        <time>2020-06-02T07:59:43Z</time>
      </trkpt>
      <trkpt lat="46.16092" lon="-1.26224">
        <ele>5.5</ele>
        <time>2020-06-02T07:59:44Z</time>
      </trkpt>
      <trkpt lat="46.16094" lon="-1.26217">
        <ele>5.5</ele>
        <time>2020-06-02T07:59:45Z</time>
      </trkpt>
      <trkpt lat="46.16096" lon="-1.26211">
        <ele>5.5</ele>
        <time>2020-06-02T07:59:46Z</time>
      </trkpt>
      <trkpt lat="46.16098" lon="-1.26205">
        <ele>5.5</ele>
        <time>2020-06-02T07:59:47Z</time>
      </trkpt>
      <trkpt lat="46.161" lon="-1.26199">
        <ele>5.5</ele>
        <time>2020-06-02T07:59:48Z</time>
      </trkpt>
      <trkpt lat="46.16102" lon="-1.26193">
        <ele>5.4</ele>
        <time>2020-06-02T07:59:49Z</time>
      </trkpt>
      <trkpt lat="46.16104" lon="-1.26187">
        <ele>5.4</ele>
        <time>2020-06-02T07:59:50Z</time>
      </trkpt>
      <trkpt lat="46.16107" lon="-1.2618">
        <ele>5.4</ele>
        <time>2020-06-02T07:59:51Z</time>
      </trkpt>
      <trkpt lat="46.16109" lon="-1.26176">
        <ele>5.3</ele>
        <time>2020-06-02T07:59:52Z</time>
      </trkpt>
      <trkpt lat="46.16112" lon="-1.2617">
        <ele>5.3</ele>
        <time>2020-06-02T07:59:53Z</time>
      </trkpt>
      <trkpt lat="46.16113" lon="-1.26164">
        <ele>5.3</ele>
        <time>2020-06-02T07:59:54Z</time>
      </trkpt>
      <trkpt lat="46.16115" lon="-1.26158">
        <ele>5.2</ele>
        <time>2020-06-02T07:59:55Z</time>
      </trkpt>
      <trkpt lat="46.16118" lon="-1.26151">
        <ele>5.2</ele>
        <time>2020-06-02T07:59:56Z</time>
      </trkpt>
      <trkpt lat="46.16121" lon="-1.26145">
        <ele>5.1</ele>
        <time>2020-06-02T07:59:57Z</time>
      </trkpt>
      <trkpt lat="46.16123" lon="-1.26139">
        <ele>5.1</ele>
        <time>2020-06-02T07:59:58Z</time>
      </trkpt>
      <trkpt lat="46.16126" lon="-1.26133">
        <ele>5</ele>
        <time>2020-06-02T07:59:59Z</time>
      </trkpt>
      <trkpt lat="46.16131" lon="-1.26128">
        <ele>5</ele>
        <time>2020-06-02T08:00:00Z</time>
      </trkpt>
      <trkpt lat="46.16134" lon="-1.26124">
        <ele>5</ele>
        <time>2020-06-02T08:00:01Z</time>
      </trkpt>
      <trkpt lat="46.16137" lon="-1.26118">
        <ele>5</ele>
        <time>2020-06-02T08:00:02Z</time>
      </trkpt>
      <trkpt lat="46.1614" lon="-1.26112">
        <ele>4.9</ele>
        <time>2020-06-02T08:00:03Z</time>
      </trkpt>
      <trkpt lat="46.16142" lon="-1.26105">
        <ele>4.9</ele>
        <time>2020-06-02T08:00:04Z</time>
      </trkpt>
      <trkpt lat="46.16143" lon="-1.261">
        <ele>4.9</ele>
        <time>2020-06-02T08:00:05Z</time>
      </trkpt>
      <trkpt lat="46.16145" lon="-1.26097">
        <ele>4.9</ele>
        <time>2020-06-02T08:00:06Z</time>
      </trkpt>
      <trkpt lat="46.16149" lon="-1.26093">
        <ele>4.8</ele>
        <time>2020-06-02T08:00:07Z</time>
      </trkpt>
      <trkpt lat="46.16152" lon="-1.26088">
        <ele>4.8</ele>
        <time>2020-06-02T08:00:08Z</time>
      </trkpt>
      <trkpt lat="46.16155" lon="-1.26084">
        <ele>4.7</ele>
        <time>2020-06-02T08:00:09Z</time>
      </trkpt>
      <trkpt lat="46.16158" lon="-1.2608">
        <ele>4.7</ele>
        <time>2020-06-02T08:00:10Z</time>
      </trkpt>
      <trkpt lat="46.16162" lon="-1.26074">
        <ele>4.7</ele>
        <time>2020-06-02T08:00:11Z</time>
      </trkpt>
      <trkpt lat="46.16166" lon="-1.2607">
        <ele>4.6</ele>
        <time>2020-06-02T08:00:12Z</time>
      </trkpt>
      <trkpt lat="46.1617" lon="-1.26065">
        <ele>4.6</ele>
        <time>2020-06-02T08:00:13Z</time>
      </trkpt>
      <trkpt lat="46.16174" lon="-1.26061">
        <ele>4.6</ele>
        <time>2020-06-02T08:00:14Z</time>
      </trkpt>
      <trkpt lat="46.16178" lon="-1.26056">
        <ele>4.6</ele>
        <time>2020-06-02T08:00:15Z</time>
      </trkpt>
      <trkpt lat="46.16182" lon="-1.26051">
        <ele>4.6</ele>
        <time>2020-06-02T08:00:16Z</time>
      </trkpt>
      <trkpt lat="46.16187" lon="-1.26045">
        <ele>4.6</ele>
        <time>2020-06-02T08:00:17Z</time>
      </trkpt>
      <trkpt lat="46.16191" lon="-1.2604">
        <ele>4.6</ele>
        <time>2020-06-02T08:00:18Z</time>
      </trkpt>
      <trkpt lat="46.16196" lon="-1.26035">
        <ele>4.6</ele>
        <time>2020-06-02T08:00:19Z</time>
      </trkpt>
      <trkpt lat="46.162" lon="-1.26029">
        <ele>4.6</ele>
        <time>2020-06-02T08:00:20Z</time>
      </trkpt>
      <trkpt lat="46.16204" lon="-1.26023">
        <ele>4.6</ele>
        <time>2020-06-02T08:00:21Z</time>
      </trkpt>
      <trkpt lat="46.16208" lon="-1.26016">
        <ele>4.6</ele>
        <time>2020-06-02T08:00:22Z</time>
      </trkpt>
      <trkpt lat="46.16211" lon="-1.2601">
        <ele>4.6</ele>
        <time>2020-06-02T08:00:23Z</time>
      </trkpt>
      <trkpt lat="46.16213" lon="-1.26003">
        <ele>4.6</ele>
        <time>2020-06-02T08:00:24Z</time>
      </trkpt>
      <trkpt lat="46.16216" lon="-1.25996">
        <ele>4.6</ele>
        <time>2020-06-02T08:00:25Z</time>
      </trkpt>
      <trkpt lat="46.16218" lon="-1.2599">
        <ele>4.6</ele>
        <time>2020-06-02T08:00:26Z</time>
      </trkpt>
      <trkpt lat="46.16221" lon="-1.25982">
        <ele>4.6</ele>
        <time>2020-06-02T08:00:27Z</time>
      </trkpt>
      <trkpt lat="46.16224" lon="-1.25975">
        <ele>4.6</ele>
        <time>2020-06-02T08:00:28Z</time>
      </trkpt>
      <trkpt lat="46.16226" lon="-1.25967">
        <ele>4.6</ele>
        <time>2020-06-02T08:00:29Z</time>
      </trkpt>
      <trkpt lat="46.16228" lon="-1.2596">
        <ele>4.6</ele>
        <time>2020-06-02T08:00:30Z</time>
      </trkpt>
      <trkpt lat="46.16231" lon="-1.25953">
        <ele>4.6</ele>
        <time>2020-06-02T08:00:31Z</time>
      </trkpt>
      <trkpt lat="46.16233" lon="-1.25947">
        <ele>4.6</ele>
        <time>2020-06-02T08:00:32Z</time>
      </trkpt>
      <trkpt lat="46.16236" lon="-1.25941">
        <ele>4.6</ele>
        <time>2020-06-02T08:00:33Z</time>
      </trkpt>
      <trkpt lat="46.16239" lon="-1.25934">
        <ele>4.6</ele>
        <time>2020-06-02T08:00:34Z</time>
      </trkpt>
      <trkpt lat="46.16241" lon="-1.25926">
        <ele>4.6</ele>
        <time>2020-06-02T08:00:35Z</time>
      </trkpt>
      <trkpt lat="46.16243" lon="-1.25919">
        <ele>4.7</ele>
        <time>2020-06-02T08:00:36Z</time>
      </trkpt>
      <trkpt lat="46.16246" lon="-1.25914">
        <ele>4.7</ele>
        <time>2020-06-02T08:00:37Z</time>
      </trkpt>
      <trkpt lat="46.16248" lon="-1.25908">
        <ele>4.8</ele>
        <time>2020-06-02T08:00:38Z</time>
      </trkpt>
      <trkpt lat="46.1625" lon="-1.25902">
        <ele>4.8</ele>
        <time>2020-06-02T08:00:39Z</time>
      </trkpt>
      <trkpt lat="46.16252" lon="-1.25896">
        <ele>4.9</ele>
        <time>2020-06-02T08:00:40Z</time>
      </trkpt>
      <trkpt lat="46.16255" lon="-1.25889">
        <ele>4.9</ele>
        <time>2020-06-02T08:00:41Z</time>
      </trkpt>
      <trkpt lat="46.16257" lon="-1.25883">
        <ele>5</ele>
        <time>2020-06-02T08:00:42Z</time>
      </trkpt>
      <trkpt lat="46.16259" lon="-1.25878">
        <ele>5</ele>
        <time>2020-06-02T08:00:43Z</time>
      </trkpt>
      <trkpt lat="46.16261" lon="-1.25873">
        <ele>5.1</ele>
        <time>2020-06-02T08:00:44Z</time>
      </trkpt>
      <trkpt lat="46.16263" lon="-1.2587">
        <ele>5.1</ele>
        <time>2020-06-02T08:00:45Z</time>
      </trkpt>
      <trkpt lat="46.16266" lon="-1.25866">
        <ele>5.1</ele>
        <time>2020-06-02T08:00:46Z</time>
      </trkpt>
      <trkpt lat="46.16269" lon="-1.25861">
        <ele>5.2</ele>
        <time>2020-06-02T08:00:47Z</time>
      </trkpt>
      <trkpt lat="46.16272" lon="-1.25856">
        <ele>5.2</ele>
        <time>2020-06-02T08:00:48Z</time>
      </trkpt>
      <trkpt lat="46.16275" lon="-1.2585">
        <ele>5.3</ele>
        <time>2020-06-02T08:00:49Z</time>
      </trkpt>
      <trkpt lat="46.16279" lon="-1.25844">
        <ele>5.4</ele>
        <time>2020-06-02T08:00:50Z</time>
      </trkpt>
      <trkpt lat="46.16283" lon="-1.25837">
        <ele>5.4</ele>
        <time>2020-06-02T08:00:51Z</time>
      </trkpt>
      <trkpt lat="46.16286" lon="-1.25831">
        <ele>5.4</ele>
        <time>2020-06-02T08:00:52Z</time>
      </trkpt>
      <trkpt lat="46.16289" lon="-1.25825">
        <ele>5.4</ele>
        <time>2020-06-02T08:00:53Z</time>
      </trkpt>
      <trkpt lat="46.16291" lon="-1.25821">
        <ele>5.4</ele>
        <time>2020-06-02T08:00:54Z</time>
      </trkpt>
      <trkpt lat="46.16294" lon="-1.25814">
        <ele>5.4</ele>
        <time>2020-06-02T08:00:55Z</time>
      </trkpt>
      <trkpt lat="46.16296" lon="-1.25804">
        <ele>5.5</ele>
        <time>2020-06-02T08:00:56Z</time>
      </trkpt>
      <trkpt lat="46.163" lon="-1.25796">
        <ele>5.6</ele>
        <time>2020-06-02T08:00:57Z</time>
      </trkpt>
      <trkpt lat="46.16303" lon="-1.25789">
        <ele>5.7</ele>
        <time>2020-06-02T08:00:58Z</time>
      </trkpt>
      <trkpt lat="46.16306" lon="-1.25782">
        <ele>5.8</ele>
        <time>2020-06-02T08:00:59Z</time>
      </trkpt>
      <trkpt lat="46.16308" lon="-1.25774">
        <ele>6</ele>
        <time>2020-06-02T08:01:00Z</time>
      </trkpt>
      <trkpt lat="46.1631" lon="-1.25767">
        <ele>6.1</ele>
        <time>2020-06-02T08:01:01Z</time>
      </trkpt>
      <trkpt lat="46.16312" lon="-1.2576">
        <ele>6.3</ele>
        <time>2020-06-02T08:01:02Z</time>
      </trkpt>
      <trkpt lat="46.16315" lon="-1.25754">
        <ele>6.4</ele>
        <time>2020-06-02T08:01:03Z</time>
      </trkpt>
      <trkpt lat="46.16316" lon="-1.25746">
        <ele>6.5</ele>
        <time>2020-06-02T08:01:04Z</time>
      </trkpt>
      <trkpt lat="46.16318" lon="-1.2574">
        <ele>6.6</ele>
        <time>2020-06-02T08:01:05Z</time>
      </trkpt>
      <trkpt lat="46.16319" lon="-1.25734">
        <ele>6.7</ele>
        <time>2020-06-02T08:01:06Z</time>
      </trkpt>
      <trkpt lat="46.16321" lon="-1.25728">
        <ele>6.8</ele>
        <time>2020-06-02T08:01:07Z</time>
      </trkpt>
      <trkpt lat="46.16323" lon="-1.25721">
        <ele>6.9</ele>
        <time>2020-06-02T08:01:08Z</time>
      </trkpt>
      <trkpt lat="46.16325" lon="-1.25715">
        <ele>7</ele>
        <time>2020-06-02T08:01:09Z</time>
      </trkpt>
      <trkpt lat="46.16328" lon="-1.25709">
        <ele>7.1</ele>
        <time>2020-06-02T08:01:10Z</time>
      </trkpt>
      <trkpt lat="46.1633" lon="-1.25705">
        <ele>7.2</ele>
        <time>2020-06-02T08:01:11Z</time>
      </trkpt>
      <trkpt lat="46.16332" lon="-1.257">
        <ele>7.3</ele>
        <time>2020-06-02T08:01:12Z</time>
      </trkpt>
      <trkpt lat="46.16336" lon="-1.25696">
        <ele>7.4</ele>
        <time>2020-06-02T08:01:13Z</time>
      </trkpt>
      <trkpt lat="46.1634" lon="-1.25692">
        <ele>7.5</ele>
        <time>2020-06-02T08:01:14Z</time>
      </trkpt>
      <trkpt lat="46.16343" lon="-1.25686">
        <ele>7.6</ele>
        <time>2020-06-02T08:01:15Z</time>
      </trkpt>
      <trkpt lat="46.16347" lon="-1.25681">
        <ele>7.8</ele>
        <time>2020-06-02T08:01:16Z</time>
      </trkpt>
      <trkpt lat="46.1635" lon="-1.25677">
        <ele>7.9</ele>
        <time>2020-06-02T08:01:17Z</time>
      </trkpt>
      <trkpt lat="46.16353" lon="-1.25673">
        <ele>8</ele>
        <time>2020-06-02T08:01:18Z</time>
      </trkpt>
      <trkpt lat="46.16357" lon="-1.25667">
        <ele>8.1</ele>
        <time>2020-06-02T08:01:19Z</time>
      </trkpt>
      <trkpt lat="46.16361" lon="-1.25663">
        <ele>8.3</ele>
        <time>2020-06-02T08:01:20Z</time>
      </trkpt>
      <trkpt lat="46.16364" lon="-1.25659">
        <ele>8.4</ele>
        <time>2020-06-02T08:01:21Z</time>
      </trkpt>
      <trkpt lat="46.16368" lon="-1.25655">
        <ele>8.5</ele>
        <time>2020-06-02T08:01:22Z</time>
      </trkpt>
      <trkpt lat="46.16372" lon="-1.25651">
        <ele>8.7</ele>
        <time>2020-06-02T08:01:23Z</time>
      </trkpt>
      <trkpt lat="46.16375" lon="-1.25647">
        <ele>8.8</ele>
        <time>2020-06-02T08:01:24Z</time>
      </trkpt>
      <trkpt lat="46.16378" lon="-1.25642">
        <ele>8.9</ele>
        <time>2020-06-02T08:01:25Z</time>
      </trkpt>
      <trkpt lat="46.16382" lon="-1.25638">
        <ele>9.1</ele>
        <time>2020-06-02T08:01:26Z</time>
      </trkpt>
      <trkpt lat="46.16385" lon="-1.25633">
        <ele>9.2</ele>
        <time>2020-06-02T08:01:27Z</time>
      </trkpt>
      <trkpt lat="46.16388" lon="-1.25627">
        <ele>9.3</ele>
        <time>2020-06-02T08:01:28Z</time>
      </trkpt>
      <trkpt lat="46.16391" lon="-1.25622">
        <ele>9.4</ele>
        <time>2020-06-02T08:01:29Z</time>
      </trkpt>
      <trkpt lat="46.16395" lon="-1.25616">
        <ele>9.4</ele>
        <time>2020-06-02T08:01:30Z</time>
      </trkpt>
      <trkpt lat="46.16399" lon="-1.25611">
        <ele>9.4</ele>
        <time>2020-06-02T08:01:31Z</time>
      </trkpt>
      <trkpt lat="46.16402" lon="-1.25606">
        <ele>9.5</ele>
        <time>2020-06-02T08:01:32Z</time>
      </trkpt>
      <trkpt lat="46.16406" lon="-1.25601">
        <ele>9.6</ele>
        <time>2020-06-02T08:01:33Z</time>
      </trkpt>
      <trkpt lat="46.16409" lon="-1.25596">
        <ele>9.7</ele>
        <time>2020-06-02T08:01:34Z</time>
      </trkpt>
      <trkpt lat="46.16412" lon="-1.2559">
        <ele>9.8</ele>
        <time>2020-06-02T08:01:35Z</time>
      </trkpt>
      <trkpt lat="46.16415" lon="-1.25585">
        <ele>9.9</ele>
        <time>2020-06-02T08:01:36Z</time>
      </trkpt>
      <trkpt lat="46.16418" lon="-1.2558">
        <ele>10</ele>
        <time>2020-06-02T08:01:37Z</time>
      </trkpt>
      <trkpt lat="46.16421" lon="-1.25575">
        <ele>10.2</ele>
        <time>2020-06-02T08:01:38Z</time>
      </trkpt>
      <trkpt lat="46.16425" lon="-1.25571">
        <ele>10.3</ele>
        <time>2020-06-02T08:01:39Z</time>
      </trkpt>
      <trkpt lat="46.16426" lon="-1.25566">
        <ele>10.4</ele>
        <time>2020-06-02T08:01:40Z</time>
      </trkpt>
      <trkpt lat="46.16429" lon="-1.25561">
        <ele>10.5</ele>
        <time>2020-06-02T08:01:41Z</time>
      </trkpt>
      <trkpt lat="46.16433" lon="-1.25556">
        <ele>10.7</ele>
        <time>2020-06-02T08:01:42Z</time>
      </trkpt>
      <trkpt lat="46.16437" lon="-1.2555">
        <ele>10.9</ele>
        <time>2020-06-02T08:01:43Z</time>
      </trkpt>
      <trkpt lat="46.1644" lon="-1.25545">
        <ele>11.1</ele>
        <time>2020-06-02T08:01:44Z</time>
      </trkpt>
      <trkpt lat="46.16444" lon="-1.2554">
        <ele>11.3</ele>
        <time>2020-06-02T08:01:45Z</time>
      </trkpt>
      <trkpt lat="46.16447" lon="-1.25535">
        <ele>11.5</ele>
        <time>2020-06-02T08:01:46Z</time>
      </trkpt>
      <trkpt lat="46.16451" lon="-1.25529">
        <ele>11.7</ele>
        <time>2020-06-02T08:01:47Z</time>
      </trkpt>
      <trkpt lat="46.16454" lon="-1.25523">
        <ele>11.9</ele>
        <time>2020-06-02T08:01:48Z</time>
      </trkpt>
      <trkpt lat="46.16457" lon="-1.25518">
        <ele>12</ele>
        <time>2020-06-02T08:01:49Z</time>
      </trkpt>
      <trkpt lat="46.16461" lon="-1.25513">
        <ele>12.2</ele>
        <time>2020-06-02T08:01:50Z</time>
      </trkpt>
      <trkpt lat="46.16465" lon="-1.25508">
        <ele>12.4</ele>
        <time>2020-06-02T08:01:51Z</time>
      </trkpt>
      <trkpt lat="46.16468" lon="-1.25502">
        <ele>12.6</ele>
        <time>2020-06-02T08:01:52Z</time>
      </trkpt>
      <trkpt lat="46.16471" lon="-1.25498">
        <ele>12.7</ele>
        <time>2020-06-02T08:01:53Z</time>
      </trkpt>
      <trkpt lat="46.16474" lon="-1.25493">
        <ele>12.9</ele>
        <time>2020-06-02T08:01:54Z</time>
      </trkpt>
      <trkpt lat="46.16478" lon="-1.25488">
        <ele>13</ele>
        <time>2020-06-02T08:01:55Z</time>
      </trkpt>
      <trkpt lat="46.16481" lon="-1.25483">
        <ele>13.2</ele>
        <time>2020-06-02T08:01:56Z</time>
      </trkpt>
      <trkpt lat="46.16485" lon="-1.25478">
        <ele>13.4</ele>
        <time>2020-06-02T08:01:57Z</time>
      </trkpt>
      <trkpt lat="46.16488" lon="-1.25472">
        <ele>13.6</ele>
        <time>2020-06-02T08:01:58Z</time>
      </trkpt>
      <trkpt lat="46.16491" lon="-1.25467">
        <ele>13.8</ele>
        <time>2020-06-02T08:01:59Z</time>
      </trkpt>
      <trkpt lat="46.16495" lon="-1.25461">
        <ele>14</ele>
        <time>2020-06-02T08:02:00Z</time>
      </trkpt>
      <trkpt lat="46.16498" lon="-1.25456">
        <ele>14.1</ele>
        <time>2020-06-02T08:02:01Z</time>
      </trkpt>
      <trkpt lat="46.16501" lon="-1.25451">
        <ele>14.4</ele>
        <time>2020-06-02T08:02:02Z</time>
      </trkpt>
      <trkpt lat="46.16505" lon="-1.25446">
        <ele>14.6</ele>
        <time>2020-06-02T08:02:03Z</time>
      </trkpt>
      <trkpt lat="46.16508" lon="-1.25441">
        <ele>14.8</ele>
        <time>2020-06-02T08:02:04Z</time>
      </trkpt>
      <trkpt lat="46.16511" lon="-1.25435">
        <ele>15</ele>
        <time>2020-06-02T08:02:05Z</time>
      </trkpt>
      <trkpt lat="46.16514" lon="-1.25429">
        <ele>15.3</ele>
        <time>2020-06-02T08:02:06Z</time>
      </trkpt>
      <trkpt lat="46.16517" lon="-1.25423">
        <ele>15.5</ele>
        <time>2020-06-02T08:02:07Z</time>
      </trkpt>
      <trkpt lat="46.1652" lon="-1.25419">
        <ele>15.7</ele>
        <time>2020-06-02T08:02:08Z</time>
      </trkpt>
      <trkpt lat="46.16523" lon="-1.25413">
        <ele>16</ele>
        <time>2020-06-02T08:02:09Z</time>
      </trkpt>
      <trkpt lat="46.16526" lon="-1.25408">
        <ele>16.2</ele>
        <time>2020-06-02T08:02:10Z</time>
      </trkpt>
      <trkpt lat="46.1653" lon="-1.25402">
        <ele>16.5</ele>
        <time>2020-06-02T08:02:11Z</time>
      </trkpt>
      <trkpt lat="46.16534" lon="-1.25396">
        <ele>16.7</ele>
        <time>2020-06-02T08:02:12Z</time>
      </trkpt>
      <trkpt lat="46.16537" lon="-1.2539">
        <ele>17</ele>
        <time>2020-06-02T08:02:13Z</time>
      </trkpt>
      <trkpt lat="46.16541" lon="-1.25384">
        <ele>17.2</ele>
        <time>2020-06-02T08:02:14Z</time>
      </trkpt>
      <trkpt lat="46.16544" lon="-1.25379">
        <ele>17.5</ele>
        <time>2020-06-02T08:02:15Z</time>
      </trkpt>
      <trkpt lat="46.16546" lon="-1.25374">
        <ele>17.7</ele>
        <time>2020-06-02T08:02:16Z</time>
      </trkpt>
      <trkpt lat="46.16549" lon="-1.25369">
        <ele>17.9</ele>
        <time>2020-06-02T08:02:17Z</time>
      </trkpt>
      <trkpt lat="46.16552" lon="-1.25365">
        <ele>18.1</ele>
        <time>2020-06-02T08:02:18Z</time>
      </trkpt>
      <trkpt lat="46.16555" lon="-1.2536">
        <ele>18.3</ele>
        <time>2020-06-02T08:02:19Z</time>
      </trkpt>
      <trkpt lat="46.16558" lon="-1.25354">
        <ele>18.6</ele>
        <time>2020-06-02T08:02:20Z</time>
      </trkpt>
      <trkpt lat="46.16562" lon="-1.25349">
        <ele>18.8</ele>
        <time>2020-06-02T08:02:21Z</time>
      </trkpt>
      <trkpt lat="46.16565" lon="-1.25343">
        <ele>19.1</ele>
        <time>2020-06-02T08:02:22Z</time>
      </trkpt>
      <trkpt lat="46.16569" lon="-1.25338">
        <ele>19.4</ele>
        <time>2020-06-02T08:02:23Z</time>
      </trkpt>
      <trkpt lat="46.16573" lon="-1.25331">
        <ele>19.6</ele>
        <time>2020-06-02T08:02:24Z</time>
      </trkpt>
      <trkpt lat="46.16577" lon="-1.25324">
        <ele>19.9</ele>
        <time>2020-06-02T08:02:25Z</time>
      </trkpt>
      <trkpt lat="46.1658" lon="-1.25317">
        <ele>20.2</ele>
        <time>2020-06-02T08:02:26Z</time>
      </trkpt>
      <trkpt lat="46.16584" lon="-1.25311">
        <ele>20.5</ele>
        <time>2020-06-02T08:02:27Z</time>
      </trkpt>
      <trkpt lat="46.16588" lon="-1.25305">
        <ele>20.7</ele>
        <time>2020-06-02T08:02:28Z</time>
      </trkpt>
      <trkpt lat="46.16592" lon="-1.25299">
        <ele>20.9</ele>
        <time>2020-06-02T08:02:29Z</time>
      </trkpt>
      <trkpt lat="46.16595" lon="-1.25292">
        <ele>21.2</ele>
        <time>2020-06-02T08:02:30Z</time>
      </trkpt>
      <trkpt lat="46.16599" lon="-1.25286">
        <ele>21.4</ele>
        <time>2020-06-02T08:02:31Z</time>
      </trkpt>
      <trkpt lat="46.16603" lon="-1.2528">
        <ele>21.7</ele>
        <time>2020-06-02T08:02:32Z</time>
      </trkpt>
      <trkpt lat="46.16607" lon="-1.25274">
        <ele>21.9</ele>
        <time>2020-06-02T08:02:33Z</time>
      </trkpt>
      <trkpt lat="46.16611" lon="-1.25267">
        <ele>22.1</ele>
        <time>2020-06-02T08:02:34Z</time>
      </trkpt>
      <trkpt lat="46.16615" lon="-1.25262">
        <ele>22.4</ele>
        <time>2020-06-02T08:02:35Z</time>
      </trkpt>
      <trkpt lat="46.16618" lon="-1.25256">
        <ele>22.6</ele>
        <time>2020-06-02T08:02:36Z</time>
      </trkpt>
      <trkpt lat="46.16622" lon="-1.25249">
        <ele>22.9</ele>
        <time>2020-06-02T08:02:37Z</time>
      </trkpt>
      <trkpt lat="46.16625" lon="-1.25243">
        <ele>23.1</ele>
        <time>2020-06-02T08:02:38Z</time>
      </trkpt>
      <trkpt lat="46.16629" lon="-1.25235">
        <ele>23.4</ele>
        <time>2020-06-02T08:02:39Z</time>
      </trkpt>
      <trkpt lat="46.16633" lon="-1.25229">
        <ele>23.6</ele>
        <time>2020-06-02T08:02:40Z</time>
      </trkpt>
      <trkpt lat="46.16636" lon="-1.25222">
        <ele>23.9</ele>
        <time>2020-06-02T08:02:41Z</time>
      </trkpt>
      <trkpt lat="46.1664" lon="-1.25214">
        <ele>24.2</ele>
        <time>2020-06-02T08:02:42Z</time>
      </trkpt>
      <trkpt lat="46.16645" lon="-1.25207">
        <ele>24.5</ele>
        <time>2020-06-02T08:02:43Z</time>
      </trkpt>
      <trkpt lat="46.16648" lon="-1.252">
        <ele>24.7</ele>
        <time>2020-06-02T08:02:44Z</time>
      </trkpt>
      <trkpt lat="46.16652" lon="-1.25192">
        <ele>25</ele>
        <time>2020-06-02T08:02:45Z</time>
      </trkpt>
      <trkpt lat="46.16656" lon="-1.25185">
        <ele>25.3</ele>
        <time>2020-06-02T08:02:46Z</time>
      </trkpt>
      <trkpt lat="46.16661" lon="-1.25177">
        <ele>25.6</ele>
        <time>2020-06-02T08:02:47Z</time>
      </trkpt>
      <trkpt lat="46.16664" lon="-1.2517">
        <ele>25.9</ele>
        <time>2020-06-02T08:02:48Z</time>
      </trkpt>
      <trkpt lat="46.16668" lon="-1.25163">
        <ele>26.2</ele>
        <time>2020-06-02T08:02:49Z</time>
      </trkpt>
      <trkpt lat="46.16671" lon="-1.25158">
        <ele>26.4</ele>
        <time>2020-06-02T08:02:50Z</time>
      </trkpt>
      <trkpt lat="46.16675" lon="-1.25151">
        <ele>26.7</ele>
        <time>2020-06-02T08:02:51Z</time>
      </trkpt>
      <trkpt lat="46.16679" lon="-1.25144">
        <ele>26.9</ele>
        <time>2020-06-02T08:02:52Z</time>
      </trkpt>
      <trkpt lat="46.16682" lon="-1.25136">
        <ele>27.1</ele>
        <time>2020-06-02T08:02:53Z</time>
      </trkpt>
      <trkpt lat="46.16685" lon="-1.2513">
        <ele>27.4</ele>
        <time>2020-06-02T08:02:54Z</time>
      </trkpt>
      <trkpt lat="46.16689" lon="-1.25123">
        <ele>27.6</ele>
        <time>2020-06-02T08:02:55Z</time>
      </trkpt>
      <trkpt lat="46.16693" lon="-1.25115">
        <ele>27.9</ele>
        <time>2020-06-02T08:02:56Z</time>
      </trkpt>
      <trkpt lat="46.16697" lon="-1.25108">
        <ele>28.2</ele>
        <time>2020-06-02T08:02:57Z</time>
      </trkpt>
      <trkpt lat="46.16701" lon="-1.25101">
        <ele>28.4</ele>
        <time>2020-06-02T08:02:58Z</time>
      </trkpt>
      <trkpt lat="46.16704" lon="-1.25095">
        <ele>28.6</ele>
        <time>2020-06-02T08:02:59Z</time>
      </trkpt>
      <trkpt lat="46.16708" lon="-1.25088">
        <ele>28.9</ele>
        <time>2020-06-02T08:03:00Z</time>
      </trkpt>
      <trkpt lat="46.16711" lon="-1.25081">
        <ele>29.1</ele>
        <time>2020-06-02T08:03:01Z</time>
      </trkpt>
      <trkpt lat="46.16715" lon="-1.25074">
        <ele>29.3</ele>
        <time>2020-06-02T08:03:02Z</time>
      </trkpt>
      <trkpt lat="46.16718" lon="-1.25067">
        <ele>29.5</ele>
        <time>2020-06-02T08:03:03Z</time>
      </trkpt>
      <trkpt lat="46.16721" lon="-1.25061">
        <ele>29.7</ele>
        <time>2020-06-02T08:03:04Z</time>
      </trkpt>
      <trkpt lat="46.16724" lon="-1.25053">
        <ele>30</ele>
        <time>2020-06-02T08:03:05Z</time>
      </trkpt>
      <trkpt lat="46.16727" lon="-1.25048">
        <ele>30.2</ele>
        <time>2020-06-02T08:03:06Z</time>
      </trkpt>
      <trkpt lat="46.16731" lon="-1.25042">
        <ele>30.4</ele>
        <time>2020-06-02T08:03:07Z</time>
      </trkpt>
      <trkpt lat="46.16735" lon="-1.25036">
        <ele>30.6</ele>
        <time>2020-06-02T08:03:08Z</time>
      </trkpt>
      <trkpt lat="46.16739" lon="-1.25028">
        <ele>30.8</ele>
        <time>2020-06-02T08:03:09Z</time>
      </trkpt>
      <trkpt lat="46.16743" lon="-1.25021">
        <ele>31</ele>
        <time>2020-06-02T08:03:10Z</time>
      </trkpt>
      <trkpt lat="46.16746" lon="-1.25013">
        <ele>31.3</ele>
        <time>2020-06-02T08:03:11Z</time>
      </trkpt>
      <trkpt lat="46.1675" lon="-1.25006">
        <ele>31.5</ele>
        <time>2020-06-02T08:03:12Z</time>
      </trkpt>
      <trkpt lat="46.16753" lon="-1.25">
        <ele>31.6</ele>
        <time>2020-06-02T08:03:13Z</time>
      </trkpt>
      <trkpt lat="46.16756" lon="-1.24993">
        <ele>31.8</ele>
        <time>2020-06-02T08:03:14Z</time>
      </trkpt>
      <trkpt lat="46.16759" lon="-1.24987">
        <ele>32</ele>
        <time>2020-06-02T08:03:15Z</time>
      </trkpt>
      <trkpt lat="46.16763" lon="-1.2498">
        <ele>32.2</ele>
        <time>2020-06-02T08:03:16Z</time>
      </trkpt>
      <trkpt lat="46.16767" lon="-1.24974">
        <ele>32.5</ele>
        <time>2020-06-02T08:03:17Z</time>
      </trkpt>
      <trkpt lat="46.16771" lon="-1.24967">
        <ele>32.7</ele>
        <time>2020-06-02T08:03:18Z</time>
      </trkpt>
      <trkpt lat="46.16774" lon="-1.2496">
        <ele>32.9</ele>
        <time>2020-06-02T08:03:19Z</time>
      </trkpt>
      <trkpt lat="46.16777" lon="-1.24953">
        <ele>33.1</ele>
        <time>2020-06-02T08:03:20Z</time>
      </trkpt>
      <trkpt lat="46.16781" lon="-1.24946">
        <ele>33.4</ele>
        <time>2020-06-02T08:03:21Z</time>
      </trkpt>
      <trkpt lat="46.16784" lon="-1.2494">
        <ele>33.6</ele>
        <time>2020-06-02T08:03:22Z</time>
      </trkpt>
      <trkpt lat="46.16789" lon="-1.24932">
        <ele>33.8</ele>
        <time>2020-06-02T08:03:23Z</time>
      </trkpt>
      <trkpt lat="46.16792" lon="-1.24925">
        <ele>34</ele>
        <time>2020-06-02T08:03:24Z</time>
      </trkpt>
      <trkpt lat="46.16795" lon="-1.24918">
        <ele>34.2</ele>
        <time>2020-06-02T08:03:25Z</time>
      </trkpt>
      <trkpt lat="46.16799" lon="-1.24911">
        <ele>34.3</ele>
        <time>2020-06-02T08:03:26Z</time>
      </trkpt>
      <trkpt lat="46.16802" lon="-1.24904">
        <ele>34.5</ele>
        <time>2020-06-02T08:03:27Z</time>
      </trkpt>
      <trkpt lat="46.16805" lon="-1.24897">
        <ele>34.7</ele>
        <time>2020-06-02T08:03:28Z</time>
      </trkpt>
      <trkpt lat="46.16808" lon="-1.2489">
        <ele>34.9</ele>
        <time>2020-06-02T08:03:29Z</time>
      </trkpt>
      <trkpt lat="46.16812" lon="-1.24883">
        <ele>35.1</ele>
        <time>2020-06-02T08:03:30Z</time>
      </trkpt>
      <trkpt lat="46.16815" lon="-1.24875">
        <ele>35.2</ele>
        <time>2020-06-02T08:03:31Z</time>
      </trkpt>
      <trkpt lat="46.16818" lon="-1.24868">
        <ele>35.4</ele>
        <time>2020-06-02T08:03:32Z</time>
      </trkpt>
      <trkpt lat="46.16822" lon="-1.24861">
        <ele>35.6</ele>
        <time>2020-06-02T08:03:33Z</time>
      </trkpt>
      <trkpt lat="46.16827" lon="-1.24853">
        <ele>35.7</ele>
        <time>2020-06-02T08:03:34Z</time>
      </trkpt>
      <trkpt lat="46.16829" lon="-1.24845">
        <ele>35.9</ele>
        <time>2020-06-02T08:03:35Z</time>
      </trkpt>
      <trkpt lat="46.16833" lon="-1.24836">
        <ele>36</ele>
        <time>2020-06-02T08:03:36Z</time>
      </trkpt>
      <trkpt lat="46.16836" lon="-1.24829">
        <ele>36.2</ele>
        <time>2020-06-02T08:03:37Z</time>
      </trkpt>
      <trkpt lat="46.16841" lon="-1.24822">
        <ele>36.3</ele>
        <time>2020-06-02T08:03:38Z</time>
      </trkpt>
      <trkpt lat="46.16844" lon="-1.24816">
        <ele>36.4</ele>
        <time>2020-06-02T08:03:39Z</time>
      </trkpt>
      <trkpt lat="46.16847" lon="-1.2481">
        <ele>36.6</ele>
        <time>2020-06-02T08:03:40Z</time>
      </trkpt>
      <trkpt lat="46.1685" lon="-1.24803">
        <ele>36.7</ele>
        <time>2020-06-02T08:03:41Z</time>
      </trkpt>
      <trkpt lat="46.16853" lon="-1.24797">
        <ele>36.9</ele>
        <time>2020-06-02T08:03:42Z</time>
      </trkpt>
      <trkpt lat="46.16856" lon="-1.24791">
        <ele>37</ele>
        <time>2020-06-02T08:03:43Z</time>
      </trkpt>
      <trkpt lat="46.16859" lon="-1.24784">
        <ele>37.2</ele>
        <time>2020-06-02T08:03:44Z</time>
      </trkpt>
      <trkpt lat="46.16861" lon="-1.24779">
        <ele>37.3</ele>
        <time>2020-06-02T08:03:45Z</time>
      </trkpt>
      <trkpt lat="46.16864" lon="-1.24773">
        <ele>37.4</ele>
        <time>2020-06-02T08:03:46Z</time>
      </trkpt>
      <trkpt lat="46.16867" lon="-1.24766">
        <ele>37.5</ele>
        <time>2020-06-02T08:03:47Z</time>
      </trkpt>
      <trkpt lat="46.1687" lon="-1.2476">
        <ele>37.7</ele>
        <time>2020-06-02T08:03:48Z</time>
      </trkpt>
      <trkpt lat="46.16872" lon="-1.24754">
        <ele>37.8</ele>
        <time>2020-06-02T08:03:49Z</time>
      </trkpt>
      <trkpt lat="46.16875" lon="-1.24749">
        <ele>37.9</ele>
        <time>2020-06-02T08:03:50Z</time>
      </trkpt>
      <trkpt lat="46.16878" lon="-1.24745">
        <ele>38</ele>
        <time>2020-06-02T08:03:51Z</time>
      </trkpt>
      <trkpt lat="46.16881" lon="-1.2474">
        <ele>38.1</ele>
        <time>2020-06-02T08:03:52Z</time>
      </trkpt>
      <trkpt lat="46.16883" lon="-1.24734">
        <ele>38.2</ele>
        <time>2020-06-02T08:03:53Z</time>
      </trkpt>
      <trkpt lat="46.16887" lon="-1.24726">
        <ele>38.3</ele>
        <time>2020-06-02T08:03:54Z</time>
      </trkpt>
      <trkpt lat="46.16889" lon="-1.24719">
        <ele>38.4</ele>
        <time>2020-06-02T08:03:55Z</time>
      </trkpt>
      <trkpt lat="46.16892" lon="-1.24713">
        <ele>38.5</ele>
        <time>2020-06-02T08:03:56Z</time>
      </trkpt>
      <trkpt lat="46.16895" lon="-1.24707">
        <ele>38.5</ele>
        <time>2020-06-02T08:03:57Z</time>
      </trkpt>
      <trkpt lat="46.16897" lon="-1.24702">
        <ele>38.6</ele>
        <time>2020-06-02T08:03:58Z</time>
      </trkpt>
      <trkpt lat="46.169" lon="-1.24698">
        <ele>38.6</ele>
        <time>2020-06-02T08:03:59Z</time>
      </trkpt>
      <trkpt lat="46.16903" lon="-1.24691">
        <ele>38.7</ele>
        <time>2020-06-02T08:04:00Z</time>
      </trkpt>
      <trkpt lat="46.16906" lon="-1.24686">
        <ele>38.8</ele>
        <time>2020-06-02T08:04:01Z</time>
      </trkpt>
      <trkpt lat="46.16908" lon="-1.2468">
        <ele>38.9</ele>
        <time>2020-06-02T08:04:02Z</time>
      </trkpt>
      <trkpt lat="46.16911" lon="-1.24672">
        <ele>39</ele>
        <time>2020-06-02T08:04:03Z</time>
      </trkpt>
      <trkpt lat="46.16913" lon="-1.24665">
        <ele>39.1</ele>
        <time>2020-06-02T08:04:04Z</time>
      </trkpt>
      <trkpt lat="46.16915" lon="-1.24661">
        <ele>39.2</ele>
        <time>2020-06-02T08:04:05Z</time>
      </trkpt>
      <trkpt lat="46.16918" lon="-1.24655">
        <ele>39.3</ele>
        <time>2020-06-02T08:04:06Z</time>
      </trkpt>
      <trkpt lat="46.16921" lon="-1.24649">
        <ele>39.4</ele>
        <time>2020-06-02T08:04:07Z</time>
      </trkpt>
      <trkpt lat="46.16923" lon="-1.24645">
        <ele>39.5</ele>
        <time>2020-06-02T08:04:08Z</time>
      </trkpt>
      <trkpt lat="46.16926" lon="-1.24639">
        <ele>39.6</ele>
        <time>2020-06-02T08:04:09Z</time>
      </trkpt>
      <trkpt lat="46.16929" lon="-1.24634">
        <ele>39.6</ele>
        <time>2020-06-02T08:04:10Z</time>
      </trkpt>
      <trkpt lat="46.16931" lon="-1.24629">
        <ele>39.7</ele>
        <time>2020-06-02T08:04:11Z</time>
      </trkpt>
      <trkpt lat="46.16935" lon="-1.24621">
        <ele>39.7</ele>
        <time>2020-06-02T08:04:12Z</time>
      </trkpt>
      <trkpt lat="46.16936" lon="-1.24614">
        <ele>39.8</ele>
        <time>2020-06-02T08:04:13Z</time>
      </trkpt>
      <trkpt lat="46.16939" lon="-1.24608">
        <ele>39.8</ele>
        <time>2020-06-02T08:04:14Z</time>
      </trkpt>
      <trkpt lat="46.16943" lon="-1.24603">
        <ele>39.8</ele>
        <time>2020-06-02T08:04:15Z</time>
      </trkpt>
      <trkpt lat="46.16946" lon="-1.24595">
        <ele>39.9</ele>
        <time>2020-06-02T08:04:16Z</time>
      </trkpt>
      <trkpt lat="46.16949" lon="-1.24588">
        <ele>39.9</ele>
        <time>2020-06-02T08:04:17Z</time>
      </trkpt>
      <trkpt lat="46.16951" lon="-1.24584">
        <ele>39.9</ele>
        <time>2020-06-02T08:04:18Z</time>
      </trkpt>
      <trkpt lat="46.16954" lon="-1.24577">
        <ele>40</ele>
        <time>2020-06-02T08:04:19Z</time>
      </trkpt>
      <trkpt lat="46.16957" lon="-1.24571">
        <ele>40</ele>
        <time>2020-06-02T08:04:20Z</time>
      </trkpt>
      <trkpt lat="46.16959" lon="-1.24565">
        <ele>40.1</ele>
        <time>2020-06-02T08:04:21Z</time>
      </trkpt>
      <trkpt lat="46.16962" lon="-1.24558">
        <ele>40.1</ele>
        <time>2020-06-02T08:04:22Z</time>
      </trkpt>
      <trkpt lat="46.16964" lon="-1.24552">
        <ele>40.2</ele>
        <time>2020-06-02T08:04:23Z</time>
      </trkpt>
      <trkpt lat="46.16968" lon="-1.24545">
        <ele>40.3</ele>
        <time>2020-06-02T08:04:24Z</time>
      </trkpt>
      <trkpt lat="46.16971" lon="-1.24538">
        <ele>40.4</ele>
        <time>2020-06-02T08:04:25Z</time>
      </trkpt>
      <trkpt lat="46.16974" lon="-1.24532">
        <ele>40.5</ele>
        <time>2020-06-02T08:04:26Z</time>
      </trkpt>
      <trkpt lat="46.16976" lon="-1.24527">
        <ele>40.5</ele>
        <time>2020-06-02T08:04:27Z</time>
      </trkpt>
      <trkpt lat="46.16978" lon="-1.24518">
        <ele>40.6</ele>
        <time>2020-06-02T08:04:28Z</time>
      </trkpt>
      <trkpt lat="46.16981" lon="-1.24511">
        <ele>40.7</ele>
        <time>2020-06-02T08:04:29Z</time>
      </trkpt>
      <trkpt lat="46.16983" lon="-1.24505">
        <ele>40.7</ele>
        <time>2020-06-02T08:04:30Z</time>
      </trkpt>
      <trkpt lat="46.16985" lon="-1.24498">
        <ele>40.7</ele>
        <time>2020-06-02T08:04:31Z</time>
      </trkpt>
      <trkpt lat="46.16989" lon="-1.2449">
        <ele>40.8</ele>
        <time>2020-06-02T08:04:32Z</time>
      </trkpt>
      <trkpt lat="46.16991" lon="-1.24484">
        <ele>40.8</ele>
        <time>2020-06-02T08:04:33Z</time>
      </trkpt>
      <trkpt lat="46.16994" lon="-1.24478">
        <ele>40.8</ele>
        <time>2020-06-02T08:04:34Z</time>
      </trkpt>
      <trkpt lat="46.16996" lon="-1.24472">
        <ele>40.8</ele>
        <time>2020-06-02T08:04:35Z</time>
      </trkpt>
      <trkpt lat="46.16998" lon="-1.24468">
        <ele>40.8</ele>
        <time>2020-06-02T08:04:36Z</time>
      </trkpt>
      <trkpt lat="46.17" lon="-1.24463">
        <ele>40.8</ele>
        <time>2020-06-02T08:04:37Z</time>
      </trkpt>
      <trkpt lat="46.17002" lon="-1.24457">
        <ele>40.8</ele>
        <time>2020-06-02T08:04:38Z</time>
      </trkpt>
      <trkpt lat="46.17004" lon="-1.24451">
        <ele>40.8</ele>
        <time>2020-06-02T08:04:39Z</time>
      </trkpt>
      <trkpt lat="46.17008" lon="-1.24444">
        <ele>40.9</ele>
        <time>2020-06-02T08:04:40Z</time>
      </trkpt>
      <trkpt lat="46.17011" lon="-1.24438">
        <ele>40.9</ele>
        <time>2020-06-02T08:04:41Z</time>
      </trkpt>
      <trkpt lat="46.17014" lon="-1.24432">
        <ele>40.9</ele>
        <time>2020-06-02T08:04:42Z</time>
      </trkpt>
      <trkpt lat="46.17017" lon="-1.24426">
        <ele>40.9</ele>
        <time>2020-06-02T08:04:43Z</time>
      </trkpt>
      <trkpt lat="46.1702" lon="-1.2442">
        <ele>40.9</ele>
        <time>2020-06-02T08:04:44Z</time>
      </trkpt>
      <trkpt lat="46.17022" lon="-1.24414">
        <ele>41</ele>
        <time>2020-06-02T08:04:45Z</time>
      </trkpt>
      <trkpt lat="46.17024" lon="-1.24408">
        <ele>41</ele>
        <time>2020-06-02T08:04:46Z</time>
      </trkpt>
      <trkpt lat="46.17026" lon="-1.24403">
        <ele>41</ele>
        <time>2020-06-02T08:04:47Z</time>
      </trkpt>
      <trkpt lat="46.17029" lon="-1.24395">
        <ele>41</ele>
        <time>2020-06-02T08:04:48Z</time>
      </trkpt>
      <trkpt lat="46.17032" lon="-1.24391">
        <ele>41</ele>
        <time>2020-06-02T08:04:49Z</time>
      </trkpt>
      <trkpt lat="46.17035" lon="-1.24384">
        <ele>41</ele>
        <time>2020-06-02T08:04:50Z</time>
      </trkpt>
      <trkpt lat="46.17037" lon="-1.2438">
        <ele>41</ele>
        <time>2020-06-02T08:04:51Z</time>
      </trkpt>
      <trkpt lat="46.1704" lon="-1.24374">
        <ele>41</ele>
        <time>2020-06-02T08:04:52Z</time>
      </trkpt>
      <trkpt lat="46.17041" lon="-1.24368">
        <ele>41.1</ele>
        <time>2020-06-02T08:04:53Z</time>
      </trkpt>
      <trkpt lat="46.17042" lon="-1.24363">
        <ele>41.1</ele>
        <time>2020-06-02T08:04:54Z</time>
      </trkpt>
      <trkpt lat="46.17045" lon="-1.24357">
        <ele>41.1</ele>
        <time>2020-06-02T08:04:55Z</time>
      </trkpt>
      <trkpt lat="46.17048" lon="-1.24351">
        <ele>41.1</ele>
        <time>2020-06-02T08:04:56Z</time>
      </trkpt>
      <trkpt lat="46.1705" lon="-1.24345">
        <ele>41.1</ele>
        <time>2020-06-02T08:04:57Z</time>
      </trkpt>
      <trkpt lat="46.17052" lon="-1.2434">
        <ele>41</ele>
        <time>2020-06-02T08:04:58Z</time>
      </trkpt>
      <trkpt lat="46.17054" lon="-1.24335">
        <ele>41</ele>
        <time>2020-06-02T08:04:59Z</time>
      </trkpt>
      <trkpt lat="46.17056" lon="-1.24329">
        <ele>41</ele>
        <time>2020-06-02T08:05:00Z</time>
      </trkpt>
      <trkpt lat="46.17058" lon="-1.24325">
        <ele>41</ele>
        <time>2020-06-02T08:05:01Z</time>
      </trkpt>
      <trkpt lat="46.1706" lon="-1.24318">
        <ele>41</ele>
        <time>2020-06-02T08:05:02Z</time>
      </trkpt>
      <trkpt lat="46.17062" lon="-1.24314">
        <ele>41</ele>
        <time>2020-06-02T08:05:03Z</time>
      </trkpt>
      <trkpt lat="46.17064" lon="-1.24309">
        <ele>41</ele>
        <time>2020-06-02T08:05:04Z</time>
      </trkpt>
      <trkpt lat="46.17064" lon="-1.24304">
        <ele>41</ele>
        <time>2020-06-02T08:05:05Z</time>
      </trkpt>
      <trkpt lat="46.17066" lon="-1.24299">
        <ele>41</ele>
        <time>2020-06-02T08:05:06Z</time>
      </trkpt>
      <trkpt lat="46.17068" lon="-1.24296">
        <ele>41</ele>
        <time>2020-06-02T08:05:07Z</time>
      </trkpt>
      <trkpt lat="46.1707" lon="-1.24291">
        <ele>41</ele>
        <time>2020-06-02T08:05:08Z</time>
      </trkpt>
      <trkpt lat="46.17071" lon="-1.24287">
        <ele>41</ele>
        <time>2020-06-02T08:05:09Z</time>
      </trkpt>
      <trkpt lat="46.17072" lon="-1.24286">
        <ele>41</ele>
        <time>2020-06-02T08:05:10Z</time>
      </trkpt>
      <trkpt lat="46.17072" lon="-1.24285">
        <ele>41</ele>
        <time>2020-06-02T08:05:11Z</time>
      </trkpt>
      <trkpt lat="46.17072" lon="-1.24283">
        <ele>41</ele>
        <time>2020-06-02T08:05:12Z</time>
      </trkpt>
      <trkpt lat="46.17071" lon="-1.24285">
        <ele>41</ele>
        <time>2020-06-02T08:05:13Z</time>
      </trkpt>
      <trkpt lat="46.17071" lon="-1.24284">
        <ele>41</ele>
        <time>2020-06-02T08:05:14Z</time>
      </trkpt>
      <trkpt lat="46.17071" lon="-1.24284">
        <ele>41</ele>
        <time>2020-06-02T08:05:15Z</time>
      </trkpt>
      <trkpt lat="46.17071" lon="-1.24284">
        <ele>41</ele>
        <time>2020-06-02T08:05:16Z</time>
      </trkpt>
      <trkpt lat="46.17071" lon="-1.24284">
        <ele>41</ele>
        <time>2020-06-02T08:05:17Z</time>
      </trkpt>
      <trkpt lat="46.17071" lon="-1.24284">
        <ele>41</ele>
        <time>2020-06-02T08:05:18Z</time>
      </trkpt>
      <trkpt lat="46.17071" lon="-1.24284">
        <ele>41</ele>
        <time>2020-06-02T08:05:19Z</time>
      </trkpt>
      <trkpt lat="46.17071" lon="-1.24284">
        <ele>41</ele>
        <time>2020-06-02T08:05:20Z</time>
      </trkpt>
      <trkpt lat="46.17071" lon="-1.24284">
        <ele>41</ele>
        <time>2020-06-02T08:05:21Z</time>
      </trkpt>
      <trkpt lat="46.17071" lon="-1.24284">
        <ele>41</ele>
        <time>2020-06-02T08:05:22Z</time>
      </trkpt>
      <trkpt lat="46.17071" lon="-1.24284">
        <ele>41</ele>
        <time>2020-06-02T08:05:23Z</time>
      </trkpt>
      <trkpt lat="46.17071" lon="-1.24284">
        <ele>41</ele>
        <time>2020-06-02T08:05:24Z</time>
      </trkpt>
      <trkpt lat="46.17071" lon="-1.24284">
        <ele>41</ele>
        <time>2020-06-02T08:05:25Z</time>
      </trkpt>
      <trkpt lat="46.17071" lon="-1.24284">
        <ele>41</ele>
        <time>2020-06-02T08:05:26Z</time>
      </trkpt>
      <trkpt lat="46.17071" lon="-1.24284">
        <ele>41</ele>
        <time>2020-06-02T08:05:27Z</time>
      </trkpt>
      <trkpt lat="46.17071" lon="-1.24284">
        <ele>41</ele>
        <time>2020-06-02T08:05:28Z</time>
      </trkpt>
      <trkpt lat="46.17071" lon="-1.24284">
        <ele>41</ele>
        <time>2020-06-02T08:05:29Z</time>
      </trkpt>
      <trkpt lat="46.17071" lon="-1.24284">
        <ele>41</ele>
        <time>2020-06-02T08:05:30Z</time>
      </trkpt>
      <trkpt lat="46.17071" lon="-1.24284">
        <ele>41</ele>
        <time>2020-06-02T08:05:31Z</time>
      </trkpt>
      <trkpt lat="46.17071" lon="-1.24284">
        <ele>41</ele>
        <time>2020-06-02T08:05:32Z</time>
      </trkpt>
      <trkpt lat="46.17071" lon="-1.24284">
        <ele>41</ele>
        <time>2020-06-02T08:05:33Z</time>
      </trkpt>
      <trkpt lat="46.17071" lon="-1.24284">
        <ele>41</ele>
        <time>2020-06-02T08:05:34Z</time>
      </trkpt>
      <trkpt lat="46.17071" lon="-1.24284">
        <ele>41</ele>
        <time>2020-06-02T08:05:35Z</time>
      </trkpt>
      <trkpt lat="46.17071" lon="-1.24284">
        <ele>41</ele>
        <time>2020-06-02T08:05:36Z</time>
      </trkpt>
      <trkpt lat="46.17071" lon="-1.24284">
        <ele>41</ele>
        <time>2020-06-02T08:05:37Z</time>
      </trkpt>
      <trkpt lat="46.17071" lon="-1.24284">
        <ele>41</ele>
        <time>2020-06-02T08:05:38Z</time>
      </trkpt>
      <trkpt lat="46.17071" lon="-1.24283">
        <ele>41</ele>
        <time>2020-06-02T08:05:39Z</time>
      </trkpt>
      <trkpt lat="46.17071" lon="-1.24283">
        <ele>41</ele>
        <time>2020-06-02T08:05:40Z</time>
      </trkpt>
      <trkpt lat="46.17071" lon="-1.24283">
        <ele>41</ele>
        <time>2020-06-02T08:05:41Z</time>
      </trkpt>
      <trkpt lat="46.17071" lon="-1.24283">
        <ele>41</ele>
        <time>2020-06-02T08:05:42Z</time>
      </trkpt>
      <trkpt lat="46.17071" lon="-1.24283">
        <ele>41</ele>
        <time>2020-06-02T08:05:43Z</time>
      </trkpt>
      <trkpt lat="46.17071" lon="-1.24283">
        <ele>41</ele>
        <time>2020-06-02T08:05:44Z</time>
      </trkpt>
      <trkpt lat="46.17071" lon="-1.24283">
        <ele>41</ele>
        <time>2020-06-02T08:05:45Z</time>
      </trkpt>
      <trkpt lat="46.17071" lon="-1.24283">
        <ele>41</ele>
        <time>2020-06-02T08:05:46Z</time>
      </trkpt>
      <trkpt lat="46.17071" lon="-1.24283">
        <ele>41</ele>
        <time>2020-06-02T08:05:47Z</time>
      </trkpt>
      <trkpt lat="46.17071" lon="-1.24283">
        <ele>41</ele>
        <time>2020-06-02T08:05:48Z</time>
      </trkpt>
      <trkpt lat="46.17071" lon="-1.24283">
        <ele>41</ele>
        <time>2020-06-02T08:05:49Z</time>
      </trkpt>
      <trkpt lat="46.17072" lon="-1.24283">
        <ele>41</ele>
        <time>2020-06-02T08:05:50Z</time>
      </trkpt>
      <trkpt lat="46.17072" lon="-1.24283">
        <ele>41</ele>
        <time>2020-06-02T08:05:51Z</time>
      </trkpt>
      <trkpt lat="46.17072" lon="-1.24283">
        <ele>41</ele>
        <time>2020-06-02T08:05:52Z</time>
      </trkpt>
      <trkpt lat="46.17072" lon="-1.24283">
        <ele>41</ele>
        <time>2020-06-02T08:05:53Z</time>
      </trkpt>
      <trkpt lat="46.17072" lon="-1.24283">
        <ele>41</ele>
        <time>2020-06-02T08:05:54Z</time>
      </trkpt>
      <trkpt lat="46.17072" lon="-1.24283">
        <ele>41</ele>
        <time>2020-06-02T08:05:55Z</time>
      </trkpt>
      <trkpt lat="46.17072" lon="-1.24283">
        <ele>41</ele>
        <time>2020-06-02T08:05:56Z</time>
      </trkpt>
      <trkpt lat="46.17072" lon="-1.24283">
        <ele>41</ele>
        <time>2020-06-02T08:05:57Z</time>
      </trkpt>
      <trkpt lat="46.17072" lon="-1.24283">
        <ele>41</ele>
        <time>2020-06-02T08:05:58Z</time>
      </trkpt>
      <trkpt lat="46.17072" lon="-1.24283">
        <ele>41</ele>
        <time>2020-06-02T08:05:59Z</time>
      </trkpt>
      <trkpt lat="46.17072" lon="-1.24283">
        <ele>41</ele>
        <time>2020-06-02T08:06:00Z</time>
      </trkpt>
      <trkpt lat="46.17072" lon="-1.24283">
        <ele>41</ele>
        <time>2020-06-02T08:06:01Z</time>
      </trkpt>
      <trkpt lat="46.17072" lon="-1.24283">
        <ele>41</ele>
        <time>2020-06-02T08:06:02Z</time>
      </trkpt>
      <trkpt lat="46.17072" lon="-1.24282">
        <ele>41</ele>
        <time>2020-06-02T08:06:03Z</time>
      </trkpt>
      <trkpt lat="46.17072" lon="-1.24282">
        <ele>41</ele>
        <time>2020-06-02T08:06:04Z</time>
      </trkpt>
      <trkpt lat="46.17072" lon="-1.24282">
        <ele>41</ele>
        <time>2020-06-02T08:06:05Z</time>
      </trkpt>
      <trkpt lat="46.17072" lon="-1.24282">
        <ele>41</ele>
        <time>2020-06-02T08:06:06Z</time>
      </trkpt>
      <trkpt lat="46.17072" lon="-1.24282">
        <ele>41</ele>
        <time>2020-06-02T08:06:07Z</time>
      </trkpt>
      <trkpt lat="46.17072" lon="-1.24282">
        <ele>41</ele>
        <time>2020-06-02T08:06:08Z</time>
      </trkpt>
      <trkpt lat="46.17072" lon="-1.24282">
        <ele>41</ele>
        <time>2020-06-02T08:06:09Z</time>
      </trkpt>
      <trkpt lat="46.17072" lon="-1.24282">
        <ele>41</ele>
        <time>2020-06-02T08:06:10Z</time>
      </trkpt>
      <trkpt lat="46.17072" lon="-1.24282">
        <ele>41</ele>
        <time>2020-06-02T08:06:11Z</time>
      </trkpt>
      <trkpt lat="46.17072" lon="-1.24282">
        <ele>41</ele>
        <time>2020-06-02T08:06:12Z</time>
      </trkpt>
      <trkpt lat="46.17072" lon="-1.24282">
        <ele>41</ele>
        <time>2020-06-02T08:06:13Z</time>
      </trkpt>
      <trkpt lat="46.17072" lon="-1.24282">
        <ele>41</ele>
        <time>2020-06-02T08:06:14Z</time>
      </trkpt>
      <trkpt lat="46.17072" lon="-1.24282">
        <ele>41</ele>
        <time>2020-06-02T08:06:15Z</time>
      </trkpt>
      <trkpt lat="46.17072" lon="-1.24282">
        <ele>41</ele>
        <time>2020-06-02T08:06:16Z</time>
      </trkpt>
      <trkpt lat="46.17072" lon="-1.24282">
        <ele>41</ele>
        <time>2020-06-02T08:06:17Z</time>
      </trkpt>
      <trkpt lat="46.17072" lon="-1.24282">
        <ele>41</ele>
        <time>2020-06-02T08:06:18Z</time>
      </trkpt>
      <trkpt lat="46.17072" lon="-1.24282">
        <ele>41</ele>
        <time>2020-06-02T08:06:19Z</time>
      </trkpt>
      <trkpt lat="46.17072" lon="-1.24282">
        <ele>41</ele>
        <time>2020-06-02T08:06:20Z</time>
      </trkpt>
      <trkpt lat="46.17072" lon="-1.24282">
        <ele>41</ele>
        <time>2020-06-02T08:06:21Z</time>
      </trkpt>
      <trkpt lat="46.17072" lon="-1.24282">
        <ele>41</ele>
        <time>2020-06-02T08:06:22Z</time>
      </trkpt>
      <trkpt lat="46.17072" lon="-1.24282">
        <ele>41</ele>
        <time>2020-06-02T08:06:23Z</time>
      </trkpt>
      <trkpt lat="46.17072" lon="-1.24282">
        <ele>41</ele>
        <time>2020-06-02T08:06:24Z</time>
      </trkpt>
      <trkpt lat="46.17072" lon="-1.24282">
        <ele>41</ele>
        <time>2020-06-02T08:06:25Z</time>
      </trkpt>
      <trkpt lat="46.17072" lon="-1.24282">
        <ele>41</ele>
        <time>2020-06-02T08:06:26Z</time>
      </trkpt>
      <trkpt lat="46.17072" lon="-1.24282">
        <ele>41</ele>
        <time>2020-06-02T08:06:27Z</time>
      </trkpt>
      <trkpt lat="46.17072" lon="-1.24281">
        <ele>41</ele>
        <time>2020-06-02T08:06:28Z</time>
      </trkpt>
      <trkpt lat="46.17072" lon="-1.24281">
        <ele>41</ele>
        <time>2020-06-02T08:06:29Z</time>
      </trkpt>
      <trkpt lat="46.17072" lon="-1.24281">
        <ele>41</ele>
        <time>2020-06-02T08:06:30Z</time>
      </trkpt>
      <trkpt lat="46.17072" lon="-1.24281">
        <ele>41</ele>
        <time>2020-06-02T08:06:31Z</time>
      </trkpt>
      <trkpt lat="46.17072" lon="-1.24281">
        <ele>41</ele>
        <time>2020-06-02T08:06:32Z</time>
      </trkpt>
      <trkpt lat="46.17072" lon="-1.24281">
        <ele>41</ele>
        <time>2020-06-02T08:06:33Z</time>
      </trkpt>
      <trkpt lat="46.17072" lon="-1.24281">
        <ele>41</ele>
        <time>2020-06-02T08:06:34Z</time>
      </trkpt>
      <trkpt lat="46.17072" lon="-1.24281">
        <ele>41</ele>
        <time>2020-06-02T08:06:35Z</time>
      </trkpt>
      <trkpt lat="46.17072" lon="-1.24281">
        <ele>41</ele>
        <time>2020-06-02T08:06:36Z</time>
      </trkpt>
      <trkpt lat="46.17072" lon="-1.24281">
        <ele>41</ele>
        <time>2020-06-02T08:06:37Z</time>
      </trkpt>
      <trkpt lat="46.17072" lon="-1.24281">
        <ele>41</ele>
        <time>2020-06-02T08:06:38Z</time>
      </trkpt>
      <trkpt lat="46.17072" lon="-1.24281">
        <ele>41</ele>
        <time>2020-06-02T08:06:39Z</time>
      </trkpt>
      <trkpt lat="46.17072" lon="-1.24281">
        <ele>41</ele>
        <time>2020-06-02T08:06:40Z</time>
      </trkpt>
      <trkpt lat="46.17072" lon="-1.24281">
        <ele>41</ele>
        <time>2020-06-02T08:06:41Z</time>
      </trkpt>
      <trkpt lat="46.17072" lon="-1.24281">
        <ele>41</ele>
        <time>2020-06-02T08:06:42Z</time>
      </trkpt>
      <trkpt lat="46.17072" lon="-1.24281">
        <ele>41</ele>
        <time>2020-06-02T08:06:43Z</time>
      </trkpt>
      <trkpt lat="46.17072" lon="-1.24281">
        <ele>41</ele>
        <time>2020-06-02T08:06:44Z</time>
      </trkpt>
      <trkpt lat="46.17072" lon="-1.24281">
        <ele>41</ele>
        <time>2020-06-02T08:06:45Z</time>
      </trkpt>
      <trkpt lat="46.17072" lon="-1.24281">
        <ele>41</ele>
        <time>2020-06-02T08:06:46Z</time>
      </trkpt>
      <trkpt lat="46.17072" lon="-1.24281">
        <ele>41</ele>
        <time>2020-06-02T08:06:47Z</time>
      </trkpt>
      <trkpt lat="46.17072" lon="-1.24281">
        <ele>41</ele>
        <time>2020-06-02T08:06:48Z</time>
      </trkpt>
      <trkpt lat="46.17072" lon="-1.24281">
        <ele>41</ele>
        <time>2020-06-02T08:06:49Z</time>
      </trkpt>
      <trkpt lat="46.17072" lon="-1.24281">
        <ele>41</ele>
        <time>2020-06-02T08:06:50Z</time>
      </trkpt>
      <trkpt lat="46.17072" lon="-1.24281">
        <ele>41</ele>
        <time>2020-06-02T08:06:51Z</time>
      </trkpt>
      <trkpt lat="46.17072" lon="-1.24281">
        <ele>41</ele>
        <time>2020-06-02T08:06:52Z</time>
      </trkpt>
      <trkpt lat="46.17072" lon="-1.2428">
        <ele>41</ele>
        <time>2020-06-02T08:06:53Z</time>
      </trkpt>
      <trkpt lat="46.17072" lon="-1.2428">
        <ele>41</ele>
        <time>2020-06-02T08:06:54Z</time>
      </trkpt>
      <trkpt lat="46.17072" lon="-1.2428">
        <ele>41</ele>
        <time>2020-06-02T08:06:55Z</time>
      </trkpt>
      <trkpt lat="46.17072" lon="-1.2428">
        <ele>41</ele>
        <time>2020-06-02T08:06:56Z</time>
      </trkpt>
      <trkpt lat="46.17073" lon="-1.2428">
        <ele>41</ele>
        <time>2020-06-02T08:06:57Z</time>
      </trkpt>
      <trkpt lat="46.17073" lon="-1.2428">
        <ele>41</ele>
        <time>2020-06-02T08:06:58Z</time>
      </trkpt>
      <trkpt lat="46.17073" lon="-1.2428">
        <ele>41</ele>
        <time>2020-06-02T08:06:59Z</time>
      </trkpt>
      <trkpt lat="46.17073" lon="-1.2428">
        <ele>41</ele>
        <time>2020-06-02T08:07:00Z</time>
      </trkpt>
      <trkpt lat="46.17073" lon="-1.2428">
        <ele>41</ele>
        <time>2020-06-02T08:07:01Z</time>
      </trkpt>
      <trkpt lat="46.17073" lon="-1.2428">
        <ele>41</ele>
        <time>2020-06-02T08:07:02Z</time>
      </trkpt>
      <trkpt lat="46.17073" lon="-1.2428">
        <ele>41</ele>
        <time>2020-06-02T08:07:03Z</time>
      </trkpt>
      <trkpt lat="46.17073" lon="-1.2428">
        <ele>41</ele>
        <time>2020-06-02T08:07:04Z</time>
      </trkpt>
      <trkpt lat="46.17073" lon="-1.2428">
        <ele>41</ele>
        <time>2020-06-02T08:07:05Z</time>
      </trkpt>
      <trkpt lat="46.17073" lon="-1.2428">
        <ele>41</ele>
        <time>2020-06-02T08:07:06Z</time>
      </trkpt>
      <trkpt lat="46.17073" lon="-1.2428">
        <ele>41</ele>
        <time>2020-06-02T08:07:07Z</time>
      </trkpt>
      <trkpt lat="46.17073" lon="-1.2428">
        <ele>41</ele>
        <time>2020-06-02T08:07:08Z</time>
      </trkpt>
      <trkpt lat="46.17073" lon="-1.2428">
        <ele>41</ele>
        <time>2020-06-02T08:07:09Z</time>
      </trkpt>
      <trkpt lat="46.17073" lon="-1.2428">
        <ele>41</ele>
        <time>2020-06-02T08:07:10Z</time>
      </trkpt>
      <trkpt lat="46.17073" lon="-1.2428">
        <ele>41</ele>
        <time>2020-06-02T08:07:11Z</time>
      </trkpt>
      <trkpt lat="46.17073" lon="-1.2428">
        <ele>41</ele>
        <time>2020-06-02T08:07:12Z</time>
      </trkpt>
      <trkpt lat="46.17073" lon="-1.2428">
        <ele>41</ele>
        <time>2020-06-02T08:07:13Z</time>
      </trkpt>
      <trkpt lat="46.17073" lon="-1.2428">
        <ele>41</ele>
        <time>2020-06-02T08:07:14Z</time>
      </trkpt>
      <trkpt lat="46.17073" lon="-1.2428">
        <ele>41</ele>
        <time>2020-06-02T08:07:15Z</time>
      </trkpt>
      <trkpt lat="46.17073" lon="-1.2428">
        <ele>41</ele>
        <time>2020-06-02T08:07:16Z</time>
      </trkpt>
      <trkpt lat="46.17073" lon="-1.2428">
        <ele>41</ele>
        <time>2020-06-02T08:07:17Z</time>
      </trkpt>
      <trkpt lat="46.17073" lon="-1.24279">
        <ele>41</ele>
        <time>2020-06-02T08:07:18Z</time>
      </trkpt>
      <trkpt lat="46.17073" lon="-1.24279">
        <ele>41</ele>
        <time>2020-06-02T08:07:19Z</time>
      </trkpt>
      <trkpt lat="46.17073" lon="-1.24279">
        <ele>41</ele>
        <time>2020-06-02T08:07:20Z</time>
      </trkpt>
      <trkpt lat="46.17073" lon="-1.24279">
        <ele>41</ele>
        <time>2020-06-02T08:07:21Z</time>
      </trkpt>
      <trkpt lat="46.17073" lon="-1.24279">
        <ele>41</ele>
        <time>2020-06-02T08:07:22Z</time>
      </trkpt>
      <trkpt lat="46.17073" lon="-1.24279">
        <ele>41</ele>
        <time>2020-06-02T08:07:23Z</time>
      </trkpt>
      <trkpt lat="46.17073" lon="-1.24279">
        <ele>41</ele>
        <time>2020-06-02T08:07:24Z</time>
      </trkpt>
      <trkpt lat="46.17073" lon="-1.24279">
        <ele>41</ele>
        <time>2020-06-02T08:07:25Z</time>
      </trkpt>
      <trkpt lat="46.17073" lon="-1.24279">
        <ele>41</ele>
        <time>2020-06-02T08:07:26Z</time>
      </trkpt>
      <trkpt lat="46.17073" lon="-1.24279">
        <ele>41</ele>
        <time>2020-06-02T08:07:27Z</time>
      </trkpt>
      <trkpt lat="46.17073" lon="-1.24279">
        <ele>41</ele>
        <time>2020-06-02T08:07:28Z</time>
      </trkpt>
      <trkpt lat="46.17073" lon="-1.24279">
        <ele>41</ele>
        <time>2020-06-02T08:07:29Z</time>
      </trkpt>
      <trkpt lat="46.17073" lon="-1.24279">
        <ele>41</ele>
        <time>2020-06-02T08:07:30Z</time>
      </trkpt>
      <trkpt lat="46.17073" lon="-1.24279">
        <ele>41</ele>
        <time>2020-06-02T08:07:31Z</time>
      </trkpt>
      <trkpt lat="46.17073" lon="-1.24279">
        <ele>41</ele>
        <time>2020-06-02T08:07:32Z</time>
      </trkpt>
      <trkpt lat="46.17073" lon="-1.24279">
        <ele>41</ele>
        <time>2020-06-02T08:07:33Z</time>
      </trkpt>
      <trkpt lat="46.17073" lon="-1.24279">
        <ele>41</ele>
        <time>2020-06-02T08:07:34Z</time>
      </trkpt>
      <trkpt lat="46.17073" lon="-1.24279">
        <ele>41</ele>
        <time>2020-06-02T08:07:35Z</time>
      </trkpt>
      <trkpt lat="46.17073" lon="-1.24279">
        <ele>41</ele>
        <time>2020-06-02T08:07:36Z</time>
      </trkpt>
      <trkpt lat="46.17073" lon="-1.24279">
        <ele>41</ele>
        <time>2020-06-02T08:07:37Z</time>
      </trkpt>
      <trkpt lat="46.17073" lon="-1.24279">
        <ele>41</ele>
        <time>2020-06-02T08:07:38Z</time>
      </trkpt>
      <trkpt lat="46.17073" lon="-1.24279">
        <ele>41</ele>
        <time>2020-06-02T08:07:39Z</time>
      </trkpt>
      <trkpt lat="46.17073" lon="-1.24279">
        <ele>41</ele>
        <time>2020-06-02T08:07:40Z</time>
      </trkpt>
      <trkpt lat="46.17073" lon="-1.24279">
        <ele>41</ele>
        <time>2020-06-02T08:07:41Z</time>
      </trkpt>
      <trkpt lat="46.17073" lon="-1.24278">
        <ele>41</ele>
        <time>2020-06-02T08:07:42Z</time>
      </trkpt>
      <trkpt lat="46.17073" lon="-1.24278">
        <ele>41</ele>
        <time>2020-06-02T08:07:43Z</time>
      </trkpt>
      <trkpt lat="46.17073" lon="-1.24278">
        <ele>41</ele>
        <time>2020-06-02T08:07:44Z</time>
      </trkpt>
      <trkpt lat="46.17073" lon="-1.24278">
        <ele>41</ele>
        <time>2020-06-02T08:07:45Z</time>
      </trkpt>
      <trkpt lat="46.17073" lon="-1.24278">
        <ele>41</ele>
        <time>2020-06-02T08:07:46Z</time>
      </trkpt>
      <trkpt lat="46.17073" lon="-1.24278">
        <ele>41</ele>
        <time>2020-06-02T08:07:47Z</time>
      </trkpt>
      <trkpt lat="46.17073" lon="-1.24278">
        <ele>41</ele>
        <time>2020-06-02T08:07:48Z</time>
      </trkpt>
      <trkpt lat="46.17073" lon="-1.24278">
        <ele>41</ele>
        <time>2020-06-02T08:07:49Z</time>
      </trkpt>
      <trkpt lat="46.17073" lon="-1.24278">
        <ele>41</ele>
        <time>2020-06-02T08:07:50Z</time>
      </trkpt>
      <trkpt lat="46.17073" lon="-1.24278">
        <ele>41</ele>
        <time>2020-06-02T08:07:51Z</time>
      </trkpt>
      <trkpt lat="46.17073" lon="-1.24278">
        <ele>41</ele>
        <time>2020-06-02T08:07:52Z</time>
      </trkpt>
      <trkpt lat="46.17073" lon="-1.24278">
        <ele>41</ele>
        <time>2020-06-02T08:07:53Z</time>
      </trkpt>
      <trkpt lat="46.17073" lon="-1.24278">
        <ele>41</ele>
        <time>2020-06-02T08:07:54Z</time>
      </trkpt>
      <trkpt lat="46.17073" lon="-1.24278">
        <ele>41</ele>
        <time>2020-06-02T08:07:55Z</time>
      </trkpt>
      <trkpt lat="46.17073" lon="-1.24278">
        <ele>41</ele>
        <time>2020-06-02T08:07:56Z</time>
      </trkpt>
      <trkpt lat="46.17073" lon="-1.24278">
        <ele>41</ele>
        <time>2020-06-02T08:07:57Z</time>
      </trkpt>
      <trkpt lat="46.17073" lon="-1.24278">
        <ele>41</ele>
        <time>2020-06-02T08:07:58Z</time>
      </trkpt>
      <trkpt lat="46.17073" lon="-1.24278">
        <ele>41</ele>
        <time>2020-06-02T08:07:59Z</time>
      </trkpt>
      <trkpt lat="46.17073" lon="-1.24278">
        <ele>41</ele>
        <time>2020-06-02T08:08:00Z</time>
      </trkpt>
      <trkpt lat="46.17073" lon="-1.24278">
        <ele>41</ele>
        <time>2020-06-02T08:08:01Z</time>
      </trkpt>
      <trkpt lat="46.17073" lon="-1.24278">
        <ele>41</ele>
        <time>2020-06-02T08:08:02Z</time>
      </trkpt>
      <trkpt lat="46.17073" lon="-1.24278">
        <ele>41</ele>
        <time>2020-06-02T08:08:03Z</time>
      </trkpt>
      <trkpt lat="46.17073" lon="-1.24278">
        <ele>41</ele>
        <time>2020-06-02T08:08:04Z</time>
      </trkpt>
      <trkpt lat="46.17074" lon="-1.24278">
        <ele>41</ele>
        <time>2020-06-02T08:08:05Z</time>
      </trkpt>
      <trkpt lat="46.17074" lon="-1.24278">
        <ele>41</ele>
        <time>2020-06-02T08:08:06Z</time>
      </trkpt>
      <trkpt lat="46.17074" lon="-1.24277">
        <ele>41</ele>
        <time>2020-06-02T08:08:07Z</time>
      </trkpt>
      <trkpt lat="46.17074" lon="-1.24277">
        <ele>41</ele>
        <time>2020-06-02T08:08:08Z</time>
      </trkpt>
      <trkpt lat="46.17076" lon="-1.24271">
        <ele>41</ele>
        <time>2020-06-02T08:08:09Z</time>
      </trkpt>
      <trkpt lat="46.17078" lon="-1.24265">
        <ele>41</ele>
        <time>2020-06-02T08:08:10Z</time>
      </trkpt>
      <trkpt lat="46.1708" lon="-1.24261">
        <ele>41</ele>
        <time>2020-06-02T08:08:11Z</time>
      </trkpt>
      <trkpt lat="46.17082" lon="-1.24255">
        <ele>40.9</ele>
        <time>2020-06-02T08:08:12Z</time>
      </trkpt>
      <trkpt lat="46.17084" lon="-1.24249">
        <ele>40.9</ele>
        <time>2020-06-02T08:08:13Z</time>
      </trkpt>
      <trkpt lat="46.17087" lon="-1.24243">
        <ele>41</ele>
        <time>2020-06-02T08:08:14Z</time>
      </trkpt>
      <trkpt lat="46.1709" lon="-1.24236">
        <ele>41</ele>
        <time>2020-06-02T08:08:15Z</time>
      </trkpt>
      <trkpt lat="46.17093" lon="-1.24231">
        <ele>41</ele>
        <time>2020-06-02T08:08:16Z</time>
      </trkpt>
      <trkpt lat="46.17096" lon="-1.24225">
        <ele>41</ele>
        <time>2020-06-02T08:08:17Z</time>
      </trkpt>
      <trkpt lat="46.17098" lon="-1.24217">
        <ele>41</ele>
        <time>2020-06-02T08:08:18Z</time>
      </trkpt>
      <trkpt lat="46.17101" lon="-1.24211">
        <ele>41</ele>
        <time>2020-06-02T08:08:19Z</time>
      </trkpt>
      <trkpt lat="46.17103" lon="-1.24203">
        <ele>41</ele>
        <time>2020-06-02T08:08:20Z</time>
      </trkpt>
      <trkpt lat="46.17106" lon="-1.24195">
        <ele>40.9</ele>
        <time>2020-06-02T08:08:21Z</time>
      </trkpt>
      <trkpt lat="46.17107" lon="-1.24192">
        <ele>40.8</ele>
        <time>2020-06-02T08:08:22Z</time>
      </trkpt>
      <trkpt lat="46.1711" lon="-1.24185">
        <ele>40.7</ele>
        <time>2020-06-02T08:08:23Z</time>
      </trkpt>
      <trkpt lat="46.17113" lon="-1.2418">
        <ele>40.7</ele>
        <time>2020-06-02T08:08:24Z</time>
      </trkpt>
      <trkpt lat="46.17116" lon="-1.24171">
        <ele>40.6</ele>
        <time>2020-06-02T08:08:25Z</time>
      </trkpt>
      <trkpt lat="46.17119" lon="-1.24164">
        <ele>40.5</ele>
        <time>2020-06-02T08:08:26Z</time>
      </trkpt>
      <trkpt lat="46.17122" lon="-1.24155">
        <ele>40.4</ele>
        <time>2020-06-02T08:08:27Z</time>
      </trkpt>
      <trkpt lat="46.17125" lon="-1.24145">
        <ele>40.3</ele>
        <time>2020-06-02T08:08:28Z</time>
      </trkpt>
      <trkpt lat="46.17129" lon="-1.24134">
        <ele>40.1</ele>
        <time>2020-06-02T08:08:29Z</time>
      </trkpt>
      <trkpt lat="46.17132" lon="-1.24125">
        <ele>40</ele>
        <time>2020-06-02T08:08:30Z</time>
      </trkpt>
      <trkpt lat="46.17134" lon="-1.24115">
        <ele>39.9</ele>
        <time>2020-06-02T08:08:31Z</time>
      </trkpt>
      <trkpt lat="46.17138" lon="-1.24105">
        <ele>39.8</ele>
        <time>2020-06-02T08:08:32Z</time>
      </trkpt>
      <trkpt lat="46.17141" lon="-1.24096">
        <ele>39.7</ele>
        <time>2020-06-02T08:08:33Z</time>
      </trkpt>
      <trkpt lat="46.17144" lon="-1.24087">
        <ele>39.5</ele>
        <time>2020-06-02T08:08:34Z</time>
      </trkpt>
      <trkpt lat="46.17148" lon="-1.24077">
        <ele>39.4</ele>
        <time>2020-06-02T08:08:35Z</time>
      </trkpt>
      <trkpt lat="46.17151" lon="-1.24067">
        <ele>39.2</ele>
        <time>2020-06-02T08:08:36Z</time>
      </trkpt>
      <trkpt lat="46.17154" lon="-1.24057">
        <ele>39.1</ele>
        <time>2020-06-02T08:08:37Z</time>
      </trkpt>
      <trkpt lat="46.17158" lon="-1.24047">
        <ele>39</ele>
        <time>2020-06-02T08:08:38Z</time>
      </trkpt>
      <trkpt lat="46.17162" lon="-1.24037">
        <ele>38.9</ele>
        <time>2020-06-02T08:08:39Z</time>
      </trkpt>
      <trkpt lat="46.17165" lon="-1.24026">
        <ele>38.8</ele>
        <time>2020-06-02T08:08:40Z</time>
      </trkpt>
      <trkpt lat="46.17169" lon="-1.24016">
        <ele>38.7</ele>
        <time>2020-06-02T08:08:41Z</time>
      </trkpt>
      <trkpt lat="46.17173" lon="-1.24005">
        <ele>38.6</ele>
        <time>2020-06-02T08:08:42Z</time>
      </trkpt>
      <trkpt lat="46.17176" lon="-1.23995">
        <ele>38.5</ele>
        <time>2020-06-02T08:08:43Z</time>
      </trkpt>
      <trkpt lat="46.1718" lon="-1.23984">
        <ele>38.4</ele>
        <time>2020-06-02T08:08:44Z</time>
      </trkpt>
      <trkpt lat="46.17183" lon="-1.23973">
        <ele>38.3</ele>
        <time>2020-06-02T08:08:45Z</time>
      </trkpt>
      <trkpt lat="46.17187" lon="-1.23963">
        <ele>38.1</ele>
        <time>2020-06-02T08:08:46Z</time>
      </trkpt>
      <trkpt lat="46.1719" lon="-1.23951">
        <ele>38</ele>
        <time>2020-06-02T08:08:47Z</time>
      </trkpt>
      <trkpt lat="46.17194" lon="-1.2394">
        <ele>37.8</ele>
        <time>2020-06-02T08:08:48Z</time>
      </trkpt>
      <trkpt lat="46.17197" lon="-1.23929">
        <ele>37.7</ele>
        <time>2020-06-02T08:08:49Z</time>
      </trkpt>
      <trkpt lat="46.17201" lon="-1.23918">
        <ele>37.5</ele>
        <time>2020-06-02T08:08:50Z</time>
      </trkpt>
      <trkpt lat="46.17205" lon="-1.23906">
        <ele>37.3</ele>
        <time>2020-06-02T08:08:51Z</time>
      </trkpt>
      <trkpt lat="46.17208" lon="-1.23894">
        <ele>37.1</ele>
        <time>2020-06-02T08:08:52Z</time>
      </trkpt>
      <trkpt lat="46.17212" lon="-1.23883">
        <ele>36.9</ele>
        <time>2020-06-02T08:08:53Z</time>
      </trkpt>
      <trkpt lat="46.17216" lon="-1.23871">
        <ele>36.7</ele>
        <time>2020-06-02T08:08:54Z</time>
      </trkpt>
      <trkpt lat="46.1722" lon="-1.2386">
        <ele>36.5</ele>
        <time>2020-06-02T08:08:55Z</time>
      </trkpt>
      <trkpt lat="46.17223" lon="-1.23849">
        <ele>36.3</ele>
        <time>2020-06-02T08:08:56Z</time>
      </trkpt>
      <trkpt lat="46.17227" lon="-1.23838">
        <ele>36.1</ele>
        <time>2020-06-02T08:08:57Z</time>
      </trkpt>
      <trkpt lat="46.17231" lon="-1.23827">
        <ele>35.9</ele>
        <time>2020-06-02T08:08:58Z</time>
      </trkpt>
      <trkpt lat="46.17234" lon="-1.23816">
        <ele>35.7</ele>
        <time>2020-06-02T08:08:59Z</time>
      </trkpt>
      <trkpt lat="46.17238" lon="-1.23805">
        <ele>35.5</ele>
        <time>2020-06-02T08:09:00Z</time>
      </trkpt>
      <trkpt lat="46.17241" lon="-1.23794">
        <ele>35.3</ele>
        <time>2020-06-02T08:09:01Z</time>
      </trkpt>
      <trkpt lat="46.17245" lon="-1.23783">
        <ele>35.1</ele>
        <time>2020-06-02T08:09:02Z</time>
      </trkpt>
      <trkpt lat="46.17248" lon="-1.23773">
        <ele>34.9</ele>
        <time>2020-06-02T08:09:03Z</time>
      </trkpt>
      <trkpt lat="46.17251" lon="-1.23762">
        <ele>34.7</ele>
        <time>2020-06-02T08:09:04Z</time>
      </trkpt>
      <trkpt lat="46.17255" lon="-1.23751">
        <ele>34.6</ele>
        <time>2020-06-02T08:09:05Z</time>
      </trkpt>
      <trkpt lat="46.17258" lon="-1.2374">
        <ele>34.4</ele>
        <time>2020-06-02T08:09:06Z</time>
      </trkpt>
      <trkpt lat="46.17261" lon="-1.23729">
        <ele>34.2</ele>
        <time>2020-06-02T08:09:07Z</time>
      </trkpt>
      <trkpt lat="46.17264" lon="-1.23718">
        <ele>34</ele>
        <time>2020-06-02T08:09:08Z</time>
      </trkpt>
      <trkpt lat="46.17267" lon="-1.23708">
        <ele>33.8</ele>
        <time>2020-06-02T08:09:09Z</time>
      </trkpt>
      <trkpt lat="46.1727" lon="-1.23697">
        <ele>33.6</ele>
        <time>2020-06-02T08:09:10Z</time>
      </trkpt>
      <trkpt lat="46.17273" lon="-1.23687">
        <ele>33.4</ele>
        <time>2020-06-02T08:09:11Z</time>
      </trkpt>
      <trkpt lat="46.17276" lon="-1.23677">
        <ele>33.2</ele>
        <time>2020-06-02T08:09:12Z</time>
      </trkpt>
      <trkpt lat="46.17279" lon="-1.23667">
        <ele>33</ele>
        <time>2020-06-02T08:09:13Z</time>
      </trkpt>
      <trkpt lat="46.17282" lon="-1.23657">
        <ele>32.9</ele>
        <time>2020-06-02T08:09:14Z</time>
      </trkpt>
      <trkpt lat="46.17284" lon="-1.23647">
        <ele>32.8</ele>
        <time>2020-06-02T08:09:15Z</time>
      </trkpt>
      <trkpt lat="46.17287" lon="-1.23637">
        <ele>32.6</ele>
        <time>2020-06-02T08:09:16Z</time>
      </trkpt>
      <trkpt lat="46.1729" lon="-1.23627">
        <ele>32.5</ele>
        <time>2020-06-02T08:09:17Z</time>
      </trkpt>
      <trkpt lat="46.17293" lon="-1.23617">
        <ele>32.4</ele>
        <time>2020-06-02T08:09:18Z</time>
      </trkpt>
      <trkpt lat="46.17295" lon="-1.23607">
        <ele>32.2</ele>
        <time>2020-06-02T08:09:19Z</time>
      </trkpt>
      <trkpt lat="46.17298" lon="-1.23598">
        <ele>32</ele>
        <time>2020-06-02T08:09:20Z</time>
      </trkpt>
      <trkpt lat="46.17301" lon="-1.23588">
        <ele>31.8</ele>
        <time>2020-06-02T08:09:21Z</time>
      </trkpt>
      <trkpt lat="46.17304" lon="-1.23578">
        <ele>31.6</ele>
        <time>2020-06-02T08:09:22Z</time>
      </trkpt>
      <trkpt lat="46.17307" lon="-1.23569">
        <ele>31.4</ele>
        <time>2020-06-02T08:09:23Z</time>
      </trkpt>
      <trkpt lat="46.17309" lon="-1.23559">
        <ele>31.2</ele>
        <time>2020-06-02T08:09:24Z</time>
      </trkpt>
      <trkpt lat="46.17312" lon="-1.23549">
        <ele>31</ele>
        <time>2020-06-02T08:09:25Z</time>
      </trkpt>
      <trkpt lat="46.17315" lon="-1.2354">
        <ele>30.8</ele>
        <time>2020-06-02T08:09:26Z</time>
      </trkpt>
      <trkpt lat="46.17318" lon="-1.2353">
        <ele>30.7</ele>
        <time>2020-06-02T08:09:27Z</time>
      </trkpt>
      <trkpt lat="46.17321" lon="-1.2352">
        <ele>30.5</ele>
        <time>2020-06-02T08:09:28Z</time>
      </trkpt>
      <trkpt lat="46.17323" lon="-1.2351">
        <ele>30.4</ele>
        <time>2020-06-02T08:09:29Z</time>
      </trkpt>
      <trkpt lat="46.17326" lon="-1.23501">
        <ele>30.2</ele>
        <time>2020-06-02T08:09:30Z</time>
      </trkpt>
      <trkpt lat="46.17329" lon="-1.23491">
        <ele>30.1</ele>
        <time>2020-06-02T08:09:31Z</time>
      </trkpt>
      <trkpt lat="46.17331" lon="-1.23481">
        <ele>30</ele>
        <time>2020-06-02T08:09:32Z</time>
      </trkpt>
      <trkpt lat="46.17333" lon="-1.23472">
        <ele>29.9</ele>
        <time>2020-06-02T08:09:33Z</time>
      </trkpt>
      <trkpt lat="46.17336" lon="-1.23462">
        <ele>29.8</ele>
        <time>2020-06-02T08:09:34Z</time>
      </trkpt>
      <trkpt lat="46.17338" lon="-1.23453">
        <ele>29.7</ele>
        <time>2020-06-02T08:09:35Z</time>
      </trkpt>
      <trkpt lat="46.17341" lon="-1.23443">
        <ele>29.5</ele>
        <time>2020-06-02T08:09:36Z</time>
      </trkpt>
      <trkpt lat="46.17343" lon="-1.23434">
        <ele>29.4</ele>
        <time>2020-06-02T08:09:37Z</time>
      </trkpt>
      <trkpt lat="46.17345" lon="-1.23424">
        <ele>29.2</ele>
        <time>2020-06-02T08:09:38Z</time>
      </trkpt>
      <trkpt lat="46.17348" lon="-1.23415">
        <ele>29.1</ele>
        <time>2020-06-02T08:09:39Z</time>
      </trkpt>
      <trkpt lat="46.17351" lon="-1.23405">
        <ele>28.9</ele>
        <time>2020-06-02T08:09:40Z</time>
      </trkpt>
      <trkpt lat="46.17353" lon="-1.23396">
        <ele>28.7</ele>
        <time>2020-06-02T08:09:41Z</time>
      </trkpt>
      <trkpt lat="46.17356" lon="-1.23386">
        <ele>28.6</ele>
        <time>2020-06-02T08:09:42Z</time>
      </trkpt>
      <trkpt lat="46.17358" lon="-1.23377">
        <ele>28.4</ele>
        <time>2020-06-02T08:09:43Z</time>
      </trkpt>
      <trkpt lat="46.17361" lon="-1.23368">
        <ele>28.3</ele>
        <time>2020-06-02T08:09:44Z</time>
      </trkpt>
      <trkpt lat="46.17363" lon="-1.23358">
        <ele>28.2</ele>
        <time>2020-06-02T08:09:45Z</time>
      </trkpt>
      <trkpt lat="46.17366" lon="-1.23348">
        <ele>28.1</ele>
        <time>2020-06-02T08:09:46Z</time>
      </trkpt>
      <trkpt lat="46.17368" lon="-1.23338">
        <ele>27.9</ele>
        <time>2020-06-02T08:09:47Z</time>
      </trkpt>
      <trkpt lat="46.17371" lon="-1.23328">
        <ele>27.8</ele>
        <time>2020-06-02T08:09:48Z</time>
      </trkpt>
      <trkpt lat="46.17373" lon="-1.23318">
        <ele>27.6</ele>
        <time>2020-06-02T08:09:49Z</time>
      </trkpt>
      <trkpt lat="46.17376" lon="-1.23308">
        <ele>27.4</ele>
        <time>2020-06-02T08:09:50Z</time>
      </trkpt>
      <trkpt lat="46.17378" lon="-1.23298">
        <ele>27.3</ele>
        <time>2020-06-02T08:09:51Z</time>
      </trkpt>
      <trkpt lat="46.17381" lon="-1.23288">
        <ele>27.1</ele>
        <time>2020-06-02T08:09:52Z</time>
      </trkpt>
      <trkpt lat="46.17383" lon="-1.23277">
        <ele>26.8</ele>
        <time>2020-06-02T08:09:53Z</time>
      </trkpt>
      <trkpt lat="46.17386" lon="-1.23267">
        <ele>26.6</ele>
        <time>2020-06-02T08:09:54Z</time>
      </trkpt>
      <trkpt lat="46.17388" lon="-1.23257">
        <ele>26.4</ele>
        <time>2020-06-02T08:09:55Z</time>
      </trkpt>
      <trkpt lat="46.17391" lon="-1.23246">
        <ele>26.2</ele>
        <time>2020-06-02T08:09:56Z</time>
      </trkpt>
      <trkpt lat="46.17393" lon="-1.23236">
        <ele>26.1</ele>
        <time>2020-06-02T08:09:57Z</time>
      </trkpt>
      <trkpt lat="46.17396" lon="-1.23226">
        <ele>25.9</ele>
        <time>2020-06-02T08:09:58Z</time>
      </trkpt>
      <trkpt lat="46.17399" lon="-1.23215">
        <ele>25.8</ele>
        <time>2020-06-02T08:09:59Z</time>
      </trkpt>
      <trkpt lat="46.17401" lon="-1.23205">
        <ele>25.6</ele>
        <time>2020-06-02T08:10:00Z</time>
      </trkpt>
      <trkpt lat="46.17404" lon="-1.23194">
        <ele>25.4</ele>
        <time>2020-06-02T08:10:01Z</time>
      </trkpt>
      <trkpt lat="46.17406" lon="-1.23184">
        <ele>25.3</ele>
        <time>2020-06-02T08:10:02Z</time>
      </trkpt>
      <trkpt lat="46.17409" lon="-1.23173">
        <ele>25.1</ele>
        <time>2020-06-02T08:10:03Z</time>
      </trkpt>
      <trkpt lat="46.17411" lon="-1.23162">
        <ele>24.9</ele>
        <time>2020-06-02T08:10:04Z</time>
      </trkpt>
      <trkpt lat="46.17413" lon="-1.23151">
        <ele>24.7</ele>
        <time>2020-06-02T08:10:05Z</time>
      </trkpt>
      <trkpt lat="46.17416" lon="-1.2314">
        <ele>24.5</ele>
        <time>2020-06-02T08:10:06Z</time>
      </trkpt>
      <trkpt lat="46.17418" lon="-1.23129">
        <ele>24.3</ele>
        <time>2020-06-02T08:10:07Z</time>
      </trkpt>
      <trkpt lat="46.17421" lon="-1.23118">
        <ele>24.1</ele>
        <time>2020-06-02T08:10:08Z</time>
      </trkpt>
      <trkpt lat="46.17424" lon="-1.23107">
        <ele>23.9</ele>
        <time>2020-06-02T08:10:09Z</time>
      </trkpt>
      <trkpt lat="46.17426" lon="-1.23096">
        <ele>23.8</ele>
        <time>2020-06-02T08:10:10Z</time>
      </trkpt>
      <trkpt lat="46.17429" lon="-1.23085">
        <ele>23.7</ele>
        <time>2020-06-02T08:10:11Z</time>
      </trkpt>
      <trkpt lat="46.17431" lon="-1.23074">
        <ele>23.5</ele>
        <time>2020-06-02T08:10:12Z</time>
      </trkpt>
      <trkpt lat="46.17433" lon="-1.23063">
        <ele>23.3</ele>
        <time>2020-06-02T08:10:13Z</time>
      </trkpt>
      <trkpt lat="46.17436" lon="-1.23051">
        <ele>23.1</ele>
        <time>2020-06-02T08:10:14Z</time>
      </trkpt>
      <trkpt lat="46.17438" lon="-1.2304">
        <ele>22.9</ele>
        <time>2020-06-02T08:10:15Z</time>
      </trkpt>
      <trkpt lat="46.1744" lon="-1.23029">
        <ele>22.7</ele>
        <time>2020-06-02T08:10:16Z</time>
      </trkpt>
      <trkpt lat="46.17442" lon="-1.23018">
        <ele>22.5</ele>
        <time>2020-06-02T08:10:17Z</time>
      </trkpt>
      <trkpt lat="46.17445" lon="-1.23006">
        <ele>22.3</ele>
        <time>2020-06-02T08:10:18Z</time>
      </trkpt>
      <trkpt lat="46.17447" lon="-1.22995">
        <ele>22</ele>
        <time>2020-06-02T08:10:19Z</time>
      </trkpt>
      <trkpt lat="46.17449" lon="-1.22984">
        <ele>21.8</ele>
        <time>2020-06-02T08:10:20Z</time>
      </trkpt>
      <trkpt lat="46.17451" lon="-1.22973">
        <ele>21.7</ele>
        <time>2020-06-02T08:10:21Z</time>
      </trkpt>
      <trkpt lat="46.17454" lon="-1.22962">
        <ele>21.5</ele>
        <time>2020-06-02T08:10:22Z</time>
      </trkpt>
      <trkpt lat="46.17456" lon="-1.22951">
        <ele>21.4</ele>
        <time>2020-06-02T08:10:23Z</time>
      </trkpt>
      <trkpt lat="46.17458" lon="-1.2294">
        <ele>21.4</ele>
        <time>2020-06-02T08:10:24Z</time>
      </trkpt>
      <trkpt lat="46.1746" lon="-1.22928">
        <ele>21.3</ele>
        <time>2020-06-02T08:10:25Z</time>
      </trkpt>
      <trkpt lat="46.17462" lon="-1.22917">
        <ele>21.2</ele>
        <time>2020-06-02T08:10:26Z</time>
      </trkpt>
      <trkpt lat="46.17464" lon="-1.22906">
        <ele>21.1</ele>
        <time>2020-06-02T08:10:27Z</time>
      </trkpt>
      <trkpt lat="46.17466" lon="-1.22895">
        <ele>21</ele>
        <time>2020-06-02T08:10:28Z</time>
      </trkpt>
      <trkpt lat="46.17469" lon="-1.22884">
        <ele>20.8</ele>
        <time>2020-06-02T08:10:29Z</time>
      </trkpt>
      <trkpt lat="46.17471" lon="-1.22872">
        <ele>20.5</ele>
        <time>2020-06-02T08:10:30Z</time>
      </trkpt>
      <trkpt lat="46.17473" lon="-1.22861">
        <ele>20.3</ele>
        <time>2020-06-02T08:10:31Z</time>
      </trkpt>
      <trkpt lat="46.17476" lon="-1.2285">
        <ele>20.1</ele>
        <time>2020-06-02T08:10:32Z</time>
      </trkpt>
      <trkpt lat="46.17478" lon="-1.22839">
        <ele>20</ele>
        <time>2020-06-02T08:10:33Z</time>
      </trkpt>
      <trkpt lat="46.1748" lon="-1.22828">
        <ele>19.8</ele>
        <time>2020-06-02T08:10:34Z</time>
      </trkpt>
      <trkpt lat="46.17482" lon="-1.22817">
        <ele>19.6</ele>
        <time>2020-06-02T08:10:35Z</time>
      </trkpt>
      <trkpt lat="46.17484" lon="-1.22806">
        <ele>19.5</ele>
        <time>2020-06-02T08:10:36Z</time>
      </trkpt>
      <trkpt lat="46.17486" lon="-1.22795">
        <ele>19.4</ele>
        <time>2020-06-02T08:10:37Z</time>
      </trkpt>
      <trkpt lat="46.17488" lon="-1.22785">
        <ele>19.2</ele>
        <time>2020-06-02T08:10:38Z</time>
      </trkpt>
      <trkpt lat="46.1749" lon="-1.22774">
        <ele>19.1</ele>
        <time>2020-06-02T08:10:39Z</time>
      </trkpt>
      <trkpt lat="46.17492" lon="-1.22763">
        <ele>19</ele>
        <time>2020-06-02T08:10:40Z</time>
      </trkpt>
      <trkpt lat="46.17494" lon="-1.22753">
        <ele>18.8</ele>
        <time>2020-06-02T08:10:41Z</time>
      </trkpt>
      <trkpt lat="46.17496" lon="-1.22743">
        <ele>18.6</ele>
        <time>2020-06-02T08:10:42Z</time>
      </trkpt>
      <trkpt lat="46.17497" lon="-1.22733">
        <ele>18.4</ele>
        <time>2020-06-02T08:10:43Z</time>
      </trkpt>
      <trkpt lat="46.17499" lon="-1.22723">
        <ele>18.2</ele>
        <time>2020-06-02T08:10:44Z</time>
      </trkpt>
      <trkpt lat="46.17501" lon="-1.22713">
        <ele>18.1</ele>
        <time>2020-06-02T08:10:45Z</time>
      </trkpt>
      <trkpt lat="46.17502" lon="-1.22703">
        <ele>17.9</ele>
        <time>2020-06-02T08:10:46Z</time>
      </trkpt>
      <trkpt lat="46.17504" lon="-1.22693">
        <ele>17.7</ele>
        <time>2020-06-02T08:10:47Z</time>
      </trkpt>
      <trkpt lat="46.17505" lon="-1.22683">
        <ele>17.6</ele>
        <time>2020-06-02T08:10:48Z</time>
      </trkpt>
      <trkpt lat="46.17507" lon="-1.22673">
        <ele>17.4</ele>
        <time>2020-06-02T08:10:49Z</time>
      </trkpt>
      <trkpt lat="46.17509" lon="-1.22664">
        <ele>17.2</ele>
        <time>2020-06-02T08:10:50Z</time>
      </trkpt>
      <trkpt lat="46.1751" lon="-1.22654">
        <ele>17</ele>
        <time>2020-06-02T08:10:51Z</time>
      </trkpt>
      <trkpt lat="46.17512" lon="-1.22644">
        <ele>16.9</ele>
        <time>2020-06-02T08:10:52Z</time>
      </trkpt>
      <trkpt lat="46.17513" lon="-1.22635">
        <ele>16.7</ele>
        <time>2020-06-02T08:10:53Z</time>
      </trkpt>
      <trkpt lat="46.17515" lon="-1.22626">
        <ele>16.6</ele>
        <time>2020-06-02T08:10:54Z</time>
      </trkpt>
      <trkpt lat="46.17516" lon="-1.22617">
        <ele>16.4</ele>
        <time>2020-06-02T08:10:55Z</time>
      </trkpt>
      <trkpt lat="46.17518" lon="-1.22608">
        <ele>16.2</ele>
        <time>2020-06-02T08:10:56Z</time>
      </trkpt>
      <trkpt lat="46.17519" lon="-1.22599">
        <ele>16</ele>
        <time>2020-06-02T08:10:57Z</time>
      </trkpt>
      <trkpt lat="46.1752" lon="-1.2259">
        <ele>15.8</ele>
        <time>2020-06-02T08:10:58Z</time>
      </trkpt>
      <trkpt lat="46.17522" lon="-1.22581">
        <ele>15.7</ele>
        <time>2020-06-02T08:10:59Z</time>
      </trkpt>
      <trkpt lat="46.17523" lon="-1.22573">
        <ele>15.5</ele>
        <time>2020-06-02T08:11:00Z</time>
      </trkpt>
      <trkpt lat="46.17525" lon="-1.22564">
        <ele>15.4</ele>
        <time>2020-06-02T08:11:01Z</time>
      </trkpt>
      <trkpt lat="46.17526" lon="-1.22555">
        <ele>15.2</ele>
        <time>2020-06-02T08:11:02Z</time>
      </trkpt>
      <trkpt lat="46.17528" lon="-1.22547">
        <ele>15.2</ele>
        <time>2020-06-02T08:11:03Z</time>
      </trkpt>
      <trkpt lat="46.17529" lon="-1.22538">
        <ele>15.1</ele>
        <time>2020-06-02T08:11:04Z</time>
      </trkpt>
      <trkpt lat="46.17531" lon="-1.22529">
        <ele>15</ele>
        <time>2020-06-02T08:11:05Z</time>
      </trkpt>
      <trkpt lat="46.17532" lon="-1.22521">
        <ele>14.9</ele>
        <time>2020-06-02T08:11:06Z</time>
      </trkpt>
      <trkpt lat="46.17534" lon="-1.22512">
        <ele>14.8</ele>
        <time>2020-06-02T08:11:07Z</time>
      </trkpt>
      <trkpt lat="46.17535" lon="-1.22503">
        <ele>14.7</ele>
        <time>2020-06-02T08:11:08Z</time>
      </trkpt>
      <trkpt lat="46.17537" lon="-1.22495">
        <ele>14.6</ele>
        <time>2020-06-02T08:11:09Z</time>
      </trkpt>
      <trkpt lat="46.17538" lon="-1.22486">
        <ele>14.4</ele>
        <time>2020-06-02T08:11:10Z</time>
      </trkpt>
      <trkpt lat="46.17539" lon="-1.22477">
        <ele>14.3</ele>
        <time>2020-06-02T08:11:11Z</time>
      </trkpt>
      <trkpt lat="46.1754" lon="-1.22469">
        <ele>14.2</ele>
        <time>2020-06-02T08:11:12Z</time>
      </trkpt>
      <trkpt lat="46.17542" lon="-1.2246">
        <ele>14</ele>
        <time>2020-06-02T08:11:13Z</time>
      </trkpt>
      <trkpt lat="46.17543" lon="-1.22452">
        <ele>13.9</ele>
        <time>2020-06-02T08:11:14Z</time>
      </trkpt>
      <trkpt lat="46.17544" lon="-1.22444">
        <ele>13.8</ele>
        <time>2020-06-02T08:11:15Z</time>
      </trkpt>
      <trkpt lat="46.17546" lon="-1.22435">
        <ele>13.6</ele>
        <time>2020-06-02T08:11:16Z</time>
      </trkpt>
      <trkpt lat="46.17547" lon="-1.22427">
        <ele>13.5</ele>
        <time>2020-06-02T08:11:17Z</time>
      </trkpt>
      <trkpt lat="46.17547" lon="-1.22418">
        <ele>13.4</ele>
        <time>2020-06-02T08:11:18Z</time>
      </trkpt>
      <trkpt lat="46.17548" lon="-1.2241">
        <ele>13.3</ele>
        <time>2020-06-02T08:11:19Z</time>
      </trkpt>
      <trkpt lat="46.1755" lon="-1.22402">
        <ele>13.2</ele>
        <time>2020-06-02T08:11:20Z</time>
      </trkpt>
      <trkpt lat="46.17551" lon="-1.22394">
        <ele>13.1</ele>
        <time>2020-06-02T08:11:21Z</time>
      </trkpt>
      <trkpt lat="46.17552" lon="-1.22386">
        <ele>12.9</ele>
        <time>2020-06-02T08:11:22Z</time>
      </trkpt>
      <trkpt lat="46.17552" lon="-1.22378">
        <ele>12.8</ele>
        <time>2020-06-02T08:11:23Z</time>
      </trkpt>
      <trkpt lat="46.17554" lon="-1.2237">
        <ele>12.6</ele>
        <time>2020-06-02T08:11:24Z</time>
      </trkpt>
      <trkpt lat="46.17555" lon="-1.22361">
        <ele>12.5</ele>
        <time>2020-06-02T08:11:25Z</time>
      </trkpt>
      <trkpt lat="46.17555" lon="-1.22353">
        <ele>12.3</ele>
        <time>2020-06-02T08:11:26Z</time>
      </trkpt>
      <trkpt lat="46.17556" lon="-1.22345">
        <ele>12.2</ele>
        <time>2020-06-02T08:11:27Z</time>
      </trkpt>
      <trkpt lat="46.17557" lon="-1.22338">
        <ele>12.1</ele>
        <time>2020-06-02T08:11:28Z</time>
      </trkpt>
      <trkpt lat="46.17558" lon="-1.2233">
        <ele>12</ele>
        <time>2020-06-02T08:11:29Z</time>
      </trkpt>
      <trkpt lat="46.1756" lon="-1.22323">
        <ele>11.9</ele>
        <time>2020-06-02T08:11:30Z</time>
      </trkpt>
      <trkpt lat="46.17561" lon="-1.22316">
        <ele>11.7</ele>
        <time>2020-06-02T08:11:31Z</time>
      </trkpt>
      <trkpt lat="46.17562" lon="-1.22309">
        <ele>11.6</ele>
        <time>2020-06-02T08:11:32Z</time>
      </trkpt>
      <trkpt lat="46.17563" lon="-1.22303">
        <ele>11.5</ele>
        <time>2020-06-02T08:11:33Z</time>
      </trkpt>
      <trkpt lat="46.17564" lon="-1.22296">
        <ele>11.4</ele>
        <time>2020-06-02T08:11:34Z</time>
      </trkpt>
      <trkpt lat="46.17565" lon="-1.22289">
        <ele>11.3</ele>
        <time>2020-06-02T08:11:35Z</time>
      </trkpt>
      <trkpt lat="46.17566" lon="-1.22282">
        <ele>11.2</ele>
        <time>2020-06-02T08:11:36Z</time>
      </trkpt>
      <trkpt lat="46.17567" lon="-1.22275">
        <ele>11</ele>
        <time>2020-06-02T08:11:37Z</time>
      </trkpt>
      <trkpt lat="46.17568" lon="-1.22268">
        <ele>10.9</ele>
        <time>2020-06-02T08:11:38Z</time>
      </trkpt>
      <trkpt lat="46.17568" lon="-1.22261">
        <ele>10.8</ele>
        <time>2020-06-02T08:11:39Z</time>
      </trkpt>
      <trkpt lat="46.17569" lon="-1.22254">
        <ele>10.7</ele>
        <time>2020-06-02T08:11:40Z</time>
      </trkpt>
      <trkpt lat="46.1757" lon="-1.22247">
        <ele>10.6</ele>
        <time>2020-06-02T08:11:41Z</time>
      </trkpt>
      <trkpt lat="46.17571" lon="-1.2224">
        <ele>10.5</ele>
        <time>2020-06-02T08:11:42Z</time>
      </trkpt>
      <trkpt lat="46.17571" lon="-1.22233">
        <ele>10.4</ele>
        <time>2020-06-02T08:11:43Z</time>
      </trkpt>
      <trkpt lat="46.17572" lon="-1.22226">
        <ele>10.4</ele>
        <time>2020-06-02T08:11:44Z</time>
      </trkpt>
      <trkpt lat="46.17573" lon="-1.22219">
        <ele>10.3</ele>
        <time>2020-06-02T08:11:45Z</time>
      </trkpt>
      <trkpt lat="46.17573" lon="-1.22212">
        <ele>10.3</ele>
        <time>2020-06-02T08:11:46Z</time>
      </trkpt>
      <trkpt lat="46.17574" lon="-1.22205">
        <ele>10.2</ele>
        <time>2020-06-02T08:11:47Z</time>
      </trkpt>
      <trkpt lat="46.17575" lon="-1.22197">
        <ele>10.2</ele>
        <time>2020-06-02T08:11:48Z</time>
      </trkpt>
      <trkpt lat="46.17577" lon="-1.2219">
        <ele>10</ele>
        <time>2020-06-02T08:11:49Z</time>
      </trkpt>
      <trkpt lat="46.17578" lon="-1.22183">
        <ele>10</ele>
        <time>2020-06-02T08:11:50Z</time>
      </trkpt>
      <trkpt lat="46.17579" lon="-1.22175">
        <ele>9.9</ele>
        <time>2020-06-02T08:11:51Z</time>
      </trkpt>
      <trkpt lat="46.17581" lon="-1.22168">
        <ele>9.9</ele>
        <time>2020-06-02T08:11:52Z</time>
      </trkpt>
      <trkpt lat="46.17582" lon="-1.22161">
        <ele>9.8</ele>
        <time>2020-06-02T08:11:53Z</time>
      </trkpt>
      <trkpt lat="46.17584" lon="-1.22154">
        <ele>9.7</ele>
        <time>2020-06-02T08:11:54Z</time>
      </trkpt>
      <trkpt lat="46.17584" lon="-1.22147">
        <ele>9.6</ele>
        <time>2020-06-02T08:11:55Z</time>
      </trkpt>
      <trkpt lat="46.17585" lon="-1.2214">
        <ele>9.5</ele>
        <time>2020-06-02T08:11:56Z</time>
      </trkpt>
      <trkpt lat="46.17586" lon="-1.22132">
        <ele>9.5</ele>
        <time>2020-06-02T08:11:57Z</time>
      </trkpt>
      <trkpt lat="46.17587" lon="-1.22125">
        <ele>9.4</ele>
        <time>2020-06-02T08:11:58Z</time>
      </trkpt>
      <trkpt lat="46.17588" lon="-1.22117">
        <ele>9.3</ele>
        <time>2020-06-02T08:11:59Z</time>
      </trkpt>
      <trkpt lat="46.17589" lon="-1.22109">
        <ele>9.3</ele>
        <time>2020-06-02T08:12:00Z</time>
      </trkpt>
      <trkpt lat="46.1759" lon="-1.22102">
        <ele>9.2</ele>
        <time>2020-06-02T08:12:01Z</time>
      </trkpt>
      <trkpt lat="46.17592" lon="-1.22095">
        <ele>9.1</ele>
        <time>2020-06-02T08:12:02Z</time>
      </trkpt>
      <trkpt lat="46.17592" lon="-1.22088">
        <ele>9</ele>
        <time>2020-06-02T08:12:03Z</time>
      </trkpt>
      <trkpt lat="46.17593" lon="-1.2208">
        <ele>8.9</ele>
        <time>2020-06-02T08:12:04Z</time>
      </trkpt>
      <trkpt lat="46.17594" lon="-1.22073">
        <ele>8.9</ele>
        <time>2020-06-02T08:12:05Z</time>
      </trkpt>
      <trkpt lat="46.17596" lon="-1.22067">
        <ele>8.8</ele>
        <time>2020-06-02T08:12:06Z</time>
      </trkpt>
      <trkpt lat="46.17597" lon="-1.2206">
        <ele>8.8</ele>
        <time>2020-06-02T08:12:07Z</time>
      </trkpt>
      <trkpt lat="46.17599" lon="-1.22053">
        <ele>8.7</ele>
        <time>2020-06-02T08:12:08Z</time>
      </trkpt>
      <trkpt lat="46.176" lon="-1.22047">
        <ele>8.7</ele>
        <time>2020-06-02T08:12:09Z</time>
      </trkpt>
      <trkpt lat="46.17602" lon="-1.2204">
        <ele>8.6</ele>
        <time>2020-06-02T08:12:10Z</time>
      </trkpt>
      <trkpt lat="46.17603" lon="-1.22034">
        <ele>8.6</ele>
        <time>2020-06-02T08:12:11Z</time>
      </trkpt>
      <trkpt lat="46.17604" lon="-1.22027">
        <ele>8.5</ele>
        <time>2020-06-02T08:12:12Z</time>
      </trkpt>
      <trkpt lat="46.17605" lon="-1.22021">
        <ele>8.5</ele>
        <time>2020-06-02T08:12:13Z</time>
      </trkpt>
      <trkpt lat="46.17606" lon="-1.22014">
        <ele>8.4</ele>
        <time>2020-06-02T08:12:14Z</time>
      </trkpt>
      <trkpt lat="46.17607" lon="-1.22008">
        <ele>8.4</ele>
        <time>2020-06-02T08:12:15Z</time>
      </trkpt>
      <trkpt lat="46.17608" lon="-1.22001">
        <ele>8.4</ele>
        <time>2020-06-02T08:12:16Z</time>
      </trkpt>
      <trkpt lat="46.1761" lon="-1.21995">
        <ele>8.3</ele>
        <time>2020-06-02T08:12:17Z</time>
      </trkpt>
      <trkpt lat="46.17611" lon="-1.21988">
        <ele>8.3</ele>
        <time>2020-06-02T08:12:18Z</time>
      </trkpt>
      <trkpt lat="46.17612" lon="-1.21981">
        <ele>8.3</ele>
        <time>2020-06-02T08:12:19Z</time>
      </trkpt>
      <trkpt lat="46.17612" lon="-1.21975">
        <ele>8.3</ele>
        <time>2020-06-02T08:12:20Z</time>
      </trkpt>
      <trkpt lat="46.17612" lon="-1.21968">
        <ele>8.3</ele>
        <time>2020-06-02T08:12:21Z</time>
      </trkpt>
      <trkpt lat="46.17613" lon="-1.21961">
        <ele>8.3</ele>
        <time>2020-06-02T08:12:22Z</time>
      </trkpt>
      <trkpt lat="46.17613" lon="-1.21955">
        <ele>8.3</ele>
        <time>2020-06-02T08:12:23Z</time>
      </trkpt>
      <trkpt lat="46.17613" lon="-1.21949">
        <ele>8.3</ele>
        <time>2020-06-02T08:12:24Z</time>
      </trkpt>
      <trkpt lat="46.17613" lon="-1.21943">
        <ele>8.2</ele>
        <time>2020-06-02T08:12:25Z</time>
      </trkpt>
      <trkpt lat="46.17613" lon="-1.21937">
        <ele>8.2</ele>
        <time>2020-06-02T08:12:26Z</time>
      </trkpt>
      <trkpt lat="46.17613" lon="-1.21932">
        <ele>8.2</ele>
        <time>2020-06-02T08:12:27Z</time>
      </trkpt>
      <trkpt lat="46.17614" lon="-1.21928">
        <ele>8.3</ele>
        <time>2020-06-02T08:12:28Z</time>
      </trkpt>
      <trkpt lat="46.17616" lon="-1.21924">
        <ele>8.3</ele>
        <time>2020-06-02T08:12:29Z</time>
      </trkpt>
      <trkpt lat="46.17617" lon="-1.21923">
        <ele>8.3</ele>
        <time>2020-06-02T08:12:30Z</time>
      </trkpt>
      <trkpt lat="46.17619" lon="-1.21922">
        <ele>8.4</ele>
        <time>2020-06-02T08:12:31Z</time>
      </trkpt>
      <trkpt lat="46.1762" lon="-1.21922">
        <ele>8.4</ele>
        <time>2020-06-02T08:12:32Z</time>
      </trkpt>
      <trkpt lat="46.1762" lon="-1.21923">
        <ele>8.4</ele>
        <time>2020-06-02T08:12:33Z</time>
      </trkpt>
      <trkpt lat="46.1762" lon="-1.21923">
        <ele>8.4</ele>
        <time>2020-06-02T08:12:34Z</time>
      </trkpt>
      <trkpt lat="46.1762" lon="-1.21923">
        <ele>8.4</ele>
        <time>2020-06-02T08:12:35Z</time>
      </trkpt>
      <trkpt lat="46.1762" lon="-1.21922">
        <ele>8.4</ele>
        <time>2020-06-02T08:12:36Z</time>
      </trkpt>
      <trkpt lat="46.17621" lon="-1.21924">
        <ele>8.4</ele>
        <time>2020-06-02T08:12:37Z</time>
      </trkpt>
      <trkpt lat="46.17621" lon="-1.21924">
        <ele>8.4</ele>
        <time>2020-06-02T08:12:38Z</time>
      </trkpt>
      <trkpt lat="46.17621" lon="-1.21925">
        <ele>8.4</ele>
        <time>2020-06-02T08:12:39Z</time>
      </trkpt>
      <trkpt lat="46.17621" lon="-1.21925">
        <ele>8.4</ele>
        <time>2020-06-02T08:12:40Z</time>
      </trkpt>
      <trkpt lat="46.17621" lon="-1.21927">
        <ele>8.4</ele>
        <time>2020-06-02T08:12:41Z</time>
      </trkpt>
      <trkpt lat="46.17622" lon="-1.21928">
        <ele>8.4</ele>
        <time>2020-06-02T08:12:42Z</time>
      </trkpt>
      <trkpt lat="46.17622" lon="-1.21929">
        <ele>8.4</ele>
        <time>2020-06-02T08:12:43Z</time>
      </trkpt>
      <trkpt lat="46.17622" lon="-1.21926">
        <ele>8.5</ele>
        <time>2020-06-02T08:12:44Z</time>
      </trkpt>
      <trkpt lat="46.17623" lon="-1.21926">
        <ele>8.5</ele>
        <time>2020-06-02T08:12:45Z</time>
      </trkpt>
      <trkpt lat="46.17625" lon="-1.21925">
        <ele>8.5</ele>
        <time>2020-06-02T08:12:46Z</time>
      </trkpt>
      <trkpt lat="46.17629" lon="-1.21926">
        <ele>8.6</ele>
        <time>2020-06-02T08:12:47Z</time>
      </trkpt>
      <trkpt lat="46.17631" lon="-1.21927">
        <ele>8.6</ele>
        <time>2020-06-02T08:12:48Z</time>
      </trkpt>
      <trkpt lat="46.17635" lon="-1.21927">
        <ele>8.7</ele>
        <time>2020-06-02T08:12:49Z</time>
      </trkpt>
      <trkpt lat="46.17639" lon="-1.21928">
        <ele>8.8</ele>
        <time>2020-06-02T08:12:50Z</time>
      </trkpt>
      <trkpt lat="46.17643" lon="-1.21928">
        <ele>9</ele>
        <time>2020-06-02T08:12:51Z</time>
      </trkpt>
      <trkpt lat="46.17648" lon="-1.21928">
        <ele>9.1</ele>
        <time>2020-06-02T08:12:52Z</time>
      </trkpt>
      <trkpt lat="46.17652" lon="-1.21927">
        <ele>9.3</ele>
        <time>2020-06-02T08:12:53Z</time>
      </trkpt>
      <trkpt lat="46.17655" lon="-1.21925">
        <ele>9.4</ele>
        <time>2020-06-02T08:12:54Z</time>
      </trkpt>
      <trkpt lat="46.17659" lon="-1.21924">
        <ele>9.6</ele>
        <time>2020-06-02T08:12:55Z</time>
      </trkpt>
      <trkpt lat="46.17663" lon="-1.21924">
        <ele>9.8</ele>
        <time>2020-06-02T08:12:56Z</time>
      </trkpt>
      <trkpt lat="46.17666" lon="-1.21924">
        <ele>9.9</ele>
        <time>2020-06-02T08:12:57Z</time>
      </trkpt>
      <trkpt lat="46.1767" lon="-1.21923">
        <ele>10.1</ele>
        <time>2020-06-02T08:12:58Z</time>
      </trkpt>
      <trkpt lat="46.17673" lon="-1.21922">
        <ele>10.3</ele>
        <time>2020-06-02T08:12:59Z</time>
      </trkpt>
      <trkpt lat="46.17676" lon="-1.21921">
        <ele>10.5</ele>
        <time>2020-06-02T08:13:00Z</time>
      </trkpt>
      <trkpt lat="46.17679" lon="-1.21919">
        <ele>10.8</ele>
        <time>2020-06-02T08:13:01Z</time>
      </trkpt>
      <trkpt lat="46.17682" lon="-1.21918">
        <ele>11</ele>
        <time>2020-06-02T08:13:02Z</time>
      </trkpt>
      <trkpt lat="46.17685" lon="-1.21917">
        <ele>11.1</ele>
        <time>2020-06-02T08:13:03Z</time>
      </trkpt>
      <trkpt lat="46.17688" lon="-1.21916">
        <ele>11.3</ele>
        <time>2020-06-02T08:13:04Z</time>
      </trkpt>
      <trkpt lat="46.17691" lon="-1.21913">
        <ele>11.6</ele>
        <time>2020-06-02T08:13:05Z</time>
      </trkpt>
      <trkpt lat="46.17692" lon="-1.21912">
        <ele>11.7</ele>
        <time>2020-06-02T08:13:06Z</time>
      </trkpt>
      <trkpt lat="46.17695" lon="-1.2191">
        <ele>11.9</ele>
        <time>2020-06-02T08:13:07Z</time>
      </trkpt>
      <trkpt lat="46.17696" lon="-1.21909">
        <ele>12</ele>
        <time>2020-06-02T08:13:08Z</time>
      </trkpt>
      <trkpt lat="46.17699" lon="-1.21906">
        <ele>12.2</ele>
        <time>2020-06-02T08:13:09Z</time>
      </trkpt>
      <trkpt lat="46.17701" lon="-1.21905">
        <ele>12.3</ele>
        <time>2020-06-02T08:13:10Z</time>
      </trkpt>
      <trkpt lat="46.17703" lon="-1.21902">
        <ele>12.5</ele>
        <time>2020-06-02T08:13:11Z</time>
      </trkpt>
      <trkpt lat="46.17706" lon="-1.21897">
        <ele>12.8</ele>
        <time>2020-06-02T08:13:12Z</time>
      </trkpt>
      <trkpt lat="46.17707" lon="-1.21893">
        <ele>13</ele>
        <time>2020-06-02T08:13:13Z</time>
      </trkpt>
      <trkpt lat="46.17709" lon="-1.21887">
        <ele>13.2</ele>
        <time>2020-06-02T08:13:14Z</time>
      </trkpt>
      <trkpt lat="46.17709" lon="-1.21882">
        <ele>13.3</ele>
        <time>2020-06-02T08:13:15Z</time>
      </trkpt>
      <trkpt lat="46.17709" lon="-1.21877">
        <ele>13.4</ele>
        <time>2020-06-02T08:13:16Z</time>
      </trkpt>
      <trkpt lat="46.17708" lon="-1.21873">
        <ele>13.4</ele>
        <time>2020-06-02T08:13:17Z</time>
      </trkpt>
      <trkpt lat="46.17707" lon="-1.21867">
        <ele>13.5</ele>
        <time>2020-06-02T08:13:18Z</time>
      </trkpt>
      <trkpt lat="46.17707" lon="-1.21865">
        <ele>13.6</ele>
        <time>2020-06-02T08:13:19Z</time>
      </trkpt>
      <trkpt lat="46.17706" lon="-1.21859">
        <ele>13.7</ele>
        <time>2020-06-02T08:13:20Z</time>
      </trkpt>
      <trkpt lat="46.17704" lon="-1.21854">
        <ele>13.8</ele>
        <time>2020-06-02T08:13:21Z</time>
      </trkpt>
      <trkpt lat="46.17702" lon="-1.21848">
        <ele>14</ele>
        <time>2020-06-02T08:13:22Z</time>
      </trkpt>
      <trkpt lat="46.177" lon="-1.21842">
        <ele>14.1</ele>
        <time>2020-06-02T08:13:23Z</time>
      </trkpt>
      <trkpt lat="46.17698" lon="-1.21836">
        <ele>14.3</ele>
        <time>2020-06-02T08:13:24Z</time>
      </trkpt>
      <trkpt lat="46.17696" lon="-1.21831">
        <ele>14.4</ele>
        <time>2020-06-02T08:13:25Z</time>
      </trkpt>
      <trkpt lat="46.17695" lon="-1.21827">
        <ele>14.5</ele>
        <time>2020-06-02T08:13:26Z</time>
      </trkpt>
      <trkpt lat="46.17694" lon="-1.21823">
        <ele>14.5</ele>
        <time>2020-06-02T08:13:27Z</time>
      </trkpt>
      <trkpt lat="46.17692" lon="-1.21818">
        <ele>14.6</ele>
        <time>2020-06-02T08:13:28Z</time>
      </trkpt>
      <trkpt lat="46.17691" lon="-1.21814">
        <ele>14.7</ele>
        <time>2020-06-02T08:13:29Z</time>
      </trkpt>
      <trkpt lat="46.1769" lon="-1.21809">
        <ele>14.8</ele>
        <time>2020-06-02T08:13:30Z</time>
      </trkpt>
      <trkpt lat="46.17689" lon="-1.21803">
        <ele>14.8</ele>
        <time>2020-06-02T08:13:31Z</time>
      </trkpt>
      <trkpt lat="46.17688" lon="-1.21798">
        <ele>14.9</ele>
        <time>2020-06-02T08:13:32Z</time>
      </trkpt>
      <trkpt lat="46.17686" lon="-1.21795">
        <ele>14.9</ele>
        <time>2020-06-02T08:13:33Z</time>
      </trkpt>
      <trkpt lat="46.17685" lon="-1.21791">
        <ele>14.9</ele>
        <time>2020-06-02T08:13:34Z</time>
      </trkpt>
      <trkpt lat="46.17683" lon="-1.21785">
        <ele>15</ele>
        <time>2020-06-02T08:13:35Z</time>
      </trkpt>
      <trkpt lat="46.17681" lon="-1.2178">
        <ele>15</ele>
        <time>2020-06-02T08:13:36Z</time>
      </trkpt>
      <trkpt lat="46.17679" lon="-1.21775">
        <ele>15.1</ele>
        <time>2020-06-02T08:13:37Z</time>
      </trkpt>
      <trkpt lat="46.17678" lon="-1.21769">
        <ele>15.1</ele>
        <time>2020-06-02T08:13:38Z</time>
      </trkpt>
      <trkpt lat="46.17676" lon="-1.21763">
        <ele>15.1</ele>
        <time>2020-06-02T08:13:39Z</time>
      </trkpt>
      <trkpt lat="46.17674" lon="-1.2176">
        <ele>15.2</ele>
        <time>2020-06-02T08:13:40Z</time>
      </trkpt>
      <trkpt lat="46.17672" lon="-1.21753">
        <ele>15.2</ele>
        <time>2020-06-02T08:13:41Z</time>
      </trkpt>
      <trkpt lat="46.1767" lon="-1.21748">
        <ele>15.2</ele>
        <time>2020-06-02T08:13:42Z</time>
      </trkpt>
      <trkpt lat="46.17668" lon="-1.21743">
        <ele>15.3</ele>
        <time>2020-06-02T08:13:43Z</time>
      </trkpt>
      <trkpt lat="46.17665" lon="-1.21737">
        <ele>15.3</ele>
        <time>2020-06-02T08:13:44Z</time>
      </trkpt>
      <trkpt lat="46.17662" lon="-1.21732">
        <ele>15.3</ele>
        <time>2020-06-02T08:13:45Z</time>
      </trkpt>
      <trkpt lat="46.1766" lon="-1.21726">
        <ele>15.3</ele>
        <time>2020-06-02T08:13:46Z</time>
      </trkpt>
      <trkpt lat="46.17659" lon="-1.2172">
        <ele>15.3</ele>
        <time>2020-06-02T08:13:47Z</time>
      </trkpt>
      <trkpt lat="46.17657" lon="-1.21715">
        <ele>15.4</ele>
        <time>2020-06-02T08:13:48Z</time>
      </trkpt>
      <trkpt lat="46.17656" lon="-1.21709">
        <ele>15.4</ele>
        <time>2020-06-02T08:13:49Z</time>
      </trkpt>
      <trkpt lat="46.17654" lon="-1.21704">
        <ele>15.5</ele>
        <time>2020-06-02T08:13:50Z</time>
      </trkpt>
      <trkpt lat="46.17652" lon="-1.21697">
        <ele>15.6</ele>
        <time>2020-06-02T08:13:51Z</time>
      </trkpt>
      <trkpt lat="46.17651" lon="-1.21691">
        <ele>15.7</ele>
        <time>2020-06-02T08:13:52Z</time>
      </trkpt>
      <trkpt lat="46.17649" lon="-1.21685">
        <ele>15.7</ele>
        <time>2020-06-02T08:13:53Z</time>
      </trkpt>
      <trkpt lat="46.17647" lon="-1.21679">
        <ele>15.8</ele>
        <time>2020-06-02T08:13:54Z</time>
      </trkpt>
      <trkpt lat="46.17645" lon="-1.21673">
        <ele>15.9</ele>
        <time>2020-06-02T08:13:55Z</time>
      </trkpt>
      <trkpt lat="46.17643" lon="-1.21667">
        <ele>16</ele>
        <time>2020-06-02T08:13:56Z</time>
      </trkpt>
      <trkpt lat="46.17641" lon="-1.2166">
        <ele>16</ele>
        <time>2020-06-02T08:13:57Z</time>
      </trkpt>
      <trkpt lat="46.17639" lon="-1.21653">
        <ele>16.1</ele>
        <time>2020-06-02T08:13:58Z</time>
      </trkpt>
      <trkpt lat="46.17637" lon="-1.21647">
        <ele>16.1</ele>
        <time>2020-06-02T08:13:59Z</time>
      </trkpt>
      <trkpt lat="46.17635" lon="-1.21643">
        <ele>16.1</ele>
        <time>2020-06-02T08:14:00Z</time>
      </trkpt>
      <trkpt lat="46.17633" lon="-1.21638">
        <ele>16.2</ele>
        <time>2020-06-02T08:14:01Z</time>
      </trkpt>
      <trkpt lat="46.17631" lon="-1.21632">
        <ele>16.2</ele>
        <time>2020-06-02T08:14:02Z</time>
      </trkpt>
      <trkpt lat="46.17628" lon="-1.21624">
        <ele>16.2</ele>
        <time>2020-06-02T08:14:03Z</time>
      </trkpt>
      <trkpt lat="46.17626" lon="-1.21617">
        <ele>16.2</ele>
        <time>2020-06-02T08:14:04Z</time>
      </trkpt>
      <trkpt lat="46.17625" lon="-1.21611">
        <ele>16.2</ele>
        <time>2020-06-02T08:14:05Z</time>
      </trkpt>
      <trkpt lat="46.17623" lon="-1.21605">
        <ele>16.2</ele>
        <time>2020-06-02T08:14:06Z</time>
      </trkpt>
      <trkpt lat="46.17621" lon="-1.21599">
        <ele>16.2</ele>
        <time>2020-06-02T08:14:07Z</time>
      </trkpt>
      <trkpt lat="46.17619" lon="-1.21593">
        <ele>16.2</ele>
        <time>2020-06-02T08:14:08Z</time>
      </trkpt>
      <trkpt lat="46.17617" lon="-1.21586">
        <ele>16.3</ele>
        <time>2020-06-02T08:14:09Z</time>
      </trkpt>
      <trkpt lat="46.17616" lon="-1.2158">
        <ele>16.3</ele>
        <time>2020-06-02T08:14:10Z</time>
      </trkpt>
      <trkpt lat="46.17615" lon="-1.21574">
        <ele>16.3</ele>
        <time>2020-06-02T08:14:11Z</time>
      </trkpt>
      <trkpt lat="46.17613" lon="-1.21569">
        <ele>16.3</ele>
        <time>2020-06-02T08:14:12Z</time>
      </trkpt>
      <trkpt lat="46.17612" lon="-1.21562">
        <ele>16.3</ele>
        <time>2020-06-02T08:14:13Z</time>
      </trkpt>
      <trkpt lat="46.17611" lon="-1.21555">
        <ele>16.3</ele>
        <time>2020-06-02T08:14:14Z</time>
      </trkpt>
      <trkpt lat="46.17609" lon="-1.21548">
        <ele>16.3</ele>
        <time>2020-06-02T08:14:15Z</time>
      </trkpt>
      <trkpt lat="46.17608" lon="-1.21538">
        <ele>16.3</ele>
        <time>2020-06-02T08:14:16Z</time>
      </trkpt>
      <trkpt lat="46.17608" lon="-1.21532">
        <ele>16.3</ele>
        <time>2020-06-02T08:14:17Z</time>
      </trkpt>
      <trkpt lat="46.17607" lon="-1.21522">
        <ele>16.3</ele>
        <time>2020-06-02T08:14:18Z</time>
      </trkpt>
      <trkpt lat="46.17606" lon="-1.21514">
        <ele>16.3</ele>
        <time>2020-06-02T08:14:19Z</time>
      </trkpt>
      <trkpt lat="46.17607" lon="-1.21506">
        <ele>16.3</ele>
        <time>2020-06-02T08:14:20Z</time>
      </trkpt>
      <trkpt lat="46.17607" lon="-1.21499">
        <ele>16.3</ele>
        <time>2020-06-02T08:14:21Z</time>
      </trkpt>
      <trkpt lat="46.17607" lon="-1.21491">
        <ele>16.3</ele>
        <time>2020-06-02T08:14:22Z</time>
      </trkpt>
      <trkpt lat="46.17608" lon="-1.21484">
        <ele>16.3</ele>
        <time>2020-06-02T08:14:23Z</time>
      </trkpt>
      <trkpt lat="46.17608" lon="-1.21476">
        <ele>16.2</ele>
        <time>2020-06-02T08:14:24Z</time>
      </trkpt>
      <trkpt lat="46.17609" lon="-1.21469">
        <ele>16.2</ele>
        <time>2020-06-02T08:14:25Z</time>
      </trkpt>
      <trkpt lat="46.1761" lon="-1.21461">
        <ele>16.2</ele>
        <time>2020-06-02T08:14:26Z</time>
      </trkpt>
      <trkpt lat="46.17613" lon="-1.21453">
        <ele>16.2</ele>
        <time>2020-06-02T08:14:27Z</time>
      </trkpt>
      <trkpt lat="46.17613" lon="-1.21446">
        <ele>16.2</ele>
        <time>2020-06-02T08:14:28Z</time>
      </trkpt>
      <trkpt lat="46.17616" lon="-1.21439">
        <ele>16.2</ele>
        <time>2020-06-02T08:14:29Z</time>
      </trkpt>
      <trkpt lat="46.17617" lon="-1.21434">
        <ele>16.2</ele>
        <time>2020-06-02T08:14:30Z</time>
      </trkpt>
      <trkpt lat="46.17618" lon="-1.21429">
        <ele>16.2</ele>
        <time>2020-06-02T08:14:31Z</time>
      </trkpt>
      <trkpt lat="46.17618" lon="-1.21423">
        <ele>16.2</ele>
        <time>2020-06-02T08:14:32Z</time>
      </trkpt>
      <trkpt lat="46.17619" lon="-1.21417">
        <ele>16.2</ele>
        <time>2020-06-02T08:14:33Z</time>
      </trkpt>
      <trkpt lat="46.17619" lon="-1.2141">
        <ele>16.2</ele>
        <time>2020-06-02T08:14:34Z</time>
      </trkpt>
      <trkpt lat="46.17619" lon="-1.21404">
        <ele>16.2</ele>
        <time>2020-06-02T08:14:35Z</time>
      </trkpt>
      <trkpt lat="46.1762" lon="-1.21397">
        <ele>16.3</ele>
        <time>2020-06-02T08:14:36Z</time>
      </trkpt>
      <trkpt lat="46.1762" lon="-1.21391">
        <ele>16.3</ele>
        <time>2020-06-02T08:14:37Z</time>
      </trkpt>
      <trkpt lat="46.17621" lon="-1.21385">
        <ele>16.3</ele>
        <time>2020-06-02T08:14:38Z</time>
      </trkpt>
      <trkpt lat="46.17622" lon="-1.21377">
        <ele>16.3</ele>
        <time>2020-06-02T08:14:39Z</time>
      </trkpt>
      <trkpt lat="46.17622" lon="-1.21372">
        <ele>16.3</ele>
        <time>2020-06-02T08:14:40Z</time>
      </trkpt>
      <trkpt lat="46.17623" lon="-1.21365">
        <ele>16.3</ele>
        <time>2020-06-02T08:14:41Z</time>
      </trkpt>
      <trkpt lat="46.17624" lon="-1.21358">
        <ele>16.3</ele>
        <time>2020-06-02T08:14:42Z</time>
      </trkpt>
      <trkpt lat="46.17624" lon="-1.21353">
        <ele>16.4</ele>
        <time>2020-06-02T08:14:43Z</time>
      </trkpt>
      <trkpt lat="46.17625" lon="-1.21347">
        <ele>16.4</ele>
        <time>2020-06-02T08:14:44Z</time>
      </trkpt>
      <trkpt lat="46.17625" lon="-1.21341">
        <ele>16.4</ele>
        <time>2020-06-02T08:14:45Z</time>
      </trkpt>
      <trkpt lat="46.17625" lon="-1.21335">
        <ele>16.4</ele>
        <time>2020-06-02T08:14:46Z</time>
      </trkpt>
      <trkpt lat="46.17626" lon="-1.21328">
        <ele>16.4</ele>
        <time>2020-06-02T08:14:47Z</time>
      </trkpt>
      <trkpt lat="46.17627" lon="-1.21321">
        <ele>16.4</ele>
        <time>2020-06-02T08:14:48Z</time>
      </trkpt>
      <trkpt lat="46.17627" lon="-1.21315">
        <ele>16.4</ele>
        <time>2020-06-02T08:14:49Z</time>
      </trkpt>
      <trkpt lat="46.17627" lon="-1.2131">
        <ele>16.4</ele>
        <time>2020-06-02T08:14:50Z</time>
      </trkpt>
      <trkpt lat="46.17628" lon="-1.21302">
        <ele>16.4</ele>
        <time>2020-06-02T08:14:51Z</time>
      </trkpt>
      <trkpt lat="46.17628" lon="-1.21295">
        <ele>16.3</ele>
        <time>2020-06-02T08:14:52Z</time>
      </trkpt>
      <trkpt lat="46.17629" lon="-1.21287">
        <ele>16.3</ele>
        <time>2020-06-02T08:14:53Z</time>
      </trkpt>
      <trkpt lat="46.1763" lon="-1.21281">
        <ele>16.3</ele>
        <time>2020-06-02T08:14:54Z</time>
      </trkpt>
      <trkpt lat="46.17631" lon="-1.21275">
        <ele>16.3</ele>
        <time>2020-06-02T08:14:55Z</time>
      </trkpt>
      <trkpt lat="46.17632" lon="-1.21271">
        <ele>16.2</ele>
        <time>2020-06-02T08:14:56Z</time>
      </trkpt>
      <trkpt lat="46.17632" lon="-1.21265">
        <ele>16.2</ele>
        <time>2020-06-02T08:14:57Z</time>
      </trkpt>
      <trkpt lat="46.17633" lon="-1.21257">
        <ele>16.1</ele>
        <time>2020-06-02T08:14:58Z</time>
      </trkpt>
      <trkpt lat="46.17634" lon="-1.21248">
        <ele>16</ele>
        <time>2020-06-02T08:14:59Z</time>
      </trkpt>
      <trkpt lat="46.17634" lon="-1.21242">
        <ele>16</ele>
        <time>2020-06-02T08:15:00Z</time>
      </trkpt>
      <trkpt lat="46.17635" lon="-1.21235">
        <ele>15.9</ele>
        <time>2020-06-02T08:15:01Z</time>
      </trkpt>
      <trkpt lat="46.17635" lon="-1.2123">
        <ele>15.8</ele>
        <time>2020-06-02T08:15:02Z</time>
      </trkpt>
      <trkpt lat="46.17636" lon="-1.21224">
        <ele>15.8</ele>
        <time>2020-06-02T08:15:03Z</time>
      </trkpt>
      <trkpt lat="46.17638" lon="-1.21218">
        <ele>15.7</ele>
        <time>2020-06-02T08:15:04Z</time>
      </trkpt>
      <trkpt lat="46.17641" lon="-1.21211">
        <ele>15.6</ele>
        <time>2020-06-02T08:15:05Z</time>
      </trkpt>
      <trkpt lat="46.17644" lon="-1.21206">
        <ele>15.6</ele>
        <time>2020-06-02T08:15:06Z</time>
      </trkpt>
      <trkpt lat="46.17646" lon="-1.212">
        <ele>15.5</ele>
        <time>2020-06-02T08:15:07Z</time>
      </trkpt>
      <trkpt lat="46.17648" lon="-1.21194">
        <ele>15.4</ele>
        <time>2020-06-02T08:15:08Z</time>
      </trkpt>
      <trkpt lat="46.1765" lon="-1.21188">
        <ele>15.4</ele>
        <time>2020-06-02T08:15:09Z</time>
      </trkpt>
      <trkpt lat="46.17653" lon="-1.21185">
        <ele>15.4</ele>
        <time>2020-06-02T08:15:10Z</time>
      </trkpt>
      <trkpt lat="46.17653" lon="-1.21183">
        <ele>15.4</ele>
        <time>2020-06-02T08:15:11Z</time>
      </trkpt>
      <trkpt lat="46.17657" lon="-1.21179">
        <ele>15.3</ele>
        <time>2020-06-02T08:15:12Z</time>
      </trkpt>
      <trkpt lat="46.17658" lon="-1.21178">
        <ele>15.3</ele>
        <time>2020-06-02T08:15:13Z</time>
      </trkpt>
      <trkpt lat="46.17663" lon="-1.21175">
        <ele>15.3</ele>
        <time>2020-06-02T08:15:14Z</time>
      </trkpt>
      <trkpt lat="46.17666" lon="-1.21173">
        <ele>15.3</ele>
        <time>2020-06-02T08:15:15Z</time>
      </trkpt>
      <trkpt lat="46.17669" lon="-1.21172">
        <ele>15.2</ele>
        <time>2020-06-02T08:15:16Z</time>
      </trkpt>
      <trkpt lat="46.17674" lon="-1.21172">
        <ele>15.2</ele>
        <time>2020-06-02T08:15:17Z</time>
      </trkpt>
      <trkpt lat="46.17678" lon="-1.21173">
        <ele>15.2</ele>
        <time>2020-06-02T08:15:18Z</time>
      </trkpt>
      <trkpt lat="46.17682" lon="-1.21174">
        <ele>15.2</ele>
        <time>2020-06-02T08:15:19Z</time>
      </trkpt>
      <trkpt lat="46.17687" lon="-1.21174">
        <ele>15.2</ele>
        <time>2020-06-02T08:15:20Z</time>
      </trkpt>
      <trkpt lat="46.17693" lon="-1.21175">
        <ele>15.2</ele>
        <time>2020-06-02T08:15:21Z</time>
      </trkpt>
      <trkpt lat="46.17699" lon="-1.21176">
        <ele>15.2</ele>
        <time>2020-06-02T08:15:22Z</time>
      </trkpt>
      <trkpt lat="46.17704" lon="-1.21177">
        <ele>15.2</ele>
        <time>2020-06-02T08:15:23Z</time>
      </trkpt>
      <trkpt lat="46.17709" lon="-1.21178">
        <ele>15.2</ele>
        <time>2020-06-02T08:15:24Z</time>
      </trkpt>
      <trkpt lat="46.17714" lon="-1.21179">
        <ele>15.2</ele>
        <time>2020-06-02T08:15:25Z</time>
      </trkpt>
      <trkpt lat="46.1772" lon="-1.21181">
        <ele>15.1</ele>
        <time>2020-06-02T08:15:26Z</time>
      </trkpt>
      <trkpt lat="46.17725" lon="-1.21183">
        <ele>15.1</ele>
        <time>2020-06-02T08:15:27Z</time>
      </trkpt>
      <trkpt lat="46.17728" lon="-1.21185">
        <ele>15.1</ele>
        <time>2020-06-02T08:15:28Z</time>
      </trkpt>
      <trkpt lat="46.17732" lon="-1.21186">
        <ele>15.1</ele>
        <time>2020-06-02T08:15:29Z</time>
      </trkpt>
      <trkpt lat="46.17736" lon="-1.21188">
        <ele>15.1</ele>
        <time>2020-06-02T08:15:30Z</time>
      </trkpt>
      <trkpt lat="46.17739" lon="-1.2119">
        <ele>15.1</ele>
        <time>2020-06-02T08:15:31Z</time>
      </trkpt>
      <trkpt lat="46.17743" lon="-1.21191">
        <ele>15.1</ele>
        <time>2020-06-02T08:15:32Z</time>
      </trkpt>
      <trkpt lat="46.17746" lon="-1.21189">
        <ele>15.1</ele>
        <time>2020-06-02T08:15:33Z</time>
      </trkpt>
      <trkpt lat="46.17749" lon="-1.21186">
        <ele>15.1</ele>
        <time>2020-06-02T08:15:34Z</time>
      </trkpt>
      <trkpt lat="46.17749" lon="-1.21181">
        <ele>15.1</ele>
        <time>2020-06-02T08:15:35Z</time>
      </trkpt>
      <trkpt lat="46.17753" lon="-1.21179">
        <ele>15.1</ele>
        <time>2020-06-02T08:15:36Z</time>
      </trkpt>
      <trkpt lat="46.17755" lon="-1.2118">
        <ele>15.1</ele>
        <time>2020-06-02T08:15:37Z</time>
      </trkpt>
      <trkpt lat="46.17759" lon="-1.21182">
        <ele>15.1</ele>
        <time>2020-06-02T08:15:38Z</time>
      </trkpt>
      <trkpt lat="46.17763" lon="-1.21182">
        <ele>15.1</ele>
        <time>2020-06-02T08:15:39Z</time>
      </trkpt>
      <trkpt lat="46.17766" lon="-1.21184">
        <ele>15.1</ele>
        <time>2020-06-02T08:15:40Z</time>
      </trkpt>
      <trkpt lat="46.1777" lon="-1.21182">
        <ele>15.1</ele>
        <time>2020-06-02T08:15:41Z</time>
      </trkpt>
      <trkpt lat="46.17772" lon="-1.21178">
        <ele>15.1</ele>
        <time>2020-06-02T08:15:42Z</time>
      </trkpt>
      <trkpt lat="46.17773" lon="-1.21173">
        <ele>15.1</ele>
        <time>2020-06-02T08:15:43Z</time>
      </trkpt>
      <trkpt lat="46.1777" lon="-1.21168">
        <ele>15.1</ele>
        <time>2020-06-02T08:15:44Z</time>
      </trkpt>
      <trkpt lat="46.17768" lon="-1.21164">
        <ele>15.1</ele>
        <time>2020-06-02T08:15:45Z</time>
      </trkpt>
      <trkpt lat="46.17765" lon="-1.2116">
        <ele>15.1</ele>
        <time>2020-06-02T08:15:46Z</time>
      </trkpt>
      <trkpt lat="46.17762" lon="-1.21155">
        <ele>15.1</ele>
        <time>2020-06-02T08:15:47Z</time>
      </trkpt>
      <trkpt lat="46.17759" lon="-1.21151">
        <ele>15.1</ele>
        <time>2020-06-02T08:15:48Z</time>
      </trkpt>
      <trkpt lat="46.17756" lon="-1.21147">
        <ele>15.1</ele>
        <time>2020-06-02T08:15:49Z</time>
      </trkpt>
      <trkpt lat="46.17754" lon="-1.21143">
        <ele>15.1</ele>
        <time>2020-06-02T08:15:50Z</time>
      </trkpt>
      <trkpt lat="46.17751" lon="-1.21139">
        <ele>15.1</ele>
        <time>2020-06-02T08:15:51Z</time>
      </trkpt>
      <trkpt lat="46.17749" lon="-1.21135">
        <ele>15.1</ele>
        <time>2020-06-02T08:15:52Z</time>
      </trkpt>
      <trkpt lat="46.17747" lon="-1.21132">
        <ele>15.1</ele>
        <time>2020-06-02T08:15:53Z</time>
      </trkpt>
      <trkpt lat="46.17745" lon="-1.21128">
        <ele>15.1</ele>
        <time>2020-06-02T08:15:54Z</time>
      </trkpt>
      <trkpt lat="46.17743" lon="-1.21124">
        <ele>15.1</ele>
        <time>2020-06-02T08:15:55Z</time>
      </trkpt>
      <trkpt lat="46.17741" lon="-1.2112">
        <ele>15.1</ele>
        <time>2020-06-02T08:15:56Z</time>
      </trkpt>
      <trkpt lat="46.17738" lon="-1.21117">
        <ele>15.1</ele>
        <time>2020-06-02T08:15:57Z</time>
      </trkpt>
      <trkpt lat="46.17736" lon="-1.21113">
        <ele>15.1</ele>
        <time>2020-06-02T08:15:58Z</time>
      </trkpt>
      <trkpt lat="46.17734" lon="-1.2111">
        <ele>15.1</ele>
        <time>2020-06-02T08:15:59Z</time>
      </trkpt>
      <trkpt lat="46.17732" lon="-1.21106">
        <ele>15.1</ele>
        <time>2020-06-02T08:16:00Z</time>
      </trkpt>
      <trkpt lat="46.17728" lon="-1.21103">
        <ele>15.1</ele>
        <time>2020-06-02T08:16:01Z</time>
      </trkpt>
      <trkpt lat="46.17724" lon="-1.21099">
        <ele>15.1</ele>
        <time>2020-06-02T08:16:02Z</time>
      </trkpt>
      <trkpt lat="46.17721" lon="-1.21095">
        <ele>15.1</ele>
        <time>2020-06-02T08:16:03Z</time>
      </trkpt>
      <trkpt lat="46.17718" lon="-1.2109">
        <ele>15.1</ele>
        <time>2020-06-02T08:16:04Z</time>
      </trkpt>
      <trkpt lat="46.17715" lon="-1.21085">
        <ele>15.1</ele>
        <time>2020-06-02T08:16:05Z</time>
      </trkpt>
      <trkpt lat="46.17712" lon="-1.2108">
        <ele>15.1</ele>
        <time>2020-06-02T08:16:06Z</time>
      </trkpt>
      <trkpt lat="46.17709" lon="-1.21074">
        <ele>15.1</ele>
        <time>2020-06-02T08:16:07Z</time>
      </trkpt>
      <trkpt lat="46.17707" lon="-1.21068">
        <ele>15.1</ele>
        <time>2020-06-02T08:16:08Z</time>
      </trkpt>
      <trkpt lat="46.17705" lon="-1.21062">
        <ele>15.1</ele>
        <time>2020-06-02T08:16:09Z</time>
      </trkpt>
      <trkpt lat="46.17702" lon="-1.21057">
        <ele>15.1</ele>
        <time>2020-06-02T08:16:10Z</time>
      </trkpt>
      <trkpt lat="46.17699" lon="-1.2105">
        <ele>15.1</ele>
        <time>2020-06-02T08:16:11Z</time>
      </trkpt>
      <trkpt lat="46.17695" lon="-1.21045">
        <ele>15.2</ele>
        <time>2020-06-02T08:16:12Z</time>
      </trkpt>
      <trkpt lat="46.17693" lon="-1.2104">
        <ele>15.2</ele>
        <time>2020-06-02T08:16:13Z</time>
      </trkpt>
      <trkpt lat="46.1769" lon="-1.21035">
        <ele>15.2</ele>
        <time>2020-06-02T08:16:14Z</time>
      </trkpt>
      <trkpt lat="46.17687" lon="-1.2103">
        <ele>15.2</ele>
        <time>2020-06-02T08:16:15Z</time>
      </trkpt>
      <trkpt lat="46.17684" lon="-1.21024">
        <ele>15.2</ele>
        <time>2020-06-02T08:16:16Z</time>
      </trkpt>
      <trkpt lat="46.1768" lon="-1.2102">
        <ele>15.3</ele>
        <time>2020-06-02T08:16:17Z</time>
      </trkpt>
      <trkpt lat="46.17677" lon="-1.21015">
        <ele>15.3</ele>
        <time>2020-06-02T08:16:18Z</time>
      </trkpt>
      <trkpt lat="46.17674" lon="-1.21009">
        <ele>15.3</ele>
        <time>2020-06-02T08:16:19Z</time>
      </trkpt>
      <trkpt lat="46.17671" lon="-1.21006">
        <ele>15.3</ele>
        <time>2020-06-02T08:16:20Z</time>
      </trkpt>
      <trkpt lat="46.17668" lon="-1.21001">
        <ele>15.3</ele>
        <time>2020-06-02T08:16:21Z</time>
      </trkpt>
      <trkpt lat="46.17665" lon="-1.20996">
        <ele>15.3</ele>
        <time>2020-06-02T08:16:22Z</time>
      </trkpt>
      <trkpt lat="46.17661" lon="-1.20991">
        <ele>15.3</ele>
        <time>2020-06-02T08:16:23Z</time>
      </trkpt>
      <trkpt lat="46.17659" lon="-1.20986">
        <ele>15.3</ele>
        <time>2020-06-02T08:16:24Z</time>
      </trkpt>
      <trkpt lat="46.17656" lon="-1.2098">
        <ele>15.3</ele>
        <time>2020-06-02T08:16:25Z</time>
      </trkpt>
      <trkpt lat="46.17652" lon="-1.20975">
        <ele>15.3</ele>
        <time>2020-06-02T08:16:26Z</time>
      </trkpt>
      <trkpt lat="46.17649" lon="-1.2097">
        <ele>15.3</ele>
        <time>2020-06-02T08:16:27Z</time>
      </trkpt>
      <trkpt lat="46.17645" lon="-1.20964">
        <ele>15.3</ele>
        <time>2020-06-02T08:16:28Z</time>
      </trkpt>
      <trkpt lat="46.17642" lon="-1.20959">
        <ele>15.3</ele>
        <time>2020-06-02T08:16:29Z</time>
      </trkpt>
      <trkpt lat="46.17638" lon="-1.20953">
        <ele>15.3</ele>
        <time>2020-06-02T08:16:30Z</time>
      </trkpt>
      <trkpt lat="46.17634" lon="-1.20947">
        <ele>15.3</ele>
        <time>2020-06-02T08:16:31Z</time>
      </trkpt>
      <trkpt lat="46.17631" lon="-1.20941">
        <ele>15.3</ele>
        <time>2020-06-02T08:16:32Z</time>
      </trkpt>
      <trkpt lat="46.17628" lon="-1.20936">
        <ele>15.3</ele>
        <time>2020-06-02T08:16:33Z</time>
      </trkpt>
      <trkpt lat="46.17624" lon="-1.20931">
        <ele>15.3</ele>
        <time>2020-06-02T08:16:34Z</time>
      </trkpt>
      <trkpt lat="46.17621" lon="-1.20926">
        <ele>15.3</ele>
        <time>2020-06-02T08:16:35Z</time>
      </trkpt>
      <trkpt lat="46.17618" lon="-1.2092">
        <ele>15.3</ele>
        <time>2020-06-02T08:16:36Z</time>
      </trkpt>
      <trkpt lat="46.17615" lon="-1.20913">
        <ele>15.3</ele>
        <time>2020-06-02T08:16:37Z</time>
      </trkpt>
      <trkpt lat="46.17612" lon="-1.20908">
        <ele>15.3</ele>
        <time>2020-06-02T08:16:38Z</time>
      </trkpt>
      <trkpt lat="46.17609" lon="-1.20903">
        <ele>15.3</ele>
        <time>2020-06-02T08:16:39Z</time>
      </trkpt>
      <trkpt lat="46.17607" lon="-1.20897">
        <ele>15.3</ele>
        <time>2020-06-02T08:16:40Z</time>
      </trkpt>
      <trkpt lat="46.17603" lon="-1.20891">
        <ele>15.3</ele>
        <time>2020-06-02T08:16:41Z</time>
      </trkpt>
      <trkpt lat="46.17601" lon="-1.20886">
        <ele>15.3</ele>
        <time>2020-06-02T08:16:42Z</time>
      </trkpt>
      <trkpt lat="46.17598" lon="-1.2088">
        <ele>15.3</ele>
        <time>2020-06-02T08:16:43Z</time>
      </trkpt>
      <trkpt lat="46.17596" lon="-1.20874">
        <ele>15.3</ele>
        <time>2020-06-02T08:16:44Z</time>
      </trkpt>
      <trkpt lat="46.17594" lon="-1.20868">
        <ele>15.3</ele>
        <time>2020-06-02T08:16:45Z</time>
      </trkpt>
      <trkpt lat="46.17592" lon="-1.20862">
        <ele>15.2</ele>
        <time>2020-06-02T08:16:46Z</time>
      </trkpt>
      <trkpt lat="46.17589" lon="-1.20857">
        <ele>15.2</ele>
        <time>2020-06-02T08:16:47Z</time>
      </trkpt>
      <trkpt lat="46.17587" lon="-1.20851">
        <ele>15.2</ele>
        <time>2020-06-02T08:16:48Z</time>
      </trkpt>
      <trkpt lat="46.17584" lon="-1.20847">
        <ele>15.1</ele>
        <time>2020-06-02T08:16:49Z</time>
      </trkpt>
      <trkpt lat="46.17582" lon="-1.20841">
        <ele>15.1</ele>
        <time>2020-06-02T08:16:50Z</time>
      </trkpt>
      <trkpt lat="46.1758" lon="-1.20835">
        <ele>15</ele>
        <time>2020-06-02T08:16:51Z</time>
      </trkpt>
      <trkpt lat="46.17578" lon="-1.20829">
        <ele>14.9</ele>
        <time>2020-06-02T08:16:52Z</time>
      </trkpt>
      <trkpt lat="46.17576" lon="-1.20824">
        <ele>14.8</ele>
        <time>2020-06-02T08:16:53Z</time>
      </trkpt>
      <trkpt lat="46.17574" lon="-1.20816">
        <ele>14.7</ele>
        <time>2020-06-02T08:16:54Z</time>
      </trkpt>
      <trkpt lat="46.17572" lon="-1.20809">
        <ele>14.6</ele>
        <time>2020-06-02T08:16:55Z</time>
      </trkpt>
      <trkpt lat="46.1757" lon="-1.20802">
        <ele>14.5</ele>
        <time>2020-06-02T08:16:56Z</time>
      </trkpt>
      <trkpt lat="46.17569" lon="-1.20794">
        <ele>14.4</ele>
        <time>2020-06-02T08:16:57Z</time>
      </trkpt>
      <trkpt lat="46.17567" lon="-1.20786">
        <ele>14.3</ele>
        <time>2020-06-02T08:16:58Z</time>
      </trkpt>
      <trkpt lat="46.17567" lon="-1.20779">
        <ele>14.1</ele>
        <time>2020-06-02T08:16:59Z</time>
      </trkpt>
      <trkpt lat="46.17566" lon="-1.20771">
        <ele>14</ele>
        <time>2020-06-02T08:17:00Z</time>
      </trkpt>
      <trkpt lat="46.17565" lon="-1.20764">
        <ele>13.9</ele>
        <time>2020-06-02T08:17:01Z</time>
      </trkpt>
      <trkpt lat="46.17563" lon="-1.20756">
        <ele>13.8</ele>
        <time>2020-06-02T08:17:02Z</time>
      </trkpt>
      <trkpt lat="46.17562" lon="-1.20747">
        <ele>13.7</ele>
        <time>2020-06-02T08:17:03Z</time>
      </trkpt>
      <trkpt lat="46.17561" lon="-1.20739">
        <ele>13.6</ele>
        <time>2020-06-02T08:17:04Z</time>
      </trkpt>
      <trkpt lat="46.17561" lon="-1.20733">
        <ele>13.6</ele>
        <time>2020-06-02T08:17:05Z</time>
      </trkpt>
      <trkpt lat="46.1756" lon="-1.20725">
        <ele>13.5</ele>
        <time>2020-06-02T08:17:06Z</time>
      </trkpt>
      <trkpt lat="46.17559" lon="-1.20718">
        <ele>13.4</ele>
        <time>2020-06-02T08:17:07Z</time>
      </trkpt>
      <trkpt lat="46.17558" lon="-1.20712">
        <ele>13.3</ele>
        <time>2020-06-02T08:17:08Z</time>
      </trkpt>
      <trkpt lat="46.17556" lon="-1.20706">
        <ele>13.2</ele>
        <time>2020-06-02T08:17:09Z</time>
      </trkpt>
      <trkpt lat="46.17555" lon="-1.20699">
        <ele>13.2</ele>
        <time>2020-06-02T08:17:10Z</time>
      </trkpt>
      <trkpt lat="46.17553" lon="-1.20693">
        <ele>13.1</ele>
        <time>2020-06-02T08:17:11Z</time>
      </trkpt>
      <trkpt lat="46.17549" lon="-1.20688">
        <ele>13.1</ele>
        <time>2020-06-02T08:17:12Z</time>
      </trkpt>
      <trkpt lat="46.17546" lon="-1.20682">
        <ele>13</ele>
        <time>2020-06-02T08:17:13Z</time>
      </trkpt>
      <trkpt lat="46.17543" lon="-1.20677">
        <ele>13</ele>
        <time>2020-06-02T08:17:14Z</time>
      </trkpt>
      <trkpt lat="46.1754" lon="-1.20671">
        <ele>13</ele>
        <time>2020-06-02T08:17:15Z</time>
      </trkpt>
      <trkpt lat="46.17537" lon="-1.20665">
        <ele>13</ele>
        <time>2020-06-02T08:17:16Z</time>
      </trkpt>
      <trkpt lat="46.17535" lon="-1.20659">
        <ele>13</ele>
        <time>2020-06-02T08:17:17Z</time>
      </trkpt>
      <trkpt lat="46.17533" lon="-1.20652">
        <ele>13</ele>
        <time>2020-06-02T08:17:18Z</time>
      </trkpt>
      <trkpt lat="46.17531" lon="-1.20646">
        <ele>12.9</ele>
        <time>2020-06-02T08:17:19Z</time>
      </trkpt>
      <trkpt lat="46.17528" lon="-1.20639">
        <ele>12.9</ele>
        <time>2020-06-02T08:17:20Z</time>
      </trkpt>
      <trkpt lat="46.17526" lon="-1.20632">
        <ele>12.9</ele>
        <time>2020-06-02T08:17:21Z</time>
      </trkpt>
      <trkpt lat="46.17524" lon="-1.20625">
        <ele>12.8</ele>
        <time>2020-06-02T08:17:22Z</time>
      </trkpt>
      <trkpt lat="46.17523" lon="-1.20618">
        <ele>12.8</ele>
        <time>2020-06-02T08:17:23Z</time>
      </trkpt>
      <trkpt lat="46.17521" lon="-1.2061">
        <ele>12.7</ele>
        <time>2020-06-02T08:17:24Z</time>
      </trkpt>
      <trkpt lat="46.1752" lon="-1.20603">
        <ele>12.6</ele>
        <time>2020-06-02T08:17:25Z</time>
      </trkpt>
      <trkpt lat="46.1752" lon="-1.20595">
        <ele>12.5</ele>
        <time>2020-06-02T08:17:26Z</time>
      </trkpt>
      <trkpt lat="46.1752" lon="-1.20588">
        <ele>12.4</ele>
        <time>2020-06-02T08:17:27Z</time>
      </trkpt>
      <trkpt lat="46.1752" lon="-1.20581">
        <ele>12.4</ele>
        <time>2020-06-02T08:17:28Z</time>
      </trkpt>
      <trkpt lat="46.17519" lon="-1.20575">
        <ele>12.3</ele>
        <time>2020-06-02T08:17:29Z</time>
      </trkpt>
      <trkpt lat="46.17517" lon="-1.20569">
        <ele>12.2</ele>
        <time>2020-06-02T08:17:30Z</time>
      </trkpt>
      <trkpt lat="46.17515" lon="-1.20563">
        <ele>12.2</ele>
        <time>2020-06-02T08:17:31Z</time>
      </trkpt>
      <trkpt lat="46.17514" lon="-1.20557">
        <ele>12.1</ele>
        <time>2020-06-02T08:17:32Z</time>
      </trkpt>
      <trkpt lat="46.17511" lon="-1.2055">
        <ele>12</ele>
        <time>2020-06-02T08:17:33Z</time>
      </trkpt>
      <trkpt lat="46.1751" lon="-1.20543">
        <ele>11.9</ele>
        <time>2020-06-02T08:17:34Z</time>
      </trkpt>
      <trkpt lat="46.17508" lon="-1.20537">
        <ele>11.9</ele>
        <time>2020-06-02T08:17:35Z</time>
      </trkpt>
      <trkpt lat="46.17506" lon="-1.20531">
        <ele>11.8</ele>
        <time>2020-06-02T08:17:36Z</time>
      </trkpt>
      <trkpt lat="46.17504" lon="-1.20524">
        <ele>11.8</ele>
        <time>2020-06-02T08:17:37Z</time>
      </trkpt>
      <trkpt lat="46.17503" lon="-1.20517">
        <ele>11.8</ele>
        <time>2020-06-02T08:17:38Z</time>
      </trkpt>
      <trkpt lat="46.17499" lon="-1.20511">
        <ele>11.7</ele>
        <time>2020-06-02T08:17:39Z</time>
      </trkpt>
      <trkpt lat="46.17497" lon="-1.20506">
        <ele>11.7</ele>
        <time>2020-06-02T08:17:40Z</time>
      </trkpt>
      <trkpt lat="46.17496" lon="-1.205">
        <ele>11.6</ele>
        <time>2020-06-02T08:17:41Z</time>
      </trkpt>
      <trkpt lat="46.17494" lon="-1.20494">
        <ele>11.6</ele>
        <time>2020-06-02T08:17:42Z</time>
      </trkpt>
      <trkpt lat="46.17493" lon="-1.20486">
        <ele>11.5</ele>
        <time>2020-06-02T08:17:43Z</time>
      </trkpt>
      <trkpt lat="46.17491" lon="-1.20479">
        <ele>11.4</ele>
        <time>2020-06-02T08:17:44Z</time>
      </trkpt>
      <trkpt lat="46.1749" lon="-1.2047">
        <ele>11.4</ele>
        <time>2020-06-02T08:17:45Z</time>
      </trkpt>
      <trkpt lat="46.17488" lon="-1.20463">
        <ele>11.3</ele>
        <time>2020-06-02T08:17:46Z</time>
      </trkpt>
      <trkpt lat="46.17486" lon="-1.20456">
        <ele>11.2</ele>
        <time>2020-06-02T08:17:47Z</time>
      </trkpt>
      <trkpt lat="46.17484" lon="-1.20449">
        <ele>11.2</ele>
        <time>2020-06-02T08:17:48Z</time>
      </trkpt>
      <trkpt lat="46.17483" lon="-1.20443">
        <ele>11.1</ele>
        <time>2020-06-02T08:17:49Z</time>
      </trkpt>
      <trkpt lat="46.17481" lon="-1.20437">
        <ele>11</ele>
        <time>2020-06-02T08:17:50Z</time>
      </trkpt>
      <trkpt lat="46.17479" lon="-1.2043">
        <ele>11</ele>
        <time>2020-06-02T08:17:51Z</time>
      </trkpt>
      <trkpt lat="46.17478" lon="-1.20423">
        <ele>10.9</ele>
        <time>2020-06-02T08:17:52Z</time>
      </trkpt>
      <trkpt lat="46.17476" lon="-1.20417">
        <ele>10.8</ele>
        <time>2020-06-02T08:17:53Z</time>
      </trkpt>
      <trkpt lat="46.17474" lon="-1.2041">
        <ele>10.7</ele>
        <time>2020-06-02T08:17:54Z</time>
      </trkpt>
      <trkpt lat="46.17472" lon="-1.20403">
        <ele>10.6</ele>
        <time>2020-06-02T08:17:55Z</time>
      </trkpt>
      <trkpt lat="46.17471" lon="-1.20396">
        <ele>10.5</ele>
        <time>2020-06-02T08:17:56Z</time>
      </trkpt>
      <trkpt lat="46.17469" lon="-1.20388">
        <ele>10.4</ele>
        <time>2020-06-02T08:17:57Z</time>
      </trkpt>
      <trkpt lat="46.17466" lon="-1.2038">
        <ele>10.3</ele>
        <time>2020-06-02T08:17:58Z</time>
      </trkpt>
      <trkpt lat="46.17463" lon="-1.20372">
        <ele>10.2</ele>
        <time>2020-06-02T08:17:59Z</time>
      </trkpt>
      <trkpt lat="46.17461" lon="-1.20362">
        <ele>10.1</ele>
        <time>2020-06-02T08:18:00Z</time>
      </trkpt>
      <trkpt lat="46.17459" lon="-1.20354">
        <ele>10</ele>
        <time>2020-06-02T08:18:01Z</time>
      </trkpt>
      <trkpt lat="46.17457" lon="-1.20345">
        <ele>9.9</ele>
        <time>2020-06-02T08:18:02Z</time>
      </trkpt>
      <trkpt lat="46.17455" lon="-1.20338">
        <ele>9.9</ele>
        <time>2020-06-02T08:18:03Z</time>
      </trkpt>
      <trkpt lat="46.17452" lon="-1.20331">
        <ele>9.8</ele>
        <time>2020-06-02T08:18:04Z</time>
      </trkpt>
      <trkpt lat="46.17451" lon="-1.20322">
        <ele>9.7</ele>
        <time>2020-06-02T08:18:05Z</time>
      </trkpt>
      <trkpt lat="46.17448" lon="-1.20314">
        <ele>9.6</ele>
        <time>2020-06-02T08:18:06Z</time>
      </trkpt>
      <trkpt lat="46.17446" lon="-1.20306">
        <ele>9.5</ele>
        <time>2020-06-02T08:18:07Z</time>
      </trkpt>
      <trkpt lat="46.17443" lon="-1.20298">
        <ele>9.4</ele>
        <time>2020-06-02T08:18:08Z</time>
      </trkpt>
      <trkpt lat="46.17441" lon="-1.2029">
        <ele>9.3</ele>
        <time>2020-06-02T08:18:09Z</time>
      </trkpt>
      <trkpt lat="46.17439" lon="-1.20283">
        <ele>9.2</ele>
        <time>2020-06-02T08:18:10Z</time>
      </trkpt>
      <trkpt lat="46.17437" lon="-1.20275">
        <ele>9.2</ele>
        <time>2020-06-02T08:18:11Z</time>
      </trkpt>
      <trkpt lat="46.17435" lon="-1.20267">
        <ele>9.1</ele>
        <time>2020-06-02T08:18:12Z</time>
      </trkpt>
      <trkpt lat="46.17432" lon="-1.2026">
        <ele>9</ele>
        <time>2020-06-02T08:18:13Z</time>
      </trkpt>
      <trkpt lat="46.1743" lon="-1.20252">
        <ele>9</ele>
        <time>2020-06-02T08:18:14Z</time>
      </trkpt>
      <trkpt lat="46.17428" lon="-1.20245">
        <ele>8.9</ele>
        <time>2020-06-02T08:18:15Z</time>
      </trkpt>
      <trkpt lat="46.17428" lon="-1.2024">
        <ele>8.9</ele>
        <time>2020-06-02T08:18:16Z</time>
      </trkpt>
      <trkpt lat="46.17427" lon="-1.20234">
        <ele>8.9</ele>
        <time>2020-06-02T08:18:17Z</time>
      </trkpt>
      <trkpt lat="46.17427" lon="-1.20227">
        <ele>8.9</ele>
        <time>2020-06-02T08:18:18Z</time>
      </trkpt>
      <trkpt lat="46.17426" lon="-1.20219">
        <ele>8.8</ele>
        <time>2020-06-02T08:18:19Z</time>
      </trkpt>
      <trkpt lat="46.17425" lon="-1.20212">
        <ele>8.8</ele>
        <time>2020-06-02T08:18:20Z</time>
      </trkpt>
      <trkpt lat="46.17424" lon="-1.20205">
        <ele>8.8</ele>
        <time>2020-06-02T08:18:21Z</time>
      </trkpt>
      <trkpt lat="46.17422" lon="-1.20197">
        <ele>8.7</ele>
        <time>2020-06-02T08:18:22Z</time>
      </trkpt>
      <trkpt lat="46.17421" lon="-1.20189">
        <ele>8.7</ele>
        <time>2020-06-02T08:18:23Z</time>
      </trkpt>
      <trkpt lat="46.17419" lon="-1.20182">
        <ele>8.7</ele>
        <time>2020-06-02T08:18:24Z</time>
      </trkpt>
      <trkpt lat="46.17418" lon="-1.20176">
        <ele>8.7</ele>
        <time>2020-06-02T08:18:25Z</time>
      </trkpt>
      <trkpt lat="46.17417" lon="-1.20169">
        <ele>8.7</ele>
        <time>2020-06-02T08:18:26Z</time>
      </trkpt>
      <trkpt lat="46.17416" lon="-1.20163">
        <ele>8.7</ele>
        <time>2020-06-02T08:18:27Z</time>
      </trkpt>
      <trkpt lat="46.17414" lon="-1.20156">
        <ele>8.7</ele>
        <time>2020-06-02T08:18:28Z</time>
      </trkpt>
      <trkpt lat="46.17413" lon="-1.2015">
        <ele>8.8</ele>
        <time>2020-06-02T08:18:29Z</time>
      </trkpt>
      <trkpt lat="46.1741" lon="-1.20143">
        <ele>8.8</ele>
        <time>2020-06-02T08:18:30Z</time>
      </trkpt>
      <trkpt lat="46.17408" lon="-1.20137">
        <ele>8.8</ele>
        <time>2020-06-02T08:18:31Z</time>
      </trkpt>
      <trkpt lat="46.17406" lon="-1.2013">
        <ele>8.8</ele>
        <time>2020-06-02T08:18:32Z</time>
      </trkpt>
      <trkpt lat="46.17404" lon="-1.20123">
        <ele>8.8</ele>
        <time>2020-06-02T08:18:33Z</time>
      </trkpt>
      <trkpt lat="46.17401" lon="-1.20117">
        <ele>8.8</ele>
        <time>2020-06-02T08:18:34Z</time>
      </trkpt>
      <trkpt lat="46.17398" lon="-1.2011">
        <ele>8.8</ele>
        <time>2020-06-02T08:18:35Z</time>
      </trkpt>
      <trkpt lat="46.17396" lon="-1.20102">
        <ele>8.8</ele>
        <time>2020-06-02T08:18:36Z</time>
      </trkpt>
      <trkpt lat="46.17393" lon="-1.20095">
        <ele>8.8</ele>
        <time>2020-06-02T08:18:37Z</time>
      </trkpt>
      <trkpt lat="46.17391" lon="-1.20088">
        <ele>8.9</ele>
        <time>2020-06-02T08:18:38Z</time>
      </trkpt>
      <trkpt lat="46.17389" lon="-1.2008">
        <ele>8.9</ele>
        <time>2020-06-02T08:18:39Z</time>
      </trkpt>
      <trkpt lat="46.17388" lon="-1.20073">
        <ele>9</ele>
        <time>2020-06-02T08:18:40Z</time>
      </trkpt>
      <trkpt lat="46.17386" lon="-1.20066">
        <ele>9.1</ele>
        <time>2020-06-02T08:18:41Z</time>
      </trkpt>
      <trkpt lat="46.17385" lon="-1.20058">
        <ele>9.1</ele>
        <time>2020-06-02T08:18:42Z</time>
      </trkpt>
      <trkpt lat="46.17385" lon="-1.20051">
        <ele>9.2</ele>
        <time>2020-06-02T08:18:43Z</time>
      </trkpt>
      <trkpt lat="46.17386" lon="-1.20044">
        <ele>9.3</ele>
        <time>2020-06-02T08:18:44Z</time>
      </trkpt>
      <trkpt lat="46.17387" lon="-1.20037">
        <ele>9.3</ele>
        <time>2020-06-02T08:18:45Z</time>
      </trkpt>
      <trkpt lat="46.17389" lon="-1.2003">
        <ele>9.4</ele>
        <time>2020-06-02T08:18:46Z</time>
      </trkpt>
      <trkpt lat="46.1739" lon="-1.20024">
        <ele>9.5</ele>
        <time>2020-06-02T08:18:47Z</time>
      </trkpt>
      <trkpt lat="46.17392" lon="-1.20019">
        <ele>9.6</ele>
        <time>2020-06-02T08:18:48Z</time>
      </trkpt>
      <trkpt lat="46.17394" lon="-1.20013">
        <ele>9.6</ele>
        <time>2020-06-02T08:18:49Z</time>
      </trkpt>
      <trkpt lat="46.17395" lon="-1.20006">
        <ele>9.7</ele>
        <time>2020-06-02T08:18:50Z</time>
      </trkpt>
      <trkpt lat="46.17394" lon="-1.2">
        <ele>9.8</ele>
        <time>2020-06-02T08:18:51Z</time>
      </trkpt>
      <trkpt lat="46.17392" lon="-1.19994">
        <ele>9.9</ele>
        <time>2020-06-02T08:18:52Z</time>
      </trkpt>
      <trkpt lat="46.17391" lon="-1.19989">
        <ele>10</ele>
        <time>2020-06-02T08:18:53Z</time>
      </trkpt>
      <trkpt lat="46.17391" lon="-1.19983">
        <ele>10</ele>
        <time>2020-06-02T08:18:54Z</time>
      </trkpt>
      <trkpt lat="46.1739" lon="-1.19977">
        <ele>10</ele>
        <time>2020-06-02T08:18:55Z</time>
      </trkpt>
      <trkpt lat="46.1739" lon="-1.19971">
        <ele>10.1</ele>
        <time>2020-06-02T08:18:56Z</time>
      </trkpt>
      <trkpt lat="46.17389" lon="-1.19966">
        <ele>10.1</ele>
        <time>2020-06-02T08:18:57Z</time>
      </trkpt>
      <trkpt lat="46.17388" lon="-1.1996">
        <ele>10.1</ele>
        <time>2020-06-02T08:18:58Z</time>
      </trkpt>
      <trkpt lat="46.17386" lon="-1.19956">
        <ele>10.2</ele>
        <time>2020-06-02T08:18:59Z</time>
      </trkpt>
      <trkpt lat="46.17385" lon="-1.19951">
        <ele>10.2</ele>
        <time>2020-06-02T08:19:00Z</time>
      </trkpt>
      <trkpt lat="46.17385" lon="-1.19946">
        <ele>10.2</ele>
        <time>2020-06-02T08:19:01Z</time>
      </trkpt>
      <trkpt lat="46.17385" lon="-1.1994">
        <ele>10.2</ele>
        <time>2020-06-02T08:19:02Z</time>
      </trkpt>
      <trkpt lat="46.17387" lon="-1.19937">
        <ele>10.2</ele>
        <time>2020-06-02T08:19:03Z</time>
      </trkpt>
      <trkpt lat="46.17389" lon="-1.19932">
        <ele>10.2</ele>
        <time>2020-06-02T08:19:04Z</time>
      </trkpt>
      <trkpt lat="46.17391" lon="-1.19926">
        <ele>10.3</ele>
        <time>2020-06-02T08:19:05Z</time>
      </trkpt>
      <trkpt lat="46.17394" lon="-1.19921">
        <ele>10.3</ele>
        <time>2020-06-02T08:19:06Z</time>
      </trkpt>
      <trkpt lat="46.17396" lon="-1.19915">
        <ele>10.4</ele>
        <time>2020-06-02T08:19:07Z</time>
      </trkpt>
      <trkpt lat="46.17398" lon="-1.1991">
        <ele>10.5</ele>
        <time>2020-06-02T08:19:08Z</time>
      </trkpt>
      <trkpt lat="46.174" lon="-1.19904">
        <ele>10.6</ele>
        <time>2020-06-02T08:19:09Z</time>
      </trkpt>
      <trkpt lat="46.17402" lon="-1.19898">
        <ele>10.7</ele>
        <time>2020-06-02T08:19:10Z</time>
      </trkpt>
      <trkpt lat="46.17405" lon="-1.19893">
        <ele>10.8</ele>
        <time>2020-06-02T08:19:11Z</time>
      </trkpt>
      <trkpt lat="46.17407" lon="-1.19887">
        <ele>10.9</ele>
        <time>2020-06-02T08:19:12Z</time>
      </trkpt>
      <trkpt lat="46.1741" lon="-1.19883">
        <ele>10.9</ele>
        <time>2020-06-02T08:19:13Z</time>
      </trkpt>
      <trkpt lat="46.17411" lon="-1.19878">
        <ele>11</ele>
        <time>2020-06-02T08:19:14Z</time>
      </trkpt>
      <trkpt lat="46.17413" lon="-1.19873">
        <ele>11.1</ele>
        <time>2020-06-02T08:19:15Z</time>
      </trkpt>
      <trkpt lat="46.17415" lon="-1.19868">
        <ele>11.1</ele>
        <time>2020-06-02T08:19:16Z</time>
      </trkpt>
      <trkpt lat="46.17416" lon="-1.19863">
        <ele>11.2</ele>
        <time>2020-06-02T08:19:17Z</time>
      </trkpt>
      <trkpt lat="46.17418" lon="-1.19859">
        <ele>11.2</ele>
        <time>2020-06-02T08:19:18Z</time>
      </trkpt>
      <trkpt lat="46.1742" lon="-1.19854">
        <ele>11.2</ele>
        <time>2020-06-02T08:19:19Z</time>
      </trkpt>
      <trkpt lat="46.17422" lon="-1.1985">
        <ele>11.2</ele>
        <time>2020-06-02T08:19:20Z</time>
      </trkpt>
      <trkpt lat="46.17424" lon="-1.19845">
        <ele>11.2</ele>
        <time>2020-06-02T08:19:21Z</time>
      </trkpt>
      <trkpt lat="46.17425" lon="-1.1984">
        <ele>11.3</ele>
        <time>2020-06-02T08:19:22Z</time>
      </trkpt>
      <trkpt lat="46.17427" lon="-1.19836">
        <ele>11.3</ele>
        <time>2020-06-02T08:19:23Z</time>
      </trkpt>
      <trkpt lat="46.17428" lon="-1.1983">
        <ele>11.3</ele>
        <time>2020-06-02T08:19:24Z</time>
      </trkpt>
      <trkpt lat="46.17429" lon="-1.19825">
        <ele>11.4</ele>
        <time>2020-06-02T08:19:25Z</time>
      </trkpt>
      <trkpt lat="46.17426" lon="-1.19822">
        <ele>11.4</ele>
        <time>2020-06-02T08:19:26Z</time>
      </trkpt>
      <trkpt lat="46.17424" lon="-1.19821">
        <ele>11.5</ele>
        <time>2020-06-02T08:19:27Z</time>
      </trkpt>
      <trkpt lat="46.17421" lon="-1.19818">
        <ele>11.6</ele>
        <time>2020-06-02T08:19:28Z</time>
      </trkpt>
      <trkpt lat="46.17417" lon="-1.19815">
        <ele>11.6</ele>
        <time>2020-06-02T08:19:29Z</time>
      </trkpt>
      <trkpt lat="46.17414" lon="-1.19812">
        <ele>11.6</ele>
        <time>2020-06-02T08:19:30Z</time>
      </trkpt>
      <trkpt lat="46.17413" lon="-1.19808">
        <ele>11.6</ele>
        <time>2020-06-02T08:19:31Z</time>
      </trkpt>
      <trkpt lat="46.17411" lon="-1.19802">
        <ele>11.5</ele>
        <time>2020-06-02T08:19:32Z</time>
      </trkpt>
      <trkpt lat="46.17409" lon="-1.19797">
        <ele>11.5</ele>
        <time>2020-06-02T08:19:33Z</time>
      </trkpt>
      <trkpt lat="46.17407" lon="-1.19792">
        <ele>11.5</ele>
        <time>2020-06-02T08:19:34Z</time>
      </trkpt>
      <trkpt lat="46.17405" lon="-1.19787">
        <ele>11.5</ele>
        <time>2020-06-02T08:19:35Z</time>
      </trkpt>
      <trkpt lat="46.17404" lon="-1.19782">
        <ele>11.6</ele>
        <time>2020-06-02T08:19:36Z</time>
      </trkpt>
      <trkpt lat="46.17403" lon="-1.19777">
        <ele>11.6</ele>
        <time>2020-06-02T08:19:37Z</time>
      </trkpt>
      <trkpt lat="46.174" lon="-1.19772">
        <ele>11.6</ele>
        <time>2020-06-02T08:19:38Z</time>
      </trkpt>
      <trkpt lat="46.17398" lon="-1.19768">
        <ele>11.6</ele>
        <time>2020-06-02T08:19:39Z</time>
      </trkpt>
      <trkpt lat="46.17396" lon="-1.19765">
        <ele>11.6</ele>
        <time>2020-06-02T08:19:40Z</time>
      </trkpt>
      <trkpt lat="46.17392" lon="-1.19765">
        <ele>11.6</ele>
        <time>2020-06-02T08:19:41Z</time>
      </trkpt>
      <trkpt lat="46.17389" lon="-1.19765">
        <ele>11.6</ele>
        <time>2020-06-02T08:19:42Z</time>
      </trkpt>
      <trkpt lat="46.17385" lon="-1.19765">
        <ele>11.6</ele>
        <time>2020-06-02T08:19:43Z</time>
      </trkpt>
      <trkpt lat="46.1738" lon="-1.19766">
        <ele>11.6</ele>
        <time>2020-06-02T08:19:44Z</time>
      </trkpt>
      <trkpt lat="46.17376" lon="-1.19766">
        <ele>11.7</ele>
        <time>2020-06-02T08:19:45Z</time>
      </trkpt>
      <trkpt lat="46.17372" lon="-1.19765">
        <ele>11.7</ele>
        <time>2020-06-02T08:19:46Z</time>
      </trkpt>
      <trkpt lat="46.17368" lon="-1.19763">
        <ele>11.7</ele>
        <time>2020-06-02T08:19:47Z</time>
      </trkpt>
      <trkpt lat="46.17364" lon="-1.19761">
        <ele>11.7</ele>
        <time>2020-06-02T08:19:48Z</time>
      </trkpt>
      <trkpt lat="46.1736" lon="-1.1976">
        <ele>11.7</ele>
        <time>2020-06-02T08:19:49Z</time>
      </trkpt>
      <trkpt lat="46.17356" lon="-1.19758">
        <ele>11.8</ele>
        <time>2020-06-02T08:19:50Z</time>
      </trkpt>
      <trkpt lat="46.17351" lon="-1.19756">
        <ele>11.8</ele>
        <time>2020-06-02T08:19:51Z</time>
      </trkpt>
      <trkpt lat="46.17347" lon="-1.19755">
        <ele>11.8</ele>
        <time>2020-06-02T08:19:52Z</time>
      </trkpt>
      <trkpt lat="46.17343" lon="-1.19754">
        <ele>11.9</ele>
        <time>2020-06-02T08:19:53Z</time>
      </trkpt>
      <trkpt lat="46.17338" lon="-1.19751">
        <ele>11.9</ele>
        <time>2020-06-02T08:19:54Z</time>
      </trkpt>
      <trkpt lat="46.17333" lon="-1.1975">
        <ele>12</ele>
        <time>2020-06-02T08:19:55Z</time>
      </trkpt>
      <trkpt lat="46.17329" lon="-1.19747">
        <ele>12</ele>
        <time>2020-06-02T08:19:56Z</time>
      </trkpt>
      <trkpt lat="46.17324" lon="-1.19745">
        <ele>12.1</ele>
        <time>2020-06-02T08:19:57Z</time>
      </trkpt>
      <trkpt lat="46.1732" lon="-1.19743">
        <ele>12.2</ele>
        <time>2020-06-02T08:19:58Z</time>
      </trkpt>
      <trkpt lat="46.17318" lon="-1.19739">
        <ele>12.2</ele>
        <time>2020-06-02T08:19:59Z</time>
      </trkpt>
      <trkpt lat="46.17316" lon="-1.19734">
        <ele>12.3</ele>
        <time>2020-06-02T08:20:00Z</time>
      </trkpt>
      <trkpt lat="46.17313" lon="-1.1973">
        <ele>12.4</ele>
        <time>2020-06-02T08:20:01Z</time>
      </trkpt>
      <trkpt lat="46.17311" lon="-1.19725">
        <ele>12.5</ele>
        <time>2020-06-02T08:20:02Z</time>
      </trkpt>
      <trkpt lat="46.17308" lon="-1.19721">
        <ele>12.6</ele>
        <time>2020-06-02T08:20:03Z</time>
      </trkpt>
      <trkpt lat="46.17306" lon="-1.19716">
        <ele>12.7</ele>
        <time>2020-06-02T08:20:04Z</time>
      </trkpt>
      <trkpt lat="46.17303" lon="-1.19711">
        <ele>12.8</ele>
        <time>2020-06-02T08:20:05Z</time>
      </trkpt>
      <trkpt lat="46.17301" lon="-1.19707">
        <ele>12.9</ele>
        <time>2020-06-02T08:20:06Z</time>
      </trkpt>
      <trkpt lat="46.17299" lon="-1.19703">
        <ele>13</ele>
        <time>2020-06-02T08:20:07Z</time>
      </trkpt>
      <trkpt lat="46.17297" lon="-1.19701">
        <ele>13.1</ele>
        <time>2020-06-02T08:20:08Z</time>
      </trkpt>
      <trkpt lat="46.17294" lon="-1.19697">
        <ele>13.2</ele>
        <time>2020-06-02T08:20:09Z</time>
      </trkpt>
      <trkpt lat="46.17292" lon="-1.19695">
        <ele>13.2</ele>
        <time>2020-06-02T08:20:10Z</time>
      </trkpt>
      <trkpt lat="46.17289" lon="-1.19691">
        <ele>13.3</ele>
        <time>2020-06-02T08:20:11Z</time>
      </trkpt>
      <trkpt lat="46.17287" lon="-1.19688">
        <ele>13.4</ele>
        <time>2020-06-02T08:20:12Z</time>
      </trkpt>
      <trkpt lat="46.17284" lon="-1.19684">
        <ele>13.5</ele>
        <time>2020-06-02T08:20:13Z</time>
      </trkpt>
      <trkpt lat="46.17282" lon="-1.19679">
        <ele>13.6</ele>
        <time>2020-06-02T08:20:14Z</time>
      </trkpt>
      <trkpt lat="46.1728" lon="-1.19674">
        <ele>13.7</ele>
        <time>2020-06-02T08:20:15Z</time>
      </trkpt>
      <trkpt lat="46.17278" lon="-1.19669">
        <ele>13.7</ele>
        <time>2020-06-02T08:20:16Z</time>
      </trkpt>
      <trkpt lat="46.17277" lon="-1.19663">
        <ele>13.8</ele>
        <time>2020-06-02T08:20:17Z</time>
      </trkpt>
      <trkpt lat="46.17276" lon="-1.19659">
        <ele>13.9</ele>
        <time>2020-06-02T08:20:18Z</time>
      </trkpt>
      <trkpt lat="46.17277" lon="-1.19653">
        <ele>13.9</ele>
        <time>2020-06-02T08:20:19Z</time>
      </trkpt>
      <trkpt lat="46.17276" lon="-1.19648">
        <ele>14</ele>
        <time>2020-06-02T08:20:20Z</time>
      </trkpt>
      <trkpt lat="46.17276" lon="-1.19644">
        <ele>14</ele>
        <time>2020-06-02T08:20:21Z</time>
      </trkpt>
      <trkpt lat="46.17275" lon="-1.19639">
        <ele>14.1</ele>
        <time>2020-06-02T08:20:22Z</time>
      </trkpt>
      <trkpt lat="46.17274" lon="-1.19635">
        <ele>14.1</ele>
        <time>2020-06-02T08:20:23Z</time>
      </trkpt>
      <trkpt lat="46.1727" lon="-1.19634">
        <ele>14.2</ele>
        <time>2020-06-02T08:20:24Z</time>
      </trkpt>
      <trkpt lat="46.17266" lon="-1.19633">
        <ele>14.3</ele>
        <time>2020-06-02T08:20:25Z</time>
      </trkpt>
      <trkpt lat="46.17262" lon="-1.19631">
        <ele>14.4</ele>
        <time>2020-06-02T08:20:26Z</time>
      </trkpt>
      <trkpt lat="46.17257" lon="-1.19629">
        <ele>14.5</ele>
        <time>2020-06-02T08:20:27Z</time>
      </trkpt>
      <trkpt lat="46.17253" lon="-1.19626">
        <ele>14.6</ele>
        <time>2020-06-02T08:20:28Z</time>
      </trkpt>
      <trkpt lat="46.17249" lon="-1.19623">
        <ele>14.6</ele>
        <time>2020-06-02T08:20:29Z</time>
      </trkpt>
      <trkpt lat="46.17246" lon="-1.1962">
        <ele>14.7</ele>
        <time>2020-06-02T08:20:30Z</time>
      </trkpt>
      <trkpt lat="46.17243" lon="-1.19616">
        <ele>14.7</ele>
        <time>2020-06-02T08:20:31Z</time>
      </trkpt>
      <trkpt lat="46.17241" lon="-1.19613">
        <ele>14.7</ele>
        <time>2020-06-02T08:20:32Z</time>
      </trkpt>
      <trkpt lat="46.17238" lon="-1.19611">
        <ele>14.7</ele>
        <time>2020-06-02T08:20:33Z</time>
      </trkpt>
      <trkpt lat="46.17235" lon="-1.1961">
        <ele>14.8</ele>
        <time>2020-06-02T08:20:34Z</time>
      </trkpt>
      <trkpt lat="46.17231" lon="-1.19609">
        <ele>14.9</ele>
        <time>2020-06-02T08:20:35Z</time>
      </trkpt>
      <trkpt lat="46.17227" lon="-1.19608">
        <ele>14.9</ele>
        <time>2020-06-02T08:20:36Z</time>
      </trkpt>
      <trkpt lat="46.17224" lon="-1.19607">
        <ele>15</ele>
        <time>2020-06-02T08:20:37Z</time>
      </trkpt>
      <trkpt lat="46.1722" lon="-1.19606">
        <ele>15</ele>
        <time>2020-06-02T08:20:38Z</time>
      </trkpt>
      <trkpt lat="46.17216" lon="-1.19604">
        <ele>15.1</ele>
        <time>2020-06-02T08:20:39Z</time>
      </trkpt>
      <trkpt lat="46.17212" lon="-1.19603">
        <ele>15.1</ele>
        <time>2020-06-02T08:20:40Z</time>
      </trkpt>
      <trkpt lat="46.17208" lon="-1.19602">
        <ele>15.2</ele>
        <time>2020-06-02T08:20:41Z</time>
      </trkpt>
      <trkpt lat="46.17204" lon="-1.196">
        <ele>15.2</ele>
        <time>2020-06-02T08:20:42Z</time>
      </trkpt>
      <trkpt lat="46.172" lon="-1.19599">
        <ele>15.3</ele>
        <time>2020-06-02T08:20:43Z</time>
      </trkpt>
      <trkpt lat="46.17196" lon="-1.19597">
        <ele>15.3</ele>
        <time>2020-06-02T08:20:44Z</time>
      </trkpt>
      <trkpt lat="46.17192" lon="-1.19595">
        <ele>15.4</ele>
        <time>2020-06-02T08:20:45Z</time>
      </trkpt>
      <trkpt lat="46.17188" lon="-1.19593">
        <ele>15.4</ele>
        <time>2020-06-02T08:20:46Z</time>
      </trkpt>
      <trkpt lat="46.17185" lon="-1.19591">
        <ele>15.4</ele>
        <time>2020-06-02T08:20:47Z</time>
      </trkpt>
      <trkpt lat="46.17181" lon="-1.19589">
        <ele>15.5</ele>
        <time>2020-06-02T08:20:48Z</time>
      </trkpt>
      <trkpt lat="46.17177" lon="-1.19587">
        <ele>15.5</ele>
        <time>2020-06-02T08:20:49Z</time>
      </trkpt>
      <trkpt lat="46.17172" lon="-1.19585">
        <ele>15.5</ele>
        <time>2020-06-02T08:20:50Z</time>
      </trkpt>
      <trkpt lat="46.17166" lon="-1.19584">
        <ele>15.6</ele>
        <time>2020-06-02T08:20:51Z</time>
      </trkpt>
      <trkpt lat="46.17162" lon="-1.19582">
        <ele>15.6</ele>
        <time>2020-06-02T08:20:52Z</time>
      </trkpt>
      <trkpt lat="46.17157" lon="-1.19581">
        <ele>15.6</ele>
        <time>2020-06-02T08:20:53Z</time>
      </trkpt>
      <trkpt lat="46.17152" lon="-1.19581">
        <ele>15.6</ele>
        <time>2020-06-02T08:20:54Z</time>
      </trkpt>
      <trkpt lat="46.17148" lon="-1.19579">
        <ele>15.7</ele>
        <time>2020-06-02T08:20:55Z</time>
      </trkpt>
      <trkpt lat="46.17143" lon="-1.19578">
        <ele>15.7</ele>
        <time>2020-06-02T08:20:56Z</time>
      </trkpt>
      <trkpt lat="46.17139" lon="-1.19576">
        <ele>15.7</ele>
        <time>2020-06-02T08:20:57Z</time>
      </trkpt>
      <trkpt lat="46.17135" lon="-1.19574">
        <ele>15.7</ele>
        <time>2020-06-02T08:20:58Z</time>
      </trkpt>
      <trkpt lat="46.17129" lon="-1.19573">
        <ele>15.8</ele>
        <time>2020-06-02T08:20:59Z</time>
      </trkpt>
      <trkpt lat="46.17124" lon="-1.19572">
        <ele>15.8</ele>
        <time>2020-06-02T08:21:00Z</time>
      </trkpt>
      <trkpt lat="46.17118" lon="-1.1957">
        <ele>15.9</ele>
        <time>2020-06-02T08:21:01Z</time>
      </trkpt>
      <trkpt lat="46.17113" lon="-1.19568">
        <ele>15.9</ele>
        <time>2020-06-02T08:21:02Z</time>
      </trkpt>
      <trkpt lat="46.17109" lon="-1.19566">
        <ele>15.9</ele>
        <time>2020-06-02T08:21:03Z</time>
      </trkpt>
      <trkpt lat="46.17104" lon="-1.19565">
        <ele>16</ele>
        <time>2020-06-02T08:21:04Z</time>
      </trkpt>
      <trkpt lat="46.17099" lon="-1.19563">
        <ele>15.9</ele>
        <time>2020-06-02T08:21:05Z</time>
      </trkpt>
      <trkpt lat="46.17094" lon="-1.19561">
        <ele>15.9</ele>
        <time>2020-06-02T08:21:06Z</time>
      </trkpt>
      <trkpt lat="46.17089" lon="-1.19558">
        <ele>15.9</ele>
        <time>2020-06-02T08:21:07Z</time>
      </trkpt>
      <trkpt lat="46.17084" lon="-1.19556">
        <ele>15.8</ele>
        <time>2020-06-02T08:21:08Z</time>
      </trkpt>
      <trkpt lat="46.17081" lon="-1.19552">
        <ele>15.8</ele>
        <time>2020-06-02T08:21:09Z</time>
      </trkpt>
      <trkpt lat="46.17076" lon="-1.19549">
        <ele>15.8</ele>
        <time>2020-06-02T08:21:10Z</time>
      </trkpt>
      <trkpt lat="46.17073" lon="-1.19545">
        <ele>15.8</ele>
        <time>2020-06-02T08:21:11Z</time>
      </trkpt>
      <trkpt lat="46.1707" lon="-1.19541">
        <ele>15.8</ele>
        <time>2020-06-02T08:21:12Z</time>
      </trkpt>
      <trkpt lat="46.17065" lon="-1.19539">
        <ele>15.8</ele>
        <time>2020-06-02T08:21:13Z</time>
      </trkpt>
      <trkpt lat="46.17061" lon="-1.19539">
        <ele>15.8</ele>
        <time>2020-06-02T08:21:14Z</time>
      </trkpt>
      <trkpt lat="46.17057" lon="-1.19542">
        <ele>15.8</ele>
        <time>2020-06-02T08:21:15Z</time>
      </trkpt>
      <trkpt lat="46.17054" lon="-1.19543">
        <ele>15.8</ele>
        <time>2020-06-02T08:21:16Z</time>
      </trkpt>
      <trkpt lat="46.17049" lon="-1.19541">
        <ele>15.8</ele>
        <time>2020-06-02T08:21:17Z</time>
      </trkpt>
      <trkpt lat="46.17045" lon="-1.19538">
        <ele>15.8</ele>
        <time>2020-06-02T08:21:18Z</time>
      </trkpt>
      <trkpt lat="46.17041" lon="-1.19535">
        <ele>15.8</ele>
        <time>2020-06-02T08:21:19Z</time>
      </trkpt>
      <trkpt lat="46.17036" lon="-1.19533">
        <ele>15.7</ele>
        <time>2020-06-02T08:21:20Z</time>
      </trkpt>
      <trkpt lat="46.17031" lon="-1.19531">
        <ele>15.7</ele>
        <time>2020-06-02T08:21:21Z</time>
      </trkpt>
      <trkpt lat="46.17026" lon="-1.19532">
        <ele>15.7</ele>
        <time>2020-06-02T08:21:22Z</time>
      </trkpt>
      <trkpt lat="46.17021" lon="-1.1953">
        <ele>15.6</ele>
        <time>2020-06-02T08:21:23Z</time>
      </trkpt>
      <trkpt lat="46.17016" lon="-1.19528">
        <ele>15.6</ele>
        <time>2020-06-02T08:21:24Z</time>
      </trkpt>
      <trkpt lat="46.1701" lon="-1.19528">
        <ele>15.5</ele>
        <time>2020-06-02T08:21:25Z</time>
      </trkpt>
      <trkpt lat="46.17005" lon="-1.19527">
        <ele>15.5</ele>
        <time>2020-06-02T08:21:26Z</time>
      </trkpt>
      <trkpt lat="46.17" lon="-1.19526">
        <ele>15.4</ele>
        <time>2020-06-02T08:21:27Z</time>
      </trkpt>
      <trkpt lat="46.16994" lon="-1.19524">
        <ele>15.4</ele>
        <time>2020-06-02T08:21:28Z</time>
      </trkpt>
      <trkpt lat="46.16989" lon="-1.19523">
        <ele>15.4</ele>
        <time>2020-06-02T08:21:29Z</time>
      </trkpt>
      <trkpt lat="46.16984" lon="-1.19524">
        <ele>15.3</ele>
        <time>2020-06-02T08:21:30Z</time>
      </trkpt>
      <trkpt lat="46.16979" lon="-1.19524">
        <ele>15.3</ele>
        <time>2020-06-02T08:21:31Z</time>
      </trkpt>
      <trkpt lat="46.16974" lon="-1.19524">
        <ele>15.3</ele>
        <time>2020-06-02T08:21:32Z</time>
      </trkpt>
      <trkpt lat="46.16968" lon="-1.19524">
        <ele>15.3</ele>
        <time>2020-06-02T08:21:33Z</time>
      </trkpt>
      <trkpt lat="46.16962" lon="-1.19524">
        <ele>15.2</ele>
        <time>2020-06-02T08:21:34Z</time>
      </trkpt>
      <trkpt lat="46.16957" lon="-1.19524">
        <ele>15.2</ele>
        <time>2020-06-02T08:21:35Z</time>
      </trkpt>
      <trkpt lat="46.1695" lon="-1.19523">
        <ele>15.2</ele>
        <time>2020-06-02T08:21:36Z</time>
      </trkpt>
      <trkpt lat="46.16944" lon="-1.19523">
        <ele>15.1</ele>
        <time>2020-06-02T08:21:37Z</time>
      </trkpt>
      <trkpt lat="46.16938" lon="-1.19523">
        <ele>15.1</ele>
        <time>2020-06-02T08:21:38Z</time>
      </trkpt>
      <trkpt lat="46.16932" lon="-1.19523">
        <ele>15</ele>
        <time>2020-06-02T08:21:39Z</time>
      </trkpt>
      <trkpt lat="46.16926" lon="-1.19524">
        <ele>14.9</ele>
        <time>2020-06-02T08:21:40Z</time>
      </trkpt>
      <trkpt lat="46.16919" lon="-1.19524">
        <ele>14.8</ele>
        <time>2020-06-02T08:21:41Z</time>
      </trkpt>
      <trkpt lat="46.16913" lon="-1.19523">
        <ele>14.7</ele>
        <time>2020-06-02T08:21:42Z</time>
      </trkpt>
      <trkpt lat="46.16906" lon="-1.19521">
        <ele>14.6</ele>
        <time>2020-06-02T08:21:43Z</time>
      </trkpt>
      <trkpt lat="46.169" lon="-1.19521">
        <ele>14.5</ele>
        <time>2020-06-02T08:21:44Z</time>
      </trkpt>
      <trkpt lat="46.16894" lon="-1.19521">
        <ele>14.5</ele>
        <time>2020-06-02T08:21:45Z</time>
      </trkpt>
      <trkpt lat="46.16889" lon="-1.1952">
        <ele>14.5</ele>
        <time>2020-06-02T08:21:46Z</time>
      </trkpt>
      <trkpt lat="46.16884" lon="-1.1952">
        <ele>14.5</ele>
        <time>2020-06-02T08:21:47Z</time>
      </trkpt>
      <trkpt lat="46.16878" lon="-1.19519">
        <ele>14.4</ele>
        <time>2020-06-02T08:21:48Z</time>
      </trkpt>
      <trkpt lat="46.16874" lon="-1.19518">
        <ele>14.3</ele>
        <time>2020-06-02T08:21:49Z</time>
      </trkpt>
      <trkpt lat="46.16868" lon="-1.19519">
        <ele>14.2</ele>
        <time>2020-06-02T08:21:50Z</time>
      </trkpt>
      <trkpt lat="46.16862" lon="-1.19518">
        <ele>14.1</ele>
        <time>2020-06-02T08:21:51Z</time>
      </trkpt>
      <trkpt lat="46.16857" lon="-1.19518">
        <ele>14</ele>
        <time>2020-06-02T08:21:52Z</time>
      </trkpt>
      <trkpt lat="46.16851" lon="-1.19518">
        <ele>14</ele>
        <time>2020-06-02T08:21:53Z</time>
      </trkpt>
      <trkpt lat="46.16847" lon="-1.19518">
        <ele>13.9</ele>
        <time>2020-06-02T08:21:54Z</time>
      </trkpt>
      <trkpt lat="46.16841" lon="-1.19518">
        <ele>13.7</ele>
        <time>2020-06-02T08:21:55Z</time>
      </trkpt>
      <trkpt lat="46.16833" lon="-1.19516">
        <ele>13.5</ele>
        <time>2020-06-02T08:21:56Z</time>
      </trkpt>
      <trkpt lat="46.16825" lon="-1.19515">
        <ele>13.3</ele>
        <time>2020-06-02T08:21:57Z</time>
      </trkpt>
      <trkpt lat="46.1682" lon="-1.19515">
        <ele>13.2</ele>
        <time>2020-06-02T08:21:58Z</time>
      </trkpt>
      <trkpt lat="46.16813" lon="-1.19514">
        <ele>13.1</ele>
        <time>2020-06-02T08:21:59Z</time>
      </trkpt>
      <trkpt lat="46.16806" lon="-1.19514">
        <ele>13</ele>
        <time>2020-06-02T08:22:00Z</time>
      </trkpt>
      <trkpt lat="46.16799" lon="-1.19514">
        <ele>13</ele>
        <time>2020-06-02T08:22:01Z</time>
      </trkpt>
      <trkpt lat="46.16793" lon="-1.19513">
        <ele>12.9</ele>
        <time>2020-06-02T08:22:02Z</time>
      </trkpt>
      <trkpt lat="46.16789" lon="-1.19513">
        <ele>12.9</ele>
        <time>2020-06-02T08:22:03Z</time>
      </trkpt>
      <trkpt lat="46.16783" lon="-1.19514">
        <ele>12.8</ele>
        <time>2020-06-02T08:22:04Z</time>
      </trkpt>
      <trkpt lat="46.16778" lon="-1.19513">
        <ele>12.8</ele>
        <time>2020-06-02T08:22:05Z</time>
      </trkpt>
      <trkpt lat="46.16772" lon="-1.19513">
        <ele>12.7</ele>
        <time>2020-06-02T08:22:06Z</time>
      </trkpt>
      <trkpt lat="46.16766" lon="-1.19512">
        <ele>12.6</ele>
        <time>2020-06-02T08:22:07Z</time>
      </trkpt>
      <trkpt lat="46.1676" lon="-1.19512">
        <ele>12.4</ele>
        <time>2020-06-02T08:22:08Z</time>
      </trkpt>
      <trkpt lat="46.16754" lon="-1.19511">
        <ele>12.3</ele>
        <time>2020-06-02T08:22:09Z</time>
      </trkpt>
      <trkpt lat="46.16749" lon="-1.1951">
        <ele>12.2</ele>
        <time>2020-06-02T08:22:10Z</time>
      </trkpt>
      <trkpt lat="46.16744" lon="-1.1951">
        <ele>12.1</ele>
        <time>2020-06-02T08:22:11Z</time>
      </trkpt>
      <trkpt lat="46.1674" lon="-1.1951">
        <ele>12.1</ele>
        <time>2020-06-02T08:22:12Z</time>
      </trkpt>
      <trkpt lat="46.16737" lon="-1.19511">
        <ele>12.1</ele>
        <time>2020-06-02T08:22:13Z</time>
      </trkpt>
      <trkpt lat="46.16733" lon="-1.1951">
        <ele>12.1</ele>
        <time>2020-06-02T08:22:14Z</time>
      </trkpt>
      <trkpt lat="46.16729" lon="-1.1951">
        <ele>12</ele>
        <time>2020-06-02T08:22:15Z</time>
      </trkpt>
      <trkpt lat="46.16726" lon="-1.1951">
        <ele>12</ele>
        <time>2020-06-02T08:22:16Z</time>
      </trkpt>
      <trkpt lat="46.16722" lon="-1.19507">
        <ele>11.8</ele>
        <time>2020-06-02T08:22:17Z</time>
      </trkpt>
      <trkpt lat="46.1672" lon="-1.19502">
        <ele>11.7</ele>
        <time>2020-06-02T08:22:18Z</time>
      </trkpt>
      <trkpt lat="46.16721" lon="-1.19494">
        <ele>11.5</ele>
        <time>2020-06-02T08:22:19Z</time>
      </trkpt>
      <trkpt lat="46.1672" lon="-1.19487">
        <ele>11.3</ele>
        <time>2020-06-02T08:22:20Z</time>
      </trkpt>
      <trkpt lat="46.16718" lon="-1.19479">
        <ele>11.1</ele>
        <time>2020-06-02T08:22:21Z</time>
      </trkpt>
      <trkpt lat="46.16717" lon="-1.19471">
        <ele>10.9</ele>
        <time>2020-06-02T08:22:22Z</time>
      </trkpt>
      <trkpt lat="46.16715" lon="-1.19463">
        <ele>10.7</ele>
        <time>2020-06-02T08:22:23Z</time>
      </trkpt>
      <trkpt lat="46.16713" lon="-1.19455">
        <ele>10.5</ele>
        <time>2020-06-02T08:22:24Z</time>
      </trkpt>
      <trkpt lat="46.16711" lon="-1.19448">
        <ele>10.3</ele>
        <time>2020-06-02T08:22:25Z</time>
      </trkpt>
      <trkpt lat="46.1671" lon="-1.19439">
        <ele>10.2</ele>
        <time>2020-06-02T08:22:26Z</time>
      </trkpt>
      <trkpt lat="46.16708" lon="-1.1943">
        <ele>10.1</ele>
        <time>2020-06-02T08:22:27Z</time>
      </trkpt>
      <trkpt lat="46.16708" lon="-1.1942">
        <ele>10</ele>
        <time>2020-06-02T08:22:28Z</time>
      </trkpt>
      <trkpt lat="46.16706" lon="-1.19412">
        <ele>9.9</ele>
        <time>2020-06-02T08:22:29Z</time>
      </trkpt>
      <trkpt lat="46.16706" lon="-1.19404">
        <ele>9.8</ele>
        <time>2020-06-02T08:22:30Z</time>
      </trkpt>
      <trkpt lat="46.16705" lon="-1.19394">
        <ele>9.8</ele>
        <time>2020-06-02T08:22:31Z</time>
      </trkpt>
      <trkpt lat="46.16704" lon="-1.19385">
        <ele>9.7</ele>
        <time>2020-06-02T08:22:32Z</time>
      </trkpt>
      <trkpt lat="46.16703" lon="-1.19375">
        <ele>9.7</ele>
        <time>2020-06-02T08:22:33Z</time>
      </trkpt>
      <trkpt lat="46.16703" lon="-1.19367">
        <ele>9.8</ele>
        <time>2020-06-02T08:22:34Z</time>
      </trkpt>
      <trkpt lat="46.16703" lon="-1.19361">
        <ele>9.8</ele>
        <time>2020-06-02T08:22:35Z</time>
      </trkpt>
      <trkpt lat="46.16703" lon="-1.19354">
        <ele>9.9</ele>
        <time>2020-06-02T08:22:36Z</time>
      </trkpt>
      <trkpt lat="46.16702" lon="-1.19346">
        <ele>10</ele>
        <time>2020-06-02T08:22:37Z</time>
      </trkpt>
      <trkpt lat="46.16701" lon="-1.19338">
        <ele>10.1</ele>
        <time>2020-06-02T08:22:38Z</time>
      </trkpt>
      <trkpt lat="46.16701" lon="-1.19331">
        <ele>10.2</ele>
        <time>2020-06-02T08:22:39Z</time>
      </trkpt>
      <trkpt lat="46.16699" lon="-1.19326">
        <ele>10.2</ele>
        <time>2020-06-02T08:22:40Z</time>
      </trkpt>
      <trkpt lat="46.16699" lon="-1.19319">
        <ele>10.3</ele>
        <time>2020-06-02T08:22:41Z</time>
      </trkpt>
      <trkpt lat="46.16698" lon="-1.1931">
        <ele>10.4</ele>
        <time>2020-06-02T08:22:42Z</time>
      </trkpt>
      <trkpt lat="46.16697" lon="-1.193">
        <ele>10.5</ele>
        <time>2020-06-02T08:22:43Z</time>
      </trkpt>
      <trkpt lat="46.16696" lon="-1.19293">
        <ele>10.6</ele>
        <time>2020-06-02T08:22:44Z</time>
      </trkpt>
      <trkpt lat="46.16695" lon="-1.19285">
        <ele>10.7</ele>
        <time>2020-06-02T08:22:45Z</time>
      </trkpt>
      <trkpt lat="46.16694" lon="-1.19277">
        <ele>10.7</ele>
        <time>2020-06-02T08:22:46Z</time>
      </trkpt>
      <trkpt lat="46.16693" lon="-1.19271">
        <ele>10.7</ele>
        <time>2020-06-02T08:22:47Z</time>
      </trkpt>
      <trkpt lat="46.16693" lon="-1.19265">
        <ele>10.7</ele>
        <time>2020-06-02T08:22:48Z</time>
      </trkpt>
      <trkpt lat="46.16691" lon="-1.19258">
        <ele>10.7</ele>
        <time>2020-06-02T08:22:49Z</time>
      </trkpt>
      <trkpt lat="46.16689" lon="-1.19251">
        <ele>10.7</ele>
        <time>2020-06-02T08:22:50Z</time>
      </trkpt>
      <trkpt lat="46.16688" lon="-1.19246">
        <ele>10.7</ele>
        <time>2020-06-02T08:22:51Z</time>
      </trkpt>
      <trkpt lat="46.16686" lon="-1.19238">
        <ele>10.7</ele>
        <time>2020-06-02T08:22:52Z</time>
      </trkpt>
      <trkpt lat="46.16684" lon="-1.19232">
        <ele>10.7</ele>
        <time>2020-06-02T08:22:53Z</time>
      </trkpt>
      <trkpt lat="46.16683" lon="-1.19224">
        <ele>10.7</ele>
        <time>2020-06-02T08:22:54Z</time>
      </trkpt>
      <trkpt lat="46.16681" lon="-1.19216">
        <ele>10.7</ele>
        <time>2020-06-02T08:22:55Z</time>
      </trkpt>
      <trkpt lat="46.1668" lon="-1.19209">
        <ele>10.7</ele>
        <time>2020-06-02T08:22:56Z</time>
      </trkpt>
      <trkpt lat="46.16678" lon="-1.19202">
        <ele>10.7</ele>
        <time>2020-06-02T08:22:57Z</time>
      </trkpt>
      <trkpt lat="46.16676" lon="-1.19194">
        <ele>10.7</ele>
        <time>2020-06-02T08:22:58Z</time>
      </trkpt>
      <trkpt lat="46.16674" lon="-1.19186">
        <ele>10.7</ele>
        <time>2020-06-02T08:22:59Z</time>
      </trkpt>
      <trkpt lat="46.16671" lon="-1.19179">
        <ele>10.7</ele>
        <time>2020-06-02T08:23:00Z</time>
      </trkpt>
      <trkpt lat="46.16668" lon="-1.19172">
        <ele>10.7</ele>
        <time>2020-06-02T08:23:01Z</time>
      </trkpt>
      <trkpt lat="46.16665" lon="-1.19165">
        <ele>10.7</ele>
        <time>2020-06-02T08:23:02Z</time>
      </trkpt>
      <trkpt lat="46.16662" lon="-1.19158">
        <ele>10.7</ele>
        <time>2020-06-02T08:23:03Z</time>
      </trkpt>
      <trkpt lat="46.16659" lon="-1.19151">
        <ele>10.7</ele>
        <time>2020-06-02T08:23:04Z</time>
      </trkpt>
      <trkpt lat="46.16656" lon="-1.19144">
        <ele>10.7</ele>
        <time>2020-06-02T08:23:05Z</time>
      </trkpt>
      <trkpt lat="46.16653" lon="-1.19138">
        <ele>10.7</ele>
        <time>2020-06-02T08:23:06Z</time>
      </trkpt>
      <trkpt lat="46.16649" lon="-1.19131">
        <ele>10.6</ele>
        <time>2020-06-02T08:23:07Z</time>
      </trkpt>
      <trkpt lat="46.16647" lon="-1.19124">
        <ele>10.6</ele>
        <time>2020-06-02T08:23:08Z</time>
      </trkpt>
      <trkpt lat="46.16643" lon="-1.19116">
        <ele>10.6</ele>
        <time>2020-06-02T08:23:09Z</time>
      </trkpt>
      <trkpt lat="46.1664" lon="-1.19109">
        <ele>10.6</ele>
        <time>2020-06-02T08:23:10Z</time>
      </trkpt>
      <trkpt lat="46.16637" lon="-1.19102">
        <ele>10.7</ele>
        <time>2020-06-02T08:23:11Z</time>
      </trkpt>
      <trkpt lat="46.16635" lon="-1.19095">
        <ele>10.7</ele>
        <time>2020-06-02T08:23:12Z</time>
      </trkpt>
      <trkpt lat="46.16633" lon="-1.19087">
        <ele>10.7</ele>
        <time>2020-06-02T08:23:13Z</time>
      </trkpt>
      <trkpt lat="46.16632" lon="-1.1908">
        <ele>10.7</ele>
        <time>2020-06-02T08:23:14Z</time>
      </trkpt>
      <trkpt lat="46.16631" lon="-1.19072">
        <ele>10.7</ele>
        <time>2020-06-02T08:23:15Z</time>
      </trkpt>
      <trkpt lat="46.16629" lon="-1.19063">
        <ele>10.8</ele>
        <time>2020-06-02T08:23:16Z</time>
      </trkpt>
      <trkpt lat="46.16627" lon="-1.19058">
        <ele>10.9</ele>
        <time>2020-06-02T08:23:17Z</time>
      </trkpt>
      <trkpt lat="46.16626" lon="-1.19051">
        <ele>11</ele>
        <time>2020-06-02T08:23:18Z</time>
      </trkpt>
      <trkpt lat="46.16625" lon="-1.19043">
        <ele>11.1</ele>
        <time>2020-06-02T08:23:19Z</time>
      </trkpt>
      <trkpt lat="46.16624" lon="-1.19036">
        <ele>11.2</ele>
        <time>2020-06-02T08:23:20Z</time>
      </trkpt>
      <trkpt lat="46.16622" lon="-1.19029">
        <ele>11.3</ele>
        <time>2020-06-02T08:23:21Z</time>
      </trkpt>
      <trkpt lat="46.1662" lon="-1.19023">
        <ele>11.4</ele>
        <time>2020-06-02T08:23:22Z</time>
      </trkpt>
      <trkpt lat="46.1662" lon="-1.19019">
        <ele>11.5</ele>
        <time>2020-06-02T08:23:23Z</time>
      </trkpt>
      <trkpt lat="46.16619" lon="-1.19011">
        <ele>11.6</ele>
        <time>2020-06-02T08:23:24Z</time>
      </trkpt>
      <trkpt lat="46.16618" lon="-1.19004">
        <ele>11.7</ele>
        <time>2020-06-02T08:23:25Z</time>
      </trkpt>
      <trkpt lat="46.16616" lon="-1.18996">
        <ele>11.8</ele>
        <time>2020-06-02T08:23:26Z</time>
      </trkpt>
      <trkpt lat="46.16615" lon="-1.1899">
        <ele>11.9</ele>
        <time>2020-06-02T08:23:27Z</time>
      </trkpt>
      <trkpt lat="46.16613" lon="-1.18984">
        <ele>11.9</ele>
        <time>2020-06-02T08:23:28Z</time>
      </trkpt>
      <trkpt lat="46.16611" lon="-1.18979">
        <ele>12</ele>
        <time>2020-06-02T08:23:29Z</time>
      </trkpt>
      <trkpt lat="46.1661" lon="-1.18974">
        <ele>12.1</ele>
        <time>2020-06-02T08:23:30Z</time>
      </trkpt>
      <trkpt lat="46.16608" lon="-1.18968">
        <ele>12.2</ele>
        <time>2020-06-02T08:23:31Z</time>
      </trkpt>
      <trkpt lat="46.16607" lon="-1.18958">
        <ele>12.3</ele>
        <time>2020-06-02T08:23:32Z</time>
      </trkpt>
      <trkpt lat="46.16605" lon="-1.18951">
        <ele>12.4</ele>
        <time>2020-06-02T08:23:33Z</time>
      </trkpt>
      <trkpt lat="46.16605" lon="-1.18943">
        <ele>12.5</ele>
        <time>2020-06-02T08:23:34Z</time>
      </trkpt>
      <trkpt lat="46.16603" lon="-1.18933">
        <ele>12.6</ele>
        <time>2020-06-02T08:23:35Z</time>
      </trkpt>
      <trkpt lat="46.16601" lon="-1.18925">
        <ele>12.7</ele>
        <time>2020-06-02T08:23:36Z</time>
      </trkpt>
      <trkpt lat="46.16599" lon="-1.18919">
        <ele>12.8</ele>
        <time>2020-06-02T08:23:37Z</time>
      </trkpt>
      <trkpt lat="46.16597" lon="-1.1891">
        <ele>12.9</ele>
        <time>2020-06-02T08:23:38Z</time>
      </trkpt>
      <trkpt lat="46.16596" lon="-1.18901">
        <ele>13</ele>
        <time>2020-06-02T08:23:39Z</time>
      </trkpt>
      <trkpt lat="46.16594" lon="-1.18894">
        <ele>13.1</ele>
        <time>2020-06-02T08:23:40Z</time>
      </trkpt>
      <trkpt lat="46.16592" lon="-1.18888">
        <ele>13.2</ele>
        <time>2020-06-02T08:23:41Z</time>
      </trkpt>
      <trkpt lat="46.1659" lon="-1.18881">
        <ele>13.2</ele>
        <time>2020-06-02T08:23:42Z</time>
      </trkpt>
      <trkpt lat="46.16589" lon="-1.18874">
        <ele>13.3</ele>
        <time>2020-06-02T08:23:43Z</time>
      </trkpt>
      <trkpt lat="46.16588" lon="-1.18867">
        <ele>13.4</ele>
        <time>2020-06-02T08:23:44Z</time>
      </trkpt>
      <trkpt lat="46.16586" lon="-1.18859">
        <ele>13.6</ele>
        <time>2020-06-02T08:23:45Z</time>
      </trkpt>
      <trkpt lat="46.16584" lon="-1.18852">
        <ele>13.7</ele>
        <time>2020-06-02T08:23:46Z</time>
      </trkpt>
      <trkpt lat="46.16583" lon="-1.18846">
        <ele>13.8</ele>
        <time>2020-06-02T08:23:47Z</time>
      </trkpt>
      <trkpt lat="46.16583" lon="-1.18844">
        <ele>13.8</ele>
        <time>2020-06-02T08:23:48Z</time>
      </trkpt>
      <trkpt lat="46.16581" lon="-1.1884">
        <ele>13.9</ele>
        <time>2020-06-02T08:23:49Z</time>
      </trkpt>
      <trkpt lat="46.16579" lon="-1.18834">
        <ele>14</ele>
        <time>2020-06-02T08:23:50Z</time>
      </trkpt>
      <trkpt lat="46.16574" lon="-1.18829">
        <ele>14.1</ele>
        <time>2020-06-02T08:23:51Z</time>
      </trkpt>
      <trkpt lat="46.16568" lon="-1.18825">
        <ele>14.1</ele>
        <time>2020-06-02T08:23:52Z</time>
      </trkpt>
      <trkpt lat="46.16564" lon="-1.18818">
        <ele>14.2</ele>
        <time>2020-06-02T08:23:53Z</time>
      </trkpt>
      <trkpt lat="46.16563" lon="-1.18811">
        <ele>14.4</ele>
        <time>2020-06-02T08:23:54Z</time>
      </trkpt>
      <trkpt lat="46.16563" lon="-1.18804">
        <ele>14.5</ele>
        <time>2020-06-02T08:23:55Z</time>
      </trkpt>
      <trkpt lat="46.16563" lon="-1.18796">
        <ele>14.6</ele>
        <time>2020-06-02T08:23:56Z</time>
      </trkpt>
      <trkpt lat="46.16563" lon="-1.1879">
        <ele>14.7</ele>
        <time>2020-06-02T08:23:57Z</time>
      </trkpt>
      <trkpt lat="46.16562" lon="-1.18783">
        <ele>14.7</ele>
        <time>2020-06-02T08:23:58Z</time>
      </trkpt>
      <trkpt lat="46.16562" lon="-1.18776">
        <ele>14.8</ele>
        <time>2020-06-02T08:23:59Z</time>
      </trkpt>
      <trkpt lat="46.16562" lon="-1.18769">
        <ele>14.9</ele>
        <time>2020-06-02T08:24:00Z</time>
      </trkpt>
      <trkpt lat="46.16561" lon="-1.18762">
        <ele>14.9</ele>
        <time>2020-06-02T08:24:01Z</time>
      </trkpt>
      <trkpt lat="46.1656" lon="-1.18755">
        <ele>14.9</ele>
        <time>2020-06-02T08:24:02Z</time>
      </trkpt>
      <trkpt lat="46.16559" lon="-1.18748">
        <ele>15</ele>
        <time>2020-06-02T08:24:03Z</time>
      </trkpt>
      <trkpt lat="46.16559" lon="-1.18742">
        <ele>15</ele>
        <time>2020-06-02T08:24:04Z</time>
      </trkpt>
      <trkpt lat="46.16558" lon="-1.18737">
        <ele>15</ele>
        <time>2020-06-02T08:24:05Z</time>
      </trkpt>
      <trkpt lat="46.16556" lon="-1.1873">
        <ele>15</ele>
        <time>2020-06-02T08:24:06Z</time>
      </trkpt>
      <trkpt lat="46.16555" lon="-1.18722">
        <ele>15.1</ele>
        <time>2020-06-02T08:24:07Z</time>
      </trkpt>
      <trkpt lat="46.16553" lon="-1.18716">
        <ele>15.1</ele>
        <time>2020-06-02T08:24:08Z</time>
      </trkpt>
      <trkpt lat="46.16551" lon="-1.1871">
        <ele>15.1</ele>
        <time>2020-06-02T08:24:09Z</time>
      </trkpt>
      <trkpt lat="46.1655" lon="-1.18705">
        <ele>15.2</ele>
        <time>2020-06-02T08:24:10Z</time>
      </trkpt>
      <trkpt lat="46.16549" lon="-1.18698">
        <ele>15.2</ele>
        <time>2020-06-02T08:24:11Z</time>
      </trkpt>
      <trkpt lat="46.16548" lon="-1.18691">
        <ele>15.3</ele>
        <time>2020-06-02T08:24:12Z</time>
      </trkpt>
      <trkpt lat="46.16547" lon="-1.18684">
        <ele>15.3</ele>
        <time>2020-06-02T08:24:13Z</time>
      </trkpt>
      <trkpt lat="46.16545" lon="-1.18676">
        <ele>15.4</ele>
        <time>2020-06-02T08:24:14Z</time>
      </trkpt>
      <trkpt lat="46.16544" lon="-1.18672">
        <ele>15.4</ele>
        <time>2020-06-02T08:24:15Z</time>
      </trkpt>
      <trkpt lat="46.16543" lon="-1.18666">
        <ele>15.5</ele>
        <time>2020-06-02T08:24:16Z</time>
      </trkpt>
      <trkpt lat="46.16542" lon="-1.18661">
        <ele>15.5</ele>
        <time>2020-06-02T08:24:17Z</time>
      </trkpt>
      <trkpt lat="46.1654" lon="-1.18653">
        <ele>15.6</ele>
        <time>2020-06-02T08:24:18Z</time>
      </trkpt>
      <trkpt lat="46.16539" lon="-1.18647">
        <ele>15.6</ele>
        <time>2020-06-02T08:24:19Z</time>
      </trkpt>
      <trkpt lat="46.16537" lon="-1.18641">
        <ele>15.7</ele>
        <time>2020-06-02T08:24:20Z</time>
      </trkpt>
      <trkpt lat="46.16536" lon="-1.18635">
        <ele>15.7</ele>
        <time>2020-06-02T08:24:21Z</time>
      </trkpt>
      <trkpt lat="46.16534" lon="-1.18628">
        <ele>15.7</ele>
        <time>2020-06-02T08:24:22Z</time>
      </trkpt>
      <trkpt lat="46.16533" lon="-1.18624">
        <ele>15.6</ele>
        <time>2020-06-02T08:24:23Z</time>
      </trkpt>
      <trkpt lat="46.16532" lon="-1.18616">
        <ele>15.6</ele>
        <time>2020-06-02T08:24:24Z</time>
      </trkpt>
      <trkpt lat="46.1653" lon="-1.18609">
        <ele>15.6</ele>
        <time>2020-06-02T08:24:25Z</time>
      </trkpt>
      <trkpt lat="46.16529" lon="-1.186">
        <ele>15.6</ele>
        <time>2020-06-02T08:24:26Z</time>
      </trkpt>
      <trkpt lat="46.16527" lon="-1.18594">
        <ele>15.6</ele>
        <time>2020-06-02T08:24:27Z</time>
      </trkpt>
      <trkpt lat="46.16525" lon="-1.18586">
        <ele>15.5</ele>
        <time>2020-06-02T08:24:28Z</time>
      </trkpt>
      <trkpt lat="46.16523" lon="-1.18579">
        <ele>15.5</ele>
        <time>2020-06-02T08:24:29Z</time>
      </trkpt>
      <trkpt lat="46.16522" lon="-1.18572">
        <ele>15.5</ele>
        <time>2020-06-02T08:24:30Z</time>
      </trkpt>
      <trkpt lat="46.1652" lon="-1.18564">
        <ele>15.4</ele>
        <time>2020-06-02T08:24:31Z</time>
      </trkpt>
      <trkpt lat="46.16517" lon="-1.18557">
        <ele>15.4</ele>
        <time>2020-06-02T08:24:32Z</time>
      </trkpt>
      <trkpt lat="46.16515" lon="-1.18551">
        <ele>15.4</ele>
        <time>2020-06-02T08:24:33Z</time>
      </trkpt>
      <trkpt lat="46.16513" lon="-1.18544">
        <ele>15.4</ele>
        <time>2020-06-02T08:24:34Z</time>
      </trkpt>
      <trkpt lat="46.16511" lon="-1.18537">
        <ele>15.4</ele>
        <time>2020-06-02T08:24:35Z</time>
      </trkpt>
      <trkpt lat="46.16509" lon="-1.18529">
        <ele>15.5</ele>
        <time>2020-06-02T08:24:36Z</time>
      </trkpt>
      <trkpt lat="46.16507" lon="-1.18522">
        <ele>15.5</ele>
        <time>2020-06-02T08:24:37Z</time>
      </trkpt>
      <trkpt lat="46.16507" lon="-1.18512">
        <ele>15.5</ele>
        <time>2020-06-02T08:24:38Z</time>
      </trkpt>
      <trkpt lat="46.16505" lon="-1.18504">
        <ele>15.5</ele>
        <time>2020-06-02T08:24:39Z</time>
      </trkpt>
      <trkpt lat="46.16503" lon="-1.18497">
        <ele>15.5</ele>
        <time>2020-06-02T08:24:40Z</time>
      </trkpt>
      <trkpt lat="46.16503" lon="-1.18489">
        <ele>15.5</ele>
        <time>2020-06-02T08:24:41Z</time>
      </trkpt>
      <trkpt lat="46.16501" lon="-1.18482">
        <ele>15.6</ele>
        <time>2020-06-02T08:24:42Z</time>
      </trkpt>
      <trkpt lat="46.165" lon="-1.18475">
        <ele>15.6</ele>
        <time>2020-06-02T08:24:43Z</time>
      </trkpt>
      <trkpt lat="46.16498" lon="-1.18468">
        <ele>15.6</ele>
        <time>2020-06-02T08:24:44Z</time>
      </trkpt>
      <trkpt lat="46.16498" lon="-1.18461">
        <ele>15.6</ele>
        <time>2020-06-02T08:24:45Z</time>
      </trkpt>
      <trkpt lat="46.16497" lon="-1.18454">
        <ele>15.7</ele>
        <time>2020-06-02T08:24:46Z</time>
      </trkpt>
      <trkpt lat="46.16497" lon="-1.18447">
        <ele>15.7</ele>
        <time>2020-06-02T08:24:47Z</time>
      </trkpt>
      <trkpt lat="46.16495" lon="-1.1844">
        <ele>15.8</ele>
        <time>2020-06-02T08:24:48Z</time>
      </trkpt>
      <trkpt lat="46.16493" lon="-1.18434">
        <ele>15.8</ele>
        <time>2020-06-02T08:24:49Z</time>
      </trkpt>
      <trkpt lat="46.16492" lon="-1.18427">
        <ele>15.9</ele>
        <time>2020-06-02T08:24:50Z</time>
      </trkpt>
      <trkpt lat="46.16492" lon="-1.1842">
        <ele>15.9</ele>
        <time>2020-06-02T08:24:51Z</time>
      </trkpt>
      <trkpt lat="46.16491" lon="-1.18415">
        <ele>16</ele>
        <time>2020-06-02T08:24:52Z</time>
      </trkpt>
      <trkpt lat="46.1649" lon="-1.18409">
        <ele>16</ele>
        <time>2020-06-02T08:24:53Z</time>
      </trkpt>
      <trkpt lat="46.16489" lon="-1.18401">
        <ele>16.1</ele>
        <time>2020-06-02T08:24:54Z</time>
      </trkpt>
      <trkpt lat="46.16488" lon="-1.18394">
        <ele>16.1</ele>
        <time>2020-06-02T08:24:55Z</time>
      </trkpt>
      <trkpt lat="46.16487" lon="-1.18385">
        <ele>16.2</ele>
        <time>2020-06-02T08:24:56Z</time>
      </trkpt>
      <trkpt lat="46.16488" lon="-1.18377">
        <ele>16.3</ele>
        <time>2020-06-02T08:24:57Z</time>
      </trkpt>
      <trkpt lat="46.16487" lon="-1.18371">
        <ele>16.3</ele>
        <time>2020-06-02T08:24:58Z</time>
      </trkpt>
      <trkpt lat="46.16486" lon="-1.18365">
        <ele>16.4</ele>
        <time>2020-06-02T08:24:59Z</time>
      </trkpt>
      <trkpt lat="46.16486" lon="-1.1836">
        <ele>16.4</ele>
        <time>2020-06-02T08:25:00Z</time>
      </trkpt>
      <trkpt lat="46.16486" lon="-1.18355">
        <ele>16.5</ele>
        <time>2020-06-02T08:25:01Z</time>
      </trkpt>
      <trkpt lat="46.16485" lon="-1.1835">
        <ele>16.5</ele>
        <time>2020-06-02T08:25:02Z</time>
      </trkpt>
      <trkpt lat="46.16485" lon="-1.18343">
        <ele>16.6</ele>
        <time>2020-06-02T08:25:03Z</time>
      </trkpt>
      <trkpt lat="46.16484" lon="-1.18335">
        <ele>16.6</ele>
        <time>2020-06-02T08:25:04Z</time>
      </trkpt>
      <trkpt lat="46.16484" lon="-1.18327">
        <ele>16.6</ele>
        <time>2020-06-02T08:25:05Z</time>
      </trkpt>
      <trkpt lat="46.16483" lon="-1.18317">
        <ele>16.6</ele>
        <time>2020-06-02T08:25:06Z</time>
      </trkpt>
      <trkpt lat="46.16482" lon="-1.18307">
        <ele>16.5</ele>
        <time>2020-06-02T08:25:07Z</time>
      </trkpt>
      <trkpt lat="46.16481" lon="-1.18297">
        <ele>16.5</ele>
        <time>2020-06-02T08:25:08Z</time>
      </trkpt>
      <trkpt lat="46.16478" lon="-1.18287">
        <ele>16.5</ele>
        <time>2020-06-02T08:25:09Z</time>
      </trkpt>
      <trkpt lat="46.16475" lon="-1.18278">
        <ele>16.4</ele>
        <time>2020-06-02T08:25:10Z</time>
      </trkpt>
      <trkpt lat="46.16472" lon="-1.18267">
        <ele>16.4</ele>
        <time>2020-06-02T08:25:11Z</time>
      </trkpt>
      <trkpt lat="46.1647" lon="-1.18258">
        <ele>16.3</ele>
        <time>2020-06-02T08:25:12Z</time>
      </trkpt>
      <trkpt lat="46.16468" lon="-1.18249">
        <ele>16.3</ele>
        <time>2020-06-02T08:25:13Z</time>
      </trkpt>
      <trkpt lat="46.16466" lon="-1.1824">
        <ele>16.2</ele>
        <time>2020-06-02T08:25:14Z</time>
      </trkpt>
      <trkpt lat="46.16464" lon="-1.18231">
        <ele>16.2</ele>
        <time>2020-06-02T08:25:15Z</time>
      </trkpt>
      <trkpt lat="46.16462" lon="-1.18224">
        <ele>16.2</ele>
        <time>2020-06-02T08:25:16Z</time>
      </trkpt>
      <trkpt lat="46.1646" lon="-1.18215">
        <ele>16.1</ele>
        <time>2020-06-02T08:25:17Z</time>
      </trkpt>
      <trkpt lat="46.16458" lon="-1.18207">
        <ele>16.1</ele>
        <time>2020-06-02T08:25:18Z</time>
      </trkpt>
      <trkpt lat="46.16457" lon="-1.18203">
        <ele>16.1</ele>
        <time>2020-06-02T08:25:19Z</time>
      </trkpt>
      <trkpt lat="46.16455" lon="-1.18197">
        <ele>16.1</ele>
        <time>2020-06-02T08:25:20Z</time>
      </trkpt>
      <trkpt lat="46.16455" lon="-1.18194">
        <ele>16.1</ele>
        <time>2020-06-02T08:25:21Z</time>
      </trkpt>
      <trkpt lat="46.16453" lon="-1.18189">
        <ele>16.1</ele>
        <time>2020-06-02T08:25:22Z</time>
      </trkpt>
      <trkpt lat="46.16453" lon="-1.18187">
        <ele>16.1</ele>
        <time>2020-06-02T08:25:23Z</time>
      </trkpt>
      <trkpt lat="46.16452" lon="-1.18178">
        <ele>16</ele>
        <time>2020-06-02T08:25:24Z</time>
      </trkpt>
      <trkpt lat="46.16452" lon="-1.18169">
        <ele>16</ele>
        <time>2020-06-02T08:25:25Z</time>
      </trkpt>
      <trkpt lat="46.16453" lon="-1.18162">
        <ele>16.1</ele>
        <time>2020-06-02T08:25:26Z</time>
      </trkpt>
      <trkpt lat="46.16454" lon="-1.18152">
        <ele>16.2</ele>
        <time>2020-06-02T08:25:27Z</time>
      </trkpt>
      <trkpt lat="46.16455" lon="-1.18145">
        <ele>16.2</ele>
        <time>2020-06-02T08:25:28Z</time>
      </trkpt>
      <trkpt lat="46.16455" lon="-1.18136">
        <ele>16.4</ele>
        <time>2020-06-02T08:25:29Z</time>
      </trkpt>
      <trkpt lat="46.16456" lon="-1.18129">
        <ele>16.4</ele>
        <time>2020-06-02T08:25:30Z</time>
      </trkpt>
      <trkpt lat="46.16456" lon="-1.18121">
        <ele>16.5</ele>
        <time>2020-06-02T08:25:31Z</time>
      </trkpt>
      <trkpt lat="46.16457" lon="-1.18113">
        <ele>16.7</ele>
        <time>2020-06-02T08:25:32Z</time>
      </trkpt>
      <trkpt lat="46.16457" lon="-1.18105">
        <ele>16.8</ele>
        <time>2020-06-02T08:25:33Z</time>
      </trkpt>
      <trkpt lat="46.16458" lon="-1.18098">
        <ele>16.9</ele>
        <time>2020-06-02T08:25:34Z</time>
      </trkpt>
      <trkpt lat="46.16458" lon="-1.18091">
        <ele>17</ele>
        <time>2020-06-02T08:25:35Z</time>
      </trkpt>
      <trkpt lat="46.16458" lon="-1.18084">
        <ele>17.2</ele>
        <time>2020-06-02T08:25:36Z</time>
      </trkpt>
      <trkpt lat="46.16458" lon="-1.18076">
        <ele>17.3</ele>
        <time>2020-06-02T08:25:37Z</time>
      </trkpt>
      <trkpt lat="46.16458" lon="-1.1807">
        <ele>17.4</ele>
        <time>2020-06-02T08:25:38Z</time>
      </trkpt>
      <trkpt lat="46.16458" lon="-1.18062">
        <ele>17.5</ele>
        <time>2020-06-02T08:25:39Z</time>
      </trkpt>
      <trkpt lat="46.16458" lon="-1.18056">
        <ele>17.6</ele>
        <time>2020-06-02T08:25:40Z</time>
      </trkpt>
      <trkpt lat="46.16458" lon="-1.18049">
        <ele>17.6</ele>
        <time>2020-06-02T08:25:41Z</time>
      </trkpt>
      <trkpt lat="46.16459" lon="-1.18043">
        <ele>17.7</ele>
        <time>2020-06-02T08:25:42Z</time>
      </trkpt>
      <trkpt lat="46.1646" lon="-1.18036">
        <ele>17.8</ele>
        <time>2020-06-02T08:25:43Z</time>
      </trkpt>
      <trkpt lat="46.1646" lon="-1.18029">
        <ele>17.8</ele>
        <time>2020-06-02T08:25:44Z</time>
      </trkpt>
      <trkpt lat="46.16461" lon="-1.18022">
        <ele>17.9</ele>
        <time>2020-06-02T08:25:45Z</time>
      </trkpt>
      <trkpt lat="46.16461" lon="-1.18013">
        <ele>17.9</ele>
        <time>2020-06-02T08:25:46Z</time>
      </trkpt>
      <trkpt lat="46.1646" lon="-1.18005">
        <ele>17.9</ele>
        <time>2020-06-02T08:25:47Z</time>
      </trkpt>
      <trkpt lat="46.1646" lon="-1.17996">
        <ele>18</ele>
        <time>2020-06-02T08:25:48Z</time>
      </trkpt>
      <trkpt lat="46.16461" lon="-1.17989">
        <ele>18.1</ele>
        <time>2020-06-02T08:25:49Z</time>
      </trkpt>
      <trkpt lat="46.16462" lon="-1.17984">
        <ele>18.1</ele>
        <time>2020-06-02T08:25:50Z</time>
      </trkpt>
      <trkpt lat="46.1646" lon="-1.17979">
        <ele>18.2</ele>
        <time>2020-06-02T08:25:51Z</time>
      </trkpt>
      <trkpt lat="46.1646" lon="-1.17971">
        <ele>18.2</ele>
        <time>2020-06-02T08:25:52Z</time>
      </trkpt>
      <trkpt lat="46.1646" lon="-1.17963">
        <ele>18.4</ele>
        <time>2020-06-02T08:25:53Z</time>
      </trkpt>
      <trkpt lat="46.16461" lon="-1.17955">
        <ele>18.5</ele>
        <time>2020-06-02T08:25:54Z</time>
      </trkpt>
      <trkpt lat="46.16462" lon="-1.17948">
        <ele>18.6</ele>
        <time>2020-06-02T08:25:55Z</time>
      </trkpt>
      <trkpt lat="46.16462" lon="-1.17941">
        <ele>18.6</ele>
        <time>2020-06-02T08:25:56Z</time>
      </trkpt>
      <trkpt lat="46.16462" lon="-1.17935">
        <ele>18.7</ele>
        <time>2020-06-02T08:25:57Z</time>
      </trkpt>
      <trkpt lat="46.16461" lon="-1.17928">
        <ele>18.8</ele>
        <time>2020-06-02T08:25:58Z</time>
      </trkpt>
      <trkpt lat="46.16461" lon="-1.17921">
        <ele>18.8</ele>
        <time>2020-06-02T08:25:59Z</time>
      </trkpt>
      <trkpt lat="46.16461" lon="-1.17914">
        <ele>18.9</ele>
        <time>2020-06-02T08:26:00Z</time>
      </trkpt>
      <trkpt lat="46.16462" lon="-1.17907">
        <ele>19</ele>
        <time>2020-06-02T08:26:01Z</time>
      </trkpt>
      <trkpt lat="46.16462" lon="-1.17901">
        <ele>19</ele>
        <time>2020-06-02T08:26:02Z</time>
      </trkpt>
      <trkpt lat="46.16461" lon="-1.17893">
        <ele>19.1</ele>
        <time>2020-06-02T08:26:03Z</time>
      </trkpt>
      <trkpt lat="46.16461" lon="-1.17887">
        <ele>19.2</ele>
        <time>2020-06-02T08:26:04Z</time>
      </trkpt>
      <trkpt lat="46.16461" lon="-1.17882">
        <ele>19.3</ele>
        <time>2020-06-02T08:26:05Z</time>
      </trkpt>
      <trkpt lat="46.1646" lon="-1.17876">
        <ele>19.3</ele>
        <time>2020-06-02T08:26:06Z</time>
      </trkpt>
      <trkpt lat="46.1646" lon="-1.1787">
        <ele>19.3</ele>
        <time>2020-06-02T08:26:07Z</time>
      </trkpt>
      <trkpt lat="46.16459" lon="-1.17863">
        <ele>19.3</ele>
        <time>2020-06-02T08:26:08Z</time>
      </trkpt>
      <trkpt lat="46.16457" lon="-1.17855">
        <ele>19.4</ele>
        <time>2020-06-02T08:26:09Z</time>
      </trkpt>
      <trkpt lat="46.16455" lon="-1.17848">
        <ele>19.5</ele>
        <time>2020-06-02T08:26:10Z</time>
      </trkpt>
      <trkpt lat="46.16454" lon="-1.17841">
        <ele>19.6</ele>
        <time>2020-06-02T08:26:11Z</time>
      </trkpt>
      <trkpt lat="46.16453" lon="-1.17834">
        <ele>19.7</ele>
        <time>2020-06-02T08:26:12Z</time>
      </trkpt>
      <trkpt lat="46.16453" lon="-1.17827">
        <ele>19.8</ele>
        <time>2020-06-02T08:26:13Z</time>
      </trkpt>
      <trkpt lat="46.16452" lon="-1.17822">
        <ele>19.8</ele>
        <time>2020-06-02T08:26:14Z</time>
      </trkpt>
      <trkpt lat="46.16451" lon="-1.17816">
        <ele>19.9</ele>
        <time>2020-06-02T08:26:15Z</time>
      </trkpt>
      <trkpt lat="46.1645" lon="-1.17808">
        <ele>20</ele>
        <time>2020-06-02T08:26:16Z</time>
      </trkpt>
      <trkpt lat="46.16449" lon="-1.178">
        <ele>20</ele>
        <time>2020-06-02T08:26:17Z</time>
      </trkpt>
      <trkpt lat="46.16448" lon="-1.17793">
        <ele>20.1</ele>
        <time>2020-06-02T08:26:18Z</time>
      </trkpt>
      <trkpt lat="46.16448" lon="-1.17785">
        <ele>20.1</ele>
        <time>2020-06-02T08:26:19Z</time>
      </trkpt>
      <trkpt lat="46.16446" lon="-1.17777">
        <ele>20.2</ele>
        <time>2020-06-02T08:26:20Z</time>
      </trkpt>
      <trkpt lat="46.16445" lon="-1.17769">
        <ele>20.3</ele>
        <time>2020-06-02T08:26:21Z</time>
      </trkpt>
      <trkpt lat="46.16442" lon="-1.17764">
        <ele>20.3</ele>
        <time>2020-06-02T08:26:22Z</time>
      </trkpt>
      <trkpt lat="46.16441" lon="-1.17757">
        <ele>20.4</ele>
        <time>2020-06-02T08:26:23Z</time>
      </trkpt>
      <trkpt lat="46.1644" lon="-1.17754">
        <ele>20.4</ele>
        <time>2020-06-02T08:26:24Z</time>
      </trkpt>
      <trkpt lat="46.16438" lon="-1.17746">
        <ele>20.5</ele>
        <time>2020-06-02T08:26:25Z</time>
      </trkpt>
      <trkpt lat="46.16437" lon="-1.17738">
        <ele>20.5</ele>
        <time>2020-06-02T08:26:26Z</time>
      </trkpt>
      <trkpt lat="46.16436" lon="-1.17732">
        <ele>20.6</ele>
        <time>2020-06-02T08:26:27Z</time>
      </trkpt>
      <trkpt lat="46.16435" lon="-1.17726">
        <ele>20.6</ele>
        <time>2020-06-02T08:26:28Z</time>
      </trkpt>
      <trkpt lat="46.16435" lon="-1.1772">
        <ele>20.7</ele>
        <time>2020-06-02T08:26:29Z</time>
      </trkpt>
      <trkpt lat="46.16434" lon="-1.17714">
        <ele>20.7</ele>
        <time>2020-06-02T08:26:30Z</time>
      </trkpt>
      <trkpt lat="46.16431" lon="-1.17707">
        <ele>20.7</ele>
        <time>2020-06-02T08:26:31Z</time>
      </trkpt>
      <trkpt lat="46.1643" lon="-1.17703">
        <ele>20.8</ele>
        <time>2020-06-02T08:26:32Z</time>
      </trkpt>
      <trkpt lat="46.16429" lon="-1.17702">
        <ele>20.8</ele>
        <time>2020-06-02T08:26:33Z</time>
      </trkpt>
      <trkpt lat="46.16428" lon="-1.17698">
        <ele>20.8</ele>
        <time>2020-06-02T08:26:34Z</time>
      </trkpt>
      <trkpt lat="46.16429" lon="-1.17696">
        <ele>20.8</ele>
        <time>2020-06-02T08:26:35Z</time>
      </trkpt>
      <trkpt lat="46.16428" lon="-1.17693">
        <ele>20.8</ele>
        <time>2020-06-02T08:26:36Z</time>
      </trkpt>
      <trkpt lat="46.16427" lon="-1.17688">
        <ele>20.8</ele>
        <time>2020-06-02T08:26:37Z</time>
      </trkpt>
      <trkpt lat="46.16427" lon="-1.17682">
        <ele>20.9</ele>
        <time>2020-06-02T08:26:38Z</time>
      </trkpt>
      <trkpt lat="46.16426" lon="-1.17677">
        <ele>20.9</ele>
        <time>2020-06-02T08:26:39Z</time>
      </trkpt>
      <trkpt lat="46.16423" lon="-1.17669">
        <ele>20.9</ele>
        <time>2020-06-02T08:26:40Z</time>
      </trkpt>
      <trkpt lat="46.16422" lon="-1.17664">
        <ele>20.9</ele>
        <time>2020-06-02T08:26:41Z</time>
      </trkpt>
      <trkpt lat="46.16421" lon="-1.17658">
        <ele>20.8</ele>
        <time>2020-06-02T08:26:42Z</time>
      </trkpt>
      <trkpt lat="46.16421" lon="-1.17651">
        <ele>20.8</ele>
        <time>2020-06-02T08:26:43Z</time>
      </trkpt>
      <trkpt lat="46.1642" lon="-1.17645">
        <ele>20.7</ele>
        <time>2020-06-02T08:26:44Z</time>
      </trkpt>
      <trkpt lat="46.16419" lon="-1.17638">
        <ele>20.6</ele>
        <time>2020-06-02T08:26:45Z</time>
      </trkpt>
      <trkpt lat="46.16418" lon="-1.17632">
        <ele>20.5</ele>
        <time>2020-06-02T08:26:46Z</time>
      </trkpt>
      <trkpt lat="46.16418" lon="-1.17626">
        <ele>20.4</ele>
        <time>2020-06-02T08:26:47Z</time>
      </trkpt>
      <trkpt lat="46.16418" lon="-1.17621">
        <ele>20.4</ele>
        <time>2020-06-02T08:26:48Z</time>
      </trkpt>
      <trkpt lat="46.16418" lon="-1.17615">
        <ele>20.3</ele>
        <time>2020-06-02T08:26:49Z</time>
      </trkpt>
      <trkpt lat="46.16418" lon="-1.1761">
        <ele>20.2</ele>
        <time>2020-06-02T08:26:50Z</time>
      </trkpt>
      <trkpt lat="46.16417" lon="-1.17603">
        <ele>20.2</ele>
        <time>2020-06-02T08:26:51Z</time>
      </trkpt>
      <trkpt lat="46.16416" lon="-1.17596">
        <ele>20.1</ele>
        <time>2020-06-02T08:26:52Z</time>
      </trkpt>
      <trkpt lat="46.16416" lon="-1.1759">
        <ele>20.1</ele>
        <time>2020-06-02T08:26:53Z</time>
      </trkpt>
      <trkpt lat="46.16415" lon="-1.17585">
        <ele>20.1</ele>
        <time>2020-06-02T08:26:54Z</time>
      </trkpt>
      <trkpt lat="46.16415" lon="-1.1758">
        <ele>20</ele>
        <time>2020-06-02T08:26:55Z</time>
      </trkpt>
      <trkpt lat="46.16414" lon="-1.17574">
        <ele>19.9</ele>
        <time>2020-06-02T08:26:56Z</time>
      </trkpt>
      <trkpt lat="46.16414" lon="-1.17566">
        <ele>19.8</ele>
        <time>2020-06-02T08:26:57Z</time>
      </trkpt>
      <trkpt lat="46.16414" lon="-1.17558">
        <ele>19.7</ele>
        <time>2020-06-02T08:26:58Z</time>
      </trkpt>
      <trkpt lat="46.16413" lon="-1.17552">
        <ele>19.7</ele>
        <time>2020-06-02T08:26:59Z</time>
      </trkpt>
      <trkpt lat="46.16411" lon="-1.17545">
        <ele>19.5</ele>
        <time>2020-06-02T08:27:00Z</time>
      </trkpt>
      <trkpt lat="46.16411" lon="-1.17541">
        <ele>19.5</ele>
        <time>2020-06-02T08:27:01Z</time>
      </trkpt>
      <trkpt lat="46.1641" lon="-1.17536">
        <ele>19.4</ele>
        <time>2020-06-02T08:27:02Z</time>
      </trkpt>
      <trkpt lat="46.1641" lon="-1.1753">
        <ele>19.3</ele>
        <time>2020-06-02T08:27:03Z</time>
      </trkpt>
      <trkpt lat="46.16408" lon="-1.17525">
        <ele>19.3</ele>
        <time>2020-06-02T08:27:04Z</time>
      </trkpt>
      <trkpt lat="46.16407" lon="-1.17519">
        <ele>19.2</ele>
        <time>2020-06-02T08:27:05Z</time>
      </trkpt>
      <trkpt lat="46.16406" lon="-1.17513">
        <ele>19.1</ele>
        <time>2020-06-02T08:27:06Z</time>
      </trkpt>
      <trkpt lat="46.16405" lon="-1.17508">
        <ele>19</ele>
        <time>2020-06-02T08:27:07Z</time>
      </trkpt>
      <trkpt lat="46.16405" lon="-1.17502">
        <ele>18.8</ele>
        <time>2020-06-02T08:27:08Z</time>
      </trkpt>
      <trkpt lat="46.16405" lon="-1.17496">
        <ele>18.7</ele>
        <time>2020-06-02T08:27:09Z</time>
      </trkpt>
      <trkpt lat="46.16405" lon="-1.1749">
        <ele>18.5</ele>
        <time>2020-06-02T08:27:10Z</time>
      </trkpt>
      <trkpt lat="46.16404" lon="-1.17484">
        <ele>18.3</ele>
        <time>2020-06-02T08:27:11Z</time>
      </trkpt>
      <trkpt lat="46.164" lon="-1.17478">
        <ele>18.1</ele>
        <time>2020-06-02T08:27:12Z</time>
      </trkpt>
      <trkpt lat="46.164" lon="-1.1747">
        <ele>17.9</ele>
        <time>2020-06-02T08:27:13Z</time>
      </trkpt>
      <trkpt lat="46.164" lon="-1.17463">
        <ele>17.8</ele>
        <time>2020-06-02T08:27:14Z</time>
      </trkpt>
      <trkpt lat="46.164" lon="-1.17457">
        <ele>17.6</ele>
        <time>2020-06-02T08:27:15Z</time>
      </trkpt>
      <trkpt lat="46.16399" lon="-1.1745">
        <ele>17.5</ele>
        <time>2020-06-02T08:27:16Z</time>
      </trkpt>
      <trkpt lat="46.16399" lon="-1.17444">
        <ele>17.4</ele>
        <time>2020-06-02T08:27:17Z</time>
      </trkpt>
      <trkpt lat="46.16398" lon="-1.17438">
        <ele>17.3</ele>
        <time>2020-06-02T08:27:18Z</time>
      </trkpt>
      <trkpt lat="46.16398" lon="-1.17432">
        <ele>17.2</ele>
        <time>2020-06-02T08:27:19Z</time>
      </trkpt>
      <trkpt lat="46.16397" lon="-1.17425">
        <ele>17.1</ele>
        <time>2020-06-02T08:27:20Z</time>
      </trkpt>
      <trkpt lat="46.16397" lon="-1.17418">
        <ele>17</ele>
        <time>2020-06-02T08:27:21Z</time>
      </trkpt>
      <trkpt lat="46.16397" lon="-1.17413">
        <ele>16.9</ele>
        <time>2020-06-02T08:27:22Z</time>
      </trkpt>
      <trkpt lat="46.16396" lon="-1.17407">
        <ele>16.8</ele>
        <time>2020-06-02T08:27:23Z</time>
      </trkpt>
      <trkpt lat="46.16395" lon="-1.17399">
        <ele>16.7</ele>
        <time>2020-06-02T08:27:24Z</time>
      </trkpt>
      <trkpt lat="46.16395" lon="-1.17392">
        <ele>16.5</ele>
        <time>2020-06-02T08:27:25Z</time>
      </trkpt>
      <trkpt lat="46.16394" lon="-1.17384">
        <ele>16.4</ele>
        <time>2020-06-02T08:27:26Z</time>
      </trkpt>
      <trkpt lat="46.16393" lon="-1.17376">
        <ele>16.2</ele>
        <time>2020-06-02T08:27:27Z</time>
      </trkpt>
      <trkpt lat="46.16393" lon="-1.17369">
        <ele>16.1</ele>
        <time>2020-06-02T08:27:28Z</time>
      </trkpt>
      <trkpt lat="46.16392" lon="-1.17362">
        <ele>16</ele>
        <time>2020-06-02T08:27:29Z</time>
      </trkpt>
      <trkpt lat="46.16392" lon="-1.17356">
        <ele>15.9</ele>
        <time>2020-06-02T08:27:30Z</time>
      </trkpt>
      <trkpt lat="46.16391" lon="-1.17349">
        <ele>15.8</ele>
        <time>2020-06-02T08:27:31Z</time>
      </trkpt>
      <trkpt lat="46.1639" lon="-1.17341">
        <ele>15.6</ele>
        <time>2020-06-02T08:27:32Z</time>
      </trkpt>
      <trkpt lat="46.16389" lon="-1.17335">
        <ele>15.5</ele>
        <time>2020-06-02T08:27:33Z</time>
      </trkpt>
      <trkpt lat="46.16388" lon="-1.17328">
        <ele>15.3</ele>
        <time>2020-06-02T08:27:34Z</time>
      </trkpt>
      <trkpt lat="46.16388" lon="-1.17319">
        <ele>15</ele>
        <time>2020-06-02T08:27:35Z</time>
      </trkpt>
      <trkpt lat="46.16388" lon="-1.1731">
        <ele>14.8</ele>
        <time>2020-06-02T08:27:36Z</time>
      </trkpt>
      <trkpt lat="46.16387" lon="-1.17302">
        <ele>14.6</ele>
        <time>2020-06-02T08:27:37Z</time>
      </trkpt>
      <trkpt lat="46.16386" lon="-1.17295">
        <ele>14.5</ele>
        <time>2020-06-02T08:27:38Z</time>
      </trkpt>
      <trkpt lat="46.16384" lon="-1.17287">
        <ele>14.3</ele>
        <time>2020-06-02T08:27:39Z</time>
      </trkpt>
      <trkpt lat="46.16383" lon="-1.17279">
        <ele>14.2</ele>
        <time>2020-06-02T08:27:40Z</time>
      </trkpt>
      <trkpt lat="46.16383" lon="-1.17272">
        <ele>14</ele>
        <time>2020-06-02T08:27:41Z</time>
      </trkpt>
      <trkpt lat="46.16382" lon="-1.17266">
        <ele>13.9</ele>
        <time>2020-06-02T08:27:42Z</time>
      </trkpt>
      <trkpt lat="46.1638" lon="-1.17259">
        <ele>13.8</ele>
        <time>2020-06-02T08:27:43Z</time>
      </trkpt>
      <trkpt lat="46.16379" lon="-1.17253">
        <ele>13.6</ele>
        <time>2020-06-02T08:27:44Z</time>
      </trkpt>
      <trkpt lat="46.16378" lon="-1.17247">
        <ele>13.5</ele>
        <time>2020-06-02T08:27:45Z</time>
      </trkpt>
      <trkpt lat="46.16376" lon="-1.1724">
        <ele>13.4</ele>
        <time>2020-06-02T08:27:46Z</time>
      </trkpt>
      <trkpt lat="46.16376" lon="-1.17233">
        <ele>13.3</ele>
        <time>2020-06-02T08:27:47Z</time>
      </trkpt>
      <trkpt lat="46.16375" lon="-1.17226">
        <ele>13.2</ele>
        <time>2020-06-02T08:27:48Z</time>
      </trkpt>
      <trkpt lat="46.16374" lon="-1.1722">
        <ele>13.1</ele>
        <time>2020-06-02T08:27:49Z</time>
      </trkpt>
      <trkpt lat="46.16375" lon="-1.17213">
        <ele>13</ele>
        <time>2020-06-02T08:27:50Z</time>
      </trkpt>
      <trkpt lat="46.16375" lon="-1.17205">
        <ele>12.9</ele>
        <time>2020-06-02T08:27:51Z</time>
      </trkpt>
      <trkpt lat="46.16374" lon="-1.17199">
        <ele>12.9</ele>
        <time>2020-06-02T08:27:52Z</time>
      </trkpt>
      <trkpt lat="46.16374" lon="-1.17191">
        <ele>12.8</ele>
        <time>2020-06-02T08:27:53Z</time>
      </trkpt>
      <trkpt lat="46.16373" lon="-1.17183">
        <ele>12.8</ele>
        <time>2020-06-02T08:27:54Z</time>
      </trkpt>
      <trkpt lat="46.16372" lon="-1.17177">
        <ele>12.7</ele>
        <time>2020-06-02T08:27:55Z</time>
      </trkpt>
      <trkpt lat="46.16372" lon="-1.17171">
        <ele>12.6</ele>
        <time>2020-06-02T08:27:56Z</time>
      </trkpt>
      <trkpt lat="46.16372" lon="-1.17163">
        <ele>12.4</ele>
        <time>2020-06-02T08:27:57Z</time>
      </trkpt>
      <trkpt lat="46.16371" lon="-1.17155">
        <ele>12.3</ele>
        <time>2020-06-02T08:27:58Z</time>
      </trkpt>
      <trkpt lat="46.16371" lon="-1.17147">
        <ele>12.2</ele>
        <time>2020-06-02T08:27:59Z</time>
      </trkpt>
      <trkpt lat="46.1637" lon="-1.17139">
        <ele>12</ele>
        <time>2020-06-02T08:28:00Z</time>
      </trkpt>
      <trkpt lat="46.16369" lon="-1.17132">
        <ele>12</ele>
        <time>2020-06-02T08:28:01Z</time>
      </trkpt>
      <trkpt lat="46.16368" lon="-1.17124">
        <ele>11.9</ele>
        <time>2020-06-02T08:28:02Z</time>
      </trkpt>
      <trkpt lat="46.16367" lon="-1.17117">
        <ele>11.8</ele>
        <time>2020-06-02T08:28:03Z</time>
      </trkpt>
      <trkpt lat="46.16367" lon="-1.17109">
        <ele>11.7</ele>
        <time>2020-06-02T08:28:04Z</time>
      </trkpt>
      <trkpt lat="46.16365" lon="-1.17103">
        <ele>11.6</ele>
        <time>2020-06-02T08:28:05Z</time>
      </trkpt>
      <trkpt lat="46.16364" lon="-1.17096">
        <ele>11.5</ele>
        <time>2020-06-02T08:28:06Z</time>
      </trkpt>
      <trkpt lat="46.16363" lon="-1.1709">
        <ele>11.4</ele>
        <time>2020-06-02T08:28:07Z</time>
      </trkpt>
      <trkpt lat="46.16362" lon="-1.17084">
        <ele>11.4</ele>
        <time>2020-06-02T08:28:08Z</time>
      </trkpt>
      <trkpt lat="46.16361" lon="-1.17077">
        <ele>11.3</ele>
        <time>2020-06-02T08:28:09Z</time>
      </trkpt>
      <trkpt lat="46.16362" lon="-1.17072">
        <ele>11.1</ele>
        <time>2020-06-02T08:28:10Z</time>
      </trkpt>
      <trkpt lat="46.1636" lon="-1.17063">
        <ele>10.9</ele>
        <time>2020-06-02T08:28:11Z</time>
      </trkpt>
      <trkpt lat="46.16359" lon="-1.17054">
        <ele>10.6</ele>
        <time>2020-06-02T08:28:12Z</time>
      </trkpt>
      <trkpt lat="46.16358" lon="-1.17045">
        <ele>10.3</ele>
        <time>2020-06-02T08:28:13Z</time>
      </trkpt>
      <trkpt lat="46.16355" lon="-1.17036">
        <ele>10</ele>
        <time>2020-06-02T08:28:14Z</time>
      </trkpt>
      <trkpt lat="46.16354" lon="-1.17025">
        <ele>9.7</ele>
        <time>2020-06-02T08:28:15Z</time>
      </trkpt>
      <trkpt lat="46.16355" lon="-1.17015">
        <ele>9.4</ele>
        <time>2020-06-02T08:28:16Z</time>
      </trkpt>
      <trkpt lat="46.16355" lon="-1.17005">
        <ele>9.2</ele>
        <time>2020-06-02T08:28:17Z</time>
      </trkpt>
      <trkpt lat="46.16354" lon="-1.16995">
        <ele>9</ele>
        <time>2020-06-02T08:28:18Z</time>
      </trkpt>
      <trkpt lat="46.16354" lon="-1.16987">
        <ele>8.8</ele>
        <time>2020-06-02T08:28:19Z</time>
      </trkpt>
      <trkpt lat="46.16352" lon="-1.16977">
        <ele>8.6</ele>
        <time>2020-06-02T08:28:20Z</time>
      </trkpt>
      <trkpt lat="46.16351" lon="-1.16968">
        <ele>8.5</ele>
        <time>2020-06-02T08:28:21Z</time>
      </trkpt>
      <trkpt lat="46.1635" lon="-1.16958">
        <ele>8.3</ele>
        <time>2020-06-02T08:28:22Z</time>
      </trkpt>
      <trkpt lat="46.16349" lon="-1.16949">
        <ele>8.1</ele>
        <time>2020-06-02T08:28:23Z</time>
      </trkpt>
      <trkpt lat="46.16349" lon="-1.16943">
        <ele>8.1</ele>
        <time>2020-06-02T08:28:24Z</time>
      </trkpt>
      <trkpt lat="46.16348" lon="-1.16937">
        <ele>8.1</ele>
        <time>2020-06-02T08:28:25Z</time>
      </trkpt>
      <trkpt lat="46.16348" lon="-1.16935">
        <ele>8.1</ele>
        <time>2020-06-02T08:28:26Z</time>
      </trkpt>
      <trkpt lat="46.16347" lon="-1.16928">
        <ele>8.1</ele>
        <time>2020-06-02T08:28:27Z</time>
      </trkpt>
      <trkpt lat="46.16346" lon="-1.16919">
        <ele>8.1</ele>
        <time>2020-06-02T08:28:28Z</time>
      </trkpt>
      <trkpt lat="46.16344" lon="-1.16911">
        <ele>8.1</ele>
        <time>2020-06-02T08:28:29Z</time>
      </trkpt>
      <trkpt lat="46.16344" lon="-1.16902">
        <ele>8.1</ele>
        <time>2020-06-02T08:28:30Z</time>
      </trkpt>
      <trkpt lat="46.16344" lon="-1.16894">
        <ele>8.1</ele>
        <time>2020-06-02T08:28:31Z</time>
      </trkpt>
      <trkpt lat="46.16344" lon="-1.16886">
        <ele>8</ele>
        <time>2020-06-02T08:28:32Z</time>
      </trkpt>
      <trkpt lat="46.16344" lon="-1.16878">
        <ele>8</ele>
        <time>2020-06-02T08:28:33Z</time>
      </trkpt>
      <trkpt lat="46.16343" lon="-1.16869">
        <ele>8</ele>
        <time>2020-06-02T08:28:34Z</time>
      </trkpt>
      <trkpt lat="46.16343" lon="-1.16861">
        <ele>8</ele>
        <time>2020-06-02T08:28:35Z</time>
      </trkpt>
      <trkpt lat="46.16341" lon="-1.16854">
        <ele>8</ele>
        <time>2020-06-02T08:28:36Z</time>
      </trkpt>
      <trkpt lat="46.16339" lon="-1.16846">
        <ele>8.1</ele>
        <time>2020-06-02T08:28:37Z</time>
      </trkpt>
      <trkpt lat="46.16338" lon="-1.16838">
        <ele>8.1</ele>
        <time>2020-06-02T08:28:38Z</time>
      </trkpt>
      <trkpt lat="46.16337" lon="-1.1683">
        <ele>8.1</ele>
        <time>2020-06-02T08:28:39Z</time>
      </trkpt>
      <trkpt lat="46.16336" lon="-1.16822">
        <ele>8.1</ele>
        <time>2020-06-02T08:28:40Z</time>
      </trkpt>
      <trkpt lat="46.16336" lon="-1.16813">
        <ele>8.1</ele>
        <time>2020-06-02T08:28:41Z</time>
      </trkpt>
      <trkpt lat="46.16335" lon="-1.16805">
        <ele>8.1</ele>
        <time>2020-06-02T08:28:42Z</time>
      </trkpt>
      <trkpt lat="46.16333" lon="-1.16797">
        <ele>8.1</ele>
        <time>2020-06-02T08:28:43Z</time>
      </trkpt>
      <trkpt lat="46.16331" lon="-1.16789">
        <ele>8.1</ele>
        <time>2020-06-02T08:28:44Z</time>
      </trkpt>
      <trkpt lat="46.16331" lon="-1.16781">
        <ele>8.2</ele>
        <time>2020-06-02T08:28:45Z</time>
      </trkpt>
      <trkpt lat="46.1633" lon="-1.16776">
        <ele>8.2</ele>
        <time>2020-06-02T08:28:46Z</time>
      </trkpt>
      <trkpt lat="46.16329" lon="-1.16768">
        <ele>8.2</ele>
        <time>2020-06-02T08:28:47Z</time>
      </trkpt>
      <trkpt lat="46.16328" lon="-1.1676">
        <ele>8.2</ele>
        <time>2020-06-02T08:28:48Z</time>
      </trkpt>
      <trkpt lat="46.16327" lon="-1.16752">
        <ele>8.2</ele>
        <time>2020-06-02T08:28:49Z</time>
      </trkpt>
      <trkpt lat="46.16327" lon="-1.16742">
        <ele>8.2</ele>
        <time>2020-06-02T08:28:50Z</time>
      </trkpt>
      <trkpt lat="46.16327" lon="-1.16735">
        <ele>8.2</ele>
        <time>2020-06-02T08:28:51Z</time>
      </trkpt>
      <trkpt lat="46.16326" lon="-1.16729">
        <ele>8.2</ele>
        <time>2020-06-02T08:28:52Z</time>
      </trkpt>
      <trkpt lat="46.16326" lon="-1.16722">
        <ele>8.2</ele>
        <time>2020-06-02T08:28:53Z</time>
      </trkpt>
      <trkpt lat="46.16326" lon="-1.16716">
        <ele>8.2</ele>
        <time>2020-06-02T08:28:54Z</time>
      </trkpt>
      <trkpt lat="46.16326" lon="-1.1671">
        <ele>8.2</ele>
        <time>2020-06-02T08:28:55Z</time>
      </trkpt>
      <trkpt lat="46.16326" lon="-1.16705">
        <ele>8.2</ele>
        <time>2020-06-02T08:28:56Z</time>
      </trkpt>
      <trkpt lat="46.16326" lon="-1.16698">
        <ele>8.2</ele>
        <time>2020-06-02T08:28:57Z</time>
      </trkpt>
      <trkpt lat="46.16325" lon="-1.16691">
        <ele>8.2</ele>
        <time>2020-06-02T08:28:58Z</time>
      </trkpt>
      <trkpt lat="46.16325" lon="-1.16685">
        <ele>8.2</ele>
        <time>2020-06-02T08:28:59Z</time>
      </trkpt>
      <trkpt lat="46.16324" lon="-1.16678">
        <ele>8.2</ele>
        <time>2020-06-02T08:29:00Z</time>
      </trkpt>
      <trkpt lat="46.16323" lon="-1.16671">
        <ele>8.2</ele>
        <time>2020-06-02T08:29:01Z</time>
      </trkpt>
      <trkpt lat="46.16323" lon="-1.16664">
        <ele>8.2</ele>
        <time>2020-06-02T08:29:02Z</time>
      </trkpt>
      <trkpt lat="46.16321" lon="-1.16658">
        <ele>8.2</ele>
        <time>2020-06-02T08:29:03Z</time>
      </trkpt>
      <trkpt lat="46.16321" lon="-1.16652">
        <ele>8.2</ele>
        <time>2020-06-02T08:29:04Z</time>
      </trkpt>
      <trkpt lat="46.1632" lon="-1.16645">
        <ele>8.2</ele>
        <time>2020-06-02T08:29:05Z</time>
      </trkpt>
      <trkpt lat="46.16319" lon="-1.16639">
        <ele>8.2</ele>
        <time>2020-06-02T08:29:06Z</time>
      </trkpt>
      <trkpt lat="46.16319" lon="-1.16633">
        <ele>8.1</ele>
        <time>2020-06-02T08:29:07Z</time>
      </trkpt>
      <trkpt lat="46.16318" lon="-1.16627">
        <ele>8.1</ele>
        <time>2020-06-02T08:29:08Z</time>
      </trkpt>
      <trkpt lat="46.16317" lon="-1.16621">
        <ele>8.1</ele>
        <time>2020-06-02T08:29:09Z</time>
      </trkpt>
      <trkpt lat="46.16317" lon="-1.16614">
        <ele>8</ele>
        <time>2020-06-02T08:29:10Z</time>
      </trkpt>
      <trkpt lat="46.16317" lon="-1.16608">
        <ele>8</ele>
        <time>2020-06-02T08:29:11Z</time>
      </trkpt>
      <trkpt lat="46.16316" lon="-1.16603">
        <ele>8</ele>
        <time>2020-06-02T08:29:12Z</time>
      </trkpt>
      <trkpt lat="46.16315" lon="-1.16597">
        <ele>8</ele>
        <time>2020-06-02T08:29:13Z</time>
      </trkpt>
      <trkpt lat="46.16314" lon="-1.16592">
        <ele>8</ele>
        <time>2020-06-02T08:29:14Z</time>
      </trkpt>
      <trkpt lat="46.16313" lon="-1.16587">
        <ele>8</ele>
        <time>2020-06-02T08:29:15Z</time>
      </trkpt>
      <trkpt lat="46.16312" lon="-1.16581">
        <ele>8</ele>
        <time>2020-06-02T08:29:16Z</time>
      </trkpt>
      <trkpt lat="46.1631" lon="-1.16575">
        <ele>8</ele>
        <time>2020-06-02T08:29:17Z</time>
      </trkpt>
      <trkpt lat="46.16309" lon="-1.1657">
        <ele>8</ele>
        <time>2020-06-02T08:29:18Z</time>
      </trkpt>
      <trkpt lat="46.16309" lon="-1.16564">
        <ele>8</ele>
        <time>2020-06-02T08:29:19Z</time>
      </trkpt>
      <trkpt lat="46.16309" lon="-1.16559">
        <ele>8</ele>
        <time>2020-06-02T08:29:20Z</time>
      </trkpt>
      <trkpt lat="46.1631" lon="-1.16553">
        <ele>8</ele>
        <time>2020-06-02T08:29:21Z</time>
      </trkpt>
      <trkpt lat="46.1631" lon="-1.16547">
        <ele>7.9</ele>
        <time>2020-06-02T08:29:22Z</time>
      </trkpt>
      <trkpt lat="46.1631" lon="-1.16541">
        <ele>7.9</ele>
        <time>2020-06-02T08:29:23Z</time>
      </trkpt>
      <trkpt lat="46.1631" lon="-1.16535">
        <ele>7.9</ele>
        <time>2020-06-02T08:29:24Z</time>
      </trkpt>
      <trkpt lat="46.1631" lon="-1.1653">
        <ele>7.9</ele>
        <time>2020-06-02T08:29:25Z</time>
      </trkpt>
      <trkpt lat="46.16307" lon="-1.16527">
        <ele>7.9</ele>
        <time>2020-06-02T08:29:26Z</time>
      </trkpt>
      <trkpt lat="46.16306" lon="-1.16523">
        <ele>7.9</ele>
        <time>2020-06-02T08:29:27Z</time>
      </trkpt>
      <trkpt lat="46.16305" lon="-1.16521">
        <ele>7.9</ele>
        <time>2020-06-02T08:29:28Z</time>
      </trkpt>
      <trkpt lat="46.16305" lon="-1.16519">
        <ele>7.9</ele>
        <time>2020-06-02T08:29:29Z</time>
      </trkpt>
      <trkpt lat="46.16305" lon="-1.16515">
        <ele>7.9</ele>
        <time>2020-06-02T08:29:30Z</time>
      </trkpt>
      <trkpt lat="46.16305" lon="-1.16514">
        <ele>7.9</ele>
        <time>2020-06-02T08:29:31Z</time>
      </trkpt>
      <trkpt lat="46.16305" lon="-1.16509">
        <ele>7.9</ele>
        <time>2020-06-02T08:29:32Z</time>
      </trkpt>
      <trkpt lat="46.16305" lon="-1.16504">
        <ele>7.9</ele>
        <time>2020-06-02T08:29:33Z</time>
      </trkpt>
      <trkpt lat="46.16304" lon="-1.16498">
        <ele>7.9</ele>
        <time>2020-06-02T08:29:34Z</time>
      </trkpt>
      <trkpt lat="46.16303" lon="-1.16493">
        <ele>7.9</ele>
        <time>2020-06-02T08:29:35Z</time>
      </trkpt>
      <trkpt lat="46.16303" lon="-1.16488">
        <ele>8</ele>
        <time>2020-06-02T08:29:36Z</time>
      </trkpt>
      <trkpt lat="46.16303" lon="-1.16483">
        <ele>8</ele>
        <time>2020-06-02T08:29:37Z</time>
      </trkpt>
      <trkpt lat="46.16302" lon="-1.16478">
        <ele>8</ele>
        <time>2020-06-02T08:29:38Z</time>
      </trkpt>
      <trkpt lat="46.16302" lon="-1.16472">
        <ele>8</ele>
        <time>2020-06-02T08:29:39Z</time>
      </trkpt>
      <trkpt lat="46.16301" lon="-1.16466">
        <ele>8</ele>
        <time>2020-06-02T08:29:40Z</time>
      </trkpt>
      <trkpt lat="46.163" lon="-1.16461">
        <ele>8</ele>
        <time>2020-06-02T08:29:41Z</time>
      </trkpt>
      <trkpt lat="46.163" lon="-1.16456">
        <ele>8</ele>
        <time>2020-06-02T08:29:42Z</time>
      </trkpt>
      <trkpt lat="46.16299" lon="-1.16449">
        <ele>8.1</ele>
        <time>2020-06-02T08:29:43Z</time>
      </trkpt>
      <trkpt lat="46.16299" lon="-1.16443">
        <ele>8.1</ele>
        <time>2020-06-02T08:29:44Z</time>
      </trkpt>
      <trkpt lat="46.163" lon="-1.16437">
        <ele>8.1</ele>
        <time>2020-06-02T08:29:45Z</time>
      </trkpt>
      <trkpt lat="46.163" lon="-1.16431">
        <ele>8.1</ele>
        <time>2020-06-02T08:29:46Z</time>
      </trkpt>
      <trkpt lat="46.16299" lon="-1.16426">
        <ele>8.1</ele>
        <time>2020-06-02T08:29:47Z</time>
      </trkpt>
      <trkpt lat="46.16299" lon="-1.16419">
        <ele>8.1</ele>
        <time>2020-06-02T08:29:48Z</time>
      </trkpt>
      <trkpt lat="46.16299" lon="-1.16414">
        <ele>8</ele>
        <time>2020-06-02T08:29:49Z</time>
      </trkpt>
      <trkpt lat="46.16298" lon="-1.16408">
        <ele>8</ele>
        <time>2020-06-02T08:29:50Z</time>
      </trkpt>
      <trkpt lat="46.16298" lon="-1.16402">
        <ele>8</ele>
        <time>2020-06-02T08:29:51Z</time>
      </trkpt>
      <trkpt lat="46.16297" lon="-1.16396">
        <ele>8</ele>
        <time>2020-06-02T08:29:52Z</time>
      </trkpt>
      <trkpt lat="46.16297" lon="-1.1639">
        <ele>7.9</ele>
        <time>2020-06-02T08:29:53Z</time>
      </trkpt>
      <trkpt lat="46.16295" lon="-1.16383">
        <ele>7.9</ele>
        <time>2020-06-02T08:29:54Z</time>
      </trkpt>
      <trkpt lat="46.16294" lon="-1.16376">
        <ele>7.8</ele>
        <time>2020-06-02T08:29:55Z</time>
      </trkpt>
      <trkpt lat="46.16294" lon="-1.1637">
        <ele>7.8</ele>
        <time>2020-06-02T08:29:56Z</time>
      </trkpt>
      <trkpt lat="46.16293" lon="-1.16363">
        <ele>7.7</ele>
        <time>2020-06-02T08:29:57Z</time>
      </trkpt>
      <trkpt lat="46.16292" lon="-1.16356">
        <ele>7.7</ele>
        <time>2020-06-02T08:29:58Z</time>
      </trkpt>
      <trkpt lat="46.16291" lon="-1.16349">
        <ele>7.6</ele>
        <time>2020-06-02T08:29:59Z</time>
      </trkpt>
      <trkpt lat="46.16291" lon="-1.16344">
        <ele>7.5</ele>
        <time>2020-06-02T08:30:00Z</time>
      </trkpt>
      <trkpt lat="46.16291" lon="-1.16336">
        <ele>7.5</ele>
        <time>2020-06-02T08:30:01Z</time>
      </trkpt>
      <trkpt lat="46.1629" lon="-1.1633">
        <ele>7.5</ele>
        <time>2020-06-02T08:30:02Z</time>
      </trkpt>
      <trkpt lat="46.1629" lon="-1.16322">
        <ele>7.4</ele>
        <time>2020-06-02T08:30:03Z</time>
      </trkpt>
      <trkpt lat="46.16288" lon="-1.16316">
        <ele>7.4</ele>
        <time>2020-06-02T08:30:04Z</time>
      </trkpt>
      <trkpt lat="46.16287" lon="-1.1631">
        <ele>7.4</ele>
        <time>2020-06-02T08:30:05Z</time>
      </trkpt>
      <trkpt lat="46.16286" lon="-1.16303">
        <ele>7.3</ele>
        <time>2020-06-02T08:30:06Z</time>
      </trkpt>
      <trkpt lat="46.16285" lon="-1.16295">
        <ele>7.3</ele>
        <time>2020-06-02T08:30:07Z</time>
      </trkpt>
      <trkpt lat="46.16285" lon="-1.16288">
        <ele>7.2</ele>
        <time>2020-06-02T08:30:08Z</time>
      </trkpt>
      <trkpt lat="46.16285" lon="-1.16281">
        <ele>7.1</ele>
        <time>2020-06-02T08:30:09Z</time>
      </trkpt>
      <trkpt lat="46.16284" lon="-1.16273">
        <ele>7</ele>
        <time>2020-06-02T08:30:10Z</time>
      </trkpt>
      <trkpt lat="46.16283" lon="-1.16264">
        <ele>7</ele>
        <time>2020-06-02T08:30:11Z</time>
      </trkpt>
      <trkpt lat="46.16281" lon="-1.16256">
        <ele>6.9</ele>
        <time>2020-06-02T08:30:12Z</time>
      </trkpt>
      <trkpt lat="46.16281" lon="-1.16247">
        <ele>6.8</ele>
        <time>2020-06-02T08:30:13Z</time>
      </trkpt>
      <trkpt lat="46.1628" lon="-1.1624">
        <ele>6.8</ele>
        <time>2020-06-02T08:30:14Z</time>
      </trkpt>
      <trkpt lat="46.16279" lon="-1.16233">
        <ele>6.7</ele>
        <time>2020-06-02T08:30:15Z</time>
      </trkpt>
      <trkpt lat="46.16279" lon="-1.16225">
        <ele>6.7</ele>
        <time>2020-06-02T08:30:16Z</time>
      </trkpt>
      <trkpt lat="46.16278" lon="-1.16217">
        <ele>6.7</ele>
        <time>2020-06-02T08:30:17Z</time>
      </trkpt>
      <trkpt lat="46.16276" lon="-1.1621">
        <ele>6.7</ele>
        <time>2020-06-02T08:30:18Z</time>
      </trkpt>
      <trkpt lat="46.16275" lon="-1.16202">
        <ele>6.6</ele>
        <time>2020-06-02T08:30:19Z</time>
      </trkpt>
      <trkpt lat="46.16274" lon="-1.16195">
        <ele>6.6</ele>
        <time>2020-06-02T08:30:20Z</time>
      </trkpt>
      <trkpt lat="46.16274" lon="-1.16187">
        <ele>6.5</ele>
        <time>2020-06-02T08:30:21Z</time>
      </trkpt>
      <trkpt lat="46.16274" lon="-1.1618">
        <ele>6.5</ele>
        <time>2020-06-02T08:30:22Z</time>
      </trkpt>
      <trkpt lat="46.16273" lon="-1.16174">
        <ele>6.4</ele>
        <time>2020-06-02T08:30:23Z</time>
      </trkpt>
      <trkpt lat="46.16272" lon="-1.16166">
        <ele>6.4</ele>
        <time>2020-06-02T08:30:24Z</time>
      </trkpt>
      <trkpt lat="46.16272" lon="-1.16159">
        <ele>6.3</ele>
        <time>2020-06-02T08:30:25Z</time>
      </trkpt>
      <trkpt lat="46.16271" lon="-1.16151">
        <ele>6.3</ele>
        <time>2020-06-02T08:30:26Z</time>
      </trkpt>
      <trkpt lat="46.1627" lon="-1.16144">
        <ele>6.2</ele>
        <time>2020-06-02T08:30:27Z</time>
      </trkpt>
      <trkpt lat="46.1627" lon="-1.16136">
        <ele>6.2</ele>
        <time>2020-06-02T08:30:28Z</time>
      </trkpt>
      <trkpt lat="46.16269" lon="-1.16129">
        <ele>6.2</ele>
        <time>2020-06-02T08:30:29Z</time>
      </trkpt>
      <trkpt lat="46.16268" lon="-1.16122">
        <ele>6.1</ele>
        <time>2020-06-02T08:30:30Z</time>
      </trkpt>
      <trkpt lat="46.16268" lon="-1.16116">
        <ele>6.1</ele>
        <time>2020-06-02T08:30:31Z</time>
      </trkpt>
      <trkpt lat="46.16267" lon="-1.16111">
        <ele>6.1</ele>
        <time>2020-06-02T08:30:32Z</time>
      </trkpt>
      <trkpt lat="46.16267" lon="-1.16105">
        <ele>6.1</ele>
        <time>2020-06-02T08:30:33Z</time>
      </trkpt>
      <trkpt lat="46.16266" lon="-1.16101">
        <ele>6</ele>
        <time>2020-06-02T08:30:34Z</time>
      </trkpt>
      <trkpt lat="46.16265" lon="-1.16097">
        <ele>6</ele>
        <time>2020-06-02T08:30:35Z</time>
      </trkpt>
      <trkpt lat="46.16261" lon="-1.16091">
        <ele>6</ele>
        <time>2020-06-02T08:30:36Z</time>
      </trkpt>
      <trkpt lat="46.16261" lon="-1.16085">
        <ele>6</ele>
        <time>2020-06-02T08:30:37Z</time>
      </trkpt>
      <trkpt lat="46.16261" lon="-1.16079">
        <ele>6</ele>
        <time>2020-06-02T08:30:38Z</time>
      </trkpt>
      <trkpt lat="46.16262" lon="-1.16073">
        <ele>5.9</ele>
        <time>2020-06-02T08:30:39Z</time>
      </trkpt>
      <trkpt lat="46.16262" lon="-1.16067">
        <ele>5.9</ele>
        <time>2020-06-02T08:30:40Z</time>
      </trkpt>
      <trkpt lat="46.16262" lon="-1.16061">
        <ele>5.9</ele>
        <time>2020-06-02T08:30:41Z</time>
      </trkpt>
      <trkpt lat="46.16261" lon="-1.16055">
        <ele>5.9</ele>
        <time>2020-06-02T08:30:42Z</time>
      </trkpt>
      <trkpt lat="46.16261" lon="-1.16048">
        <ele>5.9</ele>
        <time>2020-06-02T08:30:43Z</time>
      </trkpt>
      <trkpt lat="46.16261" lon="-1.16042">
        <ele>5.8</ele>
        <time>2020-06-02T08:30:44Z</time>
      </trkpt>
      <trkpt lat="46.1626" lon="-1.16036">
        <ele>5.8</ele>
        <time>2020-06-02T08:30:45Z</time>
      </trkpt>
      <trkpt lat="46.16258" lon="-1.16028">
        <ele>5.8</ele>
        <time>2020-06-02T08:30:46Z</time>
      </trkpt>
      <trkpt lat="46.16257" lon="-1.1602">
        <ele>5.8</ele>
        <time>2020-06-02T08:30:47Z</time>
      </trkpt>
      <trkpt lat="46.16256" lon="-1.16014">
        <ele>5.8</ele>
        <time>2020-06-02T08:30:48Z</time>
      </trkpt>
      <trkpt lat="46.16256" lon="-1.16007">
        <ele>5.7</ele>
        <time>2020-06-02T08:30:49Z</time>
      </trkpt>
      <trkpt lat="46.16254" lon="-1.16">
        <ele>5.7</ele>
        <time>2020-06-02T08:30:50Z</time>
      </trkpt>
      <trkpt lat="46.16255" lon="-1.15993">
        <ele>5.7</ele>
        <time>2020-06-02T08:30:51Z</time>
      </trkpt>
      <trkpt lat="46.16254" lon="-1.15986">
        <ele>5.7</ele>
        <time>2020-06-02T08:30:52Z</time>
      </trkpt>
      <trkpt lat="46.16253" lon="-1.15978">
        <ele>5.7</ele>
        <time>2020-06-02T08:30:53Z</time>
      </trkpt>
      <trkpt lat="46.16252" lon="-1.15971">
        <ele>5.7</ele>
        <time>2020-06-02T08:30:54Z</time>
      </trkpt>
      <trkpt lat="46.16252" lon="-1.15962">
        <ele>5.6</ele>
        <time>2020-06-02T08:30:55Z</time>
      </trkpt>
      <trkpt lat="46.16251" lon="-1.15954">
        <ele>5.6</ele>
        <time>2020-06-02T08:30:56Z</time>
      </trkpt>
      <trkpt lat="46.16251" lon="-1.15945">
        <ele>5.6</ele>
        <time>2020-06-02T08:30:57Z</time>
      </trkpt>
      <trkpt lat="46.1625" lon="-1.15938">
        <ele>5.6</ele>
        <time>2020-06-02T08:30:58Z</time>
      </trkpt>
      <trkpt lat="46.1625" lon="-1.15931">
        <ele>5.6</ele>
        <time>2020-06-02T08:30:59Z</time>
      </trkpt>
      <trkpt lat="46.16248" lon="-1.15923">
        <ele>5.6</ele>
        <time>2020-06-02T08:31:00Z</time>
      </trkpt>
      <trkpt lat="46.16246" lon="-1.15916">
        <ele>5.6</ele>
        <time>2020-06-02T08:31:01Z</time>
      </trkpt>
      <trkpt lat="46.16246" lon="-1.15909">
        <ele>5.6</ele>
        <time>2020-06-02T08:31:02Z</time>
      </trkpt>
      <trkpt lat="46.16245" lon="-1.15902">
        <ele>5.6</ele>
        <time>2020-06-02T08:31:03Z</time>
      </trkpt>
      <trkpt lat="46.16244" lon="-1.15894">
        <ele>5.6</ele>
        <time>2020-06-02T08:31:04Z</time>
      </trkpt>
      <trkpt lat="46.16244" lon="-1.15886">
        <ele>5.6</ele>
        <time>2020-06-02T08:31:05Z</time>
      </trkpt>
      <trkpt lat="46.16242" lon="-1.15878">
        <ele>5.6</ele>
        <time>2020-06-02T08:31:06Z</time>
      </trkpt>
      <trkpt lat="46.16241" lon="-1.15873">
        <ele>5.6</ele>
        <time>2020-06-02T08:31:07Z</time>
      </trkpt>
      <trkpt lat="46.16241" lon="-1.15867">
        <ele>5.6</ele>
        <time>2020-06-02T08:31:08Z</time>
      </trkpt>
      <trkpt lat="46.16241" lon="-1.15863">
        <ele>5.6</ele>
        <time>2020-06-02T08:31:09Z</time>
      </trkpt>
      <trkpt lat="46.16241" lon="-1.15862">
        <ele>5.6</ele>
        <time>2020-06-02T08:31:10Z</time>
      </trkpt>
      <trkpt lat="46.16242" lon="-1.1586">
        <ele>5.6</ele>
        <time>2020-06-02T08:31:11Z</time>
      </trkpt>
      <trkpt lat="46.16241" lon="-1.15858">
        <ele>5.6</ele>
        <time>2020-06-02T08:31:12Z</time>
      </trkpt>
      <trkpt lat="46.16242" lon="-1.15858">
        <ele>5.6</ele>
        <time>2020-06-02T08:31:13Z</time>
      </trkpt>
      <trkpt lat="46.16243" lon="-1.15859">
        <ele>5.6</ele>
        <time>2020-06-02T08:31:14Z</time>
      </trkpt>
      <trkpt lat="46.16243" lon="-1.15861">
        <ele>5.6</ele>
        <time>2020-06-02T08:31:15Z</time>
      </trkpt>
      <trkpt lat="46.16243" lon="-1.15861">
        <ele>5.6</ele>
        <time>2020-06-02T08:31:16Z</time>
      </trkpt>
      <trkpt lat="46.16244" lon="-1.15862">
        <ele>5.6</ele>
        <time>2020-06-02T08:31:17Z</time>
      </trkpt>
      <trkpt lat="46.16243" lon="-1.15862">
        <ele>5.6</ele>
        <time>2020-06-02T08:31:18Z</time>
      </trkpt>
      <trkpt lat="46.16243" lon="-1.15863">
        <ele>5.6</ele>
        <time>2020-06-02T08:31:19Z</time>
      </trkpt>
      <trkpt lat="46.16244" lon="-1.15865">
        <ele>5.6</ele>
        <time>2020-06-02T08:31:20Z</time>
      </trkpt>
      <trkpt lat="46.16244" lon="-1.15864">
        <ele>5.6</ele>
        <time>2020-06-02T08:31:21Z</time>
      </trkpt>
      <trkpt lat="46.16245" lon="-1.15865">
        <ele>5.6</ele>
        <time>2020-06-02T08:31:22Z</time>
      </trkpt>
      <trkpt lat="46.16245" lon="-1.15865">
        <ele>5.6</ele>
        <time>2020-06-02T08:31:23Z</time>
      </trkpt>
      <trkpt lat="46.16245" lon="-1.15864">
        <ele>5.6</ele>
        <time>2020-06-02T08:31:24Z</time>
      </trkpt>
      <trkpt lat="46.16245" lon="-1.15863">
        <ele>5.6</ele>
        <time>2020-06-02T08:31:25Z</time>
      </trkpt>
      <trkpt lat="46.16245" lon="-1.15862">
        <ele>5.6</ele>
        <time>2020-06-02T08:31:26Z</time>
      </trkpt>
      <trkpt lat="46.16245" lon="-1.15861">
        <ele>5.6</ele>
        <time>2020-06-02T08:31:27Z</time>
      </trkpt>
      <trkpt lat="46.16245" lon="-1.1586">
        <ele>5.6</ele>
        <time>2020-06-02T08:31:28Z</time>
      </trkpt>
      <trkpt lat="46.16245" lon="-1.15858">
        <ele>5.6</ele>
        <time>2020-06-02T08:31:29Z</time>
      </trkpt>
      <trkpt lat="46.16245" lon="-1.15854">
        <ele>5.6</ele>
        <time>2020-06-02T08:31:30Z</time>
      </trkpt>
      <trkpt lat="46.16245" lon="-1.15851">
        <ele>5.6</ele>
        <time>2020-06-02T08:31:31Z</time>
      </trkpt>
      <trkpt lat="46.16246" lon="-1.15847">
        <ele>5.6</ele>
        <time>2020-06-02T08:31:32Z</time>
      </trkpt>
      <trkpt lat="46.16246" lon="-1.15841">
        <ele>5.6</ele>
        <time>2020-06-02T08:31:33Z</time>
      </trkpt>
      <trkpt lat="46.16247" lon="-1.15834">
        <ele>5.6</ele>
        <time>2020-06-02T08:31:34Z</time>
      </trkpt>
      <trkpt lat="46.16247" lon="-1.15827">
        <ele>5.6</ele>
        <time>2020-06-02T08:31:35Z</time>
      </trkpt>
      <trkpt lat="46.16247" lon="-1.15819">
        <ele>5.6</ele>
        <time>2020-06-02T08:31:36Z</time>
      </trkpt>
      <trkpt lat="46.16247" lon="-1.15812">
        <ele>5.6</ele>
        <time>2020-06-02T08:31:37Z</time>
      </trkpt>
      <trkpt lat="46.16246" lon="-1.15805">
        <ele>5.6</ele>
        <time>2020-06-02T08:31:38Z</time>
      </trkpt>
      <trkpt lat="46.16245" lon="-1.15798">
        <ele>5.6</ele>
        <time>2020-06-02T08:31:39Z</time>
      </trkpt>
      <trkpt lat="46.16245" lon="-1.1579">
        <ele>5.5</ele>
        <time>2020-06-02T08:31:40Z</time>
      </trkpt>
      <trkpt lat="46.16244" lon="-1.1578">
        <ele>5.5</ele>
        <time>2020-06-02T08:31:41Z</time>
      </trkpt>
      <trkpt lat="46.16243" lon="-1.15771">
        <ele>5.5</ele>
        <time>2020-06-02T08:31:42Z</time>
      </trkpt>
      <trkpt lat="46.16241" lon="-1.15761">
        <ele>5.4</ele>
        <time>2020-06-02T08:31:43Z</time>
      </trkpt>
      <trkpt lat="46.16239" lon="-1.15752">
        <ele>5.4</ele>
        <time>2020-06-02T08:31:44Z</time>
      </trkpt>
      <trkpt lat="46.16238" lon="-1.15744">
        <ele>5.3</ele>
        <time>2020-06-02T08:31:45Z</time>
      </trkpt>
      <trkpt lat="46.16237" lon="-1.15734">
        <ele>5.3</ele>
        <time>2020-06-02T08:31:46Z</time>
      </trkpt>
      <trkpt lat="46.16236" lon="-1.15726">
        <ele>5.2</ele>
        <time>2020-06-02T08:31:47Z</time>
      </trkpt>
      <trkpt lat="46.16235" lon="-1.15716">
        <ele>5.2</ele>
        <time>2020-06-02T08:31:48Z</time>
      </trkpt>
      <trkpt lat="46.16234" lon="-1.15708">
        <ele>5.1</ele>
        <time>2020-06-02T08:31:49Z</time>
      </trkpt>
      <trkpt lat="46.16233" lon="-1.15698">
        <ele>5.1</ele>
        <time>2020-06-02T08:31:50Z</time>
      </trkpt>
      <trkpt lat="46.16233" lon="-1.1569">
        <ele>5</ele>
        <time>2020-06-02T08:31:51Z</time>
      </trkpt>
      <trkpt lat="46.16231" lon="-1.1568">
        <ele>5</ele>
        <time>2020-06-02T08:31:52Z</time>
      </trkpt>
      <trkpt lat="46.1623" lon="-1.15672">
        <ele>5</ele>
        <time>2020-06-02T08:31:53Z</time>
      </trkpt>
      <trkpt lat="46.16229" lon="-1.15665">
        <ele>5.1</ele>
        <time>2020-06-02T08:31:54Z</time>
      </trkpt>
      <trkpt lat="46.16228" lon="-1.15656">
        <ele>5.1</ele>
        <time>2020-06-02T08:31:55Z</time>
      </trkpt>
      <trkpt lat="46.16227" lon="-1.15648">
        <ele>5.2</ele>
        <time>2020-06-02T08:31:56Z</time>
      </trkpt>
      <trkpt lat="46.16227" lon="-1.15639">
        <ele>5.3</ele>
        <time>2020-06-02T08:31:57Z</time>
      </trkpt>
      <trkpt lat="46.16226" lon="-1.1563">
        <ele>5.4</ele>
        <time>2020-06-02T08:31:58Z</time>
      </trkpt>
      <trkpt lat="46.16226" lon="-1.15621">
        <ele>5.5</ele>
        <time>2020-06-02T08:31:59Z</time>
      </trkpt>
      <trkpt lat="46.16226" lon="-1.15612">
        <ele>5.6</ele>
        <time>2020-06-02T08:32:00Z</time>
      </trkpt>
      <trkpt lat="46.16225" lon="-1.15603">
        <ele>5.7</ele>
        <time>2020-06-02T08:32:01Z</time>
      </trkpt>
      <trkpt lat="46.16224" lon="-1.15595">
        <ele>5.9</ele>
        <time>2020-06-02T08:32:02Z</time>
      </trkpt>
      <trkpt lat="46.16223" lon="-1.15588">
        <ele>6</ele>
        <time>2020-06-02T08:32:03Z</time>
      </trkpt>
      <trkpt lat="46.16222" lon="-1.15581">
        <ele>6.1</ele>
        <time>2020-06-02T08:32:04Z</time>
      </trkpt>
      <trkpt lat="46.16222" lon="-1.15575">
        <ele>6.1</ele>
        <time>2020-06-02T08:32:05Z</time>
      </trkpt>
      <trkpt lat="46.16222" lon="-1.15568">
        <ele>6.2</ele>
        <time>2020-06-02T08:32:06Z</time>
      </trkpt>
      <trkpt lat="46.16221" lon="-1.15562">
        <ele>6.2</ele>
        <time>2020-06-02T08:32:07Z</time>
      </trkpt>
      <trkpt lat="46.16221" lon="-1.15555">
        <ele>6.2</ele>
        <time>2020-06-02T08:32:08Z</time>
      </trkpt>
      <trkpt lat="46.16219" lon="-1.15548">
        <ele>6.3</ele>
        <time>2020-06-02T08:32:09Z</time>
      </trkpt>
      <trkpt lat="46.16216" lon="-1.15543">
        <ele>6.4</ele>
        <time>2020-06-02T08:32:10Z</time>
      </trkpt>
      <trkpt lat="46.16214" lon="-1.1554">
        <ele>6.4</ele>
        <time>2020-06-02T08:32:11Z</time>
      </trkpt>
      <trkpt lat="46.16214" lon="-1.15534">
        <ele>6.4</ele>
        <time>2020-06-02T08:32:12Z</time>
      </trkpt>
      <trkpt lat="46.16214" lon="-1.15532">
        <ele>6.5</ele>
        <time>2020-06-02T08:32:13Z</time>
      </trkpt>
      <trkpt lat="46.16213" lon="-1.15527">
        <ele>6.5</ele>
        <time>2020-06-02T08:32:14Z</time>
      </trkpt>
      <trkpt lat="46.16212" lon="-1.15526">
        <ele>6.5</ele>
        <time>2020-06-02T08:32:15Z</time>
      </trkpt>
      <trkpt lat="46.16212" lon="-1.15521">
        <ele>6.6</ele>
        <time>2020-06-02T08:32:16Z</time>
      </trkpt>
      <trkpt lat="46.16212" lon="-1.15515">
        <ele>6.6</ele>
        <time>2020-06-02T08:32:17Z</time>
      </trkpt>
      <trkpt lat="46.16212" lon="-1.15509">
        <ele>6.7</ele>
        <time>2020-06-02T08:32:18Z</time>
      </trkpt>
      <trkpt lat="46.16212" lon="-1.15502">
        <ele>6.8</ele>
        <time>2020-06-02T08:32:19Z</time>
      </trkpt>
      <trkpt lat="46.16213" lon="-1.15496">
        <ele>6.8</ele>
        <time>2020-06-02T08:32:20Z</time>
      </trkpt>
      <trkpt lat="46.16214" lon="-1.1549">
        <ele>6.9</ele>
        <time>2020-06-02T08:32:21Z</time>
      </trkpt>
      <trkpt lat="46.16215" lon="-1.15483">
        <ele>7</ele>
        <time>2020-06-02T08:32:22Z</time>
      </trkpt>
      <trkpt lat="46.16216" lon="-1.15477">
        <ele>7</ele>
        <time>2020-06-02T08:32:23Z</time>
      </trkpt>
      <trkpt lat="46.16215" lon="-1.15471">
        <ele>7.1</ele>
        <time>2020-06-02T08:32:24Z</time>
      </trkpt>
      <trkpt lat="46.16213" lon="-1.15464">
        <ele>7.2</ele>
        <time>2020-06-02T08:32:25Z</time>
      </trkpt>
      <trkpt lat="46.16211" lon="-1.15456">
        <ele>7.3</ele>
        <time>2020-06-02T08:32:26Z</time>
      </trkpt>
      <trkpt lat="46.16209" lon="-1.15447">
        <ele>7.4</ele>
        <time>2020-06-02T08:32:27Z</time>
      </trkpt>
      <trkpt lat="46.16207" lon="-1.15439">
        <ele>7.6</ele>
        <time>2020-06-02T08:32:28Z</time>
      </trkpt>
      <trkpt lat="46.16205" lon="-1.15434">
        <ele>7.5</ele>
        <time>2020-06-02T08:32:29Z</time>
      </trkpt>
      <trkpt lat="46.16203" lon="-1.15425">
        <ele>7.5</ele>
        <time>2020-06-02T08:32:30Z</time>
      </trkpt>
      <trkpt lat="46.16202" lon="-1.15417">
        <ele>7.6</ele>
        <time>2020-06-02T08:32:31Z</time>
      </trkpt>
      <trkpt lat="46.16201" lon="-1.15413">
        <ele>7.6</ele>
        <time>2020-06-02T08:32:32Z</time>
      </trkpt>
      <trkpt lat="46.16199" lon="-1.15408">
        <ele>7.6</ele>
        <time>2020-06-02T08:32:33Z</time>
      </trkpt>
      <trkpt lat="46.16198" lon="-1.15402">
        <ele>7.6</ele>
        <time>2020-06-02T08:32:34Z</time>
      </trkpt>
      <trkpt lat="46.16196" lon="-1.15397">
        <ele>7.7</ele>
        <time>2020-06-02T08:32:35Z</time>
      </trkpt>
      <trkpt lat="46.16195" lon="-1.15392">
        <ele>7.7</ele>
        <time>2020-06-02T08:32:36Z</time>
      </trkpt>
      <trkpt lat="46.16195" lon="-1.15387">
        <ele>7.8</ele>
        <time>2020-06-02T08:32:37Z</time>
      </trkpt>
      <trkpt lat="46.16194" lon="-1.15381">
        <ele>7.8</ele>
        <time>2020-06-02T08:32:38Z</time>
      </trkpt>
      <trkpt lat="46.16193" lon="-1.15375">
        <ele>7.8</ele>
        <time>2020-06-02T08:32:39Z</time>
      </trkpt>
      <trkpt lat="46.16191" lon="-1.1537">
        <ele>7.9</ele>
        <time>2020-06-02T08:32:40Z</time>
      </trkpt>
      <trkpt lat="46.16188" lon="-1.15363">
        <ele>7.9</ele>
        <time>2020-06-02T08:32:41Z</time>
      </trkpt>
      <trkpt lat="46.16188" lon="-1.15356">
        <ele>7.9</ele>
        <time>2020-06-02T08:32:42Z</time>
      </trkpt>
      <trkpt lat="46.16187" lon="-1.15349">
        <ele>7.9</ele>
        <time>2020-06-02T08:32:43Z</time>
      </trkpt>
      <trkpt lat="46.16186" lon="-1.15343">
        <ele>7.9</ele>
        <time>2020-06-02T08:32:44Z</time>
      </trkpt>
      <trkpt lat="46.16185" lon="-1.15337">
        <ele>7.9</ele>
        <time>2020-06-02T08:32:45Z</time>
      </trkpt>
      <trkpt lat="46.16184" lon="-1.15333">
        <ele>7.9</ele>
        <time>2020-06-02T08:32:46Z</time>
      </trkpt>
      <trkpt lat="46.16184" lon="-1.15329">
        <ele>7.9</ele>
        <time>2020-06-02T08:32:47Z</time>
      </trkpt>
      <trkpt lat="46.16183" lon="-1.15324">
        <ele>8</ele>
        <time>2020-06-02T08:32:48Z</time>
      </trkpt>
      <trkpt lat="46.16182" lon="-1.15318">
        <ele>8</ele>
        <time>2020-06-02T08:32:49Z</time>
      </trkpt>
      <trkpt lat="46.1618" lon="-1.15312">
        <ele>8</ele>
        <time>2020-06-02T08:32:50Z</time>
      </trkpt>
      <trkpt lat="46.16179" lon="-1.15306">
        <ele>8</ele>
        <time>2020-06-02T08:32:51Z</time>
      </trkpt>
      <trkpt lat="46.16178" lon="-1.153">
        <ele>8.1</ele>
        <time>2020-06-02T08:32:52Z</time>
      </trkpt>
      <trkpt lat="46.16177" lon="-1.15294">
        <ele>8.1</ele>
        <time>2020-06-02T08:32:53Z</time>
      </trkpt>
      <trkpt lat="46.16175" lon="-1.15291">
        <ele>8.1</ele>
        <time>2020-06-02T08:32:54Z</time>
      </trkpt>
      <trkpt lat="46.16173" lon="-1.15289">
        <ele>8.1</ele>
        <time>2020-06-02T08:32:55Z</time>
      </trkpt>
      <trkpt lat="46.16169" lon="-1.15287">
        <ele>8.1</ele>
        <time>2020-06-02T08:32:56Z</time>
      </trkpt>
      <trkpt lat="46.16166" lon="-1.15286">
        <ele>8</ele>
        <time>2020-06-02T08:32:57Z</time>
      </trkpt>
      <trkpt lat="46.16163" lon="-1.15287">
        <ele>8</ele>
        <time>2020-06-02T08:32:58Z</time>
      </trkpt>
      <trkpt lat="46.16158" lon="-1.15291">
        <ele>7.9</ele>
        <time>2020-06-02T08:32:59Z</time>
      </trkpt>
      <trkpt lat="46.16154" lon="-1.15296">
        <ele>7.9</ele>
        <time>2020-06-02T08:33:00Z</time>
      </trkpt>
      <trkpt lat="46.1615" lon="-1.153">
        <ele>7.9</ele>
        <time>2020-06-02T08:33:01Z</time>
      </trkpt>
      <trkpt lat="46.16145" lon="-1.15304">
        <ele>7.8</ele>
        <time>2020-06-02T08:33:02Z</time>
      </trkpt>
      <trkpt lat="46.1614" lon="-1.15305">
        <ele>7.8</ele>
        <time>2020-06-02T08:33:03Z</time>
      </trkpt>
      <trkpt lat="46.16135" lon="-1.15308">
        <ele>7.8</ele>
        <time>2020-06-02T08:33:04Z</time>
      </trkpt>
      <trkpt lat="46.1613" lon="-1.1531">
        <ele>7.7</ele>
        <time>2020-06-02T08:33:05Z</time>
      </trkpt>
      <trkpt lat="46.16125" lon="-1.15311">
        <ele>7.7</ele>
        <time>2020-06-02T08:33:06Z</time>
      </trkpt>
      <trkpt lat="46.16119" lon="-1.15312">
        <ele>7.7</ele>
        <time>2020-06-02T08:33:07Z</time>
      </trkpt>
      <trkpt lat="46.16114" lon="-1.15315">
        <ele>7.7</ele>
        <time>2020-06-02T08:33:08Z</time>
      </trkpt>
      <trkpt lat="46.16108" lon="-1.15318">
        <ele>7.7</ele>
        <time>2020-06-02T08:33:09Z</time>
      </trkpt>
      <trkpt lat="46.16103" lon="-1.15321">
        <ele>7.7</ele>
        <time>2020-06-02T08:33:10Z</time>
      </trkpt>
      <trkpt lat="46.16097" lon="-1.15325">
        <ele>7.6</ele>
        <time>2020-06-02T08:33:11Z</time>
      </trkpt>
      <trkpt lat="46.1609" lon="-1.15325">
        <ele>7.6</ele>
        <time>2020-06-02T08:33:12Z</time>
      </trkpt>
      <trkpt lat="46.16084" lon="-1.15326">
        <ele>7.6</ele>
        <time>2020-06-02T08:33:13Z</time>
      </trkpt>
      <trkpt lat="46.16078" lon="-1.15325">
        <ele>7.5</ele>
        <time>2020-06-02T08:33:14Z</time>
      </trkpt>
      <trkpt lat="46.16074" lon="-1.15331">
        <ele>7.5</ele>
        <time>2020-06-02T08:33:15Z</time>
      </trkpt>
      <trkpt lat="46.16068" lon="-1.15331">
        <ele>7.5</ele>
        <time>2020-06-02T08:33:16Z</time>
      </trkpt>
      <trkpt lat="46.16063" lon="-1.15332">
        <ele>7.4</ele>
        <time>2020-06-02T08:33:17Z</time>
      </trkpt>
      <trkpt lat="46.16058" lon="-1.15333">
        <ele>7.4</ele>
        <time>2020-06-02T08:33:18Z</time>
      </trkpt>
      <trkpt lat="46.16052" lon="-1.15334">
        <ele>7.4</ele>
        <time>2020-06-02T08:33:19Z</time>
      </trkpt>
      <trkpt lat="46.16047" lon="-1.15335">
        <ele>7.3</ele>
        <time>2020-06-02T08:33:20Z</time>
      </trkpt>
      <trkpt lat="46.16042" lon="-1.15337">
        <ele>7.3</ele>
        <time>2020-06-02T08:33:21Z</time>
      </trkpt>
      <trkpt lat="46.16037" lon="-1.15338">
        <ele>7.2</ele>
        <time>2020-06-02T08:33:22Z</time>
      </trkpt>
      <trkpt lat="46.16032" lon="-1.15341">
        <ele>7.2</ele>
        <time>2020-06-02T08:33:23Z</time>
      </trkpt>
      <trkpt lat="46.16026" lon="-1.15341">
        <ele>7.2</ele>
        <time>2020-06-02T08:33:24Z</time>
      </trkpt>
      <trkpt lat="46.16023" lon="-1.15348">
        <ele>7.2</ele>
        <time>2020-06-02T08:33:25Z</time>
      </trkpt>
      <trkpt lat="46.16019" lon="-1.15346">
        <ele>7.1</ele>
        <time>2020-06-02T08:33:26Z</time>
      </trkpt>
      <trkpt lat="46.16014" lon="-1.15349">
        <ele>7.1</ele>
        <time>2020-06-02T08:33:27Z</time>
      </trkpt>
      <trkpt lat="46.16009" lon="-1.15351">
        <ele>7.1</ele>
        <time>2020-06-02T08:33:28Z</time>
      </trkpt>
      <trkpt lat="46.16002" lon="-1.15352">
        <ele>7</ele>
        <time>2020-06-02T08:33:29Z</time>
      </trkpt>
      <trkpt lat="46.15997" lon="-1.15354">
        <ele>7</ele>
        <time>2020-06-02T08:33:30Z</time>
      </trkpt>
      <trkpt lat="46.15991" lon="-1.15356">
        <ele>6.9</ele>
        <time>2020-06-02T08:33:31Z</time>
      </trkpt>
      <trkpt lat="46.15985" lon="-1.15358">
        <ele>6.8</ele>
        <time>2020-06-02T08:33:32Z</time>
      </trkpt>
      <trkpt lat="46.15979" lon="-1.15358">
        <ele>6.7</ele>
        <time>2020-06-02T08:33:33Z</time>
      </trkpt>
      <trkpt lat="46.15972" lon="-1.1536">
        <ele>6.5</ele>
        <time>2020-06-02T08:33:34Z</time>
      </trkpt>
      <trkpt lat="46.15967" lon="-1.15361">
        <ele>6.4</ele>
        <time>2020-06-02T08:33:35Z</time>
      </trkpt>
      <trkpt lat="46.15962" lon="-1.15362">
        <ele>6.3</ele>
        <time>2020-06-02T08:33:36Z</time>
      </trkpt>
      <trkpt lat="46.15957" lon="-1.15363">
        <ele>6.1</ele>
        <time>2020-06-02T08:33:37Z</time>
      </trkpt>
      <trkpt lat="46.15952" lon="-1.15365">
        <ele>6</ele>
        <time>2020-06-02T08:33:38Z</time>
      </trkpt>
      <trkpt lat="46.15947" lon="-1.15365">
        <ele>6</ele>
        <time>2020-06-02T08:33:39Z</time>
      </trkpt>
      <trkpt lat="46.15941" lon="-1.15366">
        <ele>5.9</ele>
        <time>2020-06-02T08:33:40Z</time>
      </trkpt>
      <trkpt lat="46.15936" lon="-1.15367">
        <ele>5.8</ele>
        <time>2020-06-02T08:33:41Z</time>
      </trkpt>
      <trkpt lat="46.15933" lon="-1.15369">
        <ele>5.8</ele>
        <time>2020-06-02T08:33:42Z</time>
      </trkpt>
      <trkpt lat="46.15929" lon="-1.1537">
        <ele>5.8</ele>
        <time>2020-06-02T08:33:43Z</time>
      </trkpt>
      <trkpt lat="46.15924" lon="-1.15372">
        <ele>5.8</ele>
        <time>2020-06-02T08:33:44Z</time>
      </trkpt>
      <trkpt lat="46.1592" lon="-1.15373">
        <ele>5.7</ele>
        <time>2020-06-02T08:33:45Z</time>
      </trkpt>
      <trkpt lat="46.15915" lon="-1.15374">
        <ele>5.7</ele>
        <time>2020-06-02T08:33:46Z</time>
      </trkpt>
      <trkpt lat="46.15911" lon="-1.15375">
        <ele>5.7</ele>
        <time>2020-06-02T08:33:47Z</time>
      </trkpt>
      <trkpt lat="46.15908" lon="-1.15376">
        <ele>5.7</ele>
        <time>2020-06-02T08:33:48Z</time>
      </trkpt>
      <trkpt lat="46.15904" lon="-1.15376">
        <ele>5.6</ele>
        <time>2020-06-02T08:33:49Z</time>
      </trkpt>
      <trkpt lat="46.159" lon="-1.15376">
        <ele>5.6</ele>
        <time>2020-06-02T08:33:50Z</time>
      </trkpt>
      <trkpt lat="46.15899" lon="-1.15377">
        <ele>5.6</ele>
        <time>2020-06-02T08:33:51Z</time>
      </trkpt>
      <trkpt lat="46.15897" lon="-1.15377">
        <ele>5.5</ele>
        <time>2020-06-02T08:33:52Z</time>
      </trkpt>
      <trkpt lat="46.15897" lon="-1.15381">
        <ele>5.5</ele>
        <time>2020-06-02T08:33:53Z</time>
      </trkpt>
      <trkpt lat="46.15898" lon="-1.15382">
        <ele>5.5</ele>
        <time>2020-06-02T08:33:54Z</time>
      </trkpt>
      <trkpt lat="46.15898" lon="-1.15382">
        <ele>5.5</ele>
        <time>2020-06-02T08:33:55Z</time>
      </trkpt>
      <trkpt lat="46.15899" lon="-1.15383">
        <ele>5.5</ele>
        <time>2020-06-02T08:33:56Z</time>
      </trkpt>
      <trkpt lat="46.15899" lon="-1.15383">
        <ele>5.5</ele>
        <time>2020-06-02T08:33:57Z</time>
      </trkpt>
      <trkpt lat="46.159" lon="-1.15384">
        <ele>5.5</ele>
        <time>2020-06-02T08:33:58Z</time>
      </trkpt>
      <trkpt lat="46.15899" lon="-1.15385">
        <ele>5.5</ele>
        <time>2020-06-02T08:33:59Z</time>
      </trkpt>
      <trkpt lat="46.15898" lon="-1.15386">
        <ele>5.4</ele>
        <time>2020-06-02T08:34:00Z</time>
      </trkpt>
      <trkpt lat="46.15899" lon="-1.15386">
        <ele>5.4</ele>
        <time>2020-06-02T08:34:01Z</time>
      </trkpt>
      <trkpt lat="46.15899" lon="-1.15387">
        <ele>5.4</ele>
        <time>2020-06-02T08:34:02Z</time>
      </trkpt>
      <trkpt lat="46.15899" lon="-1.15388">
        <ele>5.4</ele>
        <time>2020-06-02T08:34:03Z</time>
      </trkpt>
      <trkpt lat="46.15899" lon="-1.15388">
        <ele>5.4</ele>
        <time>2020-06-02T08:34:04Z</time>
      </trkpt>
      <trkpt lat="46.15898" lon="-1.1539">
        <ele>5.4</ele>
        <time>2020-06-02T08:34:05Z</time>
      </trkpt>
      <trkpt lat="46.15897" lon="-1.1539">
        <ele>5.4</ele>
        <time>2020-06-02T08:34:06Z</time>
      </trkpt>
      <trkpt lat="46.15896" lon="-1.15388">
        <ele>5.4</ele>
        <time>2020-06-02T08:34:07Z</time>
      </trkpt>
      <trkpt lat="46.15896" lon="-1.15388">
        <ele>5.4</ele>
        <time>2020-06-02T08:34:08Z</time>
      </trkpt>
      <trkpt lat="46.15895" lon="-1.15388">
        <ele>5.3</ele>
        <time>2020-06-02T08:34:09Z</time>
      </trkpt>
      <trkpt lat="46.15894" lon="-1.15389">
        <ele>5.3</ele>
        <time>2020-06-02T08:34:10Z</time>
      </trkpt>
      <trkpt lat="46.15895" lon="-1.1539">
        <ele>5.3</ele>
        <time>2020-06-02T08:34:11Z</time>
      </trkpt>
      <trkpt lat="46.15895" lon="-1.1539">
        <ele>5.3</ele>
        <time>2020-06-02T08:34:12Z</time>
      </trkpt>
      <trkpt lat="46.15895" lon="-1.15389">
        <ele>5.3</ele>
        <time>2020-06-02T08:34:13Z</time>
      </trkpt>
      <trkpt lat="46.15895" lon="-1.15389">
        <ele>5.3</ele>
        <time>2020-06-02T08:34:14Z</time>
      </trkpt>
      <trkpt lat="46.15895" lon="-1.15389">
        <ele>5.3</ele>
        <time>2020-06-02T08:34:15Z</time>
      </trkpt>
      <trkpt lat="46.15895" lon="-1.15389">
        <ele>5.3</ele>
        <time>2020-06-02T08:34:16Z</time>
      </trkpt>
      <trkpt lat="46.15895" lon="-1.15389">
        <ele>5.3</ele>
        <time>2020-06-02T08:34:17Z</time>
      </trkpt>
      <trkpt lat="46.15895" lon="-1.15389">
        <ele>5.3</ele>
        <time>2020-06-02T08:34:18Z</time>
      </trkpt>
      <trkpt lat="46.15895" lon="-1.15389">
        <ele>5.3</ele>
        <time>2020-06-02T08:34:19Z</time>
      </trkpt>
      <trkpt lat="46.15895" lon="-1.15389">
        <ele>5.3</ele>
        <time>2020-06-02T08:34:20Z</time>
      </trkpt>
      <trkpt lat="46.15895" lon="-1.15389">
        <ele>5.3</ele>
        <time>2020-06-02T08:34:21Z</time>
      </trkpt>
      <trkpt lat="46.15895" lon="-1.15389">
        <ele>5.3</ele>
        <time>2020-06-02T08:34:22Z</time>
      </trkpt>
      <trkpt lat="46.15895" lon="-1.15389">
        <ele>5.3</ele>
        <time>2020-06-02T08:34:23Z</time>
      </trkpt>
      <trkpt lat="46.15895" lon="-1.15389">
        <ele>5.3</ele>
        <time>2020-06-02T08:34:24Z</time>
      </trkpt>
      <trkpt lat="46.15895" lon="-1.15389">
        <ele>5.3</ele>
        <time>2020-06-02T08:34:25Z</time>
      </trkpt>
      <trkpt lat="46.15895" lon="-1.15389">
        <ele>5.3</ele>
        <time>2020-06-02T08:34:26Z</time>
      </trkpt>
      <trkpt lat="46.15895" lon="-1.15389">
        <ele>5.3</ele>
        <time>2020-06-02T08:34:27Z</time>
      </trkpt>
      <trkpt lat="46.15895" lon="-1.15389">
        <ele>5.3</ele>
        <time>2020-06-02T08:34:28Z</time>
      </trkpt>
      <trkpt lat="46.15895" lon="-1.15389">
        <ele>5.3</ele>
        <time>2020-06-02T08:34:29Z</time>
      </trkpt>
      <trkpt lat="46.15895" lon="-1.15389">
        <ele>5.3</ele>
        <time>2020-06-02T08:34:30Z</time>
      </trkpt>
      <trkpt lat="46.15895" lon="-1.15389">
        <ele>5.3</ele>
        <time>2020-06-02T08:34:31Z</time>
      </trkpt>
      <trkpt lat="46.15895" lon="-1.15389">
        <ele>5.3</ele>
        <time>2020-06-02T08:34:32Z</time>
      </trkpt>
      <trkpt lat="46.15895" lon="-1.15389">
        <ele>5.3</ele>
        <time>2020-06-02T08:34:33Z</time>
      </trkpt>
      <trkpt lat="46.15895" lon="-1.15389">
        <ele>5.3</ele>
        <time>2020-06-02T08:34:34Z</time>
      </trkpt>
      <trkpt lat="46.15895" lon="-1.15389">
        <ele>5.3</ele>
        <time>2020-06-02T08:34:35Z</time>
      </trkpt>
      <trkpt lat="46.15895" lon="-1.15389">
        <ele>5.3</ele>
        <time>2020-06-02T08:34:36Z</time>
      </trkpt>
      <trkpt lat="46.15895" lon="-1.15389">
        <ele>5.3</ele>
        <time>2020-06-02T08:34:37Z</time>
      </trkpt>
      <trkpt lat="46.15895" lon="-1.15389">
        <ele>5.3</ele>
        <time>2020-06-02T08:34:38Z</time>
      </trkpt>
      <trkpt lat="46.15895" lon="-1.15389">
        <ele>5.3</ele>
        <time>2020-06-02T08:34:39Z</time>
      </trkpt>
      <trkpt lat="46.15895" lon="-1.15389">
        <ele>5.3</ele>
        <time>2020-06-02T08:34:40Z</time>
      </trkpt>
      <trkpt lat="46.15895" lon="-1.15389">
        <ele>5.3</ele>
        <time>2020-06-02T08:34:41Z</time>
      </trkpt>
      <trkpt lat="46.15895" lon="-1.15389">
        <ele>5.3</ele>
        <time>2020-06-02T08:34:42Z</time>
      </trkpt>
      <trkpt lat="46.15895" lon="-1.15389">
        <ele>5.3</ele>
        <time>2020-06-02T08:34:43Z</time>
      </trkpt>
      <trkpt lat="46.15895" lon="-1.15389">
        <ele>5.3</ele>
        <time>2020-06-02T08:34:44Z</time>
      </trkpt>
      <trkpt lat="46.15895" lon="-1.15389">
        <ele>5.3</ele>
        <time>2020-06-02T08:34:45Z</time>
      </trkpt>
      <trkpt lat="46.15895" lon="-1.15389">
        <ele>5.3</ele>
        <time>2020-06-02T08:34:46Z</time>
      </trkpt>
      <trkpt lat="46.15895" lon="-1.15389">
        <ele>5.3</ele>
        <time>2020-06-02T08:34:47Z</time>
      </trkpt>
      <trkpt lat="46.15895" lon="-1.15389">
        <ele>5.3</ele>
        <time>2020-06-02T08:34:48Z</time>
      </trkpt>
      <trkpt lat="46.15895" lon="-1.15389">
        <ele>5.3</ele>
        <time>2020-06-02T08:34:49Z</time>
      </trkpt>
      <trkpt lat="46.15895" lon="-1.15389">
        <ele>5.3</ele>
        <time>2020-06-02T08:34:50Z</time>
      </trkpt>
      <trkpt lat="46.15895" lon="-1.15389">
        <ele>5.3</ele>
        <time>2020-06-02T08:34:51Z</time>
      </trkpt>
      <trkpt lat="46.15895" lon="-1.15389">
        <ele>5.3</ele>
        <time>2020-06-02T08:34:52Z</time>
      </trkpt>
      <trkpt lat="46.15895" lon="-1.15389">
        <ele>5.3</ele>
        <time>2020-06-02T08:34:53Z</time>
      </trkpt>
      <trkpt lat="46.15895" lon="-1.15389">
        <ele>5.3</ele>
        <time>2020-06-02T08:34:54Z</time>
      </trkpt>
      <trkpt lat="46.15895" lon="-1.15389">
        <ele>5.3</ele>
        <time>2020-06-02T08:34:55Z</time>
      </trkpt>
      <trkpt lat="46.15895" lon="-1.15389">
        <ele>5.3</ele>
        <time>2020-06-02T08:34:56Z</time>
      </trkpt>
      <trkpt lat="46.15895" lon="-1.15389">
        <ele>5.3</ele>
        <time>2020-06-02T08:34:57Z</time>
      </trkpt>
      <trkpt lat="46.15895" lon="-1.15389">
        <ele>5.3</ele>
        <time>2020-06-02T08:34:58Z</time>
      </trkpt>
      <trkpt lat="46.15895" lon="-1.15389">
        <ele>5.3</ele>
        <time>2020-06-02T08:34:59Z</time>
      </trkpt>
      <trkpt lat="46.15895" lon="-1.15389">
        <ele>5.3</ele>
        <time>2020-06-02T08:35:00Z</time>
      </trkpt>
      <trkpt lat="46.15895" lon="-1.15389">
        <ele>5.3</ele>
        <time>2020-06-02T08:35:01Z</time>
      </trkpt>
      <trkpt lat="46.15895" lon="-1.15389">
        <ele>5.3</ele>
        <time>2020-06-02T08:35:02Z</time>
      </trkpt>
      <trkpt lat="46.15895" lon="-1.15389">
        <ele>5.3</ele>
        <time>2020-06-02T08:35:03Z</time>
      </trkpt>
      <trkpt lat="46.15895" lon="-1.15389">
        <ele>5.3</ele>
        <time>2020-06-02T08:35:04Z</time>
      </trkpt>
      <trkpt lat="46.15895" lon="-1.15389">
        <ele>5.3</ele>
        <time>2020-06-02T08:35:05Z</time>
      </trkpt>
      <trkpt lat="46.15895" lon="-1.15389">
        <ele>5.3</ele>
        <time>2020-06-02T08:35:06Z</time>
      </trkpt>
      <trkpt lat="46.15895" lon="-1.15389">
        <ele>5.3</ele>
        <time>2020-06-02T08:35:07Z</time>
      </trkpt>
      <trkpt lat="46.15895" lon="-1.15389">
        <ele>5.3</ele>
        <time>2020-06-02T08:35:08Z</time>
      </trkpt>
      <trkpt lat="46.15895" lon="-1.15389">
        <ele>5.3</ele>
        <time>2020-06-02T08:35:09Z</time>
      </trkpt>
      <trkpt lat="46.15895" lon="-1.15389">
        <ele>5.3</ele>
        <time>2020-06-02T08:35:10Z</time>
      </trkpt>
      <trkpt lat="46.15895" lon="-1.15389">
        <ele>5.3</ele>
        <time>2020-06-02T08:35:11Z</time>
      </trkpt>
      <trkpt lat="46.15895" lon="-1.15389">
        <ele>5.3</ele>
        <time>2020-06-02T08:35:12Z</time>
      </trkpt>
      <trkpt lat="46.15895" lon="-1.15389">
        <ele>5.3</ele>
        <time>2020-06-02T08:35:13Z</time>
      </trkpt>
      <trkpt lat="46.15895" lon="-1.15389">
        <ele>5.3</ele>
        <time>2020-06-02T08:35:14Z</time>
      </trkpt>
      <trkpt lat="46.15895" lon="-1.15389">
        <ele>5.3</ele>
        <time>2020-06-02T08:35:15Z</time>
      </trkpt>
      <trkpt lat="46.15895" lon="-1.15389">
        <ele>5.3</ele>
        <time>2020-06-02T08:35:16Z</time>
      </trkpt>
      <trkpt lat="46.15895" lon="-1.15389">
        <ele>5.3</ele>
        <time>2020-06-02T08:35:17Z</time>
      </trkpt>
      <trkpt lat="46.15895" lon="-1.15389">
        <ele>5.3</ele>
        <time>2020-06-02T08:35:18Z</time>
      </trkpt>
      <trkpt lat="46.15895" lon="-1.15389">
        <ele>5.3</ele>
        <time>2020-06-02T08:35:19Z</time>
      </trkpt>
      <trkpt lat="46.15895" lon="-1.15389">
        <ele>5.3</ele>
        <time>2020-06-02T08:35:20Z</time>
      </trkpt>
      <trkpt lat="46.15895" lon="-1.15389">
        <ele>5.3</ele>
        <time>2020-06-02T08:35:21Z</time>
      </trkpt>
      <trkpt lat="46.15895" lon="-1.15389">
        <ele>5.3</ele>
        <time>2020-06-02T08:35:22Z</time>
      </trkpt>
      <trkpt lat="46.15895" lon="-1.15389">
        <ele>5.3</ele>
        <time>2020-06-02T08:35:23Z</time>
      </trkpt>
      <trkpt lat="46.15895" lon="-1.15389">
        <ele>5.3</ele>
        <time>2020-06-02T08:35:24Z</time>
      </trkpt>
      <trkpt lat="46.15895" lon="-1.15389">
        <ele>5.3</ele>
        <time>2020-06-02T08:35:25Z</time>
      </trkpt>
      <trkpt lat="46.15895" lon="-1.15389">
        <ele>5.3</ele>
        <time>2020-06-02T08:35:26Z</time>
      </trkpt>
      <trkpt lat="46.15895" lon="-1.15389">
        <ele>5.3</ele>
        <time>2020-06-02T08:35:27Z</time>
      </trkpt>
      <trkpt lat="46.15895" lon="-1.15389">
        <ele>5.3</ele>
        <time>2020-06-02T08:35:28Z</time>
      </trkpt>
      <trkpt lat="46.15895" lon="-1.15389">
        <ele>5.3</ele>
        <time>2020-06-02T08:35:29Z</time>
      </trkpt>
      <trkpt lat="46.15895" lon="-1.15389">
        <ele>5.3</ele>
        <time>2020-06-02T08:35:30Z</time>
      </trkpt>
      <trkpt lat="46.15895" lon="-1.15389">
        <ele>5.3</ele>
        <time>2020-06-02T08:35:31Z</time>
      </trkpt>
      <trkpt lat="46.15895" lon="-1.15389">
        <ele>5.3</ele>
        <time>2020-06-02T08:35:32Z</time>
      </trkpt>
      <trkpt lat="46.15895" lon="-1.15389">
        <ele>5.3</ele>
        <time>2020-06-02T08:35:33Z</time>
      </trkpt>
      <trkpt lat="46.15895" lon="-1.15389">
        <ele>5.3</ele>
        <time>2020-06-02T08:35:34Z</time>
      </trkpt>
      <trkpt lat="46.15895" lon="-1.15389">
        <ele>5.3</ele>
        <time>2020-06-02T08:35:35Z</time>
      </trkpt>
      <trkpt lat="46.15895" lon="-1.15389">
        <ele>5.3</ele>
        <time>2020-06-02T08:35:36Z</time>
      </trkpt>
      <trkpt lat="46.15895" lon="-1.15389">
        <ele>5.3</ele>
        <time>2020-06-02T08:35:37Z</time>
      </trkpt>
      <trkpt lat="46.15895" lon="-1.15389">
        <ele>5.3</ele>
        <time>2020-06-02T08:35:38Z</time>
      </trkpt>
      <trkpt lat="46.15895" lon="-1.15389">
        <ele>5.3</ele>
        <time>2020-06-02T08:35:39Z</time>
      </trkpt>
      <trkpt lat="46.15895" lon="-1.15389">
        <ele>5.3</ele>
        <time>2020-06-02T08:35:40Z</time>
      </trkpt>
      <trkpt lat="46.15895" lon="-1.15389">
        <ele>5.3</ele>
        <time>2020-06-02T08:35:41Z</time>
      </trkpt>
      <trkpt lat="46.15895" lon="-1.15389">
        <ele>5.3</ele>
        <time>2020-06-02T08:35:42Z</time>
      </trkpt>
      <trkpt lat="46.15895" lon="-1.15389">
        <ele>5.3</ele>
        <time>2020-06-02T08:35:43Z</time>
      </trkpt>
      <trkpt lat="46.15895" lon="-1.15389">
        <ele>5.3</ele>
        <time>2020-06-02T08:35:44Z</time>
      </trkpt>
      <trkpt lat="46.15895" lon="-1.15389">
        <ele>5.3</ele>
        <time>2020-06-02T08:35:45Z</time>
      </trkpt>
      <trkpt lat="46.15895" lon="-1.15389">
        <ele>5.3</ele>
        <time>2020-06-02T08:35:46Z</time>
      </trkpt>
      <trkpt lat="46.15895" lon="-1.15389">
        <ele>5.3</ele>
        <time>2020-06-02T08:35:47Z</time>
      </trkpt>
      <trkpt lat="46.15895" lon="-1.15389">
        <ele>5.3</ele>
        <time>2020-06-02T08:35:48Z</time>
      </trkpt>
      <trkpt lat="46.15895" lon="-1.15389">
        <ele>5.3</ele>
        <time>2020-06-02T08:35:49Z</time>
      </trkpt>
      <trkpt lat="46.15895" lon="-1.15389">
        <ele>5.3</ele>
        <time>2020-06-02T08:35:50Z</time>
      </trkpt>
      <trkpt lat="46.15895" lon="-1.15389">
        <ele>5.3</ele>
        <time>2020-06-02T08:35:51Z</time>
      </trkpt>
      <trkpt lat="46.15895" lon="-1.15389">
        <ele>5.3</ele>
        <time>2020-06-02T08:35:52Z</time>
      </trkpt>
      <trkpt lat="46.15895" lon="-1.15389">
        <ele>5.3</ele>
        <time>2020-06-02T08:35:53Z</time>
      </trkpt>
      <trkpt lat="46.15895" lon="-1.15389">
        <ele>5.3</ele>
        <time>2020-06-02T08:35:54Z</time>
      </trkpt>
      <trkpt lat="46.15895" lon="-1.15389">
        <ele>5.3</ele>
        <time>2020-06-02T08:35:55Z</time>
      </trkpt>
      <trkpt lat="46.15895" lon="-1.15389">
        <ele>5.3</ele>
        <time>2020-06-02T08:35:56Z</time>
      </trkpt>
      <trkpt lat="46.15895" lon="-1.15389">
        <ele>5.3</ele>
        <time>2020-06-02T08:35:57Z</time>
      </trkpt>
      <trkpt lat="46.15895" lon="-1.15389">
        <ele>5.3</ele>
        <time>2020-06-02T08:35:58Z</time>
      </trkpt>
      <trkpt lat="46.15895" lon="-1.15389">
        <ele>5.3</ele>
        <time>2020-06-02T08:35:59Z</time>
      </trkpt>
      <trkpt lat="46.15895" lon="-1.15389">
        <ele>5.3</ele>
        <time>2020-06-02T08:36:00Z</time>
      </trkpt>
      <trkpt lat="46.15895" lon="-1.15389">
        <ele>5.3</ele>
        <time>2020-06-02T08:36:01Z</time>
      </trkpt>
      <trkpt lat="46.15895" lon="-1.15389">
        <ele>5.3</ele>
        <time>2020-06-02T08:36:02Z</time>
      </trkpt>
      <trkpt lat="46.15895" lon="-1.15389">
        <ele>5.3</ele>
        <time>2020-06-02T08:36:03Z</time>
      </trkpt>
      <trkpt lat="46.15895" lon="-1.15389">
        <ele>5.3</ele>
        <time>2020-06-02T08:36:04Z</time>
      </trkpt>
      <trkpt lat="46.15895" lon="-1.15389">
        <ele>5.3</ele>
        <time>2020-06-02T08:36:05Z</time>
      </trkpt>
      <trkpt lat="46.15895" lon="-1.15389">
        <ele>5.3</ele>
        <time>2020-06-02T08:36:06Z</time>
      </trkpt>
      <trkpt lat="46.15895" lon="-1.15389">
        <ele>5.3</ele>
        <time>2020-06-02T08:36:07Z</time>
      </trkpt>
      <trkpt lat="46.15895" lon="-1.15389">
        <ele>5.3</ele>
        <time>2020-06-02T08:36:08Z</time>
      </trkpt>
      <trkpt lat="46.15895" lon="-1.15389">
        <ele>5.3</ele>
        <time>2020-06-02T08:36:09Z</time>
      </trkpt>
      <trkpt lat="46.15895" lon="-1.15389">
        <ele>5.3</ele>
        <time>2020-06-02T08:36:10Z</time>
      </trkpt>
      <trkpt lat="46.15895" lon="-1.15389">
        <ele>5.3</ele>
        <time>2020-06-02T08:36:11Z</time>
      </trkpt>
      <trkpt lat="46.15895" lon="-1.15389">
        <ele>5.3</ele>
        <time>2020-06-02T08:36:12Z</time>
      </trkpt>
      <trkpt lat="46.15895" lon="-1.15389">
        <ele>5.3</ele>
        <time>2020-06-02T08:36:13Z</time>
      </trkpt>
      <trkpt lat="46.15895" lon="-1.15389">
        <ele>5.3</ele>
        <time>2020-06-02T08:36:14Z</time>
      </trkpt>
      <trkpt lat="46.15895" lon="-1.15389">
        <ele>5.3</ele>
        <time>2020-06-02T08:36:15Z</time>
      </trkpt>
      <trkpt lat="46.15895" lon="-1.15389">
        <ele>5.3</ele>
        <time>2020-06-02T08:36:16Z</time>
      </trkpt>
      <trkpt lat="46.15895" lon="-1.15389">
        <ele>5.3</ele>
        <time>2020-06-02T08:36:17Z</time>
      </trkpt>
      <trkpt lat="46.15895" lon="-1.15389">
        <ele>5.3</ele>
        <time>2020-06-02T08:36:18Z</time>
      </trkpt>
      <trkpt lat="46.15895" lon="-1.15389">
        <ele>5.3</ele>
        <time>2020-06-02T08:36:19Z</time>
      </trkpt>
      <trkpt lat="46.15895" lon="-1.15389">
        <ele>5.3</ele>
        <time>2020-06-02T08:36:20Z</time>
      </trkpt>
      <trkpt lat="46.15895" lon="-1.15389">
        <ele>5.3</ele>
        <time>2020-06-02T08:36:21Z</time>
      </trkpt>
      <trkpt lat="46.15895" lon="-1.15389">
        <ele>5.3</ele>
        <time>2020-06-02T08:36:22Z</time>
      </trkpt>
      <trkpt lat="46.15895" lon="-1.15389">
        <ele>5.3</ele>
        <time>2020-06-02T08:36:23Z</time>
      </trkpt>
      <trkpt lat="46.15895" lon="-1.15389">
        <ele>5.3</ele>
        <time>2020-06-02T08:36:24Z</time>
      </trkpt>
      <trkpt lat="46.15895" lon="-1.15389">
        <ele>5.3</ele>
        <time>2020-06-02T08:36:25Z</time>
      </trkpt>
      <trkpt lat="46.15895" lon="-1.15389">
        <ele>5.3</ele>
        <time>2020-06-02T08:36:26Z</time>
      </trkpt>
      <trkpt lat="46.15895" lon="-1.15389">
        <ele>5.3</ele>
        <time>2020-06-02T08:36:27Z</time>
      </trkpt>
      <trkpt lat="46.15895" lon="-1.15389">
        <ele>5.3</ele>
        <time>2020-06-02T08:36:28Z</time>
      </trkpt>
      <trkpt lat="46.15895" lon="-1.15389">
        <ele>5.3</ele>
        <time>2020-06-02T08:36:29Z</time>
      </trkpt>
      <trkpt lat="46.15895" lon="-1.15389">
        <ele>5.3</ele>
        <time>2020-06-02T08:36:30Z</time>
      </trkpt>
      <trkpt lat="46.15895" lon="-1.15389">
        <ele>5.3</ele>
        <time>2020-06-02T08:36:31Z</time>
      </trkpt>
      <trkpt lat="46.15895" lon="-1.15389">
        <ele>5.3</ele>
        <time>2020-06-02T08:36:32Z</time>
      </trkpt>
      <trkpt lat="46.15895" lon="-1.15389">
        <ele>5.3</ele>
        <time>2020-06-02T08:36:33Z</time>
      </trkpt>
      <trkpt lat="46.15895" lon="-1.15389">
        <ele>5.3</ele>
        <time>2020-06-02T08:36:34Z</time>
      </trkpt>
      <trkpt lat="46.15895" lon="-1.15389">
        <ele>5.3</ele>
        <time>2020-06-02T08:36:35Z</time>
      </trkpt>
      <trkpt lat="46.15895" lon="-1.15389">
        <ele>5.3</ele>
        <time>2020-06-02T08:36:36Z</time>
      </trkpt>
      <trkpt lat="46.15895" lon="-1.15389">
        <ele>5.3</ele>
        <time>2020-06-02T08:36:37Z</time>
      </trkpt>
      <trkpt lat="46.15895" lon="-1.15389">
        <ele>5.3</ele>
        <time>2020-06-02T08:36:38Z</time>
      </trkpt>
      <trkpt lat="46.15895" lon="-1.15389">
        <ele>5.3</ele>
        <time>2020-06-02T08:36:39Z</time>
      </trkpt>
      <trkpt lat="46.15895" lon="-1.15389">
        <ele>5.3</ele>
        <time>2020-06-02T08:36:40Z</time>
      </trkpt>
      <trkpt lat="46.15895" lon="-1.15389">
        <ele>5.3</ele>
        <time>2020-06-02T08:36:41Z</time>
      </trkpt>
      <trkpt lat="46.15895" lon="-1.15389">
        <ele>5.3</ele>
        <time>2020-06-02T08:36:42Z</time>
      </trkpt>
      <trkpt lat="46.15895" lon="-1.15389">
        <ele>5.3</ele>
        <time>2020-06-02T08:36:43Z</time>
      </trkpt>
      <trkpt lat="46.15895" lon="-1.15389">
        <ele>5.3</ele>
        <time>2020-06-02T08:36:44Z</time>
      </trkpt>
      <trkpt lat="46.15895" lon="-1.15389">
        <ele>5.3</ele>
        <time>2020-06-02T08:36:45Z</time>
      </trkpt>
      <trkpt lat="46.15895" lon="-1.15389">
        <ele>5.3</ele>
        <time>2020-06-02T08:36:46Z</time>
      </trkpt>
      <trkpt lat="46.15895" lon="-1.15389">
        <ele>5.3</ele>
        <time>2020-06-02T08:36:47Z</time>
      </trkpt>
      <trkpt lat="46.15895" lon="-1.15389">
        <ele>5.3</ele>
        <time>2020-06-02T08:36:48Z</time>
      </trkpt>
      <trkpt lat="46.15895" lon="-1.15389">
        <ele>5.3</ele>
        <time>2020-06-02T08:36:49Z</time>
      </trkpt>
      <trkpt lat="46.15895" lon="-1.15389">
        <ele>5.3</ele>
        <time>2020-06-02T08:36:50Z</time>
      </trkpt>
      <trkpt lat="46.15895" lon="-1.15389">
        <ele>5.3</ele>
        <time>2020-06-02T08:36:51Z</time>
      </trkpt>
      <trkpt lat="46.15895" lon="-1.15389">
        <ele>5.3</ele>
        <time>2020-06-02T08:36:52Z</time>
      </trkpt>
      <trkpt lat="46.15895" lon="-1.15389">
        <ele>5.3</ele>
        <time>2020-06-02T08:36:53Z</time>
      </trkpt>
      <trkpt lat="46.15895" lon="-1.15389">
        <ele>5.3</ele>
        <time>2020-06-02T08:36:54Z</time>
      </trkpt>
      <trkpt lat="46.15895" lon="-1.15389">
        <ele>5.3</ele>
        <time>2020-06-02T08:36:55Z</time>
      </trkpt>
      <trkpt lat="46.15895" lon="-1.15389">
        <ele>5.3</ele>
        <time>2020-06-02T08:36:56Z</time>
      </trkpt>
      <trkpt lat="46.15895" lon="-1.15389">
        <ele>5.3</ele>
        <time>2020-06-02T08:36:57Z</time>
      </trkpt>
      <trkpt lat="46.15895" lon="-1.15389">
        <ele>5.3</ele>
        <time>2020-06-02T08:36:58Z</time>
      </trkpt>
      <trkpt lat="46.15895" lon="-1.15389">
        <ele>5.3</ele>
        <time>2020-06-02T08:36:59Z</time>
      </trkpt>
      <trkpt lat="46.15895" lon="-1.15389">
        <ele>5.3</ele>
        <time>2020-06-02T08:37:00Z</time>
      </trkpt>
      <trkpt lat="46.15895" lon="-1.15389">
        <ele>5.3</ele>
        <time>2020-06-02T08:37:01Z</time>
      </trkpt>
      <trkpt lat="46.15895" lon="-1.15389">
        <ele>5.3</ele>
        <time>2020-06-02T08:37:02Z</time>
      </trkpt>
      <trkpt lat="46.15895" lon="-1.15389">
        <ele>5.3</ele>
        <time>2020-06-02T08:37:03Z</time>
      </trkpt>
      <trkpt lat="46.15895" lon="-1.15389">
        <ele>5.3</ele>
        <time>2020-06-02T08:37:04Z</time>
      </trkpt>
      <trkpt lat="46.15895" lon="-1.15389">
        <ele>5.3</ele>
        <time>2020-06-02T08:37:05Z</time>
      </trkpt>
      <trkpt lat="46.15895" lon="-1.15389">
        <ele>5.3</ele>
        <time>2020-06-02T08:37:06Z</time>
      </trkpt>
      <trkpt lat="46.15895" lon="-1.15389">
        <ele>5.3</ele>
        <time>2020-06-02T08:37:07Z</time>
      </trkpt>
      <trkpt lat="46.15895" lon="-1.15389">
        <ele>5.3</ele>
        <time>2020-06-02T08:37:08Z</time>
      </trkpt>
      <trkpt lat="46.15895" lon="-1.15389">
        <ele>5.3</ele>
        <time>2020-06-02T08:37:09Z</time>
      </trkpt>
      <trkpt lat="46.15895" lon="-1.15389">
        <ele>5.3</ele>
        <time>2020-06-02T08:37:10Z</time>
      </trkpt>
      <trkpt lat="46.15895" lon="-1.15389">
        <ele>5.3</ele>
        <time>2020-06-02T08:37:11Z</time>
      </trkpt>
      <trkpt lat="46.15895" lon="-1.15389">
        <ele>5.3</ele>
        <time>2020-06-02T08:37:12Z</time>
      </trkpt>
      <trkpt lat="46.15895" lon="-1.15389">
        <ele>5.3</ele>
        <time>2020-06-02T08:37:13Z</time>
      </trkpt>
      <trkpt lat="46.15895" lon="-1.15389">
        <ele>5.3</ele>
        <time>2020-06-02T08:37:14Z</time>
      </trkpt>
      <trkpt lat="46.15895" lon="-1.15389">
        <ele>5.3</ele>
        <time>2020-06-02T08:37:15Z</time>
      </trkpt>
      <trkpt lat="46.15895" lon="-1.15389">
        <ele>5.3</ele>
        <time>2020-06-02T08:37:16Z</time>
      </trkpt>
      <trkpt lat="46.15895" lon="-1.15389">
        <ele>5.3</ele>
        <time>2020-06-02T08:37:17Z</time>
      </trkpt>
      <trkpt lat="46.15895" lon="-1.15389">
        <ele>5.3</ele>
        <time>2020-06-02T08:37:18Z</time>
      </trkpt>
      <trkpt lat="46.15895" lon="-1.15389">
        <ele>5.3</ele>
        <time>2020-06-02T08:37:19Z</time>
      </trkpt>
      <trkpt lat="46.15895" lon="-1.15389">
        <ele>5.3</ele>
        <time>2020-06-02T08:37:20Z</time>
      </trkpt>
      <trkpt lat="46.15895" lon="-1.15389">
        <ele>5.3</ele>
        <time>2020-06-02T08:37:21Z</time>
      </trkpt>
      <trkpt lat="46.15895" lon="-1.15389">
        <ele>5.3</ele>
        <time>2020-06-02T08:37:22Z</time>
      </trkpt>
      <trkpt lat="46.15895" lon="-1.15389">
        <ele>5.3</ele>
        <time>2020-06-02T08:37:23Z</time>
      </trkpt>
      <trkpt lat="46.15895" lon="-1.15389">
        <ele>5.3</ele>
        <time>2020-06-02T08:37:24Z</time>
      </trkpt>
      <trkpt lat="46.15895" lon="-1.15389">
        <ele>5.3</ele>
        <time>2020-06-02T08:37:25Z</time>
      </trkpt>
      <trkpt lat="46.15895" lon="-1.15389">
        <ele>5.3</ele>
        <time>2020-06-02T08:37:26Z</time>
      </trkpt>
      <trkpt lat="46.15895" lon="-1.15389">
        <ele>5.3</ele>
        <time>2020-06-02T08:37:27Z</time>
      </trkpt>
      <trkpt lat="46.15895" lon="-1.15389">
        <ele>5.3</ele>
        <time>2020-06-02T08:37:28Z</time>
      </trkpt>
      <trkpt lat="46.15895" lon="-1.15389">
        <ele>5.3</ele>
        <time>2020-06-02T08:37:29Z</time>
      </trkpt>
      <trkpt lat="46.15895" lon="-1.15389">
        <ele>5.3</ele>
        <time>2020-06-02T08:37:30Z</time>
      </trkpt>
      <trkpt lat="46.15895" lon="-1.15389">
        <ele>5.3</ele>
        <time>2020-06-02T08:37:31Z</time>
      </trkpt>
      <trkpt lat="46.15895" lon="-1.15389">
        <ele>5.3</ele>
        <time>2020-06-02T08:37:32Z</time>
      </trkpt>
      <trkpt lat="46.15895" lon="-1.15389">
        <ele>5.3</ele>
        <time>2020-06-02T08:37:33Z</time>
      </trkpt>
      <trkpt lat="46.15895" lon="-1.15389">
        <ele>5.3</ele>
        <time>2020-06-02T08:37:34Z</time>
      </trkpt>
      <trkpt lat="46.15895" lon="-1.15389">
        <ele>5.3</ele>
        <time>2020-06-02T08:37:35Z</time>
      </trkpt>
      <trkpt lat="46.15895" lon="-1.15389">
        <ele>5.3</ele>
        <time>2020-06-02T08:37:36Z</time>
      </trkpt>
      <trkpt lat="46.15895" lon="-1.15389">
        <ele>5.3</ele>
        <time>2020-06-02T08:37:37Z</time>
      </trkpt>
      <trkpt lat="46.15895" lon="-1.15389">
        <ele>5.3</ele>
        <time>2020-06-02T08:37:38Z</time>
      </trkpt>
      <trkpt lat="46.15895" lon="-1.15389">
        <ele>5.3</ele>
        <time>2020-06-02T08:37:39Z</time>
      </trkpt>
      <trkpt lat="46.15895" lon="-1.15389">
        <ele>5.3</ele>
        <time>2020-06-02T08:37:40Z</time>
      </trkpt>
      <trkpt lat="46.15895" lon="-1.15389">
        <ele>5.3</ele>
        <time>2020-06-02T08:37:41Z</time>
      </trkpt>
      <trkpt lat="46.15895" lon="-1.15389">
        <ele>5.3</ele>
        <time>2020-06-02T08:37:42Z</time>
      </trkpt>
      <trkpt lat="46.15892" lon="-1.15387">
        <ele>5.3</ele>
        <time>2020-06-02T08:37:43Z</time>
      </trkpt>
      <trkpt lat="46.15892" lon="-1.15387">
        <ele>5.3</ele>
        <time>2020-06-02T08:37:44Z</time>
      </trkpt>
      <trkpt lat="46.15892" lon="-1.15387">
        <ele>5.3</ele>
        <time>2020-06-02T08:37:45Z</time>
      </trkpt>
      <trkpt lat="46.15892" lon="-1.15387">
        <ele>5.3</ele>
        <time>2020-06-02T08:37:46Z</time>
      </trkpt>
      <trkpt lat="46.15892" lon="-1.15387">
        <ele>5.3</ele>
        <time>2020-06-02T08:37:47Z</time>
      </trkpt>
      <trkpt lat="46.15892" lon="-1.15387">
        <ele>5.3</ele>
        <time>2020-06-02T08:37:48Z</time>
      </trkpt>
      <trkpt lat="46.15892" lon="-1.15387">
        <ele>5.3</ele>
        <time>2020-06-02T08:37:49Z</time>
      </trkpt>
      <trkpt lat="46.15892" lon="-1.15387">
        <ele>5.3</ele>
        <time>2020-06-02T08:37:50Z</time>
      </trkpt>
      <trkpt lat="46.15892" lon="-1.15387">
        <ele>5.3</ele>
        <time>2020-06-02T08:37:51Z</time>
      </trkpt>
      <trkpt lat="46.15892" lon="-1.15387">
        <ele>5.3</ele>
        <time>2020-06-02T08:37:52Z</time>
      </trkpt>
      <trkpt lat="46.15892" lon="-1.15387">
        <ele>5.3</ele>
        <time>2020-06-02T08:37:53Z</time>
      </trkpt>
      <trkpt lat="46.15893" lon="-1.15387">
        <ele>5.3</ele>
        <time>2020-06-02T08:37:54Z</time>
      </trkpt>
      <trkpt lat="46.15892" lon="-1.15387">
        <ele>5.3</ele>
        <time>2020-06-02T08:37:55Z</time>
      </trkpt>
      <trkpt lat="46.15892" lon="-1.15387">
        <ele>5.3</ele>
        <time>2020-06-02T08:37:56Z</time>
      </trkpt>
      <trkpt lat="46.15893" lon="-1.15387">
        <ele>5.3</ele>
        <time>2020-06-02T08:37:57Z</time>
      </trkpt>
      <trkpt lat="46.15892" lon="-1.15387">
        <ele>5.2</ele>
        <time>2020-06-02T08:37:58Z</time>
      </trkpt>
      <trkpt lat="46.15892" lon="-1.15387">
        <ele>5.2</ele>
        <time>2020-06-02T08:37:59Z</time>
      </trkpt>
      <trkpt lat="46.15892" lon="-1.15387">
        <ele>5.2</ele>
        <time>2020-06-02T08:38:00Z</time>
      </trkpt>
      <trkpt lat="46.15892" lon="-1.15387">
        <ele>5.2</ele>
        <time>2020-06-02T08:38:01Z</time>
      </trkpt>
      <trkpt lat="46.15892" lon="-1.15387">
        <ele>5.2</ele>
        <time>2020-06-02T08:38:02Z</time>
      </trkpt>
      <trkpt lat="46.15892" lon="-1.15387">
        <ele>5.2</ele>
        <time>2020-06-02T08:38:03Z</time>
      </trkpt>
      <trkpt lat="46.15892" lon="-1.15387">
        <ele>5.2</ele>
        <time>2020-06-02T08:38:04Z</time>
      </trkpt>
      <trkpt lat="46.15892" lon="-1.15387">
        <ele>5.2</ele>
        <time>2020-06-02T08:38:05Z</time>
      </trkpt>
      <trkpt lat="46.15892" lon="-1.15387">
        <ele>5.2</ele>
        <time>2020-06-02T08:38:06Z</time>
      </trkpt>
      <trkpt lat="46.15892" lon="-1.15387">
        <ele>5.2</ele>
        <time>2020-06-02T08:38:07Z</time>
      </trkpt>
      <trkpt lat="46.15892" lon="-1.15387">
        <ele>5.2</ele>
        <time>2020-06-02T08:38:08Z</time>
      </trkpt>
      <trkpt lat="46.15892" lon="-1.15387">
        <ele>5.2</ele>
        <time>2020-06-02T08:38:09Z</time>
      </trkpt>
      <trkpt lat="46.15892" lon="-1.15387">
        <ele>5.2</ele>
        <time>2020-06-02T08:38:10Z</time>
      </trkpt>
      <trkpt lat="46.15892" lon="-1.15387">
        <ele>5.2</ele>
        <time>2020-06-02T08:38:11Z</time>
      </trkpt>
      <trkpt lat="46.15892" lon="-1.15387">
        <ele>5.2</ele>
        <time>2020-06-02T08:38:12Z</time>
      </trkpt>
      <trkpt lat="46.15893" lon="-1.15387">
        <ele>5.2</ele>
        <time>2020-06-02T08:38:13Z</time>
      </trkpt>
      <trkpt lat="46.15892" lon="-1.15387">
        <ele>5.2</ele>
        <time>2020-06-02T08:38:14Z</time>
      </trkpt>
      <trkpt lat="46.15892" lon="-1.15387">
        <ele>5.2</ele>
        <time>2020-06-02T08:38:15Z</time>
      </trkpt>
      <trkpt lat="46.15892" lon="-1.15386">
        <ele>5.2</ele>
        <time>2020-06-02T08:38:16Z</time>
      </trkpt>
      <trkpt lat="46.15893" lon="-1.15386">
        <ele>5.2</ele>
        <time>2020-06-02T08:38:17Z</time>
      </trkpt>
      <trkpt lat="46.15893" lon="-1.15386">
        <ele>5.2</ele>
        <time>2020-06-02T08:38:18Z</time>
      </trkpt>
      <trkpt lat="46.15893" lon="-1.15386">
        <ele>5.2</ele>
        <time>2020-06-02T08:38:19Z</time>
      </trkpt>
      <trkpt lat="46.15893" lon="-1.15387">
        <ele>5.2</ele>
        <time>2020-06-02T08:38:20Z</time>
      </trkpt>
      <trkpt lat="46.15892" lon="-1.15388">
        <ele>5.2</ele>
        <time>2020-06-02T08:38:21Z</time>
      </trkpt>
      <trkpt lat="46.15892" lon="-1.15388">
        <ele>5.2</ele>
        <time>2020-06-02T08:38:22Z</time>
      </trkpt>
      <trkpt lat="46.15891" lon="-1.15387">
        <ele>5.2</ele>
        <time>2020-06-02T08:38:23Z</time>
      </trkpt>
      <trkpt lat="46.15889" lon="-1.15388">
        <ele>5.2</ele>
        <time>2020-06-02T08:38:24Z</time>
      </trkpt>
      <trkpt lat="46.15887" lon="-1.15388">
        <ele>5.1</ele>
        <time>2020-06-02T08:38:25Z</time>
      </trkpt>
      <trkpt lat="46.15886" lon="-1.15388">
        <ele>5.1</ele>
        <time>2020-06-02T08:38:26Z</time>
      </trkpt>
      <trkpt lat="46.15885" lon="-1.15388">
        <ele>5.1</ele>
        <time>2020-06-02T08:38:27Z</time>
      </trkpt>
      <trkpt lat="46.15882" lon="-1.15391">
        <ele>5.1</ele>
        <time>2020-06-02T08:38:28Z</time>
      </trkpt>
      <trkpt lat="46.15881" lon="-1.15392">
        <ele>5.1</ele>
        <time>2020-06-02T08:38:29Z</time>
      </trkpt>
      <trkpt lat="46.15877" lon="-1.15391">
        <ele>5</ele>
        <time>2020-06-02T08:38:30Z</time>
      </trkpt>
      <trkpt lat="46.15876" lon="-1.15391">
        <ele>5</ele>
        <time>2020-06-02T08:38:31Z</time>
      </trkpt>
      <trkpt lat="46.15873" lon="-1.15392">
        <ele>5</ele>
        <time>2020-06-02T08:38:32Z</time>
      </trkpt>
      <trkpt lat="46.15869" lon="-1.15392">
        <ele>5</ele>
        <time>2020-06-02T08:38:33Z</time>
      </trkpt>
      <trkpt lat="46.15866" lon="-1.15392">
        <ele>5</ele>
        <time>2020-06-02T08:38:34Z</time>
      </trkpt>
      <trkpt lat="46.15863" lon="-1.15393">
        <ele>5</ele>
        <time>2020-06-02T08:38:35Z</time>
      </trkpt>
      <trkpt lat="46.1586" lon="-1.15393">
        <ele>4.9</ele>
        <time>2020-06-02T08:38:36Z</time>
      </trkpt>
      <trkpt lat="46.15857" lon="-1.15393">
        <ele>4.9</ele>
        <time>2020-06-02T08:38:37Z</time>
      </trkpt>
      <trkpt lat="46.15855" lon="-1.15393">
        <ele>4.9</ele>
        <time>2020-06-02T08:38:38Z</time>
      </trkpt>
      <trkpt lat="46.15852" lon="-1.15395">
        <ele>4.9</ele>
        <time>2020-06-02T08:38:39Z</time>
      </trkpt>
      <trkpt lat="46.15852" lon="-1.15395">
        <ele>4.9</ele>
        <time>2020-06-02T08:38:40Z</time>
      </trkpt>
      <trkpt lat="46.15849" lon="-1.15397">
        <ele>4.9</ele>
        <time>2020-06-02T08:38:41Z</time>
      </trkpt>
      <trkpt lat="46.15848" lon="-1.15397">
        <ele>4.9</ele>
        <time>2020-06-02T08:38:42Z</time>
      </trkpt>
      <trkpt lat="46.15847" lon="-1.15398">
        <ele>4.9</ele>
        <time>2020-06-02T08:38:43Z</time>
      </trkpt>
      <trkpt lat="46.15846" lon="-1.15398">
        <ele>4.9</ele>
        <time>2020-06-02T08:38:44Z</time>
      </trkpt>
      <trkpt lat="46.15845" lon="-1.15398">
        <ele>4.9</ele>
        <time>2020-06-02T08:38:45Z</time>
      </trkpt>
      <trkpt lat="46.15844" lon="-1.15394">
        <ele>4.9</ele>
        <time>2020-06-02T08:38:46Z</time>
      </trkpt>
      <trkpt lat="46.15844" lon="-1.15392">
        <ele>4.9</ele>
        <time>2020-06-02T08:38:47Z</time>
      </trkpt>
      <trkpt lat="46.15844" lon="-1.1539">
        <ele>4.9</ele>
        <time>2020-06-02T08:38:48Z</time>
      </trkpt>
      <trkpt lat="46.15844" lon="-1.15389">
        <ele>4.9</ele>
        <time>2020-06-02T08:38:49Z</time>
      </trkpt>
      <trkpt lat="46.15843" lon="-1.15389">
        <ele>4.9</ele>
        <time>2020-06-02T08:38:50Z</time>
      </trkpt>
      <trkpt lat="46.15843" lon="-1.15389">
        <ele>4.9</ele>
        <time>2020-06-02T08:38:51Z</time>
      </trkpt>
      <trkpt lat="46.15842" lon="-1.15389">
        <ele>4.9</ele>
        <time>2020-06-02T08:38:52Z</time>
      </trkpt>
      <trkpt lat="46.15842" lon="-1.15388">
        <ele>4.9</ele>
        <time>2020-06-02T08:38:53Z</time>
      </trkpt>
      <trkpt lat="46.15842" lon="-1.15388">
        <ele>4.9</ele>
        <time>2020-06-02T08:38:54Z</time>
      </trkpt>
      <trkpt lat="46.15842" lon="-1.15388">
        <ele>4.9</ele>
        <time>2020-06-02T08:38:55Z</time>
      </trkpt>
      <trkpt lat="46.15842" lon="-1.15388">
        <ele>4.9</ele>
        <time>2020-06-02T08:38:56Z</time>
      </trkpt>
      <trkpt lat="46.15843" lon="-1.15387">
        <ele>4.9</ele>
        <time>2020-06-02T08:38:57Z</time>
      </trkpt>
      <trkpt lat="46.15843" lon="-1.15387">
        <ele>4.9</ele>
        <time>2020-06-02T08:38:58Z</time>
      </trkpt>
      <trkpt lat="46.15843" lon="-1.15386">
        <ele>4.9</ele>
        <time>2020-06-02T08:38:59Z</time>
      </trkpt>
      <trkpt lat="46.15843" lon="-1.15386">
        <ele>4.9</ele>
        <time>2020-06-02T08:39:00Z</time>
      </trkpt>
      <trkpt lat="46.15843" lon="-1.15386">
        <ele>4.9</ele>
        <time>2020-06-02T08:39:01Z</time>
      </trkpt>
      <trkpt lat="46.15843" lon="-1.15386">
        <ele>4.9</ele>
        <time>2020-06-02T08:39:02Z</time>
      </trkpt>
      <trkpt lat="46.15844" lon="-1.15385">
        <ele>4.9</ele>
        <time>2020-06-02T08:39:03Z</time>
      </trkpt>
      <trkpt lat="46.15843" lon="-1.15385">
        <ele>4.9</ele>
        <time>2020-06-02T08:39:04Z</time>
      </trkpt>
      <trkpt lat="46.15843" lon="-1.15386">
        <ele>4.9</ele>
        <time>2020-06-02T08:39:05Z</time>
      </trkpt>
      <trkpt lat="46.15841" lon="-1.15386">
        <ele>4.9</ele>
        <time>2020-06-02T08:39:06Z</time>
      </trkpt>
      <trkpt lat="46.1584" lon="-1.15385">
        <ele>4.9</ele>
        <time>2020-06-02T08:39:07Z</time>
      </trkpt>
      <trkpt lat="46.15841" lon="-1.15384">
        <ele>4.9</ele>
        <time>2020-06-02T08:39:08Z</time>
      </trkpt>
      <trkpt lat="46.1584" lon="-1.15385">
        <ele>4.9</ele>
        <time>2020-06-02T08:39:09Z</time>
      </trkpt>
      <trkpt lat="46.1584" lon="-1.15386">
        <ele>4.9</ele>
        <time>2020-06-02T08:39:10Z</time>
      </trkpt>
      <trkpt lat="46.15839" lon="-1.15388">
        <ele>4.9</ele>
        <time>2020-06-02T08:39:11Z</time>
      </trkpt>
      <trkpt lat="46.15839" lon="-1.15388">
        <ele>4.9</ele>
        <time>2020-06-02T08:39:12Z</time>
      </trkpt>
      <trkpt lat="46.15839" lon="-1.15388">
        <ele>4.9</ele>
        <time>2020-06-02T08:39:13Z</time>
      </trkpt>
      <trkpt lat="46.15839" lon="-1.15388">
        <ele>4.9</ele>
        <time>2020-06-02T08:39:14Z</time>
      </trkpt>
      <trkpt lat="46.15839" lon="-1.15388">
        <ele>4.9</ele>
        <time>2020-06-02T08:39:15Z</time>
      </trkpt>
      <trkpt lat="46.15839" lon="-1.15388">
        <ele>4.9</ele>
        <time>2020-06-02T08:39:16Z</time>
      </trkpt>
      <trkpt lat="46.15839" lon="-1.15388">
        <ele>4.9</ele>
        <time>2020-06-02T08:39:17Z</time>
      </trkpt>
      <trkpt lat="46.15839" lon="-1.15388">
        <ele>4.9</ele>
        <time>2020-06-02T08:39:18Z</time>
      </trkpt>
      <trkpt lat="46.1584" lon="-1.15388">
        <ele>4.9</ele>
        <time>2020-06-02T08:39:19Z</time>
      </trkpt>
      <trkpt lat="46.1584" lon="-1.15389">
        <ele>4.9</ele>
        <time>2020-06-02T08:39:20Z</time>
      </trkpt>
      <trkpt lat="46.1584" lon="-1.15389">
        <ele>4.9</ele>
        <time>2020-06-02T08:39:21Z</time>
      </trkpt>
      <trkpt lat="46.1584" lon="-1.1539">
        <ele>4.9</ele>
        <time>2020-06-02T08:39:22Z</time>
      </trkpt>
      <trkpt lat="46.15839" lon="-1.15391">
        <ele>4.9</ele>
        <time>2020-06-02T08:39:23Z</time>
      </trkpt>
      <trkpt lat="46.15839" lon="-1.1539">
        <ele>4.9</ele>
        <time>2020-06-02T08:39:24Z</time>
      </trkpt>
      <trkpt lat="46.15838" lon="-1.15389">
        <ele>4.8</ele>
        <time>2020-06-02T08:39:25Z</time>
      </trkpt>
      <trkpt lat="46.15837" lon="-1.15388">
        <ele>4.8</ele>
        <time>2020-06-02T08:39:26Z</time>
      </trkpt>
      <trkpt lat="46.15834" lon="-1.15388">
        <ele>4.8</ele>
        <time>2020-06-02T08:39:27Z</time>
      </trkpt>
      <trkpt lat="46.15833" lon="-1.15387">
        <ele>4.8</ele>
        <time>2020-06-02T08:39:28Z</time>
      </trkpt>
      <trkpt lat="46.15832" lon="-1.15386">
        <ele>4.8</ele>
        <time>2020-06-02T08:39:29Z</time>
      </trkpt>
      <trkpt lat="46.15829" lon="-1.15385">
        <ele>4.8</ele>
        <time>2020-06-02T08:39:30Z</time>
      </trkpt>
      <trkpt lat="46.15829" lon="-1.15384">
        <ele>4.8</ele>
        <time>2020-06-02T08:39:31Z</time>
      </trkpt>
      <trkpt lat="46.15825" lon="-1.15382">
        <ele>4.8</ele>
        <time>2020-06-02T08:39:32Z</time>
      </trkpt>
      <trkpt lat="46.15824" lon="-1.1538">
        <ele>4.8</ele>
        <time>2020-06-02T08:39:33Z</time>
      </trkpt>
      <trkpt lat="46.15821" lon="-1.15377">
        <ele>4.8</ele>
        <time>2020-06-02T08:39:34Z</time>
      </trkpt>
      <trkpt lat="46.15819" lon="-1.15374">
        <ele>4.7</ele>
        <time>2020-06-02T08:39:35Z</time>
      </trkpt>
      <trkpt lat="46.15816" lon="-1.15371">
        <ele>4.7</ele>
        <time>2020-06-02T08:39:36Z</time>
      </trkpt>
      <trkpt lat="46.15813" lon="-1.1537">
        <ele>4.7</ele>
        <time>2020-06-02T08:39:37Z</time>
      </trkpt>
      <trkpt lat="46.15812" lon="-1.1537">
        <ele>4.7</ele>
        <time>2020-06-02T08:39:38Z</time>
      </trkpt>
      <trkpt lat="46.15811" lon="-1.1537">
        <ele>4.7</ele>
        <time>2020-06-02T08:39:39Z</time>
      </trkpt>
      <trkpt lat="46.15811" lon="-1.15369">
        <ele>4.7</ele>
        <time>2020-06-02T08:39:40Z</time>
      </trkpt>
      <trkpt lat="46.15811" lon="-1.15368">
        <ele>4.7</ele>
        <time>2020-06-02T08:39:41Z</time>
      </trkpt>
      <trkpt lat="46.15811" lon="-1.15367">
        <ele>4.7</ele>
        <time>2020-06-02T08:39:42Z</time>
      </trkpt>
      <trkpt lat="46.15811" lon="-1.15367">
        <ele>4.7</ele>
        <time>2020-06-02T08:39:43Z</time>
      </trkpt>
      <trkpt lat="46.15811" lon="-1.15367">
        <ele>4.7</ele>
        <time>2020-06-02T08:39:44Z</time>
      </trkpt>
      <trkpt lat="46.1581" lon="-1.15366">
        <ele>4.7</ele>
        <time>2020-06-02T08:39:45Z</time>
      </trkpt>
      <trkpt lat="46.1581" lon="-1.15366">
        <ele>4.7</ele>
        <time>2020-06-02T08:39:46Z</time>
      </trkpt>
      <trkpt lat="46.1581" lon="-1.15366">
        <ele>4.7</ele>
        <time>2020-06-02T08:39:47Z</time>
      </trkpt>
      <trkpt lat="46.1581" lon="-1.15368">
        <ele>4.7</ele>
        <time>2020-06-02T08:39:48Z</time>
      </trkpt>
      <trkpt lat="46.15811" lon="-1.15369">
        <ele>4.7</ele>
        <time>2020-06-02T08:39:49Z</time>
      </trkpt>
      <trkpt lat="46.15812" lon="-1.15371">
        <ele>4.7</ele>
        <time>2020-06-02T08:39:50Z</time>
      </trkpt>
      <trkpt lat="46.15812" lon="-1.15371">
        <ele>4.7</ele>
        <time>2020-06-02T08:39:51Z</time>
      </trkpt>
      <trkpt lat="46.15814" lon="-1.15369">
        <ele>4.7</ele>
        <time>2020-06-02T08:39:52Z</time>
      </trkpt>
      <trkpt lat="46.15815" lon="-1.15364">
        <ele>4.7</ele>
        <time>2020-06-02T08:39:53Z</time>
      </trkpt>
      <trkpt lat="46.15815" lon="-1.15362">
        <ele>4.7</ele>
        <time>2020-06-02T08:39:54Z</time>
      </trkpt>
      <trkpt lat="46.15815" lon="-1.15359">
        <ele>4.7</ele>
        <time>2020-06-02T08:39:55Z</time>
      </trkpt>
      <trkpt lat="46.15815" lon="-1.15357">
        <ele>4.8</ele>
        <time>2020-06-02T08:39:56Z</time>
      </trkpt>
      <trkpt lat="46.15814" lon="-1.15352">
        <ele>4.8</ele>
        <time>2020-06-02T08:39:57Z</time>
      </trkpt>
      <trkpt lat="46.15813" lon="-1.15351">
        <ele>4.8</ele>
        <time>2020-06-02T08:39:58Z</time>
      </trkpt>
      <trkpt lat="46.15814" lon="-1.15347">
        <ele>4.8</ele>
        <time>2020-06-02T08:39:59Z</time>
      </trkpt>
      <trkpt lat="46.15815" lon="-1.15343">
        <ele>4.9</ele>
        <time>2020-06-02T08:40:00Z</time>
      </trkpt>
      <trkpt lat="46.15814" lon="-1.15337">
        <ele>4.9</ele>
        <time>2020-06-02T08:40:01Z</time>
      </trkpt>
      <trkpt lat="46.15815" lon="-1.15331">
        <ele>4.9</ele>
        <time>2020-06-02T08:40:02Z</time>
      </trkpt>
      <trkpt lat="46.15814" lon="-1.15325">
        <ele>4.9</ele>
        <time>2020-06-02T08:40:03Z</time>
      </trkpt>
      <trkpt lat="46.15815" lon="-1.1532">
        <ele>4.9</ele>
        <time>2020-06-02T08:40:04Z</time>
      </trkpt>
      <trkpt lat="46.15814" lon="-1.15316">
        <ele>4.9</ele>
        <time>2020-06-02T08:40:05Z</time>
      </trkpt>
      <trkpt lat="46.15814" lon="-1.15311">
        <ele>5</ele>
        <time>2020-06-02T08:40:06Z</time>
      </trkpt>
      <trkpt lat="46.15814" lon="-1.15305">
        <ele>5</ele>
        <time>2020-06-02T08:40:07Z</time>
      </trkpt>
      <trkpt lat="46.15814" lon="-1.153">
        <ele>5</ele>
        <time>2020-06-02T08:40:08Z</time>
      </trkpt>
      <trkpt lat="46.15814" lon="-1.15298">
        <ele>4.9</ele>
        <time>2020-06-02T08:40:09Z</time>
      </trkpt>
      <trkpt lat="46.15814" lon="-1.15294">
        <ele>4.9</ele>
        <time>2020-06-02T08:40:10Z</time>
      </trkpt>
      <trkpt lat="46.15814" lon="-1.15288">
        <ele>4.9</ele>
        <time>2020-06-02T08:40:11Z</time>
      </trkpt>
      <trkpt lat="46.15814" lon="-1.15283">
        <ele>4.9</ele>
        <time>2020-06-02T08:40:12Z</time>
      </trkpt>
      <trkpt lat="46.15814" lon="-1.15279">
        <ele>4.9</ele>
        <time>2020-06-02T08:40:13Z</time>
      </trkpt>
      <trkpt lat="46.15814" lon="-1.15275">
        <ele>4.8</ele>
        <time>2020-06-02T08:40:14Z</time>
      </trkpt>
      <trkpt lat="46.15814" lon="-1.15273">
        <ele>4.8</ele>
        <time>2020-06-02T08:40:15Z</time>
      </trkpt>
      <trkpt lat="46.15814" lon="-1.15267">
        <ele>4.8</ele>
        <time>2020-06-02T08:40:16Z</time>
      </trkpt>
      <trkpt lat="46.15814" lon="-1.15265">
        <ele>4.8</ele>
        <time>2020-06-02T08:40:17Z</time>
      </trkpt>
      <trkpt lat="46.15814" lon="-1.15259">
        <ele>4.8</ele>
        <time>2020-06-02T08:40:18Z</time>
      </trkpt>
      <trkpt lat="46.15814" lon="-1.15256">
        <ele>4.8</ele>
        <time>2020-06-02T08:40:19Z</time>
      </trkpt>
      <trkpt lat="46.15814" lon="-1.15252">
        <ele>4.8</ele>
        <time>2020-06-02T08:40:20Z</time>
      </trkpt>
      <trkpt lat="46.15814" lon="-1.1525">
        <ele>4.8</ele>
        <time>2020-06-02T08:40:21Z</time>
      </trkpt>
      <trkpt lat="46.15814" lon="-1.15248">
        <ele>4.8</ele>
        <time>2020-06-02T08:40:22Z</time>
      </trkpt>
      <trkpt lat="46.15814" lon="-1.15246">
        <ele>4.8</ele>
        <time>2020-06-02T08:40:23Z</time>
      </trkpt>
      <trkpt lat="46.15815" lon="-1.15245">
        <ele>4.8</ele>
        <time>2020-06-02T08:40:24Z</time>
      </trkpt>
      <trkpt lat="46.15816" lon="-1.15246">
        <ele>4.8</ele>
        <time>2020-06-02T08:40:25Z</time>
      </trkpt>
      <trkpt lat="46.15816" lon="-1.15247">
        <ele>4.8</ele>
        <time>2020-06-02T08:40:26Z</time>
      </trkpt>
      <trkpt lat="46.15818" lon="-1.1525">
        <ele>4.8</ele>
        <time>2020-06-02T08:40:27Z</time>
      </trkpt>
      <trkpt lat="46.15819" lon="-1.15249">
        <ele>4.8</ele>
        <time>2020-06-02T08:40:28Z</time>
      </trkpt>
      <trkpt lat="46.15818" lon="-1.15248">
        <ele>4.8</ele>
        <time>2020-06-02T08:40:29Z</time>
      </trkpt>
      <trkpt lat="46.15817" lon="-1.15248">
        <ele>4.8</ele>
        <time>2020-06-02T08:40:30Z</time>
      </trkpt>
      <trkpt lat="46.15816" lon="-1.15247">
        <ele>4.8</ele>
        <time>2020-06-02T08:40:31Z</time>
      </trkpt>
      <trkpt lat="46.15815" lon="-1.15247">
        <ele>4.8</ele>
        <time>2020-06-02T08:40:32Z</time>
      </trkpt>
      <trkpt lat="46.15815" lon="-1.15247">
        <ele>4.8</ele>
        <time>2020-06-02T08:40:33Z</time>
      </trkpt>
      <trkpt lat="46.15816" lon="-1.15248">
        <ele>4.8</ele>
        <time>2020-06-02T08:40:34Z</time>
      </trkpt>
      <trkpt lat="46.15816" lon="-1.15245">
        <ele>4.8</ele>
        <time>2020-06-02T08:40:35Z</time>
      </trkpt>
      <trkpt lat="46.15817" lon="-1.15245">
        <ele>4.8</ele>
        <time>2020-06-02T08:40:36Z</time>
      </trkpt>
      <trkpt lat="46.15818" lon="-1.15244">
        <ele>4.8</ele>
        <time>2020-06-02T08:40:37Z</time>
      </trkpt>
      <trkpt lat="46.15819" lon="-1.15244">
        <ele>4.8</ele>
        <time>2020-06-02T08:40:38Z</time>
      </trkpt>
      <trkpt lat="46.15819" lon="-1.15245">
        <ele>4.8</ele>
        <time>2020-06-02T08:40:39Z</time>
      </trkpt>
      <trkpt lat="46.1582" lon="-1.15245">
        <ele>4.8</ele>
        <time>2020-06-02T08:40:40Z</time>
      </trkpt>
      <trkpt lat="46.1582" lon="-1.15244">
        <ele>4.8</ele>
        <time>2020-06-02T08:40:41Z</time>
      </trkpt>
      <trkpt lat="46.15821" lon="-1.15243">
        <ele>4.8</ele>
        <time>2020-06-02T08:40:42Z</time>
      </trkpt>
      <trkpt lat="46.15821" lon="-1.15243">
        <ele>4.8</ele>
        <time>2020-06-02T08:40:43Z</time>
      </trkpt>
      <trkpt lat="46.1582" lon="-1.15244">
        <ele>4.8</ele>
        <time>2020-06-02T08:40:44Z</time>
      </trkpt>
      <trkpt lat="46.15821" lon="-1.15245">
        <ele>4.8</ele>
        <time>2020-06-02T08:40:45Z</time>
      </trkpt>
      <trkpt lat="46.15821" lon="-1.15245">
        <ele>4.7</ele>
        <time>2020-06-02T08:40:46Z</time>
      </trkpt>
      <trkpt lat="46.15821" lon="-1.15245">
        <ele>4.7</ele>
        <time>2020-06-02T08:40:47Z</time>
      </trkpt>
      <trkpt lat="46.15821" lon="-1.15245">
        <ele>4.7</ele>
        <time>2020-06-02T08:40:48Z</time>
      </trkpt>
      <trkpt lat="46.1582" lon="-1.15245">
        <ele>4.7</ele>
        <time>2020-06-02T08:40:49Z</time>
      </trkpt>
      <trkpt lat="46.15821" lon="-1.15245">
        <ele>4.7</ele>
        <time>2020-06-02T08:40:50Z</time>
      </trkpt>
      <trkpt lat="46.15821" lon="-1.15245">
        <ele>4.7</ele>
        <time>2020-06-02T08:40:51Z</time>
      </trkpt>
      <trkpt lat="46.1582" lon="-1.15245">
        <ele>4.7</ele>
        <time>2020-06-02T08:40:52Z</time>
      </trkpt>
      <trkpt lat="46.1582" lon="-1.15245">
        <ele>4.7</ele>
        <time>2020-06-02T08:40:53Z</time>
      </trkpt>
      <trkpt lat="46.1582" lon="-1.15245">
        <ele>4.7</ele>
        <time>2020-06-02T08:40:54Z</time>
      </trkpt>
      <trkpt lat="46.1582" lon="-1.15245">
        <ele>4.7</ele>
        <time>2020-06-02T08:40:55Z</time>
      </trkpt>
      <trkpt lat="46.15821" lon="-1.15246">
        <ele>4.7</ele>
        <time>2020-06-02T08:40:56Z</time>
      </trkpt>
      <trkpt lat="46.1582" lon="-1.15247">
        <ele>4.7</ele>
        <time>2020-06-02T08:40:57Z</time>
      </trkpt>
      <trkpt lat="46.15821" lon="-1.15246">
        <ele>4.7</ele>
        <time>2020-06-02T08:40:58Z</time>
      </trkpt>
      <trkpt lat="46.15821" lon="-1.15244">
        <ele>4.7</ele>
        <time>2020-06-02T08:40:59Z</time>
      </trkpt>
      <trkpt lat="46.15822" lon="-1.15243">
        <ele>4.7</ele>
        <time>2020-06-02T08:41:00Z</time>
      </trkpt>
      <trkpt lat="46.15822" lon="-1.1524">
        <ele>4.7</ele>
        <time>2020-06-02T08:41:01Z</time>
      </trkpt>
      <trkpt lat="46.15821" lon="-1.15239">
        <ele>4.7</ele>
        <time>2020-06-02T08:41:02Z</time>
      </trkpt>
      <trkpt lat="46.15821" lon="-1.15238">
        <ele>4.7</ele>
        <time>2020-06-02T08:41:03Z</time>
      </trkpt>
      <trkpt lat="46.1582" lon="-1.15233">
        <ele>4.7</ele>
        <time>2020-06-02T08:41:04Z</time>
      </trkpt>
      <trkpt lat="46.1582" lon="-1.15231">
        <ele>4.7</ele>
        <time>2020-06-02T08:41:05Z</time>
      </trkpt>
      <trkpt lat="46.1582" lon="-1.1523">
        <ele>4.7</ele>
        <time>2020-06-02T08:41:06Z</time>
      </trkpt>
      <trkpt lat="46.1582" lon="-1.1523">
        <ele>4.7</ele>
        <time>2020-06-02T08:41:07Z</time>
      </trkpt>
      <trkpt lat="46.1582" lon="-1.15229">
        <ele>4.7</ele>
        <time>2020-06-02T08:41:08Z</time>
      </trkpt>
      <trkpt lat="46.1582" lon="-1.15228">
        <ele>4.7</ele>
        <time>2020-06-02T08:41:09Z</time>
      </trkpt>
      <trkpt lat="46.1582" lon="-1.15227">
        <ele>4.7</ele>
        <time>2020-06-02T08:41:10Z</time>
      </trkpt>
      <trkpt lat="46.15821" lon="-1.15226">
        <ele>4.7</ele>
        <time>2020-06-02T08:41:11Z</time>
      </trkpt>
      <trkpt lat="46.15822" lon="-1.15225">
        <ele>4.7</ele>
        <time>2020-06-02T08:41:12Z</time>
      </trkpt>
      <trkpt lat="46.15821" lon="-1.15226">
        <ele>4.7</ele>
        <time>2020-06-02T08:41:13Z</time>
      </trkpt>
      <trkpt lat="46.15821" lon="-1.15225">
        <ele>4.7</ele>
        <time>2020-06-02T08:41:14Z</time>
      </trkpt>
      <trkpt lat="46.1582" lon="-1.15226">
        <ele>4.7</ele>
        <time>2020-06-02T08:41:15Z</time>
      </trkpt>
      <trkpt lat="46.1582" lon="-1.15225">
        <ele>4.7</ele>
        <time>2020-06-02T08:41:16Z</time>
      </trkpt>
      <trkpt lat="46.1582" lon="-1.15225">
        <ele>4.7</ele>
        <time>2020-06-02T08:41:17Z</time>
      </trkpt>
      <trkpt lat="46.1582" lon="-1.15225">
        <ele>4.7</ele>
        <time>2020-06-02T08:41:18Z</time>
      </trkpt>
      <trkpt lat="46.1582" lon="-1.15225">
        <ele>4.7</ele>
        <time>2020-06-02T08:41:19Z</time>
      </trkpt>
      <trkpt lat="46.1582" lon="-1.15224">
        <ele>4.7</ele>
        <time>2020-06-02T08:41:20Z</time>
      </trkpt>
      <trkpt lat="46.15819" lon="-1.15223">
        <ele>4.7</ele>
        <time>2020-06-02T08:41:21Z</time>
      </trkpt>
      <trkpt lat="46.15819" lon="-1.15219">
        <ele>4.7</ele>
        <time>2020-06-02T08:41:22Z</time>
      </trkpt>
      <trkpt lat="46.15819" lon="-1.15218">
        <ele>4.7</ele>
        <time>2020-06-02T08:41:23Z</time>
      </trkpt>
      <trkpt lat="46.15818" lon="-1.15216">
        <ele>4.7</ele>
        <time>2020-06-02T08:41:24Z</time>
      </trkpt>
      <trkpt lat="46.15818" lon="-1.15217">
        <ele>4.7</ele>
        <time>2020-06-02T08:41:25Z</time>
      </trkpt>
      <trkpt lat="46.15817" lon="-1.15216">
        <ele>4.7</ele>
        <time>2020-06-02T08:41:26Z</time>
      </trkpt>
      <trkpt lat="46.15817" lon="-1.15215">
        <ele>4.7</ele>
        <time>2020-06-02T08:41:27Z</time>
      </trkpt>
      <trkpt lat="46.15818" lon="-1.15213">
        <ele>4.7</ele>
        <time>2020-06-02T08:41:28Z</time>
      </trkpt>
      <trkpt lat="46.15819" lon="-1.15212">
        <ele>4.7</ele>
        <time>2020-06-02T08:41:29Z</time>
      </trkpt>
      <trkpt lat="46.15819" lon="-1.15212">
        <ele>4.7</ele>
        <time>2020-06-02T08:41:30Z</time>
      </trkpt>
      <trkpt lat="46.15819" lon="-1.15212">
        <ele>4.7</ele>
        <time>2020-06-02T08:41:31Z</time>
      </trkpt>
      <trkpt lat="46.15819" lon="-1.15212">
        <ele>4.7</ele>
        <time>2020-06-02T08:41:32Z</time>
      </trkpt>
      <trkpt lat="46.15819" lon="-1.15212">
        <ele>4.7</ele>
        <time>2020-06-02T08:41:33Z</time>
      </trkpt>
      <trkpt lat="46.15819" lon="-1.15212">
        <ele>4.7</ele>
        <time>2020-06-02T08:41:34Z</time>
      </trkpt>
      <trkpt lat="46.15819" lon="-1.15212">
        <ele>4.7</ele>
        <time>2020-06-02T08:41:35Z</time>
      </trkpt>
      <trkpt lat="46.15819" lon="-1.15212">
        <ele>4.7</ele>
        <time>2020-06-02T08:41:36Z</time>
      </trkpt>
      <trkpt lat="46.15819" lon="-1.15212">
        <ele>4.7</ele>
        <time>2020-06-02T08:41:37Z</time>
      </trkpt>
      <trkpt lat="46.15819" lon="-1.15212">
        <ele>4.7</ele>
        <time>2020-06-02T08:41:38Z</time>
      </trkpt>
      <trkpt lat="46.15819" lon="-1.15212">
        <ele>4.7</ele>
        <time>2020-06-02T08:41:39Z</time>
      </trkpt>
      <trkpt lat="46.15819" lon="-1.15212">
        <ele>4.7</ele>
        <time>2020-06-02T08:41:40Z</time>
      </trkpt>
      <trkpt lat="46.15819" lon="-1.15212">
        <ele>4.7</ele>
        <time>2020-06-02T08:41:41Z</time>
      </trkpt>
      <trkpt lat="46.15819" lon="-1.15212">
        <ele>4.7</ele>
        <time>2020-06-02T08:41:42Z</time>
      </trkpt>
      <trkpt lat="46.15819" lon="-1.15211">
        <ele>4.7</ele>
        <time>2020-06-02T08:41:43Z</time>
      </trkpt>
      <trkpt lat="46.15819" lon="-1.15211">
        <ele>4.7</ele>
        <time>2020-06-02T08:41:44Z</time>
      </trkpt>
      <trkpt lat="46.15819" lon="-1.15211">
        <ele>4.7</ele>
        <time>2020-06-02T08:41:45Z</time>
      </trkpt>
      <trkpt lat="46.15819" lon="-1.15211">
        <ele>4.7</ele>
        <time>2020-06-02T08:41:46Z</time>
      </trkpt>
      <trkpt lat="46.15819" lon="-1.15211">
        <ele>4.7</ele>
        <time>2020-06-02T08:41:47Z</time>
      </trkpt>
      <trkpt lat="46.15819" lon="-1.15211">
        <ele>4.7</ele>
        <time>2020-06-02T08:41:48Z</time>
      </trkpt>
      <trkpt lat="46.15819" lon="-1.15211">
        <ele>4.7</ele>
        <time>2020-06-02T08:41:49Z</time>
      </trkpt>
      <trkpt lat="46.15819" lon="-1.15211">
        <ele>4.7</ele>
        <time>2020-06-02T08:41:50Z</time>
      </trkpt>
      <trkpt lat="46.15819" lon="-1.15211">
        <ele>4.7</ele>
        <time>2020-06-02T08:41:51Z</time>
      </trkpt>
      <trkpt lat="46.15819" lon="-1.15211">
        <ele>4.7</ele>
        <time>2020-06-02T08:41:52Z</time>
      </trkpt>
      <trkpt lat="46.15819" lon="-1.15211">
        <ele>4.7</ele>
        <time>2020-06-02T08:41:53Z</time>
      </trkpt>
      <trkpt lat="46.15819" lon="-1.15211">
        <ele>4.7</ele>
        <time>2020-06-02T08:41:54Z</time>
      </trkpt>
      <trkpt lat="46.15819" lon="-1.15211">
        <ele>4.7</ele>
        <time>2020-06-02T08:41:55Z</time>
      </trkpt>
      <trkpt lat="46.15819" lon="-1.15211">
        <ele>4.7</ele>
        <time>2020-06-02T08:41:56Z</time>
      </trkpt>
      <trkpt lat="46.15819" lon="-1.15211">
        <ele>4.7</ele>
        <time>2020-06-02T08:41:57Z</time>
      </trkpt>
      <trkpt lat="46.15819" lon="-1.15211">
        <ele>4.7</ele>
        <time>2020-06-02T08:41:58Z</time>
      </trkpt>
      <trkpt lat="46.15819" lon="-1.15211">
        <ele>4.7</ele>
        <time>2020-06-02T08:41:59Z</time>
      </trkpt>
      <trkpt lat="46.15819" lon="-1.15211">
        <ele>4.7</ele>
        <time>2020-06-02T08:42:00Z</time>
      </trkpt>
      <trkpt lat="46.15819" lon="-1.15211">
        <ele>4.7</ele>
        <time>2020-06-02T08:42:01Z</time>
      </trkpt>
      <trkpt lat="46.15819" lon="-1.15211">
        <ele>4.7</ele>
        <time>2020-06-02T08:42:02Z</time>
      </trkpt>
      <trkpt lat="46.15819" lon="-1.15211">
        <ele>4.7</ele>
        <time>2020-06-02T08:42:03Z</time>
      </trkpt>
      <trkpt lat="46.15819" lon="-1.15211">
        <ele>4.7</ele>
        <time>2020-06-02T08:42:04Z</time>
      </trkpt>
      <trkpt lat="46.15818" lon="-1.15211">
        <ele>4.7</ele>
        <time>2020-06-02T08:42:05Z</time>
      </trkpt>
      <trkpt lat="46.15818" lon="-1.15211">
        <ele>4.7</ele>
        <time>2020-06-02T08:42:06Z</time>
      </trkpt>
      <trkpt lat="46.15818" lon="-1.15211">
        <ele>4.7</ele>
        <time>2020-06-02T08:42:07Z</time>
      </trkpt>
      <trkpt lat="46.15818" lon="-1.15211">
        <ele>4.7</ele>
        <time>2020-06-02T08:42:08Z</time>
      </trkpt>
      <trkpt lat="46.15818" lon="-1.15211">
        <ele>4.7</ele>
        <time>2020-06-02T08:42:09Z</time>
      </trkpt>
      <trkpt lat="46.15818" lon="-1.1521">
        <ele>4.7</ele>
        <time>2020-06-02T08:42:10Z</time>
      </trkpt>
      <trkpt lat="46.15818" lon="-1.1521">
        <ele>4.7</ele>
        <time>2020-06-02T08:42:11Z</time>
      </trkpt>
      <trkpt lat="46.15818" lon="-1.1521">
        <ele>4.7</ele>
        <time>2020-06-02T08:42:12Z</time>
      </trkpt>
      <trkpt lat="46.15818" lon="-1.1521">
        <ele>4.7</ele>
        <time>2020-06-02T08:42:13Z</time>
      </trkpt>
      <trkpt lat="46.15818" lon="-1.1521">
        <ele>4.7</ele>
        <time>2020-06-02T08:42:14Z</time>
      </trkpt>
      <trkpt lat="46.15818" lon="-1.1521">
        <ele>4.7</ele>
        <time>2020-06-02T08:42:15Z</time>
      </trkpt>
      <trkpt lat="46.15818" lon="-1.1521">
        <ele>4.7</ele>
        <time>2020-06-02T08:42:16Z</time>
      </trkpt>
      <trkpt lat="46.15818" lon="-1.1521">
        <ele>4.7</ele>
        <time>2020-06-02T08:42:17Z</time>
      </trkpt>
      <trkpt lat="46.15818" lon="-1.1521">
        <ele>4.7</ele>
        <time>2020-06-02T08:42:18Z</time>
      </trkpt>
      <trkpt lat="46.15818" lon="-1.1521">
        <ele>4.7</ele>
        <time>2020-06-02T08:42:19Z</time>
      </trkpt>
      <trkpt lat="46.15818" lon="-1.1521">
        <ele>4.7</ele>
        <time>2020-06-02T08:42:20Z</time>
      </trkpt>
      <trkpt lat="46.15818" lon="-1.1521">
        <ele>4.7</ele>
        <time>2020-06-02T08:42:21Z</time>
      </trkpt>
      <trkpt lat="46.15818" lon="-1.1521">
        <ele>4.7</ele>
        <time>2020-06-02T08:42:22Z</time>
      </trkpt>
      <trkpt lat="46.15818" lon="-1.1521">
        <ele>4.7</ele>
        <time>2020-06-02T08:42:23Z</time>
      </trkpt>
      <trkpt lat="46.15818" lon="-1.1521">
        <ele>4.7</ele>
        <time>2020-06-02T08:42:24Z</time>
      </trkpt>
      <trkpt lat="46.15818" lon="-1.1521">
        <ele>4.7</ele>
        <time>2020-06-02T08:42:25Z</time>
      </trkpt>
      <trkpt lat="46.15818" lon="-1.1521">
        <ele>4.7</ele>
        <time>2020-06-02T08:42:26Z</time>
      </trkpt>
      <trkpt lat="46.15818" lon="-1.1521">
        <ele>4.7</ele>
        <time>2020-06-02T08:42:27Z</time>
      </trkpt>
      <trkpt lat="46.15818" lon="-1.1521">
        <ele>4.7</ele>
        <time>2020-06-02T08:42:28Z</time>
      </trkpt>
      <trkpt lat="46.15818" lon="-1.1521">
        <ele>4.7</ele>
        <time>2020-06-02T08:42:29Z</time>
      </trkpt>
      <trkpt lat="46.15818" lon="-1.1521">
        <ele>4.7</ele>
        <time>2020-06-02T08:42:30Z</time>
      </trkpt>
      <trkpt lat="46.15818" lon="-1.1521">
        <ele>4.7</ele>
        <time>2020-06-02T08:42:31Z</time>
      </trkpt>
      <trkpt lat="46.15818" lon="-1.1521">
        <ele>4.7</ele>
        <time>2020-06-02T08:42:32Z</time>
      </trkpt>
      <trkpt lat="46.15818" lon="-1.1521">
        <ele>4.7</ele>
        <time>2020-06-02T08:42:33Z</time>
      </trkpt>
      <trkpt lat="46.15818" lon="-1.1521">
        <ele>4.7</ele>
        <time>2020-06-02T08:42:34Z</time>
      </trkpt>
      <trkpt lat="46.15818" lon="-1.1521">
        <ele>4.7</ele>
        <time>2020-06-02T08:42:35Z</time>
      </trkpt>
      <trkpt lat="46.15818" lon="-1.1521">
        <ele>4.7</ele>
        <time>2020-06-02T08:42:36Z</time>
      </trkpt>
      <trkpt lat="46.15818" lon="-1.15209">
        <ele>4.7</ele>
        <time>2020-06-02T08:42:37Z</time>
      </trkpt>
      <trkpt lat="46.15818" lon="-1.15209">
        <ele>4.7</ele>
        <time>2020-06-02T08:42:38Z</time>
      </trkpt>
      <trkpt lat="46.15818" lon="-1.15209">
        <ele>4.7</ele>
        <time>2020-06-02T08:42:39Z</time>
      </trkpt>
      <trkpt lat="46.15818" lon="-1.15209">
        <ele>4.7</ele>
        <time>2020-06-02T08:42:40Z</time>
      </trkpt>
      <trkpt lat="46.15818" lon="-1.15209">
        <ele>4.7</ele>
        <time>2020-06-02T08:42:41Z</time>
      </trkpt>
      <trkpt lat="46.15818" lon="-1.15209">
        <ele>4.7</ele>
        <time>2020-06-02T08:42:42Z</time>
      </trkpt>
      <trkpt lat="46.15818" lon="-1.15209">
        <ele>4.7</ele>
        <time>2020-06-02T08:42:43Z</time>
      </trkpt>
      <trkpt lat="46.15818" lon="-1.15209">
        <ele>4.7</ele>
        <time>2020-06-02T08:42:44Z</time>
      </trkpt>
      <trkpt lat="46.15818" lon="-1.15209">
        <ele>4.7</ele>
        <time>2020-06-02T08:42:45Z</time>
      </trkpt>
      <trkpt lat="46.15818" lon="-1.15209">
        <ele>4.7</ele>
        <time>2020-06-02T08:42:46Z</time>
      </trkpt>
      <trkpt lat="46.15818" lon="-1.15209">
        <ele>4.7</ele>
        <time>2020-06-02T08:42:47Z</time>
      </trkpt>
      <trkpt lat="46.15818" lon="-1.15209">
        <ele>4.7</ele>
        <time>2020-06-02T08:42:48Z</time>
      </trkpt>
      <trkpt lat="46.15818" lon="-1.15209">
        <ele>4.7</ele>
        <time>2020-06-02T08:42:49Z</time>
      </trkpt>
      <trkpt lat="46.15818" lon="-1.15209">
        <ele>4.7</ele>
        <time>2020-06-02T08:42:50Z</time>
      </trkpt>
      <trkpt lat="46.15818" lon="-1.15209">
        <ele>4.7</ele>
        <time>2020-06-02T08:42:51Z</time>
      </trkpt>
      <trkpt lat="46.15818" lon="-1.15209">
        <ele>4.7</ele>
        <time>2020-06-02T08:42:52Z</time>
      </trkpt>
      <trkpt lat="46.15818" lon="-1.15209">
        <ele>4.7</ele>
        <time>2020-06-02T08:42:53Z</time>
      </trkpt>
      <trkpt lat="46.15818" lon="-1.15209">
        <ele>4.7</ele>
        <time>2020-06-02T08:42:54Z</time>
      </trkpt>
      <trkpt lat="46.15818" lon="-1.15209">
        <ele>4.7</ele>
        <time>2020-06-02T08:42:55Z</time>
      </trkpt>
      <trkpt lat="46.15818" lon="-1.15209">
        <ele>4.7</ele>
        <time>2020-06-02T08:42:56Z</time>
      </trkpt>
      <trkpt lat="46.15818" lon="-1.15209">
        <ele>4.7</ele>
        <time>2020-06-02T08:42:57Z</time>
      </trkpt>
      <trkpt lat="46.15818" lon="-1.15209">
        <ele>4.7</ele>
        <time>2020-06-02T08:42:58Z</time>
      </trkpt>
      <trkpt lat="46.15818" lon="-1.15209">
        <ele>4.7</ele>
        <time>2020-06-02T08:42:59Z</time>
      </trkpt>
      <trkpt lat="46.15818" lon="-1.15209">
        <ele>4.7</ele>
        <time>2020-06-02T08:43:00Z</time>
      </trkpt>
      <trkpt lat="46.15817" lon="-1.15209">
        <ele>4.7</ele>
        <time>2020-06-02T08:43:01Z</time>
      </trkpt>
      <trkpt lat="46.15817" lon="-1.15209">
        <ele>4.7</ele>
        <time>2020-06-02T08:43:02Z</time>
      </trkpt>
      <trkpt lat="46.15817" lon="-1.15208">
        <ele>4.7</ele>
        <time>2020-06-02T08:43:03Z</time>
      </trkpt>
      <trkpt lat="46.15817" lon="-1.15208">
        <ele>4.7</ele>
        <time>2020-06-02T08:43:04Z</time>
      </trkpt>
      <trkpt lat="46.15817" lon="-1.15208">
        <ele>4.7</ele>
        <time>2020-06-02T08:43:05Z</time>
      </trkpt>
      <trkpt lat="46.15817" lon="-1.15208">
        <ele>4.7</ele>
        <time>2020-06-02T08:43:06Z</time>
      </trkpt>
      <trkpt lat="46.15817" lon="-1.15208">
        <ele>4.7</ele>
        <time>2020-06-02T08:43:07Z</time>
      </trkpt>
      <trkpt lat="46.15817" lon="-1.15208">
        <ele>4.7</ele>
        <time>2020-06-02T08:43:08Z</time>
      </trkpt>
      <trkpt lat="46.15817" lon="-1.15208">
        <ele>4.7</ele>
        <time>2020-06-02T08:43:09Z</time>
      </trkpt>
      <trkpt lat="46.15817" lon="-1.15208">
        <ele>4.7</ele>
        <time>2020-06-02T08:43:10Z</time>
      </trkpt>
      <trkpt lat="46.15817" lon="-1.15208">
        <ele>4.7</ele>
        <time>2020-06-02T08:43:11Z</time>
      </trkpt>
      <trkpt lat="46.15817" lon="-1.15208">
        <ele>4.7</ele>
        <time>2020-06-02T08:43:12Z</time>
      </trkpt>
      <trkpt lat="46.15817" lon="-1.15208">
        <ele>4.7</ele>
        <time>2020-06-02T08:43:13Z</time>
      </trkpt>
      <trkpt lat="46.15817" lon="-1.15208">
        <ele>4.7</ele>
        <time>2020-06-02T08:43:14Z</time>
      </trkpt>
      <trkpt lat="46.15817" lon="-1.15208">
        <ele>4.7</ele>
        <time>2020-06-02T08:43:15Z</time>
      </trkpt>
      <trkpt lat="46.15817" lon="-1.15208">
        <ele>4.7</ele>
        <time>2020-06-02T08:43:16Z</time>
      </trkpt>
      <trkpt lat="46.15817" lon="-1.15208">
        <ele>4.7</ele>
        <time>2020-06-02T08:43:17Z</time>
      </trkpt>
      <trkpt lat="46.15817" lon="-1.15208">
        <ele>4.7</ele>
        <time>2020-06-02T08:43:18Z</time>
      </trkpt>
      <trkpt lat="46.15817" lon="-1.15208">
        <ele>4.7</ele>
        <time>2020-06-02T08:43:19Z</time>
      </trkpt>
      <trkpt lat="46.15817" lon="-1.15208">
        <ele>4.7</ele>
        <time>2020-06-02T08:43:20Z</time>
      </trkpt>
      <trkpt lat="46.15817" lon="-1.15207">
        <ele>4.7</ele>
        <time>2020-06-02T08:43:21Z</time>
      </trkpt>
      <trkpt lat="46.15817" lon="-1.15207">
        <ele>4.7</ele>
        <time>2020-06-02T08:43:22Z</time>
      </trkpt>
      <trkpt lat="46.15818" lon="-1.15206">
        <ele>4.7</ele>
        <time>2020-06-02T08:43:23Z</time>
      </trkpt>
      <trkpt lat="46.1582" lon="-1.15206">
        <ele>4.7</ele>
        <time>2020-06-02T08:43:24Z</time>
      </trkpt>
      <trkpt lat="46.15821" lon="-1.15207">
        <ele>4.7</ele>
        <time>2020-06-02T08:43:25Z</time>
      </trkpt>
      <trkpt lat="46.15822" lon="-1.15207">
        <ele>4.7</ele>
        <time>2020-06-02T08:43:26Z</time>
      </trkpt>
      <trkpt lat="46.15824" lon="-1.15206">
        <ele>4.6</ele>
        <time>2020-06-02T08:43:27Z</time>
      </trkpt>
      <trkpt lat="46.15824" lon="-1.15206">
        <ele>4.6</ele>
        <time>2020-06-02T08:43:28Z</time>
      </trkpt>
      <trkpt lat="46.15824" lon="-1.15204">
        <ele>4.6</ele>
        <time>2020-06-02T08:43:29Z</time>
      </trkpt>
      <trkpt lat="46.15824" lon="-1.15204">
        <ele>4.6</ele>
        <time>2020-06-02T08:43:30Z</time>
      </trkpt>
      <trkpt lat="46.15825" lon="-1.15205">
        <ele>4.6</ele>
        <time>2020-06-02T08:43:31Z</time>
      </trkpt>
      <trkpt lat="46.15825" lon="-1.15205">
        <ele>4.6</ele>
        <time>2020-06-02T08:43:32Z</time>
      </trkpt>
      <trkpt lat="46.15825" lon="-1.15205">
        <ele>4.6</ele>
        <time>2020-06-02T08:43:33Z</time>
      </trkpt>
      <trkpt lat="46.15825" lon="-1.15206">
        <ele>4.6</ele>
        <time>2020-06-02T08:43:34Z</time>
      </trkpt>
      <trkpt lat="46.15825" lon="-1.15206">
        <ele>4.6</ele>
        <time>2020-06-02T08:43:35Z</time>
      </trkpt>
      <trkpt lat="46.15826" lon="-1.15206">
        <ele>4.6</ele>
        <time>2020-06-02T08:43:36Z</time>
      </trkpt>
      <trkpt lat="46.15826" lon="-1.15206">
        <ele>4.6</ele>
        <time>2020-06-02T08:43:37Z</time>
      </trkpt>
      <trkpt lat="46.15826" lon="-1.15206">
        <ele>4.6</ele>
        <time>2020-06-02T08:43:38Z</time>
      </trkpt>
      <trkpt lat="46.15825" lon="-1.15207">
        <ele>4.6</ele>
        <time>2020-06-02T08:43:39Z</time>
      </trkpt>
      <trkpt lat="46.15825" lon="-1.15207">
        <ele>4.6</ele>
        <time>2020-06-02T08:43:40Z</time>
      </trkpt>
      <trkpt lat="46.15825" lon="-1.15207">
        <ele>4.6</ele>
        <time>2020-06-02T08:43:41Z</time>
      </trkpt>
      <trkpt lat="46.15825" lon="-1.15207">
        <ele>4.6</ele>
        <time>2020-06-02T08:43:42Z</time>
      </trkpt>
      <trkpt lat="46.15825" lon="-1.15207">
        <ele>4.6</ele>
        <time>2020-06-02T08:43:43Z</time>
      </trkpt>
      <trkpt lat="46.15826" lon="-1.15207">
        <ele>4.6</ele>
        <time>2020-06-02T08:43:44Z</time>
      </trkpt>
      <trkpt lat="46.15826" lon="-1.15206">
        <ele>4.6</ele>
        <time>2020-06-02T08:43:45Z</time>
      </trkpt>
      <trkpt lat="46.15826" lon="-1.15207">
        <ele>4.6</ele>
        <time>2020-06-02T08:43:46Z</time>
      </trkpt>
      <trkpt lat="46.15825" lon="-1.15207">
        <ele>4.6</ele>
        <time>2020-06-02T08:43:47Z</time>
      </trkpt>
      <trkpt lat="46.15826" lon="-1.15207">
        <ele>4.6</ele>
        <time>2020-06-02T08:43:48Z</time>
      </trkpt>
      <trkpt lat="46.15826" lon="-1.15207">
        <ele>4.6</ele>
        <time>2020-06-02T08:43:49Z</time>
      </trkpt>
      <trkpt lat="46.15826" lon="-1.15207">
        <ele>4.6</ele>
        <time>2020-06-02T08:43:50Z</time>
      </trkpt>
      <trkpt lat="46.15826" lon="-1.15207">
        <ele>4.6</ele>
        <time>2020-06-02T08:43:51Z</time>
      </trkpt>
      <trkpt lat="46.15826" lon="-1.15207">
        <ele>4.6</ele>
        <time>2020-06-02T08:43:52Z</time>
      </trkpt>
      <trkpt lat="46.15826" lon="-1.15207">
        <ele>4.6</ele>
        <time>2020-06-02T08:43:53Z</time>
      </trkpt>
      <trkpt lat="46.15827" lon="-1.15208">
        <ele>4.6</ele>
        <time>2020-06-02T08:43:54Z</time>
      </trkpt>
      <trkpt lat="46.15827" lon="-1.15207">
        <ele>4.6</ele>
        <time>2020-06-02T08:43:55Z</time>
      </trkpt>
      <trkpt lat="46.15826" lon="-1.15208">
        <ele>4.6</ele>
        <time>2020-06-02T08:43:56Z</time>
      </trkpt>
      <trkpt lat="46.15826" lon="-1.15208">
        <ele>4.6</ele>
        <time>2020-06-02T08:43:57Z</time>
      </trkpt>
      <trkpt lat="46.15826" lon="-1.15208">
        <ele>4.6</ele>
        <time>2020-06-02T08:43:58Z</time>
      </trkpt>
      <trkpt lat="46.15826" lon="-1.15209">
        <ele>4.6</ele>
        <time>2020-06-02T08:43:59Z</time>
      </trkpt>
      <trkpt lat="46.15826" lon="-1.15209">
        <ele>4.6</ele>
        <time>2020-06-02T08:44:00Z</time>
      </trkpt>
      <trkpt lat="46.15826" lon="-1.15209">
        <ele>4.6</ele>
        <time>2020-06-02T08:44:01Z</time>
      </trkpt>
      <trkpt lat="46.15826" lon="-1.15209">
        <ele>4.6</ele>
        <time>2020-06-02T08:44:02Z</time>
      </trkpt>
      <trkpt lat="46.15826" lon="-1.15209">
        <ele>4.6</ele>
        <time>2020-06-02T08:44:03Z</time>
      </trkpt>
      <trkpt lat="46.15826" lon="-1.1521">
        <ele>4.6</ele>
        <time>2020-06-02T08:44:04Z</time>
      </trkpt>
      <trkpt lat="46.15825" lon="-1.15209">
        <ele>4.6</ele>
        <time>2020-06-02T08:44:05Z</time>
      </trkpt>
      <trkpt lat="46.15825" lon="-1.15209">
        <ele>4.6</ele>
        <time>2020-06-02T08:44:06Z</time>
      </trkpt>
      <trkpt lat="46.15825" lon="-1.15209">
        <ele>4.6</ele>
        <time>2020-06-02T08:44:07Z</time>
      </trkpt>
      <trkpt lat="46.15825" lon="-1.15209">
        <ele>4.6</ele>
        <time>2020-06-02T08:44:08Z</time>
      </trkpt>
      <trkpt lat="46.15825" lon="-1.15209">
        <ele>4.6</ele>
        <time>2020-06-02T08:44:09Z</time>
      </trkpt>
      <trkpt lat="46.15824" lon="-1.15209">
        <ele>4.6</ele>
        <time>2020-06-02T08:44:10Z</time>
      </trkpt>
      <trkpt lat="46.15824" lon="-1.15209">
        <ele>4.6</ele>
        <time>2020-06-02T08:44:11Z</time>
      </trkpt>
      <trkpt lat="46.15824" lon="-1.15209">
        <ele>4.6</ele>
        <time>2020-06-02T08:44:12Z</time>
      </trkpt>
      <trkpt lat="46.15824" lon="-1.15209">
        <ele>4.6</ele>
        <time>2020-06-02T08:44:13Z</time>
      </trkpt>
      <trkpt lat="46.15824" lon="-1.15209">
        <ele>4.6</ele>
        <time>2020-06-02T08:44:14Z</time>
      </trkpt>
      <trkpt lat="46.15824" lon="-1.15209">
        <ele>4.6</ele>
        <time>2020-06-02T08:44:15Z</time>
      </trkpt>
      <trkpt lat="46.15824" lon="-1.15209">
        <ele>4.6</ele>
        <time>2020-06-02T08:44:16Z</time>
      </trkpt>
      <trkpt lat="46.15824" lon="-1.15209">
        <ele>4.6</ele>
        <time>2020-06-02T08:44:17Z</time>
      </trkpt>
      <trkpt lat="46.15824" lon="-1.15209">
        <ele>4.6</ele>
        <time>2020-06-02T08:44:18Z</time>
      </trkpt>
      <trkpt lat="46.15824" lon="-1.15209">
        <ele>4.6</ele>
        <time>2020-06-02T08:44:19Z</time>
      </trkpt>
      <trkpt lat="46.15824" lon="-1.15209">
        <ele>4.6</ele>
        <time>2020-06-02T08:44:20Z</time>
      </trkpt>
      <trkpt lat="46.15824" lon="-1.15209">
        <ele>4.6</ele>
        <time>2020-06-02T08:44:21Z</time>
      </trkpt>
      <trkpt lat="46.15824" lon="-1.15209">
        <ele>4.6</ele>
        <time>2020-06-02T08:44:22Z</time>
      </trkpt>
      <trkpt lat="46.15824" lon="-1.15209">
        <ele>4.6</ele>
        <time>2020-06-02T08:44:23Z</time>
      </trkpt>
      <trkpt lat="46.15824" lon="-1.15209">
        <ele>4.6</ele>
        <time>2020-06-02T08:44:24Z</time>
      </trkpt>
      <trkpt lat="46.15824" lon="-1.15209">
        <ele>4.6</ele>
        <time>2020-06-02T08:44:25Z</time>
      </trkpt>
      <trkpt lat="46.15824" lon="-1.15209">
        <ele>4.6</ele>
        <time>2020-06-02T08:44:26Z</time>
      </trkpt>
      <trkpt lat="46.15824" lon="-1.15209">
        <ele>4.6</ele>
        <time>2020-06-02T08:44:27Z</time>
      </trkpt>
      <trkpt lat="46.15823" lon="-1.15209">
        <ele>4.6</ele>
        <time>2020-06-02T08:44:28Z</time>
      </trkpt>
      <trkpt lat="46.15824" lon="-1.15208">
        <ele>4.6</ele>
        <time>2020-06-02T08:44:29Z</time>
      </trkpt>
      <trkpt lat="46.15823" lon="-1.15208">
        <ele>4.6</ele>
        <time>2020-06-02T08:44:30Z</time>
      </trkpt>
      <trkpt lat="46.15823" lon="-1.15208">
        <ele>4.6</ele>
        <time>2020-06-02T08:44:31Z</time>
      </trkpt>
      <trkpt lat="46.15823" lon="-1.15208">
        <ele>4.6</ele>
        <time>2020-06-02T08:44:32Z</time>
      </trkpt>
      <trkpt lat="46.15824" lon="-1.15208">
        <ele>4.6</ele>
        <time>2020-06-02T08:44:33Z</time>
      </trkpt>
      <trkpt lat="46.15823" lon="-1.15208">
        <ele>4.6</ele>
        <time>2020-06-02T08:44:34Z</time>
      </trkpt>
      <trkpt lat="46.15823" lon="-1.15207">
        <ele>4.6</ele>
        <time>2020-06-02T08:44:35Z</time>
      </trkpt>
      <trkpt lat="46.15823" lon="-1.15207">
        <ele>4.6</ele>
        <time>2020-06-02T08:44:36Z</time>
      </trkpt>
      <trkpt lat="46.15823" lon="-1.15207">
        <ele>4.6</ele>
        <time>2020-06-02T08:44:37Z</time>
      </trkpt>
      <trkpt lat="46.15823" lon="-1.15207">
        <ele>4.6</ele>
        <time>2020-06-02T08:44:38Z</time>
      </trkpt>
      <trkpt lat="46.15823" lon="-1.15206">
        <ele>4.6</ele>
        <time>2020-06-02T08:44:39Z</time>
      </trkpt>
      <trkpt lat="46.15823" lon="-1.15206">
        <ele>4.6</ele>
        <time>2020-06-02T08:44:40Z</time>
      </trkpt>
      <trkpt lat="46.15823" lon="-1.15206">
        <ele>4.6</ele>
        <time>2020-06-02T08:44:41Z</time>
      </trkpt>
      <trkpt lat="46.15823" lon="-1.15206">
        <ele>4.6</ele>
        <time>2020-06-02T08:44:42Z</time>
      </trkpt>
      <trkpt lat="46.15823" lon="-1.15206">
        <ele>4.6</ele>
        <time>2020-06-02T08:44:43Z</time>
      </trkpt>
      <trkpt lat="46.15822" lon="-1.15206">
        <ele>4.6</ele>
        <time>2020-06-02T08:44:44Z</time>
      </trkpt>
      <trkpt lat="46.15822" lon="-1.15206">
        <ele>4.6</ele>
        <time>2020-06-02T08:44:45Z</time>
      </trkpt>
      <trkpt lat="46.15822" lon="-1.15205">
        <ele>4.6</ele>
        <time>2020-06-02T08:44:46Z</time>
      </trkpt>
      <trkpt lat="46.15822" lon="-1.15206">
        <ele>4.6</ele>
        <time>2020-06-02T08:44:47Z</time>
      </trkpt>
      <trkpt lat="46.15822" lon="-1.15206">
        <ele>4.6</ele>
        <time>2020-06-02T08:44:48Z</time>
      </trkpt>
      <trkpt lat="46.15822" lon="-1.15206">
        <ele>4.6</ele>
        <time>2020-06-02T08:44:49Z</time>
      </trkpt>
      <trkpt lat="46.15822" lon="-1.15206">
        <ele>4.6</ele>
        <time>2020-06-02T08:44:50Z</time>
      </trkpt>
      <trkpt lat="46.15822" lon="-1.15206">
        <ele>4.6</ele>
        <time>2020-06-02T08:44:51Z</time>
      </trkpt>
      <trkpt lat="46.15822" lon="-1.15206">
        <ele>4.6</ele>
        <time>2020-06-02T08:44:52Z</time>
      </trkpt>
      <trkpt lat="46.15822" lon="-1.15206">
        <ele>4.6</ele>
        <time>2020-06-02T08:44:53Z</time>
      </trkpt>
      <trkpt lat="46.15822" lon="-1.15206">
        <ele>4.6</ele>
        <time>2020-06-02T08:44:54Z</time>
      </trkpt>
      <trkpt lat="46.15822" lon="-1.15206">
        <ele>4.6</ele>
        <time>2020-06-02T08:44:55Z</time>
      </trkpt>
      <trkpt lat="46.15822" lon="-1.15206">
        <ele>4.6</ele>
        <time>2020-06-02T08:44:56Z</time>
      </trkpt>
      <trkpt lat="46.15822" lon="-1.15206">
        <ele>4.6</ele>
        <time>2020-06-02T08:44:57Z</time>
      </trkpt>
      <trkpt lat="46.15822" lon="-1.15206">
        <ele>4.6</ele>
        <time>2020-06-02T08:44:58Z</time>
      </trkpt>
      <trkpt lat="46.15822" lon="-1.15206">
        <ele>4.6</ele>
        <time>2020-06-02T08:44:59Z</time>
      </trkpt>
      <trkpt lat="46.15822" lon="-1.15206">
        <ele>4.6</ele>
        <time>2020-06-02T08:45:00Z</time>
      </trkpt>
      <trkpt lat="46.15822" lon="-1.15206">
        <ele>4.6</ele>
        <time>2020-06-02T08:45:01Z</time>
      </trkpt>
      <trkpt lat="46.15822" lon="-1.15206">
        <ele>4.6</ele>
        <time>2020-06-02T08:45:02Z</time>
      </trkpt>
      <trkpt lat="46.15822" lon="-1.15206">
        <ele>4.6</ele>
        <time>2020-06-02T08:45:03Z</time>
      </trkpt>
      <trkpt lat="46.15822" lon="-1.15206">
        <ele>4.6</ele>
        <time>2020-06-02T08:45:04Z</time>
      </trkpt>
      <trkpt lat="46.15822" lon="-1.15206">
        <ele>4.6</ele>
        <time>2020-06-02T08:45:05Z</time>
      </trkpt>
      <trkpt lat="46.15822" lon="-1.15206">
        <ele>4.6</ele>
        <time>2020-06-02T08:45:06Z</time>
      </trkpt>
      <trkpt lat="46.15822" lon="-1.15206">
        <ele>4.6</ele>
        <time>2020-06-02T08:45:07Z</time>
      </trkpt>
      <trkpt lat="46.15822" lon="-1.15206">
        <ele>4.6</ele>
        <time>2020-06-02T08:45:08Z</time>
      </trkpt>
      <trkpt lat="46.15822" lon="-1.15206">
        <ele>4.6</ele>
        <time>2020-06-02T08:45:09Z</time>
      </trkpt>
      <trkpt lat="46.15822" lon="-1.15206">
        <ele>4.6</ele>
        <time>2020-06-02T08:45:10Z</time>
      </trkpt>
      <trkpt lat="46.15822" lon="-1.15206">
        <ele>4.6</ele>
        <time>2020-06-02T08:45:11Z</time>
      </trkpt>
      <trkpt lat="46.15822" lon="-1.15206">
        <ele>4.6</ele>
        <time>2020-06-02T08:45:12Z</time>
      </trkpt>
      <trkpt lat="46.15822" lon="-1.15206">
        <ele>4.6</ele>
        <time>2020-06-02T08:45:13Z</time>
      </trkpt>
      <trkpt lat="46.15822" lon="-1.15206">
        <ele>4.6</ele>
        <time>2020-06-02T08:45:14Z</time>
      </trkpt>
      <trkpt lat="46.15822" lon="-1.15206">
        <ele>4.6</ele>
        <time>2020-06-02T08:45:15Z</time>
      </trkpt>
      <trkpt lat="46.15822" lon="-1.15206">
        <ele>4.6</ele>
        <time>2020-06-02T08:45:16Z</time>
      </trkpt>
      <trkpt lat="46.15822" lon="-1.15206">
        <ele>4.6</ele>
        <time>2020-06-02T08:45:17Z</time>
      </trkpt>
      <trkpt lat="46.15822" lon="-1.15206">
        <ele>4.6</ele>
        <time>2020-06-02T08:45:18Z</time>
      </trkpt>
      <trkpt lat="46.15822" lon="-1.15206">
        <ele>4.6</ele>
        <time>2020-06-02T08:45:19Z</time>
      </trkpt>
      <trkpt lat="46.15822" lon="-1.15206">
        <ele>4.6</ele>
        <time>2020-06-02T08:45:20Z</time>
      </trkpt>
      <trkpt lat="46.15822" lon="-1.15206">
        <ele>4.6</ele>
        <time>2020-06-02T08:45:21Z</time>
      </trkpt>
      <trkpt lat="46.15822" lon="-1.15206">
        <ele>4.6</ele>
        <time>2020-06-02T08:45:22Z</time>
      </trkpt>
      <trkpt lat="46.15822" lon="-1.15206">
        <ele>4.6</ele>
        <time>2020-06-02T08:45:23Z</time>
      </trkpt>
      <trkpt lat="46.15822" lon="-1.15206">
        <ele>4.6</ele>
        <time>2020-06-02T08:45:24Z</time>
      </trkpt>
      <trkpt lat="46.15822" lon="-1.15206">
        <ele>4.6</ele>
        <time>2020-06-02T08:45:25Z</time>
      </trkpt>
      <trkpt lat="46.15822" lon="-1.15206">
        <ele>4.6</ele>
        <time>2020-06-02T08:45:26Z</time>
      </trkpt>
      <trkpt lat="46.15822" lon="-1.15206">
        <ele>4.6</ele>
        <time>2020-06-02T08:45:27Z</time>
      </trkpt>
      <trkpt lat="46.15822" lon="-1.15206">
        <ele>4.6</ele>
        <time>2020-06-02T08:45:28Z</time>
      </trkpt>
      <trkpt lat="46.15822" lon="-1.15206">
        <ele>4.6</ele>
        <time>2020-06-02T08:45:29Z</time>
      </trkpt>
      <trkpt lat="46.15822" lon="-1.15206">
        <ele>4.6</ele>
        <time>2020-06-02T08:45:30Z</time>
      </trkpt>
      <trkpt lat="46.15822" lon="-1.15206">
        <ele>4.6</ele>
        <time>2020-06-02T08:45:31Z</time>
      </trkpt>
      <trkpt lat="46.15822" lon="-1.15206">
        <ele>4.6</ele>
        <time>2020-06-02T08:45:32Z</time>
      </trkpt>
      <trkpt lat="46.15822" lon="-1.15206">
        <ele>4.6</ele>
        <time>2020-06-02T08:45:33Z</time>
      </trkpt>
      <trkpt lat="46.15822" lon="-1.15206">
        <ele>4.6</ele>
        <time>2020-06-02T08:45:34Z</time>
      </trkpt>
      <trkpt lat="46.15822" lon="-1.15206">
        <ele>4.6</ele>
        <time>2020-06-02T08:45:35Z</time>
      </trkpt>
      <trkpt lat="46.15822" lon="-1.15206">
        <ele>4.6</ele>
        <time>2020-06-02T08:45:36Z</time>
      </trkpt>
      <trkpt lat="46.15822" lon="-1.15206">
        <ele>4.6</ele>
        <time>2020-06-02T08:45:37Z</time>
      </trkpt>
      <trkpt lat="46.15822" lon="-1.15206">
        <ele>4.6</ele>
        <time>2020-06-02T08:45:38Z</time>
      </trkpt>
      <trkpt lat="46.15822" lon="-1.15206">
        <ele>4.6</ele>
        <time>2020-06-02T08:45:39Z</time>
      </trkpt>
      <trkpt lat="46.15824" lon="-1.15206">
        <ele>4.6</ele>
        <time>2020-06-02T08:45:40Z</time>
      </trkpt>
      <trkpt lat="46.15824" lon="-1.15206">
        <ele>4.6</ele>
        <time>2020-06-02T08:45:41Z</time>
      </trkpt>
      <trkpt lat="46.15824" lon="-1.15206">
        <ele>4.6</ele>
        <time>2020-06-02T08:45:42Z</time>
      </trkpt>
      <trkpt lat="46.15824" lon="-1.15206">
        <ele>4.6</ele>
        <time>2020-06-02T08:45:43Z</time>
      </trkpt>
      <trkpt lat="46.15824" lon="-1.15206">
        <ele>4.6</ele>
        <time>2020-06-02T08:45:44Z</time>
      </trkpt>
      <trkpt lat="46.15824" lon="-1.15206">
        <ele>4.6</ele>
        <time>2020-06-02T08:45:45Z</time>
      </trkpt>
      <trkpt lat="46.15825" lon="-1.15206">
        <ele>4.6</ele>
        <time>2020-06-02T08:45:46Z</time>
      </trkpt>
      <trkpt lat="46.15825" lon="-1.15206">
        <ele>4.6</ele>
        <time>2020-06-02T08:45:47Z</time>
      </trkpt>
      <trkpt lat="46.15825" lon="-1.15206">
        <ele>4.6</ele>
        <time>2020-06-02T08:45:48Z</time>
      </trkpt>
      <trkpt lat="46.15825" lon="-1.15206">
        <ele>4.6</ele>
        <time>2020-06-02T08:45:49Z</time>
      </trkpt>
      <trkpt lat="46.15825" lon="-1.15206">
        <ele>4.6</ele>
        <time>2020-06-02T08:45:50Z</time>
      </trkpt>
      <trkpt lat="46.15825" lon="-1.15206">
        <ele>4.6</ele>
        <time>2020-06-02T08:45:51Z</time>
      </trkpt>
      <trkpt lat="46.15825" lon="-1.15206">
        <ele>4.6</ele>
        <time>2020-06-02T08:45:52Z</time>
      </trkpt>
      <trkpt lat="46.15825" lon="-1.15206">
        <ele>4.6</ele>
        <time>2020-06-02T08:45:53Z</time>
      </trkpt>
      <trkpt lat="46.15825" lon="-1.15206">
        <ele>4.6</ele>
        <time>2020-06-02T08:45:54Z</time>
      </trkpt>
      <trkpt lat="46.15825" lon="-1.15206">
        <ele>4.6</ele>
        <time>2020-06-02T08:45:55Z</time>
      </trkpt>
      <trkpt lat="46.15825" lon="-1.15206">
        <ele>4.6</ele>
        <time>2020-06-02T08:45:56Z</time>
      </trkpt>
      <trkpt lat="46.15825" lon="-1.15206">
        <ele>4.6</ele>
        <time>2020-06-02T08:45:57Z</time>
      </trkpt>
      <trkpt lat="46.15825" lon="-1.15206">
        <ele>4.6</ele>
        <time>2020-06-02T08:45:58Z</time>
      </trkpt>
      <trkpt lat="46.15825" lon="-1.15206">
        <ele>4.6</ele>
        <time>2020-06-02T08:45:59Z</time>
      </trkpt>
      <trkpt lat="46.15825" lon="-1.15206">
        <ele>4.6</ele>
        <time>2020-06-02T08:46:00Z</time>
      </trkpt>
      <trkpt lat="46.15825" lon="-1.15206">
        <ele>4.6</ele>
        <time>2020-06-02T08:46:01Z</time>
      </trkpt>
      <trkpt lat="46.15825" lon="-1.15206">
        <ele>4.6</ele>
        <time>2020-06-02T08:46:02Z</time>
      </trkpt>
      <trkpt lat="46.15825" lon="-1.15206">
        <ele>4.6</ele>
        <time>2020-06-02T08:46:03Z</time>
      </trkpt>
      <trkpt lat="46.15825" lon="-1.15206">
        <ele>4.6</ele>
        <time>2020-06-02T08:46:04Z</time>
      </trkpt>
      <trkpt lat="46.15825" lon="-1.15206">
        <ele>4.6</ele>
        <time>2020-06-02T08:46:05Z</time>
      </trkpt>
      <trkpt lat="46.15825" lon="-1.15206">
        <ele>4.6</ele>
        <time>2020-06-02T08:46:06Z</time>
      </trkpt>
      <trkpt lat="46.15825" lon="-1.15206">
        <ele>4.6</ele>
        <time>2020-06-02T08:46:07Z</time>
      </trkpt>
      <trkpt lat="46.15825" lon="-1.15206">
        <ele>4.6</ele>
        <time>2020-06-02T08:46:08Z</time>
      </trkpt>
      <trkpt lat="46.15825" lon="-1.15206">
        <ele>4.6</ele>
        <time>2020-06-02T08:46:09Z</time>
      </trkpt>
      <trkpt lat="46.15825" lon="-1.15206">
        <ele>4.6</ele>
        <time>2020-06-02T08:46:10Z</time>
      </trkpt>
      <trkpt lat="46.15825" lon="-1.15206">
        <ele>4.6</ele>
        <time>2020-06-02T08:46:11Z</time>
      </trkpt>
      <trkpt lat="46.15825" lon="-1.15206">
        <ele>4.6</ele>
        <time>2020-06-02T08:46:12Z</time>
      </trkpt>
      <trkpt lat="46.15825" lon="-1.15206">
        <ele>4.6</ele>
        <time>2020-06-02T08:46:13Z</time>
      </trkpt>
      <trkpt lat="46.15825" lon="-1.15206">
        <ele>4.6</ele>
        <time>2020-06-02T08:46:14Z</time>
      </trkpt>
      <trkpt lat="46.15825" lon="-1.15206">
        <ele>4.6</ele>
        <time>2020-06-02T08:46:15Z</time>
      </trkpt>
      <trkpt lat="46.15826" lon="-1.15206">
        <ele>4.6</ele>
        <time>2020-06-02T08:46:16Z</time>
      </trkpt>
      <trkpt lat="46.15826" lon="-1.15207">
        <ele>4.6</ele>
        <time>2020-06-02T08:46:17Z</time>
      </trkpt>
      <trkpt lat="46.15826" lon="-1.15207">
        <ele>4.6</ele>
        <time>2020-06-02T08:46:18Z</time>
      </trkpt>
      <trkpt lat="46.15826" lon="-1.15207">
        <ele>4.6</ele>
        <time>2020-06-02T08:46:19Z</time>
      </trkpt>
      <trkpt lat="46.15826" lon="-1.15207">
        <ele>4.6</ele>
        <time>2020-06-02T08:46:20Z</time>
      </trkpt>
      <trkpt lat="46.15826" lon="-1.15207">
        <ele>4.6</ele>
        <time>2020-06-02T08:46:21Z</time>
      </trkpt>
      <trkpt lat="46.15826" lon="-1.15207">
        <ele>4.6</ele>
        <time>2020-06-02T08:46:22Z</time>
      </trkpt>
      <trkpt lat="46.15826" lon="-1.15207">
        <ele>4.6</ele>
        <time>2020-06-02T08:46:23Z</time>
      </trkpt>
      <trkpt lat="46.15826" lon="-1.15207">
        <ele>4.6</ele>
        <time>2020-06-02T08:46:24Z</time>
      </trkpt>
      <trkpt lat="46.15826" lon="-1.15207">
        <ele>4.6</ele>
        <time>2020-06-02T08:46:25Z</time>
      </trkpt>
      <trkpt lat="46.15826" lon="-1.15207">
        <ele>4.6</ele>
        <time>2020-06-02T08:46:26Z</time>
      </trkpt>
      <trkpt lat="46.15826" lon="-1.15207">
        <ele>4.6</ele>
        <time>2020-06-02T08:46:27Z</time>
      </trkpt>
      <trkpt lat="46.15826" lon="-1.15207">
        <ele>4.6</ele>
        <time>2020-06-02T08:46:28Z</time>
      </trkpt>
      <trkpt lat="46.15826" lon="-1.15207">
        <ele>4.6</ele>
        <time>2020-06-02T08:46:29Z</time>
      </trkpt>
      <trkpt lat="46.15826" lon="-1.15207">
        <ele>4.6</ele>
        <time>2020-06-02T08:46:30Z</time>
      </trkpt>
      <trkpt lat="46.15826" lon="-1.15207">
        <ele>4.6</ele>
        <time>2020-06-02T08:46:31Z</time>
      </trkpt>
      <trkpt lat="46.15826" lon="-1.15207">
        <ele>4.6</ele>
        <time>2020-06-02T08:46:32Z</time>
      </trkpt>
      <trkpt lat="46.15826" lon="-1.15207">
        <ele>4.6</ele>
        <time>2020-06-02T08:46:33Z</time>
      </trkpt>
      <trkpt lat="46.15826" lon="-1.15207">
        <ele>4.6</ele>
        <time>2020-06-02T08:46:34Z</time>
      </trkpt>
      <trkpt lat="46.15826" lon="-1.15207">
        <ele>4.6</ele>
        <time>2020-06-02T08:46:35Z</time>
      </trkpt>
      <trkpt lat="46.15826" lon="-1.15207">
        <ele>4.6</ele>
        <time>2020-06-02T08:46:36Z</time>
      </trkpt>
      <trkpt lat="46.15826" lon="-1.15207">
        <ele>4.6</ele>
        <time>2020-06-02T08:46:37Z</time>
      </trkpt>
      <trkpt lat="46.15826" lon="-1.15207">
        <ele>4.6</ele>
        <time>2020-06-02T08:46:38Z</time>
      </trkpt>
      <trkpt lat="46.15826" lon="-1.15207">
        <ele>4.6</ele>
        <time>2020-06-02T08:46:39Z</time>
      </trkpt>
      <trkpt lat="46.15826" lon="-1.15207">
        <ele>4.6</ele>
        <time>2020-06-02T08:46:40Z</time>
      </trkpt>
      <trkpt lat="46.15826" lon="-1.15207">
        <ele>4.6</ele>
        <time>2020-06-02T08:46:41Z</time>
      </trkpt>
      <trkpt lat="46.15826" lon="-1.15207">
        <ele>4.6</ele>
        <time>2020-06-02T08:46:42Z</time>
      </trkpt>
      <trkpt lat="46.15826" lon="-1.15207">
        <ele>4.6</ele>
        <time>2020-06-02T08:46:43Z</time>
      </trkpt>
      <trkpt lat="46.15826" lon="-1.15207">
        <ele>4.6</ele>
        <time>2020-06-02T08:46:44Z</time>
      </trkpt>
      <trkpt lat="46.15826" lon="-1.15207">
        <ele>4.6</ele>
        <time>2020-06-02T08:46:45Z</time>
      </trkpt>
      <trkpt lat="46.15826" lon="-1.15207">
        <ele>4.6</ele>
        <time>2020-06-02T08:46:46Z</time>
      </trkpt>
      <trkpt lat="46.15826" lon="-1.15207">
        <ele>4.6</ele>
        <time>2020-06-02T08:46:47Z</time>
      </trkpt>
      <trkpt lat="46.15826" lon="-1.15207">
        <ele>4.6</ele>
        <time>2020-06-02T08:46:48Z</time>
      </trkpt>
      <trkpt lat="46.15826" lon="-1.15207">
        <ele>4.6</ele>
        <time>2020-06-02T08:46:49Z</time>
      </trkpt>
      <trkpt lat="46.15827" lon="-1.15207">
        <ele>4.6</ele>
        <time>2020-06-02T08:46:50Z</time>
      </trkpt>
      <trkpt lat="46.15827" lon="-1.15207">
        <ele>4.6</ele>
        <time>2020-06-02T08:46:51Z</time>
      </trkpt>
      <trkpt lat="46.15827" lon="-1.15207">
        <ele>4.6</ele>
        <time>2020-06-02T08:46:52Z</time>
      </trkpt>
      <trkpt lat="46.15827" lon="-1.15207">
        <ele>4.6</ele>
        <time>2020-06-02T08:46:53Z</time>
      </trkpt>
      <trkpt lat="46.15827" lon="-1.15207">
        <ele>4.6</ele>
        <time>2020-06-02T08:46:54Z</time>
      </trkpt>
      <trkpt lat="46.15827" lon="-1.15207">
        <ele>4.6</ele>
        <time>2020-06-02T08:46:55Z</time>
      </trkpt>
      <trkpt lat="46.15827" lon="-1.15207">
        <ele>4.6</ele>
        <time>2020-06-02T08:46:56Z</time>
      </trkpt>
      <trkpt lat="46.15827" lon="-1.15207">
        <ele>4.6</ele>
        <time>2020-06-02T08:46:57Z</time>
      </trkpt>
      <trkpt lat="46.15827" lon="-1.15207">
        <ele>4.6</ele>
        <time>2020-06-02T08:46:58Z</time>
      </trkpt>
      <trkpt lat="46.15827" lon="-1.15207">
        <ele>4.6</ele>
        <time>2020-06-02T08:46:59Z</time>
      </trkpt>
      <trkpt lat="46.15827" lon="-1.15207">
        <ele>4.6</ele>
        <time>2020-06-02T08:47:00Z</time>
      </trkpt>
      <trkpt lat="46.15827" lon="-1.15207">
        <ele>4.6</ele>
        <time>2020-06-02T08:47:01Z</time>
      </trkpt>
      <trkpt lat="46.15827" lon="-1.15207">
        <ele>4.6</ele>
        <time>2020-06-02T08:47:02Z</time>
      </trkpt>
      <trkpt lat="46.15827" lon="-1.15207">
        <ele>4.6</ele>
        <time>2020-06-02T08:47:03Z</time>
      </trkpt>
      <trkpt lat="46.15827" lon="-1.15207">
        <ele>4.6</ele>
        <time>2020-06-02T08:47:04Z</time>
      </trkpt>
      <trkpt lat="46.15827" lon="-1.15207">
        <ele>4.6</ele>
        <time>2020-06-02T08:47:05Z</time>
      </trkpt>
      <trkpt lat="46.15827" lon="-1.15207">
        <ele>4.6</ele>
        <time>2020-06-02T08:47:06Z</time>
      </trkpt>
      <trkpt lat="46.15827" lon="-1.15207">
        <ele>4.6</ele>
        <time>2020-06-02T08:47:07Z</time>
      </trkpt>
      <trkpt lat="46.15827" lon="-1.15207">
        <ele>4.6</ele>
        <time>2020-06-02T08:47:08Z</time>
      </trkpt>
      <trkpt lat="46.15827" lon="-1.15207">
        <ele>4.6</ele>
        <time>2020-06-02T08:47:09Z</time>
      </trkpt>
      <trkpt lat="46.15827" lon="-1.15207">
        <ele>4.6</ele>
        <time>2020-06-02T08:47:10Z</time>
      </trkpt>
      <trkpt lat="46.15827" lon="-1.15207">
        <ele>4.6</ele>
        <time>2020-06-02T08:47:11Z</time>
      </trkpt>
      <trkpt lat="46.15827" lon="-1.15207">
        <ele>4.6</ele>
        <time>2020-06-02T08:47:12Z</time>
      </trkpt>
      <trkpt lat="46.15827" lon="-1.15207">
        <ele>4.6</ele>
        <time>2020-06-02T08:47:13Z</time>
      </trkpt>
      <trkpt lat="46.15827" lon="-1.15207">
        <ele>4.6</ele>
        <time>2020-06-02T08:47:14Z</time>
      </trkpt>
      <trkpt lat="46.15827" lon="-1.15207">
        <ele>4.6</ele>
        <time>2020-06-02T08:47:15Z</time>
      </trkpt>
      <trkpt lat="46.15827" lon="-1.15207">
        <ele>4.6</ele>
        <time>2020-06-02T08:47:16Z</time>
      </trkpt>
      <trkpt lat="46.15827" lon="-1.15207">
        <ele>4.6</ele>
        <time>2020-06-02T08:47:17Z</time>
      </trkpt>
      <trkpt lat="46.15827" lon="-1.15207">
        <ele>4.6</ele>
        <time>2020-06-02T08:47:18Z</time>
      </trkpt>
      <trkpt lat="46.15827" lon="-1.15207">
        <ele>4.6</ele>
        <time>2020-06-02T08:47:19Z</time>
      </trkpt>
      <trkpt lat="46.15827" lon="-1.15207">
        <ele>4.6</ele>
        <time>2020-06-02T08:47:20Z</time>
      </trkpt>
      <trkpt lat="46.15827" lon="-1.15207">
        <ele>4.6</ele>
        <time>2020-06-02T08:47:21Z</time>
      </trkpt>
      <trkpt lat="46.15827" lon="-1.15207">
        <ele>4.6</ele>
        <time>2020-06-02T08:47:22Z</time>
      </trkpt>
      <trkpt lat="46.15827" lon="-1.15207">
        <ele>4.6</ele>
        <time>2020-06-02T08:47:23Z</time>
      </trkpt>
      <trkpt lat="46.15828" lon="-1.15207">
        <ele>4.6</ele>
        <time>2020-06-02T08:47:24Z</time>
      </trkpt>
      <trkpt lat="46.15828" lon="-1.15208">
        <ele>4.6</ele>
        <time>2020-06-02T08:47:25Z</time>
      </trkpt>
      <trkpt lat="46.15828" lon="-1.15208">
        <ele>4.6</ele>
        <time>2020-06-02T08:47:26Z</time>
      </trkpt>
      <trkpt lat="46.15828" lon="-1.15208">
        <ele>4.6</ele>
        <time>2020-06-02T08:47:27Z</time>
      </trkpt>
      <trkpt lat="46.15828" lon="-1.15208">
        <ele>4.6</ele>
        <time>2020-06-02T08:47:28Z</time>
      </trkpt>
      <trkpt lat="46.15828" lon="-1.15208">
        <ele>4.6</ele>
        <time>2020-06-02T08:47:29Z</time>
      </trkpt>
      <trkpt lat="46.15828" lon="-1.15208">
        <ele>4.6</ele>
        <time>2020-06-02T08:47:30Z</time>
      </trkpt>
      <trkpt lat="46.15828" lon="-1.15208">
        <ele>4.6</ele>
        <time>2020-06-02T08:47:31Z</time>
      </trkpt>
      <trkpt lat="46.15828" lon="-1.15208">
        <ele>4.6</ele>
        <time>2020-06-02T08:47:32Z</time>
      </trkpt>
      <trkpt lat="46.15828" lon="-1.15208">
        <ele>4.6</ele>
        <time>2020-06-02T08:47:33Z</time>
      </trkpt>
      <trkpt lat="46.15828" lon="-1.15208">
        <ele>4.6</ele>
        <time>2020-06-02T08:47:34Z</time>
      </trkpt>
      <trkpt lat="46.15828" lon="-1.15208">
        <ele>4.6</ele>
        <time>2020-06-02T08:47:35Z</time>
      </trkpt>
      <trkpt lat="46.15828" lon="-1.15208">
        <ele>4.6</ele>
        <time>2020-06-02T08:47:36Z</time>
      </trkpt>
      <trkpt lat="46.15828" lon="-1.15208">
        <ele>4.6</ele>
        <time>2020-06-02T08:47:37Z</time>
      </trkpt>
      <trkpt lat="46.15828" lon="-1.15208">
        <ele>4.6</ele>
        <time>2020-06-02T08:47:38Z</time>
      </trkpt>
      <trkpt lat="46.15828" lon="-1.15208">
        <ele>4.6</ele>
        <time>2020-06-02T08:47:39Z</time>
      </trkpt>
      <trkpt lat="46.15828" lon="-1.15208">
        <ele>4.6</ele>
        <time>2020-06-02T08:47:40Z</time>
      </trkpt>
      <trkpt lat="46.15828" lon="-1.15208">
        <ele>4.6</ele>
        <time>2020-06-02T08:47:41Z</time>
      </trkpt>
      <trkpt lat="46.15828" lon="-1.15208">
        <ele>4.6</ele>
        <time>2020-06-02T08:47:42Z</time>
      </trkpt>
      <trkpt lat="46.15828" lon="-1.15208">
        <ele>4.6</ele>
        <time>2020-06-02T08:47:43Z</time>
      </trkpt>
      <trkpt lat="46.15828" lon="-1.15208">
        <ele>4.6</ele>
        <time>2020-06-02T08:47:44Z</time>
      </trkpt>
      <trkpt lat="46.15828" lon="-1.15208">
        <ele>4.6</ele>
        <time>2020-06-02T08:47:45Z</time>
      </trkpt>
      <trkpt lat="46.15828" lon="-1.15208">
        <ele>4.6</ele>
        <time>2020-06-02T08:47:46Z</time>
      </trkpt>
      <trkpt lat="46.15828" lon="-1.15208">
        <ele>4.6</ele>
        <time>2020-06-02T08:47:47Z</time>
      </trkpt>
      <trkpt lat="46.15828" lon="-1.15208">
        <ele>4.6</ele>
        <time>2020-06-02T08:47:48Z</time>
      </trkpt>
      <trkpt lat="46.15828" lon="-1.15208">
        <ele>4.6</ele>
        <time>2020-06-02T08:47:49Z</time>
      </trkpt>
      <trkpt lat="46.15828" lon="-1.15208">
        <ele>4.6</ele>
        <time>2020-06-02T08:47:50Z</time>
      </trkpt>
      <trkpt lat="46.15828" lon="-1.15208">
        <ele>4.6</ele>
        <time>2020-06-02T08:47:51Z</time>
      </trkpt>
      <trkpt lat="46.15828" lon="-1.15208">
        <ele>4.6</ele>
        <time>2020-06-02T08:47:52Z</time>
      </trkpt>
      <trkpt lat="46.15828" lon="-1.15208">
        <ele>4.6</ele>
        <time>2020-06-02T08:47:53Z</time>
      </trkpt>
      <trkpt lat="46.15828" lon="-1.15208">
        <ele>4.6</ele>
        <time>2020-06-02T08:47:54Z</time>
      </trkpt>
      <trkpt lat="46.15828" lon="-1.15208">
        <ele>4.6</ele>
        <time>2020-06-02T08:47:55Z</time>
      </trkpt>
      <trkpt lat="46.15828" lon="-1.15208">
        <ele>4.6</ele>
        <time>2020-06-02T08:47:56Z</time>
      </trkpt>
      <trkpt lat="46.15828" lon="-1.15208">
        <ele>4.6</ele>
        <time>2020-06-02T08:47:57Z</time>
      </trkpt>
      <trkpt lat="46.15829" lon="-1.15208">
        <ele>4.6</ele>
        <time>2020-06-02T08:47:58Z</time>
      </trkpt>
      <trkpt lat="46.15829" lon="-1.15208">
        <ele>4.6</ele>
        <time>2020-06-02T08:47:59Z</time>
      </trkpt>
      <trkpt lat="46.15829" lon="-1.15208">
        <ele>4.6</ele>
        <time>2020-06-02T08:48:00Z</time>
      </trkpt>
      <trkpt lat="46.15829" lon="-1.15208">
        <ele>4.6</ele>
        <time>2020-06-02T08:48:01Z</time>
      </trkpt>
      <trkpt lat="46.15829" lon="-1.15208">
        <ele>4.6</ele>
        <time>2020-06-02T08:48:02Z</time>
      </trkpt>
      <trkpt lat="46.15829" lon="-1.15208">
        <ele>4.6</ele>
        <time>2020-06-02T08:48:03Z</time>
      </trkpt>
      <trkpt lat="46.15829" lon="-1.15208">
        <ele>4.6</ele>
        <time>2020-06-02T08:48:04Z</time>
      </trkpt>
      <trkpt lat="46.15829" lon="-1.15208">
        <ele>4.6</ele>
        <time>2020-06-02T08:48:05Z</time>
      </trkpt>
      <trkpt lat="46.15829" lon="-1.15208">
        <ele>4.6</ele>
        <time>2020-06-02T08:48:06Z</time>
      </trkpt>
      <trkpt lat="46.15829" lon="-1.15208">
        <ele>4.6</ele>
        <time>2020-06-02T08:48:07Z</time>
      </trkpt>
      <trkpt lat="46.15829" lon="-1.15208">
        <ele>4.6</ele>
        <time>2020-06-02T08:48:08Z</time>
      </trkpt>
      <trkpt lat="46.15829" lon="-1.15208">
        <ele>4.6</ele>
        <time>2020-06-02T08:48:09Z</time>
      </trkpt>
      <trkpt lat="46.15829" lon="-1.15208">
        <ele>4.6</ele>
        <time>2020-06-02T08:48:10Z</time>
      </trkpt>
      <trkpt lat="46.15829" lon="-1.15208">
        <ele>4.6</ele>
        <time>2020-06-02T08:48:11Z</time>
      </trkpt>
      <trkpt lat="46.15829" lon="-1.15208">
        <ele>4.6</ele>
        <time>2020-06-02T08:48:12Z</time>
      </trkpt>
      <trkpt lat="46.15829" lon="-1.15208">
        <ele>4.6</ele>
        <time>2020-06-02T08:48:13Z</time>
      </trkpt>
      <trkpt lat="46.15829" lon="-1.15208">
        <ele>4.6</ele>
        <time>2020-06-02T08:48:14Z</time>
      </trkpt>
      <trkpt lat="46.15829" lon="-1.15208">
        <ele>4.6</ele>
        <time>2020-06-02T08:48:15Z</time>
      </trkpt>
      <trkpt lat="46.15829" lon="-1.15208">
        <ele>4.6</ele>
        <time>2020-06-02T08:48:16Z</time>
      </trkpt>
      <trkpt lat="46.15829" lon="-1.15208">
        <ele>4.6</ele>
        <time>2020-06-02T08:48:17Z</time>
      </trkpt>
      <trkpt lat="46.15829" lon="-1.15208">
        <ele>4.6</ele>
        <time>2020-06-02T08:48:18Z</time>
      </trkpt>
      <trkpt lat="46.15829" lon="-1.15208">
        <ele>4.6</ele>
        <time>2020-06-02T08:48:19Z</time>
      </trkpt>
      <trkpt lat="46.15829" lon="-1.15208">
        <ele>4.6</ele>
        <time>2020-06-02T08:48:20Z</time>
      </trkpt>
      <trkpt lat="46.15829" lon="-1.15208">
        <ele>4.6</ele>
        <time>2020-06-02T08:48:21Z</time>
      </trkpt>
      <trkpt lat="46.15829" lon="-1.15208">
        <ele>4.6</ele>
        <time>2020-06-02T08:48:22Z</time>
      </trkpt>
      <trkpt lat="46.15829" lon="-1.15208">
        <ele>4.6</ele>
        <time>2020-06-02T08:48:23Z</time>
      </trkpt>
      <trkpt lat="46.15829" lon="-1.15208">
        <ele>4.6</ele>
        <time>2020-06-02T08:48:24Z</time>
      </trkpt>
      <trkpt lat="46.15829" lon="-1.15208">
        <ele>4.6</ele>
        <time>2020-06-02T08:48:25Z</time>
      </trkpt>
      <trkpt lat="46.15829" lon="-1.15207">
        <ele>4.6</ele>
        <time>2020-06-02T08:48:26Z</time>
      </trkpt>
      <trkpt lat="46.1583" lon="-1.15207">
        <ele>4.6</ele>
        <time>2020-06-02T08:48:27Z</time>
      </trkpt>
      <trkpt lat="46.15829" lon="-1.15206">
        <ele>4.6</ele>
        <time>2020-06-02T08:48:28Z</time>
      </trkpt>
      <trkpt lat="46.15829" lon="-1.15206">
        <ele>4.6</ele>
        <time>2020-06-02T08:48:29Z</time>
      </trkpt>
      <trkpt lat="46.15829" lon="-1.15206">
        <ele>4.6</ele>
        <time>2020-06-02T08:48:30Z</time>
      </trkpt>
      <trkpt lat="46.15829" lon="-1.15206">
        <ele>4.6</ele>
        <time>2020-06-02T08:48:31Z</time>
      </trkpt>
      <trkpt lat="46.15829" lon="-1.15206">
        <ele>4.6</ele>
        <time>2020-06-02T08:48:32Z</time>
      </trkpt>
      <trkpt lat="46.15829" lon="-1.15206">
        <ele>4.6</ele>
        <time>2020-06-02T08:48:33Z</time>
      </trkpt>
      <trkpt lat="46.15829" lon="-1.15206">
        <ele>4.6</ele>
        <time>2020-06-02T08:48:34Z</time>
      </trkpt>
      <trkpt lat="46.15829" lon="-1.15206">
        <ele>4.6</ele>
        <time>2020-06-02T08:48:35Z</time>
      </trkpt>
      <trkpt lat="46.15829" lon="-1.15206">
        <ele>4.6</ele>
        <time>2020-06-02T08:48:36Z</time>
      </trkpt>
      <trkpt lat="46.15829" lon="-1.15206">
        <ele>4.6</ele>
        <time>2020-06-02T08:48:37Z</time>
      </trkpt>
      <trkpt lat="46.15829" lon="-1.15206">
        <ele>4.6</ele>
        <time>2020-06-02T08:48:38Z</time>
      </trkpt>
      <trkpt lat="46.15829" lon="-1.15206">
        <ele>4.6</ele>
        <time>2020-06-02T08:48:39Z</time>
      </trkpt>
      <trkpt lat="46.15829" lon="-1.15206">
        <ele>4.6</ele>
        <time>2020-06-02T08:48:40Z</time>
      </trkpt>
      <trkpt lat="46.15829" lon="-1.15206">
        <ele>4.6</ele>
        <time>2020-06-02T08:48:41Z</time>
      </trkpt>
      <trkpt lat="46.15829" lon="-1.15206">
        <ele>4.6</ele>
        <time>2020-06-02T08:48:42Z</time>
      </trkpt>
      <trkpt lat="46.15829" lon="-1.15206">
        <ele>4.6</ele>
        <time>2020-06-02T08:48:43Z</time>
      </trkpt>
      <trkpt lat="46.15829" lon="-1.15206">
        <ele>4.6</ele>
        <time>2020-06-02T08:48:44Z</time>
      </trkpt>
      <trkpt lat="46.15829" lon="-1.15206">
        <ele>4.6</ele>
        <time>2020-06-02T08:48:45Z</time>
      </trkpt>
      <trkpt lat="46.15829" lon="-1.15206">
        <ele>4.6</ele>
        <time>2020-06-02T08:48:46Z</time>
      </trkpt>
      <trkpt lat="46.15829" lon="-1.15206">
        <ele>4.6</ele>
        <time>2020-06-02T08:48:47Z</time>
      </trkpt>
      <trkpt lat="46.15829" lon="-1.15206">
        <ele>4.6</ele>
        <time>2020-06-02T08:48:48Z</time>
      </trkpt>
      <trkpt lat="46.15829" lon="-1.15206">
        <ele>4.6</ele>
        <time>2020-06-02T08:48:49Z</time>
      </trkpt>
      <trkpt lat="46.15829" lon="-1.15206">
        <ele>4.6</ele>
        <time>2020-06-02T08:48:50Z</time>
      </trkpt>
      <trkpt lat="46.15829" lon="-1.15206">
        <ele>4.6</ele>
        <time>2020-06-02T08:48:51Z</time>
      </trkpt>
      <trkpt lat="46.15829" lon="-1.15206">
        <ele>4.6</ele>
        <time>2020-06-02T08:48:52Z</time>
      </trkpt>
      <trkpt lat="46.1583" lon="-1.15206">
        <ele>4.6</ele>
        <time>2020-06-02T08:48:53Z</time>
      </trkpt>
      <trkpt lat="46.1583" lon="-1.15206">
        <ele>4.6</ele>
        <time>2020-06-02T08:48:54Z</time>
      </trkpt>
      <trkpt lat="46.1583" lon="-1.15206">
        <ele>4.6</ele>
        <time>2020-06-02T08:48:55Z</time>
      </trkpt>
      <trkpt lat="46.1583" lon="-1.15206">
        <ele>4.6</ele>
        <time>2020-06-02T08:48:56Z</time>
      </trkpt>
      <trkpt lat="46.1583" lon="-1.15206">
        <ele>4.6</ele>
        <time>2020-06-02T08:48:57Z</time>
      </trkpt>
      <trkpt lat="46.1583" lon="-1.15206">
        <ele>4.6</ele>
        <time>2020-06-02T08:48:58Z</time>
      </trkpt>
      <trkpt lat="46.1583" lon="-1.15206">
        <ele>4.6</ele>
        <time>2020-06-02T08:48:59Z</time>
      </trkpt>
      <trkpt lat="46.1583" lon="-1.15206">
        <ele>4.6</ele>
        <time>2020-06-02T08:49:00Z</time>
      </trkpt>
      <trkpt lat="46.1583" lon="-1.15206">
        <ele>4.6</ele>
        <time>2020-06-02T08:49:01Z</time>
      </trkpt>
      <trkpt lat="46.1583" lon="-1.15206">
        <ele>4.6</ele>
        <time>2020-06-02T08:49:02Z</time>
      </trkpt>
      <trkpt lat="46.1583" lon="-1.15206">
        <ele>4.6</ele>
        <time>2020-06-02T08:49:03Z</time>
      </trkpt>
      <trkpt lat="46.1583" lon="-1.15206">
        <ele>4.6</ele>
        <time>2020-06-02T08:49:04Z</time>
      </trkpt>
      <trkpt lat="46.1583" lon="-1.15206">
        <ele>4.6</ele>
        <time>2020-06-02T08:49:05Z</time>
      </trkpt>
      <trkpt lat="46.1583" lon="-1.15206">
        <ele>4.6</ele>
        <time>2020-06-02T08:49:06Z</time>
      </trkpt>
      <trkpt lat="46.1583" lon="-1.15206">
        <ele>4.6</ele>
        <time>2020-06-02T08:49:07Z</time>
      </trkpt>
      <trkpt lat="46.1583" lon="-1.15206">
        <ele>4.6</ele>
        <time>2020-06-02T08:49:08Z</time>
      </trkpt>
      <trkpt lat="46.1583" lon="-1.15206">
        <ele>4.6</ele>
        <time>2020-06-02T08:49:09Z</time>
      </trkpt>
      <trkpt lat="46.1583" lon="-1.15206">
        <ele>4.6</ele>
        <time>2020-06-02T08:49:10Z</time>
      </trkpt>
      <trkpt lat="46.1583" lon="-1.15206">
        <ele>4.6</ele>
        <time>2020-06-02T08:49:11Z</time>
      </trkpt>
      <trkpt lat="46.1583" lon="-1.15206">
        <ele>4.6</ele>
        <time>2020-06-02T08:49:12Z</time>
      </trkpt>
      <trkpt lat="46.1583" lon="-1.15206">
        <ele>4.6</ele>
        <time>2020-06-02T08:49:13Z</time>
      </trkpt>
      <trkpt lat="46.1583" lon="-1.15206">
        <ele>4.6</ele>
        <time>2020-06-02T08:49:14Z</time>
      </trkpt>
      <trkpt lat="46.1583" lon="-1.15206">
        <ele>4.6</ele>
        <time>2020-06-02T08:49:15Z</time>
      </trkpt>
      <trkpt lat="46.1583" lon="-1.15206">
        <ele>4.6</ele>
        <time>2020-06-02T08:49:16Z</time>
      </trkpt>
      <trkpt lat="46.1583" lon="-1.15206">
        <ele>4.6</ele>
        <time>2020-06-02T08:49:17Z</time>
      </trkpt>
      <trkpt lat="46.1583" lon="-1.15206">
        <ele>4.6</ele>
        <time>2020-06-02T08:49:18Z</time>
      </trkpt>
      <trkpt lat="46.1583" lon="-1.15206">
        <ele>4.6</ele>
        <time>2020-06-02T08:49:19Z</time>
      </trkpt>
      <trkpt lat="46.1583" lon="-1.15206">
        <ele>4.6</ele>
        <time>2020-06-02T08:49:20Z</time>
      </trkpt>
      <trkpt lat="46.1583" lon="-1.15206">
        <ele>4.6</ele>
        <time>2020-06-02T08:49:21Z</time>
      </trkpt>
      <trkpt lat="46.1583" lon="-1.15206">
        <ele>4.6</ele>
        <time>2020-06-02T08:49:22Z</time>
      </trkpt>
      <trkpt lat="46.1583" lon="-1.15206">
        <ele>4.6</ele>
        <time>2020-06-02T08:49:23Z</time>
      </trkpt>
      <trkpt lat="46.1583" lon="-1.15206">
        <ele>4.6</ele>
        <time>2020-06-02T08:49:24Z</time>
      </trkpt>
      <trkpt lat="46.1583" lon="-1.15206">
        <ele>4.6</ele>
        <time>2020-06-02T08:49:25Z</time>
      </trkpt>
      <trkpt lat="46.1583" lon="-1.15206">
        <ele>4.6</ele>
        <time>2020-06-02T08:49:26Z</time>
      </trkpt>
      <trkpt lat="46.1583" lon="-1.15206">
        <ele>4.6</ele>
        <time>2020-06-02T08:49:27Z</time>
      </trkpt>
      <trkpt lat="46.1583" lon="-1.15206">
        <ele>4.6</ele>
        <time>2020-06-02T08:49:28Z</time>
      </trkpt>
      <trkpt lat="46.1583" lon="-1.15206">
        <ele>4.6</ele>
        <time>2020-06-02T08:49:29Z</time>
      </trkpt>
      <trkpt lat="46.1583" lon="-1.15206">
        <ele>4.6</ele>
        <time>2020-06-02T08:49:30Z</time>
      </trkpt>
      <trkpt lat="46.1583" lon="-1.15206">
        <ele>4.6</ele>
        <time>2020-06-02T08:49:31Z</time>
      </trkpt>
      <trkpt lat="46.1583" lon="-1.15206">
        <ele>4.6</ele>
        <time>2020-06-02T08:49:32Z</time>
      </trkpt>
      <trkpt lat="46.1583" lon="-1.15206">
        <ele>4.6</ele>
        <time>2020-06-02T08:49:33Z</time>
      </trkpt>
      <trkpt lat="46.1583" lon="-1.15206">
        <ele>4.6</ele>
        <time>2020-06-02T08:49:34Z</time>
      </trkpt>
      <trkpt lat="46.1583" lon="-1.15206">
        <ele>4.6</ele>
        <time>2020-06-02T08:49:35Z</time>
      </trkpt>
      <trkpt lat="46.1583" lon="-1.15206">
        <ele>4.6</ele>
        <time>2020-06-02T08:49:36Z</time>
      </trkpt>
      <trkpt lat="46.1583" lon="-1.15206">
        <ele>4.6</ele>
        <time>2020-06-02T08:49:37Z</time>
      </trkpt>
      <trkpt lat="46.1583" lon="-1.15206">
        <ele>4.6</ele>
        <time>2020-06-02T08:49:38Z</time>
      </trkpt>
      <trkpt lat="46.1583" lon="-1.15206">
        <ele>4.6</ele>
        <time>2020-06-02T08:49:39Z</time>
      </trkpt>
      <trkpt lat="46.15831" lon="-1.15206">
        <ele>4.6</ele>
        <time>2020-06-02T08:49:40Z</time>
      </trkpt>
      <trkpt lat="46.15831" lon="-1.15206">
        <ele>4.6</ele>
        <time>2020-06-02T08:49:41Z</time>
      </trkpt>
      <trkpt lat="46.15831" lon="-1.15206">
        <ele>4.6</ele>
        <time>2020-06-02T08:49:42Z</time>
      </trkpt>
      <trkpt lat="46.15831" lon="-1.15206">
        <ele>4.6</ele>
        <time>2020-06-02T08:49:43Z</time>
      </trkpt>
      <trkpt lat="46.15831" lon="-1.15205">
        <ele>4.6</ele>
        <time>2020-06-02T08:49:44Z</time>
      </trkpt>
      <trkpt lat="46.15831" lon="-1.15205">
        <ele>4.6</ele>
        <time>2020-06-02T08:49:45Z</time>
      </trkpt>
      <trkpt lat="46.15831" lon="-1.15205">
        <ele>4.6</ele>
        <time>2020-06-02T08:49:46Z</time>
      </trkpt>
      <trkpt lat="46.15831" lon="-1.15205">
        <ele>4.6</ele>
        <time>2020-06-02T08:49:47Z</time>
      </trkpt>
      <trkpt lat="46.15831" lon="-1.15205">
        <ele>4.6</ele>
        <time>2020-06-02T08:49:48Z</time>
      </trkpt>
      <trkpt lat="46.15831" lon="-1.15205">
        <ele>4.6</ele>
        <time>2020-06-02T08:49:49Z</time>
      </trkpt>
      <trkpt lat="46.15831" lon="-1.15205">
        <ele>4.6</ele>
        <time>2020-06-02T08:49:50Z</time>
      </trkpt>
      <trkpt lat="46.15831" lon="-1.15205">
        <ele>4.6</ele>
        <time>2020-06-02T08:49:51Z</time>
      </trkpt>
      <trkpt lat="46.15831" lon="-1.15205">
        <ele>4.6</ele>
        <time>2020-06-02T08:49:52Z</time>
      </trkpt>
      <trkpt lat="46.15831" lon="-1.15205">
        <ele>4.6</ele>
        <time>2020-06-02T08:49:53Z</time>
      </trkpt>
      <trkpt lat="46.15831" lon="-1.15205">
        <ele>4.6</ele>
        <time>2020-06-02T08:49:54Z</time>
      </trkpt>
      <trkpt lat="46.15831" lon="-1.15205">
        <ele>4.6</ele>
        <time>2020-06-02T08:49:55Z</time>
      </trkpt>
      <trkpt lat="46.15831" lon="-1.15205">
        <ele>4.6</ele>
        <time>2020-06-02T08:49:56Z</time>
      </trkpt>
      <trkpt lat="46.15831" lon="-1.15205">
        <ele>4.6</ele>
        <time>2020-06-02T08:49:57Z</time>
      </trkpt>
      <trkpt lat="46.15831" lon="-1.15205">
        <ele>4.6</ele>
        <time>2020-06-02T08:49:58Z</time>
      </trkpt>
      <trkpt lat="46.15831" lon="-1.15205">
        <ele>4.6</ele>
        <time>2020-06-02T08:49:59Z</time>
      </trkpt>
      <trkpt lat="46.15831" lon="-1.15205">
        <ele>4.6</ele>
        <time>2020-06-02T08:50:00Z</time>
      </trkpt>
      <trkpt lat="46.15831" lon="-1.15205">
        <ele>4.6</ele>
        <time>2020-06-02T08:50:01Z</time>
      </trkpt>
      <trkpt lat="46.15831" lon="-1.15205">
        <ele>4.6</ele>
        <time>2020-06-02T08:50:02Z</time>
      </trkpt>
      <trkpt lat="46.15831" lon="-1.15205">
        <ele>4.6</ele>
        <time>2020-06-02T08:50:03Z</time>
      </trkpt>
      <trkpt lat="46.15831" lon="-1.15205">
        <ele>4.6</ele>
        <time>2020-06-02T08:50:04Z</time>
      </trkpt>
      <trkpt lat="46.15831" lon="-1.15205">
        <ele>4.6</ele>
        <time>2020-06-02T08:50:05Z</time>
      </trkpt>
      <trkpt lat="46.15831" lon="-1.15205">
        <ele>4.6</ele>
        <time>2020-06-02T08:50:06Z</time>
      </trkpt>
      <trkpt lat="46.15831" lon="-1.15205">
        <ele>4.6</ele>
        <time>2020-06-02T08:50:07Z</time>
      </trkpt>
      <trkpt lat="46.15831" lon="-1.15205">
        <ele>4.6</ele>
        <time>2020-06-02T08:50:08Z</time>
      </trkpt>
      <trkpt lat="46.15831" lon="-1.15205">
        <ele>4.6</ele>
        <time>2020-06-02T08:50:09Z</time>
      </trkpt>
      <trkpt lat="46.15831" lon="-1.15205">
        <ele>4.6</ele>
        <time>2020-06-02T08:50:10Z</time>
      </trkpt>
      <trkpt lat="46.15831" lon="-1.15205">
        <ele>4.6</ele>
        <time>2020-06-02T08:50:11Z</time>
      </trkpt>
      <trkpt lat="46.15831" lon="-1.15205">
        <ele>4.6</ele>
        <time>2020-06-02T08:50:12Z</time>
      </trkpt>
      <trkpt lat="46.15831" lon="-1.15205">
        <ele>4.6</ele>
        <time>2020-06-02T08:50:13Z</time>
      </trkpt>
      <trkpt lat="46.15831" lon="-1.15205">
        <ele>4.6</ele>
        <time>2020-06-02T08:50:14Z</time>
      </trkpt>
      <trkpt lat="46.15831" lon="-1.15205">
        <ele>4.6</ele>
        <time>2020-06-02T08:50:15Z</time>
      </trkpt>
      <trkpt lat="46.15831" lon="-1.15205">
        <ele>4.6</ele>
        <time>2020-06-02T08:50:16Z</time>
      </trkpt>
      <trkpt lat="46.15831" lon="-1.15205">
        <ele>4.6</ele>
        <time>2020-06-02T08:50:17Z</time>
      </trkpt>
      <trkpt lat="46.15831" lon="-1.15205">
        <ele>4.6</ele>
        <time>2020-06-02T08:50:18Z</time>
      </trkpt>
      <trkpt lat="46.15832" lon="-1.15205">
        <ele>4.6</ele>
        <time>2020-06-02T08:50:19Z</time>
      </trkpt>
      <trkpt lat="46.15832" lon="-1.15205">
        <ele>4.6</ele>
        <time>2020-06-02T08:50:20Z</time>
      </trkpt>
      <trkpt lat="46.15832" lon="-1.15205">
        <ele>4.6</ele>
        <time>2020-06-02T08:50:21Z</time>
      </trkpt>
      <trkpt lat="46.15832" lon="-1.15205">
        <ele>4.6</ele>
        <time>2020-06-02T08:50:22Z</time>
      </trkpt>
      <trkpt lat="46.15832" lon="-1.15205">
        <ele>4.6</ele>
        <time>2020-06-02T08:50:23Z</time>
      </trkpt>
      <trkpt lat="46.15832" lon="-1.15205">
        <ele>4.6</ele>
        <time>2020-06-02T08:50:24Z</time>
      </trkpt>
      <trkpt lat="46.15832" lon="-1.15205">
        <ele>4.6</ele>
        <time>2020-06-02T08:50:25Z</time>
      </trkpt>
      <trkpt lat="46.15832" lon="-1.15205">
        <ele>4.6</ele>
        <time>2020-06-02T08:50:26Z</time>
      </trkpt>
      <trkpt lat="46.15832" lon="-1.15205">
        <ele>4.6</ele>
        <time>2020-06-02T08:50:27Z</time>
      </trkpt>
      <trkpt lat="46.15832" lon="-1.15205">
        <ele>4.6</ele>
        <time>2020-06-02T08:50:28Z</time>
      </trkpt>
      <trkpt lat="46.15832" lon="-1.15205">
        <ele>4.6</ele>
        <time>2020-06-02T08:50:29Z</time>
      </trkpt>
      <trkpt lat="46.15831" lon="-1.15205">
        <ele>4.6</ele>
        <time>2020-06-02T08:50:30Z</time>
      </trkpt>
      <trkpt lat="46.15831" lon="-1.15205">
        <ele>4.6</ele>
        <time>2020-06-02T08:50:31Z</time>
      </trkpt>
      <trkpt lat="46.15831" lon="-1.15206">
        <ele>4.6</ele>
        <time>2020-06-02T08:50:32Z</time>
      </trkpt>
      <trkpt lat="46.15831" lon="-1.15206">
        <ele>4.6</ele>
        <time>2020-06-02T08:50:33Z</time>
      </trkpt>
      <trkpt lat="46.15831" lon="-1.15207">
        <ele>4.6</ele>
        <time>2020-06-02T08:50:34Z</time>
      </trkpt>
      <trkpt lat="46.15831" lon="-1.15207">
        <ele>4.6</ele>
        <time>2020-06-02T08:50:35Z</time>
      </trkpt>
      <trkpt lat="46.15831" lon="-1.15207">
        <ele>4.6</ele>
        <time>2020-06-02T08:50:36Z</time>
      </trkpt>
      <trkpt lat="46.15831" lon="-1.15207">
        <ele>4.6</ele>
        <time>2020-06-02T08:50:37Z</time>
      </trkpt>
      <trkpt lat="46.15832" lon="-1.15208">
        <ele>4.6</ele>
        <time>2020-06-02T08:50:38Z</time>
      </trkpt>
      <trkpt lat="46.15831" lon="-1.15208">
        <ele>4.6</ele>
        <time>2020-06-02T08:50:39Z</time>
      </trkpt>
      <trkpt lat="46.15831" lon="-1.15207">
        <ele>4.6</ele>
        <time>2020-06-02T08:50:40Z</time>
      </trkpt>
      <trkpt lat="46.15832" lon="-1.15207">
        <ele>4.6</ele>
        <time>2020-06-02T08:50:41Z</time>
      </trkpt>
      <trkpt lat="46.15832" lon="-1.15207">
        <ele>4.6</ele>
        <time>2020-06-02T08:50:42Z</time>
      </trkpt>
      <trkpt lat="46.15831" lon="-1.15207">
        <ele>4.6</ele>
        <time>2020-06-02T08:50:43Z</time>
      </trkpt>
      <trkpt lat="46.15831" lon="-1.15207">
        <ele>4.6</ele>
        <time>2020-06-02T08:50:44Z</time>
      </trkpt>
      <trkpt lat="46.1583" lon="-1.15207">
        <ele>4.6</ele>
        <time>2020-06-02T08:50:45Z</time>
      </trkpt>
      <trkpt lat="46.1583" lon="-1.15207">
        <ele>4.6</ele>
        <time>2020-06-02T08:50:46Z</time>
      </trkpt>
      <trkpt lat="46.15829" lon="-1.15206">
        <ele>4.6</ele>
        <time>2020-06-02T08:50:47Z</time>
      </trkpt>
      <trkpt lat="46.15828" lon="-1.15205">
        <ele>4.6</ele>
        <time>2020-06-02T08:50:48Z</time>
      </trkpt>
      <trkpt lat="46.15827" lon="-1.15207">
        <ele>4.6</ele>
        <time>2020-06-02T08:50:49Z</time>
      </trkpt>
      <trkpt lat="46.15827" lon="-1.15207">
        <ele>4.6</ele>
        <time>2020-06-02T08:50:50Z</time>
      </trkpt>
      <trkpt lat="46.15827" lon="-1.15207">
        <ele>4.6</ele>
        <time>2020-06-02T08:50:51Z</time>
      </trkpt>
      <trkpt lat="46.15827" lon="-1.15207">
        <ele>4.6</ele>
        <time>2020-06-02T08:50:52Z</time>
      </trkpt>
      <trkpt lat="46.15827" lon="-1.15208">
        <ele>4.6</ele>
        <time>2020-06-02T08:50:53Z</time>
      </trkpt>
      <trkpt lat="46.15827" lon="-1.15208">
        <ele>4.6</ele>
        <time>2020-06-02T08:50:54Z</time>
      </trkpt>
      <trkpt lat="46.15827" lon="-1.15208">
        <ele>4.6</ele>
        <time>2020-06-02T08:50:55Z</time>
      </trkpt>
      <trkpt lat="46.15827" lon="-1.15208">
        <ele>4.6</ele>
        <time>2020-06-02T08:50:56Z</time>
      </trkpt>
      <trkpt lat="46.15827" lon="-1.15208">
        <ele>4.6</ele>
        <time>2020-06-02T08:50:57Z</time>
      </trkpt>
      <trkpt lat="46.15827" lon="-1.15207">
        <ele>4.6</ele>
        <time>2020-06-02T08:50:58Z</time>
      </trkpt>
      <trkpt lat="46.15827" lon="-1.15207">
        <ele>4.6</ele>
        <time>2020-06-02T08:50:59Z</time>
      </trkpt>
      <trkpt lat="46.15826" lon="-1.15208">
        <ele>4.6</ele>
        <time>2020-06-02T08:51:00Z</time>
      </trkpt>
      <trkpt lat="46.15827" lon="-1.15208">
        <ele>4.6</ele>
        <time>2020-06-02T08:51:01Z</time>
      </trkpt>
      <trkpt lat="46.15827" lon="-1.15208">
        <ele>4.6</ele>
        <time>2020-06-02T08:51:02Z</time>
      </trkpt>
      <trkpt lat="46.15827" lon="-1.15208">
        <ele>4.6</ele>
        <time>2020-06-02T08:51:03Z</time>
      </trkpt>
      <trkpt lat="46.15827" lon="-1.15208">
        <ele>4.6</ele>
        <time>2020-06-02T08:51:04Z</time>
      </trkpt>
      <trkpt lat="46.15827" lon="-1.15208">
        <ele>4.6</ele>
        <time>2020-06-02T08:51:05Z</time>
      </trkpt>
      <trkpt lat="46.15827" lon="-1.15208">
        <ele>4.6</ele>
        <time>2020-06-02T08:51:06Z</time>
      </trkpt>
      <trkpt lat="46.15827" lon="-1.15208">
        <ele>4.6</ele>
        <time>2020-06-02T08:51:07Z</time>
      </trkpt>
      <trkpt lat="46.15826" lon="-1.15208">
        <ele>4.6</ele>
        <time>2020-06-02T08:51:08Z</time>
      </trkpt>
      <trkpt lat="46.15826" lon="-1.15208">
        <ele>4.6</ele>
        <time>2020-06-02T08:51:09Z</time>
      </trkpt>
      <trkpt lat="46.15826" lon="-1.15207">
        <ele>4.6</ele>
        <time>2020-06-02T08:51:10Z</time>
      </trkpt>
      <trkpt lat="46.15826" lon="-1.15207">
        <ele>4.6</ele>
        <time>2020-06-02T08:51:11Z</time>
      </trkpt>
      <trkpt lat="46.15827" lon="-1.15207">
        <ele>4.6</ele>
        <time>2020-06-02T08:51:12Z</time>
      </trkpt>
      <trkpt lat="46.15826" lon="-1.15207">
        <ele>4.6</ele>
        <time>2020-06-02T08:51:13Z</time>
      </trkpt>
      <trkpt lat="46.15826" lon="-1.15206">
        <ele>4.6</ele>
        <time>2020-06-02T08:51:14Z</time>
      </trkpt>
      <trkpt lat="46.15826" lon="-1.15206">
        <ele>4.6</ele>
        <time>2020-06-02T08:51:15Z</time>
      </trkpt>
      <trkpt lat="46.15826" lon="-1.15205">
        <ele>4.6</ele>
        <time>2020-06-02T08:51:16Z</time>
      </trkpt>
      <trkpt lat="46.15826" lon="-1.15205">
        <ele>4.6</ele>
        <time>2020-06-02T08:51:17Z</time>
      </trkpt>
      <trkpt lat="46.15826" lon="-1.15205">
        <ele>4.6</ele>
        <time>2020-06-02T08:51:18Z</time>
      </trkpt>
      <trkpt lat="46.15826" lon="-1.15205">
        <ele>4.6</ele>
        <time>2020-06-02T08:51:19Z</time>
      </trkpt>
      <trkpt lat="46.15826" lon="-1.15206">
        <ele>4.6</ele>
        <time>2020-06-02T08:51:20Z</time>
      </trkpt>
      <trkpt lat="46.15826" lon="-1.15206">
        <ele>4.6</ele>
        <time>2020-06-02T08:51:21Z</time>
      </trkpt>
      <trkpt lat="46.15826" lon="-1.15206">
        <ele>4.6</ele>
        <time>2020-06-02T08:51:22Z</time>
      </trkpt>
      <trkpt lat="46.15826" lon="-1.15206">
        <ele>4.6</ele>
        <time>2020-06-02T08:51:23Z</time>
      </trkpt>
      <trkpt lat="46.15826" lon="-1.15206">
        <ele>4.6</ele>
        <time>2020-06-02T08:51:24Z</time>
      </trkpt>
      <trkpt lat="46.15826" lon="-1.15206">
        <ele>4.6</ele>
        <time>2020-06-02T08:51:25Z</time>
      </trkpt>
      <trkpt lat="46.15825" lon="-1.15206">
        <ele>4.6</ele>
        <time>2020-06-02T08:51:26Z</time>
      </trkpt>
      <trkpt lat="46.15825" lon="-1.15205">
        <ele>4.6</ele>
        <time>2020-06-02T08:51:27Z</time>
      </trkpt>
      <trkpt lat="46.15825" lon="-1.15205">
        <ele>4.6</ele>
        <time>2020-06-02T08:51:28Z</time>
      </trkpt>
      <trkpt lat="46.15825" lon="-1.15205">
        <ele>4.6</ele>
        <time>2020-06-02T08:51:29Z</time>
      </trkpt>
      <trkpt lat="46.15825" lon="-1.15205">
        <ele>4.6</ele>
        <time>2020-06-02T08:51:30Z</time>
      </trkpt>
      <trkpt lat="46.15825" lon="-1.15205">
        <ele>4.6</ele>
        <time>2020-06-02T08:51:31Z</time>
      </trkpt>
      <trkpt lat="46.15825" lon="-1.15205">
        <ele>4.6</ele>
        <time>2020-06-02T08:51:32Z</time>
      </trkpt>
      <trkpt lat="46.15825" lon="-1.15205">
        <ele>4.6</ele>
        <time>2020-06-02T08:51:33Z</time>
      </trkpt>
      <trkpt lat="46.15824" lon="-1.15205">
        <ele>4.6</ele>
        <time>2020-06-02T08:51:34Z</time>
      </trkpt>
      <trkpt lat="46.15823" lon="-1.15204">
        <ele>4.6</ele>
        <time>2020-06-02T08:51:35Z</time>
      </trkpt>
      <trkpt lat="46.15823" lon="-1.15203">
        <ele>4.6</ele>
        <time>2020-06-02T08:51:36Z</time>
      </trkpt>
      <trkpt lat="46.15823" lon="-1.15203">
        <ele>4.6</ele>
        <time>2020-06-02T08:51:37Z</time>
      </trkpt>
      <trkpt lat="46.15823" lon="-1.15203">
        <ele>4.6</ele>
        <time>2020-06-02T08:51:38Z</time>
      </trkpt>
      <trkpt lat="46.15823" lon="-1.15203">
        <ele>4.6</ele>
        <time>2020-06-02T08:51:39Z</time>
      </trkpt>
      <trkpt lat="46.15823" lon="-1.15203">
        <ele>4.6</ele>
        <time>2020-06-02T08:51:40Z</time>
      </trkpt>
      <trkpt lat="46.15823" lon="-1.15203">
        <ele>4.6</ele>
        <time>2020-06-02T08:51:41Z</time>
      </trkpt>
      <trkpt lat="46.15822" lon="-1.15203">
        <ele>4.6</ele>
        <time>2020-06-02T08:51:42Z</time>
      </trkpt>
      <trkpt lat="46.15822" lon="-1.15203">
        <ele>4.6</ele>
        <time>2020-06-02T08:51:43Z</time>
      </trkpt>
      <trkpt lat="46.15822" lon="-1.15203">
        <ele>4.6</ele>
        <time>2020-06-02T08:51:44Z</time>
      </trkpt>
      <trkpt lat="46.15822" lon="-1.15203">
        <ele>4.6</ele>
        <time>2020-06-02T08:51:45Z</time>
      </trkpt>
      <trkpt lat="46.15822" lon="-1.15203">
        <ele>4.6</ele>
        <time>2020-06-02T08:51:46Z</time>
      </trkpt>
      <trkpt lat="46.15822" lon="-1.15203">
        <ele>4.6</ele>
        <time>2020-06-02T08:51:47Z</time>
      </trkpt>
      <trkpt lat="46.15822" lon="-1.15204">
        <ele>4.6</ele>
        <time>2020-06-02T08:51:48Z</time>
      </trkpt>
      <trkpt lat="46.15822" lon="-1.15203">
        <ele>4.6</ele>
        <time>2020-06-02T08:51:49Z</time>
      </trkpt>
      <trkpt lat="46.15823" lon="-1.15203">
        <ele>4.6</ele>
        <time>2020-06-02T08:51:50Z</time>
      </trkpt>
      <trkpt lat="46.15823" lon="-1.15203">
        <ele>4.6</ele>
        <time>2020-06-02T08:51:51Z</time>
      </trkpt>
      <trkpt lat="46.15822" lon="-1.15203">
        <ele>4.6</ele>
        <time>2020-06-02T08:51:52Z</time>
      </trkpt>
      <trkpt lat="46.15822" lon="-1.15203">
        <ele>4.6</ele>
        <time>2020-06-02T08:51:53Z</time>
      </trkpt>
      <trkpt lat="46.15822" lon="-1.15203">
        <ele>4.6</ele>
        <time>2020-06-02T08:51:54Z</time>
      </trkpt>
      <trkpt lat="46.15822" lon="-1.15202">
        <ele>4.6</ele>
        <time>2020-06-02T08:51:55Z</time>
      </trkpt>
      <trkpt lat="46.15821" lon="-1.15202">
        <ele>4.6</ele>
        <time>2020-06-02T08:51:56Z</time>
      </trkpt>
      <trkpt lat="46.15821" lon="-1.15202">
        <ele>4.6</ele>
        <time>2020-06-02T08:51:57Z</time>
      </trkpt>
      <trkpt lat="46.15821" lon="-1.15203">
        <ele>4.6</ele>
        <time>2020-06-02T08:51:58Z</time>
      </trkpt>
      <trkpt lat="46.1582" lon="-1.15202">
        <ele>4.6</ele>
        <time>2020-06-02T08:51:59Z</time>
      </trkpt>
      <trkpt lat="46.15821" lon="-1.15203">
        <ele>4.6</ele>
        <time>2020-06-02T08:52:00Z</time>
      </trkpt>
      <trkpt lat="46.15821" lon="-1.15203">
        <ele>4.6</ele>
        <time>2020-06-02T08:52:01Z</time>
      </trkpt>
      <trkpt lat="46.15821" lon="-1.15203">
        <ele>4.6</ele>
        <time>2020-06-02T08:52:02Z</time>
      </trkpt>
      <trkpt lat="46.15821" lon="-1.15203">
        <ele>4.6</ele>
        <time>2020-06-02T08:52:03Z</time>
      </trkpt>
      <trkpt lat="46.15821" lon="-1.15203">
        <ele>4.6</ele>
        <time>2020-06-02T08:52:04Z</time>
      </trkpt>
      <trkpt lat="46.15821" lon="-1.15203">
        <ele>4.6</ele>
        <time>2020-06-02T08:52:05Z</time>
      </trkpt>
      <trkpt lat="46.15821" lon="-1.15203">
        <ele>4.6</ele>
        <time>2020-06-02T08:52:06Z</time>
      </trkpt>
      <trkpt lat="46.15821" lon="-1.15203">
        <ele>4.6</ele>
        <time>2020-06-02T08:52:07Z</time>
      </trkpt>
      <trkpt lat="46.15821" lon="-1.15203">
        <ele>4.6</ele>
        <time>2020-06-02T08:52:08Z</time>
      </trkpt>
      <trkpt lat="46.15821" lon="-1.15203">
        <ele>4.6</ele>
        <time>2020-06-02T08:52:09Z</time>
      </trkpt>
      <trkpt lat="46.15821" lon="-1.15203">
        <ele>4.6</ele>
        <time>2020-06-02T08:52:10Z</time>
      </trkpt>
      <trkpt lat="46.15821" lon="-1.15203">
        <ele>4.6</ele>
        <time>2020-06-02T08:52:11Z</time>
      </trkpt>
      <trkpt lat="46.15821" lon="-1.15203">
        <ele>4.6</ele>
        <time>2020-06-02T08:52:12Z</time>
      </trkpt>
      <trkpt lat="46.15821" lon="-1.15203">
        <ele>4.6</ele>
        <time>2020-06-02T08:52:13Z</time>
      </trkpt>
      <trkpt lat="46.15821" lon="-1.15203">
        <ele>4.6</ele>
        <time>2020-06-02T08:52:14Z</time>
      </trkpt>
      <trkpt lat="46.15821" lon="-1.15203">
        <ele>4.6</ele>
        <time>2020-06-02T08:52:15Z</time>
      </trkpt>
      <trkpt lat="46.15821" lon="-1.15203">
        <ele>4.6</ele>
        <time>2020-06-02T08:52:16Z</time>
      </trkpt>
      <trkpt lat="46.15821" lon="-1.15203">
        <ele>4.6</ele>
        <time>2020-06-02T08:52:17Z</time>
      </trkpt>
      <trkpt lat="46.15821" lon="-1.15203">
        <ele>4.6</ele>
        <time>2020-06-02T08:52:18Z</time>
      </trkpt>
      <trkpt lat="46.15821" lon="-1.15203">
        <ele>4.6</ele>
        <time>2020-06-02T08:52:19Z</time>
      </trkpt>
      <trkpt lat="46.15821" lon="-1.15203">
        <ele>4.6</ele>
        <time>2020-06-02T08:52:20Z</time>
      </trkpt>
      <trkpt lat="46.15821" lon="-1.15203">
        <ele>4.6</ele>
        <time>2020-06-02T08:52:21Z</time>
      </trkpt>
      <trkpt lat="46.15821" lon="-1.15203">
        <ele>4.6</ele>
        <time>2020-06-02T08:52:22Z</time>
      </trkpt>
      <trkpt lat="46.15821" lon="-1.15203">
        <ele>4.6</ele>
        <time>2020-06-02T08:52:23Z</time>
      </trkpt>
      <trkpt lat="46.15821" lon="-1.15203">
        <ele>4.6</ele>
        <time>2020-06-02T08:52:24Z</time>
      </trkpt>
      <trkpt lat="46.15821" lon="-1.15203">
        <ele>4.6</ele>
        <time>2020-06-02T08:52:25Z</time>
      </trkpt>
      <trkpt lat="46.15821" lon="-1.15203">
        <ele>4.6</ele>
        <time>2020-06-02T08:52:26Z</time>
      </trkpt>
      <trkpt lat="46.15821" lon="-1.15203">
        <ele>4.6</ele>
        <time>2020-06-02T08:52:27Z</time>
      </trkpt>
      <trkpt lat="46.15821" lon="-1.15203">
        <ele>4.6</ele>
        <time>2020-06-02T08:52:28Z</time>
      </trkpt>
      <trkpt lat="46.15821" lon="-1.15203">
        <ele>4.6</ele>
        <time>2020-06-02T08:52:29Z</time>
      </trkpt>
      <trkpt lat="46.15821" lon="-1.15203">
        <ele>4.6</ele>
        <time>2020-06-02T08:52:30Z</time>
      </trkpt>
      <trkpt lat="46.15821" lon="-1.15203">
        <ele>4.6</ele>
        <time>2020-06-02T08:52:31Z</time>
      </trkpt>
      <trkpt lat="46.15821" lon="-1.15203">
        <ele>4.6</ele>
        <time>2020-06-02T08:52:32Z</time>
      </trkpt>
      <trkpt lat="46.15821" lon="-1.15203">
        <ele>4.6</ele>
        <time>2020-06-02T08:52:33Z</time>
      </trkpt>
      <trkpt lat="46.15821" lon="-1.15203">
        <ele>4.6</ele>
        <time>2020-06-02T08:52:34Z</time>
      </trkpt>
      <trkpt lat="46.15821" lon="-1.15203">
        <ele>4.6</ele>
        <time>2020-06-02T08:52:35Z</time>
      </trkpt>
      <trkpt lat="46.15821" lon="-1.15203">
        <ele>4.6</ele>
        <time>2020-06-02T08:52:36Z</time>
      </trkpt>
      <trkpt lat="46.15821" lon="-1.15203">
        <ele>4.6</ele>
        <time>2020-06-02T08:52:37Z</time>
      </trkpt>
      <trkpt lat="46.15821" lon="-1.15203">
        <ele>4.6</ele>
        <time>2020-06-02T08:52:38Z</time>
      </trkpt>
      <trkpt lat="46.15821" lon="-1.15203">
        <ele>4.6</ele>
        <time>2020-06-02T08:52:39Z</time>
      </trkpt>
      <trkpt lat="46.15821" lon="-1.15203">
        <ele>4.6</ele>
        <time>2020-06-02T08:52:40Z</time>
      </trkpt>
      <trkpt lat="46.15821" lon="-1.15203">
        <ele>4.6</ele>
        <time>2020-06-02T08:52:41Z</time>
      </trkpt>
      <trkpt lat="46.15821" lon="-1.15203">
        <ele>4.6</ele>
        <time>2020-06-02T08:52:42Z</time>
      </trkpt>
      <trkpt lat="46.15821" lon="-1.15203">
        <ele>4.6</ele>
        <time>2020-06-02T08:52:43Z</time>
      </trkpt>
      <trkpt lat="46.15821" lon="-1.15203">
        <ele>4.6</ele>
        <time>2020-06-02T08:52:44Z</time>
      </trkpt>
      <trkpt lat="46.15821" lon="-1.15203">
        <ele>4.6</ele>
        <time>2020-06-02T08:52:45Z</time>
      </trkpt>
      <trkpt lat="46.15822" lon="-1.15203">
        <ele>4.6</ele>
        <time>2020-06-02T08:52:46Z</time>
      </trkpt>
      <trkpt lat="46.15822" lon="-1.15203">
        <ele>4.6</ele>
        <time>2020-06-02T08:52:47Z</time>
      </trkpt>
      <trkpt lat="46.15822" lon="-1.15203">
        <ele>4.6</ele>
        <time>2020-06-02T08:52:48Z</time>
      </trkpt>
      <trkpt lat="46.15822" lon="-1.15203">
        <ele>4.6</ele>
        <time>2020-06-02T08:52:49Z</time>
      </trkpt>
      <trkpt lat="46.15822" lon="-1.15203">
        <ele>4.6</ele>
        <time>2020-06-02T08:52:50Z</time>
      </trkpt>
      <trkpt lat="46.15822" lon="-1.15203">
        <ele>4.6</ele>
        <time>2020-06-02T08:52:51Z</time>
      </trkpt>
      <trkpt lat="46.15822" lon="-1.15203">
        <ele>4.6</ele>
        <time>2020-06-02T08:52:52Z</time>
      </trkpt>
      <trkpt lat="46.15822" lon="-1.15203">
        <ele>4.6</ele>
        <time>2020-06-02T08:52:53Z</time>
      </trkpt>
      <trkpt lat="46.15822" lon="-1.15203">
        <ele>4.6</ele>
        <time>2020-06-02T08:52:54Z</time>
      </trkpt>
      <trkpt lat="46.15822" lon="-1.15203">
        <ele>4.6</ele>
        <time>2020-06-02T08:52:55Z</time>
      </trkpt>
      <trkpt lat="46.15822" lon="-1.15203">
        <ele>4.6</ele>
        <time>2020-06-02T08:52:56Z</time>
      </trkpt>
      <trkpt lat="46.15822" lon="-1.15203">
        <ele>4.6</ele>
        <time>2020-06-02T08:52:57Z</time>
      </trkpt>
      <trkpt lat="46.15822" lon="-1.15203">
        <ele>4.6</ele>
        <time>2020-06-02T08:52:58Z</time>
      </trkpt>
      <trkpt lat="46.15822" lon="-1.15203">
        <ele>4.6</ele>
        <time>2020-06-02T08:52:59Z</time>
      </trkpt>
      <trkpt lat="46.15822" lon="-1.15203">
        <ele>4.6</ele>
        <time>2020-06-02T08:53:00Z</time>
      </trkpt>
      <trkpt lat="46.15822" lon="-1.15203">
        <ele>4.6</ele>
        <time>2020-06-02T08:53:01Z</time>
      </trkpt>
      <trkpt lat="46.15822" lon="-1.15203">
        <ele>4.6</ele>
        <time>2020-06-02T08:53:02Z</time>
      </trkpt>
      <trkpt lat="46.15822" lon="-1.15203">
        <ele>4.6</ele>
        <time>2020-06-02T08:53:03Z</time>
      </trkpt>
      <trkpt lat="46.15822" lon="-1.15203">
        <ele>4.6</ele>
        <time>2020-06-02T08:53:04Z</time>
      </trkpt>
      <trkpt lat="46.15822" lon="-1.15203">
        <ele>4.6</ele>
        <time>2020-06-02T08:53:05Z</time>
      </trkpt>
      <trkpt lat="46.15822" lon="-1.15203">
        <ele>4.6</ele>
        <time>2020-06-02T08:53:06Z</time>
      </trkpt>
      <trkpt lat="46.15822" lon="-1.15203">
        <ele>4.6</ele>
        <time>2020-06-02T08:53:07Z</time>
      </trkpt>
      <trkpt lat="46.15822" lon="-1.15203">
        <ele>4.6</ele>
        <time>2020-06-02T08:53:08Z</time>
      </trkpt>
      <trkpt lat="46.15822" lon="-1.15203">
        <ele>4.6</ele>
        <time>2020-06-02T08:53:09Z</time>
      </trkpt>
      <trkpt lat="46.15822" lon="-1.15203">
        <ele>4.6</ele>
        <time>2020-06-02T08:53:10Z</time>
      </trkpt>
      <trkpt lat="46.15822" lon="-1.15203">
        <ele>4.6</ele>
        <time>2020-06-02T08:53:11Z</time>
      </trkpt>
      <trkpt lat="46.15822" lon="-1.15203">
        <ele>4.6</ele>
        <time>2020-06-02T08:53:12Z</time>
      </trkpt>
      <trkpt lat="46.15822" lon="-1.15203">
        <ele>4.6</ele>
        <time>2020-06-02T08:53:13Z</time>
      </trkpt>
      <trkpt lat="46.15822" lon="-1.15203">
        <ele>4.6</ele>
        <time>2020-06-02T08:53:14Z</time>
      </trkpt>
      <trkpt lat="46.15822" lon="-1.15203">
        <ele>4.6</ele>
        <time>2020-06-02T08:53:15Z</time>
      </trkpt>
      <trkpt lat="46.15822" lon="-1.15203">
        <ele>4.6</ele>
        <time>2020-06-02T08:53:16Z</time>
      </trkpt>
      <trkpt lat="46.15822" lon="-1.15203">
        <ele>4.6</ele>
        <time>2020-06-02T08:53:17Z</time>
      </trkpt>
      <trkpt lat="46.15822" lon="-1.15203">
        <ele>4.6</ele>
        <time>2020-06-02T08:53:18Z</time>
      </trkpt>
      <trkpt lat="46.15822" lon="-1.15203">
        <ele>4.6</ele>
        <time>2020-06-02T08:53:19Z</time>
      </trkpt>
      <trkpt lat="46.15822" lon="-1.15203">
        <ele>4.6</ele>
        <time>2020-06-02T08:53:20Z</time>
      </trkpt>
      <trkpt lat="46.15822" lon="-1.15203">
        <ele>4.6</ele>
        <time>2020-06-02T08:53:21Z</time>
      </trkpt>
      <trkpt lat="46.15822" lon="-1.15203">
        <ele>4.6</ele>
        <time>2020-06-02T08:53:22Z</time>
      </trkpt>
      <trkpt lat="46.15822" lon="-1.15203">
        <ele>4.6</ele>
        <time>2020-06-02T08:53:23Z</time>
      </trkpt>
      <trkpt lat="46.15822" lon="-1.15203">
        <ele>4.6</ele>
        <time>2020-06-02T08:53:24Z</time>
      </trkpt>
      <trkpt lat="46.15822" lon="-1.15203">
        <ele>4.6</ele>
        <time>2020-06-02T08:53:25Z</time>
      </trkpt>
      <trkpt lat="46.15822" lon="-1.15203">
        <ele>4.6</ele>
        <time>2020-06-02T08:53:26Z</time>
      </trkpt>
      <trkpt lat="46.15822" lon="-1.15203">
        <ele>4.6</ele>
        <time>2020-06-02T08:53:27Z</time>
      </trkpt>
      <trkpt lat="46.15822" lon="-1.15203">
        <ele>4.6</ele>
        <time>2020-06-02T08:53:28Z</time>
      </trkpt>
      <trkpt lat="46.15822" lon="-1.15203">
        <ele>4.6</ele>
        <time>2020-06-02T08:53:29Z</time>
      </trkpt>
      <trkpt lat="46.15822" lon="-1.15203">
        <ele>4.6</ele>
        <time>2020-06-02T08:53:30Z</time>
      </trkpt>
      <trkpt lat="46.15822" lon="-1.15203">
        <ele>4.7</ele>
        <time>2020-06-02T08:53:31Z</time>
      </trkpt>
      <trkpt lat="46.15822" lon="-1.15203">
        <ele>4.7</ele>
        <time>2020-06-02T08:53:32Z</time>
      </trkpt>
      <trkpt lat="46.15822" lon="-1.15203">
        <ele>4.7</ele>
        <time>2020-06-02T08:53:33Z</time>
      </trkpt>
      <trkpt lat="46.15822" lon="-1.15203">
        <ele>4.7</ele>
        <time>2020-06-02T08:53:34Z</time>
      </trkpt>
      <trkpt lat="46.15822" lon="-1.15203">
        <ele>4.8</ele>
        <time>2020-06-02T08:53:35Z</time>
      </trkpt>
      <trkpt lat="46.15822" lon="-1.15203">
        <ele>4.8</ele>
        <time>2020-06-02T08:53:36Z</time>
      </trkpt>
      <trkpt lat="46.15822" lon="-1.15203">
        <ele>4.8</ele>
        <time>2020-06-02T08:53:37Z</time>
      </trkpt>
      <trkpt lat="46.15822" lon="-1.15203">
        <ele>4.8</ele>
        <time>2020-06-02T08:53:38Z</time>
      </trkpt>
      <trkpt lat="46.15822" lon="-1.15203">
        <ele>4.9</ele>
        <time>2020-06-02T08:53:39Z</time>
      </trkpt>
      <trkpt lat="46.15822" lon="-1.15203">
        <ele>4.9</ele>
        <time>2020-06-02T08:53:40Z</time>
      </trkpt>
      <trkpt lat="46.15822" lon="-1.15203">
        <ele>4.9</ele>
        <time>2020-06-02T08:53:41Z</time>
      </trkpt>
      <trkpt lat="46.15822" lon="-1.15203">
        <ele>4.9</ele>
        <time>2020-06-02T08:53:42Z</time>
      </trkpt>
      <trkpt lat="46.15822" lon="-1.15203">
        <ele>4.9</ele>
        <time>2020-06-02T08:53:43Z</time>
      </trkpt>
      <trkpt lat="46.15822" lon="-1.15203">
        <ele>5</ele>
        <time>2020-06-02T08:53:44Z</time>
      </trkpt>
      <trkpt lat="46.15822" lon="-1.15203">
        <ele>5</ele>
        <time>2020-06-02T08:53:45Z</time>
      </trkpt>
      <trkpt lat="46.15822" lon="-1.15203">
        <ele>5</ele>
        <time>2020-06-02T08:53:46Z</time>
      </trkpt>
      <trkpt lat="46.15822" lon="-1.15203">
        <ele>5</ele>
        <time>2020-06-02T08:53:47Z</time>
      </trkpt>
      <trkpt lat="46.15823" lon="-1.15203">
        <ele>5.1</ele>
        <time>2020-06-02T08:53:48Z</time>
      </trkpt>
      <trkpt lat="46.15823" lon="-1.15203">
        <ele>5.1</ele>
        <time>2020-06-02T08:53:49Z</time>
      </trkpt>
      <trkpt lat="46.15823" lon="-1.15203">
        <ele>5.1</ele>
        <time>2020-06-02T08:53:50Z</time>
      </trkpt>
      <trkpt lat="46.15823" lon="-1.15203">
        <ele>5.1</ele>
        <time>2020-06-02T08:53:51Z</time>
      </trkpt>
      <trkpt lat="46.15823" lon="-1.15203">
        <ele>5.2</ele>
        <time>2020-06-02T08:53:52Z</time>
      </trkpt>
      <trkpt lat="46.15823" lon="-1.15203">
        <ele>5.2</ele>
        <time>2020-06-02T08:53:53Z</time>
      </trkpt>
      <trkpt lat="46.15823" lon="-1.15203">
        <ele>5.2</ele>
        <time>2020-06-02T08:53:54Z</time>
      </trkpt>
      <trkpt lat="46.15823" lon="-1.15203">
        <ele>5.2</ele>
        <time>2020-06-02T08:53:55Z</time>
      </trkpt>
      <trkpt lat="46.15823" lon="-1.15203">
        <ele>5.2</ele>
        <time>2020-06-02T08:53:56Z</time>
      </trkpt>
      <trkpt lat="46.15823" lon="-1.15203">
        <ele>5.3</ele>
        <time>2020-06-02T08:53:57Z</time>
      </trkpt>
      <trkpt lat="46.15823" lon="-1.15203">
        <ele>5.3</ele>
        <time>2020-06-02T08:53:58Z</time>
      </trkpt>
      <trkpt lat="46.15823" lon="-1.15203">
        <ele>5.3</ele>
        <time>2020-06-02T08:53:59Z</time>
      </trkpt>
      <trkpt lat="46.15823" lon="-1.15203">
        <ele>5.3</ele>
        <time>2020-06-02T08:54:00Z</time>
      </trkpt>
      <trkpt lat="46.15823" lon="-1.15203">
        <ele>5.4</ele>
        <time>2020-06-02T08:54:01Z</time>
      </trkpt>
      <trkpt lat="46.15823" lon="-1.15203">
        <ele>5.4</ele>
        <time>2020-06-02T08:54:02Z</time>
      </trkpt>
      <trkpt lat="46.15823" lon="-1.15203">
        <ele>5.4</ele>
        <time>2020-06-02T08:54:03Z</time>
      </trkpt>
      <trkpt lat="46.15823" lon="-1.15203">
        <ele>5.4</ele>
        <time>2020-06-02T08:54:04Z</time>
      </trkpt>
      <trkpt lat="46.15823" lon="-1.15203">
        <ele>5.5</ele>
        <time>2020-06-02T08:54:05Z</time>
      </trkpt>
      <trkpt lat="46.15823" lon="-1.15203">
        <ele>5.4</ele>
        <time>2020-06-02T08:54:06Z</time>
      </trkpt>
      <trkpt lat="46.15823" lon="-1.15203">
        <ele>5.5</ele>
        <time>2020-06-02T08:54:07Z</time>
      </trkpt>
      <trkpt lat="46.15823" lon="-1.15203">
        <ele>5.5</ele>
        <time>2020-06-02T08:54:08Z</time>
      </trkpt>
      <trkpt lat="46.15823" lon="-1.15203">
        <ele>5.5</ele>
        <time>2020-06-02T08:54:09Z</time>
      </trkpt>
      <trkpt lat="46.15823" lon="-1.15203">
        <ele>5.5</ele>
        <time>2020-06-02T08:54:10Z</time>
      </trkpt>
      <trkpt lat="46.15823" lon="-1.15203">
        <ele>5.5</ele>
        <time>2020-06-02T08:54:11Z</time>
      </trkpt>
      <trkpt lat="46.15823" lon="-1.15203">
        <ele>5.6</ele>
        <time>2020-06-02T08:54:12Z</time>
      </trkpt>
      <trkpt lat="46.15823" lon="-1.15203">
        <ele>5.6</ele>
        <time>2020-06-02T08:54:13Z</time>
      </trkpt>
      <trkpt lat="46.15823" lon="-1.15203">
        <ele>5.6</ele>
        <time>2020-06-02T08:54:14Z</time>
      </trkpt>
      <trkpt lat="46.15823" lon="-1.15203">
        <ele>5.6</ele>
        <time>2020-06-02T08:54:15Z</time>
      </trkpt>
      <trkpt lat="46.15823" lon="-1.15203">
        <ele>5.7</ele>
        <time>2020-06-02T08:54:16Z</time>
      </trkpt>
      <trkpt lat="46.15823" lon="-1.15203">
        <ele>5.7</ele>
        <time>2020-06-02T08:54:17Z</time>
      </trkpt>
      <trkpt lat="46.15823" lon="-1.15203">
        <ele>5.7</ele>
        <time>2020-06-02T08:54:18Z</time>
      </trkpt>
      <trkpt lat="46.15823" lon="-1.15203">
        <ele>5.7</ele>
        <time>2020-06-02T08:54:19Z</time>
      </trkpt>
      <trkpt lat="46.15823" lon="-1.15203">
        <ele>5.7</ele>
        <time>2020-06-02T08:54:20Z</time>
      </trkpt>
      <trkpt lat="46.15823" lon="-1.15203">
        <ele>5.8</ele>
        <time>2020-06-02T08:54:21Z</time>
      </trkpt>
      <trkpt lat="46.15823" lon="-1.15203">
        <ele>5.8</ele>
        <time>2020-06-02T08:54:22Z</time>
      </trkpt>
      <trkpt lat="46.15823" lon="-1.15203">
        <ele>5.8</ele>
        <time>2020-06-02T08:54:23Z</time>
      </trkpt>
      <trkpt lat="46.15823" lon="-1.15203">
        <ele>5.8</ele>
        <time>2020-06-02T08:54:24Z</time>
      </trkpt>
      <trkpt lat="46.15823" lon="-1.15203">
        <ele>5.9</ele>
        <time>2020-06-02T08:54:25Z</time>
      </trkpt>
      <trkpt lat="46.15823" lon="-1.15203">
        <ele>5.9</ele>
        <time>2020-06-02T08:54:26Z</time>
      </trkpt>
      <trkpt lat="46.15823" lon="-1.15203">
        <ele>5.9</ele>
        <time>2020-06-02T08:54:27Z</time>
      </trkpt>
      <trkpt lat="46.15823" lon="-1.15203">
        <ele>5.9</ele>
        <time>2020-06-02T08:54:28Z</time>
      </trkpt>
      <trkpt lat="46.15823" lon="-1.15203">
        <ele>5.9</ele>
        <time>2020-06-02T08:54:29Z</time>
      </trkpt>
      <trkpt lat="46.15823" lon="-1.15203">
        <ele>6</ele>
        <time>2020-06-02T08:54:30Z</time>
      </trkpt>
      <trkpt lat="46.15823" lon="-1.15203">
        <ele>6</ele>
        <time>2020-06-02T08:54:31Z</time>
      </trkpt>
      <trkpt lat="46.15823" lon="-1.15203">
        <ele>6</ele>
        <time>2020-06-02T08:54:32Z</time>
      </trkpt>
      <trkpt lat="46.15823" lon="-1.15203">
        <ele>6</ele>
        <time>2020-06-02T08:54:33Z</time>
      </trkpt>
      <trkpt lat="46.15823" lon="-1.15203">
        <ele>6.1</ele>
        <time>2020-06-02T08:54:34Z</time>
      </trkpt>
      <trkpt lat="46.15823" lon="-1.15203">
        <ele>6.1</ele>
        <time>2020-06-02T08:54:35Z</time>
      </trkpt>
      <trkpt lat="46.15823" lon="-1.15203">
        <ele>6.1</ele>
        <time>2020-06-02T08:54:36Z</time>
      </trkpt>
      <trkpt lat="46.15823" lon="-1.15203">
        <ele>6.1</ele>
        <time>2020-06-02T08:54:37Z</time>
      </trkpt>
      <trkpt lat="46.15823" lon="-1.15203">
        <ele>6.1</ele>
        <time>2020-06-02T08:54:38Z</time>
      </trkpt>
      <trkpt lat="46.15823" lon="-1.15203">
        <ele>6.2</ele>
        <time>2020-06-02T08:54:39Z</time>
      </trkpt>
      <trkpt lat="46.15823" lon="-1.15203">
        <ele>6.2</ele>
        <time>2020-06-02T08:54:40Z</time>
      </trkpt>
      <trkpt lat="46.15823" lon="-1.15203">
        <ele>6.2</ele>
        <time>2020-06-02T08:54:41Z</time>
      </trkpt>
      <trkpt lat="46.15823" lon="-1.15203">
        <ele>6.2</ele>
        <time>2020-06-02T08:54:42Z</time>
      </trkpt>
      <trkpt lat="46.15823" lon="-1.15203">
        <ele>6.3</ele>
        <time>2020-06-02T08:54:43Z</time>
      </trkpt>
      <trkpt lat="46.15823" lon="-1.15203">
        <ele>6.3</ele>
        <time>2020-06-02T08:54:44Z</time>
      </trkpt>
      <trkpt lat="46.15823" lon="-1.15203">
        <ele>6.3</ele>
        <time>2020-06-02T08:54:45Z</time>
      </trkpt>
      <trkpt lat="46.15823" lon="-1.15203">
        <ele>6.3</ele>
        <time>2020-06-02T08:54:46Z</time>
      </trkpt>
      <trkpt lat="46.15823" lon="-1.15203">
        <ele>6.3</ele>
        <time>2020-06-02T08:54:47Z</time>
      </trkpt>
      <trkpt lat="46.15823" lon="-1.15203">
        <ele>6.4</ele>
        <time>2020-06-02T08:54:48Z</time>
      </trkpt>
      <trkpt lat="46.15823" lon="-1.15203">
        <ele>6.4</ele>
        <time>2020-06-02T08:54:49Z</time>
      </trkpt>
      <trkpt lat="46.15824" lon="-1.15204">
        <ele>6.4</ele>
        <time>2020-06-02T08:54:50Z</time>
      </trkpt>
      <trkpt lat="46.15824" lon="-1.15204">
        <ele>6.4</ele>
        <time>2020-06-02T08:54:51Z</time>
      </trkpt>
      <trkpt lat="46.15824" lon="-1.15204">
        <ele>6.4</ele>
        <time>2020-06-02T08:54:52Z</time>
      </trkpt>
      <trkpt lat="46.15824" lon="-1.15204">
        <ele>6.5</ele>
        <time>2020-06-02T08:54:53Z</time>
      </trkpt>
      <trkpt lat="46.15824" lon="-1.15204">
        <ele>6.5</ele>
        <time>2020-06-02T08:54:54Z</time>
      </trkpt>
      <trkpt lat="46.15824" lon="-1.15204">
        <ele>6.5</ele>
        <time>2020-06-02T08:54:55Z</time>
      </trkpt>
      <trkpt lat="46.15824" lon="-1.15204">
        <ele>6.5</ele>
        <time>2020-06-02T08:54:56Z</time>
      </trkpt>
      <trkpt lat="46.15824" lon="-1.15204">
        <ele>6.6</ele>
        <time>2020-06-02T08:54:57Z</time>
      </trkpt>
      <trkpt lat="46.15824" lon="-1.15204">
        <ele>6.6</ele>
        <time>2020-06-02T08:54:58Z</time>
      </trkpt>
      <trkpt lat="46.15824" lon="-1.15204">
        <ele>6.6</ele>
        <time>2020-06-02T08:54:59Z</time>
      </trkpt>
      <trkpt lat="46.15824" lon="-1.15204">
        <ele>6.6</ele>
        <time>2020-06-02T08:55:00Z</time>
      </trkpt>
      <trkpt lat="46.15824" lon="-1.15204">
        <ele>6.6</ele>
        <time>2020-06-02T08:55:01Z</time>
      </trkpt>
      <trkpt lat="46.15824" lon="-1.15204">
        <ele>6.7</ele>
        <time>2020-06-02T08:55:02Z</time>
      </trkpt>
      <trkpt lat="46.15824" lon="-1.15204">
        <ele>6.7</ele>
        <time>2020-06-02T08:55:03Z</time>
      </trkpt>
      <trkpt lat="46.15824" lon="-1.15204">
        <ele>6.7</ele>
        <time>2020-06-02T08:55:04Z</time>
      </trkpt>
      <trkpt lat="46.15824" lon="-1.15204">
        <ele>6.7</ele>
        <time>2020-06-02T08:55:05Z</time>
      </trkpt>
      <trkpt lat="46.15824" lon="-1.15204">
        <ele>6.8</ele>
        <time>2020-06-02T08:55:06Z</time>
      </trkpt>
      <trkpt lat="46.15824" lon="-1.15204">
        <ele>6.8</ele>
        <time>2020-06-02T08:55:07Z</time>
      </trkpt>
      <trkpt lat="46.15824" lon="-1.15204">
        <ele>6.8</ele>
        <time>2020-06-02T08:55:08Z</time>
      </trkpt>
      <trkpt lat="46.15824" lon="-1.15204">
        <ele>6.8</ele>
        <time>2020-06-02T08:55:09Z</time>
      </trkpt>
      <trkpt lat="46.15824" lon="-1.15204">
        <ele>6.8</ele>
        <time>2020-06-02T08:55:10Z</time>
      </trkpt>
      <trkpt lat="46.15824" lon="-1.15204">
        <ele>6.8</ele>
        <time>2020-06-02T08:55:11Z</time>
      </trkpt>
      <trkpt lat="46.15824" lon="-1.15204">
        <ele>6.8</ele>
        <time>2020-06-02T08:55:12Z</time>
      </trkpt>
      <trkpt lat="46.15824" lon="-1.15204">
        <ele>6.8</ele>
        <time>2020-06-02T08:55:13Z</time>
      </trkpt>
      <trkpt lat="46.15824" lon="-1.15204">
        <ele>6.8</ele>
        <time>2020-06-02T08:55:14Z</time>
      </trkpt>
      <trkpt lat="46.15824" lon="-1.15204">
        <ele>6.8</ele>
        <time>2020-06-02T08:55:15Z</time>
      </trkpt>
      <trkpt lat="46.15824" lon="-1.15204">
        <ele>6.8</ele>
        <time>2020-06-02T08:55:16Z</time>
      </trkpt>
      <trkpt lat="46.15824" lon="-1.15204">
        <ele>6.8</ele>
        <time>2020-06-02T08:55:17Z</time>
      </trkpt>
      <trkpt lat="46.15824" lon="-1.15204">
        <ele>6.8</ele>
        <time>2020-06-02T08:55:18Z</time>
      </trkpt>
      <trkpt lat="46.15824" lon="-1.15204">
        <ele>6.8</ele>
        <time>2020-06-02T08:55:19Z</time>
      </trkpt>
      <trkpt lat="46.15824" lon="-1.15204">
        <ele>6.8</ele>
        <time>2020-06-02T08:55:20Z</time>
      </trkpt>
      <trkpt lat="46.15824" lon="-1.15204">
        <ele>6.8</ele>
        <time>2020-06-02T08:55:21Z</time>
      </trkpt>
      <trkpt lat="46.15824" lon="-1.15204">
        <ele>6.8</ele>
        <time>2020-06-02T08:55:22Z</time>
      </trkpt>
      <trkpt lat="46.15824" lon="-1.15204">
        <ele>6.8</ele>
        <time>2020-06-02T08:55:23Z</time>
      </trkpt>
      <trkpt lat="46.15824" lon="-1.15204">
        <ele>6.8</ele>
        <time>2020-06-02T08:55:24Z</time>
      </trkpt>
      <trkpt lat="46.15824" lon="-1.15204">
        <ele>6.8</ele>
        <time>2020-06-02T08:55:25Z</time>
      </trkpt>
      <trkpt lat="46.15824" lon="-1.15204">
        <ele>6.8</ele>
        <time>2020-06-02T08:55:26Z</time>
      </trkpt>
      <trkpt lat="46.15772" lon="-1.15192">
        <ele>4.6</ele>
        <time>2020-06-02T09:29:06Z</time>
      </trkpt>
      <trkpt lat="46.15784" lon="-1.1521">
        <ele>4.6</ele>
        <time>2020-06-02T09:29:07Z</time>
      </trkpt>
      <trkpt lat="46.15797" lon="-1.15212">
        <ele>4.6</ele>
        <time>2020-06-02T09:29:08Z</time>
      </trkpt>
      <trkpt lat="46.15803" lon="-1.15215">
        <ele>4.6</ele>
        <time>2020-06-02T09:29:09Z</time>
      </trkpt>
      <trkpt lat="46.15804" lon="-1.15215">
        <ele>4.6</ele>
        <time>2020-06-02T09:29:10Z</time>
      </trkpt>
      <trkpt lat="46.15808" lon="-1.15213">
        <ele>4.6</ele>
        <time>2020-06-02T09:29:11Z</time>
      </trkpt>
      <trkpt lat="46.15808" lon="-1.15214">
        <ele>4.6</ele>
        <time>2020-06-02T09:29:12Z</time>
      </trkpt>
      <trkpt lat="46.15808" lon="-1.15228">
        <ele>4.7</ele>
        <time>2020-06-02T09:29:13Z</time>
      </trkpt>
      <trkpt lat="46.15807" lon="-1.15225">
        <ele>4.7</ele>
        <time>2020-06-02T09:29:14Z</time>
      </trkpt>
      <trkpt lat="46.15814" lon="-1.15218">
        <ele>4.7</ele>
        <time>2020-06-02T09:29:16Z</time>
      </trkpt>
      <trkpt lat="46.15815" lon="-1.15218">
        <ele>4.7</ele>
        <time>2020-06-02T09:29:17Z</time>
      </trkpt>
      <trkpt lat="46.15815" lon="-1.15217">
        <ele>4.7</ele>
        <time>2020-06-02T09:29:18Z</time>
      </trkpt>
      <trkpt lat="46.15815" lon="-1.15217">
        <ele>4.7</ele>
        <time>2020-06-02T09:29:19Z</time>
      </trkpt>
      <trkpt lat="46.15817" lon="-1.15217">
        <ele>4.7</ele>
        <time>2020-06-02T09:29:20Z</time>
      </trkpt>
      <trkpt lat="46.15818" lon="-1.15216">
        <ele>4.7</ele>
        <time>2020-06-02T09:29:21Z</time>
      </trkpt>
      <trkpt lat="46.15818" lon="-1.15215">
        <ele>4.7</ele>
        <time>2020-06-02T09:29:22Z</time>
      </trkpt>
      <trkpt lat="46.15818" lon="-1.15215">
        <ele>4.7</ele>
        <time>2020-06-02T09:29:23Z</time>
      </trkpt>
      <trkpt lat="46.15818" lon="-1.15215">
        <ele>4.7</ele>
        <time>2020-06-02T09:29:24Z</time>
      </trkpt>
      <trkpt lat="46.15818" lon="-1.15216">
        <ele>4.7</ele>
        <time>2020-06-02T09:29:25Z</time>
      </trkpt>
      <trkpt lat="46.15818" lon="-1.15216">
        <ele>4.7</ele>
        <time>2020-06-02T09:29:26Z</time>
      </trkpt>
      <trkpt lat="46.15818" lon="-1.15217">
        <ele>4.7</ele>
        <time>2020-06-02T09:29:27Z</time>
      </trkpt>
      <trkpt lat="46.15818" lon="-1.15217">
        <ele>4.7</ele>
        <time>2020-06-02T09:29:28Z</time>
      </trkpt>
      <trkpt lat="46.15818" lon="-1.15218">
        <ele>4.7</ele>
        <time>2020-06-02T09:29:29Z</time>
      </trkpt>
      <trkpt lat="46.15818" lon="-1.15218">
        <ele>4.7</ele>
        <time>2020-06-02T09:29:30Z</time>
      </trkpt>
      <trkpt lat="46.15817" lon="-1.15219">
        <ele>4.7</ele>
        <time>2020-06-02T09:29:31Z</time>
      </trkpt>
      <trkpt lat="46.15817" lon="-1.15223">
        <ele>4.7</ele>
        <time>2020-06-02T09:29:32Z</time>
      </trkpt>
      <trkpt lat="46.15816" lon="-1.15227">
        <ele>4.7</ele>
        <time>2020-06-02T09:29:33Z</time>
      </trkpt>
      <trkpt lat="46.15816" lon="-1.15232">
        <ele>4.7</ele>
        <time>2020-06-02T09:29:34Z</time>
      </trkpt>
      <trkpt lat="46.15816" lon="-1.15238">
        <ele>4.8</ele>
        <time>2020-06-02T09:29:35Z</time>
      </trkpt>
      <trkpt lat="46.15816" lon="-1.1524">
        <ele>4.8</ele>
        <time>2020-06-02T09:29:36Z</time>
      </trkpt>
      <trkpt lat="46.15816" lon="-1.15246">
        <ele>4.8</ele>
        <time>2020-06-02T09:29:37Z</time>
      </trkpt>
      <trkpt lat="46.15815" lon="-1.15252">
        <ele>4.8</ele>
        <time>2020-06-02T09:29:38Z</time>
      </trkpt>
      <trkpt lat="46.15815" lon="-1.15259">
        <ele>4.8</ele>
        <time>2020-06-02T09:29:39Z</time>
      </trkpt>
      <trkpt lat="46.15815" lon="-1.15265">
        <ele>4.8</ele>
        <time>2020-06-02T09:29:40Z</time>
      </trkpt>
      <trkpt lat="46.15815" lon="-1.15271">
        <ele>4.8</ele>
        <time>2020-06-02T09:29:41Z</time>
      </trkpt>
      <trkpt lat="46.15814" lon="-1.15277">
        <ele>4.9</ele>
        <time>2020-06-02T09:29:42Z</time>
      </trkpt>
      <trkpt lat="46.15814" lon="-1.15284">
        <ele>4.9</ele>
        <time>2020-06-02T09:29:43Z</time>
      </trkpt>
      <trkpt lat="46.15814" lon="-1.1529">
        <ele>4.9</ele>
        <time>2020-06-02T09:29:44Z</time>
      </trkpt>
      <trkpt lat="46.15813" lon="-1.15296">
        <ele>4.9</ele>
        <time>2020-06-02T09:29:45Z</time>
      </trkpt>
      <trkpt lat="46.15813" lon="-1.15302">
        <ele>4.9</ele>
        <time>2020-06-02T09:29:46Z</time>
      </trkpt>
      <trkpt lat="46.15813" lon="-1.15308">
        <ele>5</ele>
        <time>2020-06-02T09:29:47Z</time>
      </trkpt>
      <trkpt lat="46.15812" lon="-1.15314">
        <ele>4.9</ele>
        <time>2020-06-02T09:29:48Z</time>
      </trkpt>
      <trkpt lat="46.15812" lon="-1.1532">
        <ele>4.9</ele>
        <time>2020-06-02T09:29:49Z</time>
      </trkpt>
      <trkpt lat="46.15811" lon="-1.15325">
        <ele>4.9</ele>
        <time>2020-06-02T09:29:50Z</time>
      </trkpt>
      <trkpt lat="46.15811" lon="-1.1533">
        <ele>4.9</ele>
        <time>2020-06-02T09:29:51Z</time>
      </trkpt>
      <trkpt lat="46.1581" lon="-1.15335">
        <ele>4.9</ele>
        <time>2020-06-02T09:29:52Z</time>
      </trkpt>
      <trkpt lat="46.1581" lon="-1.1534">
        <ele>4.9</ele>
        <time>2020-06-02T09:29:53Z</time>
      </trkpt>
      <trkpt lat="46.1581" lon="-1.15345">
        <ele>4.9</ele>
        <time>2020-06-02T09:29:54Z</time>
      </trkpt>
      <trkpt lat="46.1581" lon="-1.15349">
        <ele>4.9</ele>
        <time>2020-06-02T09:29:55Z</time>
      </trkpt>
      <trkpt lat="46.1581" lon="-1.15354">
        <ele>4.8</ele>
        <time>2020-06-02T09:29:56Z</time>
      </trkpt>
      <trkpt lat="46.15812" lon="-1.15358">
        <ele>4.8</ele>
        <time>2020-06-02T09:29:57Z</time>
      </trkpt>
      <trkpt lat="46.15813" lon="-1.15359">
        <ele>4.8</ele>
        <time>2020-06-02T09:29:58Z</time>
      </trkpt>
      <trkpt lat="46.15813" lon="-1.1536">
        <ele>4.8</ele>
        <time>2020-06-02T09:29:59Z</time>
      </trkpt>
      <trkpt lat="46.15814" lon="-1.15361">
        <ele>4.8</ele>
        <time>2020-06-02T09:30:00Z</time>
      </trkpt>
      <trkpt lat="46.15813" lon="-1.15362">
        <ele>4.8</ele>
        <time>2020-06-02T09:30:01Z</time>
      </trkpt>
      <trkpt lat="46.15812" lon="-1.15363">
        <ele>4.8</ele>
        <time>2020-06-02T09:30:02Z</time>
      </trkpt>
      <trkpt lat="46.15812" lon="-1.15365">
        <ele>4.8</ele>
        <time>2020-06-02T09:30:03Z</time>
      </trkpt>
      <trkpt lat="46.15812" lon="-1.15366">
        <ele>4.8</ele>
        <time>2020-06-02T09:30:04Z</time>
      </trkpt>
      <trkpt lat="46.15812" lon="-1.15366">
        <ele>4.8</ele>
        <time>2020-06-02T09:30:05Z</time>
      </trkpt>
      <trkpt lat="46.15812" lon="-1.15366">
        <ele>4.8</ele>
        <time>2020-06-02T09:30:06Z</time>
      </trkpt>
      <trkpt lat="46.15812" lon="-1.15367">
        <ele>4.7</ele>
        <time>2020-06-02T09:30:07Z</time>
      </trkpt>
      <trkpt lat="46.15813" lon="-1.15368">
        <ele>4.7</ele>
        <time>2020-06-02T09:30:08Z</time>
      </trkpt>
      <trkpt lat="46.15813" lon="-1.15369">
        <ele>4.7</ele>
        <time>2020-06-02T09:30:09Z</time>
      </trkpt>
      <trkpt lat="46.15815" lon="-1.1537">
        <ele>4.8</ele>
        <time>2020-06-02T09:30:10Z</time>
      </trkpt>
      <trkpt lat="46.15818" lon="-1.15372">
        <ele>4.8</ele>
        <time>2020-06-02T09:30:11Z</time>
      </trkpt>
      <trkpt lat="46.15821" lon="-1.15374">
        <ele>4.8</ele>
        <time>2020-06-02T09:30:12Z</time>
      </trkpt>
      <trkpt lat="46.15824" lon="-1.15375">
        <ele>4.8</ele>
        <time>2020-06-02T09:30:13Z</time>
      </trkpt>
      <trkpt lat="46.15826" lon="-1.15378">
        <ele>4.8</ele>
        <time>2020-06-02T09:30:14Z</time>
      </trkpt>
      <trkpt lat="46.15829" lon="-1.15382">
        <ele>4.8</ele>
        <time>2020-06-02T09:30:15Z</time>
      </trkpt>
      <trkpt lat="46.15832" lon="-1.15386">
        <ele>4.8</ele>
        <time>2020-06-02T09:30:16Z</time>
      </trkpt>
      <trkpt lat="46.15835" lon="-1.15387">
        <ele>4.8</ele>
        <time>2020-06-02T09:30:17Z</time>
      </trkpt>
      <trkpt lat="46.15837" lon="-1.15388">
        <ele>4.8</ele>
        <time>2020-06-02T09:30:18Z</time>
      </trkpt>
      <trkpt lat="46.15839" lon="-1.15387">
        <ele>4.8</ele>
        <time>2020-06-02T09:30:19Z</time>
      </trkpt>
      <trkpt lat="46.15841" lon="-1.15387">
        <ele>4.8</ele>
        <time>2020-06-02T09:30:20Z</time>
      </trkpt>
      <trkpt lat="46.15842" lon="-1.15387">
        <ele>4.9</ele>
        <time>2020-06-02T09:30:21Z</time>
      </trkpt>
      <trkpt lat="46.15843" lon="-1.15387">
        <ele>4.9</ele>
        <time>2020-06-02T09:30:22Z</time>
      </trkpt>
      <trkpt lat="46.15846" lon="-1.15388">
        <ele>4.9</ele>
        <time>2020-06-02T09:30:23Z</time>
      </trkpt>
      <trkpt lat="46.15847" lon="-1.15388">
        <ele>4.9</ele>
        <time>2020-06-02T09:30:24Z</time>
      </trkpt>
      <trkpt lat="46.1585" lon="-1.15389">
        <ele>4.9</ele>
        <time>2020-06-02T09:30:25Z</time>
      </trkpt>
      <trkpt lat="46.15853" lon="-1.1539">
        <ele>4.9</ele>
        <time>2020-06-02T09:30:26Z</time>
      </trkpt>
      <trkpt lat="46.15857" lon="-1.1539">
        <ele>4.9</ele>
        <time>2020-06-02T09:30:27Z</time>
      </trkpt>
      <trkpt lat="46.1586" lon="-1.15391">
        <ele>4.9</ele>
        <time>2020-06-02T09:30:28Z</time>
      </trkpt>
      <trkpt lat="46.15861" lon="-1.15392">
        <ele>4.9</ele>
        <time>2020-06-02T09:30:29Z</time>
      </trkpt>
      <trkpt lat="46.15864" lon="-1.15393">
        <ele>5</ele>
        <time>2020-06-02T09:30:30Z</time>
      </trkpt>
      <trkpt lat="46.15867" lon="-1.15395">
        <ele>5</ele>
        <time>2020-06-02T09:30:31Z</time>
      </trkpt>
      <trkpt lat="46.15868" lon="-1.15396">
        <ele>5</ele>
        <time>2020-06-02T09:30:32Z</time>
      </trkpt>
      <trkpt lat="46.15871" lon="-1.15399">
        <ele>5</ele>
        <time>2020-06-02T09:30:33Z</time>
      </trkpt>
      <trkpt lat="46.15872" lon="-1.15399">
        <ele>5</ele>
        <time>2020-06-02T09:30:34Z</time>
      </trkpt>
      <trkpt lat="46.15872" lon="-1.154">
        <ele>5</ele>
        <time>2020-06-02T09:30:35Z</time>
      </trkpt>
      <trkpt lat="46.15873" lon="-1.15401">
        <ele>5</ele>
        <time>2020-06-02T09:30:36Z</time>
      </trkpt>
      <trkpt lat="46.15874" lon="-1.15402">
        <ele>5</ele>
        <time>2020-06-02T09:30:37Z</time>
      </trkpt>
      <trkpt lat="46.15877" lon="-1.15402">
        <ele>5.1</ele>
        <time>2020-06-02T09:30:38Z</time>
      </trkpt>
      <trkpt lat="46.15878" lon="-1.15402">
        <ele>5.1</ele>
        <time>2020-06-02T09:30:39Z</time>
      </trkpt>
      <trkpt lat="46.15881" lon="-1.15401">
        <ele>5.1</ele>
        <time>2020-06-02T09:30:40Z</time>
      </trkpt>
      <trkpt lat="46.15881" lon="-1.154">
        <ele>5.1</ele>
        <time>2020-06-02T09:30:41Z</time>
      </trkpt>
      <trkpt lat="46.15885" lon="-1.154">
        <ele>5.2</ele>
        <time>2020-06-02T09:30:42Z</time>
      </trkpt>
      <trkpt lat="46.15886" lon="-1.154">
        <ele>5.2</ele>
        <time>2020-06-02T09:30:43Z</time>
      </trkpt>
      <trkpt lat="46.15889" lon="-1.15401">
        <ele>5.2</ele>
        <time>2020-06-02T09:30:44Z</time>
      </trkpt>
      <trkpt lat="46.15892" lon="-1.15401">
        <ele>5.3</ele>
        <time>2020-06-02T09:30:45Z</time>
      </trkpt>
      <trkpt lat="46.159" lon="-1.15399">
        <ele>5.4</ele>
        <time>2020-06-02T09:30:46Z</time>
      </trkpt>
      <trkpt lat="46.15906" lon="-1.15397">
        <ele>5.5</ele>
        <time>2020-06-02T09:30:47Z</time>
      </trkpt>
      <trkpt lat="46.15912" lon="-1.15395">
        <ele>5.6</ele>
        <time>2020-06-02T09:30:48Z</time>
      </trkpt>
      <trkpt lat="46.15918" lon="-1.15393">
        <ele>5.7</ele>
        <time>2020-06-02T09:30:49Z</time>
      </trkpt>
      <trkpt lat="46.15923" lon="-1.15392">
        <ele>5.7</ele>
        <time>2020-06-02T09:30:50Z</time>
      </trkpt>
      <trkpt lat="46.15928" lon="-1.1539">
        <ele>5.7</ele>
        <time>2020-06-02T09:30:51Z</time>
      </trkpt>
      <trkpt lat="46.15931" lon="-1.15389">
        <ele>5.8</ele>
        <time>2020-06-02T09:30:52Z</time>
      </trkpt>
      <trkpt lat="46.15935" lon="-1.15389">
        <ele>5.8</ele>
        <time>2020-06-02T09:30:53Z</time>
      </trkpt>
      <trkpt lat="46.15939" lon="-1.15386">
        <ele>5.8</ele>
        <time>2020-06-02T09:30:54Z</time>
      </trkpt>
      <trkpt lat="46.15942" lon="-1.15384">
        <ele>5.9</ele>
        <time>2020-06-02T09:30:55Z</time>
      </trkpt>
      <trkpt lat="46.15944" lon="-1.15382">
        <ele>5.9</ele>
        <time>2020-06-02T09:30:56Z</time>
      </trkpt>
      <trkpt lat="46.15948" lon="-1.15379">
        <ele>5.9</ele>
        <time>2020-06-02T09:30:57Z</time>
      </trkpt>
      <trkpt lat="46.15951" lon="-1.15378">
        <ele>6</ele>
        <time>2020-06-02T09:30:58Z</time>
      </trkpt>
      <trkpt lat="46.15954" lon="-1.15376">
        <ele>6</ele>
        <time>2020-06-02T09:30:59Z</time>
      </trkpt>
      <trkpt lat="46.15958" lon="-1.15374">
        <ele>6.1</ele>
        <time>2020-06-02T09:31:00Z</time>
      </trkpt>
      <trkpt lat="46.15962" lon="-1.15373">
        <ele>6.2</ele>
        <time>2020-06-02T09:31:01Z</time>
      </trkpt>
      <trkpt lat="46.15966" lon="-1.15373">
        <ele>6.3</ele>
        <time>2020-06-02T09:31:02Z</time>
      </trkpt>
      <trkpt lat="46.15969" lon="-1.15374">
        <ele>6.4</ele>
        <time>2020-06-02T09:31:03Z</time>
      </trkpt>
      <trkpt lat="46.15973" lon="-1.15374">
        <ele>6.5</ele>
        <time>2020-06-02T09:31:04Z</time>
      </trkpt>
      <trkpt lat="46.15977" lon="-1.15374">
        <ele>6.6</ele>
        <time>2020-06-02T09:31:05Z</time>
      </trkpt>
      <trkpt lat="46.15981" lon="-1.15372">
        <ele>6.7</ele>
        <time>2020-06-02T09:31:06Z</time>
      </trkpt>
      <trkpt lat="46.15986" lon="-1.15369">
        <ele>6.8</ele>
        <time>2020-06-02T09:31:07Z</time>
      </trkpt>
      <trkpt lat="46.1599" lon="-1.15367">
        <ele>6.8</ele>
        <time>2020-06-02T09:31:08Z</time>
      </trkpt>
      <trkpt lat="46.15997" lon="-1.15364">
        <ele>6.9</ele>
        <time>2020-06-02T09:31:09Z</time>
      </trkpt>
      <trkpt lat="46.16002" lon="-1.15362">
        <ele>7</ele>
        <time>2020-06-02T09:31:10Z</time>
      </trkpt>
      <trkpt lat="46.16005" lon="-1.1536">
        <ele>7</ele>
        <time>2020-06-02T09:31:11Z</time>
      </trkpt>
      <trkpt lat="46.16009" lon="-1.15358">
        <ele>7.1</ele>
        <time>2020-06-02T09:31:12Z</time>
      </trkpt>
      <trkpt lat="46.16012" lon="-1.15357">
        <ele>7.1</ele>
        <time>2020-06-02T09:31:13Z</time>
      </trkpt>
      <trkpt lat="46.16018" lon="-1.15348">
        <ele>7.1</ele>
        <time>2020-06-02T09:31:14Z</time>
      </trkpt>
      <trkpt lat="46.16021" lon="-1.15345">
        <ele>7.1</ele>
        <time>2020-06-02T09:31:15Z</time>
      </trkpt>
      <trkpt lat="46.16024" lon="-1.15345">
        <ele>7.2</ele>
        <time>2020-06-02T09:31:16Z</time>
      </trkpt>
      <trkpt lat="46.16025" lon="-1.15345">
        <ele>7.2</ele>
        <time>2020-06-02T09:31:17Z</time>
      </trkpt>
      <trkpt lat="46.16028" lon="-1.15344">
        <ele>7.2</ele>
        <time>2020-06-02T09:31:18Z</time>
      </trkpt>
      <trkpt lat="46.16032" lon="-1.15345">
        <ele>7.2</ele>
        <time>2020-06-02T09:31:19Z</time>
      </trkpt>
      <trkpt lat="46.16036" lon="-1.15344">
        <ele>7.2</ele>
        <time>2020-06-02T09:31:20Z</time>
      </trkpt>
      <trkpt lat="46.16041" lon="-1.15344">
        <ele>7.3</ele>
        <time>2020-06-02T09:31:21Z</time>
      </trkpt>
      <trkpt lat="46.16044" lon="-1.15343">
        <ele>7.3</ele>
        <time>2020-06-02T09:31:22Z</time>
      </trkpt>
      <trkpt lat="46.16049" lon="-1.15341">
        <ele>7.3</ele>
        <time>2020-06-02T09:31:23Z</time>
      </trkpt>
      <trkpt lat="46.16052" lon="-1.15341">
        <ele>7.3</ele>
        <time>2020-06-02T09:31:24Z</time>
      </trkpt>
      <trkpt lat="46.16056" lon="-1.1534">
        <ele>7.4</ele>
        <time>2020-06-02T09:31:25Z</time>
      </trkpt>
      <trkpt lat="46.1606" lon="-1.1534">
        <ele>7.4</ele>
        <time>2020-06-02T09:31:26Z</time>
      </trkpt>
      <trkpt lat="46.16064" lon="-1.15339">
        <ele>7.4</ele>
        <time>2020-06-02T09:31:27Z</time>
      </trkpt>
      <trkpt lat="46.16069" lon="-1.15335">
        <ele>7.5</ele>
        <time>2020-06-02T09:31:28Z</time>
      </trkpt>
      <trkpt lat="46.16072" lon="-1.15333">
        <ele>7.5</ele>
        <time>2020-06-02T09:31:29Z</time>
      </trkpt>
      <trkpt lat="46.16075" lon="-1.15332">
        <ele>7.5</ele>
        <time>2020-06-02T09:31:30Z</time>
      </trkpt>
      <trkpt lat="46.16078" lon="-1.15331">
        <ele>7.5</ele>
        <time>2020-06-02T09:31:31Z</time>
      </trkpt>
      <trkpt lat="46.16081" lon="-1.1533">
        <ele>7.5</ele>
        <time>2020-06-02T09:31:32Z</time>
      </trkpt>
      <trkpt lat="46.16084" lon="-1.1533">
        <ele>7.6</ele>
        <time>2020-06-02T09:31:33Z</time>
      </trkpt>
      <trkpt lat="46.16086" lon="-1.1533">
        <ele>7.6</ele>
        <time>2020-06-02T09:31:34Z</time>
      </trkpt>
      <trkpt lat="46.1609" lon="-1.1533">
        <ele>7.6</ele>
        <time>2020-06-02T09:31:35Z</time>
      </trkpt>
      <trkpt lat="46.16094" lon="-1.1533">
        <ele>7.6</ele>
        <time>2020-06-02T09:31:36Z</time>
      </trkpt>
      <trkpt lat="46.16099" lon="-1.15328">
        <ele>7.6</ele>
        <time>2020-06-02T09:31:37Z</time>
      </trkpt>
      <trkpt lat="46.16103" lon="-1.15324">
        <ele>7.7</ele>
        <time>2020-06-02T09:31:38Z</time>
      </trkpt>
      <trkpt lat="46.16105" lon="-1.15323">
        <ele>7.7</ele>
        <time>2020-06-02T09:31:39Z</time>
      </trkpt>
      <trkpt lat="46.16109" lon="-1.15319">
        <ele>7.7</ele>
        <time>2020-06-02T09:31:40Z</time>
      </trkpt>
      <trkpt lat="46.16113" lon="-1.15314">
        <ele>7.7</ele>
        <time>2020-06-02T09:31:41Z</time>
      </trkpt>
      <trkpt lat="46.16116" lon="-1.15312">
        <ele>7.7</ele>
        <time>2020-06-02T09:31:42Z</time>
      </trkpt>
      <trkpt lat="46.16119" lon="-1.15312">
        <ele>7.7</ele>
        <time>2020-06-02T09:31:43Z</time>
      </trkpt>
      <trkpt lat="46.16123" lon="-1.15311">
        <ele>7.7</ele>
        <time>2020-06-02T09:31:44Z</time>
      </trkpt>
      <trkpt lat="46.16127" lon="-1.1531">
        <ele>7.7</ele>
        <time>2020-06-02T09:31:45Z</time>
      </trkpt>
      <trkpt lat="46.16131" lon="-1.15308">
        <ele>7.7</ele>
        <time>2020-06-02T09:31:46Z</time>
      </trkpt>
      <trkpt lat="46.16135" lon="-1.15308">
        <ele>7.7</ele>
        <time>2020-06-02T09:31:47Z</time>
      </trkpt>
      <trkpt lat="46.16138" lon="-1.15307">
        <ele>7.8</ele>
        <time>2020-06-02T09:31:48Z</time>
      </trkpt>
      <trkpt lat="46.16141" lon="-1.15306">
        <ele>7.8</ele>
        <time>2020-06-02T09:31:49Z</time>
      </trkpt>
      <trkpt lat="46.16142" lon="-1.15306">
        <ele>7.8</ele>
        <time>2020-06-02T09:31:50Z</time>
      </trkpt>
      <trkpt lat="46.16144" lon="-1.15306">
        <ele>7.8</ele>
        <time>2020-06-02T09:31:51Z</time>
      </trkpt>
      <trkpt lat="46.16146" lon="-1.15306">
        <ele>7.8</ele>
        <time>2020-06-02T09:31:52Z</time>
      </trkpt>
      <trkpt lat="46.16147" lon="-1.15306">
        <ele>7.8</ele>
        <time>2020-06-02T09:31:53Z</time>
      </trkpt>
      <trkpt lat="46.16149" lon="-1.15305">
        <ele>7.8</ele>
        <time>2020-06-02T09:31:54Z</time>
      </trkpt>
      <trkpt lat="46.16151" lon="-1.15304">
        <ele>7.8</ele>
        <time>2020-06-02T09:31:55Z</time>
      </trkpt>
      <trkpt lat="46.16151" lon="-1.15304">
        <ele>7.8</ele>
        <time>2020-06-02T09:31:56Z</time>
      </trkpt>
      <trkpt lat="46.16152" lon="-1.15303">
        <ele>7.8</ele>
        <time>2020-06-02T09:31:57Z</time>
      </trkpt>
      <trkpt lat="46.16152" lon="-1.15303">
        <ele>7.8</ele>
        <time>2020-06-02T09:31:58Z</time>
      </trkpt>
      <trkpt lat="46.16153" lon="-1.15303">
        <ele>7.9</ele>
        <time>2020-06-02T09:31:59Z</time>
      </trkpt>
      <trkpt lat="46.16153" lon="-1.15303">
        <ele>7.9</ele>
        <time>2020-06-02T09:32:00Z</time>
      </trkpt>
      <trkpt lat="46.16153" lon="-1.15303">
        <ele>7.9</ele>
        <time>2020-06-02T09:32:01Z</time>
      </trkpt>
      <trkpt lat="46.16153" lon="-1.15302">
        <ele>7.9</ele>
        <time>2020-06-02T09:32:02Z</time>
      </trkpt>
      <trkpt lat="46.16154" lon="-1.15301">
        <ele>7.9</ele>
        <time>2020-06-02T09:32:03Z</time>
      </trkpt>
      <trkpt lat="46.16155" lon="-1.15303">
        <ele>7.9</ele>
        <time>2020-06-02T09:32:04Z</time>
      </trkpt>
      <trkpt lat="46.16155" lon="-1.15302">
        <ele>7.9</ele>
        <time>2020-06-02T09:32:05Z</time>
      </trkpt>
      <trkpt lat="46.16156" lon="-1.15299">
        <ele>7.9</ele>
        <time>2020-06-02T09:32:06Z</time>
      </trkpt>
      <trkpt lat="46.16158" lon="-1.15295">
        <ele>7.9</ele>
        <time>2020-06-02T09:32:07Z</time>
      </trkpt>
      <trkpt lat="46.16159" lon="-1.15295">
        <ele>7.9</ele>
        <time>2020-06-02T09:32:08Z</time>
      </trkpt>
      <trkpt lat="46.1616" lon="-1.15296">
        <ele>7.9</ele>
        <time>2020-06-02T09:32:09Z</time>
      </trkpt>
      <trkpt lat="46.16161" lon="-1.15296">
        <ele>7.9</ele>
        <time>2020-06-02T09:32:10Z</time>
      </trkpt>
      <trkpt lat="46.16162" lon="-1.15296">
        <ele>7.9</ele>
        <time>2020-06-02T09:32:11Z</time>
      </trkpt>
      <trkpt lat="46.16162" lon="-1.15296">
        <ele>7.9</ele>
        <time>2020-06-02T09:32:12Z</time>
      </trkpt>
      <trkpt lat="46.16164" lon="-1.15296">
        <ele>7.9</ele>
        <time>2020-06-02T09:32:13Z</time>
      </trkpt>
      <trkpt lat="46.16165" lon="-1.15295">
        <ele>8</ele>
        <time>2020-06-02T09:32:14Z</time>
      </trkpt>
      <trkpt lat="46.16168" lon="-1.15293">
        <ele>8</ele>
        <time>2020-06-02T09:32:15Z</time>
      </trkpt>
      <trkpt lat="46.16171" lon="-1.1529">
        <ele>8.1</ele>
        <time>2020-06-02T09:32:16Z</time>
      </trkpt>
      <trkpt lat="46.16175" lon="-1.15288">
        <ele>8.1</ele>
        <time>2020-06-02T09:32:17Z</time>
      </trkpt>
      <trkpt lat="46.16179" lon="-1.15285">
        <ele>8.3</ele>
        <time>2020-06-02T09:32:18Z</time>
      </trkpt>
      <trkpt lat="46.16184" lon="-1.15281">
        <ele>8.5</ele>
        <time>2020-06-02T09:32:19Z</time>
      </trkpt>
      <trkpt lat="46.16187" lon="-1.1528">
        <ele>8.6</ele>
        <time>2020-06-02T09:32:20Z</time>
      </trkpt>
      <trkpt lat="46.16191" lon="-1.15278">
        <ele>8.7</ele>
        <time>2020-06-02T09:32:21Z</time>
      </trkpt>
      <trkpt lat="46.16194" lon="-1.15276">
        <ele>8.8</ele>
        <time>2020-06-02T09:32:22Z</time>
      </trkpt>
      <trkpt lat="46.16196" lon="-1.15274">
        <ele>8.9</ele>
        <time>2020-06-02T09:32:23Z</time>
      </trkpt>
      <trkpt lat="46.16199" lon="-1.15272">
        <ele>9.1</ele>
        <time>2020-06-02T09:32:24Z</time>
      </trkpt>
      <trkpt lat="46.16202" lon="-1.15269">
        <ele>9.2</ele>
        <time>2020-06-02T09:32:25Z</time>
      </trkpt>
      <trkpt lat="46.16205" lon="-1.15268">
        <ele>9.3</ele>
        <time>2020-06-02T09:32:26Z</time>
      </trkpt>
      <trkpt lat="46.16209" lon="-1.15266">
        <ele>9.3</ele>
        <time>2020-06-02T09:32:27Z</time>
      </trkpt>
      <trkpt lat="46.16211" lon="-1.15266">
        <ele>9.4</ele>
        <time>2020-06-02T09:32:28Z</time>
      </trkpt>
      <trkpt lat="46.16215" lon="-1.15263">
        <ele>9.4</ele>
        <time>2020-06-02T09:32:29Z</time>
      </trkpt>
      <trkpt lat="46.16219" lon="-1.1526">
        <ele>9.5</ele>
        <time>2020-06-02T09:32:30Z</time>
      </trkpt>
      <trkpt lat="46.16221" lon="-1.15259">
        <ele>9.5</ele>
        <time>2020-06-02T09:32:31Z</time>
      </trkpt>
      <trkpt lat="46.16224" lon="-1.15257">
        <ele>9.5</ele>
        <time>2020-06-02T09:32:32Z</time>
      </trkpt>
      <trkpt lat="46.16228" lon="-1.15256">
        <ele>9.6</ele>
        <time>2020-06-02T09:32:33Z</time>
      </trkpt>
      <trkpt lat="46.16232" lon="-1.15253">
        <ele>9.6</ele>
        <time>2020-06-02T09:32:34Z</time>
      </trkpt>
      <trkpt lat="46.16236" lon="-1.15252">
        <ele>9.7</ele>
        <time>2020-06-02T09:32:35Z</time>
      </trkpt>
      <trkpt lat="46.16237" lon="-1.15252">
        <ele>9.7</ele>
        <time>2020-06-02T09:32:36Z</time>
      </trkpt>
      <trkpt lat="46.16241" lon="-1.15251">
        <ele>9.8</ele>
        <time>2020-06-02T09:32:37Z</time>
      </trkpt>
      <trkpt lat="46.16242" lon="-1.1525">
        <ele>9.8</ele>
        <time>2020-06-02T09:32:38Z</time>
      </trkpt>
      <trkpt lat="46.16245" lon="-1.15248">
        <ele>9.8</ele>
        <time>2020-06-02T09:32:39Z</time>
      </trkpt>
      <trkpt lat="46.1625" lon="-1.15247">
        <ele>9.9</ele>
        <time>2020-06-02T09:32:40Z</time>
      </trkpt>
      <trkpt lat="46.16254" lon="-1.15244">
        <ele>10</ele>
        <time>2020-06-02T09:32:41Z</time>
      </trkpt>
      <trkpt lat="46.16257" lon="-1.15241">
        <ele>10</ele>
        <time>2020-06-02T09:32:42Z</time>
      </trkpt>
      <trkpt lat="46.16261" lon="-1.1524">
        <ele>10.1</ele>
        <time>2020-06-02T09:32:43Z</time>
      </trkpt>
      <trkpt lat="46.16264" lon="-1.15238">
        <ele>10.1</ele>
        <time>2020-06-02T09:32:44Z</time>
      </trkpt>
      <trkpt lat="46.16268" lon="-1.15237">
        <ele>10.2</ele>
        <time>2020-06-02T09:32:45Z</time>
      </trkpt>
      <trkpt lat="46.16271" lon="-1.15236">
        <ele>10.3</ele>
        <time>2020-06-02T09:32:46Z</time>
      </trkpt>
      <trkpt lat="46.16273" lon="-1.15235">
        <ele>10.3</ele>
        <time>2020-06-02T09:32:47Z</time>
      </trkpt>
      <trkpt lat="46.16276" lon="-1.15234">
        <ele>10.3</ele>
        <time>2020-06-02T09:32:48Z</time>
      </trkpt>
      <trkpt lat="46.16281" lon="-1.15231">
        <ele>10.4</ele>
        <time>2020-06-02T09:32:49Z</time>
      </trkpt>
      <trkpt lat="46.16285" lon="-1.15229">
        <ele>10.4</ele>
        <time>2020-06-02T09:32:50Z</time>
      </trkpt>
      <trkpt lat="46.16289" lon="-1.15227">
        <ele>10.4</ele>
        <time>2020-06-02T09:32:51Z</time>
      </trkpt>
      <trkpt lat="46.16292" lon="-1.15226">
        <ele>10.4</ele>
        <time>2020-06-02T09:32:52Z</time>
      </trkpt>
      <trkpt lat="46.16297" lon="-1.15227">
        <ele>10.4</ele>
        <time>2020-06-02T09:32:53Z</time>
      </trkpt>
      <trkpt lat="46.16302" lon="-1.15225">
        <ele>10.4</ele>
        <time>2020-06-02T09:32:54Z</time>
      </trkpt>
      <trkpt lat="46.16305" lon="-1.15225">
        <ele>10.4</ele>
        <time>2020-06-02T09:32:55Z</time>
      </trkpt>
      <trkpt lat="46.16309" lon="-1.15227">
        <ele>10.4</ele>
        <time>2020-06-02T09:32:56Z</time>
      </trkpt>
      <trkpt lat="46.1631" lon="-1.15228">
        <ele>10.4</ele>
        <time>2020-06-02T09:32:57Z</time>
      </trkpt>
      <trkpt lat="46.16313" lon="-1.15228">
        <ele>10.5</ele>
        <time>2020-06-02T09:32:58Z</time>
      </trkpt>
      <trkpt lat="46.16317" lon="-1.15228">
        <ele>10.5</ele>
        <time>2020-06-02T09:32:59Z</time>
      </trkpt>
      <trkpt lat="46.16321" lon="-1.15228">
        <ele>10.5</ele>
        <time>2020-06-02T09:33:00Z</time>
      </trkpt>
      <trkpt lat="46.16326" lon="-1.15225">
        <ele>10.5</ele>
        <time>2020-06-02T09:33:01Z</time>
      </trkpt>
      <trkpt lat="46.1633" lon="-1.15222">
        <ele>10.5</ele>
        <time>2020-06-02T09:33:02Z</time>
      </trkpt>
      <trkpt lat="46.16334" lon="-1.15219">
        <ele>10.5</ele>
        <time>2020-06-02T09:33:03Z</time>
      </trkpt>
      <trkpt lat="46.16337" lon="-1.15216">
        <ele>10.6</ele>
        <time>2020-06-02T09:33:04Z</time>
      </trkpt>
      <trkpt lat="46.16338" lon="-1.15216">
        <ele>10.6</ele>
        <time>2020-06-02T09:33:05Z</time>
      </trkpt>
      <trkpt lat="46.1634" lon="-1.15217">
        <ele>10.6</ele>
        <time>2020-06-02T09:33:06Z</time>
      </trkpt>
      <trkpt lat="46.16341" lon="-1.15216">
        <ele>10.6</ele>
        <time>2020-06-02T09:33:07Z</time>
      </trkpt>
      <trkpt lat="46.16342" lon="-1.15216">
        <ele>10.6</ele>
        <time>2020-06-02T09:33:08Z</time>
      </trkpt>
      <trkpt lat="46.16343" lon="-1.15215">
        <ele>10.6</ele>
        <time>2020-06-02T09:33:09Z</time>
      </trkpt>
      <trkpt lat="46.16343" lon="-1.15214">
        <ele>10.6</ele>
        <time>2020-06-02T09:33:10Z</time>
      </trkpt>
      <trkpt lat="46.16344" lon="-1.15214">
        <ele>10.6</ele>
        <time>2020-06-02T09:33:11Z</time>
      </trkpt>
      <trkpt lat="46.16344" lon="-1.15214">
        <ele>10.6</ele>
        <time>2020-06-02T09:33:12Z</time>
      </trkpt>
      <trkpt lat="46.16345" lon="-1.15213">
        <ele>10.6</ele>
        <time>2020-06-02T09:33:13Z</time>
      </trkpt>
      <trkpt lat="46.16345" lon="-1.15213">
        <ele>10.6</ele>
        <time>2020-06-02T09:33:14Z</time>
      </trkpt>
      <trkpt lat="46.16346" lon="-1.15212">
        <ele>10.6</ele>
        <time>2020-06-02T09:33:15Z</time>
      </trkpt>
      <trkpt lat="46.16346" lon="-1.15211">
        <ele>10.6</ele>
        <time>2020-06-02T09:33:16Z</time>
      </trkpt>
      <trkpt lat="46.16346" lon="-1.15211">
        <ele>10.6</ele>
        <time>2020-06-02T09:33:17Z</time>
      </trkpt>
      <trkpt lat="46.16346" lon="-1.15211">
        <ele>10.6</ele>
        <time>2020-06-02T09:33:18Z</time>
      </trkpt>
      <trkpt lat="46.16346" lon="-1.1521">
        <ele>10.6</ele>
        <time>2020-06-02T09:33:19Z</time>
      </trkpt>
      <trkpt lat="46.16347" lon="-1.15211">
        <ele>10.6</ele>
        <time>2020-06-02T09:33:20Z</time>
      </trkpt>
      <trkpt lat="46.16347" lon="-1.15211">
        <ele>10.7</ele>
        <time>2020-06-02T09:33:21Z</time>
      </trkpt>
      <trkpt lat="46.16347" lon="-1.15211">
        <ele>10.7</ele>
        <time>2020-06-02T09:33:22Z</time>
      </trkpt>
      <trkpt lat="46.16347" lon="-1.15211">
        <ele>10.7</ele>
        <time>2020-06-02T09:33:23Z</time>
      </trkpt>
      <trkpt lat="46.16347" lon="-1.15211">
        <ele>10.7</ele>
        <time>2020-06-02T09:33:24Z</time>
      </trkpt>
      <trkpt lat="46.16347" lon="-1.15211">
        <ele>10.7</ele>
        <time>2020-06-02T09:33:25Z</time>
      </trkpt>
      <trkpt lat="46.16349" lon="-1.15211">
        <ele>10.7</ele>
        <time>2020-06-02T09:33:26Z</time>
      </trkpt>
      <trkpt lat="46.1635" lon="-1.15212">
        <ele>10.7</ele>
        <time>2020-06-02T09:33:27Z</time>
      </trkpt>
      <trkpt lat="46.1635" lon="-1.15211">
        <ele>10.7</ele>
        <time>2020-06-02T09:33:28Z</time>
      </trkpt>
      <trkpt lat="46.1635" lon="-1.1521">
        <ele>10.7</ele>
        <time>2020-06-02T09:33:29Z</time>
      </trkpt>
      <trkpt lat="46.1635" lon="-1.15211">
        <ele>10.7</ele>
        <time>2020-06-02T09:33:30Z</time>
      </trkpt>
      <trkpt lat="46.1635" lon="-1.15211">
        <ele>10.7</ele>
        <time>2020-06-02T09:33:31Z</time>
      </trkpt>
      <trkpt lat="46.1635" lon="-1.15211">
        <ele>10.7</ele>
        <time>2020-06-02T09:33:32Z</time>
      </trkpt>
      <trkpt lat="46.1635" lon="-1.15211">
        <ele>10.7</ele>
        <time>2020-06-02T09:33:33Z</time>
      </trkpt>
      <trkpt lat="46.16351" lon="-1.15211">
        <ele>10.7</ele>
        <time>2020-06-02T09:33:34Z</time>
      </trkpt>
      <trkpt lat="46.16351" lon="-1.15211">
        <ele>10.7</ele>
        <time>2020-06-02T09:33:35Z</time>
      </trkpt>
      <trkpt lat="46.16351" lon="-1.1521">
        <ele>10.7</ele>
        <time>2020-06-02T09:33:36Z</time>
      </trkpt>
      <trkpt lat="46.16351" lon="-1.15209">
        <ele>10.7</ele>
        <time>2020-06-02T09:33:37Z</time>
      </trkpt>
      <trkpt lat="46.16351" lon="-1.15209">
        <ele>10.7</ele>
        <time>2020-06-02T09:33:38Z</time>
      </trkpt>
      <trkpt lat="46.16351" lon="-1.15209">
        <ele>10.7</ele>
        <time>2020-06-02T09:33:39Z</time>
      </trkpt>
      <trkpt lat="46.16352" lon="-1.15209">
        <ele>10.7</ele>
        <time>2020-06-02T09:33:40Z</time>
      </trkpt>
      <trkpt lat="46.16352" lon="-1.15209">
        <ele>10.7</ele>
        <time>2020-06-02T09:33:41Z</time>
      </trkpt>
      <trkpt lat="46.16352" lon="-1.15208">
        <ele>10.7</ele>
        <time>2020-06-02T09:33:42Z</time>
      </trkpt>
      <trkpt lat="46.16352" lon="-1.15208">
        <ele>10.7</ele>
        <time>2020-06-02T09:33:43Z</time>
      </trkpt>
      <trkpt lat="46.16352" lon="-1.15208">
        <ele>10.7</ele>
        <time>2020-06-02T09:33:44Z</time>
      </trkpt>
      <trkpt lat="46.16351" lon="-1.15207">
        <ele>10.7</ele>
        <time>2020-06-02T09:33:45Z</time>
      </trkpt>
      <trkpt lat="46.16351" lon="-1.15206">
        <ele>10.8</ele>
        <time>2020-06-02T09:33:46Z</time>
      </trkpt>
      <trkpt lat="46.16351" lon="-1.15206">
        <ele>10.8</ele>
        <time>2020-06-02T09:33:47Z</time>
      </trkpt>
      <trkpt lat="46.16351" lon="-1.15207">
        <ele>10.8</ele>
        <time>2020-06-02T09:33:48Z</time>
      </trkpt>
      <trkpt lat="46.16352" lon="-1.15208">
        <ele>10.8</ele>
        <time>2020-06-02T09:33:49Z</time>
      </trkpt>
      <trkpt lat="46.16352" lon="-1.15208">
        <ele>10.8</ele>
        <time>2020-06-02T09:33:50Z</time>
      </trkpt>
      <trkpt lat="46.16352" lon="-1.15208">
        <ele>10.8</ele>
        <time>2020-06-02T09:33:51Z</time>
      </trkpt>
      <trkpt lat="46.16352" lon="-1.15208">
        <ele>10.8</ele>
        <time>2020-06-02T09:33:52Z</time>
      </trkpt>
      <trkpt lat="46.16352" lon="-1.15208">
        <ele>10.8</ele>
        <time>2020-06-02T09:33:53Z</time>
      </trkpt>
      <trkpt lat="46.16352" lon="-1.15208">
        <ele>10.8</ele>
        <time>2020-06-02T09:33:54Z</time>
      </trkpt>
      <trkpt lat="46.16352" lon="-1.15208">
        <ele>10.8</ele>
        <time>2020-06-02T09:33:55Z</time>
      </trkpt>
      <trkpt lat="46.16353" lon="-1.15207">
        <ele>10.8</ele>
        <time>2020-06-02T09:33:56Z</time>
      </trkpt>
      <trkpt lat="46.16352" lon="-1.15207">
        <ele>10.8</ele>
        <time>2020-06-02T09:33:57Z</time>
      </trkpt>
      <trkpt lat="46.16353" lon="-1.15208">
        <ele>10.8</ele>
        <time>2020-06-02T09:33:58Z</time>
      </trkpt>
      <trkpt lat="46.16353" lon="-1.1521">
        <ele>10.8</ele>
        <time>2020-06-02T09:33:59Z</time>
      </trkpt>
      <trkpt lat="46.16353" lon="-1.1521">
        <ele>10.8</ele>
        <time>2020-06-02T09:34:00Z</time>
      </trkpt>
      <trkpt lat="46.16353" lon="-1.15211">
        <ele>10.8</ele>
        <time>2020-06-02T09:34:01Z</time>
      </trkpt>
      <trkpt lat="46.16353" lon="-1.15211">
        <ele>10.8</ele>
        <time>2020-06-02T09:34:02Z</time>
      </trkpt>
      <trkpt lat="46.16352" lon="-1.15211">
        <ele>10.8</ele>
        <time>2020-06-02T09:34:03Z</time>
      </trkpt>
      <trkpt lat="46.16352" lon="-1.1521">
        <ele>10.8</ele>
        <time>2020-06-02T09:34:04Z</time>
      </trkpt>
      <trkpt lat="46.16352" lon="-1.1521">
        <ele>10.8</ele>
        <time>2020-06-02T09:34:05Z</time>
      </trkpt>
      <trkpt lat="46.16352" lon="-1.1521">
        <ele>10.8</ele>
        <time>2020-06-02T09:34:06Z</time>
      </trkpt>
      <trkpt lat="46.16353" lon="-1.15211">
        <ele>10.8</ele>
        <time>2020-06-02T09:34:07Z</time>
      </trkpt>
      <trkpt lat="46.16353" lon="-1.15211">
        <ele>10.8</ele>
        <time>2020-06-02T09:34:08Z</time>
      </trkpt>
      <trkpt lat="46.16353" lon="-1.15212">
        <ele>10.8</ele>
        <time>2020-06-02T09:34:09Z</time>
      </trkpt>
      <trkpt lat="46.16352" lon="-1.15212">
        <ele>10.8</ele>
        <time>2020-06-02T09:34:10Z</time>
      </trkpt>
      <trkpt lat="46.16352" lon="-1.15212">
        <ele>10.8</ele>
        <time>2020-06-02T09:34:11Z</time>
      </trkpt>
      <trkpt lat="46.16352" lon="-1.15212">
        <ele>10.8</ele>
        <time>2020-06-02T09:34:12Z</time>
      </trkpt>
      <trkpt lat="46.16352" lon="-1.15212">
        <ele>10.8</ele>
        <time>2020-06-02T09:34:13Z</time>
      </trkpt>
      <trkpt lat="46.16352" lon="-1.15212">
        <ele>10.8</ele>
        <time>2020-06-02T09:34:14Z</time>
      </trkpt>
      <trkpt lat="46.16352" lon="-1.15212">
        <ele>10.8</ele>
        <time>2020-06-02T09:34:15Z</time>
      </trkpt>
      <trkpt lat="46.16352" lon="-1.15212">
        <ele>10.8</ele>
        <time>2020-06-02T09:34:16Z</time>
      </trkpt>
      <trkpt lat="46.16352" lon="-1.15213">
        <ele>10.8</ele>
        <time>2020-06-02T09:34:17Z</time>
      </trkpt>
      <trkpt lat="46.16352" lon="-1.15214">
        <ele>10.8</ele>
        <time>2020-06-02T09:34:18Z</time>
      </trkpt>
      <trkpt lat="46.16353" lon="-1.15215">
        <ele>10.8</ele>
        <time>2020-06-02T09:34:19Z</time>
      </trkpt>
      <trkpt lat="46.16353" lon="-1.15215">
        <ele>10.8</ele>
        <time>2020-06-02T09:34:20Z</time>
      </trkpt>
      <trkpt lat="46.16353" lon="-1.15214">
        <ele>10.8</ele>
        <time>2020-06-02T09:34:21Z</time>
      </trkpt>
      <trkpt lat="46.16353" lon="-1.15213">
        <ele>10.9</ele>
        <time>2020-06-02T09:34:22Z</time>
      </trkpt>
      <trkpt lat="46.16352" lon="-1.15212">
        <ele>10.9</ele>
        <time>2020-06-02T09:34:23Z</time>
      </trkpt>
      <trkpt lat="46.16352" lon="-1.15212">
        <ele>10.9</ele>
        <time>2020-06-02T09:34:24Z</time>
      </trkpt>
      <trkpt lat="46.16352" lon="-1.15212">
        <ele>10.9</ele>
        <time>2020-06-02T09:34:25Z</time>
      </trkpt>
      <trkpt lat="46.16351" lon="-1.15212">
        <ele>10.9</ele>
        <time>2020-06-02T09:34:26Z</time>
      </trkpt>
      <trkpt lat="46.16351" lon="-1.15212">
        <ele>10.9</ele>
        <time>2020-06-02T09:34:27Z</time>
      </trkpt>
      <trkpt lat="46.1635" lon="-1.1521">
        <ele>10.9</ele>
        <time>2020-06-02T09:34:28Z</time>
      </trkpt>
      <trkpt lat="46.16351" lon="-1.15209">
        <ele>10.9</ele>
        <time>2020-06-02T09:34:29Z</time>
      </trkpt>
      <trkpt lat="46.16351" lon="-1.15209">
        <ele>10.9</ele>
        <time>2020-06-02T09:34:30Z</time>
      </trkpt>
      <trkpt lat="46.16352" lon="-1.15209">
        <ele>10.9</ele>
        <time>2020-06-02T09:34:31Z</time>
      </trkpt>
      <trkpt lat="46.16354" lon="-1.15208">
        <ele>10.9</ele>
        <time>2020-06-02T09:34:32Z</time>
      </trkpt>
      <trkpt lat="46.16356" lon="-1.15206">
        <ele>10.9</ele>
        <time>2020-06-02T09:34:33Z</time>
      </trkpt>
      <trkpt lat="46.16358" lon="-1.15205">
        <ele>10.9</ele>
        <time>2020-06-02T09:34:34Z</time>
      </trkpt>
      <trkpt lat="46.16361" lon="-1.15203">
        <ele>10.9</ele>
        <time>2020-06-02T09:34:35Z</time>
      </trkpt>
      <trkpt lat="46.16365" lon="-1.15202">
        <ele>10.9</ele>
        <time>2020-06-02T09:34:36Z</time>
      </trkpt>
      <trkpt lat="46.16366" lon="-1.15201">
        <ele>11</ele>
        <time>2020-06-02T09:34:37Z</time>
      </trkpt>
      <trkpt lat="46.16371" lon="-1.152">
        <ele>11</ele>
        <time>2020-06-02T09:34:38Z</time>
      </trkpt>
      <trkpt lat="46.16374" lon="-1.15199">
        <ele>11.1</ele>
        <time>2020-06-02T09:34:39Z</time>
      </trkpt>
      <trkpt lat="46.16379" lon="-1.15196">
        <ele>11.2</ele>
        <time>2020-06-02T09:34:40Z</time>
      </trkpt>
      <trkpt lat="46.16382" lon="-1.15195">
        <ele>11.2</ele>
        <time>2020-06-02T09:34:41Z</time>
      </trkpt>
      <trkpt lat="46.16387" lon="-1.15194">
        <ele>11.3</ele>
        <time>2020-06-02T09:34:42Z</time>
      </trkpt>
      <trkpt lat="46.16392" lon="-1.15192">
        <ele>11.4</ele>
        <time>2020-06-02T09:34:43Z</time>
      </trkpt>
      <trkpt lat="46.16396" lon="-1.15192">
        <ele>11.5</ele>
        <time>2020-06-02T09:34:44Z</time>
      </trkpt>
      <trkpt lat="46.164" lon="-1.15192">
        <ele>11.5</ele>
        <time>2020-06-02T09:34:45Z</time>
      </trkpt>
      <trkpt lat="46.16403" lon="-1.1519">
        <ele>11.6</ele>
        <time>2020-06-02T09:34:46Z</time>
      </trkpt>
      <trkpt lat="46.16408" lon="-1.15188">
        <ele>11.7</ele>
        <time>2020-06-02T09:34:47Z</time>
      </trkpt>
      <trkpt lat="46.16413" lon="-1.15186">
        <ele>11.8</ele>
        <time>2020-06-02T09:34:48Z</time>
      </trkpt>
      <trkpt lat="46.16418" lon="-1.15177">
        <ele>12</ele>
        <time>2020-06-02T09:34:49Z</time>
      </trkpt>
      <trkpt lat="46.16421" lon="-1.15177">
        <ele>12</ele>
        <time>2020-06-02T09:34:50Z</time>
      </trkpt>
      <trkpt lat="46.16424" lon="-1.15177">
        <ele>12.1</ele>
        <time>2020-06-02T09:34:51Z</time>
      </trkpt>
      <trkpt lat="46.16427" lon="-1.15177">
        <ele>12.1</ele>
        <time>2020-06-02T09:34:52Z</time>
      </trkpt>
      <trkpt lat="46.16431" lon="-1.15176">
        <ele>12.1</ele>
        <time>2020-06-02T09:34:53Z</time>
      </trkpt>
      <trkpt lat="46.16434" lon="-1.15174">
        <ele>12.2</ele>
        <time>2020-06-02T09:34:54Z</time>
      </trkpt>
      <trkpt lat="46.16441" lon="-1.15171">
        <ele>12.2</ele>
        <time>2020-06-02T09:34:55Z</time>
      </trkpt>
      <trkpt lat="46.16446" lon="-1.15167">
        <ele>12.3</ele>
        <time>2020-06-02T09:34:56Z</time>
      </trkpt>
      <trkpt lat="46.16451" lon="-1.15163">
        <ele>12.4</ele>
        <time>2020-06-02T09:34:57Z</time>
      </trkpt>
      <trkpt lat="46.16456" lon="-1.15161">
        <ele>12.5</ele>
        <time>2020-06-02T09:34:58Z</time>
      </trkpt>
      <trkpt lat="46.1646" lon="-1.15156">
        <ele>12.6</ele>
        <time>2020-06-02T09:34:59Z</time>
      </trkpt>
      <trkpt lat="46.16466" lon="-1.15151">
        <ele>12.8</ele>
        <time>2020-06-02T09:35:00Z</time>
      </trkpt>
      <trkpt lat="46.1647" lon="-1.15144">
        <ele>12.9</ele>
        <time>2020-06-02T09:35:01Z</time>
      </trkpt>
      <trkpt lat="46.16472" lon="-1.15136">
        <ele>13</ele>
        <time>2020-06-02T09:35:02Z</time>
      </trkpt>
      <trkpt lat="46.16473" lon="-1.15127">
        <ele>13</ele>
        <time>2020-06-02T09:35:03Z</time>
      </trkpt>
      <trkpt lat="46.16472" lon="-1.15119">
        <ele>13.1</ele>
        <time>2020-06-02T09:35:04Z</time>
      </trkpt>
      <trkpt lat="46.16471" lon="-1.15111">
        <ele>13.2</ele>
        <time>2020-06-02T09:35:05Z</time>
      </trkpt>
      <trkpt lat="46.1647" lon="-1.15105">
        <ele>13.2</ele>
        <time>2020-06-02T09:35:06Z</time>
      </trkpt>
      <trkpt lat="46.16469" lon="-1.15098">
        <ele>13.2</ele>
        <time>2020-06-02T09:35:07Z</time>
      </trkpt>
      <trkpt lat="46.16468" lon="-1.15091">
        <ele>13.3</ele>
        <time>2020-06-02T09:35:08Z</time>
      </trkpt>
      <trkpt lat="46.16466" lon="-1.15084">
        <ele>13.3</ele>
        <time>2020-06-02T09:35:09Z</time>
      </trkpt>
      <trkpt lat="46.16466" lon="-1.15077">
        <ele>13.3</ele>
        <time>2020-06-02T09:35:10Z</time>
      </trkpt>
      <trkpt lat="46.16464" lon="-1.1507">
        <ele>13.3</ele>
        <time>2020-06-02T09:35:11Z</time>
      </trkpt>
      <trkpt lat="46.16463" lon="-1.15063">
        <ele>13.2</ele>
        <time>2020-06-02T09:35:12Z</time>
      </trkpt>
      <trkpt lat="46.16462" lon="-1.15057">
        <ele>13.2</ele>
        <time>2020-06-02T09:35:13Z</time>
      </trkpt>
      <trkpt lat="46.16462" lon="-1.1505">
        <ele>13.1</ele>
        <time>2020-06-02T09:35:14Z</time>
      </trkpt>
      <trkpt lat="46.16461" lon="-1.15045">
        <ele>13</ele>
        <time>2020-06-02T09:35:15Z</time>
      </trkpt>
      <trkpt lat="46.16458" lon="-1.15039">
        <ele>12.9</ele>
        <time>2020-06-02T09:35:16Z</time>
      </trkpt>
      <trkpt lat="46.16457" lon="-1.15032">
        <ele>12.7</ele>
        <time>2020-06-02T09:35:17Z</time>
      </trkpt>
      <trkpt lat="46.16455" lon="-1.15023">
        <ele>12.6</ele>
        <time>2020-06-02T09:35:18Z</time>
      </trkpt>
      <trkpt lat="46.16454" lon="-1.15016">
        <ele>12.4</ele>
        <time>2020-06-02T09:35:19Z</time>
      </trkpt>
      <trkpt lat="46.16452" lon="-1.1501">
        <ele>12.3</ele>
        <time>2020-06-02T09:35:20Z</time>
      </trkpt>
      <trkpt lat="46.1645" lon="-1.15003">
        <ele>12.2</ele>
        <time>2020-06-02T09:35:21Z</time>
      </trkpt>
      <trkpt lat="46.16449" lon="-1.14996">
        <ele>12</ele>
        <time>2020-06-02T09:35:22Z</time>
      </trkpt>
      <trkpt lat="46.16446" lon="-1.14989">
        <ele>11.9</ele>
        <time>2020-06-02T09:35:23Z</time>
      </trkpt>
      <trkpt lat="46.16445" lon="-1.14981">
        <ele>11.8</ele>
        <time>2020-06-02T09:35:24Z</time>
      </trkpt>
      <trkpt lat="46.16444" lon="-1.14973">
        <ele>11.7</ele>
        <time>2020-06-02T09:35:25Z</time>
      </trkpt>
      <trkpt lat="46.16443" lon="-1.14965">
        <ele>11.6</ele>
        <time>2020-06-02T09:35:26Z</time>
      </trkpt>
      <trkpt lat="46.16442" lon="-1.14957">
        <ele>11.5</ele>
        <time>2020-06-02T09:35:27Z</time>
      </trkpt>
      <trkpt lat="46.16439" lon="-1.1495">
        <ele>11.4</ele>
        <time>2020-06-02T09:35:28Z</time>
      </trkpt>
      <trkpt lat="46.16439" lon="-1.14941">
        <ele>11.3</ele>
        <time>2020-06-02T09:35:29Z</time>
      </trkpt>
      <trkpt lat="46.16438" lon="-1.14932">
        <ele>11.2</ele>
        <time>2020-06-02T09:35:30Z</time>
      </trkpt>
      <trkpt lat="46.16436" lon="-1.14924">
        <ele>11.2</ele>
        <time>2020-06-02T09:35:31Z</time>
      </trkpt>
      <trkpt lat="46.16435" lon="-1.14916">
        <ele>11.1</ele>
        <time>2020-06-02T09:35:32Z</time>
      </trkpt>
      <trkpt lat="46.16434" lon="-1.14908">
        <ele>11.1</ele>
        <time>2020-06-02T09:35:33Z</time>
      </trkpt>
      <trkpt lat="46.16432" lon="-1.14901">
        <ele>11</ele>
        <time>2020-06-02T09:35:34Z</time>
      </trkpt>
      <trkpt lat="46.1643" lon="-1.14894">
        <ele>11</ele>
        <time>2020-06-02T09:35:35Z</time>
      </trkpt>
      <trkpt lat="46.16429" lon="-1.14886">
        <ele>11</ele>
        <time>2020-06-02T09:35:36Z</time>
      </trkpt>
      <trkpt lat="46.16427" lon="-1.14879">
        <ele>11</ele>
        <time>2020-06-02T09:35:37Z</time>
      </trkpt>
      <trkpt lat="46.16427" lon="-1.14872">
        <ele>11</ele>
        <time>2020-06-02T09:35:38Z</time>
      </trkpt>
      <trkpt lat="46.16426" lon="-1.14864">
        <ele>11.1</ele>
        <time>2020-06-02T09:35:39Z</time>
      </trkpt>
      <trkpt lat="46.16425" lon="-1.14857">
        <ele>11.1</ele>
        <time>2020-06-02T09:35:40Z</time>
      </trkpt>
      <trkpt lat="46.16424" lon="-1.14849">
        <ele>11.1</ele>
        <time>2020-06-02T09:35:41Z</time>
      </trkpt>
      <trkpt lat="46.16424" lon="-1.1484">
        <ele>11.1</ele>
        <time>2020-06-02T09:35:42Z</time>
      </trkpt>
      <trkpt lat="46.16423" lon="-1.14832">
        <ele>11.1</ele>
        <time>2020-06-02T09:35:43Z</time>
      </trkpt>
      <trkpt lat="46.16422" lon="-1.14823">
        <ele>11.2</ele>
        <time>2020-06-02T09:35:44Z</time>
      </trkpt>
      <trkpt lat="46.16422" lon="-1.14815">
        <ele>11.3</ele>
        <time>2020-06-02T09:35:45Z</time>
      </trkpt>
      <trkpt lat="46.16421" lon="-1.14806">
        <ele>11.3</ele>
        <time>2020-06-02T09:35:46Z</time>
      </trkpt>
      <trkpt lat="46.1642" lon="-1.14798">
        <ele>11.3</ele>
        <time>2020-06-02T09:35:47Z</time>
      </trkpt>
      <trkpt lat="46.16419" lon="-1.1479">
        <ele>11.4</ele>
        <time>2020-06-02T09:35:48Z</time>
      </trkpt>
      <trkpt lat="46.16418" lon="-1.14781">
        <ele>11.4</ele>
        <time>2020-06-02T09:35:49Z</time>
      </trkpt>
      <trkpt lat="46.16417" lon="-1.14774">
        <ele>11.5</ele>
        <time>2020-06-02T09:35:50Z</time>
      </trkpt>
      <trkpt lat="46.16416" lon="-1.14768">
        <ele>11.5</ele>
        <time>2020-06-02T09:35:51Z</time>
      </trkpt>
      <trkpt lat="46.16415" lon="-1.14761">
        <ele>11.5</ele>
        <time>2020-06-02T09:35:52Z</time>
      </trkpt>
      <trkpt lat="46.16413" lon="-1.14755">
        <ele>11.6</ele>
        <time>2020-06-02T09:35:53Z</time>
      </trkpt>
      <trkpt lat="46.16413" lon="-1.14749">
        <ele>11.6</ele>
        <time>2020-06-02T09:35:54Z</time>
      </trkpt>
      <trkpt lat="46.16412" lon="-1.14743">
        <ele>11.6</ele>
        <time>2020-06-02T09:35:55Z</time>
      </trkpt>
      <trkpt lat="46.16409" lon="-1.14738">
        <ele>11.6</ele>
        <time>2020-06-02T09:35:56Z</time>
      </trkpt>
      <trkpt lat="46.16406" lon="-1.14732">
        <ele>11.8</ele>
        <time>2020-06-02T09:35:57Z</time>
      </trkpt>
      <trkpt lat="46.16403" lon="-1.14727">
        <ele>11.8</ele>
        <time>2020-06-02T09:35:58Z</time>
      </trkpt>
      <trkpt lat="46.16399" lon="-1.14724">
        <ele>11.9</ele>
        <time>2020-06-02T09:35:59Z</time>
      </trkpt>
      <trkpt lat="46.16395" lon="-1.1472">
        <ele>11.9</ele>
        <time>2020-06-02T09:36:00Z</time>
      </trkpt>
      <trkpt lat="46.16392" lon="-1.14715">
        <ele>12</ele>
        <time>2020-06-02T09:36:01Z</time>
      </trkpt>
      <trkpt lat="46.1639" lon="-1.14709">
        <ele>12</ele>
        <time>2020-06-02T09:36:02Z</time>
      </trkpt>
      <trkpt lat="46.16386" lon="-1.14703">
        <ele>12.1</ele>
        <time>2020-06-02T09:36:03Z</time>
      </trkpt>
      <trkpt lat="46.16384" lon="-1.14697">
        <ele>12.1</ele>
        <time>2020-06-02T09:36:04Z</time>
      </trkpt>
      <trkpt lat="46.16381" lon="-1.14692">
        <ele>12.2</ele>
        <time>2020-06-02T09:36:05Z</time>
      </trkpt>
      <trkpt lat="46.16379" lon="-1.14686">
        <ele>12.2</ele>
        <time>2020-06-02T09:36:06Z</time>
      </trkpt>
      <trkpt lat="46.16376" lon="-1.14681">
        <ele>12.3</ele>
        <time>2020-06-02T09:36:07Z</time>
      </trkpt>
      <trkpt lat="46.16375" lon="-1.14675">
        <ele>12.3</ele>
        <time>2020-06-02T09:36:08Z</time>
      </trkpt>
      <trkpt lat="46.16374" lon="-1.14669">
        <ele>12.2</ele>
        <time>2020-06-02T09:36:09Z</time>
      </trkpt>
      <trkpt lat="46.16372" lon="-1.14663">
        <ele>12.2</ele>
        <time>2020-06-02T09:36:10Z</time>
      </trkpt>
      <trkpt lat="46.1637" lon="-1.14656">
        <ele>12.2</ele>
        <time>2020-06-02T09:36:11Z</time>
      </trkpt>
      <trkpt lat="46.16367" lon="-1.1465">
        <ele>12.1</ele>
        <time>2020-06-02T09:36:12Z</time>
      </trkpt>
      <trkpt lat="46.16365" lon="-1.14643">
        <ele>12.1</ele>
        <time>2020-06-02T09:36:13Z</time>
      </trkpt>
      <trkpt lat="46.16362" lon="-1.14637">
        <ele>12</ele>
        <time>2020-06-02T09:36:14Z</time>
      </trkpt>
      <trkpt lat="46.1636" lon="-1.14632">
        <ele>12</ele>
        <time>2020-06-02T09:36:15Z</time>
      </trkpt>
      <trkpt lat="46.16357" lon="-1.14626">
        <ele>11.9</ele>
        <time>2020-06-02T09:36:16Z</time>
      </trkpt>
      <trkpt lat="46.16354" lon="-1.14621">
        <ele>11.9</ele>
        <time>2020-06-02T09:36:17Z</time>
      </trkpt>
      <trkpt lat="46.16349" lon="-1.14615">
        <ele>11.8</ele>
        <time>2020-06-02T09:36:18Z</time>
      </trkpt>
      <trkpt lat="46.16343" lon="-1.14611">
        <ele>11.7</ele>
        <time>2020-06-02T09:36:20Z</time>
      </trkpt>
      <trkpt lat="46.16342" lon="-1.14605">
        <ele>11.7</ele>
        <time>2020-06-02T09:36:21Z</time>
      </trkpt>
      <trkpt lat="46.16339" lon="-1.14599">
        <ele>11.6</ele>
        <time>2020-06-02T09:36:22Z</time>
      </trkpt>
      <trkpt lat="46.16336" lon="-1.14594">
        <ele>11.6</ele>
        <time>2020-06-02T09:36:23Z</time>
      </trkpt>
      <trkpt lat="46.16332" lon="-1.1459">
        <ele>11.6</ele>
        <time>2020-06-02T09:36:24Z</time>
      </trkpt>
      <trkpt lat="46.16329" lon="-1.14587">
        <ele>11.5</ele>
        <time>2020-06-02T09:36:25Z</time>
      </trkpt>
      <trkpt lat="46.16325" lon="-1.14585">
        <ele>11.4</ele>
        <time>2020-06-02T09:36:26Z</time>
      </trkpt>
      <trkpt lat="46.16321" lon="-1.14581">
        <ele>11.4</ele>
        <time>2020-06-02T09:36:27Z</time>
      </trkpt>
      <trkpt lat="46.16317" lon="-1.14578">
        <ele>11.4</ele>
        <time>2020-06-02T09:36:28Z</time>
      </trkpt>
      <trkpt lat="46.16312" lon="-1.14574">
        <ele>11.4</ele>
        <time>2020-06-02T09:36:29Z</time>
      </trkpt>
      <trkpt lat="46.16306" lon="-1.14571">
        <ele>11.3</ele>
        <time>2020-06-02T09:36:30Z</time>
      </trkpt>
      <trkpt lat="46.16301" lon="-1.14569">
        <ele>11.3</ele>
        <time>2020-06-02T09:36:31Z</time>
      </trkpt>
      <trkpt lat="46.16295" lon="-1.14567">
        <ele>11.3</ele>
        <time>2020-06-02T09:36:32Z</time>
      </trkpt>
      <trkpt lat="46.16291" lon="-1.14565">
        <ele>11.3</ele>
        <time>2020-06-02T09:36:33Z</time>
      </trkpt>
      <trkpt lat="46.16287" lon="-1.14562">
        <ele>11.3</ele>
        <time>2020-06-02T09:36:34Z</time>
      </trkpt>
      <trkpt lat="46.16283" lon="-1.1456">
        <ele>11.2</ele>
        <time>2020-06-02T09:36:35Z</time>
      </trkpt>
      <trkpt lat="46.16278" lon="-1.14557">
        <ele>11.2</ele>
        <time>2020-06-02T09:36:36Z</time>
      </trkpt>
      <trkpt lat="46.16273" lon="-1.14554">
        <ele>11.1</ele>
        <time>2020-06-02T09:36:37Z</time>
      </trkpt>
      <trkpt lat="46.16269" lon="-1.14551">
        <ele>11.1</ele>
        <time>2020-06-02T09:36:38Z</time>
      </trkpt>
      <trkpt lat="46.16264" lon="-1.14548">
        <ele>11</ele>
        <time>2020-06-02T09:36:39Z</time>
      </trkpt>
      <trkpt lat="46.16259" lon="-1.14544">
        <ele>11</ele>
        <time>2020-06-02T09:36:40Z</time>
      </trkpt>
      <trkpt lat="46.16255" lon="-1.14539">
        <ele>10.9</ele>
        <time>2020-06-02T09:36:41Z</time>
      </trkpt>
      <trkpt lat="46.16251" lon="-1.14535">
        <ele>10.9</ele>
        <time>2020-06-02T09:36:42Z</time>
      </trkpt>
      <trkpt lat="46.16247" lon="-1.14529">
        <ele>10.8</ele>
        <time>2020-06-02T09:36:43Z</time>
      </trkpt>
      <trkpt lat="46.16244" lon="-1.14511">
        <ele>10.9</ele>
        <time>2020-06-02T09:36:44Z</time>
      </trkpt>
      <trkpt lat="46.16244" lon="-1.14502">
        <ele>11</ele>
        <time>2020-06-02T09:36:45Z</time>
      </trkpt>
      <trkpt lat="46.16243" lon="-1.14494">
        <ele>11</ele>
        <time>2020-06-02T09:36:46Z</time>
      </trkpt>
      <trkpt lat="46.16243" lon="-1.14485">
        <ele>11.1</ele>
        <time>2020-06-02T09:36:47Z</time>
      </trkpt>
      <trkpt lat="46.16243" lon="-1.14477">
        <ele>11.1</ele>
        <time>2020-06-02T09:36:48Z</time>
      </trkpt>
      <trkpt lat="46.16243" lon="-1.1447">
        <ele>11.2</ele>
        <time>2020-06-02T09:36:49Z</time>
      </trkpt>
      <trkpt lat="46.16243" lon="-1.14463">
        <ele>11.2</ele>
        <time>2020-06-02T09:36:50Z</time>
      </trkpt>
      <trkpt lat="46.16242" lon="-1.14456">
        <ele>11.2</ele>
        <time>2020-06-02T09:36:51Z</time>
      </trkpt>
      <trkpt lat="46.16242" lon="-1.1445">
        <ele>11.3</ele>
        <time>2020-06-02T09:36:52Z</time>
      </trkpt>
      <trkpt lat="46.16241" lon="-1.14443">
        <ele>11.3</ele>
        <time>2020-06-02T09:36:53Z</time>
      </trkpt>
      <trkpt lat="46.16242" lon="-1.14436">
        <ele>11.4</ele>
        <time>2020-06-02T09:36:54Z</time>
      </trkpt>
      <trkpt lat="46.16242" lon="-1.14429">
        <ele>11.4</ele>
        <time>2020-06-02T09:36:55Z</time>
      </trkpt>
      <trkpt lat="46.16242" lon="-1.14422">
        <ele>11.4</ele>
        <time>2020-06-02T09:36:56Z</time>
      </trkpt>
      <trkpt lat="46.16242" lon="-1.14414">
        <ele>11.5</ele>
        <time>2020-06-02T09:36:57Z</time>
      </trkpt>
      <trkpt lat="46.16242" lon="-1.14407">
        <ele>11.5</ele>
        <time>2020-06-02T09:36:58Z</time>
      </trkpt>
      <trkpt lat="46.16242" lon="-1.144">
        <ele>11.5</ele>
        <time>2020-06-02T09:36:59Z</time>
      </trkpt>
      <trkpt lat="46.16241" lon="-1.14394">
        <ele>11.5</ele>
        <time>2020-06-02T09:37:00Z</time>
      </trkpt>
      <trkpt lat="46.16241" lon="-1.14389">
        <ele>11.6</ele>
        <time>2020-06-02T09:37:01Z</time>
      </trkpt>
      <trkpt lat="46.16241" lon="-1.14383">
        <ele>11.6</ele>
        <time>2020-06-02T09:37:02Z</time>
      </trkpt>
      <trkpt lat="46.16242" lon="-1.14377">
        <ele>11.6</ele>
        <time>2020-06-02T09:37:03Z</time>
      </trkpt>
      <trkpt lat="46.16242" lon="-1.1437">
        <ele>11.6</ele>
        <time>2020-06-02T09:37:04Z</time>
      </trkpt>
      <trkpt lat="46.16241" lon="-1.14364">
        <ele>11.6</ele>
        <time>2020-06-02T09:37:05Z</time>
      </trkpt>
      <trkpt lat="46.16241" lon="-1.14359">
        <ele>11.6</ele>
        <time>2020-06-02T09:37:06Z</time>
      </trkpt>
      <trkpt lat="46.16239" lon="-1.14355">
        <ele>11.7</ele>
        <time>2020-06-02T09:37:07Z</time>
      </trkpt>
      <trkpt lat="46.16236" lon="-1.14353">
        <ele>11.6</ele>
        <time>2020-06-02T09:37:08Z</time>
      </trkpt>
      <trkpt lat="46.16233" lon="-1.14354">
        <ele>11.6</ele>
        <time>2020-06-02T09:37:09Z</time>
      </trkpt>
      <trkpt lat="46.16228" lon="-1.14356">
        <ele>11.5</ele>
        <time>2020-06-02T09:37:10Z</time>
      </trkpt>
      <trkpt lat="46.16224" lon="-1.14355">
        <ele>11.4</ele>
        <time>2020-06-02T09:37:11Z</time>
      </trkpt>
      <trkpt lat="46.16219" lon="-1.14354">
        <ele>11.4</ele>
        <time>2020-06-02T09:37:12Z</time>
      </trkpt>
      <trkpt lat="46.16215" lon="-1.14353">
        <ele>11.3</ele>
        <time>2020-06-02T09:37:13Z</time>
      </trkpt>
      <trkpt lat="46.16212" lon="-1.14352">
        <ele>11.3</ele>
        <time>2020-06-02T09:37:14Z</time>
      </trkpt>
      <trkpt lat="46.16209" lon="-1.1435">
        <ele>11.2</ele>
        <time>2020-06-02T09:37:15Z</time>
      </trkpt>
      <trkpt lat="46.16208" lon="-1.14349">
        <ele>11.2</ele>
        <time>2020-06-02T09:37:16Z</time>
      </trkpt>
      <trkpt lat="46.16208" lon="-1.14349">
        <ele>11.2</ele>
        <time>2020-06-02T09:37:17Z</time>
      </trkpt>
      <trkpt lat="46.16208" lon="-1.14349">
        <ele>11.2</ele>
        <time>2020-06-02T09:37:18Z</time>
      </trkpt>
      <trkpt lat="46.16207" lon="-1.14348">
        <ele>11.2</ele>
        <time>2020-06-02T09:37:19Z</time>
      </trkpt>
      <trkpt lat="46.16206" lon="-1.14346">
        <ele>11</ele>
        <time>2020-06-02T09:37:20Z</time>
      </trkpt>
      <trkpt lat="46.16206" lon="-1.14344">
        <ele>10.9</ele>
        <time>2020-06-02T09:37:21Z</time>
      </trkpt>
      <trkpt lat="46.16205" lon="-1.14341">
        <ele>10.8</ele>
        <time>2020-06-02T09:37:22Z</time>
      </trkpt>
      <trkpt lat="46.16204" lon="-1.14335">
        <ele>10.7</ele>
        <time>2020-06-02T09:37:23Z</time>
      </trkpt>
      <trkpt lat="46.16203" lon="-1.1433">
        <ele>10.6</ele>
        <time>2020-06-02T09:37:24Z</time>
      </trkpt>
      <trkpt lat="46.16203" lon="-1.14323">
        <ele>10.6</ele>
        <time>2020-06-02T09:37:25Z</time>
      </trkpt>
      <trkpt lat="46.16203" lon="-1.14318">
        <ele>10.6</ele>
        <time>2020-06-02T09:37:26Z</time>
      </trkpt>
      <trkpt lat="46.16203" lon="-1.14312">
        <ele>10.5</ele>
        <time>2020-06-02T09:37:27Z</time>
      </trkpt>
      <trkpt lat="46.16202" lon="-1.14306">
        <ele>10.5</ele>
        <time>2020-06-02T09:37:28Z</time>
      </trkpt>
      <trkpt lat="46.16203" lon="-1.143">
        <ele>10.5</ele>
        <time>2020-06-02T09:37:29Z</time>
      </trkpt>
      <trkpt lat="46.16203" lon="-1.14294">
        <ele>10.5</ele>
        <time>2020-06-02T09:37:30Z</time>
      </trkpt>
      <trkpt lat="46.16204" lon="-1.14287">
        <ele>10.5</ele>
        <time>2020-06-02T09:37:31Z</time>
      </trkpt>
      <trkpt lat="46.16206" lon="-1.1428">
        <ele>10.4</ele>
        <time>2020-06-02T09:37:32Z</time>
      </trkpt>
      <trkpt lat="46.16209" lon="-1.14274">
        <ele>10.4</ele>
        <time>2020-06-02T09:37:33Z</time>
      </trkpt>
      <trkpt lat="46.16212" lon="-1.14267">
        <ele>10.4</ele>
        <time>2020-06-02T09:37:34Z</time>
      </trkpt>
      <trkpt lat="46.16215" lon="-1.14261">
        <ele>10.3</ele>
        <time>2020-06-02T09:37:35Z</time>
      </trkpt>
      <trkpt lat="46.16217" lon="-1.14253">
        <ele>10.3</ele>
        <time>2020-06-02T09:37:36Z</time>
      </trkpt>
      <trkpt lat="46.16218" lon="-1.14245">
        <ele>10.3</ele>
        <time>2020-06-02T09:37:37Z</time>
      </trkpt>
      <trkpt lat="46.1622" lon="-1.14238">
        <ele>10.3</ele>
        <time>2020-06-02T09:37:38Z</time>
      </trkpt>
      <trkpt lat="46.16221" lon="-1.14229">
        <ele>10.3</ele>
        <time>2020-06-02T09:37:39Z</time>
      </trkpt>
      <trkpt lat="46.16221" lon="-1.14219">
        <ele>10.3</ele>
        <time>2020-06-02T09:37:40Z</time>
      </trkpt>
      <trkpt lat="46.1622" lon="-1.14211">
        <ele>10.3</ele>
        <time>2020-06-02T09:37:41Z</time>
      </trkpt>
      <trkpt lat="46.16219" lon="-1.14204">
        <ele>10.4</ele>
        <time>2020-06-02T09:37:42Z</time>
      </trkpt>
      <trkpt lat="46.16219" lon="-1.14195">
        <ele>10.4</ele>
        <time>2020-06-02T09:37:43Z</time>
      </trkpt>
      <trkpt lat="46.16218" lon="-1.14187">
        <ele>10.5</ele>
        <time>2020-06-02T09:37:44Z</time>
      </trkpt>
      <trkpt lat="46.16219" lon="-1.14177">
        <ele>10.5</ele>
        <time>2020-06-02T09:37:45Z</time>
      </trkpt>
      <trkpt lat="46.16219" lon="-1.14168">
        <ele>10.6</ele>
        <time>2020-06-02T09:37:46Z</time>
      </trkpt>
      <trkpt lat="46.16219" lon="-1.14159">
        <ele>10.7</ele>
        <time>2020-06-02T09:37:47Z</time>
      </trkpt>
      <trkpt lat="46.16219" lon="-1.14149">
        <ele>10.7</ele>
        <time>2020-06-02T09:37:48Z</time>
      </trkpt>
      <trkpt lat="46.16218" lon="-1.1414">
        <ele>10.8</ele>
        <time>2020-06-02T09:37:49Z</time>
      </trkpt>
      <trkpt lat="46.16218" lon="-1.14131">
        <ele>10.8</ele>
        <time>2020-06-02T09:37:50Z</time>
      </trkpt>
      <trkpt lat="46.16217" lon="-1.14123">
        <ele>10.8</ele>
        <time>2020-06-02T09:37:51Z</time>
      </trkpt>
      <trkpt lat="46.16217" lon="-1.14116">
        <ele>10.6</ele>
        <time>2020-06-02T09:37:52Z</time>
      </trkpt>
      <trkpt lat="46.16217" lon="-1.14109">
        <ele>10.6</ele>
        <time>2020-06-02T09:37:53Z</time>
      </trkpt>
      <trkpt lat="46.16218" lon="-1.14102">
        <ele>10.6</ele>
        <time>2020-06-02T09:37:54Z</time>
      </trkpt>
      <trkpt lat="46.16222" lon="-1.14097">
        <ele>9.9</ele>
        <time>2020-06-02T09:37:55Z</time>
      </trkpt>
      <trkpt lat="46.16226" lon="-1.14095">
        <ele>9.8</ele>
        <time>2020-06-02T09:37:56Z</time>
      </trkpt>
      <trkpt lat="46.16232" lon="-1.14089">
        <ele>9.7</ele>
        <time>2020-06-02T09:37:57Z</time>
      </trkpt>
      <trkpt lat="46.16236" lon="-1.14083">
        <ele>9.7</ele>
        <time>2020-06-02T09:37:58Z</time>
      </trkpt>
      <trkpt lat="46.16241" lon="-1.14075">
        <ele>9.6</ele>
        <time>2020-06-02T09:37:59Z</time>
      </trkpt>
      <trkpt lat="46.16245" lon="-1.14068">
        <ele>9.5</ele>
        <time>2020-06-02T09:38:00Z</time>
      </trkpt>
      <trkpt lat="46.16249" lon="-1.14062">
        <ele>9.4</ele>
        <time>2020-06-02T09:38:01Z</time>
      </trkpt>
      <trkpt lat="46.16253" lon="-1.14055">
        <ele>9.3</ele>
        <time>2020-06-02T09:38:02Z</time>
      </trkpt>
      <trkpt lat="46.16257" lon="-1.14048">
        <ele>9.2</ele>
        <time>2020-06-02T09:38:03Z</time>
      </trkpt>
      <trkpt lat="46.1626" lon="-1.14041">
        <ele>9.1</ele>
        <time>2020-06-02T09:38:04Z</time>
      </trkpt>
      <trkpt lat="46.16263" lon="-1.14034">
        <ele>8.9</ele>
        <time>2020-06-02T09:38:05Z</time>
      </trkpt>
      <trkpt lat="46.16266" lon="-1.14027">
        <ele>8.8</ele>
        <time>2020-06-02T09:38:06Z</time>
      </trkpt>
      <trkpt lat="46.1627" lon="-1.14019">
        <ele>8.6</ele>
        <time>2020-06-02T09:38:07Z</time>
      </trkpt>
      <trkpt lat="46.16273" lon="-1.14013">
        <ele>8.5</ele>
        <time>2020-06-02T09:38:08Z</time>
      </trkpt>
      <trkpt lat="46.16276" lon="-1.14006">
        <ele>8.4</ele>
        <time>2020-06-02T09:38:09Z</time>
      </trkpt>
      <trkpt lat="46.16278" lon="-1.13999">
        <ele>8.4</ele>
        <time>2020-06-02T09:38:10Z</time>
      </trkpt>
      <trkpt lat="46.16282" lon="-1.13992">
        <ele>8.3</ele>
        <time>2020-06-02T09:38:11Z</time>
      </trkpt>
      <trkpt lat="46.16285" lon="-1.13985">
        <ele>8.2</ele>
        <time>2020-06-02T09:38:12Z</time>
      </trkpt>
      <trkpt lat="46.16287" lon="-1.13978">
        <ele>8.1</ele>
        <time>2020-06-02T09:38:13Z</time>
      </trkpt>
      <trkpt lat="46.1629" lon="-1.13972">
        <ele>7.9</ele>
        <time>2020-06-02T09:38:14Z</time>
      </trkpt>
      <trkpt lat="46.16293" lon="-1.13965">
        <ele>7.8</ele>
        <time>2020-06-02T09:38:15Z</time>
      </trkpt>
      <trkpt lat="46.16297" lon="-1.13959">
        <ele>7.6</ele>
        <time>2020-06-02T09:38:16Z</time>
      </trkpt>
      <trkpt lat="46.163" lon="-1.13952">
        <ele>7.4</ele>
        <time>2020-06-02T09:38:17Z</time>
      </trkpt>
      <trkpt lat="46.16303" lon="-1.13946">
        <ele>7.3</ele>
        <time>2020-06-02T09:38:18Z</time>
      </trkpt>
      <trkpt lat="46.16307" lon="-1.13938">
        <ele>7.1</ele>
        <time>2020-06-02T09:38:19Z</time>
      </trkpt>
      <trkpt lat="46.1631" lon="-1.13931">
        <ele>7</ele>
        <time>2020-06-02T09:38:20Z</time>
      </trkpt>
      <trkpt lat="46.16312" lon="-1.13925">
        <ele>6.9</ele>
        <time>2020-06-02T09:38:21Z</time>
      </trkpt>
      <trkpt lat="46.16315" lon="-1.13919">
        <ele>6.8</ele>
        <time>2020-06-02T09:38:22Z</time>
      </trkpt>
      <trkpt lat="46.16318" lon="-1.13915">
        <ele>6.7</ele>
        <time>2020-06-02T09:38:23Z</time>
      </trkpt>
      <trkpt lat="46.1632" lon="-1.13913">
        <ele>6.5</ele>
        <time>2020-06-02T09:38:24Z</time>
      </trkpt>
      <trkpt lat="46.1632" lon="-1.13911">
        <ele>6.5</ele>
        <time>2020-06-02T09:38:25Z</time>
      </trkpt>
      <trkpt lat="46.16321" lon="-1.1391">
        <ele>6.5</ele>
        <time>2020-06-02T09:38:26Z</time>
      </trkpt>
      <trkpt lat="46.16321" lon="-1.1391">
        <ele>6.5</ele>
        <time>2020-06-02T09:38:27Z</time>
      </trkpt>
      <trkpt lat="46.16321" lon="-1.1391">
        <ele>6.5</ele>
        <time>2020-06-02T09:38:28Z</time>
      </trkpt>
      <trkpt lat="46.16321" lon="-1.13909">
        <ele>6.5</ele>
        <time>2020-06-02T09:38:29Z</time>
      </trkpt>
      <trkpt lat="46.16321" lon="-1.13909">
        <ele>6.5</ele>
        <time>2020-06-02T09:38:30Z</time>
      </trkpt>
      <trkpt lat="46.16321" lon="-1.13909">
        <ele>6.5</ele>
        <time>2020-06-02T09:38:31Z</time>
      </trkpt>
      <trkpt lat="46.16321" lon="-1.13909">
        <ele>6.5</ele>
        <time>2020-06-02T09:38:32Z</time>
      </trkpt>
      <trkpt lat="46.16322" lon="-1.13909">
        <ele>6.5</ele>
        <time>2020-06-02T09:38:33Z</time>
      </trkpt>
      <trkpt lat="46.16322" lon="-1.13908">
        <ele>6.5</ele>
        <time>2020-06-02T09:38:34Z</time>
      </trkpt>
      <trkpt lat="46.16322" lon="-1.13908">
        <ele>6.5</ele>
        <time>2020-06-02T09:38:35Z</time>
      </trkpt>
      <trkpt lat="46.16322" lon="-1.13908">
        <ele>6.5</ele>
        <time>2020-06-02T09:38:36Z</time>
      </trkpt>
      <trkpt lat="46.16322" lon="-1.13908">
        <ele>6.5</ele>
        <time>2020-06-02T09:38:37Z</time>
      </trkpt>
      <trkpt lat="46.16322" lon="-1.13907">
        <ele>6.5</ele>
        <time>2020-06-02T09:38:38Z</time>
      </trkpt>
      <trkpt lat="46.16322" lon="-1.13907">
        <ele>6.5</ele>
        <time>2020-06-02T09:38:39Z</time>
      </trkpt>
      <trkpt lat="46.16322" lon="-1.13907">
        <ele>6.4</ele>
        <time>2020-06-02T09:38:40Z</time>
      </trkpt>
      <trkpt lat="46.16322" lon="-1.13907">
        <ele>6.4</ele>
        <time>2020-06-02T09:38:41Z</time>
      </trkpt>
      <trkpt lat="46.16321" lon="-1.13903">
        <ele>6.4</ele>
        <time>2020-06-02T09:38:42Z</time>
      </trkpt>
      <trkpt lat="46.16321" lon="-1.13897">
        <ele>6.3</ele>
        <time>2020-06-02T09:38:43Z</time>
      </trkpt>
      <trkpt lat="46.16321" lon="-1.13891">
        <ele>6</ele>
        <time>2020-06-02T09:38:44Z</time>
      </trkpt>
      <trkpt lat="46.16321" lon="-1.13887">
        <ele>6</ele>
        <time>2020-06-02T09:38:45Z</time>
      </trkpt>
      <trkpt lat="46.16323" lon="-1.13883">
        <ele>6</ele>
        <time>2020-06-02T09:38:46Z</time>
      </trkpt>
      <trkpt lat="46.16326" lon="-1.13879">
        <ele>6</ele>
        <time>2020-06-02T09:38:47Z</time>
      </trkpt>
      <trkpt lat="46.16329" lon="-1.13875">
        <ele>6</ele>
        <time>2020-06-02T09:38:48Z</time>
      </trkpt>
      <trkpt lat="46.16332" lon="-1.13868">
        <ele>6</ele>
        <time>2020-06-02T09:38:49Z</time>
      </trkpt>
      <trkpt lat="46.16335" lon="-1.13861">
        <ele>6</ele>
        <time>2020-06-02T09:38:50Z</time>
      </trkpt>
      <trkpt lat="46.16337" lon="-1.13855">
        <ele>6</ele>
        <time>2020-06-02T09:38:51Z</time>
      </trkpt>
      <trkpt lat="46.1634" lon="-1.13851">
        <ele>5.9</ele>
        <time>2020-06-02T09:38:52Z</time>
      </trkpt>
      <trkpt lat="46.16342" lon="-1.13846">
        <ele>5.9</ele>
        <time>2020-06-02T09:38:53Z</time>
      </trkpt>
      <trkpt lat="46.16346" lon="-1.13843">
        <ele>6</ele>
        <time>2020-06-02T09:38:54Z</time>
      </trkpt>
      <trkpt lat="46.1635" lon="-1.1384">
        <ele>6</ele>
        <time>2020-06-02T09:38:55Z</time>
      </trkpt>
      <trkpt lat="46.16353" lon="-1.13836">
        <ele>6</ele>
        <time>2020-06-02T09:38:56Z</time>
      </trkpt>
      <trkpt lat="46.16357" lon="-1.13831">
        <ele>6.1</ele>
        <time>2020-06-02T09:38:57Z</time>
      </trkpt>
      <trkpt lat="46.16359" lon="-1.13826">
        <ele>6.2</ele>
        <time>2020-06-02T09:38:58Z</time>
      </trkpt>
      <trkpt lat="46.16362" lon="-1.13819">
        <ele>6.3</ele>
        <time>2020-06-02T09:38:59Z</time>
      </trkpt>
      <trkpt lat="46.16365" lon="-1.13814">
        <ele>6.4</ele>
        <time>2020-06-02T09:39:00Z</time>
      </trkpt>
      <trkpt lat="46.16368" lon="-1.13807">
        <ele>6.5</ele>
        <time>2020-06-02T09:39:01Z</time>
      </trkpt>
      <trkpt lat="46.16372" lon="-1.138">
        <ele>6.7</ele>
        <time>2020-06-02T09:39:02Z</time>
      </trkpt>
      <trkpt lat="46.16375" lon="-1.13795">
        <ele>6.8</ele>
        <time>2020-06-02T09:39:03Z</time>
      </trkpt>
      <trkpt lat="46.16378" lon="-1.1379">
        <ele>6.9</ele>
        <time>2020-06-02T09:39:04Z</time>
      </trkpt>
      <trkpt lat="46.1638" lon="-1.13785">
        <ele>7</ele>
        <time>2020-06-02T09:39:05Z</time>
      </trkpt>
      <trkpt lat="46.16383" lon="-1.13779">
        <ele>7.1</ele>
        <time>2020-06-02T09:39:06Z</time>
      </trkpt>
      <trkpt lat="46.16385" lon="-1.13772">
        <ele>7.2</ele>
        <time>2020-06-02T09:39:07Z</time>
      </trkpt>
      <trkpt lat="46.16388" lon="-1.13766">
        <ele>7.3</ele>
        <time>2020-06-02T09:39:08Z</time>
      </trkpt>
      <trkpt lat="46.16391" lon="-1.1376">
        <ele>7.4</ele>
        <time>2020-06-02T09:39:09Z</time>
      </trkpt>
      <trkpt lat="46.16395" lon="-1.13755">
        <ele>7.5</ele>
        <time>2020-06-02T09:39:10Z</time>
      </trkpt>
      <trkpt lat="46.16397" lon="-1.13751">
        <ele>7.7</ele>
        <time>2020-06-02T09:39:11Z</time>
      </trkpt>
      <trkpt lat="46.164" lon="-1.13745">
        <ele>7.8</ele>
        <time>2020-06-02T09:39:12Z</time>
      </trkpt>
      <trkpt lat="46.16403" lon="-1.13739">
        <ele>7.9</ele>
        <time>2020-06-02T09:39:13Z</time>
      </trkpt>
      <trkpt lat="46.16406" lon="-1.13733">
        <ele>8</ele>
        <time>2020-06-02T09:39:14Z</time>
      </trkpt>
      <trkpt lat="46.16409" lon="-1.13727">
        <ele>8.1</ele>
        <time>2020-06-02T09:39:15Z</time>
      </trkpt>
      <trkpt lat="46.16411" lon="-1.13722">
        <ele>8.2</ele>
        <time>2020-06-02T09:39:16Z</time>
      </trkpt>
      <trkpt lat="46.16414" lon="-1.13717">
        <ele>8.3</ele>
        <time>2020-06-02T09:39:17Z</time>
      </trkpt>
      <trkpt lat="46.16416" lon="-1.13712">
        <ele>8.4</ele>
        <time>2020-06-02T09:39:18Z</time>
      </trkpt>
      <trkpt lat="46.16418" lon="-1.13706">
        <ele>8.5</ele>
        <time>2020-06-02T09:39:19Z</time>
      </trkpt>
      <trkpt lat="46.16421" lon="-1.13699">
        <ele>8.6</ele>
        <time>2020-06-02T09:39:20Z</time>
      </trkpt>
      <trkpt lat="46.16424" lon="-1.13694">
        <ele>8.7</ele>
        <time>2020-06-02T09:39:21Z</time>
      </trkpt>
      <trkpt lat="46.16427" lon="-1.13689">
        <ele>8.8</ele>
        <time>2020-06-02T09:39:22Z</time>
      </trkpt>
      <trkpt lat="46.16429" lon="-1.13684">
        <ele>8.9</ele>
        <time>2020-06-02T09:39:23Z</time>
      </trkpt>
      <trkpt lat="46.16431" lon="-1.13677">
        <ele>9.1</ele>
        <time>2020-06-02T09:39:24Z</time>
      </trkpt>
      <trkpt lat="46.16433" lon="-1.13671">
        <ele>9.1</ele>
        <time>2020-06-02T09:39:25Z</time>
      </trkpt>
      <trkpt lat="46.16436" lon="-1.13666">
        <ele>9.2</ele>
        <time>2020-06-02T09:39:26Z</time>
      </trkpt>
      <trkpt lat="46.16438" lon="-1.13659">
        <ele>9.3</ele>
        <time>2020-06-02T09:39:27Z</time>
      </trkpt>
      <trkpt lat="46.16441" lon="-1.13654">
        <ele>9.4</ele>
        <time>2020-06-02T09:39:28Z</time>
      </trkpt>
      <trkpt lat="46.16443" lon="-1.13648">
        <ele>9.5</ele>
        <time>2020-06-02T09:39:29Z</time>
      </trkpt>
      <trkpt lat="46.16446" lon="-1.13642">
        <ele>9.5</ele>
        <time>2020-06-02T09:39:30Z</time>
      </trkpt>
      <trkpt lat="46.16448" lon="-1.13634">
        <ele>9.6</ele>
        <time>2020-06-02T09:39:31Z</time>
      </trkpt>
      <trkpt lat="46.16451" lon="-1.13627">
        <ele>9.7</ele>
        <time>2020-06-02T09:39:32Z</time>
      </trkpt>
      <trkpt lat="46.16454" lon="-1.13621">
        <ele>9.7</ele>
        <time>2020-06-02T09:39:33Z</time>
      </trkpt>
      <trkpt lat="46.16456" lon="-1.13613">
        <ele>9.7</ele>
        <time>2020-06-02T09:39:34Z</time>
      </trkpt>
      <trkpt lat="46.16459" lon="-1.13606">
        <ele>9.8</ele>
        <time>2020-06-02T09:39:35Z</time>
      </trkpt>
      <trkpt lat="46.16462" lon="-1.13599">
        <ele>9.8</ele>
        <time>2020-06-02T09:39:36Z</time>
      </trkpt>
      <trkpt lat="46.16465" lon="-1.13592">
        <ele>9.9</ele>
        <time>2020-06-02T09:39:37Z</time>
      </trkpt>
      <trkpt lat="46.16468" lon="-1.13585">
        <ele>9.9</ele>
        <time>2020-06-02T09:39:38Z</time>
      </trkpt>
      <trkpt lat="46.1647" lon="-1.13578">
        <ele>10</ele>
        <time>2020-06-02T09:39:39Z</time>
      </trkpt>
      <trkpt lat="46.16473" lon="-1.13571">
        <ele>10.1</ele>
        <time>2020-06-02T09:39:40Z</time>
      </trkpt>
      <trkpt lat="46.16476" lon="-1.13565">
        <ele>10.1</ele>
        <time>2020-06-02T09:39:41Z</time>
      </trkpt>
      <trkpt lat="46.16479" lon="-1.13558">
        <ele>10.2</ele>
        <time>2020-06-02T09:39:42Z</time>
      </trkpt>
      <trkpt lat="46.16481" lon="-1.13552">
        <ele>10.2</ele>
        <time>2020-06-02T09:39:43Z</time>
      </trkpt>
      <trkpt lat="46.16484" lon="-1.13546">
        <ele>10.3</ele>
        <time>2020-06-02T09:39:44Z</time>
      </trkpt>
      <trkpt lat="46.16487" lon="-1.13541">
        <ele>10.3</ele>
        <time>2020-06-02T09:39:45Z</time>
      </trkpt>
      <trkpt lat="46.16491" lon="-1.13536">
        <ele>10.4</ele>
        <time>2020-06-02T09:39:46Z</time>
      </trkpt>
      <trkpt lat="46.16495" lon="-1.1353">
        <ele>10.4</ele>
        <time>2020-06-02T09:39:47Z</time>
      </trkpt>
      <trkpt lat="46.16498" lon="-1.13526">
        <ele>10.4</ele>
        <time>2020-06-02T09:39:48Z</time>
      </trkpt>
      <trkpt lat="46.16503" lon="-1.13522">
        <ele>10.5</ele>
        <time>2020-06-02T09:39:49Z</time>
      </trkpt>
      <trkpt lat="46.16507" lon="-1.13518">
        <ele>10.5</ele>
        <time>2020-06-02T09:39:50Z</time>
      </trkpt>
      <trkpt lat="46.16511" lon="-1.13515">
        <ele>10.5</ele>
        <time>2020-06-02T09:39:51Z</time>
      </trkpt>
      <trkpt lat="46.16515" lon="-1.13514">
        <ele>10.5</ele>
        <time>2020-06-02T09:39:52Z</time>
      </trkpt>
      <trkpt lat="46.16519" lon="-1.13509">
        <ele>10.6</ele>
        <time>2020-06-02T09:39:53Z</time>
      </trkpt>
      <trkpt lat="46.16523" lon="-1.13504">
        <ele>10.6</ele>
        <time>2020-06-02T09:39:54Z</time>
      </trkpt>
      <trkpt lat="46.16524" lon="-1.13498">
        <ele>10.6</ele>
        <time>2020-06-02T09:39:55Z</time>
      </trkpt>
      <trkpt lat="46.16523" lon="-1.13493">
        <ele>10.8</ele>
        <time>2020-06-02T09:39:56Z</time>
      </trkpt>
      <trkpt lat="46.16522" lon="-1.13487">
        <ele>10.8</ele>
        <time>2020-06-02T09:39:57Z</time>
      </trkpt>
      <trkpt lat="46.16521" lon="-1.1348">
        <ele>10.8</ele>
        <time>2020-06-02T09:39:58Z</time>
      </trkpt>
      <trkpt lat="46.1652" lon="-1.13473">
        <ele>10.8</ele>
        <time>2020-06-02T09:39:59Z</time>
      </trkpt>
      <trkpt lat="46.16517" lon="-1.13468">
        <ele>10.8</ele>
        <time>2020-06-02T09:40:00Z</time>
      </trkpt>
      <trkpt lat="46.16515" lon="-1.1346">
        <ele>10.8</ele>
        <time>2020-06-02T09:40:01Z</time>
      </trkpt>
      <trkpt lat="46.16511" lon="-1.13456">
        <ele>10.8</ele>
        <time>2020-06-02T09:40:02Z</time>
      </trkpt>
      <trkpt lat="46.16509" lon="-1.13448">
        <ele>10.8</ele>
        <time>2020-06-02T09:40:03Z</time>
      </trkpt>
      <trkpt lat="46.16507" lon="-1.13442">
        <ele>10.9</ele>
        <time>2020-06-02T09:40:04Z</time>
      </trkpt>
      <trkpt lat="46.16505" lon="-1.13435">
        <ele>10.9</ele>
        <time>2020-06-02T09:40:05Z</time>
      </trkpt>
      <trkpt lat="46.16502" lon="-1.13428">
        <ele>10.9</ele>
        <time>2020-06-02T09:40:06Z</time>
      </trkpt>
      <trkpt lat="46.165" lon="-1.13422">
        <ele>10.9</ele>
        <time>2020-06-02T09:40:07Z</time>
      </trkpt>
      <trkpt lat="46.16496" lon="-1.13416">
        <ele>10.9</ele>
        <time>2020-06-02T09:40:08Z</time>
      </trkpt>
      <trkpt lat="46.16493" lon="-1.13409">
        <ele>10.9</ele>
        <time>2020-06-02T09:40:09Z</time>
      </trkpt>
      <trkpt lat="46.16491" lon="-1.13403">
        <ele>11</ele>
        <time>2020-06-02T09:40:10Z</time>
      </trkpt>
      <trkpt lat="46.16489" lon="-1.13396">
        <ele>11</ele>
        <time>2020-06-02T09:40:11Z</time>
      </trkpt>
      <trkpt lat="46.16487" lon="-1.13391">
        <ele>11</ele>
        <time>2020-06-02T09:40:12Z</time>
      </trkpt>
      <trkpt lat="46.16485" lon="-1.13385">
        <ele>11</ele>
        <time>2020-06-02T09:40:13Z</time>
      </trkpt>
      <trkpt lat="46.16483" lon="-1.13381">
        <ele>11</ele>
        <time>2020-06-02T09:40:14Z</time>
      </trkpt>
      <trkpt lat="46.1648" lon="-1.13378">
        <ele>11</ele>
        <time>2020-06-02T09:40:15Z</time>
      </trkpt>
      <trkpt lat="46.16478" lon="-1.13373">
        <ele>11</ele>
        <time>2020-06-02T09:40:16Z</time>
      </trkpt>
      <trkpt lat="46.16477" lon="-1.13369">
        <ele>11</ele>
        <time>2020-06-02T09:40:17Z</time>
      </trkpt>
      <trkpt lat="46.16474" lon="-1.13366">
        <ele>11</ele>
        <time>2020-06-02T09:40:18Z</time>
      </trkpt>
      <trkpt lat="46.16473" lon="-1.13366">
        <ele>11</ele>
        <time>2020-06-02T09:40:19Z</time>
      </trkpt>
      <trkpt lat="46.16472" lon="-1.13361">
        <ele>11</ele>
        <time>2020-06-02T09:40:20Z</time>
      </trkpt>
      <trkpt lat="46.16472" lon="-1.13361">
        <ele>11</ele>
        <time>2020-06-02T09:40:21Z</time>
      </trkpt>
      <trkpt lat="46.16471" lon="-1.13359">
        <ele>11</ele>
        <time>2020-06-02T09:40:22Z</time>
      </trkpt>
      <trkpt lat="46.1647" lon="-1.1336">
        <ele>11</ele>
        <time>2020-06-02T09:40:23Z</time>
      </trkpt>
      <trkpt lat="46.16471" lon="-1.13359">
        <ele>11</ele>
        <time>2020-06-02T09:40:24Z</time>
      </trkpt>
      <trkpt lat="46.1647" lon="-1.13359">
        <ele>11</ele>
        <time>2020-06-02T09:40:25Z</time>
      </trkpt>
      <trkpt lat="46.1647" lon="-1.1336">
        <ele>11</ele>
        <time>2020-06-02T09:40:26Z</time>
      </trkpt>
      <trkpt lat="46.1647" lon="-1.13361">
        <ele>11</ele>
        <time>2020-06-02T09:40:27Z</time>
      </trkpt>
      <trkpt lat="46.1647" lon="-1.13362">
        <ele>11</ele>
        <time>2020-06-02T09:40:28Z</time>
      </trkpt>
      <trkpt lat="46.1647" lon="-1.13362">
        <ele>11</ele>
        <time>2020-06-02T09:40:29Z</time>
      </trkpt>
      <trkpt lat="46.1647" lon="-1.13362">
        <ele>11</ele>
        <time>2020-06-02T09:40:30Z</time>
      </trkpt>
      <trkpt lat="46.1647" lon="-1.13362">
        <ele>11</ele>
        <time>2020-06-02T09:40:31Z</time>
      </trkpt>
      <trkpt lat="46.16469" lon="-1.13362">
        <ele>11</ele>
        <time>2020-06-02T09:40:32Z</time>
      </trkpt>
      <trkpt lat="46.16468" lon="-1.13361">
        <ele>11</ele>
        <time>2020-06-02T09:40:33Z</time>
      </trkpt>
      <trkpt lat="46.16468" lon="-1.1336">
        <ele>11.9</ele>
        <time>2020-06-02T09:40:34Z</time>
      </trkpt>
      <trkpt lat="46.16468" lon="-1.1336">
        <ele>11.9</ele>
        <time>2020-06-02T09:40:35Z</time>
      </trkpt>
      <trkpt lat="46.16468" lon="-1.13359">
        <ele>11.9</ele>
        <time>2020-06-02T09:40:36Z</time>
      </trkpt>
      <trkpt lat="46.16468" lon="-1.13359">
        <ele>11.9</ele>
        <time>2020-06-02T09:40:37Z</time>
      </trkpt>
      <trkpt lat="46.16468" lon="-1.13358">
        <ele>11.9</ele>
        <time>2020-06-02T09:40:38Z</time>
      </trkpt>
      <trkpt lat="46.16468" lon="-1.13358">
        <ele>11.9</ele>
        <time>2020-06-02T09:40:39Z</time>
      </trkpt>
      <trkpt lat="46.16468" lon="-1.13357">
        <ele>11.9</ele>
        <time>2020-06-02T09:40:40Z</time>
      </trkpt>
      <trkpt lat="46.16468" lon="-1.13357">
        <ele>11.9</ele>
        <time>2020-06-02T09:40:41Z</time>
      </trkpt>
      <trkpt lat="46.16468" lon="-1.13357">
        <ele>11.9</ele>
        <time>2020-06-02T09:40:42Z</time>
      </trkpt>
      <trkpt lat="46.16468" lon="-1.13356">
        <ele>11.9</ele>
        <time>2020-06-02T09:40:43Z</time>
      </trkpt>
      <trkpt lat="46.16468" lon="-1.13356">
        <ele>11.9</ele>
        <time>2020-06-02T09:40:44Z</time>
      </trkpt>
      <trkpt lat="46.16468" lon="-1.13355">
        <ele>11.9</ele>
        <time>2020-06-02T09:40:45Z</time>
      </trkpt>
      <trkpt lat="46.16468" lon="-1.13355">
        <ele>11.9</ele>
        <time>2020-06-02T09:40:46Z</time>
      </trkpt>
      <trkpt lat="46.16468" lon="-1.13354">
        <ele>11.9</ele>
        <time>2020-06-02T09:40:47Z</time>
      </trkpt>
      <trkpt lat="46.16468" lon="-1.13353">
        <ele>11.9</ele>
        <time>2020-06-02T09:40:48Z</time>
      </trkpt>
      <trkpt lat="46.16467" lon="-1.13353">
        <ele>11.9</ele>
        <time>2020-06-02T09:40:49Z</time>
      </trkpt>
      <trkpt lat="46.16467" lon="-1.13353">
        <ele>11.9</ele>
        <time>2020-06-02T09:40:50Z</time>
      </trkpt>
      <trkpt lat="46.16467" lon="-1.13351">
        <ele>11.9</ele>
        <time>2020-06-02T09:40:51Z</time>
      </trkpt>
      <trkpt lat="46.16466" lon="-1.1335">
        <ele>11.9</ele>
        <time>2020-06-02T09:40:52Z</time>
      </trkpt>
      <trkpt lat="46.16465" lon="-1.13349">
        <ele>11.9</ele>
        <time>2020-06-02T09:40:53Z</time>
      </trkpt>
      <trkpt lat="46.16463" lon="-1.13345">
        <ele>12</ele>
        <time>2020-06-02T09:40:54Z</time>
      </trkpt>
      <trkpt lat="46.16462" lon="-1.13344">
        <ele>12</ele>
        <time>2020-06-02T09:40:55Z</time>
      </trkpt>
      <trkpt lat="46.16461" lon="-1.1334">
        <ele>12.1</ele>
        <time>2020-06-02T09:40:56Z</time>
      </trkpt>
      <trkpt lat="46.1646" lon="-1.13339">
        <ele>12.1</ele>
        <time>2020-06-02T09:40:57Z</time>
      </trkpt>
      <trkpt lat="46.16459" lon="-1.13334">
        <ele>12.3</ele>
        <time>2020-06-02T09:40:58Z</time>
      </trkpt>
      <trkpt lat="46.16458" lon="-1.13332">
        <ele>12.4</ele>
        <time>2020-06-02T09:40:59Z</time>
      </trkpt>
      <trkpt lat="46.16457" lon="-1.13329">
        <ele>12.6</ele>
        <time>2020-06-02T09:41:00Z</time>
      </trkpt>
      <trkpt lat="46.16457" lon="-1.13325">
        <ele>12.9</ele>
        <time>2020-06-02T09:41:01Z</time>
      </trkpt>
      <trkpt lat="46.16455" lon="-1.13319">
        <ele>13.5</ele>
        <time>2020-06-02T09:41:02Z</time>
      </trkpt>
      <trkpt lat="46.16454" lon="-1.13317">
        <ele>13.7</ele>
        <time>2020-06-02T09:41:03Z</time>
      </trkpt>
      <trkpt lat="46.16453" lon="-1.13313">
        <ele>14.4</ele>
        <time>2020-06-02T09:41:04Z</time>
      </trkpt>
      <trkpt lat="46.1645" lon="-1.13308">
        <ele>15.5</ele>
        <time>2020-06-02T09:41:05Z</time>
      </trkpt>
      <trkpt lat="46.16448" lon="-1.13303">
        <ele>16.5</ele>
        <time>2020-06-02T09:41:06Z</time>
      </trkpt>
      <trkpt lat="46.16445" lon="-1.13298">
        <ele>17.3</ele>
        <time>2020-06-02T09:41:07Z</time>
      </trkpt>
      <trkpt lat="46.16443" lon="-1.13293">
        <ele>17.6</ele>
        <time>2020-06-02T09:41:08Z</time>
      </trkpt>
      <trkpt lat="46.1644" lon="-1.13287">
        <ele>17.4</ele>
        <time>2020-06-02T09:41:09Z</time>
      </trkpt>
      <trkpt lat="46.16438" lon="-1.1328">
        <ele>16.5</ele>
        <time>2020-06-02T09:41:10Z</time>
      </trkpt>
      <trkpt lat="46.16436" lon="-1.13273">
        <ele>15.4</ele>
        <time>2020-06-02T09:41:11Z</time>
      </trkpt>
      <trkpt lat="46.16433" lon="-1.13267">
        <ele>14.4</ele>
        <time>2020-06-02T09:41:12Z</time>
      </trkpt>
      <trkpt lat="46.16431" lon="-1.13261">
        <ele>13.8</ele>
        <time>2020-06-02T09:41:13Z</time>
      </trkpt>
      <trkpt lat="46.1643" lon="-1.13256">
        <ele>13</ele>
        <time>2020-06-02T09:41:14Z</time>
      </trkpt>
      <trkpt lat="46.16428" lon="-1.1325">
        <ele>12.9</ele>
        <time>2020-06-02T09:41:15Z</time>
      </trkpt>
      <trkpt lat="46.16426" lon="-1.13243">
        <ele>12.9</ele>
        <time>2020-06-02T09:41:16Z</time>
      </trkpt>
      <trkpt lat="46.16423" lon="-1.13237">
        <ele>12.9</ele>
        <time>2020-06-02T09:41:17Z</time>
      </trkpt>
      <trkpt lat="46.1642" lon="-1.13231">
        <ele>12.9</ele>
        <time>2020-06-02T09:41:18Z</time>
      </trkpt>
      <trkpt lat="46.16418" lon="-1.13226">
        <ele>12.9</ele>
        <time>2020-06-02T09:41:19Z</time>
      </trkpt>
      <trkpt lat="46.16416" lon="-1.13222">
        <ele>13</ele>
        <time>2020-06-02T09:41:20Z</time>
      </trkpt>
      <trkpt lat="46.16413" lon="-1.13217">
        <ele>12.9</ele>
        <time>2020-06-02T09:41:21Z</time>
      </trkpt>
      <trkpt lat="46.16412" lon="-1.13212">
        <ele>12.8</ele>
        <time>2020-06-02T09:41:22Z</time>
      </trkpt>
      <trkpt lat="46.1641" lon="-1.13207">
        <ele>12.8</ele>
        <time>2020-06-02T09:41:23Z</time>
      </trkpt>
      <trkpt lat="46.16409" lon="-1.13202">
        <ele>12.8</ele>
        <time>2020-06-02T09:41:24Z</time>
      </trkpt>
      <trkpt lat="46.16408" lon="-1.13197">
        <ele>12.7</ele>
        <time>2020-06-02T09:41:25Z</time>
      </trkpt>
      <trkpt lat="46.16408" lon="-1.13192">
        <ele>12.7</ele>
        <time>2020-06-02T09:41:26Z</time>
      </trkpt>
      <trkpt lat="46.16408" lon="-1.13188">
        <ele>12.5</ele>
        <time>2020-06-02T09:41:27Z</time>
      </trkpt>
      <trkpt lat="46.16408" lon="-1.13183">
        <ele>12.5</ele>
        <time>2020-06-02T09:41:28Z</time>
      </trkpt>
      <trkpt lat="46.16408" lon="-1.13178">
        <ele>12.5</ele>
        <time>2020-06-02T09:41:29Z</time>
      </trkpt>
      <trkpt lat="46.16408" lon="-1.13172">
        <ele>12.4</ele>
        <time>2020-06-02T09:41:30Z</time>
      </trkpt>
      <trkpt lat="46.16409" lon="-1.13167">
        <ele>12.4</ele>
        <time>2020-06-02T09:41:31Z</time>
      </trkpt>
      <trkpt lat="46.1641" lon="-1.13161">
        <ele>12.3</ele>
        <time>2020-06-02T09:41:32Z</time>
      </trkpt>
      <trkpt lat="46.16411" lon="-1.13153">
        <ele>12.3</ele>
        <time>2020-06-02T09:41:33Z</time>
      </trkpt>
      <trkpt lat="46.16413" lon="-1.13146">
        <ele>12.2</ele>
        <time>2020-06-02T09:41:34Z</time>
      </trkpt>
      <trkpt lat="46.16415" lon="-1.13139">
        <ele>12.2</ele>
        <time>2020-06-02T09:41:35Z</time>
      </trkpt>
      <trkpt lat="46.16416" lon="-1.13132">
        <ele>12.1</ele>
        <time>2020-06-02T09:41:36Z</time>
      </trkpt>
      <trkpt lat="46.16417" lon="-1.13125">
        <ele>12</ele>
        <time>2020-06-02T09:41:37Z</time>
      </trkpt>
      <trkpt lat="46.16418" lon="-1.13118">
        <ele>12</ele>
        <time>2020-06-02T09:41:38Z</time>
      </trkpt>
      <trkpt lat="46.16419" lon="-1.13111">
        <ele>11.9</ele>
        <time>2020-06-02T09:41:39Z</time>
      </trkpt>
      <trkpt lat="46.16421" lon="-1.13103">
        <ele>11.9</ele>
        <time>2020-06-02T09:41:40Z</time>
      </trkpt>
      <trkpt lat="46.16422" lon="-1.13097">
        <ele>11.8</ele>
        <time>2020-06-02T09:41:41Z</time>
      </trkpt>
      <trkpt lat="46.16423" lon="-1.13091">
        <ele>11.8</ele>
        <time>2020-06-02T09:41:42Z</time>
      </trkpt>
      <trkpt lat="46.16424" lon="-1.13086">
        <ele>11.7</ele>
        <time>2020-06-02T09:41:43Z</time>
      </trkpt>
      <trkpt lat="46.16425" lon="-1.1308">
        <ele>11.7</ele>
        <time>2020-06-02T09:41:44Z</time>
      </trkpt>
      <trkpt lat="46.16425" lon="-1.13074">
        <ele>11.6</ele>
        <time>2020-06-02T09:41:45Z</time>
      </trkpt>
      <trkpt lat="46.16426" lon="-1.13069">
        <ele>11.6</ele>
        <time>2020-06-02T09:41:46Z</time>
      </trkpt>
      <trkpt lat="46.16427" lon="-1.13063">
        <ele>11.6</ele>
        <time>2020-06-02T09:41:47Z</time>
      </trkpt>
      <trkpt lat="46.16428" lon="-1.13057">
        <ele>11.6</ele>
        <time>2020-06-02T09:41:48Z</time>
      </trkpt>
      <trkpt lat="46.16428" lon="-1.13052">
        <ele>11.6</ele>
        <time>2020-06-02T09:41:49Z</time>
      </trkpt>
      <trkpt lat="46.16428" lon="-1.13046">
        <ele>11.6</ele>
        <time>2020-06-02T09:41:50Z</time>
      </trkpt>
      <trkpt lat="46.16429" lon="-1.13041">
        <ele>11.6</ele>
        <time>2020-06-02T09:41:51Z</time>
      </trkpt>
      <trkpt lat="46.16429" lon="-1.13036">
        <ele>11.6</ele>
        <time>2020-06-02T09:41:52Z</time>
      </trkpt>
      <trkpt lat="46.1643" lon="-1.13031">
        <ele>11.6</ele>
        <time>2020-06-02T09:41:53Z</time>
      </trkpt>
      <trkpt lat="46.16431" lon="-1.13025">
        <ele>11.6</ele>
        <time>2020-06-02T09:41:54Z</time>
      </trkpt>
      <trkpt lat="46.16431" lon="-1.13019">
        <ele>11.6</ele>
        <time>2020-06-02T09:41:55Z</time>
      </trkpt>
      <trkpt lat="46.16432" lon="-1.13014">
        <ele>11.6</ele>
        <time>2020-06-02T09:41:56Z</time>
      </trkpt>
      <trkpt lat="46.16432" lon="-1.13009">
        <ele>11.7</ele>
        <time>2020-06-02T09:41:57Z</time>
      </trkpt>
      <trkpt lat="46.16432" lon="-1.13004">
        <ele>11.7</ele>
        <time>2020-06-02T09:41:58Z</time>
      </trkpt>
      <trkpt lat="46.16433" lon="-1.12999">
        <ele>11.7</ele>
        <time>2020-06-02T09:41:59Z</time>
      </trkpt>
      <trkpt lat="46.16434" lon="-1.12993">
        <ele>11.7</ele>
        <time>2020-06-02T09:42:00Z</time>
      </trkpt>
      <trkpt lat="46.16435" lon="-1.12987">
        <ele>11.8</ele>
        <time>2020-06-02T09:42:01Z</time>
      </trkpt>
      <trkpt lat="46.16435" lon="-1.12982">
        <ele>11.8</ele>
        <time>2020-06-02T09:42:02Z</time>
      </trkpt>
      <trkpt lat="46.16436" lon="-1.12976">
        <ele>11.8</ele>
        <time>2020-06-02T09:42:03Z</time>
      </trkpt>
      <trkpt lat="46.16437" lon="-1.12971">
        <ele>11.8</ele>
        <time>2020-06-02T09:42:04Z</time>
      </trkpt>
      <trkpt lat="46.16438" lon="-1.12967">
        <ele>11.9</ele>
        <time>2020-06-02T09:42:05Z</time>
      </trkpt>
      <trkpt lat="46.16439" lon="-1.12963">
        <ele>11.9</ele>
        <time>2020-06-02T09:42:06Z</time>
      </trkpt>
      <trkpt lat="46.1644" lon="-1.12958">
        <ele>11.9</ele>
        <time>2020-06-02T09:42:07Z</time>
      </trkpt>
      <trkpt lat="46.16441" lon="-1.12956">
        <ele>11.9</ele>
        <time>2020-06-02T09:42:08Z</time>
      </trkpt>
      <trkpt lat="46.16442" lon="-1.12951">
        <ele>11.8</ele>
        <time>2020-06-02T09:42:09Z</time>
      </trkpt>
      <trkpt lat="46.16443" lon="-1.12946">
        <ele>11.7</ele>
        <time>2020-06-02T09:42:10Z</time>
      </trkpt>
      <trkpt lat="46.16441" lon="-1.12942">
        <ele>11.6</ele>
        <time>2020-06-02T09:42:11Z</time>
      </trkpt>
      <trkpt lat="46.16441" lon="-1.12941">
        <ele>11.6</ele>
        <time>2020-06-02T09:42:12Z</time>
      </trkpt>
      <trkpt lat="46.1644" lon="-1.12941">
        <ele>11.6</ele>
        <time>2020-06-02T09:42:13Z</time>
      </trkpt>
      <trkpt lat="46.1644" lon="-1.12943">
        <ele>11.5</ele>
        <time>2020-06-02T09:42:14Z</time>
      </trkpt>
      <trkpt lat="46.1644" lon="-1.12942">
        <ele>11.5</ele>
        <time>2020-06-02T09:42:15Z</time>
      </trkpt>
      <trkpt lat="46.16439" lon="-1.12942">
        <ele>11.5</ele>
        <time>2020-06-02T09:42:16Z</time>
      </trkpt>
      <trkpt lat="46.16439" lon="-1.12941">
        <ele>11.5</ele>
        <time>2020-06-02T09:42:17Z</time>
      </trkpt>
      <trkpt lat="46.16439" lon="-1.12942">
        <ele>11.5</ele>
        <time>2020-06-02T09:42:18Z</time>
      </trkpt>
      <trkpt lat="46.16438" lon="-1.12942">
        <ele>11.4</ele>
        <time>2020-06-02T09:42:19Z</time>
      </trkpt>
      <trkpt lat="46.16438" lon="-1.12942">
        <ele>11.4</ele>
        <time>2020-06-02T09:42:20Z</time>
      </trkpt>
      <trkpt lat="46.16438" lon="-1.12942">
        <ele>11.4</ele>
        <time>2020-06-02T09:42:21Z</time>
      </trkpt>
      <trkpt lat="46.16438" lon="-1.12942">
        <ele>11.4</ele>
        <time>2020-06-02T09:42:22Z</time>
      </trkpt>
      <trkpt lat="46.16438" lon="-1.12942">
        <ele>11.4</ele>
        <time>2020-06-02T09:42:23Z</time>
      </trkpt>
      <trkpt lat="46.16438" lon="-1.12942">
        <ele>11.4</ele>
        <time>2020-06-02T09:42:24Z</time>
      </trkpt>
      <trkpt lat="46.16438" lon="-1.12942">
        <ele>11.4</ele>
        <time>2020-06-02T09:42:25Z</time>
      </trkpt>
      <trkpt lat="46.16438" lon="-1.12942">
        <ele>11.4</ele>
        <time>2020-06-02T09:42:26Z</time>
      </trkpt>
      <trkpt lat="46.16438" lon="-1.12942">
        <ele>11.4</ele>
        <time>2020-06-02T09:42:27Z</time>
      </trkpt>
      <trkpt lat="46.16438" lon="-1.12942">
        <ele>11.4</ele>
        <time>2020-06-02T09:42:28Z</time>
      </trkpt>
      <trkpt lat="46.16438" lon="-1.12942">
        <ele>11.4</ele>
        <time>2020-06-02T09:42:29Z</time>
      </trkpt>
      <trkpt lat="46.16438" lon="-1.12942">
        <ele>11.4</ele>
        <time>2020-06-02T09:42:30Z</time>
      </trkpt>
      <trkpt lat="46.16438" lon="-1.12942">
        <ele>11.4</ele>
        <time>2020-06-02T09:42:31Z</time>
      </trkpt>
      <trkpt lat="46.16438" lon="-1.12942">
        <ele>11.4</ele>
        <time>2020-06-02T09:42:32Z</time>
      </trkpt>
      <trkpt lat="46.16438" lon="-1.12942">
        <ele>11.4</ele>
        <time>2020-06-02T09:42:33Z</time>
      </trkpt>
      <trkpt lat="46.16438" lon="-1.12942">
        <ele>11.4</ele>
        <time>2020-06-02T09:42:34Z</time>
      </trkpt>
      <trkpt lat="46.16438" lon="-1.12942">
        <ele>11.4</ele>
        <time>2020-06-02T09:42:35Z</time>
      </trkpt>
      <trkpt lat="46.16438" lon="-1.12942">
        <ele>11.4</ele>
        <time>2020-06-02T09:42:36Z</time>
      </trkpt>
      <trkpt lat="46.16438" lon="-1.12942">
        <ele>11.4</ele>
        <time>2020-06-02T09:42:37Z</time>
      </trkpt>
      <trkpt lat="46.16438" lon="-1.12942">
        <ele>11.4</ele>
        <time>2020-06-02T09:42:38Z</time>
      </trkpt>
      <trkpt lat="46.16438" lon="-1.12942">
        <ele>11.4</ele>
        <time>2020-06-02T09:42:39Z</time>
      </trkpt>
      <trkpt lat="46.16438" lon="-1.12942">
        <ele>11.4</ele>
        <time>2020-06-02T09:42:40Z</time>
      </trkpt>
      <trkpt lat="46.16438" lon="-1.12942">
        <ele>11.4</ele>
        <time>2020-06-02T09:42:41Z</time>
      </trkpt>
      <trkpt lat="46.16437" lon="-1.12941">
        <ele>11.4</ele>
        <time>2020-06-02T09:42:42Z</time>
      </trkpt>
      <trkpt lat="46.16435" lon="-1.12941">
        <ele>11.3</ele>
        <time>2020-06-02T09:42:43Z</time>
      </trkpt>
      <trkpt lat="46.16433" lon="-1.12939">
        <ele>11.2</ele>
        <time>2020-06-02T09:42:44Z</time>
      </trkpt>
      <trkpt lat="46.16431" lon="-1.12938">
        <ele>11.2</ele>
        <time>2020-06-02T09:42:45Z</time>
      </trkpt>
      <trkpt lat="46.16429" lon="-1.12935">
        <ele>11.1</ele>
        <time>2020-06-02T09:42:46Z</time>
      </trkpt>
      <trkpt lat="46.16424" lon="-1.12933">
        <ele>11</ele>
        <time>2020-06-02T09:42:47Z</time>
      </trkpt>
      <trkpt lat="46.16423" lon="-1.12932">
        <ele>10.9</ele>
        <time>2020-06-02T09:42:48Z</time>
      </trkpt>
      <trkpt lat="46.16419" lon="-1.12931">
        <ele>10.8</ele>
        <time>2020-06-02T09:42:49Z</time>
      </trkpt>
      <trkpt lat="46.16415" lon="-1.1293">
        <ele>10.7</ele>
        <time>2020-06-02T09:42:50Z</time>
      </trkpt>
      <trkpt lat="46.16411" lon="-1.12929">
        <ele>10.6</ele>
        <time>2020-06-02T09:42:51Z</time>
      </trkpt>
      <trkpt lat="46.16407" lon="-1.12927">
        <ele>10.5</ele>
        <time>2020-06-02T09:42:52Z</time>
      </trkpt>
      <trkpt lat="46.16402" lon="-1.12926">
        <ele>10.4</ele>
        <time>2020-06-02T09:42:53Z</time>
      </trkpt>
      <trkpt lat="46.16398" lon="-1.12925">
        <ele>10.2</ele>
        <time>2020-06-02T09:42:54Z</time>
      </trkpt>
      <trkpt lat="46.16394" lon="-1.12924">
        <ele>10.1</ele>
        <time>2020-06-02T09:42:55Z</time>
      </trkpt>
      <trkpt lat="46.1639" lon="-1.12922">
        <ele>10</ele>
        <time>2020-06-02T09:42:56Z</time>
      </trkpt>
      <trkpt lat="46.16385" lon="-1.12921">
        <ele>9.9</ele>
        <time>2020-06-02T09:42:57Z</time>
      </trkpt>
      <trkpt lat="46.1638" lon="-1.12919">
        <ele>9.7</ele>
        <time>2020-06-02T09:42:58Z</time>
      </trkpt>
      <trkpt lat="46.16376" lon="-1.12917">
        <ele>9.6</ele>
        <time>2020-06-02T09:42:59Z</time>
      </trkpt>
      <trkpt lat="46.16372" lon="-1.12916">
        <ele>9.5</ele>
        <time>2020-06-02T09:43:00Z</time>
      </trkpt>
      <trkpt lat="46.16367" lon="-1.12914">
        <ele>9.4</ele>
        <time>2020-06-02T09:43:01Z</time>
      </trkpt>
      <trkpt lat="46.16363" lon="-1.12913">
        <ele>9.3</ele>
        <time>2020-06-02T09:43:02Z</time>
      </trkpt>
      <trkpt lat="46.1636" lon="-1.12912">
        <ele>9.2</ele>
        <time>2020-06-02T09:43:03Z</time>
      </trkpt>
      <trkpt lat="46.16358" lon="-1.12914">
        <ele>9.1</ele>
        <time>2020-06-02T09:43:04Z</time>
      </trkpt>
      <trkpt lat="46.16357" lon="-1.12914">
        <ele>9.1</ele>
        <time>2020-06-02T09:43:05Z</time>
      </trkpt>
      <trkpt lat="46.16356" lon="-1.12918">
        <ele>9</ele>
        <time>2020-06-02T09:43:06Z</time>
      </trkpt>
      <trkpt lat="46.16355" lon="-1.12925">
        <ele>8.9</ele>
        <time>2020-06-02T09:43:07Z</time>
      </trkpt>
      <trkpt lat="46.16354" lon="-1.12932">
        <ele>8.7</ele>
        <time>2020-06-02T09:43:08Z</time>
      </trkpt>
      <trkpt lat="46.16354" lon="-1.12939">
        <ele>8.6</ele>
        <time>2020-06-02T09:43:09Z</time>
      </trkpt>
      <trkpt lat="46.16352" lon="-1.12945">
        <ele>8.5</ele>
        <time>2020-06-02T09:43:10Z</time>
      </trkpt>
      <trkpt lat="46.16351" lon="-1.12951">
        <ele>8.4</ele>
        <time>2020-06-02T09:43:11Z</time>
      </trkpt>
      <trkpt lat="46.1635" lon="-1.12957">
        <ele>8.2</ele>
        <time>2020-06-02T09:43:12Z</time>
      </trkpt>
      <trkpt lat="46.1635" lon="-1.12961">
        <ele>8.2</ele>
        <time>2020-06-02T09:43:13Z</time>
      </trkpt>
      <trkpt lat="46.1635" lon="-1.12962">
        <ele>8.2</ele>
        <time>2020-06-02T09:43:14Z</time>
      </trkpt>
      <trkpt lat="46.16348" lon="-1.12964">
        <ele>8.2</ele>
        <time>2020-06-02T09:43:15Z</time>
      </trkpt>
      <trkpt lat="46.16348" lon="-1.12966">
        <ele>8.3</ele>
        <time>2020-06-02T09:43:16Z</time>
      </trkpt>
      <trkpt lat="46.16347" lon="-1.12969">
        <ele>8.3</ele>
        <time>2020-06-02T09:43:17Z</time>
      </trkpt>
      <trkpt lat="46.16347" lon="-1.1297">
        <ele>8.3</ele>
        <time>2020-06-02T09:43:18Z</time>
      </trkpt>
      <trkpt lat="46.16346" lon="-1.12972">
        <ele>8.3</ele>
        <time>2020-06-02T09:43:19Z</time>
      </trkpt>
      <trkpt lat="46.16346" lon="-1.12975">
        <ele>8.3</ele>
        <time>2020-06-02T09:43:20Z</time>
      </trkpt>
      <trkpt lat="46.16346" lon="-1.12977">
        <ele>8.4</ele>
        <time>2020-06-02T09:43:21Z</time>
      </trkpt>
      <trkpt lat="46.16346" lon="-1.12979">
        <ele>8.4</ele>
        <time>2020-06-02T09:43:22Z</time>
      </trkpt>
      <trkpt lat="46.16346" lon="-1.1298">
        <ele>8.4</ele>
        <time>2020-06-02T09:43:23Z</time>
      </trkpt>
      <trkpt lat="46.16346" lon="-1.12982">
        <ele>8.4</ele>
        <time>2020-06-02T09:43:24Z</time>
      </trkpt>
      <trkpt lat="46.16346" lon="-1.12984">
        <ele>8.4</ele>
        <time>2020-06-02T09:43:25Z</time>
      </trkpt>
      <trkpt lat="46.16345" lon="-1.12987">
        <ele>8.4</ele>
        <time>2020-06-02T09:43:26Z</time>
      </trkpt>
      <trkpt lat="46.16345" lon="-1.12989">
        <ele>8.5</ele>
        <time>2020-06-02T09:43:27Z</time>
      </trkpt>
      <trkpt lat="46.16344" lon="-1.12995">
        <ele>8.5</ele>
        <time>2020-06-02T09:43:28Z</time>
      </trkpt>
      <trkpt lat="46.16344" lon="-1.12997">
        <ele>8.5</ele>
        <time>2020-06-02T09:43:29Z</time>
      </trkpt>
      <trkpt lat="46.16341" lon="-1.12997">
        <ele>8.6</ele>
        <time>2020-06-02T09:43:30Z</time>
      </trkpt>
      <trkpt lat="46.1634" lon="-1.12996">
        <ele>8.6</ele>
        <time>2020-06-02T09:43:31Z</time>
      </trkpt>
      <trkpt lat="46.16336" lon="-1.12995">
        <ele>8.2</ele>
        <time>2020-06-02T09:43:32Z</time>
      </trkpt>
      <trkpt lat="46.16335" lon="-1.12995">
        <ele>8.1</ele>
        <time>2020-06-02T09:43:33Z</time>
      </trkpt>
      <trkpt lat="46.16332" lon="-1.12994">
        <ele>7.9</ele>
        <time>2020-06-02T09:43:34Z</time>
      </trkpt>
      <trkpt lat="46.16331" lon="-1.12994">
        <ele>7.7</ele>
        <time>2020-06-02T09:43:35Z</time>
      </trkpt>
      <trkpt lat="46.1633" lon="-1.12994">
        <ele>7.6</ele>
        <time>2020-06-02T09:43:36Z</time>
      </trkpt>
      <trkpt lat="46.16328" lon="-1.12994">
        <ele>7.5</ele>
        <time>2020-06-02T09:43:37Z</time>
      </trkpt>
      <trkpt lat="46.16328" lon="-1.12994">
        <ele>7.5</ele>
        <time>2020-06-02T09:43:38Z</time>
      </trkpt>
      <trkpt lat="46.16327" lon="-1.12993">
        <ele>7.5</ele>
        <time>2020-06-02T09:43:39Z</time>
      </trkpt>
      <trkpt lat="46.16325" lon="-1.12991">
        <ele>7.5</ele>
        <time>2020-06-02T09:43:40Z</time>
      </trkpt>
      <trkpt lat="46.16326" lon="-1.12987">
        <ele>7.5</ele>
        <time>2020-06-02T09:43:41Z</time>
      </trkpt>
      <trkpt lat="46.16326" lon="-1.12985">
        <ele>7.5</ele>
        <time>2020-06-02T09:43:42Z</time>
      </trkpt>
      <trkpt lat="46.16327" lon="-1.12979">
        <ele>7.5</ele>
        <time>2020-06-02T09:43:43Z</time>
      </trkpt>
      <trkpt lat="46.16328" lon="-1.12972">
        <ele>7.4</ele>
        <time>2020-06-02T09:43:44Z</time>
      </trkpt>
      <trkpt lat="46.16329" lon="-1.12966">
        <ele>7.4</ele>
        <time>2020-06-02T09:43:45Z</time>
      </trkpt>
      <trkpt lat="46.1633" lon="-1.1296">
        <ele>7.4</ele>
        <time>2020-06-02T09:43:46Z</time>
      </trkpt>
      <trkpt lat="46.16332" lon="-1.12953">
        <ele>7.3</ele>
        <time>2020-06-02T09:43:47Z</time>
      </trkpt>
      <trkpt lat="46.16333" lon="-1.12947">
        <ele>7.3</ele>
        <time>2020-06-02T09:43:48Z</time>
      </trkpt>
      <trkpt lat="46.16335" lon="-1.12939">
        <ele>7.3</ele>
        <time>2020-06-02T09:43:49Z</time>
      </trkpt>
      <trkpt lat="46.16337" lon="-1.12931">
        <ele>7.2</ele>
        <time>2020-06-02T09:43:50Z</time>
      </trkpt>
      <trkpt lat="46.16338" lon="-1.12924">
        <ele>7.1</ele>
        <time>2020-06-02T09:43:51Z</time>
      </trkpt>
      <trkpt lat="46.1634" lon="-1.12916">
        <ele>7</ele>
        <time>2020-06-02T09:43:52Z</time>
      </trkpt>
      <trkpt lat="46.16342" lon="-1.12909">
        <ele>6.9</ele>
        <time>2020-06-02T09:43:53Z</time>
      </trkpt>
      <trkpt lat="46.16343" lon="-1.12901">
        <ele>6.8</ele>
        <time>2020-06-02T09:43:54Z</time>
      </trkpt>
      <trkpt lat="46.16345" lon="-1.12893">
        <ele>6.7</ele>
        <time>2020-06-02T09:43:55Z</time>
      </trkpt>
      <trkpt lat="46.16346" lon="-1.12885">
        <ele>6.6</ele>
        <time>2020-06-02T09:43:56Z</time>
      </trkpt>
      <trkpt lat="46.16347" lon="-1.12877">
        <ele>6.5</ele>
        <time>2020-06-02T09:43:57Z</time>
      </trkpt>
      <trkpt lat="46.16349" lon="-1.1287">
        <ele>6.4</ele>
        <time>2020-06-02T09:43:58Z</time>
      </trkpt>
      <trkpt lat="46.16351" lon="-1.12862">
        <ele>6.4</ele>
        <time>2020-06-02T09:43:59Z</time>
      </trkpt>
      <trkpt lat="46.16353" lon="-1.12854">
        <ele>6.3</ele>
        <time>2020-06-02T09:44:00Z</time>
      </trkpt>
      <trkpt lat="46.16355" lon="-1.12846">
        <ele>6.3</ele>
        <time>2020-06-02T09:44:01Z</time>
      </trkpt>
      <trkpt lat="46.16357" lon="-1.12839">
        <ele>6.2</ele>
        <time>2020-06-02T09:44:02Z</time>
      </trkpt>
      <trkpt lat="46.16359" lon="-1.12831">
        <ele>6.1</ele>
        <time>2020-06-02T09:44:03Z</time>
      </trkpt>
      <trkpt lat="46.1636" lon="-1.12823">
        <ele>6</ele>
        <time>2020-06-02T09:44:04Z</time>
      </trkpt>
      <trkpt lat="46.16361" lon="-1.12815">
        <ele>5.9</ele>
        <time>2020-06-02T09:44:05Z</time>
      </trkpt>
      <trkpt lat="46.16362" lon="-1.12807">
        <ele>5.9</ele>
        <time>2020-06-02T09:44:06Z</time>
      </trkpt>
      <trkpt lat="46.16364" lon="-1.12799">
        <ele>5.8</ele>
        <time>2020-06-02T09:44:07Z</time>
      </trkpt>
      <trkpt lat="46.16365" lon="-1.12791">
        <ele>5.7</ele>
        <time>2020-06-02T09:44:08Z</time>
      </trkpt>
      <trkpt lat="46.16367" lon="-1.12782">
        <ele>5.7</ele>
        <time>2020-06-02T09:44:09Z</time>
      </trkpt>
      <trkpt lat="46.16369" lon="-1.12774">
        <ele>5.6</ele>
        <time>2020-06-02T09:44:10Z</time>
      </trkpt>
      <trkpt lat="46.1637" lon="-1.12766">
        <ele>5.6</ele>
        <time>2020-06-02T09:44:11Z</time>
      </trkpt>
      <trkpt lat="46.16372" lon="-1.12758">
        <ele>5.5</ele>
        <time>2020-06-02T09:44:12Z</time>
      </trkpt>
      <trkpt lat="46.16373" lon="-1.12751">
        <ele>5.5</ele>
        <time>2020-06-02T09:44:13Z</time>
      </trkpt>
      <trkpt lat="46.16375" lon="-1.12743">
        <ele>5.4</ele>
        <time>2020-06-02T09:44:14Z</time>
      </trkpt>
      <trkpt lat="46.16377" lon="-1.12735">
        <ele>5.4</ele>
        <time>2020-06-02T09:44:15Z</time>
      </trkpt>
      <trkpt lat="46.16378" lon="-1.12728">
        <ele>5.4</ele>
        <time>2020-06-02T09:44:16Z</time>
      </trkpt>
      <trkpt lat="46.1638" lon="-1.12721">
        <ele>5.4</ele>
        <time>2020-06-02T09:44:17Z</time>
      </trkpt>
      <trkpt lat="46.16381" lon="-1.12714">
        <ele>5.4</ele>
        <time>2020-06-02T09:44:18Z</time>
      </trkpt>
      <trkpt lat="46.16383" lon="-1.12707">
        <ele>5.3</ele>
        <time>2020-06-02T09:44:19Z</time>
      </trkpt>
      <trkpt lat="46.16384" lon="-1.127">
        <ele>5.3</ele>
        <time>2020-06-02T09:44:20Z</time>
      </trkpt>
      <trkpt lat="46.16385" lon="-1.12694">
        <ele>5.3</ele>
        <time>2020-06-02T09:44:21Z</time>
      </trkpt>
      <trkpt lat="46.16386" lon="-1.12686">
        <ele>5.3</ele>
        <time>2020-06-02T09:44:22Z</time>
      </trkpt>
      <trkpt lat="46.16387" lon="-1.1268">
        <ele>5.3</ele>
        <time>2020-06-02T09:44:23Z</time>
      </trkpt>
      <trkpt lat="46.16388" lon="-1.12673">
        <ele>5.3</ele>
        <time>2020-06-02T09:44:24Z</time>
      </trkpt>
      <trkpt lat="46.16389" lon="-1.12668">
        <ele>5.3</ele>
        <time>2020-06-02T09:44:25Z</time>
      </trkpt>
      <trkpt lat="46.16391" lon="-1.12661">
        <ele>5.4</ele>
        <time>2020-06-02T09:44:26Z</time>
      </trkpt>
      <trkpt lat="46.16393" lon="-1.12655">
        <ele>5.4</ele>
        <time>2020-06-02T09:44:27Z</time>
      </trkpt>
      <trkpt lat="46.16395" lon="-1.12649">
        <ele>5.4</ele>
        <time>2020-06-02T09:44:28Z</time>
      </trkpt>
      <trkpt lat="46.16397" lon="-1.12642">
        <ele>5.5</ele>
        <time>2020-06-02T09:44:29Z</time>
      </trkpt>
      <trkpt lat="46.164" lon="-1.12636">
        <ele>5.6</ele>
        <time>2020-06-02T09:44:30Z</time>
      </trkpt>
      <trkpt lat="46.16402" lon="-1.1263">
        <ele>5.6</ele>
        <time>2020-06-02T09:44:31Z</time>
      </trkpt>
      <trkpt lat="46.16404" lon="-1.12625">
        <ele>5.6</ele>
        <time>2020-06-02T09:44:32Z</time>
      </trkpt>
      <trkpt lat="46.16406" lon="-1.12618">
        <ele>5.7</ele>
        <time>2020-06-02T09:44:33Z</time>
      </trkpt>
      <trkpt lat="46.16409" lon="-1.12613">
        <ele>5.8</ele>
        <time>2020-06-02T09:44:34Z</time>
      </trkpt>
      <trkpt lat="46.16411" lon="-1.12609">
        <ele>5.8</ele>
        <time>2020-06-02T09:44:35Z</time>
      </trkpt>
      <trkpt lat="46.16413" lon="-1.12604">
        <ele>5.8</ele>
        <time>2020-06-02T09:44:36Z</time>
      </trkpt>
      <trkpt lat="46.16415" lon="-1.126">
        <ele>5.9</ele>
        <time>2020-06-02T09:44:37Z</time>
      </trkpt>
      <trkpt lat="46.16416" lon="-1.12595">
        <ele>5.9</ele>
        <time>2020-06-02T09:44:38Z</time>
      </trkpt>
      <trkpt lat="46.16416" lon="-1.1259">
        <ele>5.9</ele>
        <time>2020-06-02T09:44:39Z</time>
      </trkpt>
      <trkpt lat="46.16416" lon="-1.12584">
        <ele>5.8</ele>
        <time>2020-06-02T09:44:40Z</time>
      </trkpt>
      <trkpt lat="46.16415" lon="-1.1258">
        <ele>5.7</ele>
        <time>2020-06-02T09:44:41Z</time>
      </trkpt>
      <trkpt lat="46.16412" lon="-1.12576">
        <ele>5.6</ele>
        <time>2020-06-02T09:44:42Z</time>
      </trkpt>
      <trkpt lat="46.16409" lon="-1.12572">
        <ele>5.5</ele>
        <time>2020-06-02T09:44:43Z</time>
      </trkpt>
      <trkpt lat="46.16406" lon="-1.12568">
        <ele>5.4</ele>
        <time>2020-06-02T09:44:44Z</time>
      </trkpt>
      <trkpt lat="46.16401" lon="-1.12565">
        <ele>5.2</ele>
        <time>2020-06-02T09:44:45Z</time>
      </trkpt>
      <trkpt lat="46.16396" lon="-1.12564">
        <ele>5.1</ele>
        <time>2020-06-02T09:44:46Z</time>
      </trkpt>
      <trkpt lat="46.16391" lon="-1.12562">
        <ele>5</ele>
        <time>2020-06-02T09:44:47Z</time>
      </trkpt>
      <trkpt lat="46.16386" lon="-1.12559">
        <ele>4.7</ele>
        <time>2020-06-02T09:44:48Z</time>
      </trkpt>
      <trkpt lat="46.16381" lon="-1.12557">
        <ele>4.7</ele>
        <time>2020-06-02T09:44:49Z</time>
      </trkpt>
      <trkpt lat="46.16376" lon="-1.12555">
        <ele>4.6</ele>
        <time>2020-06-02T09:44:50Z</time>
      </trkpt>
      <trkpt lat="46.16372" lon="-1.12553">
        <ele>4.6</ele>
        <time>2020-06-02T09:44:51Z</time>
      </trkpt>
      <trkpt lat="46.16369" lon="-1.12551">
        <ele>4.6</ele>
        <time>2020-06-02T09:44:52Z</time>
      </trkpt>
      <trkpt lat="46.16368" lon="-1.12552">
        <ele>4.6</ele>
        <time>2020-06-02T09:44:53Z</time>
      </trkpt>
      <trkpt lat="46.16367" lon="-1.12551">
        <ele>4.6</ele>
        <time>2020-06-02T09:44:54Z</time>
      </trkpt>
      <trkpt lat="46.16367" lon="-1.12553">
        <ele>4.6</ele>
        <time>2020-06-02T09:44:55Z</time>
      </trkpt>
      <trkpt lat="46.16367" lon="-1.12553">
        <ele>4.6</ele>
        <time>2020-06-02T09:44:56Z</time>
      </trkpt>
      <trkpt lat="46.16367" lon="-1.12554">
        <ele>4.6</ele>
        <time>2020-06-02T09:44:57Z</time>
      </trkpt>
      <trkpt lat="46.16366" lon="-1.12555">
        <ele>4.6</ele>
        <time>2020-06-02T09:44:58Z</time>
      </trkpt>
      <trkpt lat="46.16366" lon="-1.12555">
        <ele>4.6</ele>
        <time>2020-06-02T09:44:59Z</time>
      </trkpt>
      <trkpt lat="46.16367" lon="-1.12554">
        <ele>4.6</ele>
        <time>2020-06-02T09:45:00Z</time>
      </trkpt>
      <trkpt lat="46.16366" lon="-1.12555">
        <ele>4.6</ele>
        <time>2020-06-02T09:45:01Z</time>
      </trkpt>
      <trkpt lat="46.16366" lon="-1.12554">
        <ele>4.6</ele>
        <time>2020-06-02T09:45:02Z</time>
      </trkpt>
      <trkpt lat="46.16366" lon="-1.12554">
        <ele>4.6</ele>
        <time>2020-06-02T09:45:03Z</time>
      </trkpt>
      <trkpt lat="46.16366" lon="-1.12555">
        <ele>4.6</ele>
        <time>2020-06-02T09:45:04Z</time>
      </trkpt>
      <trkpt lat="46.16365" lon="-1.12554">
        <ele>4.5</ele>
        <time>2020-06-02T09:45:05Z</time>
      </trkpt>
      <trkpt lat="46.16365" lon="-1.12553">
        <ele>4.5</ele>
        <time>2020-06-02T09:45:06Z</time>
      </trkpt>
      <trkpt lat="46.16364" lon="-1.12552">
        <ele>4.5</ele>
        <time>2020-06-02T09:45:07Z</time>
      </trkpt>
      <trkpt lat="46.16363" lon="-1.1255">
        <ele>4.5</ele>
        <time>2020-06-02T09:45:08Z</time>
      </trkpt>
      <trkpt lat="46.16361" lon="-1.12549">
        <ele>4.5</ele>
        <time>2020-06-02T09:45:09Z</time>
      </trkpt>
      <trkpt lat="46.16359" lon="-1.12546">
        <ele>4.5</ele>
        <time>2020-06-02T09:45:10Z</time>
      </trkpt>
      <trkpt lat="46.16356" lon="-1.12544">
        <ele>4.5</ele>
        <time>2020-06-02T09:45:11Z</time>
      </trkpt>
      <trkpt lat="46.16354" lon="-1.12542">
        <ele>4.4</ele>
        <time>2020-06-02T09:45:12Z</time>
      </trkpt>
      <trkpt lat="46.16352" lon="-1.12539">
        <ele>4.4</ele>
        <time>2020-06-02T09:45:13Z</time>
      </trkpt>
      <trkpt lat="46.16349" lon="-1.12535">
        <ele>4.4</ele>
        <time>2020-06-02T09:45:14Z</time>
      </trkpt>
      <trkpt lat="46.16347" lon="-1.12531">
        <ele>4.4</ele>
        <time>2020-06-02T09:45:15Z</time>
      </trkpt>
      <trkpt lat="46.16344" lon="-1.12528">
        <ele>4.3</ele>
        <time>2020-06-02T09:45:16Z</time>
      </trkpt>
      <trkpt lat="46.16341" lon="-1.12523">
        <ele>4.3</ele>
        <time>2020-06-02T09:45:17Z</time>
      </trkpt>
      <trkpt lat="46.16337" lon="-1.1252">
        <ele>4.3</ele>
        <time>2020-06-02T09:45:18Z</time>
      </trkpt>
      <trkpt lat="46.16334" lon="-1.12518">
        <ele>4.3</ele>
        <time>2020-06-02T09:45:19Z</time>
      </trkpt>
      <trkpt lat="46.1633" lon="-1.12514">
        <ele>4.4</ele>
        <time>2020-06-02T09:45:20Z</time>
      </trkpt>
      <trkpt lat="46.16327" lon="-1.12512">
        <ele>4.4</ele>
        <time>2020-06-02T09:45:21Z</time>
      </trkpt>
      <trkpt lat="46.16323" lon="-1.12509">
        <ele>4.4</ele>
        <time>2020-06-02T09:45:22Z</time>
      </trkpt>
      <trkpt lat="46.16319" lon="-1.12506">
        <ele>4.4</ele>
        <time>2020-06-02T09:45:23Z</time>
      </trkpt>
      <trkpt lat="46.16316" lon="-1.12505">
        <ele>4.4</ele>
        <time>2020-06-02T09:45:24Z</time>
      </trkpt>
      <trkpt lat="46.16313" lon="-1.12501">
        <ele>4.4</ele>
        <time>2020-06-02T09:45:25Z</time>
      </trkpt>
      <trkpt lat="46.16308" lon="-1.12498">
        <ele>4.5</ele>
        <time>2020-06-02T09:45:26Z</time>
      </trkpt>
      <trkpt lat="46.16304" lon="-1.12495">
        <ele>4.5</ele>
        <time>2020-06-02T09:45:27Z</time>
      </trkpt>
      <trkpt lat="46.163" lon="-1.12492">
        <ele>4.5</ele>
        <time>2020-06-02T09:45:28Z</time>
      </trkpt>
      <trkpt lat="46.16297" lon="-1.12489">
        <ele>4.5</ele>
        <time>2020-06-02T09:45:29Z</time>
      </trkpt>
      <trkpt lat="46.16293" lon="-1.12488">
        <ele>4.5</ele>
        <time>2020-06-02T09:45:30Z</time>
      </trkpt>
      <trkpt lat="46.1629" lon="-1.12485">
        <ele>4.5</ele>
        <time>2020-06-02T09:45:31Z</time>
      </trkpt>
      <trkpt lat="46.16286" lon="-1.12483">
        <ele>4.6</ele>
        <time>2020-06-02T09:45:32Z</time>
      </trkpt>
      <trkpt lat="46.16282" lon="-1.12482">
        <ele>4.6</ele>
        <time>2020-06-02T09:45:33Z</time>
      </trkpt>
      <trkpt lat="46.16277" lon="-1.1248">
        <ele>4.6</ele>
        <time>2020-06-02T09:45:34Z</time>
      </trkpt>
      <trkpt lat="46.16273" lon="-1.12479">
        <ele>4.6</ele>
        <time>2020-06-02T09:45:35Z</time>
      </trkpt>
      <trkpt lat="46.1627" lon="-1.12477">
        <ele>4.6</ele>
        <time>2020-06-02T09:45:36Z</time>
      </trkpt>
      <trkpt lat="46.16265" lon="-1.12473">
        <ele>4.6</ele>
        <time>2020-06-02T09:45:37Z</time>
      </trkpt>
      <trkpt lat="46.16261" lon="-1.12469">
        <ele>4.6</ele>
        <time>2020-06-02T09:45:38Z</time>
      </trkpt>
      <trkpt lat="46.16256" lon="-1.12466">
        <ele>4.6</ele>
        <time>2020-06-02T09:45:39Z</time>
      </trkpt>
      <trkpt lat="46.16252" lon="-1.12463">
        <ele>4.6</ele>
        <time>2020-06-02T09:45:40Z</time>
      </trkpt>
      <trkpt lat="46.16248" lon="-1.1246">
        <ele>4.6</ele>
        <time>2020-06-02T09:45:41Z</time>
      </trkpt>
      <trkpt lat="46.16244" lon="-1.12458">
        <ele>4.6</ele>
        <time>2020-06-02T09:45:42Z</time>
      </trkpt>
      <trkpt lat="46.16239" lon="-1.12455">
        <ele>4.6</ele>
        <time>2020-06-02T09:45:43Z</time>
      </trkpt>
      <trkpt lat="46.16235" lon="-1.12451">
        <ele>4.7</ele>
        <time>2020-06-02T09:45:44Z</time>
      </trkpt>
      <trkpt lat="46.16231" lon="-1.12447">
        <ele>4.7</ele>
        <time>2020-06-02T09:45:45Z</time>
      </trkpt>
      <trkpt lat="46.16227" lon="-1.12444">
        <ele>4.7</ele>
        <time>2020-06-02T09:45:46Z</time>
      </trkpt>
      <trkpt lat="46.16223" lon="-1.12441">
        <ele>4.7</ele>
        <time>2020-06-02T09:45:47Z</time>
      </trkpt>
      <trkpt lat="46.16218" lon="-1.12439">
        <ele>4.7</ele>
        <time>2020-06-02T09:45:48Z</time>
      </trkpt>
      <trkpt lat="46.16214" lon="-1.12436">
        <ele>4.8</ele>
        <time>2020-06-02T09:45:49Z</time>
      </trkpt>
      <trkpt lat="46.1621" lon="-1.12432">
        <ele>4.8</ele>
        <time>2020-06-02T09:45:50Z</time>
      </trkpt>
      <trkpt lat="46.16206" lon="-1.12429">
        <ele>4.8</ele>
        <time>2020-06-02T09:45:51Z</time>
      </trkpt>
      <trkpt lat="46.16202" lon="-1.12426">
        <ele>4.8</ele>
        <time>2020-06-02T09:45:52Z</time>
      </trkpt>
      <trkpt lat="46.16199" lon="-1.12424">
        <ele>4.8</ele>
        <time>2020-06-02T09:45:53Z</time>
      </trkpt>
      <trkpt lat="46.16196" lon="-1.12421">
        <ele>4.8</ele>
        <time>2020-06-02T09:45:54Z</time>
      </trkpt>
      <trkpt lat="46.16191" lon="-1.1242">
        <ele>4.9</ele>
        <time>2020-06-02T09:45:55Z</time>
      </trkpt>
      <trkpt lat="46.16187" lon="-1.12418">
        <ele>4.9</ele>
        <time>2020-06-02T09:45:56Z</time>
      </trkpt>
      <trkpt lat="46.16184" lon="-1.12416">
        <ele>4.9</ele>
        <time>2020-06-02T09:45:57Z</time>
      </trkpt>
      <trkpt lat="46.16181" lon="-1.12413">
        <ele>4.9</ele>
        <time>2020-06-02T09:45:58Z</time>
      </trkpt>
      <trkpt lat="46.16178" lon="-1.1241">
        <ele>4.9</ele>
        <time>2020-06-02T09:45:59Z</time>
      </trkpt>
      <trkpt lat="46.16176" lon="-1.12407">
        <ele>4.9</ele>
        <time>2020-06-02T09:46:00Z</time>
      </trkpt>
      <trkpt lat="46.16176" lon="-1.12405">
        <ele>4.9</ele>
        <time>2020-06-02T09:46:01Z</time>
      </trkpt>
      <trkpt lat="46.16174" lon="-1.12403">
        <ele>4.9</ele>
        <time>2020-06-02T09:46:02Z</time>
      </trkpt>
      <trkpt lat="46.16173" lon="-1.12402">
        <ele>4.9</ele>
        <time>2020-06-02T09:46:03Z</time>
      </trkpt>
      <trkpt lat="46.1617" lon="-1.12402">
        <ele>4.9</ele>
        <time>2020-06-02T09:46:04Z</time>
      </trkpt>
      <trkpt lat="46.16168" lon="-1.12402">
        <ele>4.8</ele>
        <time>2020-06-02T09:46:05Z</time>
      </trkpt>
      <trkpt lat="46.16165" lon="-1.12401">
        <ele>4.8</ele>
        <time>2020-06-02T09:46:06Z</time>
      </trkpt>
      <trkpt lat="46.16164" lon="-1.12401">
        <ele>4.8</ele>
        <time>2020-06-02T09:46:07Z</time>
      </trkpt>
      <trkpt lat="46.16162" lon="-1.12402">
        <ele>4.8</ele>
        <time>2020-06-02T09:46:08Z</time>
      </trkpt>
      <trkpt lat="46.16162" lon="-1.12402">
        <ele>4.8</ele>
        <time>2020-06-02T09:46:09Z</time>
      </trkpt>
      <trkpt lat="46.16161" lon="-1.12403">
        <ele>4.8</ele>
        <time>2020-06-02T09:46:10Z</time>
      </trkpt>
      <trkpt lat="46.16162" lon="-1.12403">
        <ele>4.8</ele>
        <time>2020-06-02T09:46:11Z</time>
      </trkpt>
      <trkpt lat="46.16162" lon="-1.12402">
        <ele>4.8</ele>
        <time>2020-06-02T09:46:12Z</time>
      </trkpt>
      <trkpt lat="46.16162" lon="-1.12403">
        <ele>4.8</ele>
        <time>2020-06-02T09:46:13Z</time>
      </trkpt>
      <trkpt lat="46.16162" lon="-1.12403">
        <ele>4.8</ele>
        <time>2020-06-02T09:46:14Z</time>
      </trkpt>
      <trkpt lat="46.16162" lon="-1.12402">
        <ele>4.8</ele>
        <time>2020-06-02T09:46:15Z</time>
      </trkpt>
      <trkpt lat="46.16162" lon="-1.12402">
        <ele>4.8</ele>
        <time>2020-06-02T09:46:16Z</time>
      </trkpt>
      <trkpt lat="46.16162" lon="-1.12401">
        <ele>4.8</ele>
        <time>2020-06-02T09:46:17Z</time>
      </trkpt>
      <trkpt lat="46.16163" lon="-1.124">
        <ele>4.8</ele>
        <time>2020-06-02T09:46:18Z</time>
      </trkpt>
      <trkpt lat="46.16163" lon="-1.12399">
        <ele>4.8</ele>
        <time>2020-06-02T09:46:19Z</time>
      </trkpt>
      <trkpt lat="46.16163" lon="-1.124">
        <ele>4.8</ele>
        <time>2020-06-02T09:46:20Z</time>
      </trkpt>
      <trkpt lat="46.16163" lon="-1.124">
        <ele>4.8</ele>
        <time>2020-06-02T09:46:21Z</time>
      </trkpt>
      <trkpt lat="46.16163" lon="-1.124">
        <ele>4.8</ele>
        <time>2020-06-02T09:46:22Z</time>
      </trkpt>
      <trkpt lat="46.16163" lon="-1.124">
        <ele>4.8</ele>
        <time>2020-06-02T09:46:23Z</time>
      </trkpt>
      <trkpt lat="46.16163" lon="-1.124">
        <ele>4.8</ele>
        <time>2020-06-02T09:46:24Z</time>
      </trkpt>
      <trkpt lat="46.16163" lon="-1.12401">
        <ele>4.8</ele>
        <time>2020-06-02T09:46:25Z</time>
      </trkpt>
      <trkpt lat="46.16163" lon="-1.12401">
        <ele>4.8</ele>
        <time>2020-06-02T09:46:26Z</time>
      </trkpt>
      <trkpt lat="46.16163" lon="-1.12401">
        <ele>4.8</ele>
        <time>2020-06-02T09:46:27Z</time>
      </trkpt>
      <trkpt lat="46.16163" lon="-1.12401">
        <ele>4.8</ele>
        <time>2020-06-02T09:46:28Z</time>
      </trkpt>
      <trkpt lat="46.16163" lon="-1.124">
        <ele>4.8</ele>
        <time>2020-06-02T09:46:29Z</time>
      </trkpt>
      <trkpt lat="46.16163" lon="-1.124">
        <ele>4.8</ele>
        <time>2020-06-02T09:46:30Z</time>
      </trkpt>
      <trkpt lat="46.16163" lon="-1.124">
        <ele>4.8</ele>
        <time>2020-06-02T09:46:31Z</time>
      </trkpt>
      <trkpt lat="46.16163" lon="-1.124">
        <ele>4.8</ele>
        <time>2020-06-02T09:46:32Z</time>
      </trkpt>
      <trkpt lat="46.16163" lon="-1.124">
        <ele>4.8</ele>
        <time>2020-06-02T09:46:33Z</time>
      </trkpt>
      <trkpt lat="46.16163" lon="-1.124">
        <ele>4.8</ele>
        <time>2020-06-02T09:46:34Z</time>
      </trkpt>
      <trkpt lat="46.16163" lon="-1.124">
        <ele>4.8</ele>
        <time>2020-06-02T09:46:35Z</time>
      </trkpt>
      <trkpt lat="46.16163" lon="-1.124">
        <ele>4.8</ele>
        <time>2020-06-02T09:46:36Z</time>
      </trkpt>
      <trkpt lat="46.16163" lon="-1.124">
        <ele>4.8</ele>
        <time>2020-06-02T09:46:37Z</time>
      </trkpt>
      <trkpt lat="46.16163" lon="-1.124">
        <ele>4.8</ele>
        <time>2020-06-02T09:46:38Z</time>
      </trkpt>
      <trkpt lat="46.16163" lon="-1.124">
        <ele>4.8</ele>
        <time>2020-06-02T09:46:39Z</time>
      </trkpt>
      <trkpt lat="46.16163" lon="-1.124">
        <ele>4.8</ele>
        <time>2020-06-02T09:46:40Z</time>
      </trkpt>
      <trkpt lat="46.16163" lon="-1.124">
        <ele>4.8</ele>
        <time>2020-06-02T09:46:41Z</time>
      </trkpt>
      <trkpt lat="46.16163" lon="-1.124">
        <ele>4.8</ele>
        <time>2020-06-02T09:46:42Z</time>
      </trkpt>
      <trkpt lat="46.16163" lon="-1.124">
        <ele>4.8</ele>
        <time>2020-06-02T09:46:43Z</time>
      </trkpt>
      <trkpt lat="46.16162" lon="-1.124">
        <ele>4.8</ele>
        <time>2020-06-02T09:46:44Z</time>
      </trkpt>
      <trkpt lat="46.16162" lon="-1.124">
        <ele>4.8</ele>
        <time>2020-06-02T09:46:45Z</time>
      </trkpt>
      <trkpt lat="46.16162" lon="-1.124">
        <ele>4.8</ele>
        <time>2020-06-02T09:46:46Z</time>
      </trkpt>
      <trkpt lat="46.16162" lon="-1.12399">
        <ele>4.8</ele>
        <time>2020-06-02T09:46:47Z</time>
      </trkpt>
      <trkpt lat="46.16161" lon="-1.12398">
        <ele>4.8</ele>
        <time>2020-06-02T09:46:48Z</time>
      </trkpt>
      <trkpt lat="46.16161" lon="-1.12398">
        <ele>4.8</ele>
        <time>2020-06-02T09:46:49Z</time>
      </trkpt>
      <trkpt lat="46.16161" lon="-1.12397">
        <ele>4.8</ele>
        <time>2020-06-02T09:46:50Z</time>
      </trkpt>
      <trkpt lat="46.16161" lon="-1.12397">
        <ele>4.8</ele>
        <time>2020-06-02T09:46:51Z</time>
      </trkpt>
      <trkpt lat="46.16161" lon="-1.12397">
        <ele>4.8</ele>
        <time>2020-06-02T09:46:52Z</time>
      </trkpt>
      <trkpt lat="46.16161" lon="-1.12397">
        <ele>4.8</ele>
        <time>2020-06-02T09:46:53Z</time>
      </trkpt>
      <trkpt lat="46.16161" lon="-1.12397">
        <ele>4.8</ele>
        <time>2020-06-02T09:46:54Z</time>
      </trkpt>
      <trkpt lat="46.16161" lon="-1.12397">
        <ele>4.8</ele>
        <time>2020-06-02T09:46:55Z</time>
      </trkpt>
      <trkpt lat="46.16161" lon="-1.12397">
        <ele>4.8</ele>
        <time>2020-06-02T09:46:56Z</time>
      </trkpt>
      <trkpt lat="46.16161" lon="-1.12397">
        <ele>4.8</ele>
        <time>2020-06-02T09:46:57Z</time>
      </trkpt>
      <trkpt lat="46.16161" lon="-1.12397">
        <ele>4.8</ele>
        <time>2020-06-02T09:46:58Z</time>
      </trkpt>
      <trkpt lat="46.16161" lon="-1.12397">
        <ele>4.8</ele>
        <time>2020-06-02T09:46:59Z</time>
      </trkpt>
      <trkpt lat="46.16161" lon="-1.12397">
        <ele>4.8</ele>
        <time>2020-06-02T09:47:00Z</time>
      </trkpt>
      <trkpt lat="46.16161" lon="-1.12397">
        <ele>4.8</ele>
        <time>2020-06-02T09:47:01Z</time>
      </trkpt>
      <trkpt lat="46.16161" lon="-1.12397">
        <ele>4.8</ele>
        <time>2020-06-02T09:47:02Z</time>
      </trkpt>
      <trkpt lat="46.16161" lon="-1.12397">
        <ele>4.8</ele>
        <time>2020-06-02T09:47:03Z</time>
      </trkpt>
      <trkpt lat="46.16161" lon="-1.12397">
        <ele>4.8</ele>
        <time>2020-06-02T09:47:04Z</time>
      </trkpt>
      <trkpt lat="46.16161" lon="-1.12397">
        <ele>4.8</ele>
        <time>2020-06-02T09:47:05Z</time>
      </trkpt>
      <trkpt lat="46.16161" lon="-1.12397">
        <ele>4.8</ele>
        <time>2020-06-02T09:47:06Z</time>
      </trkpt>
      <trkpt lat="46.16161" lon="-1.12397">
        <ele>4.8</ele>
        <time>2020-06-02T09:47:07Z</time>
      </trkpt>
      <trkpt lat="46.16161" lon="-1.12397">
        <ele>4.8</ele>
        <time>2020-06-02T09:47:08Z</time>
      </trkpt>
      <trkpt lat="46.16161" lon="-1.12397">
        <ele>4.8</ele>
        <time>2020-06-02T09:47:09Z</time>
      </trkpt>
      <trkpt lat="46.16161" lon="-1.12397">
        <ele>4.8</ele>
        <time>2020-06-02T09:47:10Z</time>
      </trkpt>
      <trkpt lat="46.16161" lon="-1.12397">
        <ele>4.8</ele>
        <time>2020-06-02T09:47:11Z</time>
      </trkpt>
      <trkpt lat="46.16161" lon="-1.12397">
        <ele>4.8</ele>
        <time>2020-06-02T09:47:12Z</time>
      </trkpt>
      <trkpt lat="46.16161" lon="-1.12397">
        <ele>4.8</ele>
        <time>2020-06-02T09:47:13Z</time>
      </trkpt>
      <trkpt lat="46.16161" lon="-1.12397">
        <ele>4.8</ele>
        <time>2020-06-02T09:47:14Z</time>
      </trkpt>
      <trkpt lat="46.16161" lon="-1.12397">
        <ele>4.8</ele>
        <time>2020-06-02T09:47:15Z</time>
      </trkpt>
      <trkpt lat="46.16161" lon="-1.12397">
        <ele>4.8</ele>
        <time>2020-06-02T09:47:16Z</time>
      </trkpt>
      <trkpt lat="46.16161" lon="-1.12397">
        <ele>4.8</ele>
        <time>2020-06-02T09:47:17Z</time>
      </trkpt>
      <trkpt lat="46.16161" lon="-1.12397">
        <ele>4.8</ele>
        <time>2020-06-02T09:47:18Z</time>
      </trkpt>
      <trkpt lat="46.16161" lon="-1.12397">
        <ele>4.8</ele>
        <time>2020-06-02T09:47:19Z</time>
      </trkpt>
      <trkpt lat="46.16161" lon="-1.12397">
        <ele>4.8</ele>
        <time>2020-06-02T09:47:20Z</time>
      </trkpt>
      <trkpt lat="46.16161" lon="-1.12397">
        <ele>4.8</ele>
        <time>2020-06-02T09:47:21Z</time>
      </trkpt>
      <trkpt lat="46.16161" lon="-1.12397">
        <ele>4.8</ele>
        <time>2020-06-02T09:47:22Z</time>
      </trkpt>
      <trkpt lat="46.16161" lon="-1.12397">
        <ele>4.8</ele>
        <time>2020-06-02T09:47:23Z</time>
      </trkpt>
      <trkpt lat="46.16161" lon="-1.12397">
        <ele>4.8</ele>
        <time>2020-06-02T09:47:24Z</time>
      </trkpt>
      <trkpt lat="46.1616" lon="-1.12396">
        <ele>4.8</ele>
        <time>2020-06-02T09:47:25Z</time>
      </trkpt>
      <trkpt lat="46.1616" lon="-1.12395">
        <ele>4.8</ele>
        <time>2020-06-02T09:47:26Z</time>
      </trkpt>
      <trkpt lat="46.1616" lon="-1.12393">
        <ele>4.8</ele>
        <time>2020-06-02T09:47:27Z</time>
      </trkpt>
      <trkpt lat="46.1616" lon="-1.1239">
        <ele>4.8</ele>
        <time>2020-06-02T09:47:28Z</time>
      </trkpt>
      <trkpt lat="46.16161" lon="-1.12385">
        <ele>4.8</ele>
        <time>2020-06-02T09:47:29Z</time>
      </trkpt>
      <trkpt lat="46.16161" lon="-1.12383">
        <ele>4.8</ele>
        <time>2020-06-02T09:47:30Z</time>
      </trkpt>
      <trkpt lat="46.16162" lon="-1.12378">
        <ele>4.8</ele>
        <time>2020-06-02T09:47:31Z</time>
      </trkpt>
      <trkpt lat="46.16162" lon="-1.12376">
        <ele>4.8</ele>
        <time>2020-06-02T09:47:32Z</time>
      </trkpt>
      <trkpt lat="46.16164" lon="-1.12372">
        <ele>4.7</ele>
        <time>2020-06-02T09:47:33Z</time>
      </trkpt>
      <trkpt lat="46.16165" lon="-1.12368">
        <ele>4.7</ele>
        <time>2020-06-02T09:47:34Z</time>
      </trkpt>
      <trkpt lat="46.16166" lon="-1.12363">
        <ele>4.7</ele>
        <time>2020-06-02T09:47:35Z</time>
      </trkpt>
      <trkpt lat="46.16167" lon="-1.12362">
        <ele>4.7</ele>
        <time>2020-06-02T09:47:36Z</time>
      </trkpt>
      <trkpt lat="46.16167" lon="-1.1236">
        <ele>4.7</ele>
        <time>2020-06-02T09:47:37Z</time>
      </trkpt>
      <trkpt lat="46.16167" lon="-1.12357">
        <ele>4.7</ele>
        <time>2020-06-02T09:47:38Z</time>
      </trkpt>
      <trkpt lat="46.16168" lon="-1.12352">
        <ele>4.7</ele>
        <time>2020-06-02T09:47:39Z</time>
      </trkpt>
      <trkpt lat="46.16168" lon="-1.1235">
        <ele>4.7</ele>
        <time>2020-06-02T09:47:40Z</time>
      </trkpt>
      <trkpt lat="46.16168" lon="-1.12346">
        <ele>4.7</ele>
        <time>2020-06-02T09:47:41Z</time>
      </trkpt>
      <trkpt lat="46.16168" lon="-1.12342">
        <ele>4.8</ele>
        <time>2020-06-02T09:47:42Z</time>
      </trkpt>
      <trkpt lat="46.16168" lon="-1.1234">
        <ele>4.7</ele>
        <time>2020-06-02T09:47:43Z</time>
      </trkpt>
      <trkpt lat="46.16169" lon="-1.12338">
        <ele>4.7</ele>
        <time>2020-06-02T09:47:44Z</time>
      </trkpt>
      <trkpt lat="46.1617" lon="-1.12336">
        <ele>4.7</ele>
        <time>2020-06-02T09:47:45Z</time>
      </trkpt>
      <trkpt lat="46.16171" lon="-1.12335">
        <ele>4.7</ele>
        <time>2020-06-02T09:47:46Z</time>
      </trkpt>
      <trkpt lat="46.16171" lon="-1.12335">
        <ele>4.7</ele>
        <time>2020-06-02T09:47:47Z</time>
      </trkpt>
      <trkpt lat="46.16172" lon="-1.12334">
        <ele>4.7</ele>
        <time>2020-06-02T09:47:48Z</time>
      </trkpt>
      <trkpt lat="46.16173" lon="-1.12331">
        <ele>4.7</ele>
        <time>2020-06-02T09:47:49Z</time>
      </trkpt>
      <trkpt lat="46.16173" lon="-1.12329">
        <ele>4.7</ele>
        <time>2020-06-02T09:47:50Z</time>
      </trkpt>
      <trkpt lat="46.16173" lon="-1.12328">
        <ele>4.7</ele>
        <time>2020-06-02T09:47:51Z</time>
      </trkpt>
      <trkpt lat="46.16175" lon="-1.12324">
        <ele>4.7</ele>
        <time>2020-06-02T09:47:52Z</time>
      </trkpt>
      <trkpt lat="46.16176" lon="-1.12323">
        <ele>4.7</ele>
        <time>2020-06-02T09:47:53Z</time>
      </trkpt>
      <trkpt lat="46.16177" lon="-1.12318">
        <ele>4.7</ele>
        <time>2020-06-02T09:47:54Z</time>
      </trkpt>
      <trkpt lat="46.16178" lon="-1.12314">
        <ele>4.7</ele>
        <time>2020-06-02T09:47:55Z</time>
      </trkpt>
      <trkpt lat="46.16179" lon="-1.1231">
        <ele>4.7</ele>
        <time>2020-06-02T09:47:56Z</time>
      </trkpt>
      <trkpt lat="46.16181" lon="-1.12306">
        <ele>4.8</ele>
        <time>2020-06-02T09:47:57Z</time>
      </trkpt>
      <trkpt lat="46.16182" lon="-1.12303">
        <ele>4.8</ele>
        <time>2020-06-02T09:47:58Z</time>
      </trkpt>
      <trkpt lat="46.16183" lon="-1.12299">
        <ele>4.8</ele>
        <time>2020-06-02T09:47:59Z</time>
      </trkpt>
      <trkpt lat="46.16184" lon="-1.12298">
        <ele>4.8</ele>
        <time>2020-06-02T09:48:00Z</time>
      </trkpt>
      <trkpt lat="46.16184" lon="-1.12297">
        <ele>4.8</ele>
        <time>2020-06-02T09:48:01Z</time>
      </trkpt>
      <trkpt lat="46.16185" lon="-1.12296">
        <ele>4.8</ele>
        <time>2020-06-02T09:48:02Z</time>
      </trkpt>
      <trkpt lat="46.16185" lon="-1.12295">
        <ele>4.8</ele>
        <time>2020-06-02T09:48:03Z</time>
      </trkpt>
      <trkpt lat="46.16187" lon="-1.12291">
        <ele>4.8</ele>
        <time>2020-06-02T09:48:04Z</time>
      </trkpt>
      <trkpt lat="46.16187" lon="-1.12289">
        <ele>4.8</ele>
        <time>2020-06-02T09:48:05Z</time>
      </trkpt>
      <trkpt lat="46.1619" lon="-1.12285">
        <ele>4.9</ele>
        <time>2020-06-02T09:48:06Z</time>
      </trkpt>
      <trkpt lat="46.16192" lon="-1.12283">
        <ele>4.9</ele>
        <time>2020-06-02T09:48:07Z</time>
      </trkpt>
      <trkpt lat="46.16194" lon="-1.12279">
        <ele>4.9</ele>
        <time>2020-06-02T09:48:08Z</time>
      </trkpt>
      <trkpt lat="46.16197" lon="-1.12274">
        <ele>5</ele>
        <time>2020-06-02T09:48:09Z</time>
      </trkpt>
      <trkpt lat="46.16199" lon="-1.12269">
        <ele>5</ele>
        <time>2020-06-02T09:48:10Z</time>
      </trkpt>
      <trkpt lat="46.16201" lon="-1.12263">
        <ele>5</ele>
        <time>2020-06-02T09:48:11Z</time>
      </trkpt>
      <trkpt lat="46.16202" lon="-1.12257">
        <ele>5</ele>
        <time>2020-06-02T09:48:12Z</time>
      </trkpt>
      <trkpt lat="46.16204" lon="-1.12251">
        <ele>5</ele>
        <time>2020-06-02T09:48:13Z</time>
      </trkpt>
      <trkpt lat="46.16205" lon="-1.12245">
        <ele>5</ele>
        <time>2020-06-02T09:48:14Z</time>
      </trkpt>
      <trkpt lat="46.16208" lon="-1.1224">
        <ele>5</ele>
        <time>2020-06-02T09:48:15Z</time>
      </trkpt>
      <trkpt lat="46.1621" lon="-1.12234">
        <ele>5</ele>
        <time>2020-06-02T09:48:16Z</time>
      </trkpt>
      <trkpt lat="46.16213" lon="-1.12228">
        <ele>5</ele>
        <time>2020-06-02T09:48:17Z</time>
      </trkpt>
      <trkpt lat="46.16215" lon="-1.12221">
        <ele>5</ele>
        <time>2020-06-02T09:48:18Z</time>
      </trkpt>
      <trkpt lat="46.16217" lon="-1.12215">
        <ele>5</ele>
        <time>2020-06-02T09:48:19Z</time>
      </trkpt>
      <trkpt lat="46.16219" lon="-1.12209">
        <ele>5</ele>
        <time>2020-06-02T09:48:20Z</time>
      </trkpt>
      <trkpt lat="46.16221" lon="-1.12202">
        <ele>5</ele>
        <time>2020-06-02T09:48:21Z</time>
      </trkpt>
      <trkpt lat="46.16223" lon="-1.12195">
        <ele>5</ele>
        <time>2020-06-02T09:48:22Z</time>
      </trkpt>
      <trkpt lat="46.16225" lon="-1.12189">
        <ele>5</ele>
        <time>2020-06-02T09:48:23Z</time>
      </trkpt>
      <trkpt lat="46.16227" lon="-1.12182">
        <ele>5</ele>
        <time>2020-06-02T09:48:24Z</time>
      </trkpt>
      <trkpt lat="46.16228" lon="-1.12175">
        <ele>5</ele>
        <time>2020-06-02T09:48:25Z</time>
      </trkpt>
      <trkpt lat="46.16228" lon="-1.1217">
        <ele>5</ele>
        <time>2020-06-02T09:48:26Z</time>
      </trkpt>
      <trkpt lat="46.16229" lon="-1.12164">
        <ele>5</ele>
        <time>2020-06-02T09:48:27Z</time>
      </trkpt>
      <trkpt lat="46.16231" lon="-1.12157">
        <ele>5</ele>
        <time>2020-06-02T09:48:28Z</time>
      </trkpt>
      <trkpt lat="46.16232" lon="-1.12152">
        <ele>5</ele>
        <time>2020-06-02T09:48:29Z</time>
      </trkpt>
      <trkpt lat="46.16233" lon="-1.12146">
        <ele>5</ele>
        <time>2020-06-02T09:48:30Z</time>
      </trkpt>
      <trkpt lat="46.16234" lon="-1.12141">
        <ele>5</ele>
        <time>2020-06-02T09:48:31Z</time>
      </trkpt>
      <trkpt lat="46.16236" lon="-1.12135">
        <ele>5</ele>
        <time>2020-06-02T09:48:32Z</time>
      </trkpt>
      <trkpt lat="46.16238" lon="-1.12129">
        <ele>5</ele>
        <time>2020-06-02T09:48:33Z</time>
      </trkpt>
      <trkpt lat="46.1624" lon="-1.12124">
        <ele>5</ele>
        <time>2020-06-02T09:48:34Z</time>
      </trkpt>
      <trkpt lat="46.16241" lon="-1.12119">
        <ele>4.9</ele>
        <time>2020-06-02T09:48:35Z</time>
      </trkpt>
      <trkpt lat="46.16243" lon="-1.12114">
        <ele>4.9</ele>
        <time>2020-06-02T09:48:36Z</time>
      </trkpt>
      <trkpt lat="46.16244" lon="-1.12109">
        <ele>4.9</ele>
        <time>2020-06-02T09:48:37Z</time>
      </trkpt>
      <trkpt lat="46.16247" lon="-1.12103">
        <ele>5</ele>
        <time>2020-06-02T09:48:38Z</time>
      </trkpt>
      <trkpt lat="46.16248" lon="-1.12097">
        <ele>5</ele>
        <time>2020-06-02T09:48:39Z</time>
      </trkpt>
      <trkpt lat="46.1625" lon="-1.12092">
        <ele>5</ele>
        <time>2020-06-02T09:48:40Z</time>
      </trkpt>
      <trkpt lat="46.16252" lon="-1.12086">
        <ele>5</ele>
        <time>2020-06-02T09:48:41Z</time>
      </trkpt>
      <trkpt lat="46.16254" lon="-1.12081">
        <ele>5</ele>
        <time>2020-06-02T09:48:42Z</time>
      </trkpt>
      <trkpt lat="46.16256" lon="-1.12075">
        <ele>5.1</ele>
        <time>2020-06-02T09:48:43Z</time>
      </trkpt>
      <trkpt lat="46.16257" lon="-1.1207">
        <ele>5.1</ele>
        <time>2020-06-02T09:48:44Z</time>
      </trkpt>
      <trkpt lat="46.16259" lon="-1.12065">
        <ele>5.1</ele>
        <time>2020-06-02T09:48:45Z</time>
      </trkpt>
      <trkpt lat="46.1626" lon="-1.1206">
        <ele>5.1</ele>
        <time>2020-06-02T09:48:46Z</time>
      </trkpt>
      <trkpt lat="46.16262" lon="-1.12055">
        <ele>5.1</ele>
        <time>2020-06-02T09:48:47Z</time>
      </trkpt>
      <trkpt lat="46.16264" lon="-1.12051">
        <ele>5.1</ele>
        <time>2020-06-02T09:48:48Z</time>
      </trkpt>
      <trkpt lat="46.16266" lon="-1.12046">
        <ele>5.1</ele>
        <time>2020-06-02T09:48:49Z</time>
      </trkpt>
      <trkpt lat="46.16268" lon="-1.1204">
        <ele>5.1</ele>
        <time>2020-06-02T09:48:50Z</time>
      </trkpt>
      <trkpt lat="46.1627" lon="-1.12034">
        <ele>5.1</ele>
        <time>2020-06-02T09:48:51Z</time>
      </trkpt>
      <trkpt lat="46.16271" lon="-1.12027">
        <ele>5.1</ele>
        <time>2020-06-02T09:48:52Z</time>
      </trkpt>
      <trkpt lat="46.16273" lon="-1.12019">
        <ele>5.1</ele>
        <time>2020-06-02T09:48:53Z</time>
      </trkpt>
      <trkpt lat="46.16275" lon="-1.12012">
        <ele>5.1</ele>
        <time>2020-06-02T09:48:54Z</time>
      </trkpt>
      <trkpt lat="46.16277" lon="-1.12006">
        <ele>5.1</ele>
        <time>2020-06-02T09:48:55Z</time>
      </trkpt>
      <trkpt lat="46.16279" lon="-1.12">
        <ele>5.1</ele>
        <time>2020-06-02T09:48:56Z</time>
      </trkpt>
      <trkpt lat="46.16281" lon="-1.11993">
        <ele>5.1</ele>
        <time>2020-06-02T09:48:57Z</time>
      </trkpt>
      <trkpt lat="46.16283" lon="-1.11986">
        <ele>5.1</ele>
        <time>2020-06-02T09:48:58Z</time>
      </trkpt>
      <trkpt lat="46.16284" lon="-1.11981">
        <ele>5.1</ele>
        <time>2020-06-02T09:48:59Z</time>
      </trkpt>
      <trkpt lat="46.16286" lon="-1.11974">
        <ele>5.1</ele>
        <time>2020-06-02T09:49:00Z</time>
      </trkpt>
      <trkpt lat="46.16287" lon="-1.11969">
        <ele>5.1</ele>
        <time>2020-06-02T09:49:01Z</time>
      </trkpt>
      <trkpt lat="46.16288" lon="-1.11963">
        <ele>5</ele>
        <time>2020-06-02T09:49:02Z</time>
      </trkpt>
      <trkpt lat="46.16287" lon="-1.11956">
        <ele>5</ele>
        <time>2020-06-02T09:49:03Z</time>
      </trkpt>
      <trkpt lat="46.16289" lon="-1.11948">
        <ele>5</ele>
        <time>2020-06-02T09:49:04Z</time>
      </trkpt>
      <trkpt lat="46.1629" lon="-1.11941">
        <ele>5</ele>
        <time>2020-06-02T09:49:05Z</time>
      </trkpt>
      <trkpt lat="46.16292" lon="-1.11935">
        <ele>5</ele>
        <time>2020-06-02T09:49:06Z</time>
      </trkpt>
      <trkpt lat="46.16295" lon="-1.11928">
        <ele>5</ele>
        <time>2020-06-02T09:49:07Z</time>
      </trkpt>
      <trkpt lat="46.16296" lon="-1.11921">
        <ele>5</ele>
        <time>2020-06-02T09:49:08Z</time>
      </trkpt>
      <trkpt lat="46.16297" lon="-1.11915">
        <ele>5</ele>
        <time>2020-06-02T09:49:09Z</time>
      </trkpt>
      <trkpt lat="46.16299" lon="-1.11909">
        <ele>5</ele>
        <time>2020-06-02T09:49:10Z</time>
      </trkpt>
      <trkpt lat="46.163" lon="-1.11903">
        <ele>5</ele>
        <time>2020-06-02T09:49:11Z</time>
      </trkpt>
      <trkpt lat="46.16301" lon="-1.11896">
        <ele>5</ele>
        <time>2020-06-02T09:49:12Z</time>
      </trkpt>
      <trkpt lat="46.16302" lon="-1.1189">
        <ele>5</ele>
        <time>2020-06-02T09:49:13Z</time>
      </trkpt>
      <trkpt lat="46.16304" lon="-1.11883">
        <ele>5</ele>
        <time>2020-06-02T09:49:14Z</time>
      </trkpt>
      <trkpt lat="46.16306" lon="-1.11878">
        <ele>5</ele>
        <time>2020-06-02T09:49:15Z</time>
      </trkpt>
      <trkpt lat="46.16308" lon="-1.11871">
        <ele>5</ele>
        <time>2020-06-02T09:49:16Z</time>
      </trkpt>
      <trkpt lat="46.16309" lon="-1.11865">
        <ele>5</ele>
        <time>2020-06-02T09:49:17Z</time>
      </trkpt>
      <trkpt lat="46.16311" lon="-1.1186">
        <ele>5</ele>
        <time>2020-06-02T09:49:18Z</time>
      </trkpt>
      <trkpt lat="46.16313" lon="-1.11854">
        <ele>5</ele>
        <time>2020-06-02T09:49:19Z</time>
      </trkpt>
      <trkpt lat="46.16314" lon="-1.11848">
        <ele>5</ele>
        <time>2020-06-02T09:49:20Z</time>
      </trkpt>
      <trkpt lat="46.16316" lon="-1.11841">
        <ele>5</ele>
        <time>2020-06-02T09:49:21Z</time>
      </trkpt>
      <trkpt lat="46.16319" lon="-1.11835">
        <ele>5</ele>
        <time>2020-06-02T09:49:22Z</time>
      </trkpt>
      <trkpt lat="46.16321" lon="-1.11828">
        <ele>5</ele>
        <time>2020-06-02T09:49:23Z</time>
      </trkpt>
      <trkpt lat="46.16323" lon="-1.11823">
        <ele>5</ele>
        <time>2020-06-02T09:49:24Z</time>
      </trkpt>
      <trkpt lat="46.16325" lon="-1.11817">
        <ele>5</ele>
        <time>2020-06-02T09:49:25Z</time>
      </trkpt>
      <trkpt lat="46.16327" lon="-1.11811">
        <ele>5</ele>
        <time>2020-06-02T09:49:26Z</time>
      </trkpt>
      <trkpt lat="46.16329" lon="-1.11805">
        <ele>5</ele>
        <time>2020-06-02T09:49:27Z</time>
      </trkpt>
      <trkpt lat="46.1633" lon="-1.11799">
        <ele>5.1</ele>
        <time>2020-06-02T09:49:28Z</time>
      </trkpt>
      <trkpt lat="46.16332" lon="-1.11794">
        <ele>5.1</ele>
        <time>2020-06-02T09:49:29Z</time>
      </trkpt>
      <trkpt lat="46.16334" lon="-1.11788">
        <ele>5.1</ele>
        <time>2020-06-02T09:49:30Z</time>
      </trkpt>
      <trkpt lat="46.16335" lon="-1.11782">
        <ele>5.1</ele>
        <time>2020-06-02T09:49:31Z</time>
      </trkpt>
      <trkpt lat="46.16337" lon="-1.11777">
        <ele>5.1</ele>
        <time>2020-06-02T09:49:32Z</time>
      </trkpt>
      <trkpt lat="46.16339" lon="-1.11771">
        <ele>5.1</ele>
        <time>2020-06-02T09:49:33Z</time>
      </trkpt>
      <trkpt lat="46.16341" lon="-1.11764">
        <ele>5.1</ele>
        <time>2020-06-02T09:49:34Z</time>
      </trkpt>
      <trkpt lat="46.16343" lon="-1.11757">
        <ele>5.1</ele>
        <time>2020-06-02T09:49:35Z</time>
      </trkpt>
      <trkpt lat="46.16346" lon="-1.11751">
        <ele>5.1</ele>
        <time>2020-06-02T09:49:36Z</time>
      </trkpt>
      <trkpt lat="46.16347" lon="-1.11744">
        <ele>5.1</ele>
        <time>2020-06-02T09:49:37Z</time>
      </trkpt>
      <trkpt lat="46.16349" lon="-1.11737">
        <ele>5.1</ele>
        <time>2020-06-02T09:49:38Z</time>
      </trkpt>
      <trkpt lat="46.1635" lon="-1.11731">
        <ele>5.1</ele>
        <time>2020-06-02T09:49:39Z</time>
      </trkpt>
      <trkpt lat="46.16351" lon="-1.11724">
        <ele>5.1</ele>
        <time>2020-06-02T09:49:40Z</time>
      </trkpt>
      <trkpt lat="46.16353" lon="-1.11717">
        <ele>5.1</ele>
        <time>2020-06-02T09:49:41Z</time>
      </trkpt>
      <trkpt lat="46.16355" lon="-1.1171">
        <ele>5.1</ele>
        <time>2020-06-02T09:49:42Z</time>
      </trkpt>
      <trkpt lat="46.16356" lon="-1.11703">
        <ele>5.1</ele>
        <time>2020-06-02T09:49:43Z</time>
      </trkpt>
      <trkpt lat="46.16358" lon="-1.11696">
        <ele>5.1</ele>
        <time>2020-06-02T09:49:44Z</time>
      </trkpt>
      <trkpt lat="46.1636" lon="-1.11688">
        <ele>5.1</ele>
        <time>2020-06-02T09:49:45Z</time>
      </trkpt>
      <trkpt lat="46.16361" lon="-1.11681">
        <ele>5.2</ele>
        <time>2020-06-02T09:49:46Z</time>
      </trkpt>
      <trkpt lat="46.16363" lon="-1.11675">
        <ele>5.2</ele>
        <time>2020-06-02T09:49:47Z</time>
      </trkpt>
      <trkpt lat="46.16364" lon="-1.11669">
        <ele>5.2</ele>
        <time>2020-06-02T09:49:48Z</time>
      </trkpt>
      <trkpt lat="46.16366" lon="-1.11663">
        <ele>5.3</ele>
        <time>2020-06-02T09:49:49Z</time>
      </trkpt>
      <trkpt lat="46.16369" lon="-1.11656">
        <ele>5.3</ele>
        <time>2020-06-02T09:49:50Z</time>
      </trkpt>
      <trkpt lat="46.1637" lon="-1.11651">
        <ele>5.4</ele>
        <time>2020-06-02T09:49:51Z</time>
      </trkpt>
      <trkpt lat="46.16374" lon="-1.11646">
        <ele>5.4</ele>
        <time>2020-06-02T09:49:52Z</time>
      </trkpt>
      <trkpt lat="46.16377" lon="-1.11641">
        <ele>5.5</ele>
        <time>2020-06-02T09:49:53Z</time>
      </trkpt>
      <trkpt lat="46.1638" lon="-1.11637">
        <ele>5.5</ele>
        <time>2020-06-02T09:49:54Z</time>
      </trkpt>
      <trkpt lat="46.16382" lon="-1.11633">
        <ele>5.5</ele>
        <time>2020-06-02T09:49:55Z</time>
      </trkpt>
      <trkpt lat="46.16383" lon="-1.11628">
        <ele>5.5</ele>
        <time>2020-06-02T09:49:56Z</time>
      </trkpt>
      <trkpt lat="46.16384" lon="-1.11623">
        <ele>5.5</ele>
        <time>2020-06-02T09:49:57Z</time>
      </trkpt>
      <trkpt lat="46.16385" lon="-1.11618">
        <ele>5.5</ele>
        <time>2020-06-02T09:49:58Z</time>
      </trkpt>
      <trkpt lat="46.16386" lon="-1.11612">
        <ele>5.5</ele>
        <time>2020-06-02T09:49:59Z</time>
      </trkpt>
      <trkpt lat="46.16388" lon="-1.11607">
        <ele>5.5</ele>
        <time>2020-06-02T09:50:00Z</time>
      </trkpt>
      <trkpt lat="46.1639" lon="-1.11601">
        <ele>5.5</ele>
        <time>2020-06-02T09:50:01Z</time>
      </trkpt>
      <trkpt lat="46.16392" lon="-1.11595">
        <ele>5.5</ele>
        <time>2020-06-02T09:50:02Z</time>
      </trkpt>
      <trkpt lat="46.16394" lon="-1.1159">
        <ele>5.5</ele>
        <time>2020-06-02T09:50:03Z</time>
      </trkpt>
      <trkpt lat="46.16396" lon="-1.11584">
        <ele>5.5</ele>
        <time>2020-06-02T09:50:04Z</time>
      </trkpt>
      <trkpt lat="46.16399" lon="-1.11576">
        <ele>5.5</ele>
        <time>2020-06-02T09:50:05Z</time>
      </trkpt>
      <trkpt lat="46.16401" lon="-1.11569">
        <ele>5.5</ele>
        <time>2020-06-02T09:50:06Z</time>
      </trkpt>
      <trkpt lat="46.16403" lon="-1.11563">
        <ele>5.5</ele>
        <time>2020-06-02T09:50:07Z</time>
      </trkpt>
      <trkpt lat="46.16405" lon="-1.11558">
        <ele>5.4</ele>
        <time>2020-06-02T09:50:08Z</time>
      </trkpt>
      <trkpt lat="46.16407" lon="-1.11551">
        <ele>5.4</ele>
        <time>2020-06-02T09:50:09Z</time>
      </trkpt>
      <trkpt lat="46.1641" lon="-1.11544">
        <ele>5.4</ele>
        <time>2020-06-02T09:50:10Z</time>
      </trkpt>
      <trkpt lat="46.16412" lon="-1.11538">
        <ele>5.4</ele>
        <time>2020-06-02T09:50:11Z</time>
      </trkpt>
      <trkpt lat="46.16415" lon="-1.11531">
        <ele>5.4</ele>
        <time>2020-06-02T09:50:12Z</time>
      </trkpt>
      <trkpt lat="46.16417" lon="-1.11525">
        <ele>5.4</ele>
        <time>2020-06-02T09:50:13Z</time>
      </trkpt>
      <trkpt lat="46.16419" lon="-1.11518">
        <ele>5.3</ele>
        <time>2020-06-02T09:50:14Z</time>
      </trkpt>
      <trkpt lat="46.16422" lon="-1.11511">
        <ele>5.3</ele>
        <time>2020-06-02T09:50:15Z</time>
      </trkpt>
      <trkpt lat="46.16424" lon="-1.11505">
        <ele>5.3</ele>
        <time>2020-06-02T09:50:16Z</time>
      </trkpt>
      <trkpt lat="46.16427" lon="-1.11499">
        <ele>5.3</ele>
        <time>2020-06-02T09:50:17Z</time>
      </trkpt>
      <trkpt lat="46.16429" lon="-1.11493">
        <ele>5.3</ele>
        <time>2020-06-02T09:50:18Z</time>
      </trkpt>
      <trkpt lat="46.16432" lon="-1.11487">
        <ele>5.3</ele>
        <time>2020-06-02T09:50:19Z</time>
      </trkpt>
      <trkpt lat="46.16435" lon="-1.11481">
        <ele>5.2</ele>
        <time>2020-06-02T09:50:20Z</time>
      </trkpt>
      <trkpt lat="46.16437" lon="-1.11475">
        <ele>5.2</ele>
        <time>2020-06-02T09:50:21Z</time>
      </trkpt>
      <trkpt lat="46.16441" lon="-1.11468">
        <ele>5.2</ele>
        <time>2020-06-02T09:50:22Z</time>
      </trkpt>
      <trkpt lat="46.16444" lon="-1.11462">
        <ele>5.2</ele>
        <time>2020-06-02T09:50:23Z</time>
      </trkpt>
      <trkpt lat="46.16447" lon="-1.11455">
        <ele>5.3</ele>
        <time>2020-06-02T09:50:24Z</time>
      </trkpt>
      <trkpt lat="46.16449" lon="-1.11448">
        <ele>5.3</ele>
        <time>2020-06-02T09:50:25Z</time>
      </trkpt>
      <trkpt lat="46.16452" lon="-1.11443">
        <ele>5.4</ele>
        <time>2020-06-02T09:50:26Z</time>
      </trkpt>
      <trkpt lat="46.16454" lon="-1.11437">
        <ele>5.5</ele>
        <time>2020-06-02T09:50:27Z</time>
      </trkpt>
      <trkpt lat="46.16457" lon="-1.1143">
        <ele>5.6</ele>
        <time>2020-06-02T09:50:28Z</time>
      </trkpt>
      <trkpt lat="46.16459" lon="-1.11425">
        <ele>5.7</ele>
        <time>2020-06-02T09:50:29Z</time>
      </trkpt>
      <trkpt lat="46.16462" lon="-1.11418">
        <ele>5.9</ele>
        <time>2020-06-02T09:50:30Z</time>
      </trkpt>
      <trkpt lat="46.16465" lon="-1.11412">
        <ele>6</ele>
        <time>2020-06-02T09:50:31Z</time>
      </trkpt>
      <trkpt lat="46.16467" lon="-1.11406">
        <ele>6.1</ele>
        <time>2020-06-02T09:50:32Z</time>
      </trkpt>
      <trkpt lat="46.1647" lon="-1.11401">
        <ele>6.2</ele>
        <time>2020-06-02T09:50:33Z</time>
      </trkpt>
      <trkpt lat="46.16472" lon="-1.11395">
        <ele>6.3</ele>
        <time>2020-06-02T09:50:34Z</time>
      </trkpt>
      <trkpt lat="46.16474" lon="-1.1139">
        <ele>6.3</ele>
        <time>2020-06-02T09:50:35Z</time>
      </trkpt>
      <trkpt lat="46.16477" lon="-1.11385">
        <ele>6.3</ele>
        <time>2020-06-02T09:50:36Z</time>
      </trkpt>
      <trkpt lat="46.16479" lon="-1.1138">
        <ele>6.4</ele>
        <time>2020-06-02T09:50:37Z</time>
      </trkpt>
      <trkpt lat="46.16484" lon="-1.11375">
        <ele>6.4</ele>
        <time>2020-06-02T09:50:38Z</time>
      </trkpt>
      <trkpt lat="46.16487" lon="-1.1137">
        <ele>6.4</ele>
        <time>2020-06-02T09:50:39Z</time>
      </trkpt>
      <trkpt lat="46.16492" lon="-1.11364">
        <ele>6.4</ele>
        <time>2020-06-02T09:50:40Z</time>
      </trkpt>
      <trkpt lat="46.16495" lon="-1.11359">
        <ele>6.4</ele>
        <time>2020-06-02T09:50:41Z</time>
      </trkpt>
      <trkpt lat="46.16498" lon="-1.11352">
        <ele>6.4</ele>
        <time>2020-06-02T09:50:42Z</time>
      </trkpt>
      <trkpt lat="46.165" lon="-1.11347">
        <ele>6.4</ele>
        <time>2020-06-02T09:50:43Z</time>
      </trkpt>
      <trkpt lat="46.16503" lon="-1.11341">
        <ele>6.3</ele>
        <time>2020-06-02T09:50:44Z</time>
      </trkpt>
      <trkpt lat="46.16507" lon="-1.11336">
        <ele>6.3</ele>
        <time>2020-06-02T09:50:45Z</time>
      </trkpt>
      <trkpt lat="46.1651" lon="-1.1133">
        <ele>6.3</ele>
        <time>2020-06-02T09:50:46Z</time>
      </trkpt>
      <trkpt lat="46.16512" lon="-1.11324">
        <ele>6.3</ele>
        <time>2020-06-02T09:50:47Z</time>
      </trkpt>
      <trkpt lat="46.16515" lon="-1.11319">
        <ele>6.4</ele>
        <time>2020-06-02T09:50:48Z</time>
      </trkpt>
      <trkpt lat="46.16518" lon="-1.11314">
        <ele>6.4</ele>
        <time>2020-06-02T09:50:49Z</time>
      </trkpt>
      <trkpt lat="46.16521" lon="-1.11307">
        <ele>6.4</ele>
        <time>2020-06-02T09:50:50Z</time>
      </trkpt>
      <trkpt lat="46.16524" lon="-1.11301">
        <ele>6.4</ele>
        <time>2020-06-02T09:50:51Z</time>
      </trkpt>
      <trkpt lat="46.16528" lon="-1.11295">
        <ele>6.4</ele>
        <time>2020-06-02T09:50:52Z</time>
      </trkpt>
      <trkpt lat="46.1653" lon="-1.11289">
        <ele>6.5</ele>
        <time>2020-06-02T09:50:53Z</time>
      </trkpt>
      <trkpt lat="46.16534" lon="-1.11283">
        <ele>6.5</ele>
        <time>2020-06-02T09:50:54Z</time>
      </trkpt>
      <trkpt lat="46.16537" lon="-1.11276">
        <ele>6.5</ele>
        <time>2020-06-02T09:50:55Z</time>
      </trkpt>
      <trkpt lat="46.1654" lon="-1.1127">
        <ele>6.5</ele>
        <time>2020-06-02T09:50:56Z</time>
      </trkpt>
      <trkpt lat="46.16543" lon="-1.11264">
        <ele>6.5</ele>
        <time>2020-06-02T09:50:57Z</time>
      </trkpt>
      <trkpt lat="46.16546" lon="-1.11258">
        <ele>6.5</ele>
        <time>2020-06-02T09:50:58Z</time>
      </trkpt>
      <trkpt lat="46.16548" lon="-1.11252">
        <ele>6.5</ele>
        <time>2020-06-02T09:50:59Z</time>
      </trkpt>
      <trkpt lat="46.16551" lon="-1.11245">
        <ele>6.5</ele>
        <time>2020-06-02T09:51:00Z</time>
      </trkpt>
      <trkpt lat="46.16554" lon="-1.11239">
        <ele>6.5</ele>
        <time>2020-06-02T09:51:01Z</time>
      </trkpt>
      <trkpt lat="46.16556" lon="-1.11233">
        <ele>6.5</ele>
        <time>2020-06-02T09:51:02Z</time>
      </trkpt>
      <trkpt lat="46.16559" lon="-1.11227">
        <ele>6.6</ele>
        <time>2020-06-02T09:51:03Z</time>
      </trkpt>
      <trkpt lat="46.16562" lon="-1.11221">
        <ele>6.6</ele>
        <time>2020-06-02T09:51:04Z</time>
      </trkpt>
      <trkpt lat="46.16566" lon="-1.11216">
        <ele>6.6</ele>
        <time>2020-06-02T09:51:05Z</time>
      </trkpt>
      <trkpt lat="46.16568" lon="-1.1121">
        <ele>6.6</ele>
        <time>2020-06-02T09:51:06Z</time>
      </trkpt>
      <trkpt lat="46.1657" lon="-1.11205">
        <ele>6.6</ele>
        <time>2020-06-02T09:51:07Z</time>
      </trkpt>
      <trkpt lat="46.16573" lon="-1.11199">
        <ele>6.6</ele>
        <time>2020-06-02T09:51:08Z</time>
      </trkpt>
      <trkpt lat="46.16575" lon="-1.11194">
        <ele>6.6</ele>
        <time>2020-06-02T09:51:09Z</time>
      </trkpt>
      <trkpt lat="46.16578" lon="-1.11188">
        <ele>6.6</ele>
        <time>2020-06-02T09:51:10Z</time>
      </trkpt>
      <trkpt lat="46.1658" lon="-1.11183">
        <ele>6.6</ele>
        <time>2020-06-02T09:51:11Z</time>
      </trkpt>
      <trkpt lat="46.16584" lon="-1.11178">
        <ele>6.6</ele>
        <time>2020-06-02T09:51:12Z</time>
      </trkpt>
      <trkpt lat="46.16588" lon="-1.11174">
        <ele>6.6</ele>
        <time>2020-06-02T09:51:13Z</time>
      </trkpt>
      <trkpt lat="46.16591" lon="-1.1117">
        <ele>6.6</ele>
        <time>2020-06-02T09:51:14Z</time>
      </trkpt>
      <trkpt lat="46.16593" lon="-1.11167">
        <ele>6.6</ele>
        <time>2020-06-02T09:51:15Z</time>
      </trkpt>
      <trkpt lat="46.16595" lon="-1.11162">
        <ele>6.6</ele>
        <time>2020-06-02T09:51:16Z</time>
      </trkpt>
      <trkpt lat="46.16599" lon="-1.11157">
        <ele>6.7</ele>
        <time>2020-06-02T09:51:17Z</time>
      </trkpt>
      <trkpt lat="46.16603" lon="-1.11151">
        <ele>6.7</ele>
        <time>2020-06-02T09:51:18Z</time>
      </trkpt>
      <trkpt lat="46.16606" lon="-1.11144">
        <ele>6.7</ele>
        <time>2020-06-02T09:51:19Z</time>
      </trkpt>
      <trkpt lat="46.16609" lon="-1.11136">
        <ele>6.7</ele>
        <time>2020-06-02T09:51:20Z</time>
      </trkpt>
      <trkpt lat="46.16612" lon="-1.11128">
        <ele>6.7</ele>
        <time>2020-06-02T09:51:21Z</time>
      </trkpt>
      <trkpt lat="46.16615" lon="-1.11122">
        <ele>6.7</ele>
        <time>2020-06-02T09:51:22Z</time>
      </trkpt>
      <trkpt lat="46.16618" lon="-1.11117">
        <ele>6.8</ele>
        <time>2020-06-02T09:51:23Z</time>
      </trkpt>
      <trkpt lat="46.1662" lon="-1.11112">
        <ele>6.8</ele>
        <time>2020-06-02T09:51:24Z</time>
      </trkpt>
      <trkpt lat="46.16623" lon="-1.11106">
        <ele>6.8</ele>
        <time>2020-06-02T09:51:25Z</time>
      </trkpt>
      <trkpt lat="46.16626" lon="-1.11102">
        <ele>6.8</ele>
        <time>2020-06-02T09:51:26Z</time>
      </trkpt>
      <trkpt lat="46.1663" lon="-1.11098">
        <ele>6.9</ele>
        <time>2020-06-02T09:51:27Z</time>
      </trkpt>
      <trkpt lat="46.16635" lon="-1.11094">
        <ele>6.9</ele>
        <time>2020-06-02T09:51:28Z</time>
      </trkpt>
      <trkpt lat="46.16639" lon="-1.1109">
        <ele>7</ele>
        <time>2020-06-02T09:51:29Z</time>
      </trkpt>
      <trkpt lat="46.16642" lon="-1.11086">
        <ele>7.1</ele>
        <time>2020-06-02T09:51:30Z</time>
      </trkpt>
      <trkpt lat="46.16645" lon="-1.11082">
        <ele>7.2</ele>
        <time>2020-06-02T09:51:31Z</time>
      </trkpt>
      <trkpt lat="46.16648" lon="-1.11077">
        <ele>7.2</ele>
        <time>2020-06-02T09:51:32Z</time>
      </trkpt>
      <trkpt lat="46.16651" lon="-1.11072">
        <ele>7.3</ele>
        <time>2020-06-02T09:51:33Z</time>
      </trkpt>
      <trkpt lat="46.16653" lon="-1.11067">
        <ele>7.4</ele>
        <time>2020-06-02T09:51:34Z</time>
      </trkpt>
      <trkpt lat="46.16655" lon="-1.11062">
        <ele>7.5</ele>
        <time>2020-06-02T09:51:35Z</time>
      </trkpt>
      <trkpt lat="46.16658" lon="-1.11057">
        <ele>7.5</ele>
        <time>2020-06-02T09:51:36Z</time>
      </trkpt>
      <trkpt lat="46.1666" lon="-1.11051">
        <ele>7.6</ele>
        <time>2020-06-02T09:51:37Z</time>
      </trkpt>
      <trkpt lat="46.16663" lon="-1.11046">
        <ele>7.6</ele>
        <time>2020-06-02T09:51:38Z</time>
      </trkpt>
      <trkpt lat="46.16666" lon="-1.11041">
        <ele>7.7</ele>
        <time>2020-06-02T09:51:39Z</time>
      </trkpt>
      <trkpt lat="46.16668" lon="-1.11036">
        <ele>7.7</ele>
        <time>2020-06-02T09:51:40Z</time>
      </trkpt>
      <trkpt lat="46.1667" lon="-1.11031">
        <ele>7.7</ele>
        <time>2020-06-02T09:51:41Z</time>
      </trkpt>
      <trkpt lat="46.16674" lon="-1.11026">
        <ele>7.7</ele>
        <time>2020-06-02T09:51:42Z</time>
      </trkpt>
      <trkpt lat="46.16676" lon="-1.1102">
        <ele>7.8</ele>
        <time>2020-06-02T09:51:43Z</time>
      </trkpt>
      <trkpt lat="46.16678" lon="-1.11014">
        <ele>7.8</ele>
        <time>2020-06-02T09:51:44Z</time>
      </trkpt>
      <trkpt lat="46.1668" lon="-1.11009">
        <ele>7.8</ele>
        <time>2020-06-02T09:51:45Z</time>
      </trkpt>
      <trkpt lat="46.16681" lon="-1.11003">
        <ele>7.9</ele>
        <time>2020-06-02T09:51:46Z</time>
      </trkpt>
      <trkpt lat="46.16683" lon="-1.10997">
        <ele>7.9</ele>
        <time>2020-06-02T09:51:47Z</time>
      </trkpt>
      <trkpt lat="46.16685" lon="-1.10992">
        <ele>7.9</ele>
        <time>2020-06-02T09:51:48Z</time>
      </trkpt>
      <trkpt lat="46.16687" lon="-1.10988">
        <ele>7.9</ele>
        <time>2020-06-02T09:51:49Z</time>
      </trkpt>
      <trkpt lat="46.16688" lon="-1.10982">
        <ele>8</ele>
        <time>2020-06-02T09:51:50Z</time>
      </trkpt>
      <trkpt lat="46.1669" lon="-1.10976">
        <ele>8</ele>
        <time>2020-06-02T09:51:51Z</time>
      </trkpt>
      <trkpt lat="46.16691" lon="-1.10971">
        <ele>8</ele>
        <time>2020-06-02T09:51:52Z</time>
      </trkpt>
      <trkpt lat="46.16693" lon="-1.10967">
        <ele>8</ele>
        <time>2020-06-02T09:51:53Z</time>
      </trkpt>
      <trkpt lat="46.16697" lon="-1.10961">
        <ele>8</ele>
        <time>2020-06-02T09:51:54Z</time>
      </trkpt>
      <trkpt lat="46.16699" lon="-1.10956">
        <ele>8</ele>
        <time>2020-06-02T09:51:55Z</time>
      </trkpt>
      <trkpt lat="46.16703" lon="-1.1095">
        <ele>8.1</ele>
        <time>2020-06-02T09:51:56Z</time>
      </trkpt>
      <trkpt lat="46.16707" lon="-1.10945">
        <ele>8.1</ele>
        <time>2020-06-02T09:51:57Z</time>
      </trkpt>
      <trkpt lat="46.1671" lon="-1.1094">
        <ele>8.1</ele>
        <time>2020-06-02T09:51:58Z</time>
      </trkpt>
      <trkpt lat="46.16712" lon="-1.10934">
        <ele>8.1</ele>
        <time>2020-06-02T09:51:59Z</time>
      </trkpt>
      <trkpt lat="46.16714" lon="-1.1093">
        <ele>8.1</ele>
        <time>2020-06-02T09:52:00Z</time>
      </trkpt>
      <trkpt lat="46.16715" lon="-1.10929">
        <ele>8.1</ele>
        <time>2020-06-02T09:52:01Z</time>
      </trkpt>
      <trkpt lat="46.16716" lon="-1.10927">
        <ele>8.1</ele>
        <time>2020-06-02T09:52:02Z</time>
      </trkpt>
      <trkpt lat="46.16717" lon="-1.10924">
        <ele>8.1</ele>
        <time>2020-06-02T09:52:03Z</time>
      </trkpt>
      <trkpt lat="46.16718" lon="-1.10922">
        <ele>8.1</ele>
        <time>2020-06-02T09:52:04Z</time>
      </trkpt>
      <trkpt lat="46.16718" lon="-1.10918">
        <ele>8.1</ele>
        <time>2020-06-02T09:52:05Z</time>
      </trkpt>
      <trkpt lat="46.16719" lon="-1.10917">
        <ele>8</ele>
        <time>2020-06-02T09:52:06Z</time>
      </trkpt>
      <trkpt lat="46.16719" lon="-1.10911">
        <ele>8</ele>
        <time>2020-06-02T09:52:07Z</time>
      </trkpt>
      <trkpt lat="46.1672" lon="-1.1091">
        <ele>8</ele>
        <time>2020-06-02T09:52:08Z</time>
      </trkpt>
      <trkpt lat="46.1672" lon="-1.10906">
        <ele>8</ele>
        <time>2020-06-02T09:52:09Z</time>
      </trkpt>
      <trkpt lat="46.16721" lon="-1.10905">
        <ele>8.1</ele>
        <time>2020-06-02T09:52:10Z</time>
      </trkpt>
      <trkpt lat="46.16722" lon="-1.109">
        <ele>8.1</ele>
        <time>2020-06-02T09:52:11Z</time>
      </trkpt>
      <trkpt lat="46.16722" lon="-1.10899">
        <ele>8.1</ele>
        <time>2020-06-02T09:52:12Z</time>
      </trkpt>
      <trkpt lat="46.16724" lon="-1.10895">
        <ele>8.1</ele>
        <time>2020-06-02T09:52:13Z</time>
      </trkpt>
      <trkpt lat="46.16724" lon="-1.10894">
        <ele>8.1</ele>
        <time>2020-06-02T09:52:14Z</time>
      </trkpt>
      <trkpt lat="46.16727" lon="-1.10889">
        <ele>8.1</ele>
        <time>2020-06-02T09:52:15Z</time>
      </trkpt>
      <trkpt lat="46.16728" lon="-1.10887">
        <ele>8.1</ele>
        <time>2020-06-02T09:52:16Z</time>
      </trkpt>
      <trkpt lat="46.16731" lon="-1.10883">
        <ele>8.1</ele>
        <time>2020-06-02T09:52:17Z</time>
      </trkpt>
      <trkpt lat="46.16734" lon="-1.10877">
        <ele>8.1</ele>
        <time>2020-06-02T09:52:18Z</time>
      </trkpt>
      <trkpt lat="46.16737" lon="-1.10871">
        <ele>8.1</ele>
        <time>2020-06-02T09:52:19Z</time>
      </trkpt>
      <trkpt lat="46.16739" lon="-1.10867">
        <ele>8</ele>
        <time>2020-06-02T09:52:20Z</time>
      </trkpt>
      <trkpt lat="46.1674" lon="-1.10863">
        <ele>8</ele>
        <time>2020-06-02T09:52:21Z</time>
      </trkpt>
      <trkpt lat="46.16742" lon="-1.10859">
        <ele>8</ele>
        <time>2020-06-02T09:52:22Z</time>
      </trkpt>
      <trkpt lat="46.16744" lon="-1.10855">
        <ele>8</ele>
        <time>2020-06-02T09:52:23Z</time>
      </trkpt>
      <trkpt lat="46.16746" lon="-1.10849">
        <ele>8</ele>
        <time>2020-06-02T09:52:24Z</time>
      </trkpt>
      <trkpt lat="46.16749" lon="-1.10843">
        <ele>8</ele>
        <time>2020-06-02T09:52:25Z</time>
      </trkpt>
      <trkpt lat="46.16751" lon="-1.10838">
        <ele>8</ele>
        <time>2020-06-02T09:52:26Z</time>
      </trkpt>
      <trkpt lat="46.16753" lon="-1.10834">
        <ele>8</ele>
        <time>2020-06-02T09:52:27Z</time>
      </trkpt>
      <trkpt lat="46.16755" lon="-1.10829">
        <ele>8</ele>
        <time>2020-06-02T09:52:28Z</time>
      </trkpt>
      <trkpt lat="46.16757" lon="-1.10825">
        <ele>8</ele>
        <time>2020-06-02T09:52:29Z</time>
      </trkpt>
      <trkpt lat="46.16759" lon="-1.1082">
        <ele>8</ele>
        <time>2020-06-02T09:52:30Z</time>
      </trkpt>
      <trkpt lat="46.16761" lon="-1.10815">
        <ele>8</ele>
        <time>2020-06-02T09:52:31Z</time>
      </trkpt>
      <trkpt lat="46.16764" lon="-1.1081">
        <ele>8</ele>
        <time>2020-06-02T09:52:32Z</time>
      </trkpt>
      <trkpt lat="46.16767" lon="-1.10806">
        <ele>8</ele>
        <time>2020-06-02T09:52:33Z</time>
      </trkpt>
      <trkpt lat="46.16769" lon="-1.10801">
        <ele>8</ele>
        <time>2020-06-02T09:52:34Z</time>
      </trkpt>
      <trkpt lat="46.16771" lon="-1.10797">
        <ele>8</ele>
        <time>2020-06-02T09:52:35Z</time>
      </trkpt>
      <trkpt lat="46.16773" lon="-1.10791">
        <ele>7.9</ele>
        <time>2020-06-02T09:52:36Z</time>
      </trkpt>
      <trkpt lat="46.16776" lon="-1.10785">
        <ele>7.9</ele>
        <time>2020-06-02T09:52:37Z</time>
      </trkpt>
      <trkpt lat="46.16779" lon="-1.10781">
        <ele>7.9</ele>
        <time>2020-06-02T09:52:38Z</time>
      </trkpt>
      <trkpt lat="46.16782" lon="-1.10776">
        <ele>7.9</ele>
        <time>2020-06-02T09:52:39Z</time>
      </trkpt>
      <trkpt lat="46.16784" lon="-1.10772">
        <ele>7.9</ele>
        <time>2020-06-02T09:52:40Z</time>
      </trkpt>
      <trkpt lat="46.16786" lon="-1.10767">
        <ele>7.9</ele>
        <time>2020-06-02T09:52:41Z</time>
      </trkpt>
      <trkpt lat="46.16789" lon="-1.10763">
        <ele>7.9</ele>
        <time>2020-06-02T09:52:42Z</time>
      </trkpt>
      <trkpt lat="46.16792" lon="-1.10758">
        <ele>7.9</ele>
        <time>2020-06-02T09:52:43Z</time>
      </trkpt>
      <trkpt lat="46.16795" lon="-1.10753">
        <ele>7.9</ele>
        <time>2020-06-02T09:52:44Z</time>
      </trkpt>
      <trkpt lat="46.16798" lon="-1.10749">
        <ele>7.9</ele>
        <time>2020-06-02T09:52:45Z</time>
      </trkpt>
      <trkpt lat="46.168" lon="-1.10744">
        <ele>7.9</ele>
        <time>2020-06-02T09:52:46Z</time>
      </trkpt>
      <trkpt lat="46.16802" lon="-1.10739">
        <ele>8</ele>
        <time>2020-06-02T09:52:47Z</time>
      </trkpt>
      <trkpt lat="46.16805" lon="-1.10733">
        <ele>8</ele>
        <time>2020-06-02T09:52:48Z</time>
      </trkpt>
      <trkpt lat="46.16809" lon="-1.10729">
        <ele>8</ele>
        <time>2020-06-02T09:52:49Z</time>
      </trkpt>
      <trkpt lat="46.16812" lon="-1.10724">
        <ele>8</ele>
        <time>2020-06-02T09:52:50Z</time>
      </trkpt>
      <trkpt lat="46.16815" lon="-1.1072">
        <ele>8</ele>
        <time>2020-06-02T09:52:51Z</time>
      </trkpt>
      <trkpt lat="46.16817" lon="-1.10715">
        <ele>8</ele>
        <time>2020-06-02T09:52:52Z</time>
      </trkpt>
      <trkpt lat="46.16819" lon="-1.1071">
        <ele>8</ele>
        <time>2020-06-02T09:52:53Z</time>
      </trkpt>
      <trkpt lat="46.16822" lon="-1.10704">
        <ele>8</ele>
        <time>2020-06-02T09:52:54Z</time>
      </trkpt>
      <trkpt lat="46.16824" lon="-1.10698">
        <ele>8</ele>
        <time>2020-06-02T09:52:55Z</time>
      </trkpt>
      <trkpt lat="46.16827" lon="-1.10693">
        <ele>8</ele>
        <time>2020-06-02T09:52:56Z</time>
      </trkpt>
      <trkpt lat="46.1683" lon="-1.10688">
        <ele>8</ele>
        <time>2020-06-02T09:52:57Z</time>
      </trkpt>
      <trkpt lat="46.16833" lon="-1.10682">
        <ele>8</ele>
        <time>2020-06-02T09:52:58Z</time>
      </trkpt>
      <trkpt lat="46.16835" lon="-1.10678">
        <ele>8</ele>
        <time>2020-06-02T09:52:59Z</time>
      </trkpt>
      <trkpt lat="46.16837" lon="-1.10674">
        <ele>8</ele>
        <time>2020-06-02T09:53:00Z</time>
      </trkpt>
      <trkpt lat="46.16841" lon="-1.10669">
        <ele>8</ele>
        <time>2020-06-02T09:53:01Z</time>
      </trkpt>
      <trkpt lat="46.16844" lon="-1.10664">
        <ele>8</ele>
        <time>2020-06-02T09:53:02Z</time>
      </trkpt>
      <trkpt lat="46.16847" lon="-1.10659">
        <ele>8</ele>
        <time>2020-06-02T09:53:03Z</time>
      </trkpt>
      <trkpt lat="46.16849" lon="-1.10654">
        <ele>7.9</ele>
        <time>2020-06-02T09:53:04Z</time>
      </trkpt>
      <trkpt lat="46.16852" lon="-1.10649">
        <ele>7.9</ele>
        <time>2020-06-02T09:53:05Z</time>
      </trkpt>
      <trkpt lat="46.16855" lon="-1.10643">
        <ele>7.9</ele>
        <time>2020-06-02T09:53:06Z</time>
      </trkpt>
      <trkpt lat="46.16858" lon="-1.10638">
        <ele>7.9</ele>
        <time>2020-06-02T09:53:07Z</time>
      </trkpt>
      <trkpt lat="46.1686" lon="-1.10633">
        <ele>7.9</ele>
        <time>2020-06-02T09:53:08Z</time>
      </trkpt>
      <trkpt lat="46.16863" lon="-1.1063">
        <ele>7.9</ele>
        <time>2020-06-02T09:53:09Z</time>
      </trkpt>
      <trkpt lat="46.16865" lon="-1.10625">
        <ele>7.9</ele>
        <time>2020-06-02T09:53:10Z</time>
      </trkpt>
      <trkpt lat="46.16867" lon="-1.10621">
        <ele>8</ele>
        <time>2020-06-02T09:53:11Z</time>
      </trkpt>
      <trkpt lat="46.16869" lon="-1.10616">
        <ele>8</ele>
        <time>2020-06-02T09:53:12Z</time>
      </trkpt>
      <trkpt lat="46.16871" lon="-1.10611">
        <ele>8</ele>
        <time>2020-06-02T09:53:13Z</time>
      </trkpt>
      <trkpt lat="46.16873" lon="-1.10606">
        <ele>8</ele>
        <time>2020-06-02T09:53:14Z</time>
      </trkpt>
      <trkpt lat="46.16875" lon="-1.10602">
        <ele>8</ele>
        <time>2020-06-02T09:53:15Z</time>
      </trkpt>
      <trkpt lat="46.16878" lon="-1.10597">
        <ele>8</ele>
        <time>2020-06-02T09:53:16Z</time>
      </trkpt>
      <trkpt lat="46.16881" lon="-1.10592">
        <ele>8.1</ele>
        <time>2020-06-02T09:53:17Z</time>
      </trkpt>
      <trkpt lat="46.16884" lon="-1.10585">
        <ele>8.1</ele>
        <time>2020-06-02T09:53:18Z</time>
      </trkpt>
      <trkpt lat="46.16887" lon="-1.1058">
        <ele>8.1</ele>
        <time>2020-06-02T09:53:19Z</time>
      </trkpt>
      <trkpt lat="46.1689" lon="-1.10575">
        <ele>8.1</ele>
        <time>2020-06-02T09:53:20Z</time>
      </trkpt>
      <trkpt lat="46.16893" lon="-1.10571">
        <ele>8.2</ele>
        <time>2020-06-02T09:53:21Z</time>
      </trkpt>
      <trkpt lat="46.16895" lon="-1.10566">
        <ele>8.2</ele>
        <time>2020-06-02T09:53:22Z</time>
      </trkpt>
      <trkpt lat="46.16898" lon="-1.10561">
        <ele>8.2</ele>
        <time>2020-06-02T09:53:23Z</time>
      </trkpt>
      <trkpt lat="46.16901" lon="-1.10556">
        <ele>8.2</ele>
        <time>2020-06-02T09:53:24Z</time>
      </trkpt>
      <trkpt lat="46.16904" lon="-1.10551">
        <ele>8.3</ele>
        <time>2020-06-02T09:53:25Z</time>
      </trkpt>
      <trkpt lat="46.16907" lon="-1.10545">
        <ele>8.3</ele>
        <time>2020-06-02T09:53:26Z</time>
      </trkpt>
      <trkpt lat="46.16909" lon="-1.10538">
        <ele>8.3</ele>
        <time>2020-06-02T09:53:27Z</time>
      </trkpt>
      <trkpt lat="46.16912" lon="-1.10532">
        <ele>8.3</ele>
        <time>2020-06-02T09:53:28Z</time>
      </trkpt>
      <trkpt lat="46.16915" lon="-1.10526">
        <ele>8.3</ele>
        <time>2020-06-02T09:53:29Z</time>
      </trkpt>
      <trkpt lat="46.16918" lon="-1.10522">
        <ele>8.3</ele>
        <time>2020-06-02T09:53:30Z</time>
      </trkpt>
      <trkpt lat="46.16919" lon="-1.10518">
        <ele>8.3</ele>
        <time>2020-06-02T09:53:31Z</time>
      </trkpt>
      <trkpt lat="46.1692" lon="-1.10514">
        <ele>8.3</ele>
        <time>2020-06-02T09:53:32Z</time>
      </trkpt>
      <trkpt lat="46.16921" lon="-1.10513">
        <ele>8.3</ele>
        <time>2020-06-02T09:53:33Z</time>
      </trkpt>
      <trkpt lat="46.16922" lon="-1.10508">
        <ele>8.3</ele>
        <time>2020-06-02T09:53:34Z</time>
      </trkpt>
      <trkpt lat="46.16923" lon="-1.10506">
        <ele>8.3</ele>
        <time>2020-06-02T09:53:35Z</time>
      </trkpt>
      <trkpt lat="46.16924" lon="-1.10501">
        <ele>8.3</ele>
        <time>2020-06-02T09:53:36Z</time>
      </trkpt>
      <trkpt lat="46.16927" lon="-1.10496">
        <ele>8.3</ele>
        <time>2020-06-02T09:53:37Z</time>
      </trkpt>
      <trkpt lat="46.16929" lon="-1.10489">
        <ele>8.3</ele>
        <time>2020-06-02T09:53:38Z</time>
      </trkpt>
      <trkpt lat="46.16932" lon="-1.10484">
        <ele>8.3</ele>
        <time>2020-06-02T09:53:39Z</time>
      </trkpt>
      <trkpt lat="46.16934" lon="-1.10478">
        <ele>8.3</ele>
        <time>2020-06-02T09:53:40Z</time>
      </trkpt>
      <trkpt lat="46.16936" lon="-1.10472">
        <ele>8.3</ele>
        <time>2020-06-02T09:53:41Z</time>
      </trkpt>
      <trkpt lat="46.16938" lon="-1.10467">
        <ele>8.3</ele>
        <time>2020-06-02T09:53:42Z</time>
      </trkpt>
      <trkpt lat="46.1694" lon="-1.10461">
        <ele>8.3</ele>
        <time>2020-06-02T09:53:43Z</time>
      </trkpt>
      <trkpt lat="46.16942" lon="-1.10456">
        <ele>8.3</ele>
        <time>2020-06-02T09:53:44Z</time>
      </trkpt>
      <trkpt lat="46.16943" lon="-1.10451">
        <ele>8.4</ele>
        <time>2020-06-02T09:53:45Z</time>
      </trkpt>
      <trkpt lat="46.16945" lon="-1.10446">
        <ele>8.4</ele>
        <time>2020-06-02T09:53:46Z</time>
      </trkpt>
      <trkpt lat="46.16948" lon="-1.10441">
        <ele>8.4</ele>
        <time>2020-06-02T09:53:47Z</time>
      </trkpt>
      <trkpt lat="46.1695" lon="-1.10436">
        <ele>8.4</ele>
        <time>2020-06-02T09:53:48Z</time>
      </trkpt>
      <trkpt lat="46.16952" lon="-1.1043">
        <ele>8.5</ele>
        <time>2020-06-02T09:53:49Z</time>
      </trkpt>
      <trkpt lat="46.16953" lon="-1.10424">
        <ele>8.5</ele>
        <time>2020-06-02T09:53:50Z</time>
      </trkpt>
      <trkpt lat="46.16954" lon="-1.10418">
        <ele>8.5</ele>
        <time>2020-06-02T09:53:51Z</time>
      </trkpt>
      <trkpt lat="46.16955" lon="-1.10412">
        <ele>8.6</ele>
        <time>2020-06-02T09:53:52Z</time>
      </trkpt>
      <trkpt lat="46.16955" lon="-1.10406">
        <ele>8.6</ele>
        <time>2020-06-02T09:53:53Z</time>
      </trkpt>
      <trkpt lat="46.16956" lon="-1.104">
        <ele>8.6</ele>
        <time>2020-06-02T09:53:54Z</time>
      </trkpt>
      <trkpt lat="46.16957" lon="-1.10393">
        <ele>8.7</ele>
        <time>2020-06-02T09:53:55Z</time>
      </trkpt>
      <trkpt lat="46.16958" lon="-1.10386">
        <ele>8.7</ele>
        <time>2020-06-02T09:53:56Z</time>
      </trkpt>
      <trkpt lat="46.16959" lon="-1.1038">
        <ele>8.8</ele>
        <time>2020-06-02T09:53:57Z</time>
      </trkpt>
      <trkpt lat="46.1696" lon="-1.10375">
        <ele>8.8</ele>
        <time>2020-06-02T09:53:58Z</time>
      </trkpt>
      <trkpt lat="46.1696" lon="-1.1037">
        <ele>8.9</ele>
        <time>2020-06-02T09:53:59Z</time>
      </trkpt>
      <trkpt lat="46.16961" lon="-1.10366">
        <ele>8.9</ele>
        <time>2020-06-02T09:54:00Z</time>
      </trkpt>
      <trkpt lat="46.16963" lon="-1.1036">
        <ele>9</ele>
        <time>2020-06-02T09:54:01Z</time>
      </trkpt>
      <trkpt lat="46.16965" lon="-1.10353">
        <ele>9</ele>
        <time>2020-06-02T09:54:02Z</time>
      </trkpt>
      <trkpt lat="46.16967" lon="-1.10345">
        <ele>9.1</ele>
        <time>2020-06-02T09:54:03Z</time>
      </trkpt>
      <trkpt lat="46.16968" lon="-1.10338">
        <ele>9.1</ele>
        <time>2020-06-02T09:54:04Z</time>
      </trkpt>
      <trkpt lat="46.16969" lon="-1.10331">
        <ele>9.2</ele>
        <time>2020-06-02T09:54:05Z</time>
      </trkpt>
      <trkpt lat="46.1697" lon="-1.10323">
        <ele>9.2</ele>
        <time>2020-06-02T09:54:06Z</time>
      </trkpt>
      <trkpt lat="46.16971" lon="-1.10316">
        <ele>9.3</ele>
        <time>2020-06-02T09:54:07Z</time>
      </trkpt>
      <trkpt lat="46.16972" lon="-1.10309">
        <ele>9.3</ele>
        <time>2020-06-02T09:54:08Z</time>
      </trkpt>
      <trkpt lat="46.16972" lon="-1.10302">
        <ele>9.3</ele>
        <time>2020-06-02T09:54:09Z</time>
      </trkpt>
      <trkpt lat="46.16972" lon="-1.10296">
        <ele>9.3</ele>
        <time>2020-06-02T09:54:10Z</time>
      </trkpt>
      <trkpt lat="46.16972" lon="-1.1029">
        <ele>9.4</ele>
        <time>2020-06-02T09:54:11Z</time>
      </trkpt>
      <trkpt lat="46.16972" lon="-1.10285">
        <ele>9.4</ele>
        <time>2020-06-02T09:54:12Z</time>
      </trkpt>
      <trkpt lat="46.16972" lon="-1.10278">
        <ele>9.4</ele>
        <time>2020-06-02T09:54:13Z</time>
      </trkpt>
      <trkpt lat="46.16972" lon="-1.10273">
        <ele>9.4</ele>
        <time>2020-06-02T09:54:14Z</time>
      </trkpt>
      <trkpt lat="46.16973" lon="-1.10267">
        <ele>9.4</ele>
        <time>2020-06-02T09:54:15Z</time>
      </trkpt>
      <trkpt lat="46.16973" lon="-1.10259">
        <ele>9.3</ele>
        <time>2020-06-02T09:54:16Z</time>
      </trkpt>
      <trkpt lat="46.16973" lon="-1.10251">
        <ele>9.3</ele>
        <time>2020-06-02T09:54:17Z</time>
      </trkpt>
      <trkpt lat="46.16973" lon="-1.10244">
        <ele>9.3</ele>
        <time>2020-06-02T09:54:18Z</time>
      </trkpt>
      <trkpt lat="46.16972" lon="-1.10237">
        <ele>9.3</ele>
        <time>2020-06-02T09:54:19Z</time>
      </trkpt>
      <trkpt lat="46.16972" lon="-1.10231">
        <ele>9.3</ele>
        <time>2020-06-02T09:54:20Z</time>
      </trkpt>
      <trkpt lat="46.16971" lon="-1.10224">
        <ele>9.3</ele>
        <time>2020-06-02T09:54:21Z</time>
      </trkpt>
      <trkpt lat="46.16971" lon="-1.10218">
        <ele>9.3</ele>
        <time>2020-06-02T09:54:22Z</time>
      </trkpt>
      <trkpt lat="46.1697" lon="-1.10211">
        <ele>9.4</ele>
        <time>2020-06-02T09:54:23Z</time>
      </trkpt>
      <trkpt lat="46.1697" lon="-1.10204">
        <ele>9.4</ele>
        <time>2020-06-02T09:54:24Z</time>
      </trkpt>
      <trkpt lat="46.16968" lon="-1.10197">
        <ele>9.4</ele>
        <time>2020-06-02T09:54:25Z</time>
      </trkpt>
      <trkpt lat="46.16966" lon="-1.10189">
        <ele>9.5</ele>
        <time>2020-06-02T09:54:26Z</time>
      </trkpt>
      <trkpt lat="46.16965" lon="-1.10182">
        <ele>9.5</ele>
        <time>2020-06-02T09:54:27Z</time>
      </trkpt>
      <trkpt lat="46.16964" lon="-1.10176">
        <ele>9.5</ele>
        <time>2020-06-02T09:54:28Z</time>
      </trkpt>
      <trkpt lat="46.16962" lon="-1.10169">
        <ele>9.6</ele>
        <time>2020-06-02T09:54:29Z</time>
      </trkpt>
      <trkpt lat="46.16961" lon="-1.10161">
        <ele>9.6</ele>
        <time>2020-06-02T09:54:30Z</time>
      </trkpt>
      <trkpt lat="46.16961" lon="-1.10153">
        <ele>9.6</ele>
        <time>2020-06-02T09:54:31Z</time>
      </trkpt>
      <trkpt lat="46.16961" lon="-1.10145">
        <ele>9.7</ele>
        <time>2020-06-02T09:54:32Z</time>
      </trkpt>
      <trkpt lat="46.1696" lon="-1.10137">
        <ele>9.7</ele>
        <time>2020-06-02T09:54:33Z</time>
      </trkpt>
      <trkpt lat="46.16958" lon="-1.1013">
        <ele>9.7</ele>
        <time>2020-06-02T09:54:34Z</time>
      </trkpt>
      <trkpt lat="46.16957" lon="-1.10124">
        <ele>9.7</ele>
        <time>2020-06-02T09:54:35Z</time>
      </trkpt>
      <trkpt lat="46.16956" lon="-1.10116">
        <ele>9.7</ele>
        <time>2020-06-02T09:54:36Z</time>
      </trkpt>
      <trkpt lat="46.16954" lon="-1.10108">
        <ele>9.8</ele>
        <time>2020-06-02T09:54:37Z</time>
      </trkpt>
      <trkpt lat="46.16952" lon="-1.10101">
        <ele>9.8</ele>
        <time>2020-06-02T09:54:38Z</time>
      </trkpt>
      <trkpt lat="46.16951" lon="-1.10095">
        <ele>9.8</ele>
        <time>2020-06-02T09:54:39Z</time>
      </trkpt>
      <trkpt lat="46.1695" lon="-1.10088">
        <ele>9.8</ele>
        <time>2020-06-02T09:54:40Z</time>
      </trkpt>
      <trkpt lat="46.16949" lon="-1.1008">
        <ele>9.8</ele>
        <time>2020-06-02T09:54:41Z</time>
      </trkpt>
      <trkpt lat="46.16948" lon="-1.10073">
        <ele>9.9</ele>
        <time>2020-06-02T09:54:42Z</time>
      </trkpt>
      <trkpt lat="46.16947" lon="-1.10065">
        <ele>9.9</ele>
        <time>2020-06-02T09:54:43Z</time>
      </trkpt>
      <trkpt lat="46.16946" lon="-1.10058">
        <ele>9.9</ele>
        <time>2020-06-02T09:54:44Z</time>
      </trkpt>
      <trkpt lat="46.16944" lon="-1.10051">
        <ele>10</ele>
        <time>2020-06-02T09:54:45Z</time>
      </trkpt>
      <trkpt lat="46.16943" lon="-1.10044">
        <ele>10</ele>
        <time>2020-06-02T09:54:46Z</time>
      </trkpt>
      <trkpt lat="46.16941" lon="-1.10037">
        <ele>10</ele>
        <time>2020-06-02T09:54:47Z</time>
      </trkpt>
      <trkpt lat="46.1694" lon="-1.10029">
        <ele>10</ele>
        <time>2020-06-02T09:54:48Z</time>
      </trkpt>
      <trkpt lat="46.16939" lon="-1.10023">
        <ele>10</ele>
        <time>2020-06-02T09:54:49Z</time>
      </trkpt>
      <trkpt lat="46.16938" lon="-1.10015">
        <ele>10</ele>
        <time>2020-06-02T09:54:50Z</time>
      </trkpt>
      <trkpt lat="46.16938" lon="-1.10008">
        <ele>10</ele>
        <time>2020-06-02T09:54:51Z</time>
      </trkpt>
      <trkpt lat="46.16937" lon="-1.10001">
        <ele>10.1</ele>
        <time>2020-06-02T09:54:52Z</time>
      </trkpt>
      <trkpt lat="46.16936" lon="-1.09993">
        <ele>10.1</ele>
        <time>2020-06-02T09:54:53Z</time>
      </trkpt>
      <trkpt lat="46.16935" lon="-1.09986">
        <ele>10.2</ele>
        <time>2020-06-02T09:54:54Z</time>
      </trkpt>
      <trkpt lat="46.16935" lon="-1.09979">
        <ele>10.2</ele>
        <time>2020-06-02T09:54:55Z</time>
      </trkpt>
      <trkpt lat="46.16933" lon="-1.09973">
        <ele>10.3</ele>
        <time>2020-06-02T09:54:56Z</time>
      </trkpt>
      <trkpt lat="46.16931" lon="-1.09966">
        <ele>10.3</ele>
        <time>2020-06-02T09:54:57Z</time>
      </trkpt>
      <trkpt lat="46.1693" lon="-1.09959">
        <ele>10.3</ele>
        <time>2020-06-02T09:54:58Z</time>
      </trkpt>
      <trkpt lat="46.16928" lon="-1.09951">
        <ele>10.3</ele>
        <time>2020-06-02T09:54:59Z</time>
      </trkpt>
      <trkpt lat="46.16926" lon="-1.09945">
        <ele>10.3</ele>
        <time>2020-06-02T09:55:00Z</time>
      </trkpt>
      <trkpt lat="46.16924" lon="-1.09939">
        <ele>10.3</ele>
        <time>2020-06-02T09:55:01Z</time>
      </trkpt>
      <trkpt lat="46.16922" lon="-1.09933">
        <ele>10.3</ele>
        <time>2020-06-02T09:55:02Z</time>
      </trkpt>
      <trkpt lat="46.16921" lon="-1.09925">
        <ele>10.4</ele>
        <time>2020-06-02T09:55:03Z</time>
      </trkpt>
      <trkpt lat="46.1692" lon="-1.09918">
        <ele>10.4</ele>
        <time>2020-06-02T09:55:04Z</time>
      </trkpt>
      <trkpt lat="46.16918" lon="-1.09911">
        <ele>10.4</ele>
        <time>2020-06-02T09:55:05Z</time>
      </trkpt>
      <trkpt lat="46.16916" lon="-1.09904">
        <ele>10.4</ele>
        <time>2020-06-02T09:55:06Z</time>
      </trkpt>
      <trkpt lat="46.16915" lon="-1.09897">
        <ele>10.4</ele>
        <time>2020-06-02T09:55:07Z</time>
      </trkpt>
      <trkpt lat="46.16914" lon="-1.09891">
        <ele>10.5</ele>
        <time>2020-06-02T09:55:08Z</time>
      </trkpt>
      <trkpt lat="46.16912" lon="-1.09884">
        <ele>10.5</ele>
        <time>2020-06-02T09:55:09Z</time>
      </trkpt>
      <trkpt lat="46.16911" lon="-1.09877">
        <ele>10.5</ele>
        <time>2020-06-02T09:55:10Z</time>
      </trkpt>
      <trkpt lat="46.16909" lon="-1.09869">
        <ele>10.6</ele>
        <time>2020-06-02T09:55:11Z</time>
      </trkpt>
      <trkpt lat="46.16907" lon="-1.09862">
        <ele>10.6</ele>
        <time>2020-06-02T09:55:12Z</time>
      </trkpt>
      <trkpt lat="46.16906" lon="-1.09855">
        <ele>10.6</ele>
        <time>2020-06-02T09:55:13Z</time>
      </trkpt>
      <trkpt lat="46.16904" lon="-1.09848">
        <ele>10.7</ele>
        <time>2020-06-02T09:55:14Z</time>
      </trkpt>
      <trkpt lat="46.16903" lon="-1.09841">
        <ele>10.7</ele>
        <time>2020-06-02T09:55:15Z</time>
      </trkpt>
      <trkpt lat="46.16901" lon="-1.09834">
        <ele>10.7</ele>
        <time>2020-06-02T09:55:16Z</time>
      </trkpt>
      <trkpt lat="46.16899" lon="-1.09827">
        <ele>10.8</ele>
        <time>2020-06-02T09:55:17Z</time>
      </trkpt>
      <trkpt lat="46.16898" lon="-1.0982">
        <ele>10.8</ele>
        <time>2020-06-02T09:55:18Z</time>
      </trkpt>
      <trkpt lat="46.16897" lon="-1.09814">
        <ele>10.8</ele>
        <time>2020-06-02T09:55:19Z</time>
      </trkpt>
      <trkpt lat="46.16896" lon="-1.09807">
        <ele>10.8</ele>
        <time>2020-06-02T09:55:20Z</time>
      </trkpt>
      <trkpt lat="46.16896" lon="-1.09801">
        <ele>10.9</ele>
        <time>2020-06-02T09:55:21Z</time>
      </trkpt>
      <trkpt lat="46.16895" lon="-1.09794">
        <ele>10.9</ele>
        <time>2020-06-02T09:55:22Z</time>
      </trkpt>
      <trkpt lat="46.16894" lon="-1.09786">
        <ele>10.9</ele>
        <time>2020-06-02T09:55:23Z</time>
      </trkpt>
      <trkpt lat="46.16893" lon="-1.09779">
        <ele>11</ele>
        <time>2020-06-02T09:55:24Z</time>
      </trkpt>
      <trkpt lat="46.16893" lon="-1.09772">
        <ele>11</ele>
        <time>2020-06-02T09:55:25Z</time>
      </trkpt>
      <trkpt lat="46.16892" lon="-1.09764">
        <ele>11</ele>
        <time>2020-06-02T09:55:26Z</time>
      </trkpt>
      <trkpt lat="46.16891" lon="-1.09757">
        <ele>11.1</ele>
        <time>2020-06-02T09:55:27Z</time>
      </trkpt>
      <trkpt lat="46.16889" lon="-1.0975">
        <ele>11.1</ele>
        <time>2020-06-02T09:55:28Z</time>
      </trkpt>
      <trkpt lat="46.16888" lon="-1.09742">
        <ele>11.1</ele>
        <time>2020-06-02T09:55:29Z</time>
      </trkpt>
      <trkpt lat="46.16886" lon="-1.09735">
        <ele>11.1</ele>
        <time>2020-06-02T09:55:30Z</time>
      </trkpt>
      <trkpt lat="46.16885" lon="-1.09729">
        <ele>11.1</ele>
        <time>2020-06-02T09:55:31Z</time>
      </trkpt>
      <trkpt lat="46.16884" lon="-1.09722">
        <ele>11.1</ele>
        <time>2020-06-02T09:55:32Z</time>
      </trkpt>
      <trkpt lat="46.16882" lon="-1.09715">
        <ele>11.2</ele>
        <time>2020-06-02T09:55:33Z</time>
      </trkpt>
      <trkpt lat="46.16881" lon="-1.09708">
        <ele>11.2</ele>
        <time>2020-06-02T09:55:34Z</time>
      </trkpt>
      <trkpt lat="46.1688" lon="-1.09701">
        <ele>11.2</ele>
        <time>2020-06-02T09:55:35Z</time>
      </trkpt>
      <trkpt lat="46.16879" lon="-1.09693">
        <ele>11.2</ele>
        <time>2020-06-02T09:55:36Z</time>
      </trkpt>
      <trkpt lat="46.16877" lon="-1.09686">
        <ele>11.2</ele>
        <time>2020-06-02T09:55:37Z</time>
      </trkpt>
      <trkpt lat="46.16876" lon="-1.09681">
        <ele>11.2</ele>
        <time>2020-06-02T09:55:38Z</time>
      </trkpt>
      <trkpt lat="46.16874" lon="-1.09674">
        <ele>11.3</ele>
        <time>2020-06-02T09:55:39Z</time>
      </trkpt>
      <trkpt lat="46.16872" lon="-1.09668">
        <ele>11.3</ele>
        <time>2020-06-02T09:55:40Z</time>
      </trkpt>
      <trkpt lat="46.1687" lon="-1.0966">
        <ele>11.4</ele>
        <time>2020-06-02T09:55:41Z</time>
      </trkpt>
      <trkpt lat="46.1687" lon="-1.09651">
        <ele>11.4</ele>
        <time>2020-06-02T09:55:42Z</time>
      </trkpt>
      <trkpt lat="46.16869" lon="-1.09641">
        <ele>11.4</ele>
        <time>2020-06-02T09:55:43Z</time>
      </trkpt>
      <trkpt lat="46.16868" lon="-1.09632">
        <ele>11.4</ele>
        <time>2020-06-02T09:55:44Z</time>
      </trkpt>
      <trkpt lat="46.16867" lon="-1.09623">
        <ele>11.5</ele>
        <time>2020-06-02T09:55:45Z</time>
      </trkpt>
      <trkpt lat="46.16866" lon="-1.09614">
        <ele>11.5</ele>
        <time>2020-06-02T09:55:46Z</time>
      </trkpt>
      <trkpt lat="46.16865" lon="-1.09606">
        <ele>11.5</ele>
        <time>2020-06-02T09:55:47Z</time>
      </trkpt>
      <trkpt lat="46.16863" lon="-1.09597">
        <ele>11.6</ele>
        <time>2020-06-02T09:55:48Z</time>
      </trkpt>
      <trkpt lat="46.16862" lon="-1.09589">
        <ele>11.6</ele>
        <time>2020-06-02T09:55:49Z</time>
      </trkpt>
      <trkpt lat="46.16861" lon="-1.09579">
        <ele>11.6</ele>
        <time>2020-06-02T09:55:50Z</time>
      </trkpt>
      <trkpt lat="46.1686" lon="-1.09571">
        <ele>11.7</ele>
        <time>2020-06-02T09:55:51Z</time>
      </trkpt>
      <trkpt lat="46.1686" lon="-1.09563">
        <ele>11.7</ele>
        <time>2020-06-02T09:55:52Z</time>
      </trkpt>
      <trkpt lat="46.16859" lon="-1.09554">
        <ele>11.7</ele>
        <time>2020-06-02T09:55:53Z</time>
      </trkpt>
      <trkpt lat="46.16858" lon="-1.09545">
        <ele>11.8</ele>
        <time>2020-06-02T09:55:54Z</time>
      </trkpt>
      <trkpt lat="46.16856" lon="-1.09537">
        <ele>11.8</ele>
        <time>2020-06-02T09:55:55Z</time>
      </trkpt>
      <trkpt lat="46.16855" lon="-1.09528">
        <ele>11.9</ele>
        <time>2020-06-02T09:55:56Z</time>
      </trkpt>
      <trkpt lat="46.16854" lon="-1.0952">
        <ele>12</ele>
        <time>2020-06-02T09:55:57Z</time>
      </trkpt>
      <trkpt lat="46.16853" lon="-1.09512">
        <ele>12.1</ele>
        <time>2020-06-02T09:55:58Z</time>
      </trkpt>
      <trkpt lat="46.16851" lon="-1.09504">
        <ele>12.2</ele>
        <time>2020-06-02T09:55:59Z</time>
      </trkpt>
      <trkpt lat="46.1685" lon="-1.09497">
        <ele>12.2</ele>
        <time>2020-06-02T09:56:00Z</time>
      </trkpt>
      <trkpt lat="46.16848" lon="-1.0949">
        <ele>12.3</ele>
        <time>2020-06-02T09:56:01Z</time>
      </trkpt>
      <trkpt lat="46.16847" lon="-1.09482">
        <ele>12.4</ele>
        <time>2020-06-02T09:56:02Z</time>
      </trkpt>
      <trkpt lat="46.16846" lon="-1.09475">
        <ele>12.4</ele>
        <time>2020-06-02T09:56:03Z</time>
      </trkpt>
      <trkpt lat="46.16847" lon="-1.09469">
        <ele>12.4</ele>
        <time>2020-06-02T09:56:04Z</time>
      </trkpt>
      <trkpt lat="46.16846" lon="-1.09461">
        <ele>12.4</ele>
        <time>2020-06-02T09:56:05Z</time>
      </trkpt>
      <trkpt lat="46.16845" lon="-1.09454">
        <ele>12.4</ele>
        <time>2020-06-02T09:56:06Z</time>
      </trkpt>
      <trkpt lat="46.16844" lon="-1.09447">
        <ele>12.4</ele>
        <time>2020-06-02T09:56:07Z</time>
      </trkpt>
      <trkpt lat="46.16843" lon="-1.09439">
        <ele>12.4</ele>
        <time>2020-06-02T09:56:08Z</time>
      </trkpt>
      <trkpt lat="46.16841" lon="-1.09431">
        <ele>12.4</ele>
        <time>2020-06-02T09:56:09Z</time>
      </trkpt>
      <trkpt lat="46.1684" lon="-1.09422">
        <ele>12.4</ele>
        <time>2020-06-02T09:56:10Z</time>
      </trkpt>
      <trkpt lat="46.16839" lon="-1.09413">
        <ele>12.4</ele>
        <time>2020-06-02T09:56:11Z</time>
      </trkpt>
      <trkpt lat="46.16837" lon="-1.09405">
        <ele>12.4</ele>
        <time>2020-06-02T09:56:12Z</time>
      </trkpt>
      <trkpt lat="46.16835" lon="-1.09398">
        <ele>12.5</ele>
        <time>2020-06-02T09:56:13Z</time>
      </trkpt>
      <trkpt lat="46.16833" lon="-1.0939">
        <ele>12.5</ele>
        <time>2020-06-02T09:56:14Z</time>
      </trkpt>
      <trkpt lat="46.16832" lon="-1.09382">
        <ele>12.6</ele>
        <time>2020-06-02T09:56:15Z</time>
      </trkpt>
      <trkpt lat="46.16831" lon="-1.09374">
        <ele>12.6</ele>
        <time>2020-06-02T09:56:16Z</time>
      </trkpt>
      <trkpt lat="46.16829" lon="-1.09367">
        <ele>12.6</ele>
        <time>2020-06-02T09:56:17Z</time>
      </trkpt>
      <trkpt lat="46.16827" lon="-1.0936">
        <ele>12.6</ele>
        <time>2020-06-02T09:56:18Z</time>
      </trkpt>
      <trkpt lat="46.16826" lon="-1.09352">
        <ele>12.6</ele>
        <time>2020-06-02T09:56:19Z</time>
      </trkpt>
      <trkpt lat="46.16825" lon="-1.09343">
        <ele>12.7</ele>
        <time>2020-06-02T09:56:20Z</time>
      </trkpt>
      <trkpt lat="46.16823" lon="-1.09336">
        <ele>12.7</ele>
        <time>2020-06-02T09:56:21Z</time>
      </trkpt>
      <trkpt lat="46.16821" lon="-1.09328">
        <ele>12.7</ele>
        <time>2020-06-02T09:56:22Z</time>
      </trkpt>
      <trkpt lat="46.16819" lon="-1.09321">
        <ele>12.8</ele>
        <time>2020-06-02T09:56:23Z</time>
      </trkpt>
      <trkpt lat="46.16817" lon="-1.09313">
        <ele>12.8</ele>
        <time>2020-06-02T09:56:24Z</time>
      </trkpt>
      <trkpt lat="46.16817" lon="-1.09305">
        <ele>12.9</ele>
        <time>2020-06-02T09:56:25Z</time>
      </trkpt>
      <trkpt lat="46.16816" lon="-1.09296">
        <ele>13</ele>
        <time>2020-06-02T09:56:26Z</time>
      </trkpt>
      <trkpt lat="46.16815" lon="-1.09288">
        <ele>13</ele>
        <time>2020-06-02T09:56:27Z</time>
      </trkpt>
      <trkpt lat="46.16813" lon="-1.0928">
        <ele>13.1</ele>
        <time>2020-06-02T09:56:28Z</time>
      </trkpt>
      <trkpt lat="46.16811" lon="-1.09273">
        <ele>13.1</ele>
        <time>2020-06-02T09:56:29Z</time>
      </trkpt>
      <trkpt lat="46.16809" lon="-1.09265">
        <ele>13.1</ele>
        <time>2020-06-02T09:56:30Z</time>
      </trkpt>
      <trkpt lat="46.16808" lon="-1.09258">
        <ele>13.1</ele>
        <time>2020-06-02T09:56:31Z</time>
      </trkpt>
      <trkpt lat="46.16807" lon="-1.09251">
        <ele>13.2</ele>
        <time>2020-06-02T09:56:32Z</time>
      </trkpt>
      <trkpt lat="46.16806" lon="-1.09243">
        <ele>13.2</ele>
        <time>2020-06-02T09:56:33Z</time>
      </trkpt>
      <trkpt lat="46.16805" lon="-1.09237">
        <ele>13.2</ele>
        <time>2020-06-02T09:56:34Z</time>
      </trkpt>
      <trkpt lat="46.16804" lon="-1.09229">
        <ele>13.3</ele>
        <time>2020-06-02T09:56:35Z</time>
      </trkpt>
      <trkpt lat="46.16803" lon="-1.09223">
        <ele>13.3</ele>
        <time>2020-06-02T09:56:36Z</time>
      </trkpt>
      <trkpt lat="46.16803" lon="-1.09217">
        <ele>13.3</ele>
        <time>2020-06-02T09:56:37Z</time>
      </trkpt>
      <trkpt lat="46.16803" lon="-1.09211">
        <ele>13.3</ele>
        <time>2020-06-02T09:56:38Z</time>
      </trkpt>
      <trkpt lat="46.16802" lon="-1.09207">
        <ele>13.4</ele>
        <time>2020-06-02T09:56:39Z</time>
      </trkpt>
      <trkpt lat="46.16801" lon="-1.09202">
        <ele>13.4</ele>
        <time>2020-06-02T09:56:40Z</time>
      </trkpt>
      <trkpt lat="46.168" lon="-1.09201">
        <ele>13.4</ele>
        <time>2020-06-02T09:56:41Z</time>
      </trkpt>
      <trkpt lat="46.168" lon="-1.092">
        <ele>13.4</ele>
        <time>2020-06-02T09:56:42Z</time>
      </trkpt>
      <trkpt lat="46.168" lon="-1.09199">
        <ele>13.4</ele>
        <time>2020-06-02T09:56:43Z</time>
      </trkpt>
      <trkpt lat="46.168" lon="-1.09197">
        <ele>13.4</ele>
        <time>2020-06-02T09:56:44Z</time>
      </trkpt>
      <trkpt lat="46.16798" lon="-1.09193">
        <ele>13.4</ele>
        <time>2020-06-02T09:56:45Z</time>
      </trkpt>
      <trkpt lat="46.16798" lon="-1.09191">
        <ele>13.4</ele>
        <time>2020-06-02T09:56:46Z</time>
      </trkpt>
      <trkpt lat="46.16797" lon="-1.09187">
        <ele>13.4</ele>
        <time>2020-06-02T09:56:47Z</time>
      </trkpt>
      <trkpt lat="46.16797" lon="-1.09181">
        <ele>13.4</ele>
        <time>2020-06-02T09:56:48Z</time>
      </trkpt>
      <trkpt lat="46.16797" lon="-1.09178">
        <ele>13.4</ele>
        <time>2020-06-02T09:56:49Z</time>
      </trkpt>
      <trkpt lat="46.16796" lon="-1.09174">
        <ele>13.4</ele>
        <time>2020-06-02T09:56:50Z</time>
      </trkpt>
      <trkpt lat="46.16796" lon="-1.09168">
        <ele>13.4</ele>
        <time>2020-06-02T09:56:51Z</time>
      </trkpt>
      <trkpt lat="46.16796" lon="-1.09161">
        <ele>13.4</ele>
        <time>2020-06-02T09:56:52Z</time>
      </trkpt>
      <trkpt lat="46.16795" lon="-1.09155">
        <ele>13.5</ele>
        <time>2020-06-02T09:56:53Z</time>
      </trkpt>
      <trkpt lat="46.16795" lon="-1.09147">
        <ele>13.5</ele>
        <time>2020-06-02T09:56:54Z</time>
      </trkpt>
      <trkpt lat="46.16795" lon="-1.0914">
        <ele>13.5</ele>
        <time>2020-06-02T09:56:55Z</time>
      </trkpt>
      <trkpt lat="46.16795" lon="-1.09132">
        <ele>13.5</ele>
        <time>2020-06-02T09:56:56Z</time>
      </trkpt>
      <trkpt lat="46.16795" lon="-1.09124">
        <ele>13.5</ele>
        <time>2020-06-02T09:56:57Z</time>
      </trkpt>
      <trkpt lat="46.16794" lon="-1.09116">
        <ele>13.6</ele>
        <time>2020-06-02T09:56:58Z</time>
      </trkpt>
      <trkpt lat="46.16794" lon="-1.09108">
        <ele>13.6</ele>
        <time>2020-06-02T09:56:59Z</time>
      </trkpt>
      <trkpt lat="46.16795" lon="-1.091">
        <ele>13.6</ele>
        <time>2020-06-02T09:57:00Z</time>
      </trkpt>
      <trkpt lat="46.16795" lon="-1.09094">
        <ele>13.6</ele>
        <time>2020-06-02T09:57:01Z</time>
      </trkpt>
      <trkpt lat="46.16796" lon="-1.09086">
        <ele>13.6</ele>
        <time>2020-06-02T09:57:02Z</time>
      </trkpt>
      <trkpt lat="46.16796" lon="-1.09079">
        <ele>13.6</ele>
        <time>2020-06-02T09:57:03Z</time>
      </trkpt>
      <trkpt lat="46.16798" lon="-1.09072">
        <ele>13.6</ele>
        <time>2020-06-02T09:57:04Z</time>
      </trkpt>
      <trkpt lat="46.16799" lon="-1.09065">
        <ele>13.6</ele>
        <time>2020-06-02T09:57:05Z</time>
      </trkpt>
      <trkpt lat="46.168" lon="-1.09059">
        <ele>13.6</ele>
        <time>2020-06-02T09:57:06Z</time>
      </trkpt>
      <trkpt lat="46.16801" lon="-1.09053">
        <ele>13.7</ele>
        <time>2020-06-02T09:57:07Z</time>
      </trkpt>
      <trkpt lat="46.16803" lon="-1.09046">
        <ele>13.7</ele>
        <time>2020-06-02T09:57:08Z</time>
      </trkpt>
      <trkpt lat="46.16805" lon="-1.09039">
        <ele>13.7</ele>
        <time>2020-06-02T09:57:09Z</time>
      </trkpt>
      <trkpt lat="46.16806" lon="-1.09032">
        <ele>13.7</ele>
        <time>2020-06-02T09:57:10Z</time>
      </trkpt>
      <trkpt lat="46.16807" lon="-1.09025">
        <ele>13.8</ele>
        <time>2020-06-02T09:57:11Z</time>
      </trkpt>
      <trkpt lat="46.16808" lon="-1.09018">
        <ele>13.8</ele>
        <time>2020-06-02T09:57:12Z</time>
      </trkpt>
      <trkpt lat="46.16809" lon="-1.0901">
        <ele>13.9</ele>
        <time>2020-06-02T09:57:13Z</time>
      </trkpt>
      <trkpt lat="46.1681" lon="-1.09003">
        <ele>14</ele>
        <time>2020-06-02T09:57:14Z</time>
      </trkpt>
      <trkpt lat="46.16811" lon="-1.08996">
        <ele>14</ele>
        <time>2020-06-02T09:57:15Z</time>
      </trkpt>
      <trkpt lat="46.16813" lon="-1.0899">
        <ele>14.1</ele>
        <time>2020-06-02T09:57:16Z</time>
      </trkpt>
      <trkpt lat="46.16815" lon="-1.08984">
        <ele>14.2</ele>
        <time>2020-06-02T09:57:17Z</time>
      </trkpt>
      <trkpt lat="46.16816" lon="-1.08979">
        <ele>14.3</ele>
        <time>2020-06-02T09:57:18Z</time>
      </trkpt>
      <trkpt lat="46.16818" lon="-1.08973">
        <ele>14.4</ele>
        <time>2020-06-02T09:57:19Z</time>
      </trkpt>
      <trkpt lat="46.1682" lon="-1.08967">
        <ele>14.5</ele>
        <time>2020-06-02T09:57:20Z</time>
      </trkpt>
      <trkpt lat="46.16822" lon="-1.0896">
        <ele>14.5</ele>
        <time>2020-06-02T09:57:21Z</time>
      </trkpt>
      <trkpt lat="46.16824" lon="-1.08953">
        <ele>14.7</ele>
        <time>2020-06-02T09:57:22Z</time>
      </trkpt>
      <trkpt lat="46.16825" lon="-1.08946">
        <ele>14.8</ele>
        <time>2020-06-02T09:57:23Z</time>
      </trkpt>
      <trkpt lat="46.16827" lon="-1.0894">
        <ele>14.9</ele>
        <time>2020-06-02T09:57:24Z</time>
      </trkpt>
      <trkpt lat="46.16828" lon="-1.08933">
        <ele>15</ele>
        <time>2020-06-02T09:57:25Z</time>
      </trkpt>
      <trkpt lat="46.1683" lon="-1.08926">
        <ele>15.1</ele>
        <time>2020-06-02T09:57:26Z</time>
      </trkpt>
      <trkpt lat="46.16832" lon="-1.08919">
        <ele>15.2</ele>
        <time>2020-06-02T09:57:27Z</time>
      </trkpt>
      <trkpt lat="46.16834" lon="-1.08914">
        <ele>15.3</ele>
        <time>2020-06-02T09:57:28Z</time>
      </trkpt>
      <trkpt lat="46.16835" lon="-1.08908">
        <ele>15.3</ele>
        <time>2020-06-02T09:57:29Z</time>
      </trkpt>
      <trkpt lat="46.16836" lon="-1.08904">
        <ele>15.4</ele>
        <time>2020-06-02T09:57:30Z</time>
      </trkpt>
      <trkpt lat="46.16837" lon="-1.08898">
        <ele>15.5</ele>
        <time>2020-06-02T09:57:31Z</time>
      </trkpt>
      <trkpt lat="46.16836" lon="-1.08893">
        <ele>15.5</ele>
        <time>2020-06-02T09:57:32Z</time>
      </trkpt>
      <trkpt lat="46.16835" lon="-1.08886">
        <ele>15.6</ele>
        <time>2020-06-02T09:57:33Z</time>
      </trkpt>
      <trkpt lat="46.16834" lon="-1.0888">
        <ele>15.6</ele>
        <time>2020-06-02T09:57:34Z</time>
      </trkpt>
      <trkpt lat="46.16834" lon="-1.08874">
        <ele>15.7</ele>
        <time>2020-06-02T09:57:35Z</time>
      </trkpt>
      <trkpt lat="46.16833" lon="-1.08868">
        <ele>15.7</ele>
        <time>2020-06-02T09:57:36Z</time>
      </trkpt>
      <trkpt lat="46.16834" lon="-1.08862">
        <ele>15.7</ele>
        <time>2020-06-02T09:57:37Z</time>
      </trkpt>
      <trkpt lat="46.16835" lon="-1.08856">
        <ele>15.8</ele>
        <time>2020-06-02T09:57:38Z</time>
      </trkpt>
      <trkpt lat="46.16836" lon="-1.0885">
        <ele>15.8</ele>
        <time>2020-06-02T09:57:39Z</time>
      </trkpt>
      <trkpt lat="46.16838" lon="-1.08843">
        <ele>15.8</ele>
        <time>2020-06-02T09:57:40Z</time>
      </trkpt>
      <trkpt lat="46.1684" lon="-1.08836">
        <ele>15.9</ele>
        <time>2020-06-02T09:57:41Z</time>
      </trkpt>
      <trkpt lat="46.1684" lon="-1.0883">
        <ele>15.9</ele>
        <time>2020-06-02T09:57:42Z</time>
      </trkpt>
      <trkpt lat="46.16842" lon="-1.08823">
        <ele>15.9</ele>
        <time>2020-06-02T09:57:43Z</time>
      </trkpt>
      <trkpt lat="46.16843" lon="-1.08817">
        <ele>15.9</ele>
        <time>2020-06-02T09:57:44Z</time>
      </trkpt>
      <trkpt lat="46.16843" lon="-1.08811">
        <ele>15.9</ele>
        <time>2020-06-02T09:57:45Z</time>
      </trkpt>
      <trkpt lat="46.16844" lon="-1.08805">
        <ele>15.9</ele>
        <time>2020-06-02T09:57:46Z</time>
      </trkpt>
      <trkpt lat="46.16845" lon="-1.08798">
        <ele>16</ele>
        <time>2020-06-02T09:57:47Z</time>
      </trkpt>
      <trkpt lat="46.16846" lon="-1.08793">
        <ele>16</ele>
        <time>2020-06-02T09:57:48Z</time>
      </trkpt>
      <trkpt lat="46.16846" lon="-1.08787">
        <ele>16</ele>
        <time>2020-06-02T09:57:49Z</time>
      </trkpt>
      <trkpt lat="46.16847" lon="-1.0878">
        <ele>16</ele>
        <time>2020-06-02T09:57:50Z</time>
      </trkpt>
      <trkpt lat="46.16848" lon="-1.08773">
        <ele>16</ele>
        <time>2020-06-02T09:57:51Z</time>
      </trkpt>
      <trkpt lat="46.16849" lon="-1.08766">
        <ele>16</ele>
        <time>2020-06-02T09:57:52Z</time>
      </trkpt>
      <trkpt lat="46.1685" lon="-1.08759">
        <ele>16</ele>
        <time>2020-06-02T09:57:53Z</time>
      </trkpt>
      <trkpt lat="46.16851" lon="-1.08752">
        <ele>16</ele>
        <time>2020-06-02T09:57:54Z</time>
      </trkpt>
      <trkpt lat="46.16852" lon="-1.08745">
        <ele>16</ele>
        <time>2020-06-02T09:57:55Z</time>
      </trkpt>
      <trkpt lat="46.16854" lon="-1.08738">
        <ele>16</ele>
        <time>2020-06-02T09:57:56Z</time>
      </trkpt>
      <trkpt lat="46.16854" lon="-1.08731">
        <ele>16</ele>
        <time>2020-06-02T09:57:57Z</time>
      </trkpt>
      <trkpt lat="46.16855" lon="-1.08723">
        <ele>16</ele>
        <time>2020-06-02T09:57:58Z</time>
      </trkpt>
      <trkpt lat="46.16856" lon="-1.08716">
        <ele>16</ele>
        <time>2020-06-02T09:57:59Z</time>
      </trkpt>
      <trkpt lat="46.16857" lon="-1.08709">
        <ele>16</ele>
        <time>2020-06-02T09:58:00Z</time>
      </trkpt>
      <trkpt lat="46.16857" lon="-1.08702">
        <ele>16</ele>
        <time>2020-06-02T09:58:01Z</time>
      </trkpt>
      <trkpt lat="46.16857" lon="-1.08695">
        <ele>16</ele>
        <time>2020-06-02T09:58:02Z</time>
      </trkpt>
      <trkpt lat="46.16858" lon="-1.08687">
        <ele>16</ele>
        <time>2020-06-02T09:58:03Z</time>
      </trkpt>
      <trkpt lat="46.16859" lon="-1.0868">
        <ele>16</ele>
        <time>2020-06-02T09:58:04Z</time>
      </trkpt>
      <trkpt lat="46.1686" lon="-1.08672">
        <ele>16.1</ele>
        <time>2020-06-02T09:58:05Z</time>
      </trkpt>
      <trkpt lat="46.16862" lon="-1.08665">
        <ele>16.1</ele>
        <time>2020-06-02T09:58:06Z</time>
      </trkpt>
      <trkpt lat="46.16862" lon="-1.08659">
        <ele>16.1</ele>
        <time>2020-06-02T09:58:07Z</time>
      </trkpt>
      <trkpt lat="46.16864" lon="-1.08652">
        <ele>16.1</ele>
        <time>2020-06-02T09:58:08Z</time>
      </trkpt>
      <trkpt lat="46.16865" lon="-1.08646">
        <ele>16.2</ele>
        <time>2020-06-02T09:58:09Z</time>
      </trkpt>
      <trkpt lat="46.16867" lon="-1.08638">
        <ele>16.2</ele>
        <time>2020-06-02T09:58:10Z</time>
      </trkpt>
      <trkpt lat="46.16869" lon="-1.08632">
        <ele>16.2</ele>
        <time>2020-06-02T09:58:11Z</time>
      </trkpt>
      <trkpt lat="46.1687" lon="-1.08626">
        <ele>16.3</ele>
        <time>2020-06-02T09:58:12Z</time>
      </trkpt>
      <trkpt lat="46.16871" lon="-1.08619">
        <ele>16.3</ele>
        <time>2020-06-02T09:58:13Z</time>
      </trkpt>
      <trkpt lat="46.16872" lon="-1.08613">
        <ele>16.3</ele>
        <time>2020-06-02T09:58:14Z</time>
      </trkpt>
      <trkpt lat="46.16872" lon="-1.08605">
        <ele>16.4</ele>
        <time>2020-06-02T09:58:15Z</time>
      </trkpt>
      <trkpt lat="46.16874" lon="-1.08598">
        <ele>16.5</ele>
        <time>2020-06-02T09:58:16Z</time>
      </trkpt>
      <trkpt lat="46.16875" lon="-1.08591">
        <ele>16.5</ele>
        <time>2020-06-02T09:58:17Z</time>
      </trkpt>
      <trkpt lat="46.16876" lon="-1.08583">
        <ele>16.6</ele>
        <time>2020-06-02T09:58:18Z</time>
      </trkpt>
      <trkpt lat="46.16878" lon="-1.08574">
        <ele>16.7</ele>
        <time>2020-06-02T09:58:19Z</time>
      </trkpt>
      <trkpt lat="46.1688" lon="-1.08565">
        <ele>16.8</ele>
        <time>2020-06-02T09:58:20Z</time>
      </trkpt>
      <trkpt lat="46.1688" lon="-1.08558">
        <ele>16.9</ele>
        <time>2020-06-02T09:58:21Z</time>
      </trkpt>
      <trkpt lat="46.16881" lon="-1.0855">
        <ele>17</ele>
        <time>2020-06-02T09:58:22Z</time>
      </trkpt>
      <trkpt lat="46.16882" lon="-1.08543">
        <ele>17.1</ele>
        <time>2020-06-02T09:58:23Z</time>
      </trkpt>
      <trkpt lat="46.16882" lon="-1.08535">
        <ele>17.2</ele>
        <time>2020-06-02T09:58:24Z</time>
      </trkpt>
      <trkpt lat="46.16884" lon="-1.08528">
        <ele>17.2</ele>
        <time>2020-06-02T09:58:25Z</time>
      </trkpt>
      <trkpt lat="46.16884" lon="-1.08521">
        <ele>17.3</ele>
        <time>2020-06-02T09:58:26Z</time>
      </trkpt>
      <trkpt lat="46.16885" lon="-1.08516">
        <ele>17.4</ele>
        <time>2020-06-02T09:58:27Z</time>
      </trkpt>
      <trkpt lat="46.16888" lon="-1.0851">
        <ele>17.4</ele>
        <time>2020-06-02T09:58:28Z</time>
      </trkpt>
      <trkpt lat="46.1689" lon="-1.08504">
        <ele>17.5</ele>
        <time>2020-06-02T09:58:29Z</time>
      </trkpt>
      <trkpt lat="46.16891" lon="-1.08498">
        <ele>17.6</ele>
        <time>2020-06-02T09:58:30Z</time>
      </trkpt>
      <trkpt lat="46.16892" lon="-1.08492">
        <ele>17.7</ele>
        <time>2020-06-02T09:58:31Z</time>
      </trkpt>
      <trkpt lat="46.16893" lon="-1.08487">
        <ele>17.8</ele>
        <time>2020-06-02T09:58:32Z</time>
      </trkpt>
      <trkpt lat="46.16894" lon="-1.08481">
        <ele>17.8</ele>
        <time>2020-06-02T09:58:33Z</time>
      </trkpt>
      <trkpt lat="46.16895" lon="-1.08475">
        <ele>17.9</ele>
        <time>2020-06-02T09:58:34Z</time>
      </trkpt>
      <trkpt lat="46.16896" lon="-1.08468">
        <ele>18</ele>
        <time>2020-06-02T09:58:35Z</time>
      </trkpt>
      <trkpt lat="46.16897" lon="-1.08461">
        <ele>18</ele>
        <time>2020-06-02T09:58:36Z</time>
      </trkpt>
      <trkpt lat="46.16898" lon="-1.08453">
        <ele>18.1</ele>
        <time>2020-06-02T09:58:37Z</time>
      </trkpt>
      <trkpt lat="46.16899" lon="-1.08447">
        <ele>18.1</ele>
        <time>2020-06-02T09:58:38Z</time>
      </trkpt>
      <trkpt lat="46.169" lon="-1.0844">
        <ele>18.1</ele>
        <time>2020-06-02T09:58:39Z</time>
      </trkpt>
      <trkpt lat="46.16902" lon="-1.08432">
        <ele>18.1</ele>
        <time>2020-06-02T09:58:40Z</time>
      </trkpt>
      <trkpt lat="46.16904" lon="-1.08425">
        <ele>18.1</ele>
        <time>2020-06-02T09:58:41Z</time>
      </trkpt>
      <trkpt lat="46.16905" lon="-1.0842">
        <ele>18.1</ele>
        <time>2020-06-02T09:58:42Z</time>
      </trkpt>
      <trkpt lat="46.16907" lon="-1.08413">
        <ele>18.2</ele>
        <time>2020-06-02T09:58:43Z</time>
      </trkpt>
      <trkpt lat="46.16908" lon="-1.08406">
        <ele>18.2</ele>
        <time>2020-06-02T09:58:44Z</time>
      </trkpt>
      <trkpt lat="46.1691" lon="-1.084">
        <ele>18.1</ele>
        <time>2020-06-02T09:58:45Z</time>
      </trkpt>
      <trkpt lat="46.16911" lon="-1.08393">
        <ele>18.1</ele>
        <time>2020-06-02T09:58:46Z</time>
      </trkpt>
      <trkpt lat="46.16912" lon="-1.08386">
        <ele>18.1</ele>
        <time>2020-06-02T09:58:47Z</time>
      </trkpt>
      <trkpt lat="46.16912" lon="-1.08379">
        <ele>18.1</ele>
        <time>2020-06-02T09:58:48Z</time>
      </trkpt>
      <trkpt lat="46.16914" lon="-1.08372">
        <ele>18.1</ele>
        <time>2020-06-02T09:58:49Z</time>
      </trkpt>
      <trkpt lat="46.16915" lon="-1.08366">
        <ele>18.1</ele>
        <time>2020-06-02T09:58:50Z</time>
      </trkpt>
      <trkpt lat="46.16916" lon="-1.08359">
        <ele>18.1</ele>
        <time>2020-06-02T09:58:51Z</time>
      </trkpt>
      <trkpt lat="46.16917" lon="-1.08352">
        <ele>18.1</ele>
        <time>2020-06-02T09:58:52Z</time>
      </trkpt>
      <trkpt lat="46.16919" lon="-1.08345">
        <ele>18.1</ele>
        <time>2020-06-02T09:58:53Z</time>
      </trkpt>
      <trkpt lat="46.16921" lon="-1.08338">
        <ele>18.1</ele>
        <time>2020-06-02T09:58:54Z</time>
      </trkpt>
      <trkpt lat="46.16922" lon="-1.08331">
        <ele>18.1</ele>
        <time>2020-06-02T09:58:55Z</time>
      </trkpt>
      <trkpt lat="46.16924" lon="-1.08324">
        <ele>18.1</ele>
        <time>2020-06-02T09:58:56Z</time>
      </trkpt>
      <trkpt lat="46.16925" lon="-1.08317">
        <ele>18.1</ele>
        <time>2020-06-02T09:58:57Z</time>
      </trkpt>
      <trkpt lat="46.16926" lon="-1.0831">
        <ele>18.1</ele>
        <time>2020-06-02T09:58:58Z</time>
      </trkpt>
      <trkpt lat="46.16927" lon="-1.08302">
        <ele>18.1</ele>
        <time>2020-06-02T09:58:59Z</time>
      </trkpt>
      <trkpt lat="46.16927" lon="-1.08294">
        <ele>18.1</ele>
        <time>2020-06-02T09:59:00Z</time>
      </trkpt>
      <trkpt lat="46.16928" lon="-1.08286">
        <ele>18.2</ele>
        <time>2020-06-02T09:59:01Z</time>
      </trkpt>
      <trkpt lat="46.1693" lon="-1.08278">
        <ele>18.2</ele>
        <time>2020-06-02T09:59:02Z</time>
      </trkpt>
      <trkpt lat="46.1693" lon="-1.08271">
        <ele>18.3</ele>
        <time>2020-06-02T09:59:03Z</time>
      </trkpt>
      <trkpt lat="46.16931" lon="-1.08264">
        <ele>18.3</ele>
        <time>2020-06-02T09:59:04Z</time>
      </trkpt>
      <trkpt lat="46.16933" lon="-1.08258">
        <ele>18.4</ele>
        <time>2020-06-02T09:59:05Z</time>
      </trkpt>
      <trkpt lat="46.16934" lon="-1.08252">
        <ele>18.4</ele>
        <time>2020-06-02T09:59:06Z</time>
      </trkpt>
      <trkpt lat="46.16934" lon="-1.08245">
        <ele>18.5</ele>
        <time>2020-06-02T09:59:07Z</time>
      </trkpt>
      <trkpt lat="46.16936" lon="-1.08238">
        <ele>18.6</ele>
        <time>2020-06-02T09:59:08Z</time>
      </trkpt>
      <trkpt lat="46.16937" lon="-1.0823">
        <ele>18.6</ele>
        <time>2020-06-02T09:59:09Z</time>
      </trkpt>
      <trkpt lat="46.16938" lon="-1.08223">
        <ele>18.7</ele>
        <time>2020-06-02T09:59:10Z</time>
      </trkpt>
      <trkpt lat="46.16939" lon="-1.08217">
        <ele>18.7</ele>
        <time>2020-06-02T09:59:11Z</time>
      </trkpt>
      <trkpt lat="46.16939" lon="-1.08211">
        <ele>18.7</ele>
        <time>2020-06-02T09:59:12Z</time>
      </trkpt>
      <trkpt lat="46.1694" lon="-1.08204">
        <ele>18.8</ele>
        <time>2020-06-02T09:59:13Z</time>
      </trkpt>
      <trkpt lat="46.16942" lon="-1.08197">
        <ele>18.8</ele>
        <time>2020-06-02T09:59:14Z</time>
      </trkpt>
      <trkpt lat="46.16944" lon="-1.08189">
        <ele>18.8</ele>
        <time>2020-06-02T09:59:15Z</time>
      </trkpt>
      <trkpt lat="46.16946" lon="-1.08183">
        <ele>18.8</ele>
        <time>2020-06-02T09:59:16Z</time>
      </trkpt>
      <trkpt lat="46.16946" lon="-1.08176">
        <ele>18.8</ele>
        <time>2020-06-02T09:59:17Z</time>
      </trkpt>
      <trkpt lat="46.16946" lon="-1.08168">
        <ele>18.8</ele>
        <time>2020-06-02T09:59:18Z</time>
      </trkpt>
      <trkpt lat="46.16947" lon="-1.08161">
        <ele>18.8</ele>
        <time>2020-06-02T09:59:19Z</time>
      </trkpt>
      <trkpt lat="46.16948" lon="-1.08154">
        <ele>18.8</ele>
        <time>2020-06-02T09:59:20Z</time>
      </trkpt>
      <trkpt lat="46.16949" lon="-1.08147">
        <ele>18.8</ele>
        <time>2020-06-02T09:59:21Z</time>
      </trkpt>
      <trkpt lat="46.1695" lon="-1.08141">
        <ele>18.7</ele>
        <time>2020-06-02T09:59:22Z</time>
      </trkpt>
      <trkpt lat="46.1695" lon="-1.08134">
        <ele>18.7</ele>
        <time>2020-06-02T09:59:23Z</time>
      </trkpt>
      <trkpt lat="46.16951" lon="-1.08127">
        <ele>18.7</ele>
        <time>2020-06-02T09:59:24Z</time>
      </trkpt>
      <trkpt lat="46.16951" lon="-1.0812">
        <ele>18.7</ele>
        <time>2020-06-02T09:59:25Z</time>
      </trkpt>
      <trkpt lat="46.16953" lon="-1.08112">
        <ele>18.7</ele>
        <time>2020-06-02T09:59:26Z</time>
      </trkpt>
      <trkpt lat="46.16954" lon="-1.08105">
        <ele>18.8</ele>
        <time>2020-06-02T09:59:27Z</time>
      </trkpt>
      <trkpt lat="46.16955" lon="-1.08098">
        <ele>18.8</ele>
        <time>2020-06-02T09:59:28Z</time>
      </trkpt>
      <trkpt lat="46.16957" lon="-1.08091">
        <ele>18.9</ele>
        <time>2020-06-02T09:59:29Z</time>
      </trkpt>
      <trkpt lat="46.16958" lon="-1.08084">
        <ele>18.9</ele>
        <time>2020-06-02T09:59:30Z</time>
      </trkpt>
      <trkpt lat="46.1696" lon="-1.08079">
        <ele>19</ele>
        <time>2020-06-02T09:59:31Z</time>
      </trkpt>
      <trkpt lat="46.16961" lon="-1.08072">
        <ele>19</ele>
        <time>2020-06-02T09:59:32Z</time>
      </trkpt>
      <trkpt lat="46.16961" lon="-1.08066">
        <ele>19</ele>
        <time>2020-06-02T09:59:33Z</time>
      </trkpt>
      <trkpt lat="46.16963" lon="-1.08059">
        <ele>19.1</ele>
        <time>2020-06-02T09:59:34Z</time>
      </trkpt>
      <trkpt lat="46.16964" lon="-1.08053">
        <ele>19.1</ele>
        <time>2020-06-02T09:59:35Z</time>
      </trkpt>
      <trkpt lat="46.16965" lon="-1.08047">
        <ele>19.1</ele>
        <time>2020-06-02T09:59:36Z</time>
      </trkpt>
      <trkpt lat="46.16967" lon="-1.08041">
        <ele>19.1</ele>
        <time>2020-06-02T09:59:37Z</time>
      </trkpt>
      <trkpt lat="46.16968" lon="-1.08035">
        <ele>19.2</ele>
        <time>2020-06-02T09:59:38Z</time>
      </trkpt>
      <trkpt lat="46.16969" lon="-1.08028">
        <ele>19.2</ele>
        <time>2020-06-02T09:59:39Z</time>
      </trkpt>
      <trkpt lat="46.1697" lon="-1.08021">
        <ele>19.2</ele>
        <time>2020-06-02T09:59:40Z</time>
      </trkpt>
      <trkpt lat="46.16971" lon="-1.08014">
        <ele>19.2</ele>
        <time>2020-06-02T09:59:41Z</time>
      </trkpt>
      <trkpt lat="46.16973" lon="-1.08007">
        <ele>19.3</ele>
        <time>2020-06-02T09:59:42Z</time>
      </trkpt>
      <trkpt lat="46.16974" lon="-1.08">
        <ele>19.3</ele>
        <time>2020-06-02T09:59:43Z</time>
      </trkpt>
      <trkpt lat="46.16975" lon="-1.07994">
        <ele>19.3</ele>
        <time>2020-06-02T09:59:44Z</time>
      </trkpt>
      <trkpt lat="46.16976" lon="-1.07988">
        <ele>19.4</ele>
        <time>2020-06-02T09:59:45Z</time>
      </trkpt>
      <trkpt lat="46.16976" lon="-1.07981">
        <ele>19.4</ele>
        <time>2020-06-02T09:59:46Z</time>
      </trkpt>
      <trkpt lat="46.16978" lon="-1.07975">
        <ele>19.5</ele>
        <time>2020-06-02T09:59:47Z</time>
      </trkpt>
      <trkpt lat="46.16978" lon="-1.0797">
        <ele>19.5</ele>
        <time>2020-06-02T09:59:48Z</time>
      </trkpt>
      <trkpt lat="46.1698" lon="-1.07963">
        <ele>19.6</ele>
        <time>2020-06-02T09:59:49Z</time>
      </trkpt>
      <trkpt lat="46.16981" lon="-1.07956">
        <ele>19.7</ele>
        <time>2020-06-02T09:59:50Z</time>
      </trkpt>
      <trkpt lat="46.16982" lon="-1.07949">
        <ele>19.8</ele>
        <time>2020-06-02T09:59:51Z</time>
      </trkpt>
      <trkpt lat="46.16984" lon="-1.07942">
        <ele>19.8</ele>
        <time>2020-06-02T09:59:52Z</time>
      </trkpt>
      <trkpt lat="46.16986" lon="-1.07935">
        <ele>19.9</ele>
        <time>2020-06-02T09:59:53Z</time>
      </trkpt>
      <trkpt lat="46.16987" lon="-1.0793">
        <ele>20</ele>
        <time>2020-06-02T09:59:54Z</time>
      </trkpt>
      <trkpt lat="46.16988" lon="-1.07922">
        <ele>20</ele>
        <time>2020-06-02T09:59:55Z</time>
      </trkpt>
      <trkpt lat="46.16988" lon="-1.07915">
        <ele>20</ele>
        <time>2020-06-02T09:59:56Z</time>
      </trkpt>
      <trkpt lat="46.16989" lon="-1.07908">
        <ele>20.1</ele>
        <time>2020-06-02T09:59:57Z</time>
      </trkpt>
      <trkpt lat="46.16991" lon="-1.07901">
        <ele>20.1</ele>
        <time>2020-06-02T09:59:58Z</time>
      </trkpt>
      <trkpt lat="46.16991" lon="-1.07893">
        <ele>20.1</ele>
        <time>2020-06-02T09:59:59Z</time>
      </trkpt>
      <trkpt lat="46.16991" lon="-1.07886">
        <ele>20.1</ele>
        <time>2020-06-02T10:00:00Z</time>
      </trkpt>
      <trkpt lat="46.16992" lon="-1.07879">
        <ele>20.1</ele>
        <time>2020-06-02T10:00:01Z</time>
      </trkpt>
      <trkpt lat="46.16993" lon="-1.07872">
        <ele>20.1</ele>
        <time>2020-06-02T10:00:02Z</time>
      </trkpt>
      <trkpt lat="46.16995" lon="-1.07866">
        <ele>20.2</ele>
        <time>2020-06-02T10:00:03Z</time>
      </trkpt>
      <trkpt lat="46.16996" lon="-1.0786">
        <ele>20.2</ele>
        <time>2020-06-02T10:00:04Z</time>
      </trkpt>
      <trkpt lat="46.16997" lon="-1.07852">
        <ele>20.2</ele>
        <time>2020-06-02T10:00:05Z</time>
      </trkpt>
      <trkpt lat="46.16998" lon="-1.07845">
        <ele>20.3</ele>
        <time>2020-06-02T10:00:06Z</time>
      </trkpt>
      <trkpt lat="46.16998" lon="-1.07838">
        <ele>20.3</ele>
        <time>2020-06-02T10:00:07Z</time>
      </trkpt>
      <trkpt lat="46.16999" lon="-1.07832">
        <ele>20.4</ele>
        <time>2020-06-02T10:00:08Z</time>
      </trkpt>
      <trkpt lat="46.17" lon="-1.07825">
        <ele>20.4</ele>
        <time>2020-06-02T10:00:09Z</time>
      </trkpt>
      <trkpt lat="46.17" lon="-1.07819">
        <ele>20.5</ele>
        <time>2020-06-02T10:00:10Z</time>
      </trkpt>
      <trkpt lat="46.17001" lon="-1.07813">
        <ele>20.5</ele>
        <time>2020-06-02T10:00:11Z</time>
      </trkpt>
      <trkpt lat="46.17" lon="-1.07807">
        <ele>20.6</ele>
        <time>2020-06-02T10:00:12Z</time>
      </trkpt>
      <trkpt lat="46.17001" lon="-1.078">
        <ele>20.6</ele>
        <time>2020-06-02T10:00:13Z</time>
      </trkpt>
      <trkpt lat="46.17001" lon="-1.07793">
        <ele>20.7</ele>
        <time>2020-06-02T10:00:14Z</time>
      </trkpt>
      <trkpt lat="46.17002" lon="-1.07786">
        <ele>20.8</ele>
        <time>2020-06-02T10:00:15Z</time>
      </trkpt>
      <trkpt lat="46.17004" lon="-1.0778">
        <ele>20.8</ele>
        <time>2020-06-02T10:00:16Z</time>
      </trkpt>
      <trkpt lat="46.17005" lon="-1.07773">
        <ele>20.9</ele>
        <time>2020-06-02T10:00:17Z</time>
      </trkpt>
      <trkpt lat="46.17006" lon="-1.07767">
        <ele>20.9</ele>
        <time>2020-06-02T10:00:18Z</time>
      </trkpt>
      <trkpt lat="46.17007" lon="-1.0776">
        <ele>21</ele>
        <time>2020-06-02T10:00:19Z</time>
      </trkpt>
      <trkpt lat="46.17008" lon="-1.07753">
        <ele>21</ele>
        <time>2020-06-02T10:00:20Z</time>
      </trkpt>
      <trkpt lat="46.1701" lon="-1.07746">
        <ele>21.1</ele>
        <time>2020-06-02T10:00:21Z</time>
      </trkpt>
      <trkpt lat="46.17012" lon="-1.0774">
        <ele>21.1</ele>
        <time>2020-06-02T10:00:22Z</time>
      </trkpt>
      <trkpt lat="46.17014" lon="-1.07734">
        <ele>21.2</ele>
        <time>2020-06-02T10:00:23Z</time>
      </trkpt>
      <trkpt lat="46.17016" lon="-1.07727">
        <ele>21.2</ele>
        <time>2020-06-02T10:00:24Z</time>
      </trkpt>
      <trkpt lat="46.17019" lon="-1.07723">
        <ele>21.3</ele>
        <time>2020-06-02T10:00:25Z</time>
      </trkpt>
      <trkpt lat="46.1702" lon="-1.07716">
        <ele>21.3</ele>
        <time>2020-06-02T10:00:26Z</time>
      </trkpt>
      <trkpt lat="46.17023" lon="-1.07711">
        <ele>21.4</ele>
        <time>2020-06-02T10:00:27Z</time>
      </trkpt>
      <trkpt lat="46.17026" lon="-1.07705">
        <ele>21.5</ele>
        <time>2020-06-02T10:00:28Z</time>
      </trkpt>
      <trkpt lat="46.17028" lon="-1.07699">
        <ele>21.5</ele>
        <time>2020-06-02T10:00:29Z</time>
      </trkpt>
      <trkpt lat="46.17031" lon="-1.07693">
        <ele>21.6</ele>
        <time>2020-06-02T10:00:30Z</time>
      </trkpt>
      <trkpt lat="46.17035" lon="-1.07688">
        <ele>21.6</ele>
        <time>2020-06-02T10:00:31Z</time>
      </trkpt>
      <trkpt lat="46.17037" lon="-1.07682">
        <ele>21.7</ele>
        <time>2020-06-02T10:00:32Z</time>
      </trkpt>
      <trkpt lat="46.17041" lon="-1.07676">
        <ele>21.7</ele>
        <time>2020-06-02T10:00:33Z</time>
      </trkpt>
      <trkpt lat="46.17044" lon="-1.0767">
        <ele>21.7</ele>
        <time>2020-06-02T10:00:34Z</time>
      </trkpt>
      <trkpt lat="46.17048" lon="-1.07667">
        <ele>21.8</ele>
        <time>2020-06-02T10:00:35Z</time>
      </trkpt>
      <trkpt lat="46.1705" lon="-1.07661">
        <ele>21.8</ele>
        <time>2020-06-02T10:00:36Z</time>
      </trkpt>
      <trkpt lat="46.17053" lon="-1.07656">
        <ele>21.9</ele>
        <time>2020-06-02T10:00:37Z</time>
      </trkpt>
      <trkpt lat="46.17056" lon="-1.0765">
        <ele>21.9</ele>
        <time>2020-06-02T10:00:38Z</time>
      </trkpt>
      <trkpt lat="46.1706" lon="-1.07645">
        <ele>22</ele>
        <time>2020-06-02T10:00:39Z</time>
      </trkpt>
      <trkpt lat="46.17063" lon="-1.07639">
        <ele>22</ele>
        <time>2020-06-02T10:00:40Z</time>
      </trkpt>
      <trkpt lat="46.17065" lon="-1.07633">
        <ele>22.1</ele>
        <time>2020-06-02T10:00:41Z</time>
      </trkpt>
      <trkpt lat="46.17069" lon="-1.07628">
        <ele>22.2</ele>
        <time>2020-06-02T10:00:42Z</time>
      </trkpt>
      <trkpt lat="46.17071" lon="-1.07622">
        <ele>22.2</ele>
        <time>2020-06-02T10:00:43Z</time>
      </trkpt>
      <trkpt lat="46.17074" lon="-1.07617">
        <ele>22.3</ele>
        <time>2020-06-02T10:00:44Z</time>
      </trkpt>
      <trkpt lat="46.17077" lon="-1.07612">
        <ele>22.4</ele>
        <time>2020-06-02T10:00:45Z</time>
      </trkpt>
      <trkpt lat="46.1708" lon="-1.07608">
        <ele>22.4</ele>
        <time>2020-06-02T10:00:46Z</time>
      </trkpt>
      <trkpt lat="46.17083" lon="-1.07603">
        <ele>22.5</ele>
        <time>2020-06-02T10:00:47Z</time>
      </trkpt>
      <trkpt lat="46.17086" lon="-1.07599">
        <ele>22.6</ele>
        <time>2020-06-02T10:00:48Z</time>
      </trkpt>
      <trkpt lat="46.17089" lon="-1.07594">
        <ele>22.6</ele>
        <time>2020-06-02T10:00:49Z</time>
      </trkpt>
      <trkpt lat="46.17092" lon="-1.07589">
        <ele>22.7</ele>
        <time>2020-06-02T10:00:50Z</time>
      </trkpt>
      <trkpt lat="46.17095" lon="-1.07585">
        <ele>22.8</ele>
        <time>2020-06-02T10:00:51Z</time>
      </trkpt>
      <trkpt lat="46.17098" lon="-1.0758">
        <ele>22.9</ele>
        <time>2020-06-02T10:00:52Z</time>
      </trkpt>
      <trkpt lat="46.17101" lon="-1.07574">
        <ele>22.9</ele>
        <time>2020-06-02T10:00:53Z</time>
      </trkpt>
      <trkpt lat="46.17104" lon="-1.07569">
        <ele>23</ele>
        <time>2020-06-02T10:00:54Z</time>
      </trkpt>
      <trkpt lat="46.17107" lon="-1.07563">
        <ele>23</ele>
        <time>2020-06-02T10:00:55Z</time>
      </trkpt>
      <trkpt lat="46.17111" lon="-1.07558">
        <ele>23.1</ele>
        <time>2020-06-02T10:00:56Z</time>
      </trkpt>
      <trkpt lat="46.17114" lon="-1.07551">
        <ele>23.1</ele>
        <time>2020-06-02T10:00:57Z</time>
      </trkpt>
      <trkpt lat="46.17117" lon="-1.07546">
        <ele>23.1</ele>
        <time>2020-06-02T10:00:58Z</time>
      </trkpt>
      <trkpt lat="46.1712" lon="-1.07541">
        <ele>23.2</ele>
        <time>2020-06-02T10:00:59Z</time>
      </trkpt>
      <trkpt lat="46.17123" lon="-1.07536">
        <ele>23.2</ele>
        <time>2020-06-02T10:01:00Z</time>
      </trkpt>
      <trkpt lat="46.17126" lon="-1.07532">
        <ele>23.3</ele>
        <time>2020-06-02T10:01:01Z</time>
      </trkpt>
      <trkpt lat="46.1713" lon="-1.07526">
        <ele>23.3</ele>
        <time>2020-06-02T10:01:02Z</time>
      </trkpt>
      <trkpt lat="46.17133" lon="-1.07521">
        <ele>23.4</ele>
        <time>2020-06-02T10:01:03Z</time>
      </trkpt>
      <trkpt lat="46.17136" lon="-1.07516">
        <ele>23.4</ele>
        <time>2020-06-02T10:01:04Z</time>
      </trkpt>
      <trkpt lat="46.17138" lon="-1.07512">
        <ele>23.5</ele>
        <time>2020-06-02T10:01:05Z</time>
      </trkpt>
      <trkpt lat="46.1714" lon="-1.07506">
        <ele>23.5</ele>
        <time>2020-06-02T10:01:06Z</time>
      </trkpt>
      <trkpt lat="46.17144" lon="-1.07501">
        <ele>23.5</ele>
        <time>2020-06-02T10:01:07Z</time>
      </trkpt>
      <trkpt lat="46.17147" lon="-1.07495">
        <ele>23.5</ele>
        <time>2020-06-02T10:01:08Z</time>
      </trkpt>
      <trkpt lat="46.1715" lon="-1.0749">
        <ele>23.5</ele>
        <time>2020-06-02T10:01:09Z</time>
      </trkpt>
      <trkpt lat="46.17153" lon="-1.07485">
        <ele>23.6</ele>
        <time>2020-06-02T10:01:10Z</time>
      </trkpt>
      <trkpt lat="46.17156" lon="-1.0748">
        <ele>23.6</ele>
        <time>2020-06-02T10:01:11Z</time>
      </trkpt>
      <trkpt lat="46.17159" lon="-1.07475">
        <ele>23.6</ele>
        <time>2020-06-02T10:01:12Z</time>
      </trkpt>
      <trkpt lat="46.17163" lon="-1.0747">
        <ele>23.6</ele>
        <time>2020-06-02T10:01:13Z</time>
      </trkpt>
      <trkpt lat="46.17166" lon="-1.07464">
        <ele>23.7</ele>
        <time>2020-06-02T10:01:14Z</time>
      </trkpt>
      <trkpt lat="46.17169" lon="-1.07459">
        <ele>23.7</ele>
        <time>2020-06-02T10:01:15Z</time>
      </trkpt>
      <trkpt lat="46.17173" lon="-1.07456">
        <ele>23.8</ele>
        <time>2020-06-02T10:01:16Z</time>
      </trkpt>
      <trkpt lat="46.17177" lon="-1.07451">
        <ele>23.8</ele>
        <time>2020-06-02T10:01:17Z</time>
      </trkpt>
      <trkpt lat="46.1718" lon="-1.07447">
        <ele>23.9</ele>
        <time>2020-06-02T10:01:18Z</time>
      </trkpt>
      <trkpt lat="46.17183" lon="-1.07442">
        <ele>23.9</ele>
        <time>2020-06-02T10:01:19Z</time>
      </trkpt>
      <trkpt lat="46.17187" lon="-1.07438">
        <ele>24</ele>
        <time>2020-06-02T10:01:20Z</time>
      </trkpt>
      <trkpt lat="46.17191" lon="-1.07433">
        <ele>24</ele>
        <time>2020-06-02T10:01:21Z</time>
      </trkpt>
      <trkpt lat="46.17194" lon="-1.07427">
        <ele>24.1</ele>
        <time>2020-06-02T10:01:22Z</time>
      </trkpt>
      <trkpt lat="46.17197" lon="-1.07422">
        <ele>24.1</ele>
        <time>2020-06-02T10:01:23Z</time>
      </trkpt>
      <trkpt lat="46.172" lon="-1.07417">
        <ele>24.2</ele>
        <time>2020-06-02T10:01:24Z</time>
      </trkpt>
      <trkpt lat="46.17203" lon="-1.07412">
        <ele>24.2</ele>
        <time>2020-06-02T10:01:25Z</time>
      </trkpt>
      <trkpt lat="46.17206" lon="-1.07407">
        <ele>24.3</ele>
        <time>2020-06-02T10:01:26Z</time>
      </trkpt>
      <trkpt lat="46.17211" lon="-1.07404">
        <ele>24.3</ele>
        <time>2020-06-02T10:01:27Z</time>
      </trkpt>
      <trkpt lat="46.17214" lon="-1.074">
        <ele>24.4</ele>
        <time>2020-06-02T10:01:28Z</time>
      </trkpt>
      <trkpt lat="46.17218" lon="-1.07396">
        <ele>24.5</ele>
        <time>2020-06-02T10:01:29Z</time>
      </trkpt>
      <trkpt lat="46.17222" lon="-1.07391">
        <ele>24.6</ele>
        <time>2020-06-02T10:01:30Z</time>
      </trkpt>
      <trkpt lat="46.17226" lon="-1.07385">
        <ele>24.7</ele>
        <time>2020-06-02T10:01:31Z</time>
      </trkpt>
      <trkpt lat="46.17228" lon="-1.07379">
        <ele>24.8</ele>
        <time>2020-06-02T10:01:32Z</time>
      </trkpt>
      <trkpt lat="46.17232" lon="-1.07374">
        <ele>24.9</ele>
        <time>2020-06-02T10:01:33Z</time>
      </trkpt>
      <trkpt lat="46.17235" lon="-1.07368">
        <ele>25</ele>
        <time>2020-06-02T10:01:34Z</time>
      </trkpt>
      <trkpt lat="46.17238" lon="-1.07362">
        <ele>25</ele>
        <time>2020-06-02T10:01:35Z</time>
      </trkpt>
      <trkpt lat="46.17241" lon="-1.07357">
        <ele>25.1</ele>
        <time>2020-06-02T10:01:36Z</time>
      </trkpt>
      <trkpt lat="46.17244" lon="-1.07352">
        <ele>25.2</ele>
        <time>2020-06-02T10:01:37Z</time>
      </trkpt>
      <trkpt lat="46.17247" lon="-1.07348">
        <ele>25.2</ele>
        <time>2020-06-02T10:01:38Z</time>
      </trkpt>
      <trkpt lat="46.17251" lon="-1.07343">
        <ele>25.3</ele>
        <time>2020-06-02T10:01:39Z</time>
      </trkpt>
      <trkpt lat="46.17254" lon="-1.07339">
        <ele>25.3</ele>
        <time>2020-06-02T10:01:40Z</time>
      </trkpt>
      <trkpt lat="46.17259" lon="-1.07334">
        <ele>25.4</ele>
        <time>2020-06-02T10:01:41Z</time>
      </trkpt>
      <trkpt lat="46.17262" lon="-1.0733">
        <ele>25.5</ele>
        <time>2020-06-02T10:01:42Z</time>
      </trkpt>
      <trkpt lat="46.17266" lon="-1.07323">
        <ele>25.6</ele>
        <time>2020-06-02T10:01:43Z</time>
      </trkpt>
      <trkpt lat="46.1727" lon="-1.07318">
        <ele>25.6</ele>
        <time>2020-06-02T10:01:44Z</time>
      </trkpt>
      <trkpt lat="46.17272" lon="-1.07313">
        <ele>25.7</ele>
        <time>2020-06-02T10:01:45Z</time>
      </trkpt>
      <trkpt lat="46.17276" lon="-1.07308">
        <ele>25.8</ele>
        <time>2020-06-02T10:01:46Z</time>
      </trkpt>
      <trkpt lat="46.17279" lon="-1.07303">
        <ele>25.9</ele>
        <time>2020-06-02T10:01:47Z</time>
      </trkpt>
      <trkpt lat="46.17282" lon="-1.07298">
        <ele>25.9</ele>
        <time>2020-06-02T10:01:48Z</time>
      </trkpt>
      <trkpt lat="46.17285" lon="-1.07293">
        <ele>26</ele>
        <time>2020-06-02T10:01:49Z</time>
      </trkpt>
      <trkpt lat="46.17287" lon="-1.07287">
        <ele>26.1</ele>
        <time>2020-06-02T10:01:50Z</time>
      </trkpt>
      <trkpt lat="46.1729" lon="-1.07282">
        <ele>26.2</ele>
        <time>2020-06-02T10:01:51Z</time>
      </trkpt>
      <trkpt lat="46.17293" lon="-1.07277">
        <ele>26.2</ele>
        <time>2020-06-02T10:01:52Z</time>
      </trkpt>
      <trkpt lat="46.17296" lon="-1.07272">
        <ele>26.3</ele>
        <time>2020-06-02T10:01:53Z</time>
      </trkpt>
      <trkpt lat="46.173" lon="-1.07266">
        <ele>26.4</ele>
        <time>2020-06-02T10:01:54Z</time>
      </trkpt>
      <trkpt lat="46.17302" lon="-1.07262">
        <ele>26.5</ele>
        <time>2020-06-02T10:01:55Z</time>
      </trkpt>
      <trkpt lat="46.17306" lon="-1.07256">
        <ele>26.6</ele>
        <time>2020-06-02T10:01:56Z</time>
      </trkpt>
      <trkpt lat="46.17308" lon="-1.0725">
        <ele>26.7</ele>
        <time>2020-06-02T10:01:57Z</time>
      </trkpt>
      <trkpt lat="46.17311" lon="-1.07245">
        <ele>26.8</ele>
        <time>2020-06-02T10:01:58Z</time>
      </trkpt>
      <trkpt lat="46.17313" lon="-1.0724">
        <ele>26.8</ele>
        <time>2020-06-02T10:01:59Z</time>
      </trkpt>
      <trkpt lat="46.17316" lon="-1.07235">
        <ele>26.9</ele>
        <time>2020-06-02T10:02:00Z</time>
      </trkpt>
      <trkpt lat="46.17319" lon="-1.0723">
        <ele>27</ele>
        <time>2020-06-02T10:02:01Z</time>
      </trkpt>
      <trkpt lat="46.17322" lon="-1.07226">
        <ele>27.1</ele>
        <time>2020-06-02T10:02:02Z</time>
      </trkpt>
      <trkpt lat="46.17325" lon="-1.07221">
        <ele>27.1</ele>
        <time>2020-06-02T10:02:03Z</time>
      </trkpt>
      <trkpt lat="46.17328" lon="-1.07216">
        <ele>27.2</ele>
        <time>2020-06-02T10:02:04Z</time>
      </trkpt>
      <trkpt lat="46.17331" lon="-1.07212">
        <ele>27.3</ele>
        <time>2020-06-02T10:02:05Z</time>
      </trkpt>
      <trkpt lat="46.17334" lon="-1.07207">
        <ele>27.4</ele>
        <time>2020-06-02T10:02:06Z</time>
      </trkpt>
      <trkpt lat="46.17337" lon="-1.07203">
        <ele>27.5</ele>
        <time>2020-06-02T10:02:07Z</time>
      </trkpt>
      <trkpt lat="46.1734" lon="-1.07199">
        <ele>27.6</ele>
        <time>2020-06-02T10:02:08Z</time>
      </trkpt>
      <trkpt lat="46.17343" lon="-1.07194">
        <ele>27.7</ele>
        <time>2020-06-02T10:02:09Z</time>
      </trkpt>
      <trkpt lat="46.17344" lon="-1.07189">
        <ele>27.8</ele>
        <time>2020-06-02T10:02:10Z</time>
      </trkpt>
      <trkpt lat="46.17346" lon="-1.07183">
        <ele>27.8</ele>
        <time>2020-06-02T10:02:11Z</time>
      </trkpt>
      <trkpt lat="46.17348" lon="-1.07177">
        <ele>27.9</ele>
        <time>2020-06-02T10:02:12Z</time>
      </trkpt>
      <trkpt lat="46.1735" lon="-1.07173">
        <ele>28</ele>
        <time>2020-06-02T10:02:13Z</time>
      </trkpt>
      <trkpt lat="46.17353" lon="-1.07169">
        <ele>28.1</ele>
        <time>2020-06-02T10:02:14Z</time>
      </trkpt>
      <trkpt lat="46.17356" lon="-1.07166">
        <ele>28.1</ele>
        <time>2020-06-02T10:02:15Z</time>
      </trkpt>
      <trkpt lat="46.17359" lon="-1.07164">
        <ele>28.1</ele>
        <time>2020-06-02T10:02:16Z</time>
      </trkpt>
      <trkpt lat="46.17361" lon="-1.07161">
        <ele>28.1</ele>
        <time>2020-06-02T10:02:17Z</time>
      </trkpt>
      <trkpt lat="46.17363" lon="-1.07158">
        <ele>28.2</ele>
        <time>2020-06-02T10:02:18Z</time>
      </trkpt>
      <trkpt lat="46.17365" lon="-1.07154">
        <ele>28.2</ele>
        <time>2020-06-02T10:02:19Z</time>
      </trkpt>
      <trkpt lat="46.17366" lon="-1.07148">
        <ele>28.2</ele>
        <time>2020-06-02T10:02:20Z</time>
      </trkpt>
      <trkpt lat="46.17367" lon="-1.07145">
        <ele>28.3</ele>
        <time>2020-06-02T10:02:21Z</time>
      </trkpt>
      <trkpt lat="46.17368" lon="-1.0714">
        <ele>28.3</ele>
        <time>2020-06-02T10:02:22Z</time>
      </trkpt>
      <trkpt lat="46.17369" lon="-1.07135">
        <ele>28.4</ele>
        <time>2020-06-02T10:02:23Z</time>
      </trkpt>
      <trkpt lat="46.1737" lon="-1.07129">
        <ele>28.5</ele>
        <time>2020-06-02T10:02:24Z</time>
      </trkpt>
      <trkpt lat="46.17373" lon="-1.07124">
        <ele>28.6</ele>
        <time>2020-06-02T10:02:25Z</time>
      </trkpt>
      <trkpt lat="46.17376" lon="-1.07118">
        <ele>28.7</ele>
        <time>2020-06-02T10:02:26Z</time>
      </trkpt>
      <trkpt lat="46.17378" lon="-1.07112">
        <ele>28.8</ele>
        <time>2020-06-02T10:02:27Z</time>
      </trkpt>
      <trkpt lat="46.17381" lon="-1.07106">
        <ele>28.9</ele>
        <time>2020-06-02T10:02:28Z</time>
      </trkpt>
      <trkpt lat="46.17385" lon="-1.071">
        <ele>29</ele>
        <time>2020-06-02T10:02:29Z</time>
      </trkpt>
      <trkpt lat="46.17387" lon="-1.07095">
        <ele>29.1</ele>
        <time>2020-06-02T10:02:30Z</time>
      </trkpt>
      <trkpt lat="46.17389" lon="-1.07089">
        <ele>29.2</ele>
        <time>2020-06-02T10:02:31Z</time>
      </trkpt>
      <trkpt lat="46.17392" lon="-1.07085">
        <ele>29.3</ele>
        <time>2020-06-02T10:02:32Z</time>
      </trkpt>
      <trkpt lat="46.17394" lon="-1.07079">
        <ele>29.5</ele>
        <time>2020-06-02T10:02:33Z</time>
      </trkpt>
      <trkpt lat="46.17397" lon="-1.07074">
        <ele>29.6</ele>
        <time>2020-06-02T10:02:34Z</time>
      </trkpt>
      <trkpt lat="46.17399" lon="-1.07069">
        <ele>29.8</ele>
        <time>2020-06-02T10:02:35Z</time>
      </trkpt>
      <trkpt lat="46.17401" lon="-1.07063">
        <ele>29.9</ele>
        <time>2020-06-02T10:02:36Z</time>
      </trkpt>
      <trkpt lat="46.17405" lon="-1.07058">
        <ele>30.1</ele>
        <time>2020-06-02T10:02:37Z</time>
      </trkpt>
      <trkpt lat="46.17408" lon="-1.07053">
        <ele>30.2</ele>
        <time>2020-06-02T10:02:38Z</time>
      </trkpt>
      <trkpt lat="46.1741" lon="-1.07049">
        <ele>30.3</ele>
        <time>2020-06-02T10:02:39Z</time>
      </trkpt>
      <trkpt lat="46.17413" lon="-1.07044">
        <ele>30.5</ele>
        <time>2020-06-02T10:02:40Z</time>
      </trkpt>
      <trkpt lat="46.17414" lon="-1.07041">
        <ele>30.6</ele>
        <time>2020-06-02T10:02:41Z</time>
      </trkpt>
      <trkpt lat="46.17416" lon="-1.07037">
        <ele>30.7</ele>
        <time>2020-06-02T10:02:42Z</time>
      </trkpt>
      <trkpt lat="46.17418" lon="-1.07034">
        <ele>30.8</ele>
        <time>2020-06-02T10:02:43Z</time>
      </trkpt>
      <trkpt lat="46.17419" lon="-1.07029">
        <ele>30.9</ele>
        <time>2020-06-02T10:02:44Z</time>
      </trkpt>
      <trkpt lat="46.17422" lon="-1.07024">
        <ele>31.1</ele>
        <time>2020-06-02T10:02:45Z</time>
      </trkpt>
      <trkpt lat="46.17423" lon="-1.07021">
        <ele>31.2</ele>
        <time>2020-06-02T10:02:46Z</time>
      </trkpt>
      <trkpt lat="46.17426" lon="-1.07017">
        <ele>31.3</ele>
        <time>2020-06-02T10:02:47Z</time>
      </trkpt>
      <trkpt lat="46.1743" lon="-1.07014">
        <ele>31.4</ele>
        <time>2020-06-02T10:02:48Z</time>
      </trkpt>
      <trkpt lat="46.17434" lon="-1.07012">
        <ele>31.6</ele>
        <time>2020-06-02T10:02:49Z</time>
      </trkpt>
      <trkpt lat="46.17439" lon="-1.07011">
        <ele>31.7</ele>
        <time>2020-06-02T10:02:50Z</time>
      </trkpt>
      <trkpt lat="46.17444" lon="-1.07012">
        <ele>31.9</ele>
        <time>2020-06-02T10:02:51Z</time>
      </trkpt>
      <trkpt lat="46.17448" lon="-1.07014">
        <ele>32.1</ele>
        <time>2020-06-02T10:02:52Z</time>
      </trkpt>
      <trkpt lat="46.17452" lon="-1.07015">
        <ele>32.2</ele>
        <time>2020-06-02T10:02:53Z</time>
      </trkpt>
      <trkpt lat="46.17456" lon="-1.07015">
        <ele>32.3</ele>
        <time>2020-06-02T10:02:54Z</time>
      </trkpt>
      <trkpt lat="46.1746" lon="-1.07014">
        <ele>32.4</ele>
        <time>2020-06-02T10:02:55Z</time>
      </trkpt>
      <trkpt lat="46.17463" lon="-1.07012">
        <ele>32.5</ele>
        <time>2020-06-02T10:02:56Z</time>
      </trkpt>
      <trkpt lat="46.17468" lon="-1.07007">
        <ele>32.7</ele>
        <time>2020-06-02T10:02:57Z</time>
      </trkpt>
      <trkpt lat="46.17471" lon="-1.07003">
        <ele>32.8</ele>
        <time>2020-06-02T10:02:58Z</time>
      </trkpt>
      <trkpt lat="46.17474" lon="-1.07">
        <ele>32.8</ele>
        <time>2020-06-02T10:02:59Z</time>
      </trkpt>
      <trkpt lat="46.17478" lon="-1.06997">
        <ele>32.9</ele>
        <time>2020-06-02T10:03:00Z</time>
      </trkpt>
      <trkpt lat="46.17481" lon="-1.06993">
        <ele>33</ele>
        <time>2020-06-02T10:03:01Z</time>
      </trkpt>
      <trkpt lat="46.17485" lon="-1.06992">
        <ele>33</ele>
        <time>2020-06-02T10:03:02Z</time>
      </trkpt>
      <trkpt lat="46.17488" lon="-1.06993">
        <ele>33.1</ele>
        <time>2020-06-02T10:03:03Z</time>
      </trkpt>
      <trkpt lat="46.17491" lon="-1.06995">
        <ele>33.1</ele>
        <time>2020-06-02T10:03:04Z</time>
      </trkpt>
      <trkpt lat="46.17495" lon="-1.06998">
        <ele>33.1</ele>
        <time>2020-06-02T10:03:05Z</time>
      </trkpt>
      <trkpt lat="46.17497" lon="-1.06999">
        <ele>33.1</ele>
        <time>2020-06-02T10:03:06Z</time>
      </trkpt>
      <trkpt lat="46.175" lon="-1.07002">
        <ele>33.1</ele>
        <time>2020-06-02T10:03:07Z</time>
      </trkpt>
      <trkpt lat="46.17501" lon="-1.07003">
        <ele>33.1</ele>
        <time>2020-06-02T10:03:08Z</time>
      </trkpt>
      <trkpt lat="46.17502" lon="-1.07005">
        <ele>33.1</ele>
        <time>2020-06-02T10:03:09Z</time>
      </trkpt>
      <trkpt lat="46.17504" lon="-1.07005">
        <ele>33.1</ele>
        <time>2020-06-02T10:03:10Z</time>
      </trkpt>
      <trkpt lat="46.17505" lon="-1.07006">
        <ele>33.1</ele>
        <time>2020-06-02T10:03:11Z</time>
      </trkpt>
      <trkpt lat="46.17506" lon="-1.07006">
        <ele>33.1</ele>
        <time>2020-06-02T10:03:12Z</time>
      </trkpt>
      <trkpt lat="46.17508" lon="-1.07007">
        <ele>33.1</ele>
        <time>2020-06-02T10:03:13Z</time>
      </trkpt>
      <trkpt lat="46.1751" lon="-1.07007">
        <ele>33.1</ele>
        <time>2020-06-02T10:03:14Z</time>
      </trkpt>
      <trkpt lat="46.17512" lon="-1.07009">
        <ele>33.1</ele>
        <time>2020-06-02T10:03:15Z</time>
      </trkpt>
      <trkpt lat="46.17515" lon="-1.07011">
        <ele>33.1</ele>
        <time>2020-06-02T10:03:16Z</time>
      </trkpt>
      <trkpt lat="46.17519" lon="-1.07013">
        <ele>33.1</ele>
        <time>2020-06-02T10:03:17Z</time>
      </trkpt>
      <trkpt lat="46.17521" lon="-1.07014">
        <ele>33.1</ele>
        <time>2020-06-02T10:03:18Z</time>
      </trkpt>
      <trkpt lat="46.17524" lon="-1.07015">
        <ele>33.2</ele>
        <time>2020-06-02T10:03:19Z</time>
      </trkpt>
      <trkpt lat="46.17527" lon="-1.07016">
        <ele>33.2</ele>
        <time>2020-06-02T10:03:20Z</time>
      </trkpt>
      <trkpt lat="46.1753" lon="-1.07017">
        <ele>33.2</ele>
        <time>2020-06-02T10:03:21Z</time>
      </trkpt>
      <trkpt lat="46.17533" lon="-1.07018">
        <ele>33.2</ele>
        <time>2020-06-02T10:03:22Z</time>
      </trkpt>
      <trkpt lat="46.17534" lon="-1.07018">
        <ele>33.2</ele>
        <time>2020-06-02T10:03:23Z</time>
      </trkpt>
      <trkpt lat="46.17536" lon="-1.07018">
        <ele>33.2</ele>
        <time>2020-06-02T10:03:24Z</time>
      </trkpt>
      <trkpt lat="46.17538" lon="-1.07018">
        <ele>33.2</ele>
        <time>2020-06-02T10:03:25Z</time>
      </trkpt>
      <trkpt lat="46.17538" lon="-1.07018">
        <ele>33.2</ele>
        <time>2020-06-02T10:03:26Z</time>
      </trkpt>
      <trkpt lat="46.17538" lon="-1.07019">
        <ele>33.2</ele>
        <time>2020-06-02T10:03:27Z</time>
      </trkpt>
      <trkpt lat="46.17538" lon="-1.07019">
        <ele>33.2</ele>
        <time>2020-06-02T10:03:28Z</time>
      </trkpt>
      <trkpt lat="46.17538" lon="-1.07019">
        <ele>33.2</ele>
        <time>2020-06-02T10:03:29Z</time>
      </trkpt>
      <trkpt lat="46.17539" lon="-1.07019">
        <ele>33.2</ele>
        <time>2020-06-02T10:03:30Z</time>
      </trkpt>
      <trkpt lat="46.17539" lon="-1.07019">
        <ele>33.2</ele>
        <time>2020-06-02T10:03:31Z</time>
      </trkpt>
      <trkpt lat="46.17539" lon="-1.07019">
        <ele>33.2</ele>
        <time>2020-06-02T10:03:32Z</time>
      </trkpt>
      <trkpt lat="46.17539" lon="-1.07018">
        <ele>33.2</ele>
        <time>2020-06-02T10:03:33Z</time>
      </trkpt>
      <trkpt lat="46.17539" lon="-1.07019">
        <ele>33.2</ele>
        <time>2020-06-02T10:03:34Z</time>
      </trkpt>
      <trkpt lat="46.17539" lon="-1.07019">
        <ele>33.2</ele>
        <time>2020-06-02T10:03:35Z</time>
      </trkpt>
      <trkpt lat="46.17539" lon="-1.07019">
        <ele>33.2</ele>
        <time>2020-06-02T10:03:36Z</time>
      </trkpt>
      <trkpt lat="46.1754" lon="-1.07019">
        <ele>33.2</ele>
        <time>2020-06-02T10:03:37Z</time>
      </trkpt>
      <trkpt lat="46.1754" lon="-1.07019">
        <ele>33.2</ele>
        <time>2020-06-02T10:03:38Z</time>
      </trkpt>
      <trkpt lat="46.1754" lon="-1.07019">
        <ele>33.2</ele>
        <time>2020-06-02T10:03:39Z</time>
      </trkpt>
      <trkpt lat="46.1754" lon="-1.07019">
        <ele>33.2</ele>
        <time>2020-06-02T10:03:40Z</time>
      </trkpt>
      <trkpt lat="46.1754" lon="-1.07019">
        <ele>33.2</ele>
        <time>2020-06-02T10:03:41Z</time>
      </trkpt>
      <trkpt lat="46.1754" lon="-1.07019">
        <ele>33.2</ele>
        <time>2020-06-02T10:03:42Z</time>
      </trkpt>
      <trkpt lat="46.17541" lon="-1.07019">
        <ele>33.2</ele>
        <time>2020-06-02T10:03:43Z</time>
      </trkpt>
      <trkpt lat="46.17541" lon="-1.07018">
        <ele>33.2</ele>
        <time>2020-06-02T10:03:44Z</time>
      </trkpt>
      <trkpt lat="46.17541" lon="-1.07019">
        <ele>33.2</ele>
        <time>2020-06-02T10:03:45Z</time>
      </trkpt>
      <trkpt lat="46.17542" lon="-1.07019">
        <ele>33.2</ele>
        <time>2020-06-02T10:03:46Z</time>
      </trkpt>
      <trkpt lat="46.17542" lon="-1.07019">
        <ele>33.2</ele>
        <time>2020-06-02T10:03:47Z</time>
      </trkpt>
      <trkpt lat="46.17543" lon="-1.0702">
        <ele>33.2</ele>
        <time>2020-06-02T10:03:48Z</time>
      </trkpt>
      <trkpt lat="46.17544" lon="-1.0702">
        <ele>33.2</ele>
        <time>2020-06-02T10:03:49Z</time>
      </trkpt>
      <trkpt lat="46.17545" lon="-1.07018">
        <ele>33.2</ele>
        <time>2020-06-02T10:03:50Z</time>
      </trkpt>
      <trkpt lat="46.17546" lon="-1.07018">
        <ele>33.2</ele>
        <time>2020-06-02T10:03:51Z</time>
      </trkpt>
      <trkpt lat="46.17549" lon="-1.07015">
        <ele>33.2</ele>
        <time>2020-06-02T10:03:52Z</time>
      </trkpt>
      <trkpt lat="46.1755" lon="-1.07014">
        <ele>33.2</ele>
        <time>2020-06-02T10:03:53Z</time>
      </trkpt>
      <trkpt lat="46.17553" lon="-1.07011">
        <ele>33.2</ele>
        <time>2020-06-02T10:03:54Z</time>
      </trkpt>
      <trkpt lat="46.17557" lon="-1.07007">
        <ele>33.2</ele>
        <time>2020-06-02T10:03:55Z</time>
      </trkpt>
      <trkpt lat="46.1756" lon="-1.07003">
        <ele>33.2</ele>
        <time>2020-06-02T10:03:56Z</time>
      </trkpt>
      <trkpt lat="46.17564" lon="-1.06999">
        <ele>33.2</ele>
        <time>2020-06-02T10:03:57Z</time>
      </trkpt>
      <trkpt lat="46.17567" lon="-1.06995">
        <ele>33.2</ele>
        <time>2020-06-02T10:03:58Z</time>
      </trkpt>
      <trkpt lat="46.1757" lon="-1.0699">
        <ele>33.2</ele>
        <time>2020-06-02T10:03:59Z</time>
      </trkpt>
      <trkpt lat="46.17574" lon="-1.06985">
        <ele>33.2</ele>
        <time>2020-06-02T10:04:00Z</time>
      </trkpt>
      <trkpt lat="46.17577" lon="-1.06981">
        <ele>33.2</ele>
        <time>2020-06-02T10:04:01Z</time>
      </trkpt>
      <trkpt lat="46.1758" lon="-1.06976">
        <ele>33.2</ele>
        <time>2020-06-02T10:04:02Z</time>
      </trkpt>
      <trkpt lat="46.17583" lon="-1.06972">
        <ele>33.2</ele>
        <time>2020-06-02T10:04:03Z</time>
      </trkpt>
      <trkpt lat="46.17586" lon="-1.06967">
        <ele>33.2</ele>
        <time>2020-06-02T10:04:04Z</time>
      </trkpt>
      <trkpt lat="46.17589" lon="-1.06962">
        <ele>33.2</ele>
        <time>2020-06-02T10:04:05Z</time>
      </trkpt>
      <trkpt lat="46.17592" lon="-1.06957">
        <ele>33.2</ele>
        <time>2020-06-02T10:04:06Z</time>
      </trkpt>
      <trkpt lat="46.17595" lon="-1.06952">
        <ele>33.2</ele>
        <time>2020-06-02T10:04:07Z</time>
      </trkpt>
      <trkpt lat="46.17598" lon="-1.06947">
        <ele>33.2</ele>
        <time>2020-06-02T10:04:08Z</time>
      </trkpt>
      <trkpt lat="46.17602" lon="-1.06941">
        <ele>33.2</ele>
        <time>2020-06-02T10:04:09Z</time>
      </trkpt>
      <trkpt lat="46.17605" lon="-1.06937">
        <ele>33.2</ele>
        <time>2020-06-02T10:04:10Z</time>
      </trkpt>
      <trkpt lat="46.17609" lon="-1.0693">
        <ele>33.2</ele>
        <time>2020-06-02T10:04:11Z</time>
      </trkpt>
      <trkpt lat="46.17612" lon="-1.06924">
        <ele>33.2</ele>
        <time>2020-06-02T10:04:12Z</time>
      </trkpt>
      <trkpt lat="46.17616" lon="-1.06918">
        <ele>33.2</ele>
        <time>2020-06-02T10:04:13Z</time>
      </trkpt>
      <trkpt lat="46.1762" lon="-1.06912">
        <ele>33.2</ele>
        <time>2020-06-02T10:04:14Z</time>
      </trkpt>
      <trkpt lat="46.17624" lon="-1.06906">
        <ele>33.2</ele>
        <time>2020-06-02T10:04:15Z</time>
      </trkpt>
      <trkpt lat="46.17628" lon="-1.06899">
        <ele>33.2</ele>
        <time>2020-06-02T10:04:16Z</time>
      </trkpt>
      <trkpt lat="46.17632" lon="-1.06891">
        <ele>33.2</ele>
        <time>2020-06-02T10:04:17Z</time>
      </trkpt>
      <trkpt lat="46.17636" lon="-1.06884">
        <ele>33.1</ele>
        <time>2020-06-02T10:04:18Z</time>
      </trkpt>
      <trkpt lat="46.1764" lon="-1.06877">
        <ele>33.1</ele>
        <time>2020-06-02T10:04:19Z</time>
      </trkpt>
      <trkpt lat="46.17644" lon="-1.06871">
        <ele>33.1</ele>
        <time>2020-06-02T10:04:20Z</time>
      </trkpt>
      <trkpt lat="46.17648" lon="-1.06865">
        <ele>33.1</ele>
        <time>2020-06-02T10:04:21Z</time>
      </trkpt>
      <trkpt lat="46.17652" lon="-1.06859">
        <ele>33.1</ele>
        <time>2020-06-02T10:04:22Z</time>
      </trkpt>
      <trkpt lat="46.17656" lon="-1.06852">
        <ele>33.1</ele>
        <time>2020-06-02T10:04:23Z</time>
      </trkpt>
      <trkpt lat="46.17661" lon="-1.06845">
        <ele>33.1</ele>
        <time>2020-06-02T10:04:24Z</time>
      </trkpt>
      <trkpt lat="46.17665" lon="-1.06839">
        <ele>33.1</ele>
        <time>2020-06-02T10:04:25Z</time>
      </trkpt>
      <trkpt lat="46.17668" lon="-1.06833">
        <ele>33.1</ele>
        <time>2020-06-02T10:04:26Z</time>
      </trkpt>
      <trkpt lat="46.17672" lon="-1.06827">
        <ele>33.1</ele>
        <time>2020-06-02T10:04:27Z</time>
      </trkpt>
      <trkpt lat="46.17676" lon="-1.06821">
        <ele>33</ele>
        <time>2020-06-02T10:04:28Z</time>
      </trkpt>
      <trkpt lat="46.1768" lon="-1.06814">
        <ele>32.9</ele>
        <time>2020-06-02T10:04:29Z</time>
      </trkpt>
      <trkpt lat="46.17684" lon="-1.06807">
        <ele>32.9</ele>
        <time>2020-06-02T10:04:30Z</time>
      </trkpt>
      <trkpt lat="46.17688" lon="-1.06801">
        <ele>32.8</ele>
        <time>2020-06-02T10:04:31Z</time>
      </trkpt>
      <trkpt lat="46.17691" lon="-1.06793">
        <ele>32.7</ele>
        <time>2020-06-02T10:04:32Z</time>
      </trkpt>
      <trkpt lat="46.17695" lon="-1.06785">
        <ele>32.6</ele>
        <time>2020-06-02T10:04:33Z</time>
      </trkpt>
      <trkpt lat="46.17699" lon="-1.06777">
        <ele>32.5</ele>
        <time>2020-06-02T10:04:34Z</time>
      </trkpt>
      <trkpt lat="46.17703" lon="-1.06769">
        <ele>32.4</ele>
        <time>2020-06-02T10:04:35Z</time>
      </trkpt>
      <trkpt lat="46.17707" lon="-1.06762">
        <ele>32.3</ele>
        <time>2020-06-02T10:04:36Z</time>
      </trkpt>
      <trkpt lat="46.17711" lon="-1.06754">
        <ele>32.3</ele>
        <time>2020-06-02T10:04:37Z</time>
      </trkpt>
      <trkpt lat="46.17716" lon="-1.06746">
        <ele>32.2</ele>
        <time>2020-06-02T10:04:38Z</time>
      </trkpt>
      <trkpt lat="46.17721" lon="-1.06738">
        <ele>32.2</ele>
        <time>2020-06-02T10:04:39Z</time>
      </trkpt>
      <trkpt lat="46.17725" lon="-1.0673">
        <ele>32.1</ele>
        <time>2020-06-02T10:04:40Z</time>
      </trkpt>
      <trkpt lat="46.17729" lon="-1.06724">
        <ele>32</ele>
        <time>2020-06-02T10:04:41Z</time>
      </trkpt>
      <trkpt lat="46.17733" lon="-1.06718">
        <ele>32</ele>
        <time>2020-06-02T10:04:42Z</time>
      </trkpt>
      <trkpt lat="46.17737" lon="-1.06711">
        <ele>31.8</ele>
        <time>2020-06-02T10:04:43Z</time>
      </trkpt>
      <trkpt lat="46.17742" lon="-1.06705">
        <ele>31.7</ele>
        <time>2020-06-02T10:04:44Z</time>
      </trkpt>
      <trkpt lat="46.17746" lon="-1.06699">
        <ele>31.6</ele>
        <time>2020-06-02T10:04:45Z</time>
      </trkpt>
      <trkpt lat="46.1775" lon="-1.06692">
        <ele>31.5</ele>
        <time>2020-06-02T10:04:46Z</time>
      </trkpt>
      <trkpt lat="46.17754" lon="-1.06684">
        <ele>31.3</ele>
        <time>2020-06-02T10:04:47Z</time>
      </trkpt>
      <trkpt lat="46.17758" lon="-1.06676">
        <ele>31.2</ele>
        <time>2020-06-02T10:04:48Z</time>
      </trkpt>
      <trkpt lat="46.17761" lon="-1.06668">
        <ele>31.1</ele>
        <time>2020-06-02T10:04:49Z</time>
      </trkpt>
      <trkpt lat="46.17764" lon="-1.06662">
        <ele>30.9</ele>
        <time>2020-06-02T10:04:50Z</time>
      </trkpt>
      <trkpt lat="46.17768" lon="-1.06656">
        <ele>30.8</ele>
        <time>2020-06-02T10:04:51Z</time>
      </trkpt>
      <trkpt lat="46.17771" lon="-1.0665">
        <ele>30.7</ele>
        <time>2020-06-02T10:04:52Z</time>
      </trkpt>
      <trkpt lat="46.17773" lon="-1.06645">
        <ele>30.7</ele>
        <time>2020-06-02T10:04:53Z</time>
      </trkpt>
      <trkpt lat="46.17775" lon="-1.06638">
        <ele>30.6</ele>
        <time>2020-06-02T10:04:54Z</time>
      </trkpt>
      <trkpt lat="46.17778" lon="-1.06632">
        <ele>30.5</ele>
        <time>2020-06-02T10:04:55Z</time>
      </trkpt>
      <trkpt lat="46.17781" lon="-1.06627">
        <ele>30.5</ele>
        <time>2020-06-02T10:04:56Z</time>
      </trkpt>
      <trkpt lat="46.17784" lon="-1.06621">
        <ele>30.4</ele>
        <time>2020-06-02T10:04:57Z</time>
      </trkpt>
      <trkpt lat="46.17788" lon="-1.06613">
        <ele>30.3</ele>
        <time>2020-06-02T10:04:58Z</time>
      </trkpt>
      <trkpt lat="46.17792" lon="-1.06607">
        <ele>30.3</ele>
        <time>2020-06-02T10:04:59Z</time>
      </trkpt>
      <trkpt lat="46.17794" lon="-1.06603">
        <ele>30.3</ele>
        <time>2020-06-02T10:05:00Z</time>
      </trkpt>
      <trkpt lat="46.17795" lon="-1.06601">
        <ele>30.3</ele>
        <time>2020-06-02T10:05:01Z</time>
      </trkpt>
      <trkpt lat="46.17796" lon="-1.066">
        <ele>30.3</ele>
        <time>2020-06-02T10:05:02Z</time>
      </trkpt>
      <trkpt lat="46.17797" lon="-1.06598">
        <ele>30.3</ele>
        <time>2020-06-02T10:05:03Z</time>
      </trkpt>
      <trkpt lat="46.17799" lon="-1.06595">
        <ele>30.3</ele>
        <time>2020-06-02T10:05:04Z</time>
      </trkpt>
      <trkpt lat="46.17802" lon="-1.06591">
        <ele>30.1</ele>
        <time>2020-06-02T10:05:05Z</time>
      </trkpt>
      <trkpt lat="46.17803" lon="-1.06589">
        <ele>30</ele>
        <time>2020-06-02T10:05:06Z</time>
      </trkpt>
      <trkpt lat="46.17805" lon="-1.06584">
        <ele>29.9</ele>
        <time>2020-06-02T10:05:07Z</time>
      </trkpt>
      <trkpt lat="46.17808" lon="-1.06578">
        <ele>29.7</ele>
        <time>2020-06-02T10:05:08Z</time>
      </trkpt>
      <trkpt lat="46.17811" lon="-1.06572">
        <ele>29.5</ele>
        <time>2020-06-02T10:05:09Z</time>
      </trkpt>
      <trkpt lat="46.17815" lon="-1.06566">
        <ele>29.4</ele>
        <time>2020-06-02T10:05:10Z</time>
      </trkpt>
      <trkpt lat="46.17818" lon="-1.0656">
        <ele>29.2</ele>
        <time>2020-06-02T10:05:11Z</time>
      </trkpt>
      <trkpt lat="46.17822" lon="-1.06554">
        <ele>29.1</ele>
        <time>2020-06-02T10:05:12Z</time>
      </trkpt>
      <trkpt lat="46.17826" lon="-1.06547">
        <ele>28.9</ele>
        <time>2020-06-02T10:05:13Z</time>
      </trkpt>
      <trkpt lat="46.17831" lon="-1.06539">
        <ele>28.8</ele>
        <time>2020-06-02T10:05:14Z</time>
      </trkpt>
      <trkpt lat="46.17836" lon="-1.06532">
        <ele>28.5</ele>
        <time>2020-06-02T10:05:15Z</time>
      </trkpt>
      <trkpt lat="46.1784" lon="-1.06525">
        <ele>28.3</ele>
        <time>2020-06-02T10:05:16Z</time>
      </trkpt>
      <trkpt lat="46.17843" lon="-1.06518">
        <ele>28.2</ele>
        <time>2020-06-02T10:05:17Z</time>
      </trkpt>
      <trkpt lat="46.17848" lon="-1.0651">
        <ele>28</ele>
        <time>2020-06-02T10:05:18Z</time>
      </trkpt>
      <trkpt lat="46.17852" lon="-1.065">
        <ele>27.8</ele>
        <time>2020-06-02T10:05:19Z</time>
      </trkpt>
      <trkpt lat="46.17856" lon="-1.06491">
        <ele>27.6</ele>
        <time>2020-06-02T10:05:20Z</time>
      </trkpt>
      <trkpt lat="46.1786" lon="-1.06484">
        <ele>27.4</ele>
        <time>2020-06-02T10:05:21Z</time>
      </trkpt>
      <trkpt lat="46.17864" lon="-1.06476">
        <ele>27.3</ele>
        <time>2020-06-02T10:05:22Z</time>
      </trkpt>
      <trkpt lat="46.17869" lon="-1.06467">
        <ele>27.1</ele>
        <time>2020-06-02T10:05:23Z</time>
      </trkpt>
      <trkpt lat="46.17874" lon="-1.06459">
        <ele>27</ele>
        <time>2020-06-02T10:05:24Z</time>
      </trkpt>
      <trkpt lat="46.17879" lon="-1.06451">
        <ele>26.7</ele>
        <time>2020-06-02T10:05:25Z</time>
      </trkpt>
      <trkpt lat="46.17883" lon="-1.06444">
        <ele>26.6</ele>
        <time>2020-06-02T10:05:26Z</time>
      </trkpt>
      <trkpt lat="46.17887" lon="-1.06437">
        <ele>26.4</ele>
        <time>2020-06-02T10:05:27Z</time>
      </trkpt>
      <trkpt lat="46.17891" lon="-1.0643">
        <ele>26.2</ele>
        <time>2020-06-02T10:05:28Z</time>
      </trkpt>
      <trkpt lat="46.17896" lon="-1.06423">
        <ele>26.1</ele>
        <time>2020-06-02T10:05:29Z</time>
      </trkpt>
      <trkpt lat="46.17899" lon="-1.06416">
        <ele>25.9</ele>
        <time>2020-06-02T10:05:30Z</time>
      </trkpt>
      <trkpt lat="46.17903" lon="-1.0641">
        <ele>25.8</ele>
        <time>2020-06-02T10:05:31Z</time>
      </trkpt>
      <trkpt lat="46.17907" lon="-1.06402">
        <ele>25.6</ele>
        <time>2020-06-02T10:05:32Z</time>
      </trkpt>
      <trkpt lat="46.17912" lon="-1.06394">
        <ele>25.5</ele>
        <time>2020-06-02T10:05:33Z</time>
      </trkpt>
      <trkpt lat="46.17916" lon="-1.06385">
        <ele>25.3</ele>
        <time>2020-06-02T10:05:34Z</time>
      </trkpt>
      <trkpt lat="46.17921" lon="-1.06377">
        <ele>25.1</ele>
        <time>2020-06-02T10:05:35Z</time>
      </trkpt>
      <trkpt lat="46.17925" lon="-1.0637">
        <ele>25</ele>
        <time>2020-06-02T10:05:36Z</time>
      </trkpt>
      <trkpt lat="46.1793" lon="-1.06361">
        <ele>24.9</ele>
        <time>2020-06-02T10:05:37Z</time>
      </trkpt>
      <trkpt lat="46.17934" lon="-1.06352">
        <ele>24.7</ele>
        <time>2020-06-02T10:05:38Z</time>
      </trkpt>
      <trkpt lat="46.17939" lon="-1.06344">
        <ele>24.6</ele>
        <time>2020-06-02T10:05:39Z</time>
      </trkpt>
      <trkpt lat="46.17943" lon="-1.06337">
        <ele>24.4</ele>
        <time>2020-06-02T10:05:40Z</time>
      </trkpt>
      <trkpt lat="46.17947" lon="-1.06328">
        <ele>24.3</ele>
        <time>2020-06-02T10:05:41Z</time>
      </trkpt>
      <trkpt lat="46.17951" lon="-1.06321">
        <ele>24.2</ele>
        <time>2020-06-02T10:05:42Z</time>
      </trkpt>
      <trkpt lat="46.17956" lon="-1.06313">
        <ele>24</ele>
        <time>2020-06-02T10:05:43Z</time>
      </trkpt>
      <trkpt lat="46.17959" lon="-1.06306">
        <ele>23.9</ele>
        <time>2020-06-02T10:05:44Z</time>
      </trkpt>
      <trkpt lat="46.17963" lon="-1.06298">
        <ele>23.7</ele>
        <time>2020-06-02T10:05:45Z</time>
      </trkpt>
      <trkpt lat="46.17967" lon="-1.06292">
        <ele>23.6</ele>
        <time>2020-06-02T10:05:46Z</time>
      </trkpt>
      <trkpt lat="46.17971" lon="-1.06284">
        <ele>23.4</ele>
        <time>2020-06-02T10:05:47Z</time>
      </trkpt>
      <trkpt lat="46.17975" lon="-1.06277">
        <ele>23.3</ele>
        <time>2020-06-02T10:05:48Z</time>
      </trkpt>
      <trkpt lat="46.1798" lon="-1.06268">
        <ele>23.2</ele>
        <time>2020-06-02T10:05:49Z</time>
      </trkpt>
      <trkpt lat="46.17984" lon="-1.06259">
        <ele>23</ele>
        <time>2020-06-02T10:05:50Z</time>
      </trkpt>
      <trkpt lat="46.17988" lon="-1.06252">
        <ele>22.9</ele>
        <time>2020-06-02T10:05:51Z</time>
      </trkpt>
      <trkpt lat="46.17992" lon="-1.06243">
        <ele>22.7</ele>
        <time>2020-06-02T10:05:52Z</time>
      </trkpt>
      <trkpt lat="46.17997" lon="-1.06235">
        <ele>22.5</ele>
        <time>2020-06-02T10:05:53Z</time>
      </trkpt>
      <trkpt lat="46.18002" lon="-1.06226">
        <ele>22.4</ele>
        <time>2020-06-02T10:05:54Z</time>
      </trkpt>
      <trkpt lat="46.18006" lon="-1.06218">
        <ele>22.3</ele>
        <time>2020-06-02T10:05:55Z</time>
      </trkpt>
      <trkpt lat="46.1801" lon="-1.06211">
        <ele>22.3</ele>
        <time>2020-06-02T10:05:56Z</time>
      </trkpt>
      <trkpt lat="46.18014" lon="-1.06203">
        <ele>22.2</ele>
        <time>2020-06-02T10:05:57Z</time>
      </trkpt>
      <trkpt lat="46.18019" lon="-1.06194">
        <ele>22.1</ele>
        <time>2020-06-02T10:05:58Z</time>
      </trkpt>
      <trkpt lat="46.18025" lon="-1.06185">
        <ele>22</ele>
        <time>2020-06-02T10:05:59Z</time>
      </trkpt>
      <trkpt lat="46.18031" lon="-1.06175">
        <ele>21.8</ele>
        <time>2020-06-02T10:06:00Z</time>
      </trkpt>
      <trkpt lat="46.18034" lon="-1.06169">
        <ele>21.7</ele>
        <time>2020-06-02T10:06:01Z</time>
      </trkpt>
      <trkpt lat="46.18039" lon="-1.06162">
        <ele>21.6</ele>
        <time>2020-06-02T10:06:02Z</time>
      </trkpt>
      <trkpt lat="46.18044" lon="-1.06155">
        <ele>21.4</ele>
        <time>2020-06-02T10:06:03Z</time>
      </trkpt>
      <trkpt lat="46.18047" lon="-1.06147">
        <ele>21.3</ele>
        <time>2020-06-02T10:06:04Z</time>
      </trkpt>
      <trkpt lat="46.18052" lon="-1.0614">
        <ele>21.2</ele>
        <time>2020-06-02T10:06:05Z</time>
      </trkpt>
      <trkpt lat="46.18057" lon="-1.06132">
        <ele>21.2</ele>
        <time>2020-06-02T10:06:06Z</time>
      </trkpt>
      <trkpt lat="46.18061" lon="-1.06124">
        <ele>21.1</ele>
        <time>2020-06-02T10:06:07Z</time>
      </trkpt>
      <trkpt lat="46.18066" lon="-1.06116">
        <ele>21.1</ele>
        <time>2020-06-02T10:06:08Z</time>
      </trkpt>
      <trkpt lat="46.18071" lon="-1.06107">
        <ele>21</ele>
        <time>2020-06-02T10:06:09Z</time>
      </trkpt>
      <trkpt lat="46.18075" lon="-1.06098">
        <ele>21</ele>
        <time>2020-06-02T10:06:10Z</time>
      </trkpt>
      <trkpt lat="46.1808" lon="-1.0609">
        <ele>21</ele>
        <time>2020-06-02T10:06:11Z</time>
      </trkpt>
      <trkpt lat="46.18085" lon="-1.06083">
        <ele>21</ele>
        <time>2020-06-02T10:06:12Z</time>
      </trkpt>
      <trkpt lat="46.18089" lon="-1.06076">
        <ele>20.9</ele>
        <time>2020-06-02T10:06:13Z</time>
      </trkpt>
      <trkpt lat="46.18094" lon="-1.06067">
        <ele>20.9</ele>
        <time>2020-06-02T10:06:14Z</time>
      </trkpt>
      <trkpt lat="46.18097" lon="-1.0606">
        <ele>20.8</ele>
        <time>2020-06-02T10:06:15Z</time>
      </trkpt>
      <trkpt lat="46.18101" lon="-1.06052">
        <ele>20.7</ele>
        <time>2020-06-02T10:06:16Z</time>
      </trkpt>
      <trkpt lat="46.18105" lon="-1.06045">
        <ele>20.6</ele>
        <time>2020-06-02T10:06:17Z</time>
      </trkpt>
      <trkpt lat="46.1811" lon="-1.06037">
        <ele>20.5</ele>
        <time>2020-06-02T10:06:18Z</time>
      </trkpt>
      <trkpt lat="46.18113" lon="-1.0603">
        <ele>20.4</ele>
        <time>2020-06-02T10:06:19Z</time>
      </trkpt>
      <trkpt lat="46.18118" lon="-1.06022">
        <ele>20.4</ele>
        <time>2020-06-02T10:06:20Z</time>
      </trkpt>
      <trkpt lat="46.18123" lon="-1.06013">
        <ele>20.3</ele>
        <time>2020-06-02T10:06:21Z</time>
      </trkpt>
      <trkpt lat="46.18128" lon="-1.06005">
        <ele>20.2</ele>
        <time>2020-06-02T10:06:22Z</time>
      </trkpt>
      <trkpt lat="46.18133" lon="-1.05997">
        <ele>20.1</ele>
        <time>2020-06-02T10:06:23Z</time>
      </trkpt>
      <trkpt lat="46.18139" lon="-1.05989">
        <ele>20</ele>
        <time>2020-06-02T10:06:24Z</time>
      </trkpt>
      <trkpt lat="46.18144" lon="-1.05981">
        <ele>19.9</ele>
        <time>2020-06-02T10:06:25Z</time>
      </trkpt>
      <trkpt lat="46.18149" lon="-1.05973">
        <ele>19.8</ele>
        <time>2020-06-02T10:06:26Z</time>
      </trkpt>
      <trkpt lat="46.18154" lon="-1.05965">
        <ele>19.7</ele>
        <time>2020-06-02T10:06:27Z</time>
      </trkpt>
      <trkpt lat="46.18159" lon="-1.05957">
        <ele>19.6</ele>
        <time>2020-06-02T10:06:28Z</time>
      </trkpt>
      <trkpt lat="46.18164" lon="-1.05949">
        <ele>19.6</ele>
        <time>2020-06-02T10:06:29Z</time>
      </trkpt>
      <trkpt lat="46.18168" lon="-1.05941">
        <ele>19.5</ele>
        <time>2020-06-02T10:06:30Z</time>
      </trkpt>
      <trkpt lat="46.18172" lon="-1.05933">
        <ele>19.4</ele>
        <time>2020-06-02T10:06:31Z</time>
      </trkpt>
      <trkpt lat="46.18176" lon="-1.05925">
        <ele>19.4</ele>
        <time>2020-06-02T10:06:32Z</time>
      </trkpt>
      <trkpt lat="46.18181" lon="-1.05918">
        <ele>19.3</ele>
        <time>2020-06-02T10:06:33Z</time>
      </trkpt>
      <trkpt lat="46.18185" lon="-1.0591">
        <ele>19.3</ele>
        <time>2020-06-02T10:06:34Z</time>
      </trkpt>
      <trkpt lat="46.18189" lon="-1.05902">
        <ele>19.2</ele>
        <time>2020-06-02T10:06:35Z</time>
      </trkpt>
      <trkpt lat="46.18194" lon="-1.05894">
        <ele>19.2</ele>
        <time>2020-06-02T10:06:36Z</time>
      </trkpt>
      <trkpt lat="46.18198" lon="-1.05886">
        <ele>19.1</ele>
        <time>2020-06-02T10:06:37Z</time>
      </trkpt>
      <trkpt lat="46.18202" lon="-1.05878">
        <ele>19.1</ele>
        <time>2020-06-02T10:06:38Z</time>
      </trkpt>
      <trkpt lat="46.18206" lon="-1.05872">
        <ele>19</ele>
        <time>2020-06-02T10:06:39Z</time>
      </trkpt>
      <trkpt lat="46.18211" lon="-1.05865">
        <ele>19</ele>
        <time>2020-06-02T10:06:40Z</time>
      </trkpt>
      <trkpt lat="46.18216" lon="-1.05857">
        <ele>19</ele>
        <time>2020-06-02T10:06:41Z</time>
      </trkpt>
      <trkpt lat="46.18221" lon="-1.05851">
        <ele>19</ele>
        <time>2020-06-02T10:06:42Z</time>
      </trkpt>
      <trkpt lat="46.18226" lon="-1.05844">
        <ele>19</ele>
        <time>2020-06-02T10:06:43Z</time>
      </trkpt>
      <trkpt lat="46.18232" lon="-1.05838">
        <ele>19</ele>
        <time>2020-06-02T10:06:44Z</time>
      </trkpt>
      <trkpt lat="46.18239" lon="-1.05832">
        <ele>19</ele>
        <time>2020-06-02T10:06:45Z</time>
      </trkpt>
      <trkpt lat="46.18245" lon="-1.05825">
        <ele>18.9</ele>
        <time>2020-06-02T10:06:46Z</time>
      </trkpt>
      <trkpt lat="46.18251" lon="-1.0582">
        <ele>18.9</ele>
        <time>2020-06-02T10:06:47Z</time>
      </trkpt>
      <trkpt lat="46.18257" lon="-1.05815">
        <ele>18.9</ele>
        <time>2020-06-02T10:06:48Z</time>
      </trkpt>
      <trkpt lat="46.18261" lon="-1.0581">
        <ele>18.9</ele>
        <time>2020-06-02T10:06:49Z</time>
      </trkpt>
      <trkpt lat="46.18267" lon="-1.05805">
        <ele>18.9</ele>
        <time>2020-06-02T10:06:50Z</time>
      </trkpt>
      <trkpt lat="46.18274" lon="-1.05799">
        <ele>18.9</ele>
        <time>2020-06-02T10:06:51Z</time>
      </trkpt>
      <trkpt lat="46.18279" lon="-1.05794">
        <ele>18.9</ele>
        <time>2020-06-02T10:06:52Z</time>
      </trkpt>
      <trkpt lat="46.18283" lon="-1.05789">
        <ele>18.9</ele>
        <time>2020-06-02T10:06:53Z</time>
      </trkpt>
      <trkpt lat="46.18288" lon="-1.05784">
        <ele>18.9</ele>
        <time>2020-06-02T10:06:54Z</time>
      </trkpt>
      <trkpt lat="46.18293" lon="-1.0578">
        <ele>18.9</ele>
        <time>2020-06-02T10:06:55Z</time>
      </trkpt>
      <trkpt lat="46.18297" lon="-1.05776">
        <ele>18.9</ele>
        <time>2020-06-02T10:06:56Z</time>
      </trkpt>
      <trkpt lat="46.183" lon="-1.05772">
        <ele>18.9</ele>
        <time>2020-06-02T10:06:57Z</time>
      </trkpt>
      <trkpt lat="46.18303" lon="-1.05769">
        <ele>18.8</ele>
        <time>2020-06-02T10:06:58Z</time>
      </trkpt>
      <trkpt lat="46.18304" lon="-1.05768">
        <ele>18.8</ele>
        <time>2020-06-02T10:06:59Z</time>
      </trkpt>
      <trkpt lat="46.18306" lon="-1.05764">
        <ele>18.7</ele>
        <time>2020-06-02T10:07:00Z</time>
      </trkpt>
      <trkpt lat="46.18306" lon="-1.05763">
        <ele>18.7</ele>
        <time>2020-06-02T10:07:01Z</time>
      </trkpt>
      <trkpt lat="46.18307" lon="-1.05763">
        <ele>18.7</ele>
        <time>2020-06-02T10:07:02Z</time>
      </trkpt>
      <trkpt lat="46.18307" lon="-1.05764">
        <ele>18.7</ele>
        <time>2020-06-02T10:07:03Z</time>
      </trkpt>
      <trkpt lat="46.18307" lon="-1.05763">
        <ele>18.7</ele>
        <time>2020-06-02T10:07:04Z</time>
      </trkpt>
      <trkpt lat="46.18309" lon="-1.05762">
        <ele>18.7</ele>
        <time>2020-06-02T10:07:05Z</time>
      </trkpt>
      <trkpt lat="46.18309" lon="-1.05761">
        <ele>18.7</ele>
        <time>2020-06-02T10:07:06Z</time>
      </trkpt>
      <trkpt lat="46.18311" lon="-1.05759">
        <ele>18.8</ele>
        <time>2020-06-02T10:07:07Z</time>
      </trkpt>
      <trkpt lat="46.18313" lon="-1.05758">
        <ele>18.8</ele>
        <time>2020-06-02T10:07:08Z</time>
      </trkpt>
      <trkpt lat="46.18314" lon="-1.05757">
        <ele>18.8</ele>
        <time>2020-06-02T10:07:09Z</time>
      </trkpt>
      <trkpt lat="46.18318" lon="-1.05754">
        <ele>18.8</ele>
        <time>2020-06-02T10:07:10Z</time>
      </trkpt>
      <trkpt lat="46.18319" lon="-1.05753">
        <ele>18.8</ele>
        <time>2020-06-02T10:07:11Z</time>
      </trkpt>
      <trkpt lat="46.18322" lon="-1.05751">
        <ele>18.8</ele>
        <time>2020-06-02T10:07:12Z</time>
      </trkpt>
      <trkpt lat="46.18325" lon="-1.05747">
        <ele>18.8</ele>
        <time>2020-06-02T10:07:13Z</time>
      </trkpt>
      <trkpt lat="46.18328" lon="-1.05745">
        <ele>18.8</ele>
        <time>2020-06-02T10:07:14Z</time>
      </trkpt>
      <trkpt lat="46.18331" lon="-1.05741">
        <ele>18.8</ele>
        <time>2020-06-02T10:07:15Z</time>
      </trkpt>
      <trkpt lat="46.18335" lon="-1.05738">
        <ele>18.7</ele>
        <time>2020-06-02T10:07:16Z</time>
      </trkpt>
      <trkpt lat="46.18338" lon="-1.05734">
        <ele>18.7</ele>
        <time>2020-06-02T10:07:17Z</time>
      </trkpt>
      <trkpt lat="46.18341" lon="-1.0573">
        <ele>18.7</ele>
        <time>2020-06-02T10:07:18Z</time>
      </trkpt>
      <trkpt lat="46.18344" lon="-1.05726">
        <ele>18.7</ele>
        <time>2020-06-02T10:07:19Z</time>
      </trkpt>
      <trkpt lat="46.18348" lon="-1.05721">
        <ele>18.7</ele>
        <time>2020-06-02T10:07:20Z</time>
      </trkpt>
      <trkpt lat="46.18352" lon="-1.05719">
        <ele>18.7</ele>
        <time>2020-06-02T10:07:21Z</time>
      </trkpt>
      <trkpt lat="46.18356" lon="-1.05714">
        <ele>18.7</ele>
        <time>2020-06-02T10:07:22Z</time>
      </trkpt>
      <trkpt lat="46.1836" lon="-1.0571">
        <ele>18.7</ele>
        <time>2020-06-02T10:07:23Z</time>
      </trkpt>
      <trkpt lat="46.18364" lon="-1.05704">
        <ele>18.7</ele>
        <time>2020-06-02T10:07:24Z</time>
      </trkpt>
      <trkpt lat="46.18369" lon="-1.05698">
        <ele>18.7</ele>
        <time>2020-06-02T10:07:25Z</time>
      </trkpt>
      <trkpt lat="46.18374" lon="-1.05693">
        <ele>18.6</ele>
        <time>2020-06-02T10:07:26Z</time>
      </trkpt>
      <trkpt lat="46.18379" lon="-1.05689">
        <ele>18.6</ele>
        <time>2020-06-02T10:07:27Z</time>
      </trkpt>
      <trkpt lat="46.18384" lon="-1.05684">
        <ele>18.7</ele>
        <time>2020-06-02T10:07:28Z</time>
      </trkpt>
      <trkpt lat="46.18389" lon="-1.05678">
        <ele>18.7</ele>
        <time>2020-06-02T10:07:29Z</time>
      </trkpt>
      <trkpt lat="46.18395" lon="-1.05672">
        <ele>18.7</ele>
        <time>2020-06-02T10:07:30Z</time>
      </trkpt>
      <trkpt lat="46.184" lon="-1.05668">
        <ele>18.8</ele>
        <time>2020-06-02T10:07:31Z</time>
      </trkpt>
      <trkpt lat="46.18405" lon="-1.05664">
        <ele>18.9</ele>
        <time>2020-06-02T10:07:32Z</time>
      </trkpt>
      <trkpt lat="46.18409" lon="-1.0566">
        <ele>18.9</ele>
        <time>2020-06-02T10:07:33Z</time>
      </trkpt>
      <trkpt lat="46.18413" lon="-1.05655">
        <ele>18.9</ele>
        <time>2020-06-02T10:07:34Z</time>
      </trkpt>
      <trkpt lat="46.18419" lon="-1.05652">
        <ele>19</ele>
        <time>2020-06-02T10:07:35Z</time>
      </trkpt>
      <trkpt lat="46.18423" lon="-1.05647">
        <ele>19</ele>
        <time>2020-06-02T10:07:36Z</time>
      </trkpt>
      <trkpt lat="46.18428" lon="-1.05642">
        <ele>19</ele>
        <time>2020-06-02T10:07:37Z</time>
      </trkpt>
      <trkpt lat="46.18431" lon="-1.05638">
        <ele>19</ele>
        <time>2020-06-02T10:07:38Z</time>
      </trkpt>
      <trkpt lat="46.18436" lon="-1.05633">
        <ele>19</ele>
        <time>2020-06-02T10:07:39Z</time>
      </trkpt>
      <trkpt lat="46.18439" lon="-1.05629">
        <ele>19</ele>
        <time>2020-06-02T10:07:40Z</time>
      </trkpt>
      <trkpt lat="46.18444" lon="-1.05625">
        <ele>18.9</ele>
        <time>2020-06-02T10:07:41Z</time>
      </trkpt>
      <trkpt lat="46.18448" lon="-1.05621">
        <ele>18.9</ele>
        <time>2020-06-02T10:07:42Z</time>
      </trkpt>
      <trkpt lat="46.18453" lon="-1.05617">
        <ele>18.9</ele>
        <time>2020-06-02T10:07:43Z</time>
      </trkpt>
      <trkpt lat="46.18457" lon="-1.05612">
        <ele>18.9</ele>
        <time>2020-06-02T10:07:44Z</time>
      </trkpt>
      <trkpt lat="46.18461" lon="-1.05607">
        <ele>18.8</ele>
        <time>2020-06-02T10:07:45Z</time>
      </trkpt>
      <trkpt lat="46.18465" lon="-1.05604">
        <ele>18.8</ele>
        <time>2020-06-02T10:07:46Z</time>
      </trkpt>
      <trkpt lat="46.18469" lon="-1.05599">
        <ele>18.8</ele>
        <time>2020-06-02T10:07:47Z</time>
      </trkpt>
      <trkpt lat="46.18473" lon="-1.05595">
        <ele>18.8</ele>
        <time>2020-06-02T10:07:48Z</time>
      </trkpt>
      <trkpt lat="46.18478" lon="-1.05591">
        <ele>18.8</ele>
        <time>2020-06-02T10:07:49Z</time>
      </trkpt>
      <trkpt lat="46.18482" lon="-1.05587">
        <ele>18.7</ele>
        <time>2020-06-02T10:07:50Z</time>
      </trkpt>
      <trkpt lat="46.18487" lon="-1.05582">
        <ele>18.7</ele>
        <time>2020-06-02T10:07:51Z</time>
      </trkpt>
      <trkpt lat="46.1849" lon="-1.05577">
        <ele>18.7</ele>
        <time>2020-06-02T10:07:52Z</time>
      </trkpt>
      <trkpt lat="46.18494" lon="-1.05573">
        <ele>18.7</ele>
        <time>2020-06-02T10:07:53Z</time>
      </trkpt>
      <trkpt lat="46.18498" lon="-1.05568">
        <ele>18.6</ele>
        <time>2020-06-02T10:07:54Z</time>
      </trkpt>
      <trkpt lat="46.18502" lon="-1.05563">
        <ele>18.5</ele>
        <time>2020-06-02T10:07:55Z</time>
      </trkpt>
      <trkpt lat="46.18506" lon="-1.05558">
        <ele>18.5</ele>
        <time>2020-06-02T10:07:56Z</time>
      </trkpt>
      <trkpt lat="46.18511" lon="-1.05553">
        <ele>18.4</ele>
        <time>2020-06-02T10:07:57Z</time>
      </trkpt>
      <trkpt lat="46.18516" lon="-1.05548">
        <ele>18.3</ele>
        <time>2020-06-02T10:07:58Z</time>
      </trkpt>
      <trkpt lat="46.1852" lon="-1.05544">
        <ele>18.2</ele>
        <time>2020-06-02T10:07:59Z</time>
      </trkpt>
      <trkpt lat="46.18525" lon="-1.0554">
        <ele>18.1</ele>
        <time>2020-06-02T10:08:00Z</time>
      </trkpt>
      <trkpt lat="46.1853" lon="-1.05534">
        <ele>18</ele>
        <time>2020-06-02T10:08:01Z</time>
      </trkpt>
      <trkpt lat="46.18535" lon="-1.05529">
        <ele>17.9</ele>
        <time>2020-06-02T10:08:02Z</time>
      </trkpt>
      <trkpt lat="46.18541" lon="-1.05522">
        <ele>17.8</ele>
        <time>2020-06-02T10:08:03Z</time>
      </trkpt>
      <trkpt lat="46.18547" lon="-1.05515">
        <ele>17.7</ele>
        <time>2020-06-02T10:08:04Z</time>
      </trkpt>
      <trkpt lat="46.18552" lon="-1.05511">
        <ele>17.7</ele>
        <time>2020-06-02T10:08:05Z</time>
      </trkpt>
      <trkpt lat="46.18556" lon="-1.05507">
        <ele>17.6</ele>
        <time>2020-06-02T10:08:06Z</time>
      </trkpt>
      <trkpt lat="46.18559" lon="-1.05504">
        <ele>17.6</ele>
        <time>2020-06-02T10:08:07Z</time>
      </trkpt>
      <trkpt lat="46.18562" lon="-1.05501">
        <ele>17.5</ele>
        <time>2020-06-02T10:08:08Z</time>
      </trkpt>
      <trkpt lat="46.18566" lon="-1.05497">
        <ele>17.5</ele>
        <time>2020-06-02T10:08:09Z</time>
      </trkpt>
      <trkpt lat="46.18571" lon="-1.05492">
        <ele>17.4</ele>
        <time>2020-06-02T10:08:10Z</time>
      </trkpt>
      <trkpt lat="46.18576" lon="-1.05488">
        <ele>17.4</ele>
        <time>2020-06-02T10:08:11Z</time>
      </trkpt>
      <trkpt lat="46.18581" lon="-1.05484">
        <ele>17.3</ele>
        <time>2020-06-02T10:08:12Z</time>
      </trkpt>
      <trkpt lat="46.18586" lon="-1.0548">
        <ele>17.2</ele>
        <time>2020-06-02T10:08:13Z</time>
      </trkpt>
      <trkpt lat="46.18591" lon="-1.05475">
        <ele>17.2</ele>
        <time>2020-06-02T10:08:14Z</time>
      </trkpt>
      <trkpt lat="46.18597" lon="-1.0547">
        <ele>17.1</ele>
        <time>2020-06-02T10:08:15Z</time>
      </trkpt>
      <trkpt lat="46.18603" lon="-1.05466">
        <ele>17</ele>
        <time>2020-06-02T10:08:16Z</time>
      </trkpt>
      <trkpt lat="46.18609" lon="-1.05461">
        <ele>16.9</ele>
        <time>2020-06-02T10:08:17Z</time>
      </trkpt>
      <trkpt lat="46.18614" lon="-1.05457">
        <ele>16.9</ele>
        <time>2020-06-02T10:08:18Z</time>
      </trkpt>
      <trkpt lat="46.18618" lon="-1.05453">
        <ele>16.8</ele>
        <time>2020-06-02T10:08:19Z</time>
      </trkpt>
      <trkpt lat="46.18623" lon="-1.05449">
        <ele>16.7</ele>
        <time>2020-06-02T10:08:20Z</time>
      </trkpt>
      <trkpt lat="46.18626" lon="-1.05445">
        <ele>16.6</ele>
        <time>2020-06-02T10:08:21Z</time>
      </trkpt>
      <trkpt lat="46.1863" lon="-1.0544">
        <ele>16.6</ele>
        <time>2020-06-02T10:08:22Z</time>
      </trkpt>
      <trkpt lat="46.18633" lon="-1.05437">
        <ele>16.5</ele>
        <time>2020-06-02T10:08:23Z</time>
      </trkpt>
      <trkpt lat="46.18637" lon="-1.05434">
        <ele>16.5</ele>
        <time>2020-06-02T10:08:24Z</time>
      </trkpt>
      <trkpt lat="46.1864" lon="-1.05431">
        <ele>16.4</ele>
        <time>2020-06-02T10:08:25Z</time>
      </trkpt>
      <trkpt lat="46.18644" lon="-1.05427">
        <ele>16.4</ele>
        <time>2020-06-02T10:08:26Z</time>
      </trkpt>
      <trkpt lat="46.18649" lon="-1.05424">
        <ele>16.3</ele>
        <time>2020-06-02T10:08:27Z</time>
      </trkpt>
      <trkpt lat="46.18655" lon="-1.0542">
        <ele>16.3</ele>
        <time>2020-06-02T10:08:28Z</time>
      </trkpt>
      <trkpt lat="46.1866" lon="-1.05417">
        <ele>16.2</ele>
        <time>2020-06-02T10:08:29Z</time>
      </trkpt>
      <trkpt lat="46.18666" lon="-1.05414">
        <ele>16.2</ele>
        <time>2020-06-02T10:08:30Z</time>
      </trkpt>
      <trkpt lat="46.18671" lon="-1.05411">
        <ele>16.1</ele>
        <time>2020-06-02T10:08:31Z</time>
      </trkpt>
      <trkpt lat="46.18677" lon="-1.05408">
        <ele>16.1</ele>
        <time>2020-06-02T10:08:32Z</time>
      </trkpt>
      <trkpt lat="46.18682" lon="-1.05406">
        <ele>16.1</ele>
        <time>2020-06-02T10:08:33Z</time>
      </trkpt>
      <trkpt lat="46.18688" lon="-1.05404">
        <ele>16</ele>
        <time>2020-06-02T10:08:34Z</time>
      </trkpt>
      <trkpt lat="46.18695" lon="-1.05401">
        <ele>16</ele>
        <time>2020-06-02T10:08:35Z</time>
      </trkpt>
      <trkpt lat="46.187" lon="-1.054">
        <ele>16</ele>
        <time>2020-06-02T10:08:36Z</time>
      </trkpt>
      <trkpt lat="46.18706" lon="-1.054">
        <ele>16</ele>
        <time>2020-06-02T10:08:37Z</time>
      </trkpt>
      <trkpt lat="46.18714" lon="-1.054">
        <ele>16</ele>
        <time>2020-06-02T10:08:38Z</time>
      </trkpt>
      <trkpt lat="46.1872" lon="-1.05399">
        <ele>16</ele>
        <time>2020-06-02T10:08:39Z</time>
      </trkpt>
      <trkpt lat="46.18725" lon="-1.05398">
        <ele>16</ele>
        <time>2020-06-02T10:08:40Z</time>
      </trkpt>
      <trkpt lat="46.18729" lon="-1.05397">
        <ele>16</ele>
        <time>2020-06-02T10:08:41Z</time>
      </trkpt>
      <trkpt lat="46.18734" lon="-1.05397">
        <ele>16</ele>
        <time>2020-06-02T10:08:42Z</time>
      </trkpt>
      <trkpt lat="46.18738" lon="-1.05396">
        <ele>16</ele>
        <time>2020-06-02T10:08:43Z</time>
      </trkpt>
      <trkpt lat="46.18743" lon="-1.05395">
        <ele>16</ele>
        <time>2020-06-02T10:08:44Z</time>
      </trkpt>
      <trkpt lat="46.18749" lon="-1.05394">
        <ele>15.9</ele>
        <time>2020-06-02T10:08:45Z</time>
      </trkpt>
      <trkpt lat="46.18754" lon="-1.05395">
        <ele>15.9</ele>
        <time>2020-06-02T10:08:46Z</time>
      </trkpt>
      <trkpt lat="46.18759" lon="-1.05394">
        <ele>15.9</ele>
        <time>2020-06-02T10:08:47Z</time>
      </trkpt>
      <trkpt lat="46.18764" lon="-1.05394">
        <ele>15.9</ele>
        <time>2020-06-02T10:08:48Z</time>
      </trkpt>
      <trkpt lat="46.1877" lon="-1.05394">
        <ele>15.9</ele>
        <time>2020-06-02T10:08:49Z</time>
      </trkpt>
      <trkpt lat="46.18775" lon="-1.05395">
        <ele>15.9</ele>
        <time>2020-06-02T10:08:50Z</time>
      </trkpt>
      <trkpt lat="46.18781" lon="-1.05395">
        <ele>15.9</ele>
        <time>2020-06-02T10:08:51Z</time>
      </trkpt>
      <trkpt lat="46.18786" lon="-1.05397">
        <ele>15.9</ele>
        <time>2020-06-02T10:08:52Z</time>
      </trkpt>
      <trkpt lat="46.18792" lon="-1.05399">
        <ele>15.9</ele>
        <time>2020-06-02T10:08:53Z</time>
      </trkpt>
      <trkpt lat="46.18798" lon="-1.054">
        <ele>16</ele>
        <time>2020-06-02T10:08:54Z</time>
      </trkpt>
      <trkpt lat="46.18803" lon="-1.05401">
        <ele>16</ele>
        <time>2020-06-02T10:08:55Z</time>
      </trkpt>
      <trkpt lat="46.18809" lon="-1.05402">
        <ele>16</ele>
        <time>2020-06-02T10:08:56Z</time>
      </trkpt>
      <trkpt lat="46.18814" lon="-1.05403">
        <ele>16</ele>
        <time>2020-06-02T10:08:57Z</time>
      </trkpt>
      <trkpt lat="46.1882" lon="-1.05404">
        <ele>16</ele>
        <time>2020-06-02T10:08:58Z</time>
      </trkpt>
      <trkpt lat="46.18827" lon="-1.05405">
        <ele>16</ele>
        <time>2020-06-02T10:08:59Z</time>
      </trkpt>
      <trkpt lat="46.18833" lon="-1.05405">
        <ele>16</ele>
        <time>2020-06-02T10:09:00Z</time>
      </trkpt>
      <trkpt lat="46.18839" lon="-1.05406">
        <ele>16</ele>
        <time>2020-06-02T10:09:01Z</time>
      </trkpt>
      <trkpt lat="46.18845" lon="-1.05407">
        <ele>16</ele>
        <time>2020-06-02T10:09:02Z</time>
      </trkpt>
      <trkpt lat="46.18852" lon="-1.05409">
        <ele>16</ele>
        <time>2020-06-02T10:09:03Z</time>
      </trkpt>
      <trkpt lat="46.18857" lon="-1.05411">
        <ele>16</ele>
        <time>2020-06-02T10:09:04Z</time>
      </trkpt>
      <trkpt lat="46.18864" lon="-1.05412">
        <ele>16</ele>
        <time>2020-06-02T10:09:05Z</time>
      </trkpt>
      <trkpt lat="46.1887" lon="-1.05412">
        <ele>16</ele>
        <time>2020-06-02T10:09:06Z</time>
      </trkpt>
      <trkpt lat="46.18877" lon="-1.05413">
        <ele>15.9</ele>
        <time>2020-06-02T10:09:07Z</time>
      </trkpt>
      <trkpt lat="46.18883" lon="-1.05415">
        <ele>15.9</ele>
        <time>2020-06-02T10:09:08Z</time>
      </trkpt>
      <trkpt lat="46.18889" lon="-1.05417">
        <ele>15.8</ele>
        <time>2020-06-02T10:09:09Z</time>
      </trkpt>
      <trkpt lat="46.18895" lon="-1.05419">
        <ele>15.7</ele>
        <time>2020-06-02T10:09:10Z</time>
      </trkpt>
      <trkpt lat="46.18902" lon="-1.05421">
        <ele>15.6</ele>
        <time>2020-06-02T10:09:11Z</time>
      </trkpt>
      <trkpt lat="46.18909" lon="-1.05422">
        <ele>15.5</ele>
        <time>2020-06-02T10:09:12Z</time>
      </trkpt>
      <trkpt lat="46.18916" lon="-1.05424">
        <ele>15.4</ele>
        <time>2020-06-02T10:09:13Z</time>
      </trkpt>
      <trkpt lat="46.18923" lon="-1.05425">
        <ele>15.2</ele>
        <time>2020-06-02T10:09:14Z</time>
      </trkpt>
      <trkpt lat="46.1893" lon="-1.05426">
        <ele>15.1</ele>
        <time>2020-06-02T10:09:15Z</time>
      </trkpt>
      <trkpt lat="46.18937" lon="-1.05428">
        <ele>15</ele>
        <time>2020-06-02T10:09:16Z</time>
      </trkpt>
      <trkpt lat="46.18943" lon="-1.0543">
        <ele>14.8</ele>
        <time>2020-06-02T10:09:17Z</time>
      </trkpt>
      <trkpt lat="46.1895" lon="-1.05432">
        <ele>14.7</ele>
        <time>2020-06-02T10:09:18Z</time>
      </trkpt>
      <trkpt lat="46.18957" lon="-1.05434">
        <ele>14.6</ele>
        <time>2020-06-02T10:09:19Z</time>
      </trkpt>
      <trkpt lat="46.18964" lon="-1.05436">
        <ele>14.5</ele>
        <time>2020-06-02T10:09:20Z</time>
      </trkpt>
      <trkpt lat="46.18971" lon="-1.05437">
        <ele>14.3</ele>
        <time>2020-06-02T10:09:21Z</time>
      </trkpt>
      <trkpt lat="46.18978" lon="-1.05438">
        <ele>14.2</ele>
        <time>2020-06-02T10:09:22Z</time>
      </trkpt>
      <trkpt lat="46.18985" lon="-1.05439">
        <ele>14.1</ele>
        <time>2020-06-02T10:09:23Z</time>
      </trkpt>
      <trkpt lat="46.18991" lon="-1.0544">
        <ele>13.9</ele>
        <time>2020-06-02T10:09:24Z</time>
      </trkpt>
      <trkpt lat="46.18997" lon="-1.05442">
        <ele>13.8</ele>
        <time>2020-06-02T10:09:25Z</time>
      </trkpt>
      <trkpt lat="46.19003" lon="-1.05443">
        <ele>13.7</ele>
        <time>2020-06-02T10:09:26Z</time>
      </trkpt>
      <trkpt lat="46.19007" lon="-1.05444">
        <ele>13.7</ele>
        <time>2020-06-02T10:09:27Z</time>
      </trkpt>
      <trkpt lat="46.19013" lon="-1.05446">
        <ele>13.6</ele>
        <time>2020-06-02T10:09:28Z</time>
      </trkpt>
      <trkpt lat="46.19019" lon="-1.05448">
        <ele>13.5</ele>
        <time>2020-06-02T10:09:29Z</time>
      </trkpt>
      <trkpt lat="46.19025" lon="-1.0545">
        <ele>13.4</ele>
        <time>2020-06-02T10:09:30Z</time>
      </trkpt>
      <trkpt lat="46.19031" lon="-1.05451">
        <ele>13.3</ele>
        <time>2020-06-02T10:09:31Z</time>
      </trkpt>
      <trkpt lat="46.19038" lon="-1.05453">
        <ele>13.2</ele>
        <time>2020-06-02T10:09:32Z</time>
      </trkpt>
      <trkpt lat="46.19045" lon="-1.05455">
        <ele>13.1</ele>
        <time>2020-06-02T10:09:33Z</time>
      </trkpt>
      <trkpt lat="46.19052" lon="-1.05459">
        <ele>13</ele>
        <time>2020-06-02T10:09:34Z</time>
      </trkpt>
      <trkpt lat="46.1906" lon="-1.05461">
        <ele>12.9</ele>
        <time>2020-06-02T10:09:35Z</time>
      </trkpt>
      <trkpt lat="46.19068" lon="-1.05463">
        <ele>12.8</ele>
        <time>2020-06-02T10:09:36Z</time>
      </trkpt>
      <trkpt lat="46.19076" lon="-1.05465">
        <ele>12.8</ele>
        <time>2020-06-02T10:09:37Z</time>
      </trkpt>
      <trkpt lat="46.19084" lon="-1.05467">
        <ele>12.7</ele>
        <time>2020-06-02T10:09:38Z</time>
      </trkpt>
      <trkpt lat="46.19092" lon="-1.05469">
        <ele>12.7</ele>
        <time>2020-06-02T10:09:39Z</time>
      </trkpt>
      <trkpt lat="46.191" lon="-1.0547">
        <ele>12.7</ele>
        <time>2020-06-02T10:09:40Z</time>
      </trkpt>
      <trkpt lat="46.19107" lon="-1.05471">
        <ele>12.8</ele>
        <time>2020-06-02T10:09:41Z</time>
      </trkpt>
      <trkpt lat="46.19115" lon="-1.05472">
        <ele>12.8</ele>
        <time>2020-06-02T10:09:42Z</time>
      </trkpt>
      <trkpt lat="46.19122" lon="-1.05473">
        <ele>12.8</ele>
        <time>2020-06-02T10:09:43Z</time>
      </trkpt>
      <trkpt lat="46.19129" lon="-1.05474">
        <ele>12.8</ele>
        <time>2020-06-02T10:09:44Z</time>
      </trkpt>
      <trkpt lat="46.19136" lon="-1.05475">
        <ele>12.9</ele>
        <time>2020-06-02T10:09:45Z</time>
      </trkpt>
      <trkpt lat="46.19142" lon="-1.05476">
        <ele>12.9</ele>
        <time>2020-06-02T10:09:46Z</time>
      </trkpt>
      <trkpt lat="46.19149" lon="-1.05477">
        <ele>12.9</ele>
        <time>2020-06-02T10:09:47Z</time>
      </trkpt>
      <trkpt lat="46.19155" lon="-1.05477">
        <ele>12.9</ele>
        <time>2020-06-02T10:09:48Z</time>
      </trkpt>
      <trkpt lat="46.19162" lon="-1.05478">
        <ele>13</ele>
        <time>2020-06-02T10:09:49Z</time>
      </trkpt>
      <trkpt lat="46.19168" lon="-1.05479">
        <ele>13</ele>
        <time>2020-06-02T10:09:50Z</time>
      </trkpt>
      <trkpt lat="46.19174" lon="-1.0548">
        <ele>13</ele>
        <time>2020-06-02T10:09:51Z</time>
      </trkpt>
      <trkpt lat="46.1918" lon="-1.0548">
        <ele>13</ele>
        <time>2020-06-02T10:09:52Z</time>
      </trkpt>
      <trkpt lat="46.19186" lon="-1.05482">
        <ele>13</ele>
        <time>2020-06-02T10:09:53Z</time>
      </trkpt>
      <trkpt lat="46.19191" lon="-1.05483">
        <ele>13</ele>
        <time>2020-06-02T10:09:54Z</time>
      </trkpt>
      <trkpt lat="46.19198" lon="-1.05483">
        <ele>13</ele>
        <time>2020-06-02T10:09:55Z</time>
      </trkpt>
      <trkpt lat="46.19205" lon="-1.05484">
        <ele>13</ele>
        <time>2020-06-02T10:09:56Z</time>
      </trkpt>
      <trkpt lat="46.19212" lon="-1.05485">
        <ele>13</ele>
        <time>2020-06-02T10:09:57Z</time>
      </trkpt>
      <trkpt lat="46.19219" lon="-1.05486">
        <ele>13</ele>
        <time>2020-06-02T10:09:58Z</time>
      </trkpt>
      <trkpt lat="46.19226" lon="-1.05488">
        <ele>13.1</ele>
        <time>2020-06-02T10:09:59Z</time>
      </trkpt>
      <trkpt lat="46.19232" lon="-1.05489">
        <ele>13.1</ele>
        <time>2020-06-02T10:10:00Z</time>
      </trkpt>
      <trkpt lat="46.1924" lon="-1.05491">
        <ele>13.1</ele>
        <time>2020-06-02T10:10:01Z</time>
      </trkpt>
      <trkpt lat="46.19246" lon="-1.05493">
        <ele>13.1</ele>
        <time>2020-06-02T10:10:02Z</time>
      </trkpt>
      <trkpt lat="46.19253" lon="-1.05494">
        <ele>13.2</ele>
        <time>2020-06-02T10:10:03Z</time>
      </trkpt>
      <trkpt lat="46.1926" lon="-1.05496">
        <ele>13.2</ele>
        <time>2020-06-02T10:10:04Z</time>
      </trkpt>
      <trkpt lat="46.19267" lon="-1.05497">
        <ele>13.2</ele>
        <time>2020-06-02T10:10:05Z</time>
      </trkpt>
      <trkpt lat="46.19274" lon="-1.05499">
        <ele>13.2</ele>
        <time>2020-06-02T10:10:06Z</time>
      </trkpt>
      <trkpt lat="46.1928" lon="-1.055">
        <ele>13.3</ele>
        <time>2020-06-02T10:10:07Z</time>
      </trkpt>
      <trkpt lat="46.19286" lon="-1.05502">
        <ele>13.3</ele>
        <time>2020-06-02T10:10:08Z</time>
      </trkpt>
      <trkpt lat="46.19292" lon="-1.05502">
        <ele>13.3</ele>
        <time>2020-06-02T10:10:09Z</time>
      </trkpt>
      <trkpt lat="46.19299" lon="-1.05503">
        <ele>13.3</ele>
        <time>2020-06-02T10:10:10Z</time>
      </trkpt>
      <trkpt lat="46.19306" lon="-1.05505">
        <ele>13.4</ele>
        <time>2020-06-02T10:10:11Z</time>
      </trkpt>
      <trkpt lat="46.19311" lon="-1.05506">
        <ele>13.4</ele>
        <time>2020-06-02T10:10:12Z</time>
      </trkpt>
      <trkpt lat="46.19317" lon="-1.05507">
        <ele>13.5</ele>
        <time>2020-06-02T10:10:13Z</time>
      </trkpt>
      <trkpt lat="46.19321" lon="-1.05509">
        <ele>13.5</ele>
        <time>2020-06-02T10:10:14Z</time>
      </trkpt>
      <trkpt lat="46.19325" lon="-1.0551">
        <ele>13.5</ele>
        <time>2020-06-02T10:10:15Z</time>
      </trkpt>
      <trkpt lat="46.19329" lon="-1.05511">
        <ele>13.5</ele>
        <time>2020-06-02T10:10:16Z</time>
      </trkpt>
      <trkpt lat="46.19334" lon="-1.05512">
        <ele>13.6</ele>
        <time>2020-06-02T10:10:17Z</time>
      </trkpt>
      <trkpt lat="46.19339" lon="-1.05514">
        <ele>13.6</ele>
        <time>2020-06-02T10:10:18Z</time>
      </trkpt>
      <trkpt lat="46.19345" lon="-1.05515">
        <ele>13.6</ele>
        <time>2020-06-02T10:10:19Z</time>
      </trkpt>
      <trkpt lat="46.1935" lon="-1.05516">
        <ele>13.7</ele>
        <time>2020-06-02T10:10:20Z</time>
      </trkpt>
      <trkpt lat="46.19354" lon="-1.05518">
        <ele>13.7</ele>
        <time>2020-06-02T10:10:21Z</time>
      </trkpt>
      <trkpt lat="46.19358" lon="-1.05519">
        <ele>13.7</ele>
        <time>2020-06-02T10:10:22Z</time>
      </trkpt>
      <trkpt lat="46.19364" lon="-1.0552">
        <ele>13.8</ele>
        <time>2020-06-02T10:10:23Z</time>
      </trkpt>
      <trkpt lat="46.19369" lon="-1.0552">
        <ele>13.8</ele>
        <time>2020-06-02T10:10:24Z</time>
      </trkpt>
      <trkpt lat="46.19376" lon="-1.05519">
        <ele>13.8</ele>
        <time>2020-06-02T10:10:25Z</time>
      </trkpt>
      <trkpt lat="46.19381" lon="-1.0552">
        <ele>13.8</ele>
        <time>2020-06-02T10:10:26Z</time>
      </trkpt>
      <trkpt lat="46.19387" lon="-1.05521">
        <ele>13.7</ele>
        <time>2020-06-02T10:10:27Z</time>
      </trkpt>
      <trkpt lat="46.19392" lon="-1.05523">
        <ele>13.7</ele>
        <time>2020-06-02T10:10:28Z</time>
      </trkpt>
      <trkpt lat="46.19397" lon="-1.05524">
        <ele>13.7</ele>
        <time>2020-06-02T10:10:29Z</time>
      </trkpt>
      <trkpt lat="46.19403" lon="-1.05524">
        <ele>13.7</ele>
        <time>2020-06-02T10:10:30Z</time>
      </trkpt>
      <trkpt lat="46.19409" lon="-1.05523">
        <ele>13.7</ele>
        <time>2020-06-02T10:10:31Z</time>
      </trkpt>
      <trkpt lat="46.19416" lon="-1.05522">
        <ele>13.6</ele>
        <time>2020-06-02T10:10:32Z</time>
      </trkpt>
      <trkpt lat="46.19421" lon="-1.05523">
        <ele>13.6</ele>
        <time>2020-06-02T10:10:33Z</time>
      </trkpt>
      <trkpt lat="46.19427" lon="-1.05523">
        <ele>13.6</ele>
        <time>2020-06-02T10:10:34Z</time>
      </trkpt>
      <trkpt lat="46.19431" lon="-1.05524">
        <ele>13.5</ele>
        <time>2020-06-02T10:10:35Z</time>
      </trkpt>
      <trkpt lat="46.19436" lon="-1.05524">
        <ele>13.5</ele>
        <time>2020-06-02T10:10:36Z</time>
      </trkpt>
      <trkpt lat="46.19441" lon="-1.05523">
        <ele>13.5</ele>
        <time>2020-06-02T10:10:37Z</time>
      </trkpt>
      <trkpt lat="46.19446" lon="-1.05522">
        <ele>13.5</ele>
        <time>2020-06-02T10:10:38Z</time>
      </trkpt>
      <trkpt lat="46.19452" lon="-1.05521">
        <ele>13.5</ele>
        <time>2020-06-02T10:10:39Z</time>
      </trkpt>
      <trkpt lat="46.19456" lon="-1.0552">
        <ele>13.5</ele>
        <time>2020-06-02T10:10:40Z</time>
      </trkpt>
      <trkpt lat="46.19459" lon="-1.0552">
        <ele>13.5</ele>
        <time>2020-06-02T10:10:41Z</time>
      </trkpt>
      <trkpt lat="46.19462" lon="-1.05519">
        <ele>13.5</ele>
        <time>2020-06-02T10:10:42Z</time>
      </trkpt>
      <trkpt lat="46.19466" lon="-1.05519">
        <ele>13.5</ele>
        <time>2020-06-02T10:10:43Z</time>
      </trkpt>
      <trkpt lat="46.1947" lon="-1.05519">
        <ele>13.5</ele>
        <time>2020-06-02T10:10:44Z</time>
      </trkpt>
      <trkpt lat="46.19474" lon="-1.05518">
        <ele>13.5</ele>
        <time>2020-06-02T10:10:45Z</time>
      </trkpt>
      <trkpt lat="46.19477" lon="-1.05517">
        <ele>13.5</ele>
        <time>2020-06-02T10:10:46Z</time>
      </trkpt>
      <trkpt lat="46.1948" lon="-1.05517">
        <ele>13.5</ele>
        <time>2020-06-02T10:10:47Z</time>
      </trkpt>
      <trkpt lat="46.19483" lon="-1.05516">
        <ele>13.5</ele>
        <time>2020-06-02T10:10:48Z</time>
      </trkpt>
      <trkpt lat="46.19484" lon="-1.05516">
        <ele>13.5</ele>
        <time>2020-06-02T10:10:49Z</time>
      </trkpt>
      <trkpt lat="46.19486" lon="-1.05516">
        <ele>13.5</ele>
        <time>2020-06-02T10:10:50Z</time>
      </trkpt>
      <trkpt lat="46.19487" lon="-1.05514">
        <ele>13.5</ele>
        <time>2020-06-02T10:10:51Z</time>
      </trkpt>
      <trkpt lat="46.19487" lon="-1.05514">
        <ele>13.5</ele>
        <time>2020-06-02T10:10:52Z</time>
      </trkpt>
      <trkpt lat="46.19487" lon="-1.05514">
        <ele>13.5</ele>
        <time>2020-06-02T10:10:53Z</time>
      </trkpt>
      <trkpt lat="46.19488" lon="-1.05513">
        <ele>13.5</ele>
        <time>2020-06-02T10:10:54Z</time>
      </trkpt>
      <trkpt lat="46.19489" lon="-1.05513">
        <ele>13.5</ele>
        <time>2020-06-02T10:10:55Z</time>
      </trkpt>
      <trkpt lat="46.19489" lon="-1.05514">
        <ele>13.5</ele>
        <time>2020-06-02T10:10:56Z</time>
      </trkpt>
      <trkpt lat="46.1949" lon="-1.05514">
        <ele>13.5</ele>
        <time>2020-06-02T10:10:57Z</time>
      </trkpt>
      <trkpt lat="46.19491" lon="-1.05516">
        <ele>13.5</ele>
        <time>2020-06-02T10:10:58Z</time>
      </trkpt>
      <trkpt lat="46.19492" lon="-1.05518">
        <ele>13.4</ele>
        <time>2020-06-02T10:10:59Z</time>
      </trkpt>
      <trkpt lat="46.19493" lon="-1.05522">
        <ele>13.4</ele>
        <time>2020-06-02T10:11:00Z</time>
      </trkpt>
      <trkpt lat="46.19494" lon="-1.05523">
        <ele>13.6</ele>
        <time>2020-06-02T10:11:01Z</time>
      </trkpt>
      <trkpt lat="46.19495" lon="-1.05526">
        <ele>13.6</ele>
        <time>2020-06-02T10:11:02Z</time>
      </trkpt>
      <trkpt lat="46.19495" lon="-1.05528">
        <ele>13.6</ele>
        <time>2020-06-02T10:11:03Z</time>
      </trkpt>
      <trkpt lat="46.19495" lon="-1.05531">
        <ele>13.6</ele>
        <time>2020-06-02T10:11:04Z</time>
      </trkpt>
      <trkpt lat="46.19494" lon="-1.05532">
        <ele>13.7</ele>
        <time>2020-06-02T10:11:05Z</time>
      </trkpt>
      <trkpt lat="46.19491" lon="-1.05535">
        <ele>13.7</ele>
        <time>2020-06-02T10:11:06Z</time>
      </trkpt>
      <trkpt lat="46.1949" lon="-1.05536">
        <ele>13.7</ele>
        <time>2020-06-02T10:11:07Z</time>
      </trkpt>
      <trkpt lat="46.19488" lon="-1.05539">
        <ele>13.9</ele>
        <time>2020-06-02T10:11:08Z</time>
      </trkpt>
      <trkpt lat="46.19485" lon="-1.05541">
        <ele>13.9</ele>
        <time>2020-06-02T10:11:09Z</time>
      </trkpt>
      <trkpt lat="46.19482" lon="-1.05544">
        <ele>14</ele>
        <time>2020-06-02T10:11:10Z</time>
      </trkpt>
      <trkpt lat="46.19479" lon="-1.05547">
        <ele>14.1</ele>
        <time>2020-06-02T10:11:11Z</time>
      </trkpt>
      <trkpt lat="46.19477" lon="-1.0555">
        <ele>14.2</ele>
        <time>2020-06-02T10:11:12Z</time>
      </trkpt>
      <trkpt lat="46.19474" lon="-1.05553">
        <ele>14.4</ele>
        <time>2020-06-02T10:11:13Z</time>
      </trkpt>
      <trkpt lat="46.19471" lon="-1.05556">
        <ele>14.5</ele>
        <time>2020-06-02T10:11:14Z</time>
      </trkpt>
      <trkpt lat="46.19468" lon="-1.05561">
        <ele>14.8</ele>
        <time>2020-06-02T10:11:15Z</time>
      </trkpt>
      <trkpt lat="46.19466" lon="-1.05566">
        <ele>14.8</ele>
        <time>2020-06-02T10:11:16Z</time>
      </trkpt>
      <trkpt lat="46.19465" lon="-1.05568">
        <ele>14.8</ele>
        <time>2020-06-02T10:11:17Z</time>
      </trkpt>
      <trkpt lat="46.19465" lon="-1.05571">
        <ele>14.9</ele>
        <time>2020-06-02T10:11:18Z</time>
      </trkpt>
      <trkpt lat="46.19466" lon="-1.05574">
        <ele>14.9</ele>
        <time>2020-06-02T10:11:19Z</time>
      </trkpt>
      <trkpt lat="46.19466" lon="-1.05575">
        <ele>14.9</ele>
        <time>2020-06-02T10:11:20Z</time>
      </trkpt>
      <trkpt lat="46.19467" lon="-1.0558">
        <ele>15</ele>
        <time>2020-06-02T10:11:21Z</time>
      </trkpt>
      <trkpt lat="46.19468" lon="-1.05585">
        <ele>15</ele>
        <time>2020-06-02T10:11:22Z</time>
      </trkpt>
      <trkpt lat="46.19469" lon="-1.05591">
        <ele>15.1</ele>
        <time>2020-06-02T10:11:23Z</time>
      </trkpt>
      <trkpt lat="46.1947" lon="-1.05596">
        <ele>15.1</ele>
        <time>2020-06-02T10:11:24Z</time>
      </trkpt>
      <trkpt lat="46.19471" lon="-1.05602">
        <ele>15.2</ele>
        <time>2020-06-02T10:11:25Z</time>
      </trkpt>
      <trkpt lat="46.19472" lon="-1.05608">
        <ele>15.3</ele>
        <time>2020-06-02T10:11:26Z</time>
      </trkpt>
      <trkpt lat="46.19474" lon="-1.05613">
        <ele>15.4</ele>
        <time>2020-06-02T10:11:27Z</time>
      </trkpt>
      <trkpt lat="46.19474" lon="-1.05618">
        <ele>15.5</ele>
        <time>2020-06-02T10:11:28Z</time>
      </trkpt>
      <trkpt lat="46.19475" lon="-1.05624">
        <ele>15.6</ele>
        <time>2020-06-02T10:11:29Z</time>
      </trkpt>
      <trkpt lat="46.19476" lon="-1.05629">
        <ele>15.7</ele>
        <time>2020-06-02T10:11:30Z</time>
      </trkpt>
      <trkpt lat="46.19477" lon="-1.05634">
        <ele>15.8</ele>
        <time>2020-06-02T10:11:31Z</time>
      </trkpt>
      <trkpt lat="46.19478" lon="-1.05639">
        <ele>15.9</ele>
        <time>2020-06-02T10:11:32Z</time>
      </trkpt>
      <trkpt lat="46.19479" lon="-1.05644">
        <ele>16.1</ele>
        <time>2020-06-02T10:11:33Z</time>
      </trkpt>
      <trkpt lat="46.1948" lon="-1.05649">
        <ele>16.2</ele>
        <time>2020-06-02T10:11:34Z</time>
      </trkpt>
      <trkpt lat="46.19481" lon="-1.05653">
        <ele>16.3</ele>
        <time>2020-06-02T10:11:35Z</time>
      </trkpt>
      <trkpt lat="46.19481" lon="-1.05657">
        <ele>16.4</ele>
        <time>2020-06-02T10:11:36Z</time>
      </trkpt>
      <trkpt lat="46.19482" lon="-1.05663">
        <ele>16.5</ele>
        <time>2020-06-02T10:11:37Z</time>
      </trkpt>
      <trkpt lat="46.19483" lon="-1.05668">
        <ele>16.7</ele>
        <time>2020-06-02T10:11:38Z</time>
      </trkpt>
      <trkpt lat="46.19484" lon="-1.05674">
        <ele>16.8</ele>
        <time>2020-06-02T10:11:39Z</time>
      </trkpt>
      <trkpt lat="46.19485" lon="-1.05679">
        <ele>16.8</ele>
        <time>2020-06-02T10:11:40Z</time>
      </trkpt>
      <trkpt lat="46.19485" lon="-1.05683">
        <ele>16.9</ele>
        <time>2020-06-02T10:11:41Z</time>
      </trkpt>
      <trkpt lat="46.19485" lon="-1.05688">
        <ele>17</ele>
        <time>2020-06-02T10:11:42Z</time>
      </trkpt>
      <trkpt lat="46.19485" lon="-1.05693">
        <ele>17.1</ele>
        <time>2020-06-02T10:11:43Z</time>
      </trkpt>
      <trkpt lat="46.19485" lon="-1.05694">
        <ele>17.1</ele>
        <time>2020-06-02T10:11:44Z</time>
      </trkpt>
      <trkpt lat="46.19486" lon="-1.05699">
        <ele>17.2</ele>
        <time>2020-06-02T10:11:45Z</time>
      </trkpt>
      <trkpt lat="46.19486" lon="-1.05704">
        <ele>17.3</ele>
        <time>2020-06-02T10:11:46Z</time>
      </trkpt>
      <trkpt lat="46.19487" lon="-1.05708">
        <ele>17.5</ele>
        <time>2020-06-02T10:11:47Z</time>
      </trkpt>
      <trkpt lat="46.19487" lon="-1.05713">
        <ele>17.6</ele>
        <time>2020-06-02T10:11:48Z</time>
      </trkpt>
      <trkpt lat="46.19488" lon="-1.05718">
        <ele>17.7</ele>
        <time>2020-06-02T10:11:49Z</time>
      </trkpt>
      <trkpt lat="46.19488" lon="-1.0572">
        <ele>17.8</ele>
        <time>2020-06-02T10:11:50Z</time>
      </trkpt>
      <trkpt lat="46.19489" lon="-1.05725">
        <ele>17.9</ele>
        <time>2020-06-02T10:11:51Z</time>
      </trkpt>
      <trkpt lat="46.1949" lon="-1.05727">
        <ele>17.9</ele>
        <time>2020-06-02T10:11:52Z</time>
      </trkpt>
      <trkpt lat="46.1949" lon="-1.0573">
        <ele>18</ele>
        <time>2020-06-02T10:11:53Z</time>
      </trkpt>
      <trkpt lat="46.19491" lon="-1.05732">
        <ele>18</ele>
        <time>2020-06-02T10:11:54Z</time>
      </trkpt>
      <trkpt lat="46.19492" lon="-1.05737">
        <ele>18.2</ele>
        <time>2020-06-02T10:11:55Z</time>
      </trkpt>
      <trkpt lat="46.19492" lon="-1.05739">
        <ele>18.2</ele>
        <time>2020-06-02T10:11:56Z</time>
      </trkpt>
      <trkpt lat="46.19493" lon="-1.05743">
        <ele>18.3</ele>
        <time>2020-06-02T10:11:57Z</time>
      </trkpt>
      <trkpt lat="46.19494" lon="-1.05748">
        <ele>18.4</ele>
        <time>2020-06-02T10:11:58Z</time>
      </trkpt>
      <trkpt lat="46.19495" lon="-1.05749">
        <ele>18.5</ele>
        <time>2020-06-02T10:11:59Z</time>
      </trkpt>
      <trkpt lat="46.19496" lon="-1.05753">
        <ele>18.6</ele>
        <time>2020-06-02T10:12:00Z</time>
      </trkpt>
      <trkpt lat="46.19497" lon="-1.05758">
        <ele>18.7</ele>
        <time>2020-06-02T10:12:01Z</time>
      </trkpt>
      <trkpt lat="46.19498" lon="-1.05759">
        <ele>18.7</ele>
        <time>2020-06-02T10:12:02Z</time>
      </trkpt>
      <trkpt lat="46.19498" lon="-1.05764">
        <ele>18.8</ele>
        <time>2020-06-02T10:12:03Z</time>
      </trkpt>
      <trkpt lat="46.19498" lon="-1.05769">
        <ele>19</ele>
        <time>2020-06-02T10:12:04Z</time>
      </trkpt>
      <trkpt lat="46.19498" lon="-1.05771">
        <ele>19</ele>
        <time>2020-06-02T10:12:05Z</time>
      </trkpt>
      <trkpt lat="46.19498" lon="-1.05776">
        <ele>19.1</ele>
        <time>2020-06-02T10:12:06Z</time>
      </trkpt>
      <trkpt lat="46.19498" lon="-1.05777">
        <ele>19.1</ele>
        <time>2020-06-02T10:12:07Z</time>
      </trkpt>
      <trkpt lat="46.19498" lon="-1.05782">
        <ele>19.2</ele>
        <time>2020-06-02T10:12:08Z</time>
      </trkpt>
      <trkpt lat="46.19499" lon="-1.05784">
        <ele>19.2</ele>
        <time>2020-06-02T10:12:09Z</time>
      </trkpt>
      <trkpt lat="46.19499" lon="-1.05788">
        <ele>19.3</ele>
        <time>2020-06-02T10:12:10Z</time>
      </trkpt>
      <trkpt lat="46.195" lon="-1.05792">
        <ele>19.4</ele>
        <time>2020-06-02T10:12:11Z</time>
      </trkpt>
      <trkpt lat="46.19501" lon="-1.05798">
        <ele>19.5</ele>
        <time>2020-06-02T10:12:12Z</time>
      </trkpt>
      <trkpt lat="46.19501" lon="-1.058">
        <ele>19.5</ele>
        <time>2020-06-02T10:12:13Z</time>
      </trkpt>
      <trkpt lat="46.19503" lon="-1.05805">
        <ele>19.6</ele>
        <time>2020-06-02T10:12:14Z</time>
      </trkpt>
      <trkpt lat="46.19504" lon="-1.0581">
        <ele>19.7</ele>
        <time>2020-06-02T10:12:15Z</time>
      </trkpt>
      <trkpt lat="46.19506" lon="-1.05815">
        <ele>19.8</ele>
        <time>2020-06-02T10:12:16Z</time>
      </trkpt>
      <trkpt lat="46.19509" lon="-1.0582">
        <ele>19.9</ele>
        <time>2020-06-02T10:12:17Z</time>
      </trkpt>
      <trkpt lat="46.19511" lon="-1.05827">
        <ele>20</ele>
        <time>2020-06-02T10:12:18Z</time>
      </trkpt>
      <trkpt lat="46.19513" lon="-1.05835">
        <ele>20.1</ele>
        <time>2020-06-02T10:12:19Z</time>
      </trkpt>
      <trkpt lat="46.19515" lon="-1.05842">
        <ele>20.2</ele>
        <time>2020-06-02T10:12:20Z</time>
      </trkpt>
      <trkpt lat="46.19517" lon="-1.05847">
        <ele>20.2</ele>
        <time>2020-06-02T10:12:21Z</time>
      </trkpt>
      <trkpt lat="46.19517" lon="-1.05853">
        <ele>20.3</ele>
        <time>2020-06-02T10:12:22Z</time>
      </trkpt>
      <trkpt lat="46.19518" lon="-1.0586">
        <ele>20.3</ele>
        <time>2020-06-02T10:12:23Z</time>
      </trkpt>
      <trkpt lat="46.19518" lon="-1.05865">
        <ele>20.3</ele>
        <time>2020-06-02T10:12:24Z</time>
      </trkpt>
      <trkpt lat="46.19519" lon="-1.05872">
        <ele>20.4</ele>
        <time>2020-06-02T10:12:25Z</time>
      </trkpt>
      <trkpt lat="46.19521" lon="-1.05879">
        <ele>20.4</ele>
        <time>2020-06-02T10:12:26Z</time>
      </trkpt>
      <trkpt lat="46.1952" lon="-1.05884">
        <ele>20.4</ele>
        <time>2020-06-02T10:12:27Z</time>
      </trkpt>
      <trkpt lat="46.19519" lon="-1.0589">
        <ele>20.5</ele>
        <time>2020-06-02T10:12:28Z</time>
      </trkpt>
      <trkpt lat="46.19517" lon="-1.05895">
        <ele>20.5</ele>
        <time>2020-06-02T10:12:29Z</time>
      </trkpt>
      <trkpt lat="46.19515" lon="-1.059">
        <ele>20.5</ele>
        <time>2020-06-02T10:12:30Z</time>
      </trkpt>
      <trkpt lat="46.19513" lon="-1.05906">
        <ele>20.5</ele>
        <time>2020-06-02T10:12:31Z</time>
      </trkpt>
      <trkpt lat="46.19512" lon="-1.05911">
        <ele>20.6</ele>
        <time>2020-06-02T10:12:32Z</time>
      </trkpt>
      <trkpt lat="46.19509" lon="-1.05916">
        <ele>20.6</ele>
        <time>2020-06-02T10:12:33Z</time>
      </trkpt>
      <trkpt lat="46.19507" lon="-1.05922">
        <ele>20.6</ele>
        <time>2020-06-02T10:12:34Z</time>
      </trkpt>
      <trkpt lat="46.19505" lon="-1.05927">
        <ele>20.7</ele>
        <time>2020-06-02T10:12:35Z</time>
      </trkpt>
      <trkpt lat="46.19502" lon="-1.05933">
        <ele>20.8</ele>
        <time>2020-06-02T10:12:36Z</time>
      </trkpt>
      <trkpt lat="46.195" lon="-1.05939">
        <ele>20.8</ele>
        <time>2020-06-02T10:12:37Z</time>
      </trkpt>
      <trkpt lat="46.19499" lon="-1.05944">
        <ele>20.8</ele>
        <time>2020-06-02T10:12:38Z</time>
      </trkpt>
      <trkpt lat="46.19497" lon="-1.05951">
        <ele>20.9</ele>
        <time>2020-06-02T10:12:39Z</time>
      </trkpt>
      <trkpt lat="46.19495" lon="-1.05957">
        <ele>20.9</ele>
        <time>2020-06-02T10:12:40Z</time>
      </trkpt>
      <trkpt lat="46.19494" lon="-1.05963">
        <ele>20.9</ele>
        <time>2020-06-02T10:12:41Z</time>
      </trkpt>
      <trkpt lat="46.19493" lon="-1.0597">
        <ele>21</ele>
        <time>2020-06-02T10:12:42Z</time>
      </trkpt>
      <trkpt lat="46.19492" lon="-1.05977">
        <ele>21</ele>
        <time>2020-06-02T10:12:43Z</time>
      </trkpt>
      <trkpt lat="46.1949" lon="-1.05985">
        <ele>21</ele>
        <time>2020-06-02T10:12:44Z</time>
      </trkpt>
      <trkpt lat="46.19489" lon="-1.05992">
        <ele>21</ele>
        <time>2020-06-02T10:12:45Z</time>
      </trkpt>
      <trkpt lat="46.19488" lon="-1.06">
        <ele>21</ele>
        <time>2020-06-02T10:12:46Z</time>
      </trkpt>
      <trkpt lat="46.19486" lon="-1.06008">
        <ele>21.1</ele>
        <time>2020-06-02T10:12:47Z</time>
      </trkpt>
      <trkpt lat="46.19484" lon="-1.06015">
        <ele>21.1</ele>
        <time>2020-06-02T10:12:48Z</time>
      </trkpt>
      <trkpt lat="46.19482" lon="-1.06022">
        <ele>21.1</ele>
        <time>2020-06-02T10:12:49Z</time>
      </trkpt>
      <trkpt lat="46.19481" lon="-1.06029">
        <ele>21.2</ele>
        <time>2020-06-02T10:12:50Z</time>
      </trkpt>
      <trkpt lat="46.19479" lon="-1.06035">
        <ele>21.2</ele>
        <time>2020-06-02T10:12:51Z</time>
      </trkpt>
      <trkpt lat="46.19478" lon="-1.06041">
        <ele>21.3</ele>
        <time>2020-06-02T10:12:52Z</time>
      </trkpt>
      <trkpt lat="46.19478" lon="-1.06048">
        <ele>21.4</ele>
        <time>2020-06-02T10:12:53Z</time>
      </trkpt>
      <trkpt lat="46.19477" lon="-1.06053">
        <ele>21.4</ele>
        <time>2020-06-02T10:12:54Z</time>
      </trkpt>
      <trkpt lat="46.19478" lon="-1.06059">
        <ele>21.5</ele>
        <time>2020-06-02T10:12:55Z</time>
      </trkpt>
      <trkpt lat="46.19477" lon="-1.06066">
        <ele>21.5</ele>
        <time>2020-06-02T10:12:56Z</time>
      </trkpt>
      <trkpt lat="46.19477" lon="-1.06072">
        <ele>21.6</ele>
        <time>2020-06-02T10:12:57Z</time>
      </trkpt>
      <trkpt lat="46.19476" lon="-1.06078">
        <ele>21.7</ele>
        <time>2020-06-02T10:12:58Z</time>
      </trkpt>
      <trkpt lat="46.19475" lon="-1.06083">
        <ele>21.8</ele>
        <time>2020-06-02T10:12:59Z</time>
      </trkpt>
      <trkpt lat="46.19473" lon="-1.06087">
        <ele>21.8</ele>
        <time>2020-06-02T10:13:00Z</time>
      </trkpt>
      <trkpt lat="46.19471" lon="-1.0609">
        <ele>21.9</ele>
        <time>2020-06-02T10:13:01Z</time>
      </trkpt>
      <trkpt lat="46.19468" lon="-1.06091">
        <ele>22</ele>
        <time>2020-06-02T10:13:02Z</time>
      </trkpt>
      <trkpt lat="46.19464" lon="-1.06094">
        <ele>22.1</ele>
        <time>2020-06-02T10:13:03Z</time>
      </trkpt>
      <trkpt lat="46.1946" lon="-1.06096">
        <ele>22.2</ele>
        <time>2020-06-02T10:13:04Z</time>
      </trkpt>
      <trkpt lat="46.19457" lon="-1.061">
        <ele>22.2</ele>
        <time>2020-06-02T10:13:05Z</time>
      </trkpt>
      <trkpt lat="46.19455" lon="-1.06105">
        <ele>22.3</ele>
        <time>2020-06-02T10:13:06Z</time>
      </trkpt>
      <trkpt lat="46.19453" lon="-1.0611">
        <ele>22.4</ele>
        <time>2020-06-02T10:13:07Z</time>
      </trkpt>
      <trkpt lat="46.19451" lon="-1.06116">
        <ele>22.5</ele>
        <time>2020-06-02T10:13:08Z</time>
      </trkpt>
      <trkpt lat="46.1945" lon="-1.06121">
        <ele>22.6</ele>
        <time>2020-06-02T10:13:09Z</time>
      </trkpt>
      <trkpt lat="46.19448" lon="-1.06126">
        <ele>22.7</ele>
        <time>2020-06-02T10:13:10Z</time>
      </trkpt>
      <trkpt lat="46.19446" lon="-1.0613">
        <ele>22.8</ele>
        <time>2020-06-02T10:13:11Z</time>
      </trkpt>
      <trkpt lat="46.19444" lon="-1.06134">
        <ele>22.9</ele>
        <time>2020-06-02T10:13:12Z</time>
      </trkpt>
      <trkpt lat="46.19442" lon="-1.06138">
        <ele>22.9</ele>
        <time>2020-06-02T10:13:13Z</time>
      </trkpt>
      <trkpt lat="46.19439" lon="-1.06138">
        <ele>23</ele>
        <time>2020-06-02T10:13:14Z</time>
      </trkpt>
      <trkpt lat="46.19435" lon="-1.06138">
        <ele>23.1</ele>
        <time>2020-06-02T10:13:15Z</time>
      </trkpt>
      <trkpt lat="46.19431" lon="-1.06139">
        <ele>23.1</ele>
        <time>2020-06-02T10:13:16Z</time>
      </trkpt>
      <trkpt lat="46.19428" lon="-1.0614">
        <ele>23.2</ele>
        <time>2020-06-02T10:13:17Z</time>
      </trkpt>
      <trkpt lat="46.19425" lon="-1.06142">
        <ele>23.3</ele>
        <time>2020-06-02T10:13:18Z</time>
      </trkpt>
      <trkpt lat="46.19421" lon="-1.06144">
        <ele>23.3</ele>
        <time>2020-06-02T10:13:19Z</time>
      </trkpt>
      <trkpt lat="46.1942" lon="-1.06145">
        <ele>23.3</ele>
        <time>2020-06-02T10:13:20Z</time>
      </trkpt>
      <trkpt lat="46.19419" lon="-1.06148">
        <ele>23.4</ele>
        <time>2020-06-02T10:13:21Z</time>
      </trkpt>
      <trkpt lat="46.19418" lon="-1.0615">
        <ele>23.4</ele>
        <time>2020-06-02T10:13:22Z</time>
      </trkpt>
      <trkpt lat="46.19419" lon="-1.06154">
        <ele>23.5</ele>
        <time>2020-06-02T10:13:23Z</time>
      </trkpt>
      <trkpt lat="46.1942" lon="-1.06156">
        <ele>23.6</ele>
        <time>2020-06-02T10:13:24Z</time>
      </trkpt>
      <trkpt lat="46.19421" lon="-1.0616">
        <ele>23.6</ele>
        <time>2020-06-02T10:13:25Z</time>
      </trkpt>
      <trkpt lat="46.19421" lon="-1.06161">
        <ele>23.6</ele>
        <time>2020-06-02T10:13:26Z</time>
      </trkpt>
      <trkpt lat="46.19421" lon="-1.06162">
        <ele>23.6</ele>
        <time>2020-06-02T10:13:27Z</time>
      </trkpt>
      <trkpt lat="46.19422" lon="-1.06162">
        <ele>23.6</ele>
        <time>2020-06-02T10:13:28Z</time>
      </trkpt>
      <trkpt lat="46.19422" lon="-1.06162">
        <ele>23.6</ele>
        <time>2020-06-02T10:13:29Z</time>
      </trkpt>
      <trkpt lat="46.19422" lon="-1.06162">
        <ele>23.6</ele>
        <time>2020-06-02T10:13:30Z</time>
      </trkpt>
      <trkpt lat="46.19422" lon="-1.06162">
        <ele>23.6</ele>
        <time>2020-06-02T10:13:31Z</time>
      </trkpt>
      <trkpt lat="46.19422" lon="-1.06161">
        <ele>23.6</ele>
        <time>2020-06-02T10:13:32Z</time>
      </trkpt>
      <trkpt lat="46.19422" lon="-1.06161">
        <ele>23.6</ele>
        <time>2020-06-02T10:13:33Z</time>
      </trkpt>
      <trkpt lat="46.19422" lon="-1.06162">
        <ele>23.6</ele>
        <time>2020-06-02T10:13:34Z</time>
      </trkpt>
      <trkpt lat="46.19422" lon="-1.06162">
        <ele>23.6</ele>
        <time>2020-06-02T10:13:35Z</time>
      </trkpt>
      <trkpt lat="46.19422" lon="-1.06162">
        <ele>23.6</ele>
        <time>2020-06-02T10:13:36Z</time>
      </trkpt>
      <trkpt lat="46.19422" lon="-1.06162">
        <ele>23.6</ele>
        <time>2020-06-02T10:13:37Z</time>
      </trkpt>
      <trkpt lat="46.19423" lon="-1.06163">
        <ele>23.6</ele>
        <time>2020-06-02T10:13:38Z</time>
      </trkpt>
      <trkpt lat="46.19424" lon="-1.06164">
        <ele>23.6</ele>
        <time>2020-06-02T10:13:39Z</time>
      </trkpt>
      <trkpt lat="46.19425" lon="-1.06163">
        <ele>23.7</ele>
        <time>2020-06-02T10:13:40Z</time>
      </trkpt>
      <trkpt lat="46.19427" lon="-1.06164">
        <ele>23.7</ele>
        <time>2020-06-02T10:13:41Z</time>
      </trkpt>
      <trkpt lat="46.19429" lon="-1.06162">
        <ele>23.7</ele>
        <time>2020-06-02T10:13:42Z</time>
      </trkpt>
      <trkpt lat="46.1943" lon="-1.06162">
        <ele>23.7</ele>
        <time>2020-06-02T10:13:43Z</time>
      </trkpt>
      <trkpt lat="46.19433" lon="-1.0616">
        <ele>23.7</ele>
        <time>2020-06-02T10:13:44Z</time>
      </trkpt>
      <trkpt lat="46.19436" lon="-1.06157">
        <ele>23.7</ele>
        <time>2020-06-02T10:13:45Z</time>
      </trkpt>
      <trkpt lat="46.1944" lon="-1.06154">
        <ele>23.7</ele>
        <time>2020-06-02T10:13:46Z</time>
      </trkpt>
      <trkpt lat="46.19444" lon="-1.06152">
        <ele>23.7</ele>
        <time>2020-06-02T10:13:47Z</time>
      </trkpt>
      <trkpt lat="46.19448" lon="-1.0615">
        <ele>23.7</ele>
        <time>2020-06-02T10:13:48Z</time>
      </trkpt>
      <trkpt lat="46.19454" lon="-1.06147">
        <ele>23.7</ele>
        <time>2020-06-02T10:13:49Z</time>
      </trkpt>
      <trkpt lat="46.19458" lon="-1.06143">
        <ele>23.7</ele>
        <time>2020-06-02T10:13:50Z</time>
      </trkpt>
      <trkpt lat="46.19463" lon="-1.0614">
        <ele>23.7</ele>
        <time>2020-06-02T10:13:51Z</time>
      </trkpt>
      <trkpt lat="46.19469" lon="-1.06137">
        <ele>23.7</ele>
        <time>2020-06-02T10:13:52Z</time>
      </trkpt>
      <trkpt lat="46.19474" lon="-1.06135">
        <ele>23.7</ele>
        <time>2020-06-02T10:13:53Z</time>
      </trkpt>
      <trkpt lat="46.1948" lon="-1.06132">
        <ele>23.7</ele>
        <time>2020-06-02T10:13:54Z</time>
      </trkpt>
      <trkpt lat="46.19485" lon="-1.06129">
        <ele>23.6</ele>
        <time>2020-06-02T10:13:55Z</time>
      </trkpt>
      <trkpt lat="46.19491" lon="-1.06125">
        <ele>23.5</ele>
        <time>2020-06-02T10:13:56Z</time>
      </trkpt>
      <trkpt lat="46.19496" lon="-1.06122">
        <ele>23.5</ele>
        <time>2020-06-02T10:13:57Z</time>
      </trkpt>
      <trkpt lat="46.19501" lon="-1.06119">
        <ele>23.4</ele>
        <time>2020-06-02T10:13:58Z</time>
      </trkpt>
      <trkpt lat="46.19506" lon="-1.06116">
        <ele>23.3</ele>
        <time>2020-06-02T10:13:59Z</time>
      </trkpt>
      <trkpt lat="46.19511" lon="-1.06112">
        <ele>23.3</ele>
        <time>2020-06-02T10:14:00Z</time>
      </trkpt>
      <trkpt lat="46.19516" lon="-1.06109">
        <ele>23.2</ele>
        <time>2020-06-02T10:14:01Z</time>
      </trkpt>
      <trkpt lat="46.19521" lon="-1.06105">
        <ele>23.2</ele>
        <time>2020-06-02T10:14:02Z</time>
      </trkpt>
      <trkpt lat="46.19526" lon="-1.06102">
        <ele>23.1</ele>
        <time>2020-06-02T10:14:03Z</time>
      </trkpt>
      <trkpt lat="46.19532" lon="-1.06098">
        <ele>23</ele>
        <time>2020-06-02T10:14:04Z</time>
      </trkpt>
      <trkpt lat="46.19538" lon="-1.06095">
        <ele>23</ele>
        <time>2020-06-02T10:14:05Z</time>
      </trkpt>
      <trkpt lat="46.19544" lon="-1.06092">
        <ele>22.8</ele>
        <time>2020-06-02T10:14:06Z</time>
      </trkpt>
      <trkpt lat="46.1955" lon="-1.06089">
        <ele>22.6</ele>
        <time>2020-06-02T10:14:07Z</time>
      </trkpt>
      <trkpt lat="46.19555" lon="-1.06086">
        <ele>22.5</ele>
        <time>2020-06-02T10:14:08Z</time>
      </trkpt>
      <trkpt lat="46.19561" lon="-1.06082">
        <ele>22.2</ele>
        <time>2020-06-02T10:14:09Z</time>
      </trkpt>
      <trkpt lat="46.19567" lon="-1.0608">
        <ele>22</ele>
        <time>2020-06-02T10:14:10Z</time>
      </trkpt>
      <trkpt lat="46.19572" lon="-1.06077">
        <ele>21.8</ele>
        <time>2020-06-02T10:14:11Z</time>
      </trkpt>
      <trkpt lat="46.19579" lon="-1.06074">
        <ele>21.7</ele>
        <time>2020-06-02T10:14:12Z</time>
      </trkpt>
      <trkpt lat="46.19585" lon="-1.06071">
        <ele>21.5</ele>
        <time>2020-06-02T10:14:13Z</time>
      </trkpt>
      <trkpt lat="46.19591" lon="-1.06068">
        <ele>21.3</ele>
        <time>2020-06-02T10:14:14Z</time>
      </trkpt>
      <trkpt lat="46.19598" lon="-1.06064">
        <ele>21</ele>
        <time>2020-06-02T10:14:15Z</time>
      </trkpt>
      <trkpt lat="46.19605" lon="-1.0606">
        <ele>20.7</ele>
        <time>2020-06-02T10:14:16Z</time>
      </trkpt>
      <trkpt lat="46.19612" lon="-1.06056">
        <ele>20.3</ele>
        <time>2020-06-02T10:14:17Z</time>
      </trkpt>
      <trkpt lat="46.19619" lon="-1.06052">
        <ele>20</ele>
        <time>2020-06-02T10:14:18Z</time>
      </trkpt>
      <trkpt lat="46.19625" lon="-1.06047">
        <ele>19.7</ele>
        <time>2020-06-02T10:14:19Z</time>
      </trkpt>
      <trkpt lat="46.19634" lon="-1.06042">
        <ele>19.2</ele>
        <time>2020-06-02T10:14:20Z</time>
      </trkpt>
      <trkpt lat="46.19642" lon="-1.06038">
        <ele>18.8</ele>
        <time>2020-06-02T10:14:21Z</time>
      </trkpt>
      <trkpt lat="46.1965" lon="-1.06034">
        <ele>18.5</ele>
        <time>2020-06-02T10:14:22Z</time>
      </trkpt>
      <trkpt lat="46.19658" lon="-1.0603">
        <ele>18.1</ele>
        <time>2020-06-02T10:14:23Z</time>
      </trkpt>
      <trkpt lat="46.19667" lon="-1.06027">
        <ele>17.6</ele>
        <time>2020-06-02T10:14:24Z</time>
      </trkpt>
      <trkpt lat="46.19675" lon="-1.06023">
        <ele>17.2</ele>
        <time>2020-06-02T10:14:25Z</time>
      </trkpt>
      <trkpt lat="46.19684" lon="-1.0602">
        <ele>16.8</ele>
        <time>2020-06-02T10:14:26Z</time>
      </trkpt>
      <trkpt lat="46.19693" lon="-1.06017">
        <ele>16.5</ele>
        <time>2020-06-02T10:14:27Z</time>
      </trkpt>
      <trkpt lat="46.19701" lon="-1.06014">
        <ele>16.1</ele>
        <time>2020-06-02T10:14:28Z</time>
      </trkpt>
      <trkpt lat="46.1971" lon="-1.06011">
        <ele>15.8</ele>
        <time>2020-06-02T10:14:29Z</time>
      </trkpt>
      <trkpt lat="46.19719" lon="-1.06008">
        <ele>15.6</ele>
        <time>2020-06-02T10:14:30Z</time>
      </trkpt>
      <trkpt lat="46.19728" lon="-1.06005">
        <ele>15.4</ele>
        <time>2020-06-02T10:14:31Z</time>
      </trkpt>
      <trkpt lat="46.19737" lon="-1.06003">
        <ele>15.1</ele>
        <time>2020-06-02T10:14:32Z</time>
      </trkpt>
      <trkpt lat="46.19745" lon="-1.06">
        <ele>14.9</ele>
        <time>2020-06-02T10:14:33Z</time>
      </trkpt>
      <trkpt lat="46.19754" lon="-1.05997">
        <ele>14.7</ele>
        <time>2020-06-02T10:14:34Z</time>
      </trkpt>
      <trkpt lat="46.19762" lon="-1.05994">
        <ele>14.4</ele>
        <time>2020-06-02T10:14:35Z</time>
      </trkpt>
      <trkpt lat="46.1977" lon="-1.0599">
        <ele>14.3</ele>
        <time>2020-06-02T10:14:36Z</time>
      </trkpt>
      <trkpt lat="46.19778" lon="-1.05986">
        <ele>14.2</ele>
        <time>2020-06-02T10:14:37Z</time>
      </trkpt>
      <trkpt lat="46.19786" lon="-1.05982">
        <ele>14.2</ele>
        <time>2020-06-02T10:14:38Z</time>
      </trkpt>
      <trkpt lat="46.19793" lon="-1.05977">
        <ele>14.2</ele>
        <time>2020-06-02T10:14:39Z</time>
      </trkpt>
      <trkpt lat="46.198" lon="-1.05971">
        <ele>14.3</ele>
        <time>2020-06-02T10:14:40Z</time>
      </trkpt>
      <trkpt lat="46.19807" lon="-1.05966">
        <ele>14.3</ele>
        <time>2020-06-02T10:14:41Z</time>
      </trkpt>
      <trkpt lat="46.19814" lon="-1.0596">
        <ele>14.3</ele>
        <time>2020-06-02T10:14:42Z</time>
      </trkpt>
      <trkpt lat="46.19821" lon="-1.05953">
        <ele>14.3</ele>
        <time>2020-06-02T10:14:43Z</time>
      </trkpt>
      <trkpt lat="46.19827" lon="-1.05947">
        <ele>14.2</ele>
        <time>2020-06-02T10:14:44Z</time>
      </trkpt>
      <trkpt lat="46.19834" lon="-1.05941">
        <ele>14.1</ele>
        <time>2020-06-02T10:14:45Z</time>
      </trkpt>
      <trkpt lat="46.19841" lon="-1.05935">
        <ele>14.1</ele>
        <time>2020-06-02T10:14:46Z</time>
      </trkpt>
      <trkpt lat="46.19847" lon="-1.05929">
        <ele>14</ele>
        <time>2020-06-02T10:14:47Z</time>
      </trkpt>
      <trkpt lat="46.19854" lon="-1.05924">
        <ele>14</ele>
        <time>2020-06-02T10:14:48Z</time>
      </trkpt>
      <trkpt lat="46.19861" lon="-1.05918">
        <ele>14</ele>
        <time>2020-06-02T10:14:49Z</time>
      </trkpt>
      <trkpt lat="46.19867" lon="-1.05912">
        <ele>13.9</ele>
        <time>2020-06-02T10:14:50Z</time>
      </trkpt>
      <trkpt lat="46.19873" lon="-1.05906">
        <ele>13.9</ele>
        <time>2020-06-02T10:14:51Z</time>
      </trkpt>
      <trkpt lat="46.19879" lon="-1.05901">
        <ele>13.9</ele>
        <time>2020-06-02T10:14:52Z</time>
      </trkpt>
      <trkpt lat="46.19885" lon="-1.05894">
        <ele>13.9</ele>
        <time>2020-06-02T10:14:53Z</time>
      </trkpt>
      <trkpt lat="46.19891" lon="-1.05888">
        <ele>13.8</ele>
        <time>2020-06-02T10:14:54Z</time>
      </trkpt>
      <trkpt lat="46.19896" lon="-1.05882">
        <ele>13.8</ele>
        <time>2020-06-02T10:14:55Z</time>
      </trkpt>
      <trkpt lat="46.19901" lon="-1.05875">
        <ele>13.8</ele>
        <time>2020-06-02T10:14:56Z</time>
      </trkpt>
      <trkpt lat="46.19905" lon="-1.05867">
        <ele>13.7</ele>
        <time>2020-06-02T10:14:57Z</time>
      </trkpt>
      <trkpt lat="46.1991" lon="-1.05859">
        <ele>13.7</ele>
        <time>2020-06-02T10:14:58Z</time>
      </trkpt>
      <trkpt lat="46.19914" lon="-1.05851">
        <ele>13.7</ele>
        <time>2020-06-02T10:14:59Z</time>
      </trkpt>
      <trkpt lat="46.19918" lon="-1.05843">
        <ele>13.6</ele>
        <time>2020-06-02T10:15:00Z</time>
      </trkpt>
      <trkpt lat="46.19922" lon="-1.05835">
        <ele>13.6</ele>
        <time>2020-06-02T10:15:01Z</time>
      </trkpt>
      <trkpt lat="46.19926" lon="-1.05826">
        <ele>13.5</ele>
        <time>2020-06-02T10:15:02Z</time>
      </trkpt>
      <trkpt lat="46.19929" lon="-1.05817">
        <ele>13.5</ele>
        <time>2020-06-02T10:15:03Z</time>
      </trkpt>
      <trkpt lat="46.19932" lon="-1.05809">
        <ele>13.5</ele>
        <time>2020-06-02T10:15:04Z</time>
      </trkpt>
      <trkpt lat="46.19935" lon="-1.058">
        <ele>13.5</ele>
        <time>2020-06-02T10:15:05Z</time>
      </trkpt>
      <trkpt lat="46.19938" lon="-1.05791">
        <ele>13.5</ele>
        <time>2020-06-02T10:15:06Z</time>
      </trkpt>
      <trkpt lat="46.19941" lon="-1.05782">
        <ele>13.5</ele>
        <time>2020-06-02T10:15:07Z</time>
      </trkpt>
      <trkpt lat="46.19944" lon="-1.05774">
        <ele>13.6</ele>
        <time>2020-06-02T10:15:08Z</time>
      </trkpt>
      <trkpt lat="46.19947" lon="-1.05765">
        <ele>13.7</ele>
        <time>2020-06-02T10:15:09Z</time>
      </trkpt>
      <trkpt lat="46.1995" lon="-1.05757">
        <ele>13.7</ele>
        <time>2020-06-02T10:15:10Z</time>
      </trkpt>
      <trkpt lat="46.19952" lon="-1.05749">
        <ele>13.8</ele>
        <time>2020-06-02T10:15:11Z</time>
      </trkpt>
      <trkpt lat="46.19955" lon="-1.05741">
        <ele>13.9</ele>
        <time>2020-06-02T10:15:12Z</time>
      </trkpt>
      <trkpt lat="46.19958" lon="-1.05733">
        <ele>14</ele>
        <time>2020-06-02T10:15:13Z</time>
      </trkpt>
      <trkpt lat="46.19961" lon="-1.05726">
        <ele>14.2</ele>
        <time>2020-06-02T10:15:14Z</time>
      </trkpt>
      <trkpt lat="46.19965" lon="-1.0572">
        <ele>14.3</ele>
        <time>2020-06-02T10:15:15Z</time>
      </trkpt>
      <trkpt lat="46.19967" lon="-1.05712">
        <ele>14.4</ele>
        <time>2020-06-02T10:15:16Z</time>
      </trkpt>
      <trkpt lat="46.1997" lon="-1.05706">
        <ele>14.5</ele>
        <time>2020-06-02T10:15:17Z</time>
      </trkpt>
      <trkpt lat="46.19973" lon="-1.057">
        <ele>14.6</ele>
        <time>2020-06-02T10:15:18Z</time>
      </trkpt>
      <trkpt lat="46.19978" lon="-1.05695">
        <ele>14.7</ele>
        <time>2020-06-02T10:15:19Z</time>
      </trkpt>
      <trkpt lat="46.19981" lon="-1.05689">
        <ele>14.8</ele>
        <time>2020-06-02T10:15:20Z</time>
      </trkpt>
      <trkpt lat="46.19985" lon="-1.05684">
        <ele>14.9</ele>
        <time>2020-06-02T10:15:21Z</time>
      </trkpt>
      <trkpt lat="46.19989" lon="-1.0568">
        <ele>15</ele>
        <time>2020-06-02T10:15:22Z</time>
      </trkpt>
      <trkpt lat="46.19993" lon="-1.05676">
        <ele>15.2</ele>
        <time>2020-06-02T10:15:23Z</time>
      </trkpt>
      <trkpt lat="46.19998" lon="-1.05671">
        <ele>15.3</ele>
        <time>2020-06-02T10:15:24Z</time>
      </trkpt>
      <trkpt lat="46.20002" lon="-1.05666">
        <ele>15.4</ele>
        <time>2020-06-02T10:15:25Z</time>
      </trkpt>
      <trkpt lat="46.20007" lon="-1.05662">
        <ele>15.4</ele>
        <time>2020-06-02T10:15:26Z</time>
      </trkpt>
      <trkpt lat="46.20011" lon="-1.05659">
        <ele>15.4</ele>
        <time>2020-06-02T10:15:27Z</time>
      </trkpt>
      <trkpt lat="46.20015" lon="-1.05655">
        <ele>15.5</ele>
        <time>2020-06-02T10:15:28Z</time>
      </trkpt>
      <trkpt lat="46.2002" lon="-1.05651">
        <ele>15.6</ele>
        <time>2020-06-02T10:15:29Z</time>
      </trkpt>
      <trkpt lat="46.20024" lon="-1.05649">
        <ele>15.7</ele>
        <time>2020-06-02T10:15:30Z</time>
      </trkpt>
      <trkpt lat="46.20029" lon="-1.05646">
        <ele>15.8</ele>
        <time>2020-06-02T10:15:31Z</time>
      </trkpt>
      <trkpt lat="46.20034" lon="-1.05645">
        <ele>15.9</ele>
        <time>2020-06-02T10:15:32Z</time>
      </trkpt>
      <trkpt lat="46.20038" lon="-1.05643">
        <ele>16</ele>
        <time>2020-06-02T10:15:33Z</time>
      </trkpt>
      <trkpt lat="46.20044" lon="-1.05641">
        <ele>16</ele>
        <time>2020-06-02T10:15:34Z</time>
      </trkpt>
      <trkpt lat="46.20049" lon="-1.05639">
        <ele>16</ele>
        <time>2020-06-02T10:15:35Z</time>
      </trkpt>
      <trkpt lat="46.20054" lon="-1.05637">
        <ele>16.1</ele>
        <time>2020-06-02T10:15:36Z</time>
      </trkpt>
      <trkpt lat="46.20058" lon="-1.05635">
        <ele>16.1</ele>
        <time>2020-06-02T10:15:37Z</time>
      </trkpt>
      <trkpt lat="46.20062" lon="-1.05634">
        <ele>16.1</ele>
        <time>2020-06-02T10:15:38Z</time>
      </trkpt>
      <trkpt lat="46.20068" lon="-1.05632">
        <ele>16.1</ele>
        <time>2020-06-02T10:15:39Z</time>
      </trkpt>
      <trkpt lat="46.20073" lon="-1.0563">
        <ele>16.1</ele>
        <time>2020-06-02T10:15:40Z</time>
      </trkpt>
      <trkpt lat="46.20079" lon="-1.05628">
        <ele>16</ele>
        <time>2020-06-02T10:15:41Z</time>
      </trkpt>
      <trkpt lat="46.20084" lon="-1.05626">
        <ele>16</ele>
        <time>2020-06-02T10:15:42Z</time>
      </trkpt>
      <trkpt lat="46.2009" lon="-1.05624">
        <ele>16</ele>
        <time>2020-06-02T10:15:43Z</time>
      </trkpt>
      <trkpt lat="46.20095" lon="-1.05622">
        <ele>16</ele>
        <time>2020-06-02T10:15:44Z</time>
      </trkpt>
      <trkpt lat="46.20102" lon="-1.0562">
        <ele>15.9</ele>
        <time>2020-06-02T10:15:45Z</time>
      </trkpt>
      <trkpt lat="46.20108" lon="-1.05617">
        <ele>15.9</ele>
        <time>2020-06-02T10:15:46Z</time>
      </trkpt>
      <trkpt lat="46.20113" lon="-1.05614">
        <ele>15.8</ele>
        <time>2020-06-02T10:15:47Z</time>
      </trkpt>
      <trkpt lat="46.20119" lon="-1.05611">
        <ele>15.8</ele>
        <time>2020-06-02T10:15:48Z</time>
      </trkpt>
      <trkpt lat="46.20125" lon="-1.05607">
        <ele>15.7</ele>
        <time>2020-06-02T10:15:49Z</time>
      </trkpt>
      <trkpt lat="46.20131" lon="-1.05605">
        <ele>15.6</ele>
        <time>2020-06-02T10:15:50Z</time>
      </trkpt>
      <trkpt lat="46.20136" lon="-1.05603">
        <ele>15.4</ele>
        <time>2020-06-02T10:15:51Z</time>
      </trkpt>
      <trkpt lat="46.20142" lon="-1.05601">
        <ele>15.3</ele>
        <time>2020-06-02T10:15:52Z</time>
      </trkpt>
      <trkpt lat="46.20149" lon="-1.05598">
        <ele>15.1</ele>
        <time>2020-06-02T10:15:53Z</time>
      </trkpt>
      <trkpt lat="46.20155" lon="-1.05596">
        <ele>15</ele>
        <time>2020-06-02T10:15:54Z</time>
      </trkpt>
      <trkpt lat="46.20161" lon="-1.05593">
        <ele>14.8</ele>
        <time>2020-06-02T10:15:55Z</time>
      </trkpt>
      <trkpt lat="46.20167" lon="-1.0559">
        <ele>14.6</ele>
        <time>2020-06-02T10:15:56Z</time>
      </trkpt>
      <trkpt lat="46.20173" lon="-1.05587">
        <ele>14.4</ele>
        <time>2020-06-02T10:15:57Z</time>
      </trkpt>
      <trkpt lat="46.2018" lon="-1.05584">
        <ele>14.1</ele>
        <time>2020-06-02T10:15:58Z</time>
      </trkpt>
      <trkpt lat="46.20187" lon="-1.05581">
        <ele>13.8</ele>
        <time>2020-06-02T10:15:59Z</time>
      </trkpt>
      <trkpt lat="46.20193" lon="-1.05578">
        <ele>13.5</ele>
        <time>2020-06-02T10:16:00Z</time>
      </trkpt>
      <trkpt lat="46.20199" lon="-1.05574">
        <ele>13.2</ele>
        <time>2020-06-02T10:16:01Z</time>
      </trkpt>
      <trkpt lat="46.20206" lon="-1.05569">
        <ele>12.9</ele>
        <time>2020-06-02T10:16:02Z</time>
      </trkpt>
      <trkpt lat="46.20213" lon="-1.05565">
        <ele>12.6</ele>
        <time>2020-06-02T10:16:03Z</time>
      </trkpt>
      <trkpt lat="46.2022" lon="-1.05559">
        <ele>12.4</ele>
        <time>2020-06-02T10:16:04Z</time>
      </trkpt>
      <trkpt lat="46.20227" lon="-1.05553">
        <ele>12.3</ele>
        <time>2020-06-02T10:16:05Z</time>
      </trkpt>
      <trkpt lat="46.20234" lon="-1.05547">
        <ele>12.1</ele>
        <time>2020-06-02T10:16:06Z</time>
      </trkpt>
      <trkpt lat="46.20241" lon="-1.05541">
        <ele>11.9</ele>
        <time>2020-06-02T10:16:07Z</time>
      </trkpt>
      <trkpt lat="46.20249" lon="-1.05535">
        <ele>11.8</ele>
        <time>2020-06-02T10:16:08Z</time>
      </trkpt>
      <trkpt lat="46.20256" lon="-1.0553">
        <ele>11.6</ele>
        <time>2020-06-02T10:16:09Z</time>
      </trkpt>
      <trkpt lat="46.20263" lon="-1.05524">
        <ele>11.3</ele>
        <time>2020-06-02T10:16:10Z</time>
      </trkpt>
      <trkpt lat="46.2027" lon="-1.05518">
        <ele>11.1</ele>
        <time>2020-06-02T10:16:11Z</time>
      </trkpt>
      <trkpt lat="46.20277" lon="-1.05513">
        <ele>11</ele>
        <time>2020-06-02T10:16:12Z</time>
      </trkpt>
      <trkpt lat="46.20284" lon="-1.05509">
        <ele>10.8</ele>
        <time>2020-06-02T10:16:13Z</time>
      </trkpt>
      <trkpt lat="46.20292" lon="-1.05505">
        <ele>10.7</ele>
        <time>2020-06-02T10:16:14Z</time>
      </trkpt>
      <trkpt lat="46.20299" lon="-1.055">
        <ele>10.6</ele>
        <time>2020-06-02T10:16:15Z</time>
      </trkpt>
      <trkpt lat="46.20307" lon="-1.05495">
        <ele>10.5</ele>
        <time>2020-06-02T10:16:16Z</time>
      </trkpt>
      <trkpt lat="46.20314" lon="-1.05491">
        <ele>10.4</ele>
        <time>2020-06-02T10:16:17Z</time>
      </trkpt>
      <trkpt lat="46.20322" lon="-1.05486">
        <ele>10.4</ele>
        <time>2020-06-02T10:16:18Z</time>
      </trkpt>
      <trkpt lat="46.20329" lon="-1.05482">
        <ele>10.3</ele>
        <time>2020-06-02T10:16:19Z</time>
      </trkpt>
      <trkpt lat="46.20337" lon="-1.05478">
        <ele>10.3</ele>
        <time>2020-06-02T10:16:20Z</time>
      </trkpt>
      <trkpt lat="46.20345" lon="-1.05474">
        <ele>10.2</ele>
        <time>2020-06-02T10:16:21Z</time>
      </trkpt>
      <trkpt lat="46.20352" lon="-1.05469">
        <ele>10.1</ele>
        <time>2020-06-02T10:16:22Z</time>
      </trkpt>
      <trkpt lat="46.20359" lon="-1.05463">
        <ele>10.1</ele>
        <time>2020-06-02T10:16:23Z</time>
      </trkpt>
      <trkpt lat="46.20366" lon="-1.05458">
        <ele>10</ele>
        <time>2020-06-02T10:16:24Z</time>
      </trkpt>
      <trkpt lat="46.20373" lon="-1.05454">
        <ele>10</ele>
        <time>2020-06-02T10:16:25Z</time>
      </trkpt>
      <trkpt lat="46.2038" lon="-1.05449">
        <ele>9.9</ele>
        <time>2020-06-02T10:16:26Z</time>
      </trkpt>
      <trkpt lat="46.20387" lon="-1.05444">
        <ele>9.8</ele>
        <time>2020-06-02T10:16:27Z</time>
      </trkpt>
      <trkpt lat="46.20394" lon="-1.05439">
        <ele>9.7</ele>
        <time>2020-06-02T10:16:28Z</time>
      </trkpt>
      <trkpt lat="46.20401" lon="-1.05433">
        <ele>9.5</ele>
        <time>2020-06-02T10:16:29Z</time>
      </trkpt>
      <trkpt lat="46.20407" lon="-1.05428">
        <ele>9.4</ele>
        <time>2020-06-02T10:16:30Z</time>
      </trkpt>
      <trkpt lat="46.20413" lon="-1.05421">
        <ele>9.3</ele>
        <time>2020-06-02T10:16:31Z</time>
      </trkpt>
      <trkpt lat="46.20419" lon="-1.05415">
        <ele>9.3</ele>
        <time>2020-06-02T10:16:32Z</time>
      </trkpt>
      <trkpt lat="46.20425" lon="-1.05409">
        <ele>9.3</ele>
        <time>2020-06-02T10:16:33Z</time>
      </trkpt>
      <trkpt lat="46.20431" lon="-1.05403">
        <ele>9.2</ele>
        <time>2020-06-02T10:16:34Z</time>
      </trkpt>
      <trkpt lat="46.20436" lon="-1.05399">
        <ele>9.2</ele>
        <time>2020-06-02T10:16:35Z</time>
      </trkpt>
      <trkpt lat="46.20441" lon="-1.05395">
        <ele>9.2</ele>
        <time>2020-06-02T10:16:36Z</time>
      </trkpt>
      <trkpt lat="46.20446" lon="-1.05391">
        <ele>9.2</ele>
        <time>2020-06-02T10:16:37Z</time>
      </trkpt>
      <trkpt lat="46.20451" lon="-1.05388">
        <ele>9.2</ele>
        <time>2020-06-02T10:16:38Z</time>
      </trkpt>
      <trkpt lat="46.20453" lon="-1.05383">
        <ele>9.2</ele>
        <time>2020-06-02T10:16:39Z</time>
      </trkpt>
      <trkpt lat="46.20454" lon="-1.05379">
        <ele>9.2</ele>
        <time>2020-06-02T10:16:40Z</time>
      </trkpt>
      <trkpt lat="46.20453" lon="-1.05374">
        <ele>9.2</ele>
        <time>2020-06-02T10:16:41Z</time>
      </trkpt>
      <trkpt lat="46.20453" lon="-1.05369">
        <ele>9.1</ele>
        <time>2020-06-02T10:16:42Z</time>
      </trkpt>
      <trkpt lat="46.20452" lon="-1.05363">
        <ele>9.1</ele>
        <time>2020-06-02T10:16:43Z</time>
      </trkpt>
      <trkpt lat="46.20451" lon="-1.05357">
        <ele>9.1</ele>
        <time>2020-06-02T10:16:44Z</time>
      </trkpt>
      <trkpt lat="46.20449" lon="-1.05352">
        <ele>9.1</ele>
        <time>2020-06-02T10:16:45Z</time>
      </trkpt>
      <trkpt lat="46.20447" lon="-1.05346">
        <ele>9.1</ele>
        <time>2020-06-02T10:16:46Z</time>
      </trkpt>
      <trkpt lat="46.20445" lon="-1.0534">
        <ele>9</ele>
        <time>2020-06-02T10:16:47Z</time>
      </trkpt>
      <trkpt lat="46.20443" lon="-1.05334">
        <ele>9</ele>
        <time>2020-06-02T10:16:48Z</time>
      </trkpt>
      <trkpt lat="46.20442" lon="-1.05327">
        <ele>9</ele>
        <time>2020-06-02T10:16:49Z</time>
      </trkpt>
      <trkpt lat="46.2044" lon="-1.05321">
        <ele>8.9</ele>
        <time>2020-06-02T10:16:50Z</time>
      </trkpt>
      <trkpt lat="46.20439" lon="-1.05314">
        <ele>8.8</ele>
        <time>2020-06-02T10:16:51Z</time>
      </trkpt>
      <trkpt lat="46.20437" lon="-1.05307">
        <ele>8.8</ele>
        <time>2020-06-02T10:16:52Z</time>
      </trkpt>
      <trkpt lat="46.20435" lon="-1.05301">
        <ele>8.7</ele>
        <time>2020-06-02T10:16:53Z</time>
      </trkpt>
      <trkpt lat="46.20434" lon="-1.05295">
        <ele>8.6</ele>
        <time>2020-06-02T10:16:54Z</time>
      </trkpt>
      <trkpt lat="46.20433" lon="-1.05288">
        <ele>8.5</ele>
        <time>2020-06-02T10:16:55Z</time>
      </trkpt>
      <trkpt lat="46.20431" lon="-1.05282">
        <ele>8.4</ele>
        <time>2020-06-02T10:16:56Z</time>
      </trkpt>
      <trkpt lat="46.20431" lon="-1.05276">
        <ele>8.4</ele>
        <time>2020-06-02T10:16:57Z</time>
      </trkpt>
      <trkpt lat="46.20431" lon="-1.05269">
        <ele>8.3</ele>
        <time>2020-06-02T10:16:58Z</time>
      </trkpt>
      <trkpt lat="46.20432" lon="-1.05263">
        <ele>8.3</ele>
        <time>2020-06-02T10:16:59Z</time>
      </trkpt>
      <trkpt lat="46.20435" lon="-1.05258">
        <ele>8.2</ele>
        <time>2020-06-02T10:17:00Z</time>
      </trkpt>
      <trkpt lat="46.20437" lon="-1.05252">
        <ele>8.2</ele>
        <time>2020-06-02T10:17:01Z</time>
      </trkpt>
      <trkpt lat="46.20439" lon="-1.05246">
        <ele>8.2</ele>
        <time>2020-06-02T10:17:02Z</time>
      </trkpt>
      <trkpt lat="46.20442" lon="-1.05241">
        <ele>8.2</ele>
        <time>2020-06-02T10:17:03Z</time>
      </trkpt>
      <trkpt lat="46.20445" lon="-1.05236">
        <ele>8.2</ele>
        <time>2020-06-02T10:17:04Z</time>
      </trkpt>
      <trkpt lat="46.20447" lon="-1.05229">
        <ele>8.2</ele>
        <time>2020-06-02T10:17:05Z</time>
      </trkpt>
      <trkpt lat="46.2045" lon="-1.05224">
        <ele>8.2</ele>
        <time>2020-06-02T10:17:06Z</time>
      </trkpt>
      <trkpt lat="46.20452" lon="-1.05219">
        <ele>8.1</ele>
        <time>2020-06-02T10:17:07Z</time>
      </trkpt>
      <trkpt lat="46.20454" lon="-1.05214">
        <ele>8.1</ele>
        <time>2020-06-02T10:17:08Z</time>
      </trkpt>
      <trkpt lat="46.20457" lon="-1.05209">
        <ele>8.1</ele>
        <time>2020-06-02T10:17:09Z</time>
      </trkpt>
      <trkpt lat="46.2046" lon="-1.05205">
        <ele>8.1</ele>
        <time>2020-06-02T10:17:10Z</time>
      </trkpt>
      <trkpt lat="46.20463" lon="-1.052">
        <ele>8.1</ele>
        <time>2020-06-02T10:17:11Z</time>
      </trkpt>
      <trkpt lat="46.20466" lon="-1.05195">
        <ele>8.1</ele>
        <time>2020-06-02T10:17:12Z</time>
      </trkpt>
      <trkpt lat="46.20469" lon="-1.0519">
        <ele>8.1</ele>
        <time>2020-06-02T10:17:13Z</time>
      </trkpt>
      <trkpt lat="46.20473" lon="-1.05186">
        <ele>8.1</ele>
        <time>2020-06-02T10:17:14Z</time>
      </trkpt>
      <trkpt lat="46.20477" lon="-1.05183">
        <ele>8.1</ele>
        <time>2020-06-02T10:17:15Z</time>
      </trkpt>
      <trkpt lat="46.2048" lon="-1.05179">
        <ele>8.1</ele>
        <time>2020-06-02T10:17:16Z</time>
      </trkpt>
      <trkpt lat="46.20484" lon="-1.05174">
        <ele>8.1</ele>
        <time>2020-06-02T10:17:17Z</time>
      </trkpt>
      <trkpt lat="46.20488" lon="-1.05169">
        <ele>8.1</ele>
        <time>2020-06-02T10:17:18Z</time>
      </trkpt>
      <trkpt lat="46.20492" lon="-1.05167">
        <ele>8.1</ele>
        <time>2020-06-02T10:17:19Z</time>
      </trkpt>
      <trkpt lat="46.20495" lon="-1.05163">
        <ele>8.1</ele>
        <time>2020-06-02T10:17:20Z</time>
      </trkpt>
      <trkpt lat="46.20499" lon="-1.05159">
        <ele>8.1</ele>
        <time>2020-06-02T10:17:21Z</time>
      </trkpt>
      <trkpt lat="46.20502" lon="-1.05155">
        <ele>8.1</ele>
        <time>2020-06-02T10:17:22Z</time>
      </trkpt>
      <trkpt lat="46.20506" lon="-1.05152">
        <ele>8.1</ele>
        <time>2020-06-02T10:17:23Z</time>
      </trkpt>
      <trkpt lat="46.2051" lon="-1.05148">
        <ele>8.1</ele>
        <time>2020-06-02T10:17:24Z</time>
      </trkpt>
      <trkpt lat="46.20513" lon="-1.05143">
        <ele>8.1</ele>
        <time>2020-06-02T10:17:25Z</time>
      </trkpt>
      <trkpt lat="46.20516" lon="-1.05139">
        <ele>8.1</ele>
        <time>2020-06-02T10:17:26Z</time>
      </trkpt>
      <trkpt lat="46.2052" lon="-1.05135">
        <ele>8.1</ele>
        <time>2020-06-02T10:17:27Z</time>
      </trkpt>
      <trkpt lat="46.20524" lon="-1.05131">
        <ele>8.1</ele>
        <time>2020-06-02T10:17:28Z</time>
      </trkpt>
      <trkpt lat="46.20527" lon="-1.05128">
        <ele>8.1</ele>
        <time>2020-06-02T10:17:29Z</time>
      </trkpt>
      <trkpt lat="46.20531" lon="-1.05124">
        <ele>8.1</ele>
        <time>2020-06-02T10:17:30Z</time>
      </trkpt>
      <trkpt lat="46.20534" lon="-1.0512">
        <ele>8.1</ele>
        <time>2020-06-02T10:17:31Z</time>
      </trkpt>
      <trkpt lat="46.20538" lon="-1.05117">
        <ele>8.1</ele>
        <time>2020-06-02T10:17:32Z</time>
      </trkpt>
      <trkpt lat="46.20541" lon="-1.05113">
        <ele>8.1</ele>
        <time>2020-06-02T10:17:33Z</time>
      </trkpt>
      <trkpt lat="46.20545" lon="-1.05109">
        <ele>8.2</ele>
        <time>2020-06-02T10:17:34Z</time>
      </trkpt>
      <trkpt lat="46.20547" lon="-1.05104">
        <ele>8.2</ele>
        <time>2020-06-02T10:17:35Z</time>
      </trkpt>
      <trkpt lat="46.20551" lon="-1.05101">
        <ele>8.2</ele>
        <time>2020-06-02T10:17:36Z</time>
      </trkpt>
      <trkpt lat="46.20554" lon="-1.05098">
        <ele>8.2</ele>
        <time>2020-06-02T10:17:37Z</time>
      </trkpt>
      <trkpt lat="46.20557" lon="-1.05094">
        <ele>8.2</ele>
        <time>2020-06-02T10:17:38Z</time>
      </trkpt>
      <trkpt lat="46.2056" lon="-1.05092">
        <ele>8.3</ele>
        <time>2020-06-02T10:17:39Z</time>
      </trkpt>
      <trkpt lat="46.20563" lon="-1.05089">
        <ele>8.3</ele>
        <time>2020-06-02T10:17:40Z</time>
      </trkpt>
      <trkpt lat="46.20566" lon="-1.05086">
        <ele>8.3</ele>
        <time>2020-06-02T10:17:41Z</time>
      </trkpt>
      <trkpt lat="46.20568" lon="-1.05082">
        <ele>8.2</ele>
        <time>2020-06-02T10:17:42Z</time>
      </trkpt>
      <trkpt lat="46.20572" lon="-1.05078">
        <ele>8.2</ele>
        <time>2020-06-02T10:17:43Z</time>
      </trkpt>
      <trkpt lat="46.20576" lon="-1.05076">
        <ele>8.2</ele>
        <time>2020-06-02T10:17:44Z</time>
      </trkpt>
      <trkpt lat="46.20579" lon="-1.05072">
        <ele>8.2</ele>
        <time>2020-06-02T10:17:45Z</time>
      </trkpt>
      <trkpt lat="46.20582" lon="-1.05069">
        <ele>8.3</ele>
        <time>2020-06-02T10:17:46Z</time>
      </trkpt>
      <trkpt lat="46.20584" lon="-1.05064">
        <ele>8.3</ele>
        <time>2020-06-02T10:17:47Z</time>
      </trkpt>
      <trkpt lat="46.20587" lon="-1.05061">
        <ele>8.3</ele>
        <time>2020-06-02T10:17:48Z</time>
      </trkpt>
      <trkpt lat="46.2059" lon="-1.05057">
        <ele>8.3</ele>
        <time>2020-06-02T10:17:49Z</time>
      </trkpt>
      <trkpt lat="46.20593" lon="-1.05054">
        <ele>8.3</ele>
        <time>2020-06-02T10:17:50Z</time>
      </trkpt>
      <trkpt lat="46.20596" lon="-1.05051">
        <ele>8.4</ele>
        <time>2020-06-02T10:17:51Z</time>
      </trkpt>
      <trkpt lat="46.20599" lon="-1.05048">
        <ele>8.4</ele>
        <time>2020-06-02T10:17:52Z</time>
      </trkpt>
      <trkpt lat="46.20602" lon="-1.05045">
        <ele>8.4</ele>
        <time>2020-06-02T10:17:53Z</time>
      </trkpt>
      <trkpt lat="46.20605" lon="-1.05043">
        <ele>8.4</ele>
        <time>2020-06-02T10:17:54Z</time>
      </trkpt>
      <trkpt lat="46.20608" lon="-1.05041">
        <ele>8.4</ele>
        <time>2020-06-02T10:17:55Z</time>
      </trkpt>
      <trkpt lat="46.20611" lon="-1.05038">
        <ele>8.4</ele>
        <time>2020-06-02T10:17:56Z</time>
      </trkpt>
      <trkpt lat="46.20615" lon="-1.05035">
        <ele>8.5</ele>
        <time>2020-06-02T10:17:57Z</time>
      </trkpt>
      <trkpt lat="46.20619" lon="-1.05032">
        <ele>8.5</ele>
        <time>2020-06-02T10:17:58Z</time>
      </trkpt>
      <trkpt lat="46.20622" lon="-1.05029">
        <ele>8.5</ele>
        <time>2020-06-02T10:17:59Z</time>
      </trkpt>
      <trkpt lat="46.20626" lon="-1.05027">
        <ele>8.5</ele>
        <time>2020-06-02T10:18:00Z</time>
      </trkpt>
      <trkpt lat="46.20629" lon="-1.05023">
        <ele>8.6</ele>
        <time>2020-06-02T10:18:01Z</time>
      </trkpt>
      <trkpt lat="46.20632" lon="-1.05021">
        <ele>8.6</ele>
        <time>2020-06-02T10:18:02Z</time>
      </trkpt>
      <trkpt lat="46.20636" lon="-1.05019">
        <ele>8.6</ele>
        <time>2020-06-02T10:18:03Z</time>
      </trkpt>
      <trkpt lat="46.20639" lon="-1.05017">
        <ele>8.6</ele>
        <time>2020-06-02T10:18:04Z</time>
      </trkpt>
      <trkpt lat="46.20643" lon="-1.05014">
        <ele>8.6</ele>
        <time>2020-06-02T10:18:05Z</time>
      </trkpt>
      <trkpt lat="46.20646" lon="-1.05013">
        <ele>8.7</ele>
        <time>2020-06-02T10:18:06Z</time>
      </trkpt>
      <trkpt lat="46.20649" lon="-1.05011">
        <ele>8.6</ele>
        <time>2020-06-02T10:18:07Z</time>
      </trkpt>
      <trkpt lat="46.20652" lon="-1.0501">
        <ele>8.5</ele>
        <time>2020-06-02T10:18:08Z</time>
      </trkpt>
      <trkpt lat="46.20655" lon="-1.05008">
        <ele>8.5</ele>
        <time>2020-06-02T10:18:09Z</time>
      </trkpt>
      <trkpt lat="46.20657" lon="-1.05006">
        <ele>8.4</ele>
        <time>2020-06-02T10:18:10Z</time>
      </trkpt>
      <trkpt lat="46.2066" lon="-1.05004">
        <ele>8.4</ele>
        <time>2020-06-02T10:18:11Z</time>
      </trkpt>
      <trkpt lat="46.20663" lon="-1.05002">
        <ele>8.4</ele>
        <time>2020-06-02T10:18:12Z</time>
      </trkpt>
      <trkpt lat="46.20666" lon="-1.05">
        <ele>8.3</ele>
        <time>2020-06-02T10:18:13Z</time>
      </trkpt>
      <trkpt lat="46.20668" lon="-1.04996">
        <ele>8.2</ele>
        <time>2020-06-02T10:18:14Z</time>
      </trkpt>
      <trkpt lat="46.20669" lon="-1.04994">
        <ele>8.2</ele>
        <time>2020-06-02T10:18:15Z</time>
      </trkpt>
      <trkpt lat="46.20671" lon="-1.04992">
        <ele>8.2</ele>
        <time>2020-06-02T10:18:16Z</time>
      </trkpt>
      <trkpt lat="46.20674" lon="-1.0499">
        <ele>8.1</ele>
        <time>2020-06-02T10:18:17Z</time>
      </trkpt>
      <trkpt lat="46.20677" lon="-1.04987">
        <ele>8.1</ele>
        <time>2020-06-02T10:18:18Z</time>
      </trkpt>
      <trkpt lat="46.2068" lon="-1.04985">
        <ele>8</ele>
        <time>2020-06-02T10:18:19Z</time>
      </trkpt>
      <trkpt lat="46.20683" lon="-1.04983">
        <ele>8</ele>
        <time>2020-06-02T10:18:20Z</time>
      </trkpt>
      <trkpt lat="46.20686" lon="-1.04981">
        <ele>7.9</ele>
        <time>2020-06-02T10:18:21Z</time>
      </trkpt>
      <trkpt lat="46.20688" lon="-1.04979">
        <ele>7.9</ele>
        <time>2020-06-02T10:18:22Z</time>
      </trkpt>
      <trkpt lat="46.20692" lon="-1.04975">
        <ele>7.8</ele>
        <time>2020-06-02T10:18:23Z</time>
      </trkpt>
      <trkpt lat="46.20695" lon="-1.04971">
        <ele>7.8</ele>
        <time>2020-06-02T10:18:24Z</time>
      </trkpt>
      <trkpt lat="46.20698" lon="-1.04966">
        <ele>7.7</ele>
        <time>2020-06-02T10:18:25Z</time>
      </trkpt>
      <trkpt lat="46.207" lon="-1.04963">
        <ele>7.6</ele>
        <time>2020-06-02T10:18:26Z</time>
      </trkpt>
      <trkpt lat="46.20702" lon="-1.0496">
        <ele>7.6</ele>
        <time>2020-06-02T10:18:27Z</time>
      </trkpt>
      <trkpt lat="46.20704" lon="-1.04956">
        <ele>7.6</ele>
        <time>2020-06-02T10:18:28Z</time>
      </trkpt>
      <trkpt lat="46.20706" lon="-1.04953">
        <ele>7.5</ele>
        <time>2020-06-02T10:18:29Z</time>
      </trkpt>
      <trkpt lat="46.20707" lon="-1.04949">
        <ele>7.5</ele>
        <time>2020-06-02T10:18:30Z</time>
      </trkpt>
      <trkpt lat="46.20708" lon="-1.04943">
        <ele>7.4</ele>
        <time>2020-06-02T10:18:31Z</time>
      </trkpt>
      <trkpt lat="46.20707" lon="-1.04939">
        <ele>7.4</ele>
        <time>2020-06-02T10:18:32Z</time>
      </trkpt>
      <trkpt lat="46.20707" lon="-1.04934">
        <ele>7.4</ele>
        <time>2020-06-02T10:18:33Z</time>
      </trkpt>
      <trkpt lat="46.20707" lon="-1.04929">
        <ele>7.4</ele>
        <time>2020-06-02T10:18:34Z</time>
      </trkpt>
      <trkpt lat="46.20706" lon="-1.04925">
        <ele>7.4</ele>
        <time>2020-06-02T10:18:35Z</time>
      </trkpt>
      <trkpt lat="46.20707" lon="-1.0492">
        <ele>7.4</ele>
        <time>2020-06-02T10:18:36Z</time>
      </trkpt>
      <trkpt lat="46.2071" lon="-1.04916">
        <ele>7.4</ele>
        <time>2020-06-02T10:18:37Z</time>
      </trkpt>
      <trkpt lat="46.20713" lon="-1.04912">
        <ele>7.5</ele>
        <time>2020-06-02T10:18:38Z</time>
      </trkpt>
      <trkpt lat="46.20716" lon="-1.04909">
        <ele>7.5</ele>
        <time>2020-06-02T10:18:39Z</time>
      </trkpt>
      <trkpt lat="46.2072" lon="-1.04905">
        <ele>7.5</ele>
        <time>2020-06-02T10:18:40Z</time>
      </trkpt>
      <trkpt lat="46.20724" lon="-1.049">
        <ele>7.5</ele>
        <time>2020-06-02T10:18:41Z</time>
      </trkpt>
      <trkpt lat="46.20727" lon="-1.04896">
        <ele>7.5</ele>
        <time>2020-06-02T10:18:42Z</time>
      </trkpt>
      <trkpt lat="46.2073" lon="-1.0489">
        <ele>7.6</ele>
        <time>2020-06-02T10:18:43Z</time>
      </trkpt>
      <trkpt lat="46.20734" lon="-1.04886">
        <ele>7.6</ele>
        <time>2020-06-02T10:18:44Z</time>
      </trkpt>
      <trkpt lat="46.20737" lon="-1.04882">
        <ele>7.6</ele>
        <time>2020-06-02T10:18:45Z</time>
      </trkpt>
      <trkpt lat="46.2074" lon="-1.04879">
        <ele>7.5</ele>
        <time>2020-06-02T10:18:46Z</time>
      </trkpt>
      <trkpt lat="46.20743" lon="-1.04876">
        <ele>7.5</ele>
        <time>2020-06-02T10:18:47Z</time>
      </trkpt>
      <trkpt lat="46.20746" lon="-1.04874">
        <ele>7.4</ele>
        <time>2020-06-02T10:18:48Z</time>
      </trkpt>
      <trkpt lat="46.2075" lon="-1.04872">
        <ele>7.3</ele>
        <time>2020-06-02T10:18:49Z</time>
      </trkpt>
      <trkpt lat="46.20753" lon="-1.0487">
        <ele>7.2</ele>
        <time>2020-06-02T10:18:50Z</time>
      </trkpt>
      <trkpt lat="46.20757" lon="-1.04869">
        <ele>7.1</ele>
        <time>2020-06-02T10:18:51Z</time>
      </trkpt>
      <trkpt lat="46.20762" lon="-1.04867">
        <ele>7</ele>
        <time>2020-06-02T10:18:52Z</time>
      </trkpt>
      <trkpt lat="46.20766" lon="-1.04863">
        <ele>6.9</ele>
        <time>2020-06-02T10:18:53Z</time>
      </trkpt>
      <trkpt lat="46.20771" lon="-1.04859">
        <ele>6.7</ele>
        <time>2020-06-02T10:18:54Z</time>
      </trkpt>
      <trkpt lat="46.20777" lon="-1.04855">
        <ele>6.6</ele>
        <time>2020-06-02T10:18:55Z</time>
      </trkpt>
      <trkpt lat="46.20783" lon="-1.04851">
        <ele>6.6</ele>
        <time>2020-06-02T10:18:56Z</time>
      </trkpt>
      <trkpt lat="46.20789" lon="-1.04847">
        <ele>6.7</ele>
        <time>2020-06-02T10:18:57Z</time>
      </trkpt>
      <trkpt lat="46.20795" lon="-1.04843">
        <ele>6.9</ele>
        <time>2020-06-02T10:18:58Z</time>
      </trkpt>
      <trkpt lat="46.208" lon="-1.04839">
        <ele>7.2</ele>
        <time>2020-06-02T10:18:59Z</time>
      </trkpt>
      <trkpt lat="46.20804" lon="-1.04835">
        <ele>7.5</ele>
        <time>2020-06-02T10:19:00Z</time>
      </trkpt>
      <trkpt lat="46.20808" lon="-1.04832">
        <ele>7.8</ele>
        <time>2020-06-02T10:19:01Z</time>
      </trkpt>
      <trkpt lat="46.20811" lon="-1.04828">
        <ele>8</ele>
        <time>2020-06-02T10:19:02Z</time>
      </trkpt>
      <trkpt lat="46.20814" lon="-1.04824">
        <ele>8.2</ele>
        <time>2020-06-02T10:19:03Z</time>
      </trkpt>
      <trkpt lat="46.20817" lon="-1.04821">
        <ele>8.4</ele>
        <time>2020-06-02T10:19:04Z</time>
      </trkpt>
      <trkpt lat="46.2082" lon="-1.04818">
        <ele>8.6</ele>
        <time>2020-06-02T10:19:05Z</time>
      </trkpt>
      <trkpt lat="46.20823" lon="-1.04816">
        <ele>8.8</ele>
        <time>2020-06-02T10:19:06Z</time>
      </trkpt>
      <trkpt lat="46.20826" lon="-1.04815">
        <ele>8.9</ele>
        <time>2020-06-02T10:19:07Z</time>
      </trkpt>
      <trkpt lat="46.20829" lon="-1.04812">
        <ele>9</ele>
        <time>2020-06-02T10:19:08Z</time>
      </trkpt>
      <trkpt lat="46.20833" lon="-1.04811">
        <ele>9.1</ele>
        <time>2020-06-02T10:19:09Z</time>
      </trkpt>
      <trkpt lat="46.20837" lon="-1.04808">
        <ele>9.1</ele>
        <time>2020-06-02T10:19:10Z</time>
      </trkpt>
      <trkpt lat="46.20841" lon="-1.04805">
        <ele>9.2</ele>
        <time>2020-06-02T10:19:11Z</time>
      </trkpt>
      <trkpt lat="46.20845" lon="-1.04801">
        <ele>9.1</ele>
        <time>2020-06-02T10:19:12Z</time>
      </trkpt>
      <trkpt lat="46.20849" lon="-1.04799">
        <ele>9.1</ele>
        <time>2020-06-02T10:19:13Z</time>
      </trkpt>
      <trkpt lat="46.20852" lon="-1.04795">
        <ele>9</ele>
        <time>2020-06-02T10:19:14Z</time>
      </trkpt>
      <trkpt lat="46.20856" lon="-1.04792">
        <ele>8.9</ele>
        <time>2020-06-02T10:19:15Z</time>
      </trkpt>
      <trkpt lat="46.20861" lon="-1.0479">
        <ele>8.8</ele>
        <time>2020-06-02T10:19:16Z</time>
      </trkpt>
      <trkpt lat="46.20866" lon="-1.04788">
        <ele>8.7</ele>
        <time>2020-06-02T10:19:17Z</time>
      </trkpt>
      <trkpt lat="46.20871" lon="-1.04784">
        <ele>8.6</ele>
        <time>2020-06-02T10:19:18Z</time>
      </trkpt>
      <trkpt lat="46.20877" lon="-1.04779">
        <ele>8.4</ele>
        <time>2020-06-02T10:19:19Z</time>
      </trkpt>
      <trkpt lat="46.20882" lon="-1.04775">
        <ele>8.3</ele>
        <time>2020-06-02T10:19:20Z</time>
      </trkpt>
      <trkpt lat="46.20887" lon="-1.04772">
        <ele>8.2</ele>
        <time>2020-06-02T10:19:21Z</time>
      </trkpt>
      <trkpt lat="46.20891" lon="-1.04769">
        <ele>8.1</ele>
        <time>2020-06-02T10:19:22Z</time>
      </trkpt>
      <trkpt lat="46.20895" lon="-1.04766">
        <ele>8.1</ele>
        <time>2020-06-02T10:19:23Z</time>
      </trkpt>
      <trkpt lat="46.20898" lon="-1.04763">
        <ele>8.1</ele>
        <time>2020-06-02T10:19:24Z</time>
      </trkpt>
      <trkpt lat="46.20901" lon="-1.04759">
        <ele>8.1</ele>
        <time>2020-06-02T10:19:25Z</time>
      </trkpt>
      <trkpt lat="46.20905" lon="-1.04756">
        <ele>8.1</ele>
        <time>2020-06-02T10:19:26Z</time>
      </trkpt>
      <trkpt lat="46.20909" lon="-1.04754">
        <ele>8.1</ele>
        <time>2020-06-02T10:19:27Z</time>
      </trkpt>
      <trkpt lat="46.20912" lon="-1.0475">
        <ele>8.1</ele>
        <time>2020-06-02T10:19:28Z</time>
      </trkpt>
      <trkpt lat="46.20917" lon="-1.04747">
        <ele>8.1</ele>
        <time>2020-06-02T10:19:29Z</time>
      </trkpt>
      <trkpt lat="46.20921" lon="-1.04744">
        <ele>8.1</ele>
        <time>2020-06-02T10:19:30Z</time>
      </trkpt>
      <trkpt lat="46.20925" lon="-1.0474">
        <ele>8.1</ele>
        <time>2020-06-02T10:19:31Z</time>
      </trkpt>
      <trkpt lat="46.20929" lon="-1.04738">
        <ele>8.1</ele>
        <time>2020-06-02T10:19:32Z</time>
      </trkpt>
      <trkpt lat="46.20933" lon="-1.04734">
        <ele>8.1</ele>
        <time>2020-06-02T10:19:33Z</time>
      </trkpt>
      <trkpt lat="46.20938" lon="-1.0473">
        <ele>8.2</ele>
        <time>2020-06-02T10:19:34Z</time>
      </trkpt>
      <trkpt lat="46.20942" lon="-1.04727">
        <ele>8.2</ele>
        <time>2020-06-02T10:19:35Z</time>
      </trkpt>
      <trkpt lat="46.20947" lon="-1.04725">
        <ele>8.2</ele>
        <time>2020-06-02T10:19:36Z</time>
      </trkpt>
      <trkpt lat="46.20952" lon="-1.0472">
        <ele>8.1</ele>
        <time>2020-06-02T10:19:37Z</time>
      </trkpt>
      <trkpt lat="46.20956" lon="-1.04717">
        <ele>8.1</ele>
        <time>2020-06-02T10:19:38Z</time>
      </trkpt>
      <trkpt lat="46.20961" lon="-1.04713">
        <ele>8.1</ele>
        <time>2020-06-02T10:19:39Z</time>
      </trkpt>
      <trkpt lat="46.20966" lon="-1.0471">
        <ele>8.1</ele>
        <time>2020-06-02T10:19:40Z</time>
      </trkpt>
      <trkpt lat="46.20971" lon="-1.04706">
        <ele>8.1</ele>
        <time>2020-06-02T10:19:41Z</time>
      </trkpt>
      <trkpt lat="46.20975" lon="-1.04702">
        <ele>8.1</ele>
        <time>2020-06-02T10:19:42Z</time>
      </trkpt>
      <trkpt lat="46.2098" lon="-1.047">
        <ele>8.1</ele>
        <time>2020-06-02T10:19:43Z</time>
      </trkpt>
      <trkpt lat="46.20984" lon="-1.04694">
        <ele>8.1</ele>
        <time>2020-06-02T10:19:44Z</time>
      </trkpt>
      <trkpt lat="46.20988" lon="-1.04691">
        <ele>8.1</ele>
        <time>2020-06-02T10:19:45Z</time>
      </trkpt>
      <trkpt lat="46.20993" lon="-1.04687">
        <ele>8.1</ele>
        <time>2020-06-02T10:19:46Z</time>
      </trkpt>
      <trkpt lat="46.20998" lon="-1.04684">
        <ele>8.1</ele>
        <time>2020-06-02T10:19:47Z</time>
      </trkpt>
      <trkpt lat="46.21002" lon="-1.04681">
        <ele>8.1</ele>
        <time>2020-06-02T10:19:48Z</time>
      </trkpt>
      <trkpt lat="46.21006" lon="-1.04677">
        <ele>8</ele>
        <time>2020-06-02T10:19:49Z</time>
      </trkpt>
      <trkpt lat="46.21011" lon="-1.04674">
        <ele>8</ele>
        <time>2020-06-02T10:19:50Z</time>
      </trkpt>
      <trkpt lat="46.21016" lon="-1.0467">
        <ele>8</ele>
        <time>2020-06-02T10:19:51Z</time>
      </trkpt>
      <trkpt lat="46.2102" lon="-1.04666">
        <ele>7.9</ele>
        <time>2020-06-02T10:19:52Z</time>
      </trkpt>
      <trkpt lat="46.21025" lon="-1.04663">
        <ele>7.9</ele>
        <time>2020-06-02T10:19:53Z</time>
      </trkpt>
      <trkpt lat="46.2103" lon="-1.0466">
        <ele>7.8</ele>
        <time>2020-06-02T10:19:54Z</time>
      </trkpt>
      <trkpt lat="46.21035" lon="-1.04656">
        <ele>7.8</ele>
        <time>2020-06-02T10:19:55Z</time>
      </trkpt>
      <trkpt lat="46.2104" lon="-1.0465">
        <ele>7.8</ele>
        <time>2020-06-02T10:19:56Z</time>
      </trkpt>
      <trkpt lat="46.21045" lon="-1.04646">
        <ele>7.8</ele>
        <time>2020-06-02T10:19:57Z</time>
      </trkpt>
      <trkpt lat="46.2105" lon="-1.04641">
        <ele>7.8</ele>
        <time>2020-06-02T10:19:58Z</time>
      </trkpt>
      <trkpt lat="46.21055" lon="-1.04637">
        <ele>7.8</ele>
        <time>2020-06-02T10:19:59Z</time>
      </trkpt>
      <trkpt lat="46.21059" lon="-1.04633">
        <ele>7.8</ele>
        <time>2020-06-02T10:20:00Z</time>
      </trkpt>
      <trkpt lat="46.21064" lon="-1.04629">
        <ele>7.8</ele>
        <time>2020-06-02T10:20:01Z</time>
      </trkpt>
      <trkpt lat="46.21068" lon="-1.04625">
        <ele>7.7</ele>
        <time>2020-06-02T10:20:02Z</time>
      </trkpt>
      <trkpt lat="46.21073" lon="-1.04622">
        <ele>7.7</ele>
        <time>2020-06-02T10:20:03Z</time>
      </trkpt>
      <trkpt lat="46.21077" lon="-1.04619">
        <ele>7.7</ele>
        <time>2020-06-02T10:20:04Z</time>
      </trkpt>
      <trkpt lat="46.21082" lon="-1.04616">
        <ele>7.7</ele>
        <time>2020-06-02T10:20:05Z</time>
      </trkpt>
      <trkpt lat="46.21087" lon="-1.04613">
        <ele>7.7</ele>
        <time>2020-06-02T10:20:06Z</time>
      </trkpt>
      <trkpt lat="46.21091" lon="-1.0461">
        <ele>7.6</ele>
        <time>2020-06-02T10:20:07Z</time>
      </trkpt>
      <trkpt lat="46.21096" lon="-1.04608">
        <ele>7.6</ele>
        <time>2020-06-02T10:20:08Z</time>
      </trkpt>
      <trkpt lat="46.21101" lon="-1.04605">
        <ele>7.6</ele>
        <time>2020-06-02T10:20:09Z</time>
      </trkpt>
      <trkpt lat="46.21106" lon="-1.04603">
        <ele>7.6</ele>
        <time>2020-06-02T10:20:10Z</time>
      </trkpt>
      <trkpt lat="46.21111" lon="-1.046">
        <ele>7.6</ele>
        <time>2020-06-02T10:20:11Z</time>
      </trkpt>
      <trkpt lat="46.21115" lon="-1.04597">
        <ele>7.6</ele>
        <time>2020-06-02T10:20:12Z</time>
      </trkpt>
      <trkpt lat="46.2112" lon="-1.04595">
        <ele>7.5</ele>
        <time>2020-06-02T10:20:13Z</time>
      </trkpt>
      <trkpt lat="46.21125" lon="-1.04592">
        <ele>7.5</ele>
        <time>2020-06-02T10:20:14Z</time>
      </trkpt>
      <trkpt lat="46.2113" lon="-1.04589">
        <ele>7.5</ele>
        <time>2020-06-02T10:20:15Z</time>
      </trkpt>
      <trkpt lat="46.21135" lon="-1.04586">
        <ele>7.5</ele>
        <time>2020-06-02T10:20:16Z</time>
      </trkpt>
      <trkpt lat="46.2114" lon="-1.04583">
        <ele>7.5</ele>
        <time>2020-06-02T10:20:17Z</time>
      </trkpt>
      <trkpt lat="46.21145" lon="-1.0458">
        <ele>7.4</ele>
        <time>2020-06-02T10:20:18Z</time>
      </trkpt>
      <trkpt lat="46.21151" lon="-1.04579">
        <ele>7.4</ele>
        <time>2020-06-02T10:20:19Z</time>
      </trkpt>
      <trkpt lat="46.21156" lon="-1.04577">
        <ele>7.3</ele>
        <time>2020-06-02T10:20:20Z</time>
      </trkpt>
      <trkpt lat="46.21161" lon="-1.04575">
        <ele>7.2</ele>
        <time>2020-06-02T10:20:21Z</time>
      </trkpt>
      <trkpt lat="46.21166" lon="-1.04573">
        <ele>7.2</ele>
        <time>2020-06-02T10:20:22Z</time>
      </trkpt>
      <trkpt lat="46.21172" lon="-1.04571">
        <ele>7</ele>
        <time>2020-06-02T10:20:23Z</time>
      </trkpt>
      <trkpt lat="46.21178" lon="-1.04568">
        <ele>6.9</ele>
        <time>2020-06-02T10:20:24Z</time>
      </trkpt>
      <trkpt lat="46.21184" lon="-1.04566">
        <ele>6.8</ele>
        <time>2020-06-02T10:20:25Z</time>
      </trkpt>
      <trkpt lat="46.2119" lon="-1.04563">
        <ele>6.7</ele>
        <time>2020-06-02T10:20:26Z</time>
      </trkpt>
      <trkpt lat="46.21196" lon="-1.04562">
        <ele>6.6</ele>
        <time>2020-06-02T10:20:27Z</time>
      </trkpt>
      <trkpt lat="46.21201" lon="-1.0456">
        <ele>6.5</ele>
        <time>2020-06-02T10:20:28Z</time>
      </trkpt>
      <trkpt lat="46.21207" lon="-1.04559">
        <ele>6.4</ele>
        <time>2020-06-02T10:20:29Z</time>
      </trkpt>
      <trkpt lat="46.21213" lon="-1.0456">
        <ele>6.3</ele>
        <time>2020-06-02T10:20:30Z</time>
      </trkpt>
      <trkpt lat="46.21218" lon="-1.04559">
        <ele>6.2</ele>
        <time>2020-06-02T10:20:31Z</time>
      </trkpt>
      <trkpt lat="46.21224" lon="-1.04558">
        <ele>6.1</ele>
        <time>2020-06-02T10:20:32Z</time>
      </trkpt>
      <trkpt lat="46.21229" lon="-1.04556">
        <ele>6</ele>
        <time>2020-06-02T10:20:33Z</time>
      </trkpt>
      <trkpt lat="46.21235" lon="-1.04556">
        <ele>5.9</ele>
        <time>2020-06-02T10:20:34Z</time>
      </trkpt>
      <trkpt lat="46.2124" lon="-1.04555">
        <ele>5.9</ele>
        <time>2020-06-02T10:20:35Z</time>
      </trkpt>
      <trkpt lat="46.21246" lon="-1.04555">
        <ele>5.8</ele>
        <time>2020-06-02T10:20:36Z</time>
      </trkpt>
      <trkpt lat="46.21252" lon="-1.04554">
        <ele>5.7</ele>
        <time>2020-06-02T10:20:37Z</time>
      </trkpt>
      <trkpt lat="46.21257" lon="-1.04553">
        <ele>5.6</ele>
        <time>2020-06-02T10:20:38Z</time>
      </trkpt>
      <trkpt lat="46.21262" lon="-1.04552">
        <ele>5.6</ele>
        <time>2020-06-02T10:20:39Z</time>
      </trkpt>
      <trkpt lat="46.21267" lon="-1.04552">
        <ele>5.5</ele>
        <time>2020-06-02T10:20:40Z</time>
      </trkpt>
      <trkpt lat="46.21272" lon="-1.04552">
        <ele>5.5</ele>
        <time>2020-06-02T10:20:41Z</time>
      </trkpt>
      <trkpt lat="46.21278" lon="-1.04551">
        <ele>5.5</ele>
        <time>2020-06-02T10:20:42Z</time>
      </trkpt>
      <trkpt lat="46.21284" lon="-1.04551">
        <ele>5.4</ele>
        <time>2020-06-02T10:20:43Z</time>
      </trkpt>
      <trkpt lat="46.21289" lon="-1.04552">
        <ele>5.4</ele>
        <time>2020-06-02T10:20:44Z</time>
      </trkpt>
      <trkpt lat="46.21295" lon="-1.04552">
        <ele>5.4</ele>
        <time>2020-06-02T10:20:45Z</time>
      </trkpt>
      <trkpt lat="46.213" lon="-1.04552">
        <ele>5.4</ele>
        <time>2020-06-02T10:20:46Z</time>
      </trkpt>
      <trkpt lat="46.21306" lon="-1.04553">
        <ele>5.4</ele>
        <time>2020-06-02T10:20:47Z</time>
      </trkpt>
      <trkpt lat="46.21311" lon="-1.04552">
        <ele>5.4</ele>
        <time>2020-06-02T10:20:48Z</time>
      </trkpt>
      <trkpt lat="46.21316" lon="-1.04552">
        <ele>5.3</ele>
        <time>2020-06-02T10:20:49Z</time>
      </trkpt>
      <trkpt lat="46.21322" lon="-1.04552">
        <ele>5.3</ele>
        <time>2020-06-02T10:20:50Z</time>
      </trkpt>
      <trkpt lat="46.21326" lon="-1.04553">
        <ele>5.3</ele>
        <time>2020-06-02T10:20:51Z</time>
      </trkpt>
      <trkpt lat="46.21331" lon="-1.04554">
        <ele>5.3</ele>
        <time>2020-06-02T10:20:52Z</time>
      </trkpt>
      <trkpt lat="46.21336" lon="-1.04553">
        <ele>5.2</ele>
        <time>2020-06-02T10:20:53Z</time>
      </trkpt>
      <trkpt lat="46.21341" lon="-1.04555">
        <ele>5.2</ele>
        <time>2020-06-02T10:20:54Z</time>
      </trkpt>
      <trkpt lat="46.21346" lon="-1.04555">
        <ele>5.2</ele>
        <time>2020-06-02T10:20:55Z</time>
      </trkpt>
      <trkpt lat="46.21351" lon="-1.04556">
        <ele>5.1</ele>
        <time>2020-06-02T10:20:56Z</time>
      </trkpt>
      <trkpt lat="46.21357" lon="-1.04558">
        <ele>5.1</ele>
        <time>2020-06-02T10:20:57Z</time>
      </trkpt>
      <trkpt lat="46.21362" lon="-1.0456">
        <ele>5.1</ele>
        <time>2020-06-02T10:20:58Z</time>
      </trkpt>
      <trkpt lat="46.21366" lon="-1.04561">
        <ele>5</ele>
        <time>2020-06-02T10:20:59Z</time>
      </trkpt>
      <trkpt lat="46.2137" lon="-1.04562">
        <ele>5</ele>
        <time>2020-06-02T10:21:00Z</time>
      </trkpt>
      <trkpt lat="46.21374" lon="-1.04561">
        <ele>5</ele>
        <time>2020-06-02T10:21:01Z</time>
      </trkpt>
      <trkpt lat="46.21378" lon="-1.04562">
        <ele>5.1</ele>
        <time>2020-06-02T10:21:02Z</time>
      </trkpt>
      <trkpt lat="46.21383" lon="-1.04563">
        <ele>5.1</ele>
        <time>2020-06-02T10:21:03Z</time>
      </trkpt>
      <trkpt lat="46.21388" lon="-1.04564">
        <ele>5.2</ele>
        <time>2020-06-02T10:21:04Z</time>
      </trkpt>
      <trkpt lat="46.21393" lon="-1.04566">
        <ele>5.3</ele>
        <time>2020-06-02T10:21:05Z</time>
      </trkpt>
      <trkpt lat="46.21398" lon="-1.04567">
        <ele>5.3</ele>
        <time>2020-06-02T10:21:06Z</time>
      </trkpt>
      <trkpt lat="46.21403" lon="-1.04568">
        <ele>5.4</ele>
        <time>2020-06-02T10:21:07Z</time>
      </trkpt>
      <trkpt lat="46.21407" lon="-1.04571">
        <ele>5.3</ele>
        <time>2020-06-02T10:21:08Z</time>
      </trkpt>
      <trkpt lat="46.21411" lon="-1.04573">
        <ele>5.3</ele>
        <time>2020-06-02T10:21:09Z</time>
      </trkpt>
      <trkpt lat="46.21416" lon="-1.04575">
        <ele>5.3</ele>
        <time>2020-06-02T10:21:10Z</time>
      </trkpt>
      <trkpt lat="46.2142" lon="-1.04576">
        <ele>5.2</ele>
        <time>2020-06-02T10:21:11Z</time>
      </trkpt>
      <trkpt lat="46.21424" lon="-1.04578">
        <ele>5.2</ele>
        <time>2020-06-02T10:21:12Z</time>
      </trkpt>
      <trkpt lat="46.21429" lon="-1.04582">
        <ele>5.1</ele>
        <time>2020-06-02T10:21:13Z</time>
      </trkpt>
      <trkpt lat="46.21434" lon="-1.04586">
        <ele>5</ele>
        <time>2020-06-02T10:21:14Z</time>
      </trkpt>
      <trkpt lat="46.2144" lon="-1.04589">
        <ele>5</ele>
        <time>2020-06-02T10:21:15Z</time>
      </trkpt>
      <trkpt lat="46.21445" lon="-1.04592">
        <ele>5</ele>
        <time>2020-06-02T10:21:16Z</time>
      </trkpt>
      <trkpt lat="46.21451" lon="-1.04593">
        <ele>4.9</ele>
        <time>2020-06-02T10:21:17Z</time>
      </trkpt>
      <trkpt lat="46.21455" lon="-1.04596">
        <ele>4.8</ele>
        <time>2020-06-02T10:21:18Z</time>
      </trkpt>
      <trkpt lat="46.21461" lon="-1.04598">
        <ele>4.8</ele>
        <time>2020-06-02T10:21:19Z</time>
      </trkpt>
      <trkpt lat="46.21466" lon="-1.04599">
        <ele>4.7</ele>
        <time>2020-06-02T10:21:20Z</time>
      </trkpt>
      <trkpt lat="46.21471" lon="-1.04601">
        <ele>4.6</ele>
        <time>2020-06-02T10:21:21Z</time>
      </trkpt>
      <trkpt lat="46.21477" lon="-1.04602">
        <ele>4.6</ele>
        <time>2020-06-02T10:21:22Z</time>
      </trkpt>
      <trkpt lat="46.21482" lon="-1.04603">
        <ele>4.5</ele>
        <time>2020-06-02T10:21:23Z</time>
      </trkpt>
      <trkpt lat="46.21488" lon="-1.04605">
        <ele>4.5</ele>
        <time>2020-06-02T10:21:24Z</time>
      </trkpt>
      <trkpt lat="46.21493" lon="-1.04608">
        <ele>4.5</ele>
        <time>2020-06-02T10:21:25Z</time>
      </trkpt>
      <trkpt lat="46.21499" lon="-1.04611">
        <ele>4.6</ele>
        <time>2020-06-02T10:21:26Z</time>
      </trkpt>
      <trkpt lat="46.21505" lon="-1.04613">
        <ele>4.6</ele>
        <time>2020-06-02T10:21:27Z</time>
      </trkpt>
      <trkpt lat="46.21511" lon="-1.04616">
        <ele>4.6</ele>
        <time>2020-06-02T10:21:28Z</time>
      </trkpt>
      <trkpt lat="46.21516" lon="-1.04618">
        <ele>4.6</ele>
        <time>2020-06-02T10:21:29Z</time>
      </trkpt>
      <trkpt lat="46.21521" lon="-1.0462">
        <ele>4.6</ele>
        <time>2020-06-02T10:21:30Z</time>
      </trkpt>
      <trkpt lat="46.21527" lon="-1.04622">
        <ele>4.6</ele>
        <time>2020-06-02T10:21:31Z</time>
      </trkpt>
      <trkpt lat="46.21532" lon="-1.04623">
        <ele>4.5</ele>
        <time>2020-06-02T10:21:32Z</time>
      </trkpt>
      <trkpt lat="46.21537" lon="-1.04625">
        <ele>4.5</ele>
        <time>2020-06-02T10:21:33Z</time>
      </trkpt>
      <trkpt lat="46.21542" lon="-1.04626">
        <ele>4.5</ele>
        <time>2020-06-02T10:21:34Z</time>
      </trkpt>
      <trkpt lat="46.21547" lon="-1.04629">
        <ele>4.5</ele>
        <time>2020-06-02T10:21:35Z</time>
      </trkpt>
      <trkpt lat="46.21553" lon="-1.04632">
        <ele>4.6</ele>
        <time>2020-06-02T10:21:36Z</time>
      </trkpt>
      <trkpt lat="46.21558" lon="-1.04633">
        <ele>4.6</ele>
        <time>2020-06-02T10:21:37Z</time>
      </trkpt>
      <trkpt lat="46.21563" lon="-1.04636">
        <ele>4.6</ele>
        <time>2020-06-02T10:21:38Z</time>
      </trkpt>
      <trkpt lat="46.21569" lon="-1.04638">
        <ele>4.6</ele>
        <time>2020-06-02T10:21:39Z</time>
      </trkpt>
      <trkpt lat="46.21574" lon="-1.0464">
        <ele>4.7</ele>
        <time>2020-06-02T10:21:40Z</time>
      </trkpt>
      <trkpt lat="46.21579" lon="-1.04641">
        <ele>4.7</ele>
        <time>2020-06-02T10:21:41Z</time>
      </trkpt>
      <trkpt lat="46.21585" lon="-1.04642">
        <ele>4.7</ele>
        <time>2020-06-02T10:21:42Z</time>
      </trkpt>
      <trkpt lat="46.2159" lon="-1.04646">
        <ele>4.7</ele>
        <time>2020-06-02T10:21:43Z</time>
      </trkpt>
      <trkpt lat="46.21595" lon="-1.04648">
        <ele>4.7</ele>
        <time>2020-06-02T10:21:44Z</time>
      </trkpt>
      <trkpt lat="46.216" lon="-1.04651">
        <ele>4.7</ele>
        <time>2020-06-02T10:21:45Z</time>
      </trkpt>
      <trkpt lat="46.21604" lon="-1.04653">
        <ele>4.6</ele>
        <time>2020-06-02T10:21:46Z</time>
      </trkpt>
      <trkpt lat="46.2161" lon="-1.04655">
        <ele>4.6</ele>
        <time>2020-06-02T10:21:47Z</time>
      </trkpt>
      <trkpt lat="46.21615" lon="-1.04657">
        <ele>4.6</ele>
        <time>2020-06-02T10:21:48Z</time>
      </trkpt>
      <trkpt lat="46.2162" lon="-1.04659">
        <ele>4.5</ele>
        <time>2020-06-02T10:21:49Z</time>
      </trkpt>
      <trkpt lat="46.21625" lon="-1.04661">
        <ele>4.5</ele>
        <time>2020-06-02T10:21:50Z</time>
      </trkpt>
      <trkpt lat="46.2163" lon="-1.04663">
        <ele>4.4</ele>
        <time>2020-06-02T10:21:51Z</time>
      </trkpt>
      <trkpt lat="46.21636" lon="-1.04665">
        <ele>4.4</ele>
        <time>2020-06-02T10:21:52Z</time>
      </trkpt>
      <trkpt lat="46.21641" lon="-1.04667">
        <ele>4.3</ele>
        <time>2020-06-02T10:21:53Z</time>
      </trkpt>
      <trkpt lat="46.21647" lon="-1.0467">
        <ele>4.3</ele>
        <time>2020-06-02T10:21:54Z</time>
      </trkpt>
      <trkpt lat="46.21652" lon="-1.04674">
        <ele>4.3</ele>
        <time>2020-06-02T10:21:55Z</time>
      </trkpt>
      <trkpt lat="46.21658" lon="-1.04675">
        <ele>4.2</ele>
        <time>2020-06-02T10:21:56Z</time>
      </trkpt>
      <trkpt lat="46.21663" lon="-1.04677">
        <ele>4.2</ele>
        <time>2020-06-02T10:21:57Z</time>
      </trkpt>
      <trkpt lat="46.21668" lon="-1.0468">
        <ele>4.2</ele>
        <time>2020-06-02T10:21:58Z</time>
      </trkpt>
      <trkpt lat="46.21674" lon="-1.04682">
        <ele>4.1</ele>
        <time>2020-06-02T10:21:59Z</time>
      </trkpt>
      <trkpt lat="46.21679" lon="-1.04684">
        <ele>4.1</ele>
        <time>2020-06-02T10:22:00Z</time>
      </trkpt>
      <trkpt lat="46.21685" lon="-1.04686">
        <ele>4.1</ele>
        <time>2020-06-02T10:22:01Z</time>
      </trkpt>
      <trkpt lat="46.2169" lon="-1.04689">
        <ele>4.1</ele>
        <time>2020-06-02T10:22:02Z</time>
      </trkpt>
      <trkpt lat="46.21695" lon="-1.04691">
        <ele>4.1</ele>
        <time>2020-06-02T10:22:03Z</time>
      </trkpt>
      <trkpt lat="46.21701" lon="-1.04693">
        <ele>4.1</ele>
        <time>2020-06-02T10:22:04Z</time>
      </trkpt>
      <trkpt lat="46.21706" lon="-1.04695">
        <ele>4.2</ele>
        <time>2020-06-02T10:22:05Z</time>
      </trkpt>
      <trkpt lat="46.21712" lon="-1.04698">
        <ele>4.2</ele>
        <time>2020-06-02T10:22:06Z</time>
      </trkpt>
      <trkpt lat="46.21717" lon="-1.047">
        <ele>4.1</ele>
        <time>2020-06-02T10:22:07Z</time>
      </trkpt>
      <trkpt lat="46.21723" lon="-1.04702">
        <ele>4.1</ele>
        <time>2020-06-02T10:22:08Z</time>
      </trkpt>
      <trkpt lat="46.21729" lon="-1.04704">
        <ele>4.1</ele>
        <time>2020-06-02T10:22:09Z</time>
      </trkpt>
      <trkpt lat="46.21734" lon="-1.04707">
        <ele>4</ele>
        <time>2020-06-02T10:22:10Z</time>
      </trkpt>
      <trkpt lat="46.2174" lon="-1.0471">
        <ele>3.9</ele>
        <time>2020-06-02T10:22:11Z</time>
      </trkpt>
      <trkpt lat="46.21746" lon="-1.04712">
        <ele>3.9</ele>
        <time>2020-06-02T10:22:12Z</time>
      </trkpt>
      <trkpt lat="46.21752" lon="-1.04714">
        <ele>3.8</ele>
        <time>2020-06-02T10:22:13Z</time>
      </trkpt>
      <trkpt lat="46.21757" lon="-1.04717">
        <ele>3.7</ele>
        <time>2020-06-02T10:22:14Z</time>
      </trkpt>
      <trkpt lat="46.21763" lon="-1.04719">
        <ele>3.7</ele>
        <time>2020-06-02T10:22:15Z</time>
      </trkpt>
      <trkpt lat="46.21769" lon="-1.04722">
        <ele>3.7</ele>
        <time>2020-06-02T10:22:16Z</time>
      </trkpt>
      <trkpt lat="46.21774" lon="-1.04724">
        <ele>3.7</ele>
        <time>2020-06-02T10:22:17Z</time>
      </trkpt>
      <trkpt lat="46.21779" lon="-1.04727">
        <ele>3.7</ele>
        <time>2020-06-02T10:22:18Z</time>
      </trkpt>
      <trkpt lat="46.21785" lon="-1.0473">
        <ele>3.8</ele>
        <time>2020-06-02T10:22:19Z</time>
      </trkpt>
      <trkpt lat="46.2179" lon="-1.04733">
        <ele>3.8</ele>
        <time>2020-06-02T10:22:20Z</time>
      </trkpt>
      <trkpt lat="46.21795" lon="-1.04735">
        <ele>3.8</ele>
        <time>2020-06-02T10:22:21Z</time>
      </trkpt>
      <trkpt lat="46.21801" lon="-1.04737">
        <ele>3.9</ele>
        <time>2020-06-02T10:22:22Z</time>
      </trkpt>
      <trkpt lat="46.21807" lon="-1.04737">
        <ele>4</ele>
        <time>2020-06-02T10:22:23Z</time>
      </trkpt>
      <trkpt lat="46.21812" lon="-1.0474">
        <ele>4</ele>
        <time>2020-06-02T10:22:24Z</time>
      </trkpt>
      <trkpt lat="46.21817" lon="-1.04742">
        <ele>4</ele>
        <time>2020-06-02T10:22:25Z</time>
      </trkpt>
      <trkpt lat="46.21823" lon="-1.04744">
        <ele>4.1</ele>
        <time>2020-06-02T10:22:26Z</time>
      </trkpt>
      <trkpt lat="46.21829" lon="-1.04747">
        <ele>4.1</ele>
        <time>2020-06-02T10:22:27Z</time>
      </trkpt>
      <trkpt lat="46.21834" lon="-1.04749">
        <ele>4.1</ele>
        <time>2020-06-02T10:22:28Z</time>
      </trkpt>
      <trkpt lat="46.2184" lon="-1.04752">
        <ele>4.1</ele>
        <time>2020-06-02T10:22:29Z</time>
      </trkpt>
      <trkpt lat="46.21845" lon="-1.04755">
        <ele>4.1</ele>
        <time>2020-06-02T10:22:30Z</time>
      </trkpt>
      <trkpt lat="46.2185" lon="-1.04758">
        <ele>4.1</ele>
        <time>2020-06-02T10:22:31Z</time>
      </trkpt>
      <trkpt lat="46.21856" lon="-1.0476">
        <ele>4.1</ele>
        <time>2020-06-02T10:22:32Z</time>
      </trkpt>
      <trkpt lat="46.21861" lon="-1.04762">
        <ele>4.1</ele>
        <time>2020-06-02T10:22:33Z</time>
      </trkpt>
      <trkpt lat="46.21867" lon="-1.04764">
        <ele>4.1</ele>
        <time>2020-06-02T10:22:34Z</time>
      </trkpt>
      <trkpt lat="46.21872" lon="-1.04766">
        <ele>4.1</ele>
        <time>2020-06-02T10:22:35Z</time>
      </trkpt>
      <trkpt lat="46.21878" lon="-1.04769">
        <ele>4.1</ele>
        <time>2020-06-02T10:22:36Z</time>
      </trkpt>
      <trkpt lat="46.21884" lon="-1.04771">
        <ele>4.1</ele>
        <time>2020-06-02T10:22:37Z</time>
      </trkpt>
      <trkpt lat="46.2189" lon="-1.04772">
        <ele>4.1</ele>
        <time>2020-06-02T10:22:38Z</time>
      </trkpt>
      <trkpt lat="46.21895" lon="-1.04775">
        <ele>4.1</ele>
        <time>2020-06-02T10:22:39Z</time>
      </trkpt>
      <trkpt lat="46.219" lon="-1.04777">
        <ele>4.1</ele>
        <time>2020-06-02T10:22:40Z</time>
      </trkpt>
      <trkpt lat="46.21906" lon="-1.04779">
        <ele>4.1</ele>
        <time>2020-06-02T10:22:41Z</time>
      </trkpt>
      <trkpt lat="46.21911" lon="-1.04781">
        <ele>4.1</ele>
        <time>2020-06-02T10:22:42Z</time>
      </trkpt>
      <trkpt lat="46.21916" lon="-1.04783">
        <ele>4.2</ele>
        <time>2020-06-02T10:22:43Z</time>
      </trkpt>
      <trkpt lat="46.21921" lon="-1.04784">
        <ele>4.2</ele>
        <time>2020-06-02T10:22:44Z</time>
      </trkpt>
      <trkpt lat="46.21927" lon="-1.04786">
        <ele>4.2</ele>
        <time>2020-06-02T10:22:45Z</time>
      </trkpt>
      <trkpt lat="46.21932" lon="-1.04788">
        <ele>4.2</ele>
        <time>2020-06-02T10:22:46Z</time>
      </trkpt>
      <trkpt lat="46.21938" lon="-1.04791">
        <ele>4.2</ele>
        <time>2020-06-02T10:22:47Z</time>
      </trkpt>
      <trkpt lat="46.21943" lon="-1.04793">
        <ele>4.3</ele>
        <time>2020-06-02T10:22:48Z</time>
      </trkpt>
      <trkpt lat="46.21948" lon="-1.04795">
        <ele>4.3</ele>
        <time>2020-06-02T10:22:49Z</time>
      </trkpt>
      <trkpt lat="46.21953" lon="-1.04798">
        <ele>4.3</ele>
        <time>2020-06-02T10:22:50Z</time>
      </trkpt>
      <trkpt lat="46.21959" lon="-1.048">
        <ele>4.4</ele>
        <time>2020-06-02T10:22:51Z</time>
      </trkpt>
      <trkpt lat="46.21964" lon="-1.04804">
        <ele>4.5</ele>
        <time>2020-06-02T10:22:52Z</time>
      </trkpt>
      <trkpt lat="46.21969" lon="-1.04805">
        <ele>4.5</ele>
        <time>2020-06-02T10:22:53Z</time>
      </trkpt>
      <trkpt lat="46.21975" lon="-1.04807">
        <ele>4.6</ele>
        <time>2020-06-02T10:22:54Z</time>
      </trkpt>
      <trkpt lat="46.2198" lon="-1.0481">
        <ele>4.6</ele>
        <time>2020-06-02T10:22:55Z</time>
      </trkpt>
      <trkpt lat="46.21985" lon="-1.04812">
        <ele>4.6</ele>
        <time>2020-06-02T10:22:56Z</time>
      </trkpt>
      <trkpt lat="46.21991" lon="-1.04814">
        <ele>4.6</ele>
        <time>2020-06-02T10:22:57Z</time>
      </trkpt>
      <trkpt lat="46.21996" lon="-1.04816">
        <ele>4.6</ele>
        <time>2020-06-02T10:22:58Z</time>
      </trkpt>
      <trkpt lat="46.22002" lon="-1.04819">
        <ele>4.6</ele>
        <time>2020-06-02T10:22:59Z</time>
      </trkpt>
      <trkpt lat="46.22007" lon="-1.0482">
        <ele>4.6</ele>
        <time>2020-06-02T10:23:00Z</time>
      </trkpt>
      <trkpt lat="46.22013" lon="-1.04821">
        <ele>4.6</ele>
        <time>2020-06-02T10:23:01Z</time>
      </trkpt>
      <trkpt lat="46.22018" lon="-1.04823">
        <ele>4.6</ele>
        <time>2020-06-02T10:23:02Z</time>
      </trkpt>
      <trkpt lat="46.22024" lon="-1.04825">
        <ele>4.5</ele>
        <time>2020-06-02T10:23:03Z</time>
      </trkpt>
      <trkpt lat="46.2203" lon="-1.04826">
        <ele>4.4</ele>
        <time>2020-06-02T10:23:04Z</time>
      </trkpt>
      <trkpt lat="46.22036" lon="-1.04828">
        <ele>4.4</ele>
        <time>2020-06-02T10:23:05Z</time>
      </trkpt>
      <trkpt lat="46.22041" lon="-1.0483">
        <ele>4.3</ele>
        <time>2020-06-02T10:23:06Z</time>
      </trkpt>
      <trkpt lat="46.22047" lon="-1.04832">
        <ele>4.2</ele>
        <time>2020-06-02T10:23:07Z</time>
      </trkpt>
      <trkpt lat="46.22052" lon="-1.04835">
        <ele>4.1</ele>
        <time>2020-06-02T10:23:08Z</time>
      </trkpt>
      <trkpt lat="46.22057" lon="-1.04838">
        <ele>4.1</ele>
        <time>2020-06-02T10:23:09Z</time>
      </trkpt>
      <trkpt lat="46.22062" lon="-1.04842">
        <ele>4</ele>
        <time>2020-06-02T10:23:10Z</time>
      </trkpt>
      <trkpt lat="46.22068" lon="-1.04843">
        <ele>4</ele>
        <time>2020-06-02T10:23:11Z</time>
      </trkpt>
      <trkpt lat="46.22073" lon="-1.04847">
        <ele>4</ele>
        <time>2020-06-02T10:23:12Z</time>
      </trkpt>
      <trkpt lat="46.22079" lon="-1.04849">
        <ele>4</ele>
        <time>2020-06-02T10:23:13Z</time>
      </trkpt>
      <trkpt lat="46.22084" lon="-1.04851">
        <ele>4</ele>
        <time>2020-06-02T10:23:14Z</time>
      </trkpt>
      <trkpt lat="46.22089" lon="-1.04853">
        <ele>4</ele>
        <time>2020-06-02T10:23:15Z</time>
      </trkpt>
      <trkpt lat="46.22094" lon="-1.04856">
        <ele>4</ele>
        <time>2020-06-02T10:23:16Z</time>
      </trkpt>
      <trkpt lat="46.22099" lon="-1.04858">
        <ele>4</ele>
        <time>2020-06-02T10:23:17Z</time>
      </trkpt>
      <trkpt lat="46.22104" lon="-1.04861">
        <ele>4</ele>
        <time>2020-06-02T10:23:18Z</time>
      </trkpt>
      <trkpt lat="46.22109" lon="-1.04865">
        <ele>3.9</ele>
        <time>2020-06-02T10:23:19Z</time>
      </trkpt>
      <trkpt lat="46.22114" lon="-1.04867">
        <ele>3.9</ele>
        <time>2020-06-02T10:23:20Z</time>
      </trkpt>
      <trkpt lat="46.22119" lon="-1.04869">
        <ele>4</ele>
        <time>2020-06-02T10:23:21Z</time>
      </trkpt>
      <trkpt lat="46.22124" lon="-1.0487">
        <ele>4</ele>
        <time>2020-06-02T10:23:22Z</time>
      </trkpt>
      <trkpt lat="46.22129" lon="-1.04873">
        <ele>4</ele>
        <time>2020-06-02T10:23:23Z</time>
      </trkpt>
      <trkpt lat="46.22135" lon="-1.04875">
        <ele>4</ele>
        <time>2020-06-02T10:23:24Z</time>
      </trkpt>
      <trkpt lat="46.2214" lon="-1.04877">
        <ele>4</ele>
        <time>2020-06-02T10:23:25Z</time>
      </trkpt>
      <trkpt lat="46.22146" lon="-1.04878">
        <ele>4</ele>
        <time>2020-06-02T10:23:26Z</time>
      </trkpt>
      <trkpt lat="46.22152" lon="-1.0488">
        <ele>4</ele>
        <time>2020-06-02T10:23:27Z</time>
      </trkpt>
      <trkpt lat="46.22158" lon="-1.04882">
        <ele>4</ele>
        <time>2020-06-02T10:23:28Z</time>
      </trkpt>
      <trkpt lat="46.22164" lon="-1.04884">
        <ele>4</ele>
        <time>2020-06-02T10:23:29Z</time>
      </trkpt>
      <trkpt lat="46.22169" lon="-1.04886">
        <ele>4</ele>
        <time>2020-06-02T10:23:30Z</time>
      </trkpt>
      <trkpt lat="46.22174" lon="-1.04888">
        <ele>4</ele>
        <time>2020-06-02T10:23:31Z</time>
      </trkpt>
      <trkpt lat="46.22179" lon="-1.0489">
        <ele>4</ele>
        <time>2020-06-02T10:23:32Z</time>
      </trkpt>
      <trkpt lat="46.22184" lon="-1.04894">
        <ele>4</ele>
        <time>2020-06-02T10:23:33Z</time>
      </trkpt>
      <trkpt lat="46.2219" lon="-1.04896">
        <ele>4.1</ele>
        <time>2020-06-02T10:23:34Z</time>
      </trkpt>
      <trkpt lat="46.22195" lon="-1.049">
        <ele>4.1</ele>
        <time>2020-06-02T10:23:35Z</time>
      </trkpt>
      <trkpt lat="46.22201" lon="-1.04901">
        <ele>4.1</ele>
        <time>2020-06-02T10:23:36Z</time>
      </trkpt>
      <trkpt lat="46.22207" lon="-1.04903">
        <ele>4.1</ele>
        <time>2020-06-02T10:23:37Z</time>
      </trkpt>
      <trkpt lat="46.22212" lon="-1.04906">
        <ele>4.1</ele>
        <time>2020-06-02T10:23:38Z</time>
      </trkpt>
      <trkpt lat="46.22218" lon="-1.04908">
        <ele>4.1</ele>
        <time>2020-06-02T10:23:39Z</time>
      </trkpt>
      <trkpt lat="46.22223" lon="-1.0491">
        <ele>4.1</ele>
        <time>2020-06-02T10:23:40Z</time>
      </trkpt>
      <trkpt lat="46.22229" lon="-1.04912">
        <ele>4.1</ele>
        <time>2020-06-02T10:23:41Z</time>
      </trkpt>
      <trkpt lat="46.22234" lon="-1.04915">
        <ele>4.1</ele>
        <time>2020-06-02T10:23:42Z</time>
      </trkpt>
      <trkpt lat="46.2224" lon="-1.04918">
        <ele>4.1</ele>
        <time>2020-06-02T10:23:43Z</time>
      </trkpt>
      <trkpt lat="46.22247" lon="-1.04919">
        <ele>4.1</ele>
        <time>2020-06-02T10:23:44Z</time>
      </trkpt>
      <trkpt lat="46.22252" lon="-1.04922">
        <ele>4.1</ele>
        <time>2020-06-02T10:23:45Z</time>
      </trkpt>
      <trkpt lat="46.22258" lon="-1.04925">
        <ele>4.1</ele>
        <time>2020-06-02T10:23:46Z</time>
      </trkpt>
      <trkpt lat="46.22264" lon="-1.04927">
        <ele>4.1</ele>
        <time>2020-06-02T10:23:47Z</time>
      </trkpt>
      <trkpt lat="46.22269" lon="-1.04928">
        <ele>4.1</ele>
        <time>2020-06-02T10:23:48Z</time>
      </trkpt>
      <trkpt lat="46.22275" lon="-1.0493">
        <ele>4.1</ele>
        <time>2020-06-02T10:23:49Z</time>
      </trkpt>
      <trkpt lat="46.2228" lon="-1.04934">
        <ele>4.1</ele>
        <time>2020-06-02T10:23:50Z</time>
      </trkpt>
      <trkpt lat="46.22285" lon="-1.04937">
        <ele>4.1</ele>
        <time>2020-06-02T10:23:51Z</time>
      </trkpt>
      <trkpt lat="46.22291" lon="-1.04939">
        <ele>4.1</ele>
        <time>2020-06-02T10:23:52Z</time>
      </trkpt>
      <trkpt lat="46.22297" lon="-1.0494">
        <ele>4.1</ele>
        <time>2020-06-02T10:23:53Z</time>
      </trkpt>
      <trkpt lat="46.22303" lon="-1.04942">
        <ele>4.1</ele>
        <time>2020-06-02T10:23:54Z</time>
      </trkpt>
      <trkpt lat="46.22309" lon="-1.04945">
        <ele>4.1</ele>
        <time>2020-06-02T10:23:55Z</time>
      </trkpt>
      <trkpt lat="46.22315" lon="-1.04948">
        <ele>4.1</ele>
        <time>2020-06-02T10:23:56Z</time>
      </trkpt>
      <trkpt lat="46.2232" lon="-1.04951">
        <ele>4.1</ele>
        <time>2020-06-02T10:23:57Z</time>
      </trkpt>
      <trkpt lat="46.22326" lon="-1.04953">
        <ele>4.1</ele>
        <time>2020-06-02T10:23:58Z</time>
      </trkpt>
      <trkpt lat="46.22332" lon="-1.04956">
        <ele>4.1</ele>
        <time>2020-06-02T10:23:59Z</time>
      </trkpt>
      <trkpt lat="46.22337" lon="-1.04958">
        <ele>4.1</ele>
        <time>2020-06-02T10:24:00Z</time>
      </trkpt>
      <trkpt lat="46.22342" lon="-1.04961">
        <ele>4.1</ele>
        <time>2020-06-02T10:24:01Z</time>
      </trkpt>
      <trkpt lat="46.22347" lon="-1.04964">
        <ele>4.1</ele>
        <time>2020-06-02T10:24:02Z</time>
      </trkpt>
      <trkpt lat="46.22353" lon="-1.04967">
        <ele>4.1</ele>
        <time>2020-06-02T10:24:03Z</time>
      </trkpt>
      <trkpt lat="46.22358" lon="-1.04969">
        <ele>4.1</ele>
        <time>2020-06-02T10:24:04Z</time>
      </trkpt>
      <trkpt lat="46.22364" lon="-1.04972">
        <ele>4.1</ele>
        <time>2020-06-02T10:24:05Z</time>
      </trkpt>
      <trkpt lat="46.2237" lon="-1.04973">
        <ele>4.1</ele>
        <time>2020-06-02T10:24:06Z</time>
      </trkpt>
      <trkpt lat="46.22375" lon="-1.04976">
        <ele>4.1</ele>
        <time>2020-06-02T10:24:07Z</time>
      </trkpt>
      <trkpt lat="46.22381" lon="-1.04978">
        <ele>4.2</ele>
        <time>2020-06-02T10:24:08Z</time>
      </trkpt>
      <trkpt lat="46.22386" lon="-1.04981">
        <ele>4.2</ele>
        <time>2020-06-02T10:24:09Z</time>
      </trkpt>
      <trkpt lat="46.22392" lon="-1.04983">
        <ele>4.2</ele>
        <time>2020-06-02T10:24:10Z</time>
      </trkpt>
      <trkpt lat="46.22397" lon="-1.04985">
        <ele>4.2</ele>
        <time>2020-06-02T10:24:11Z</time>
      </trkpt>
      <trkpt lat="46.22403" lon="-1.04987">
        <ele>4.2</ele>
        <time>2020-06-02T10:24:12Z</time>
      </trkpt>
      <trkpt lat="46.22409" lon="-1.04988">
        <ele>4.2</ele>
        <time>2020-06-02T10:24:13Z</time>
      </trkpt>
      <trkpt lat="46.22414" lon="-1.0499">
        <ele>4.2</ele>
        <time>2020-06-02T10:24:14Z</time>
      </trkpt>
      <trkpt lat="46.2242" lon="-1.04993">
        <ele>4.2</ele>
        <time>2020-06-02T10:24:15Z</time>
      </trkpt>
      <trkpt lat="46.22425" lon="-1.04995">
        <ele>4.2</ele>
        <time>2020-06-02T10:24:16Z</time>
      </trkpt>
      <trkpt lat="46.22431" lon="-1.04997">
        <ele>4.2</ele>
        <time>2020-06-02T10:24:17Z</time>
      </trkpt>
      <trkpt lat="46.22436" lon="-1.05">
        <ele>4.2</ele>
        <time>2020-06-02T10:24:18Z</time>
      </trkpt>
      <trkpt lat="46.22442" lon="-1.05003">
        <ele>4.2</ele>
        <time>2020-06-02T10:24:19Z</time>
      </trkpt>
      <trkpt lat="46.22447" lon="-1.05004">
        <ele>4.2</ele>
        <time>2020-06-02T10:24:20Z</time>
      </trkpt>
      <trkpt lat="46.22453" lon="-1.05007">
        <ele>4.3</ele>
        <time>2020-06-02T10:24:21Z</time>
      </trkpt>
      <trkpt lat="46.22458" lon="-1.05009">
        <ele>4.3</ele>
        <time>2020-06-02T10:24:22Z</time>
      </trkpt>
      <trkpt lat="46.22464" lon="-1.05012">
        <ele>4.3</ele>
        <time>2020-06-02T10:24:23Z</time>
      </trkpt>
      <trkpt lat="46.22469" lon="-1.05014">
        <ele>4.3</ele>
        <time>2020-06-02T10:24:24Z</time>
      </trkpt>
      <trkpt lat="46.22475" lon="-1.05015">
        <ele>4.3</ele>
        <time>2020-06-02T10:24:25Z</time>
      </trkpt>
      <trkpt lat="46.2248" lon="-1.05017">
        <ele>4.3</ele>
        <time>2020-06-02T10:24:26Z</time>
      </trkpt>
      <trkpt lat="46.22486" lon="-1.05019">
        <ele>4.3</ele>
        <time>2020-06-02T10:24:27Z</time>
      </trkpt>
      <trkpt lat="46.22491" lon="-1.05021">
        <ele>4.3</ele>
        <time>2020-06-02T10:24:28Z</time>
      </trkpt>
      <trkpt lat="46.22497" lon="-1.05023">
        <ele>4.2</ele>
        <time>2020-06-02T10:24:29Z</time>
      </trkpt>
      <trkpt lat="46.22503" lon="-1.05025">
        <ele>4.2</ele>
        <time>2020-06-02T10:24:30Z</time>
      </trkpt>
      <trkpt lat="46.22508" lon="-1.05026">
        <ele>4.2</ele>
        <time>2020-06-02T10:24:31Z</time>
      </trkpt>
      <trkpt lat="46.22513" lon="-1.05028">
        <ele>4.2</ele>
        <time>2020-06-02T10:24:32Z</time>
      </trkpt>
      <trkpt lat="46.22518" lon="-1.05031">
        <ele>4.2</ele>
        <time>2020-06-02T10:24:33Z</time>
      </trkpt>
      <trkpt lat="46.22524" lon="-1.05033">
        <ele>4.2</ele>
        <time>2020-06-02T10:24:34Z</time>
      </trkpt>
      <trkpt lat="46.22529" lon="-1.05036">
        <ele>4.2</ele>
        <time>2020-06-02T10:24:35Z</time>
      </trkpt>
      <trkpt lat="46.22535" lon="-1.05039">
        <ele>4.2</ele>
        <time>2020-06-02T10:24:36Z</time>
      </trkpt>
      <trkpt lat="46.22541" lon="-1.05042">
        <ele>4.2</ele>
        <time>2020-06-02T10:24:37Z</time>
      </trkpt>
      <trkpt lat="46.22546" lon="-1.05045">
        <ele>4.2</ele>
        <time>2020-06-02T10:24:38Z</time>
      </trkpt>
      <trkpt lat="46.22551" lon="-1.05047">
        <ele>4.2</ele>
        <time>2020-06-02T10:24:39Z</time>
      </trkpt>
      <trkpt lat="46.22556" lon="-1.0505">
        <ele>4.1</ele>
        <time>2020-06-02T10:24:40Z</time>
      </trkpt>
      <trkpt lat="46.22561" lon="-1.05052">
        <ele>4.1</ele>
        <time>2020-06-02T10:24:41Z</time>
      </trkpt>
      <trkpt lat="46.22566" lon="-1.05053">
        <ele>4.1</ele>
        <time>2020-06-02T10:24:42Z</time>
      </trkpt>
      <trkpt lat="46.22571" lon="-1.05054">
        <ele>4.1</ele>
        <time>2020-06-02T10:24:43Z</time>
      </trkpt>
      <trkpt lat="46.22576" lon="-1.05056">
        <ele>4.1</ele>
        <time>2020-06-02T10:24:44Z</time>
      </trkpt>
      <trkpt lat="46.22581" lon="-1.05058">
        <ele>4.1</ele>
        <time>2020-06-02T10:24:45Z</time>
      </trkpt>
      <trkpt lat="46.22586" lon="-1.0506">
        <ele>4.1</ele>
        <time>2020-06-02T10:24:46Z</time>
      </trkpt>
      <trkpt lat="46.22592" lon="-1.05062">
        <ele>4</ele>
        <time>2020-06-02T10:24:47Z</time>
      </trkpt>
      <trkpt lat="46.22597" lon="-1.05067">
        <ele>4</ele>
        <time>2020-06-02T10:24:48Z</time>
      </trkpt>
      <trkpt lat="46.22603" lon="-1.05069">
        <ele>4</ele>
        <time>2020-06-02T10:24:49Z</time>
      </trkpt>
      <trkpt lat="46.22609" lon="-1.05071">
        <ele>4</ele>
        <time>2020-06-02T10:24:50Z</time>
      </trkpt>
      <trkpt lat="46.22615" lon="-1.05073">
        <ele>4</ele>
        <time>2020-06-02T10:24:51Z</time>
      </trkpt>
      <trkpt lat="46.22621" lon="-1.05073">
        <ele>4</ele>
        <time>2020-06-02T10:24:52Z</time>
      </trkpt>
      <trkpt lat="46.22626" lon="-1.05075">
        <ele>4</ele>
        <time>2020-06-02T10:24:53Z</time>
      </trkpt>
      <trkpt lat="46.22632" lon="-1.05077">
        <ele>4</ele>
        <time>2020-06-02T10:24:54Z</time>
      </trkpt>
      <trkpt lat="46.22637" lon="-1.05082">
        <ele>4</ele>
        <time>2020-06-02T10:24:55Z</time>
      </trkpt>
      <trkpt lat="46.22643" lon="-1.05085">
        <ele>4</ele>
        <time>2020-06-02T10:24:56Z</time>
      </trkpt>
      <trkpt lat="46.22649" lon="-1.05086">
        <ele>4</ele>
        <time>2020-06-02T10:24:57Z</time>
      </trkpt>
      <trkpt lat="46.22654" lon="-1.05088">
        <ele>4</ele>
        <time>2020-06-02T10:24:58Z</time>
      </trkpt>
      <trkpt lat="46.2266" lon="-1.0509">
        <ele>4</ele>
        <time>2020-06-02T10:24:59Z</time>
      </trkpt>
      <trkpt lat="46.22665" lon="-1.05092">
        <ele>4</ele>
        <time>2020-06-02T10:25:00Z</time>
      </trkpt>
      <trkpt lat="46.2267" lon="-1.05095">
        <ele>4</ele>
        <time>2020-06-02T10:25:01Z</time>
      </trkpt>
      <trkpt lat="46.22676" lon="-1.05095">
        <ele>4</ele>
        <time>2020-06-02T10:25:02Z</time>
      </trkpt>
      <trkpt lat="46.22681" lon="-1.05098">
        <ele>4</ele>
        <time>2020-06-02T10:25:03Z</time>
      </trkpt>
      <trkpt lat="46.22687" lon="-1.051">
        <ele>4</ele>
        <time>2020-06-02T10:25:04Z</time>
      </trkpt>
      <trkpt lat="46.22693" lon="-1.05103">
        <ele>4</ele>
        <time>2020-06-02T10:25:05Z</time>
      </trkpt>
      <trkpt lat="46.22697" lon="-1.05107">
        <ele>4</ele>
        <time>2020-06-02T10:25:06Z</time>
      </trkpt>
      <trkpt lat="46.22703" lon="-1.0511">
        <ele>4.1</ele>
        <time>2020-06-02T10:25:07Z</time>
      </trkpt>
      <trkpt lat="46.22708" lon="-1.05112">
        <ele>4.1</ele>
        <time>2020-06-02T10:25:08Z</time>
      </trkpt>
      <trkpt lat="46.22713" lon="-1.05113">
        <ele>4.1</ele>
        <time>2020-06-02T10:25:09Z</time>
      </trkpt>
      <trkpt lat="46.22718" lon="-1.05114">
        <ele>4.1</ele>
        <time>2020-06-02T10:25:10Z</time>
      </trkpt>
      <trkpt lat="46.22723" lon="-1.05113">
        <ele>4.1</ele>
        <time>2020-06-02T10:25:11Z</time>
      </trkpt>
      <trkpt lat="46.22729" lon="-1.05113">
        <ele>4.1</ele>
        <time>2020-06-02T10:25:12Z</time>
      </trkpt>
      <trkpt lat="46.22734" lon="-1.05115">
        <ele>4.1</ele>
        <time>2020-06-02T10:25:13Z</time>
      </trkpt>
      <trkpt lat="46.22738" lon="-1.05118">
        <ele>4.1</ele>
        <time>2020-06-02T10:25:14Z</time>
      </trkpt>
      <trkpt lat="46.22743" lon="-1.05121">
        <ele>4.1</ele>
        <time>2020-06-02T10:25:15Z</time>
      </trkpt>
      <trkpt lat="46.22747" lon="-1.05125">
        <ele>4.1</ele>
        <time>2020-06-02T10:25:16Z</time>
      </trkpt>
      <trkpt lat="46.22752" lon="-1.05129">
        <ele>4.1</ele>
        <time>2020-06-02T10:25:17Z</time>
      </trkpt>
      <trkpt lat="46.22756" lon="-1.05132">
        <ele>4.1</ele>
        <time>2020-06-02T10:25:18Z</time>
      </trkpt>
      <trkpt lat="46.22761" lon="-1.05135">
        <ele>4.1</ele>
        <time>2020-06-02T10:25:19Z</time>
      </trkpt>
      <trkpt lat="46.22765" lon="-1.05139">
        <ele>4.1</ele>
        <time>2020-06-02T10:25:20Z</time>
      </trkpt>
      <trkpt lat="46.22769" lon="-1.05141">
        <ele>4.1</ele>
        <time>2020-06-02T10:25:21Z</time>
      </trkpt>
      <trkpt lat="46.22774" lon="-1.05143">
        <ele>4.1</ele>
        <time>2020-06-02T10:25:22Z</time>
      </trkpt>
      <trkpt lat="46.22778" lon="-1.05144">
        <ele>4.1</ele>
        <time>2020-06-02T10:25:23Z</time>
      </trkpt>
      <trkpt lat="46.22783" lon="-1.05145">
        <ele>4.1</ele>
        <time>2020-06-02T10:25:24Z</time>
      </trkpt>
      <trkpt lat="46.22788" lon="-1.05148">
        <ele>4.1</ele>
        <time>2020-06-02T10:25:25Z</time>
      </trkpt>
      <trkpt lat="46.22792" lon="-1.05151">
        <ele>4.1</ele>
        <time>2020-06-02T10:25:26Z</time>
      </trkpt>
      <trkpt lat="46.22797" lon="-1.05152">
        <ele>4.1</ele>
        <time>2020-06-02T10:25:27Z</time>
      </trkpt>
      <trkpt lat="46.22802" lon="-1.05153">
        <ele>4.1</ele>
        <time>2020-06-02T10:25:28Z</time>
      </trkpt>
      <trkpt lat="46.22807" lon="-1.05154">
        <ele>4.1</ele>
        <time>2020-06-02T10:25:29Z</time>
      </trkpt>
      <trkpt lat="46.22812" lon="-1.05157">
        <ele>4.1</ele>
        <time>2020-06-02T10:25:30Z</time>
      </trkpt>
      <trkpt lat="46.22817" lon="-1.05157">
        <ele>4.1</ele>
        <time>2020-06-02T10:25:31Z</time>
      </trkpt>
      <trkpt lat="46.22822" lon="-1.0516">
        <ele>4.1</ele>
        <time>2020-06-02T10:25:32Z</time>
      </trkpt>
      <trkpt lat="46.22827" lon="-1.05163">
        <ele>4</ele>
        <time>2020-06-02T10:25:33Z</time>
      </trkpt>
      <trkpt lat="46.22831" lon="-1.05167">
        <ele>4</ele>
        <time>2020-06-02T10:25:34Z</time>
      </trkpt>
      <trkpt lat="46.22836" lon="-1.05169">
        <ele>4</ele>
        <time>2020-06-02T10:25:35Z</time>
      </trkpt>
      <trkpt lat="46.22842" lon="-1.05171">
        <ele>4</ele>
        <time>2020-06-02T10:25:36Z</time>
      </trkpt>
      <trkpt lat="46.22847" lon="-1.05174">
        <ele>4</ele>
        <time>2020-06-02T10:25:37Z</time>
      </trkpt>
      <trkpt lat="46.22852" lon="-1.05176">
        <ele>4</ele>
        <time>2020-06-02T10:25:38Z</time>
      </trkpt>
      <trkpt lat="46.22857" lon="-1.05176">
        <ele>4</ele>
        <time>2020-06-02T10:25:39Z</time>
      </trkpt>
      <trkpt lat="46.22862" lon="-1.05177">
        <ele>4</ele>
        <time>2020-06-02T10:25:40Z</time>
      </trkpt>
      <trkpt lat="46.22867" lon="-1.05177">
        <ele>4</ele>
        <time>2020-06-02T10:25:41Z</time>
      </trkpt>
      <trkpt lat="46.22872" lon="-1.05178">
        <ele>3.9</ele>
        <time>2020-06-02T10:25:42Z</time>
      </trkpt>
      <trkpt lat="46.22876" lon="-1.0518">
        <ele>3.9</ele>
        <time>2020-06-02T10:25:43Z</time>
      </trkpt>
      <trkpt lat="46.2288" lon="-1.05181">
        <ele>3.9</ele>
        <time>2020-06-02T10:25:44Z</time>
      </trkpt>
      <trkpt lat="46.22884" lon="-1.0518">
        <ele>3.9</ele>
        <time>2020-06-02T10:25:45Z</time>
      </trkpt>
      <trkpt lat="46.22888" lon="-1.0518">
        <ele>3.9</ele>
        <time>2020-06-02T10:25:46Z</time>
      </trkpt>
      <trkpt lat="46.22892" lon="-1.0518">
        <ele>3.9</ele>
        <time>2020-06-02T10:25:47Z</time>
      </trkpt>
      <trkpt lat="46.22896" lon="-1.0518">
        <ele>3.9</ele>
        <time>2020-06-02T10:25:48Z</time>
      </trkpt>
      <trkpt lat="46.229" lon="-1.0518">
        <ele>3.9</ele>
        <time>2020-06-02T10:25:49Z</time>
      </trkpt>
      <trkpt lat="46.22905" lon="-1.0518">
        <ele>3.9</ele>
        <time>2020-06-02T10:25:50Z</time>
      </trkpt>
      <trkpt lat="46.22909" lon="-1.05182">
        <ele>3.9</ele>
        <time>2020-06-02T10:25:51Z</time>
      </trkpt>
      <trkpt lat="46.22915" lon="-1.05182">
        <ele>4</ele>
        <time>2020-06-02T10:25:52Z</time>
      </trkpt>
      <trkpt lat="46.2292" lon="-1.05182">
        <ele>4</ele>
        <time>2020-06-02T10:25:53Z</time>
      </trkpt>
      <trkpt lat="46.22926" lon="-1.05182">
        <ele>3.9</ele>
        <time>2020-06-02T10:25:54Z</time>
      </trkpt>
      <trkpt lat="46.22932" lon="-1.0518">
        <ele>3.9</ele>
        <time>2020-06-02T10:25:55Z</time>
      </trkpt>
      <trkpt lat="46.22938" lon="-1.0518">
        <ele>3.9</ele>
        <time>2020-06-02T10:25:56Z</time>
      </trkpt>
      <trkpt lat="46.22944" lon="-1.0518">
        <ele>3.9</ele>
        <time>2020-06-02T10:25:57Z</time>
      </trkpt>
      <trkpt lat="46.22949" lon="-1.05179">
        <ele>3.9</ele>
        <time>2020-06-02T10:25:58Z</time>
      </trkpt>
      <trkpt lat="46.22955" lon="-1.05177">
        <ele>3.9</ele>
        <time>2020-06-02T10:25:59Z</time>
      </trkpt>
      <trkpt lat="46.2296" lon="-1.05178">
        <ele>3.9</ele>
        <time>2020-06-02T10:26:00Z</time>
      </trkpt>
      <trkpt lat="46.22965" lon="-1.05177">
        <ele>3.9</ele>
        <time>2020-06-02T10:26:01Z</time>
      </trkpt>
      <trkpt lat="46.22971" lon="-1.05176">
        <ele>3.9</ele>
        <time>2020-06-02T10:26:02Z</time>
      </trkpt>
      <trkpt lat="46.22976" lon="-1.05175">
        <ele>3.9</ele>
        <time>2020-06-02T10:26:03Z</time>
      </trkpt>
      <trkpt lat="46.22981" lon="-1.05175">
        <ele>3.9</ele>
        <time>2020-06-02T10:26:04Z</time>
      </trkpt>
      <trkpt lat="46.22986" lon="-1.05174">
        <ele>3.9</ele>
        <time>2020-06-02T10:26:05Z</time>
      </trkpt>
      <trkpt lat="46.22991" lon="-1.05173">
        <ele>3.9</ele>
        <time>2020-06-02T10:26:06Z</time>
      </trkpt>
      <trkpt lat="46.22997" lon="-1.0517">
        <ele>3.9</ele>
        <time>2020-06-02T10:26:07Z</time>
      </trkpt>
      <trkpt lat="46.23002" lon="-1.05168">
        <ele>3.9</ele>
        <time>2020-06-02T10:26:08Z</time>
      </trkpt>
      <trkpt lat="46.23007" lon="-1.05166">
        <ele>3.9</ele>
        <time>2020-06-02T10:26:09Z</time>
      </trkpt>
      <trkpt lat="46.23013" lon="-1.05165">
        <ele>3.9</ele>
        <time>2020-06-02T10:26:10Z</time>
      </trkpt>
      <trkpt lat="46.23018" lon="-1.05164">
        <ele>3.9</ele>
        <time>2020-06-02T10:26:11Z</time>
      </trkpt>
      <trkpt lat="46.23023" lon="-1.0516">
        <ele>3.9</ele>
        <time>2020-06-02T10:26:12Z</time>
      </trkpt>
      <trkpt lat="46.23028" lon="-1.05157">
        <ele>3.9</ele>
        <time>2020-06-02T10:26:13Z</time>
      </trkpt>
      <trkpt lat="46.23033" lon="-1.05154">
        <ele>3.9</ele>
        <time>2020-06-02T10:26:14Z</time>
      </trkpt>
      <trkpt lat="46.23039" lon="-1.05153">
        <ele>3.9</ele>
        <time>2020-06-02T10:26:15Z</time>
      </trkpt>
      <trkpt lat="46.23044" lon="-1.05151">
        <ele>3.9</ele>
        <time>2020-06-02T10:26:16Z</time>
      </trkpt>
      <trkpt lat="46.23049" lon="-1.05148">
        <ele>3.9</ele>
        <time>2020-06-02T10:26:17Z</time>
      </trkpt>
      <trkpt lat="46.23054" lon="-1.05146">
        <ele>3.9</ele>
        <time>2020-06-02T10:26:18Z</time>
      </trkpt>
      <trkpt lat="46.2306" lon="-1.05144">
        <ele>3.9</ele>
        <time>2020-06-02T10:26:19Z</time>
      </trkpt>
      <trkpt lat="46.23065" lon="-1.05142">
        <ele>3.9</ele>
        <time>2020-06-02T10:26:20Z</time>
      </trkpt>
      <trkpt lat="46.2307" lon="-1.05139">
        <ele>3.9</ele>
        <time>2020-06-02T10:26:21Z</time>
      </trkpt>
      <trkpt lat="46.23075" lon="-1.05138">
        <ele>3.9</ele>
        <time>2020-06-02T10:26:22Z</time>
      </trkpt>
      <trkpt lat="46.2308" lon="-1.05137">
        <ele>3.9</ele>
        <time>2020-06-02T10:26:23Z</time>
      </trkpt>
      <trkpt lat="46.23085" lon="-1.05136">
        <ele>3.9</ele>
        <time>2020-06-02T10:26:24Z</time>
      </trkpt>
      <trkpt lat="46.23091" lon="-1.05135">
        <ele>3.9</ele>
        <time>2020-06-02T10:26:25Z</time>
      </trkpt>
      <trkpt lat="46.23096" lon="-1.05132">
        <ele>3.9</ele>
        <time>2020-06-02T10:26:26Z</time>
      </trkpt>
      <trkpt lat="46.23101" lon="-1.0513">
        <ele>3.9</ele>
        <time>2020-06-02T10:26:27Z</time>
      </trkpt>
      <trkpt lat="46.23106" lon="-1.05127">
        <ele>3.9</ele>
        <time>2020-06-02T10:26:28Z</time>
      </trkpt>
      <trkpt lat="46.23112" lon="-1.05123">
        <ele>3.9</ele>
        <time>2020-06-02T10:26:29Z</time>
      </trkpt>
      <trkpt lat="46.23117" lon="-1.0512">
        <ele>3.9</ele>
        <time>2020-06-02T10:26:30Z</time>
      </trkpt>
      <trkpt lat="46.23122" lon="-1.05118">
        <ele>3.9</ele>
        <time>2020-06-02T10:26:31Z</time>
      </trkpt>
      <trkpt lat="46.23127" lon="-1.05116">
        <ele>3.9</ele>
        <time>2020-06-02T10:26:32Z</time>
      </trkpt>
      <trkpt lat="46.23132" lon="-1.05115">
        <ele>3.9</ele>
        <time>2020-06-02T10:26:33Z</time>
      </trkpt>
      <trkpt lat="46.23138" lon="-1.05113">
        <ele>3.9</ele>
        <time>2020-06-02T10:26:34Z</time>
      </trkpt>
      <trkpt lat="46.23143" lon="-1.05111">
        <ele>3.9</ele>
        <time>2020-06-02T10:26:35Z</time>
      </trkpt>
      <trkpt lat="46.23149" lon="-1.05109">
        <ele>3.9</ele>
        <time>2020-06-02T10:26:36Z</time>
      </trkpt>
      <trkpt lat="46.23154" lon="-1.05108">
        <ele>3.9</ele>
        <time>2020-06-02T10:26:37Z</time>
      </trkpt>
      <trkpt lat="46.2316" lon="-1.05106">
        <ele>3.9</ele>
        <time>2020-06-02T10:26:38Z</time>
      </trkpt>
      <trkpt lat="46.23165" lon="-1.05104">
        <ele>3.9</ele>
        <time>2020-06-02T10:26:39Z</time>
      </trkpt>
      <trkpt lat="46.23171" lon="-1.05103">
        <ele>3.9</ele>
        <time>2020-06-02T10:26:40Z</time>
      </trkpt>
      <trkpt lat="46.23176" lon="-1.05102">
        <ele>3.8</ele>
        <time>2020-06-02T10:26:41Z</time>
      </trkpt>
      <trkpt lat="46.23181" lon="-1.05101">
        <ele>3.8</ele>
        <time>2020-06-02T10:26:42Z</time>
      </trkpt>
      <trkpt lat="46.23187" lon="-1.05099">
        <ele>3.8</ele>
        <time>2020-06-02T10:26:43Z</time>
      </trkpt>
      <trkpt lat="46.23192" lon="-1.05097">
        <ele>3.8</ele>
        <time>2020-06-02T10:26:44Z</time>
      </trkpt>
      <trkpt lat="46.23198" lon="-1.05096">
        <ele>3.8</ele>
        <time>2020-06-02T10:26:45Z</time>
      </trkpt>
      <trkpt lat="46.23203" lon="-1.05094">
        <ele>3.8</ele>
        <time>2020-06-02T10:26:46Z</time>
      </trkpt>
      <trkpt lat="46.23209" lon="-1.05092">
        <ele>3.8</ele>
        <time>2020-06-02T10:26:47Z</time>
      </trkpt>
      <trkpt lat="46.23214" lon="-1.0509">
        <ele>3.8</ele>
        <time>2020-06-02T10:26:48Z</time>
      </trkpt>
      <trkpt lat="46.23219" lon="-1.05088">
        <ele>3.8</ele>
        <time>2020-06-02T10:26:49Z</time>
      </trkpt>
      <trkpt lat="46.23224" lon="-1.05085">
        <ele>3.8</ele>
        <time>2020-06-02T10:26:50Z</time>
      </trkpt>
      <trkpt lat="46.23229" lon="-1.05083">
        <ele>3.8</ele>
        <time>2020-06-02T10:26:51Z</time>
      </trkpt>
      <trkpt lat="46.23234" lon="-1.05081">
        <ele>3.9</ele>
        <time>2020-06-02T10:26:52Z</time>
      </trkpt>
      <trkpt lat="46.2324" lon="-1.05079">
        <ele>3.9</ele>
        <time>2020-06-02T10:26:53Z</time>
      </trkpt>
      <trkpt lat="46.23245" lon="-1.05076">
        <ele>3.9</ele>
        <time>2020-06-02T10:26:54Z</time>
      </trkpt>
      <trkpt lat="46.2325" lon="-1.05074">
        <ele>3.9</ele>
        <time>2020-06-02T10:26:55Z</time>
      </trkpt>
      <trkpt lat="46.23255" lon="-1.05072">
        <ele>3.9</ele>
        <time>2020-06-02T10:26:56Z</time>
      </trkpt>
      <trkpt lat="46.2326" lon="-1.05071">
        <ele>3.9</ele>
        <time>2020-06-02T10:26:57Z</time>
      </trkpt>
      <trkpt lat="46.23265" lon="-1.05069">
        <ele>3.8</ele>
        <time>2020-06-02T10:26:58Z</time>
      </trkpt>
      <trkpt lat="46.23271" lon="-1.05067">
        <ele>3.8</ele>
        <time>2020-06-02T10:26:59Z</time>
      </trkpt>
      <trkpt lat="46.23276" lon="-1.05065">
        <ele>3.8</ele>
        <time>2020-06-02T10:27:00Z</time>
      </trkpt>
      <trkpt lat="46.23282" lon="-1.05063">
        <ele>3.8</ele>
        <time>2020-06-02T10:27:01Z</time>
      </trkpt>
      <trkpt lat="46.23288" lon="-1.05061">
        <ele>3.8</ele>
        <time>2020-06-02T10:27:02Z</time>
      </trkpt>
      <trkpt lat="46.23294" lon="-1.0506">
        <ele>3.8</ele>
        <time>2020-06-02T10:27:03Z</time>
      </trkpt>
      <trkpt lat="46.233" lon="-1.05058">
        <ele>3.8</ele>
        <time>2020-06-02T10:27:04Z</time>
      </trkpt>
      <trkpt lat="46.23305" lon="-1.05056">
        <ele>3.8</ele>
        <time>2020-06-02T10:27:05Z</time>
      </trkpt>
      <trkpt lat="46.23311" lon="-1.05054">
        <ele>3.8</ele>
        <time>2020-06-02T10:27:06Z</time>
      </trkpt>
      <trkpt lat="46.23316" lon="-1.05051">
        <ele>3.8</ele>
        <time>2020-06-02T10:27:07Z</time>
      </trkpt>
      <trkpt lat="46.23322" lon="-1.05049">
        <ele>3.8</ele>
        <time>2020-06-02T10:27:08Z</time>
      </trkpt>
      <trkpt lat="46.23327" lon="-1.05046">
        <ele>3.8</ele>
        <time>2020-06-02T10:27:09Z</time>
      </trkpt>
      <trkpt lat="46.23332" lon="-1.05044">
        <ele>3.8</ele>
        <time>2020-06-02T10:27:10Z</time>
      </trkpt>
      <trkpt lat="46.23338" lon="-1.05041">
        <ele>3.7</ele>
        <time>2020-06-02T10:27:11Z</time>
      </trkpt>
      <trkpt lat="46.23343" lon="-1.05039">
        <ele>3.7</ele>
        <time>2020-06-02T10:27:12Z</time>
      </trkpt>
      <trkpt lat="46.23348" lon="-1.05036">
        <ele>3.7</ele>
        <time>2020-06-02T10:27:13Z</time>
      </trkpt>
      <trkpt lat="46.23354" lon="-1.05034">
        <ele>3.7</ele>
        <time>2020-06-02T10:27:14Z</time>
      </trkpt>
      <trkpt lat="46.2336" lon="-1.05032">
        <ele>3.7</ele>
        <time>2020-06-02T10:27:15Z</time>
      </trkpt>
      <trkpt lat="46.23366" lon="-1.05029">
        <ele>3.7</ele>
        <time>2020-06-02T10:27:16Z</time>
      </trkpt>
      <trkpt lat="46.23371" lon="-1.05027">
        <ele>3.6</ele>
        <time>2020-06-02T10:27:17Z</time>
      </trkpt>
      <trkpt lat="46.23377" lon="-1.05024">
        <ele>3.6</ele>
        <time>2020-06-02T10:27:18Z</time>
      </trkpt>
      <trkpt lat="46.23384" lon="-1.05023">
        <ele>3.6</ele>
        <time>2020-06-02T10:27:19Z</time>
      </trkpt>
      <trkpt lat="46.2339" lon="-1.0502">
        <ele>3.6</ele>
        <time>2020-06-02T10:27:20Z</time>
      </trkpt>
      <trkpt lat="46.23396" lon="-1.05019">
        <ele>3.6</ele>
        <time>2020-06-02T10:27:21Z</time>
      </trkpt>
      <trkpt lat="46.23401" lon="-1.05017">
        <ele>3.5</ele>
        <time>2020-06-02T10:27:22Z</time>
      </trkpt>
      <trkpt lat="46.23407" lon="-1.05015">
        <ele>3.5</ele>
        <time>2020-06-02T10:27:23Z</time>
      </trkpt>
      <trkpt lat="46.23413" lon="-1.05014">
        <ele>3.5</ele>
        <time>2020-06-02T10:27:24Z</time>
      </trkpt>
      <trkpt lat="46.23419" lon="-1.05011">
        <ele>3.5</ele>
        <time>2020-06-02T10:27:25Z</time>
      </trkpt>
      <trkpt lat="46.23425" lon="-1.05009">
        <ele>3.5</ele>
        <time>2020-06-02T10:27:26Z</time>
      </trkpt>
      <trkpt lat="46.23431" lon="-1.05006">
        <ele>3.5</ele>
        <time>2020-06-02T10:27:27Z</time>
      </trkpt>
      <trkpt lat="46.23436" lon="-1.05003">
        <ele>3.5</ele>
        <time>2020-06-02T10:27:28Z</time>
      </trkpt>
      <trkpt lat="46.23443" lon="-1.05">
        <ele>3.5</ele>
        <time>2020-06-02T10:27:29Z</time>
      </trkpt>
      <trkpt lat="46.23449" lon="-1.04999">
        <ele>3.5</ele>
        <time>2020-06-02T10:27:30Z</time>
      </trkpt>
      <trkpt lat="46.23455" lon="-1.04997">
        <ele>3.5</ele>
        <time>2020-06-02T10:27:31Z</time>
      </trkpt>
      <trkpt lat="46.23462" lon="-1.04995">
        <ele>3.5</ele>
        <time>2020-06-02T10:27:32Z</time>
      </trkpt>
      <trkpt lat="46.23468" lon="-1.04993">
        <ele>3.5</ele>
        <time>2020-06-02T10:27:33Z</time>
      </trkpt>
      <trkpt lat="46.23474" lon="-1.0499">
        <ele>3.5</ele>
        <time>2020-06-02T10:27:34Z</time>
      </trkpt>
      <trkpt lat="46.23481" lon="-1.04987">
        <ele>3.4</ele>
        <time>2020-06-02T10:27:35Z</time>
      </trkpt>
      <trkpt lat="46.23488" lon="-1.04985">
        <ele>3.4</ele>
        <time>2020-06-02T10:27:36Z</time>
      </trkpt>
      <trkpt lat="46.23495" lon="-1.04983">
        <ele>3.4</ele>
        <time>2020-06-02T10:27:37Z</time>
      </trkpt>
      <trkpt lat="46.23502" lon="-1.04981">
        <ele>3.4</ele>
        <time>2020-06-02T10:27:38Z</time>
      </trkpt>
      <trkpt lat="46.23509" lon="-1.04979">
        <ele>3.5</ele>
        <time>2020-06-02T10:27:39Z</time>
      </trkpt>
      <trkpt lat="46.23517" lon="-1.04976">
        <ele>3.5</ele>
        <time>2020-06-02T10:27:40Z</time>
      </trkpt>
      <trkpt lat="46.23524" lon="-1.04974">
        <ele>3.5</ele>
        <time>2020-06-02T10:27:41Z</time>
      </trkpt>
      <trkpt lat="46.23531" lon="-1.04971">
        <ele>3.5</ele>
        <time>2020-06-02T10:27:42Z</time>
      </trkpt>
      <trkpt lat="46.23538" lon="-1.04969">
        <ele>3.5</ele>
        <time>2020-06-02T10:27:43Z</time>
      </trkpt>
      <trkpt lat="46.23545" lon="-1.04966">
        <ele>3.5</ele>
        <time>2020-06-02T10:27:44Z</time>
      </trkpt>
      <trkpt lat="46.23552" lon="-1.04964">
        <ele>3.5</ele>
        <time>2020-06-02T10:27:45Z</time>
      </trkpt>
      <trkpt lat="46.23559" lon="-1.04961">
        <ele>3.5</ele>
        <time>2020-06-02T10:27:46Z</time>
      </trkpt>
      <trkpt lat="46.23566" lon="-1.04958">
        <ele>3.4</ele>
        <time>2020-06-02T10:27:47Z</time>
      </trkpt>
      <trkpt lat="46.23573" lon="-1.04955">
        <ele>3.4</ele>
        <time>2020-06-02T10:27:48Z</time>
      </trkpt>
      <trkpt lat="46.23579" lon="-1.04952">
        <ele>3.4</ele>
        <time>2020-06-02T10:27:49Z</time>
      </trkpt>
      <trkpt lat="46.23586" lon="-1.0495">
        <ele>3.4</ele>
        <time>2020-06-02T10:27:50Z</time>
      </trkpt>
      <trkpt lat="46.23592" lon="-1.04948">
        <ele>3.4</ele>
        <time>2020-06-02T10:27:51Z</time>
      </trkpt>
      <trkpt lat="46.23599" lon="-1.04945">
        <ele>3.4</ele>
        <time>2020-06-02T10:27:52Z</time>
      </trkpt>
      <trkpt lat="46.23606" lon="-1.04943">
        <ele>3.4</ele>
        <time>2020-06-02T10:27:53Z</time>
      </trkpt>
      <trkpt lat="46.23613" lon="-1.04941">
        <ele>3.4</ele>
        <time>2020-06-02T10:27:54Z</time>
      </trkpt>
      <trkpt lat="46.2362" lon="-1.04938">
        <ele>3.4</ele>
        <time>2020-06-02T10:27:55Z</time>
      </trkpt>
      <trkpt lat="46.23627" lon="-1.04936">
        <ele>3.4</ele>
        <time>2020-06-02T10:27:56Z</time>
      </trkpt>
      <trkpt lat="46.23634" lon="-1.04933">
        <ele>3.4</ele>
        <time>2020-06-02T10:27:57Z</time>
      </trkpt>
      <trkpt lat="46.23641" lon="-1.0493">
        <ele>3.4</ele>
        <time>2020-06-02T10:27:58Z</time>
      </trkpt>
      <trkpt lat="46.23648" lon="-1.04927">
        <ele>3.4</ele>
        <time>2020-06-02T10:27:59Z</time>
      </trkpt>
      <trkpt lat="46.23655" lon="-1.04924">
        <ele>3.4</ele>
        <time>2020-06-02T10:28:00Z</time>
      </trkpt>
      <trkpt lat="46.23662" lon="-1.04921">
        <ele>3.4</ele>
        <time>2020-06-02T10:28:01Z</time>
      </trkpt>
      <trkpt lat="46.23669" lon="-1.04919">
        <ele>3.4</ele>
        <time>2020-06-02T10:28:02Z</time>
      </trkpt>
      <trkpt lat="46.23675" lon="-1.04916">
        <ele>3.3</ele>
        <time>2020-06-02T10:28:03Z</time>
      </trkpt>
      <trkpt lat="46.23682" lon="-1.04913">
        <ele>3.3</ele>
        <time>2020-06-02T10:28:04Z</time>
      </trkpt>
      <trkpt lat="46.23688" lon="-1.0491">
        <ele>3.3</ele>
        <time>2020-06-02T10:28:05Z</time>
      </trkpt>
      <trkpt lat="46.23695" lon="-1.04907">
        <ele>3.3</ele>
        <time>2020-06-02T10:28:06Z</time>
      </trkpt>
      <trkpt lat="46.23702" lon="-1.04905">
        <ele>3.3</ele>
        <time>2020-06-02T10:28:07Z</time>
      </trkpt>
      <trkpt lat="46.23709" lon="-1.04903">
        <ele>3.3</ele>
        <time>2020-06-02T10:28:08Z</time>
      </trkpt>
      <trkpt lat="46.23716" lon="-1.049">
        <ele>3.3</ele>
        <time>2020-06-02T10:28:09Z</time>
      </trkpt>
      <trkpt lat="46.23723" lon="-1.04898">
        <ele>3.3</ele>
        <time>2020-06-02T10:28:10Z</time>
      </trkpt>
      <trkpt lat="46.2373" lon="-1.04895">
        <ele>3.3</ele>
        <time>2020-06-02T10:28:11Z</time>
      </trkpt>
      <trkpt lat="46.23737" lon="-1.04893">
        <ele>3.3</ele>
        <time>2020-06-02T10:28:12Z</time>
      </trkpt>
      <trkpt lat="46.23744" lon="-1.0489">
        <ele>3.3</ele>
        <time>2020-06-02T10:28:13Z</time>
      </trkpt>
      <trkpt lat="46.23751" lon="-1.04887">
        <ele>3.3</ele>
        <time>2020-06-02T10:28:14Z</time>
      </trkpt>
      <trkpt lat="46.23758" lon="-1.04884">
        <ele>3.3</ele>
        <time>2020-06-02T10:28:15Z</time>
      </trkpt>
      <trkpt lat="46.23766" lon="-1.04883">
        <ele>3.3</ele>
        <time>2020-06-02T10:28:16Z</time>
      </trkpt>
      <trkpt lat="46.23773" lon="-1.0488">
        <ele>3.3</ele>
        <time>2020-06-02T10:28:17Z</time>
      </trkpt>
      <trkpt lat="46.2378" lon="-1.04877">
        <ele>3.3</ele>
        <time>2020-06-02T10:28:18Z</time>
      </trkpt>
      <trkpt lat="46.23787" lon="-1.04874">
        <ele>3.3</ele>
        <time>2020-06-02T10:28:19Z</time>
      </trkpt>
      <trkpt lat="46.23795" lon="-1.04871">
        <ele>3.3</ele>
        <time>2020-06-02T10:28:20Z</time>
      </trkpt>
      <trkpt lat="46.23802" lon="-1.04869">
        <ele>3.3</ele>
        <time>2020-06-02T10:28:21Z</time>
      </trkpt>
      <trkpt lat="46.23809" lon="-1.04866">
        <ele>3.3</ele>
        <time>2020-06-02T10:28:22Z</time>
      </trkpt>
      <trkpt lat="46.23817" lon="-1.04863">
        <ele>3.3</ele>
        <time>2020-06-02T10:28:23Z</time>
      </trkpt>
      <trkpt lat="46.23824" lon="-1.0486">
        <ele>3.3</ele>
        <time>2020-06-02T10:28:24Z</time>
      </trkpt>
      <trkpt lat="46.23831" lon="-1.04858">
        <ele>3.3</ele>
        <time>2020-06-02T10:28:25Z</time>
      </trkpt>
      <trkpt lat="46.23838" lon="-1.04855">
        <ele>3.3</ele>
        <time>2020-06-02T10:28:26Z</time>
      </trkpt>
      <trkpt lat="46.23845" lon="-1.04852">
        <ele>3.3</ele>
        <time>2020-06-02T10:28:27Z</time>
      </trkpt>
      <trkpt lat="46.23852" lon="-1.04849">
        <ele>3.2</ele>
        <time>2020-06-02T10:28:28Z</time>
      </trkpt>
      <trkpt lat="46.23859" lon="-1.04846">
        <ele>3.2</ele>
        <time>2020-06-02T10:28:29Z</time>
      </trkpt>
      <trkpt lat="46.23865" lon="-1.04843">
        <ele>3.2</ele>
        <time>2020-06-02T10:28:30Z</time>
      </trkpt>
      <trkpt lat="46.23872" lon="-1.04839">
        <ele>3.2</ele>
        <time>2020-06-02T10:28:31Z</time>
      </trkpt>
      <trkpt lat="46.23879" lon="-1.04836">
        <ele>3.2</ele>
        <time>2020-06-02T10:28:32Z</time>
      </trkpt>
      <trkpt lat="46.23886" lon="-1.04834">
        <ele>3.2</ele>
        <time>2020-06-02T10:28:33Z</time>
      </trkpt>
      <trkpt lat="46.23893" lon="-1.0483">
        <ele>3.2</ele>
        <time>2020-06-02T10:28:34Z</time>
      </trkpt>
      <trkpt lat="46.239" lon="-1.04828">
        <ele>3.2</ele>
        <time>2020-06-02T10:28:35Z</time>
      </trkpt>
      <trkpt lat="46.23907" lon="-1.04826">
        <ele>3.2</ele>
        <time>2020-06-02T10:28:36Z</time>
      </trkpt>
      <trkpt lat="46.23914" lon="-1.04824">
        <ele>3.2</ele>
        <time>2020-06-02T10:28:37Z</time>
      </trkpt>
      <trkpt lat="46.23921" lon="-1.04822">
        <ele>3.2</ele>
        <time>2020-06-02T10:28:38Z</time>
      </trkpt>
      <trkpt lat="46.23928" lon="-1.04818">
        <ele>3.2</ele>
        <time>2020-06-02T10:28:39Z</time>
      </trkpt>
      <trkpt lat="46.23935" lon="-1.04817">
        <ele>3.2</ele>
        <time>2020-06-02T10:28:40Z</time>
      </trkpt>
      <trkpt lat="46.23942" lon="-1.04815">
        <ele>3.2</ele>
        <time>2020-06-02T10:28:41Z</time>
      </trkpt>
      <trkpt lat="46.23949" lon="-1.04813">
        <ele>3.2</ele>
        <time>2020-06-02T10:28:42Z</time>
      </trkpt>
      <trkpt lat="46.23956" lon="-1.0481">
        <ele>3.2</ele>
        <time>2020-06-02T10:28:43Z</time>
      </trkpt>
      <trkpt lat="46.23962" lon="-1.04808">
        <ele>3.2</ele>
        <time>2020-06-02T10:28:44Z</time>
      </trkpt>
      <trkpt lat="46.23969" lon="-1.04805">
        <ele>3.2</ele>
        <time>2020-06-02T10:28:45Z</time>
      </trkpt>
      <trkpt lat="46.23976" lon="-1.04803">
        <ele>3.2</ele>
        <time>2020-06-02T10:28:46Z</time>
      </trkpt>
      <trkpt lat="46.23982" lon="-1.048">
        <ele>3.2</ele>
        <time>2020-06-02T10:28:47Z</time>
      </trkpt>
      <trkpt lat="46.23989" lon="-1.04797">
        <ele>3.2</ele>
        <time>2020-06-02T10:28:48Z</time>
      </trkpt>
      <trkpt lat="46.23996" lon="-1.04795">
        <ele>3.2</ele>
        <time>2020-06-02T10:28:49Z</time>
      </trkpt>
      <trkpt lat="46.24002" lon="-1.04793">
        <ele>3.2</ele>
        <time>2020-06-02T10:28:50Z</time>
      </trkpt>
      <trkpt lat="46.24009" lon="-1.04792">
        <ele>3.3</ele>
        <time>2020-06-02T10:28:51Z</time>
      </trkpt>
      <trkpt lat="46.24016" lon="-1.04789">
        <ele>3.3</ele>
        <time>2020-06-02T10:28:52Z</time>
      </trkpt>
      <trkpt lat="46.24023" lon="-1.04787">
        <ele>3.3</ele>
        <time>2020-06-02T10:28:53Z</time>
      </trkpt>
      <trkpt lat="46.24029" lon="-1.04785">
        <ele>3.3</ele>
        <time>2020-06-02T10:28:54Z</time>
      </trkpt>
      <trkpt lat="46.24036" lon="-1.04782">
        <ele>3.3</ele>
        <time>2020-06-02T10:28:55Z</time>
      </trkpt>
      <trkpt lat="46.24043" lon="-1.0478">
        <ele>3.3</ele>
        <time>2020-06-02T10:28:56Z</time>
      </trkpt>
      <trkpt lat="46.24049" lon="-1.04778">
        <ele>3.3</ele>
        <time>2020-06-02T10:28:57Z</time>
      </trkpt>
      <trkpt lat="46.24056" lon="-1.04775">
        <ele>3.3</ele>
        <time>2020-06-02T10:28:58Z</time>
      </trkpt>
      <trkpt lat="46.24063" lon="-1.04772">
        <ele>3.3</ele>
        <time>2020-06-02T10:28:59Z</time>
      </trkpt>
      <trkpt lat="46.24069" lon="-1.0477">
        <ele>3.3</ele>
        <time>2020-06-02T10:29:00Z</time>
      </trkpt>
      <trkpt lat="46.24076" lon="-1.04768">
        <ele>3.3</ele>
        <time>2020-06-02T10:29:01Z</time>
      </trkpt>
      <trkpt lat="46.24082" lon="-1.04765">
        <ele>3.3</ele>
        <time>2020-06-02T10:29:02Z</time>
      </trkpt>
      <trkpt lat="46.24089" lon="-1.04763">
        <ele>3.3</ele>
        <time>2020-06-02T10:29:03Z</time>
      </trkpt>
      <trkpt lat="46.24095" lon="-1.04761">
        <ele>3.3</ele>
        <time>2020-06-02T10:29:04Z</time>
      </trkpt>
      <trkpt lat="46.24102" lon="-1.04759">
        <ele>3.3</ele>
        <time>2020-06-02T10:29:05Z</time>
      </trkpt>
      <trkpt lat="46.24108" lon="-1.04756">
        <ele>3.3</ele>
        <time>2020-06-02T10:29:06Z</time>
      </trkpt>
      <trkpt lat="46.24114" lon="-1.04753">
        <ele>3.3</ele>
        <time>2020-06-02T10:29:07Z</time>
      </trkpt>
      <trkpt lat="46.24119" lon="-1.04751">
        <ele>3.3</ele>
        <time>2020-06-02T10:29:08Z</time>
      </trkpt>
      <trkpt lat="46.24125" lon="-1.04749">
        <ele>3.3</ele>
        <time>2020-06-02T10:29:09Z</time>
      </trkpt>
      <trkpt lat="46.24131" lon="-1.04747">
        <ele>3.3</ele>
        <time>2020-06-02T10:29:10Z</time>
      </trkpt>
      <trkpt lat="46.24136" lon="-1.04744">
        <ele>3.3</ele>
        <time>2020-06-02T10:29:11Z</time>
      </trkpt>
      <trkpt lat="46.24142" lon="-1.04742">
        <ele>3.3</ele>
        <time>2020-06-02T10:29:12Z</time>
      </trkpt>
      <trkpt lat="46.24147" lon="-1.0474">
        <ele>3.3</ele>
        <time>2020-06-02T10:29:13Z</time>
      </trkpt>
      <trkpt lat="46.24152" lon="-1.04739">
        <ele>3.3</ele>
        <time>2020-06-02T10:29:14Z</time>
      </trkpt>
      <trkpt lat="46.24158" lon="-1.04737">
        <ele>3.3</ele>
        <time>2020-06-02T10:29:15Z</time>
      </trkpt>
      <trkpt lat="46.24163" lon="-1.04735">
        <ele>3.4</ele>
        <time>2020-06-02T10:29:16Z</time>
      </trkpt>
      <trkpt lat="46.24169" lon="-1.04733">
        <ele>3.4</ele>
        <time>2020-06-02T10:29:17Z</time>
      </trkpt>
      <trkpt lat="46.24174" lon="-1.04731">
        <ele>3.4</ele>
        <time>2020-06-02T10:29:18Z</time>
      </trkpt>
      <trkpt lat="46.24179" lon="-1.04728">
        <ele>3.4</ele>
        <time>2020-06-02T10:29:19Z</time>
      </trkpt>
      <trkpt lat="46.24185" lon="-1.04725">
        <ele>3.4</ele>
        <time>2020-06-02T10:29:20Z</time>
      </trkpt>
      <trkpt lat="46.2419" lon="-1.04723">
        <ele>3.4</ele>
        <time>2020-06-02T10:29:21Z</time>
      </trkpt>
      <trkpt lat="46.24196" lon="-1.04721">
        <ele>3.4</ele>
        <time>2020-06-02T10:29:22Z</time>
      </trkpt>
      <trkpt lat="46.24201" lon="-1.0472">
        <ele>3.4</ele>
        <time>2020-06-02T10:29:23Z</time>
      </trkpt>
      <trkpt lat="46.24206" lon="-1.04718">
        <ele>3.4</ele>
        <time>2020-06-02T10:29:24Z</time>
      </trkpt>
      <trkpt lat="46.24212" lon="-1.04717">
        <ele>3.4</ele>
        <time>2020-06-02T10:29:25Z</time>
      </trkpt>
      <trkpt lat="46.24218" lon="-1.04715">
        <ele>3.4</ele>
        <time>2020-06-02T10:29:26Z</time>
      </trkpt>
      <trkpt lat="46.24223" lon="-1.04714">
        <ele>3.4</ele>
        <time>2020-06-02T10:29:27Z</time>
      </trkpt>
      <trkpt lat="46.24229" lon="-1.0471">
        <ele>3.4</ele>
        <time>2020-06-02T10:29:28Z</time>
      </trkpt>
      <trkpt lat="46.24234" lon="-1.04708">
        <ele>3.4</ele>
        <time>2020-06-02T10:29:29Z</time>
      </trkpt>
      <trkpt lat="46.24239" lon="-1.04706">
        <ele>3.4</ele>
        <time>2020-06-02T10:29:30Z</time>
      </trkpt>
      <trkpt lat="46.24244" lon="-1.04704">
        <ele>3.4</ele>
        <time>2020-06-02T10:29:31Z</time>
      </trkpt>
      <trkpt lat="46.24249" lon="-1.04701">
        <ele>3.4</ele>
        <time>2020-06-02T10:29:32Z</time>
      </trkpt>
      <trkpt lat="46.24254" lon="-1.047">
        <ele>3.4</ele>
        <time>2020-06-02T10:29:33Z</time>
      </trkpt>
      <trkpt lat="46.24259" lon="-1.04698">
        <ele>3.5</ele>
        <time>2020-06-02T10:29:34Z</time>
      </trkpt>
      <trkpt lat="46.24264" lon="-1.04696">
        <ele>3.5</ele>
        <time>2020-06-02T10:29:35Z</time>
      </trkpt>
      <trkpt lat="46.2427" lon="-1.04694">
        <ele>3.5</ele>
        <time>2020-06-02T10:29:36Z</time>
      </trkpt>
      <trkpt lat="46.24275" lon="-1.04693">
        <ele>3.5</ele>
        <time>2020-06-02T10:29:37Z</time>
      </trkpt>
      <trkpt lat="46.2428" lon="-1.04692">
        <ele>3.5</ele>
        <time>2020-06-02T10:29:38Z</time>
      </trkpt>
      <trkpt lat="46.24285" lon="-1.0469">
        <ele>3.5</ele>
        <time>2020-06-02T10:29:39Z</time>
      </trkpt>
      <trkpt lat="46.2429" lon="-1.04687">
        <ele>3.5</ele>
        <time>2020-06-02T10:29:40Z</time>
      </trkpt>
      <trkpt lat="46.24295" lon="-1.04685">
        <ele>3.5</ele>
        <time>2020-06-02T10:29:41Z</time>
      </trkpt>
      <trkpt lat="46.243" lon="-1.04684">
        <ele>3.5</ele>
        <time>2020-06-02T10:29:42Z</time>
      </trkpt>
      <trkpt lat="46.24305" lon="-1.04681">
        <ele>3.5</ele>
        <time>2020-06-02T10:29:43Z</time>
      </trkpt>
      <trkpt lat="46.24311" lon="-1.04679">
        <ele>3.5</ele>
        <time>2020-06-02T10:29:44Z</time>
      </trkpt>
      <trkpt lat="46.24317" lon="-1.04677">
        <ele>3.5</ele>
        <time>2020-06-02T10:29:45Z</time>
      </trkpt>
      <trkpt lat="46.24323" lon="-1.04675">
        <ele>3.5</ele>
        <time>2020-06-02T10:29:46Z</time>
      </trkpt>
      <trkpt lat="46.24328" lon="-1.04673">
        <ele>3.5</ele>
        <time>2020-06-02T10:29:47Z</time>
      </trkpt>
      <trkpt lat="46.24334" lon="-1.04669">
        <ele>3.5</ele>
        <time>2020-06-02T10:29:48Z</time>
      </trkpt>
      <trkpt lat="46.2434" lon="-1.04666">
        <ele>3.4</ele>
        <time>2020-06-02T10:29:49Z</time>
      </trkpt>
      <trkpt lat="46.24346" lon="-1.04664">
        <ele>3.4</ele>
        <time>2020-06-02T10:29:50Z</time>
      </trkpt>
      <trkpt lat="46.24352" lon="-1.04664">
        <ele>3.4</ele>
        <time>2020-06-02T10:29:51Z</time>
      </trkpt>
      <trkpt lat="46.24358" lon="-1.04663">
        <ele>3.4</ele>
        <time>2020-06-02T10:29:52Z</time>
      </trkpt>
      <trkpt lat="46.24364" lon="-1.0466">
        <ele>3.4</ele>
        <time>2020-06-02T10:29:53Z</time>
      </trkpt>
      <trkpt lat="46.2437" lon="-1.04658">
        <ele>3.4</ele>
        <time>2020-06-02T10:29:54Z</time>
      </trkpt>
      <trkpt lat="46.24375" lon="-1.04657">
        <ele>3.4</ele>
        <time>2020-06-02T10:29:55Z</time>
      </trkpt>
      <trkpt lat="46.24381" lon="-1.04654">
        <ele>3.4</ele>
        <time>2020-06-02T10:29:56Z</time>
      </trkpt>
      <trkpt lat="46.24386" lon="-1.04652">
        <ele>3.4</ele>
        <time>2020-06-02T10:29:57Z</time>
      </trkpt>
      <trkpt lat="46.24392" lon="-1.0465">
        <ele>3.4</ele>
        <time>2020-06-02T10:29:58Z</time>
      </trkpt>
      <trkpt lat="46.24398" lon="-1.04648">
        <ele>3.4</ele>
        <time>2020-06-02T10:29:59Z</time>
      </trkpt>
      <trkpt lat="46.24403" lon="-1.04646">
        <ele>3.4</ele>
        <time>2020-06-02T10:30:00Z</time>
      </trkpt>
      <trkpt lat="46.24409" lon="-1.04644">
        <ele>3.4</ele>
        <time>2020-06-02T10:30:01Z</time>
      </trkpt>
      <trkpt lat="46.24415" lon="-1.04642">
        <ele>3.4</ele>
        <time>2020-06-02T10:30:02Z</time>
      </trkpt>
      <trkpt lat="46.24421" lon="-1.04639">
        <ele>3.4</ele>
        <time>2020-06-02T10:30:03Z</time>
      </trkpt>
      <trkpt lat="46.24427" lon="-1.04636">
        <ele>3.4</ele>
        <time>2020-06-02T10:30:04Z</time>
      </trkpt>
      <trkpt lat="46.24433" lon="-1.04634">
        <ele>3.4</ele>
        <time>2020-06-02T10:30:05Z</time>
      </trkpt>
      <trkpt lat="46.24439" lon="-1.04632">
        <ele>3.4</ele>
        <time>2020-06-02T10:30:06Z</time>
      </trkpt>
      <trkpt lat="46.24445" lon="-1.04631">
        <ele>3.4</ele>
        <time>2020-06-02T10:30:07Z</time>
      </trkpt>
      <trkpt lat="46.24451" lon="-1.04628">
        <ele>3.4</ele>
        <time>2020-06-02T10:30:08Z</time>
      </trkpt>
      <trkpt lat="46.24458" lon="-1.04627">
        <ele>3.4</ele>
        <time>2020-06-02T10:30:09Z</time>
      </trkpt>
      <trkpt lat="46.24464" lon="-1.04625">
        <ele>3.4</ele>
        <time>2020-06-02T10:30:10Z</time>
      </trkpt>
      <trkpt lat="46.2447" lon="-1.04623">
        <ele>3.4</ele>
        <time>2020-06-02T10:30:11Z</time>
      </trkpt>
      <trkpt lat="46.24476" lon="-1.0462">
        <ele>3.4</ele>
        <time>2020-06-02T10:30:12Z</time>
      </trkpt>
      <trkpt lat="46.24482" lon="-1.04618">
        <ele>3.4</ele>
        <time>2020-06-02T10:30:13Z</time>
      </trkpt>
      <trkpt lat="46.24488" lon="-1.04615">
        <ele>3.4</ele>
        <time>2020-06-02T10:30:14Z</time>
      </trkpt>
      <trkpt lat="46.24494" lon="-1.04613">
        <ele>3.4</ele>
        <time>2020-06-02T10:30:15Z</time>
      </trkpt>
      <trkpt lat="46.245" lon="-1.04611">
        <ele>3.4</ele>
        <time>2020-06-02T10:30:16Z</time>
      </trkpt>
      <trkpt lat="46.24506" lon="-1.04608">
        <ele>3.4</ele>
        <time>2020-06-02T10:30:17Z</time>
      </trkpt>
      <trkpt lat="46.24512" lon="-1.04606">
        <ele>3.4</ele>
        <time>2020-06-02T10:30:18Z</time>
      </trkpt>
      <trkpt lat="46.24518" lon="-1.04604">
        <ele>3.4</ele>
        <time>2020-06-02T10:30:19Z</time>
      </trkpt>
      <trkpt lat="46.24524" lon="-1.04602">
        <ele>3.4</ele>
        <time>2020-06-02T10:30:20Z</time>
      </trkpt>
      <trkpt lat="46.24529" lon="-1.046">
        <ele>3.4</ele>
        <time>2020-06-02T10:30:21Z</time>
      </trkpt>
      <trkpt lat="46.24535" lon="-1.04597">
        <ele>3.4</ele>
        <time>2020-06-02T10:30:22Z</time>
      </trkpt>
      <trkpt lat="46.24541" lon="-1.04595">
        <ele>3.4</ele>
        <time>2020-06-02T10:30:23Z</time>
      </trkpt>
      <trkpt lat="46.24547" lon="-1.04593">
        <ele>3.4</ele>
        <time>2020-06-02T10:30:24Z</time>
      </trkpt>
      <trkpt lat="46.24552" lon="-1.0459">
        <ele>3.4</ele>
        <time>2020-06-02T10:30:25Z</time>
      </trkpt>
      <trkpt lat="46.24557" lon="-1.04588">
        <ele>3.5</ele>
        <time>2020-06-02T10:30:26Z</time>
      </trkpt>
      <trkpt lat="46.24562" lon="-1.04587">
        <ele>3.5</ele>
        <time>2020-06-02T10:30:27Z</time>
      </trkpt>
      <trkpt lat="46.24567" lon="-1.04585">
        <ele>3.5</ele>
        <time>2020-06-02T10:30:28Z</time>
      </trkpt>
      <trkpt lat="46.2457" lon="-1.04583">
        <ele>3.5</ele>
        <time>2020-06-02T10:30:29Z</time>
      </trkpt>
      <trkpt lat="46.24574" lon="-1.04581">
        <ele>3.5</ele>
        <time>2020-06-02T10:30:30Z</time>
      </trkpt>
      <trkpt lat="46.24578" lon="-1.04579">
        <ele>3.5</ele>
        <time>2020-06-02T10:30:31Z</time>
      </trkpt>
      <trkpt lat="46.24581" lon="-1.04577">
        <ele>3.5</ele>
        <time>2020-06-02T10:30:32Z</time>
      </trkpt>
      <trkpt lat="46.24585" lon="-1.04576">
        <ele>3.5</ele>
        <time>2020-06-02T10:30:33Z</time>
      </trkpt>
      <trkpt lat="46.24588" lon="-1.04575">
        <ele>3.5</ele>
        <time>2020-06-02T10:30:34Z</time>
      </trkpt>
      <trkpt lat="46.24592" lon="-1.04573">
        <ele>3.5</ele>
        <time>2020-06-02T10:30:35Z</time>
      </trkpt>
      <trkpt lat="46.24597" lon="-1.04572">
        <ele>3.5</ele>
        <time>2020-06-02T10:30:36Z</time>
      </trkpt>
      <trkpt lat="46.24602" lon="-1.04572">
        <ele>3.5</ele>
        <time>2020-06-02T10:30:37Z</time>
      </trkpt>
      <trkpt lat="46.24607" lon="-1.04571">
        <ele>3.5</ele>
        <time>2020-06-02T10:30:38Z</time>
      </trkpt>
      <trkpt lat="46.24611" lon="-1.04569">
        <ele>3.5</ele>
        <time>2020-06-02T10:30:39Z</time>
      </trkpt>
      <trkpt lat="46.24616" lon="-1.04569">
        <ele>3.5</ele>
        <time>2020-06-02T10:30:40Z</time>
      </trkpt>
      <trkpt lat="46.24621" lon="-1.04568">
        <ele>3.5</ele>
        <time>2020-06-02T10:30:41Z</time>
      </trkpt>
      <trkpt lat="46.24626" lon="-1.04565">
        <ele>3.5</ele>
        <time>2020-06-02T10:30:42Z</time>
      </trkpt>
      <trkpt lat="46.2463" lon="-1.04562">
        <ele>3.5</ele>
        <time>2020-06-02T10:30:43Z</time>
      </trkpt>
      <trkpt lat="46.24635" lon="-1.0456">
        <ele>3.5</ele>
        <time>2020-06-02T10:30:44Z</time>
      </trkpt>
      <trkpt lat="46.24639" lon="-1.04558">
        <ele>3.5</ele>
        <time>2020-06-02T10:30:45Z</time>
      </trkpt>
      <trkpt lat="46.24644" lon="-1.04557">
        <ele>3.5</ele>
        <time>2020-06-02T10:30:46Z</time>
      </trkpt>
      <trkpt lat="46.24649" lon="-1.04556">
        <ele>3.5</ele>
        <time>2020-06-02T10:30:47Z</time>
      </trkpt>
      <trkpt lat="46.24653" lon="-1.04554">
        <ele>3.5</ele>
        <time>2020-06-02T10:30:48Z</time>
      </trkpt>
      <trkpt lat="46.24658" lon="-1.04553">
        <ele>3.5</ele>
        <time>2020-06-02T10:30:49Z</time>
      </trkpt>
      <trkpt lat="46.24663" lon="-1.04552">
        <ele>3.5</ele>
        <time>2020-06-02T10:30:50Z</time>
      </trkpt>
      <trkpt lat="46.24667" lon="-1.0455">
        <ele>3.5</ele>
        <time>2020-06-02T10:30:51Z</time>
      </trkpt>
      <trkpt lat="46.24672" lon="-1.04549">
        <ele>3.5</ele>
        <time>2020-06-02T10:30:52Z</time>
      </trkpt>
      <trkpt lat="46.24676" lon="-1.04547">
        <ele>3.5</ele>
        <time>2020-06-02T10:30:53Z</time>
      </trkpt>
      <trkpt lat="46.2468" lon="-1.04545">
        <ele>3.5</ele>
        <time>2020-06-02T10:30:54Z</time>
      </trkpt>
      <trkpt lat="46.24685" lon="-1.04543">
        <ele>3.5</ele>
        <time>2020-06-02T10:30:55Z</time>
      </trkpt>
      <trkpt lat="46.24689" lon="-1.04541">
        <ele>3.5</ele>
        <time>2020-06-02T10:30:56Z</time>
      </trkpt>
      <trkpt lat="46.24693" lon="-1.04538">
        <ele>3.5</ele>
        <time>2020-06-02T10:30:57Z</time>
      </trkpt>
      <trkpt lat="46.24698" lon="-1.04535">
        <ele>3.5</ele>
        <time>2020-06-02T10:30:58Z</time>
      </trkpt>
      <trkpt lat="46.24703" lon="-1.04533">
        <ele>3.5</ele>
        <time>2020-06-02T10:30:59Z</time>
      </trkpt>
      <trkpt lat="46.24707" lon="-1.04531">
        <ele>3.5</ele>
        <time>2020-06-02T10:31:00Z</time>
      </trkpt>
      <trkpt lat="46.24712" lon="-1.04528">
        <ele>3.6</ele>
        <time>2020-06-02T10:31:01Z</time>
      </trkpt>
      <trkpt lat="46.24717" lon="-1.04525">
        <ele>3.6</ele>
        <time>2020-06-02T10:31:02Z</time>
      </trkpt>
      <trkpt lat="46.24722" lon="-1.04523">
        <ele>3.6</ele>
        <time>2020-06-02T10:31:03Z</time>
      </trkpt>
      <trkpt lat="46.24726" lon="-1.0452">
        <ele>3.6</ele>
        <time>2020-06-02T10:31:04Z</time>
      </trkpt>
      <trkpt lat="46.24731" lon="-1.04519">
        <ele>3.6</ele>
        <time>2020-06-02T10:31:05Z</time>
      </trkpt>
      <trkpt lat="46.24736" lon="-1.04517">
        <ele>3.6</ele>
        <time>2020-06-02T10:31:06Z</time>
      </trkpt>
      <trkpt lat="46.24741" lon="-1.04516">
        <ele>3.6</ele>
        <time>2020-06-02T10:31:07Z</time>
      </trkpt>
      <trkpt lat="46.24747" lon="-1.04515">
        <ele>3.6</ele>
        <time>2020-06-02T10:31:08Z</time>
      </trkpt>
      <trkpt lat="46.24752" lon="-1.04515">
        <ele>3.6</ele>
        <time>2020-06-02T10:31:09Z</time>
      </trkpt>
      <trkpt lat="46.24756" lon="-1.04514">
        <ele>3.6</ele>
        <time>2020-06-02T10:31:10Z</time>
      </trkpt>
      <trkpt lat="46.24761" lon="-1.04513">
        <ele>3.6</ele>
        <time>2020-06-02T10:31:11Z</time>
      </trkpt>
      <trkpt lat="46.24765" lon="-1.04512">
        <ele>3.6</ele>
        <time>2020-06-02T10:31:12Z</time>
      </trkpt>
      <trkpt lat="46.24769" lon="-1.04511">
        <ele>3.6</ele>
        <time>2020-06-02T10:31:13Z</time>
      </trkpt>
      <trkpt lat="46.24774" lon="-1.0451">
        <ele>3.6</ele>
        <time>2020-06-02T10:31:14Z</time>
      </trkpt>
      <trkpt lat="46.24778" lon="-1.0451">
        <ele>3.6</ele>
        <time>2020-06-02T10:31:15Z</time>
      </trkpt>
      <trkpt lat="46.24781" lon="-1.04507">
        <ele>3.6</ele>
        <time>2020-06-02T10:31:16Z</time>
      </trkpt>
      <trkpt lat="46.24785" lon="-1.04506">
        <ele>3.6</ele>
        <time>2020-06-02T10:31:17Z</time>
      </trkpt>
      <trkpt lat="46.24789" lon="-1.04506">
        <ele>3.6</ele>
        <time>2020-06-02T10:31:18Z</time>
      </trkpt>
      <trkpt lat="46.24792" lon="-1.04505">
        <ele>3.6</ele>
        <time>2020-06-02T10:31:19Z</time>
      </trkpt>
      <trkpt lat="46.24795" lon="-1.04504">
        <ele>3.6</ele>
        <time>2020-06-02T10:31:20Z</time>
      </trkpt>
      <trkpt lat="46.24796" lon="-1.045">
        <ele>3.7</ele>
        <time>2020-06-02T10:31:21Z</time>
      </trkpt>
      <trkpt lat="46.24798" lon="-1.04496">
        <ele>3.7</ele>
        <time>2020-06-02T10:31:22Z</time>
      </trkpt>
      <trkpt lat="46.24798" lon="-1.04492">
        <ele>3.7</ele>
        <time>2020-06-02T10:31:23Z</time>
      </trkpt>
      <trkpt lat="46.24799" lon="-1.04488">
        <ele>3.8</ele>
        <time>2020-06-02T10:31:24Z</time>
      </trkpt>
      <trkpt lat="46.24801" lon="-1.04484">
        <ele>3.8</ele>
        <time>2020-06-02T10:31:25Z</time>
      </trkpt>
      <trkpt lat="46.24802" lon="-1.0448">
        <ele>3.8</ele>
        <time>2020-06-02T10:31:26Z</time>
      </trkpt>
      <trkpt lat="46.24804" lon="-1.04476">
        <ele>3.9</ele>
        <time>2020-06-02T10:31:27Z</time>
      </trkpt>
      <trkpt lat="46.24806" lon="-1.04474">
        <ele>3.9</ele>
        <time>2020-06-02T10:31:28Z</time>
      </trkpt>
      <trkpt lat="46.24809" lon="-1.04472">
        <ele>3.9</ele>
        <time>2020-06-02T10:31:29Z</time>
      </trkpt>
      <trkpt lat="46.24813" lon="-1.04471">
        <ele>3.9</ele>
        <time>2020-06-02T10:31:30Z</time>
      </trkpt>
      <trkpt lat="46.24816" lon="-1.04471">
        <ele>4</ele>
        <time>2020-06-02T10:31:31Z</time>
      </trkpt>
      <trkpt lat="46.24819" lon="-1.04475">
        <ele>4</ele>
        <time>2020-06-02T10:31:32Z</time>
      </trkpt>
      <trkpt lat="46.24822" lon="-1.04478">
        <ele>4</ele>
        <time>2020-06-02T10:31:33Z</time>
      </trkpt>
      <trkpt lat="46.24826" lon="-1.04481">
        <ele>4</ele>
        <time>2020-06-02T10:31:34Z</time>
      </trkpt>
      <trkpt lat="46.24829" lon="-1.04486">
        <ele>4.1</ele>
        <time>2020-06-02T10:31:35Z</time>
      </trkpt>
      <trkpt lat="46.24833" lon="-1.04487">
        <ele>4.1</ele>
        <time>2020-06-02T10:31:36Z</time>
      </trkpt>
      <trkpt lat="46.24837" lon="-1.04488">
        <ele>4.1</ele>
        <time>2020-06-02T10:31:37Z</time>
      </trkpt>
      <trkpt lat="46.24841" lon="-1.04485">
        <ele>4.1</ele>
        <time>2020-06-02T10:31:38Z</time>
      </trkpt>
      <trkpt lat="46.24845" lon="-1.04483">
        <ele>4.1</ele>
        <time>2020-06-02T10:31:39Z</time>
      </trkpt>
      <trkpt lat="46.24849" lon="-1.04483">
        <ele>4.1</ele>
        <time>2020-06-02T10:31:40Z</time>
      </trkpt>
      <trkpt lat="46.24853" lon="-1.0448">
        <ele>4</ele>
        <time>2020-06-02T10:31:41Z</time>
      </trkpt>
      <trkpt lat="46.24857" lon="-1.04478">
        <ele>4</ele>
        <time>2020-06-02T10:31:42Z</time>
      </trkpt>
      <trkpt lat="46.2486" lon="-1.04476">
        <ele>4</ele>
        <time>2020-06-02T10:31:43Z</time>
      </trkpt>
      <trkpt lat="46.24863" lon="-1.04475">
        <ele>4</ele>
        <time>2020-06-02T10:31:44Z</time>
      </trkpt>
      <trkpt lat="46.24866" lon="-1.04475">
        <ele>4</ele>
        <time>2020-06-02T10:31:45Z</time>
      </trkpt>
      <trkpt lat="46.2487" lon="-1.04474">
        <ele>4</ele>
        <time>2020-06-02T10:31:46Z</time>
      </trkpt>
      <trkpt lat="46.24873" lon="-1.04474">
        <ele>3.9</ele>
        <time>2020-06-02T10:31:47Z</time>
      </trkpt>
      <trkpt lat="46.24876" lon="-1.0447">
        <ele>3.9</ele>
        <time>2020-06-02T10:31:48Z</time>
      </trkpt>
      <trkpt lat="46.24879" lon="-1.04469">
        <ele>3.9</ele>
        <time>2020-06-02T10:31:49Z</time>
      </trkpt>
      <trkpt lat="46.24883" lon="-1.04467">
        <ele>3.9</ele>
        <time>2020-06-02T10:31:50Z</time>
      </trkpt>
      <trkpt lat="46.24887" lon="-1.04466">
        <ele>3.9</ele>
        <time>2020-06-02T10:31:51Z</time>
      </trkpt>
      <trkpt lat="46.24891" lon="-1.04465">
        <ele>3.9</ele>
        <time>2020-06-02T10:31:52Z</time>
      </trkpt>
      <trkpt lat="46.24894" lon="-1.04463">
        <ele>3.8</ele>
        <time>2020-06-02T10:31:53Z</time>
      </trkpt>
      <trkpt lat="46.24898" lon="-1.04462">
        <ele>3.8</ele>
        <time>2020-06-02T10:31:54Z</time>
      </trkpt>
      <trkpt lat="46.24899" lon="-1.04462">
        <ele>3.8</ele>
        <time>2020-06-02T10:31:55Z</time>
      </trkpt>
      <trkpt lat="46.24902" lon="-1.04462">
        <ele>3.8</ele>
        <time>2020-06-02T10:31:56Z</time>
      </trkpt>
      <trkpt lat="46.24903" lon="-1.04461">
        <ele>3.8</ele>
        <time>2020-06-02T10:31:57Z</time>
      </trkpt>
      <trkpt lat="46.24906" lon="-1.04459">
        <ele>3.8</ele>
        <time>2020-06-02T10:31:58Z</time>
      </trkpt>
      <trkpt lat="46.24909" lon="-1.04458">
        <ele>3.8</ele>
        <time>2020-06-02T10:31:59Z</time>
      </trkpt>
      <trkpt lat="46.24913" lon="-1.04457">
        <ele>3.8</ele>
        <time>2020-06-02T10:32:00Z</time>
      </trkpt>
      <trkpt lat="46.24915" lon="-1.04456">
        <ele>3.8</ele>
        <time>2020-06-02T10:32:01Z</time>
      </trkpt>
      <trkpt lat="46.24918" lon="-1.04454">
        <ele>3.7</ele>
        <time>2020-06-02T10:32:02Z</time>
      </trkpt>
      <trkpt lat="46.24921" lon="-1.04454">
        <ele>3.7</ele>
        <time>2020-06-02T10:32:03Z</time>
      </trkpt>
      <trkpt lat="46.24924" lon="-1.04451">
        <ele>3.7</ele>
        <time>2020-06-02T10:32:04Z</time>
      </trkpt>
      <trkpt lat="46.24926" lon="-1.0445">
        <ele>3.7</ele>
        <time>2020-06-02T10:32:05Z</time>
      </trkpt>
      <trkpt lat="46.24929" lon="-1.04449">
        <ele>3.7</ele>
        <time>2020-06-02T10:32:06Z</time>
      </trkpt>
      <trkpt lat="46.24933" lon="-1.04448">
        <ele>3.7</ele>
        <time>2020-06-02T10:32:07Z</time>
      </trkpt>
      <trkpt lat="46.24934" lon="-1.04447">
        <ele>3.7</ele>
        <time>2020-06-02T10:32:08Z</time>
      </trkpt>
      <trkpt lat="46.24936" lon="-1.04446">
        <ele>3.7</ele>
        <time>2020-06-02T10:32:09Z</time>
      </trkpt>
      <trkpt lat="46.24937" lon="-1.04448">
        <ele>3.7</ele>
        <time>2020-06-02T10:32:10Z</time>
      </trkpt>
      <trkpt lat="46.24937" lon="-1.04448">
        <ele>3.7</ele>
        <time>2020-06-02T10:32:11Z</time>
      </trkpt>
      <trkpt lat="46.24937" lon="-1.04449">
        <ele>3.7</ele>
        <time>2020-06-02T10:32:12Z</time>
      </trkpt>
      <trkpt lat="46.24937" lon="-1.0445">
        <ele>3.7</ele>
        <time>2020-06-02T10:32:13Z</time>
      </trkpt>
      <trkpt lat="46.24938" lon="-1.0445">
        <ele>3.7</ele>
        <time>2020-06-02T10:32:14Z</time>
      </trkpt>
      <trkpt lat="46.24938" lon="-1.0445">
        <ele>3.7</ele>
        <time>2020-06-02T10:32:15Z</time>
      </trkpt>
      <trkpt lat="46.24938" lon="-1.0445">
        <ele>3.7</ele>
        <time>2020-06-02T10:32:16Z</time>
      </trkpt>
      <trkpt lat="46.24938" lon="-1.04451">
        <ele>3.7</ele>
        <time>2020-06-02T10:32:17Z</time>
      </trkpt>
      <trkpt lat="46.24938" lon="-1.04451">
        <ele>3.7</ele>
        <time>2020-06-02T10:32:18Z</time>
      </trkpt>
      <trkpt lat="46.24938" lon="-1.04451">
        <ele>3.7</ele>
        <time>2020-06-02T10:32:19Z</time>
      </trkpt>
      <trkpt lat="46.24938" lon="-1.04449">
        <ele>3.7</ele>
        <time>2020-06-02T10:32:20Z</time>
      </trkpt>
      <trkpt lat="46.24938" lon="-1.04449">
        <ele>3.7</ele>
        <time>2020-06-02T10:32:21Z</time>
      </trkpt>
      <trkpt lat="46.24938" lon="-1.04449">
        <ele>3.7</ele>
        <time>2020-06-02T10:32:22Z</time>
      </trkpt>
      <trkpt lat="46.24938" lon="-1.04451">
        <ele>3.7</ele>
        <time>2020-06-02T10:32:23Z</time>
      </trkpt>
      <trkpt lat="46.24938" lon="-1.04451">
        <ele>3.7</ele>
        <time>2020-06-02T10:32:24Z</time>
      </trkpt>
      <trkpt lat="46.24938" lon="-1.04451">
        <ele>3.7</ele>
        <time>2020-06-02T10:32:25Z</time>
      </trkpt>
      <trkpt lat="46.24938" lon="-1.04451">
        <ele>3.7</ele>
        <time>2020-06-02T10:32:26Z</time>
      </trkpt>
      <trkpt lat="46.24938" lon="-1.04451">
        <ele>3.7</ele>
        <time>2020-06-02T10:32:27Z</time>
      </trkpt>
      <trkpt lat="46.24938" lon="-1.0445">
        <ele>3.7</ele>
        <time>2020-06-02T10:32:28Z</time>
      </trkpt>
      <trkpt lat="46.24938" lon="-1.04449">
        <ele>3.7</ele>
        <time>2020-06-02T10:32:29Z</time>
      </trkpt>
      <trkpt lat="46.24938" lon="-1.04448">
        <ele>3.7</ele>
        <time>2020-06-02T10:32:30Z</time>
      </trkpt>
      <trkpt lat="46.24938" lon="-1.04448">
        <ele>3.7</ele>
        <time>2020-06-02T10:32:31Z</time>
      </trkpt>
      <trkpt lat="46.24938" lon="-1.04447">
        <ele>3.7</ele>
        <time>2020-06-02T10:32:32Z</time>
      </trkpt>
      <trkpt lat="46.24938" lon="-1.04447">
        <ele>3.7</ele>
        <time>2020-06-02T10:32:33Z</time>
      </trkpt>
      <trkpt lat="46.24938" lon="-1.04447">
        <ele>3.7</ele>
        <time>2020-06-02T10:32:34Z</time>
      </trkpt>
      <trkpt lat="46.24938" lon="-1.04447">
        <ele>3.7</ele>
        <time>2020-06-02T10:32:35Z</time>
      </trkpt>
      <trkpt lat="46.24938" lon="-1.04447">
        <ele>3.7</ele>
        <time>2020-06-02T10:32:36Z</time>
      </trkpt>
      <trkpt lat="46.24938" lon="-1.04447">
        <ele>3.7</ele>
        <time>2020-06-02T10:32:37Z</time>
      </trkpt>
      <trkpt lat="46.24939" lon="-1.04446">
        <ele>3.7</ele>
        <time>2020-06-02T10:32:38Z</time>
      </trkpt>
      <trkpt lat="46.24939" lon="-1.04447">
        <ele>3.7</ele>
        <time>2020-06-02T10:32:39Z</time>
      </trkpt>
      <trkpt lat="46.24939" lon="-1.04448">
        <ele>3.7</ele>
        <time>2020-06-02T10:32:40Z</time>
      </trkpt>
      <trkpt lat="46.24939" lon="-1.04448">
        <ele>3.7</ele>
        <time>2020-06-02T10:32:41Z</time>
      </trkpt>
      <trkpt lat="46.24939" lon="-1.04448">
        <ele>3.7</ele>
        <time>2020-06-02T10:32:42Z</time>
      </trkpt>
      <trkpt lat="46.2494" lon="-1.04448">
        <ele>3.7</ele>
        <time>2020-06-02T10:32:43Z</time>
      </trkpt>
      <trkpt lat="46.24941" lon="-1.04448">
        <ele>3.7</ele>
        <time>2020-06-02T10:32:44Z</time>
      </trkpt>
      <trkpt lat="46.24941" lon="-1.04447">
        <ele>3.7</ele>
        <time>2020-06-02T10:32:45Z</time>
      </trkpt>
      <trkpt lat="46.24942" lon="-1.04447">
        <ele>3.7</ele>
        <time>2020-06-02T10:32:46Z</time>
      </trkpt>
      <trkpt lat="46.24942" lon="-1.04447">
        <ele>3.7</ele>
        <time>2020-06-02T10:32:47Z</time>
      </trkpt>
      <trkpt lat="46.24941" lon="-1.04447">
        <ele>3.7</ele>
        <time>2020-06-02T10:32:48Z</time>
      </trkpt>
      <trkpt lat="46.24942" lon="-1.04448">
        <ele>3.7</ele>
        <time>2020-06-02T10:32:49Z</time>
      </trkpt>
      <trkpt lat="46.24942" lon="-1.04448">
        <ele>3.7</ele>
        <time>2020-06-02T10:32:50Z</time>
      </trkpt>
      <trkpt lat="46.24942" lon="-1.04447">
        <ele>3.7</ele>
        <time>2020-06-02T10:32:51Z</time>
      </trkpt>
      <trkpt lat="46.24942" lon="-1.04447">
        <ele>3.7</ele>
        <time>2020-06-02T10:32:52Z</time>
      </trkpt>
      <trkpt lat="46.24942" lon="-1.04447">
        <ele>3.7</ele>
        <time>2020-06-02T10:32:53Z</time>
      </trkpt>
      <trkpt lat="46.24942" lon="-1.04449">
        <ele>3.7</ele>
        <time>2020-06-02T10:32:54Z</time>
      </trkpt>
      <trkpt lat="46.24942" lon="-1.04449">
        <ele>3.7</ele>
        <time>2020-06-02T10:32:55Z</time>
      </trkpt>
      <trkpt lat="46.24942" lon="-1.04449">
        <ele>3.7</ele>
        <time>2020-06-02T10:32:56Z</time>
      </trkpt>
      <trkpt lat="46.24942" lon="-1.04449">
        <ele>3.7</ele>
        <time>2020-06-02T10:32:57Z</time>
      </trkpt>
      <trkpt lat="46.24942" lon="-1.04449">
        <ele>3.7</ele>
        <time>2020-06-02T10:32:58Z</time>
      </trkpt>
      <trkpt lat="46.24943" lon="-1.04448">
        <ele>3.7</ele>
        <time>2020-06-02T10:32:59Z</time>
      </trkpt>
      <trkpt lat="46.24943" lon="-1.04449">
        <ele>3.7</ele>
        <time>2020-06-02T10:33:00Z</time>
      </trkpt>
      <trkpt lat="46.24943" lon="-1.04449">
        <ele>3.7</ele>
        <time>2020-06-02T10:33:01Z</time>
      </trkpt>
      <trkpt lat="46.24942" lon="-1.0445">
        <ele>3.7</ele>
        <time>2020-06-02T10:33:02Z</time>
      </trkpt>
      <trkpt lat="46.24943" lon="-1.04448">
        <ele>3.7</ele>
        <time>2020-06-02T10:33:03Z</time>
      </trkpt>
      <trkpt lat="46.24943" lon="-1.04448">
        <ele>3.7</ele>
        <time>2020-06-02T10:33:04Z</time>
      </trkpt>
      <trkpt lat="46.24943" lon="-1.04448">
        <ele>3.7</ele>
        <time>2020-06-02T10:33:05Z</time>
      </trkpt>
      <trkpt lat="46.24942" lon="-1.04448">
        <ele>3.7</ele>
        <time>2020-06-02T10:33:06Z</time>
      </trkpt>
      <trkpt lat="46.24942" lon="-1.04448">
        <ele>3.7</ele>
        <time>2020-06-02T10:33:07Z</time>
      </trkpt>
      <trkpt lat="46.24942" lon="-1.04447">
        <ele>3.7</ele>
        <time>2020-06-02T10:33:08Z</time>
      </trkpt>
      <trkpt lat="46.24943" lon="-1.04445">
        <ele>3.7</ele>
        <time>2020-06-02T10:33:09Z</time>
      </trkpt>
      <trkpt lat="46.24943" lon="-1.04444">
        <ele>3.7</ele>
        <time>2020-06-02T10:33:10Z</time>
      </trkpt>
      <trkpt lat="46.24943" lon="-1.04444">
        <ele>3.7</ele>
        <time>2020-06-02T10:33:11Z</time>
      </trkpt>
      <trkpt lat="46.24942" lon="-1.04444">
        <ele>3.7</ele>
        <time>2020-06-02T10:33:12Z</time>
      </trkpt>
      <trkpt lat="46.24942" lon="-1.04444">
        <ele>3.7</ele>
        <time>2020-06-02T10:33:13Z</time>
      </trkpt>
      <trkpt lat="46.24942" lon="-1.04445">
        <ele>3.7</ele>
        <time>2020-06-02T10:33:14Z</time>
      </trkpt>
      <trkpt lat="46.24942" lon="-1.04446">
        <ele>3.7</ele>
        <time>2020-06-02T10:33:15Z</time>
      </trkpt>
      <trkpt lat="46.24942" lon="-1.04446">
        <ele>3.7</ele>
        <time>2020-06-02T10:33:16Z</time>
      </trkpt>
      <trkpt lat="46.24942" lon="-1.04446">
        <ele>3.7</ele>
        <time>2020-06-02T10:33:17Z</time>
      </trkpt>
      <trkpt lat="46.24942" lon="-1.04447">
        <ele>3.7</ele>
        <time>2020-06-02T10:33:18Z</time>
      </trkpt>
      <trkpt lat="46.24942" lon="-1.04448">
        <ele>3.7</ele>
        <time>2020-06-02T10:33:19Z</time>
      </trkpt>
      <trkpt lat="46.24942" lon="-1.04449">
        <ele>3.7</ele>
        <time>2020-06-02T10:33:20Z</time>
      </trkpt>
      <trkpt lat="46.24942" lon="-1.0445">
        <ele>3.7</ele>
        <time>2020-06-02T10:33:21Z</time>
      </trkpt>
      <trkpt lat="46.24942" lon="-1.04449">
        <ele>3.7</ele>
        <time>2020-06-02T10:33:22Z</time>
      </trkpt>
      <trkpt lat="46.24943" lon="-1.04449">
        <ele>3.7</ele>
        <time>2020-06-02T10:33:23Z</time>
      </trkpt>
      <trkpt lat="46.24943" lon="-1.04449">
        <ele>3.7</ele>
        <time>2020-06-02T10:33:24Z</time>
      </trkpt>
      <trkpt lat="46.24942" lon="-1.04449">
        <ele>3.7</ele>
        <time>2020-06-02T10:33:25Z</time>
      </trkpt>
      <trkpt lat="46.24942" lon="-1.0445">
        <ele>3.7</ele>
        <time>2020-06-02T10:33:26Z</time>
      </trkpt>
      <trkpt lat="46.24943" lon="-1.0445">
        <ele>3.7</ele>
        <time>2020-06-02T10:33:27Z</time>
      </trkpt>
      <trkpt lat="46.24943" lon="-1.0445">
        <ele>3.7</ele>
        <time>2020-06-02T10:33:28Z</time>
      </trkpt>
      <trkpt lat="46.24943" lon="-1.0445">
        <ele>3.7</ele>
        <time>2020-06-02T10:33:29Z</time>
      </trkpt>
      <trkpt lat="46.24943" lon="-1.0445">
        <ele>3.7</ele>
        <time>2020-06-02T10:33:30Z</time>
      </trkpt>
      <trkpt lat="46.24943" lon="-1.04451">
        <ele>3.8</ele>
        <time>2020-06-02T10:33:31Z</time>
      </trkpt>
      <trkpt lat="46.24943" lon="-1.0445">
        <ele>3.8</ele>
        <time>2020-06-02T10:33:32Z</time>
      </trkpt>
      <trkpt lat="46.24943" lon="-1.0445">
        <ele>3.8</ele>
        <time>2020-06-02T10:33:33Z</time>
      </trkpt>
      <trkpt lat="46.24943" lon="-1.04449">
        <ele>3.8</ele>
        <time>2020-06-02T10:33:34Z</time>
      </trkpt>
      <trkpt lat="46.24943" lon="-1.04449">
        <ele>3.8</ele>
        <time>2020-06-02T10:33:35Z</time>
      </trkpt>
      <trkpt lat="46.24943" lon="-1.0445">
        <ele>3.8</ele>
        <time>2020-06-02T10:33:36Z</time>
      </trkpt>
      <trkpt lat="46.24943" lon="-1.04449">
        <ele>3.8</ele>
        <time>2020-06-02T10:33:37Z</time>
      </trkpt>
      <trkpt lat="46.24943" lon="-1.04448">
        <ele>3.8</ele>
        <time>2020-06-02T10:33:38Z</time>
      </trkpt>
      <trkpt lat="46.24943" lon="-1.04449">
        <ele>3.8</ele>
        <time>2020-06-02T10:33:39Z</time>
      </trkpt>
      <trkpt lat="46.24942" lon="-1.04448">
        <ele>3.8</ele>
        <time>2020-06-02T10:33:40Z</time>
      </trkpt>
      <trkpt lat="46.24942" lon="-1.04447">
        <ele>3.8</ele>
        <time>2020-06-02T10:33:41Z</time>
      </trkpt>
      <trkpt lat="46.24942" lon="-1.04447">
        <ele>3.8</ele>
        <time>2020-06-02T10:33:42Z</time>
      </trkpt>
      <trkpt lat="46.24942" lon="-1.04447">
        <ele>3.8</ele>
        <time>2020-06-02T10:33:43Z</time>
      </trkpt>
      <trkpt lat="46.24942" lon="-1.04447">
        <ele>3.8</ele>
        <time>2020-06-02T10:33:44Z</time>
      </trkpt>
      <trkpt lat="46.24942" lon="-1.04448">
        <ele>3.8</ele>
        <time>2020-06-02T10:33:45Z</time>
      </trkpt>
      <trkpt lat="46.24942" lon="-1.04449">
        <ele>3.8</ele>
        <time>2020-06-02T10:33:46Z</time>
      </trkpt>
      <trkpt lat="46.24942" lon="-1.04447">
        <ele>3.8</ele>
        <time>2020-06-02T10:33:47Z</time>
      </trkpt>
      <trkpt lat="46.24942" lon="-1.04448">
        <ele>3.8</ele>
        <time>2020-06-02T10:33:48Z</time>
      </trkpt>
      <trkpt lat="46.24942" lon="-1.04448">
        <ele>3.8</ele>
        <time>2020-06-02T10:33:49Z</time>
      </trkpt>
      <trkpt lat="46.24943" lon="-1.04448">
        <ele>3.8</ele>
        <time>2020-06-02T10:33:50Z</time>
      </trkpt>
      <trkpt lat="46.24943" lon="-1.04448">
        <ele>3.8</ele>
        <time>2020-06-02T10:33:51Z</time>
      </trkpt>
      <trkpt lat="46.24943" lon="-1.04447">
        <ele>3.8</ele>
        <time>2020-06-02T10:33:52Z</time>
      </trkpt>
      <trkpt lat="46.24943" lon="-1.04448">
        <ele>3.8</ele>
        <time>2020-06-02T10:33:53Z</time>
      </trkpt>
      <trkpt lat="46.24943" lon="-1.04449">
        <ele>3.8</ele>
        <time>2020-06-02T10:33:54Z</time>
      </trkpt>
      <trkpt lat="46.24943" lon="-1.04449">
        <ele>3.8</ele>
        <time>2020-06-02T10:33:55Z</time>
      </trkpt>
      <trkpt lat="46.24943" lon="-1.04449">
        <ele>3.8</ele>
        <time>2020-06-02T10:33:56Z</time>
      </trkpt>
      <trkpt lat="46.24943" lon="-1.04449">
        <ele>3.8</ele>
        <time>2020-06-02T10:33:57Z</time>
      </trkpt>
      <trkpt lat="46.24944" lon="-1.04449">
        <ele>3.8</ele>
        <time>2020-06-02T10:33:58Z</time>
      </trkpt>
      <trkpt lat="46.24945" lon="-1.04449">
        <ele>3.8</ele>
        <time>2020-06-02T10:33:59Z</time>
      </trkpt>
      <trkpt lat="46.24946" lon="-1.04448">
        <ele>3.8</ele>
        <time>2020-06-02T10:34:00Z</time>
      </trkpt>
      <trkpt lat="46.24948" lon="-1.04448">
        <ele>3.8</ele>
        <time>2020-06-02T10:34:01Z</time>
      </trkpt>
      <trkpt lat="46.24952" lon="-1.04448">
        <ele>3.9</ele>
        <time>2020-06-02T10:34:02Z</time>
      </trkpt>
      <trkpt lat="46.24954" lon="-1.04448">
        <ele>3.9</ele>
        <time>2020-06-02T10:34:03Z</time>
      </trkpt>
      <trkpt lat="46.24957" lon="-1.04448">
        <ele>3.9</ele>
        <time>2020-06-02T10:34:04Z</time>
      </trkpt>
      <trkpt lat="46.2496" lon="-1.04447">
        <ele>4</ele>
        <time>2020-06-02T10:34:05Z</time>
      </trkpt>
      <trkpt lat="46.24964" lon="-1.04446">
        <ele>4</ele>
        <time>2020-06-02T10:34:06Z</time>
      </trkpt>
      <trkpt lat="46.24969" lon="-1.04444">
        <ele>4</ele>
        <time>2020-06-02T10:34:07Z</time>
      </trkpt>
      <trkpt lat="46.24974" lon="-1.04442">
        <ele>4</ele>
        <time>2020-06-02T10:34:08Z</time>
      </trkpt>
      <trkpt lat="46.24979" lon="-1.0444">
        <ele>4.1</ele>
        <time>2020-06-02T10:34:09Z</time>
      </trkpt>
      <trkpt lat="46.24985" lon="-1.04437">
        <ele>4.1</ele>
        <time>2020-06-02T10:34:10Z</time>
      </trkpt>
      <trkpt lat="46.2499" lon="-1.04435">
        <ele>4.1</ele>
        <time>2020-06-02T10:34:11Z</time>
      </trkpt>
      <trkpt lat="46.24996" lon="-1.04433">
        <ele>4.1</ele>
        <time>2020-06-02T10:34:12Z</time>
      </trkpt>
      <trkpt lat="46.25002" lon="-1.0443">
        <ele>4.1</ele>
        <time>2020-06-02T10:34:13Z</time>
      </trkpt>
      <trkpt lat="46.25008" lon="-1.04428">
        <ele>4.1</ele>
        <time>2020-06-02T10:34:14Z</time>
      </trkpt>
      <trkpt lat="46.25014" lon="-1.04426">
        <ele>4.2</ele>
        <time>2020-06-02T10:34:15Z</time>
      </trkpt>
      <trkpt lat="46.25019" lon="-1.04424">
        <ele>4.2</ele>
        <time>2020-06-02T10:34:16Z</time>
      </trkpt>
      <trkpt lat="46.25025" lon="-1.04422">
        <ele>4.2</ele>
        <time>2020-06-02T10:34:17Z</time>
      </trkpt>
      <trkpt lat="46.2503" lon="-1.0442">
        <ele>4.2</ele>
        <time>2020-06-02T10:34:18Z</time>
      </trkpt>
      <trkpt lat="46.25035" lon="-1.04419">
        <ele>4.2</ele>
        <time>2020-06-02T10:34:19Z</time>
      </trkpt>
      <trkpt lat="46.25039" lon="-1.04417">
        <ele>4.2</ele>
        <time>2020-06-02T10:34:20Z</time>
      </trkpt>
      <trkpt lat="46.25045" lon="-1.04415">
        <ele>4.2</ele>
        <time>2020-06-02T10:34:21Z</time>
      </trkpt>
      <trkpt lat="46.2505" lon="-1.04414">
        <ele>4.3</ele>
        <time>2020-06-02T10:34:22Z</time>
      </trkpt>
      <trkpt lat="46.25055" lon="-1.04411">
        <ele>4.3</ele>
        <time>2020-06-02T10:34:23Z</time>
      </trkpt>
      <trkpt lat="46.25061" lon="-1.04409">
        <ele>4.3</ele>
        <time>2020-06-02T10:34:24Z</time>
      </trkpt>
      <trkpt lat="46.25066" lon="-1.04407">
        <ele>4.3</ele>
        <time>2020-06-02T10:34:25Z</time>
      </trkpt>
      <trkpt lat="46.25071" lon="-1.04405">
        <ele>4.3</ele>
        <time>2020-06-02T10:34:26Z</time>
      </trkpt>
      <trkpt lat="46.25076" lon="-1.04403">
        <ele>4.4</ele>
        <time>2020-06-02T10:34:27Z</time>
      </trkpt>
      <trkpt lat="46.25081" lon="-1.04401">
        <ele>4.4</ele>
        <time>2020-06-02T10:34:28Z</time>
      </trkpt>
      <trkpt lat="46.25086" lon="-1.04399">
        <ele>4.4</ele>
        <time>2020-06-02T10:34:29Z</time>
      </trkpt>
      <trkpt lat="46.25091" lon="-1.04397">
        <ele>4.4</ele>
        <time>2020-06-02T10:34:30Z</time>
      </trkpt>
      <trkpt lat="46.25097" lon="-1.04395">
        <ele>4.4</ele>
        <time>2020-06-02T10:34:31Z</time>
      </trkpt>
      <trkpt lat="46.25102" lon="-1.04393">
        <ele>4.4</ele>
        <time>2020-06-02T10:34:32Z</time>
      </trkpt>
      <trkpt lat="46.25108" lon="-1.0439">
        <ele>4.4</ele>
        <time>2020-06-02T10:34:33Z</time>
      </trkpt>
      <trkpt lat="46.25113" lon="-1.04388">
        <ele>4.4</ele>
        <time>2020-06-02T10:34:34Z</time>
      </trkpt>
      <trkpt lat="46.25118" lon="-1.04386">
        <ele>4.4</ele>
        <time>2020-06-02T10:34:35Z</time>
      </trkpt>
      <trkpt lat="46.25123" lon="-1.04384">
        <ele>4.4</ele>
        <time>2020-06-02T10:34:36Z</time>
      </trkpt>
      <trkpt lat="46.25129" lon="-1.04381">
        <ele>4.4</ele>
        <time>2020-06-02T10:34:37Z</time>
      </trkpt>
      <trkpt lat="46.25134" lon="-1.04379">
        <ele>4.4</ele>
        <time>2020-06-02T10:34:38Z</time>
      </trkpt>
      <trkpt lat="46.25139" lon="-1.04377">
        <ele>4.4</ele>
        <time>2020-06-02T10:34:39Z</time>
      </trkpt>
      <trkpt lat="46.25144" lon="-1.04375">
        <ele>4.4</ele>
        <time>2020-06-02T10:34:40Z</time>
      </trkpt>
      <trkpt lat="46.25148" lon="-1.04373">
        <ele>4.4</ele>
        <time>2020-06-02T10:34:41Z</time>
      </trkpt>
      <trkpt lat="46.25152" lon="-1.04372">
        <ele>4.4</ele>
        <time>2020-06-02T10:34:42Z</time>
      </trkpt>
      <trkpt lat="46.25157" lon="-1.04369">
        <ele>4.4</ele>
        <time>2020-06-02T10:34:43Z</time>
      </trkpt>
      <trkpt lat="46.25162" lon="-1.04367">
        <ele>4.4</ele>
        <time>2020-06-02T10:34:44Z</time>
      </trkpt>
      <trkpt lat="46.25168" lon="-1.04364">
        <ele>4.4</ele>
        <time>2020-06-02T10:34:45Z</time>
      </trkpt>
      <trkpt lat="46.25173" lon="-1.04362">
        <ele>4.4</ele>
        <time>2020-06-02T10:34:46Z</time>
      </trkpt>
      <trkpt lat="46.25178" lon="-1.04359">
        <ele>4.4</ele>
        <time>2020-06-02T10:34:47Z</time>
      </trkpt>
      <trkpt lat="46.25184" lon="-1.04357">
        <ele>4.4</ele>
        <time>2020-06-02T10:34:48Z</time>
      </trkpt>
      <trkpt lat="46.25191" lon="-1.04353">
        <ele>4.4</ele>
        <time>2020-06-02T10:34:49Z</time>
      </trkpt>
      <trkpt lat="46.25197" lon="-1.04351">
        <ele>4.4</ele>
        <time>2020-06-02T10:34:50Z</time>
      </trkpt>
      <trkpt lat="46.25202" lon="-1.04349">
        <ele>4.4</ele>
        <time>2020-06-02T10:34:51Z</time>
      </trkpt>
      <trkpt lat="46.25206" lon="-1.04347">
        <ele>4.4</ele>
        <time>2020-06-02T10:34:52Z</time>
      </trkpt>
      <trkpt lat="46.25211" lon="-1.04345">
        <ele>4.4</ele>
        <time>2020-06-02T10:34:53Z</time>
      </trkpt>
      <trkpt lat="46.25216" lon="-1.04343">
        <ele>4.4</ele>
        <time>2020-06-02T10:34:54Z</time>
      </trkpt>
      <trkpt lat="46.25221" lon="-1.04341">
        <ele>4.3</ele>
        <time>2020-06-02T10:34:55Z</time>
      </trkpt>
      <trkpt lat="46.25226" lon="-1.04339">
        <ele>4.3</ele>
        <time>2020-06-02T10:34:56Z</time>
      </trkpt>
      <trkpt lat="46.25232" lon="-1.04337">
        <ele>4.3</ele>
        <time>2020-06-02T10:34:57Z</time>
      </trkpt>
      <trkpt lat="46.25238" lon="-1.04335">
        <ele>4.2</ele>
        <time>2020-06-02T10:34:58Z</time>
      </trkpt>
      <trkpt lat="46.25245" lon="-1.04332">
        <ele>4.2</ele>
        <time>2020-06-02T10:34:59Z</time>
      </trkpt>
      <trkpt lat="46.2525" lon="-1.0433">
        <ele>4.2</ele>
        <time>2020-06-02T10:35:00Z</time>
      </trkpt>
      <trkpt lat="46.25255" lon="-1.04328">
        <ele>4.1</ele>
        <time>2020-06-02T10:35:01Z</time>
      </trkpt>
      <trkpt lat="46.2526" lon="-1.04326">
        <ele>4.1</ele>
        <time>2020-06-02T10:35:02Z</time>
      </trkpt>
      <trkpt lat="46.25265" lon="-1.04324">
        <ele>4.1</ele>
        <time>2020-06-02T10:35:03Z</time>
      </trkpt>
      <trkpt lat="46.25271" lon="-1.04322">
        <ele>4</ele>
        <time>2020-06-02T10:35:04Z</time>
      </trkpt>
      <trkpt lat="46.25276" lon="-1.0432">
        <ele>4</ele>
        <time>2020-06-02T10:35:05Z</time>
      </trkpt>
      <trkpt lat="46.25281" lon="-1.04318">
        <ele>4</ele>
        <time>2020-06-02T10:35:06Z</time>
      </trkpt>
      <trkpt lat="46.25286" lon="-1.04316">
        <ele>3.9</ele>
        <time>2020-06-02T10:35:07Z</time>
      </trkpt>
      <trkpt lat="46.25291" lon="-1.04313">
        <ele>3.9</ele>
        <time>2020-06-02T10:35:08Z</time>
      </trkpt>
      <trkpt lat="46.25297" lon="-1.04311">
        <ele>3.8</ele>
        <time>2020-06-02T10:35:09Z</time>
      </trkpt>
      <trkpt lat="46.25302" lon="-1.04309">
        <ele>3.8</ele>
        <time>2020-06-02T10:35:10Z</time>
      </trkpt>
      <trkpt lat="46.25308" lon="-1.04307">
        <ele>3.8</ele>
        <time>2020-06-02T10:35:11Z</time>
      </trkpt>
      <trkpt lat="46.25313" lon="-1.04305">
        <ele>3.8</ele>
        <time>2020-06-02T10:35:12Z</time>
      </trkpt>
      <trkpt lat="46.25318" lon="-1.04303">
        <ele>3.7</ele>
        <time>2020-06-02T10:35:13Z</time>
      </trkpt>
      <trkpt lat="46.25324" lon="-1.04301">
        <ele>3.7</ele>
        <time>2020-06-02T10:35:14Z</time>
      </trkpt>
      <trkpt lat="46.2533" lon="-1.04298">
        <ele>3.7</ele>
        <time>2020-06-02T10:35:15Z</time>
      </trkpt>
      <trkpt lat="46.25335" lon="-1.04296">
        <ele>3.7</ele>
        <time>2020-06-02T10:35:16Z</time>
      </trkpt>
      <trkpt lat="46.25341" lon="-1.04294">
        <ele>3.7</ele>
        <time>2020-06-02T10:35:17Z</time>
      </trkpt>
      <trkpt lat="46.25346" lon="-1.04292">
        <ele>3.7</ele>
        <time>2020-06-02T10:35:18Z</time>
      </trkpt>
      <trkpt lat="46.25351" lon="-1.0429">
        <ele>3.7</ele>
        <time>2020-06-02T10:35:19Z</time>
      </trkpt>
      <trkpt lat="46.25356" lon="-1.04289">
        <ele>3.7</ele>
        <time>2020-06-02T10:35:20Z</time>
      </trkpt>
      <trkpt lat="46.25361" lon="-1.04287">
        <ele>3.7</ele>
        <time>2020-06-02T10:35:21Z</time>
      </trkpt>
      <trkpt lat="46.25367" lon="-1.04285">
        <ele>3.7</ele>
        <time>2020-06-02T10:35:22Z</time>
      </trkpt>
      <trkpt lat="46.25372" lon="-1.04282">
        <ele>3.7</ele>
        <time>2020-06-02T10:35:23Z</time>
      </trkpt>
      <trkpt lat="46.25376" lon="-1.0428">
        <ele>3.7</ele>
        <time>2020-06-02T10:35:24Z</time>
      </trkpt>
      <trkpt lat="46.25381" lon="-1.04278">
        <ele>3.7</ele>
        <time>2020-06-02T10:35:25Z</time>
      </trkpt>
      <trkpt lat="46.25386" lon="-1.04276">
        <ele>3.7</ele>
        <time>2020-06-02T10:35:26Z</time>
      </trkpt>
      <trkpt lat="46.2539" lon="-1.04274">
        <ele>3.7</ele>
        <time>2020-06-02T10:35:27Z</time>
      </trkpt>
      <trkpt lat="46.25395" lon="-1.04272">
        <ele>3.7</ele>
        <time>2020-06-02T10:35:28Z</time>
      </trkpt>
      <trkpt lat="46.254" lon="-1.0427">
        <ele>3.7</ele>
        <time>2020-06-02T10:35:29Z</time>
      </trkpt>
      <trkpt lat="46.25405" lon="-1.04268">
        <ele>3.7</ele>
        <time>2020-06-02T10:35:30Z</time>
      </trkpt>
      <trkpt lat="46.2541" lon="-1.04266">
        <ele>3.7</ele>
        <time>2020-06-02T10:35:31Z</time>
      </trkpt>
      <trkpt lat="46.25415" lon="-1.04263">
        <ele>3.7</ele>
        <time>2020-06-02T10:35:32Z</time>
      </trkpt>
      <trkpt lat="46.25421" lon="-1.04261">
        <ele>3.7</ele>
        <time>2020-06-02T10:35:33Z</time>
      </trkpt>
      <trkpt lat="46.25427" lon="-1.04258">
        <ele>3.7</ele>
        <time>2020-06-02T10:35:34Z</time>
      </trkpt>
      <trkpt lat="46.25433" lon="-1.04256">
        <ele>3.7</ele>
        <time>2020-06-02T10:35:35Z</time>
      </trkpt>
      <trkpt lat="46.25438" lon="-1.04253">
        <ele>3.7</ele>
        <time>2020-06-02T10:35:36Z</time>
      </trkpt>
      <trkpt lat="46.25444" lon="-1.04251">
        <ele>3.7</ele>
        <time>2020-06-02T10:35:37Z</time>
      </trkpt>
      <trkpt lat="46.25449" lon="-1.04249">
        <ele>3.7</ele>
        <time>2020-06-02T10:35:38Z</time>
      </trkpt>
      <trkpt lat="46.25455" lon="-1.04247">
        <ele>3.7</ele>
        <time>2020-06-02T10:35:39Z</time>
      </trkpt>
      <trkpt lat="46.25461" lon="-1.04244">
        <ele>3.7</ele>
        <time>2020-06-02T10:35:40Z</time>
      </trkpt>
      <trkpt lat="46.25466" lon="-1.04242">
        <ele>3.7</ele>
        <time>2020-06-02T10:35:41Z</time>
      </trkpt>
      <trkpt lat="46.25471" lon="-1.04239">
        <ele>3.7</ele>
        <time>2020-06-02T10:35:42Z</time>
      </trkpt>
      <trkpt lat="46.25476" lon="-1.04237">
        <ele>3.7</ele>
        <time>2020-06-02T10:35:43Z</time>
      </trkpt>
      <trkpt lat="46.25483" lon="-1.04235">
        <ele>3.7</ele>
        <time>2020-06-02T10:35:44Z</time>
      </trkpt>
      <trkpt lat="46.25489" lon="-1.04234">
        <ele>3.7</ele>
        <time>2020-06-02T10:35:45Z</time>
      </trkpt>
      <trkpt lat="46.25494" lon="-1.04232">
        <ele>3.7</ele>
        <time>2020-06-02T10:35:46Z</time>
      </trkpt>
      <trkpt lat="46.25499" lon="-1.04231">
        <ele>3.7</ele>
        <time>2020-06-02T10:35:47Z</time>
      </trkpt>
      <trkpt lat="46.25504" lon="-1.04228">
        <ele>3.7</ele>
        <time>2020-06-02T10:35:48Z</time>
      </trkpt>
      <trkpt lat="46.25509" lon="-1.04226">
        <ele>3.7</ele>
        <time>2020-06-02T10:35:49Z</time>
      </trkpt>
      <trkpt lat="46.25512" lon="-1.04224">
        <ele>3.7</ele>
        <time>2020-06-02T10:35:50Z</time>
      </trkpt>
      <trkpt lat="46.25518" lon="-1.04222">
        <ele>3.7</ele>
        <time>2020-06-02T10:35:51Z</time>
      </trkpt>
      <trkpt lat="46.25524" lon="-1.0422">
        <ele>3.7</ele>
        <time>2020-06-02T10:35:52Z</time>
      </trkpt>
      <trkpt lat="46.2553" lon="-1.04218">
        <ele>3.7</ele>
        <time>2020-06-02T10:35:53Z</time>
      </trkpt>
      <trkpt lat="46.25534" lon="-1.04217">
        <ele>3.7</ele>
        <time>2020-06-02T10:35:54Z</time>
      </trkpt>
      <trkpt lat="46.2554" lon="-1.04215">
        <ele>3.7</ele>
        <time>2020-06-02T10:35:55Z</time>
      </trkpt>
      <trkpt lat="46.25545" lon="-1.04213">
        <ele>3.7</ele>
        <time>2020-06-02T10:35:56Z</time>
      </trkpt>
      <trkpt lat="46.2555" lon="-1.04211">
        <ele>3.7</ele>
        <time>2020-06-02T10:35:57Z</time>
      </trkpt>
      <trkpt lat="46.25556" lon="-1.04209">
        <ele>3.7</ele>
        <time>2020-06-02T10:35:58Z</time>
      </trkpt>
      <trkpt lat="46.25561" lon="-1.04208">
        <ele>3.7</ele>
        <time>2020-06-02T10:35:59Z</time>
      </trkpt>
      <trkpt lat="46.25566" lon="-1.04206">
        <ele>3.7</ele>
        <time>2020-06-02T10:36:00Z</time>
      </trkpt>
      <trkpt lat="46.25571" lon="-1.04204">
        <ele>3.7</ele>
        <time>2020-06-02T10:36:01Z</time>
      </trkpt>
      <trkpt lat="46.25576" lon="-1.04202">
        <ele>3.8</ele>
        <time>2020-06-02T10:36:02Z</time>
      </trkpt>
      <trkpt lat="46.25581" lon="-1.042">
        <ele>3.8</ele>
        <time>2020-06-02T10:36:03Z</time>
      </trkpt>
      <trkpt lat="46.25585" lon="-1.04199">
        <ele>3.8</ele>
        <time>2020-06-02T10:36:04Z</time>
      </trkpt>
      <trkpt lat="46.2559" lon="-1.04197">
        <ele>3.8</ele>
        <time>2020-06-02T10:36:05Z</time>
      </trkpt>
      <trkpt lat="46.25595" lon="-1.04195">
        <ele>3.8</ele>
        <time>2020-06-02T10:36:06Z</time>
      </trkpt>
      <trkpt lat="46.25601" lon="-1.04193">
        <ele>3.8</ele>
        <time>2020-06-02T10:36:07Z</time>
      </trkpt>
      <trkpt lat="46.25606" lon="-1.04191">
        <ele>3.8</ele>
        <time>2020-06-02T10:36:08Z</time>
      </trkpt>
      <trkpt lat="46.25611" lon="-1.04189">
        <ele>3.8</ele>
        <time>2020-06-02T10:36:09Z</time>
      </trkpt>
      <trkpt lat="46.25615" lon="-1.04188">
        <ele>3.8</ele>
        <time>2020-06-02T10:36:10Z</time>
      </trkpt>
      <trkpt lat="46.25621" lon="-1.04185">
        <ele>3.8</ele>
        <time>2020-06-02T10:36:11Z</time>
      </trkpt>
      <trkpt lat="46.25626" lon="-1.04183">
        <ele>3.8</ele>
        <time>2020-06-02T10:36:12Z</time>
      </trkpt>
      <trkpt lat="46.25631" lon="-1.04181">
        <ele>3.8</ele>
        <time>2020-06-02T10:36:13Z</time>
      </trkpt>
      <trkpt lat="46.25636" lon="-1.04181">
        <ele>3.8</ele>
        <time>2020-06-02T10:36:14Z</time>
      </trkpt>
      <trkpt lat="46.2564" lon="-1.04179">
        <ele>3.8</ele>
        <time>2020-06-02T10:36:15Z</time>
      </trkpt>
      <trkpt lat="46.25644" lon="-1.04178">
        <ele>3.8</ele>
        <time>2020-06-02T10:36:16Z</time>
      </trkpt>
      <trkpt lat="46.25649" lon="-1.04176">
        <ele>3.8</ele>
        <time>2020-06-02T10:36:17Z</time>
      </trkpt>
      <trkpt lat="46.25653" lon="-1.04175">
        <ele>3.8</ele>
        <time>2020-06-02T10:36:18Z</time>
      </trkpt>
      <trkpt lat="46.25657" lon="-1.04173">
        <ele>3.8</ele>
        <time>2020-06-02T10:36:19Z</time>
      </trkpt>
      <trkpt lat="46.25662" lon="-1.04171">
        <ele>3.8</ele>
        <time>2020-06-02T10:36:20Z</time>
      </trkpt>
      <trkpt lat="46.25667" lon="-1.04168">
        <ele>3.8</ele>
        <time>2020-06-02T10:36:21Z</time>
      </trkpt>
      <trkpt lat="46.25672" lon="-1.04166">
        <ele>3.8</ele>
        <time>2020-06-02T10:36:22Z</time>
      </trkpt>
      <trkpt lat="46.25678" lon="-1.04163">
        <ele>3.8</ele>
        <time>2020-06-02T10:36:23Z</time>
      </trkpt>
      <trkpt lat="46.25683" lon="-1.04161">
        <ele>3.8</ele>
        <time>2020-06-02T10:36:24Z</time>
      </trkpt>
      <trkpt lat="46.25689" lon="-1.04158">
        <ele>3.8</ele>
        <time>2020-06-02T10:36:25Z</time>
      </trkpt>
      <trkpt lat="46.25695" lon="-1.04156">
        <ele>3.8</ele>
        <time>2020-06-02T10:36:26Z</time>
      </trkpt>
      <trkpt lat="46.257" lon="-1.04153">
        <ele>3.8</ele>
        <time>2020-06-02T10:36:27Z</time>
      </trkpt>
      <trkpt lat="46.25705" lon="-1.0415">
        <ele>3.8</ele>
        <time>2020-06-02T10:36:28Z</time>
      </trkpt>
      <trkpt lat="46.25711" lon="-1.04148">
        <ele>3.8</ele>
        <time>2020-06-02T10:36:29Z</time>
      </trkpt>
      <trkpt lat="46.25716" lon="-1.04146">
        <ele>3.8</ele>
        <time>2020-06-02T10:36:30Z</time>
      </trkpt>
      <trkpt lat="46.25721" lon="-1.04145">
        <ele>3.8</ele>
        <time>2020-06-02T10:36:31Z</time>
      </trkpt>
      <trkpt lat="46.25727" lon="-1.04143">
        <ele>3.8</ele>
        <time>2020-06-02T10:36:32Z</time>
      </trkpt>
      <trkpt lat="46.25733" lon="-1.0414">
        <ele>3.8</ele>
        <time>2020-06-02T10:36:33Z</time>
      </trkpt>
      <trkpt lat="46.25738" lon="-1.04138">
        <ele>3.8</ele>
        <time>2020-06-02T10:36:34Z</time>
      </trkpt>
      <trkpt lat="46.25744" lon="-1.04136">
        <ele>3.8</ele>
        <time>2020-06-02T10:36:35Z</time>
      </trkpt>
      <trkpt lat="46.25749" lon="-1.04134">
        <ele>3.8</ele>
        <time>2020-06-02T10:36:36Z</time>
      </trkpt>
      <trkpt lat="46.25754" lon="-1.04133">
        <ele>3.8</ele>
        <time>2020-06-02T10:36:37Z</time>
      </trkpt>
      <trkpt lat="46.25759" lon="-1.04131">
        <ele>3.8</ele>
        <time>2020-06-02T10:36:38Z</time>
      </trkpt>
      <trkpt lat="46.25763" lon="-1.0413">
        <ele>3.8</ele>
        <time>2020-06-02T10:36:39Z</time>
      </trkpt>
      <trkpt lat="46.25768" lon="-1.04129">
        <ele>3.8</ele>
        <time>2020-06-02T10:36:40Z</time>
      </trkpt>
      <trkpt lat="46.25772" lon="-1.04127">
        <ele>3.8</ele>
        <time>2020-06-02T10:36:41Z</time>
      </trkpt>
      <trkpt lat="46.25777" lon="-1.04126">
        <ele>3.8</ele>
        <time>2020-06-02T10:36:42Z</time>
      </trkpt>
      <trkpt lat="46.25782" lon="-1.04124">
        <ele>3.8</ele>
        <time>2020-06-02T10:36:43Z</time>
      </trkpt>
      <trkpt lat="46.25787" lon="-1.04122">
        <ele>3.8</ele>
        <time>2020-06-02T10:36:44Z</time>
      </trkpt>
      <trkpt lat="46.25792" lon="-1.04121">
        <ele>3.8</ele>
        <time>2020-06-02T10:36:45Z</time>
      </trkpt>
      <trkpt lat="46.25799" lon="-1.0412">
        <ele>3.8</ele>
        <time>2020-06-02T10:36:46Z</time>
      </trkpt>
      <trkpt lat="46.25805" lon="-1.04118">
        <ele>3.7</ele>
        <time>2020-06-02T10:36:47Z</time>
      </trkpt>
      <trkpt lat="46.25811" lon="-1.04116">
        <ele>3.7</ele>
        <time>2020-06-02T10:36:48Z</time>
      </trkpt>
      <trkpt lat="46.25816" lon="-1.04114">
        <ele>3.7</ele>
        <time>2020-06-02T10:36:49Z</time>
      </trkpt>
      <trkpt lat="46.25821" lon="-1.04113">
        <ele>3.7</ele>
        <time>2020-06-02T10:36:50Z</time>
      </trkpt>
      <trkpt lat="46.25827" lon="-1.04111">
        <ele>3.7</ele>
        <time>2020-06-02T10:36:51Z</time>
      </trkpt>
      <trkpt lat="46.25832" lon="-1.04109">
        <ele>3.7</ele>
        <time>2020-06-02T10:36:52Z</time>
      </trkpt>
      <trkpt lat="46.25838" lon="-1.04107">
        <ele>3.7</ele>
        <time>2020-06-02T10:36:53Z</time>
      </trkpt>
      <trkpt lat="46.25844" lon="-1.04105">
        <ele>3.7</ele>
        <time>2020-06-02T10:36:54Z</time>
      </trkpt>
      <trkpt lat="46.2585" lon="-1.04103">
        <ele>3.7</ele>
        <time>2020-06-02T10:36:55Z</time>
      </trkpt>
      <trkpt lat="46.25855" lon="-1.04101">
        <ele>3.6</ele>
        <time>2020-06-02T10:36:56Z</time>
      </trkpt>
      <trkpt lat="46.25861" lon="-1.04099">
        <ele>3.6</ele>
        <time>2020-06-02T10:36:57Z</time>
      </trkpt>
      <trkpt lat="46.25868" lon="-1.04097">
        <ele>3.6</ele>
        <time>2020-06-02T10:36:58Z</time>
      </trkpt>
      <trkpt lat="46.25872" lon="-1.04096">
        <ele>3.5</ele>
        <time>2020-06-02T10:36:59Z</time>
      </trkpt>
      <trkpt lat="46.25879" lon="-1.04093">
        <ele>3.5</ele>
        <time>2020-06-02T10:37:00Z</time>
      </trkpt>
      <trkpt lat="46.25885" lon="-1.04091">
        <ele>3.5</ele>
        <time>2020-06-02T10:37:01Z</time>
      </trkpt>
      <trkpt lat="46.25891" lon="-1.04089">
        <ele>3.5</ele>
        <time>2020-06-02T10:37:02Z</time>
      </trkpt>
      <trkpt lat="46.25897" lon="-1.04087">
        <ele>3.5</ele>
        <time>2020-06-02T10:37:03Z</time>
      </trkpt>
      <trkpt lat="46.25904" lon="-1.04085">
        <ele>3.4</ele>
        <time>2020-06-02T10:37:04Z</time>
      </trkpt>
      <trkpt lat="46.25909" lon="-1.04083">
        <ele>3.4</ele>
        <time>2020-06-02T10:37:05Z</time>
      </trkpt>
      <trkpt lat="46.25916" lon="-1.04081">
        <ele>3.4</ele>
        <time>2020-06-02T10:37:06Z</time>
      </trkpt>
      <trkpt lat="46.25921" lon="-1.0408">
        <ele>3.4</ele>
        <time>2020-06-02T10:37:07Z</time>
      </trkpt>
      <trkpt lat="46.25925" lon="-1.04079">
        <ele>3.4</ele>
        <time>2020-06-02T10:37:08Z</time>
      </trkpt>
      <trkpt lat="46.25932" lon="-1.04076">
        <ele>3.3</ele>
        <time>2020-06-02T10:37:09Z</time>
      </trkpt>
      <trkpt lat="46.25938" lon="-1.04074">
        <ele>3.3</ele>
        <time>2020-06-02T10:37:10Z</time>
      </trkpt>
      <trkpt lat="46.25944" lon="-1.04071">
        <ele>3.3</ele>
        <time>2020-06-02T10:37:11Z</time>
      </trkpt>
      <trkpt lat="46.2595" lon="-1.04068">
        <ele>3.3</ele>
        <time>2020-06-02T10:37:12Z</time>
      </trkpt>
      <trkpt lat="46.25954" lon="-1.04067">
        <ele>3.3</ele>
        <time>2020-06-02T10:37:13Z</time>
      </trkpt>
      <trkpt lat="46.2596" lon="-1.04065">
        <ele>3.3</ele>
        <time>2020-06-02T10:37:14Z</time>
      </trkpt>
      <trkpt lat="46.25966" lon="-1.04063">
        <ele>3.2</ele>
        <time>2020-06-02T10:37:15Z</time>
      </trkpt>
      <trkpt lat="46.25972" lon="-1.0406">
        <ele>3.2</ele>
        <time>2020-06-02T10:37:16Z</time>
      </trkpt>
      <trkpt lat="46.25979" lon="-1.04058">
        <ele>3.2</ele>
        <time>2020-06-02T10:37:17Z</time>
      </trkpt>
      <trkpt lat="46.25984" lon="-1.04055">
        <ele>3.2</ele>
        <time>2020-06-02T10:37:18Z</time>
      </trkpt>
      <trkpt lat="46.2599" lon="-1.04053">
        <ele>3.2</ele>
        <time>2020-06-02T10:37:19Z</time>
      </trkpt>
      <trkpt lat="46.25995" lon="-1.04051">
        <ele>3.2</ele>
        <time>2020-06-02T10:37:20Z</time>
      </trkpt>
      <trkpt lat="46.26" lon="-1.04049">
        <ele>3.2</ele>
        <time>2020-06-02T10:37:21Z</time>
      </trkpt>
      <trkpt lat="46.26005" lon="-1.04047">
        <ele>3.2</ele>
        <time>2020-06-02T10:37:22Z</time>
      </trkpt>
      <trkpt lat="46.26011" lon="-1.04046">
        <ele>3.2</ele>
        <time>2020-06-02T10:37:23Z</time>
      </trkpt>
      <trkpt lat="46.26017" lon="-1.04044">
        <ele>3.2</ele>
        <time>2020-06-02T10:37:24Z</time>
      </trkpt>
      <trkpt lat="46.26023" lon="-1.0404">
        <ele>3.2</ele>
        <time>2020-06-02T10:37:25Z</time>
      </trkpt>
      <trkpt lat="46.26028" lon="-1.04038">
        <ele>3.2</ele>
        <time>2020-06-02T10:37:26Z</time>
      </trkpt>
      <trkpt lat="46.26033" lon="-1.04036">
        <ele>3.2</ele>
        <time>2020-06-02T10:37:27Z</time>
      </trkpt>
      <trkpt lat="46.26038" lon="-1.04035">
        <ele>3.2</ele>
        <time>2020-06-02T10:37:28Z</time>
      </trkpt>
      <trkpt lat="46.26043" lon="-1.04032">
        <ele>3.2</ele>
        <time>2020-06-02T10:37:29Z</time>
      </trkpt>
      <trkpt lat="46.26049" lon="-1.0403">
        <ele>3.3</ele>
        <time>2020-06-02T10:37:30Z</time>
      </trkpt>
      <trkpt lat="46.26055" lon="-1.04028">
        <ele>3.3</ele>
        <time>2020-06-02T10:37:31Z</time>
      </trkpt>
      <trkpt lat="46.2606" lon="-1.04026">
        <ele>3.3</ele>
        <time>2020-06-02T10:37:32Z</time>
      </trkpt>
      <trkpt lat="46.26065" lon="-1.04024">
        <ele>3.3</ele>
        <time>2020-06-02T10:37:33Z</time>
      </trkpt>
      <trkpt lat="46.26071" lon="-1.04022">
        <ele>3.3</ele>
        <time>2020-06-02T10:37:34Z</time>
      </trkpt>
      <trkpt lat="46.26076" lon="-1.04021">
        <ele>3.4</ele>
        <time>2020-06-02T10:37:35Z</time>
      </trkpt>
      <trkpt lat="46.26081" lon="-1.04019">
        <ele>3.4</ele>
        <time>2020-06-02T10:37:36Z</time>
      </trkpt>
      <trkpt lat="46.26086" lon="-1.04017">
        <ele>3.3</ele>
        <time>2020-06-02T10:37:37Z</time>
      </trkpt>
      <trkpt lat="46.26092" lon="-1.04014">
        <ele>3.3</ele>
        <time>2020-06-02T10:37:38Z</time>
      </trkpt>
      <trkpt lat="46.26097" lon="-1.04012">
        <ele>3.3</ele>
        <time>2020-06-02T10:37:39Z</time>
      </trkpt>
      <trkpt lat="46.26103" lon="-1.0401">
        <ele>3.3</ele>
        <time>2020-06-02T10:37:40Z</time>
      </trkpt>
      <trkpt lat="46.26107" lon="-1.04008">
        <ele>3.3</ele>
        <time>2020-06-02T10:37:41Z</time>
      </trkpt>
      <trkpt lat="46.26112" lon="-1.04005">
        <ele>3.3</ele>
        <time>2020-06-02T10:37:42Z</time>
      </trkpt>
      <trkpt lat="46.26117" lon="-1.04002">
        <ele>3.3</ele>
        <time>2020-06-02T10:37:43Z</time>
      </trkpt>
      <trkpt lat="46.26121" lon="-1.03999">
        <ele>3.3</ele>
        <time>2020-06-02T10:37:44Z</time>
      </trkpt>
      <trkpt lat="46.26127" lon="-1.03997">
        <ele>3.3</ele>
        <time>2020-06-02T10:37:45Z</time>
      </trkpt>
      <trkpt lat="46.26132" lon="-1.03996">
        <ele>3.2</ele>
        <time>2020-06-02T10:37:46Z</time>
      </trkpt>
      <trkpt lat="46.26136" lon="-1.03995">
        <ele>3.2</ele>
        <time>2020-06-02T10:37:47Z</time>
      </trkpt>
      <trkpt lat="46.26141" lon="-1.03994">
        <ele>3.2</ele>
        <time>2020-06-02T10:37:48Z</time>
      </trkpt>
      <trkpt lat="46.26147" lon="-1.03994">
        <ele>3.2</ele>
        <time>2020-06-02T10:37:49Z</time>
      </trkpt>
      <trkpt lat="46.26153" lon="-1.03993">
        <ele>3.1</ele>
        <time>2020-06-02T10:37:50Z</time>
      </trkpt>
      <trkpt lat="46.26159" lon="-1.03992">
        <ele>3.1</ele>
        <time>2020-06-02T10:37:51Z</time>
      </trkpt>
      <trkpt lat="46.26165" lon="-1.03991">
        <ele>3.1</ele>
        <time>2020-06-02T10:37:52Z</time>
      </trkpt>
      <trkpt lat="46.2617" lon="-1.03989">
        <ele>3</ele>
        <time>2020-06-02T10:37:53Z</time>
      </trkpt>
      <trkpt lat="46.26176" lon="-1.03987">
        <ele>3</ele>
        <time>2020-06-02T10:37:54Z</time>
      </trkpt>
      <trkpt lat="46.26182" lon="-1.03985">
        <ele>3</ele>
        <time>2020-06-02T10:37:55Z</time>
      </trkpt>
      <trkpt lat="46.26187" lon="-1.03983">
        <ele>3</ele>
        <time>2020-06-02T10:37:56Z</time>
      </trkpt>
      <trkpt lat="46.26193" lon="-1.03982">
        <ele>3</ele>
        <time>2020-06-02T10:37:57Z</time>
      </trkpt>
      <trkpt lat="46.26198" lon="-1.0398">
        <ele>3</ele>
        <time>2020-06-02T10:37:58Z</time>
      </trkpt>
      <trkpt lat="46.26203" lon="-1.03978">
        <ele>3</ele>
        <time>2020-06-02T10:37:59Z</time>
      </trkpt>
      <trkpt lat="46.26208" lon="-1.03976">
        <ele>3</ele>
        <time>2020-06-02T10:38:00Z</time>
      </trkpt>
      <trkpt lat="46.26214" lon="-1.03974">
        <ele>3</ele>
        <time>2020-06-02T10:38:01Z</time>
      </trkpt>
      <trkpt lat="46.26219" lon="-1.03973">
        <ele>3</ele>
        <time>2020-06-02T10:38:02Z</time>
      </trkpt>
      <trkpt lat="46.26224" lon="-1.03971">
        <ele>2.9</ele>
        <time>2020-06-02T10:38:03Z</time>
      </trkpt>
      <trkpt lat="46.2623" lon="-1.03969">
        <ele>2.9</ele>
        <time>2020-06-02T10:38:04Z</time>
      </trkpt>
      <trkpt lat="46.26237" lon="-1.03967">
        <ele>2.9</ele>
        <time>2020-06-02T10:38:05Z</time>
      </trkpt>
      <trkpt lat="46.26243" lon="-1.03965">
        <ele>2.9</ele>
        <time>2020-06-02T10:38:06Z</time>
      </trkpt>
      <trkpt lat="46.26249" lon="-1.03964">
        <ele>2.9</ele>
        <time>2020-06-02T10:38:07Z</time>
      </trkpt>
      <trkpt lat="46.26254" lon="-1.03961">
        <ele>2.9</ele>
        <time>2020-06-02T10:38:08Z</time>
      </trkpt>
      <trkpt lat="46.2626" lon="-1.03959">
        <ele>2.9</ele>
        <time>2020-06-02T10:38:09Z</time>
      </trkpt>
      <trkpt lat="46.26264" lon="-1.03957">
        <ele>3</ele>
        <time>2020-06-02T10:38:10Z</time>
      </trkpt>
      <trkpt lat="46.26269" lon="-1.03956">
        <ele>3</ele>
        <time>2020-06-02T10:38:11Z</time>
      </trkpt>
      <trkpt lat="46.26275" lon="-1.03954">
        <ele>3</ele>
        <time>2020-06-02T10:38:12Z</time>
      </trkpt>
      <trkpt lat="46.2628" lon="-1.03953">
        <ele>3</ele>
        <time>2020-06-02T10:38:13Z</time>
      </trkpt>
      <trkpt lat="46.26286" lon="-1.0395">
        <ele>3</ele>
        <time>2020-06-02T10:38:14Z</time>
      </trkpt>
      <trkpt lat="46.26291" lon="-1.03949">
        <ele>3</ele>
        <time>2020-06-02T10:38:15Z</time>
      </trkpt>
      <trkpt lat="46.26298" lon="-1.03947">
        <ele>3</ele>
        <time>2020-06-02T10:38:16Z</time>
      </trkpt>
      <trkpt lat="46.26303" lon="-1.03945">
        <ele>3</ele>
        <time>2020-06-02T10:38:17Z</time>
      </trkpt>
      <trkpt lat="46.26309" lon="-1.03942">
        <ele>3</ele>
        <time>2020-06-02T10:38:18Z</time>
      </trkpt>
      <trkpt lat="46.26314" lon="-1.03939">
        <ele>3</ele>
        <time>2020-06-02T10:38:19Z</time>
      </trkpt>
      <trkpt lat="46.26318" lon="-1.03938">
        <ele>2.9</ele>
        <time>2020-06-02T10:38:20Z</time>
      </trkpt>
      <trkpt lat="46.26323" lon="-1.03936">
        <ele>2.9</ele>
        <time>2020-06-02T10:38:21Z</time>
      </trkpt>
      <trkpt lat="46.26328" lon="-1.03934">
        <ele>2.9</ele>
        <time>2020-06-02T10:38:22Z</time>
      </trkpt>
      <trkpt lat="46.26333" lon="-1.03932">
        <ele>2.9</ele>
        <time>2020-06-02T10:38:23Z</time>
      </trkpt>
      <trkpt lat="46.2634" lon="-1.0393">
        <ele>2.9</ele>
        <time>2020-06-02T10:38:24Z</time>
      </trkpt>
      <trkpt lat="46.26346" lon="-1.03927">
        <ele>2.9</ele>
        <time>2020-06-02T10:38:25Z</time>
      </trkpt>
      <trkpt lat="46.26352" lon="-1.03925">
        <ele>2.9</ele>
        <time>2020-06-02T10:38:26Z</time>
      </trkpt>
      <trkpt lat="46.26358" lon="-1.03923">
        <ele>2.9</ele>
        <time>2020-06-02T10:38:27Z</time>
      </trkpt>
      <trkpt lat="46.26361" lon="-1.03921">
        <ele>2.9</ele>
        <time>2020-06-02T10:38:28Z</time>
      </trkpt>
      <trkpt lat="46.26366" lon="-1.03919">
        <ele>2.9</ele>
        <time>2020-06-02T10:38:29Z</time>
      </trkpt>
      <trkpt lat="46.26372" lon="-1.03916">
        <ele>2.9</ele>
        <time>2020-06-02T10:38:30Z</time>
      </trkpt>
      <trkpt lat="46.26378" lon="-1.03915">
        <ele>2.9</ele>
        <time>2020-06-02T10:38:31Z</time>
      </trkpt>
      <trkpt lat="46.26383" lon="-1.03913">
        <ele>2.9</ele>
        <time>2020-06-02T10:38:32Z</time>
      </trkpt>
      <trkpt lat="46.26389" lon="-1.0391">
        <ele>3</ele>
        <time>2020-06-02T10:38:33Z</time>
      </trkpt>
      <trkpt lat="46.26395" lon="-1.03907">
        <ele>3</ele>
        <time>2020-06-02T10:38:34Z</time>
      </trkpt>
      <trkpt lat="46.264" lon="-1.03905">
        <ele>3</ele>
        <time>2020-06-02T10:38:35Z</time>
      </trkpt>
      <trkpt lat="46.26406" lon="-1.03903">
        <ele>3</ele>
        <time>2020-06-02T10:38:36Z</time>
      </trkpt>
      <trkpt lat="46.26412" lon="-1.03901">
        <ele>3</ele>
        <time>2020-06-02T10:38:37Z</time>
      </trkpt>
      <trkpt lat="46.26417" lon="-1.03899">
        <ele>3</ele>
        <time>2020-06-02T10:38:38Z</time>
      </trkpt>
      <trkpt lat="46.26423" lon="-1.03897">
        <ele>3</ele>
        <time>2020-06-02T10:38:39Z</time>
      </trkpt>
      <trkpt lat="46.26428" lon="-1.03895">
        <ele>3</ele>
        <time>2020-06-02T10:38:40Z</time>
      </trkpt>
      <trkpt lat="46.26435" lon="-1.03892">
        <ele>3</ele>
        <time>2020-06-02T10:38:41Z</time>
      </trkpt>
      <trkpt lat="46.2644" lon="-1.0389">
        <ele>3</ele>
        <time>2020-06-02T10:38:42Z</time>
      </trkpt>
      <trkpt lat="46.26446" lon="-1.03888">
        <ele>3</ele>
        <time>2020-06-02T10:38:43Z</time>
      </trkpt>
      <trkpt lat="46.26452" lon="-1.03885">
        <ele>3</ele>
        <time>2020-06-02T10:38:44Z</time>
      </trkpt>
      <trkpt lat="46.26458" lon="-1.03883">
        <ele>3</ele>
        <time>2020-06-02T10:38:45Z</time>
      </trkpt>
      <trkpt lat="46.26464" lon="-1.03881">
        <ele>3</ele>
        <time>2020-06-02T10:38:46Z</time>
      </trkpt>
      <trkpt lat="46.26468" lon="-1.03879">
        <ele>3</ele>
        <time>2020-06-02T10:38:47Z</time>
      </trkpt>
      <trkpt lat="46.26473" lon="-1.03877">
        <ele>3</ele>
        <time>2020-06-02T10:38:48Z</time>
      </trkpt>
      <trkpt lat="46.26479" lon="-1.03875">
        <ele>3</ele>
        <time>2020-06-02T10:38:49Z</time>
      </trkpt>
      <trkpt lat="46.26483" lon="-1.03873">
        <ele>3</ele>
        <time>2020-06-02T10:38:50Z</time>
      </trkpt>
      <trkpt lat="46.26489" lon="-1.03871">
        <ele>3</ele>
        <time>2020-06-02T10:38:51Z</time>
      </trkpt>
      <trkpt lat="46.26494" lon="-1.03868">
        <ele>3</ele>
        <time>2020-06-02T10:38:52Z</time>
      </trkpt>
      <trkpt lat="46.26499" lon="-1.03866">
        <ele>3</ele>
        <time>2020-06-02T10:38:53Z</time>
      </trkpt>
      <trkpt lat="46.26503" lon="-1.03865">
        <ele>3</ele>
        <time>2020-06-02T10:38:54Z</time>
      </trkpt>
      <trkpt lat="46.26508" lon="-1.03863">
        <ele>3</ele>
        <time>2020-06-02T10:38:55Z</time>
      </trkpt>
      <trkpt lat="46.26514" lon="-1.0386">
        <ele>3</ele>
        <time>2020-06-02T10:38:56Z</time>
      </trkpt>
      <trkpt lat="46.26519" lon="-1.03858">
        <ele>3</ele>
        <time>2020-06-02T10:38:57Z</time>
      </trkpt>
      <trkpt lat="46.26525" lon="-1.03856">
        <ele>3</ele>
        <time>2020-06-02T10:38:58Z</time>
      </trkpt>
      <trkpt lat="46.2653" lon="-1.03854">
        <ele>3</ele>
        <time>2020-06-02T10:38:59Z</time>
      </trkpt>
      <trkpt lat="46.26536" lon="-1.03852">
        <ele>3</ele>
        <time>2020-06-02T10:39:00Z</time>
      </trkpt>
      <trkpt lat="46.26542" lon="-1.03849">
        <ele>3</ele>
        <time>2020-06-02T10:39:01Z</time>
      </trkpt>
      <trkpt lat="46.26548" lon="-1.03847">
        <ele>2.9</ele>
        <time>2020-06-02T10:39:02Z</time>
      </trkpt>
      <trkpt lat="46.26554" lon="-1.03845">
        <ele>2.9</ele>
        <time>2020-06-02T10:39:03Z</time>
      </trkpt>
      <trkpt lat="46.26559" lon="-1.03843">
        <ele>2.9</ele>
        <time>2020-06-02T10:39:04Z</time>
      </trkpt>
      <trkpt lat="46.26564" lon="-1.03841">
        <ele>2.9</ele>
        <time>2020-06-02T10:39:05Z</time>
      </trkpt>
      <trkpt lat="46.2657" lon="-1.03838">
        <ele>2.9</ele>
        <time>2020-06-02T10:39:06Z</time>
      </trkpt>
      <trkpt lat="46.26575" lon="-1.03836">
        <ele>2.9</ele>
        <time>2020-06-02T10:39:07Z</time>
      </trkpt>
      <trkpt lat="46.2658" lon="-1.03834">
        <ele>2.9</ele>
        <time>2020-06-02T10:39:08Z</time>
      </trkpt>
      <trkpt lat="46.26585" lon="-1.03832">
        <ele>2.9</ele>
        <time>2020-06-02T10:39:09Z</time>
      </trkpt>
      <trkpt lat="46.2659" lon="-1.0383">
        <ele>2.9</ele>
        <time>2020-06-02T10:39:10Z</time>
      </trkpt>
      <trkpt lat="46.26595" lon="-1.03829">
        <ele>2.9</ele>
        <time>2020-06-02T10:39:11Z</time>
      </trkpt>
      <trkpt lat="46.266" lon="-1.03827">
        <ele>2.9</ele>
        <time>2020-06-02T10:39:12Z</time>
      </trkpt>
      <trkpt lat="46.26607" lon="-1.03826">
        <ele>2.9</ele>
        <time>2020-06-02T10:39:13Z</time>
      </trkpt>
      <trkpt lat="46.26613" lon="-1.03824">
        <ele>2.9</ele>
        <time>2020-06-02T10:39:14Z</time>
      </trkpt>
      <trkpt lat="46.26619" lon="-1.03822">
        <ele>2.9</ele>
        <time>2020-06-02T10:39:15Z</time>
      </trkpt>
      <trkpt lat="46.26625" lon="-1.0382">
        <ele>2.9</ele>
        <time>2020-06-02T10:39:16Z</time>
      </trkpt>
      <trkpt lat="46.26631" lon="-1.03818">
        <ele>2.8</ele>
        <time>2020-06-02T10:39:17Z</time>
      </trkpt>
      <trkpt lat="46.26637" lon="-1.03816">
        <ele>2.8</ele>
        <time>2020-06-02T10:39:18Z</time>
      </trkpt>
      <trkpt lat="46.26642" lon="-1.03814">
        <ele>2.8</ele>
        <time>2020-06-02T10:39:19Z</time>
      </trkpt>
      <trkpt lat="46.26648" lon="-1.03812">
        <ele>2.7</ele>
        <time>2020-06-02T10:39:20Z</time>
      </trkpt>
      <trkpt lat="46.26653" lon="-1.0381">
        <ele>2.7</ele>
        <time>2020-06-02T10:39:21Z</time>
      </trkpt>
      <trkpt lat="46.26658" lon="-1.03808">
        <ele>2.7</ele>
        <time>2020-06-02T10:39:22Z</time>
      </trkpt>
      <trkpt lat="46.26661" lon="-1.03805">
        <ele>2.7</ele>
        <time>2020-06-02T10:39:23Z</time>
      </trkpt>
      <trkpt lat="46.26664" lon="-1.03803">
        <ele>2.8</ele>
        <time>2020-06-02T10:39:24Z</time>
      </trkpt>
      <trkpt lat="46.26669" lon="-1.03799">
        <ele>2.8</ele>
        <time>2020-06-02T10:39:25Z</time>
      </trkpt>
      <trkpt lat="46.26674" lon="-1.03797">
        <ele>3</ele>
        <time>2020-06-02T10:39:26Z</time>
      </trkpt>
      <trkpt lat="46.26678" lon="-1.03795">
        <ele>3.1</ele>
        <time>2020-06-02T10:39:27Z</time>
      </trkpt>
      <trkpt lat="46.26682" lon="-1.03794">
        <ele>3.2</ele>
        <time>2020-06-02T10:39:28Z</time>
      </trkpt>
      <trkpt lat="46.26686" lon="-1.03794">
        <ele>3.3</ele>
        <time>2020-06-02T10:39:29Z</time>
      </trkpt>
      <trkpt lat="46.26691" lon="-1.03795">
        <ele>3.3</ele>
        <time>2020-06-02T10:39:30Z</time>
      </trkpt>
      <trkpt lat="46.26697" lon="-1.03797">
        <ele>3.3</ele>
        <time>2020-06-02T10:39:31Z</time>
      </trkpt>
      <trkpt lat="46.26701" lon="-1.03797">
        <ele>3.3</ele>
        <time>2020-06-02T10:39:32Z</time>
      </trkpt>
      <trkpt lat="46.26707" lon="-1.03796">
        <ele>3.3</ele>
        <time>2020-06-02T10:39:33Z</time>
      </trkpt>
      <trkpt lat="46.26712" lon="-1.03794">
        <ele>3.3</ele>
        <time>2020-06-02T10:39:34Z</time>
      </trkpt>
      <trkpt lat="46.26717" lon="-1.03792">
        <ele>3.3</ele>
        <time>2020-06-02T10:39:35Z</time>
      </trkpt>
      <trkpt lat="46.26722" lon="-1.0379">
        <ele>3.3</ele>
        <time>2020-06-02T10:39:36Z</time>
      </trkpt>
      <trkpt lat="46.26727" lon="-1.03788">
        <ele>3.3</ele>
        <time>2020-06-02T10:39:37Z</time>
      </trkpt>
      <trkpt lat="46.26732" lon="-1.03786">
        <ele>3.3</ele>
        <time>2020-06-02T10:39:38Z</time>
      </trkpt>
      <trkpt lat="46.26737" lon="-1.03784">
        <ele>3.3</ele>
        <time>2020-06-02T10:39:39Z</time>
      </trkpt>
      <trkpt lat="46.26743" lon="-1.03781">
        <ele>3.3</ele>
        <time>2020-06-02T10:39:40Z</time>
      </trkpt>
      <trkpt lat="46.26749" lon="-1.03779">
        <ele>3.3</ele>
        <time>2020-06-02T10:39:41Z</time>
      </trkpt>
      <trkpt lat="46.26752" lon="-1.03777">
        <ele>3.3</ele>
        <time>2020-06-02T10:39:42Z</time>
      </trkpt>
      <trkpt lat="46.26757" lon="-1.03775">
        <ele>3.3</ele>
        <time>2020-06-02T10:39:43Z</time>
      </trkpt>
      <trkpt lat="46.26762" lon="-1.03773">
        <ele>3.3</ele>
        <time>2020-06-02T10:39:44Z</time>
      </trkpt>
      <trkpt lat="46.26768" lon="-1.0377">
        <ele>3.3</ele>
        <time>2020-06-02T10:39:45Z</time>
      </trkpt>
      <trkpt lat="46.26774" lon="-1.03767">
        <ele>3.3</ele>
        <time>2020-06-02T10:39:46Z</time>
      </trkpt>
      <trkpt lat="46.2678" lon="-1.03764">
        <ele>3.3</ele>
        <time>2020-06-02T10:39:47Z</time>
      </trkpt>
      <trkpt lat="46.26786" lon="-1.03762">
        <ele>3.3</ele>
        <time>2020-06-02T10:39:48Z</time>
      </trkpt>
      <trkpt lat="46.26791" lon="-1.03761">
        <ele>3.3</ele>
        <time>2020-06-02T10:39:49Z</time>
      </trkpt>
      <trkpt lat="46.26797" lon="-1.03759">
        <ele>3.3</ele>
        <time>2020-06-02T10:39:50Z</time>
      </trkpt>
      <trkpt lat="46.26802" lon="-1.03757">
        <ele>3.3</ele>
        <time>2020-06-02T10:39:51Z</time>
      </trkpt>
      <trkpt lat="46.26807" lon="-1.03754">
        <ele>3.3</ele>
        <time>2020-06-02T10:39:52Z</time>
      </trkpt>
      <trkpt lat="46.26813" lon="-1.03752">
        <ele>3.3</ele>
        <time>2020-06-02T10:39:53Z</time>
      </trkpt>
      <trkpt lat="46.26818" lon="-1.0375">
        <ele>3.3</ele>
        <time>2020-06-02T10:39:54Z</time>
      </trkpt>
      <trkpt lat="46.26823" lon="-1.03748">
        <ele>3.3</ele>
        <time>2020-06-02T10:39:55Z</time>
      </trkpt>
      <trkpt lat="46.26828" lon="-1.03746">
        <ele>3.3</ele>
        <time>2020-06-02T10:39:56Z</time>
      </trkpt>
      <trkpt lat="46.26833" lon="-1.03744">
        <ele>3.3</ele>
        <time>2020-06-02T10:39:57Z</time>
      </trkpt>
      <trkpt lat="46.2684" lon="-1.03742">
        <ele>3.3</ele>
        <time>2020-06-02T10:39:58Z</time>
      </trkpt>
      <trkpt lat="46.26845" lon="-1.03739">
        <ele>3.3</ele>
        <time>2020-06-02T10:39:59Z</time>
      </trkpt>
      <trkpt lat="46.26851" lon="-1.03737">
        <ele>3.3</ele>
        <time>2020-06-02T10:40:00Z</time>
      </trkpt>
      <trkpt lat="46.26857" lon="-1.03735">
        <ele>3.3</ele>
        <time>2020-06-02T10:40:01Z</time>
      </trkpt>
      <trkpt lat="46.26862" lon="-1.03733">
        <ele>3.3</ele>
        <time>2020-06-02T10:40:02Z</time>
      </trkpt>
      <trkpt lat="46.26868" lon="-1.0373">
        <ele>3.3</ele>
        <time>2020-06-02T10:40:03Z</time>
      </trkpt>
      <trkpt lat="46.26874" lon="-1.03728">
        <ele>3.3</ele>
        <time>2020-06-02T10:40:04Z</time>
      </trkpt>
      <trkpt lat="46.26879" lon="-1.03726">
        <ele>3.3</ele>
        <time>2020-06-02T10:40:05Z</time>
      </trkpt>
      <trkpt lat="46.26885" lon="-1.03724">
        <ele>3.3</ele>
        <time>2020-06-02T10:40:06Z</time>
      </trkpt>
      <trkpt lat="46.26891" lon="-1.03721">
        <ele>3.3</ele>
        <time>2020-06-02T10:40:07Z</time>
      </trkpt>
      <trkpt lat="46.26897" lon="-1.03719">
        <ele>3.3</ele>
        <time>2020-06-02T10:40:08Z</time>
      </trkpt>
      <trkpt lat="46.26903" lon="-1.03717">
        <ele>3.3</ele>
        <time>2020-06-02T10:40:09Z</time>
      </trkpt>
      <trkpt lat="46.26908" lon="-1.03715">
        <ele>3.3</ele>
        <time>2020-06-02T10:40:10Z</time>
      </trkpt>
      <trkpt lat="46.26913" lon="-1.03713">
        <ele>3.3</ele>
        <time>2020-06-02T10:40:11Z</time>
      </trkpt>
      <trkpt lat="46.26918" lon="-1.03711">
        <ele>3.3</ele>
        <time>2020-06-02T10:40:12Z</time>
      </trkpt>
      <trkpt lat="46.26923" lon="-1.03709">
        <ele>3.3</ele>
        <time>2020-06-02T10:40:13Z</time>
      </trkpt>
      <trkpt lat="46.26928" lon="-1.03707">
        <ele>3.3</ele>
        <time>2020-06-02T10:40:14Z</time>
      </trkpt>
      <trkpt lat="46.26933" lon="-1.03705">
        <ele>3.3</ele>
        <time>2020-06-02T10:40:15Z</time>
      </trkpt>
      <trkpt lat="46.26938" lon="-1.03703">
        <ele>3.3</ele>
        <time>2020-06-02T10:40:16Z</time>
      </trkpt>
      <trkpt lat="46.26942" lon="-1.03701">
        <ele>3.3</ele>
        <time>2020-06-02T10:40:17Z</time>
      </trkpt>
      <trkpt lat="46.26948" lon="-1.03699">
        <ele>3.3</ele>
        <time>2020-06-02T10:40:18Z</time>
      </trkpt>
      <trkpt lat="46.26954" lon="-1.03696">
        <ele>3.3</ele>
        <time>2020-06-02T10:40:19Z</time>
      </trkpt>
      <trkpt lat="46.2696" lon="-1.03694">
        <ele>3.3</ele>
        <time>2020-06-02T10:40:20Z</time>
      </trkpt>
      <trkpt lat="46.26965" lon="-1.03693">
        <ele>3.3</ele>
        <time>2020-06-02T10:40:21Z</time>
      </trkpt>
      <trkpt lat="46.2697" lon="-1.0369">
        <ele>3.3</ele>
        <time>2020-06-02T10:40:22Z</time>
      </trkpt>
      <trkpt lat="46.26975" lon="-1.03689">
        <ele>3.3</ele>
        <time>2020-06-02T10:40:23Z</time>
      </trkpt>
      <trkpt lat="46.26979" lon="-1.03687">
        <ele>3.3</ele>
        <time>2020-06-02T10:40:24Z</time>
      </trkpt>
      <trkpt lat="46.26984" lon="-1.03686">
        <ele>3.3</ele>
        <time>2020-06-02T10:40:25Z</time>
      </trkpt>
      <trkpt lat="46.26989" lon="-1.03684">
        <ele>3.3</ele>
        <time>2020-06-02T10:40:26Z</time>
      </trkpt>
      <trkpt lat="46.26994" lon="-1.03682">
        <ele>3.3</ele>
        <time>2020-06-02T10:40:27Z</time>
      </trkpt>
      <trkpt lat="46.26999" lon="-1.0368">
        <ele>3.4</ele>
        <time>2020-06-02T10:40:28Z</time>
      </trkpt>
      <trkpt lat="46.27004" lon="-1.03678">
        <ele>3.4</ele>
        <time>2020-06-02T10:40:29Z</time>
      </trkpt>
      <trkpt lat="46.27009" lon="-1.03677">
        <ele>3.4</ele>
        <time>2020-06-02T10:40:30Z</time>
      </trkpt>
      <trkpt lat="46.27014" lon="-1.03675">
        <ele>3.4</ele>
        <time>2020-06-02T10:40:31Z</time>
      </trkpt>
      <trkpt lat="46.27019" lon="-1.03673">
        <ele>3.4</ele>
        <time>2020-06-02T10:40:32Z</time>
      </trkpt>
      <trkpt lat="46.27025" lon="-1.03671">
        <ele>3.4</ele>
        <time>2020-06-02T10:40:33Z</time>
      </trkpt>
      <trkpt lat="46.27031" lon="-1.0367">
        <ele>3.3</ele>
        <time>2020-06-02T10:40:34Z</time>
      </trkpt>
      <trkpt lat="46.27037" lon="-1.03667">
        <ele>3.3</ele>
        <time>2020-06-02T10:40:35Z</time>
      </trkpt>
      <trkpt lat="46.27042" lon="-1.03665">
        <ele>3.3</ele>
        <time>2020-06-02T10:40:36Z</time>
      </trkpt>
      <trkpt lat="46.27047" lon="-1.03664">
        <ele>3.3</ele>
        <time>2020-06-02T10:40:37Z</time>
      </trkpt>
      <trkpt lat="46.27052" lon="-1.03662">
        <ele>3.3</ele>
        <time>2020-06-02T10:40:38Z</time>
      </trkpt>
      <trkpt lat="46.27057" lon="-1.0366">
        <ele>3.3</ele>
        <time>2020-06-02T10:40:39Z</time>
      </trkpt>
      <trkpt lat="46.27062" lon="-1.03658">
        <ele>3.3</ele>
        <time>2020-06-02T10:40:40Z</time>
      </trkpt>
      <trkpt lat="46.27067" lon="-1.03657">
        <ele>3.3</ele>
        <time>2020-06-02T10:40:41Z</time>
      </trkpt>
      <trkpt lat="46.27073" lon="-1.03655">
        <ele>3.3</ele>
        <time>2020-06-02T10:40:42Z</time>
      </trkpt>
      <trkpt lat="46.27079" lon="-1.03652">
        <ele>3.3</ele>
        <time>2020-06-02T10:40:43Z</time>
      </trkpt>
      <trkpt lat="46.27084" lon="-1.0365">
        <ele>3.3</ele>
        <time>2020-06-02T10:40:44Z</time>
      </trkpt>
      <trkpt lat="46.27089" lon="-1.03649">
        <ele>3.3</ele>
        <time>2020-06-02T10:40:45Z</time>
      </trkpt>
      <trkpt lat="46.27094" lon="-1.03647">
        <ele>3.3</ele>
        <time>2020-06-02T10:40:46Z</time>
      </trkpt>
      <trkpt lat="46.271" lon="-1.03645">
        <ele>3.3</ele>
        <time>2020-06-02T10:40:47Z</time>
      </trkpt>
      <trkpt lat="46.27106" lon="-1.03642">
        <ele>3.3</ele>
        <time>2020-06-02T10:40:48Z</time>
      </trkpt>
      <trkpt lat="46.27112" lon="-1.0364">
        <ele>3.3</ele>
        <time>2020-06-02T10:40:49Z</time>
      </trkpt>
      <trkpt lat="46.27117" lon="-1.03639">
        <ele>3.3</ele>
        <time>2020-06-02T10:40:50Z</time>
      </trkpt>
      <trkpt lat="46.27123" lon="-1.03637">
        <ele>3.2</ele>
        <time>2020-06-02T10:40:51Z</time>
      </trkpt>
      <trkpt lat="46.27127" lon="-1.03635">
        <ele>3.2</ele>
        <time>2020-06-02T10:40:52Z</time>
      </trkpt>
      <trkpt lat="46.27132" lon="-1.03634">
        <ele>3.2</ele>
        <time>2020-06-02T10:40:53Z</time>
      </trkpt>
      <trkpt lat="46.27137" lon="-1.03632">
        <ele>3.2</ele>
        <time>2020-06-02T10:40:54Z</time>
      </trkpt>
      <trkpt lat="46.27143" lon="-1.0363">
        <ele>3.2</ele>
        <time>2020-06-02T10:40:55Z</time>
      </trkpt>
      <trkpt lat="46.27148" lon="-1.03628">
        <ele>3.2</ele>
        <time>2020-06-02T10:40:56Z</time>
      </trkpt>
      <trkpt lat="46.27154" lon="-1.03626">
        <ele>3.2</ele>
        <time>2020-06-02T10:40:57Z</time>
      </trkpt>
      <trkpt lat="46.27157" lon="-1.03624">
        <ele>3.2</ele>
        <time>2020-06-02T10:40:58Z</time>
      </trkpt>
      <trkpt lat="46.27163" lon="-1.03622">
        <ele>3.3</ele>
        <time>2020-06-02T10:40:59Z</time>
      </trkpt>
      <trkpt lat="46.27169" lon="-1.0362">
        <ele>3.3</ele>
        <time>2020-06-02T10:41:00Z</time>
      </trkpt>
      <trkpt lat="46.27175" lon="-1.03619">
        <ele>3.3</ele>
        <time>2020-06-02T10:41:01Z</time>
      </trkpt>
      <trkpt lat="46.27181" lon="-1.03616">
        <ele>3.3</ele>
        <time>2020-06-02T10:41:02Z</time>
      </trkpt>
      <trkpt lat="46.27187" lon="-1.03614">
        <ele>3.3</ele>
        <time>2020-06-02T10:41:03Z</time>
      </trkpt>
      <trkpt lat="46.27192" lon="-1.03612">
        <ele>3.3</ele>
        <time>2020-06-02T10:41:04Z</time>
      </trkpt>
      <trkpt lat="46.27197" lon="-1.0361">
        <ele>3.3</ele>
        <time>2020-06-02T10:41:05Z</time>
      </trkpt>
      <trkpt lat="46.27202" lon="-1.03608">
        <ele>3.3</ele>
        <time>2020-06-02T10:41:06Z</time>
      </trkpt>
      <trkpt lat="46.27208" lon="-1.03605">
        <ele>3.3</ele>
        <time>2020-06-02T10:41:07Z</time>
      </trkpt>
      <trkpt lat="46.27213" lon="-1.03603">
        <ele>3.3</ele>
        <time>2020-06-02T10:41:08Z</time>
      </trkpt>
      <trkpt lat="46.2722" lon="-1.03601">
        <ele>3.3</ele>
        <time>2020-06-02T10:41:09Z</time>
      </trkpt>
      <trkpt lat="46.27225" lon="-1.03599">
        <ele>3.3</ele>
        <time>2020-06-02T10:41:10Z</time>
      </trkpt>
      <trkpt lat="46.27231" lon="-1.03598">
        <ele>3.3</ele>
        <time>2020-06-02T10:41:11Z</time>
      </trkpt>
      <trkpt lat="46.27236" lon="-1.03595">
        <ele>3.4</ele>
        <time>2020-06-02T10:41:12Z</time>
      </trkpt>
      <trkpt lat="46.27241" lon="-1.03593">
        <ele>3.4</ele>
        <time>2020-06-02T10:41:13Z</time>
      </trkpt>
      <trkpt lat="46.27246" lon="-1.03591">
        <ele>3.4</ele>
        <time>2020-06-02T10:41:14Z</time>
      </trkpt>
      <trkpt lat="46.27251" lon="-1.0359">
        <ele>3.4</ele>
        <time>2020-06-02T10:41:15Z</time>
      </trkpt>
      <trkpt lat="46.27257" lon="-1.03588">
        <ele>3.4</ele>
        <time>2020-06-02T10:41:16Z</time>
      </trkpt>
      <trkpt lat="46.27263" lon="-1.03586">
        <ele>3.4</ele>
        <time>2020-06-02T10:41:17Z</time>
      </trkpt>
      <trkpt lat="46.27269" lon="-1.03584">
        <ele>3.4</ele>
        <time>2020-06-02T10:41:18Z</time>
      </trkpt>
      <trkpt lat="46.27275" lon="-1.03581">
        <ele>3.4</ele>
        <time>2020-06-02T10:41:19Z</time>
      </trkpt>
      <trkpt lat="46.2728" lon="-1.03579">
        <ele>3.4</ele>
        <time>2020-06-02T10:41:20Z</time>
      </trkpt>
      <trkpt lat="46.27286" lon="-1.03577">
        <ele>3.4</ele>
        <time>2020-06-02T10:41:21Z</time>
      </trkpt>
      <trkpt lat="46.27291" lon="-1.03575">
        <ele>3.4</ele>
        <time>2020-06-02T10:41:22Z</time>
      </trkpt>
      <trkpt lat="46.27297" lon="-1.03573">
        <ele>3.4</ele>
        <time>2020-06-02T10:41:23Z</time>
      </trkpt>
      <trkpt lat="46.27303" lon="-1.03571">
        <ele>3.4</ele>
        <time>2020-06-02T10:41:24Z</time>
      </trkpt>
      <trkpt lat="46.27309" lon="-1.03569">
        <ele>3.4</ele>
        <time>2020-06-02T10:41:25Z</time>
      </trkpt>
      <trkpt lat="46.27314" lon="-1.03566">
        <ele>3.4</ele>
        <time>2020-06-02T10:41:26Z</time>
      </trkpt>
      <trkpt lat="46.27321" lon="-1.03564">
        <ele>3.4</ele>
        <time>2020-06-02T10:41:27Z</time>
      </trkpt>
      <trkpt lat="46.27327" lon="-1.03562">
        <ele>3.4</ele>
        <time>2020-06-02T10:41:28Z</time>
      </trkpt>
      <trkpt lat="46.27332" lon="-1.0356">
        <ele>3.4</ele>
        <time>2020-06-02T10:41:29Z</time>
      </trkpt>
      <trkpt lat="46.27337" lon="-1.03558">
        <ele>3.4</ele>
        <time>2020-06-02T10:41:30Z</time>
      </trkpt>
      <trkpt lat="46.27343" lon="-1.03557">
        <ele>3.4</ele>
        <time>2020-06-02T10:41:31Z</time>
      </trkpt>
      <trkpt lat="46.27349" lon="-1.03554">
        <ele>3.4</ele>
        <time>2020-06-02T10:41:32Z</time>
      </trkpt>
      <trkpt lat="46.27354" lon="-1.03552">
        <ele>3.4</ele>
        <time>2020-06-02T10:41:33Z</time>
      </trkpt>
      <trkpt lat="46.2736" lon="-1.0355">
        <ele>3.5</ele>
        <time>2020-06-02T10:41:34Z</time>
      </trkpt>
      <trkpt lat="46.27365" lon="-1.03548">
        <ele>3.5</ele>
        <time>2020-06-02T10:41:35Z</time>
      </trkpt>
      <trkpt lat="46.27371" lon="-1.03546">
        <ele>3.5</ele>
        <time>2020-06-02T10:41:36Z</time>
      </trkpt>
      <trkpt lat="46.27377" lon="-1.03544">
        <ele>3.5</ele>
        <time>2020-06-02T10:41:37Z</time>
      </trkpt>
      <trkpt lat="46.27382" lon="-1.03542">
        <ele>3.5</ele>
        <time>2020-06-02T10:41:38Z</time>
      </trkpt>
      <trkpt lat="46.27387" lon="-1.0354">
        <ele>3.5</ele>
        <time>2020-06-02T10:41:39Z</time>
      </trkpt>
      <trkpt lat="46.27393" lon="-1.03538">
        <ele>3.5</ele>
        <time>2020-06-02T10:41:40Z</time>
      </trkpt>
      <trkpt lat="46.27398" lon="-1.03536">
        <ele>3.5</ele>
        <time>2020-06-02T10:41:41Z</time>
      </trkpt>
      <trkpt lat="46.27403" lon="-1.03534">
        <ele>3.5</ele>
        <time>2020-06-02T10:41:42Z</time>
      </trkpt>
      <trkpt lat="46.27409" lon="-1.03531">
        <ele>3.5</ele>
        <time>2020-06-02T10:41:43Z</time>
      </trkpt>
      <trkpt lat="46.27415" lon="-1.03529">
        <ele>3.5</ele>
        <time>2020-06-02T10:41:44Z</time>
      </trkpt>
      <trkpt lat="46.27422" lon="-1.03528">
        <ele>3.5</ele>
        <time>2020-06-02T10:41:45Z</time>
      </trkpt>
      <trkpt lat="46.27427" lon="-1.03526">
        <ele>3.5</ele>
        <time>2020-06-02T10:41:46Z</time>
      </trkpt>
      <trkpt lat="46.27433" lon="-1.03524">
        <ele>3.5</ele>
        <time>2020-06-02T10:41:47Z</time>
      </trkpt>
      <trkpt lat="46.27439" lon="-1.03522">
        <ele>3.5</ele>
        <time>2020-06-02T10:41:48Z</time>
      </trkpt>
      <trkpt lat="46.27444" lon="-1.0352">
        <ele>3.5</ele>
        <time>2020-06-02T10:41:49Z</time>
      </trkpt>
      <trkpt lat="46.27449" lon="-1.03518">
        <ele>3.5</ele>
        <time>2020-06-02T10:41:50Z</time>
      </trkpt>
      <trkpt lat="46.27455" lon="-1.03516">
        <ele>3.5</ele>
        <time>2020-06-02T10:41:51Z</time>
      </trkpt>
      <trkpt lat="46.27461" lon="-1.03514">
        <ele>3.5</ele>
        <time>2020-06-02T10:41:52Z</time>
      </trkpt>
      <trkpt lat="46.27466" lon="-1.03512">
        <ele>3.5</ele>
        <time>2020-06-02T10:41:53Z</time>
      </trkpt>
      <trkpt lat="46.27472" lon="-1.03511">
        <ele>3.5</ele>
        <time>2020-06-02T10:41:54Z</time>
      </trkpt>
      <trkpt lat="46.27477" lon="-1.03509">
        <ele>3.5</ele>
        <time>2020-06-02T10:41:55Z</time>
      </trkpt>
      <trkpt lat="46.27483" lon="-1.03507">
        <ele>3.5</ele>
        <time>2020-06-02T10:41:56Z</time>
      </trkpt>
      <trkpt lat="46.27488" lon="-1.03505">
        <ele>3.5</ele>
        <time>2020-06-02T10:41:57Z</time>
      </trkpt>
      <trkpt lat="46.27492" lon="-1.03503">
        <ele>3.5</ele>
        <time>2020-06-02T10:41:58Z</time>
      </trkpt>
      <trkpt lat="46.27497" lon="-1.03501">
        <ele>3.5</ele>
        <time>2020-06-02T10:41:59Z</time>
      </trkpt>
      <trkpt lat="46.27501" lon="-1.03499">
        <ele>3.5</ele>
        <time>2020-06-02T10:42:00Z</time>
      </trkpt>
      <trkpt lat="46.27506" lon="-1.03498">
        <ele>3.5</ele>
        <time>2020-06-02T10:42:01Z</time>
      </trkpt>
      <trkpt lat="46.2751" lon="-1.03496">
        <ele>3.5</ele>
        <time>2020-06-02T10:42:02Z</time>
      </trkpt>
      <trkpt lat="46.27515" lon="-1.03494">
        <ele>3.5</ele>
        <time>2020-06-02T10:42:03Z</time>
      </trkpt>
      <trkpt lat="46.27519" lon="-1.03493">
        <ele>3.5</ele>
        <time>2020-06-02T10:42:04Z</time>
      </trkpt>
      <trkpt lat="46.27524" lon="-1.0349">
        <ele>3.5</ele>
        <time>2020-06-02T10:42:05Z</time>
      </trkpt>
      <trkpt lat="46.27529" lon="-1.03489">
        <ele>3.5</ele>
        <time>2020-06-02T10:42:06Z</time>
      </trkpt>
      <trkpt lat="46.27534" lon="-1.03487">
        <ele>3.5</ele>
        <time>2020-06-02T10:42:07Z</time>
      </trkpt>
      <trkpt lat="46.2754" lon="-1.03485">
        <ele>3.5</ele>
        <time>2020-06-02T10:42:08Z</time>
      </trkpt>
      <trkpt lat="46.27546" lon="-1.03483">
        <ele>3.5</ele>
        <time>2020-06-02T10:42:09Z</time>
      </trkpt>
      <trkpt lat="46.27552" lon="-1.0348">
        <ele>3.5</ele>
        <time>2020-06-02T10:42:10Z</time>
      </trkpt>
      <trkpt lat="46.27558" lon="-1.03478">
        <ele>3.5</ele>
        <time>2020-06-02T10:42:11Z</time>
      </trkpt>
      <trkpt lat="46.27563" lon="-1.03477">
        <ele>3.5</ele>
        <time>2020-06-02T10:42:12Z</time>
      </trkpt>
      <trkpt lat="46.27569" lon="-1.03474">
        <ele>3.5</ele>
        <time>2020-06-02T10:42:13Z</time>
      </trkpt>
      <trkpt lat="46.27574" lon="-1.03473">
        <ele>3.5</ele>
        <time>2020-06-02T10:42:14Z</time>
      </trkpt>
      <trkpt lat="46.27578" lon="-1.03471">
        <ele>3.5</ele>
        <time>2020-06-02T10:42:15Z</time>
      </trkpt>
      <trkpt lat="46.27583" lon="-1.0347">
        <ele>3.5</ele>
        <time>2020-06-02T10:42:16Z</time>
      </trkpt>
      <trkpt lat="46.27587" lon="-1.03468">
        <ele>3.5</ele>
        <time>2020-06-02T10:42:17Z</time>
      </trkpt>
      <trkpt lat="46.27593" lon="-1.03467">
        <ele>3.5</ele>
        <time>2020-06-02T10:42:18Z</time>
      </trkpt>
      <trkpt lat="46.27599" lon="-1.03465">
        <ele>3.5</ele>
        <time>2020-06-02T10:42:19Z</time>
      </trkpt>
      <trkpt lat="46.27604" lon="-1.03463">
        <ele>3.5</ele>
        <time>2020-06-02T10:42:20Z</time>
      </trkpt>
      <trkpt lat="46.27609" lon="-1.03462">
        <ele>3.4</ele>
        <time>2020-06-02T10:42:21Z</time>
      </trkpt>
      <trkpt lat="46.27613" lon="-1.0346">
        <ele>3.4</ele>
        <time>2020-06-02T10:42:22Z</time>
      </trkpt>
      <trkpt lat="46.27617" lon="-1.03458">
        <ele>3.4</ele>
        <time>2020-06-02T10:42:23Z</time>
      </trkpt>
      <trkpt lat="46.27622" lon="-1.03456">
        <ele>3.4</ele>
        <time>2020-06-02T10:42:24Z</time>
      </trkpt>
      <trkpt lat="46.27628" lon="-1.03455">
        <ele>3.4</ele>
        <time>2020-06-02T10:42:25Z</time>
      </trkpt>
      <trkpt lat="46.27634" lon="-1.03452">
        <ele>3.4</ele>
        <time>2020-06-02T10:42:26Z</time>
      </trkpt>
      <trkpt lat="46.27639" lon="-1.0345">
        <ele>3.4</ele>
        <time>2020-06-02T10:42:27Z</time>
      </trkpt>
      <trkpt lat="46.27645" lon="-1.03448">
        <ele>3.5</ele>
        <time>2020-06-02T10:42:28Z</time>
      </trkpt>
      <trkpt lat="46.2765" lon="-1.03445">
        <ele>3.5</ele>
        <time>2020-06-02T10:42:29Z</time>
      </trkpt>
      <trkpt lat="46.27655" lon="-1.03443">
        <ele>3.5</ele>
        <time>2020-06-02T10:42:30Z</time>
      </trkpt>
      <trkpt lat="46.2766" lon="-1.03442">
        <ele>3.5</ele>
        <time>2020-06-02T10:42:31Z</time>
      </trkpt>
      <trkpt lat="46.27665" lon="-1.0344">
        <ele>3.5</ele>
        <time>2020-06-02T10:42:32Z</time>
      </trkpt>
      <trkpt lat="46.2767" lon="-1.03438">
        <ele>3.5</ele>
        <time>2020-06-02T10:42:33Z</time>
      </trkpt>
      <trkpt lat="46.27674" lon="-1.03437">
        <ele>3.4</ele>
        <time>2020-06-02T10:42:34Z</time>
      </trkpt>
      <trkpt lat="46.2768" lon="-1.03435">
        <ele>3.4</ele>
        <time>2020-06-02T10:42:35Z</time>
      </trkpt>
      <trkpt lat="46.27685" lon="-1.03433">
        <ele>3.4</ele>
        <time>2020-06-02T10:42:36Z</time>
      </trkpt>
      <trkpt lat="46.2769" lon="-1.03431">
        <ele>3.4</ele>
        <time>2020-06-02T10:42:37Z</time>
      </trkpt>
      <trkpt lat="46.27695" lon="-1.03429">
        <ele>3.4</ele>
        <time>2020-06-02T10:42:38Z</time>
      </trkpt>
      <trkpt lat="46.27703" lon="-1.03426">
        <ele>3.4</ele>
        <time>2020-06-02T10:42:39Z</time>
      </trkpt>
      <trkpt lat="46.27709" lon="-1.03423">
        <ele>3.4</ele>
        <time>2020-06-02T10:42:40Z</time>
      </trkpt>
      <trkpt lat="46.27715" lon="-1.03421">
        <ele>3.4</ele>
        <time>2020-06-02T10:42:41Z</time>
      </trkpt>
      <trkpt lat="46.2772" lon="-1.03419">
        <ele>3.4</ele>
        <time>2020-06-02T10:42:42Z</time>
      </trkpt>
      <trkpt lat="46.27726" lon="-1.03418">
        <ele>3.4</ele>
        <time>2020-06-02T10:42:43Z</time>
      </trkpt>
      <trkpt lat="46.2773" lon="-1.03416">
        <ele>3.4</ele>
        <time>2020-06-02T10:42:44Z</time>
      </trkpt>
      <trkpt lat="46.27736" lon="-1.03414">
        <ele>3.4</ele>
        <time>2020-06-02T10:42:45Z</time>
      </trkpt>
      <trkpt lat="46.27742" lon="-1.03411">
        <ele>3.4</ele>
        <time>2020-06-02T10:42:46Z</time>
      </trkpt>
      <trkpt lat="46.27748" lon="-1.03409">
        <ele>3.4</ele>
        <time>2020-06-02T10:42:47Z</time>
      </trkpt>
      <trkpt lat="46.27753" lon="-1.03407">
        <ele>3.4</ele>
        <time>2020-06-02T10:42:48Z</time>
      </trkpt>
      <trkpt lat="46.27758" lon="-1.03405">
        <ele>3.4</ele>
        <time>2020-06-02T10:42:49Z</time>
      </trkpt>
      <trkpt lat="46.27762" lon="-1.03403">
        <ele>3.4</ele>
        <time>2020-06-02T10:42:50Z</time>
      </trkpt>
      <trkpt lat="46.27767" lon="-1.03401">
        <ele>3.4</ele>
        <time>2020-06-02T10:42:51Z</time>
      </trkpt>
      <trkpt lat="46.27773" lon="-1.034">
        <ele>3.4</ele>
        <time>2020-06-02T10:42:52Z</time>
      </trkpt>
      <trkpt lat="46.27779" lon="-1.03398">
        <ele>3.4</ele>
        <time>2020-06-02T10:42:53Z</time>
      </trkpt>
      <trkpt lat="46.27785" lon="-1.03396">
        <ele>3.4</ele>
        <time>2020-06-02T10:42:54Z</time>
      </trkpt>
      <trkpt lat="46.27791" lon="-1.03393">
        <ele>3.4</ele>
        <time>2020-06-02T10:42:55Z</time>
      </trkpt>
      <trkpt lat="46.27797" lon="-1.03391">
        <ele>3.4</ele>
        <time>2020-06-02T10:42:56Z</time>
      </trkpt>
      <trkpt lat="46.27802" lon="-1.03388">
        <ele>3.4</ele>
        <time>2020-06-02T10:42:57Z</time>
      </trkpt>
      <trkpt lat="46.27808" lon="-1.03386">
        <ele>3.4</ele>
        <time>2020-06-02T10:42:58Z</time>
      </trkpt>
      <trkpt lat="46.27814" lon="-1.03384">
        <ele>3.4</ele>
        <time>2020-06-02T10:42:59Z</time>
      </trkpt>
      <trkpt lat="46.2782" lon="-1.03381">
        <ele>3.4</ele>
        <time>2020-06-02T10:43:00Z</time>
      </trkpt>
      <trkpt lat="46.27825" lon="-1.03379">
        <ele>3.4</ele>
        <time>2020-06-02T10:43:01Z</time>
      </trkpt>
      <trkpt lat="46.2783" lon="-1.03377">
        <ele>3.4</ele>
        <time>2020-06-02T10:43:02Z</time>
      </trkpt>
      <trkpt lat="46.27835" lon="-1.03376">
        <ele>3.4</ele>
        <time>2020-06-02T10:43:03Z</time>
      </trkpt>
      <trkpt lat="46.27841" lon="-1.03374">
        <ele>3.4</ele>
        <time>2020-06-02T10:43:04Z</time>
      </trkpt>
      <trkpt lat="46.27847" lon="-1.03372">
        <ele>3.4</ele>
        <time>2020-06-02T10:43:05Z</time>
      </trkpt>
      <trkpt lat="46.27852" lon="-1.0337">
        <ele>3.3</ele>
        <time>2020-06-02T10:43:06Z</time>
      </trkpt>
      <trkpt lat="46.27858" lon="-1.03368">
        <ele>3.3</ele>
        <time>2020-06-02T10:43:07Z</time>
      </trkpt>
      <trkpt lat="46.27863" lon="-1.03366">
        <ele>3.3</ele>
        <time>2020-06-02T10:43:08Z</time>
      </trkpt>
      <trkpt lat="46.27868" lon="-1.03364">
        <ele>3.3</ele>
        <time>2020-06-02T10:43:09Z</time>
      </trkpt>
      <trkpt lat="46.27873" lon="-1.03363">
        <ele>3.3</ele>
        <time>2020-06-02T10:43:10Z</time>
      </trkpt>
      <trkpt lat="46.27878" lon="-1.03361">
        <ele>3.3</ele>
        <time>2020-06-02T10:43:11Z</time>
      </trkpt>
      <trkpt lat="46.27883" lon="-1.0336">
        <ele>3.3</ele>
        <time>2020-06-02T10:43:12Z</time>
      </trkpt>
      <trkpt lat="46.27888" lon="-1.03358">
        <ele>3.4</ele>
        <time>2020-06-02T10:43:13Z</time>
      </trkpt>
      <trkpt lat="46.27893" lon="-1.03357">
        <ele>3.4</ele>
        <time>2020-06-02T10:43:14Z</time>
      </trkpt>
      <trkpt lat="46.27898" lon="-1.03355">
        <ele>3.4</ele>
        <time>2020-06-02T10:43:15Z</time>
      </trkpt>
      <trkpt lat="46.27904" lon="-1.03353">
        <ele>3.4</ele>
        <time>2020-06-02T10:43:16Z</time>
      </trkpt>
      <trkpt lat="46.27909" lon="-1.03351">
        <ele>3.4</ele>
        <time>2020-06-02T10:43:17Z</time>
      </trkpt>
      <trkpt lat="46.27914" lon="-1.03349">
        <ele>3.4</ele>
        <time>2020-06-02T10:43:18Z</time>
      </trkpt>
      <trkpt lat="46.27919" lon="-1.03347">
        <ele>3.4</ele>
        <time>2020-06-02T10:43:19Z</time>
      </trkpt>
      <trkpt lat="46.27922" lon="-1.03346">
        <ele>3.4</ele>
        <time>2020-06-02T10:43:20Z</time>
      </trkpt>
      <trkpt lat="46.27928" lon="-1.03343">
        <ele>3.4</ele>
        <time>2020-06-02T10:43:21Z</time>
      </trkpt>
      <trkpt lat="46.27933" lon="-1.03341">
        <ele>3.4</ele>
        <time>2020-06-02T10:43:22Z</time>
      </trkpt>
      <trkpt lat="46.27939" lon="-1.0334">
        <ele>3.4</ele>
        <time>2020-06-02T10:43:23Z</time>
      </trkpt>
      <trkpt lat="46.27945" lon="-1.03337">
        <ele>3.4</ele>
        <time>2020-06-02T10:43:24Z</time>
      </trkpt>
      <trkpt lat="46.27951" lon="-1.03336">
        <ele>3.3</ele>
        <time>2020-06-02T10:43:25Z</time>
      </trkpt>
      <trkpt lat="46.27956" lon="-1.03334">
        <ele>3.3</ele>
        <time>2020-06-02T10:43:26Z</time>
      </trkpt>
      <trkpt lat="46.27962" lon="-1.03332">
        <ele>3.3</ele>
        <time>2020-06-02T10:43:27Z</time>
      </trkpt>
      <trkpt lat="46.27967" lon="-1.03331">
        <ele>3.3</ele>
        <time>2020-06-02T10:43:28Z</time>
      </trkpt>
      <trkpt lat="46.27973" lon="-1.03326">
        <ele>3.3</ele>
        <time>2020-06-02T10:43:29Z</time>
      </trkpt>
      <trkpt lat="46.27978" lon="-1.03323">
        <ele>3.3</ele>
        <time>2020-06-02T10:43:30Z</time>
      </trkpt>
      <trkpt lat="46.27984" lon="-1.03321">
        <ele>3.3</ele>
        <time>2020-06-02T10:43:31Z</time>
      </trkpt>
      <trkpt lat="46.27989" lon="-1.03318">
        <ele>3.3</ele>
        <time>2020-06-02T10:43:32Z</time>
      </trkpt>
      <trkpt lat="46.27995" lon="-1.03316">
        <ele>3.3</ele>
        <time>2020-06-02T10:43:33Z</time>
      </trkpt>
      <trkpt lat="46.28" lon="-1.03314">
        <ele>3.3</ele>
        <time>2020-06-02T10:43:34Z</time>
      </trkpt>
      <trkpt lat="46.28006" lon="-1.03312">
        <ele>3.3</ele>
        <time>2020-06-02T10:43:35Z</time>
      </trkpt>
      <trkpt lat="46.28013" lon="-1.0331">
        <ele>3.3</ele>
        <time>2020-06-02T10:43:36Z</time>
      </trkpt>
      <trkpt lat="46.28019" lon="-1.03309">
        <ele>3.3</ele>
        <time>2020-06-02T10:43:37Z</time>
      </trkpt>
      <trkpt lat="46.28024" lon="-1.03306">
        <ele>3.3</ele>
        <time>2020-06-02T10:43:38Z</time>
      </trkpt>
      <trkpt lat="46.2803" lon="-1.03304">
        <ele>3.3</ele>
        <time>2020-06-02T10:43:39Z</time>
      </trkpt>
      <trkpt lat="46.28035" lon="-1.03303">
        <ele>3.3</ele>
        <time>2020-06-02T10:43:40Z</time>
      </trkpt>
      <trkpt lat="46.28042" lon="-1.03301">
        <ele>3.3</ele>
        <time>2020-06-02T10:43:41Z</time>
      </trkpt>
      <trkpt lat="46.28047" lon="-1.03297">
        <ele>3.3</ele>
        <time>2020-06-02T10:43:42Z</time>
      </trkpt>
      <trkpt lat="46.28054" lon="-1.03295">
        <ele>3.3</ele>
        <time>2020-06-02T10:43:43Z</time>
      </trkpt>
      <trkpt lat="46.2806" lon="-1.03292">
        <ele>3.3</ele>
        <time>2020-06-02T10:43:44Z</time>
      </trkpt>
      <trkpt lat="46.28066" lon="-1.0329">
        <ele>3.3</ele>
        <time>2020-06-02T10:43:45Z</time>
      </trkpt>
      <trkpt lat="46.28072" lon="-1.03287">
        <ele>3.3</ele>
        <time>2020-06-02T10:43:46Z</time>
      </trkpt>
      <trkpt lat="46.28078" lon="-1.03285">
        <ele>3.3</ele>
        <time>2020-06-02T10:43:47Z</time>
      </trkpt>
      <trkpt lat="46.28085" lon="-1.03283">
        <ele>3.3</ele>
        <time>2020-06-02T10:43:48Z</time>
      </trkpt>
      <trkpt lat="46.2809" lon="-1.03282">
        <ele>3.3</ele>
        <time>2020-06-02T10:43:49Z</time>
      </trkpt>
      <trkpt lat="46.28096" lon="-1.03279">
        <ele>3.3</ele>
        <time>2020-06-02T10:43:50Z</time>
      </trkpt>
      <trkpt lat="46.28101" lon="-1.03278">
        <ele>3.3</ele>
        <time>2020-06-02T10:43:51Z</time>
      </trkpt>
      <trkpt lat="46.28106" lon="-1.03275">
        <ele>3.2</ele>
        <time>2020-06-02T10:43:52Z</time>
      </trkpt>
      <trkpt lat="46.28112" lon="-1.03274">
        <ele>3.2</ele>
        <time>2020-06-02T10:43:53Z</time>
      </trkpt>
      <trkpt lat="46.28117" lon="-1.03271">
        <ele>3.2</ele>
        <time>2020-06-02T10:43:54Z</time>
      </trkpt>
      <trkpt lat="46.28122" lon="-1.03269">
        <ele>3.2</ele>
        <time>2020-06-02T10:43:55Z</time>
      </trkpt>
      <trkpt lat="46.28128" lon="-1.03267">
        <ele>3.1</ele>
        <time>2020-06-02T10:43:56Z</time>
      </trkpt>
      <trkpt lat="46.28133" lon="-1.03266">
        <ele>3.1</ele>
        <time>2020-06-02T10:43:57Z</time>
      </trkpt>
      <trkpt lat="46.28139" lon="-1.03264">
        <ele>3</ele>
        <time>2020-06-02T10:43:58Z</time>
      </trkpt>
      <trkpt lat="46.28145" lon="-1.03262">
        <ele>2.9</ele>
        <time>2020-06-02T10:43:59Z</time>
      </trkpt>
      <trkpt lat="46.28151" lon="-1.03259">
        <ele>2.9</ele>
        <time>2020-06-02T10:44:00Z</time>
      </trkpt>
      <trkpt lat="46.28157" lon="-1.03256">
        <ele>2.8</ele>
        <time>2020-06-02T10:44:01Z</time>
      </trkpt>
      <trkpt lat="46.28162" lon="-1.03254">
        <ele>2.9</ele>
        <time>2020-06-02T10:44:02Z</time>
      </trkpt>
      <trkpt lat="46.28167" lon="-1.03251">
        <ele>2.9</ele>
        <time>2020-06-02T10:44:03Z</time>
      </trkpt>
      <trkpt lat="46.28173" lon="-1.03251">
        <ele>2.9</ele>
        <time>2020-06-02T10:44:04Z</time>
      </trkpt>
      <trkpt lat="46.28179" lon="-1.03247">
        <ele>2.9</ele>
        <time>2020-06-02T10:44:05Z</time>
      </trkpt>
      <trkpt lat="46.28184" lon="-1.03244">
        <ele>2.9</ele>
        <time>2020-06-02T10:44:06Z</time>
      </trkpt>
      <trkpt lat="46.28189" lon="-1.0324">
        <ele>3</ele>
        <time>2020-06-02T10:44:07Z</time>
      </trkpt>
      <trkpt lat="46.28195" lon="-1.03237">
        <ele>3</ele>
        <time>2020-06-02T10:44:08Z</time>
      </trkpt>
      <trkpt lat="46.282" lon="-1.03234">
        <ele>3</ele>
        <time>2020-06-02T10:44:09Z</time>
      </trkpt>
      <trkpt lat="46.28205" lon="-1.03231">
        <ele>3</ele>
        <time>2020-06-02T10:44:10Z</time>
      </trkpt>
      <trkpt lat="46.28211" lon="-1.03229">
        <ele>3</ele>
        <time>2020-06-02T10:44:11Z</time>
      </trkpt>
      <trkpt lat="46.28216" lon="-1.03227">
        <ele>3</ele>
        <time>2020-06-02T10:44:12Z</time>
      </trkpt>
      <trkpt lat="46.28222" lon="-1.03224">
        <ele>3.1</ele>
        <time>2020-06-02T10:44:13Z</time>
      </trkpt>
      <trkpt lat="46.28228" lon="-1.03221">
        <ele>3.1</ele>
        <time>2020-06-02T10:44:14Z</time>
      </trkpt>
      <trkpt lat="46.28232" lon="-1.03218">
        <ele>3.1</ele>
        <time>2020-06-02T10:44:15Z</time>
      </trkpt>
      <trkpt lat="46.28237" lon="-1.03216">
        <ele>3.1</ele>
        <time>2020-06-02T10:44:16Z</time>
      </trkpt>
      <trkpt lat="46.28242" lon="-1.03214">
        <ele>3.1</ele>
        <time>2020-06-02T10:44:17Z</time>
      </trkpt>
      <trkpt lat="46.28248" lon="-1.03212">
        <ele>3.1</ele>
        <time>2020-06-02T10:44:18Z</time>
      </trkpt>
      <trkpt lat="46.28254" lon="-1.0321">
        <ele>3.1</ele>
        <time>2020-06-02T10:44:19Z</time>
      </trkpt>
      <trkpt lat="46.28259" lon="-1.03209">
        <ele>3.1</ele>
        <time>2020-06-02T10:44:20Z</time>
      </trkpt>
      <trkpt lat="46.28266" lon="-1.03207">
        <ele>3.1</ele>
        <time>2020-06-02T10:44:21Z</time>
      </trkpt>
      <trkpt lat="46.28271" lon="-1.03205">
        <ele>3.1</ele>
        <time>2020-06-02T10:44:22Z</time>
      </trkpt>
      <trkpt lat="46.28277" lon="-1.03203">
        <ele>3.1</ele>
        <time>2020-06-02T10:44:23Z</time>
      </trkpt>
      <trkpt lat="46.28282" lon="-1.03201">
        <ele>3.1</ele>
        <time>2020-06-02T10:44:24Z</time>
      </trkpt>
      <trkpt lat="46.28287" lon="-1.03198">
        <ele>3.1</ele>
        <time>2020-06-02T10:44:25Z</time>
      </trkpt>
      <trkpt lat="46.28292" lon="-1.03197">
        <ele>3.2</ele>
        <time>2020-06-02T10:44:26Z</time>
      </trkpt>
      <trkpt lat="46.28298" lon="-1.03194">
        <ele>3.2</ele>
        <time>2020-06-02T10:44:27Z</time>
      </trkpt>
      <trkpt lat="46.28302" lon="-1.03192">
        <ele>3.2</ele>
        <time>2020-06-02T10:44:28Z</time>
      </trkpt>
      <trkpt lat="46.28308" lon="-1.0319">
        <ele>3.2</ele>
        <time>2020-06-02T10:44:29Z</time>
      </trkpt>
      <trkpt lat="46.28313" lon="-1.03189">
        <ele>3.2</ele>
        <time>2020-06-02T10:44:30Z</time>
      </trkpt>
      <trkpt lat="46.28318" lon="-1.03187">
        <ele>3.1</ele>
        <time>2020-06-02T10:44:31Z</time>
      </trkpt>
      <trkpt lat="46.28322" lon="-1.03185">
        <ele>3.1</ele>
        <time>2020-06-02T10:44:32Z</time>
      </trkpt>
      <trkpt lat="46.28328" lon="-1.03183">
        <ele>3.1</ele>
        <time>2020-06-02T10:44:33Z</time>
      </trkpt>
      <trkpt lat="46.28333" lon="-1.03181">
        <ele>3</ele>
        <time>2020-06-02T10:44:34Z</time>
      </trkpt>
      <trkpt lat="46.28339" lon="-1.0318">
        <ele>3</ele>
        <time>2020-06-02T10:44:35Z</time>
      </trkpt>
      <trkpt lat="46.28345" lon="-1.03178">
        <ele>3</ele>
        <time>2020-06-02T10:44:36Z</time>
      </trkpt>
      <trkpt lat="46.28351" lon="-1.03175">
        <ele>3</ele>
        <time>2020-06-02T10:44:37Z</time>
      </trkpt>
      <trkpt lat="46.28357" lon="-1.03172">
        <ele>3</ele>
        <time>2020-06-02T10:44:38Z</time>
      </trkpt>
      <trkpt lat="46.28362" lon="-1.03171">
        <ele>3</ele>
        <time>2020-06-02T10:44:39Z</time>
      </trkpt>
      <trkpt lat="46.28367" lon="-1.03168">
        <ele>3</ele>
        <time>2020-06-02T10:44:40Z</time>
      </trkpt>
      <trkpt lat="46.28373" lon="-1.03166">
        <ele>3</ele>
        <time>2020-06-02T10:44:41Z</time>
      </trkpt>
      <trkpt lat="46.28378" lon="-1.03164">
        <ele>3</ele>
        <time>2020-06-02T10:44:42Z</time>
      </trkpt>
      <trkpt lat="46.28384" lon="-1.03162">
        <ele>3</ele>
        <time>2020-06-02T10:44:43Z</time>
      </trkpt>
      <trkpt lat="46.28389" lon="-1.03159">
        <ele>3</ele>
        <time>2020-06-02T10:44:44Z</time>
      </trkpt>
      <trkpt lat="46.28395" lon="-1.03157">
        <ele>3</ele>
        <time>2020-06-02T10:44:45Z</time>
      </trkpt>
      <trkpt lat="46.284" lon="-1.03155">
        <ele>3</ele>
        <time>2020-06-02T10:44:46Z</time>
      </trkpt>
      <trkpt lat="46.28406" lon="-1.03154">
        <ele>3</ele>
        <time>2020-06-02T10:44:47Z</time>
      </trkpt>
      <trkpt lat="46.28413" lon="-1.03153">
        <ele>3</ele>
        <time>2020-06-02T10:44:48Z</time>
      </trkpt>
      <trkpt lat="46.28419" lon="-1.03151">
        <ele>3</ele>
        <time>2020-06-02T10:44:49Z</time>
      </trkpt>
      <trkpt lat="46.28425" lon="-1.03149">
        <ele>3</ele>
        <time>2020-06-02T10:44:50Z</time>
      </trkpt>
      <trkpt lat="46.28432" lon="-1.03148">
        <ele>3.1</ele>
        <time>2020-06-02T10:44:51Z</time>
      </trkpt>
      <trkpt lat="46.28438" lon="-1.03146">
        <ele>3.1</ele>
        <time>2020-06-02T10:44:52Z</time>
      </trkpt>
      <trkpt lat="46.28443" lon="-1.03144">
        <ele>3.2</ele>
        <time>2020-06-02T10:44:53Z</time>
      </trkpt>
      <trkpt lat="46.28448" lon="-1.03142">
        <ele>3.2</ele>
        <time>2020-06-02T10:44:54Z</time>
      </trkpt>
      <trkpt lat="46.28453" lon="-1.0314">
        <ele>3.2</ele>
        <time>2020-06-02T10:44:55Z</time>
      </trkpt>
      <trkpt lat="46.28458" lon="-1.03137">
        <ele>3.2</ele>
        <time>2020-06-02T10:44:56Z</time>
      </trkpt>
      <trkpt lat="46.28464" lon="-1.03135">
        <ele>3.2</ele>
        <time>2020-06-02T10:44:57Z</time>
      </trkpt>
      <trkpt lat="46.2847" lon="-1.03133">
        <ele>3.2</ele>
        <time>2020-06-02T10:44:58Z</time>
      </trkpt>
      <trkpt lat="46.28476" lon="-1.03131">
        <ele>3.2</ele>
        <time>2020-06-02T10:44:59Z</time>
      </trkpt>
      <trkpt lat="46.28482" lon="-1.03129">
        <ele>3.2</ele>
        <time>2020-06-02T10:45:00Z</time>
      </trkpt>
      <trkpt lat="46.28488" lon="-1.03126">
        <ele>3.1</ele>
        <time>2020-06-02T10:45:01Z</time>
      </trkpt>
      <trkpt lat="46.28495" lon="-1.03123">
        <ele>3</ele>
        <time>2020-06-02T10:45:02Z</time>
      </trkpt>
      <trkpt lat="46.28501" lon="-1.0312">
        <ele>3</ele>
        <time>2020-06-02T10:45:03Z</time>
      </trkpt>
      <trkpt lat="46.28506" lon="-1.03117">
        <ele>2.9</ele>
        <time>2020-06-02T10:45:04Z</time>
      </trkpt>
      <trkpt lat="46.28512" lon="-1.03116">
        <ele>2.9</ele>
        <time>2020-06-02T10:45:05Z</time>
      </trkpt>
      <trkpt lat="46.28517" lon="-1.03114">
        <ele>2.8</ele>
        <time>2020-06-02T10:45:06Z</time>
      </trkpt>
      <trkpt lat="46.28524" lon="-1.03112">
        <ele>2.8</ele>
        <time>2020-06-02T10:45:07Z</time>
      </trkpt>
      <trkpt lat="46.28529" lon="-1.0311">
        <ele>2.8</ele>
        <time>2020-06-02T10:45:08Z</time>
      </trkpt>
      <trkpt lat="46.28535" lon="-1.03107">
        <ele>2.8</ele>
        <time>2020-06-02T10:45:09Z</time>
      </trkpt>
      <trkpt lat="46.28541" lon="-1.03105">
        <ele>2.8</ele>
        <time>2020-06-02T10:45:10Z</time>
      </trkpt>
      <trkpt lat="46.28547" lon="-1.03104">
        <ele>2.8</ele>
        <time>2020-06-02T10:45:11Z</time>
      </trkpt>
      <trkpt lat="46.28552" lon="-1.03102">
        <ele>2.8</ele>
        <time>2020-06-02T10:45:12Z</time>
      </trkpt>
      <trkpt lat="46.28558" lon="-1.031">
        <ele>2.9</ele>
        <time>2020-06-02T10:45:13Z</time>
      </trkpt>
      <trkpt lat="46.28563" lon="-1.03097">
        <ele>2.9</ele>
        <time>2020-06-02T10:45:14Z</time>
      </trkpt>
      <trkpt lat="46.28568" lon="-1.03097">
        <ele>2.9</ele>
        <time>2020-06-02T10:45:15Z</time>
      </trkpt>
      <trkpt lat="46.28574" lon="-1.03094">
        <ele>3</ele>
        <time>2020-06-02T10:45:16Z</time>
      </trkpt>
      <trkpt lat="46.28579" lon="-1.03094">
        <ele>3</ele>
        <time>2020-06-02T10:45:17Z</time>
      </trkpt>
      <trkpt lat="46.28585" lon="-1.0309">
        <ele>3.1</ele>
        <time>2020-06-02T10:45:18Z</time>
      </trkpt>
      <trkpt lat="46.28593" lon="-1.03088">
        <ele>3.1</ele>
        <time>2020-06-02T10:45:19Z</time>
      </trkpt>
      <trkpt lat="46.28599" lon="-1.03085">
        <ele>3.1</ele>
        <time>2020-06-02T10:45:20Z</time>
      </trkpt>
      <trkpt lat="46.28605" lon="-1.03083">
        <ele>3.1</ele>
        <time>2020-06-02T10:45:21Z</time>
      </trkpt>
      <trkpt lat="46.2861" lon="-1.03082">
        <ele>3.1</ele>
        <time>2020-06-02T10:45:22Z</time>
      </trkpt>
      <trkpt lat="46.28616" lon="-1.0308">
        <ele>3.1</ele>
        <time>2020-06-02T10:45:23Z</time>
      </trkpt>
      <trkpt lat="46.28622" lon="-1.03079">
        <ele>3.1</ele>
        <time>2020-06-02T10:45:24Z</time>
      </trkpt>
      <trkpt lat="46.28628" lon="-1.03076">
        <ele>3.1</ele>
        <time>2020-06-02T10:45:25Z</time>
      </trkpt>
      <trkpt lat="46.28635" lon="-1.03073">
        <ele>3.1</ele>
        <time>2020-06-02T10:45:26Z</time>
      </trkpt>
      <trkpt lat="46.28639" lon="-1.0307">
        <ele>3.1</ele>
        <time>2020-06-02T10:45:27Z</time>
      </trkpt>
      <trkpt lat="46.28645" lon="-1.03068">
        <ele>3.1</ele>
        <time>2020-06-02T10:45:28Z</time>
      </trkpt>
      <trkpt lat="46.28651" lon="-1.03066">
        <ele>3.1</ele>
        <time>2020-06-02T10:45:29Z</time>
      </trkpt>
      <trkpt lat="46.28656" lon="-1.03062">
        <ele>3</ele>
        <time>2020-06-02T10:45:30Z</time>
      </trkpt>
      <trkpt lat="46.28662" lon="-1.0306">
        <ele>3</ele>
        <time>2020-06-02T10:45:31Z</time>
      </trkpt>
      <trkpt lat="46.28668" lon="-1.03057">
        <ele>2.9</ele>
        <time>2020-06-02T10:45:32Z</time>
      </trkpt>
      <trkpt lat="46.28674" lon="-1.03055">
        <ele>2.9</ele>
        <time>2020-06-02T10:45:33Z</time>
      </trkpt>
      <trkpt lat="46.2868" lon="-1.03052">
        <ele>2.9</ele>
        <time>2020-06-02T10:45:34Z</time>
      </trkpt>
      <trkpt lat="46.28685" lon="-1.03051">
        <ele>2.9</ele>
        <time>2020-06-02T10:45:35Z</time>
      </trkpt>
      <trkpt lat="46.2869" lon="-1.03049">
        <ele>2.9</ele>
        <time>2020-06-02T10:45:36Z</time>
      </trkpt>
      <trkpt lat="46.28695" lon="-1.03048">
        <ele>2.9</ele>
        <time>2020-06-02T10:45:37Z</time>
      </trkpt>
      <trkpt lat="46.287" lon="-1.03047">
        <ele>2.9</ele>
        <time>2020-06-02T10:45:38Z</time>
      </trkpt>
      <trkpt lat="46.28705" lon="-1.03045">
        <ele>2.9</ele>
        <time>2020-06-02T10:45:39Z</time>
      </trkpt>
      <trkpt lat="46.2871" lon="-1.03043">
        <ele>2.9</ele>
        <time>2020-06-02T10:45:40Z</time>
      </trkpt>
      <trkpt lat="46.28715" lon="-1.03041">
        <ele>2.9</ele>
        <time>2020-06-02T10:45:41Z</time>
      </trkpt>
      <trkpt lat="46.2872" lon="-1.03038">
        <ele>2.9</ele>
        <time>2020-06-02T10:45:42Z</time>
      </trkpt>
      <trkpt lat="46.28725" lon="-1.03036">
        <ele>2.9</ele>
        <time>2020-06-02T10:45:43Z</time>
      </trkpt>
      <trkpt lat="46.2873" lon="-1.03035">
        <ele>2.9</ele>
        <time>2020-06-02T10:45:44Z</time>
      </trkpt>
      <trkpt lat="46.28735" lon="-1.03034">
        <ele>2.8</ele>
        <time>2020-06-02T10:45:45Z</time>
      </trkpt>
      <trkpt lat="46.2874" lon="-1.03033">
        <ele>2.8</ele>
        <time>2020-06-02T10:45:46Z</time>
      </trkpt>
      <trkpt lat="46.28746" lon="-1.03031">
        <ele>2.8</ele>
        <time>2020-06-02T10:45:47Z</time>
      </trkpt>
      <trkpt lat="46.28751" lon="-1.03029">
        <ele>2.8</ele>
        <time>2020-06-02T10:45:48Z</time>
      </trkpt>
      <trkpt lat="46.28756" lon="-1.03027">
        <ele>2.8</ele>
        <time>2020-06-02T10:45:49Z</time>
      </trkpt>
      <trkpt lat="46.28761" lon="-1.03025">
        <ele>2.8</ele>
        <time>2020-06-02T10:45:50Z</time>
      </trkpt>
      <trkpt lat="46.28766" lon="-1.03023">
        <ele>2.8</ele>
        <time>2020-06-02T10:45:51Z</time>
      </trkpt>
      <trkpt lat="46.28771" lon="-1.0302">
        <ele>2.8</ele>
        <time>2020-06-02T10:45:52Z</time>
      </trkpt>
      <trkpt lat="46.28776" lon="-1.03018">
        <ele>2.7</ele>
        <time>2020-06-02T10:45:53Z</time>
      </trkpt>
      <trkpt lat="46.28781" lon="-1.03013">
        <ele>2.7</ele>
        <time>2020-06-02T10:45:54Z</time>
      </trkpt>
      <trkpt lat="46.28786" lon="-1.03011">
        <ele>2.7</ele>
        <time>2020-06-02T10:45:55Z</time>
      </trkpt>
      <trkpt lat="46.28793" lon="-1.03009">
        <ele>2.7</ele>
        <time>2020-06-02T10:45:56Z</time>
      </trkpt>
      <trkpt lat="46.28799" lon="-1.03008">
        <ele>2.6</ele>
        <time>2020-06-02T10:45:57Z</time>
      </trkpt>
      <trkpt lat="46.28804" lon="-1.03007">
        <ele>2.6</ele>
        <time>2020-06-02T10:45:58Z</time>
      </trkpt>
      <trkpt lat="46.2881" lon="-1.03005">
        <ele>2.6</ele>
        <time>2020-06-02T10:45:59Z</time>
      </trkpt>
      <trkpt lat="46.28815" lon="-1.03004">
        <ele>2.6</ele>
        <time>2020-06-02T10:46:00Z</time>
      </trkpt>
      <trkpt lat="46.28819" lon="-1.03002">
        <ele>2.6</ele>
        <time>2020-06-02T10:46:01Z</time>
      </trkpt>
      <trkpt lat="46.28824" lon="-1.03001">
        <ele>2.6</ele>
        <time>2020-06-02T10:46:02Z</time>
      </trkpt>
      <trkpt lat="46.28829" lon="-1.02999">
        <ele>2.6</ele>
        <time>2020-06-02T10:46:03Z</time>
      </trkpt>
      <trkpt lat="46.28833" lon="-1.02996">
        <ele>2.6</ele>
        <time>2020-06-02T10:46:04Z</time>
      </trkpt>
      <trkpt lat="46.28838" lon="-1.02994">
        <ele>2.6</ele>
        <time>2020-06-02T10:46:05Z</time>
      </trkpt>
      <trkpt lat="46.28842" lon="-1.02993">
        <ele>2.6</ele>
        <time>2020-06-02T10:46:06Z</time>
      </trkpt>
      <trkpt lat="46.28847" lon="-1.02992">
        <ele>2.6</ele>
        <time>2020-06-02T10:46:07Z</time>
      </trkpt>
      <trkpt lat="46.28853" lon="-1.02992">
        <ele>2.5</ele>
        <time>2020-06-02T10:46:08Z</time>
      </trkpt>
      <trkpt lat="46.28858" lon="-1.02992">
        <ele>2.5</ele>
        <time>2020-06-02T10:46:09Z</time>
      </trkpt>
      <trkpt lat="46.28864" lon="-1.02994">
        <ele>2.4</ele>
        <time>2020-06-02T10:46:10Z</time>
      </trkpt>
      <trkpt lat="46.28868" lon="-1.02995">
        <ele>2.4</ele>
        <time>2020-06-02T10:46:11Z</time>
      </trkpt>
      <trkpt lat="46.28873" lon="-1.02995">
        <ele>2.3</ele>
        <time>2020-06-02T10:46:12Z</time>
      </trkpt>
      <trkpt lat="46.28878" lon="-1.02995">
        <ele>2.2</ele>
        <time>2020-06-02T10:46:13Z</time>
      </trkpt>
      <trkpt lat="46.28884" lon="-1.02993">
        <ele>2.1</ele>
        <time>2020-06-02T10:46:14Z</time>
      </trkpt>
      <trkpt lat="46.28889" lon="-1.02991">
        <ele>2</ele>
        <time>2020-06-02T10:46:15Z</time>
      </trkpt>
      <trkpt lat="46.28894" lon="-1.02987">
        <ele>1.9</ele>
        <time>2020-06-02T10:46:16Z</time>
      </trkpt>
      <trkpt lat="46.28899" lon="-1.02985">
        <ele>1.8</ele>
        <time>2020-06-02T10:46:17Z</time>
      </trkpt>
      <trkpt lat="46.28904" lon="-1.02982">
        <ele>1.8</ele>
        <time>2020-06-02T10:46:18Z</time>
      </trkpt>
      <trkpt lat="46.28909" lon="-1.02981">
        <ele>1.8</ele>
        <time>2020-06-02T10:46:19Z</time>
      </trkpt>
      <trkpt lat="46.28914" lon="-1.02979">
        <ele>1.8</ele>
        <time>2020-06-02T10:46:20Z</time>
      </trkpt>
      <trkpt lat="46.28918" lon="-1.02976">
        <ele>1.8</ele>
        <time>2020-06-02T10:46:21Z</time>
      </trkpt>
      <trkpt lat="46.28923" lon="-1.02975">
        <ele>1.8</ele>
        <time>2020-06-02T10:46:22Z</time>
      </trkpt>
      <trkpt lat="46.28928" lon="-1.02974">
        <ele>1.7</ele>
        <time>2020-06-02T10:46:23Z</time>
      </trkpt>
      <trkpt lat="46.28933" lon="-1.02973">
        <ele>1.7</ele>
        <time>2020-06-02T10:46:24Z</time>
      </trkpt>
      <trkpt lat="46.28937" lon="-1.02969">
        <ele>1.7</ele>
        <time>2020-06-02T10:46:25Z</time>
      </trkpt>
      <trkpt lat="46.28942" lon="-1.02967">
        <ele>1.7</ele>
        <time>2020-06-02T10:46:26Z</time>
      </trkpt>
      <trkpt lat="46.28948" lon="-1.02967">
        <ele>1.7</ele>
        <time>2020-06-02T10:46:27Z</time>
      </trkpt>
      <trkpt lat="46.28953" lon="-1.02965">
        <ele>1.7</ele>
        <time>2020-06-02T10:46:28Z</time>
      </trkpt>
      <trkpt lat="46.28959" lon="-1.02962">
        <ele>1.7</ele>
        <time>2020-06-02T10:46:29Z</time>
      </trkpt>
      <trkpt lat="46.28965" lon="-1.02961">
        <ele>1.7</ele>
        <time>2020-06-02T10:46:30Z</time>
      </trkpt>
      <trkpt lat="46.28971" lon="-1.02958">
        <ele>1.7</ele>
        <time>2020-06-02T10:46:31Z</time>
      </trkpt>
      <trkpt lat="46.28977" lon="-1.02956">
        <ele>1.7</ele>
        <time>2020-06-02T10:46:32Z</time>
      </trkpt>
      <trkpt lat="46.28982" lon="-1.02954">
        <ele>1.7</ele>
        <time>2020-06-02T10:46:33Z</time>
      </trkpt>
      <trkpt lat="46.28987" lon="-1.02951">
        <ele>1.7</ele>
        <time>2020-06-02T10:46:34Z</time>
      </trkpt>
      <trkpt lat="46.28992" lon="-1.02949">
        <ele>1.7</ele>
        <time>2020-06-02T10:46:35Z</time>
      </trkpt>
      <trkpt lat="46.28997" lon="-1.02946">
        <ele>1.7</ele>
        <time>2020-06-02T10:46:36Z</time>
      </trkpt>
      <trkpt lat="46.29001" lon="-1.02944">
        <ele>1.7</ele>
        <time>2020-06-02T10:46:37Z</time>
      </trkpt>
      <trkpt lat="46.29006" lon="-1.02944">
        <ele>1.7</ele>
        <time>2020-06-02T10:46:38Z</time>
      </trkpt>
      <trkpt lat="46.29011" lon="-1.02942">
        <ele>1.7</ele>
        <time>2020-06-02T10:46:39Z</time>
      </trkpt>
      <trkpt lat="46.29014" lon="-1.02941">
        <ele>1.7</ele>
        <time>2020-06-02T10:46:40Z</time>
      </trkpt>
      <trkpt lat="46.29018" lon="-1.0294">
        <ele>1.7</ele>
        <time>2020-06-02T10:46:41Z</time>
      </trkpt>
      <trkpt lat="46.29024" lon="-1.02938">
        <ele>1.6</ele>
        <time>2020-06-02T10:46:42Z</time>
      </trkpt>
      <trkpt lat="46.2903" lon="-1.02936">
        <ele>1.6</ele>
        <time>2020-06-02T10:46:43Z</time>
      </trkpt>
      <trkpt lat="46.29035" lon="-1.02935">
        <ele>1.6</ele>
        <time>2020-06-02T10:46:44Z</time>
      </trkpt>
      <trkpt lat="46.29041" lon="-1.02934">
        <ele>1.6</ele>
        <time>2020-06-02T10:46:45Z</time>
      </trkpt>
      <trkpt lat="46.29046" lon="-1.02932">
        <ele>1.6</ele>
        <time>2020-06-02T10:46:46Z</time>
      </trkpt>
      <trkpt lat="46.29051" lon="-1.0293">
        <ele>1.6</ele>
        <time>2020-06-02T10:46:47Z</time>
      </trkpt>
      <trkpt lat="46.29056" lon="-1.02929">
        <ele>1.6</ele>
        <time>2020-06-02T10:46:48Z</time>
      </trkpt>
      <trkpt lat="46.2906" lon="-1.02927">
        <ele>1.6</ele>
        <time>2020-06-02T10:46:49Z</time>
      </trkpt>
      <trkpt lat="46.29065" lon="-1.02926">
        <ele>1.6</ele>
        <time>2020-06-02T10:46:50Z</time>
      </trkpt>
      <trkpt lat="46.2907" lon="-1.02924">
        <ele>1.7</ele>
        <time>2020-06-02T10:46:51Z</time>
      </trkpt>
      <trkpt lat="46.29075" lon="-1.02922">
        <ele>1.7</ele>
        <time>2020-06-02T10:46:52Z</time>
      </trkpt>
      <trkpt lat="46.2908" lon="-1.0292">
        <ele>1.7</ele>
        <time>2020-06-02T10:46:53Z</time>
      </trkpt>
      <trkpt lat="46.29085" lon="-1.02918">
        <ele>1.7</ele>
        <time>2020-06-02T10:46:54Z</time>
      </trkpt>
      <trkpt lat="46.2909" lon="-1.02915">
        <ele>1.6</ele>
        <time>2020-06-02T10:46:55Z</time>
      </trkpt>
      <trkpt lat="46.29095" lon="-1.02913">
        <ele>1.6</ele>
        <time>2020-06-02T10:46:56Z</time>
      </trkpt>
      <trkpt lat="46.29101" lon="-1.0291">
        <ele>1.6</ele>
        <time>2020-06-02T10:46:57Z</time>
      </trkpt>
      <trkpt lat="46.29106" lon="-1.02908">
        <ele>1.6</ele>
        <time>2020-06-02T10:46:58Z</time>
      </trkpt>
      <trkpt lat="46.29111" lon="-1.02905">
        <ele>1.6</ele>
        <time>2020-06-02T10:46:59Z</time>
      </trkpt>
      <trkpt lat="46.29116" lon="-1.02904">
        <ele>1.6</ele>
        <time>2020-06-02T10:47:00Z</time>
      </trkpt>
      <trkpt lat="46.29121" lon="-1.02903">
        <ele>1.6</ele>
        <time>2020-06-02T10:47:01Z</time>
      </trkpt>
      <trkpt lat="46.29126" lon="-1.02902">
        <ele>1.6</ele>
        <time>2020-06-02T10:47:02Z</time>
      </trkpt>
      <trkpt lat="46.29131" lon="-1.029">
        <ele>1.6</ele>
        <time>2020-06-02T10:47:03Z</time>
      </trkpt>
      <trkpt lat="46.29136" lon="-1.02898">
        <ele>1.6</ele>
        <time>2020-06-02T10:47:04Z</time>
      </trkpt>
      <trkpt lat="46.29141" lon="-1.02897">
        <ele>1.7</ele>
        <time>2020-06-02T10:47:05Z</time>
      </trkpt>
      <trkpt lat="46.29146" lon="-1.02895">
        <ele>1.7</ele>
        <time>2020-06-02T10:47:06Z</time>
      </trkpt>
      <trkpt lat="46.29152" lon="-1.02894">
        <ele>1.8</ele>
        <time>2020-06-02T10:47:07Z</time>
      </trkpt>
      <trkpt lat="46.29158" lon="-1.02892">
        <ele>1.8</ele>
        <time>2020-06-02T10:47:08Z</time>
      </trkpt>
      <trkpt lat="46.29163" lon="-1.02889">
        <ele>1.9</ele>
        <time>2020-06-02T10:47:09Z</time>
      </trkpt>
      <trkpt lat="46.29168" lon="-1.02888">
        <ele>2</ele>
        <time>2020-06-02T10:47:10Z</time>
      </trkpt>
      <trkpt lat="46.29173" lon="-1.02885">
        <ele>2</ele>
        <time>2020-06-02T10:47:11Z</time>
      </trkpt>
      <trkpt lat="46.29178" lon="-1.02882">
        <ele>2.1</ele>
        <time>2020-06-02T10:47:12Z</time>
      </trkpt>
      <trkpt lat="46.29183" lon="-1.02881">
        <ele>2.2</ele>
        <time>2020-06-02T10:47:13Z</time>
      </trkpt>
      <trkpt lat="46.29188" lon="-1.02878">
        <ele>2.2</ele>
        <time>2020-06-02T10:47:14Z</time>
      </trkpt>
      <trkpt lat="46.29193" lon="-1.02875">
        <ele>2.3</ele>
        <time>2020-06-02T10:47:15Z</time>
      </trkpt>
      <trkpt lat="46.29199" lon="-1.02872">
        <ele>2.3</ele>
        <time>2020-06-02T10:47:16Z</time>
      </trkpt>
      <trkpt lat="46.29204" lon="-1.02869">
        <ele>2.4</ele>
        <time>2020-06-02T10:47:17Z</time>
      </trkpt>
      <trkpt lat="46.2921" lon="-1.02866">
        <ele>2.5</ele>
        <time>2020-06-02T10:47:18Z</time>
      </trkpt>
      <trkpt lat="46.29217" lon="-1.02864">
        <ele>2.6</ele>
        <time>2020-06-02T10:47:19Z</time>
      </trkpt>
      <trkpt lat="46.29223" lon="-1.02862">
        <ele>2.7</ele>
        <time>2020-06-02T10:47:20Z</time>
      </trkpt>
      <trkpt lat="46.29227" lon="-1.02861">
        <ele>2.8</ele>
        <time>2020-06-02T10:47:21Z</time>
      </trkpt>
      <trkpt lat="46.29231" lon="-1.02861">
        <ele>2.9</ele>
        <time>2020-06-02T10:47:22Z</time>
      </trkpt>
      <trkpt lat="46.29236" lon="-1.02861">
        <ele>2.9</ele>
        <time>2020-06-02T10:47:23Z</time>
      </trkpt>
      <trkpt lat="46.29241" lon="-1.02859">
        <ele>3</ele>
        <time>2020-06-02T10:47:24Z</time>
      </trkpt>
      <trkpt lat="46.29245" lon="-1.02858">
        <ele>3.1</ele>
        <time>2020-06-02T10:47:25Z</time>
      </trkpt>
      <trkpt lat="46.2925" lon="-1.02856">
        <ele>3.1</ele>
        <time>2020-06-02T10:47:26Z</time>
      </trkpt>
      <trkpt lat="46.29254" lon="-1.02855">
        <ele>3.1</ele>
        <time>2020-06-02T10:47:27Z</time>
      </trkpt>
      <trkpt lat="46.29258" lon="-1.02854">
        <ele>3.2</ele>
        <time>2020-06-02T10:47:28Z</time>
      </trkpt>
      <trkpt lat="46.29262" lon="-1.02853">
        <ele>3.2</ele>
        <time>2020-06-02T10:47:29Z</time>
      </trkpt>
      <trkpt lat="46.29267" lon="-1.02851">
        <ele>3.2</ele>
        <time>2020-06-02T10:47:30Z</time>
      </trkpt>
      <trkpt lat="46.29271" lon="-1.0285">
        <ele>3.1</ele>
        <time>2020-06-02T10:47:31Z</time>
      </trkpt>
      <trkpt lat="46.29275" lon="-1.02848">
        <ele>3.1</ele>
        <time>2020-06-02T10:47:32Z</time>
      </trkpt>
      <trkpt lat="46.2928" lon="-1.02847">
        <ele>3.1</ele>
        <time>2020-06-02T10:47:33Z</time>
      </trkpt>
      <trkpt lat="46.29284" lon="-1.02845">
        <ele>3</ele>
        <time>2020-06-02T10:47:34Z</time>
      </trkpt>
      <trkpt lat="46.29289" lon="-1.02841">
        <ele>3</ele>
        <time>2020-06-02T10:47:35Z</time>
      </trkpt>
      <trkpt lat="46.29294" lon="-1.02838">
        <ele>2.9</ele>
        <time>2020-06-02T10:47:36Z</time>
      </trkpt>
      <trkpt lat="46.29299" lon="-1.02836">
        <ele>2.9</ele>
        <time>2020-06-02T10:47:37Z</time>
      </trkpt>
      <trkpt lat="46.29304" lon="-1.02834">
        <ele>2.8</ele>
        <time>2020-06-02T10:47:38Z</time>
      </trkpt>
      <trkpt lat="46.29309" lon="-1.02831">
        <ele>2.8</ele>
        <time>2020-06-02T10:47:39Z</time>
      </trkpt>
      <trkpt lat="46.29313" lon="-1.0283">
        <ele>2.8</ele>
        <time>2020-06-02T10:47:40Z</time>
      </trkpt>
      <trkpt lat="46.29319" lon="-1.02828">
        <ele>2.7</ele>
        <time>2020-06-02T10:47:41Z</time>
      </trkpt>
      <trkpt lat="46.29324" lon="-1.02825">
        <ele>2.7</ele>
        <time>2020-06-02T10:47:42Z</time>
      </trkpt>
      <trkpt lat="46.29329" lon="-1.02823">
        <ele>2.6</ele>
        <time>2020-06-02T10:47:43Z</time>
      </trkpt>
      <trkpt lat="46.29334" lon="-1.02821">
        <ele>2.6</ele>
        <time>2020-06-02T10:47:44Z</time>
      </trkpt>
      <trkpt lat="46.29339" lon="-1.02819">
        <ele>2.5</ele>
        <time>2020-06-02T10:47:45Z</time>
      </trkpt>
      <trkpt lat="46.29345" lon="-1.02818">
        <ele>2.4</ele>
        <time>2020-06-02T10:47:46Z</time>
      </trkpt>
      <trkpt lat="46.29351" lon="-1.02816">
        <ele>2.4</ele>
        <time>2020-06-02T10:47:47Z</time>
      </trkpt>
      <trkpt lat="46.29356" lon="-1.02814">
        <ele>2.3</ele>
        <time>2020-06-02T10:47:48Z</time>
      </trkpt>
      <trkpt lat="46.29361" lon="-1.02813">
        <ele>2.3</ele>
        <time>2020-06-02T10:47:49Z</time>
      </trkpt>
      <trkpt lat="46.29366" lon="-1.02812">
        <ele>2.2</ele>
        <time>2020-06-02T10:47:50Z</time>
      </trkpt>
      <trkpt lat="46.29372" lon="-1.0281">
        <ele>2.2</ele>
        <time>2020-06-02T10:47:51Z</time>
      </trkpt>
      <trkpt lat="46.29378" lon="-1.02808">
        <ele>2.1</ele>
        <time>2020-06-02T10:47:52Z</time>
      </trkpt>
      <trkpt lat="46.29383" lon="-1.02806">
        <ele>2.1</ele>
        <time>2020-06-02T10:47:53Z</time>
      </trkpt>
      <trkpt lat="46.29389" lon="-1.02804">
        <ele>2</ele>
        <time>2020-06-02T10:47:54Z</time>
      </trkpt>
      <trkpt lat="46.29395" lon="-1.028">
        <ele>2</ele>
        <time>2020-06-02T10:47:55Z</time>
      </trkpt>
      <trkpt lat="46.294" lon="-1.02798">
        <ele>2</ele>
        <time>2020-06-02T10:47:56Z</time>
      </trkpt>
      <trkpt lat="46.29406" lon="-1.02796">
        <ele>2</ele>
        <time>2020-06-02T10:47:57Z</time>
      </trkpt>
      <trkpt lat="46.29412" lon="-1.02794">
        <ele>2</ele>
        <time>2020-06-02T10:47:58Z</time>
      </trkpt>
      <trkpt lat="46.29418" lon="-1.02793">
        <ele>2</ele>
        <time>2020-06-02T10:47:59Z</time>
      </trkpt>
      <trkpt lat="46.29423" lon="-1.02791">
        <ele>2</ele>
        <time>2020-06-02T10:48:00Z</time>
      </trkpt>
      <trkpt lat="46.29428" lon="-1.02789">
        <ele>2</ele>
        <time>2020-06-02T10:48:01Z</time>
      </trkpt>
      <trkpt lat="46.29433" lon="-1.02786">
        <ele>1.9</ele>
        <time>2020-06-02T10:48:02Z</time>
      </trkpt>
      <trkpt lat="46.29438" lon="-1.02784">
        <ele>1.9</ele>
        <time>2020-06-02T10:48:03Z</time>
      </trkpt>
      <trkpt lat="46.29444" lon="-1.02782">
        <ele>1.9</ele>
        <time>2020-06-02T10:48:04Z</time>
      </trkpt>
      <trkpt lat="46.2945" lon="-1.0278">
        <ele>1.9</ele>
        <time>2020-06-02T10:48:05Z</time>
      </trkpt>
      <trkpt lat="46.29456" lon="-1.02778">
        <ele>1.9</ele>
        <time>2020-06-02T10:48:06Z</time>
      </trkpt>
      <trkpt lat="46.29462" lon="-1.02776">
        <ele>1.9</ele>
        <time>2020-06-02T10:48:07Z</time>
      </trkpt>
      <trkpt lat="46.29467" lon="-1.02774">
        <ele>1.9</ele>
        <time>2020-06-02T10:48:08Z</time>
      </trkpt>
      <trkpt lat="46.29473" lon="-1.02772">
        <ele>1.9</ele>
        <time>2020-06-02T10:48:09Z</time>
      </trkpt>
      <trkpt lat="46.29479" lon="-1.02771">
        <ele>1.9</ele>
        <time>2020-06-02T10:48:10Z</time>
      </trkpt>
      <trkpt lat="46.29484" lon="-1.02769">
        <ele>1.9</ele>
        <time>2020-06-02T10:48:11Z</time>
      </trkpt>
      <trkpt lat="46.29489" lon="-1.02767">
        <ele>1.9</ele>
        <time>2020-06-02T10:48:12Z</time>
      </trkpt>
      <trkpt lat="46.29495" lon="-1.02766">
        <ele>1.9</ele>
        <time>2020-06-02T10:48:13Z</time>
      </trkpt>
      <trkpt lat="46.295" lon="-1.02763">
        <ele>1.9</ele>
        <time>2020-06-02T10:48:14Z</time>
      </trkpt>
      <trkpt lat="46.29506" lon="-1.02762">
        <ele>1.9</ele>
        <time>2020-06-02T10:48:15Z</time>
      </trkpt>
      <trkpt lat="46.29512" lon="-1.0276">
        <ele>1.9</ele>
        <time>2020-06-02T10:48:16Z</time>
      </trkpt>
      <trkpt lat="46.29518" lon="-1.02758">
        <ele>1.9</ele>
        <time>2020-06-02T10:48:17Z</time>
      </trkpt>
      <trkpt lat="46.29524" lon="-1.02755">
        <ele>1.9</ele>
        <time>2020-06-02T10:48:18Z</time>
      </trkpt>
      <trkpt lat="46.2953" lon="-1.02752">
        <ele>1.9</ele>
        <time>2020-06-02T10:48:19Z</time>
      </trkpt>
      <trkpt lat="46.29537" lon="-1.0275">
        <ele>1.9</ele>
        <time>2020-06-02T10:48:20Z</time>
      </trkpt>
      <trkpt lat="46.29543" lon="-1.02747">
        <ele>1.9</ele>
        <time>2020-06-02T10:48:21Z</time>
      </trkpt>
      <trkpt lat="46.29548" lon="-1.02745">
        <ele>1.9</ele>
        <time>2020-06-02T10:48:22Z</time>
      </trkpt>
      <trkpt lat="46.29554" lon="-1.02743">
        <ele>1.9</ele>
        <time>2020-06-02T10:48:23Z</time>
      </trkpt>
      <trkpt lat="46.29559" lon="-1.02739">
        <ele>1.9</ele>
        <time>2020-06-02T10:48:24Z</time>
      </trkpt>
      <trkpt lat="46.29564" lon="-1.02737">
        <ele>1.9</ele>
        <time>2020-06-02T10:48:25Z</time>
      </trkpt>
      <trkpt lat="46.29571" lon="-1.02735">
        <ele>1.8</ele>
        <time>2020-06-02T10:48:26Z</time>
      </trkpt>
      <trkpt lat="46.29577" lon="-1.02734">
        <ele>1.8</ele>
        <time>2020-06-02T10:48:27Z</time>
      </trkpt>
      <trkpt lat="46.29583" lon="-1.02732">
        <ele>1.8</ele>
        <time>2020-06-02T10:48:28Z</time>
      </trkpt>
      <trkpt lat="46.29589" lon="-1.02729">
        <ele>1.8</ele>
        <time>2020-06-02T10:48:29Z</time>
      </trkpt>
      <trkpt lat="46.29594" lon="-1.02727">
        <ele>1.8</ele>
        <time>2020-06-02T10:48:30Z</time>
      </trkpt>
      <trkpt lat="46.29599" lon="-1.02726">
        <ele>1.8</ele>
        <time>2020-06-02T10:48:31Z</time>
      </trkpt>
      <trkpt lat="46.29604" lon="-1.02723">
        <ele>1.8</ele>
        <time>2020-06-02T10:48:32Z</time>
      </trkpt>
      <trkpt lat="46.2961" lon="-1.02721">
        <ele>1.8</ele>
        <time>2020-06-02T10:48:33Z</time>
      </trkpt>
      <trkpt lat="46.29616" lon="-1.02718">
        <ele>1.8</ele>
        <time>2020-06-02T10:48:34Z</time>
      </trkpt>
      <trkpt lat="46.29623" lon="-1.02714">
        <ele>1.8</ele>
        <time>2020-06-02T10:48:35Z</time>
      </trkpt>
      <trkpt lat="46.29627" lon="-1.02713">
        <ele>1.8</ele>
        <time>2020-06-02T10:48:36Z</time>
      </trkpt>
      <trkpt lat="46.29633" lon="-1.02712">
        <ele>1.8</ele>
        <time>2020-06-02T10:48:37Z</time>
      </trkpt>
      <trkpt lat="46.29639" lon="-1.0271">
        <ele>1.8</ele>
        <time>2020-06-02T10:48:38Z</time>
      </trkpt>
      <trkpt lat="46.29645" lon="-1.02708">
        <ele>1.8</ele>
        <time>2020-06-02T10:48:39Z</time>
      </trkpt>
      <trkpt lat="46.29652" lon="-1.02706">
        <ele>1.8</ele>
        <time>2020-06-02T10:48:40Z</time>
      </trkpt>
      <trkpt lat="46.29658" lon="-1.02705">
        <ele>1.8</ele>
        <time>2020-06-02T10:48:41Z</time>
      </trkpt>
      <trkpt lat="46.29663" lon="-1.02703">
        <ele>1.8</ele>
        <time>2020-06-02T10:48:42Z</time>
      </trkpt>
      <trkpt lat="46.29668" lon="-1.02701">
        <ele>1.8</ele>
        <time>2020-06-02T10:48:43Z</time>
      </trkpt>
      <trkpt lat="46.29672" lon="-1.02698">
        <ele>1.8</ele>
        <time>2020-06-02T10:48:44Z</time>
      </trkpt>
      <trkpt lat="46.29677" lon="-1.02696">
        <ele>1.8</ele>
        <time>2020-06-02T10:48:45Z</time>
      </trkpt>
      <trkpt lat="46.29683" lon="-1.02693">
        <ele>1.8</ele>
        <time>2020-06-02T10:48:46Z</time>
      </trkpt>
      <trkpt lat="46.29687" lon="-1.02691">
        <ele>1.8</ele>
        <time>2020-06-02T10:48:47Z</time>
      </trkpt>
      <trkpt lat="46.29693" lon="-1.02689">
        <ele>1.8</ele>
        <time>2020-06-02T10:48:48Z</time>
      </trkpt>
      <trkpt lat="46.297" lon="-1.02688">
        <ele>1.8</ele>
        <time>2020-06-02T10:48:49Z</time>
      </trkpt>
      <trkpt lat="46.29706" lon="-1.02686">
        <ele>1.8</ele>
        <time>2020-06-02T10:48:50Z</time>
      </trkpt>
      <trkpt lat="46.29711" lon="-1.02683">
        <ele>1.8</ele>
        <time>2020-06-02T10:48:51Z</time>
      </trkpt>
      <trkpt lat="46.29716" lon="-1.02681">
        <ele>1.9</ele>
        <time>2020-06-02T10:48:52Z</time>
      </trkpt>
      <trkpt lat="46.29721" lon="-1.0268">
        <ele>1.9</ele>
        <time>2020-06-02T10:48:53Z</time>
      </trkpt>
      <trkpt lat="46.29726" lon="-1.02678">
        <ele>1.9</ele>
        <time>2020-06-02T10:48:54Z</time>
      </trkpt>
      <trkpt lat="46.29732" lon="-1.02675">
        <ele>1.9</ele>
        <time>2020-06-02T10:48:55Z</time>
      </trkpt>
      <trkpt lat="46.29738" lon="-1.02672">
        <ele>1.9</ele>
        <time>2020-06-02T10:48:56Z</time>
      </trkpt>
      <trkpt lat="46.29744" lon="-1.0267">
        <ele>1.9</ele>
        <time>2020-06-02T10:48:57Z</time>
      </trkpt>
      <trkpt lat="46.2975" lon="-1.02668">
        <ele>1.9</ele>
        <time>2020-06-02T10:48:58Z</time>
      </trkpt>
      <trkpt lat="46.29755" lon="-1.02666">
        <ele>2</ele>
        <time>2020-06-02T10:48:59Z</time>
      </trkpt>
      <trkpt lat="46.29761" lon="-1.02665">
        <ele>2</ele>
        <time>2020-06-02T10:49:00Z</time>
      </trkpt>
      <trkpt lat="46.29766" lon="-1.02663">
        <ele>2</ele>
        <time>2020-06-02T10:49:01Z</time>
      </trkpt>
      <trkpt lat="46.29771" lon="-1.0266">
        <ele>2</ele>
        <time>2020-06-02T10:49:02Z</time>
      </trkpt>
      <trkpt lat="46.29777" lon="-1.02658">
        <ele>2.1</ele>
        <time>2020-06-02T10:49:03Z</time>
      </trkpt>
      <trkpt lat="46.29782" lon="-1.02657">
        <ele>2.1</ele>
        <time>2020-06-02T10:49:04Z</time>
      </trkpt>
      <trkpt lat="46.29787" lon="-1.02654">
        <ele>2.1</ele>
        <time>2020-06-02T10:49:05Z</time>
      </trkpt>
      <trkpt lat="46.29793" lon="-1.02653">
        <ele>2.1</ele>
        <time>2020-06-02T10:49:06Z</time>
      </trkpt>
      <trkpt lat="46.29798" lon="-1.02651">
        <ele>2.2</ele>
        <time>2020-06-02T10:49:07Z</time>
      </trkpt>
      <trkpt lat="46.29803" lon="-1.02649">
        <ele>2.2</ele>
        <time>2020-06-02T10:49:08Z</time>
      </trkpt>
      <trkpt lat="46.29808" lon="-1.02648">
        <ele>2.2</ele>
        <time>2020-06-02T10:49:09Z</time>
      </trkpt>
      <trkpt lat="46.29813" lon="-1.02645">
        <ele>2.3</ele>
        <time>2020-06-02T10:49:10Z</time>
      </trkpt>
      <trkpt lat="46.29818" lon="-1.02643">
        <ele>2.3</ele>
        <time>2020-06-02T10:49:11Z</time>
      </trkpt>
      <trkpt lat="46.29824" lon="-1.02641">
        <ele>2.3</ele>
        <time>2020-06-02T10:49:12Z</time>
      </trkpt>
      <trkpt lat="46.29829" lon="-1.02639">
        <ele>2.4</ele>
        <time>2020-06-02T10:49:13Z</time>
      </trkpt>
      <trkpt lat="46.29835" lon="-1.02638">
        <ele>2.4</ele>
        <time>2020-06-02T10:49:14Z</time>
      </trkpt>
      <trkpt lat="46.29841" lon="-1.02635">
        <ele>2.4</ele>
        <time>2020-06-02T10:49:15Z</time>
      </trkpt>
      <trkpt lat="46.29846" lon="-1.02634">
        <ele>2.4</ele>
        <time>2020-06-02T10:49:16Z</time>
      </trkpt>
      <trkpt lat="46.29851" lon="-1.02632">
        <ele>2.5</ele>
        <time>2020-06-02T10:49:17Z</time>
      </trkpt>
      <trkpt lat="46.29856" lon="-1.0263">
        <ele>2.5</ele>
        <time>2020-06-02T10:49:18Z</time>
      </trkpt>
      <trkpt lat="46.2986" lon="-1.02629">
        <ele>2.5</ele>
        <time>2020-06-02T10:49:19Z</time>
      </trkpt>
      <trkpt lat="46.29865" lon="-1.02626">
        <ele>2.5</ele>
        <time>2020-06-02T10:49:20Z</time>
      </trkpt>
      <trkpt lat="46.2987" lon="-1.02624">
        <ele>2.5</ele>
        <time>2020-06-02T10:49:21Z</time>
      </trkpt>
      <trkpt lat="46.29874" lon="-1.02621">
        <ele>2.6</ele>
        <time>2020-06-02T10:49:22Z</time>
      </trkpt>
      <trkpt lat="46.2988" lon="-1.0262">
        <ele>2.7</ele>
        <time>2020-06-02T10:49:23Z</time>
      </trkpt>
      <trkpt lat="46.29885" lon="-1.02618">
        <ele>2.8</ele>
        <time>2020-06-02T10:49:24Z</time>
      </trkpt>
      <trkpt lat="46.29889" lon="-1.02616">
        <ele>2.9</ele>
        <time>2020-06-02T10:49:25Z</time>
      </trkpt>
      <trkpt lat="46.29893" lon="-1.02614">
        <ele>3</ele>
        <time>2020-06-02T10:49:26Z</time>
      </trkpt>
      <trkpt lat="46.29897" lon="-1.02609">
        <ele>3.1</ele>
        <time>2020-06-02T10:49:27Z</time>
      </trkpt>
      <trkpt lat="46.29899" lon="-1.02604">
        <ele>3.2</ele>
        <time>2020-06-02T10:49:28Z</time>
      </trkpt>
      <trkpt lat="46.29901" lon="-1.02599">
        <ele>3.3</ele>
        <time>2020-06-02T10:49:29Z</time>
      </trkpt>
      <trkpt lat="46.29902" lon="-1.02593">
        <ele>3.3</ele>
        <time>2020-06-02T10:49:30Z</time>
      </trkpt>
      <trkpt lat="46.29903" lon="-1.02589">
        <ele>3.4</ele>
        <time>2020-06-02T10:49:31Z</time>
      </trkpt>
      <trkpt lat="46.29904" lon="-1.02587">
        <ele>3.3</ele>
        <time>2020-06-02T10:49:32Z</time>
      </trkpt>
      <trkpt lat="46.29906" lon="-1.02586">
        <ele>3.2</ele>
        <time>2020-06-02T10:49:33Z</time>
      </trkpt>
      <trkpt lat="46.2991" lon="-1.02583">
        <ele>3.2</ele>
        <time>2020-06-02T10:49:34Z</time>
      </trkpt>
      <trkpt lat="46.29912" lon="-1.02583">
        <ele>3.2</ele>
        <time>2020-06-02T10:49:35Z</time>
      </trkpt>
      <trkpt lat="46.29915" lon="-1.02581">
        <ele>3.1</ele>
        <time>2020-06-02T10:49:36Z</time>
      </trkpt>
      <trkpt lat="46.29917" lon="-1.0258">
        <ele>3.1</ele>
        <time>2020-06-02T10:49:37Z</time>
      </trkpt>
      <trkpt lat="46.29921" lon="-1.02579">
        <ele>3</ele>
        <time>2020-06-02T10:49:38Z</time>
      </trkpt>
      <trkpt lat="46.29923" lon="-1.02579">
        <ele>3</ele>
        <time>2020-06-02T10:49:39Z</time>
      </trkpt>
      <trkpt lat="46.29926" lon="-1.02579">
        <ele>2.9</ele>
        <time>2020-06-02T10:49:40Z</time>
      </trkpt>
      <trkpt lat="46.29929" lon="-1.02582">
        <ele>2.9</ele>
        <time>2020-06-02T10:49:41Z</time>
      </trkpt>
      <trkpt lat="46.2993" lon="-1.02583">
        <ele>2.8</ele>
        <time>2020-06-02T10:49:42Z</time>
      </trkpt>
      <trkpt lat="46.29932" lon="-1.02586">
        <ele>2.8</ele>
        <time>2020-06-02T10:49:43Z</time>
      </trkpt>
      <trkpt lat="46.29934" lon="-1.0259">
        <ele>2.7</ele>
        <time>2020-06-02T10:49:44Z</time>
      </trkpt>
      <trkpt lat="46.29937" lon="-1.02592">
        <ele>2.7</ele>
        <time>2020-06-02T10:49:45Z</time>
      </trkpt>
      <trkpt lat="46.29939" lon="-1.02593">
        <ele>2.6</ele>
        <time>2020-06-02T10:49:46Z</time>
      </trkpt>
      <trkpt lat="46.29944" lon="-1.02592">
        <ele>2.5</ele>
        <time>2020-06-02T10:49:47Z</time>
      </trkpt>
      <trkpt lat="46.29945" lon="-1.02591">
        <ele>2.5</ele>
        <time>2020-06-02T10:49:48Z</time>
      </trkpt>
      <trkpt lat="46.29949" lon="-1.0259">
        <ele>2.4</ele>
        <time>2020-06-02T10:49:49Z</time>
      </trkpt>
      <trkpt lat="46.29953" lon="-1.02589">
        <ele>2.3</ele>
        <time>2020-06-02T10:49:50Z</time>
      </trkpt>
      <trkpt lat="46.29957" lon="-1.02588">
        <ele>2.2</ele>
        <time>2020-06-02T10:49:51Z</time>
      </trkpt>
      <trkpt lat="46.29961" lon="-1.02586">
        <ele>2.2</ele>
        <time>2020-06-02T10:49:52Z</time>
      </trkpt>
      <trkpt lat="46.29965" lon="-1.02585">
        <ele>2.1</ele>
        <time>2020-06-02T10:49:53Z</time>
      </trkpt>
      <trkpt lat="46.29968" lon="-1.02584">
        <ele>2.1</ele>
        <time>2020-06-02T10:49:54Z</time>
      </trkpt>
      <trkpt lat="46.29972" lon="-1.02583">
        <ele>2.1</ele>
        <time>2020-06-02T10:49:55Z</time>
      </trkpt>
      <trkpt lat="46.29976" lon="-1.02582">
        <ele>2.1</ele>
        <time>2020-06-02T10:49:56Z</time>
      </trkpt>
      <trkpt lat="46.2998" lon="-1.0258">
        <ele>2.1</ele>
        <time>2020-06-02T10:49:57Z</time>
      </trkpt>
      <trkpt lat="46.29984" lon="-1.02578">
        <ele>2.1</ele>
        <time>2020-06-02T10:49:58Z</time>
      </trkpt>
      <trkpt lat="46.29988" lon="-1.02577">
        <ele>2.1</ele>
        <time>2020-06-02T10:49:59Z</time>
      </trkpt>
      <trkpt lat="46.29992" lon="-1.02574">
        <ele>2.1</ele>
        <time>2020-06-02T10:50:00Z</time>
      </trkpt>
      <trkpt lat="46.29995" lon="-1.02574">
        <ele>2.1</ele>
        <time>2020-06-02T10:50:01Z</time>
      </trkpt>
      <trkpt lat="46.29999" lon="-1.02573">
        <ele>2.2</ele>
        <time>2020-06-02T10:50:02Z</time>
      </trkpt>
      <trkpt lat="46.30002" lon="-1.02574">
        <ele>2.2</ele>
        <time>2020-06-02T10:50:03Z</time>
      </trkpt>
      <trkpt lat="46.30006" lon="-1.02572">
        <ele>2.2</ele>
        <time>2020-06-02T10:50:04Z</time>
      </trkpt>
      <trkpt lat="46.3001" lon="-1.02571">
        <ele>2.2</ele>
        <time>2020-06-02T10:50:05Z</time>
      </trkpt>
      <trkpt lat="46.30014" lon="-1.0257">
        <ele>2.2</ele>
        <time>2020-06-02T10:50:06Z</time>
      </trkpt>
      <trkpt lat="46.30018" lon="-1.02569">
        <ele>2.3</ele>
        <time>2020-06-02T10:50:07Z</time>
      </trkpt>
      <trkpt lat="46.30022" lon="-1.02567">
        <ele>2.3</ele>
        <time>2020-06-02T10:50:08Z</time>
      </trkpt>
      <trkpt lat="46.30025" lon="-1.02566">
        <ele>2.3</ele>
        <time>2020-06-02T10:50:09Z</time>
      </trkpt>
      <trkpt lat="46.30029" lon="-1.02564">
        <ele>2.3</ele>
        <time>2020-06-02T10:50:10Z</time>
      </trkpt>
      <trkpt lat="46.30032" lon="-1.02563">
        <ele>2.3</ele>
        <time>2020-06-02T10:50:11Z</time>
      </trkpt>
      <trkpt lat="46.30035" lon="-1.02562">
        <ele>2.3</ele>
        <time>2020-06-02T10:50:12Z</time>
      </trkpt>
      <trkpt lat="46.30039" lon="-1.02562">
        <ele>2.3</ele>
        <time>2020-06-02T10:50:13Z</time>
      </trkpt>
      <trkpt lat="46.30042" lon="-1.02559">
        <ele>2.4</ele>
        <time>2020-06-02T10:50:14Z</time>
      </trkpt>
      <trkpt lat="46.30045" lon="-1.02557">
        <ele>2.3</ele>
        <time>2020-06-02T10:50:15Z</time>
      </trkpt>
      <trkpt lat="46.3005" lon="-1.02556">
        <ele>2.4</ele>
        <time>2020-06-02T10:50:16Z</time>
      </trkpt>
      <trkpt lat="46.30051" lon="-1.02556">
        <ele>2.4</ele>
        <time>2020-06-02T10:50:17Z</time>
      </trkpt>
      <trkpt lat="46.30056" lon="-1.02554">
        <ele>2.4</ele>
        <time>2020-06-02T10:50:18Z</time>
      </trkpt>
      <trkpt lat="46.30059" lon="-1.02553">
        <ele>2.5</ele>
        <time>2020-06-02T10:50:19Z</time>
      </trkpt>
      <trkpt lat="46.30062" lon="-1.02551">
        <ele>2.5</ele>
        <time>2020-06-02T10:50:20Z</time>
      </trkpt>
      <trkpt lat="46.30064" lon="-1.02549">
        <ele>2.6</ele>
        <time>2020-06-02T10:50:21Z</time>
      </trkpt>
      <trkpt lat="46.30067" lon="-1.02546">
        <ele>2.6</ele>
        <time>2020-06-02T10:50:22Z</time>
      </trkpt>
      <trkpt lat="46.30071" lon="-1.02543">
        <ele>2.7</ele>
        <time>2020-06-02T10:50:23Z</time>
      </trkpt>
      <trkpt lat="46.30073" lon="-1.02538">
        <ele>2.8</ele>
        <time>2020-06-02T10:50:24Z</time>
      </trkpt>
      <trkpt lat="46.30073" lon="-1.02536">
        <ele>2.8</ele>
        <time>2020-06-02T10:50:25Z</time>
      </trkpt>
      <trkpt lat="46.30074" lon="-1.02532">
        <ele>2.8</ele>
        <time>2020-06-02T10:50:26Z</time>
      </trkpt>
      <trkpt lat="46.30074" lon="-1.02527">
        <ele>2.9</ele>
        <time>2020-06-02T10:50:27Z</time>
      </trkpt>
      <trkpt lat="46.30074" lon="-1.02525">
        <ele>2.9</ele>
        <time>2020-06-02T10:50:28Z</time>
      </trkpt>
      <trkpt lat="46.30077" lon="-1.02522">
        <ele>3</ele>
        <time>2020-06-02T10:50:29Z</time>
      </trkpt>
      <trkpt lat="46.30079" lon="-1.02519">
        <ele>3</ele>
        <time>2020-06-02T10:50:30Z</time>
      </trkpt>
      <trkpt lat="46.30082" lon="-1.02518">
        <ele>3.1</ele>
        <time>2020-06-02T10:50:31Z</time>
      </trkpt>
      <trkpt lat="46.30085" lon="-1.02519">
        <ele>3.1</ele>
        <time>2020-06-02T10:50:32Z</time>
      </trkpt>
      <trkpt lat="46.30087" lon="-1.02516">
        <ele>3.1</ele>
        <time>2020-06-02T10:50:33Z</time>
      </trkpt>
      <trkpt lat="46.30089" lon="-1.02515">
        <ele>3.2</ele>
        <time>2020-06-02T10:50:34Z</time>
      </trkpt>
      <trkpt lat="46.3009" lon="-1.02514">
        <ele>3.2</ele>
        <time>2020-06-02T10:50:35Z</time>
      </trkpt>
      <trkpt lat="46.30094" lon="-1.02511">
        <ele>3.2</ele>
        <time>2020-06-02T10:50:36Z</time>
      </trkpt>
      <trkpt lat="46.30095" lon="-1.02511">
        <ele>3.2</ele>
        <time>2020-06-02T10:50:37Z</time>
      </trkpt>
      <trkpt lat="46.30098" lon="-1.02509">
        <ele>3.2</ele>
        <time>2020-06-02T10:50:38Z</time>
      </trkpt>
      <trkpt lat="46.30099" lon="-1.02509">
        <ele>3.2</ele>
        <time>2020-06-02T10:50:39Z</time>
      </trkpt>
      <trkpt lat="46.30103" lon="-1.02509">
        <ele>3.2</ele>
        <time>2020-06-02T10:50:40Z</time>
      </trkpt>
      <trkpt lat="46.30104" lon="-1.02509">
        <ele>3.2</ele>
        <time>2020-06-02T10:50:41Z</time>
      </trkpt>
      <trkpt lat="46.30106" lon="-1.02512">
        <ele>3.1</ele>
        <time>2020-06-02T10:50:42Z</time>
      </trkpt>
      <trkpt lat="46.30108" lon="-1.02517">
        <ele>3.1</ele>
        <time>2020-06-02T10:50:43Z</time>
      </trkpt>
      <trkpt lat="46.30111" lon="-1.02522">
        <ele>3.1</ele>
        <time>2020-06-02T10:50:44Z</time>
      </trkpt>
      <trkpt lat="46.30114" lon="-1.02524">
        <ele>3</ele>
        <time>2020-06-02T10:50:45Z</time>
      </trkpt>
      <trkpt lat="46.30117" lon="-1.02525">
        <ele>3</ele>
        <time>2020-06-02T10:50:46Z</time>
      </trkpt>
      <trkpt lat="46.3012" lon="-1.02524">
        <ele>3</ele>
        <time>2020-06-02T10:50:47Z</time>
      </trkpt>
      <trkpt lat="46.30124" lon="-1.02523">
        <ele>3</ele>
        <time>2020-06-02T10:50:48Z</time>
      </trkpt>
      <trkpt lat="46.30128" lon="-1.02521">
        <ele>2.9</ele>
        <time>2020-06-02T10:50:49Z</time>
      </trkpt>
      <trkpt lat="46.30131" lon="-1.02519">
        <ele>2.9</ele>
        <time>2020-06-02T10:50:50Z</time>
      </trkpt>
      <trkpt lat="46.30134" lon="-1.02518">
        <ele>2.9</ele>
        <time>2020-06-02T10:50:51Z</time>
      </trkpt>
      <trkpt lat="46.30137" lon="-1.02519">
        <ele>2.9</ele>
        <time>2020-06-02T10:50:52Z</time>
      </trkpt>
      <trkpt lat="46.3014" lon="-1.02518">
        <ele>2.9</ele>
        <time>2020-06-02T10:50:53Z</time>
      </trkpt>
      <trkpt lat="46.30144" lon="-1.02518">
        <ele>2.8</ele>
        <time>2020-06-02T10:50:54Z</time>
      </trkpt>
      <trkpt lat="46.30147" lon="-1.02518">
        <ele>2.8</ele>
        <time>2020-06-02T10:50:55Z</time>
      </trkpt>
      <trkpt lat="46.30151" lon="-1.02517">
        <ele>2.8</ele>
        <time>2020-06-02T10:50:56Z</time>
      </trkpt>
      <trkpt lat="46.30152" lon="-1.02516">
        <ele>2.7</ele>
        <time>2020-06-02T10:50:57Z</time>
      </trkpt>
      <trkpt lat="46.30155" lon="-1.02516">
        <ele>2.7</ele>
        <time>2020-06-02T10:50:58Z</time>
      </trkpt>
      <trkpt lat="46.30158" lon="-1.02514">
        <ele>2.7</ele>
        <time>2020-06-02T10:50:59Z</time>
      </trkpt>
      <trkpt lat="46.30159" lon="-1.02514">
        <ele>2.7</ele>
        <time>2020-06-02T10:51:00Z</time>
      </trkpt>
      <trkpt lat="46.3016" lon="-1.02513">
        <ele>2.7</ele>
        <time>2020-06-02T10:51:01Z</time>
      </trkpt>
      <trkpt lat="46.30161" lon="-1.02511">
        <ele>2.7</ele>
        <time>2020-06-02T10:51:02Z</time>
      </trkpt>
      <trkpt lat="46.30161" lon="-1.02511">
        <ele>2.7</ele>
        <time>2020-06-02T10:51:03Z</time>
      </trkpt>
      <trkpt lat="46.30162" lon="-1.02511">
        <ele>2.7</ele>
        <time>2020-06-02T10:51:04Z</time>
      </trkpt>
      <trkpt lat="46.30162" lon="-1.02511">
        <ele>2.7</ele>
        <time>2020-06-02T10:51:05Z</time>
      </trkpt>
      <trkpt lat="46.30162" lon="-1.02511">
        <ele>2.7</ele>
        <time>2020-06-02T10:51:06Z</time>
      </trkpt>
      <trkpt lat="46.30162" lon="-1.02511">
        <ele>2.7</ele>
        <time>2020-06-02T10:51:07Z</time>
      </trkpt>
      <trkpt lat="46.30162" lon="-1.02511">
        <ele>2.7</ele>
        <time>2020-06-02T10:51:08Z</time>
      </trkpt>
      <trkpt lat="46.30162" lon="-1.02511">
        <ele>2.7</ele>
        <time>2020-06-02T10:51:09Z</time>
      </trkpt>
      <trkpt lat="46.30162" lon="-1.02511">
        <ele>2.7</ele>
        <time>2020-06-02T10:51:10Z</time>
      </trkpt>
      <trkpt lat="46.30162" lon="-1.02511">
        <ele>2.7</ele>
        <time>2020-06-02T10:51:11Z</time>
      </trkpt>
      <trkpt lat="46.30162" lon="-1.02511">
        <ele>2.7</ele>
        <time>2020-06-02T10:51:12Z</time>
      </trkpt>
      <trkpt lat="46.30162" lon="-1.02511">
        <ele>2.7</ele>
        <time>2020-06-02T10:51:13Z</time>
      </trkpt>
      <trkpt lat="46.30162" lon="-1.02511">
        <ele>2.7</ele>
        <time>2020-06-02T10:51:14Z</time>
      </trkpt>
      <trkpt lat="46.30162" lon="-1.02511">
        <ele>2.7</ele>
        <time>2020-06-02T10:51:15Z</time>
      </trkpt>
      <trkpt lat="46.30161" lon="-1.02511">
        <ele>2.7</ele>
        <time>2020-06-02T10:51:16Z</time>
      </trkpt>
      <trkpt lat="46.30161" lon="-1.02511">
        <ele>2.7</ele>
        <time>2020-06-02T10:51:17Z</time>
      </trkpt>
      <trkpt lat="46.30161" lon="-1.02511">
        <ele>2.7</ele>
        <time>2020-06-02T10:51:18Z</time>
      </trkpt>
      <trkpt lat="46.30161" lon="-1.02511">
        <ele>2.7</ele>
        <time>2020-06-02T10:51:19Z</time>
      </trkpt>
      <trkpt lat="46.30161" lon="-1.02511">
        <ele>2.7</ele>
        <time>2020-06-02T10:51:20Z</time>
      </trkpt>
      <trkpt lat="46.30161" lon="-1.02512">
        <ele>2.7</ele>
        <time>2020-06-02T10:51:21Z</time>
      </trkpt>
      <trkpt lat="46.30161" lon="-1.02512">
        <ele>2.7</ele>
        <time>2020-06-02T10:51:22Z</time>
      </trkpt>
      <trkpt lat="46.30161" lon="-1.02512">
        <ele>2.7</ele>
        <time>2020-06-02T10:51:23Z</time>
      </trkpt>
      <trkpt lat="46.30161" lon="-1.02512">
        <ele>2.7</ele>
        <time>2020-06-02T10:51:24Z</time>
      </trkpt>
      <trkpt lat="46.30161" lon="-1.02512">
        <ele>2.7</ele>
        <time>2020-06-02T10:51:25Z</time>
      </trkpt>
      <trkpt lat="46.30161" lon="-1.02512">
        <ele>2.7</ele>
        <time>2020-06-02T10:51:26Z</time>
      </trkpt>
      <trkpt lat="46.30161" lon="-1.02512">
        <ele>2.7</ele>
        <time>2020-06-02T10:51:27Z</time>
      </trkpt>
      <trkpt lat="46.30161" lon="-1.02512">
        <ele>2.7</ele>
        <time>2020-06-02T10:51:28Z</time>
      </trkpt>
      <trkpt lat="46.30161" lon="-1.02511">
        <ele>2.7</ele>
        <time>2020-06-02T10:51:29Z</time>
      </trkpt>
      <trkpt lat="46.30162" lon="-1.0251">
        <ele>2.7</ele>
        <time>2020-06-02T10:51:30Z</time>
      </trkpt>
      <trkpt lat="46.30164" lon="-1.02509">
        <ele>2.7</ele>
        <time>2020-06-02T10:51:31Z</time>
      </trkpt>
      <trkpt lat="46.30168" lon="-1.02509">
        <ele>2.7</ele>
        <time>2020-06-02T10:51:32Z</time>
      </trkpt>
      <trkpt lat="46.3017" lon="-1.02509">
        <ele>2.7</ele>
        <time>2020-06-02T10:51:33Z</time>
      </trkpt>
      <trkpt lat="46.30173" lon="-1.02507">
        <ele>2.7</ele>
        <time>2020-06-02T10:51:34Z</time>
      </trkpt>
      <trkpt lat="46.30176" lon="-1.02507">
        <ele>2.7</ele>
        <time>2020-06-02T10:51:35Z</time>
      </trkpt>
      <trkpt lat="46.30179" lon="-1.02506">
        <ele>2.8</ele>
        <time>2020-06-02T10:51:36Z</time>
      </trkpt>
      <trkpt lat="46.30182" lon="-1.02503">
        <ele>2.8</ele>
        <time>2020-06-02T10:51:37Z</time>
      </trkpt>
      <trkpt lat="46.30186" lon="-1.02502">
        <ele>2.8</ele>
        <time>2020-06-02T10:51:38Z</time>
      </trkpt>
      <trkpt lat="46.30187" lon="-1.02501">
        <ele>2.9</ele>
        <time>2020-06-02T10:51:39Z</time>
      </trkpt>
      <trkpt lat="46.30191" lon="-1.02501">
        <ele>2.9</ele>
        <time>2020-06-02T10:51:40Z</time>
      </trkpt>
      <trkpt lat="46.30194" lon="-1.02499">
        <ele>2.9</ele>
        <time>2020-06-02T10:51:41Z</time>
      </trkpt>
      <trkpt lat="46.30197" lon="-1.02498">
        <ele>3</ele>
        <time>2020-06-02T10:51:42Z</time>
      </trkpt>
      <trkpt lat="46.30202" lon="-1.02498">
        <ele>3.1</ele>
        <time>2020-06-02T10:51:43Z</time>
      </trkpt>
      <trkpt lat="46.30206" lon="-1.02497">
        <ele>3.1</ele>
        <time>2020-06-02T10:51:44Z</time>
      </trkpt>
      <trkpt lat="46.30209" lon="-1.02495">
        <ele>3.1</ele>
        <time>2020-06-02T10:51:45Z</time>
      </trkpt>
      <trkpt lat="46.30212" lon="-1.02493">
        <ele>3.2</ele>
        <time>2020-06-02T10:51:46Z</time>
      </trkpt>
      <trkpt lat="46.30214" lon="-1.02489">
        <ele>3.2</ele>
        <time>2020-06-02T10:51:47Z</time>
      </trkpt>
      <trkpt lat="46.30216" lon="-1.02486">
        <ele>3.2</ele>
        <time>2020-06-02T10:51:48Z</time>
      </trkpt>
      <trkpt lat="46.30218" lon="-1.02481">
        <ele>3.2</ele>
        <time>2020-06-02T10:51:49Z</time>
      </trkpt>
      <trkpt lat="46.30219" lon="-1.02476">
        <ele>3.3</ele>
        <time>2020-06-02T10:51:50Z</time>
      </trkpt>
      <trkpt lat="46.30222" lon="-1.02473">
        <ele>3.3</ele>
        <time>2020-06-02T10:51:51Z</time>
      </trkpt>
      <trkpt lat="46.30223" lon="-1.0247">
        <ele>3.3</ele>
        <time>2020-06-02T10:51:52Z</time>
      </trkpt>
      <trkpt lat="46.30224" lon="-1.02469">
        <ele>3.3</ele>
        <time>2020-06-02T10:51:53Z</time>
      </trkpt>
      <trkpt lat="46.30226" lon="-1.02467">
        <ele>3.3</ele>
        <time>2020-06-02T10:51:54Z</time>
      </trkpt>
      <trkpt lat="46.30227" lon="-1.02467">
        <ele>3.3</ele>
        <time>2020-06-02T10:51:55Z</time>
      </trkpt>
      <trkpt lat="46.30229" lon="-1.02467">
        <ele>3.3</ele>
        <time>2020-06-02T10:51:56Z</time>
      </trkpt>
      <trkpt lat="46.30232" lon="-1.02469">
        <ele>3.3</ele>
        <time>2020-06-02T10:51:57Z</time>
      </trkpt>
      <trkpt lat="46.30233" lon="-1.02469">
        <ele>3.3</ele>
        <time>2020-06-02T10:51:58Z</time>
      </trkpt>
      <trkpt lat="46.30237" lon="-1.02469">
        <ele>3.3</ele>
        <time>2020-06-02T10:51:59Z</time>
      </trkpt>
      <trkpt lat="46.30238" lon="-1.0247">
        <ele>3.3</ele>
        <time>2020-06-02T10:52:00Z</time>
      </trkpt>
      <trkpt lat="46.30243" lon="-1.02469">
        <ele>3.3</ele>
        <time>2020-06-02T10:52:01Z</time>
      </trkpt>
      <trkpt lat="46.30244" lon="-1.02469">
        <ele>3.3</ele>
        <time>2020-06-02T10:52:02Z</time>
      </trkpt>
      <trkpt lat="46.30248" lon="-1.02468">
        <ele>3.3</ele>
        <time>2020-06-02T10:52:03Z</time>
      </trkpt>
      <trkpt lat="46.3025" lon="-1.02468">
        <ele>3.3</ele>
        <time>2020-06-02T10:52:04Z</time>
      </trkpt>
      <trkpt lat="46.30253" lon="-1.02466">
        <ele>3.3</ele>
        <time>2020-06-02T10:52:05Z</time>
      </trkpt>
      <trkpt lat="46.30258" lon="-1.02465">
        <ele>3.3</ele>
        <time>2020-06-02T10:52:06Z</time>
      </trkpt>
      <trkpt lat="46.30262" lon="-1.02463">
        <ele>3.3</ele>
        <time>2020-06-02T10:52:07Z</time>
      </trkpt>
      <trkpt lat="46.30266" lon="-1.02462">
        <ele>3.3</ele>
        <time>2020-06-02T10:52:08Z</time>
      </trkpt>
      <trkpt lat="46.30269" lon="-1.02462">
        <ele>3.2</ele>
        <time>2020-06-02T10:52:09Z</time>
      </trkpt>
      <trkpt lat="46.30272" lon="-1.02462">
        <ele>3.2</ele>
        <time>2020-06-02T10:52:10Z</time>
      </trkpt>
      <trkpt lat="46.30275" lon="-1.02461">
        <ele>3.2</ele>
        <time>2020-06-02T10:52:11Z</time>
      </trkpt>
      <trkpt lat="46.30279" lon="-1.02458">
        <ele>3.2</ele>
        <time>2020-06-02T10:52:12Z</time>
      </trkpt>
      <trkpt lat="46.30282" lon="-1.02456">
        <ele>3.2</ele>
        <time>2020-06-02T10:52:13Z</time>
      </trkpt>
      <trkpt lat="46.30286" lon="-1.02453">
        <ele>3.2</ele>
        <time>2020-06-02T10:52:14Z</time>
      </trkpt>
      <trkpt lat="46.3029" lon="-1.02452">
        <ele>3.1</ele>
        <time>2020-06-02T10:52:15Z</time>
      </trkpt>
      <trkpt lat="46.30294" lon="-1.0245">
        <ele>3.1</ele>
        <time>2020-06-02T10:52:16Z</time>
      </trkpt>
      <trkpt lat="46.30298" lon="-1.0245">
        <ele>3.1</ele>
        <time>2020-06-02T10:52:17Z</time>
      </trkpt>
      <trkpt lat="46.30302" lon="-1.02449">
        <ele>3</ele>
        <time>2020-06-02T10:52:18Z</time>
      </trkpt>
      <trkpt lat="46.30305" lon="-1.02449">
        <ele>3</ele>
        <time>2020-06-02T10:52:19Z</time>
      </trkpt>
      <trkpt lat="46.3031" lon="-1.0245">
        <ele>3</ele>
        <time>2020-06-02T10:52:20Z</time>
      </trkpt>
      <trkpt lat="46.30312" lon="-1.02452">
        <ele>2.9</ele>
        <time>2020-06-02T10:52:21Z</time>
      </trkpt>
      <trkpt lat="46.30313" lon="-1.02453">
        <ele>2.9</ele>
        <time>2020-06-02T10:52:22Z</time>
      </trkpt>
      <trkpt lat="46.30315" lon="-1.02454">
        <ele>2.9</ele>
        <time>2020-06-02T10:52:23Z</time>
      </trkpt>
      <trkpt lat="46.30316" lon="-1.02455">
        <ele>2.9</ele>
        <time>2020-06-02T10:52:24Z</time>
      </trkpt>
      <trkpt lat="46.30316" lon="-1.02455">
        <ele>2.9</ele>
        <time>2020-06-02T10:52:25Z</time>
      </trkpt>
      <trkpt lat="46.30315" lon="-1.02455">
        <ele>2.9</ele>
        <time>2020-06-02T10:52:26Z</time>
      </trkpt>
      <trkpt lat="46.30315" lon="-1.02455">
        <ele>2.9</ele>
        <time>2020-06-02T10:52:27Z</time>
      </trkpt>
      <trkpt lat="46.30315" lon="-1.02455">
        <ele>2.9</ele>
        <time>2020-06-02T10:52:28Z</time>
      </trkpt>
      <trkpt lat="46.30315" lon="-1.02455">
        <ele>2.9</ele>
        <time>2020-06-02T10:52:29Z</time>
      </trkpt>
      <trkpt lat="46.30316" lon="-1.02454">
        <ele>2.9</ele>
        <time>2020-06-02T10:52:30Z</time>
      </trkpt>
      <trkpt lat="46.30316" lon="-1.02454">
        <ele>2.9</ele>
        <time>2020-06-02T10:52:31Z</time>
      </trkpt>
      <trkpt lat="46.30316" lon="-1.02454">
        <ele>2.9</ele>
        <time>2020-06-02T10:52:32Z</time>
      </trkpt>
      <trkpt lat="46.30316" lon="-1.02454">
        <ele>2.9</ele>
        <time>2020-06-02T10:52:33Z</time>
      </trkpt>
      <trkpt lat="46.30316" lon="-1.02454">
        <ele>2.9</ele>
        <time>2020-06-02T10:52:34Z</time>
      </trkpt>
      <trkpt lat="46.30316" lon="-1.02454">
        <ele>2.9</ele>
        <time>2020-06-02T10:52:35Z</time>
      </trkpt>
      <trkpt lat="46.30316" lon="-1.02454">
        <ele>2.9</ele>
        <time>2020-06-02T10:52:36Z</time>
      </trkpt>
      <trkpt lat="46.30316" lon="-1.02454">
        <ele>2.9</ele>
        <time>2020-06-02T10:52:37Z</time>
      </trkpt>
      <trkpt lat="46.30316" lon="-1.02454">
        <ele>2.9</ele>
        <time>2020-06-02T10:52:38Z</time>
      </trkpt>
      <trkpt lat="46.30316" lon="-1.02454">
        <ele>2.8</ele>
        <time>2020-06-02T10:52:39Z</time>
      </trkpt>
      <trkpt lat="46.30316" lon="-1.02454">
        <ele>2.8</ele>
        <time>2020-06-02T10:52:40Z</time>
      </trkpt>
      <trkpt lat="46.30316" lon="-1.02455">
        <ele>2.8</ele>
        <time>2020-06-02T10:52:41Z</time>
      </trkpt>
      <trkpt lat="46.30316" lon="-1.02455">
        <ele>2.8</ele>
        <time>2020-06-02T10:52:42Z</time>
      </trkpt>
      <trkpt lat="46.30316" lon="-1.02455">
        <ele>2.8</ele>
        <time>2020-06-02T10:52:43Z</time>
      </trkpt>
      <trkpt lat="46.30316" lon="-1.02455">
        <ele>2.8</ele>
        <time>2020-06-02T10:52:44Z</time>
      </trkpt>
      <trkpt lat="46.30316" lon="-1.02455">
        <ele>2.8</ele>
        <time>2020-06-02T10:52:45Z</time>
      </trkpt>
      <trkpt lat="46.30316" lon="-1.02455">
        <ele>2.8</ele>
        <time>2020-06-02T10:52:46Z</time>
      </trkpt>
      <trkpt lat="46.30316" lon="-1.02455">
        <ele>2.8</ele>
        <time>2020-06-02T10:52:47Z</time>
      </trkpt>
      <trkpt lat="46.30316" lon="-1.02455">
        <ele>2.8</ele>
        <time>2020-06-02T10:52:48Z</time>
      </trkpt>
      <trkpt lat="46.30316" lon="-1.02455">
        <ele>2.8</ele>
        <time>2020-06-02T10:52:49Z</time>
      </trkpt>
      <trkpt lat="46.30316" lon="-1.02457">
        <ele>2.8</ele>
        <time>2020-06-02T10:52:50Z</time>
      </trkpt>
      <trkpt lat="46.30315" lon="-1.02457">
        <ele>2.8</ele>
        <time>2020-06-02T10:52:51Z</time>
      </trkpt>
      <trkpt lat="46.30315" lon="-1.02457">
        <ele>2.8</ele>
        <time>2020-06-02T10:52:52Z</time>
      </trkpt>
      <trkpt lat="46.30314" lon="-1.02457">
        <ele>2.8</ele>
        <time>2020-06-02T10:52:53Z</time>
      </trkpt>
      <trkpt lat="46.30314" lon="-1.02457">
        <ele>2.8</ele>
        <time>2020-06-02T10:52:54Z</time>
      </trkpt>
      <trkpt lat="46.30314" lon="-1.02458">
        <ele>2.8</ele>
        <time>2020-06-02T10:52:55Z</time>
      </trkpt>
      <trkpt lat="46.30314" lon="-1.02458">
        <ele>2.8</ele>
        <time>2020-06-02T10:52:56Z</time>
      </trkpt>
      <trkpt lat="46.30313" lon="-1.02459">
        <ele>2.8</ele>
        <time>2020-06-02T10:52:57Z</time>
      </trkpt>
      <trkpt lat="46.30313" lon="-1.02459">
        <ele>2.8</ele>
        <time>2020-06-02T10:52:58Z</time>
      </trkpt>
      <trkpt lat="46.30313" lon="-1.02459">
        <ele>2.8</ele>
        <time>2020-06-02T10:52:59Z</time>
      </trkpt>
      <trkpt lat="46.30313" lon="-1.02459">
        <ele>2.8</ele>
        <time>2020-06-02T10:53:00Z</time>
      </trkpt>
      <trkpt lat="46.30314" lon="-1.02459">
        <ele>2.8</ele>
        <time>2020-06-02T10:53:01Z</time>
      </trkpt>
      <trkpt lat="46.30314" lon="-1.02459">
        <ele>2.8</ele>
        <time>2020-06-02T10:53:02Z</time>
      </trkpt>
      <trkpt lat="46.30313" lon="-1.02459">
        <ele>2.8</ele>
        <time>2020-06-02T10:53:03Z</time>
      </trkpt>
      <trkpt lat="46.30313" lon="-1.02459">
        <ele>2.8</ele>
        <time>2020-06-02T10:53:04Z</time>
      </trkpt>
      <trkpt lat="46.30313" lon="-1.02459">
        <ele>2.8</ele>
        <time>2020-06-02T10:53:05Z</time>
      </trkpt>
      <trkpt lat="46.30313" lon="-1.02459">
        <ele>2.8</ele>
        <time>2020-06-02T10:53:06Z</time>
      </trkpt>
      <trkpt lat="46.30313" lon="-1.02459">
        <ele>2.8</ele>
        <time>2020-06-02T10:53:07Z</time>
      </trkpt>
      <trkpt lat="46.30313" lon="-1.02459">
        <ele>2.8</ele>
        <time>2020-06-02T10:53:08Z</time>
      </trkpt>
      <trkpt lat="46.30313" lon="-1.02459">
        <ele>2.8</ele>
        <time>2020-06-02T10:53:09Z</time>
      </trkpt>
      <trkpt lat="46.30313" lon="-1.02459">
        <ele>2.8</ele>
        <time>2020-06-02T10:53:10Z</time>
      </trkpt>
      <trkpt lat="46.30314" lon="-1.02459">
        <ele>2.8</ele>
        <time>2020-06-02T10:53:11Z</time>
      </trkpt>
      <trkpt lat="46.30313" lon="-1.0246">
        <ele>2.7</ele>
        <time>2020-06-02T10:53:12Z</time>
      </trkpt>
      <trkpt lat="46.30313" lon="-1.0246">
        <ele>2.7</ele>
        <time>2020-06-02T10:53:13Z</time>
      </trkpt>
      <trkpt lat="46.30313" lon="-1.0246">
        <ele>2.7</ele>
        <time>2020-06-02T10:53:14Z</time>
      </trkpt>
      <trkpt lat="46.30313" lon="-1.02461">
        <ele>2.7</ele>
        <time>2020-06-02T10:53:15Z</time>
      </trkpt>
      <trkpt lat="46.30313" lon="-1.02462">
        <ele>2.7</ele>
        <time>2020-06-02T10:53:16Z</time>
      </trkpt>
      <trkpt lat="46.30313" lon="-1.02461">
        <ele>2.7</ele>
        <time>2020-06-02T10:53:17Z</time>
      </trkpt>
      <trkpt lat="46.30313" lon="-1.0246">
        <ele>2.7</ele>
        <time>2020-06-02T10:53:18Z</time>
      </trkpt>
      <trkpt lat="46.30313" lon="-1.0246">
        <ele>2.7</ele>
        <time>2020-06-02T10:53:19Z</time>
      </trkpt>
      <trkpt lat="46.30313" lon="-1.0246">
        <ele>2.7</ele>
        <time>2020-06-02T10:53:20Z</time>
      </trkpt>
      <trkpt lat="46.30314" lon="-1.02459">
        <ele>2.7</ele>
        <time>2020-06-02T10:53:21Z</time>
      </trkpt>
      <trkpt lat="46.30314" lon="-1.02459">
        <ele>2.7</ele>
        <time>2020-06-02T10:53:22Z</time>
      </trkpt>
      <trkpt lat="46.30315" lon="-1.02459">
        <ele>2.7</ele>
        <time>2020-06-02T10:53:23Z</time>
      </trkpt>
      <trkpt lat="46.30316" lon="-1.02459">
        <ele>2.7</ele>
        <time>2020-06-02T10:53:24Z</time>
      </trkpt>
      <trkpt lat="46.30316" lon="-1.02458">
        <ele>2.7</ele>
        <time>2020-06-02T10:53:25Z</time>
      </trkpt>
      <trkpt lat="46.30316" lon="-1.02458">
        <ele>2.7</ele>
        <time>2020-06-02T10:53:26Z</time>
      </trkpt>
      <trkpt lat="46.30315" lon="-1.02458">
        <ele>2.7</ele>
        <time>2020-06-02T10:53:27Z</time>
      </trkpt>
      <trkpt lat="46.30315" lon="-1.02459">
        <ele>2.6</ele>
        <time>2020-06-02T10:53:28Z</time>
      </trkpt>
      <trkpt lat="46.30315" lon="-1.02459">
        <ele>2.6</ele>
        <time>2020-06-02T10:53:29Z</time>
      </trkpt>
      <trkpt lat="46.30315" lon="-1.0246">
        <ele>2.6</ele>
        <time>2020-06-02T10:53:30Z</time>
      </trkpt>
      <trkpt lat="46.30315" lon="-1.02461">
        <ele>2.6</ele>
        <time>2020-06-02T10:53:31Z</time>
      </trkpt>
      <trkpt lat="46.30314" lon="-1.02461">
        <ele>2.6</ele>
        <time>2020-06-02T10:53:32Z</time>
      </trkpt>
      <trkpt lat="46.30314" lon="-1.02461">
        <ele>2.6</ele>
        <time>2020-06-02T10:53:33Z</time>
      </trkpt>
      <trkpt lat="46.30314" lon="-1.02461">
        <ele>2.6</ele>
        <time>2020-06-02T10:53:34Z</time>
      </trkpt>
      <trkpt lat="46.30314" lon="-1.02461">
        <ele>2.6</ele>
        <time>2020-06-02T10:53:35Z</time>
      </trkpt>
      <trkpt lat="46.30314" lon="-1.02461">
        <ele>2.6</ele>
        <time>2020-06-02T10:53:36Z</time>
      </trkpt>
      <trkpt lat="46.30314" lon="-1.02461">
        <ele>2.6</ele>
        <time>2020-06-02T10:53:37Z</time>
      </trkpt>
      <trkpt lat="46.30314" lon="-1.02461">
        <ele>2.6</ele>
        <time>2020-06-02T10:53:38Z</time>
      </trkpt>
      <trkpt lat="46.30314" lon="-1.02461">
        <ele>2.6</ele>
        <time>2020-06-02T10:53:39Z</time>
      </trkpt>
      <trkpt lat="46.30314" lon="-1.02461">
        <ele>2.6</ele>
        <time>2020-06-02T10:53:40Z</time>
      </trkpt>
      <trkpt lat="46.30314" lon="-1.02461">
        <ele>2.6</ele>
        <time>2020-06-02T10:53:41Z</time>
      </trkpt>
      <trkpt lat="46.30313" lon="-1.0246">
        <ele>2.6</ele>
        <time>2020-06-02T10:53:42Z</time>
      </trkpt>
      <trkpt lat="46.30313" lon="-1.0246">
        <ele>2.6</ele>
        <time>2020-06-02T10:53:43Z</time>
      </trkpt>
      <trkpt lat="46.30313" lon="-1.0246">
        <ele>2.6</ele>
        <time>2020-06-02T10:53:44Z</time>
      </trkpt>
      <trkpt lat="46.30314" lon="-1.0246">
        <ele>2.6</ele>
        <time>2020-06-02T10:53:45Z</time>
      </trkpt>
      <trkpt lat="46.30313" lon="-1.0246">
        <ele>2.6</ele>
        <time>2020-06-02T10:53:46Z</time>
      </trkpt>
      <trkpt lat="46.30313" lon="-1.0246">
        <ele>2.6</ele>
        <time>2020-06-02T10:53:47Z</time>
      </trkpt>
      <trkpt lat="46.30313" lon="-1.02461">
        <ele>2.6</ele>
        <time>2020-06-02T10:53:48Z</time>
      </trkpt>
      <trkpt lat="46.30313" lon="-1.02461">
        <ele>2.6</ele>
        <time>2020-06-02T10:53:49Z</time>
      </trkpt>
      <trkpt lat="46.30313" lon="-1.0246">
        <ele>2.6</ele>
        <time>2020-06-02T10:53:50Z</time>
      </trkpt>
      <trkpt lat="46.30313" lon="-1.02461">
        <ele>2.6</ele>
        <time>2020-06-02T10:53:51Z</time>
      </trkpt>
      <trkpt lat="46.30312" lon="-1.0246">
        <ele>2.5</ele>
        <time>2020-06-02T10:53:52Z</time>
      </trkpt>
      <trkpt lat="46.30312" lon="-1.0246">
        <ele>2.5</ele>
        <time>2020-06-02T10:53:53Z</time>
      </trkpt>
      <trkpt lat="46.30312" lon="-1.02461">
        <ele>2.5</ele>
        <time>2020-06-02T10:53:54Z</time>
      </trkpt>
      <trkpt lat="46.30311" lon="-1.0246">
        <ele>2.5</ele>
        <time>2020-06-02T10:53:55Z</time>
      </trkpt>
      <trkpt lat="46.30312" lon="-1.0246">
        <ele>2.5</ele>
        <time>2020-06-02T10:53:56Z</time>
      </trkpt>
      <trkpt lat="46.30311" lon="-1.02459">
        <ele>2.5</ele>
        <time>2020-06-02T10:53:57Z</time>
      </trkpt>
      <trkpt lat="46.30311" lon="-1.0246">
        <ele>2.5</ele>
        <time>2020-06-02T10:53:58Z</time>
      </trkpt>
      <trkpt lat="46.30311" lon="-1.0246">
        <ele>2.5</ele>
        <time>2020-06-02T10:53:59Z</time>
      </trkpt>
      <trkpt lat="46.30311" lon="-1.0246">
        <ele>2.5</ele>
        <time>2020-06-02T10:54:00Z</time>
      </trkpt>
      <trkpt lat="46.30311" lon="-1.0246">
        <ele>2.5</ele>
        <time>2020-06-02T10:54:01Z</time>
      </trkpt>
      <trkpt lat="46.30311" lon="-1.02461">
        <ele>2.5</ele>
        <time>2020-06-02T10:54:02Z</time>
      </trkpt>
      <trkpt lat="46.30311" lon="-1.0246">
        <ele>2.5</ele>
        <time>2020-06-02T10:54:03Z</time>
      </trkpt>
      <trkpt lat="46.30311" lon="-1.02459">
        <ele>2.5</ele>
        <time>2020-06-02T10:54:04Z</time>
      </trkpt>
      <trkpt lat="46.30311" lon="-1.02459">
        <ele>2.5</ele>
        <time>2020-06-02T10:54:05Z</time>
      </trkpt>
      <trkpt lat="46.30311" lon="-1.02459">
        <ele>2.5</ele>
        <time>2020-06-02T10:54:06Z</time>
      </trkpt>
      <trkpt lat="46.30311" lon="-1.02459">
        <ele>2.5</ele>
        <time>2020-06-02T10:54:07Z</time>
      </trkpt>
      <trkpt lat="46.30311" lon="-1.02459">
        <ele>2.5</ele>
        <time>2020-06-02T10:54:08Z</time>
      </trkpt>
      <trkpt lat="46.30311" lon="-1.02459">
        <ele>2.5</ele>
        <time>2020-06-02T10:54:09Z</time>
      </trkpt>
      <trkpt lat="46.30311" lon="-1.0246">
        <ele>2.5</ele>
        <time>2020-06-02T10:54:10Z</time>
      </trkpt>
      <trkpt lat="46.30311" lon="-1.0246">
        <ele>2.5</ele>
        <time>2020-06-02T10:54:11Z</time>
      </trkpt>
      <trkpt lat="46.30311" lon="-1.0246">
        <ele>2.5</ele>
        <time>2020-06-02T10:54:12Z</time>
      </trkpt>
      <trkpt lat="46.30311" lon="-1.02458">
        <ele>2.5</ele>
        <time>2020-06-02T10:54:13Z</time>
      </trkpt>
      <trkpt lat="46.30311" lon="-1.02456">
        <ele>2.5</ele>
        <time>2020-06-02T10:54:14Z</time>
      </trkpt>
      <trkpt lat="46.30312" lon="-1.02456">
        <ele>2.5</ele>
        <time>2020-06-02T10:54:15Z</time>
      </trkpt>
      <trkpt lat="46.30313" lon="-1.02455">
        <ele>2.5</ele>
        <time>2020-06-02T10:54:16Z</time>
      </trkpt>
      <trkpt lat="46.30313" lon="-1.02453">
        <ele>2.5</ele>
        <time>2020-06-02T10:54:17Z</time>
      </trkpt>
      <trkpt lat="46.30314" lon="-1.02453">
        <ele>2.5</ele>
        <time>2020-06-02T10:54:18Z</time>
      </trkpt>
      <trkpt lat="46.30314" lon="-1.02453">
        <ele>2.5</ele>
        <time>2020-06-02T10:54:19Z</time>
      </trkpt>
      <trkpt lat="46.30314" lon="-1.02454">
        <ele>2.5</ele>
        <time>2020-06-02T10:54:20Z</time>
      </trkpt>
      <trkpt lat="46.30314" lon="-1.02454">
        <ele>2.5</ele>
        <time>2020-06-02T10:54:21Z</time>
      </trkpt>
      <trkpt lat="46.30314" lon="-1.02454">
        <ele>2.5</ele>
        <time>2020-06-02T10:54:22Z</time>
      </trkpt>
      <trkpt lat="46.30315" lon="-1.02454">
        <ele>2.4</ele>
        <time>2020-06-02T10:54:23Z</time>
      </trkpt>
      <trkpt lat="46.30316" lon="-1.02454">
        <ele>2.4</ele>
        <time>2020-06-02T10:54:24Z</time>
      </trkpt>
      <trkpt lat="46.30316" lon="-1.02454">
        <ele>2.4</ele>
        <time>2020-06-02T10:54:25Z</time>
      </trkpt>
      <trkpt lat="46.30316" lon="-1.02454">
        <ele>2.4</ele>
        <time>2020-06-02T10:54:26Z</time>
      </trkpt>
      <trkpt lat="46.30316" lon="-1.02455">
        <ele>2.4</ele>
        <time>2020-06-02T10:54:27Z</time>
      </trkpt>
      <trkpt lat="46.30317" lon="-1.02456">
        <ele>2.4</ele>
        <time>2020-06-02T10:54:28Z</time>
      </trkpt>
      <trkpt lat="46.30318" lon="-1.02457">
        <ele>2.4</ele>
        <time>2020-06-02T10:54:29Z</time>
      </trkpt>
      <trkpt lat="46.3032" lon="-1.02457">
        <ele>2.4</ele>
        <time>2020-06-02T10:54:30Z</time>
      </trkpt>
      <trkpt lat="46.30321" lon="-1.02458">
        <ele>2.4</ele>
        <time>2020-06-02T10:54:31Z</time>
      </trkpt>
      <trkpt lat="46.30325" lon="-1.02458">
        <ele>2.4</ele>
        <time>2020-06-02T10:54:32Z</time>
      </trkpt>
      <trkpt lat="46.30326" lon="-1.02457">
        <ele>2.4</ele>
        <time>2020-06-02T10:54:33Z</time>
      </trkpt>
      <trkpt lat="46.30329" lon="-1.02456">
        <ele>2.4</ele>
        <time>2020-06-02T10:54:34Z</time>
      </trkpt>
      <trkpt lat="46.30332" lon="-1.02454">
        <ele>2.4</ele>
        <time>2020-06-02T10:54:35Z</time>
      </trkpt>
      <trkpt lat="46.30336" lon="-1.02453">
        <ele>2.4</ele>
        <time>2020-06-02T10:54:36Z</time>
      </trkpt>
      <trkpt lat="46.30339" lon="-1.02451">
        <ele>2.4</ele>
        <time>2020-06-02T10:54:37Z</time>
      </trkpt>
      <trkpt lat="46.30343" lon="-1.0245">
        <ele>2.4</ele>
        <time>2020-06-02T10:54:38Z</time>
      </trkpt>
      <trkpt lat="46.30346" lon="-1.02448">
        <ele>2.4</ele>
        <time>2020-06-02T10:54:39Z</time>
      </trkpt>
      <trkpt lat="46.3035" lon="-1.02447">
        <ele>2.4</ele>
        <time>2020-06-02T10:54:40Z</time>
      </trkpt>
      <trkpt lat="46.30354" lon="-1.02447">
        <ele>2.4</ele>
        <time>2020-06-02T10:54:41Z</time>
      </trkpt>
      <trkpt lat="46.30357" lon="-1.02446">
        <ele>2.3</ele>
        <time>2020-06-02T10:54:42Z</time>
      </trkpt>
      <trkpt lat="46.30361" lon="-1.02446">
        <ele>2.3</ele>
        <time>2020-06-02T10:54:43Z</time>
      </trkpt>
      <trkpt lat="46.30364" lon="-1.02445">
        <ele>2.3</ele>
        <time>2020-06-02T10:54:44Z</time>
      </trkpt>
      <trkpt lat="46.30367" lon="-1.02443">
        <ele>2.3</ele>
        <time>2020-06-02T10:54:45Z</time>
      </trkpt>
      <trkpt lat="46.30371" lon="-1.02441">
        <ele>2.3</ele>
        <time>2020-06-02T10:54:46Z</time>
      </trkpt>
      <trkpt lat="46.30375" lon="-1.02439">
        <ele>2.3</ele>
        <time>2020-06-02T10:54:47Z</time>
      </trkpt>
      <trkpt lat="46.30379" lon="-1.02438">
        <ele>2.3</ele>
        <time>2020-06-02T10:54:48Z</time>
      </trkpt>
      <trkpt lat="46.30382" lon="-1.02435">
        <ele>2.3</ele>
        <time>2020-06-02T10:54:49Z</time>
      </trkpt>
      <trkpt lat="46.30386" lon="-1.02433">
        <ele>2.3</ele>
        <time>2020-06-02T10:54:50Z</time>
      </trkpt>
      <trkpt lat="46.3039" lon="-1.02432">
        <ele>2.3</ele>
        <time>2020-06-02T10:54:51Z</time>
      </trkpt>
      <trkpt lat="46.30395" lon="-1.02429">
        <ele>2.3</ele>
        <time>2020-06-02T10:54:52Z</time>
      </trkpt>
      <trkpt lat="46.30399" lon="-1.02427">
        <ele>2.3</ele>
        <time>2020-06-02T10:54:53Z</time>
      </trkpt>
      <trkpt lat="46.30403" lon="-1.02426">
        <ele>2.3</ele>
        <time>2020-06-02T10:54:54Z</time>
      </trkpt>
      <trkpt lat="46.30407" lon="-1.02424">
        <ele>2.3</ele>
        <time>2020-06-02T10:54:55Z</time>
      </trkpt>
      <trkpt lat="46.3041" lon="-1.02424">
        <ele>2.3</ele>
        <time>2020-06-02T10:54:56Z</time>
      </trkpt>
      <trkpt lat="46.30413" lon="-1.02423">
        <ele>2.3</ele>
        <time>2020-06-02T10:54:57Z</time>
      </trkpt>
      <trkpt lat="46.30417" lon="-1.02422">
        <ele>2.3</ele>
        <time>2020-06-02T10:54:58Z</time>
      </trkpt>
      <trkpt lat="46.30421" lon="-1.02421">
        <ele>2.3</ele>
        <time>2020-06-02T10:54:59Z</time>
      </trkpt>
      <trkpt lat="46.30424" lon="-1.02421">
        <ele>2.3</ele>
        <time>2020-06-02T10:55:00Z</time>
      </trkpt>
      <trkpt lat="46.30428" lon="-1.02419">
        <ele>2.3</ele>
        <time>2020-06-02T10:55:01Z</time>
      </trkpt>
      <trkpt lat="46.30432" lon="-1.02418">
        <ele>2.3</ele>
        <time>2020-06-02T10:55:02Z</time>
      </trkpt>
      <trkpt lat="46.30436" lon="-1.02415">
        <ele>2.4</ele>
        <time>2020-06-02T10:55:03Z</time>
      </trkpt>
      <trkpt lat="46.3044" lon="-1.02413">
        <ele>2.4</ele>
        <time>2020-06-02T10:55:04Z</time>
      </trkpt>
      <trkpt lat="46.30444" lon="-1.02412">
        <ele>2.4</ele>
        <time>2020-06-02T10:55:05Z</time>
      </trkpt>
      <trkpt lat="46.30447" lon="-1.0241">
        <ele>2.4</ele>
        <time>2020-06-02T10:55:06Z</time>
      </trkpt>
      <trkpt lat="46.30451" lon="-1.02408">
        <ele>2.4</ele>
        <time>2020-06-02T10:55:07Z</time>
      </trkpt>
      <trkpt lat="46.30455" lon="-1.02407">
        <ele>2.4</ele>
        <time>2020-06-02T10:55:08Z</time>
      </trkpt>
      <trkpt lat="46.30459" lon="-1.02404">
        <ele>2.4</ele>
        <time>2020-06-02T10:55:09Z</time>
      </trkpt>
      <trkpt lat="46.30463" lon="-1.02403">
        <ele>2.4</ele>
        <time>2020-06-02T10:55:10Z</time>
      </trkpt>
      <trkpt lat="46.30467" lon="-1.02401">
        <ele>2.4</ele>
        <time>2020-06-02T10:55:11Z</time>
      </trkpt>
      <trkpt lat="46.30471" lon="-1.024">
        <ele>2.4</ele>
        <time>2020-06-02T10:55:12Z</time>
      </trkpt>
      <trkpt lat="46.30475" lon="-1.02398">
        <ele>2.4</ele>
        <time>2020-06-02T10:55:13Z</time>
      </trkpt>
      <trkpt lat="46.30479" lon="-1.02396">
        <ele>2.4</ele>
        <time>2020-06-02T10:55:14Z</time>
      </trkpt>
      <trkpt lat="46.30483" lon="-1.02395">
        <ele>2.4</ele>
        <time>2020-06-02T10:55:15Z</time>
      </trkpt>
      <trkpt lat="46.30487" lon="-1.02393">
        <ele>2.4</ele>
        <time>2020-06-02T10:55:16Z</time>
      </trkpt>
      <trkpt lat="46.30491" lon="-1.02392">
        <ele>2.4</ele>
        <time>2020-06-02T10:55:17Z</time>
      </trkpt>
      <trkpt lat="46.30495" lon="-1.0239">
        <ele>2.4</ele>
        <time>2020-06-02T10:55:18Z</time>
      </trkpt>
      <trkpt lat="46.30499" lon="-1.02388">
        <ele>2.4</ele>
        <time>2020-06-02T10:55:19Z</time>
      </trkpt>
      <trkpt lat="46.30503" lon="-1.02387">
        <ele>2.4</ele>
        <time>2020-06-02T10:55:20Z</time>
      </trkpt>
      <trkpt lat="46.30508" lon="-1.02386">
        <ele>2.4</ele>
        <time>2020-06-02T10:55:21Z</time>
      </trkpt>
      <trkpt lat="46.30512" lon="-1.02384">
        <ele>2.4</ele>
        <time>2020-06-02T10:55:22Z</time>
      </trkpt>
      <trkpt lat="46.30516" lon="-1.02382">
        <ele>2.3</ele>
        <time>2020-06-02T10:55:23Z</time>
      </trkpt>
      <trkpt lat="46.30521" lon="-1.02381">
        <ele>2.3</ele>
        <time>2020-06-02T10:55:24Z</time>
      </trkpt>
      <trkpt lat="46.30526" lon="-1.02381">
        <ele>2.3</ele>
        <time>2020-06-02T10:55:25Z</time>
      </trkpt>
      <trkpt lat="46.30529" lon="-1.02379">
        <ele>2.3</ele>
        <time>2020-06-02T10:55:26Z</time>
      </trkpt>
      <trkpt lat="46.30533" lon="-1.02378">
        <ele>2.3</ele>
        <time>2020-06-02T10:55:27Z</time>
      </trkpt>
      <trkpt lat="46.30536" lon="-1.02377">
        <ele>2.3</ele>
        <time>2020-06-02T10:55:28Z</time>
      </trkpt>
      <trkpt lat="46.30541" lon="-1.02375">
        <ele>2.3</ele>
        <time>2020-06-02T10:55:29Z</time>
      </trkpt>
      <trkpt lat="46.30547" lon="-1.02371">
        <ele>2.3</ele>
        <time>2020-06-02T10:55:30Z</time>
      </trkpt>
      <trkpt lat="46.30551" lon="-1.0237">
        <ele>2.2</ele>
        <time>2020-06-02T10:55:31Z</time>
      </trkpt>
      <trkpt lat="46.30555" lon="-1.02369">
        <ele>2.2</ele>
        <time>2020-06-02T10:55:32Z</time>
      </trkpt>
      <trkpt lat="46.30559" lon="-1.02367">
        <ele>2.2</ele>
        <time>2020-06-02T10:55:33Z</time>
      </trkpt>
      <trkpt lat="46.30564" lon="-1.02366">
        <ele>2.2</ele>
        <time>2020-06-02T10:55:34Z</time>
      </trkpt>
      <trkpt lat="46.30567" lon="-1.02364">
        <ele>2.2</ele>
        <time>2020-06-02T10:55:35Z</time>
      </trkpt>
      <trkpt lat="46.30571" lon="-1.02362">
        <ele>2.2</ele>
        <time>2020-06-02T10:55:36Z</time>
      </trkpt>
      <trkpt lat="46.30575" lon="-1.0236">
        <ele>2.2</ele>
        <time>2020-06-02T10:55:37Z</time>
      </trkpt>
      <trkpt lat="46.30579" lon="-1.02359">
        <ele>2.2</ele>
        <time>2020-06-02T10:55:38Z</time>
      </trkpt>
      <trkpt lat="46.30582" lon="-1.02359">
        <ele>2.2</ele>
        <time>2020-06-02T10:55:39Z</time>
      </trkpt>
      <trkpt lat="46.30587" lon="-1.02356">
        <ele>2.2</ele>
        <time>2020-06-02T10:55:40Z</time>
      </trkpt>
      <trkpt lat="46.30592" lon="-1.02355">
        <ele>2.2</ele>
        <time>2020-06-02T10:55:41Z</time>
      </trkpt>
      <trkpt lat="46.30597" lon="-1.02352">
        <ele>2.2</ele>
        <time>2020-06-02T10:55:42Z</time>
      </trkpt>
      <trkpt lat="46.30603" lon="-1.02351">
        <ele>2.2</ele>
        <time>2020-06-02T10:55:43Z</time>
      </trkpt>
      <trkpt lat="46.30608" lon="-1.02349">
        <ele>2.2</ele>
        <time>2020-06-02T10:55:44Z</time>
      </trkpt>
      <trkpt lat="46.30612" lon="-1.02347">
        <ele>2.2</ele>
        <time>2020-06-02T10:55:45Z</time>
      </trkpt>
      <trkpt lat="46.30617" lon="-1.02345">
        <ele>2.2</ele>
        <time>2020-06-02T10:55:46Z</time>
      </trkpt>
      <trkpt lat="46.30622" lon="-1.02343">
        <ele>2.3</ele>
        <time>2020-06-02T10:55:47Z</time>
      </trkpt>
      <trkpt lat="46.30628" lon="-1.02342">
        <ele>2.3</ele>
        <time>2020-06-02T10:55:48Z</time>
      </trkpt>
      <trkpt lat="46.30633" lon="-1.0234">
        <ele>2.3</ele>
        <time>2020-06-02T10:55:49Z</time>
      </trkpt>
      <trkpt lat="46.30637" lon="-1.02338">
        <ele>2.3</ele>
        <time>2020-06-02T10:55:50Z</time>
      </trkpt>
      <trkpt lat="46.30641" lon="-1.02336">
        <ele>2.3</ele>
        <time>2020-06-02T10:55:51Z</time>
      </trkpt>
      <trkpt lat="46.30645" lon="-1.02333">
        <ele>2.4</ele>
        <time>2020-06-02T10:55:52Z</time>
      </trkpt>
      <trkpt lat="46.30649" lon="-1.02332">
        <ele>2.4</ele>
        <time>2020-06-02T10:55:53Z</time>
      </trkpt>
      <trkpt lat="46.30653" lon="-1.02331">
        <ele>2.4</ele>
        <time>2020-06-02T10:55:54Z</time>
      </trkpt>
      <trkpt lat="46.30656" lon="-1.0233">
        <ele>2.4</ele>
        <time>2020-06-02T10:55:55Z</time>
      </trkpt>
      <trkpt lat="46.30659" lon="-1.02329">
        <ele>2.4</ele>
        <time>2020-06-02T10:55:56Z</time>
      </trkpt>
      <trkpt lat="46.30663" lon="-1.02328">
        <ele>2.4</ele>
        <time>2020-06-02T10:55:57Z</time>
      </trkpt>
      <trkpt lat="46.30668" lon="-1.02326">
        <ele>2.4</ele>
        <time>2020-06-02T10:55:58Z</time>
      </trkpt>
      <trkpt lat="46.30672" lon="-1.02324">
        <ele>2.4</ele>
        <time>2020-06-02T10:55:59Z</time>
      </trkpt>
      <trkpt lat="46.30677" lon="-1.02324">
        <ele>2.4</ele>
        <time>2020-06-02T10:56:00Z</time>
      </trkpt>
      <trkpt lat="46.30679" lon="-1.02323">
        <ele>2.4</ele>
        <time>2020-06-02T10:56:01Z</time>
      </trkpt>
      <trkpt lat="46.30683" lon="-1.0232">
        <ele>2.4</ele>
        <time>2020-06-02T10:56:02Z</time>
      </trkpt>
      <trkpt lat="46.30687" lon="-1.02318">
        <ele>2.4</ele>
        <time>2020-06-02T10:56:03Z</time>
      </trkpt>
      <trkpt lat="46.30691" lon="-1.02315">
        <ele>2.4</ele>
        <time>2020-06-02T10:56:04Z</time>
      </trkpt>
      <trkpt lat="46.30696" lon="-1.02313">
        <ele>2.4</ele>
        <time>2020-06-02T10:56:05Z</time>
      </trkpt>
      <trkpt lat="46.307" lon="-1.02311">
        <ele>2.4</ele>
        <time>2020-06-02T10:56:06Z</time>
      </trkpt>
      <trkpt lat="46.30705" lon="-1.02308">
        <ele>2.4</ele>
        <time>2020-06-02T10:56:07Z</time>
      </trkpt>
      <trkpt lat="46.3071" lon="-1.02305">
        <ele>2.4</ele>
        <time>2020-06-02T10:56:08Z</time>
      </trkpt>
      <trkpt lat="46.30716" lon="-1.02303">
        <ele>2.3</ele>
        <time>2020-06-02T10:56:09Z</time>
      </trkpt>
      <trkpt lat="46.30721" lon="-1.023">
        <ele>2.3</ele>
        <time>2020-06-02T10:56:10Z</time>
      </trkpt>
      <trkpt lat="46.30726" lon="-1.02297">
        <ele>2.3</ele>
        <time>2020-06-02T10:56:11Z</time>
      </trkpt>
      <trkpt lat="46.3073" lon="-1.02294">
        <ele>2.3</ele>
        <time>2020-06-02T10:56:12Z</time>
      </trkpt>
      <trkpt lat="46.30734" lon="-1.0229">
        <ele>2.3</ele>
        <time>2020-06-02T10:56:13Z</time>
      </trkpt>
      <trkpt lat="46.30739" lon="-1.02286">
        <ele>2.3</ele>
        <time>2020-06-02T10:56:14Z</time>
      </trkpt>
      <trkpt lat="46.30745" lon="-1.02283">
        <ele>2.3</ele>
        <time>2020-06-02T10:56:15Z</time>
      </trkpt>
      <trkpt lat="46.30751" lon="-1.02279">
        <ele>2.3</ele>
        <time>2020-06-02T10:56:16Z</time>
      </trkpt>
      <trkpt lat="46.30756" lon="-1.02275">
        <ele>2.3</ele>
        <time>2020-06-02T10:56:17Z</time>
      </trkpt>
      <trkpt lat="46.3076" lon="-1.02272">
        <ele>2.3</ele>
        <time>2020-06-02T10:56:18Z</time>
      </trkpt>
      <trkpt lat="46.30765" lon="-1.02268">
        <ele>2.3</ele>
        <time>2020-06-02T10:56:19Z</time>
      </trkpt>
      <trkpt lat="46.3077" lon="-1.02264">
        <ele>2.3</ele>
        <time>2020-06-02T10:56:20Z</time>
      </trkpt>
      <trkpt lat="46.30774" lon="-1.02261">
        <ele>2.3</ele>
        <time>2020-06-02T10:56:21Z</time>
      </trkpt>
      <trkpt lat="46.30779" lon="-1.02256">
        <ele>2.2</ele>
        <time>2020-06-02T10:56:22Z</time>
      </trkpt>
      <trkpt lat="46.30784" lon="-1.0225">
        <ele>2.2</ele>
        <time>2020-06-02T10:56:23Z</time>
      </trkpt>
      <trkpt lat="46.30788" lon="-1.02246">
        <ele>2.2</ele>
        <time>2020-06-02T10:56:24Z</time>
      </trkpt>
      <trkpt lat="46.30793" lon="-1.02242">
        <ele>2.2</ele>
        <time>2020-06-02T10:56:25Z</time>
      </trkpt>
      <trkpt lat="46.30797" lon="-1.02239">
        <ele>2.2</ele>
        <time>2020-06-02T10:56:26Z</time>
      </trkpt>
      <trkpt lat="46.30801" lon="-1.02236">
        <ele>2.2</ele>
        <time>2020-06-02T10:56:27Z</time>
      </trkpt>
      <trkpt lat="46.30805" lon="-1.02231">
        <ele>2.2</ele>
        <time>2020-06-02T10:56:28Z</time>
      </trkpt>
      <trkpt lat="46.30809" lon="-1.02228">
        <ele>2.2</ele>
        <time>2020-06-02T10:56:29Z</time>
      </trkpt>
      <trkpt lat="46.30813" lon="-1.02224">
        <ele>2.3</ele>
        <time>2020-06-02T10:56:30Z</time>
      </trkpt>
      <trkpt lat="46.30817" lon="-1.0222">
        <ele>2.3</ele>
        <time>2020-06-02T10:56:31Z</time>
      </trkpt>
      <trkpt lat="46.30821" lon="-1.02215">
        <ele>2.4</ele>
        <time>2020-06-02T10:56:32Z</time>
      </trkpt>
      <trkpt lat="46.30825" lon="-1.02212">
        <ele>2.4</ele>
        <time>2020-06-02T10:56:33Z</time>
      </trkpt>
      <trkpt lat="46.30829" lon="-1.02207">
        <ele>2.5</ele>
        <time>2020-06-02T10:56:34Z</time>
      </trkpt>
      <trkpt lat="46.30833" lon="-1.02202">
        <ele>2.6</ele>
        <time>2020-06-02T10:56:35Z</time>
      </trkpt>
      <trkpt lat="46.30837" lon="-1.02197">
        <ele>2.8</ele>
        <time>2020-06-02T10:56:36Z</time>
      </trkpt>
      <trkpt lat="46.30841" lon="-1.02191">
        <ele>2.9</ele>
        <time>2020-06-02T10:56:37Z</time>
      </trkpt>
      <trkpt lat="46.30846" lon="-1.02185">
        <ele>3</ele>
        <time>2020-06-02T10:56:38Z</time>
      </trkpt>
      <trkpt lat="46.3085" lon="-1.02179">
        <ele>3</ele>
        <time>2020-06-02T10:56:39Z</time>
      </trkpt>
      <trkpt lat="46.30854" lon="-1.02174">
        <ele>3</ele>
        <time>2020-06-02T10:56:40Z</time>
      </trkpt>
      <trkpt lat="46.30859" lon="-1.02168">
        <ele>3.1</ele>
        <time>2020-06-02T10:56:41Z</time>
      </trkpt>
      <trkpt lat="46.30863" lon="-1.02162">
        <ele>3.1</ele>
        <time>2020-06-02T10:56:42Z</time>
      </trkpt>
      <trkpt lat="46.30868" lon="-1.02155">
        <ele>3.1</ele>
        <time>2020-06-02T10:56:43Z</time>
      </trkpt>
      <trkpt lat="46.30871" lon="-1.02149">
        <ele>3.1</ele>
        <time>2020-06-02T10:56:44Z</time>
      </trkpt>
      <trkpt lat="46.30875" lon="-1.02144">
        <ele>3.1</ele>
        <time>2020-06-02T10:56:45Z</time>
      </trkpt>
      <trkpt lat="46.30878" lon="-1.02139">
        <ele>3.1</ele>
        <time>2020-06-02T10:56:46Z</time>
      </trkpt>
      <trkpt lat="46.30882" lon="-1.02134">
        <ele>3</ele>
        <time>2020-06-02T10:56:47Z</time>
      </trkpt>
      <trkpt lat="46.30885" lon="-1.0213">
        <ele>3</ele>
        <time>2020-06-02T10:56:48Z</time>
      </trkpt>
      <trkpt lat="46.30888" lon="-1.02124">
        <ele>3</ele>
        <time>2020-06-02T10:56:49Z</time>
      </trkpt>
      <trkpt lat="46.30891" lon="-1.0212">
        <ele>3</ele>
        <time>2020-06-02T10:56:50Z</time>
      </trkpt>
      <trkpt lat="46.30895" lon="-1.02113">
        <ele>2.9</ele>
        <time>2020-06-02T10:56:51Z</time>
      </trkpt>
      <trkpt lat="46.30898" lon="-1.0211">
        <ele>2.9</ele>
        <time>2020-06-02T10:56:52Z</time>
      </trkpt>
      <trkpt lat="46.30901" lon="-1.02104">
        <ele>2.9</ele>
        <time>2020-06-02T10:56:53Z</time>
      </trkpt>
      <trkpt lat="46.30904" lon="-1.02099">
        <ele>2.9</ele>
        <time>2020-06-02T10:56:54Z</time>
      </trkpt>
      <trkpt lat="46.30908" lon="-1.02092">
        <ele>2.9</ele>
        <time>2020-06-02T10:56:55Z</time>
      </trkpt>
      <trkpt lat="46.30912" lon="-1.02086">
        <ele>2.9</ele>
        <time>2020-06-02T10:56:56Z</time>
      </trkpt>
      <trkpt lat="46.30915" lon="-1.0208">
        <ele>2.9</ele>
        <time>2020-06-02T10:56:57Z</time>
      </trkpt>
      <trkpt lat="46.30918" lon="-1.02075">
        <ele>2.9</ele>
        <time>2020-06-02T10:56:58Z</time>
      </trkpt>
      <trkpt lat="46.30921" lon="-1.02069">
        <ele>2.9</ele>
        <time>2020-06-02T10:56:59Z</time>
      </trkpt>
      <trkpt lat="46.30924" lon="-1.02063">
        <ele>2.9</ele>
        <time>2020-06-02T10:57:00Z</time>
      </trkpt>
      <trkpt lat="46.30927" lon="-1.02057">
        <ele>2.8</ele>
        <time>2020-06-02T10:57:01Z</time>
      </trkpt>
      <trkpt lat="46.3093" lon="-1.02049">
        <ele>2.8</ele>
        <time>2020-06-02T10:57:02Z</time>
      </trkpt>
      <trkpt lat="46.30933" lon="-1.02043">
        <ele>2.8</ele>
        <time>2020-06-02T10:57:03Z</time>
      </trkpt>
      <trkpt lat="46.30936" lon="-1.02037">
        <ele>2.7</ele>
        <time>2020-06-02T10:57:04Z</time>
      </trkpt>
      <trkpt lat="46.30939" lon="-1.02031">
        <ele>2.7</ele>
        <time>2020-06-02T10:57:05Z</time>
      </trkpt>
      <trkpt lat="46.30942" lon="-1.02024">
        <ele>2.7</ele>
        <time>2020-06-02T10:57:06Z</time>
      </trkpt>
      <trkpt lat="46.30944" lon="-1.02018">
        <ele>2.6</ele>
        <time>2020-06-02T10:57:07Z</time>
      </trkpt>
      <trkpt lat="46.30948" lon="-1.02008">
        <ele>2.6</ele>
        <time>2020-06-02T10:57:08Z</time>
      </trkpt>
      <trkpt lat="46.3095" lon="-1.02001">
        <ele>2.6</ele>
        <time>2020-06-02T10:57:09Z</time>
      </trkpt>
      <trkpt lat="46.30953" lon="-1.01995">
        <ele>2.5</ele>
        <time>2020-06-02T10:57:10Z</time>
      </trkpt>
      <trkpt lat="46.30955" lon="-1.01989">
        <ele>2.5</ele>
        <time>2020-06-02T10:57:11Z</time>
      </trkpt>
      <trkpt lat="46.30958" lon="-1.01982">
        <ele>2.5</ele>
        <time>2020-06-02T10:57:12Z</time>
      </trkpt>
      <trkpt lat="46.30961" lon="-1.01976">
        <ele>2.5</ele>
        <time>2020-06-02T10:57:13Z</time>
      </trkpt>
      <trkpt lat="46.30963" lon="-1.01968">
        <ele>2.5</ele>
        <time>2020-06-02T10:57:14Z</time>
      </trkpt>
      <trkpt lat="46.30967" lon="-1.01961">
        <ele>2.6</ele>
        <time>2020-06-02T10:57:15Z</time>
      </trkpt>
      <trkpt lat="46.30967" lon="-1.01953">
        <ele>2.6</ele>
        <time>2020-06-02T10:57:16Z</time>
      </trkpt>
      <trkpt lat="46.30969" lon="-1.01946">
        <ele>2.7</ele>
        <time>2020-06-02T10:57:17Z</time>
      </trkpt>
      <trkpt lat="46.30971" lon="-1.0194">
        <ele>2.7</ele>
        <time>2020-06-02T10:57:18Z</time>
      </trkpt>
      <trkpt lat="46.30972" lon="-1.01933">
        <ele>2.8</ele>
        <time>2020-06-02T10:57:19Z</time>
      </trkpt>
      <trkpt lat="46.30974" lon="-1.01925">
        <ele>2.8</ele>
        <time>2020-06-02T10:57:20Z</time>
      </trkpt>
      <trkpt lat="46.30976" lon="-1.01917">
        <ele>2.9</ele>
        <time>2020-06-02T10:57:21Z</time>
      </trkpt>
      <trkpt lat="46.30978" lon="-1.01913">
        <ele>2.9</ele>
        <time>2020-06-02T10:57:22Z</time>
      </trkpt>
      <trkpt lat="46.30981" lon="-1.01906">
        <ele>2.9</ele>
        <time>2020-06-02T10:57:23Z</time>
      </trkpt>
      <trkpt lat="46.30982" lon="-1.01898">
        <ele>2.9</ele>
        <time>2020-06-02T10:57:24Z</time>
      </trkpt>
      <trkpt lat="46.30984" lon="-1.01892">
        <ele>2.9</ele>
        <time>2020-06-02T10:57:25Z</time>
      </trkpt>
      <trkpt lat="46.30986" lon="-1.01886">
        <ele>2.9</ele>
        <time>2020-06-02T10:57:26Z</time>
      </trkpt>
      <trkpt lat="46.30988" lon="-1.01882">
        <ele>2.9</ele>
        <time>2020-06-02T10:57:27Z</time>
      </trkpt>
      <trkpt lat="46.3099" lon="-1.01876">
        <ele>2.9</ele>
        <time>2020-06-02T10:57:28Z</time>
      </trkpt>
      <trkpt lat="46.30992" lon="-1.0187">
        <ele>2.9</ele>
        <time>2020-06-02T10:57:29Z</time>
      </trkpt>
      <trkpt lat="46.30995" lon="-1.01864">
        <ele>2.9</ele>
        <time>2020-06-02T10:57:30Z</time>
      </trkpt>
      <trkpt lat="46.30997" lon="-1.01857">
        <ele>2.9</ele>
        <time>2020-06-02T10:57:31Z</time>
      </trkpt>
      <trkpt lat="46.30999" lon="-1.01851">
        <ele>3</ele>
        <time>2020-06-02T10:57:32Z</time>
      </trkpt>
      <trkpt lat="46.31" lon="-1.01845">
        <ele>3</ele>
        <time>2020-06-02T10:57:33Z</time>
      </trkpt>
      <trkpt lat="46.31003" lon="-1.01838">
        <ele>3</ele>
        <time>2020-06-02T10:57:34Z</time>
      </trkpt>
      <trkpt lat="46.31004" lon="-1.01831">
        <ele>3</ele>
        <time>2020-06-02T10:57:35Z</time>
      </trkpt>
      <trkpt lat="46.31006" lon="-1.01824">
        <ele>3</ele>
        <time>2020-06-02T10:57:36Z</time>
      </trkpt>
      <trkpt lat="46.31008" lon="-1.01817">
        <ele>3</ele>
        <time>2020-06-02T10:57:37Z</time>
      </trkpt>
      <trkpt lat="46.3101" lon="-1.01811">
        <ele>3</ele>
        <time>2020-06-02T10:57:38Z</time>
      </trkpt>
      <trkpt lat="46.31012" lon="-1.01804">
        <ele>3</ele>
        <time>2020-06-02T10:57:39Z</time>
      </trkpt>
      <trkpt lat="46.31015" lon="-1.01797">
        <ele>3</ele>
        <time>2020-06-02T10:57:40Z</time>
      </trkpt>
      <trkpt lat="46.31016" lon="-1.01789">
        <ele>3</ele>
        <time>2020-06-02T10:57:41Z</time>
      </trkpt>
      <trkpt lat="46.3102" lon="-1.01782">
        <ele>3</ele>
        <time>2020-06-02T10:57:42Z</time>
      </trkpt>
      <trkpt lat="46.31021" lon="-1.01774">
        <ele>3</ele>
        <time>2020-06-02T10:57:43Z</time>
      </trkpt>
      <trkpt lat="46.31023" lon="-1.01768">
        <ele>3</ele>
        <time>2020-06-02T10:57:44Z</time>
      </trkpt>
      <trkpt lat="46.31025" lon="-1.01762">
        <ele>3</ele>
        <time>2020-06-02T10:57:45Z</time>
      </trkpt>
      <trkpt lat="46.31027" lon="-1.01755">
        <ele>3</ele>
        <time>2020-06-02T10:57:46Z</time>
      </trkpt>
      <trkpt lat="46.31029" lon="-1.01749">
        <ele>3</ele>
        <time>2020-06-02T10:57:47Z</time>
      </trkpt>
      <trkpt lat="46.31031" lon="-1.01743">
        <ele>3</ele>
        <time>2020-06-02T10:57:48Z</time>
      </trkpt>
      <trkpt lat="46.31033" lon="-1.01736">
        <ele>3</ele>
        <time>2020-06-02T10:57:49Z</time>
      </trkpt>
      <trkpt lat="46.31034" lon="-1.01729">
        <ele>3</ele>
        <time>2020-06-02T10:57:50Z</time>
      </trkpt>
      <trkpt lat="46.31036" lon="-1.01721">
        <ele>3</ele>
        <time>2020-06-02T10:57:51Z</time>
      </trkpt>
      <trkpt lat="46.31038" lon="-1.01714">
        <ele>3</ele>
        <time>2020-06-02T10:57:52Z</time>
      </trkpt>
      <trkpt lat="46.3104" lon="-1.01707">
        <ele>3</ele>
        <time>2020-06-02T10:57:53Z</time>
      </trkpt>
      <trkpt lat="46.31042" lon="-1.01701">
        <ele>3</ele>
        <time>2020-06-02T10:57:54Z</time>
      </trkpt>
      <trkpt lat="46.31045" lon="-1.01694">
        <ele>3</ele>
        <time>2020-06-02T10:57:55Z</time>
      </trkpt>
      <trkpt lat="46.31046" lon="-1.01687">
        <ele>3</ele>
        <time>2020-06-02T10:57:56Z</time>
      </trkpt>
      <trkpt lat="46.31048" lon="-1.01681">
        <ele>2.9</ele>
        <time>2020-06-02T10:57:57Z</time>
      </trkpt>
      <trkpt lat="46.3105" lon="-1.01674">
        <ele>2.9</ele>
        <time>2020-06-02T10:57:58Z</time>
      </trkpt>
      <trkpt lat="46.31052" lon="-1.01667">
        <ele>2.9</ele>
        <time>2020-06-02T10:57:59Z</time>
      </trkpt>
      <trkpt lat="46.31054" lon="-1.0166">
        <ele>2.9</ele>
        <time>2020-06-02T10:58:00Z</time>
      </trkpt>
      <trkpt lat="46.31056" lon="-1.01653">
        <ele>2.9</ele>
        <time>2020-06-02T10:58:01Z</time>
      </trkpt>
      <trkpt lat="46.31058" lon="-1.01647">
        <ele>2.9</ele>
        <time>2020-06-02T10:58:02Z</time>
      </trkpt>
      <trkpt lat="46.3106" lon="-1.01641">
        <ele>2.8</ele>
        <time>2020-06-02T10:58:03Z</time>
      </trkpt>
      <trkpt lat="46.31063" lon="-1.01635">
        <ele>2.8</ele>
        <time>2020-06-02T10:58:04Z</time>
      </trkpt>
      <trkpt lat="46.31065" lon="-1.01628">
        <ele>2.8</ele>
        <time>2020-06-02T10:58:05Z</time>
      </trkpt>
      <trkpt lat="46.31067" lon="-1.01621">
        <ele>2.8</ele>
        <time>2020-06-02T10:58:06Z</time>
      </trkpt>
      <trkpt lat="46.3107" lon="-1.01615">
        <ele>2.8</ele>
        <time>2020-06-02T10:58:07Z</time>
      </trkpt>
      <trkpt lat="46.31072" lon="-1.01608">
        <ele>2.8</ele>
        <time>2020-06-02T10:58:08Z</time>
      </trkpt>
      <trkpt lat="46.31074" lon="-1.01601">
        <ele>2.7</ele>
        <time>2020-06-02T10:58:09Z</time>
      </trkpt>
      <trkpt lat="46.31076" lon="-1.01595">
        <ele>2.7</ele>
        <time>2020-06-02T10:58:10Z</time>
      </trkpt>
      <trkpt lat="46.31079" lon="-1.0159">
        <ele>2.7</ele>
        <time>2020-06-02T10:58:11Z</time>
      </trkpt>
      <trkpt lat="46.31081" lon="-1.01584">
        <ele>2.7</ele>
        <time>2020-06-02T10:58:12Z</time>
      </trkpt>
      <trkpt lat="46.31083" lon="-1.01578">
        <ele>2.7</ele>
        <time>2020-06-02T10:58:13Z</time>
      </trkpt>
      <trkpt lat="46.31084" lon="-1.01572">
        <ele>2.7</ele>
        <time>2020-06-02T10:58:14Z</time>
      </trkpt>
      <trkpt lat="46.31087" lon="-1.01565">
        <ele>2.7</ele>
        <time>2020-06-02T10:58:15Z</time>
      </trkpt>
      <trkpt lat="46.31088" lon="-1.01559">
        <ele>2.7</ele>
        <time>2020-06-02T10:58:16Z</time>
      </trkpt>
      <trkpt lat="46.31088" lon="-1.01553">
        <ele>2.7</ele>
        <time>2020-06-02T10:58:17Z</time>
      </trkpt>
      <trkpt lat="46.3109" lon="-1.01547">
        <ele>2.7</ele>
        <time>2020-06-02T10:58:18Z</time>
      </trkpt>
      <trkpt lat="46.31092" lon="-1.01539">
        <ele>2.7</ele>
        <time>2020-06-02T10:58:19Z</time>
      </trkpt>
      <trkpt lat="46.31094" lon="-1.01532">
        <ele>2.7</ele>
        <time>2020-06-02T10:58:20Z</time>
      </trkpt>
      <trkpt lat="46.31097" lon="-1.01524">
        <ele>2.7</ele>
        <time>2020-06-02T10:58:21Z</time>
      </trkpt>
      <trkpt lat="46.31099" lon="-1.01517">
        <ele>2.7</ele>
        <time>2020-06-02T10:58:22Z</time>
      </trkpt>
      <trkpt lat="46.31102" lon="-1.0151">
        <ele>2.7</ele>
        <time>2020-06-02T10:58:23Z</time>
      </trkpt>
      <trkpt lat="46.31104" lon="-1.01503">
        <ele>2.7</ele>
        <time>2020-06-02T10:58:24Z</time>
      </trkpt>
      <trkpt lat="46.31106" lon="-1.01496">
        <ele>2.7</ele>
        <time>2020-06-02T10:58:25Z</time>
      </trkpt>
      <trkpt lat="46.31108" lon="-1.0149">
        <ele>2.7</ele>
        <time>2020-06-02T10:58:26Z</time>
      </trkpt>
      <trkpt lat="46.31111" lon="-1.01482">
        <ele>2.7</ele>
        <time>2020-06-02T10:58:27Z</time>
      </trkpt>
      <trkpt lat="46.31112" lon="-1.01477">
        <ele>2.7</ele>
        <time>2020-06-02T10:58:28Z</time>
      </trkpt>
      <trkpt lat="46.31113" lon="-1.0147">
        <ele>2.7</ele>
        <time>2020-06-02T10:58:29Z</time>
      </trkpt>
      <trkpt lat="46.31116" lon="-1.01461">
        <ele>2.7</ele>
        <time>2020-06-02T10:58:30Z</time>
      </trkpt>
      <trkpt lat="46.31118" lon="-1.01454">
        <ele>2.7</ele>
        <time>2020-06-02T10:58:31Z</time>
      </trkpt>
      <trkpt lat="46.3112" lon="-1.01447">
        <ele>2.7</ele>
        <time>2020-06-02T10:58:32Z</time>
      </trkpt>
      <trkpt lat="46.31123" lon="-1.01442">
        <ele>2.7</ele>
        <time>2020-06-02T10:58:33Z</time>
      </trkpt>
      <trkpt lat="46.31124" lon="-1.01435">
        <ele>2.7</ele>
        <time>2020-06-02T10:58:34Z</time>
      </trkpt>
      <trkpt lat="46.31126" lon="-1.01427">
        <ele>2.7</ele>
        <time>2020-06-02T10:58:35Z</time>
      </trkpt>
      <trkpt lat="46.31128" lon="-1.01418">
        <ele>2.7</ele>
        <time>2020-06-02T10:58:36Z</time>
      </trkpt>
      <trkpt lat="46.3113" lon="-1.0141">
        <ele>2.7</ele>
        <time>2020-06-02T10:58:37Z</time>
      </trkpt>
      <trkpt lat="46.31133" lon="-1.01403">
        <ele>2.7</ele>
        <time>2020-06-02T10:58:38Z</time>
      </trkpt>
      <trkpt lat="46.31135" lon="-1.01396">
        <ele>2.7</ele>
        <time>2020-06-02T10:58:39Z</time>
      </trkpt>
      <trkpt lat="46.31137" lon="-1.01389">
        <ele>2.7</ele>
        <time>2020-06-02T10:58:40Z</time>
      </trkpt>
      <trkpt lat="46.31139" lon="-1.0138">
        <ele>2.7</ele>
        <time>2020-06-02T10:58:41Z</time>
      </trkpt>
      <trkpt lat="46.31141" lon="-1.01373">
        <ele>2.7</ele>
        <time>2020-06-02T10:58:42Z</time>
      </trkpt>
      <trkpt lat="46.31143" lon="-1.01366">
        <ele>2.7</ele>
        <time>2020-06-02T10:58:43Z</time>
      </trkpt>
      <trkpt lat="46.31145" lon="-1.01359">
        <ele>2.6</ele>
        <time>2020-06-02T10:58:44Z</time>
      </trkpt>
      <trkpt lat="46.31147" lon="-1.01353">
        <ele>2.6</ele>
        <time>2020-06-02T10:58:45Z</time>
      </trkpt>
      <trkpt lat="46.31149" lon="-1.01347">
        <ele>2.6</ele>
        <time>2020-06-02T10:58:46Z</time>
      </trkpt>
      <trkpt lat="46.31151" lon="-1.0134">
        <ele>2.6</ele>
        <time>2020-06-02T10:58:47Z</time>
      </trkpt>
      <trkpt lat="46.31154" lon="-1.01332">
        <ele>2.7</ele>
        <time>2020-06-02T10:58:48Z</time>
      </trkpt>
      <trkpt lat="46.31157" lon="-1.01325">
        <ele>2.7</ele>
        <time>2020-06-02T10:58:49Z</time>
      </trkpt>
      <trkpt lat="46.3116" lon="-1.01318">
        <ele>2.7</ele>
        <time>2020-06-02T10:58:50Z</time>
      </trkpt>
      <trkpt lat="46.31161" lon="-1.01311">
        <ele>2.8</ele>
        <time>2020-06-02T10:58:51Z</time>
      </trkpt>
      <trkpt lat="46.31164" lon="-1.01304">
        <ele>2.8</ele>
        <time>2020-06-02T10:58:52Z</time>
      </trkpt>
      <trkpt lat="46.31166" lon="-1.01296">
        <ele>2.8</ele>
        <time>2020-06-02T10:58:53Z</time>
      </trkpt>
      <trkpt lat="46.31168" lon="-1.0129">
        <ele>2.8</ele>
        <time>2020-06-02T10:58:54Z</time>
      </trkpt>
      <trkpt lat="46.3117" lon="-1.01282">
        <ele>2.8</ele>
        <time>2020-06-02T10:58:55Z</time>
      </trkpt>
      <trkpt lat="46.31173" lon="-1.01276">
        <ele>2.9</ele>
        <time>2020-06-02T10:58:56Z</time>
      </trkpt>
      <trkpt lat="46.31175" lon="-1.0127">
        <ele>2.9</ele>
        <time>2020-06-02T10:58:57Z</time>
      </trkpt>
      <trkpt lat="46.31177" lon="-1.01262">
        <ele>2.9</ele>
        <time>2020-06-02T10:58:58Z</time>
      </trkpt>
      <trkpt lat="46.31179" lon="-1.01255">
        <ele>2.9</ele>
        <time>2020-06-02T10:58:59Z</time>
      </trkpt>
      <trkpt lat="46.31182" lon="-1.01248">
        <ele>3</ele>
        <time>2020-06-02T10:59:00Z</time>
      </trkpt>
      <trkpt lat="46.31184" lon="-1.01242">
        <ele>3</ele>
        <time>2020-06-02T10:59:01Z</time>
      </trkpt>
      <trkpt lat="46.31186" lon="-1.01234">
        <ele>3</ele>
        <time>2020-06-02T10:59:02Z</time>
      </trkpt>
      <trkpt lat="46.31188" lon="-1.01228">
        <ele>3</ele>
        <time>2020-06-02T10:59:03Z</time>
      </trkpt>
      <trkpt lat="46.3119" lon="-1.01221">
        <ele>3</ele>
        <time>2020-06-02T10:59:04Z</time>
      </trkpt>
      <trkpt lat="46.31192" lon="-1.01213">
        <ele>3.1</ele>
        <time>2020-06-02T10:59:05Z</time>
      </trkpt>
      <trkpt lat="46.31194" lon="-1.01205">
        <ele>3.1</ele>
        <time>2020-06-02T10:59:06Z</time>
      </trkpt>
      <trkpt lat="46.31196" lon="-1.01198">
        <ele>3.1</ele>
        <time>2020-06-02T10:59:07Z</time>
      </trkpt>
      <trkpt lat="46.31199" lon="-1.0119">
        <ele>3.1</ele>
        <time>2020-06-02T10:59:08Z</time>
      </trkpt>
      <trkpt lat="46.31201" lon="-1.01182">
        <ele>3.2</ele>
        <time>2020-06-02T10:59:09Z</time>
      </trkpt>
      <trkpt lat="46.31203" lon="-1.01174">
        <ele>3.2</ele>
        <time>2020-06-02T10:59:10Z</time>
      </trkpt>
      <trkpt lat="46.31205" lon="-1.01168">
        <ele>3.2</ele>
        <time>2020-06-02T10:59:11Z</time>
      </trkpt>
      <trkpt lat="46.31207" lon="-1.01162">
        <ele>3.2</ele>
        <time>2020-06-02T10:59:12Z</time>
      </trkpt>
      <trkpt lat="46.31209" lon="-1.01155">
        <ele>3.3</ele>
        <time>2020-06-02T10:59:13Z</time>
      </trkpt>
      <trkpt lat="46.31211" lon="-1.01148">
        <ele>3.3</ele>
        <time>2020-06-02T10:59:14Z</time>
      </trkpt>
      <trkpt lat="46.31213" lon="-1.01141">
        <ele>3.3</ele>
        <time>2020-06-02T10:59:15Z</time>
      </trkpt>
      <trkpt lat="46.31216" lon="-1.01133">
        <ele>3.3</ele>
        <time>2020-06-02T10:59:16Z</time>
      </trkpt>
      <trkpt lat="46.31219" lon="-1.01126">
        <ele>3.3</ele>
        <time>2020-06-02T10:59:17Z</time>
      </trkpt>
      <trkpt lat="46.31221" lon="-1.01119">
        <ele>3.4</ele>
        <time>2020-06-02T10:59:18Z</time>
      </trkpt>
      <trkpt lat="46.31224" lon="-1.01112">
        <ele>3.4</ele>
        <time>2020-06-02T10:59:19Z</time>
      </trkpt>
      <trkpt lat="46.31227" lon="-1.01105">
        <ele>3.4</ele>
        <time>2020-06-02T10:59:20Z</time>
      </trkpt>
      <trkpt lat="46.31228" lon="-1.01098">
        <ele>3.4</ele>
        <time>2020-06-02T10:59:21Z</time>
      </trkpt>
      <trkpt lat="46.31229" lon="-1.0109">
        <ele>3.5</ele>
        <time>2020-06-02T10:59:22Z</time>
      </trkpt>
      <trkpt lat="46.31231" lon="-1.01083">
        <ele>3.5</ele>
        <time>2020-06-02T10:59:23Z</time>
      </trkpt>
      <trkpt lat="46.31233" lon="-1.01075">
        <ele>3.5</ele>
        <time>2020-06-02T10:59:24Z</time>
      </trkpt>
      <trkpt lat="46.31234" lon="-1.01068">
        <ele>3.5</ele>
        <time>2020-06-02T10:59:25Z</time>
      </trkpt>
      <trkpt lat="46.31237" lon="-1.01061">
        <ele>3.5</ele>
        <time>2020-06-02T10:59:26Z</time>
      </trkpt>
      <trkpt lat="46.31239" lon="-1.01053">
        <ele>3.6</ele>
        <time>2020-06-02T10:59:27Z</time>
      </trkpt>
      <trkpt lat="46.31241" lon="-1.01044">
        <ele>3.6</ele>
        <time>2020-06-02T10:59:28Z</time>
      </trkpt>
      <trkpt lat="46.31243" lon="-1.01036">
        <ele>3.6</ele>
        <time>2020-06-02T10:59:29Z</time>
      </trkpt>
      <trkpt lat="46.31246" lon="-1.01028">
        <ele>3.7</ele>
        <time>2020-06-02T10:59:30Z</time>
      </trkpt>
      <trkpt lat="46.31248" lon="-1.01019">
        <ele>3.7</ele>
        <time>2020-06-02T10:59:31Z</time>
      </trkpt>
      <trkpt lat="46.31251" lon="-1.01012">
        <ele>3.7</ele>
        <time>2020-06-02T10:59:32Z</time>
      </trkpt>
      <trkpt lat="46.31253" lon="-1.01003">
        <ele>3.7</ele>
        <time>2020-06-02T10:59:33Z</time>
      </trkpt>
      <trkpt lat="46.31256" lon="-1.00995">
        <ele>3.8</ele>
        <time>2020-06-02T10:59:34Z</time>
      </trkpt>
      <trkpt lat="46.31258" lon="-1.00986">
        <ele>3.8</ele>
        <time>2020-06-02T10:59:35Z</time>
      </trkpt>
      <trkpt lat="46.3126" lon="-1.00979">
        <ele>3.8</ele>
        <time>2020-06-02T10:59:36Z</time>
      </trkpt>
      <trkpt lat="46.31263" lon="-1.00971">
        <ele>3.8</ele>
        <time>2020-06-02T10:59:37Z</time>
      </trkpt>
      <trkpt lat="46.31265" lon="-1.00963">
        <ele>3.9</ele>
        <time>2020-06-02T10:59:38Z</time>
      </trkpt>
      <trkpt lat="46.31267" lon="-1.00955">
        <ele>3.9</ele>
        <time>2020-06-02T10:59:39Z</time>
      </trkpt>
      <trkpt lat="46.3127" lon="-1.00946">
        <ele>3.9</ele>
        <time>2020-06-02T10:59:40Z</time>
      </trkpt>
      <trkpt lat="46.31272" lon="-1.00938">
        <ele>4</ele>
        <time>2020-06-02T10:59:41Z</time>
      </trkpt>
      <trkpt lat="46.31275" lon="-1.0093">
        <ele>4</ele>
        <time>2020-06-02T10:59:42Z</time>
      </trkpt>
      <trkpt lat="46.31278" lon="-1.00923">
        <ele>4</ele>
        <time>2020-06-02T10:59:43Z</time>
      </trkpt>
      <trkpt lat="46.3128" lon="-1.00916">
        <ele>4.1</ele>
        <time>2020-06-02T10:59:44Z</time>
      </trkpt>
      <trkpt lat="46.31283" lon="-1.00909">
        <ele>4.1</ele>
        <time>2020-06-02T10:59:45Z</time>
      </trkpt>
      <trkpt lat="46.31286" lon="-1.00901">
        <ele>4.1</ele>
        <time>2020-06-02T10:59:46Z</time>
      </trkpt>
      <trkpt lat="46.31287" lon="-1.00895">
        <ele>4.1</ele>
        <time>2020-06-02T10:59:47Z</time>
      </trkpt>
      <trkpt lat="46.31289" lon="-1.00887">
        <ele>4.2</ele>
        <time>2020-06-02T10:59:48Z</time>
      </trkpt>
      <trkpt lat="46.31292" lon="-1.00879">
        <ele>4.2</ele>
        <time>2020-06-02T10:59:49Z</time>
      </trkpt>
      <trkpt lat="46.31294" lon="-1.00871">
        <ele>4.2</ele>
        <time>2020-06-02T10:59:50Z</time>
      </trkpt>
      <trkpt lat="46.31296" lon="-1.00863">
        <ele>4.1</ele>
        <time>2020-06-02T10:59:51Z</time>
      </trkpt>
      <trkpt lat="46.31298" lon="-1.00857">
        <ele>4.1</ele>
        <time>2020-06-02T10:59:52Z</time>
      </trkpt>
      <trkpt lat="46.313" lon="-1.0085">
        <ele>4.1</ele>
        <time>2020-06-02T10:59:53Z</time>
      </trkpt>
      <trkpt lat="46.31301" lon="-1.00845">
        <ele>4.1</ele>
        <time>2020-06-02T10:59:54Z</time>
      </trkpt>
      <trkpt lat="46.31304" lon="-1.00839">
        <ele>4.1</ele>
        <time>2020-06-02T10:59:55Z</time>
      </trkpt>
      <trkpt lat="46.31305" lon="-1.00832">
        <ele>4.1</ele>
        <time>2020-06-02T10:59:56Z</time>
      </trkpt>
      <trkpt lat="46.31306" lon="-1.00826">
        <ele>4.1</ele>
        <time>2020-06-02T10:59:57Z</time>
      </trkpt>
      <trkpt lat="46.31308" lon="-1.0082">
        <ele>4.1</ele>
        <time>2020-06-02T10:59:58Z</time>
      </trkpt>
      <trkpt lat="46.3131" lon="-1.00813">
        <ele>4</ele>
        <time>2020-06-02T10:59:59Z</time>
      </trkpt>
      <trkpt lat="46.31312" lon="-1.00806">
        <ele>4</ele>
        <time>2020-06-02T11:00:00Z</time>
      </trkpt>
      <trkpt lat="46.31315" lon="-1.00799">
        <ele>4</ele>
        <time>2020-06-02T11:00:01Z</time>
      </trkpt>
      <trkpt lat="46.31317" lon="-1.00791">
        <ele>4</ele>
        <time>2020-06-02T11:00:02Z</time>
      </trkpt>
      <trkpt lat="46.31319" lon="-1.00784">
        <ele>4</ele>
        <time>2020-06-02T11:00:03Z</time>
      </trkpt>
      <trkpt lat="46.31321" lon="-1.00776">
        <ele>4</ele>
        <time>2020-06-02T11:00:04Z</time>
      </trkpt>
      <trkpt lat="46.31323" lon="-1.00768">
        <ele>3.9</ele>
        <time>2020-06-02T11:00:05Z</time>
      </trkpt>
      <trkpt lat="46.31326" lon="-1.0076">
        <ele>3.9</ele>
        <time>2020-06-02T11:00:06Z</time>
      </trkpt>
      <trkpt lat="46.31328" lon="-1.00753">
        <ele>3.9</ele>
        <time>2020-06-02T11:00:07Z</time>
      </trkpt>
      <trkpt lat="46.3133" lon="-1.00746">
        <ele>3.9</ele>
        <time>2020-06-02T11:00:08Z</time>
      </trkpt>
      <trkpt lat="46.31333" lon="-1.00739">
        <ele>3.9</ele>
        <time>2020-06-02T11:00:09Z</time>
      </trkpt>
      <trkpt lat="46.31335" lon="-1.00731">
        <ele>3.9</ele>
        <time>2020-06-02T11:00:10Z</time>
      </trkpt>
      <trkpt lat="46.31337" lon="-1.00723">
        <ele>3.8</ele>
        <time>2020-06-02T11:00:11Z</time>
      </trkpt>
      <trkpt lat="46.3134" lon="-1.00718">
        <ele>3.8</ele>
        <time>2020-06-02T11:00:12Z</time>
      </trkpt>
      <trkpt lat="46.31342" lon="-1.00711">
        <ele>3.8</ele>
        <time>2020-06-02T11:00:13Z</time>
      </trkpt>
      <trkpt lat="46.31343" lon="-1.00704">
        <ele>3.8</ele>
        <time>2020-06-02T11:00:14Z</time>
      </trkpt>
      <trkpt lat="46.31346" lon="-1.00697">
        <ele>3.8</ele>
        <time>2020-06-02T11:00:15Z</time>
      </trkpt>
      <trkpt lat="46.31348" lon="-1.0069">
        <ele>3.8</ele>
        <time>2020-06-02T11:00:16Z</time>
      </trkpt>
      <trkpt lat="46.3135" lon="-1.00683">
        <ele>3.8</ele>
        <time>2020-06-02T11:00:17Z</time>
      </trkpt>
      <trkpt lat="46.31353" lon="-1.00675">
        <ele>3.8</ele>
        <time>2020-06-02T11:00:18Z</time>
      </trkpt>
      <trkpt lat="46.31355" lon="-1.00668">
        <ele>3.8</ele>
        <time>2020-06-02T11:00:19Z</time>
      </trkpt>
      <trkpt lat="46.31358" lon="-1.0066">
        <ele>3.8</ele>
        <time>2020-06-02T11:00:20Z</time>
      </trkpt>
      <trkpt lat="46.3136" lon="-1.00653">
        <ele>3.8</ele>
        <time>2020-06-02T11:00:21Z</time>
      </trkpt>
      <trkpt lat="46.31361" lon="-1.00645">
        <ele>3.8</ele>
        <time>2020-06-02T11:00:22Z</time>
      </trkpt>
      <trkpt lat="46.31363" lon="-1.00638">
        <ele>3.8</ele>
        <time>2020-06-02T11:00:23Z</time>
      </trkpt>
      <trkpt lat="46.31365" lon="-1.00631">
        <ele>3.8</ele>
        <time>2020-06-02T11:00:24Z</time>
      </trkpt>
      <trkpt lat="46.31367" lon="-1.00624">
        <ele>3.8</ele>
        <time>2020-06-02T11:00:25Z</time>
      </trkpt>
      <trkpt lat="46.31369" lon="-1.00617">
        <ele>3.8</ele>
        <time>2020-06-02T11:00:26Z</time>
      </trkpt>
      <trkpt lat="46.31371" lon="-1.00608">
        <ele>3.8</ele>
        <time>2020-06-02T11:00:27Z</time>
      </trkpt>
      <trkpt lat="46.31373" lon="-1.00602">
        <ele>3.8</ele>
        <time>2020-06-02T11:00:28Z</time>
      </trkpt>
      <trkpt lat="46.31375" lon="-1.00594">
        <ele>3.8</ele>
        <time>2020-06-02T11:00:29Z</time>
      </trkpt>
      <trkpt lat="46.31377" lon="-1.00587">
        <ele>3.8</ele>
        <time>2020-06-02T11:00:30Z</time>
      </trkpt>
      <trkpt lat="46.3138" lon="-1.0058">
        <ele>3.8</ele>
        <time>2020-06-02T11:00:31Z</time>
      </trkpt>
      <trkpt lat="46.31381" lon="-1.00572">
        <ele>3.7</ele>
        <time>2020-06-02T11:00:32Z</time>
      </trkpt>
      <trkpt lat="46.31383" lon="-1.00564">
        <ele>3.7</ele>
        <time>2020-06-02T11:00:33Z</time>
      </trkpt>
      <trkpt lat="46.31385" lon="-1.00557">
        <ele>3.7</ele>
        <time>2020-06-02T11:00:34Z</time>
      </trkpt>
      <trkpt lat="46.31387" lon="-1.0055">
        <ele>3.6</ele>
        <time>2020-06-02T11:00:35Z</time>
      </trkpt>
      <trkpt lat="46.31389" lon="-1.00544">
        <ele>3.6</ele>
        <time>2020-06-02T11:00:36Z</time>
      </trkpt>
      <trkpt lat="46.31391" lon="-1.0054">
        <ele>3.6</ele>
        <time>2020-06-02T11:00:37Z</time>
      </trkpt>
      <trkpt lat="46.31392" lon="-1.00539">
        <ele>3.6</ele>
        <time>2020-06-02T11:00:38Z</time>
      </trkpt>
      <trkpt lat="46.31392" lon="-1.00538">
        <ele>3.6</ele>
        <time>2020-06-02T11:00:39Z</time>
      </trkpt>
      <trkpt lat="46.31393" lon="-1.00539">
        <ele>3.6</ele>
        <time>2020-06-02T11:00:40Z</time>
      </trkpt>
      <trkpt lat="46.3139" lon="-1.00539">
        <ele>3.6</ele>
        <time>2020-06-02T11:00:41Z</time>
      </trkpt>
      <trkpt lat="46.3139" lon="-1.00541">
        <ele>3.5</ele>
        <time>2020-06-02T11:00:42Z</time>
      </trkpt>
      <trkpt lat="46.3139" lon="-1.00542">
        <ele>3.5</ele>
        <time>2020-06-02T11:00:43Z</time>
      </trkpt>
      <trkpt lat="46.3139" lon="-1.00543">
        <ele>3.5</ele>
        <time>2020-06-02T11:00:44Z</time>
      </trkpt>
      <trkpt lat="46.3139" lon="-1.00543">
        <ele>3.5</ele>
        <time>2020-06-02T11:00:45Z</time>
      </trkpt>
      <trkpt lat="46.3139" lon="-1.00543">
        <ele>3.5</ele>
        <time>2020-06-02T11:00:46Z</time>
      </trkpt>
      <trkpt lat="46.3139" lon="-1.00542">
        <ele>3.5</ele>
        <time>2020-06-02T11:00:47Z</time>
      </trkpt>
      <trkpt lat="46.3139" lon="-1.00542">
        <ele>3.5</ele>
        <time>2020-06-02T11:00:48Z</time>
      </trkpt>
      <trkpt lat="46.3139" lon="-1.00542">
        <ele>3.5</ele>
        <time>2020-06-02T11:00:49Z</time>
      </trkpt>
      <trkpt lat="46.3139" lon="-1.00542">
        <ele>3.5</ele>
        <time>2020-06-02T11:00:50Z</time>
      </trkpt>
      <trkpt lat="46.3139" lon="-1.00542">
        <ele>3.5</ele>
        <time>2020-06-02T11:00:51Z</time>
      </trkpt>
      <trkpt lat="46.3139" lon="-1.00541">
        <ele>3.5</ele>
        <time>2020-06-02T11:00:52Z</time>
      </trkpt>
      <trkpt lat="46.3139" lon="-1.00541">
        <ele>3.5</ele>
        <time>2020-06-02T11:00:53Z</time>
      </trkpt>
      <trkpt lat="46.31391" lon="-1.00541">
        <ele>3.5</ele>
        <time>2020-06-02T11:00:54Z</time>
      </trkpt>
      <trkpt lat="46.31391" lon="-1.00541">
        <ele>3.5</ele>
        <time>2020-06-02T11:00:55Z</time>
      </trkpt>
      <trkpt lat="46.31391" lon="-1.00541">
        <ele>3.5</ele>
        <time>2020-06-02T11:00:56Z</time>
      </trkpt>
      <trkpt lat="46.31391" lon="-1.0054">
        <ele>3.5</ele>
        <time>2020-06-02T11:00:57Z</time>
      </trkpt>
      <trkpt lat="46.31391" lon="-1.0054">
        <ele>3.5</ele>
        <time>2020-06-02T11:00:58Z</time>
      </trkpt>
      <trkpt lat="46.31391" lon="-1.0054">
        <ele>3.5</ele>
        <time>2020-06-02T11:00:59Z</time>
      </trkpt>
      <trkpt lat="46.31391" lon="-1.0054">
        <ele>3.5</ele>
        <time>2020-06-02T11:01:00Z</time>
      </trkpt>
      <trkpt lat="46.31391" lon="-1.0054">
        <ele>3.5</ele>
        <time>2020-06-02T11:01:01Z</time>
      </trkpt>
      <trkpt lat="46.31391" lon="-1.00539">
        <ele>3.5</ele>
        <time>2020-06-02T11:01:02Z</time>
      </trkpt>
      <trkpt lat="46.31391" lon="-1.00539">
        <ele>3.5</ele>
        <time>2020-06-02T11:01:03Z</time>
      </trkpt>
      <trkpt lat="46.31391" lon="-1.00539">
        <ele>3.5</ele>
        <time>2020-06-02T11:01:04Z</time>
      </trkpt>
      <trkpt lat="46.31391" lon="-1.00539">
        <ele>3.5</ele>
        <time>2020-06-02T11:01:05Z</time>
      </trkpt>
      <trkpt lat="46.31391" lon="-1.00539">
        <ele>3.5</ele>
        <time>2020-06-02T11:01:06Z</time>
      </trkpt>
      <trkpt lat="46.31391" lon="-1.00538">
        <ele>3.5</ele>
        <time>2020-06-02T11:01:07Z</time>
      </trkpt>
      <trkpt lat="46.31391" lon="-1.00538">
        <ele>3.5</ele>
        <time>2020-06-02T11:01:08Z</time>
      </trkpt>
      <trkpt lat="46.31391" lon="-1.00538">
        <ele>3.5</ele>
        <time>2020-06-02T11:01:09Z</time>
      </trkpt>
      <trkpt lat="46.31391" lon="-1.00538">
        <ele>3.5</ele>
        <time>2020-06-02T11:01:10Z</time>
      </trkpt>
      <trkpt lat="46.31391" lon="-1.00538">
        <ele>3.5</ele>
        <time>2020-06-02T11:01:11Z</time>
      </trkpt>
      <trkpt lat="46.31391" lon="-1.00537">
        <ele>3.5</ele>
        <time>2020-06-02T11:01:12Z</time>
      </trkpt>
      <trkpt lat="46.31391" lon="-1.00537">
        <ele>3.5</ele>
        <time>2020-06-02T11:01:13Z</time>
      </trkpt>
      <trkpt lat="46.31393" lon="-1.00533">
        <ele>3.5</ele>
        <time>2020-06-02T11:01:14Z</time>
      </trkpt>
      <trkpt lat="46.31394" lon="-1.00532">
        <ele>3.5</ele>
        <time>2020-06-02T11:01:15Z</time>
      </trkpt>
      <trkpt lat="46.31394" lon="-1.00527">
        <ele>3.5</ele>
        <time>2020-06-02T11:01:16Z</time>
      </trkpt>
      <trkpt lat="46.31394" lon="-1.00526">
        <ele>3.5</ele>
        <time>2020-06-02T11:01:17Z</time>
      </trkpt>
      <trkpt lat="46.31395" lon="-1.00521">
        <ele>3.5</ele>
        <time>2020-06-02T11:01:18Z</time>
      </trkpt>
      <trkpt lat="46.31395" lon="-1.00519">
        <ele>3.5</ele>
        <time>2020-06-02T11:01:19Z</time>
      </trkpt>
      <trkpt lat="46.31397" lon="-1.00514">
        <ele>3.5</ele>
        <time>2020-06-02T11:01:20Z</time>
      </trkpt>
      <trkpt lat="46.31398" lon="-1.00512">
        <ele>3.5</ele>
        <time>2020-06-02T11:01:21Z</time>
      </trkpt>
      <trkpt lat="46.31399" lon="-1.00508">
        <ele>3.5</ele>
        <time>2020-06-02T11:01:22Z</time>
      </trkpt>
      <trkpt lat="46.314" lon="-1.00504">
        <ele>3.5</ele>
        <time>2020-06-02T11:01:23Z</time>
      </trkpt>
      <trkpt lat="46.31402" lon="-1.005">
        <ele>3.5</ele>
        <time>2020-06-02T11:01:24Z</time>
      </trkpt>
      <trkpt lat="46.31403" lon="-1.00495">
        <ele>3.5</ele>
        <time>2020-06-02T11:01:25Z</time>
      </trkpt>
      <trkpt lat="46.31404" lon="-1.00489">
        <ele>3.5</ele>
        <time>2020-06-02T11:01:26Z</time>
      </trkpt>
      <trkpt lat="46.31405" lon="-1.00485">
        <ele>3.5</ele>
        <time>2020-06-02T11:01:27Z</time>
      </trkpt>
      <trkpt lat="46.31407" lon="-1.00481">
        <ele>3.5</ele>
        <time>2020-06-02T11:01:28Z</time>
      </trkpt>
      <trkpt lat="46.31409" lon="-1.00475">
        <ele>3.5</ele>
        <time>2020-06-02T11:01:29Z</time>
      </trkpt>
      <trkpt lat="46.31411" lon="-1.00471">
        <ele>3.5</ele>
        <time>2020-06-02T11:01:30Z</time>
      </trkpt>
      <trkpt lat="46.31413" lon="-1.00467">
        <ele>3.5</ele>
        <time>2020-06-02T11:01:31Z</time>
      </trkpt>
      <trkpt lat="46.31415" lon="-1.00463">
        <ele>3.5</ele>
        <time>2020-06-02T11:01:32Z</time>
      </trkpt>
      <trkpt lat="46.31417" lon="-1.00457">
        <ele>3.5</ele>
        <time>2020-06-02T11:01:33Z</time>
      </trkpt>
      <trkpt lat="46.31419" lon="-1.00454">
        <ele>3.5</ele>
        <time>2020-06-02T11:01:34Z</time>
      </trkpt>
      <trkpt lat="46.31421" lon="-1.0045">
        <ele>3.5</ele>
        <time>2020-06-02T11:01:35Z</time>
      </trkpt>
      <trkpt lat="46.31423" lon="-1.00445">
        <ele>3.5</ele>
        <time>2020-06-02T11:01:36Z</time>
      </trkpt>
      <trkpt lat="46.31424" lon="-1.00444">
        <ele>3.5</ele>
        <time>2020-06-02T11:01:37Z</time>
      </trkpt>
      <trkpt lat="46.31423" lon="-1.00439">
        <ele>3.4</ele>
        <time>2020-06-02T11:01:38Z</time>
      </trkpt>
      <trkpt lat="46.31422" lon="-1.00435">
        <ele>3.4</ele>
        <time>2020-06-02T11:01:39Z</time>
      </trkpt>
      <trkpt lat="46.3142" lon="-1.0043">
        <ele>3.4</ele>
        <time>2020-06-02T11:01:40Z</time>
      </trkpt>
      <trkpt lat="46.31417" lon="-1.00425">
        <ele>3.4</ele>
        <time>2020-06-02T11:01:41Z</time>
      </trkpt>
      <trkpt lat="46.31415" lon="-1.00421">
        <ele>3.5</ele>
        <time>2020-06-02T11:01:42Z</time>
      </trkpt>
      <trkpt lat="46.31412" lon="-1.00417">
        <ele>3.5</ele>
        <time>2020-06-02T11:01:43Z</time>
      </trkpt>
      <trkpt lat="46.31409" lon="-1.00415">
        <ele>3.5</ele>
        <time>2020-06-02T11:01:44Z</time>
      </trkpt>
      <trkpt lat="46.31406" lon="-1.00412">
        <ele>3.5</ele>
        <time>2020-06-02T11:01:45Z</time>
      </trkpt>
      <trkpt lat="46.31403" lon="-1.00409">
        <ele>3.5</ele>
        <time>2020-06-02T11:01:46Z</time>
      </trkpt>
      <trkpt lat="46.314" lon="-1.00406">
        <ele>3.5</ele>
        <time>2020-06-02T11:01:47Z</time>
      </trkpt>
      <trkpt lat="46.31397" lon="-1.00404">
        <ele>3.5</ele>
        <time>2020-06-02T11:01:48Z</time>
      </trkpt>
      <trkpt lat="46.31395" lon="-1.004">
        <ele>3.5</ele>
        <time>2020-06-02T11:01:49Z</time>
      </trkpt>
      <trkpt lat="46.31393" lon="-1.00394">
        <ele>3.5</ele>
        <time>2020-06-02T11:01:50Z</time>
      </trkpt>
      <trkpt lat="46.31393" lon="-1.00388">
        <ele>3.5</ele>
        <time>2020-06-02T11:01:51Z</time>
      </trkpt>
      <trkpt lat="46.31393" lon="-1.00383">
        <ele>3.5</ele>
        <time>2020-06-02T11:01:52Z</time>
      </trkpt>
      <trkpt lat="46.31393" lon="-1.00377">
        <ele>3.5</ele>
        <time>2020-06-02T11:01:53Z</time>
      </trkpt>
      <trkpt lat="46.31393" lon="-1.00372">
        <ele>3.5</ele>
        <time>2020-06-02T11:01:54Z</time>
      </trkpt>
      <trkpt lat="46.31394" lon="-1.00366">
        <ele>3.5</ele>
        <time>2020-06-02T11:01:55Z</time>
      </trkpt>
      <trkpt lat="46.31395" lon="-1.00361">
        <ele>3.5</ele>
        <time>2020-06-02T11:01:56Z</time>
      </trkpt>
      <trkpt lat="46.31397" lon="-1.00355">
        <ele>3.5</ele>
        <time>2020-06-02T11:01:57Z</time>
      </trkpt>
      <trkpt lat="46.314" lon="-1.0035">
        <ele>3.4</ele>
        <time>2020-06-02T11:01:58Z</time>
      </trkpt>
      <trkpt lat="46.31402" lon="-1.00343">
        <ele>3.4</ele>
        <time>2020-06-02T11:01:59Z</time>
      </trkpt>
      <trkpt lat="46.31404" lon="-1.00338">
        <ele>3.4</ele>
        <time>2020-06-02T11:02:00Z</time>
      </trkpt>
      <trkpt lat="46.31403" lon="-1.00332">
        <ele>3.4</ele>
        <time>2020-06-02T11:02:01Z</time>
      </trkpt>
      <trkpt lat="46.31403" lon="-1.00325">
        <ele>3.4</ele>
        <time>2020-06-02T11:02:02Z</time>
      </trkpt>
      <trkpt lat="46.31403" lon="-1.0032">
        <ele>3.4</ele>
        <time>2020-06-02T11:02:03Z</time>
      </trkpt>
      <trkpt lat="46.31401" lon="-1.00314">
        <ele>3.4</ele>
        <time>2020-06-02T11:02:04Z</time>
      </trkpt>
      <trkpt lat="46.314" lon="-1.00308">
        <ele>3.4</ele>
        <time>2020-06-02T11:02:05Z</time>
      </trkpt>
      <trkpt lat="46.31398" lon="-1.00302">
        <ele>3.4</ele>
        <time>2020-06-02T11:02:06Z</time>
      </trkpt>
      <trkpt lat="46.31397" lon="-1.00296">
        <ele>3.4</ele>
        <time>2020-06-02T11:02:07Z</time>
      </trkpt>
      <trkpt lat="46.31395" lon="-1.00291">
        <ele>3.4</ele>
        <time>2020-06-02T11:02:08Z</time>
      </trkpt>
      <trkpt lat="46.31395" lon="-1.00286">
        <ele>3.4</ele>
        <time>2020-06-02T11:02:09Z</time>
      </trkpt>
      <trkpt lat="46.31393" lon="-1.00281">
        <ele>3.3</ele>
        <time>2020-06-02T11:02:10Z</time>
      </trkpt>
      <trkpt lat="46.31392" lon="-1.00276">
        <ele>3.3</ele>
        <time>2020-06-02T11:02:11Z</time>
      </trkpt>
      <trkpt lat="46.3139" lon="-1.00272">
        <ele>3.3</ele>
        <time>2020-06-02T11:02:12Z</time>
      </trkpt>
      <trkpt lat="46.31387" lon="-1.00268">
        <ele>3.3</ele>
        <time>2020-06-02T11:02:13Z</time>
      </trkpt>
      <trkpt lat="46.31384" lon="-1.00263">
        <ele>3.3</ele>
        <time>2020-06-02T11:02:14Z</time>
      </trkpt>
      <trkpt lat="46.31382" lon="-1.00258">
        <ele>3.3</ele>
        <time>2020-06-02T11:02:15Z</time>
      </trkpt>
      <trkpt lat="46.3138" lon="-1.00254">
        <ele>3.3</ele>
        <time>2020-06-02T11:02:16Z</time>
      </trkpt>
      <trkpt lat="46.31378" lon="-1.00249">
        <ele>3.4</ele>
        <time>2020-06-02T11:02:17Z</time>
      </trkpt>
      <trkpt lat="46.31376" lon="-1.00244">
        <ele>3.4</ele>
        <time>2020-06-02T11:02:18Z</time>
      </trkpt>
      <trkpt lat="46.31375" lon="-1.00239">
        <ele>3.4</ele>
        <time>2020-06-02T11:02:19Z</time>
      </trkpt>
      <trkpt lat="46.31374" lon="-1.00233">
        <ele>3.4</ele>
        <time>2020-06-02T11:02:20Z</time>
      </trkpt>
      <trkpt lat="46.31373" lon="-1.00228">
        <ele>3.4</ele>
        <time>2020-06-02T11:02:21Z</time>
      </trkpt>
      <trkpt lat="46.31371" lon="-1.00223">
        <ele>3.4</ele>
        <time>2020-06-02T11:02:22Z</time>
      </trkpt>
      <trkpt lat="46.31369" lon="-1.00218">
        <ele>3.4</ele>
        <time>2020-06-02T11:02:23Z</time>
      </trkpt>
      <trkpt lat="46.31368" lon="-1.00213">
        <ele>3.4</ele>
        <time>2020-06-02T11:02:24Z</time>
      </trkpt>
      <trkpt lat="46.31366" lon="-1.00207">
        <ele>3.4</ele>
        <time>2020-06-02T11:02:25Z</time>
      </trkpt>
      <trkpt lat="46.31365" lon="-1.00202">
        <ele>3.4</ele>
        <time>2020-06-02T11:02:26Z</time>
      </trkpt>
      <trkpt lat="46.31364" lon="-1.00197">
        <ele>3.4</ele>
        <time>2020-06-02T11:02:27Z</time>
      </trkpt>
      <trkpt lat="46.31362" lon="-1.00192">
        <ele>3.4</ele>
        <time>2020-06-02T11:02:28Z</time>
      </trkpt>
      <trkpt lat="46.3136" lon="-1.00185">
        <ele>3.4</ele>
        <time>2020-06-02T11:02:29Z</time>
      </trkpt>
      <trkpt lat="46.31359" lon="-1.00179">
        <ele>3.4</ele>
        <time>2020-06-02T11:02:30Z</time>
      </trkpt>
      <trkpt lat="46.31357" lon="-1.00173">
        <ele>3.4</ele>
        <time>2020-06-02T11:02:31Z</time>
      </trkpt>
      <trkpt lat="46.31354" lon="-1.00169">
        <ele>3.4</ele>
        <time>2020-06-02T11:02:32Z</time>
      </trkpt>
      <trkpt lat="46.31352" lon="-1.00163">
        <ele>3.4</ele>
        <time>2020-06-02T11:02:33Z</time>
      </trkpt>
      <trkpt lat="46.3135" lon="-1.00157">
        <ele>3.4</ele>
        <time>2020-06-02T11:02:34Z</time>
      </trkpt>
      <trkpt lat="46.31349" lon="-1.00152">
        <ele>3.4</ele>
        <time>2020-06-02T11:02:35Z</time>
      </trkpt>
      <trkpt lat="46.31346" lon="-1.00146">
        <ele>3.4</ele>
        <time>2020-06-02T11:02:36Z</time>
      </trkpt>
      <trkpt lat="46.31345" lon="-1.00141">
        <ele>3.4</ele>
        <time>2020-06-02T11:02:37Z</time>
      </trkpt>
      <trkpt lat="46.31343" lon="-1.00137">
        <ele>3.5</ele>
        <time>2020-06-02T11:02:38Z</time>
      </trkpt>
      <trkpt lat="46.31341" lon="-1.00132">
        <ele>3.5</ele>
        <time>2020-06-02T11:02:39Z</time>
      </trkpt>
      <trkpt lat="46.31339" lon="-1.00127">
        <ele>3.5</ele>
        <time>2020-06-02T11:02:40Z</time>
      </trkpt>
      <trkpt lat="46.31338" lon="-1.00125">
        <ele>3.5</ele>
        <time>2020-06-02T11:02:41Z</time>
      </trkpt>
      <trkpt lat="46.31336" lon="-1.00119">
        <ele>3.5</ele>
        <time>2020-06-02T11:02:42Z</time>
      </trkpt>
      <trkpt lat="46.31333" lon="-1.00113">
        <ele>3.5</ele>
        <time>2020-06-02T11:02:43Z</time>
      </trkpt>
      <trkpt lat="46.31328" lon="-1.00107">
        <ele>3.5</ele>
        <time>2020-06-02T11:02:44Z</time>
      </trkpt>
      <trkpt lat="46.31327" lon="-1.00101">
        <ele>3.5</ele>
        <time>2020-06-02T11:02:45Z</time>
      </trkpt>
      <trkpt lat="46.31327" lon="-1.00095">
        <ele>3.5</ele>
        <time>2020-06-02T11:02:46Z</time>
      </trkpt>
      <trkpt lat="46.31326" lon="-1.0009">
        <ele>3.5</ele>
        <time>2020-06-02T11:02:47Z</time>
      </trkpt>
      <trkpt lat="46.31324" lon="-1.00083">
        <ele>3.5</ele>
        <time>2020-06-02T11:02:48Z</time>
      </trkpt>
      <trkpt lat="46.31323" lon="-1.00076">
        <ele>3.5</ele>
        <time>2020-06-02T11:02:49Z</time>
      </trkpt>
      <trkpt lat="46.31321" lon="-1.00069">
        <ele>3.5</ele>
        <time>2020-06-02T11:02:50Z</time>
      </trkpt>
      <trkpt lat="46.31319" lon="-1.00064">
        <ele>3.5</ele>
        <time>2020-06-02T11:02:51Z</time>
      </trkpt>
      <trkpt lat="46.31316" lon="-1.00057">
        <ele>3.5</ele>
        <time>2020-06-02T11:02:52Z</time>
      </trkpt>
      <trkpt lat="46.31315" lon="-1.00052">
        <ele>3.5</ele>
        <time>2020-06-02T11:02:53Z</time>
      </trkpt>
      <trkpt lat="46.31313" lon="-1.00046">
        <ele>3.5</ele>
        <time>2020-06-02T11:02:54Z</time>
      </trkpt>
      <trkpt lat="46.3131" lon="-1.00038">
        <ele>3.5</ele>
        <time>2020-06-02T11:02:55Z</time>
      </trkpt>
      <trkpt lat="46.31308" lon="-1.00033">
        <ele>3.5</ele>
        <time>2020-06-02T11:02:56Z</time>
      </trkpt>
      <trkpt lat="46.31307" lon="-1.00027">
        <ele>3.5</ele>
        <time>2020-06-02T11:02:57Z</time>
      </trkpt>
      <trkpt lat="46.31305" lon="-1.00021">
        <ele>3.5</ele>
        <time>2020-06-02T11:02:58Z</time>
      </trkpt>
      <trkpt lat="46.31303" lon="-1.00015">
        <ele>3.5</ele>
        <time>2020-06-02T11:02:59Z</time>
      </trkpt>
      <trkpt lat="46.313" lon="-1.0001">
        <ele>3.6</ele>
        <time>2020-06-02T11:03:00Z</time>
      </trkpt>
      <trkpt lat="46.31298" lon="-1.00005">
        <ele>3.6</ele>
        <time>2020-06-02T11:03:01Z</time>
      </trkpt>
      <trkpt lat="46.31296" lon="-1">
        <ele>3.6</ele>
        <time>2020-06-02T11:03:02Z</time>
      </trkpt>
      <trkpt lat="46.31294" lon="-0.99996">
        <ele>3.6</ele>
        <time>2020-06-02T11:03:03Z</time>
      </trkpt>
      <trkpt lat="46.31291" lon="-0.99992">
        <ele>3.6</ele>
        <time>2020-06-02T11:03:04Z</time>
      </trkpt>
      <trkpt lat="46.31287" lon="-0.99989">
        <ele>3.6</ele>
        <time>2020-06-02T11:03:05Z</time>
      </trkpt>
      <trkpt lat="46.31284" lon="-0.99987">
        <ele>3.6</ele>
        <time>2020-06-02T11:03:06Z</time>
      </trkpt>
      <trkpt lat="46.31281" lon="-0.99983">
        <ele>3.6</ele>
        <time>2020-06-02T11:03:07Z</time>
      </trkpt>
      <trkpt lat="46.31277" lon="-0.99979">
        <ele>3.7</ele>
        <time>2020-06-02T11:03:08Z</time>
      </trkpt>
      <trkpt lat="46.31274" lon="-0.99976">
        <ele>3.7</ele>
        <time>2020-06-02T11:03:09Z</time>
      </trkpt>
      <trkpt lat="46.31271" lon="-0.99971">
        <ele>3.7</ele>
        <time>2020-06-02T11:03:10Z</time>
      </trkpt>
      <trkpt lat="46.31268" lon="-0.99967">
        <ele>3.7</ele>
        <time>2020-06-02T11:03:11Z</time>
      </trkpt>
      <trkpt lat="46.31265" lon="-0.99962">
        <ele>3.7</ele>
        <time>2020-06-02T11:03:12Z</time>
      </trkpt>
      <trkpt lat="46.31263" lon="-0.99957">
        <ele>3.8</ele>
        <time>2020-06-02T11:03:13Z</time>
      </trkpt>
      <trkpt lat="46.3126" lon="-0.99953">
        <ele>3.8</ele>
        <time>2020-06-02T11:03:14Z</time>
      </trkpt>
      <trkpt lat="46.31257" lon="-0.99948">
        <ele>3.8</ele>
        <time>2020-06-02T11:03:15Z</time>
      </trkpt>
      <trkpt lat="46.31253" lon="-0.99943">
        <ele>3.8</ele>
        <time>2020-06-02T11:03:16Z</time>
      </trkpt>
      <trkpt lat="46.31251" lon="-0.99937">
        <ele>3.8</ele>
        <time>2020-06-02T11:03:17Z</time>
      </trkpt>
      <trkpt lat="46.31249" lon="-0.99933">
        <ele>3.9</ele>
        <time>2020-06-02T11:03:18Z</time>
      </trkpt>
      <trkpt lat="46.31245" lon="-0.99928">
        <ele>3.9</ele>
        <time>2020-06-02T11:03:19Z</time>
      </trkpt>
      <trkpt lat="46.31242" lon="-0.99924">
        <ele>3.9</ele>
        <time>2020-06-02T11:03:20Z</time>
      </trkpt>
      <trkpt lat="46.31239" lon="-0.99921">
        <ele>3.9</ele>
        <time>2020-06-02T11:03:21Z</time>
      </trkpt>
      <trkpt lat="46.31237" lon="-0.99916">
        <ele>4</ele>
        <time>2020-06-02T11:03:22Z</time>
      </trkpt>
      <trkpt lat="46.31233" lon="-0.99911">
        <ele>4</ele>
        <time>2020-06-02T11:03:23Z</time>
      </trkpt>
      <trkpt lat="46.3123" lon="-0.99906">
        <ele>4</ele>
        <time>2020-06-02T11:03:24Z</time>
      </trkpt>
      <trkpt lat="46.31227" lon="-0.99902">
        <ele>4</ele>
        <time>2020-06-02T11:03:25Z</time>
      </trkpt>
      <trkpt lat="46.31224" lon="-0.99897">
        <ele>4</ele>
        <time>2020-06-02T11:03:26Z</time>
      </trkpt>
      <trkpt lat="46.31222" lon="-0.99891">
        <ele>4.1</ele>
        <time>2020-06-02T11:03:27Z</time>
      </trkpt>
      <trkpt lat="46.31219" lon="-0.99885">
        <ele>4.1</ele>
        <time>2020-06-02T11:03:28Z</time>
      </trkpt>
      <trkpt lat="46.31217" lon="-0.99879">
        <ele>4.1</ele>
        <time>2020-06-02T11:03:29Z</time>
      </trkpt>
      <trkpt lat="46.31217" lon="-0.99873">
        <ele>4.1</ele>
        <time>2020-06-02T11:03:30Z</time>
      </trkpt>
      <trkpt lat="46.31215" lon="-0.99866">
        <ele>4.2</ele>
        <time>2020-06-02T11:03:31Z</time>
      </trkpt>
      <trkpt lat="46.31214" lon="-0.99859">
        <ele>4.2</ele>
        <time>2020-06-02T11:03:32Z</time>
      </trkpt>
      <trkpt lat="46.31213" lon="-0.99853">
        <ele>4.2</ele>
        <time>2020-06-02T11:03:33Z</time>
      </trkpt>
      <trkpt lat="46.31213" lon="-0.99847">
        <ele>4.2</ele>
        <time>2020-06-02T11:03:34Z</time>
      </trkpt>
      <trkpt lat="46.31212" lon="-0.99839">
        <ele>4.3</ele>
        <time>2020-06-02T11:03:35Z</time>
      </trkpt>
      <trkpt lat="46.31213" lon="-0.99834">
        <ele>4.3</ele>
        <time>2020-06-02T11:03:36Z</time>
      </trkpt>
      <trkpt lat="46.31213" lon="-0.99828">
        <ele>4.3</ele>
        <time>2020-06-02T11:03:37Z</time>
      </trkpt>
      <trkpt lat="46.31212" lon="-0.99822">
        <ele>4.3</ele>
        <time>2020-06-02T11:03:38Z</time>
      </trkpt>
      <trkpt lat="46.31211" lon="-0.99817">
        <ele>4.3</ele>
        <time>2020-06-02T11:03:39Z</time>
      </trkpt>
      <trkpt lat="46.3121" lon="-0.99812">
        <ele>4.3</ele>
        <time>2020-06-02T11:03:40Z</time>
      </trkpt>
      <trkpt lat="46.3121" lon="-0.99806">
        <ele>4.3</ele>
        <time>2020-06-02T11:03:41Z</time>
      </trkpt>
      <trkpt lat="46.3121" lon="-0.998">
        <ele>4.3</ele>
        <time>2020-06-02T11:03:42Z</time>
      </trkpt>
      <trkpt lat="46.31212" lon="-0.99794">
        <ele>4.3</ele>
        <time>2020-06-02T11:03:43Z</time>
      </trkpt>
      <trkpt lat="46.31214" lon="-0.99789">
        <ele>4.2</ele>
        <time>2020-06-02T11:03:44Z</time>
      </trkpt>
      <trkpt lat="46.31216" lon="-0.99785">
        <ele>4.2</ele>
        <time>2020-06-02T11:03:45Z</time>
      </trkpt>
      <trkpt lat="46.31218" lon="-0.9978">
        <ele>4.2</ele>
        <time>2020-06-02T11:03:46Z</time>
      </trkpt>
      <trkpt lat="46.3122" lon="-0.99773">
        <ele>4.2</ele>
        <time>2020-06-02T11:03:47Z</time>
      </trkpt>
      <trkpt lat="46.31223" lon="-0.99768">
        <ele>4.1</ele>
        <time>2020-06-02T11:03:48Z</time>
      </trkpt>
      <trkpt lat="46.31226" lon="-0.99764">
        <ele>4.1</ele>
        <time>2020-06-02T11:03:49Z</time>
      </trkpt>
      <trkpt lat="46.31229" lon="-0.9976">
        <ele>4.1</ele>
        <time>2020-06-02T11:03:50Z</time>
      </trkpt>
      <trkpt lat="46.3123" lon="-0.99756">
        <ele>4.1</ele>
        <time>2020-06-02T11:03:51Z</time>
      </trkpt>
      <trkpt lat="46.31231" lon="-0.99751">
        <ele>4.1</ele>
        <time>2020-06-02T11:03:52Z</time>
      </trkpt>
      <trkpt lat="46.31233" lon="-0.99746">
        <ele>4.1</ele>
        <time>2020-06-02T11:03:53Z</time>
      </trkpt>
      <trkpt lat="46.31236" lon="-0.99742">
        <ele>4.1</ele>
        <time>2020-06-02T11:03:54Z</time>
      </trkpt>
      <trkpt lat="46.31238" lon="-0.99737">
        <ele>4.1</ele>
        <time>2020-06-02T11:03:55Z</time>
      </trkpt>
      <trkpt lat="46.3124" lon="-0.99734">
        <ele>4.1</ele>
        <time>2020-06-02T11:03:56Z</time>
      </trkpt>
      <trkpt lat="46.31242" lon="-0.99728">
        <ele>4.2</ele>
        <time>2020-06-02T11:03:57Z</time>
      </trkpt>
      <trkpt lat="46.31244" lon="-0.99725">
        <ele>4.2</ele>
        <time>2020-06-02T11:03:58Z</time>
      </trkpt>
      <trkpt lat="46.31245" lon="-0.99721">
        <ele>4.2</ele>
        <time>2020-06-02T11:03:59Z</time>
      </trkpt>
      <trkpt lat="46.31246" lon="-0.99717">
        <ele>4.2</ele>
        <time>2020-06-02T11:04:00Z</time>
      </trkpt>
      <trkpt lat="46.31248" lon="-0.99714">
        <ele>4.3</ele>
        <time>2020-06-02T11:04:01Z</time>
      </trkpt>
      <trkpt lat="46.3125" lon="-0.9971">
        <ele>4.3</ele>
        <time>2020-06-02T11:04:02Z</time>
      </trkpt>
      <trkpt lat="46.31254" lon="-0.99706">
        <ele>4.3</ele>
        <time>2020-06-02T11:04:03Z</time>
      </trkpt>
      <trkpt lat="46.31255" lon="-0.997">
        <ele>4.4</ele>
        <time>2020-06-02T11:04:04Z</time>
      </trkpt>
      <trkpt lat="46.31257" lon="-0.99694">
        <ele>4.4</ele>
        <time>2020-06-02T11:04:05Z</time>
      </trkpt>
      <trkpt lat="46.31261" lon="-0.99689">
        <ele>4.5</ele>
        <time>2020-06-02T11:04:06Z</time>
      </trkpt>
      <trkpt lat="46.31263" lon="-0.99684">
        <ele>4.5</ele>
        <time>2020-06-02T11:04:07Z</time>
      </trkpt>
      <trkpt lat="46.31266" lon="-0.99683">
        <ele>4.6</ele>
        <time>2020-06-02T11:04:08Z</time>
      </trkpt>
      <trkpt lat="46.31269" lon="-0.99685">
        <ele>4.6</ele>
        <time>2020-06-02T11:04:09Z</time>
      </trkpt>
      <trkpt lat="46.31271" lon="-0.99691">
        <ele>4.6</ele>
        <time>2020-06-02T11:04:10Z</time>
      </trkpt>
      <trkpt lat="46.31272" lon="-0.99696">
        <ele>4.6</ele>
        <time>2020-06-02T11:04:11Z</time>
      </trkpt>
      <trkpt lat="46.31274" lon="-0.99699">
        <ele>4.6</ele>
        <time>2020-06-02T11:04:12Z</time>
      </trkpt>
      <trkpt lat="46.31274" lon="-0.997">
        <ele>4.6</ele>
        <time>2020-06-02T11:04:13Z</time>
      </trkpt>
      <trkpt lat="46.31274" lon="-0.997">
        <ele>4.6</ele>
        <time>2020-06-02T11:04:14Z</time>
      </trkpt>
      <trkpt lat="46.31274" lon="-0.99701">
        <ele>4.6</ele>
        <time>2020-06-02T11:04:15Z</time>
      </trkpt>
      <trkpt lat="46.31274" lon="-0.997">
        <ele>4.6</ele>
        <time>2020-06-02T11:04:16Z</time>
      </trkpt>
      <trkpt lat="46.31275" lon="-0.99701">
        <ele>4.6</ele>
        <time>2020-06-02T11:04:17Z</time>
      </trkpt>
      <trkpt lat="46.31275" lon="-0.99701">
        <ele>4.6</ele>
        <time>2020-06-02T11:04:18Z</time>
      </trkpt>
      <trkpt lat="46.31273" lon="-0.99702">
        <ele>4.6</ele>
        <time>2020-06-02T11:04:19Z</time>
      </trkpt>
      <trkpt lat="46.31273" lon="-0.99702">
        <ele>4.6</ele>
        <time>2020-06-02T11:04:20Z</time>
      </trkpt>
      <trkpt lat="46.31274" lon="-0.99702">
        <ele>4.6</ele>
        <time>2020-06-02T11:04:21Z</time>
      </trkpt>
      <trkpt lat="46.31274" lon="-0.99702">
        <ele>4.6</ele>
        <time>2020-06-02T11:04:22Z</time>
      </trkpt>
      <trkpt lat="46.31274" lon="-0.99702">
        <ele>4.6</ele>
        <time>2020-06-02T11:04:23Z</time>
      </trkpt>
      <trkpt lat="46.31134" lon="-0.99124">
        <ele>4.9</ele>
        <time>2020-06-02T12:45:18Z</time>
      </trkpt>
      <trkpt lat="46.31137" lon="-0.99129">
        <ele>4.8</ele>
        <time>2020-06-02T12:45:19Z</time>
      </trkpt>
      <trkpt lat="46.31136" lon="-0.99131">
        <ele>4.8</ele>
        <time>2020-06-02T12:45:20Z</time>
      </trkpt>
      <trkpt lat="46.31135" lon="-0.99132">
        <ele>4.8</ele>
        <time>2020-06-02T12:45:21Z</time>
      </trkpt>
      <trkpt lat="46.31134" lon="-0.99134">
        <ele>4.8</ele>
        <time>2020-06-02T12:45:23Z</time>
      </trkpt>
      <trkpt lat="46.31133" lon="-0.99136">
        <ele>4.8</ele>
        <time>2020-06-02T12:45:24Z</time>
      </trkpt>
      <trkpt lat="46.31132" lon="-0.99137">
        <ele>4.8</ele>
        <time>2020-06-02T12:45:25Z</time>
      </trkpt>
      <trkpt lat="46.31131" lon="-0.99139">
        <ele>4.8</ele>
        <time>2020-06-02T12:45:26Z</time>
      </trkpt>
      <trkpt lat="46.31131" lon="-0.99141">
        <ele>4.7</ele>
        <time>2020-06-02T12:45:27Z</time>
      </trkpt>
      <trkpt lat="46.3113" lon="-0.99142">
        <ele>4.7</ele>
        <time>2020-06-02T12:45:28Z</time>
      </trkpt>
      <trkpt lat="46.31129" lon="-0.99144">
        <ele>4.7</ele>
        <time>2020-06-02T12:45:29Z</time>
      </trkpt>
      <trkpt lat="46.31129" lon="-0.99146">
        <ele>4.7</ele>
        <time>2020-06-02T12:45:30Z</time>
      </trkpt>
      <trkpt lat="46.31128" lon="-0.9915">
        <ele>4.7</ele>
        <time>2020-06-02T12:45:31Z</time>
      </trkpt>
      <trkpt lat="46.31128" lon="-0.99152">
        <ele>4.7</ele>
        <time>2020-06-02T12:45:32Z</time>
      </trkpt>
      <trkpt lat="46.31127" lon="-0.99154">
        <ele>4.7</ele>
        <time>2020-06-02T12:45:33Z</time>
      </trkpt>
      <trkpt lat="46.31125" lon="-0.99156">
        <ele>4.7</ele>
        <time>2020-06-02T12:45:34Z</time>
      </trkpt>
      <trkpt lat="46.31124" lon="-0.99157">
        <ele>4.7</ele>
        <time>2020-06-02T12:45:35Z</time>
      </trkpt>
      <trkpt lat="46.31122" lon="-0.99157">
        <ele>4.7</ele>
        <time>2020-06-02T12:45:36Z</time>
      </trkpt>
      <trkpt lat="46.31121" lon="-0.99158">
        <ele>4.7</ele>
        <time>2020-06-02T12:45:38Z</time>
      </trkpt>
      <trkpt lat="46.31121" lon="-0.99158">
        <ele>4.7</ele>
        <time>2020-06-02T12:45:39Z</time>
      </trkpt>
      <trkpt lat="46.31121" lon="-0.99158">
        <ele>4.7</ele>
        <time>2020-06-02T12:45:40Z</time>
      </trkpt>
      <trkpt lat="46.31121" lon="-0.99159">
        <ele>4.7</ele>
        <time>2020-06-02T12:45:41Z</time>
      </trkpt>
      <trkpt lat="46.31121" lon="-0.99159">
        <ele>4.7</ele>
        <time>2020-06-02T12:45:42Z</time>
      </trkpt>
      <trkpt lat="46.31121" lon="-0.9916">
        <ele>4.7</ele>
        <time>2020-06-02T12:45:43Z</time>
      </trkpt>
      <trkpt lat="46.3112" lon="-0.99161">
        <ele>4.7</ele>
        <time>2020-06-02T12:45:44Z</time>
      </trkpt>
      <trkpt lat="46.31119" lon="-0.99162">
        <ele>4.7</ele>
        <time>2020-06-02T12:45:45Z</time>
      </trkpt>
      <trkpt lat="46.31118" lon="-0.99164">
        <ele>4.7</ele>
        <time>2020-06-02T12:45:46Z</time>
      </trkpt>
      <trkpt lat="46.31117" lon="-0.99165">
        <ele>4.7</ele>
        <time>2020-06-02T12:45:47Z</time>
      </trkpt>
      <trkpt lat="46.31117" lon="-0.99167">
        <ele>4.7</ele>
        <time>2020-06-02T12:45:48Z</time>
      </trkpt>
      <trkpt lat="46.31116" lon="-0.99168">
        <ele>4.7</ele>
        <time>2020-06-02T12:45:49Z</time>
      </trkpt>
      <trkpt lat="46.31115" lon="-0.99168">
        <ele>4.7</ele>
        <time>2020-06-02T12:45:50Z</time>
      </trkpt>
      <trkpt lat="46.31115" lon="-0.99167">
        <ele>4.7</ele>
        <time>2020-06-02T12:45:51Z</time>
      </trkpt>
      <trkpt lat="46.31114" lon="-0.99167">
        <ele>4.7</ele>
        <time>2020-06-02T12:45:52Z</time>
      </trkpt>
      <trkpt lat="46.31114" lon="-0.99167">
        <ele>4.7</ele>
        <time>2020-06-02T12:45:53Z</time>
      </trkpt>
      <trkpt lat="46.31115" lon="-0.99167">
        <ele>4.7</ele>
        <time>2020-06-02T12:45:54Z</time>
      </trkpt>
      <trkpt lat="46.31115" lon="-0.99167">
        <ele>4.7</ele>
        <time>2020-06-02T12:45:55Z</time>
      </trkpt>
      <trkpt lat="46.31115" lon="-0.99167">
        <ele>4.7</ele>
        <time>2020-06-02T12:45:56Z</time>
      </trkpt>
      <trkpt lat="46.31115" lon="-0.99167">
        <ele>4.7</ele>
        <time>2020-06-02T12:45:57Z</time>
      </trkpt>
      <trkpt lat="46.31116" lon="-0.99167">
        <ele>4.7</ele>
        <time>2020-06-02T12:45:58Z</time>
      </trkpt>
      <trkpt lat="46.31116" lon="-0.99168">
        <ele>4.7</ele>
        <time>2020-06-02T12:45:59Z</time>
      </trkpt>
      <trkpt lat="46.31116" lon="-0.99167">
        <ele>4.7</ele>
        <time>2020-06-02T12:46:00Z</time>
      </trkpt>
      <trkpt lat="46.31116" lon="-0.99168">
        <ele>4.7</ele>
        <time>2020-06-02T12:46:01Z</time>
      </trkpt>
      <trkpt lat="46.31116" lon="-0.99167">
        <ele>4.7</ele>
        <time>2020-06-02T12:46:02Z</time>
      </trkpt>
      <trkpt lat="46.31115" lon="-0.99167">
        <ele>4.7</ele>
        <time>2020-06-02T12:46:03Z</time>
      </trkpt>
      <trkpt lat="46.31114" lon="-0.99167">
        <ele>4.7</ele>
        <time>2020-06-02T12:46:04Z</time>
      </trkpt>
      <trkpt lat="46.31114" lon="-0.99167">
        <ele>4.7</ele>
        <time>2020-06-02T12:46:05Z</time>
      </trkpt>
      <trkpt lat="46.31114" lon="-0.99167">
        <ele>4.7</ele>
        <time>2020-06-02T12:46:06Z</time>
      </trkpt>
      <trkpt lat="46.31114" lon="-0.99167">
        <ele>4.7</ele>
        <time>2020-06-02T12:46:07Z</time>
      </trkpt>
      <trkpt lat="46.31114" lon="-0.99167">
        <ele>4.7</ele>
        <time>2020-06-02T12:46:08Z</time>
      </trkpt>
      <trkpt lat="46.31114" lon="-0.99167">
        <ele>4.7</ele>
        <time>2020-06-02T12:46:09Z</time>
      </trkpt>
      <trkpt lat="46.31115" lon="-0.99167">
        <ele>4.7</ele>
        <time>2020-06-02T12:46:10Z</time>
      </trkpt>
      <trkpt lat="46.31116" lon="-0.99168">
        <ele>4.7</ele>
        <time>2020-06-02T12:46:11Z</time>
      </trkpt>
      <trkpt lat="46.31116" lon="-0.99168">
        <ele>4.7</ele>
        <time>2020-06-02T12:46:12Z</time>
      </trkpt>
      <trkpt lat="46.31117" lon="-0.99169">
        <ele>4.7</ele>
        <time>2020-06-02T12:46:13Z</time>
      </trkpt>
      <trkpt lat="46.31117" lon="-0.99169">
        <ele>4.7</ele>
        <time>2020-06-02T12:46:14Z</time>
      </trkpt>
      <trkpt lat="46.31117" lon="-0.99169">
        <ele>4.7</ele>
        <time>2020-06-02T12:46:15Z</time>
      </trkpt>
      <trkpt lat="46.31117" lon="-0.99169">
        <ele>4.7</ele>
        <time>2020-06-02T12:46:16Z</time>
      </trkpt>
      <trkpt lat="46.31117" lon="-0.99169">
        <ele>4.7</ele>
        <time>2020-06-02T12:46:17Z</time>
      </trkpt>
      <trkpt lat="46.31117" lon="-0.99169">
        <ele>4.7</ele>
        <time>2020-06-02T12:46:18Z</time>
      </trkpt>
      <trkpt lat="46.31117" lon="-0.9917">
        <ele>4.7</ele>
        <time>2020-06-02T12:46:19Z</time>
      </trkpt>
      <trkpt lat="46.31117" lon="-0.99171">
        <ele>4.7</ele>
        <time>2020-06-02T12:46:20Z</time>
      </trkpt>
      <trkpt lat="46.31119" lon="-0.99172">
        <ele>4.7</ele>
        <time>2020-06-02T12:46:21Z</time>
      </trkpt>
      <trkpt lat="46.3112" lon="-0.99173">
        <ele>4.7</ele>
        <time>2020-06-02T12:46:22Z</time>
      </trkpt>
      <trkpt lat="46.3112" lon="-0.99172">
        <ele>4.7</ele>
        <time>2020-06-02T12:46:23Z</time>
      </trkpt>
      <trkpt lat="46.3112" lon="-0.99172">
        <ele>4.7</ele>
        <time>2020-06-02T12:46:24Z</time>
      </trkpt>
      <trkpt lat="46.31121" lon="-0.99172">
        <ele>4.7</ele>
        <time>2020-06-02T12:46:25Z</time>
      </trkpt>
      <trkpt lat="46.31121" lon="-0.99172">
        <ele>4.7</ele>
        <time>2020-06-02T12:46:26Z</time>
      </trkpt>
      <trkpt lat="46.31121" lon="-0.99172">
        <ele>4.7</ele>
        <time>2020-06-02T12:46:27Z</time>
      </trkpt>
      <trkpt lat="46.31121" lon="-0.99172">
        <ele>4.7</ele>
        <time>2020-06-02T12:46:28Z</time>
      </trkpt>
      <trkpt lat="46.31122" lon="-0.99172">
        <ele>4.7</ele>
        <time>2020-06-02T12:46:29Z</time>
      </trkpt>
      <trkpt lat="46.31122" lon="-0.99172">
        <ele>4.7</ele>
        <time>2020-06-02T12:46:30Z</time>
      </trkpt>
      <trkpt lat="46.31122" lon="-0.99172">
        <ele>4.7</ele>
        <time>2020-06-02T12:46:31Z</time>
      </trkpt>
      <trkpt lat="46.31123" lon="-0.99172">
        <ele>4.7</ele>
        <time>2020-06-02T12:46:32Z</time>
      </trkpt>
      <trkpt lat="46.31123" lon="-0.99172">
        <ele>4.7</ele>
        <time>2020-06-02T12:46:33Z</time>
      </trkpt>
      <trkpt lat="46.31123" lon="-0.99172">
        <ele>4.7</ele>
        <time>2020-06-02T12:46:34Z</time>
      </trkpt>
      <trkpt lat="46.31123" lon="-0.99173">
        <ele>4.7</ele>
        <time>2020-06-02T12:46:35Z</time>
      </trkpt>
      <trkpt lat="46.31124" lon="-0.99173">
        <ele>4.7</ele>
        <time>2020-06-02T12:46:36Z</time>
      </trkpt>
      <trkpt lat="46.31125" lon="-0.99175">
        <ele>4.7</ele>
        <time>2020-06-02T12:46:37Z</time>
      </trkpt>
      <trkpt lat="46.31125" lon="-0.99176">
        <ele>4.7</ele>
        <time>2020-06-02T12:46:38Z</time>
      </trkpt>
      <trkpt lat="46.31125" lon="-0.99178">
        <ele>4.8</ele>
        <time>2020-06-02T12:46:39Z</time>
      </trkpt>
      <trkpt lat="46.31125" lon="-0.99183">
        <ele>4.8</ele>
        <time>2020-06-02T12:46:40Z</time>
      </trkpt>
      <trkpt lat="46.31125" lon="-0.99185">
        <ele>4.8</ele>
        <time>2020-06-02T12:46:41Z</time>
      </trkpt>
      <trkpt lat="46.31126" lon="-0.9919">
        <ele>4.8</ele>
        <time>2020-06-02T12:46:42Z</time>
      </trkpt>
      <trkpt lat="46.31126" lon="-0.99191">
        <ele>4.8</ele>
        <time>2020-06-02T12:46:43Z</time>
      </trkpt>
      <trkpt lat="46.31127" lon="-0.99196">
        <ele>4.8</ele>
        <time>2020-06-02T12:46:44Z</time>
      </trkpt>
      <trkpt lat="46.31128" lon="-0.99198">
        <ele>4.8</ele>
        <time>2020-06-02T12:46:45Z</time>
      </trkpt>
      <trkpt lat="46.31129" lon="-0.99202">
        <ele>4.8</ele>
        <time>2020-06-02T12:46:46Z</time>
      </trkpt>
      <trkpt lat="46.31129" lon="-0.99204">
        <ele>4.8</ele>
        <time>2020-06-02T12:46:47Z</time>
      </trkpt>
      <trkpt lat="46.3113" lon="-0.99209">
        <ele>4.7</ele>
        <time>2020-06-02T12:46:48Z</time>
      </trkpt>
      <trkpt lat="46.3113" lon="-0.99211">
        <ele>4.7</ele>
        <time>2020-06-02T12:46:49Z</time>
      </trkpt>
      <trkpt lat="46.31131" lon="-0.99215">
        <ele>4.6</ele>
        <time>2020-06-02T12:46:50Z</time>
      </trkpt>
      <trkpt lat="46.31132" lon="-0.99217">
        <ele>4.6</ele>
        <time>2020-06-02T12:46:51Z</time>
      </trkpt>
      <trkpt lat="46.31132" lon="-0.99221">
        <ele>4.2</ele>
        <time>2020-06-02T12:46:52Z</time>
      </trkpt>
      <trkpt lat="46.31133" lon="-0.99223">
        <ele>4.2</ele>
        <time>2020-06-02T12:46:53Z</time>
      </trkpt>
      <trkpt lat="46.31133" lon="-0.99225">
        <ele>4.2</ele>
        <time>2020-06-02T12:46:54Z</time>
      </trkpt>
      <trkpt lat="46.31133" lon="-0.99227">
        <ele>4.2</ele>
        <time>2020-06-02T12:46:55Z</time>
      </trkpt>
      <trkpt lat="46.31133" lon="-0.9923">
        <ele>4.2</ele>
        <time>2020-06-02T12:46:56Z</time>
      </trkpt>
      <trkpt lat="46.31133" lon="-0.99232">
        <ele>4.2</ele>
        <time>2020-06-02T12:46:57Z</time>
      </trkpt>
      <trkpt lat="46.31134" lon="-0.99234">
        <ele>4.2</ele>
        <time>2020-06-02T12:46:58Z</time>
      </trkpt>
      <trkpt lat="46.31134" lon="-0.99236">
        <ele>4.2</ele>
        <time>2020-06-02T12:46:59Z</time>
      </trkpt>
      <trkpt lat="46.31133" lon="-0.99239">
        <ele>4.2</ele>
        <time>2020-06-02T12:47:00Z</time>
      </trkpt>
      <trkpt lat="46.31133" lon="-0.99241">
        <ele>4.2</ele>
        <time>2020-06-02T12:47:01Z</time>
      </trkpt>
      <trkpt lat="46.31133" lon="-0.99246">
        <ele>4.3</ele>
        <time>2020-06-02T12:47:02Z</time>
      </trkpt>
      <trkpt lat="46.31133" lon="-0.99247">
        <ele>4.3</ele>
        <time>2020-06-02T12:47:03Z</time>
      </trkpt>
      <trkpt lat="46.31133" lon="-0.99251">
        <ele>4.3</ele>
        <time>2020-06-02T12:47:04Z</time>
      </trkpt>
      <trkpt lat="46.31133" lon="-0.99253">
        <ele>4.3</ele>
        <time>2020-06-02T12:47:05Z</time>
      </trkpt>
      <trkpt lat="46.31133" lon="-0.99257">
        <ele>4.3</ele>
        <time>2020-06-02T12:47:06Z</time>
      </trkpt>
      <trkpt lat="46.31133" lon="-0.99259">
        <ele>4.3</ele>
        <time>2020-06-02T12:47:07Z</time>
      </trkpt>
      <trkpt lat="46.31134" lon="-0.99263">
        <ele>4.3</ele>
        <time>2020-06-02T12:47:08Z</time>
      </trkpt>
      <trkpt lat="46.31134" lon="-0.99264">
        <ele>4.3</ele>
        <time>2020-06-02T12:47:09Z</time>
      </trkpt>
      <trkpt lat="46.31134" lon="-0.99269">
        <ele>4.4</ele>
        <time>2020-06-02T12:47:10Z</time>
      </trkpt>
      <trkpt lat="46.31134" lon="-0.99271">
        <ele>4.4</ele>
        <time>2020-06-02T12:47:11Z</time>
      </trkpt>
      <trkpt lat="46.31134" lon="-0.99276">
        <ele>4.4</ele>
        <time>2020-06-02T12:47:12Z</time>
      </trkpt>
      <trkpt lat="46.31134" lon="-0.99278">
        <ele>4.4</ele>
        <time>2020-06-02T12:47:13Z</time>
      </trkpt>
      <trkpt lat="46.31134" lon="-0.99283">
        <ele>4.4</ele>
        <time>2020-06-02T12:47:14Z</time>
      </trkpt>
      <trkpt lat="46.31134" lon="-0.99284">
        <ele>4.4</ele>
        <time>2020-06-02T12:47:15Z</time>
      </trkpt>
      <trkpt lat="46.31134" lon="-0.99289">
        <ele>4.4</ele>
        <time>2020-06-02T12:47:16Z</time>
      </trkpt>
      <trkpt lat="46.31134" lon="-0.99291">
        <ele>4.4</ele>
        <time>2020-06-02T12:47:17Z</time>
      </trkpt>
      <trkpt lat="46.31134" lon="-0.99297">
        <ele>4.5</ele>
        <time>2020-06-02T12:47:18Z</time>
      </trkpt>
      <trkpt lat="46.31134" lon="-0.99299">
        <ele>4.6</ele>
        <time>2020-06-02T12:47:19Z</time>
      </trkpt>
      <trkpt lat="46.31131" lon="-0.99302">
        <ele>4.8</ele>
        <time>2020-06-02T12:47:20Z</time>
      </trkpt>
      <trkpt lat="46.3113" lon="-0.99303">
        <ele>4.9</ele>
        <time>2020-06-02T12:47:21Z</time>
      </trkpt>
      <trkpt lat="46.31127" lon="-0.99303">
        <ele>5.5</ele>
        <time>2020-06-02T12:47:22Z</time>
      </trkpt>
      <trkpt lat="46.31124" lon="-0.99305">
        <ele>5.6</ele>
        <time>2020-06-02T12:47:23Z</time>
      </trkpt>
      <trkpt lat="46.31123" lon="-0.99307">
        <ele>5.7</ele>
        <time>2020-06-02T12:47:24Z</time>
      </trkpt>
      <trkpt lat="46.31122" lon="-0.9931">
        <ele>5.7</ele>
        <time>2020-06-02T12:47:25Z</time>
      </trkpt>
      <trkpt lat="46.31122" lon="-0.99312">
        <ele>5.8</ele>
        <time>2020-06-02T12:47:26Z</time>
      </trkpt>
      <trkpt lat="46.31121" lon="-0.99316">
        <ele>5.8</ele>
        <time>2020-06-02T12:47:27Z</time>
      </trkpt>
      <trkpt lat="46.31121" lon="-0.9932">
        <ele>5.9</ele>
        <time>2020-06-02T12:47:28Z</time>
      </trkpt>
      <trkpt lat="46.31121" lon="-0.99325">
        <ele>6</ele>
        <time>2020-06-02T12:47:29Z</time>
      </trkpt>
      <trkpt lat="46.3112" lon="-0.99329">
        <ele>6.1</ele>
        <time>2020-06-02T12:47:30Z</time>
      </trkpt>
      <trkpt lat="46.31119" lon="-0.99334">
        <ele>6.1</ele>
        <time>2020-06-02T12:47:31Z</time>
      </trkpt>
      <trkpt lat="46.31118" lon="-0.99335">
        <ele>6.2</ele>
        <time>2020-06-02T12:47:32Z</time>
      </trkpt>
      <trkpt lat="46.31117" lon="-0.99341">
        <ele>6.3</ele>
        <time>2020-06-02T12:47:33Z</time>
      </trkpt>
      <trkpt lat="46.31117" lon="-0.99342">
        <ele>6.3</ele>
        <time>2020-06-02T12:47:34Z</time>
      </trkpt>
      <trkpt lat="46.31116" lon="-0.99346">
        <ele>6.3</ele>
        <time>2020-06-02T12:47:35Z</time>
      </trkpt>
      <trkpt lat="46.31116" lon="-0.99351">
        <ele>6.4</ele>
        <time>2020-06-02T12:47:36Z</time>
      </trkpt>
      <trkpt lat="46.31115" lon="-0.99355">
        <ele>6.5</ele>
        <time>2020-06-02T12:47:37Z</time>
      </trkpt>
      <trkpt lat="46.31114" lon="-0.9936">
        <ele>6.3</ele>
        <time>2020-06-02T12:47:38Z</time>
      </trkpt>
      <trkpt lat="46.31114" lon="-0.99362">
        <ele>6.2</ele>
        <time>2020-06-02T12:47:39Z</time>
      </trkpt>
      <trkpt lat="46.31115" lon="-0.99367">
        <ele>5.9</ele>
        <time>2020-06-02T12:47:40Z</time>
      </trkpt>
      <trkpt lat="46.31116" lon="-0.99372">
        <ele>5.7</ele>
        <time>2020-06-02T12:47:41Z</time>
      </trkpt>
      <trkpt lat="46.31116" lon="-0.99378">
        <ele>5.4</ele>
        <time>2020-06-02T12:47:42Z</time>
      </trkpt>
      <trkpt lat="46.31117" lon="-0.99383">
        <ele>5.1</ele>
        <time>2020-06-02T12:47:43Z</time>
      </trkpt>
      <trkpt lat="46.31117" lon="-0.99388">
        <ele>4.9</ele>
        <time>2020-06-02T12:47:44Z</time>
      </trkpt>
      <trkpt lat="46.31117" lon="-0.99394">
        <ele>4.6</ele>
        <time>2020-06-02T12:47:45Z</time>
      </trkpt>
      <trkpt lat="46.31119" lon="-0.99399">
        <ele>4.3</ele>
        <time>2020-06-02T12:47:46Z</time>
      </trkpt>
      <trkpt lat="46.3112" lon="-0.99405">
        <ele>4.3</ele>
        <time>2020-06-02T12:47:47Z</time>
      </trkpt>
      <trkpt lat="46.3112" lon="-0.9941">
        <ele>4.3</ele>
        <time>2020-06-02T12:47:48Z</time>
      </trkpt>
      <trkpt lat="46.3112" lon="-0.99415">
        <ele>4.3</ele>
        <time>2020-06-02T12:47:49Z</time>
      </trkpt>
      <trkpt lat="46.3112" lon="-0.99419">
        <ele>4.3</ele>
        <time>2020-06-02T12:47:50Z</time>
      </trkpt>
      <trkpt lat="46.31121" lon="-0.99423">
        <ele>4.3</ele>
        <time>2020-06-02T12:47:51Z</time>
      </trkpt>
      <trkpt lat="46.31123" lon="-0.99426">
        <ele>4.3</ele>
        <time>2020-06-02T12:47:52Z</time>
      </trkpt>
      <trkpt lat="46.31125" lon="-0.99429">
        <ele>4.3</ele>
        <time>2020-06-02T12:47:53Z</time>
      </trkpt>
      <trkpt lat="46.31128" lon="-0.99432">
        <ele>4.3</ele>
        <time>2020-06-02T12:47:54Z</time>
      </trkpt>
      <trkpt lat="46.31129" lon="-0.99432">
        <ele>4.3</ele>
        <time>2020-06-02T12:47:55Z</time>
      </trkpt>
      <trkpt lat="46.31132" lon="-0.99435">
        <ele>4.3</ele>
        <time>2020-06-02T12:47:56Z</time>
      </trkpt>
      <trkpt lat="46.31133" lon="-0.99436">
        <ele>4.3</ele>
        <time>2020-06-02T12:47:57Z</time>
      </trkpt>
      <trkpt lat="46.31136" lon="-0.99437">
        <ele>4.2</ele>
        <time>2020-06-02T12:47:58Z</time>
      </trkpt>
      <trkpt lat="46.31137" lon="-0.99438">
        <ele>4.2</ele>
        <time>2020-06-02T12:47:59Z</time>
      </trkpt>
      <trkpt lat="46.3114" lon="-0.9944">
        <ele>4.2</ele>
        <time>2020-06-02T12:48:00Z</time>
      </trkpt>
      <trkpt lat="46.31141" lon="-0.99441">
        <ele>4.2</ele>
        <time>2020-06-02T12:48:01Z</time>
      </trkpt>
      <trkpt lat="46.31144" lon="-0.99444">
        <ele>4.2</ele>
        <time>2020-06-02T12:48:02Z</time>
      </trkpt>
      <trkpt lat="46.31145" lon="-0.99445">
        <ele>4.2</ele>
        <time>2020-06-02T12:48:03Z</time>
      </trkpt>
      <trkpt lat="46.31147" lon="-0.99448">
        <ele>4.2</ele>
        <time>2020-06-02T12:48:04Z</time>
      </trkpt>
      <trkpt lat="46.31147" lon="-0.99449">
        <ele>4.2</ele>
        <time>2020-06-02T12:48:05Z</time>
      </trkpt>
      <trkpt lat="46.31149" lon="-0.99453">
        <ele>4.2</ele>
        <time>2020-06-02T12:48:06Z</time>
      </trkpt>
      <trkpt lat="46.31149" lon="-0.99454">
        <ele>4.2</ele>
        <time>2020-06-02T12:48:07Z</time>
      </trkpt>
      <trkpt lat="46.31151" lon="-0.99458">
        <ele>4.1</ele>
        <time>2020-06-02T12:48:08Z</time>
      </trkpt>
      <trkpt lat="46.31151" lon="-0.9946">
        <ele>4.1</ele>
        <time>2020-06-02T12:48:09Z</time>
      </trkpt>
      <trkpt lat="46.31154" lon="-0.99464">
        <ele>4.1</ele>
        <time>2020-06-02T12:48:10Z</time>
      </trkpt>
      <trkpt lat="46.31154" lon="-0.99465">
        <ele>4.1</ele>
        <time>2020-06-02T12:48:11Z</time>
      </trkpt>
      <trkpt lat="46.31157" lon="-0.99468">
        <ele>4.1</ele>
        <time>2020-06-02T12:48:12Z</time>
      </trkpt>
      <trkpt lat="46.31157" lon="-0.9947">
        <ele>4.1</ele>
        <time>2020-06-02T12:48:13Z</time>
      </trkpt>
      <trkpt lat="46.31159" lon="-0.99474">
        <ele>4.1</ele>
        <time>2020-06-02T12:48:14Z</time>
      </trkpt>
      <trkpt lat="46.31159" lon="-0.99475">
        <ele>4.1</ele>
        <time>2020-06-02T12:48:15Z</time>
      </trkpt>
      <trkpt lat="46.31161" lon="-0.99479">
        <ele>4.1</ele>
        <time>2020-06-02T12:48:16Z</time>
      </trkpt>
      <trkpt lat="46.31162" lon="-0.9948">
        <ele>4.1</ele>
        <time>2020-06-02T12:48:17Z</time>
      </trkpt>
      <trkpt lat="46.31164" lon="-0.99483">
        <ele>4.1</ele>
        <time>2020-06-02T12:48:18Z</time>
      </trkpt>
      <trkpt lat="46.31165" lon="-0.99484">
        <ele>4.1</ele>
        <time>2020-06-02T12:48:19Z</time>
      </trkpt>
      <trkpt lat="46.31167" lon="-0.99487">
        <ele>4.1</ele>
        <time>2020-06-02T12:48:20Z</time>
      </trkpt>
      <trkpt lat="46.31168" lon="-0.99488">
        <ele>4.1</ele>
        <time>2020-06-02T12:48:21Z</time>
      </trkpt>
      <trkpt lat="46.31171" lon="-0.99491">
        <ele>4.1</ele>
        <time>2020-06-02T12:48:22Z</time>
      </trkpt>
      <trkpt lat="46.31172" lon="-0.99493">
        <ele>4.1</ele>
        <time>2020-06-02T12:48:23Z</time>
      </trkpt>
      <trkpt lat="46.31174" lon="-0.99496">
        <ele>4.1</ele>
        <time>2020-06-02T12:48:24Z</time>
      </trkpt>
      <trkpt lat="46.31175" lon="-0.99497">
        <ele>4.1</ele>
        <time>2020-06-02T12:48:25Z</time>
      </trkpt>
      <trkpt lat="46.31177" lon="-0.99502">
        <ele>4.1</ele>
        <time>2020-06-02T12:48:26Z</time>
      </trkpt>
      <trkpt lat="46.31178" lon="-0.99503">
        <ele>4.1</ele>
        <time>2020-06-02T12:48:27Z</time>
      </trkpt>
      <trkpt lat="46.3118" lon="-0.99506">
        <ele>4.1</ele>
        <time>2020-06-02T12:48:28Z</time>
      </trkpt>
      <trkpt lat="46.31182" lon="-0.99509">
        <ele>4</ele>
        <time>2020-06-02T12:48:29Z</time>
      </trkpt>
      <trkpt lat="46.31183" lon="-0.99512">
        <ele>4</ele>
        <time>2020-06-02T12:48:30Z</time>
      </trkpt>
      <trkpt lat="46.31185" lon="-0.99515">
        <ele>4</ele>
        <time>2020-06-02T12:48:31Z</time>
      </trkpt>
      <trkpt lat="46.31187" lon="-0.9952">
        <ele>4</ele>
        <time>2020-06-02T12:48:32Z</time>
      </trkpt>
      <trkpt lat="46.31189" lon="-0.99523">
        <ele>4</ele>
        <time>2020-06-02T12:48:33Z</time>
      </trkpt>
      <trkpt lat="46.31192" lon="-0.99525">
        <ele>4</ele>
        <time>2020-06-02T12:48:34Z</time>
      </trkpt>
      <trkpt lat="46.31195" lon="-0.99528">
        <ele>4</ele>
        <time>2020-06-02T12:48:35Z</time>
      </trkpt>
      <trkpt lat="46.31196" lon="-0.9953">
        <ele>4</ele>
        <time>2020-06-02T12:48:36Z</time>
      </trkpt>
      <trkpt lat="46.31199" lon="-0.99533">
        <ele>4</ele>
        <time>2020-06-02T12:48:37Z</time>
      </trkpt>
      <trkpt lat="46.312" lon="-0.99535">
        <ele>4</ele>
        <time>2020-06-02T12:48:38Z</time>
      </trkpt>
      <trkpt lat="46.31202" lon="-0.99537">
        <ele>4</ele>
        <time>2020-06-02T12:48:39Z</time>
      </trkpt>
      <trkpt lat="46.31205" lon="-0.99541">
        <ele>4</ele>
        <time>2020-06-02T12:48:40Z</time>
      </trkpt>
      <trkpt lat="46.31207" lon="-0.99545">
        <ele>4</ele>
        <time>2020-06-02T12:48:41Z</time>
      </trkpt>
      <trkpt lat="46.31209" lon="-0.9955">
        <ele>4</ele>
        <time>2020-06-02T12:48:42Z</time>
      </trkpt>
      <trkpt lat="46.31212" lon="-0.99553">
        <ele>3.9</ele>
        <time>2020-06-02T12:48:43Z</time>
      </trkpt>
      <trkpt lat="46.31215" lon="-0.99557">
        <ele>3.9</ele>
        <time>2020-06-02T12:48:44Z</time>
      </trkpt>
      <trkpt lat="46.31218" lon="-0.99561">
        <ele>4</ele>
        <time>2020-06-02T12:48:45Z</time>
      </trkpt>
      <trkpt lat="46.3122" lon="-0.99566">
        <ele>4</ele>
        <time>2020-06-02T12:48:46Z</time>
      </trkpt>
      <trkpt lat="46.31223" lon="-0.99571">
        <ele>4</ele>
        <time>2020-06-02T12:48:47Z</time>
      </trkpt>
      <trkpt lat="46.31225" lon="-0.99575">
        <ele>4</ele>
        <time>2020-06-02T12:48:48Z</time>
      </trkpt>
      <trkpt lat="46.31228" lon="-0.99579">
        <ele>4.1</ele>
        <time>2020-06-02T12:48:49Z</time>
      </trkpt>
      <trkpt lat="46.3123" lon="-0.99583">
        <ele>4.1</ele>
        <time>2020-06-02T12:48:50Z</time>
      </trkpt>
      <trkpt lat="46.31232" lon="-0.99587">
        <ele>4.1</ele>
        <time>2020-06-02T12:48:51Z</time>
      </trkpt>
      <trkpt lat="46.31235" lon="-0.99591">
        <ele>4.1</ele>
        <time>2020-06-02T12:48:52Z</time>
      </trkpt>
      <trkpt lat="46.31237" lon="-0.99595">
        <ele>4.1</ele>
        <time>2020-06-02T12:48:53Z</time>
      </trkpt>
      <trkpt lat="46.3124" lon="-0.99599">
        <ele>4.1</ele>
        <time>2020-06-02T12:48:54Z</time>
      </trkpt>
      <trkpt lat="46.31242" lon="-0.99603">
        <ele>4.1</ele>
        <time>2020-06-02T12:48:55Z</time>
      </trkpt>
      <trkpt lat="46.31244" lon="-0.99607">
        <ele>4.1</ele>
        <time>2020-06-02T12:48:56Z</time>
      </trkpt>
      <trkpt lat="46.31246" lon="-0.9961">
        <ele>4.1</ele>
        <time>2020-06-02T12:48:57Z</time>
      </trkpt>
      <trkpt lat="46.31249" lon="-0.99614">
        <ele>4.2</ele>
        <time>2020-06-02T12:48:58Z</time>
      </trkpt>
      <trkpt lat="46.31252" lon="-0.99617">
        <ele>4.2</ele>
        <time>2020-06-02T12:48:59Z</time>
      </trkpt>
      <trkpt lat="46.31254" lon="-0.99622">
        <ele>4.3</ele>
        <time>2020-06-02T12:49:00Z</time>
      </trkpt>
      <trkpt lat="46.31256" lon="-0.99626">
        <ele>4.3</ele>
        <time>2020-06-02T12:49:01Z</time>
      </trkpt>
      <trkpt lat="46.31258" lon="-0.99631">
        <ele>4.4</ele>
        <time>2020-06-02T12:49:02Z</time>
      </trkpt>
      <trkpt lat="46.31261" lon="-0.99635">
        <ele>4.4</ele>
        <time>2020-06-02T12:49:03Z</time>
      </trkpt>
      <trkpt lat="46.31263" lon="-0.99639">
        <ele>4.4</ele>
        <time>2020-06-02T12:49:04Z</time>
      </trkpt>
      <trkpt lat="46.31265" lon="-0.99643">
        <ele>4.5</ele>
        <time>2020-06-02T12:49:05Z</time>
      </trkpt>
      <trkpt lat="46.31266" lon="-0.99647">
        <ele>4.5</ele>
        <time>2020-06-02T12:49:06Z</time>
      </trkpt>
      <trkpt lat="46.31267" lon="-0.99652">
        <ele>4.6</ele>
        <time>2020-06-02T12:49:07Z</time>
      </trkpt>
      <trkpt lat="46.31267" lon="-0.99658">
        <ele>4.6</ele>
        <time>2020-06-02T12:49:08Z</time>
      </trkpt>
      <trkpt lat="46.31268" lon="-0.99664">
        <ele>4.6</ele>
        <time>2020-06-02T12:49:09Z</time>
      </trkpt>
      <trkpt lat="46.31268" lon="-0.9967">
        <ele>4.6</ele>
        <time>2020-06-02T12:49:10Z</time>
      </trkpt>
      <trkpt lat="46.31267" lon="-0.99676">
        <ele>4.6</ele>
        <time>2020-06-02T12:49:11Z</time>
      </trkpt>
      <trkpt lat="46.31268" lon="-0.99681">
        <ele>4.6</ele>
        <time>2020-06-02T12:49:12Z</time>
      </trkpt>
      <trkpt lat="46.31268" lon="-0.99687">
        <ele>4.6</ele>
        <time>2020-06-02T12:49:13Z</time>
      </trkpt>
      <trkpt lat="46.31269" lon="-0.99692">
        <ele>4.6</ele>
        <time>2020-06-02T12:49:14Z</time>
      </trkpt>
      <trkpt lat="46.31269" lon="-0.99698">
        <ele>4.6</ele>
        <time>2020-06-02T12:49:15Z</time>
      </trkpt>
      <trkpt lat="46.31269" lon="-0.99703">
        <ele>4.6</ele>
        <time>2020-06-02T12:49:16Z</time>
      </trkpt>
      <trkpt lat="46.3127" lon="-0.99708">
        <ele>4.6</ele>
        <time>2020-06-02T12:49:17Z</time>
      </trkpt>
      <trkpt lat="46.31271" lon="-0.99713">
        <ele>4.6</ele>
        <time>2020-06-02T12:49:18Z</time>
      </trkpt>
      <trkpt lat="46.31273" lon="-0.99719">
        <ele>4.6</ele>
        <time>2020-06-02T12:49:19Z</time>
      </trkpt>
      <trkpt lat="46.31274" lon="-0.99724">
        <ele>4.6</ele>
        <time>2020-06-02T12:49:20Z</time>
      </trkpt>
      <trkpt lat="46.31274" lon="-0.99729">
        <ele>4.6</ele>
        <time>2020-06-02T12:49:21Z</time>
      </trkpt>
      <trkpt lat="46.31275" lon="-0.99735">
        <ele>4.5</ele>
        <time>2020-06-02T12:49:22Z</time>
      </trkpt>
      <trkpt lat="46.31275" lon="-0.9974">
        <ele>4.5</ele>
        <time>2020-06-02T12:49:23Z</time>
      </trkpt>
      <trkpt lat="46.31276" lon="-0.99746">
        <ele>4.5</ele>
        <time>2020-06-02T12:49:24Z</time>
      </trkpt>
      <trkpt lat="46.31276" lon="-0.99751">
        <ele>4.5</ele>
        <time>2020-06-02T12:49:25Z</time>
      </trkpt>
      <trkpt lat="46.31277" lon="-0.99757">
        <ele>4.5</ele>
        <time>2020-06-02T12:49:26Z</time>
      </trkpt>
      <trkpt lat="46.31277" lon="-0.99762">
        <ele>4.5</ele>
        <time>2020-06-02T12:49:27Z</time>
      </trkpt>
      <trkpt lat="46.31277" lon="-0.99767">
        <ele>4.4</ele>
        <time>2020-06-02T12:49:28Z</time>
      </trkpt>
      <trkpt lat="46.31277" lon="-0.99772">
        <ele>4.4</ele>
        <time>2020-06-02T12:49:29Z</time>
      </trkpt>
      <trkpt lat="46.31277" lon="-0.99776">
        <ele>4.4</ele>
        <time>2020-06-02T12:49:30Z</time>
      </trkpt>
      <trkpt lat="46.31276" lon="-0.9978">
        <ele>4.4</ele>
        <time>2020-06-02T12:49:31Z</time>
      </trkpt>
      <trkpt lat="46.31276" lon="-0.99785">
        <ele>4.3</ele>
        <time>2020-06-02T12:49:32Z</time>
      </trkpt>
      <trkpt lat="46.31276" lon="-0.99789">
        <ele>4.3</ele>
        <time>2020-06-02T12:49:33Z</time>
      </trkpt>
      <trkpt lat="46.31277" lon="-0.99794">
        <ele>4.3</ele>
        <time>2020-06-02T12:49:34Z</time>
      </trkpt>
      <trkpt lat="46.31277" lon="-0.99799">
        <ele>4.3</ele>
        <time>2020-06-02T12:49:35Z</time>
      </trkpt>
      <trkpt lat="46.31277" lon="-0.99803">
        <ele>4.2</ele>
        <time>2020-06-02T12:49:36Z</time>
      </trkpt>
      <trkpt lat="46.31277" lon="-0.99808">
        <ele>4.2</ele>
        <time>2020-06-02T12:49:37Z</time>
      </trkpt>
      <trkpt lat="46.31277" lon="-0.99812">
        <ele>4.2</ele>
        <time>2020-06-02T12:49:38Z</time>
      </trkpt>
      <trkpt lat="46.31277" lon="-0.99817">
        <ele>4.2</ele>
        <time>2020-06-02T12:49:39Z</time>
      </trkpt>
      <trkpt lat="46.31278" lon="-0.99822">
        <ele>4.2</ele>
        <time>2020-06-02T12:49:40Z</time>
      </trkpt>
      <trkpt lat="46.31278" lon="-0.99827">
        <ele>4.1</ele>
        <time>2020-06-02T12:49:41Z</time>
      </trkpt>
      <trkpt lat="46.31278" lon="-0.99832">
        <ele>4.1</ele>
        <time>2020-06-02T12:49:42Z</time>
      </trkpt>
      <trkpt lat="46.31279" lon="-0.99837">
        <ele>4.1</ele>
        <time>2020-06-02T12:49:43Z</time>
      </trkpt>
      <trkpt lat="46.31278" lon="-0.99842">
        <ele>4.1</ele>
        <time>2020-06-02T12:49:44Z</time>
      </trkpt>
      <trkpt lat="46.3128" lon="-0.99847">
        <ele>4</ele>
        <time>2020-06-02T12:49:45Z</time>
      </trkpt>
      <trkpt lat="46.3128" lon="-0.99849">
        <ele>4</ele>
        <time>2020-06-02T12:49:46Z</time>
      </trkpt>
      <trkpt lat="46.31282" lon="-0.99854">
        <ele>4</ele>
        <time>2020-06-02T12:49:47Z</time>
      </trkpt>
      <trkpt lat="46.31282" lon="-0.99858">
        <ele>4</ele>
        <time>2020-06-02T12:49:48Z</time>
      </trkpt>
      <trkpt lat="46.31281" lon="-0.99863">
        <ele>4</ele>
        <time>2020-06-02T12:49:49Z</time>
      </trkpt>
      <trkpt lat="46.3128" lon="-0.99868">
        <ele>4</ele>
        <time>2020-06-02T12:49:50Z</time>
      </trkpt>
      <trkpt lat="46.31279" lon="-0.99873">
        <ele>4</ele>
        <time>2020-06-02T12:49:51Z</time>
      </trkpt>
      <trkpt lat="46.31277" lon="-0.99877">
        <ele>4</ele>
        <time>2020-06-02T12:49:52Z</time>
      </trkpt>
      <trkpt lat="46.31278" lon="-0.99882">
        <ele>3.9</ele>
        <time>2020-06-02T12:49:53Z</time>
      </trkpt>
      <trkpt lat="46.31278" lon="-0.99888">
        <ele>3.9</ele>
        <time>2020-06-02T12:49:54Z</time>
      </trkpt>
      <trkpt lat="46.31278" lon="-0.99893">
        <ele>3.9</ele>
        <time>2020-06-02T12:49:55Z</time>
      </trkpt>
      <trkpt lat="46.31279" lon="-0.99899">
        <ele>3.9</ele>
        <time>2020-06-02T12:49:56Z</time>
      </trkpt>
      <trkpt lat="46.3128" lon="-0.99905">
        <ele>3.9</ele>
        <time>2020-06-02T12:49:57Z</time>
      </trkpt>
      <trkpt lat="46.3128" lon="-0.99911">
        <ele>3.9</ele>
        <time>2020-06-02T12:49:58Z</time>
      </trkpt>
      <trkpt lat="46.31281" lon="-0.99917">
        <ele>3.8</ele>
        <time>2020-06-02T12:49:59Z</time>
      </trkpt>
      <trkpt lat="46.31283" lon="-0.99923">
        <ele>3.8</ele>
        <time>2020-06-02T12:50:00Z</time>
      </trkpt>
      <trkpt lat="46.31284" lon="-0.99929">
        <ele>3.8</ele>
        <time>2020-06-02T12:50:01Z</time>
      </trkpt>
      <trkpt lat="46.31285" lon="-0.99935">
        <ele>3.8</ele>
        <time>2020-06-02T12:50:02Z</time>
      </trkpt>
      <trkpt lat="46.31287" lon="-0.9994">
        <ele>3.7</ele>
        <time>2020-06-02T12:50:03Z</time>
      </trkpt>
      <trkpt lat="46.31288" lon="-0.99945">
        <ele>3.7</ele>
        <time>2020-06-02T12:50:04Z</time>
      </trkpt>
      <trkpt lat="46.3129" lon="-0.9995">
        <ele>3.7</ele>
        <time>2020-06-02T12:50:05Z</time>
      </trkpt>
      <trkpt lat="46.31292" lon="-0.99955">
        <ele>3.7</ele>
        <time>2020-06-02T12:50:06Z</time>
      </trkpt>
      <trkpt lat="46.31293" lon="-0.99961">
        <ele>3.7</ele>
        <time>2020-06-02T12:50:07Z</time>
      </trkpt>
      <trkpt lat="46.31295" lon="-0.99965">
        <ele>3.7</ele>
        <time>2020-06-02T12:50:08Z</time>
      </trkpt>
      <trkpt lat="46.31297" lon="-0.99971">
        <ele>3.6</ele>
        <time>2020-06-02T12:50:09Z</time>
      </trkpt>
      <trkpt lat="46.31299" lon="-0.99975">
        <ele>3.6</ele>
        <time>2020-06-02T12:50:10Z</time>
      </trkpt>
      <trkpt lat="46.31302" lon="-0.99979">
        <ele>3.6</ele>
        <time>2020-06-02T12:50:11Z</time>
      </trkpt>
      <trkpt lat="46.31303" lon="-0.99983">
        <ele>3.6</ele>
        <time>2020-06-02T12:50:12Z</time>
      </trkpt>
      <trkpt lat="46.31305" lon="-0.99988">
        <ele>3.6</ele>
        <time>2020-06-02T12:50:13Z</time>
      </trkpt>
      <trkpt lat="46.31306" lon="-0.99994">
        <ele>3.6</ele>
        <time>2020-06-02T12:50:14Z</time>
      </trkpt>
      <trkpt lat="46.31308" lon="-0.99999">
        <ele>3.6</ele>
        <time>2020-06-02T12:50:15Z</time>
      </trkpt>
      <trkpt lat="46.31309" lon="-1.00004">
        <ele>3.6</ele>
        <time>2020-06-02T12:50:16Z</time>
      </trkpt>
      <trkpt lat="46.31311" lon="-1.00008">
        <ele>3.6</ele>
        <time>2020-06-02T12:50:17Z</time>
      </trkpt>
      <trkpt lat="46.31313" lon="-1.00013">
        <ele>3.5</ele>
        <time>2020-06-02T12:50:18Z</time>
      </trkpt>
      <trkpt lat="46.31314" lon="-1.00016">
        <ele>3.5</ele>
        <time>2020-06-02T12:50:19Z</time>
      </trkpt>
      <trkpt lat="46.31316" lon="-1.00021">
        <ele>3.5</ele>
        <time>2020-06-02T12:50:20Z</time>
      </trkpt>
      <trkpt lat="46.31318" lon="-1.00025">
        <ele>3.5</ele>
        <time>2020-06-02T12:50:21Z</time>
      </trkpt>
      <trkpt lat="46.31319" lon="-1.00027">
        <ele>3.5</ele>
        <time>2020-06-02T12:50:22Z</time>
      </trkpt>
      <trkpt lat="46.31321" lon="-1.00032">
        <ele>3.5</ele>
        <time>2020-06-02T12:50:23Z</time>
      </trkpt>
      <trkpt lat="46.31322" lon="-1.00036">
        <ele>3.5</ele>
        <time>2020-06-02T12:50:24Z</time>
      </trkpt>
      <trkpt lat="46.31324" lon="-1.00042">
        <ele>3.5</ele>
        <time>2020-06-02T12:50:25Z</time>
      </trkpt>
      <trkpt lat="46.31325" lon="-1.00046">
        <ele>3.5</ele>
        <time>2020-06-02T12:50:26Z</time>
      </trkpt>
      <trkpt lat="46.31326" lon="-1.00049">
        <ele>3.5</ele>
        <time>2020-06-02T12:50:27Z</time>
      </trkpt>
      <trkpt lat="46.31328" lon="-1.00053">
        <ele>3.5</ele>
        <time>2020-06-02T12:50:28Z</time>
      </trkpt>
      <trkpt lat="46.31331" lon="-1.00058">
        <ele>3.5</ele>
        <time>2020-06-02T12:50:29Z</time>
      </trkpt>
      <trkpt lat="46.31333" lon="-1.00062">
        <ele>3.5</ele>
        <time>2020-06-02T12:50:30Z</time>
      </trkpt>
      <trkpt lat="46.31335" lon="-1.00068">
        <ele>3.5</ele>
        <time>2020-06-02T12:50:31Z</time>
      </trkpt>
      <trkpt lat="46.31336" lon="-1.00073">
        <ele>3.5</ele>
        <time>2020-06-02T12:50:32Z</time>
      </trkpt>
      <trkpt lat="46.31338" lon="-1.00077">
        <ele>3.5</ele>
        <time>2020-06-02T12:50:33Z</time>
      </trkpt>
      <trkpt lat="46.3134" lon="-1.00082">
        <ele>3.5</ele>
        <time>2020-06-02T12:50:34Z</time>
      </trkpt>
      <trkpt lat="46.31341" lon="-1.00088">
        <ele>3.5</ele>
        <time>2020-06-02T12:50:35Z</time>
      </trkpt>
      <trkpt lat="46.31342" lon="-1.00093">
        <ele>3.5</ele>
        <time>2020-06-02T12:50:36Z</time>
      </trkpt>
      <trkpt lat="46.31344" lon="-1.00098">
        <ele>3.5</ele>
        <time>2020-06-02T12:50:37Z</time>
      </trkpt>
      <trkpt lat="46.31345" lon="-1.00102">
        <ele>3.5</ele>
        <time>2020-06-02T12:50:38Z</time>
      </trkpt>
      <trkpt lat="46.31346" lon="-1.00106">
        <ele>3.5</ele>
        <time>2020-06-02T12:50:39Z</time>
      </trkpt>
      <trkpt lat="46.31347" lon="-1.00112">
        <ele>3.5</ele>
        <time>2020-06-02T12:50:40Z</time>
      </trkpt>
      <trkpt lat="46.31347" lon="-1.00114">
        <ele>3.5</ele>
        <time>2020-06-02T12:50:41Z</time>
      </trkpt>
      <trkpt lat="46.31348" lon="-1.00119">
        <ele>3.5</ele>
        <time>2020-06-02T12:50:42Z</time>
      </trkpt>
      <trkpt lat="46.31348" lon="-1.00125">
        <ele>3.5</ele>
        <time>2020-06-02T12:50:43Z</time>
      </trkpt>
      <trkpt lat="46.31349" lon="-1.00131">
        <ele>3.5</ele>
        <time>2020-06-02T12:50:44Z</time>
      </trkpt>
      <trkpt lat="46.3135" lon="-1.00135">
        <ele>3.5</ele>
        <time>2020-06-02T12:50:45Z</time>
      </trkpt>
      <trkpt lat="46.3135" lon="-1.00137">
        <ele>3.5</ele>
        <time>2020-06-02T12:50:46Z</time>
      </trkpt>
      <trkpt lat="46.31351" lon="-1.00143">
        <ele>3.5</ele>
        <time>2020-06-02T12:50:47Z</time>
      </trkpt>
      <trkpt lat="46.31352" lon="-1.00145">
        <ele>3.5</ele>
        <time>2020-06-02T12:50:48Z</time>
      </trkpt>
      <trkpt lat="46.31353" lon="-1.0015">
        <ele>3.5</ele>
        <time>2020-06-02T12:50:49Z</time>
      </trkpt>
      <trkpt lat="46.31353" lon="-1.00152">
        <ele>3.5</ele>
        <time>2020-06-02T12:50:50Z</time>
      </trkpt>
      <trkpt lat="46.31354" lon="-1.00157">
        <ele>3.4</ele>
        <time>2020-06-02T12:50:51Z</time>
      </trkpt>
      <trkpt lat="46.31355" lon="-1.00161">
        <ele>3.4</ele>
        <time>2020-06-02T12:50:52Z</time>
      </trkpt>
      <trkpt lat="46.31357" lon="-1.00166">
        <ele>3.4</ele>
        <time>2020-06-02T12:50:53Z</time>
      </trkpt>
      <trkpt lat="46.31358" lon="-1.00172">
        <ele>3.4</ele>
        <time>2020-06-02T12:50:54Z</time>
      </trkpt>
      <trkpt lat="46.31359" lon="-1.00175">
        <ele>3.4</ele>
        <time>2020-06-02T12:50:55Z</time>
      </trkpt>
      <trkpt lat="46.31359" lon="-1.00181">
        <ele>3.4</ele>
        <time>2020-06-02T12:50:56Z</time>
      </trkpt>
      <trkpt lat="46.31361" lon="-1.00186">
        <ele>3.4</ele>
        <time>2020-06-02T12:50:57Z</time>
      </trkpt>
      <trkpt lat="46.31362" lon="-1.0019">
        <ele>3.4</ele>
        <time>2020-06-02T12:50:58Z</time>
      </trkpt>
      <trkpt lat="46.31363" lon="-1.00195">
        <ele>3.4</ele>
        <time>2020-06-02T12:50:59Z</time>
      </trkpt>
      <trkpt lat="46.31364" lon="-1.00197">
        <ele>3.4</ele>
        <time>2020-06-02T12:51:00Z</time>
      </trkpt>
      <trkpt lat="46.31365" lon="-1.00201">
        <ele>3.4</ele>
        <time>2020-06-02T12:51:01Z</time>
      </trkpt>
      <trkpt lat="46.31365" lon="-1.00205">
        <ele>3.4</ele>
        <time>2020-06-02T12:51:02Z</time>
      </trkpt>
      <trkpt lat="46.31366" lon="-1.00209">
        <ele>3.4</ele>
        <time>2020-06-02T12:51:03Z</time>
      </trkpt>
      <trkpt lat="46.31366" lon="-1.00211">
        <ele>3.4</ele>
        <time>2020-06-02T12:51:04Z</time>
      </trkpt>
      <trkpt lat="46.31367" lon="-1.00216">
        <ele>3.4</ele>
        <time>2020-06-02T12:51:05Z</time>
      </trkpt>
      <trkpt lat="46.31368" lon="-1.00217">
        <ele>3.4</ele>
        <time>2020-06-02T12:51:06Z</time>
      </trkpt>
      <trkpt lat="46.3137" lon="-1.00219">
        <ele>3.4</ele>
        <time>2020-06-02T12:51:07Z</time>
      </trkpt>
      <trkpt lat="46.31371" lon="-1.00219">
        <ele>3.4</ele>
        <time>2020-06-02T12:51:08Z</time>
      </trkpt>
      <trkpt lat="46.31371" lon="-1.00216">
        <ele>3.4</ele>
        <time>2020-06-02T12:51:09Z</time>
      </trkpt>
      <trkpt lat="46.3137" lon="-1.00214">
        <ele>3.4</ele>
        <time>2020-06-02T12:51:10Z</time>
      </trkpt>
      <trkpt lat="46.31369" lon="-1.00211">
        <ele>3.4</ele>
        <time>2020-06-02T12:51:11Z</time>
      </trkpt>
      <trkpt lat="46.31366" lon="-1.00211">
        <ele>3.4</ele>
        <time>2020-06-02T12:51:12Z</time>
      </trkpt>
      <trkpt lat="46.31365" lon="-1.00211">
        <ele>3.4</ele>
        <time>2020-06-02T12:51:13Z</time>
      </trkpt>
      <trkpt lat="46.31364" lon="-1.00213">
        <ele>3.4</ele>
        <time>2020-06-02T12:51:14Z</time>
      </trkpt>
      <trkpt lat="46.31363" lon="-1.00214">
        <ele>3.4</ele>
        <time>2020-06-02T12:51:15Z</time>
      </trkpt>
      <trkpt lat="46.31363" lon="-1.00215">
        <ele>3.4</ele>
        <time>2020-06-02T12:51:16Z</time>
      </trkpt>
      <trkpt lat="46.31366" lon="-1.00218">
        <ele>3.4</ele>
        <time>2020-06-02T12:51:17Z</time>
      </trkpt>
      <trkpt lat="46.31367" lon="-1.00219">
        <ele>3.4</ele>
        <time>2020-06-02T12:51:18Z</time>
      </trkpt>
      <trkpt lat="46.31369" lon="-1.0022">
        <ele>3.4</ele>
        <time>2020-06-02T12:51:19Z</time>
      </trkpt>
      <trkpt lat="46.3137" lon="-1.00221">
        <ele>3.4</ele>
        <time>2020-06-02T12:51:20Z</time>
      </trkpt>
      <trkpt lat="46.31373" lon="-1.00221">
        <ele>3.4</ele>
        <time>2020-06-02T12:51:21Z</time>
      </trkpt>
      <trkpt lat="46.31374" lon="-1.00221">
        <ele>3.4</ele>
        <time>2020-06-02T12:51:22Z</time>
      </trkpt>
      <trkpt lat="46.31375" lon="-1.00221">
        <ele>3.4</ele>
        <time>2020-06-02T12:51:23Z</time>
      </trkpt>
      <trkpt lat="46.31376" lon="-1.00222">
        <ele>3.4</ele>
        <time>2020-06-02T12:51:24Z</time>
      </trkpt>
      <trkpt lat="46.31377" lon="-1.00223">
        <ele>3.4</ele>
        <time>2020-06-02T12:51:25Z</time>
      </trkpt>
      <trkpt lat="46.31378" lon="-1.00226">
        <ele>3.4</ele>
        <time>2020-06-02T12:51:26Z</time>
      </trkpt>
      <trkpt lat="46.31379" lon="-1.00227">
        <ele>3.4</ele>
        <time>2020-06-02T12:51:27Z</time>
      </trkpt>
      <trkpt lat="46.31379" lon="-1.00229">
        <ele>3.4</ele>
        <time>2020-06-02T12:51:28Z</time>
      </trkpt>
      <trkpt lat="46.31379" lon="-1.00231">
        <ele>3.4</ele>
        <time>2020-06-02T12:51:29Z</time>
      </trkpt>
      <trkpt lat="46.3138" lon="-1.00233">
        <ele>3.4</ele>
        <time>2020-06-02T12:51:30Z</time>
      </trkpt>
      <trkpt lat="46.3138" lon="-1.00234">
        <ele>3.4</ele>
        <time>2020-06-02T12:51:31Z</time>
      </trkpt>
      <trkpt lat="46.31381" lon="-1.00235">
        <ele>3.4</ele>
        <time>2020-06-02T12:51:32Z</time>
      </trkpt>
      <trkpt lat="46.31382" lon="-1.00238">
        <ele>3.4</ele>
        <time>2020-06-02T12:51:33Z</time>
      </trkpt>
      <trkpt lat="46.31383" lon="-1.00243">
        <ele>3.4</ele>
        <time>2020-06-02T12:51:34Z</time>
      </trkpt>
      <trkpt lat="46.31384" lon="-1.00247">
        <ele>3.4</ele>
        <time>2020-06-02T12:51:35Z</time>
      </trkpt>
      <trkpt lat="46.31384" lon="-1.00249">
        <ele>3.3</ele>
        <time>2020-06-02T12:51:36Z</time>
      </trkpt>
      <trkpt lat="46.31384" lon="-1.0025">
        <ele>3.3</ele>
        <time>2020-06-02T12:51:37Z</time>
      </trkpt>
      <trkpt lat="46.31385" lon="-1.00255">
        <ele>3.3</ele>
        <time>2020-06-02T12:51:38Z</time>
      </trkpt>
      <trkpt lat="46.31385" lon="-1.00257">
        <ele>3.3</ele>
        <time>2020-06-02T12:51:39Z</time>
      </trkpt>
      <trkpt lat="46.31386" lon="-1.00261">
        <ele>3.3</ele>
        <time>2020-06-02T12:51:40Z</time>
      </trkpt>
      <trkpt lat="46.31387" lon="-1.00262">
        <ele>3.3</ele>
        <time>2020-06-02T12:51:41Z</time>
      </trkpt>
      <trkpt lat="46.31387" lon="-1.00265">
        <ele>3.3</ele>
        <time>2020-06-02T12:51:42Z</time>
      </trkpt>
      <trkpt lat="46.31387" lon="-1.00267">
        <ele>3.3</ele>
        <time>2020-06-02T12:51:43Z</time>
      </trkpt>
      <trkpt lat="46.31388" lon="-1.00271">
        <ele>3.3</ele>
        <time>2020-06-02T12:51:44Z</time>
      </trkpt>
      <trkpt lat="46.31389" lon="-1.00273">
        <ele>3.3</ele>
        <time>2020-06-02T12:51:45Z</time>
      </trkpt>
      <trkpt lat="46.3139" lon="-1.00277">
        <ele>3.3</ele>
        <time>2020-06-02T12:51:46Z</time>
      </trkpt>
      <trkpt lat="46.3139" lon="-1.00279">
        <ele>3.3</ele>
        <time>2020-06-02T12:51:47Z</time>
      </trkpt>
      <trkpt lat="46.31391" lon="-1.00283">
        <ele>3.3</ele>
        <time>2020-06-02T12:51:48Z</time>
      </trkpt>
      <trkpt lat="46.31393" lon="-1.00288">
        <ele>3.4</ele>
        <time>2020-06-02T12:51:49Z</time>
      </trkpt>
      <trkpt lat="46.31395" lon="-1.00292">
        <ele>3.4</ele>
        <time>2020-06-02T12:51:50Z</time>
      </trkpt>
      <trkpt lat="46.31396" lon="-1.00297">
        <ele>3.4</ele>
        <time>2020-06-02T12:51:51Z</time>
      </trkpt>
      <trkpt lat="46.31398" lon="-1.00302">
        <ele>3.4</ele>
        <time>2020-06-02T12:51:52Z</time>
      </trkpt>
      <trkpt lat="46.314" lon="-1.00307">
        <ele>3.4</ele>
        <time>2020-06-02T12:51:53Z</time>
      </trkpt>
      <trkpt lat="46.31402" lon="-1.00311">
        <ele>3.4</ele>
        <time>2020-06-02T12:51:54Z</time>
      </trkpt>
      <trkpt lat="46.31403" lon="-1.00316">
        <ele>3.4</ele>
        <time>2020-06-02T12:51:55Z</time>
      </trkpt>
      <trkpt lat="46.31404" lon="-1.00321">
        <ele>3.4</ele>
        <time>2020-06-02T12:51:56Z</time>
      </trkpt>
      <trkpt lat="46.31404" lon="-1.00328">
        <ele>3.4</ele>
        <time>2020-06-02T12:51:57Z</time>
      </trkpt>
      <trkpt lat="46.31404" lon="-1.00336">
        <ele>3.4</ele>
        <time>2020-06-02T12:51:58Z</time>
      </trkpt>
      <trkpt lat="46.31404" lon="-1.00341">
        <ele>3.4</ele>
        <time>2020-06-02T12:51:59Z</time>
      </trkpt>
      <trkpt lat="46.31403" lon="-1.00347">
        <ele>3.4</ele>
        <time>2020-06-02T12:52:00Z</time>
      </trkpt>
      <trkpt lat="46.31403" lon="-1.00352">
        <ele>3.4</ele>
        <time>2020-06-02T12:52:01Z</time>
      </trkpt>
      <trkpt lat="46.31401" lon="-1.00358">
        <ele>3.5</ele>
        <time>2020-06-02T12:52:02Z</time>
      </trkpt>
      <trkpt lat="46.314" lon="-1.00363">
        <ele>3.5</ele>
        <time>2020-06-02T12:52:03Z</time>
      </trkpt>
      <trkpt lat="46.31398" lon="-1.00367">
        <ele>3.5</ele>
        <time>2020-06-02T12:52:04Z</time>
      </trkpt>
      <trkpt lat="46.31397" lon="-1.00371">
        <ele>3.5</ele>
        <time>2020-06-02T12:52:05Z</time>
      </trkpt>
      <trkpt lat="46.31395" lon="-1.00376">
        <ele>3.5</ele>
        <time>2020-06-02T12:52:06Z</time>
      </trkpt>
      <trkpt lat="46.31394" lon="-1.00381">
        <ele>3.5</ele>
        <time>2020-06-02T12:52:07Z</time>
      </trkpt>
      <trkpt lat="46.31393" lon="-1.00388">
        <ele>3.5</ele>
        <time>2020-06-02T12:52:08Z</time>
      </trkpt>
      <trkpt lat="46.31393" lon="-1.00392">
        <ele>3.5</ele>
        <time>2020-06-02T12:52:09Z</time>
      </trkpt>
      <trkpt lat="46.31394" lon="-1.00398">
        <ele>3.5</ele>
        <time>2020-06-02T12:52:10Z</time>
      </trkpt>
      <trkpt lat="46.31396" lon="-1.00403">
        <ele>3.5</ele>
        <time>2020-06-02T12:52:11Z</time>
      </trkpt>
      <trkpt lat="46.31398" lon="-1.00407">
        <ele>3.5</ele>
        <time>2020-06-02T12:52:12Z</time>
      </trkpt>
      <trkpt lat="46.314" lon="-1.0041">
        <ele>3.5</ele>
        <time>2020-06-02T12:52:13Z</time>
      </trkpt>
      <trkpt lat="46.31404" lon="-1.00413">
        <ele>3.5</ele>
        <time>2020-06-02T12:52:14Z</time>
      </trkpt>
      <trkpt lat="46.31407" lon="-1.00416">
        <ele>3.5</ele>
        <time>2020-06-02T12:52:15Z</time>
      </trkpt>
      <trkpt lat="46.3141" lon="-1.00419">
        <ele>3.5</ele>
        <time>2020-06-02T12:52:16Z</time>
      </trkpt>
      <trkpt lat="46.31414" lon="-1.00421">
        <ele>3.5</ele>
        <time>2020-06-02T12:52:17Z</time>
      </trkpt>
      <trkpt lat="46.31417" lon="-1.00424">
        <ele>3.4</ele>
        <time>2020-06-02T12:52:18Z</time>
      </trkpt>
      <trkpt lat="46.31419" lon="-1.00427">
        <ele>3.4</ele>
        <time>2020-06-02T12:52:19Z</time>
      </trkpt>
      <trkpt lat="46.31422" lon="-1.0043">
        <ele>3.4</ele>
        <time>2020-06-02T12:52:20Z</time>
      </trkpt>
      <trkpt lat="46.31424" lon="-1.00435">
        <ele>3.4</ele>
        <time>2020-06-02T12:52:21Z</time>
      </trkpt>
      <trkpt lat="46.31426" lon="-1.00438">
        <ele>3.4</ele>
        <time>2020-06-02T12:52:22Z</time>
      </trkpt>
      <trkpt lat="46.31428" lon="-1.00442">
        <ele>3.4</ele>
        <time>2020-06-02T12:52:23Z</time>
      </trkpt>
      <trkpt lat="46.31431" lon="-1.00446">
        <ele>3.4</ele>
        <time>2020-06-02T12:52:24Z</time>
      </trkpt>
      <trkpt lat="46.31434" lon="-1.00448">
        <ele>3.4</ele>
        <time>2020-06-02T12:52:25Z</time>
      </trkpt>
      <trkpt lat="46.31437" lon="-1.0045">
        <ele>3.4</ele>
        <time>2020-06-02T12:52:26Z</time>
      </trkpt>
      <trkpt lat="46.3144" lon="-1.00452">
        <ele>3.4</ele>
        <time>2020-06-02T12:52:27Z</time>
      </trkpt>
      <trkpt lat="46.31443" lon="-1.00454">
        <ele>3.4</ele>
        <time>2020-06-02T12:52:28Z</time>
      </trkpt>
      <trkpt lat="46.31446" lon="-1.00457">
        <ele>3.4</ele>
        <time>2020-06-02T12:52:29Z</time>
      </trkpt>
      <trkpt lat="46.31447" lon="-1.00458">
        <ele>3.4</ele>
        <time>2020-06-02T12:52:30Z</time>
      </trkpt>
      <trkpt lat="46.31449" lon="-1.00461">
        <ele>3.4</ele>
        <time>2020-06-02T12:52:31Z</time>
      </trkpt>
      <trkpt lat="46.31452" lon="-1.00466">
        <ele>3.3</ele>
        <time>2020-06-02T12:52:32Z</time>
      </trkpt>
      <trkpt lat="46.31452" lon="-1.00468">
        <ele>3.3</ele>
        <time>2020-06-02T12:52:33Z</time>
      </trkpt>
      <trkpt lat="46.31454" lon="-1.00474">
        <ele>3.3</ele>
        <time>2020-06-02T12:52:34Z</time>
      </trkpt>
      <trkpt lat="46.31455" lon="-1.00479">
        <ele>3.3</ele>
        <time>2020-06-02T12:52:35Z</time>
      </trkpt>
      <trkpt lat="46.31456" lon="-1.00485">
        <ele>3.3</ele>
        <time>2020-06-02T12:52:36Z</time>
      </trkpt>
      <trkpt lat="46.31456" lon="-1.00489">
        <ele>3.3</ele>
        <time>2020-06-02T12:52:37Z</time>
      </trkpt>
      <trkpt lat="46.31457" lon="-1.00493">
        <ele>3.3</ele>
        <time>2020-06-02T12:52:38Z</time>
      </trkpt>
      <trkpt lat="46.31457" lon="-1.00495">
        <ele>3.3</ele>
        <time>2020-06-02T12:52:39Z</time>
      </trkpt>
      <trkpt lat="46.31457" lon="-1.00499">
        <ele>3.2</ele>
        <time>2020-06-02T12:52:40Z</time>
      </trkpt>
      <trkpt lat="46.31457" lon="-1.005">
        <ele>3.2</ele>
        <time>2020-06-02T12:52:41Z</time>
      </trkpt>
      <trkpt lat="46.31457" lon="-1.00502">
        <ele>3.2</ele>
        <time>2020-06-02T12:52:42Z</time>
      </trkpt>
      <trkpt lat="46.31457" lon="-1.00503">
        <ele>3.2</ele>
        <time>2020-06-02T12:52:43Z</time>
      </trkpt>
      <trkpt lat="46.31457" lon="-1.00505">
        <ele>3.2</ele>
        <time>2020-06-02T12:52:44Z</time>
      </trkpt>
      <trkpt lat="46.31458" lon="-1.00505">
        <ele>3.2</ele>
        <time>2020-06-02T12:52:45Z</time>
      </trkpt>
      <trkpt lat="46.31457" lon="-1.00509">
        <ele>3.2</ele>
        <time>2020-06-02T12:52:46Z</time>
      </trkpt>
      <trkpt lat="46.31458" lon="-1.00514">
        <ele>3.2</ele>
        <time>2020-06-02T12:52:47Z</time>
      </trkpt>
      <trkpt lat="46.31457" lon="-1.00516">
        <ele>3.2</ele>
        <time>2020-06-02T12:52:48Z</time>
      </trkpt>
      <trkpt lat="46.31458" lon="-1.00522">
        <ele>3.2</ele>
        <time>2020-06-02T12:52:49Z</time>
      </trkpt>
      <trkpt lat="46.31459" lon="-1.00528">
        <ele>3.2</ele>
        <time>2020-06-02T12:52:50Z</time>
      </trkpt>
      <trkpt lat="46.3146" lon="-1.00534">
        <ele>3.2</ele>
        <time>2020-06-02T12:52:51Z</time>
      </trkpt>
      <trkpt lat="46.31462" lon="-1.00539">
        <ele>3.2</ele>
        <time>2020-06-02T12:52:52Z</time>
      </trkpt>
      <trkpt lat="46.31463" lon="-1.00544">
        <ele>3.2</ele>
        <time>2020-06-02T12:52:53Z</time>
      </trkpt>
      <trkpt lat="46.31464" lon="-1.0055">
        <ele>3.2</ele>
        <time>2020-06-02T12:52:54Z</time>
      </trkpt>
      <trkpt lat="46.31465" lon="-1.00557">
        <ele>3.2</ele>
        <time>2020-06-02T12:52:55Z</time>
      </trkpt>
      <trkpt lat="46.31466" lon="-1.00563">
        <ele>3.2</ele>
        <time>2020-06-02T12:52:56Z</time>
      </trkpt>
      <trkpt lat="46.31467" lon="-1.00568">
        <ele>3.2</ele>
        <time>2020-06-02T12:52:57Z</time>
      </trkpt>
      <trkpt lat="46.31467" lon="-1.00575">
        <ele>3.2</ele>
        <time>2020-06-02T12:52:58Z</time>
      </trkpt>
      <trkpt lat="46.31468" lon="-1.0058">
        <ele>3.2</ele>
        <time>2020-06-02T12:52:59Z</time>
      </trkpt>
      <trkpt lat="46.31468" lon="-1.00584">
        <ele>3.2</ele>
        <time>2020-06-02T12:53:00Z</time>
      </trkpt>
      <trkpt lat="46.31468" lon="-1.0059">
        <ele>3.2</ele>
        <time>2020-06-02T12:53:01Z</time>
      </trkpt>
      <trkpt lat="46.31469" lon="-1.00595">
        <ele>3.2</ele>
        <time>2020-06-02T12:53:02Z</time>
      </trkpt>
      <trkpt lat="46.31469" lon="-1.00601">
        <ele>3.2</ele>
        <time>2020-06-02T12:53:03Z</time>
      </trkpt>
      <trkpt lat="46.3147" lon="-1.00607">
        <ele>3.2</ele>
        <time>2020-06-02T12:53:04Z</time>
      </trkpt>
      <trkpt lat="46.3147" lon="-1.00612">
        <ele>3.2</ele>
        <time>2020-06-02T12:53:05Z</time>
      </trkpt>
      <trkpt lat="46.31471" lon="-1.00618">
        <ele>3.2</ele>
        <time>2020-06-02T12:53:06Z</time>
      </trkpt>
      <trkpt lat="46.31472" lon="-1.00623">
        <ele>3.2</ele>
        <time>2020-06-02T12:53:07Z</time>
      </trkpt>
      <trkpt lat="46.31472" lon="-1.0063">
        <ele>3.2</ele>
        <time>2020-06-02T12:53:08Z</time>
      </trkpt>
      <trkpt lat="46.31473" lon="-1.00637">
        <ele>3.2</ele>
        <time>2020-06-02T12:53:09Z</time>
      </trkpt>
      <trkpt lat="46.31473" lon="-1.00644">
        <ele>3.2</ele>
        <time>2020-06-02T12:53:10Z</time>
      </trkpt>
      <trkpt lat="46.31474" lon="-1.00651">
        <ele>3.2</ele>
        <time>2020-06-02T12:53:11Z</time>
      </trkpt>
      <trkpt lat="46.31474" lon="-1.00657">
        <ele>3.2</ele>
        <time>2020-06-02T12:53:12Z</time>
      </trkpt>
      <trkpt lat="46.31474" lon="-1.00664">
        <ele>3.2</ele>
        <time>2020-06-02T12:53:13Z</time>
      </trkpt>
      <trkpt lat="46.31474" lon="-1.00669">
        <ele>3.2</ele>
        <time>2020-06-02T12:53:14Z</time>
      </trkpt>
      <trkpt lat="46.31474" lon="-1.00674">
        <ele>3.2</ele>
        <time>2020-06-02T12:53:15Z</time>
      </trkpt>
      <trkpt lat="46.31474" lon="-1.0068">
        <ele>3.2</ele>
        <time>2020-06-02T12:53:16Z</time>
      </trkpt>
      <trkpt lat="46.31475" lon="-1.00685">
        <ele>3.2</ele>
        <time>2020-06-02T12:53:17Z</time>
      </trkpt>
      <trkpt lat="46.31474" lon="-1.00691">
        <ele>3.2</ele>
        <time>2020-06-02T12:53:18Z</time>
      </trkpt>
      <trkpt lat="46.31475" lon="-1.00697">
        <ele>3.2</ele>
        <time>2020-06-02T12:53:19Z</time>
      </trkpt>
      <trkpt lat="46.31475" lon="-1.00705">
        <ele>3.2</ele>
        <time>2020-06-02T12:53:20Z</time>
      </trkpt>
      <trkpt lat="46.31474" lon="-1.0071">
        <ele>3.2</ele>
        <time>2020-06-02T12:53:21Z</time>
      </trkpt>
      <trkpt lat="46.31474" lon="-1.00716">
        <ele>3.1</ele>
        <time>2020-06-02T12:53:22Z</time>
      </trkpt>
      <trkpt lat="46.31474" lon="-1.00722">
        <ele>3.1</ele>
        <time>2020-06-02T12:53:23Z</time>
      </trkpt>
      <trkpt lat="46.31474" lon="-1.00727">
        <ele>3.1</ele>
        <time>2020-06-02T12:53:24Z</time>
      </trkpt>
      <trkpt lat="46.31474" lon="-1.00733">
        <ele>3.1</ele>
        <time>2020-06-02T12:53:25Z</time>
      </trkpt>
      <trkpt lat="46.31474" lon="-1.0074">
        <ele>3.1</ele>
        <time>2020-06-02T12:53:26Z</time>
      </trkpt>
      <trkpt lat="46.31473" lon="-1.00747">
        <ele>3.1</ele>
        <time>2020-06-02T12:53:27Z</time>
      </trkpt>
      <trkpt lat="46.31473" lon="-1.00753">
        <ele>3.1</ele>
        <time>2020-06-02T12:53:28Z</time>
      </trkpt>
      <trkpt lat="46.31472" lon="-1.00759">
        <ele>3</ele>
        <time>2020-06-02T12:53:29Z</time>
      </trkpt>
      <trkpt lat="46.31472" lon="-1.00766">
        <ele>3</ele>
        <time>2020-06-02T12:53:30Z</time>
      </trkpt>
      <trkpt lat="46.31472" lon="-1.00772">
        <ele>3</ele>
        <time>2020-06-02T12:53:31Z</time>
      </trkpt>
      <trkpt lat="46.31472" lon="-1.00779">
        <ele>3</ele>
        <time>2020-06-02T12:53:32Z</time>
      </trkpt>
      <trkpt lat="46.31471" lon="-1.00785">
        <ele>3</ele>
        <time>2020-06-02T12:53:33Z</time>
      </trkpt>
      <trkpt lat="46.31471" lon="-1.00792">
        <ele>3</ele>
        <time>2020-06-02T12:53:34Z</time>
      </trkpt>
      <trkpt lat="46.31471" lon="-1.00798">
        <ele>3</ele>
        <time>2020-06-02T12:53:35Z</time>
      </trkpt>
      <trkpt lat="46.3147" lon="-1.00805">
        <ele>3</ele>
        <time>2020-06-02T12:53:36Z</time>
      </trkpt>
      <trkpt lat="46.31469" lon="-1.00811">
        <ele>3</ele>
        <time>2020-06-02T12:53:37Z</time>
      </trkpt>
      <trkpt lat="46.31469" lon="-1.00818">
        <ele>3</ele>
        <time>2020-06-02T12:53:38Z</time>
      </trkpt>
      <trkpt lat="46.31468" lon="-1.00824">
        <ele>3</ele>
        <time>2020-06-02T12:53:39Z</time>
      </trkpt>
      <trkpt lat="46.31467" lon="-1.0083">
        <ele>3</ele>
        <time>2020-06-02T12:53:40Z</time>
      </trkpt>
      <trkpt lat="46.31466" lon="-1.00837">
        <ele>3</ele>
        <time>2020-06-02T12:53:41Z</time>
      </trkpt>
      <trkpt lat="46.31465" lon="-1.00845">
        <ele>3</ele>
        <time>2020-06-02T12:53:42Z</time>
      </trkpt>
      <trkpt lat="46.31463" lon="-1.00851">
        <ele>3</ele>
        <time>2020-06-02T12:53:43Z</time>
      </trkpt>
      <trkpt lat="46.31461" lon="-1.00857">
        <ele>3</ele>
        <time>2020-06-02T12:53:44Z</time>
      </trkpt>
      <trkpt lat="46.3146" lon="-1.00864">
        <ele>3</ele>
        <time>2020-06-02T12:53:45Z</time>
      </trkpt>
      <trkpt lat="46.3146" lon="-1.0087">
        <ele>3</ele>
        <time>2020-06-02T12:53:46Z</time>
      </trkpt>
      <trkpt lat="46.3146" lon="-1.00877">
        <ele>3</ele>
        <time>2020-06-02T12:53:47Z</time>
      </trkpt>
      <trkpt lat="46.31459" lon="-1.00883">
        <ele>3</ele>
        <time>2020-06-02T12:53:48Z</time>
      </trkpt>
      <trkpt lat="46.31458" lon="-1.00889">
        <ele>3</ele>
        <time>2020-06-02T12:53:49Z</time>
      </trkpt>
      <trkpt lat="46.31457" lon="-1.00894">
        <ele>3</ele>
        <time>2020-06-02T12:53:50Z</time>
      </trkpt>
      <trkpt lat="46.31455" lon="-1.00901">
        <ele>3</ele>
        <time>2020-06-02T12:53:51Z</time>
      </trkpt>
      <trkpt lat="46.31454" lon="-1.00908">
        <ele>3</ele>
        <time>2020-06-02T12:53:52Z</time>
      </trkpt>
      <trkpt lat="46.31453" lon="-1.00914">
        <ele>3</ele>
        <time>2020-06-02T12:53:53Z</time>
      </trkpt>
      <trkpt lat="46.31451" lon="-1.0092">
        <ele>3</ele>
        <time>2020-06-02T12:53:54Z</time>
      </trkpt>
      <trkpt lat="46.3145" lon="-1.00925">
        <ele>3</ele>
        <time>2020-06-02T12:53:55Z</time>
      </trkpt>
      <trkpt lat="46.31448" lon="-1.00931">
        <ele>3</ele>
        <time>2020-06-02T12:53:56Z</time>
      </trkpt>
      <trkpt lat="46.31446" lon="-1.00936">
        <ele>3</ele>
        <time>2020-06-02T12:53:57Z</time>
      </trkpt>
      <trkpt lat="46.31445" lon="-1.00942">
        <ele>2.9</ele>
        <time>2020-06-02T12:53:58Z</time>
      </trkpt>
      <trkpt lat="46.31443" lon="-1.00948">
        <ele>2.9</ele>
        <time>2020-06-02T12:53:59Z</time>
      </trkpt>
      <trkpt lat="46.31441" lon="-1.00953">
        <ele>2.9</ele>
        <time>2020-06-02T12:54:00Z</time>
      </trkpt>
      <trkpt lat="46.31439" lon="-1.00959">
        <ele>2.9</ele>
        <time>2020-06-02T12:54:01Z</time>
      </trkpt>
      <trkpt lat="46.31437" lon="-1.00964">
        <ele>2.9</ele>
        <time>2020-06-02T12:54:02Z</time>
      </trkpt>
      <trkpt lat="46.31436" lon="-1.00969">
        <ele>2.9</ele>
        <time>2020-06-02T12:54:03Z</time>
      </trkpt>
      <trkpt lat="46.31434" lon="-1.00974">
        <ele>2.9</ele>
        <time>2020-06-02T12:54:04Z</time>
      </trkpt>
      <trkpt lat="46.31432" lon="-1.00979">
        <ele>2.9</ele>
        <time>2020-06-02T12:54:05Z</time>
      </trkpt>
      <trkpt lat="46.31431" lon="-1.00983">
        <ele>2.9</ele>
        <time>2020-06-02T12:54:06Z</time>
      </trkpt>
      <trkpt lat="46.31429" lon="-1.00989">
        <ele>2.9</ele>
        <time>2020-06-02T12:54:07Z</time>
      </trkpt>
      <trkpt lat="46.31428" lon="-1.00994">
        <ele>2.9</ele>
        <time>2020-06-02T12:54:08Z</time>
      </trkpt>
      <trkpt lat="46.31427" lon="-1.01">
        <ele>2.9</ele>
        <time>2020-06-02T12:54:09Z</time>
      </trkpt>
      <trkpt lat="46.31426" lon="-1.01006">
        <ele>2.9</ele>
        <time>2020-06-02T12:54:10Z</time>
      </trkpt>
      <trkpt lat="46.31424" lon="-1.01013">
        <ele>2.9</ele>
        <time>2020-06-02T12:54:11Z</time>
      </trkpt>
      <trkpt lat="46.31422" lon="-1.01019">
        <ele>2.9</ele>
        <time>2020-06-02T12:54:12Z</time>
      </trkpt>
      <trkpt lat="46.31421" lon="-1.01025">
        <ele>2.9</ele>
        <time>2020-06-02T12:54:13Z</time>
      </trkpt>
      <trkpt lat="46.31419" lon="-1.01031">
        <ele>2.9</ele>
        <time>2020-06-02T12:54:14Z</time>
      </trkpt>
      <trkpt lat="46.31417" lon="-1.01038">
        <ele>2.9</ele>
        <time>2020-06-02T12:54:15Z</time>
      </trkpt>
      <trkpt lat="46.31416" lon="-1.01043">
        <ele>2.9</ele>
        <time>2020-06-02T12:54:16Z</time>
      </trkpt>
      <trkpt lat="46.31415" lon="-1.01049">
        <ele>2.9</ele>
        <time>2020-06-02T12:54:17Z</time>
      </trkpt>
      <trkpt lat="46.31414" lon="-1.01055">
        <ele>3</ele>
        <time>2020-06-02T12:54:18Z</time>
      </trkpt>
      <trkpt lat="46.31413" lon="-1.01061">
        <ele>3</ele>
        <time>2020-06-02T12:54:19Z</time>
      </trkpt>
      <trkpt lat="46.31412" lon="-1.01067">
        <ele>3</ele>
        <time>2020-06-02T12:54:20Z</time>
      </trkpt>
      <trkpt lat="46.31411" lon="-1.01072">
        <ele>3</ele>
        <time>2020-06-02T12:54:21Z</time>
      </trkpt>
      <trkpt lat="46.3141" lon="-1.01078">
        <ele>3</ele>
        <time>2020-06-02T12:54:22Z</time>
      </trkpt>
      <trkpt lat="46.3141" lon="-1.01083">
        <ele>3.1</ele>
        <time>2020-06-02T12:54:23Z</time>
      </trkpt>
      <trkpt lat="46.31409" lon="-1.01088">
        <ele>3.1</ele>
        <time>2020-06-02T12:54:24Z</time>
      </trkpt>
      <trkpt lat="46.31408" lon="-1.01094">
        <ele>3.1</ele>
        <time>2020-06-02T12:54:25Z</time>
      </trkpt>
      <trkpt lat="46.31407" lon="-1.01098">
        <ele>3.1</ele>
        <time>2020-06-02T12:54:26Z</time>
      </trkpt>
      <trkpt lat="46.31406" lon="-1.01102">
        <ele>3.1</ele>
        <time>2020-06-02T12:54:27Z</time>
      </trkpt>
      <trkpt lat="46.31406" lon="-1.01106">
        <ele>3.1</ele>
        <time>2020-06-02T12:54:28Z</time>
      </trkpt>
      <trkpt lat="46.31404" lon="-1.0111">
        <ele>3.1</ele>
        <time>2020-06-02T12:54:29Z</time>
      </trkpt>
      <trkpt lat="46.31404" lon="-1.01115">
        <ele>3.1</ele>
        <time>2020-06-02T12:54:30Z</time>
      </trkpt>
      <trkpt lat="46.31403" lon="-1.01121">
        <ele>3.1</ele>
        <time>2020-06-02T12:54:31Z</time>
      </trkpt>
      <trkpt lat="46.31403" lon="-1.01126">
        <ele>3.1</ele>
        <time>2020-06-02T12:54:32Z</time>
      </trkpt>
      <trkpt lat="46.31401" lon="-1.01132">
        <ele>3.1</ele>
        <time>2020-06-02T12:54:33Z</time>
      </trkpt>
      <trkpt lat="46.314" lon="-1.01137">
        <ele>3.1</ele>
        <time>2020-06-02T12:54:34Z</time>
      </trkpt>
      <trkpt lat="46.314" lon="-1.01143">
        <ele>3.1</ele>
        <time>2020-06-02T12:54:35Z</time>
      </trkpt>
      <trkpt lat="46.314" lon="-1.0115">
        <ele>3.1</ele>
        <time>2020-06-02T12:54:36Z</time>
      </trkpt>
      <trkpt lat="46.31399" lon="-1.01156">
        <ele>3.2</ele>
        <time>2020-06-02T12:54:37Z</time>
      </trkpt>
      <trkpt lat="46.31398" lon="-1.01162">
        <ele>3.2</ele>
        <time>2020-06-02T12:54:38Z</time>
      </trkpt>
      <trkpt lat="46.31397" lon="-1.01167">
        <ele>3.2</ele>
        <time>2020-06-02T12:54:39Z</time>
      </trkpt>
      <trkpt lat="46.31396" lon="-1.01172">
        <ele>3.2</ele>
        <time>2020-06-02T12:54:40Z</time>
      </trkpt>
      <trkpt lat="46.31395" lon="-1.01177">
        <ele>3.2</ele>
        <time>2020-06-02T12:54:41Z</time>
      </trkpt>
      <trkpt lat="46.31395" lon="-1.01184">
        <ele>3.2</ele>
        <time>2020-06-02T12:54:42Z</time>
      </trkpt>
      <trkpt lat="46.31394" lon="-1.01189">
        <ele>3.2</ele>
        <time>2020-06-02T12:54:43Z</time>
      </trkpt>
      <trkpt lat="46.31393" lon="-1.01195">
        <ele>3.2</ele>
        <time>2020-06-02T12:54:44Z</time>
      </trkpt>
      <trkpt lat="46.31392" lon="-1.012">
        <ele>3.2</ele>
        <time>2020-06-02T12:54:45Z</time>
      </trkpt>
      <trkpt lat="46.31391" lon="-1.01205">
        <ele>3.2</ele>
        <time>2020-06-02T12:54:46Z</time>
      </trkpt>
      <trkpt lat="46.31391" lon="-1.0121">
        <ele>3.2</ele>
        <time>2020-06-02T12:54:47Z</time>
      </trkpt>
      <trkpt lat="46.3139" lon="-1.01216">
        <ele>3.2</ele>
        <time>2020-06-02T12:54:48Z</time>
      </trkpt>
      <trkpt lat="46.3139" lon="-1.01223">
        <ele>3.2</ele>
        <time>2020-06-02T12:54:49Z</time>
      </trkpt>
      <trkpt lat="46.31389" lon="-1.01229">
        <ele>3.1</ele>
        <time>2020-06-02T12:54:50Z</time>
      </trkpt>
      <trkpt lat="46.31388" lon="-1.01235">
        <ele>3.1</ele>
        <time>2020-06-02T12:54:51Z</time>
      </trkpt>
      <trkpt lat="46.31387" lon="-1.01242">
        <ele>3.1</ele>
        <time>2020-06-02T12:54:52Z</time>
      </trkpt>
      <trkpt lat="46.31386" lon="-1.01249">
        <ele>3.1</ele>
        <time>2020-06-02T12:54:53Z</time>
      </trkpt>
      <trkpt lat="46.31386" lon="-1.01255">
        <ele>3.1</ele>
        <time>2020-06-02T12:54:54Z</time>
      </trkpt>
      <trkpt lat="46.31386" lon="-1.01261">
        <ele>3.1</ele>
        <time>2020-06-02T12:54:55Z</time>
      </trkpt>
      <trkpt lat="46.31386" lon="-1.01267">
        <ele>3.1</ele>
        <time>2020-06-02T12:54:56Z</time>
      </trkpt>
      <trkpt lat="46.31386" lon="-1.01274">
        <ele>3.1</ele>
        <time>2020-06-02T12:54:57Z</time>
      </trkpt>
      <trkpt lat="46.31386" lon="-1.0128">
        <ele>3.1</ele>
        <time>2020-06-02T12:54:58Z</time>
      </trkpt>
      <trkpt lat="46.31386" lon="-1.01286">
        <ele>3.1</ele>
        <time>2020-06-02T12:54:59Z</time>
      </trkpt>
      <trkpt lat="46.31386" lon="-1.01292">
        <ele>3.1</ele>
        <time>2020-06-02T12:55:00Z</time>
      </trkpt>
      <trkpt lat="46.31385" lon="-1.01298">
        <ele>3.1</ele>
        <time>2020-06-02T12:55:01Z</time>
      </trkpt>
      <trkpt lat="46.31385" lon="-1.01305">
        <ele>3.1</ele>
        <time>2020-06-02T12:55:02Z</time>
      </trkpt>
      <trkpt lat="46.31384" lon="-1.01311">
        <ele>3.1</ele>
        <time>2020-06-02T12:55:03Z</time>
      </trkpt>
      <trkpt lat="46.31383" lon="-1.01317">
        <ele>3.1</ele>
        <time>2020-06-02T12:55:04Z</time>
      </trkpt>
      <trkpt lat="46.31382" lon="-1.01324">
        <ele>3.1</ele>
        <time>2020-06-02T12:55:05Z</time>
      </trkpt>
      <trkpt lat="46.31382" lon="-1.0133">
        <ele>3.1</ele>
        <time>2020-06-02T12:55:06Z</time>
      </trkpt>
      <trkpt lat="46.31381" lon="-1.01338">
        <ele>3.1</ele>
        <time>2020-06-02T12:55:07Z</time>
      </trkpt>
      <trkpt lat="46.3138" lon="-1.01342">
        <ele>3.1</ele>
        <time>2020-06-02T12:55:08Z</time>
      </trkpt>
      <trkpt lat="46.31379" lon="-1.01349">
        <ele>3.1</ele>
        <time>2020-06-02T12:55:09Z</time>
      </trkpt>
      <trkpt lat="46.31379" lon="-1.01355">
        <ele>3.1</ele>
        <time>2020-06-02T12:55:10Z</time>
      </trkpt>
      <trkpt lat="46.31379" lon="-1.01361">
        <ele>3.1</ele>
        <time>2020-06-02T12:55:11Z</time>
      </trkpt>
      <trkpt lat="46.31379" lon="-1.01368">
        <ele>3.1</ele>
        <time>2020-06-02T12:55:12Z</time>
      </trkpt>
      <trkpt lat="46.31379" lon="-1.01374">
        <ele>3.1</ele>
        <time>2020-06-02T12:55:13Z</time>
      </trkpt>
      <trkpt lat="46.31379" lon="-1.01379">
        <ele>3.1</ele>
        <time>2020-06-02T12:55:14Z</time>
      </trkpt>
      <trkpt lat="46.31381" lon="-1.01385">
        <ele>3.1</ele>
        <time>2020-06-02T12:55:15Z</time>
      </trkpt>
      <trkpt lat="46.31382" lon="-1.01391">
        <ele>3.1</ele>
        <time>2020-06-02T12:55:16Z</time>
      </trkpt>
      <trkpt lat="46.31383" lon="-1.01397">
        <ele>3.1</ele>
        <time>2020-06-02T12:55:17Z</time>
      </trkpt>
      <trkpt lat="46.31383" lon="-1.01403">
        <ele>3.1</ele>
        <time>2020-06-02T12:55:18Z</time>
      </trkpt>
      <trkpt lat="46.31383" lon="-1.01408">
        <ele>3.1</ele>
        <time>2020-06-02T12:55:19Z</time>
      </trkpt>
      <trkpt lat="46.31384" lon="-1.01414">
        <ele>3.1</ele>
        <time>2020-06-02T12:55:20Z</time>
      </trkpt>
      <trkpt lat="46.31386" lon="-1.01419">
        <ele>3.1</ele>
        <time>2020-06-02T12:55:21Z</time>
      </trkpt>
      <trkpt lat="46.31386" lon="-1.01425">
        <ele>3.1</ele>
        <time>2020-06-02T12:55:22Z</time>
      </trkpt>
      <trkpt lat="46.31387" lon="-1.0143">
        <ele>3.1</ele>
        <time>2020-06-02T12:55:23Z</time>
      </trkpt>
      <trkpt lat="46.31387" lon="-1.01436">
        <ele>3.1</ele>
        <time>2020-06-02T12:55:24Z</time>
      </trkpt>
      <trkpt lat="46.31388" lon="-1.01442">
        <ele>3.1</ele>
        <time>2020-06-02T12:55:25Z</time>
      </trkpt>
      <trkpt lat="46.31389" lon="-1.01447">
        <ele>3.1</ele>
        <time>2020-06-02T12:55:26Z</time>
      </trkpt>
      <trkpt lat="46.3139" lon="-1.01453">
        <ele>3.1</ele>
        <time>2020-06-02T12:55:27Z</time>
      </trkpt>
      <trkpt lat="46.3139" lon="-1.01458">
        <ele>3.1</ele>
        <time>2020-06-02T12:55:28Z</time>
      </trkpt>
      <trkpt lat="46.3139" lon="-1.01464">
        <ele>3.1</ele>
        <time>2020-06-02T12:55:29Z</time>
      </trkpt>
      <trkpt lat="46.3139" lon="-1.0147">
        <ele>3.1</ele>
        <time>2020-06-02T12:55:30Z</time>
      </trkpt>
      <trkpt lat="46.3139" lon="-1.01475">
        <ele>3.1</ele>
        <time>2020-06-02T12:55:31Z</time>
      </trkpt>
      <trkpt lat="46.3139" lon="-1.01482">
        <ele>3.1</ele>
        <time>2020-06-02T12:55:32Z</time>
      </trkpt>
      <trkpt lat="46.31391" lon="-1.01488">
        <ele>3.1</ele>
        <time>2020-06-02T12:55:33Z</time>
      </trkpt>
      <trkpt lat="46.31392" lon="-1.01494">
        <ele>3.1</ele>
        <time>2020-06-02T12:55:34Z</time>
      </trkpt>
      <trkpt lat="46.31392" lon="-1.01501">
        <ele>3.1</ele>
        <time>2020-06-02T12:55:35Z</time>
      </trkpt>
      <trkpt lat="46.31393" lon="-1.01507">
        <ele>3.1</ele>
        <time>2020-06-02T12:55:36Z</time>
      </trkpt>
      <trkpt lat="46.31392" lon="-1.01513">
        <ele>3.1</ele>
        <time>2020-06-02T12:55:37Z</time>
      </trkpt>
      <trkpt lat="46.31391" lon="-1.0152">
        <ele>3.1</ele>
        <time>2020-06-02T12:55:38Z</time>
      </trkpt>
      <trkpt lat="46.31392" lon="-1.01526">
        <ele>3.1</ele>
        <time>2020-06-02T12:55:39Z</time>
      </trkpt>
      <trkpt lat="46.31392" lon="-1.01533">
        <ele>3.1</ele>
        <time>2020-06-02T12:55:40Z</time>
      </trkpt>
      <trkpt lat="46.31391" lon="-1.01538">
        <ele>3.1</ele>
        <time>2020-06-02T12:55:41Z</time>
      </trkpt>
      <trkpt lat="46.31391" lon="-1.01544">
        <ele>3.1</ele>
        <time>2020-06-02T12:55:42Z</time>
      </trkpt>
      <trkpt lat="46.31392" lon="-1.01551">
        <ele>3.1</ele>
        <time>2020-06-02T12:55:43Z</time>
      </trkpt>
      <trkpt lat="46.31393" lon="-1.01557">
        <ele>3.1</ele>
        <time>2020-06-02T12:55:44Z</time>
      </trkpt>
      <trkpt lat="46.31393" lon="-1.01563">
        <ele>3.1</ele>
        <time>2020-06-02T12:55:45Z</time>
      </trkpt>
      <trkpt lat="46.31394" lon="-1.0157">
        <ele>3.1</ele>
        <time>2020-06-02T12:55:46Z</time>
      </trkpt>
      <trkpt lat="46.31395" lon="-1.01575">
        <ele>3.1</ele>
        <time>2020-06-02T12:55:47Z</time>
      </trkpt>
      <trkpt lat="46.31395" lon="-1.01581">
        <ele>3.1</ele>
        <time>2020-06-02T12:55:48Z</time>
      </trkpt>
      <trkpt lat="46.31396" lon="-1.01587">
        <ele>3.1</ele>
        <time>2020-06-02T12:55:49Z</time>
      </trkpt>
      <trkpt lat="46.31396" lon="-1.01591">
        <ele>3.1</ele>
        <time>2020-06-02T12:55:50Z</time>
      </trkpt>
      <trkpt lat="46.31396" lon="-1.01597">
        <ele>3.1</ele>
        <time>2020-06-02T12:55:51Z</time>
      </trkpt>
      <trkpt lat="46.31396" lon="-1.01603">
        <ele>3.1</ele>
        <time>2020-06-02T12:55:52Z</time>
      </trkpt>
      <trkpt lat="46.31396" lon="-1.01609">
        <ele>3.1</ele>
        <time>2020-06-02T12:55:53Z</time>
      </trkpt>
      <trkpt lat="46.31397" lon="-1.01615">
        <ele>3.1</ele>
        <time>2020-06-02T12:55:54Z</time>
      </trkpt>
      <trkpt lat="46.31397" lon="-1.01622">
        <ele>3.1</ele>
        <time>2020-06-02T12:55:55Z</time>
      </trkpt>
      <trkpt lat="46.31398" lon="-1.01627">
        <ele>3.1</ele>
        <time>2020-06-02T12:55:56Z</time>
      </trkpt>
      <trkpt lat="46.31398" lon="-1.01634">
        <ele>3.1</ele>
        <time>2020-06-02T12:55:57Z</time>
      </trkpt>
      <trkpt lat="46.31398" lon="-1.0164">
        <ele>3.1</ele>
        <time>2020-06-02T12:55:58Z</time>
      </trkpt>
      <trkpt lat="46.31399" lon="-1.01646">
        <ele>3.1</ele>
        <time>2020-06-02T12:55:59Z</time>
      </trkpt>
      <trkpt lat="46.31399" lon="-1.01653">
        <ele>3.1</ele>
        <time>2020-06-02T12:56:00Z</time>
      </trkpt>
      <trkpt lat="46.314" lon="-1.01659">
        <ele>3.2</ele>
        <time>2020-06-02T12:56:01Z</time>
      </trkpt>
      <trkpt lat="46.314" lon="-1.01665">
        <ele>3.2</ele>
        <time>2020-06-02T12:56:02Z</time>
      </trkpt>
      <trkpt lat="46.314" lon="-1.01672">
        <ele>3.2</ele>
        <time>2020-06-02T12:56:03Z</time>
      </trkpt>
      <trkpt lat="46.314" lon="-1.01677">
        <ele>3.2</ele>
        <time>2020-06-02T12:56:04Z</time>
      </trkpt>
      <trkpt lat="46.31401" lon="-1.01683">
        <ele>3.2</ele>
        <time>2020-06-02T12:56:05Z</time>
      </trkpt>
      <trkpt lat="46.31402" lon="-1.01687">
        <ele>3.2</ele>
        <time>2020-06-02T12:56:06Z</time>
      </trkpt>
      <trkpt lat="46.31402" lon="-1.01692">
        <ele>3.2</ele>
        <time>2020-06-02T12:56:07Z</time>
      </trkpt>
      <trkpt lat="46.31403" lon="-1.01697">
        <ele>3.2</ele>
        <time>2020-06-02T12:56:08Z</time>
      </trkpt>
      <trkpt lat="46.31404" lon="-1.01702">
        <ele>3.2</ele>
        <time>2020-06-02T12:56:09Z</time>
      </trkpt>
      <trkpt lat="46.31404" lon="-1.01708">
        <ele>3.3</ele>
        <time>2020-06-02T12:56:10Z</time>
      </trkpt>
      <trkpt lat="46.31405" lon="-1.01714">
        <ele>3.3</ele>
        <time>2020-06-02T12:56:11Z</time>
      </trkpt>
      <trkpt lat="46.31406" lon="-1.01718">
        <ele>3.3</ele>
        <time>2020-06-02T12:56:12Z</time>
      </trkpt>
      <trkpt lat="46.31407" lon="-1.01722">
        <ele>3.3</ele>
        <time>2020-06-02T12:56:13Z</time>
      </trkpt>
      <trkpt lat="46.31407" lon="-1.01726">
        <ele>3.3</ele>
        <time>2020-06-02T12:56:14Z</time>
      </trkpt>
      <trkpt lat="46.31408" lon="-1.0173">
        <ele>3.3</ele>
        <time>2020-06-02T12:56:15Z</time>
      </trkpt>
      <trkpt lat="46.31408" lon="-1.01735">
        <ele>3.3</ele>
        <time>2020-06-02T12:56:16Z</time>
      </trkpt>
      <trkpt lat="46.31408" lon="-1.01739">
        <ele>3.3</ele>
        <time>2020-06-02T12:56:17Z</time>
      </trkpt>
      <trkpt lat="46.31409" lon="-1.01743">
        <ele>3.3</ele>
        <time>2020-06-02T12:56:18Z</time>
      </trkpt>
      <trkpt lat="46.3141" lon="-1.01749">
        <ele>3.3</ele>
        <time>2020-06-02T12:56:19Z</time>
      </trkpt>
      <trkpt lat="46.3141" lon="-1.0175">
        <ele>3.3</ele>
        <time>2020-06-02T12:56:20Z</time>
      </trkpt>
      <trkpt lat="46.31411" lon="-1.01755">
        <ele>3.3</ele>
        <time>2020-06-02T12:56:21Z</time>
      </trkpt>
      <trkpt lat="46.31411" lon="-1.01759">
        <ele>3.3</ele>
        <time>2020-06-02T12:56:22Z</time>
      </trkpt>
      <trkpt lat="46.31412" lon="-1.01764">
        <ele>3.3</ele>
        <time>2020-06-02T12:56:23Z</time>
      </trkpt>
      <trkpt lat="46.31412" lon="-1.01767">
        <ele>3.3</ele>
        <time>2020-06-02T12:56:24Z</time>
      </trkpt>
      <trkpt lat="46.31412" lon="-1.01772">
        <ele>3.3</ele>
        <time>2020-06-02T12:56:25Z</time>
      </trkpt>
      <trkpt lat="46.31412" lon="-1.01778">
        <ele>3.3</ele>
        <time>2020-06-02T12:56:26Z</time>
      </trkpt>
      <trkpt lat="46.31413" lon="-1.01783">
        <ele>3.3</ele>
        <time>2020-06-02T12:56:27Z</time>
      </trkpt>
      <trkpt lat="46.31413" lon="-1.01789">
        <ele>3.3</ele>
        <time>2020-06-02T12:56:28Z</time>
      </trkpt>
      <trkpt lat="46.31414" lon="-1.01796">
        <ele>3.3</ele>
        <time>2020-06-02T12:56:29Z</time>
      </trkpt>
      <trkpt lat="46.31414" lon="-1.01803">
        <ele>3.3</ele>
        <time>2020-06-02T12:56:30Z</time>
      </trkpt>
      <trkpt lat="46.31416" lon="-1.01811">
        <ele>3.3</ele>
        <time>2020-06-02T12:56:31Z</time>
      </trkpt>
      <trkpt lat="46.31417" lon="-1.01817">
        <ele>3.3</ele>
        <time>2020-06-02T12:56:32Z</time>
      </trkpt>
      <trkpt lat="46.31417" lon="-1.01824">
        <ele>3.3</ele>
        <time>2020-06-02T12:56:33Z</time>
      </trkpt>
      <trkpt lat="46.31417" lon="-1.01831">
        <ele>3.3</ele>
        <time>2020-06-02T12:56:34Z</time>
      </trkpt>
      <trkpt lat="46.31417" lon="-1.01837">
        <ele>3.2</ele>
        <time>2020-06-02T12:56:35Z</time>
      </trkpt>
      <trkpt lat="46.31417" lon="-1.01843">
        <ele>3.2</ele>
        <time>2020-06-02T12:56:36Z</time>
      </trkpt>
      <trkpt lat="46.31418" lon="-1.0185">
        <ele>3.2</ele>
        <time>2020-06-02T12:56:37Z</time>
      </trkpt>
      <trkpt lat="46.31418" lon="-1.01856">
        <ele>3.2</ele>
        <time>2020-06-02T12:56:38Z</time>
      </trkpt>
      <trkpt lat="46.31418" lon="-1.01863">
        <ele>3.2</ele>
        <time>2020-06-02T12:56:39Z</time>
      </trkpt>
      <trkpt lat="46.31419" lon="-1.01869">
        <ele>3.2</ele>
        <time>2020-06-02T12:56:40Z</time>
      </trkpt>
      <trkpt lat="46.3142" lon="-1.01875">
        <ele>3.2</ele>
        <time>2020-06-02T12:56:41Z</time>
      </trkpt>
      <trkpt lat="46.3142" lon="-1.01881">
        <ele>3.2</ele>
        <time>2020-06-02T12:56:42Z</time>
      </trkpt>
      <trkpt lat="46.31421" lon="-1.01887">
        <ele>3.2</ele>
        <time>2020-06-02T12:56:43Z</time>
      </trkpt>
      <trkpt lat="46.31421" lon="-1.01893">
        <ele>3.2</ele>
        <time>2020-06-02T12:56:44Z</time>
      </trkpt>
      <trkpt lat="46.31421" lon="-1.019">
        <ele>3.2</ele>
        <time>2020-06-02T12:56:45Z</time>
      </trkpt>
      <trkpt lat="46.31422" lon="-1.01906">
        <ele>3.2</ele>
        <time>2020-06-02T12:56:46Z</time>
      </trkpt>
      <trkpt lat="46.31422" lon="-1.01912">
        <ele>3.2</ele>
        <time>2020-06-02T12:56:47Z</time>
      </trkpt>
      <trkpt lat="46.31423" lon="-1.01918">
        <ele>3.2</ele>
        <time>2020-06-02T12:56:48Z</time>
      </trkpt>
      <trkpt lat="46.31423" lon="-1.01924">
        <ele>3.2</ele>
        <time>2020-06-02T12:56:49Z</time>
      </trkpt>
      <trkpt lat="46.31423" lon="-1.01931">
        <ele>3.2</ele>
        <time>2020-06-02T12:56:50Z</time>
      </trkpt>
      <trkpt lat="46.31424" lon="-1.01937">
        <ele>3.2</ele>
        <time>2020-06-02T12:56:51Z</time>
      </trkpt>
      <trkpt lat="46.31424" lon="-1.01943">
        <ele>3.2</ele>
        <time>2020-06-02T12:56:52Z</time>
      </trkpt>
      <trkpt lat="46.31424" lon="-1.01949">
        <ele>3.2</ele>
        <time>2020-06-02T12:56:53Z</time>
      </trkpt>
      <trkpt lat="46.31425" lon="-1.01955">
        <ele>3.2</ele>
        <time>2020-06-02T12:56:54Z</time>
      </trkpt>
      <trkpt lat="46.31426" lon="-1.01962">
        <ele>3.2</ele>
        <time>2020-06-02T12:56:55Z</time>
      </trkpt>
      <trkpt lat="46.31425" lon="-1.01968">
        <ele>3.2</ele>
        <time>2020-06-02T12:56:56Z</time>
      </trkpt>
      <trkpt lat="46.31426" lon="-1.01974">
        <ele>3.2</ele>
        <time>2020-06-02T12:56:57Z</time>
      </trkpt>
      <trkpt lat="46.31427" lon="-1.0198">
        <ele>3.2</ele>
        <time>2020-06-02T12:56:58Z</time>
      </trkpt>
      <trkpt lat="46.31427" lon="-1.01987">
        <ele>3.2</ele>
        <time>2020-06-02T12:56:59Z</time>
      </trkpt>
      <trkpt lat="46.31427" lon="-1.01992">
        <ele>3.2</ele>
        <time>2020-06-02T12:57:00Z</time>
      </trkpt>
      <trkpt lat="46.31428" lon="-1.01997">
        <ele>3.2</ele>
        <time>2020-06-02T12:57:01Z</time>
      </trkpt>
      <trkpt lat="46.31428" lon="-1.02003">
        <ele>3.2</ele>
        <time>2020-06-02T12:57:02Z</time>
      </trkpt>
      <trkpt lat="46.31429" lon="-1.0201">
        <ele>3.2</ele>
        <time>2020-06-02T12:57:03Z</time>
      </trkpt>
      <trkpt lat="46.31429" lon="-1.02017">
        <ele>3.2</ele>
        <time>2020-06-02T12:57:04Z</time>
      </trkpt>
      <trkpt lat="46.3143" lon="-1.02023">
        <ele>3.2</ele>
        <time>2020-06-02T12:57:05Z</time>
      </trkpt>
      <trkpt lat="46.3143" lon="-1.0203">
        <ele>3.2</ele>
        <time>2020-06-02T12:57:06Z</time>
      </trkpt>
      <trkpt lat="46.31431" lon="-1.02036">
        <ele>3.2</ele>
        <time>2020-06-02T12:57:07Z</time>
      </trkpt>
      <trkpt lat="46.31431" lon="-1.02043">
        <ele>3.2</ele>
        <time>2020-06-02T12:57:08Z</time>
      </trkpt>
      <trkpt lat="46.31431" lon="-1.02049">
        <ele>3.2</ele>
        <time>2020-06-02T12:57:09Z</time>
      </trkpt>
      <trkpt lat="46.31431" lon="-1.02055">
        <ele>3.2</ele>
        <time>2020-06-02T12:57:10Z</time>
      </trkpt>
      <trkpt lat="46.31432" lon="-1.02062">
        <ele>3.2</ele>
        <time>2020-06-02T12:57:11Z</time>
      </trkpt>
      <trkpt lat="46.31432" lon="-1.0207">
        <ele>3.2</ele>
        <time>2020-06-02T12:57:12Z</time>
      </trkpt>
      <trkpt lat="46.31433" lon="-1.02076">
        <ele>3.2</ele>
        <time>2020-06-02T12:57:13Z</time>
      </trkpt>
      <trkpt lat="46.31433" lon="-1.02082">
        <ele>3.2</ele>
        <time>2020-06-02T12:57:14Z</time>
      </trkpt>
      <trkpt lat="46.31433" lon="-1.02089">
        <ele>3.2</ele>
        <time>2020-06-02T12:57:15Z</time>
      </trkpt>
      <trkpt lat="46.31433" lon="-1.02095">
        <ele>3.2</ele>
        <time>2020-06-02T12:57:16Z</time>
      </trkpt>
      <trkpt lat="46.31434" lon="-1.021">
        <ele>3.2</ele>
        <time>2020-06-02T12:57:17Z</time>
      </trkpt>
      <trkpt lat="46.31434" lon="-1.02105">
        <ele>3.2</ele>
        <time>2020-06-02T12:57:18Z</time>
      </trkpt>
      <trkpt lat="46.31434" lon="-1.0211">
        <ele>3.3</ele>
        <time>2020-06-02T12:57:19Z</time>
      </trkpt>
      <trkpt lat="46.31434" lon="-1.02115">
        <ele>3.3</ele>
        <time>2020-06-02T12:57:20Z</time>
      </trkpt>
      <trkpt lat="46.31434" lon="-1.0212">
        <ele>3.3</ele>
        <time>2020-06-02T12:57:21Z</time>
      </trkpt>
      <trkpt lat="46.31434" lon="-1.02125">
        <ele>3.3</ele>
        <time>2020-06-02T12:57:22Z</time>
      </trkpt>
      <trkpt lat="46.31435" lon="-1.0213">
        <ele>3.3</ele>
        <time>2020-06-02T12:57:23Z</time>
      </trkpt>
      <trkpt lat="46.31436" lon="-1.02136">
        <ele>3.3</ele>
        <time>2020-06-02T12:57:24Z</time>
      </trkpt>
      <trkpt lat="46.31437" lon="-1.02141">
        <ele>3.3</ele>
        <time>2020-06-02T12:57:25Z</time>
      </trkpt>
      <trkpt lat="46.31438" lon="-1.02147">
        <ele>3.3</ele>
        <time>2020-06-02T12:57:26Z</time>
      </trkpt>
      <trkpt lat="46.31439" lon="-1.02152">
        <ele>3.3</ele>
        <time>2020-06-02T12:57:27Z</time>
      </trkpt>
      <trkpt lat="46.31439" lon="-1.02158">
        <ele>3.3</ele>
        <time>2020-06-02T12:57:28Z</time>
      </trkpt>
      <trkpt lat="46.3144" lon="-1.02163">
        <ele>3.3</ele>
        <time>2020-06-02T12:57:29Z</time>
      </trkpt>
      <trkpt lat="46.3144" lon="-1.02167">
        <ele>3.3</ele>
        <time>2020-06-02T12:57:30Z</time>
      </trkpt>
      <trkpt lat="46.3144" lon="-1.02172">
        <ele>3.3</ele>
        <time>2020-06-02T12:57:31Z</time>
      </trkpt>
      <trkpt lat="46.31441" lon="-1.02178">
        <ele>3.3</ele>
        <time>2020-06-02T12:57:32Z</time>
      </trkpt>
      <trkpt lat="46.31441" lon="-1.02184">
        <ele>3.3</ele>
        <time>2020-06-02T12:57:33Z</time>
      </trkpt>
      <trkpt lat="46.31441" lon="-1.0219">
        <ele>3.3</ele>
        <time>2020-06-02T12:57:34Z</time>
      </trkpt>
      <trkpt lat="46.31442" lon="-1.02196">
        <ele>3.3</ele>
        <time>2020-06-02T12:57:35Z</time>
      </trkpt>
      <trkpt lat="46.31442" lon="-1.02202">
        <ele>3.3</ele>
        <time>2020-06-02T12:57:36Z</time>
      </trkpt>
      <trkpt lat="46.31441" lon="-1.02209">
        <ele>3.3</ele>
        <time>2020-06-02T12:57:37Z</time>
      </trkpt>
      <trkpt lat="46.31441" lon="-1.02215">
        <ele>3.3</ele>
        <time>2020-06-02T12:57:38Z</time>
      </trkpt>
      <trkpt lat="46.31442" lon="-1.02221">
        <ele>3.3</ele>
        <time>2020-06-02T12:57:39Z</time>
      </trkpt>
      <trkpt lat="46.31442" lon="-1.02228">
        <ele>3.3</ele>
        <time>2020-06-02T12:57:40Z</time>
      </trkpt>
      <trkpt lat="46.31443" lon="-1.02235">
        <ele>3.3</ele>
        <time>2020-06-02T12:57:41Z</time>
      </trkpt>
      <trkpt lat="46.31443" lon="-1.02241">
        <ele>3.3</ele>
        <time>2020-06-02T12:57:42Z</time>
      </trkpt>
      <trkpt lat="46.31444" lon="-1.02246">
        <ele>3.3</ele>
        <time>2020-06-02T12:57:43Z</time>
      </trkpt>
      <trkpt lat="46.31444" lon="-1.02253">
        <ele>3.2</ele>
        <time>2020-06-02T12:57:44Z</time>
      </trkpt>
      <trkpt lat="46.31444" lon="-1.02259">
        <ele>3.2</ele>
        <time>2020-06-02T12:57:45Z</time>
      </trkpt>
      <trkpt lat="46.31444" lon="-1.02266">
        <ele>3.2</ele>
        <time>2020-06-02T12:57:46Z</time>
      </trkpt>
      <trkpt lat="46.31445" lon="-1.02272">
        <ele>3.2</ele>
        <time>2020-06-02T12:57:47Z</time>
      </trkpt>
      <trkpt lat="46.31445" lon="-1.02277">
        <ele>3.2</ele>
        <time>2020-06-02T12:57:48Z</time>
      </trkpt>
      <trkpt lat="46.31445" lon="-1.02283">
        <ele>3.2</ele>
        <time>2020-06-02T12:57:49Z</time>
      </trkpt>
      <trkpt lat="46.31445" lon="-1.0229">
        <ele>3.2</ele>
        <time>2020-06-02T12:57:50Z</time>
      </trkpt>
      <trkpt lat="46.31444" lon="-1.02297">
        <ele>3.2</ele>
        <time>2020-06-02T12:57:51Z</time>
      </trkpt>
      <trkpt lat="46.31445" lon="-1.02304">
        <ele>3.2</ele>
        <time>2020-06-02T12:57:52Z</time>
      </trkpt>
      <trkpt lat="46.31446" lon="-1.02311">
        <ele>3.2</ele>
        <time>2020-06-02T12:57:53Z</time>
      </trkpt>
      <trkpt lat="46.31447" lon="-1.02318">
        <ele>3.2</ele>
        <time>2020-06-02T12:57:54Z</time>
      </trkpt>
      <trkpt lat="46.31447" lon="-1.02325">
        <ele>3.2</ele>
        <time>2020-06-02T12:57:55Z</time>
      </trkpt>
      <trkpt lat="46.31447" lon="-1.02331">
        <ele>3.2</ele>
        <time>2020-06-02T12:57:56Z</time>
      </trkpt>
      <trkpt lat="46.31448" lon="-1.02337">
        <ele>3.2</ele>
        <time>2020-06-02T12:57:57Z</time>
      </trkpt>
      <trkpt lat="46.31448" lon="-1.02343">
        <ele>3.2</ele>
        <time>2020-06-02T12:57:58Z</time>
      </trkpt>
      <trkpt lat="46.31448" lon="-1.02349">
        <ele>3.2</ele>
        <time>2020-06-02T12:57:59Z</time>
      </trkpt>
      <trkpt lat="46.31448" lon="-1.02355">
        <ele>3.2</ele>
        <time>2020-06-02T12:58:00Z</time>
      </trkpt>
      <trkpt lat="46.31448" lon="-1.02361">
        <ele>3.2</ele>
        <time>2020-06-02T12:58:01Z</time>
      </trkpt>
      <trkpt lat="46.31449" lon="-1.02368">
        <ele>3.2</ele>
        <time>2020-06-02T12:58:02Z</time>
      </trkpt>
      <trkpt lat="46.31449" lon="-1.02374">
        <ele>3.2</ele>
        <time>2020-06-02T12:58:03Z</time>
      </trkpt>
      <trkpt lat="46.3145" lon="-1.02381">
        <ele>3.2</ele>
        <time>2020-06-02T12:58:04Z</time>
      </trkpt>
      <trkpt lat="46.3145" lon="-1.02387">
        <ele>3.2</ele>
        <time>2020-06-02T12:58:05Z</time>
      </trkpt>
      <trkpt lat="46.31451" lon="-1.02394">
        <ele>3.2</ele>
        <time>2020-06-02T12:58:06Z</time>
      </trkpt>
      <trkpt lat="46.31451" lon="-1.024">
        <ele>3.2</ele>
        <time>2020-06-02T12:58:07Z</time>
      </trkpt>
      <trkpt lat="46.31452" lon="-1.02406">
        <ele>3.2</ele>
        <time>2020-06-02T12:58:08Z</time>
      </trkpt>
      <trkpt lat="46.31453" lon="-1.02412">
        <ele>3.2</ele>
        <time>2020-06-02T12:58:09Z</time>
      </trkpt>
      <trkpt lat="46.31454" lon="-1.02418">
        <ele>3.2</ele>
        <time>2020-06-02T12:58:10Z</time>
      </trkpt>
      <trkpt lat="46.31454" lon="-1.02425">
        <ele>3.2</ele>
        <time>2020-06-02T12:58:11Z</time>
      </trkpt>
      <trkpt lat="46.31455" lon="-1.02432">
        <ele>3.3</ele>
        <time>2020-06-02T12:58:12Z</time>
      </trkpt>
      <trkpt lat="46.31456" lon="-1.02439">
        <ele>3.3</ele>
        <time>2020-06-02T12:58:13Z</time>
      </trkpt>
      <trkpt lat="46.31456" lon="-1.02445">
        <ele>3.3</ele>
        <time>2020-06-02T12:58:14Z</time>
      </trkpt>
      <trkpt lat="46.31456" lon="-1.02452">
        <ele>3.3</ele>
        <time>2020-06-02T12:58:15Z</time>
      </trkpt>
      <trkpt lat="46.31457" lon="-1.02458">
        <ele>3.3</ele>
        <time>2020-06-02T12:58:16Z</time>
      </trkpt>
      <trkpt lat="46.31457" lon="-1.02463">
        <ele>3.2</ele>
        <time>2020-06-02T12:58:17Z</time>
      </trkpt>
      <trkpt lat="46.31458" lon="-1.0247">
        <ele>3.2</ele>
        <time>2020-06-02T12:58:18Z</time>
      </trkpt>
      <trkpt lat="46.31458" lon="-1.02476">
        <ele>3.2</ele>
        <time>2020-06-02T12:58:19Z</time>
      </trkpt>
      <trkpt lat="46.31459" lon="-1.02482">
        <ele>3.2</ele>
        <time>2020-06-02T12:58:20Z</time>
      </trkpt>
      <trkpt lat="46.31459" lon="-1.02488">
        <ele>3.2</ele>
        <time>2020-06-02T12:58:21Z</time>
      </trkpt>
      <trkpt lat="46.3146" lon="-1.02494">
        <ele>3.2</ele>
        <time>2020-06-02T12:58:22Z</time>
      </trkpt>
      <trkpt lat="46.3146" lon="-1.025">
        <ele>3.2</ele>
        <time>2020-06-02T12:58:23Z</time>
      </trkpt>
      <trkpt lat="46.3146" lon="-1.02507">
        <ele>3.2</ele>
        <time>2020-06-02T12:58:24Z</time>
      </trkpt>
      <trkpt lat="46.31461" lon="-1.02513">
        <ele>3.2</ele>
        <time>2020-06-02T12:58:25Z</time>
      </trkpt>
      <trkpt lat="46.31461" lon="-1.0252">
        <ele>3.2</ele>
        <time>2020-06-02T12:58:26Z</time>
      </trkpt>
      <trkpt lat="46.31461" lon="-1.02527">
        <ele>3.2</ele>
        <time>2020-06-02T12:58:27Z</time>
      </trkpt>
      <trkpt lat="46.31461" lon="-1.02534">
        <ele>3.2</ele>
        <time>2020-06-02T12:58:28Z</time>
      </trkpt>
      <trkpt lat="46.31462" lon="-1.02541">
        <ele>3.2</ele>
        <time>2020-06-02T12:58:29Z</time>
      </trkpt>
      <trkpt lat="46.31462" lon="-1.02548">
        <ele>3.2</ele>
        <time>2020-06-02T12:58:30Z</time>
      </trkpt>
      <trkpt lat="46.31463" lon="-1.02555">
        <ele>3.2</ele>
        <time>2020-06-02T12:58:31Z</time>
      </trkpt>
      <trkpt lat="46.31463" lon="-1.02562">
        <ele>3.2</ele>
        <time>2020-06-02T12:58:32Z</time>
      </trkpt>
      <trkpt lat="46.31463" lon="-1.02568">
        <ele>3.2</ele>
        <time>2020-06-02T12:58:33Z</time>
      </trkpt>
      <trkpt lat="46.31464" lon="-1.02574">
        <ele>3.2</ele>
        <time>2020-06-02T12:58:34Z</time>
      </trkpt>
      <trkpt lat="46.31464" lon="-1.0258">
        <ele>3.2</ele>
        <time>2020-06-02T12:58:35Z</time>
      </trkpt>
      <trkpt lat="46.31464" lon="-1.02585">
        <ele>3.2</ele>
        <time>2020-06-02T12:58:36Z</time>
      </trkpt>
      <trkpt lat="46.31463" lon="-1.02592">
        <ele>3.2</ele>
        <time>2020-06-02T12:58:37Z</time>
      </trkpt>
      <trkpt lat="46.31463" lon="-1.02598">
        <ele>3.2</ele>
        <time>2020-06-02T12:58:38Z</time>
      </trkpt>
      <trkpt lat="46.31462" lon="-1.02605">
        <ele>3.2</ele>
        <time>2020-06-02T12:58:39Z</time>
      </trkpt>
      <trkpt lat="46.31462" lon="-1.02611">
        <ele>3.2</ele>
        <time>2020-06-02T12:58:40Z</time>
      </trkpt>
      <trkpt lat="46.31461" lon="-1.02617">
        <ele>3.2</ele>
        <time>2020-06-02T12:58:41Z</time>
      </trkpt>
      <trkpt lat="46.3146" lon="-1.02623">
        <ele>3.2</ele>
        <time>2020-06-02T12:58:42Z</time>
      </trkpt>
      <trkpt lat="46.3146" lon="-1.02629">
        <ele>3.2</ele>
        <time>2020-06-02T12:58:43Z</time>
      </trkpt>
      <trkpt lat="46.31459" lon="-1.02635">
        <ele>3.1</ele>
        <time>2020-06-02T12:58:44Z</time>
      </trkpt>
      <trkpt lat="46.31458" lon="-1.02641">
        <ele>3.1</ele>
        <time>2020-06-02T12:58:45Z</time>
      </trkpt>
      <trkpt lat="46.31457" lon="-1.02647">
        <ele>3.1</ele>
        <time>2020-06-02T12:58:46Z</time>
      </trkpt>
      <trkpt lat="46.31455" lon="-1.02653">
        <ele>3.1</ele>
        <time>2020-06-02T12:58:47Z</time>
      </trkpt>
      <trkpt lat="46.31455" lon="-1.0266">
        <ele>3.2</ele>
        <time>2020-06-02T12:58:48Z</time>
      </trkpt>
      <trkpt lat="46.31454" lon="-1.02667">
        <ele>3.2</ele>
        <time>2020-06-02T12:58:49Z</time>
      </trkpt>
      <trkpt lat="46.31453" lon="-1.02673">
        <ele>3.2</ele>
        <time>2020-06-02T12:58:50Z</time>
      </trkpt>
      <trkpt lat="46.31453" lon="-1.02679">
        <ele>3.2</ele>
        <time>2020-06-02T12:58:51Z</time>
      </trkpt>
      <trkpt lat="46.31453" lon="-1.02686">
        <ele>3.2</ele>
        <time>2020-06-02T12:58:52Z</time>
      </trkpt>
      <trkpt lat="46.31453" lon="-1.02693">
        <ele>3.2</ele>
        <time>2020-06-02T12:58:53Z</time>
      </trkpt>
      <trkpt lat="46.31452" lon="-1.02699">
        <ele>3.2</ele>
        <time>2020-06-02T12:58:54Z</time>
      </trkpt>
      <trkpt lat="46.31452" lon="-1.02706">
        <ele>3.2</ele>
        <time>2020-06-02T12:58:55Z</time>
      </trkpt>
      <trkpt lat="46.31452" lon="-1.02712">
        <ele>3.2</ele>
        <time>2020-06-02T12:58:56Z</time>
      </trkpt>
      <trkpt lat="46.31452" lon="-1.02719">
        <ele>3.2</ele>
        <time>2020-06-02T12:58:57Z</time>
      </trkpt>
      <trkpt lat="46.31452" lon="-1.02726">
        <ele>3.2</ele>
        <time>2020-06-02T12:58:58Z</time>
      </trkpt>
      <trkpt lat="46.31452" lon="-1.02733">
        <ele>3.2</ele>
        <time>2020-06-02T12:58:59Z</time>
      </trkpt>
      <trkpt lat="46.31452" lon="-1.02739">
        <ele>3.2</ele>
        <time>2020-06-02T12:59:00Z</time>
      </trkpt>
      <trkpt lat="46.31452" lon="-1.02745">
        <ele>3.2</ele>
        <time>2020-06-02T12:59:01Z</time>
      </trkpt>
      <trkpt lat="46.31453" lon="-1.02751">
        <ele>3.2</ele>
        <time>2020-06-02T12:59:02Z</time>
      </trkpt>
      <trkpt lat="46.31454" lon="-1.02758">
        <ele>3.2</ele>
        <time>2020-06-02T12:59:03Z</time>
      </trkpt>
      <trkpt lat="46.31456" lon="-1.02763">
        <ele>3.2</ele>
        <time>2020-06-02T12:59:04Z</time>
      </trkpt>
      <trkpt lat="46.31457" lon="-1.0277">
        <ele>3.2</ele>
        <time>2020-06-02T12:59:05Z</time>
      </trkpt>
      <trkpt lat="46.31457" lon="-1.02776">
        <ele>3.2</ele>
        <time>2020-06-02T12:59:06Z</time>
      </trkpt>
      <trkpt lat="46.31458" lon="-1.02783">
        <ele>3.2</ele>
        <time>2020-06-02T12:59:07Z</time>
      </trkpt>
      <trkpt lat="46.31459" lon="-1.0279">
        <ele>3.2</ele>
        <time>2020-06-02T12:59:08Z</time>
      </trkpt>
      <trkpt lat="46.3146" lon="-1.02797">
        <ele>3.2</ele>
        <time>2020-06-02T12:59:09Z</time>
      </trkpt>
      <trkpt lat="46.31462" lon="-1.02804">
        <ele>3.2</ele>
        <time>2020-06-02T12:59:10Z</time>
      </trkpt>
      <trkpt lat="46.31464" lon="-1.0281">
        <ele>3.2</ele>
        <time>2020-06-02T12:59:11Z</time>
      </trkpt>
      <trkpt lat="46.31466" lon="-1.02816">
        <ele>3.2</ele>
        <time>2020-06-02T12:59:12Z</time>
      </trkpt>
      <trkpt lat="46.31468" lon="-1.02822">
        <ele>3.2</ele>
        <time>2020-06-02T12:59:13Z</time>
      </trkpt>
      <trkpt lat="46.31469" lon="-1.02828">
        <ele>3.2</ele>
        <time>2020-06-02T12:59:14Z</time>
      </trkpt>
      <trkpt lat="46.31471" lon="-1.02835">
        <ele>3.2</ele>
        <time>2020-06-02T12:59:15Z</time>
      </trkpt>
      <trkpt lat="46.31472" lon="-1.02841">
        <ele>3.2</ele>
        <time>2020-06-02T12:59:16Z</time>
      </trkpt>
      <trkpt lat="46.31474" lon="-1.02847">
        <ele>3.2</ele>
        <time>2020-06-02T12:59:17Z</time>
      </trkpt>
      <trkpt lat="46.31475" lon="-1.02854">
        <ele>3.2</ele>
        <time>2020-06-02T12:59:18Z</time>
      </trkpt>
      <trkpt lat="46.31477" lon="-1.0286">
        <ele>3.2</ele>
        <time>2020-06-02T12:59:19Z</time>
      </trkpt>
      <trkpt lat="46.31477" lon="-1.02866">
        <ele>3.2</ele>
        <time>2020-06-02T12:59:20Z</time>
      </trkpt>
      <trkpt lat="46.31479" lon="-1.02872">
        <ele>3.2</ele>
        <time>2020-06-02T12:59:21Z</time>
      </trkpt>
      <trkpt lat="46.3148" lon="-1.02879">
        <ele>3.2</ele>
        <time>2020-06-02T12:59:22Z</time>
      </trkpt>
      <trkpt lat="46.31481" lon="-1.02887">
        <ele>3.2</ele>
        <time>2020-06-02T12:59:23Z</time>
      </trkpt>
      <trkpt lat="46.31481" lon="-1.02893">
        <ele>3.2</ele>
        <time>2020-06-02T12:59:24Z</time>
      </trkpt>
      <trkpt lat="46.31482" lon="-1.02899">
        <ele>3.2</ele>
        <time>2020-06-02T12:59:25Z</time>
      </trkpt>
      <trkpt lat="46.31482" lon="-1.02907">
        <ele>3.2</ele>
        <time>2020-06-02T12:59:26Z</time>
      </trkpt>
      <trkpt lat="46.31483" lon="-1.02914">
        <ele>3.2</ele>
        <time>2020-06-02T12:59:27Z</time>
      </trkpt>
      <trkpt lat="46.31483" lon="-1.0292">
        <ele>3.2</ele>
        <time>2020-06-02T12:59:28Z</time>
      </trkpt>
      <trkpt lat="46.31484" lon="-1.02927">
        <ele>3.2</ele>
        <time>2020-06-02T12:59:29Z</time>
      </trkpt>
      <trkpt lat="46.31485" lon="-1.02935">
        <ele>3.3</ele>
        <time>2020-06-02T12:59:30Z</time>
      </trkpt>
      <trkpt lat="46.31485" lon="-1.02943">
        <ele>3.3</ele>
        <time>2020-06-02T12:59:31Z</time>
      </trkpt>
      <trkpt lat="46.31485" lon="-1.02948">
        <ele>3.3</ele>
        <time>2020-06-02T12:59:32Z</time>
      </trkpt>
      <trkpt lat="46.31486" lon="-1.02954">
        <ele>3.3</ele>
        <time>2020-06-02T12:59:33Z</time>
      </trkpt>
      <trkpt lat="46.31486" lon="-1.02961">
        <ele>3.3</ele>
        <time>2020-06-02T12:59:34Z</time>
      </trkpt>
      <trkpt lat="46.31487" lon="-1.02967">
        <ele>3.3</ele>
        <time>2020-06-02T12:59:35Z</time>
      </trkpt>
      <trkpt lat="46.31488" lon="-1.02974">
        <ele>3.3</ele>
        <time>2020-06-02T12:59:36Z</time>
      </trkpt>
      <trkpt lat="46.31489" lon="-1.0298">
        <ele>3.3</ele>
        <time>2020-06-02T12:59:37Z</time>
      </trkpt>
      <trkpt lat="46.3149" lon="-1.02987">
        <ele>3.3</ele>
        <time>2020-06-02T12:59:38Z</time>
      </trkpt>
      <trkpt lat="46.3149" lon="-1.02994">
        <ele>3.3</ele>
        <time>2020-06-02T12:59:39Z</time>
      </trkpt>
      <trkpt lat="46.31491" lon="-1.03">
        <ele>3.3</ele>
        <time>2020-06-02T12:59:40Z</time>
      </trkpt>
      <trkpt lat="46.31492" lon="-1.03007">
        <ele>3.3</ele>
        <time>2020-06-02T12:59:41Z</time>
      </trkpt>
      <trkpt lat="46.31492" lon="-1.03013">
        <ele>3.3</ele>
        <time>2020-06-02T12:59:42Z</time>
      </trkpt>
      <trkpt lat="46.31492" lon="-1.03019">
        <ele>3.2</ele>
        <time>2020-06-02T12:59:43Z</time>
      </trkpt>
      <trkpt lat="46.31493" lon="-1.03026">
        <ele>3.2</ele>
        <time>2020-06-02T12:59:44Z</time>
      </trkpt>
      <trkpt lat="46.31493" lon="-1.03032">
        <ele>3.2</ele>
        <time>2020-06-02T12:59:45Z</time>
      </trkpt>
      <trkpt lat="46.31493" lon="-1.03039">
        <ele>3.2</ele>
        <time>2020-06-02T12:59:46Z</time>
      </trkpt>
      <trkpt lat="46.31494" lon="-1.03045">
        <ele>3.2</ele>
        <time>2020-06-02T12:59:47Z</time>
      </trkpt>
      <trkpt lat="46.31494" lon="-1.03052">
        <ele>3.2</ele>
        <time>2020-06-02T12:59:48Z</time>
      </trkpt>
      <trkpt lat="46.31494" lon="-1.0306">
        <ele>3.2</ele>
        <time>2020-06-02T12:59:49Z</time>
      </trkpt>
      <trkpt lat="46.31495" lon="-1.03067">
        <ele>3.2</ele>
        <time>2020-06-02T12:59:50Z</time>
      </trkpt>
      <trkpt lat="46.31497" lon="-1.03074">
        <ele>3.2</ele>
        <time>2020-06-02T12:59:51Z</time>
      </trkpt>
      <trkpt lat="46.31497" lon="-1.03081">
        <ele>3.2</ele>
        <time>2020-06-02T12:59:52Z</time>
      </trkpt>
      <trkpt lat="46.31498" lon="-1.03088">
        <ele>3.2</ele>
        <time>2020-06-02T12:59:53Z</time>
      </trkpt>
      <trkpt lat="46.31498" lon="-1.03096">
        <ele>3.2</ele>
        <time>2020-06-02T12:59:54Z</time>
      </trkpt>
      <trkpt lat="46.31498" lon="-1.03104">
        <ele>3.2</ele>
        <time>2020-06-02T12:59:55Z</time>
      </trkpt>
      <trkpt lat="46.31498" lon="-1.03111">
        <ele>3.2</ele>
        <time>2020-06-02T12:59:56Z</time>
      </trkpt>
      <trkpt lat="46.31498" lon="-1.03119">
        <ele>3.2</ele>
        <time>2020-06-02T12:59:57Z</time>
      </trkpt>
      <trkpt lat="46.31498" lon="-1.03125">
        <ele>3.2</ele>
        <time>2020-06-02T12:59:58Z</time>
      </trkpt>
      <trkpt lat="46.31499" lon="-1.03132">
        <ele>3.2</ele>
        <time>2020-06-02T12:59:59Z</time>
      </trkpt>
      <trkpt lat="46.315" lon="-1.03139">
        <ele>3.2</ele>
        <time>2020-06-02T13:00:00Z</time>
      </trkpt>
      <trkpt lat="46.315" lon="-1.03146">
        <ele>3.2</ele>
        <time>2020-06-02T13:00:01Z</time>
      </trkpt>
      <trkpt lat="46.31501" lon="-1.03153">
        <ele>3.2</ele>
        <time>2020-06-02T13:00:02Z</time>
      </trkpt>
      <trkpt lat="46.31501" lon="-1.03159">
        <ele>3.2</ele>
        <time>2020-06-02T13:00:03Z</time>
      </trkpt>
      <trkpt lat="46.31501" lon="-1.03166">
        <ele>3.2</ele>
        <time>2020-06-02T13:00:04Z</time>
      </trkpt>
      <trkpt lat="46.31502" lon="-1.03173">
        <ele>3.2</ele>
        <time>2020-06-02T13:00:05Z</time>
      </trkpt>
      <trkpt lat="46.31502" lon="-1.03179">
        <ele>3.2</ele>
        <time>2020-06-02T13:00:06Z</time>
      </trkpt>
      <trkpt lat="46.31503" lon="-1.03186">
        <ele>3.2</ele>
        <time>2020-06-02T13:00:07Z</time>
      </trkpt>
      <trkpt lat="46.31503" lon="-1.03193">
        <ele>3.2</ele>
        <time>2020-06-02T13:00:08Z</time>
      </trkpt>
      <trkpt lat="46.31504" lon="-1.032">
        <ele>3.2</ele>
        <time>2020-06-02T13:00:09Z</time>
      </trkpt>
      <trkpt lat="46.31504" lon="-1.03207">
        <ele>3.2</ele>
        <time>2020-06-02T13:00:10Z</time>
      </trkpt>
      <trkpt lat="46.31505" lon="-1.03213">
        <ele>3.2</ele>
        <time>2020-06-02T13:00:11Z</time>
      </trkpt>
      <trkpt lat="46.31505" lon="-1.0322">
        <ele>3.2</ele>
        <time>2020-06-02T13:00:12Z</time>
      </trkpt>
      <trkpt lat="46.31506" lon="-1.03228">
        <ele>3.2</ele>
        <time>2020-06-02T13:00:13Z</time>
      </trkpt>
      <trkpt lat="46.31506" lon="-1.03235">
        <ele>3.2</ele>
        <time>2020-06-02T13:00:14Z</time>
      </trkpt>
      <trkpt lat="46.31507" lon="-1.03241">
        <ele>3.2</ele>
        <time>2020-06-02T13:00:15Z</time>
      </trkpt>
      <trkpt lat="46.31507" lon="-1.03248">
        <ele>3.2</ele>
        <time>2020-06-02T13:00:16Z</time>
      </trkpt>
      <trkpt lat="46.31507" lon="-1.03255">
        <ele>3.2</ele>
        <time>2020-06-02T13:00:17Z</time>
      </trkpt>
      <trkpt lat="46.31507" lon="-1.03261">
        <ele>3.2</ele>
        <time>2020-06-02T13:00:18Z</time>
      </trkpt>
      <trkpt lat="46.31507" lon="-1.03268">
        <ele>3.2</ele>
        <time>2020-06-02T13:00:19Z</time>
      </trkpt>
      <trkpt lat="46.31508" lon="-1.03274">
        <ele>3.2</ele>
        <time>2020-06-02T13:00:20Z</time>
      </trkpt>
      <trkpt lat="46.31508" lon="-1.03281">
        <ele>3.1</ele>
        <time>2020-06-02T13:00:21Z</time>
      </trkpt>
      <trkpt lat="46.31508" lon="-1.03288">
        <ele>3.1</ele>
        <time>2020-06-02T13:00:22Z</time>
      </trkpt>
      <trkpt lat="46.31508" lon="-1.03295">
        <ele>3.1</ele>
        <time>2020-06-02T13:00:23Z</time>
      </trkpt>
      <trkpt lat="46.31509" lon="-1.03301">
        <ele>3.1</ele>
        <time>2020-06-02T13:00:24Z</time>
      </trkpt>
      <trkpt lat="46.31509" lon="-1.03308">
        <ele>3.1</ele>
        <time>2020-06-02T13:00:25Z</time>
      </trkpt>
      <trkpt lat="46.31509" lon="-1.03314">
        <ele>3.1</ele>
        <time>2020-06-02T13:00:26Z</time>
      </trkpt>
      <trkpt lat="46.3151" lon="-1.03321">
        <ele>3.1</ele>
        <time>2020-06-02T13:00:27Z</time>
      </trkpt>
      <trkpt lat="46.3151" lon="-1.03326">
        <ele>3.1</ele>
        <time>2020-06-02T13:00:28Z</time>
      </trkpt>
      <trkpt lat="46.3151" lon="-1.03332">
        <ele>3.1</ele>
        <time>2020-06-02T13:00:29Z</time>
      </trkpt>
      <trkpt lat="46.3151" lon="-1.03337">
        <ele>3.1</ele>
        <time>2020-06-02T13:00:30Z</time>
      </trkpt>
      <trkpt lat="46.31511" lon="-1.03342">
        <ele>3.1</ele>
        <time>2020-06-02T13:00:31Z</time>
      </trkpt>
      <trkpt lat="46.31511" lon="-1.03348">
        <ele>3.1</ele>
        <time>2020-06-02T13:00:32Z</time>
      </trkpt>
      <trkpt lat="46.31511" lon="-1.03354">
        <ele>3.1</ele>
        <time>2020-06-02T13:00:33Z</time>
      </trkpt>
      <trkpt lat="46.31511" lon="-1.03361">
        <ele>3.1</ele>
        <time>2020-06-02T13:00:34Z</time>
      </trkpt>
      <trkpt lat="46.31512" lon="-1.03366">
        <ele>3.1</ele>
        <time>2020-06-02T13:00:35Z</time>
      </trkpt>
      <trkpt lat="46.31513" lon="-1.03372">
        <ele>3.1</ele>
        <time>2020-06-02T13:00:36Z</time>
      </trkpt>
      <trkpt lat="46.31513" lon="-1.03377">
        <ele>3.1</ele>
        <time>2020-06-02T13:00:37Z</time>
      </trkpt>
      <trkpt lat="46.31513" lon="-1.03384">
        <ele>3.1</ele>
        <time>2020-06-02T13:00:38Z</time>
      </trkpt>
      <trkpt lat="46.31514" lon="-1.03392">
        <ele>3.1</ele>
        <time>2020-06-02T13:00:39Z</time>
      </trkpt>
      <trkpt lat="46.31514" lon="-1.03398">
        <ele>3.1</ele>
        <time>2020-06-02T13:00:40Z</time>
      </trkpt>
      <trkpt lat="46.31514" lon="-1.03405">
        <ele>3.1</ele>
        <time>2020-06-02T13:00:41Z</time>
      </trkpt>
      <trkpt lat="46.31514" lon="-1.03412">
        <ele>3.1</ele>
        <time>2020-06-02T13:00:42Z</time>
      </trkpt>
      <trkpt lat="46.31514" lon="-1.03418">
        <ele>3.1</ele>
        <time>2020-06-02T13:00:43Z</time>
      </trkpt>
      <trkpt lat="46.31514" lon="-1.03425">
        <ele>3.1</ele>
        <time>2020-06-02T13:00:44Z</time>
      </trkpt>
      <trkpt lat="46.31514" lon="-1.03432">
        <ele>3.1</ele>
        <time>2020-06-02T13:00:45Z</time>
      </trkpt>
      <trkpt lat="46.31515" lon="-1.03439">
        <ele>3.1</ele>
        <time>2020-06-02T13:00:46Z</time>
      </trkpt>
      <trkpt lat="46.31515" lon="-1.03444">
        <ele>3.1</ele>
        <time>2020-06-02T13:00:47Z</time>
      </trkpt>
      <trkpt lat="46.31515" lon="-1.0345">
        <ele>3.1</ele>
        <time>2020-06-02T13:00:48Z</time>
      </trkpt>
      <trkpt lat="46.31515" lon="-1.03458">
        <ele>3.1</ele>
        <time>2020-06-02T13:00:49Z</time>
      </trkpt>
      <trkpt lat="46.31515" lon="-1.03465">
        <ele>3.1</ele>
        <time>2020-06-02T13:00:50Z</time>
      </trkpt>
      <trkpt lat="46.31514" lon="-1.03472">
        <ele>3.1</ele>
        <time>2020-06-02T13:00:51Z</time>
      </trkpt>
      <trkpt lat="46.31514" lon="-1.03479">
        <ele>3.1</ele>
        <time>2020-06-02T13:00:52Z</time>
      </trkpt>
      <trkpt lat="46.31515" lon="-1.03485">
        <ele>3.1</ele>
        <time>2020-06-02T13:00:53Z</time>
      </trkpt>
      <trkpt lat="46.31515" lon="-1.03493">
        <ele>3</ele>
        <time>2020-06-02T13:00:54Z</time>
      </trkpt>
      <trkpt lat="46.31516" lon="-1.035">
        <ele>3</ele>
        <time>2020-06-02T13:00:55Z</time>
      </trkpt>
      <trkpt lat="46.31517" lon="-1.03507">
        <ele>3</ele>
        <time>2020-06-02T13:00:56Z</time>
      </trkpt>
      <trkpt lat="46.31517" lon="-1.03514">
        <ele>2.9</ele>
        <time>2020-06-02T13:00:57Z</time>
      </trkpt>
      <trkpt lat="46.31517" lon="-1.03521">
        <ele>2.9</ele>
        <time>2020-06-02T13:00:58Z</time>
      </trkpt>
      <trkpt lat="46.31517" lon="-1.03528">
        <ele>2.9</ele>
        <time>2020-06-02T13:00:59Z</time>
      </trkpt>
      <trkpt lat="46.31518" lon="-1.03534">
        <ele>2.9</ele>
        <time>2020-06-02T13:01:00Z</time>
      </trkpt>
      <trkpt lat="46.31518" lon="-1.0354">
        <ele>2.9</ele>
        <time>2020-06-02T13:01:01Z</time>
      </trkpt>
      <trkpt lat="46.31519" lon="-1.03548">
        <ele>2.8</ele>
        <time>2020-06-02T13:01:02Z</time>
      </trkpt>
      <trkpt lat="46.3152" lon="-1.03555">
        <ele>2.8</ele>
        <time>2020-06-02T13:01:03Z</time>
      </trkpt>
      <trkpt lat="46.31519" lon="-1.03563">
        <ele>2.8</ele>
        <time>2020-06-02T13:01:04Z</time>
      </trkpt>
      <trkpt lat="46.31519" lon="-1.0357">
        <ele>2.8</ele>
        <time>2020-06-02T13:01:05Z</time>
      </trkpt>
      <trkpt lat="46.3152" lon="-1.03576">
        <ele>2.8</ele>
        <time>2020-06-02T13:01:06Z</time>
      </trkpt>
      <trkpt lat="46.3152" lon="-1.03583">
        <ele>2.8</ele>
        <time>2020-06-02T13:01:07Z</time>
      </trkpt>
      <trkpt lat="46.31521" lon="-1.0359">
        <ele>2.8</ele>
        <time>2020-06-02T13:01:08Z</time>
      </trkpt>
      <trkpt lat="46.31522" lon="-1.03597">
        <ele>2.8</ele>
        <time>2020-06-02T13:01:09Z</time>
      </trkpt>
      <trkpt lat="46.31522" lon="-1.03604">
        <ele>2.8</ele>
        <time>2020-06-02T13:01:10Z</time>
      </trkpt>
      <trkpt lat="46.31523" lon="-1.03611">
        <ele>2.8</ele>
        <time>2020-06-02T13:01:11Z</time>
      </trkpt>
      <trkpt lat="46.31524" lon="-1.03617">
        <ele>2.8</ele>
        <time>2020-06-02T13:01:12Z</time>
      </trkpt>
      <trkpt lat="46.31524" lon="-1.03625">
        <ele>2.8</ele>
        <time>2020-06-02T13:01:13Z</time>
      </trkpt>
      <trkpt lat="46.31525" lon="-1.03632">
        <ele>2.8</ele>
        <time>2020-06-02T13:01:14Z</time>
      </trkpt>
      <trkpt lat="46.31526" lon="-1.03639">
        <ele>2.8</ele>
        <time>2020-06-02T13:01:15Z</time>
      </trkpt>
      <trkpt lat="46.31527" lon="-1.03646">
        <ele>2.8</ele>
        <time>2020-06-02T13:01:16Z</time>
      </trkpt>
      <trkpt lat="46.31527" lon="-1.03653">
        <ele>2.8</ele>
        <time>2020-06-02T13:01:17Z</time>
      </trkpt>
      <trkpt lat="46.31527" lon="-1.03659">
        <ele>2.8</ele>
        <time>2020-06-02T13:01:18Z</time>
      </trkpt>
      <trkpt lat="46.31526" lon="-1.03665">
        <ele>2.8</ele>
        <time>2020-06-02T13:01:19Z</time>
      </trkpt>
      <trkpt lat="46.31526" lon="-1.03671">
        <ele>2.8</ele>
        <time>2020-06-02T13:01:20Z</time>
      </trkpt>
      <trkpt lat="46.31526" lon="-1.03677">
        <ele>2.8</ele>
        <time>2020-06-02T13:01:21Z</time>
      </trkpt>
      <trkpt lat="46.31527" lon="-1.03684">
        <ele>2.8</ele>
        <time>2020-06-02T13:01:22Z</time>
      </trkpt>
      <trkpt lat="46.31529" lon="-1.03691">
        <ele>2.8</ele>
        <time>2020-06-02T13:01:23Z</time>
      </trkpt>
      <trkpt lat="46.31529" lon="-1.03698">
        <ele>2.8</ele>
        <time>2020-06-02T13:01:24Z</time>
      </trkpt>
      <trkpt lat="46.31529" lon="-1.03704">
        <ele>2.8</ele>
        <time>2020-06-02T13:01:25Z</time>
      </trkpt>
      <trkpt lat="46.31529" lon="-1.03711">
        <ele>2.8</ele>
        <time>2020-06-02T13:01:26Z</time>
      </trkpt>
      <trkpt lat="46.31529" lon="-1.03718">
        <ele>2.8</ele>
        <time>2020-06-02T13:01:27Z</time>
      </trkpt>
      <trkpt lat="46.3153" lon="-1.03725">
        <ele>2.8</ele>
        <time>2020-06-02T13:01:28Z</time>
      </trkpt>
      <trkpt lat="46.3153" lon="-1.03732">
        <ele>2.8</ele>
        <time>2020-06-02T13:01:29Z</time>
      </trkpt>
      <trkpt lat="46.3153" lon="-1.03739">
        <ele>2.8</ele>
        <time>2020-06-02T13:01:30Z</time>
      </trkpt>
      <trkpt lat="46.31531" lon="-1.03745">
        <ele>2.8</ele>
        <time>2020-06-02T13:01:31Z</time>
      </trkpt>
      <trkpt lat="46.3153" lon="-1.03752">
        <ele>2.8</ele>
        <time>2020-06-02T13:01:32Z</time>
      </trkpt>
      <trkpt lat="46.31529" lon="-1.03759">
        <ele>2.8</ele>
        <time>2020-06-02T13:01:33Z</time>
      </trkpt>
      <trkpt lat="46.31529" lon="-1.03766">
        <ele>2.8</ele>
        <time>2020-06-02T13:01:34Z</time>
      </trkpt>
      <trkpt lat="46.3153" lon="-1.03772">
        <ele>2.8</ele>
        <time>2020-06-02T13:01:35Z</time>
      </trkpt>
      <trkpt lat="46.31531" lon="-1.03779">
        <ele>2.8</ele>
        <time>2020-06-02T13:01:36Z</time>
      </trkpt>
      <trkpt lat="46.31531" lon="-1.03787">
        <ele>2.8</ele>
        <time>2020-06-02T13:01:37Z</time>
      </trkpt>
      <trkpt lat="46.31532" lon="-1.03794">
        <ele>2.8</ele>
        <time>2020-06-02T13:01:38Z</time>
      </trkpt>
      <trkpt lat="46.31532" lon="-1.03801">
        <ele>2.8</ele>
        <time>2020-06-02T13:01:39Z</time>
      </trkpt>
      <trkpt lat="46.31533" lon="-1.03808">
        <ele>2.8</ele>
        <time>2020-06-02T13:01:40Z</time>
      </trkpt>
      <trkpt lat="46.31533" lon="-1.03815">
        <ele>2.8</ele>
        <time>2020-06-02T13:01:41Z</time>
      </trkpt>
      <trkpt lat="46.31534" lon="-1.03821">
        <ele>2.8</ele>
        <time>2020-06-02T13:01:42Z</time>
      </trkpt>
      <trkpt lat="46.31535" lon="-1.03827">
        <ele>2.8</ele>
        <time>2020-06-02T13:01:43Z</time>
      </trkpt>
      <trkpt lat="46.31536" lon="-1.03834">
        <ele>2.8</ele>
        <time>2020-06-02T13:01:44Z</time>
      </trkpt>
      <trkpt lat="46.31536" lon="-1.03841">
        <ele>2.8</ele>
        <time>2020-06-02T13:01:45Z</time>
      </trkpt>
      <trkpt lat="46.31537" lon="-1.03847">
        <ele>2.8</ele>
        <time>2020-06-02T13:01:46Z</time>
      </trkpt>
      <trkpt lat="46.31537" lon="-1.03853">
        <ele>2.8</ele>
        <time>2020-06-02T13:01:47Z</time>
      </trkpt>
      <trkpt lat="46.31537" lon="-1.03858">
        <ele>2.8</ele>
        <time>2020-06-02T13:01:48Z</time>
      </trkpt>
      <trkpt lat="46.31537" lon="-1.03865">
        <ele>2.7</ele>
        <time>2020-06-02T13:01:49Z</time>
      </trkpt>
      <trkpt lat="46.31537" lon="-1.03871">
        <ele>2.7</ele>
        <time>2020-06-02T13:01:50Z</time>
      </trkpt>
      <trkpt lat="46.31538" lon="-1.03878">
        <ele>2.7</ele>
        <time>2020-06-02T13:01:51Z</time>
      </trkpt>
      <trkpt lat="46.31539" lon="-1.03884">
        <ele>2.7</ele>
        <time>2020-06-02T13:01:52Z</time>
      </trkpt>
      <trkpt lat="46.3154" lon="-1.03892">
        <ele>2.7</ele>
        <time>2020-06-02T13:01:53Z</time>
      </trkpt>
      <trkpt lat="46.3154" lon="-1.03899">
        <ele>2.7</ele>
        <time>2020-06-02T13:01:54Z</time>
      </trkpt>
      <trkpt lat="46.31541" lon="-1.03907">
        <ele>2.7</ele>
        <time>2020-06-02T13:01:55Z</time>
      </trkpt>
      <trkpt lat="46.31541" lon="-1.03914">
        <ele>2.7</ele>
        <time>2020-06-02T13:01:56Z</time>
      </trkpt>
      <trkpt lat="46.31541" lon="-1.03922">
        <ele>2.7</ele>
        <time>2020-06-02T13:01:57Z</time>
      </trkpt>
      <trkpt lat="46.31543" lon="-1.03928">
        <ele>2.7</ele>
        <time>2020-06-02T13:01:58Z</time>
      </trkpt>
      <trkpt lat="46.31543" lon="-1.03935">
        <ele>2.7</ele>
        <time>2020-06-02T13:01:59Z</time>
      </trkpt>
      <trkpt lat="46.31544" lon="-1.03941">
        <ele>2.7</ele>
        <time>2020-06-02T13:02:00Z</time>
      </trkpt>
      <trkpt lat="46.31544" lon="-1.03947">
        <ele>2.7</ele>
        <time>2020-06-02T13:02:01Z</time>
      </trkpt>
      <trkpt lat="46.31545" lon="-1.03955">
        <ele>2.7</ele>
        <time>2020-06-02T13:02:02Z</time>
      </trkpt>
      <trkpt lat="46.31545" lon="-1.03964">
        <ele>2.7</ele>
        <time>2020-06-02T13:02:03Z</time>
      </trkpt>
      <trkpt lat="46.31546" lon="-1.0397">
        <ele>2.7</ele>
        <time>2020-06-02T13:02:04Z</time>
      </trkpt>
      <trkpt lat="46.31546" lon="-1.03977">
        <ele>2.7</ele>
        <time>2020-06-02T13:02:05Z</time>
      </trkpt>
      <trkpt lat="46.31547" lon="-1.03983">
        <ele>2.7</ele>
        <time>2020-06-02T13:02:06Z</time>
      </trkpt>
      <trkpt lat="46.31547" lon="-1.0399">
        <ele>2.7</ele>
        <time>2020-06-02T13:02:07Z</time>
      </trkpt>
      <trkpt lat="46.31548" lon="-1.03997">
        <ele>2.7</ele>
        <time>2020-06-02T13:02:08Z</time>
      </trkpt>
      <trkpt lat="46.3155" lon="-1.04005">
        <ele>2.6</ele>
        <time>2020-06-02T13:02:09Z</time>
      </trkpt>
      <trkpt lat="46.3155" lon="-1.04012">
        <ele>2.6</ele>
        <time>2020-06-02T13:02:10Z</time>
      </trkpt>
      <trkpt lat="46.3155" lon="-1.04019">
        <ele>2.6</ele>
        <time>2020-06-02T13:02:11Z</time>
      </trkpt>
      <trkpt lat="46.31551" lon="-1.04026">
        <ele>2.6</ele>
        <time>2020-06-02T13:02:12Z</time>
      </trkpt>
      <trkpt lat="46.31552" lon="-1.04033">
        <ele>2.6</ele>
        <time>2020-06-02T13:02:13Z</time>
      </trkpt>
      <trkpt lat="46.31552" lon="-1.04039">
        <ele>2.6</ele>
        <time>2020-06-02T13:02:14Z</time>
      </trkpt>
      <trkpt lat="46.31553" lon="-1.04047">
        <ele>2.6</ele>
        <time>2020-06-02T13:02:15Z</time>
      </trkpt>
      <trkpt lat="46.31553" lon="-1.04054">
        <ele>2.6</ele>
        <time>2020-06-02T13:02:16Z</time>
      </trkpt>
      <trkpt lat="46.31553" lon="-1.04061">
        <ele>2.6</ele>
        <time>2020-06-02T13:02:17Z</time>
      </trkpt>
      <trkpt lat="46.31554" lon="-1.04068">
        <ele>2.6</ele>
        <time>2020-06-02T13:02:18Z</time>
      </trkpt>
      <trkpt lat="46.31554" lon="-1.04075">
        <ele>2.6</ele>
        <time>2020-06-02T13:02:19Z</time>
      </trkpt>
      <trkpt lat="46.31555" lon="-1.04082">
        <ele>2.6</ele>
        <time>2020-06-02T13:02:20Z</time>
      </trkpt>
      <trkpt lat="46.31555" lon="-1.04089">
        <ele>2.6</ele>
        <time>2020-06-02T13:02:21Z</time>
      </trkpt>
      <trkpt lat="46.31555" lon="-1.04095">
        <ele>2.6</ele>
        <time>2020-06-02T13:02:22Z</time>
      </trkpt>
      <trkpt lat="46.31555" lon="-1.04102">
        <ele>2.6</ele>
        <time>2020-06-02T13:02:23Z</time>
      </trkpt>
      <trkpt lat="46.31555" lon="-1.04108">
        <ele>2.6</ele>
        <time>2020-06-02T13:02:24Z</time>
      </trkpt>
      <trkpt lat="46.31556" lon="-1.04115">
        <ele>2.6</ele>
        <time>2020-06-02T13:02:25Z</time>
      </trkpt>
      <trkpt lat="46.31557" lon="-1.04122">
        <ele>2.6</ele>
        <time>2020-06-02T13:02:26Z</time>
      </trkpt>
      <trkpt lat="46.31556" lon="-1.04128">
        <ele>2.6</ele>
        <time>2020-06-02T13:02:27Z</time>
      </trkpt>
      <trkpt lat="46.31556" lon="-1.04135">
        <ele>2.6</ele>
        <time>2020-06-02T13:02:28Z</time>
      </trkpt>
      <trkpt lat="46.31557" lon="-1.04142">
        <ele>2.6</ele>
        <time>2020-06-02T13:02:29Z</time>
      </trkpt>
      <trkpt lat="46.31557" lon="-1.04149">
        <ele>2.6</ele>
        <time>2020-06-02T13:02:30Z</time>
      </trkpt>
      <trkpt lat="46.31557" lon="-1.04155">
        <ele>2.6</ele>
        <time>2020-06-02T13:02:31Z</time>
      </trkpt>
      <trkpt lat="46.31558" lon="-1.04161">
        <ele>2.6</ele>
        <time>2020-06-02T13:02:32Z</time>
      </trkpt>
      <trkpt lat="46.31558" lon="-1.04166">
        <ele>2.6</ele>
        <time>2020-06-02T13:02:33Z</time>
      </trkpt>
      <trkpt lat="46.31557" lon="-1.04173">
        <ele>2.6</ele>
        <time>2020-06-02T13:02:34Z</time>
      </trkpt>
      <trkpt lat="46.31558" lon="-1.04178">
        <ele>2.6</ele>
        <time>2020-06-02T13:02:35Z</time>
      </trkpt>
      <trkpt lat="46.3156" lon="-1.04185">
        <ele>2.5</ele>
        <time>2020-06-02T13:02:36Z</time>
      </trkpt>
      <trkpt lat="46.3156" lon="-1.04192">
        <ele>2.5</ele>
        <time>2020-06-02T13:02:37Z</time>
      </trkpt>
      <trkpt lat="46.31561" lon="-1.04199">
        <ele>2.5</ele>
        <time>2020-06-02T13:02:38Z</time>
      </trkpt>
      <trkpt lat="46.31562" lon="-1.04205">
        <ele>2.6</ele>
        <time>2020-06-02T13:02:39Z</time>
      </trkpt>
      <trkpt lat="46.31562" lon="-1.04212">
        <ele>2.6</ele>
        <time>2020-06-02T13:02:40Z</time>
      </trkpt>
      <trkpt lat="46.31563" lon="-1.04217">
        <ele>2.6</ele>
        <time>2020-06-02T13:02:41Z</time>
      </trkpt>
      <trkpt lat="46.31563" lon="-1.04223">
        <ele>2.6</ele>
        <time>2020-06-02T13:02:42Z</time>
      </trkpt>
      <trkpt lat="46.31563" lon="-1.0423">
        <ele>2.6</ele>
        <time>2020-06-02T13:02:43Z</time>
      </trkpt>
      <trkpt lat="46.31564" lon="-1.04237">
        <ele>2.6</ele>
        <time>2020-06-02T13:02:44Z</time>
      </trkpt>
      <trkpt lat="46.31564" lon="-1.04244">
        <ele>2.6</ele>
        <time>2020-06-02T13:02:45Z</time>
      </trkpt>
      <trkpt lat="46.31564" lon="-1.04251">
        <ele>2.6</ele>
        <time>2020-06-02T13:02:46Z</time>
      </trkpt>
      <trkpt lat="46.31564" lon="-1.04258">
        <ele>2.6</ele>
        <time>2020-06-02T13:02:47Z</time>
      </trkpt>
      <trkpt lat="46.31565" lon="-1.04266">
        <ele>2.6</ele>
        <time>2020-06-02T13:02:48Z</time>
      </trkpt>
      <trkpt lat="46.31565" lon="-1.04273">
        <ele>2.6</ele>
        <time>2020-06-02T13:02:49Z</time>
      </trkpt>
      <trkpt lat="46.31565" lon="-1.0428">
        <ele>2.6</ele>
        <time>2020-06-02T13:02:50Z</time>
      </trkpt>
      <trkpt lat="46.31566" lon="-1.04286">
        <ele>2.6</ele>
        <time>2020-06-02T13:02:51Z</time>
      </trkpt>
      <trkpt lat="46.31566" lon="-1.04293">
        <ele>2.6</ele>
        <time>2020-06-02T13:02:52Z</time>
      </trkpt>
      <trkpt lat="46.31567" lon="-1.04299">
        <ele>2.6</ele>
        <time>2020-06-02T13:02:53Z</time>
      </trkpt>
      <trkpt lat="46.31568" lon="-1.04305">
        <ele>2.6</ele>
        <time>2020-06-02T13:02:54Z</time>
      </trkpt>
      <trkpt lat="46.31568" lon="-1.04312">
        <ele>2.6</ele>
        <time>2020-06-02T13:02:55Z</time>
      </trkpt>
      <trkpt lat="46.31568" lon="-1.04319">
        <ele>2.6</ele>
        <time>2020-06-02T13:02:56Z</time>
      </trkpt>
      <trkpt lat="46.31569" lon="-1.04327">
        <ele>2.6</ele>
        <time>2020-06-02T13:02:57Z</time>
      </trkpt>
      <trkpt lat="46.31569" lon="-1.04333">
        <ele>2.6</ele>
        <time>2020-06-02T13:02:58Z</time>
      </trkpt>
      <trkpt lat="46.31569" lon="-1.04339">
        <ele>2.6</ele>
        <time>2020-06-02T13:02:59Z</time>
      </trkpt>
      <trkpt lat="46.31569" lon="-1.04345">
        <ele>2.6</ele>
        <time>2020-06-02T13:03:00Z</time>
      </trkpt>
      <trkpt lat="46.3157" lon="-1.04351">
        <ele>2.6</ele>
        <time>2020-06-02T13:03:01Z</time>
      </trkpt>
      <trkpt lat="46.3157" lon="-1.04356">
        <ele>2.6</ele>
        <time>2020-06-02T13:03:02Z</time>
      </trkpt>
      <trkpt lat="46.3157" lon="-1.04362">
        <ele>2.6</ele>
        <time>2020-06-02T13:03:03Z</time>
      </trkpt>
      <trkpt lat="46.31571" lon="-1.04368">
        <ele>2.6</ele>
        <time>2020-06-02T13:03:04Z</time>
      </trkpt>
      <trkpt lat="46.31571" lon="-1.04375">
        <ele>2.6</ele>
        <time>2020-06-02T13:03:05Z</time>
      </trkpt>
      <trkpt lat="46.31571" lon="-1.04382">
        <ele>2.6</ele>
        <time>2020-06-02T13:03:06Z</time>
      </trkpt>
      <trkpt lat="46.31571" lon="-1.04388">
        <ele>2.6</ele>
        <time>2020-06-02T13:03:07Z</time>
      </trkpt>
      <trkpt lat="46.31571" lon="-1.04394">
        <ele>2.6</ele>
        <time>2020-06-02T13:03:08Z</time>
      </trkpt>
      <trkpt lat="46.31572" lon="-1.04401">
        <ele>2.6</ele>
        <time>2020-06-02T13:03:09Z</time>
      </trkpt>
      <trkpt lat="46.31572" lon="-1.04408">
        <ele>2.6</ele>
        <time>2020-06-02T13:03:10Z</time>
      </trkpt>
      <trkpt lat="46.31573" lon="-1.04415">
        <ele>2.6</ele>
        <time>2020-06-02T13:03:11Z</time>
      </trkpt>
      <trkpt lat="46.31574" lon="-1.04422">
        <ele>2.6</ele>
        <time>2020-06-02T13:03:12Z</time>
      </trkpt>
      <trkpt lat="46.31574" lon="-1.04429">
        <ele>2.6</ele>
        <time>2020-06-02T13:03:13Z</time>
      </trkpt>
      <trkpt lat="46.31575" lon="-1.04435">
        <ele>2.6</ele>
        <time>2020-06-02T13:03:14Z</time>
      </trkpt>
      <trkpt lat="46.31576" lon="-1.04442">
        <ele>2.6</ele>
        <time>2020-06-02T13:03:15Z</time>
      </trkpt>
      <trkpt lat="46.31576" lon="-1.04449">
        <ele>2.6</ele>
        <time>2020-06-02T13:03:16Z</time>
      </trkpt>
      <trkpt lat="46.31577" lon="-1.04455">
        <ele>2.6</ele>
        <time>2020-06-02T13:03:17Z</time>
      </trkpt>
      <trkpt lat="46.31577" lon="-1.04462">
        <ele>2.6</ele>
        <time>2020-06-02T13:03:18Z</time>
      </trkpt>
      <trkpt lat="46.31578" lon="-1.04468">
        <ele>2.6</ele>
        <time>2020-06-02T13:03:19Z</time>
      </trkpt>
      <trkpt lat="46.31578" lon="-1.04475">
        <ele>2.6</ele>
        <time>2020-06-02T13:03:20Z</time>
      </trkpt>
      <trkpt lat="46.31578" lon="-1.0448">
        <ele>2.6</ele>
        <time>2020-06-02T13:03:21Z</time>
      </trkpt>
      <trkpt lat="46.31579" lon="-1.04486">
        <ele>2.6</ele>
        <time>2020-06-02T13:03:22Z</time>
      </trkpt>
      <trkpt lat="46.31579" lon="-1.04492">
        <ele>2.6</ele>
        <time>2020-06-02T13:03:23Z</time>
      </trkpt>
      <trkpt lat="46.31579" lon="-1.04499">
        <ele>2.6</ele>
        <time>2020-06-02T13:03:24Z</time>
      </trkpt>
      <trkpt lat="46.31579" lon="-1.04505">
        <ele>2.6</ele>
        <time>2020-06-02T13:03:25Z</time>
      </trkpt>
      <trkpt lat="46.3158" lon="-1.04511">
        <ele>2.6</ele>
        <time>2020-06-02T13:03:26Z</time>
      </trkpt>
      <trkpt lat="46.3158" lon="-1.04519">
        <ele>2.6</ele>
        <time>2020-06-02T13:03:27Z</time>
      </trkpt>
      <trkpt lat="46.31581" lon="-1.04526">
        <ele>2.6</ele>
        <time>2020-06-02T13:03:28Z</time>
      </trkpt>
      <trkpt lat="46.31581" lon="-1.04533">
        <ele>2.6</ele>
        <time>2020-06-02T13:03:29Z</time>
      </trkpt>
      <trkpt lat="46.31581" lon="-1.0454">
        <ele>2.6</ele>
        <time>2020-06-02T13:03:30Z</time>
      </trkpt>
      <trkpt lat="46.31581" lon="-1.04547">
        <ele>2.6</ele>
        <time>2020-06-02T13:03:31Z</time>
      </trkpt>
      <trkpt lat="46.31581" lon="-1.04553">
        <ele>2.6</ele>
        <time>2020-06-02T13:03:32Z</time>
      </trkpt>
      <trkpt lat="46.31581" lon="-1.04559">
        <ele>2.6</ele>
        <time>2020-06-02T13:03:33Z</time>
      </trkpt>
      <trkpt lat="46.31581" lon="-1.04566">
        <ele>2.6</ele>
        <time>2020-06-02T13:03:34Z</time>
      </trkpt>
      <trkpt lat="46.31582" lon="-1.04573">
        <ele>2.6</ele>
        <time>2020-06-02T13:03:35Z</time>
      </trkpt>
      <trkpt lat="46.31582" lon="-1.0458">
        <ele>2.6</ele>
        <time>2020-06-02T13:03:36Z</time>
      </trkpt>
      <trkpt lat="46.31583" lon="-1.04588">
        <ele>2.6</ele>
        <time>2020-06-02T13:03:37Z</time>
      </trkpt>
      <trkpt lat="46.31584" lon="-1.04596">
        <ele>2.5</ele>
        <time>2020-06-02T13:03:38Z</time>
      </trkpt>
      <trkpt lat="46.31584" lon="-1.04602">
        <ele>2.5</ele>
        <time>2020-06-02T13:03:39Z</time>
      </trkpt>
      <trkpt lat="46.31585" lon="-1.04609">
        <ele>2.5</ele>
        <time>2020-06-02T13:03:40Z</time>
      </trkpt>
      <trkpt lat="46.31586" lon="-1.04617">
        <ele>2.5</ele>
        <time>2020-06-02T13:03:41Z</time>
      </trkpt>
      <trkpt lat="46.31586" lon="-1.04623">
        <ele>2.5</ele>
        <time>2020-06-02T13:03:42Z</time>
      </trkpt>
      <trkpt lat="46.31586" lon="-1.04631">
        <ele>2.5</ele>
        <time>2020-06-02T13:03:43Z</time>
      </trkpt>
      <trkpt lat="46.31586" lon="-1.04636">
        <ele>2.5</ele>
        <time>2020-06-02T13:03:44Z</time>
      </trkpt>
      <trkpt lat="46.31587" lon="-1.04642">
        <ele>2.5</ele>
        <time>2020-06-02T13:03:45Z</time>
      </trkpt>
      <trkpt lat="46.31587" lon="-1.04647">
        <ele>2.5</ele>
        <time>2020-06-02T13:03:46Z</time>
      </trkpt>
      <trkpt lat="46.31587" lon="-1.04654">
        <ele>2.5</ele>
        <time>2020-06-02T13:03:47Z</time>
      </trkpt>
      <trkpt lat="46.31587" lon="-1.04661">
        <ele>2.5</ele>
        <time>2020-06-02T13:03:48Z</time>
      </trkpt>
      <trkpt lat="46.31588" lon="-1.04668">
        <ele>2.5</ele>
        <time>2020-06-02T13:03:49Z</time>
      </trkpt>
      <trkpt lat="46.31589" lon="-1.04676">
        <ele>2.6</ele>
        <time>2020-06-02T13:03:50Z</time>
      </trkpt>
      <trkpt lat="46.3159" lon="-1.04683">
        <ele>2.6</ele>
        <time>2020-06-02T13:03:51Z</time>
      </trkpt>
      <trkpt lat="46.31592" lon="-1.0469">
        <ele>2.6</ele>
        <time>2020-06-02T13:03:52Z</time>
      </trkpt>
      <trkpt lat="46.31593" lon="-1.04696">
        <ele>2.6</ele>
        <time>2020-06-02T13:03:53Z</time>
      </trkpt>
      <trkpt lat="46.31594" lon="-1.04703">
        <ele>2.6</ele>
        <time>2020-06-02T13:03:54Z</time>
      </trkpt>
      <trkpt lat="46.31595" lon="-1.0471">
        <ele>2.5</ele>
        <time>2020-06-02T13:03:55Z</time>
      </trkpt>
      <trkpt lat="46.31596" lon="-1.04718">
        <ele>2.5</ele>
        <time>2020-06-02T13:03:56Z</time>
      </trkpt>
      <trkpt lat="46.31597" lon="-1.04725">
        <ele>2.5</ele>
        <time>2020-06-02T13:03:57Z</time>
      </trkpt>
      <trkpt lat="46.31598" lon="-1.04733">
        <ele>2.5</ele>
        <time>2020-06-02T13:03:58Z</time>
      </trkpt>
      <trkpt lat="46.31598" lon="-1.0474">
        <ele>2.5</ele>
        <time>2020-06-02T13:03:59Z</time>
      </trkpt>
      <trkpt lat="46.31599" lon="-1.04747">
        <ele>2.5</ele>
        <time>2020-06-02T13:04:00Z</time>
      </trkpt>
      <trkpt lat="46.31599" lon="-1.04754">
        <ele>2.5</ele>
        <time>2020-06-02T13:04:01Z</time>
      </trkpt>
      <trkpt lat="46.31599" lon="-1.04761">
        <ele>2.5</ele>
        <time>2020-06-02T13:04:02Z</time>
      </trkpt>
      <trkpt lat="46.31599" lon="-1.04767">
        <ele>2.5</ele>
        <time>2020-06-02T13:04:03Z</time>
      </trkpt>
      <trkpt lat="46.31599" lon="-1.04774">
        <ele>2.5</ele>
        <time>2020-06-02T13:04:04Z</time>
      </trkpt>
      <trkpt lat="46.31599" lon="-1.04781">
        <ele>2.5</ele>
        <time>2020-06-02T13:04:05Z</time>
      </trkpt>
      <trkpt lat="46.31599" lon="-1.04787">
        <ele>2.5</ele>
        <time>2020-06-02T13:04:06Z</time>
      </trkpt>
      <trkpt lat="46.316" lon="-1.04794">
        <ele>2.5</ele>
        <time>2020-06-02T13:04:07Z</time>
      </trkpt>
      <trkpt lat="46.31599" lon="-1.04801">
        <ele>2.5</ele>
        <time>2020-06-02T13:04:08Z</time>
      </trkpt>
      <trkpt lat="46.316" lon="-1.04809">
        <ele>2.5</ele>
        <time>2020-06-02T13:04:09Z</time>
      </trkpt>
      <trkpt lat="46.316" lon="-1.04816">
        <ele>2.5</ele>
        <time>2020-06-02T13:04:10Z</time>
      </trkpt>
      <trkpt lat="46.316" lon="-1.04822">
        <ele>2.4</ele>
        <time>2020-06-02T13:04:11Z</time>
      </trkpt>
      <trkpt lat="46.31601" lon="-1.04829">
        <ele>2.4</ele>
        <time>2020-06-02T13:04:12Z</time>
      </trkpt>
      <trkpt lat="46.31602" lon="-1.04835">
        <ele>2.4</ele>
        <time>2020-06-02T13:04:13Z</time>
      </trkpt>
      <trkpt lat="46.31602" lon="-1.04842">
        <ele>2.4</ele>
        <time>2020-06-02T13:04:14Z</time>
      </trkpt>
      <trkpt lat="46.31603" lon="-1.04849">
        <ele>2.4</ele>
        <time>2020-06-02T13:04:15Z</time>
      </trkpt>
      <trkpt lat="46.31603" lon="-1.04856">
        <ele>2.4</ele>
        <time>2020-06-02T13:04:16Z</time>
      </trkpt>
      <trkpt lat="46.31604" lon="-1.04863">
        <ele>2.4</ele>
        <time>2020-06-02T13:04:17Z</time>
      </trkpt>
      <trkpt lat="46.31605" lon="-1.0487">
        <ele>2.4</ele>
        <time>2020-06-02T13:04:18Z</time>
      </trkpt>
      <trkpt lat="46.31606" lon="-1.04877">
        <ele>2.4</ele>
        <time>2020-06-02T13:04:19Z</time>
      </trkpt>
      <trkpt lat="46.31607" lon="-1.04885">
        <ele>2.4</ele>
        <time>2020-06-02T13:04:20Z</time>
      </trkpt>
      <trkpt lat="46.31607" lon="-1.04892">
        <ele>2.4</ele>
        <time>2020-06-02T13:04:21Z</time>
      </trkpt>
      <trkpt lat="46.31608" lon="-1.04901">
        <ele>2.4</ele>
        <time>2020-06-02T13:04:22Z</time>
      </trkpt>
      <trkpt lat="46.31607" lon="-1.0491">
        <ele>2.3</ele>
        <time>2020-06-02T13:04:23Z</time>
      </trkpt>
      <trkpt lat="46.31607" lon="-1.04918">
        <ele>2.3</ele>
        <time>2020-06-02T13:04:24Z</time>
      </trkpt>
      <trkpt lat="46.31607" lon="-1.04925">
        <ele>2.3</ele>
        <time>2020-06-02T13:04:25Z</time>
      </trkpt>
      <trkpt lat="46.31608" lon="-1.04932">
        <ele>2.3</ele>
        <time>2020-06-02T13:04:26Z</time>
      </trkpt>
      <trkpt lat="46.31609" lon="-1.0494">
        <ele>2.3</ele>
        <time>2020-06-02T13:04:27Z</time>
      </trkpt>
      <trkpt lat="46.31609" lon="-1.04947">
        <ele>2.3</ele>
        <time>2020-06-02T13:04:28Z</time>
      </trkpt>
      <trkpt lat="46.3161" lon="-1.04954">
        <ele>2.3</ele>
        <time>2020-06-02T13:04:29Z</time>
      </trkpt>
      <trkpt lat="46.31611" lon="-1.04961">
        <ele>2.3</ele>
        <time>2020-06-02T13:04:30Z</time>
      </trkpt>
      <trkpt lat="46.31611" lon="-1.04968">
        <ele>2.3</ele>
        <time>2020-06-02T13:04:31Z</time>
      </trkpt>
      <trkpt lat="46.31611" lon="-1.04975">
        <ele>2.3</ele>
        <time>2020-06-02T13:04:32Z</time>
      </trkpt>
      <trkpt lat="46.31611" lon="-1.04981">
        <ele>2.3</ele>
        <time>2020-06-02T13:04:33Z</time>
      </trkpt>
      <trkpt lat="46.31611" lon="-1.04987">
        <ele>2.3</ele>
        <time>2020-06-02T13:04:34Z</time>
      </trkpt>
      <trkpt lat="46.31611" lon="-1.04994">
        <ele>2.3</ele>
        <time>2020-06-02T13:04:35Z</time>
      </trkpt>
      <trkpt lat="46.31612" lon="-1.05001">
        <ele>2.3</ele>
        <time>2020-06-02T13:04:36Z</time>
      </trkpt>
      <trkpt lat="46.31612" lon="-1.05008">
        <ele>2.4</ele>
        <time>2020-06-02T13:04:37Z</time>
      </trkpt>
      <trkpt lat="46.31612" lon="-1.05015">
        <ele>2.4</ele>
        <time>2020-06-02T13:04:38Z</time>
      </trkpt>
      <trkpt lat="46.31612" lon="-1.05023">
        <ele>2.4</ele>
        <time>2020-06-02T13:04:39Z</time>
      </trkpt>
      <trkpt lat="46.31612" lon="-1.0503">
        <ele>2.4</ele>
        <time>2020-06-02T13:04:40Z</time>
      </trkpt>
      <trkpt lat="46.31612" lon="-1.05037">
        <ele>2.4</ele>
        <time>2020-06-02T13:04:41Z</time>
      </trkpt>
      <trkpt lat="46.31612" lon="-1.05044">
        <ele>2.4</ele>
        <time>2020-06-02T13:04:42Z</time>
      </trkpt>
      <trkpt lat="46.31613" lon="-1.05051">
        <ele>2.4</ele>
        <time>2020-06-02T13:04:43Z</time>
      </trkpt>
      <trkpt lat="46.31613" lon="-1.05058">
        <ele>2.4</ele>
        <time>2020-06-02T13:04:44Z</time>
      </trkpt>
      <trkpt lat="46.31613" lon="-1.05064">
        <ele>2.4</ele>
        <time>2020-06-02T13:04:45Z</time>
      </trkpt>
      <trkpt lat="46.31613" lon="-1.0507">
        <ele>2.4</ele>
        <time>2020-06-02T13:04:46Z</time>
      </trkpt>
      <trkpt lat="46.31613" lon="-1.05076">
        <ele>2.4</ele>
        <time>2020-06-02T13:04:47Z</time>
      </trkpt>
      <trkpt lat="46.31613" lon="-1.05082">
        <ele>2.4</ele>
        <time>2020-06-02T13:04:48Z</time>
      </trkpt>
      <trkpt lat="46.31613" lon="-1.05088">
        <ele>2.4</ele>
        <time>2020-06-02T13:04:49Z</time>
      </trkpt>
      <trkpt lat="46.31615" lon="-1.05094">
        <ele>2.4</ele>
        <time>2020-06-02T13:04:50Z</time>
      </trkpt>
      <trkpt lat="46.31616" lon="-1.05101">
        <ele>2.4</ele>
        <time>2020-06-02T13:04:51Z</time>
      </trkpt>
      <trkpt lat="46.31617" lon="-1.05108">
        <ele>2.5</ele>
        <time>2020-06-02T13:04:52Z</time>
      </trkpt>
      <trkpt lat="46.31618" lon="-1.05115">
        <ele>2.5</ele>
        <time>2020-06-02T13:04:53Z</time>
      </trkpt>
      <trkpt lat="46.31618" lon="-1.05122">
        <ele>2.5</ele>
        <time>2020-06-02T13:04:54Z</time>
      </trkpt>
      <trkpt lat="46.31619" lon="-1.0513">
        <ele>2.5</ele>
        <time>2020-06-02T13:04:55Z</time>
      </trkpt>
      <trkpt lat="46.3162" lon="-1.05137">
        <ele>2.4</ele>
        <time>2020-06-02T13:04:56Z</time>
      </trkpt>
      <trkpt lat="46.31621" lon="-1.05144">
        <ele>2.4</ele>
        <time>2020-06-02T13:04:57Z</time>
      </trkpt>
      <trkpt lat="46.31621" lon="-1.05151">
        <ele>2.4</ele>
        <time>2020-06-02T13:04:58Z</time>
      </trkpt>
      <trkpt lat="46.31622" lon="-1.05159">
        <ele>2.4</ele>
        <time>2020-06-02T13:04:59Z</time>
      </trkpt>
      <trkpt lat="46.31622" lon="-1.05166">
        <ele>2.4</ele>
        <time>2020-06-02T13:05:00Z</time>
      </trkpt>
      <trkpt lat="46.31623" lon="-1.05173">
        <ele>2.4</ele>
        <time>2020-06-02T13:05:01Z</time>
      </trkpt>
      <trkpt lat="46.31623" lon="-1.05181">
        <ele>2.4</ele>
        <time>2020-06-02T13:05:02Z</time>
      </trkpt>
      <trkpt lat="46.31623" lon="-1.05187">
        <ele>2.4</ele>
        <time>2020-06-02T13:05:03Z</time>
      </trkpt>
      <trkpt lat="46.31623" lon="-1.05194">
        <ele>2.4</ele>
        <time>2020-06-02T13:05:04Z</time>
      </trkpt>
      <trkpt lat="46.31623" lon="-1.052">
        <ele>2.4</ele>
        <time>2020-06-02T13:05:05Z</time>
      </trkpt>
      <trkpt lat="46.31624" lon="-1.05207">
        <ele>2.4</ele>
        <time>2020-06-02T13:05:06Z</time>
      </trkpt>
      <trkpt lat="46.31625" lon="-1.05215">
        <ele>2.4</ele>
        <time>2020-06-02T13:05:07Z</time>
      </trkpt>
      <trkpt lat="46.31624" lon="-1.05223">
        <ele>2.4</ele>
        <time>2020-06-02T13:05:08Z</time>
      </trkpt>
      <trkpt lat="46.31625" lon="-1.05231">
        <ele>2.4</ele>
        <time>2020-06-02T13:05:09Z</time>
      </trkpt>
      <trkpt lat="46.31625" lon="-1.05239">
        <ele>2.4</ele>
        <time>2020-06-02T13:05:10Z</time>
      </trkpt>
      <trkpt lat="46.31626" lon="-1.05246">
        <ele>2.4</ele>
        <time>2020-06-02T13:05:11Z</time>
      </trkpt>
      <trkpt lat="46.31626" lon="-1.05254">
        <ele>2.4</ele>
        <time>2020-06-02T13:05:12Z</time>
      </trkpt>
      <trkpt lat="46.31627" lon="-1.0526">
        <ele>2.4</ele>
        <time>2020-06-02T13:05:13Z</time>
      </trkpt>
      <trkpt lat="46.31628" lon="-1.05267">
        <ele>2.4</ele>
        <time>2020-06-02T13:05:14Z</time>
      </trkpt>
      <trkpt lat="46.31629" lon="-1.05273">
        <ele>2.4</ele>
        <time>2020-06-02T13:05:15Z</time>
      </trkpt>
      <trkpt lat="46.3163" lon="-1.05281">
        <ele>2.4</ele>
        <time>2020-06-02T13:05:16Z</time>
      </trkpt>
      <trkpt lat="46.3163" lon="-1.05288">
        <ele>2.4</ele>
        <time>2020-06-02T13:05:17Z</time>
      </trkpt>
      <trkpt lat="46.3163" lon="-1.05295">
        <ele>2.4</ele>
        <time>2020-06-02T13:05:18Z</time>
      </trkpt>
      <trkpt lat="46.3163" lon="-1.05302">
        <ele>2.4</ele>
        <time>2020-06-02T13:05:19Z</time>
      </trkpt>
      <trkpt lat="46.3163" lon="-1.05309">
        <ele>2.4</ele>
        <time>2020-06-02T13:05:20Z</time>
      </trkpt>
      <trkpt lat="46.31631" lon="-1.05316">
        <ele>2.4</ele>
        <time>2020-06-02T13:05:21Z</time>
      </trkpt>
      <trkpt lat="46.31632" lon="-1.05323">
        <ele>2.3</ele>
        <time>2020-06-02T13:05:22Z</time>
      </trkpt>
      <trkpt lat="46.31632" lon="-1.0533">
        <ele>2.3</ele>
        <time>2020-06-02T13:05:23Z</time>
      </trkpt>
      <trkpt lat="46.31632" lon="-1.05337">
        <ele>2.3</ele>
        <time>2020-06-02T13:05:24Z</time>
      </trkpt>
      <trkpt lat="46.31632" lon="-1.05344">
        <ele>2.3</ele>
        <time>2020-06-02T13:05:25Z</time>
      </trkpt>
      <trkpt lat="46.31632" lon="-1.05351">
        <ele>2.3</ele>
        <time>2020-06-02T13:05:26Z</time>
      </trkpt>
      <trkpt lat="46.31633" lon="-1.05357">
        <ele>2.4</ele>
        <time>2020-06-02T13:05:27Z</time>
      </trkpt>
      <trkpt lat="46.31635" lon="-1.05364">
        <ele>2.4</ele>
        <time>2020-06-02T13:05:28Z</time>
      </trkpt>
      <trkpt lat="46.31636" lon="-1.0537">
        <ele>2.4</ele>
        <time>2020-06-02T13:05:29Z</time>
      </trkpt>
      <trkpt lat="46.31637" lon="-1.05377">
        <ele>2.4</ele>
        <time>2020-06-02T13:05:30Z</time>
      </trkpt>
      <trkpt lat="46.31637" lon="-1.05384">
        <ele>2.4</ele>
        <time>2020-06-02T13:05:31Z</time>
      </trkpt>
      <trkpt lat="46.31637" lon="-1.0539">
        <ele>2.4</ele>
        <time>2020-06-02T13:05:32Z</time>
      </trkpt>
      <trkpt lat="46.31638" lon="-1.05398">
        <ele>2.4</ele>
        <time>2020-06-02T13:05:33Z</time>
      </trkpt>
      <trkpt lat="46.31639" lon="-1.05405">
        <ele>2.4</ele>
        <time>2020-06-02T13:05:34Z</time>
      </trkpt>
      <trkpt lat="46.31639" lon="-1.05412">
        <ele>2.4</ele>
        <time>2020-06-02T13:05:35Z</time>
      </trkpt>
      <trkpt lat="46.31639" lon="-1.05419">
        <ele>2.4</ele>
        <time>2020-06-02T13:05:36Z</time>
      </trkpt>
      <trkpt lat="46.3164" lon="-1.05427">
        <ele>2.4</ele>
        <time>2020-06-02T13:05:37Z</time>
      </trkpt>
      <trkpt lat="46.31642" lon="-1.05435">
        <ele>2.4</ele>
        <time>2020-06-02T13:05:38Z</time>
      </trkpt>
      <trkpt lat="46.31642" lon="-1.05442">
        <ele>2.4</ele>
        <time>2020-06-02T13:05:39Z</time>
      </trkpt>
      <trkpt lat="46.31641" lon="-1.05448">
        <ele>2.4</ele>
        <time>2020-06-02T13:05:40Z</time>
      </trkpt>
      <trkpt lat="46.31642" lon="-1.05455">
        <ele>2.4</ele>
        <time>2020-06-02T13:05:41Z</time>
      </trkpt>
      <trkpt lat="46.31642" lon="-1.05461">
        <ele>2.4</ele>
        <time>2020-06-02T13:05:42Z</time>
      </trkpt>
      <trkpt lat="46.31642" lon="-1.05467">
        <ele>2.4</ele>
        <time>2020-06-02T13:05:43Z</time>
      </trkpt>
      <trkpt lat="46.31642" lon="-1.05472">
        <ele>2.4</ele>
        <time>2020-06-02T13:05:44Z</time>
      </trkpt>
      <trkpt lat="46.31643" lon="-1.05478">
        <ele>2.4</ele>
        <time>2020-06-02T13:05:45Z</time>
      </trkpt>
      <trkpt lat="46.31643" lon="-1.05484">
        <ele>2.4</ele>
        <time>2020-06-02T13:05:46Z</time>
      </trkpt>
      <trkpt lat="46.31644" lon="-1.0549">
        <ele>2.4</ele>
        <time>2020-06-02T13:05:47Z</time>
      </trkpt>
      <trkpt lat="46.31644" lon="-1.05495">
        <ele>2.4</ele>
        <time>2020-06-02T13:05:48Z</time>
      </trkpt>
      <trkpt lat="46.31645" lon="-1.05501">
        <ele>2.4</ele>
        <time>2020-06-02T13:05:49Z</time>
      </trkpt>
      <trkpt lat="46.31645" lon="-1.05507">
        <ele>2.4</ele>
        <time>2020-06-02T13:05:50Z</time>
      </trkpt>
      <trkpt lat="46.31646" lon="-1.05512">
        <ele>2.4</ele>
        <time>2020-06-02T13:05:51Z</time>
      </trkpt>
      <trkpt lat="46.31646" lon="-1.05518">
        <ele>2.4</ele>
        <time>2020-06-02T13:05:52Z</time>
      </trkpt>
      <trkpt lat="46.31646" lon="-1.05523">
        <ele>2.5</ele>
        <time>2020-06-02T13:05:53Z</time>
      </trkpt>
      <trkpt lat="46.31646" lon="-1.05528">
        <ele>2.5</ele>
        <time>2020-06-02T13:05:54Z</time>
      </trkpt>
      <trkpt lat="46.31646" lon="-1.05533">
        <ele>2.5</ele>
        <time>2020-06-02T13:05:55Z</time>
      </trkpt>
      <trkpt lat="46.31646" lon="-1.05539">
        <ele>2.5</ele>
        <time>2020-06-02T13:05:56Z</time>
      </trkpt>
      <trkpt lat="46.31646" lon="-1.05544">
        <ele>2.5</ele>
        <time>2020-06-02T13:05:57Z</time>
      </trkpt>
      <trkpt lat="46.31647" lon="-1.05549">
        <ele>2.5</ele>
        <time>2020-06-02T13:05:58Z</time>
      </trkpt>
      <trkpt lat="46.31647" lon="-1.05554">
        <ele>2.5</ele>
        <time>2020-06-02T13:05:59Z</time>
      </trkpt>
      <trkpt lat="46.31647" lon="-1.05559">
        <ele>2.5</ele>
        <time>2020-06-02T13:06:00Z</time>
      </trkpt>
      <trkpt lat="46.31647" lon="-1.05564">
        <ele>2.5</ele>
        <time>2020-06-02T13:06:01Z</time>
      </trkpt>
      <trkpt lat="46.31648" lon="-1.05569">
        <ele>2.5</ele>
        <time>2020-06-02T13:06:02Z</time>
      </trkpt>
      <trkpt lat="46.31648" lon="-1.05574">
        <ele>2.5</ele>
        <time>2020-06-02T13:06:03Z</time>
      </trkpt>
      <trkpt lat="46.31648" lon="-1.05579">
        <ele>2.5</ele>
        <time>2020-06-02T13:06:04Z</time>
      </trkpt>
      <trkpt lat="46.31648" lon="-1.05585">
        <ele>2.4</ele>
        <time>2020-06-02T13:06:05Z</time>
      </trkpt>
      <trkpt lat="46.31648" lon="-1.05591">
        <ele>2.4</ele>
        <time>2020-06-02T13:06:06Z</time>
      </trkpt>
      <trkpt lat="46.31649" lon="-1.05597">
        <ele>2.4</ele>
        <time>2020-06-02T13:06:07Z</time>
      </trkpt>
      <trkpt lat="46.31648" lon="-1.05603">
        <ele>2.4</ele>
        <time>2020-06-02T13:06:08Z</time>
      </trkpt>
      <trkpt lat="46.31648" lon="-1.05609">
        <ele>2.4</ele>
        <time>2020-06-02T13:06:09Z</time>
      </trkpt>
      <trkpt lat="46.31648" lon="-1.05614">
        <ele>2.4</ele>
        <time>2020-06-02T13:06:10Z</time>
      </trkpt>
      <trkpt lat="46.31649" lon="-1.0562">
        <ele>2.4</ele>
        <time>2020-06-02T13:06:11Z</time>
      </trkpt>
      <trkpt lat="46.31649" lon="-1.05626">
        <ele>2.4</ele>
        <time>2020-06-02T13:06:12Z</time>
      </trkpt>
      <trkpt lat="46.3165" lon="-1.05633">
        <ele>2.4</ele>
        <time>2020-06-02T13:06:13Z</time>
      </trkpt>
      <trkpt lat="46.31651" lon="-1.05639">
        <ele>2.4</ele>
        <time>2020-06-02T13:06:14Z</time>
      </trkpt>
      <trkpt lat="46.31652" lon="-1.05646">
        <ele>2.4</ele>
        <time>2020-06-02T13:06:15Z</time>
      </trkpt>
      <trkpt lat="46.31652" lon="-1.05652">
        <ele>2.4</ele>
        <time>2020-06-02T13:06:16Z</time>
      </trkpt>
      <trkpt lat="46.31652" lon="-1.05659">
        <ele>2.4</ele>
        <time>2020-06-02T13:06:17Z</time>
      </trkpt>
      <trkpt lat="46.31653" lon="-1.05666">
        <ele>2.5</ele>
        <time>2020-06-02T13:06:18Z</time>
      </trkpt>
      <trkpt lat="46.31653" lon="-1.05673">
        <ele>2.5</ele>
        <time>2020-06-02T13:06:19Z</time>
      </trkpt>
      <trkpt lat="46.31654" lon="-1.0568">
        <ele>2.5</ele>
        <time>2020-06-02T13:06:20Z</time>
      </trkpt>
      <trkpt lat="46.31655" lon="-1.05687">
        <ele>2.5</ele>
        <time>2020-06-02T13:06:21Z</time>
      </trkpt>
      <trkpt lat="46.31656" lon="-1.05693">
        <ele>2.5</ele>
        <time>2020-06-02T13:06:22Z</time>
      </trkpt>
      <trkpt lat="46.31656" lon="-1.057">
        <ele>2.5</ele>
        <time>2020-06-02T13:06:23Z</time>
      </trkpt>
      <trkpt lat="46.31656" lon="-1.05707">
        <ele>2.5</ele>
        <time>2020-06-02T13:06:24Z</time>
      </trkpt>
      <trkpt lat="46.31656" lon="-1.05713">
        <ele>2.5</ele>
        <time>2020-06-02T13:06:25Z</time>
      </trkpt>
      <trkpt lat="46.31656" lon="-1.0572">
        <ele>2.5</ele>
        <time>2020-06-02T13:06:26Z</time>
      </trkpt>
      <trkpt lat="46.31656" lon="-1.05726">
        <ele>2.5</ele>
        <time>2020-06-02T13:06:27Z</time>
      </trkpt>
      <trkpt lat="46.31657" lon="-1.05733">
        <ele>2.5</ele>
        <time>2020-06-02T13:06:28Z</time>
      </trkpt>
      <trkpt lat="46.31657" lon="-1.0574">
        <ele>2.5</ele>
        <time>2020-06-02T13:06:29Z</time>
      </trkpt>
      <trkpt lat="46.31657" lon="-1.05747">
        <ele>2.5</ele>
        <time>2020-06-02T13:06:30Z</time>
      </trkpt>
      <trkpt lat="46.31657" lon="-1.05753">
        <ele>2.5</ele>
        <time>2020-06-02T13:06:31Z</time>
      </trkpt>
      <trkpt lat="46.31658" lon="-1.05759">
        <ele>2.5</ele>
        <time>2020-06-02T13:06:32Z</time>
      </trkpt>
      <trkpt lat="46.31658" lon="-1.05766">
        <ele>2.5</ele>
        <time>2020-06-02T13:06:33Z</time>
      </trkpt>
      <trkpt lat="46.31659" lon="-1.05774">
        <ele>2.5</ele>
        <time>2020-06-02T13:06:34Z</time>
      </trkpt>
      <trkpt lat="46.3166" lon="-1.0578">
        <ele>2.5</ele>
        <time>2020-06-02T13:06:35Z</time>
      </trkpt>
      <trkpt lat="46.31661" lon="-1.05788">
        <ele>2.5</ele>
        <time>2020-06-02T13:06:36Z</time>
      </trkpt>
      <trkpt lat="46.31662" lon="-1.05794">
        <ele>2.5</ele>
        <time>2020-06-02T13:06:37Z</time>
      </trkpt>
      <trkpt lat="46.31663" lon="-1.05801">
        <ele>2.5</ele>
        <time>2020-06-02T13:06:38Z</time>
      </trkpt>
      <trkpt lat="46.31663" lon="-1.05808">
        <ele>2.5</ele>
        <time>2020-06-02T13:06:39Z</time>
      </trkpt>
      <trkpt lat="46.31663" lon="-1.05816">
        <ele>2.5</ele>
        <time>2020-06-02T13:06:40Z</time>
      </trkpt>
      <trkpt lat="46.31664" lon="-1.05824">
        <ele>2.5</ele>
        <time>2020-06-02T13:06:41Z</time>
      </trkpt>
      <trkpt lat="46.31665" lon="-1.05832">
        <ele>2.5</ele>
        <time>2020-06-02T13:06:42Z</time>
      </trkpt>
      <trkpt lat="46.31665" lon="-1.05839">
        <ele>2.5</ele>
        <time>2020-06-02T13:06:43Z</time>
      </trkpt>
      <trkpt lat="46.31665" lon="-1.05845">
        <ele>2.5</ele>
        <time>2020-06-02T13:06:44Z</time>
      </trkpt>
      <trkpt lat="46.31666" lon="-1.05852">
        <ele>2.5</ele>
        <time>2020-06-02T13:06:45Z</time>
      </trkpt>
      <trkpt lat="46.31666" lon="-1.05858">
        <ele>2.5</ele>
        <time>2020-06-02T13:06:46Z</time>
      </trkpt>
      <trkpt lat="46.31667" lon="-1.05865">
        <ele>2.5</ele>
        <time>2020-06-02T13:06:47Z</time>
      </trkpt>
      <trkpt lat="46.31666" lon="-1.05873">
        <ele>2.5</ele>
        <time>2020-06-02T13:06:48Z</time>
      </trkpt>
      <trkpt lat="46.31667" lon="-1.0588">
        <ele>2.5</ele>
        <time>2020-06-02T13:06:49Z</time>
      </trkpt>
      <trkpt lat="46.31668" lon="-1.05886">
        <ele>2.5</ele>
        <time>2020-06-02T13:06:50Z</time>
      </trkpt>
      <trkpt lat="46.31668" lon="-1.05894">
        <ele>2.5</ele>
        <time>2020-06-02T13:06:51Z</time>
      </trkpt>
      <trkpt lat="46.31668" lon="-1.05901">
        <ele>2.5</ele>
        <time>2020-06-02T13:06:52Z</time>
      </trkpt>
      <trkpt lat="46.31669" lon="-1.05907">
        <ele>2.5</ele>
        <time>2020-06-02T13:06:53Z</time>
      </trkpt>
      <trkpt lat="46.3167" lon="-1.05914">
        <ele>2.5</ele>
        <time>2020-06-02T13:06:54Z</time>
      </trkpt>
      <trkpt lat="46.3167" lon="-1.05921">
        <ele>2.5</ele>
        <time>2020-06-02T13:06:55Z</time>
      </trkpt>
      <trkpt lat="46.31671" lon="-1.05928">
        <ele>2.5</ele>
        <time>2020-06-02T13:06:56Z</time>
      </trkpt>
      <trkpt lat="46.31672" lon="-1.05935">
        <ele>2.5</ele>
        <time>2020-06-02T13:06:57Z</time>
      </trkpt>
      <trkpt lat="46.31673" lon="-1.05942">
        <ele>2.5</ele>
        <time>2020-06-02T13:06:58Z</time>
      </trkpt>
      <trkpt lat="46.31673" lon="-1.05948">
        <ele>2.5</ele>
        <time>2020-06-02T13:06:59Z</time>
      </trkpt>
      <trkpt lat="46.31674" lon="-1.05955">
        <ele>2.5</ele>
        <time>2020-06-02T13:07:00Z</time>
      </trkpt>
      <trkpt lat="46.31674" lon="-1.05962">
        <ele>2.5</ele>
        <time>2020-06-02T13:07:01Z</time>
      </trkpt>
      <trkpt lat="46.31673" lon="-1.05969">
        <ele>2.5</ele>
        <time>2020-06-02T13:07:02Z</time>
      </trkpt>
      <trkpt lat="46.31673" lon="-1.05975">
        <ele>2.5</ele>
        <time>2020-06-02T13:07:03Z</time>
      </trkpt>
      <trkpt lat="46.31674" lon="-1.05981">
        <ele>2.5</ele>
        <time>2020-06-02T13:07:04Z</time>
      </trkpt>
      <trkpt lat="46.31674" lon="-1.05987">
        <ele>2.5</ele>
        <time>2020-06-02T13:07:05Z</time>
      </trkpt>
      <trkpt lat="46.31675" lon="-1.05994">
        <ele>2.5</ele>
        <time>2020-06-02T13:07:06Z</time>
      </trkpt>
      <trkpt lat="46.31675" lon="-1.06">
        <ele>2.5</ele>
        <time>2020-06-02T13:07:07Z</time>
      </trkpt>
      <trkpt lat="46.31676" lon="-1.06006">
        <ele>2.4</ele>
        <time>2020-06-02T13:07:08Z</time>
      </trkpt>
      <trkpt lat="46.31676" lon="-1.06012">
        <ele>2.4</ele>
        <time>2020-06-02T13:07:09Z</time>
      </trkpt>
      <trkpt lat="46.31677" lon="-1.06016">
        <ele>2.4</ele>
        <time>2020-06-02T13:07:10Z</time>
      </trkpt>
      <trkpt lat="46.31676" lon="-1.06021">
        <ele>2.4</ele>
        <time>2020-06-02T13:07:11Z</time>
      </trkpt>
      <trkpt lat="46.31676" lon="-1.06023">
        <ele>2.4</ele>
        <time>2020-06-02T13:07:12Z</time>
      </trkpt>
      <trkpt lat="46.31676" lon="-1.06024">
        <ele>2.4</ele>
        <time>2020-06-02T13:07:13Z</time>
      </trkpt>
      <trkpt lat="46.31676" lon="-1.06024">
        <ele>2.4</ele>
        <time>2020-06-02T13:07:14Z</time>
      </trkpt>
      <trkpt lat="46.31676" lon="-1.06023">
        <ele>2.4</ele>
        <time>2020-06-02T13:07:15Z</time>
      </trkpt>
      <trkpt lat="46.31676" lon="-1.06022">
        <ele>2.4</ele>
        <time>2020-06-02T13:07:16Z</time>
      </trkpt>
      <trkpt lat="46.31676" lon="-1.06021">
        <ele>2.4</ele>
        <time>2020-06-02T13:07:17Z</time>
      </trkpt>
      <trkpt lat="46.31676" lon="-1.06021">
        <ele>2.4</ele>
        <time>2020-06-02T13:07:18Z</time>
      </trkpt>
      <trkpt lat="46.31675" lon="-1.06021">
        <ele>2.4</ele>
        <time>2020-06-02T13:07:19Z</time>
      </trkpt>
      <trkpt lat="46.31675" lon="-1.06022">
        <ele>2.4</ele>
        <time>2020-06-02T13:07:20Z</time>
      </trkpt>
      <trkpt lat="46.31673" lon="-1.06021">
        <ele>2.4</ele>
        <time>2020-06-02T13:07:21Z</time>
      </trkpt>
      <trkpt lat="46.31672" lon="-1.06021">
        <ele>2.4</ele>
        <time>2020-06-02T13:07:22Z</time>
      </trkpt>
      <trkpt lat="46.31671" lon="-1.06021">
        <ele>2.4</ele>
        <time>2020-06-02T13:07:23Z</time>
      </trkpt>
      <trkpt lat="46.31672" lon="-1.06023">
        <ele>2.4</ele>
        <time>2020-06-02T13:07:24Z</time>
      </trkpt>
      <trkpt lat="46.31671" lon="-1.06022">
        <ele>2.4</ele>
        <time>2020-06-02T13:07:25Z</time>
      </trkpt>
      <trkpt lat="46.31671" lon="-1.06022">
        <ele>2.4</ele>
        <time>2020-06-02T13:07:26Z</time>
      </trkpt>
      <trkpt lat="46.31671" lon="-1.06022">
        <ele>2.4</ele>
        <time>2020-06-02T13:07:27Z</time>
      </trkpt>
      <trkpt lat="46.31671" lon="-1.06022">
        <ele>2.4</ele>
        <time>2020-06-02T13:07:28Z</time>
      </trkpt>
      <trkpt lat="46.31671" lon="-1.06022">
        <ele>2.4</ele>
        <time>2020-06-02T13:07:29Z</time>
      </trkpt>
      <trkpt lat="46.3167" lon="-1.06023">
        <ele>2.4</ele>
        <time>2020-06-02T13:07:30Z</time>
      </trkpt>
      <trkpt lat="46.3167" lon="-1.06023">
        <ele>2.4</ele>
        <time>2020-06-02T13:07:31Z</time>
      </trkpt>
      <trkpt lat="46.3167" lon="-1.06023">
        <ele>2.4</ele>
        <time>2020-06-02T13:07:32Z</time>
      </trkpt>
      <trkpt lat="46.3167" lon="-1.06024">
        <ele>2.4</ele>
        <time>2020-06-02T13:07:33Z</time>
      </trkpt>
      <trkpt lat="46.3167" lon="-1.06024">
        <ele>2.4</ele>
        <time>2020-06-02T13:07:34Z</time>
      </trkpt>
      <trkpt lat="46.3167" lon="-1.06024">
        <ele>2.4</ele>
        <time>2020-06-02T13:07:35Z</time>
      </trkpt>
      <trkpt lat="46.3167" lon="-1.06024">
        <ele>2.4</ele>
        <time>2020-06-02T13:07:36Z</time>
      </trkpt>
      <trkpt lat="46.3167" lon="-1.06024">
        <ele>2.4</ele>
        <time>2020-06-02T13:07:37Z</time>
      </trkpt>
      <trkpt lat="46.3167" lon="-1.06023">
        <ele>2.4</ele>
        <time>2020-06-02T13:07:38Z</time>
      </trkpt>
      <trkpt lat="46.3167" lon="-1.06023">
        <ele>2.4</ele>
        <time>2020-06-02T13:07:39Z</time>
      </trkpt>
      <trkpt lat="46.3167" lon="-1.06022">
        <ele>2.4</ele>
        <time>2020-06-02T13:07:40Z</time>
      </trkpt>
      <trkpt lat="46.3167" lon="-1.06023">
        <ele>2.4</ele>
        <time>2020-06-02T13:07:41Z</time>
      </trkpt>
      <trkpt lat="46.3167" lon="-1.06023">
        <ele>2.4</ele>
        <time>2020-06-02T13:07:42Z</time>
      </trkpt>
      <trkpt lat="46.3167" lon="-1.06024">
        <ele>2.4</ele>
        <time>2020-06-02T13:07:43Z</time>
      </trkpt>
      <trkpt lat="46.31671" lon="-1.06025">
        <ele>2.4</ele>
        <time>2020-06-02T13:07:44Z</time>
      </trkpt>
      <trkpt lat="46.31671" lon="-1.06025">
        <ele>2.4</ele>
        <time>2020-06-02T13:07:45Z</time>
      </trkpt>
      <trkpt lat="46.31671" lon="-1.06025">
        <ele>2.4</ele>
        <time>2020-06-02T13:07:46Z</time>
      </trkpt>
      <trkpt lat="46.31671" lon="-1.06024">
        <ele>2.4</ele>
        <time>2020-06-02T13:07:47Z</time>
      </trkpt>
      <trkpt lat="46.31671" lon="-1.06024">
        <ele>2.4</ele>
        <time>2020-06-02T13:07:48Z</time>
      </trkpt>
      <trkpt lat="46.31671" lon="-1.06024">
        <ele>2.4</ele>
        <time>2020-06-02T13:07:49Z</time>
      </trkpt>
      <trkpt lat="46.31671" lon="-1.06025">
        <ele>2.4</ele>
        <time>2020-06-02T13:07:50Z</time>
      </trkpt>
      <trkpt lat="46.31671" lon="-1.06025">
        <ele>2.4</ele>
        <time>2020-06-02T13:07:51Z</time>
      </trkpt>
      <trkpt lat="46.31671" lon="-1.06024">
        <ele>2.4</ele>
        <time>2020-06-02T13:07:52Z</time>
      </trkpt>
      <trkpt lat="46.31671" lon="-1.06025">
        <ele>2.4</ele>
        <time>2020-06-02T13:07:53Z</time>
      </trkpt>
      <trkpt lat="46.31671" lon="-1.06025">
        <ele>2.4</ele>
        <time>2020-06-02T13:07:54Z</time>
      </trkpt>
      <trkpt lat="46.31671" lon="-1.06025">
        <ele>2.4</ele>
        <time>2020-06-02T13:07:55Z</time>
      </trkpt>
      <trkpt lat="46.31671" lon="-1.06025">
        <ele>2.4</ele>
        <time>2020-06-02T13:07:56Z</time>
      </trkpt>
      <trkpt lat="46.31671" lon="-1.06025">
        <ele>2.4</ele>
        <time>2020-06-02T13:07:57Z</time>
      </trkpt>
      <trkpt lat="46.31671" lon="-1.06025">
        <ele>2.4</ele>
        <time>2020-06-02T13:07:58Z</time>
      </trkpt>
      <trkpt lat="46.31671" lon="-1.06025">
        <ele>2.4</ele>
        <time>2020-06-02T13:07:59Z</time>
      </trkpt>
      <trkpt lat="46.31671" lon="-1.06025">
        <ele>2.4</ele>
        <time>2020-06-02T13:08:00Z</time>
      </trkpt>
      <trkpt lat="46.31671" lon="-1.06025">
        <ele>2.4</ele>
        <time>2020-06-02T13:08:01Z</time>
      </trkpt>
      <trkpt lat="46.31671" lon="-1.06025">
        <ele>2.4</ele>
        <time>2020-06-02T13:08:02Z</time>
      </trkpt>
      <trkpt lat="46.31671" lon="-1.06025">
        <ele>2.4</ele>
        <time>2020-06-02T13:08:03Z</time>
      </trkpt>
      <trkpt lat="46.31671" lon="-1.06025">
        <ele>2.4</ele>
        <time>2020-06-02T13:08:04Z</time>
      </trkpt>
      <trkpt lat="46.31671" lon="-1.06025">
        <ele>2.4</ele>
        <time>2020-06-02T13:08:05Z</time>
      </trkpt>
      <trkpt lat="46.31671" lon="-1.06025">
        <ele>2.4</ele>
        <time>2020-06-02T13:08:06Z</time>
      </trkpt>
      <trkpt lat="46.31671" lon="-1.06025">
        <ele>2.4</ele>
        <time>2020-06-02T13:08:07Z</time>
      </trkpt>
      <trkpt lat="46.31671" lon="-1.06025">
        <ele>2.4</ele>
        <time>2020-06-02T13:08:08Z</time>
      </trkpt>
      <trkpt lat="46.31671" lon="-1.06025">
        <ele>2.4</ele>
        <time>2020-06-02T13:08:09Z</time>
      </trkpt>
      <trkpt lat="46.31671" lon="-1.06025">
        <ele>2.4</ele>
        <time>2020-06-02T13:08:10Z</time>
      </trkpt>
      <trkpt lat="46.31671" lon="-1.06025">
        <ele>2.4</ele>
        <time>2020-06-02T13:08:11Z</time>
      </trkpt>
      <trkpt lat="46.31671" lon="-1.06025">
        <ele>2.4</ele>
        <time>2020-06-02T13:08:12Z</time>
      </trkpt>
      <trkpt lat="46.31671" lon="-1.06025">
        <ele>2.4</ele>
        <time>2020-06-02T13:08:13Z</time>
      </trkpt>
      <trkpt lat="46.31671" lon="-1.06025">
        <ele>2.4</ele>
        <time>2020-06-02T13:08:14Z</time>
      </trkpt>
      <trkpt lat="46.31671" lon="-1.06025">
        <ele>2.4</ele>
        <time>2020-06-02T13:08:15Z</time>
      </trkpt>
      <trkpt lat="46.31671" lon="-1.06025">
        <ele>2.4</ele>
        <time>2020-06-02T13:08:16Z</time>
      </trkpt>
      <trkpt lat="46.31672" lon="-1.06025">
        <ele>2.4</ele>
        <time>2020-06-02T13:08:17Z</time>
      </trkpt>
      <trkpt lat="46.31672" lon="-1.06025">
        <ele>2.4</ele>
        <time>2020-06-02T13:08:18Z</time>
      </trkpt>
      <trkpt lat="46.31672" lon="-1.06024">
        <ele>2.4</ele>
        <time>2020-06-02T13:08:19Z</time>
      </trkpt>
      <trkpt lat="46.31672" lon="-1.06025">
        <ele>2.4</ele>
        <time>2020-06-02T13:08:20Z</time>
      </trkpt>
      <trkpt lat="46.31672" lon="-1.06024">
        <ele>2.4</ele>
        <time>2020-06-02T13:08:21Z</time>
      </trkpt>
      <trkpt lat="46.31672" lon="-1.06024">
        <ele>2.4</ele>
        <time>2020-06-02T13:08:22Z</time>
      </trkpt>
      <trkpt lat="46.31672" lon="-1.06024">
        <ele>2.4</ele>
        <time>2020-06-02T13:08:23Z</time>
      </trkpt>
      <trkpt lat="46.31672" lon="-1.06024">
        <ele>2.4</ele>
        <time>2020-06-02T13:08:24Z</time>
      </trkpt>
      <trkpt lat="46.31672" lon="-1.06024">
        <ele>2.4</ele>
        <time>2020-06-02T13:08:25Z</time>
      </trkpt>
      <trkpt lat="46.31672" lon="-1.06024">
        <ele>2.4</ele>
        <time>2020-06-02T13:08:26Z</time>
      </trkpt>
      <trkpt lat="46.31672" lon="-1.06024">
        <ele>2.4</ele>
        <time>2020-06-02T13:08:27Z</time>
      </trkpt>
      <trkpt lat="46.31672" lon="-1.06024">
        <ele>2.4</ele>
        <time>2020-06-02T13:08:28Z</time>
      </trkpt>
      <trkpt lat="46.31672" lon="-1.06024">
        <ele>2.4</ele>
        <time>2020-06-02T13:08:29Z</time>
      </trkpt>
      <trkpt lat="46.31672" lon="-1.06024">
        <ele>2.4</ele>
        <time>2020-06-02T13:08:30Z</time>
      </trkpt>
      <trkpt lat="46.31672" lon="-1.06024">
        <ele>2.4</ele>
        <time>2020-06-02T13:08:31Z</time>
      </trkpt>
      <trkpt lat="46.31672" lon="-1.06024">
        <ele>2.4</ele>
        <time>2020-06-02T13:08:32Z</time>
      </trkpt>
      <trkpt lat="46.31672" lon="-1.06024">
        <ele>2.4</ele>
        <time>2020-06-02T13:08:33Z</time>
      </trkpt>
      <trkpt lat="46.31672" lon="-1.06024">
        <ele>2.4</ele>
        <time>2020-06-02T13:08:34Z</time>
      </trkpt>
      <trkpt lat="46.31672" lon="-1.06024">
        <ele>2.4</ele>
        <time>2020-06-02T13:08:35Z</time>
      </trkpt>
      <trkpt lat="46.31672" lon="-1.06024">
        <ele>2.4</ele>
        <time>2020-06-02T13:08:36Z</time>
      </trkpt>
      <trkpt lat="46.31672" lon="-1.06025">
        <ele>2.4</ele>
        <time>2020-06-02T13:08:37Z</time>
      </trkpt>
      <trkpt lat="46.31672" lon="-1.06025">
        <ele>2.4</ele>
        <time>2020-06-02T13:08:38Z</time>
      </trkpt>
      <trkpt lat="46.31672" lon="-1.06025">
        <ele>2.4</ele>
        <time>2020-06-02T13:08:39Z</time>
      </trkpt>
      <trkpt lat="46.31672" lon="-1.06025">
        <ele>2.4</ele>
        <time>2020-06-02T13:08:40Z</time>
      </trkpt>
      <trkpt lat="46.31672" lon="-1.06025">
        <ele>2.4</ele>
        <time>2020-06-02T13:08:41Z</time>
      </trkpt>
      <trkpt lat="46.31672" lon="-1.06025">
        <ele>2.4</ele>
        <time>2020-06-02T13:08:42Z</time>
      </trkpt>
      <trkpt lat="46.31672" lon="-1.06025">
        <ele>2.4</ele>
        <time>2020-06-02T13:08:43Z</time>
      </trkpt>
      <trkpt lat="46.31672" lon="-1.06025">
        <ele>2.4</ele>
        <time>2020-06-02T13:08:44Z</time>
      </trkpt>
      <trkpt lat="46.31672" lon="-1.06025">
        <ele>2.4</ele>
        <time>2020-06-02T13:08:45Z</time>
      </trkpt>
      <trkpt lat="46.31672" lon="-1.06025">
        <ele>2.4</ele>
        <time>2020-06-02T13:08:46Z</time>
      </trkpt>
      <trkpt lat="46.31672" lon="-1.06025">
        <ele>2.4</ele>
        <time>2020-06-02T13:08:47Z</time>
      </trkpt>
      <trkpt lat="46.31672" lon="-1.06025">
        <ele>2.4</ele>
        <time>2020-06-02T13:08:48Z</time>
      </trkpt>
      <trkpt lat="46.31672" lon="-1.06024">
        <ele>2.4</ele>
        <time>2020-06-02T13:08:49Z</time>
      </trkpt>
      <trkpt lat="46.31672" lon="-1.06024">
        <ele>2.4</ele>
        <time>2020-06-02T13:08:50Z</time>
      </trkpt>
      <trkpt lat="46.31672" lon="-1.06024">
        <ele>2.4</ele>
        <time>2020-06-02T13:08:51Z</time>
      </trkpt>
      <trkpt lat="46.31673" lon="-1.06024">
        <ele>2.4</ele>
        <time>2020-06-02T13:08:52Z</time>
      </trkpt>
      <trkpt lat="46.31673" lon="-1.06024">
        <ele>2.4</ele>
        <time>2020-06-02T13:08:53Z</time>
      </trkpt>
      <trkpt lat="46.31673" lon="-1.06024">
        <ele>2.4</ele>
        <time>2020-06-02T13:08:54Z</time>
      </trkpt>
      <trkpt lat="46.31673" lon="-1.06024">
        <ele>2.4</ele>
        <time>2020-06-02T13:08:55Z</time>
      </trkpt>
      <trkpt lat="46.31673" lon="-1.06024">
        <ele>2.4</ele>
        <time>2020-06-02T13:08:56Z</time>
      </trkpt>
      <trkpt lat="46.31673" lon="-1.06023">
        <ele>2.4</ele>
        <time>2020-06-02T13:08:57Z</time>
      </trkpt>
      <trkpt lat="46.31673" lon="-1.06023">
        <ele>2.4</ele>
        <time>2020-06-02T13:08:58Z</time>
      </trkpt>
      <trkpt lat="46.31673" lon="-1.06024">
        <ele>2.4</ele>
        <time>2020-06-02T13:08:59Z</time>
      </trkpt>
      <trkpt lat="46.31674" lon="-1.06027">
        <ele>2.4</ele>
        <time>2020-06-02T13:09:00Z</time>
      </trkpt>
      <trkpt lat="46.31674" lon="-1.06029">
        <ele>2.4</ele>
        <time>2020-06-02T13:09:01Z</time>
      </trkpt>
      <trkpt lat="46.31674" lon="-1.06031">
        <ele>2.4</ele>
        <time>2020-06-02T13:09:02Z</time>
      </trkpt>
      <trkpt lat="46.31675" lon="-1.06036">
        <ele>2.4</ele>
        <time>2020-06-02T13:09:03Z</time>
      </trkpt>
      <trkpt lat="46.31675" lon="-1.06037">
        <ele>2.4</ele>
        <time>2020-06-02T13:09:04Z</time>
      </trkpt>
      <trkpt lat="46.31675" lon="-1.06041">
        <ele>2.4</ele>
        <time>2020-06-02T13:09:05Z</time>
      </trkpt>
      <trkpt lat="46.31676" lon="-1.06046">
        <ele>2.5</ele>
        <time>2020-06-02T13:09:06Z</time>
      </trkpt>
      <trkpt lat="46.31676" lon="-1.06053">
        <ele>2.5</ele>
        <time>2020-06-02T13:09:07Z</time>
      </trkpt>
      <trkpt lat="46.31677" lon="-1.0606">
        <ele>2.5</ele>
        <time>2020-06-02T13:09:08Z</time>
      </trkpt>
      <trkpt lat="46.31677" lon="-1.06066">
        <ele>2.5</ele>
        <time>2020-06-02T13:09:09Z</time>
      </trkpt>
      <trkpt lat="46.31677" lon="-1.06073">
        <ele>2.5</ele>
        <time>2020-06-02T13:09:10Z</time>
      </trkpt>
      <trkpt lat="46.31678" lon="-1.06079">
        <ele>2.5</ele>
        <time>2020-06-02T13:09:11Z</time>
      </trkpt>
      <trkpt lat="46.31679" lon="-1.06085">
        <ele>2.5</ele>
        <time>2020-06-02T13:09:12Z</time>
      </trkpt>
      <trkpt lat="46.3168" lon="-1.0609">
        <ele>2.5</ele>
        <time>2020-06-02T13:09:13Z</time>
      </trkpt>
      <trkpt lat="46.31681" lon="-1.06096">
        <ele>2.5</ele>
        <time>2020-06-02T13:09:14Z</time>
      </trkpt>
      <trkpt lat="46.31681" lon="-1.06102">
        <ele>2.5</ele>
        <time>2020-06-02T13:09:15Z</time>
      </trkpt>
      <trkpt lat="46.31682" lon="-1.06108">
        <ele>2.5</ele>
        <time>2020-06-02T13:09:16Z</time>
      </trkpt>
      <trkpt lat="46.31683" lon="-1.06114">
        <ele>2.5</ele>
        <time>2020-06-02T13:09:17Z</time>
      </trkpt>
      <trkpt lat="46.31683" lon="-1.0612">
        <ele>2.5</ele>
        <time>2020-06-02T13:09:18Z</time>
      </trkpt>
      <trkpt lat="46.31683" lon="-1.06126">
        <ele>2.5</ele>
        <time>2020-06-02T13:09:19Z</time>
      </trkpt>
      <trkpt lat="46.31682" lon="-1.06133">
        <ele>2.5</ele>
        <time>2020-06-02T13:09:20Z</time>
      </trkpt>
      <trkpt lat="46.31682" lon="-1.0614">
        <ele>2.5</ele>
        <time>2020-06-02T13:09:21Z</time>
      </trkpt>
      <trkpt lat="46.31683" lon="-1.06145">
        <ele>2.5</ele>
        <time>2020-06-02T13:09:22Z</time>
      </trkpt>
      <trkpt lat="46.31683" lon="-1.06151">
        <ele>2.6</ele>
        <time>2020-06-02T13:09:23Z</time>
      </trkpt>
      <trkpt lat="46.31684" lon="-1.06157">
        <ele>2.6</ele>
        <time>2020-06-02T13:09:24Z</time>
      </trkpt>
      <trkpt lat="46.31684" lon="-1.06163">
        <ele>2.6</ele>
        <time>2020-06-02T13:09:25Z</time>
      </trkpt>
      <trkpt lat="46.31684" lon="-1.06169">
        <ele>2.6</ele>
        <time>2020-06-02T13:09:26Z</time>
      </trkpt>
      <trkpt lat="46.31683" lon="-1.06175">
        <ele>2.6</ele>
        <time>2020-06-02T13:09:27Z</time>
      </trkpt>
      <trkpt lat="46.31683" lon="-1.06181">
        <ele>2.6</ele>
        <time>2020-06-02T13:09:28Z</time>
      </trkpt>
      <trkpt lat="46.31683" lon="-1.06187">
        <ele>2.6</ele>
        <time>2020-06-02T13:09:29Z</time>
      </trkpt>
      <trkpt lat="46.31683" lon="-1.06193">
        <ele>2.6</ele>
        <time>2020-06-02T13:09:30Z</time>
      </trkpt>
      <trkpt lat="46.31683" lon="-1.06199">
        <ele>2.6</ele>
        <time>2020-06-02T13:09:31Z</time>
      </trkpt>
      <trkpt lat="46.31683" lon="-1.06205">
        <ele>2.6</ele>
        <time>2020-06-02T13:09:32Z</time>
      </trkpt>
      <trkpt lat="46.31684" lon="-1.06211">
        <ele>2.6</ele>
        <time>2020-06-02T13:09:33Z</time>
      </trkpt>
      <trkpt lat="46.31685" lon="-1.06217">
        <ele>2.6</ele>
        <time>2020-06-02T13:09:34Z</time>
      </trkpt>
      <trkpt lat="46.31686" lon="-1.06223">
        <ele>2.6</ele>
        <time>2020-06-02T13:09:35Z</time>
      </trkpt>
      <trkpt lat="46.31686" lon="-1.06229">
        <ele>2.6</ele>
        <time>2020-06-02T13:09:36Z</time>
      </trkpt>
      <trkpt lat="46.31686" lon="-1.06235">
        <ele>2.6</ele>
        <time>2020-06-02T13:09:37Z</time>
      </trkpt>
      <trkpt lat="46.31686" lon="-1.06241">
        <ele>2.6</ele>
        <time>2020-06-02T13:09:38Z</time>
      </trkpt>
      <trkpt lat="46.31686" lon="-1.06247">
        <ele>2.6</ele>
        <time>2020-06-02T13:09:39Z</time>
      </trkpt>
      <trkpt lat="46.31686" lon="-1.06254">
        <ele>2.6</ele>
        <time>2020-06-02T13:09:40Z</time>
      </trkpt>
      <trkpt lat="46.31686" lon="-1.0626">
        <ele>2.6</ele>
        <time>2020-06-02T13:09:41Z</time>
      </trkpt>
      <trkpt lat="46.31686" lon="-1.06266">
        <ele>2.6</ele>
        <time>2020-06-02T13:09:42Z</time>
      </trkpt>
      <trkpt lat="46.31687" lon="-1.06271">
        <ele>2.6</ele>
        <time>2020-06-02T13:09:43Z</time>
      </trkpt>
      <trkpt lat="46.31688" lon="-1.06276">
        <ele>2.6</ele>
        <time>2020-06-02T13:09:44Z</time>
      </trkpt>
      <trkpt lat="46.31688" lon="-1.06282">
        <ele>2.6</ele>
        <time>2020-06-02T13:09:45Z</time>
      </trkpt>
      <trkpt lat="46.31688" lon="-1.06289">
        <ele>2.6</ele>
        <time>2020-06-02T13:09:46Z</time>
      </trkpt>
      <trkpt lat="46.31689" lon="-1.06296">
        <ele>2.6</ele>
        <time>2020-06-02T13:09:47Z</time>
      </trkpt>
      <trkpt lat="46.31689" lon="-1.06302">
        <ele>2.6</ele>
        <time>2020-06-02T13:09:48Z</time>
      </trkpt>
      <trkpt lat="46.31689" lon="-1.06309">
        <ele>2.6</ele>
        <time>2020-06-02T13:09:49Z</time>
      </trkpt>
      <trkpt lat="46.3169" lon="-1.06315">
        <ele>2.6</ele>
        <time>2020-06-02T13:09:50Z</time>
      </trkpt>
      <trkpt lat="46.31691" lon="-1.06322">
        <ele>2.5</ele>
        <time>2020-06-02T13:09:51Z</time>
      </trkpt>
      <trkpt lat="46.31692" lon="-1.06328">
        <ele>2.5</ele>
        <time>2020-06-02T13:09:52Z</time>
      </trkpt>
      <trkpt lat="46.31692" lon="-1.06334">
        <ele>2.5</ele>
        <time>2020-06-02T13:09:53Z</time>
      </trkpt>
      <trkpt lat="46.31693" lon="-1.06341">
        <ele>2.5</ele>
        <time>2020-06-02T13:09:54Z</time>
      </trkpt>
      <trkpt lat="46.31693" lon="-1.06346">
        <ele>2.5</ele>
        <time>2020-06-02T13:09:55Z</time>
      </trkpt>
      <trkpt lat="46.31692" lon="-1.06353">
        <ele>2.5</ele>
        <time>2020-06-02T13:09:56Z</time>
      </trkpt>
      <trkpt lat="46.31692" lon="-1.0636">
        <ele>2.5</ele>
        <time>2020-06-02T13:09:57Z</time>
      </trkpt>
      <trkpt lat="46.31693" lon="-1.06367">
        <ele>2.5</ele>
        <time>2020-06-02T13:09:58Z</time>
      </trkpt>
      <trkpt lat="46.31693" lon="-1.06374">
        <ele>2.5</ele>
        <time>2020-06-02T13:09:59Z</time>
      </trkpt>
      <trkpt lat="46.31693" lon="-1.06382">
        <ele>2.5</ele>
        <time>2020-06-02T13:10:00Z</time>
      </trkpt>
      <trkpt lat="46.31693" lon="-1.06389">
        <ele>2.5</ele>
        <time>2020-06-02T13:10:01Z</time>
      </trkpt>
      <trkpt lat="46.31693" lon="-1.06396">
        <ele>2.5</ele>
        <time>2020-06-02T13:10:02Z</time>
      </trkpt>
      <trkpt lat="46.31694" lon="-1.06404">
        <ele>2.5</ele>
        <time>2020-06-02T13:10:03Z</time>
      </trkpt>
      <trkpt lat="46.31694" lon="-1.06411">
        <ele>2.5</ele>
        <time>2020-06-02T13:10:04Z</time>
      </trkpt>
      <trkpt lat="46.31695" lon="-1.06416">
        <ele>2.5</ele>
        <time>2020-06-02T13:10:05Z</time>
      </trkpt>
      <trkpt lat="46.31695" lon="-1.06423">
        <ele>2.5</ele>
        <time>2020-06-02T13:10:06Z</time>
      </trkpt>
      <trkpt lat="46.31695" lon="-1.0643">
        <ele>2.5</ele>
        <time>2020-06-02T13:10:07Z</time>
      </trkpt>
      <trkpt lat="46.31696" lon="-1.06435">
        <ele>2.5</ele>
        <time>2020-06-02T13:10:08Z</time>
      </trkpt>
      <trkpt lat="46.31697" lon="-1.06441">
        <ele>2.5</ele>
        <time>2020-06-02T13:10:09Z</time>
      </trkpt>
      <trkpt lat="46.31697" lon="-1.06448">
        <ele>2.5</ele>
        <time>2020-06-02T13:10:10Z</time>
      </trkpt>
      <trkpt lat="46.31698" lon="-1.06454">
        <ele>2.5</ele>
        <time>2020-06-02T13:10:11Z</time>
      </trkpt>
      <trkpt lat="46.31699" lon="-1.06461">
        <ele>2.5</ele>
        <time>2020-06-02T13:10:12Z</time>
      </trkpt>
      <trkpt lat="46.31699" lon="-1.06467">
        <ele>2.5</ele>
        <time>2020-06-02T13:10:13Z</time>
      </trkpt>
      <trkpt lat="46.317" lon="-1.06474">
        <ele>2.5</ele>
        <time>2020-06-02T13:10:14Z</time>
      </trkpt>
      <trkpt lat="46.31701" lon="-1.0648">
        <ele>2.5</ele>
        <time>2020-06-02T13:10:15Z</time>
      </trkpt>
      <trkpt lat="46.31702" lon="-1.06487">
        <ele>2.5</ele>
        <time>2020-06-02T13:10:16Z</time>
      </trkpt>
      <trkpt lat="46.31703" lon="-1.06493">
        <ele>2.5</ele>
        <time>2020-06-02T13:10:17Z</time>
      </trkpt>
      <trkpt lat="46.31703" lon="-1.06499">
        <ele>2.5</ele>
        <time>2020-06-02T13:10:18Z</time>
      </trkpt>
      <trkpt lat="46.31704" lon="-1.06505">
        <ele>2.5</ele>
        <time>2020-06-02T13:10:19Z</time>
      </trkpt>
      <trkpt lat="46.31704" lon="-1.06513">
        <ele>2.5</ele>
        <time>2020-06-02T13:10:20Z</time>
      </trkpt>
      <trkpt lat="46.31704" lon="-1.0652">
        <ele>2.5</ele>
        <time>2020-06-02T13:10:21Z</time>
      </trkpt>
      <trkpt lat="46.31705" lon="-1.06528">
        <ele>2.6</ele>
        <time>2020-06-02T13:10:22Z</time>
      </trkpt>
      <trkpt lat="46.31705" lon="-1.06535">
        <ele>2.6</ele>
        <time>2020-06-02T13:10:23Z</time>
      </trkpt>
      <trkpt lat="46.31706" lon="-1.06542">
        <ele>2.6</ele>
        <time>2020-06-02T13:10:24Z</time>
      </trkpt>
      <trkpt lat="46.31706" lon="-1.06549">
        <ele>2.6</ele>
        <time>2020-06-02T13:10:25Z</time>
      </trkpt>
      <trkpt lat="46.31707" lon="-1.06555">
        <ele>2.6</ele>
        <time>2020-06-02T13:10:26Z</time>
      </trkpt>
      <trkpt lat="46.31707" lon="-1.06562">
        <ele>2.6</ele>
        <time>2020-06-02T13:10:27Z</time>
      </trkpt>
      <trkpt lat="46.31707" lon="-1.06567">
        <ele>2.7</ele>
        <time>2020-06-02T13:10:28Z</time>
      </trkpt>
      <trkpt lat="46.31708" lon="-1.06573">
        <ele>2.7</ele>
        <time>2020-06-02T13:10:29Z</time>
      </trkpt>
      <trkpt lat="46.31708" lon="-1.06579">
        <ele>2.7</ele>
        <time>2020-06-02T13:10:30Z</time>
      </trkpt>
      <trkpt lat="46.31709" lon="-1.06586">
        <ele>2.7</ele>
        <time>2020-06-02T13:10:31Z</time>
      </trkpt>
      <trkpt lat="46.31708" lon="-1.06593">
        <ele>2.7</ele>
        <time>2020-06-02T13:10:32Z</time>
      </trkpt>
      <trkpt lat="46.31708" lon="-1.066">
        <ele>2.8</ele>
        <time>2020-06-02T13:10:33Z</time>
      </trkpt>
      <trkpt lat="46.31709" lon="-1.06608">
        <ele>2.8</ele>
        <time>2020-06-02T13:10:34Z</time>
      </trkpt>
      <trkpt lat="46.31709" lon="-1.06614">
        <ele>2.8</ele>
        <time>2020-06-02T13:10:35Z</time>
      </trkpt>
      <trkpt lat="46.3171" lon="-1.06621">
        <ele>2.8</ele>
        <time>2020-06-02T13:10:36Z</time>
      </trkpt>
      <trkpt lat="46.31709" lon="-1.06628">
        <ele>2.8</ele>
        <time>2020-06-02T13:10:37Z</time>
      </trkpt>
      <trkpt lat="46.3171" lon="-1.06634">
        <ele>2.7</ele>
        <time>2020-06-02T13:10:38Z</time>
      </trkpt>
      <trkpt lat="46.3171" lon="-1.0664">
        <ele>2.7</ele>
        <time>2020-06-02T13:10:39Z</time>
      </trkpt>
      <trkpt lat="46.31711" lon="-1.06646">
        <ele>2.7</ele>
        <time>2020-06-02T13:10:40Z</time>
      </trkpt>
      <trkpt lat="46.31711" lon="-1.06651">
        <ele>2.7</ele>
        <time>2020-06-02T13:10:41Z</time>
      </trkpt>
      <trkpt lat="46.31711" lon="-1.06658">
        <ele>2.7</ele>
        <time>2020-06-02T13:10:42Z</time>
      </trkpt>
      <trkpt lat="46.31712" lon="-1.06664">
        <ele>2.7</ele>
        <time>2020-06-02T13:10:43Z</time>
      </trkpt>
      <trkpt lat="46.31712" lon="-1.06671">
        <ele>2.7</ele>
        <time>2020-06-02T13:10:44Z</time>
      </trkpt>
      <trkpt lat="46.31712" lon="-1.06678">
        <ele>2.7</ele>
        <time>2020-06-02T13:10:45Z</time>
      </trkpt>
      <trkpt lat="46.31712" lon="-1.06684">
        <ele>2.7</ele>
        <time>2020-06-02T13:10:46Z</time>
      </trkpt>
      <trkpt lat="46.31712" lon="-1.06691">
        <ele>2.7</ele>
        <time>2020-06-02T13:10:47Z</time>
      </trkpt>
      <trkpt lat="46.31711" lon="-1.06695">
        <ele>2.7</ele>
        <time>2020-06-02T13:10:48Z</time>
      </trkpt>
      <trkpt lat="46.31711" lon="-1.06702">
        <ele>2.7</ele>
        <time>2020-06-02T13:10:49Z</time>
      </trkpt>
      <trkpt lat="46.31711" lon="-1.06709">
        <ele>2.7</ele>
        <time>2020-06-02T13:10:50Z</time>
      </trkpt>
      <trkpt lat="46.31711" lon="-1.06715">
        <ele>2.7</ele>
        <time>2020-06-02T13:10:51Z</time>
      </trkpt>
      <trkpt lat="46.31712" lon="-1.06722">
        <ele>2.6</ele>
        <time>2020-06-02T13:10:52Z</time>
      </trkpt>
      <trkpt lat="46.31712" lon="-1.06728">
        <ele>2.6</ele>
        <time>2020-06-02T13:10:53Z</time>
      </trkpt>
      <trkpt lat="46.31713" lon="-1.06734">
        <ele>2.6</ele>
        <time>2020-06-02T13:10:54Z</time>
      </trkpt>
      <trkpt lat="46.31714" lon="-1.0674">
        <ele>2.6</ele>
        <time>2020-06-02T13:10:55Z</time>
      </trkpt>
      <trkpt lat="46.31715" lon="-1.06746">
        <ele>2.6</ele>
        <time>2020-06-02T13:10:56Z</time>
      </trkpt>
      <trkpt lat="46.31716" lon="-1.06753">
        <ele>2.6</ele>
        <time>2020-06-02T13:10:57Z</time>
      </trkpt>
      <trkpt lat="46.31715" lon="-1.0676">
        <ele>2.6</ele>
        <time>2020-06-02T13:10:58Z</time>
      </trkpt>
      <trkpt lat="46.31715" lon="-1.06767">
        <ele>2.6</ele>
        <time>2020-06-02T13:10:59Z</time>
      </trkpt>
      <trkpt lat="46.31716" lon="-1.06772">
        <ele>2.7</ele>
        <time>2020-06-02T13:11:00Z</time>
      </trkpt>
      <trkpt lat="46.31717" lon="-1.06778">
        <ele>2.7</ele>
        <time>2020-06-02T13:11:01Z</time>
      </trkpt>
      <trkpt lat="46.31718" lon="-1.06784">
        <ele>2.7</ele>
        <time>2020-06-02T13:11:02Z</time>
      </trkpt>
      <trkpt lat="46.31719" lon="-1.0679">
        <ele>2.7</ele>
        <time>2020-06-02T13:11:03Z</time>
      </trkpt>
      <trkpt lat="46.3172" lon="-1.06797">
        <ele>2.8</ele>
        <time>2020-06-02T13:11:04Z</time>
      </trkpt>
      <trkpt lat="46.31719" lon="-1.06804">
        <ele>2.8</ele>
        <time>2020-06-02T13:11:05Z</time>
      </trkpt>
      <trkpt lat="46.3172" lon="-1.06811">
        <ele>2.8</ele>
        <time>2020-06-02T13:11:06Z</time>
      </trkpt>
      <trkpt lat="46.3172" lon="-1.06818">
        <ele>2.8</ele>
        <time>2020-06-02T13:11:07Z</time>
      </trkpt>
      <trkpt lat="46.31721" lon="-1.06823">
        <ele>2.8</ele>
        <time>2020-06-02T13:11:08Z</time>
      </trkpt>
      <trkpt lat="46.31721" lon="-1.06829">
        <ele>2.9</ele>
        <time>2020-06-02T13:11:09Z</time>
      </trkpt>
      <trkpt lat="46.31722" lon="-1.06834">
        <ele>2.9</ele>
        <time>2020-06-02T13:11:10Z</time>
      </trkpt>
      <trkpt lat="46.31723" lon="-1.0684">
        <ele>2.9</ele>
        <time>2020-06-02T13:11:11Z</time>
      </trkpt>
      <trkpt lat="46.31724" lon="-1.06846">
        <ele>2.9</ele>
        <time>2020-06-02T13:11:12Z</time>
      </trkpt>
      <trkpt lat="46.31725" lon="-1.06851">
        <ele>2.9</ele>
        <time>2020-06-02T13:11:13Z</time>
      </trkpt>
      <trkpt lat="46.31726" lon="-1.06855">
        <ele>2.9</ele>
        <time>2020-06-02T13:11:14Z</time>
      </trkpt>
      <trkpt lat="46.31726" lon="-1.06861">
        <ele>2.9</ele>
        <time>2020-06-02T13:11:15Z</time>
      </trkpt>
      <trkpt lat="46.31726" lon="-1.06867">
        <ele>2.9</ele>
        <time>2020-06-02T13:11:16Z</time>
      </trkpt>
      <trkpt lat="46.31726" lon="-1.06873">
        <ele>2.9</ele>
        <time>2020-06-02T13:11:17Z</time>
      </trkpt>
      <trkpt lat="46.31727" lon="-1.06879">
        <ele>2.9</ele>
        <time>2020-06-02T13:11:18Z</time>
      </trkpt>
      <trkpt lat="46.31728" lon="-1.06884">
        <ele>2.9</ele>
        <time>2020-06-02T13:11:19Z</time>
      </trkpt>
      <trkpt lat="46.31728" lon="-1.06886">
        <ele>2.9</ele>
        <time>2020-06-02T13:11:20Z</time>
      </trkpt>
      <trkpt lat="46.31728" lon="-1.06891">
        <ele>2.9</ele>
        <time>2020-06-02T13:11:21Z</time>
      </trkpt>
      <trkpt lat="46.31728" lon="-1.06893">
        <ele>2.9</ele>
        <time>2020-06-02T13:11:22Z</time>
      </trkpt>
      <trkpt lat="46.31728" lon="-1.06897">
        <ele>2.9</ele>
        <time>2020-06-02T13:11:23Z</time>
      </trkpt>
      <trkpt lat="46.31728" lon="-1.06901">
        <ele>2.9</ele>
        <time>2020-06-02T13:11:24Z</time>
      </trkpt>
      <trkpt lat="46.31728" lon="-1.06908">
        <ele>2.9</ele>
        <time>2020-06-02T13:11:25Z</time>
      </trkpt>
      <trkpt lat="46.31728" lon="-1.06914">
        <ele>2.9</ele>
        <time>2020-06-02T13:11:26Z</time>
      </trkpt>
      <trkpt lat="46.31728" lon="-1.0692">
        <ele>2.8</ele>
        <time>2020-06-02T13:11:27Z</time>
      </trkpt>
      <trkpt lat="46.31728" lon="-1.06927">
        <ele>2.8</ele>
        <time>2020-06-02T13:11:28Z</time>
      </trkpt>
      <trkpt lat="46.31727" lon="-1.06932">
        <ele>2.8</ele>
        <time>2020-06-02T13:11:29Z</time>
      </trkpt>
      <trkpt lat="46.31725" lon="-1.06936">
        <ele>2.8</ele>
        <time>2020-06-02T13:11:30Z</time>
      </trkpt>
      <trkpt lat="46.31724" lon="-1.06942">
        <ele>2.8</ele>
        <time>2020-06-02T13:11:31Z</time>
      </trkpt>
      <trkpt lat="46.31723" lon="-1.06948">
        <ele>2.8</ele>
        <time>2020-06-02T13:11:32Z</time>
      </trkpt>
      <trkpt lat="46.31721" lon="-1.06954">
        <ele>2.8</ele>
        <time>2020-06-02T13:11:33Z</time>
      </trkpt>
      <trkpt lat="46.3172" lon="-1.06961">
        <ele>2.8</ele>
        <time>2020-06-02T13:11:34Z</time>
      </trkpt>
      <trkpt lat="46.31719" lon="-1.06967">
        <ele>2.8</ele>
        <time>2020-06-02T13:11:35Z</time>
      </trkpt>
      <trkpt lat="46.31718" lon="-1.06973">
        <ele>2.8</ele>
        <time>2020-06-02T13:11:36Z</time>
      </trkpt>
      <trkpt lat="46.31719" lon="-1.06978">
        <ele>2.8</ele>
        <time>2020-06-02T13:11:37Z</time>
      </trkpt>
      <trkpt lat="46.3172" lon="-1.06984">
        <ele>2.8</ele>
        <time>2020-06-02T13:11:38Z</time>
      </trkpt>
      <trkpt lat="46.3172" lon="-1.06989">
        <ele>2.8</ele>
        <time>2020-06-02T13:11:39Z</time>
      </trkpt>
      <trkpt lat="46.31721" lon="-1.06995">
        <ele>2.8</ele>
        <time>2020-06-02T13:11:40Z</time>
      </trkpt>
      <trkpt lat="46.31721" lon="-1.07002">
        <ele>2.8</ele>
        <time>2020-06-02T13:11:41Z</time>
      </trkpt>
      <trkpt lat="46.31721" lon="-1.07008">
        <ele>2.8</ele>
        <time>2020-06-02T13:11:42Z</time>
      </trkpt>
      <trkpt lat="46.31721" lon="-1.07013">
        <ele>2.9</ele>
        <time>2020-06-02T13:11:43Z</time>
      </trkpt>
      <trkpt lat="46.31721" lon="-1.0702">
        <ele>2.9</ele>
        <time>2020-06-02T13:11:44Z</time>
      </trkpt>
      <trkpt lat="46.31722" lon="-1.07025">
        <ele>2.9</ele>
        <time>2020-06-02T13:11:45Z</time>
      </trkpt>
      <trkpt lat="46.31723" lon="-1.07031">
        <ele>2.9</ele>
        <time>2020-06-02T13:11:46Z</time>
      </trkpt>
      <trkpt lat="46.31724" lon="-1.07037">
        <ele>3</ele>
        <time>2020-06-02T13:11:47Z</time>
      </trkpt>
      <trkpt lat="46.31725" lon="-1.07044">
        <ele>3</ele>
        <time>2020-06-02T13:11:48Z</time>
      </trkpt>
      <trkpt lat="46.31725" lon="-1.0705">
        <ele>3</ele>
        <time>2020-06-02T13:11:49Z</time>
      </trkpt>
      <trkpt lat="46.31726" lon="-1.07057">
        <ele>3</ele>
        <time>2020-06-02T13:11:50Z</time>
      </trkpt>
      <trkpt lat="46.31727" lon="-1.07064">
        <ele>3.1</ele>
        <time>2020-06-02T13:11:51Z</time>
      </trkpt>
      <trkpt lat="46.31728" lon="-1.07071">
        <ele>3.1</ele>
        <time>2020-06-02T13:11:52Z</time>
      </trkpt>
      <trkpt lat="46.31728" lon="-1.07078">
        <ele>3.1</ele>
        <time>2020-06-02T13:11:53Z</time>
      </trkpt>
      <trkpt lat="46.31729" lon="-1.07084">
        <ele>3.1</ele>
        <time>2020-06-02T13:11:54Z</time>
      </trkpt>
      <trkpt lat="46.31729" lon="-1.07091">
        <ele>3.1</ele>
        <time>2020-06-02T13:11:55Z</time>
      </trkpt>
      <trkpt lat="46.3173" lon="-1.07097">
        <ele>3.2</ele>
        <time>2020-06-02T13:11:56Z</time>
      </trkpt>
      <trkpt lat="46.31731" lon="-1.07104">
        <ele>3.2</ele>
        <time>2020-06-02T13:11:57Z</time>
      </trkpt>
      <trkpt lat="46.31732" lon="-1.0711">
        <ele>3.2</ele>
        <time>2020-06-02T13:11:58Z</time>
      </trkpt>
      <trkpt lat="46.31732" lon="-1.07115">
        <ele>3.2</ele>
        <time>2020-06-02T13:11:59Z</time>
      </trkpt>
      <trkpt lat="46.31732" lon="-1.07122">
        <ele>3.2</ele>
        <time>2020-06-02T13:12:00Z</time>
      </trkpt>
      <trkpt lat="46.31733" lon="-1.07127">
        <ele>3.3</ele>
        <time>2020-06-02T13:12:01Z</time>
      </trkpt>
      <trkpt lat="46.31733" lon="-1.07133">
        <ele>3.3</ele>
        <time>2020-06-02T13:12:02Z</time>
      </trkpt>
      <trkpt lat="46.31733" lon="-1.07137">
        <ele>3.3</ele>
        <time>2020-06-02T13:12:03Z</time>
      </trkpt>
      <trkpt lat="46.31733" lon="-1.07142">
        <ele>3.3</ele>
        <time>2020-06-02T13:12:04Z</time>
      </trkpt>
      <trkpt lat="46.31732" lon="-1.07144">
        <ele>3.3</ele>
        <time>2020-06-02T13:12:05Z</time>
      </trkpt>
      <trkpt lat="46.31731" lon="-1.07148">
        <ele>3.3</ele>
        <time>2020-06-02T13:12:06Z</time>
      </trkpt>
      <trkpt lat="46.3173" lon="-1.07149">
        <ele>3.3</ele>
        <time>2020-06-02T13:12:07Z</time>
      </trkpt>
      <trkpt lat="46.3173" lon="-1.0715">
        <ele>3.3</ele>
        <time>2020-06-02T13:12:08Z</time>
      </trkpt>
      <trkpt lat="46.31731" lon="-1.07152">
        <ele>3.3</ele>
        <time>2020-06-02T13:12:09Z</time>
      </trkpt>
      <trkpt lat="46.31732" lon="-1.07153">
        <ele>3.3</ele>
        <time>2020-06-02T13:12:10Z</time>
      </trkpt>
      <trkpt lat="46.31734" lon="-1.07155">
        <ele>3.3</ele>
        <time>2020-06-02T13:12:11Z</time>
      </trkpt>
      <trkpt lat="46.31736" lon="-1.07154">
        <ele>3.3</ele>
        <time>2020-06-02T13:12:12Z</time>
      </trkpt>
      <trkpt lat="46.31739" lon="-1.07154">
        <ele>3.3</ele>
        <time>2020-06-02T13:12:13Z</time>
      </trkpt>
      <trkpt lat="46.31743" lon="-1.07154">
        <ele>3.3</ele>
        <time>2020-06-02T13:12:14Z</time>
      </trkpt>
      <trkpt lat="46.31744" lon="-1.07153">
        <ele>3.3</ele>
        <time>2020-06-02T13:12:15Z</time>
      </trkpt>
      <trkpt lat="46.31747" lon="-1.07151">
        <ele>3.3</ele>
        <time>2020-06-02T13:12:16Z</time>
      </trkpt>
      <trkpt lat="46.3175" lon="-1.0715">
        <ele>3.3</ele>
        <time>2020-06-02T13:12:17Z</time>
      </trkpt>
      <trkpt lat="46.31753" lon="-1.07149">
        <ele>3.3</ele>
        <time>2020-06-02T13:12:18Z</time>
      </trkpt>
      <trkpt lat="46.31756" lon="-1.07149">
        <ele>3.3</ele>
        <time>2020-06-02T13:12:19Z</time>
      </trkpt>
      <trkpt lat="46.31759" lon="-1.07149">
        <ele>3.3</ele>
        <time>2020-06-02T13:12:20Z</time>
      </trkpt>
      <trkpt lat="46.31763" lon="-1.07149">
        <ele>3.3</ele>
        <time>2020-06-02T13:12:21Z</time>
      </trkpt>
      <trkpt lat="46.31766" lon="-1.07148">
        <ele>3.3</ele>
        <time>2020-06-02T13:12:22Z</time>
      </trkpt>
      <trkpt lat="46.31767" lon="-1.07148">
        <ele>3.3</ele>
        <time>2020-06-02T13:12:23Z</time>
      </trkpt>
      <trkpt lat="46.31769" lon="-1.07148">
        <ele>3.3</ele>
        <time>2020-06-02T13:12:24Z</time>
      </trkpt>
      <trkpt lat="46.31771" lon="-1.07148">
        <ele>3.3</ele>
        <time>2020-06-02T13:12:25Z</time>
      </trkpt>
      <trkpt lat="46.31772" lon="-1.07147">
        <ele>3.3</ele>
        <time>2020-06-02T13:12:26Z</time>
      </trkpt>
      <trkpt lat="46.31774" lon="-1.07147">
        <ele>3.3</ele>
        <time>2020-06-02T13:12:27Z</time>
      </trkpt>
      <trkpt lat="46.31775" lon="-1.07147">
        <ele>3.3</ele>
        <time>2020-06-02T13:12:28Z</time>
      </trkpt>
      <trkpt lat="46.31776" lon="-1.07146">
        <ele>3.3</ele>
        <time>2020-06-02T13:12:29Z</time>
      </trkpt>
      <trkpt lat="46.31777" lon="-1.07146">
        <ele>3.3</ele>
        <time>2020-06-02T13:12:30Z</time>
      </trkpt>
      <trkpt lat="46.31777" lon="-1.07145">
        <ele>3.3</ele>
        <time>2020-06-02T13:12:31Z</time>
      </trkpt>
      <trkpt lat="46.31777" lon="-1.07144">
        <ele>3.3</ele>
        <time>2020-06-02T13:12:32Z</time>
      </trkpt>
      <trkpt lat="46.31778" lon="-1.07144">
        <ele>3.3</ele>
        <time>2020-06-02T13:12:33Z</time>
      </trkpt>
      <trkpt lat="46.31777" lon="-1.07146">
        <ele>3.3</ele>
        <time>2020-06-02T13:12:34Z</time>
      </trkpt>
      <trkpt lat="46.31777" lon="-1.07145">
        <ele>3.3</ele>
        <time>2020-06-02T13:12:35Z</time>
      </trkpt>
      <trkpt lat="46.31776" lon="-1.07146">
        <ele>3.3</ele>
        <time>2020-06-02T13:12:36Z</time>
      </trkpt>
      <trkpt lat="46.31776" lon="-1.07145">
        <ele>3.3</ele>
        <time>2020-06-02T13:12:37Z</time>
      </trkpt>
      <trkpt lat="46.31775" lon="-1.07145">
        <ele>3.3</ele>
        <time>2020-06-02T13:12:38Z</time>
      </trkpt>
      <trkpt lat="46.31775" lon="-1.07146">
        <ele>3.3</ele>
        <time>2020-06-02T13:12:39Z</time>
      </trkpt>
      <trkpt lat="46.31775" lon="-1.07145">
        <ele>3.3</ele>
        <time>2020-06-02T13:12:40Z</time>
      </trkpt>
      <trkpt lat="46.31774" lon="-1.07146">
        <ele>3.3</ele>
        <time>2020-06-02T13:12:41Z</time>
      </trkpt>
      <trkpt lat="46.31775" lon="-1.07145">
        <ele>3.3</ele>
        <time>2020-06-02T13:12:42Z</time>
      </trkpt>
      <trkpt lat="46.31775" lon="-1.07145">
        <ele>3.3</ele>
        <time>2020-06-02T13:12:43Z</time>
      </trkpt>
      <trkpt lat="46.31774" lon="-1.07144">
        <ele>3.3</ele>
        <time>2020-06-02T13:12:44Z</time>
      </trkpt>
      <trkpt lat="46.31774" lon="-1.07144">
        <ele>3.3</ele>
        <time>2020-06-02T13:12:45Z</time>
      </trkpt>
      <trkpt lat="46.31775" lon="-1.07144">
        <ele>3.3</ele>
        <time>2020-06-02T13:12:46Z</time>
      </trkpt>
      <trkpt lat="46.31775" lon="-1.07145">
        <ele>3.3</ele>
        <time>2020-06-02T13:12:47Z</time>
      </trkpt>
      <trkpt lat="46.31776" lon="-1.07145">
        <ele>3.3</ele>
        <time>2020-06-02T13:12:48Z</time>
      </trkpt>
      <trkpt lat="46.31775" lon="-1.07145">
        <ele>3.3</ele>
        <time>2020-06-02T13:12:49Z</time>
      </trkpt>
      <trkpt lat="46.31775" lon="-1.07145">
        <ele>3.3</ele>
        <time>2020-06-02T13:12:50Z</time>
      </trkpt>
      <trkpt lat="46.31776" lon="-1.07146">
        <ele>3.3</ele>
        <time>2020-06-02T13:12:51Z</time>
      </trkpt>
      <trkpt lat="46.31776" lon="-1.07146">
        <ele>3.3</ele>
        <time>2020-06-02T13:12:52Z</time>
      </trkpt>
      <trkpt lat="46.31776" lon="-1.07145">
        <ele>3.3</ele>
        <time>2020-06-02T13:12:53Z</time>
      </trkpt>
      <trkpt lat="46.31776" lon="-1.07146">
        <ele>3.3</ele>
        <time>2020-06-02T13:12:54Z</time>
      </trkpt>
      <trkpt lat="46.31776" lon="-1.07146">
        <ele>3.3</ele>
        <time>2020-06-02T13:12:55Z</time>
      </trkpt>
      <trkpt lat="46.31776" lon="-1.07144">
        <ele>3.3</ele>
        <time>2020-06-02T13:12:56Z</time>
      </trkpt>
      <trkpt lat="46.31777" lon="-1.07145">
        <ele>3.3</ele>
        <time>2020-06-02T13:12:57Z</time>
      </trkpt>
      <trkpt lat="46.31777" lon="-1.07144">
        <ele>3.3</ele>
        <time>2020-06-02T13:12:58Z</time>
      </trkpt>
      <trkpt lat="46.31776" lon="-1.07144">
        <ele>3.3</ele>
        <time>2020-06-02T13:12:59Z</time>
      </trkpt>
      <trkpt lat="46.31776" lon="-1.07143">
        <ele>3.3</ele>
        <time>2020-06-02T13:13:00Z</time>
      </trkpt>
      <trkpt lat="46.31776" lon="-1.07143">
        <ele>3.3</ele>
        <time>2020-06-02T13:13:01Z</time>
      </trkpt>
      <trkpt lat="46.31776" lon="-1.07144">
        <ele>3.3</ele>
        <time>2020-06-02T13:13:02Z</time>
      </trkpt>
      <trkpt lat="46.31776" lon="-1.07145">
        <ele>3.3</ele>
        <time>2020-06-02T13:13:03Z</time>
      </trkpt>
      <trkpt lat="46.31775" lon="-1.07144">
        <ele>3.3</ele>
        <time>2020-06-02T13:13:04Z</time>
      </trkpt>
      <trkpt lat="46.31775" lon="-1.07144">
        <ele>3.3</ele>
        <time>2020-06-02T13:13:05Z</time>
      </trkpt>
      <trkpt lat="46.31775" lon="-1.07144">
        <ele>3.3</ele>
        <time>2020-06-02T13:13:06Z</time>
      </trkpt>
      <trkpt lat="46.31775" lon="-1.07143">
        <ele>3.3</ele>
        <time>2020-06-02T13:13:07Z</time>
      </trkpt>
      <trkpt lat="46.31774" lon="-1.07142">
        <ele>3.3</ele>
        <time>2020-06-02T13:13:08Z</time>
      </trkpt>
      <trkpt lat="46.31774" lon="-1.07142">
        <ele>3.3</ele>
        <time>2020-06-02T13:13:09Z</time>
      </trkpt>
      <trkpt lat="46.31774" lon="-1.07142">
        <ele>3.3</ele>
        <time>2020-06-02T13:13:10Z</time>
      </trkpt>
      <trkpt lat="46.31774" lon="-1.07142">
        <ele>3.3</ele>
        <time>2020-06-02T13:13:11Z</time>
      </trkpt>
      <trkpt lat="46.31774" lon="-1.07142">
        <ele>3.3</ele>
        <time>2020-06-02T13:13:12Z</time>
      </trkpt>
      <trkpt lat="46.31774" lon="-1.07142">
        <ele>3.3</ele>
        <time>2020-06-02T13:13:13Z</time>
      </trkpt>
      <trkpt lat="46.31774" lon="-1.07142">
        <ele>3.3</ele>
        <time>2020-06-02T13:13:14Z</time>
      </trkpt>
      <trkpt lat="46.31774" lon="-1.07142">
        <ele>3.3</ele>
        <time>2020-06-02T13:13:15Z</time>
      </trkpt>
      <trkpt lat="46.31774" lon="-1.07142">
        <ele>3.3</ele>
        <time>2020-06-02T13:13:16Z</time>
      </trkpt>
      <trkpt lat="46.31774" lon="-1.07142">
        <ele>3.3</ele>
        <time>2020-06-02T13:13:17Z</time>
      </trkpt>
      <trkpt lat="46.31774" lon="-1.07142">
        <ele>3.3</ele>
        <time>2020-06-02T13:13:18Z</time>
      </trkpt>
      <trkpt lat="46.31774" lon="-1.07142">
        <ele>3.3</ele>
        <time>2020-06-02T13:13:19Z</time>
      </trkpt>
      <trkpt lat="46.31773" lon="-1.07142">
        <ele>3.3</ele>
        <time>2020-06-02T13:13:20Z</time>
      </trkpt>
      <trkpt lat="46.31773" lon="-1.07142">
        <ele>3.3</ele>
        <time>2020-06-02T13:13:21Z</time>
      </trkpt>
      <trkpt lat="46.31773" lon="-1.07141">
        <ele>3.3</ele>
        <time>2020-06-02T13:13:22Z</time>
      </trkpt>
      <trkpt lat="46.31773" lon="-1.07141">
        <ele>3.3</ele>
        <time>2020-06-02T13:13:23Z</time>
      </trkpt>
      <trkpt lat="46.31773" lon="-1.07141">
        <ele>3.3</ele>
        <time>2020-06-02T13:13:24Z</time>
      </trkpt>
      <trkpt lat="46.31773" lon="-1.07141">
        <ele>3.3</ele>
        <time>2020-06-02T13:13:25Z</time>
      </trkpt>
      <trkpt lat="46.31773" lon="-1.07141">
        <ele>3.3</ele>
        <time>2020-06-02T13:13:26Z</time>
      </trkpt>
      <trkpt lat="46.31773" lon="-1.07141">
        <ele>3.3</ele>
        <time>2020-06-02T13:13:27Z</time>
      </trkpt>
      <trkpt lat="46.31773" lon="-1.07141">
        <ele>3.3</ele>
        <time>2020-06-02T13:13:28Z</time>
      </trkpt>
      <trkpt lat="46.31773" lon="-1.07141">
        <ele>3.3</ele>
        <time>2020-06-02T13:13:29Z</time>
      </trkpt>
      <trkpt lat="46.31773" lon="-1.07141">
        <ele>3.3</ele>
        <time>2020-06-02T13:13:30Z</time>
      </trkpt>
      <trkpt lat="46.31773" lon="-1.07141">
        <ele>3.3</ele>
        <time>2020-06-02T13:13:31Z</time>
      </trkpt>
      <trkpt lat="46.31773" lon="-1.07141">
        <ele>3.3</ele>
        <time>2020-06-02T13:13:32Z</time>
      </trkpt>
      <trkpt lat="46.31773" lon="-1.07141">
        <ele>3.3</ele>
        <time>2020-06-02T13:13:33Z</time>
      </trkpt>
      <trkpt lat="46.31773" lon="-1.07141">
        <ele>3.3</ele>
        <time>2020-06-02T13:13:34Z</time>
      </trkpt>
      <trkpt lat="46.31773" lon="-1.07141">
        <ele>3.3</ele>
        <time>2020-06-02T13:13:35Z</time>
      </trkpt>
      <trkpt lat="46.31773" lon="-1.07141">
        <ele>3.3</ele>
        <time>2020-06-02T13:13:36Z</time>
      </trkpt>
      <trkpt lat="46.31773" lon="-1.07141">
        <ele>3.3</ele>
        <time>2020-06-02T13:13:37Z</time>
      </trkpt>
      <trkpt lat="46.31773" lon="-1.0714">
        <ele>3.3</ele>
        <time>2020-06-02T13:13:38Z</time>
      </trkpt>
      <trkpt lat="46.31773" lon="-1.0714">
        <ele>3.3</ele>
        <time>2020-06-02T13:13:39Z</time>
      </trkpt>
      <trkpt lat="46.31773" lon="-1.0714">
        <ele>3.3</ele>
        <time>2020-06-02T13:13:40Z</time>
      </trkpt>
      <trkpt lat="46.31772" lon="-1.0714">
        <ele>3.3</ele>
        <time>2020-06-02T13:13:41Z</time>
      </trkpt>
      <trkpt lat="46.31772" lon="-1.0714">
        <ele>3.3</ele>
        <time>2020-06-02T13:13:42Z</time>
      </trkpt>
      <trkpt lat="46.31772" lon="-1.0714">
        <ele>3.3</ele>
        <time>2020-06-02T13:13:43Z</time>
      </trkpt>
      <trkpt lat="46.31772" lon="-1.0714">
        <ele>3.3</ele>
        <time>2020-06-02T13:13:44Z</time>
      </trkpt>
      <trkpt lat="46.31772" lon="-1.0714">
        <ele>3.3</ele>
        <time>2020-06-02T13:13:45Z</time>
      </trkpt>
      <trkpt lat="46.31772" lon="-1.0714">
        <ele>3.3</ele>
        <time>2020-06-02T13:13:46Z</time>
      </trkpt>
      <trkpt lat="46.31772" lon="-1.0714">
        <ele>3.3</ele>
        <time>2020-06-02T13:13:47Z</time>
      </trkpt>
      <trkpt lat="46.31772" lon="-1.0714">
        <ele>3.3</ele>
        <time>2020-06-02T13:13:48Z</time>
      </trkpt>
      <trkpt lat="46.31772" lon="-1.0714">
        <ele>3.3</ele>
        <time>2020-06-02T13:13:49Z</time>
      </trkpt>
      <trkpt lat="46.31772" lon="-1.0714">
        <ele>3.3</ele>
        <time>2020-06-02T13:13:50Z</time>
      </trkpt>
      <trkpt lat="46.31772" lon="-1.0714">
        <ele>3.3</ele>
        <time>2020-06-02T13:13:51Z</time>
      </trkpt>
      <trkpt lat="46.31772" lon="-1.0714">
        <ele>3.3</ele>
        <time>2020-06-02T13:13:52Z</time>
      </trkpt>
      <trkpt lat="46.31772" lon="-1.07139">
        <ele>3.3</ele>
        <time>2020-06-02T13:13:53Z</time>
      </trkpt>
      <trkpt lat="46.31772" lon="-1.07139">
        <ele>3.3</ele>
        <time>2020-06-02T13:13:54Z</time>
      </trkpt>
      <trkpt lat="46.31772" lon="-1.07139">
        <ele>3.3</ele>
        <time>2020-06-02T13:13:55Z</time>
      </trkpt>
      <trkpt lat="46.31772" lon="-1.07139">
        <ele>3.3</ele>
        <time>2020-06-02T13:13:56Z</time>
      </trkpt>
      <trkpt lat="46.31772" lon="-1.07139">
        <ele>3.3</ele>
        <time>2020-06-02T13:13:57Z</time>
      </trkpt>
      <trkpt lat="46.31772" lon="-1.07139">
        <ele>3.3</ele>
        <time>2020-06-02T13:13:58Z</time>
      </trkpt>
      <trkpt lat="46.31772" lon="-1.07139">
        <ele>3.3</ele>
        <time>2020-06-02T13:13:59Z</time>
      </trkpt>
      <trkpt lat="46.31772" lon="-1.07139">
        <ele>3.3</ele>
        <time>2020-06-02T13:14:00Z</time>
      </trkpt>
      <trkpt lat="46.31771" lon="-1.07139">
        <ele>3.3</ele>
        <time>2020-06-02T13:14:01Z</time>
      </trkpt>
      <trkpt lat="46.31772" lon="-1.07138">
        <ele>3.3</ele>
        <time>2020-06-02T13:14:02Z</time>
      </trkpt>
      <trkpt lat="46.31773" lon="-1.07139">
        <ele>3.3</ele>
        <time>2020-06-02T13:14:03Z</time>
      </trkpt>
      <trkpt lat="46.31773" lon="-1.07139">
        <ele>3.3</ele>
        <time>2020-06-02T13:14:04Z</time>
      </trkpt>
      <trkpt lat="46.31773" lon="-1.07139">
        <ele>3.3</ele>
        <time>2020-06-02T13:14:05Z</time>
      </trkpt>
      <trkpt lat="46.31773" lon="-1.07139">
        <ele>3.3</ele>
        <time>2020-06-02T13:14:06Z</time>
      </trkpt>
      <trkpt lat="46.31773" lon="-1.07139">
        <ele>3.3</ele>
        <time>2020-06-02T13:14:07Z</time>
      </trkpt>
      <trkpt lat="46.31773" lon="-1.07139">
        <ele>3.3</ele>
        <time>2020-06-02T13:14:08Z</time>
      </trkpt>
      <trkpt lat="46.31773" lon="-1.07139">
        <ele>3.3</ele>
        <time>2020-06-02T13:14:09Z</time>
      </trkpt>
      <trkpt lat="46.31773" lon="-1.07139">
        <ele>3.3</ele>
        <time>2020-06-02T13:14:10Z</time>
      </trkpt>
      <trkpt lat="46.31773" lon="-1.0714">
        <ele>3.3</ele>
        <time>2020-06-02T13:14:11Z</time>
      </trkpt>
      <trkpt lat="46.31773" lon="-1.0714">
        <ele>3.3</ele>
        <time>2020-06-02T13:14:12Z</time>
      </trkpt>
      <trkpt lat="46.31773" lon="-1.07141">
        <ele>3.3</ele>
        <time>2020-06-02T13:14:13Z</time>
      </trkpt>
      <trkpt lat="46.31774" lon="-1.07141">
        <ele>3.3</ele>
        <time>2020-06-02T13:14:14Z</time>
      </trkpt>
      <trkpt lat="46.31774" lon="-1.07141">
        <ele>3.3</ele>
        <time>2020-06-02T13:14:15Z</time>
      </trkpt>
      <trkpt lat="46.31774" lon="-1.07142">
        <ele>3.3</ele>
        <time>2020-06-02T13:14:16Z</time>
      </trkpt>
      <trkpt lat="46.31774" lon="-1.07142">
        <ele>3.3</ele>
        <time>2020-06-02T13:14:17Z</time>
      </trkpt>
      <trkpt lat="46.31775" lon="-1.07142">
        <ele>3.3</ele>
        <time>2020-06-02T13:14:18Z</time>
      </trkpt>
      <trkpt lat="46.31775" lon="-1.07142">
        <ele>3.3</ele>
        <time>2020-06-02T13:14:19Z</time>
      </trkpt>
      <trkpt lat="46.31775" lon="-1.07143">
        <ele>3.3</ele>
        <time>2020-06-02T13:14:20Z</time>
      </trkpt>
      <trkpt lat="46.31775" lon="-1.07143">
        <ele>3.3</ele>
        <time>2020-06-02T13:14:21Z</time>
      </trkpt>
      <trkpt lat="46.31775" lon="-1.07143">
        <ele>3.3</ele>
        <time>2020-06-02T13:14:22Z</time>
      </trkpt>
      <trkpt lat="46.31775" lon="-1.07143">
        <ele>3.3</ele>
        <time>2020-06-02T13:14:23Z</time>
      </trkpt>
      <trkpt lat="46.31774" lon="-1.07142">
        <ele>3.3</ele>
        <time>2020-06-02T13:14:24Z</time>
      </trkpt>
      <trkpt lat="46.31774" lon="-1.07142">
        <ele>3.3</ele>
        <time>2020-06-02T13:14:25Z</time>
      </trkpt>
      <trkpt lat="46.31774" lon="-1.07142">
        <ele>3.3</ele>
        <time>2020-06-02T13:14:26Z</time>
      </trkpt>
      <trkpt lat="46.31774" lon="-1.07142">
        <ele>3.3</ele>
        <time>2020-06-02T13:14:27Z</time>
      </trkpt>
      <trkpt lat="46.31775" lon="-1.07143">
        <ele>3.3</ele>
        <time>2020-06-02T13:14:28Z</time>
      </trkpt>
      <trkpt lat="46.31775" lon="-1.07143">
        <ele>3.3</ele>
        <time>2020-06-02T13:14:29Z</time>
      </trkpt>
      <trkpt lat="46.31774" lon="-1.07144">
        <ele>3.3</ele>
        <time>2020-06-02T13:14:30Z</time>
      </trkpt>
      <trkpt lat="46.31774" lon="-1.07144">
        <ele>3.3</ele>
        <time>2020-06-02T13:14:31Z</time>
      </trkpt>
      <trkpt lat="46.31774" lon="-1.07144">
        <ele>3.3</ele>
        <time>2020-06-02T13:14:32Z</time>
      </trkpt>
      <trkpt lat="46.31774" lon="-1.07145">
        <ele>3.3</ele>
        <time>2020-06-02T13:14:33Z</time>
      </trkpt>
      <trkpt lat="46.31775" lon="-1.07146">
        <ele>3.3</ele>
        <time>2020-06-02T13:14:34Z</time>
      </trkpt>
      <trkpt lat="46.31775" lon="-1.07146">
        <ele>3.3</ele>
        <time>2020-06-02T13:14:35Z</time>
      </trkpt>
      <trkpt lat="46.31775" lon="-1.07146">
        <ele>3.3</ele>
        <time>2020-06-02T13:14:36Z</time>
      </trkpt>
      <trkpt lat="46.31775" lon="-1.07146">
        <ele>3.3</ele>
        <time>2020-06-02T13:14:37Z</time>
      </trkpt>
      <trkpt lat="46.31775" lon="-1.07146">
        <ele>3.3</ele>
        <time>2020-06-02T13:14:38Z</time>
      </trkpt>
      <trkpt lat="46.31775" lon="-1.07146">
        <ele>3.3</ele>
        <time>2020-06-02T13:14:39Z</time>
      </trkpt>
      <trkpt lat="46.31775" lon="-1.07146">
        <ele>3.3</ele>
        <time>2020-06-02T13:14:40Z</time>
      </trkpt>
      <trkpt lat="46.31775" lon="-1.07146">
        <ele>3.3</ele>
        <time>2020-06-02T13:14:41Z</time>
      </trkpt>
      <trkpt lat="46.31775" lon="-1.07146">
        <ele>3.3</ele>
        <time>2020-06-02T13:14:42Z</time>
      </trkpt>
      <trkpt lat="46.31776" lon="-1.07145">
        <ele>3.3</ele>
        <time>2020-06-02T13:14:43Z</time>
      </trkpt>
      <trkpt lat="46.31778" lon="-1.07144">
        <ele>3.3</ele>
        <time>2020-06-02T13:14:44Z</time>
      </trkpt>
      <trkpt lat="46.3178" lon="-1.07143">
        <ele>3.3</ele>
        <time>2020-06-02T13:14:45Z</time>
      </trkpt>
      <trkpt lat="46.31781" lon="-1.07142">
        <ele>3.3</ele>
        <time>2020-06-02T13:14:46Z</time>
      </trkpt>
      <trkpt lat="46.31781" lon="-1.07142">
        <ele>3.3</ele>
        <time>2020-06-02T13:14:47Z</time>
      </trkpt>
      <trkpt lat="46.31782" lon="-1.07141">
        <ele>3.3</ele>
        <time>2020-06-02T13:14:48Z</time>
      </trkpt>
      <trkpt lat="46.31784" lon="-1.0714">
        <ele>3.3</ele>
        <time>2020-06-02T13:14:49Z</time>
      </trkpt>
      <trkpt lat="46.31785" lon="-1.07141">
        <ele>3.3</ele>
        <time>2020-06-02T13:14:50Z</time>
      </trkpt>
      <trkpt lat="46.31787" lon="-1.0714">
        <ele>3.3</ele>
        <time>2020-06-02T13:14:51Z</time>
      </trkpt>
      <trkpt lat="46.31789" lon="-1.0714">
        <ele>3.3</ele>
        <time>2020-06-02T13:14:52Z</time>
      </trkpt>
      <trkpt lat="46.3179" lon="-1.07141">
        <ele>3.3</ele>
        <time>2020-06-02T13:14:53Z</time>
      </trkpt>
      <trkpt lat="46.31792" lon="-1.07142">
        <ele>3.3</ele>
        <time>2020-06-02T13:14:54Z</time>
      </trkpt>
      <trkpt lat="46.31793" lon="-1.07143">
        <ele>3.3</ele>
        <time>2020-06-02T13:14:55Z</time>
      </trkpt>
      <trkpt lat="46.31795" lon="-1.07142">
        <ele>3.3</ele>
        <time>2020-06-02T13:14:56Z</time>
      </trkpt>
      <trkpt lat="46.31796" lon="-1.07142">
        <ele>3.3</ele>
        <time>2020-06-02T13:14:57Z</time>
      </trkpt>
      <trkpt lat="46.31797" lon="-1.07142">
        <ele>3.3</ele>
        <time>2020-06-02T13:14:58Z</time>
      </trkpt>
      <trkpt lat="46.31799" lon="-1.07141">
        <ele>3.3</ele>
        <time>2020-06-02T13:14:59Z</time>
      </trkpt>
      <trkpt lat="46.318" lon="-1.07142">
        <ele>3.4</ele>
        <time>2020-06-02T13:15:00Z</time>
      </trkpt>
      <trkpt lat="46.31802" lon="-1.0714">
        <ele>3.4</ele>
        <time>2020-06-02T13:15:01Z</time>
      </trkpt>
      <trkpt lat="46.31803" lon="-1.07139">
        <ele>3.4</ele>
        <time>2020-06-02T13:15:02Z</time>
      </trkpt>
      <trkpt lat="46.31804" lon="-1.07138">
        <ele>3.4</ele>
        <time>2020-06-02T13:15:03Z</time>
      </trkpt>
      <trkpt lat="46.31805" lon="-1.07137">
        <ele>3.4</ele>
        <time>2020-06-02T13:15:04Z</time>
      </trkpt>
      <trkpt lat="46.31805" lon="-1.07135">
        <ele>3.4</ele>
        <time>2020-06-02T13:15:05Z</time>
      </trkpt>
      <trkpt lat="46.31804" lon="-1.07133">
        <ele>3.4</ele>
        <time>2020-06-02T13:15:06Z</time>
      </trkpt>
      <trkpt lat="46.31804" lon="-1.07129">
        <ele>3.4</ele>
        <time>2020-06-02T13:15:07Z</time>
      </trkpt>
      <trkpt lat="46.31804" lon="-1.07128">
        <ele>3.4</ele>
        <time>2020-06-02T13:15:08Z</time>
      </trkpt>
      <trkpt lat="46.31804" lon="-1.07125">
        <ele>3.4</ele>
        <time>2020-06-02T13:15:09Z</time>
      </trkpt>
      <trkpt lat="46.31803" lon="-1.07123">
        <ele>3.4</ele>
        <time>2020-06-02T13:15:10Z</time>
      </trkpt>
      <trkpt lat="46.31803" lon="-1.0712">
        <ele>3.4</ele>
        <time>2020-06-02T13:15:11Z</time>
      </trkpt>
      <trkpt lat="46.31803" lon="-1.07119">
        <ele>3.4</ele>
        <time>2020-06-02T13:15:12Z</time>
      </trkpt>
      <trkpt lat="46.31803" lon="-1.07118">
        <ele>3.4</ele>
        <time>2020-06-02T13:15:13Z</time>
      </trkpt>
      <trkpt lat="46.31802" lon="-1.07115">
        <ele>3.4</ele>
        <time>2020-06-02T13:15:14Z</time>
      </trkpt>
      <trkpt lat="46.31802" lon="-1.07114">
        <ele>3.4</ele>
        <time>2020-06-02T13:15:15Z</time>
      </trkpt>
      <trkpt lat="46.31802" lon="-1.07112">
        <ele>3.4</ele>
        <time>2020-06-02T13:15:16Z</time>
      </trkpt>
      <trkpt lat="46.31802" lon="-1.0711">
        <ele>3.4</ele>
        <time>2020-06-02T13:15:17Z</time>
      </trkpt>
      <trkpt lat="46.31802" lon="-1.07108">
        <ele>3.4</ele>
        <time>2020-06-02T13:15:18Z</time>
      </trkpt>
      <trkpt lat="46.31802" lon="-1.07106">
        <ele>3.4</ele>
        <time>2020-06-02T13:15:19Z</time>
      </trkpt>
      <trkpt lat="46.31802" lon="-1.07104">
        <ele>3.4</ele>
        <time>2020-06-02T13:15:20Z</time>
      </trkpt>
      <trkpt lat="46.31801" lon="-1.071">
        <ele>3.4</ele>
        <time>2020-06-02T13:15:21Z</time>
      </trkpt>
      <trkpt lat="46.31801" lon="-1.07099">
        <ele>3.4</ele>
        <time>2020-06-02T13:15:22Z</time>
      </trkpt>
      <trkpt lat="46.31801" lon="-1.07096">
        <ele>3.4</ele>
        <time>2020-06-02T13:15:23Z</time>
      </trkpt>
      <trkpt lat="46.31801" lon="-1.07095">
        <ele>3.4</ele>
        <time>2020-06-02T13:15:24Z</time>
      </trkpt>
      <trkpt lat="46.31801" lon="-1.07093">
        <ele>3.4</ele>
        <time>2020-06-02T13:15:25Z</time>
      </trkpt>
      <trkpt lat="46.318" lon="-1.07092">
        <ele>3.4</ele>
        <time>2020-06-02T13:15:26Z</time>
      </trkpt>
      <trkpt lat="46.318" lon="-1.07091">
        <ele>3.4</ele>
        <time>2020-06-02T13:15:27Z</time>
      </trkpt>
      <trkpt lat="46.318" lon="-1.0709">
        <ele>3.4</ele>
        <time>2020-06-02T13:15:28Z</time>
      </trkpt>
      <trkpt lat="46.318" lon="-1.07089">
        <ele>3.4</ele>
        <time>2020-06-02T13:15:29Z</time>
      </trkpt>
      <trkpt lat="46.318" lon="-1.07088">
        <ele>3.4</ele>
        <time>2020-06-02T13:15:30Z</time>
      </trkpt>
      <trkpt lat="46.31799" lon="-1.07086">
        <ele>3.4</ele>
        <time>2020-06-02T13:15:31Z</time>
      </trkpt>
      <trkpt lat="46.318" lon="-1.07084">
        <ele>3.4</ele>
        <time>2020-06-02T13:15:32Z</time>
      </trkpt>
      <trkpt lat="46.318" lon="-1.07082">
        <ele>3.4</ele>
        <time>2020-06-02T13:15:33Z</time>
      </trkpt>
      <trkpt lat="46.318" lon="-1.0708">
        <ele>3.4</ele>
        <time>2020-06-02T13:15:34Z</time>
      </trkpt>
      <trkpt lat="46.318" lon="-1.07078">
        <ele>3.4</ele>
        <time>2020-06-02T13:15:35Z</time>
      </trkpt>
      <trkpt lat="46.318" lon="-1.07077">
        <ele>3.4</ele>
        <time>2020-06-02T13:15:36Z</time>
      </trkpt>
      <trkpt lat="46.31798" lon="-1.07076">
        <ele>3.4</ele>
        <time>2020-06-02T13:15:37Z</time>
      </trkpt>
      <trkpt lat="46.31798" lon="-1.07075">
        <ele>3.4</ele>
        <time>2020-06-02T13:15:38Z</time>
      </trkpt>
      <trkpt lat="46.31798" lon="-1.07074">
        <ele>3.4</ele>
        <time>2020-06-02T13:15:39Z</time>
      </trkpt>
      <trkpt lat="46.31798" lon="-1.07074">
        <ele>3.4</ele>
        <time>2020-06-02T13:15:40Z</time>
      </trkpt>
      <trkpt lat="46.31798" lon="-1.07075">
        <ele>3.4</ele>
        <time>2020-06-02T13:15:41Z</time>
      </trkpt>
      <trkpt lat="46.31798" lon="-1.07075">
        <ele>3.4</ele>
        <time>2020-06-02T13:15:42Z</time>
      </trkpt>
      <trkpt lat="46.31798" lon="-1.07075">
        <ele>3.4</ele>
        <time>2020-06-02T13:15:43Z</time>
      </trkpt>
      <trkpt lat="46.31798" lon="-1.07075">
        <ele>3.4</ele>
        <time>2020-06-02T13:15:44Z</time>
      </trkpt>
      <trkpt lat="46.31798" lon="-1.07075">
        <ele>3.4</ele>
        <time>2020-06-02T13:15:45Z</time>
      </trkpt>
      <trkpt lat="46.31798" lon="-1.07075">
        <ele>3.4</ele>
        <time>2020-06-02T13:15:46Z</time>
      </trkpt>
      <trkpt lat="46.31798" lon="-1.07075">
        <ele>3.4</ele>
        <time>2020-06-02T13:15:47Z</time>
      </trkpt>
      <trkpt lat="46.31798" lon="-1.07075">
        <ele>3.4</ele>
        <time>2020-06-02T13:15:48Z</time>
      </trkpt>
      <trkpt lat="46.31798" lon="-1.07075">
        <ele>3.4</ele>
        <time>2020-06-02T13:15:49Z</time>
      </trkpt>
      <trkpt lat="46.31798" lon="-1.07075">
        <ele>3.4</ele>
        <time>2020-06-02T13:15:50Z</time>
      </trkpt>
      <trkpt lat="46.31798" lon="-1.07075">
        <ele>3.4</ele>
        <time>2020-06-02T13:15:51Z</time>
      </trkpt>
      <trkpt lat="46.31798" lon="-1.07075">
        <ele>3.4</ele>
        <time>2020-06-02T13:15:52Z</time>
      </trkpt>
      <trkpt lat="46.31798" lon="-1.07075">
        <ele>3.4</ele>
        <time>2020-06-02T13:15:53Z</time>
      </trkpt>
      <trkpt lat="46.31798" lon="-1.07075">
        <ele>3.4</ele>
        <time>2020-06-02T13:15:54Z</time>
      </trkpt>
      <trkpt lat="46.31798" lon="-1.07075">
        <ele>3.4</ele>
        <time>2020-06-02T13:15:55Z</time>
      </trkpt>
      <trkpt lat="46.31798" lon="-1.07075">
        <ele>3.4</ele>
        <time>2020-06-02T13:15:56Z</time>
      </trkpt>
      <trkpt lat="46.31798" lon="-1.07075">
        <ele>3.4</ele>
        <time>2020-06-02T13:15:57Z</time>
      </trkpt>
      <trkpt lat="46.31798" lon="-1.07075">
        <ele>3.4</ele>
        <time>2020-06-02T13:15:58Z</time>
      </trkpt>
      <trkpt lat="46.31798" lon="-1.07076">
        <ele>3.4</ele>
        <time>2020-06-02T13:15:59Z</time>
      </trkpt>
      <trkpt lat="46.31798" lon="-1.07077">
        <ele>3.4</ele>
        <time>2020-06-02T13:16:00Z</time>
      </trkpt>
      <trkpt lat="46.31798" lon="-1.07077">
        <ele>3.4</ele>
        <time>2020-06-02T13:16:01Z</time>
      </trkpt>
      <trkpt lat="46.31798" lon="-1.07078">
        <ele>3.4</ele>
        <time>2020-06-02T13:16:02Z</time>
      </trkpt>
      <trkpt lat="46.31798" lon="-1.07079">
        <ele>3.4</ele>
        <time>2020-06-02T13:16:03Z</time>
      </trkpt>
      <trkpt lat="46.31799" lon="-1.07079">
        <ele>3.4</ele>
        <time>2020-06-02T13:16:04Z</time>
      </trkpt>
      <trkpt lat="46.31799" lon="-1.07079">
        <ele>3.4</ele>
        <time>2020-06-02T13:16:05Z</time>
      </trkpt>
      <trkpt lat="46.31799" lon="-1.07079">
        <ele>3.4</ele>
        <time>2020-06-02T13:16:06Z</time>
      </trkpt>
      <trkpt lat="46.31799" lon="-1.07079">
        <ele>3.4</ele>
        <time>2020-06-02T13:16:07Z</time>
      </trkpt>
      <trkpt lat="46.31799" lon="-1.07079">
        <ele>3.4</ele>
        <time>2020-06-02T13:16:08Z</time>
      </trkpt>
      <trkpt lat="46.31799" lon="-1.07079">
        <ele>3.4</ele>
        <time>2020-06-02T13:16:09Z</time>
      </trkpt>
      <trkpt lat="46.31799" lon="-1.07078">
        <ele>3.4</ele>
        <time>2020-06-02T13:16:10Z</time>
      </trkpt>
      <trkpt lat="46.31799" lon="-1.07079">
        <ele>3.4</ele>
        <time>2020-06-02T13:16:11Z</time>
      </trkpt>
      <trkpt lat="46.31799" lon="-1.07079">
        <ele>3.4</ele>
        <time>2020-06-02T13:16:12Z</time>
      </trkpt>
      <trkpt lat="46.31799" lon="-1.07078">
        <ele>3.4</ele>
        <time>2020-06-02T13:16:13Z</time>
      </trkpt>
      <trkpt lat="46.31799" lon="-1.07078">
        <ele>3.4</ele>
        <time>2020-06-02T13:16:14Z</time>
      </trkpt>
      <trkpt lat="46.31799" lon="-1.07078">
        <ele>3.4</ele>
        <time>2020-06-02T13:16:15Z</time>
      </trkpt>
      <trkpt lat="46.31799" lon="-1.07078">
        <ele>3.4</ele>
        <time>2020-06-02T13:16:16Z</time>
      </trkpt>
      <trkpt lat="46.31799" lon="-1.07078">
        <ele>3.4</ele>
        <time>2020-06-02T13:16:17Z</time>
      </trkpt>
      <trkpt lat="46.31799" lon="-1.07078">
        <ele>3.4</ele>
        <time>2020-06-02T13:16:18Z</time>
      </trkpt>
      <trkpt lat="46.31799" lon="-1.07078">
        <ele>3.4</ele>
        <time>2020-06-02T13:16:19Z</time>
      </trkpt>
      <trkpt lat="46.31799" lon="-1.07078">
        <ele>3.4</ele>
        <time>2020-06-02T13:16:20Z</time>
      </trkpt>
      <trkpt lat="46.31798" lon="-1.07078">
        <ele>3.4</ele>
        <time>2020-06-02T13:16:21Z</time>
      </trkpt>
      <trkpt lat="46.31798" lon="-1.07078">
        <ele>3.4</ele>
        <time>2020-06-02T13:16:22Z</time>
      </trkpt>
      <trkpt lat="46.31798" lon="-1.07078">
        <ele>3.4</ele>
        <time>2020-06-02T13:16:23Z</time>
      </trkpt>
      <trkpt lat="46.31798" lon="-1.07078">
        <ele>3.4</ele>
        <time>2020-06-02T13:16:24Z</time>
      </trkpt>
      <trkpt lat="46.31798" lon="-1.07078">
        <ele>3.4</ele>
        <time>2020-06-02T13:16:25Z</time>
      </trkpt>
      <trkpt lat="46.31798" lon="-1.07078">
        <ele>3.4</ele>
        <time>2020-06-02T13:16:26Z</time>
      </trkpt>
      <trkpt lat="46.31798" lon="-1.07078">
        <ele>3.4</ele>
        <time>2020-06-02T13:16:27Z</time>
      </trkpt>
      <trkpt lat="46.31798" lon="-1.07078">
        <ele>3.4</ele>
        <time>2020-06-02T13:16:28Z</time>
      </trkpt>
      <trkpt lat="46.31798" lon="-1.07078">
        <ele>3.4</ele>
        <time>2020-06-02T13:16:29Z</time>
      </trkpt>
      <trkpt lat="46.31798" lon="-1.07078">
        <ele>3.4</ele>
        <time>2020-06-02T13:16:30Z</time>
      </trkpt>
      <trkpt lat="46.31798" lon="-1.07078">
        <ele>3.4</ele>
        <time>2020-06-02T13:16:31Z</time>
      </trkpt>
      <trkpt lat="46.31798" lon="-1.07078">
        <ele>3.4</ele>
        <time>2020-06-02T13:16:32Z</time>
      </trkpt>
      <trkpt lat="46.31798" lon="-1.07078">
        <ele>3.4</ele>
        <time>2020-06-02T13:16:33Z</time>
      </trkpt>
      <trkpt lat="46.31798" lon="-1.07078">
        <ele>3.4</ele>
        <time>2020-06-02T13:16:34Z</time>
      </trkpt>
      <trkpt lat="46.31799" lon="-1.07078">
        <ele>3.4</ele>
        <time>2020-06-02T13:16:35Z</time>
      </trkpt>
      <trkpt lat="46.31799" lon="-1.07078">
        <ele>3.4</ele>
        <time>2020-06-02T13:16:36Z</time>
      </trkpt>
      <trkpt lat="46.31799" lon="-1.07078">
        <ele>3.4</ele>
        <time>2020-06-02T13:16:37Z</time>
      </trkpt>
      <trkpt lat="46.31799" lon="-1.07078">
        <ele>3.4</ele>
        <time>2020-06-02T13:16:38Z</time>
      </trkpt>
      <trkpt lat="46.31799" lon="-1.07078">
        <ele>3.4</ele>
        <time>2020-06-02T13:16:39Z</time>
      </trkpt>
      <trkpt lat="46.31799" lon="-1.07078">
        <ele>3.4</ele>
        <time>2020-06-02T13:16:40Z</time>
      </trkpt>
      <trkpt lat="46.31799" lon="-1.07078">
        <ele>3.4</ele>
        <time>2020-06-02T13:16:41Z</time>
      </trkpt>
      <trkpt lat="46.31799" lon="-1.07078">
        <ele>3.4</ele>
        <time>2020-06-02T13:16:42Z</time>
      </trkpt>
      <trkpt lat="46.31798" lon="-1.07078">
        <ele>3.4</ele>
        <time>2020-06-02T13:16:43Z</time>
      </trkpt>
      <trkpt lat="46.31798" lon="-1.07078">
        <ele>3.4</ele>
        <time>2020-06-02T13:16:44Z</time>
      </trkpt>
      <trkpt lat="46.31798" lon="-1.07078">
        <ele>3.4</ele>
        <time>2020-06-02T13:16:45Z</time>
      </trkpt>
      <trkpt lat="46.31798" lon="-1.07078">
        <ele>3.4</ele>
        <time>2020-06-02T13:16:46Z</time>
      </trkpt>
      <trkpt lat="46.31798" lon="-1.07078">
        <ele>3.4</ele>
        <time>2020-06-02T13:16:47Z</time>
      </trkpt>
      <trkpt lat="46.31798" lon="-1.07078">
        <ele>3.4</ele>
        <time>2020-06-02T13:16:48Z</time>
      </trkpt>
      <trkpt lat="46.31798" lon="-1.07078">
        <ele>3.4</ele>
        <time>2020-06-02T13:16:49Z</time>
      </trkpt>
      <trkpt lat="46.31799" lon="-1.07078">
        <ele>3.4</ele>
        <time>2020-06-02T13:16:50Z</time>
      </trkpt>
      <trkpt lat="46.31799" lon="-1.07078">
        <ele>3.4</ele>
        <time>2020-06-02T13:16:51Z</time>
      </trkpt>
      <trkpt lat="46.31799" lon="-1.07078">
        <ele>3.4</ele>
        <time>2020-06-02T13:16:52Z</time>
      </trkpt>
      <trkpt lat="46.31799" lon="-1.07078">
        <ele>3.4</ele>
        <time>2020-06-02T13:16:53Z</time>
      </trkpt>
      <trkpt lat="46.31799" lon="-1.07078">
        <ele>3.4</ele>
        <time>2020-06-02T13:16:54Z</time>
      </trkpt>
      <trkpt lat="46.31799" lon="-1.07078">
        <ele>3.4</ele>
        <time>2020-06-02T13:16:55Z</time>
      </trkpt>
      <trkpt lat="46.31799" lon="-1.07078">
        <ele>3.4</ele>
        <time>2020-06-02T13:16:56Z</time>
      </trkpt>
      <trkpt lat="46.31799" lon="-1.07078">
        <ele>3.4</ele>
        <time>2020-06-02T13:16:57Z</time>
      </trkpt>
      <trkpt lat="46.31799" lon="-1.07078">
        <ele>3.4</ele>
        <time>2020-06-02T13:16:58Z</time>
      </trkpt>
      <trkpt lat="46.31799" lon="-1.07078">
        <ele>3.4</ele>
        <time>2020-06-02T13:16:59Z</time>
      </trkpt>
      <trkpt lat="46.31799" lon="-1.07078">
        <ele>3.4</ele>
        <time>2020-06-02T13:17:00Z</time>
      </trkpt>
      <trkpt lat="46.31798" lon="-1.07078">
        <ele>3.4</ele>
        <time>2020-06-02T13:17:01Z</time>
      </trkpt>
      <trkpt lat="46.31798" lon="-1.07078">
        <ele>3.4</ele>
        <time>2020-06-02T13:17:02Z</time>
      </trkpt>
      <trkpt lat="46.31798" lon="-1.07078">
        <ele>3.4</ele>
        <time>2020-06-02T13:17:03Z</time>
      </trkpt>
      <trkpt lat="46.31798" lon="-1.07078">
        <ele>3.4</ele>
        <time>2020-06-02T13:17:04Z</time>
      </trkpt>
      <trkpt lat="46.31798" lon="-1.07078">
        <ele>3.4</ele>
        <time>2020-06-02T13:17:05Z</time>
      </trkpt>
      <trkpt lat="46.31798" lon="-1.07078">
        <ele>3.4</ele>
        <time>2020-06-02T13:17:06Z</time>
      </trkpt>
      <trkpt lat="46.31798" lon="-1.07078">
        <ele>3.4</ele>
        <time>2020-06-02T13:17:07Z</time>
      </trkpt>
      <trkpt lat="46.31798" lon="-1.07077">
        <ele>3.4</ele>
        <time>2020-06-02T13:17:08Z</time>
      </trkpt>
      <trkpt lat="46.31798" lon="-1.07077">
        <ele>3.4</ele>
        <time>2020-06-02T13:17:09Z</time>
      </trkpt>
      <trkpt lat="46.31798" lon="-1.07078">
        <ele>3.4</ele>
        <time>2020-06-02T13:17:10Z</time>
      </trkpt>
      <trkpt lat="46.31798" lon="-1.07077">
        <ele>3.4</ele>
        <time>2020-06-02T13:17:11Z</time>
      </trkpt>
      <trkpt lat="46.31798" lon="-1.07077">
        <ele>3.4</ele>
        <time>2020-06-02T13:17:12Z</time>
      </trkpt>
      <trkpt lat="46.31798" lon="-1.07077">
        <ele>3.4</ele>
        <time>2020-06-02T13:17:13Z</time>
      </trkpt>
      <trkpt lat="46.31798" lon="-1.07077">
        <ele>3.4</ele>
        <time>2020-06-02T13:17:14Z</time>
      </trkpt>
      <trkpt lat="46.31798" lon="-1.07078">
        <ele>3.4</ele>
        <time>2020-06-02T13:17:15Z</time>
      </trkpt>
      <trkpt lat="46.31798" lon="-1.07077">
        <ele>3.4</ele>
        <time>2020-06-02T13:17:16Z</time>
      </trkpt>
      <trkpt lat="46.31798" lon="-1.07077">
        <ele>3.4</ele>
        <time>2020-06-02T13:17:17Z</time>
      </trkpt>
      <trkpt lat="46.31798" lon="-1.07077">
        <ele>3.4</ele>
        <time>2020-06-02T13:17:18Z</time>
      </trkpt>
      <trkpt lat="46.31798" lon="-1.07077">
        <ele>3.4</ele>
        <time>2020-06-02T13:17:19Z</time>
      </trkpt>
      <trkpt lat="46.31798" lon="-1.07077">
        <ele>3.4</ele>
        <time>2020-06-02T13:17:20Z</time>
      </trkpt>
      <trkpt lat="46.31798" lon="-1.07077">
        <ele>3.4</ele>
        <time>2020-06-02T13:17:21Z</time>
      </trkpt>
      <trkpt lat="46.31798" lon="-1.07077">
        <ele>3.4</ele>
        <time>2020-06-02T13:17:22Z</time>
      </trkpt>
      <trkpt lat="46.31798" lon="-1.07077">
        <ele>3.4</ele>
        <time>2020-06-02T13:17:23Z</time>
      </trkpt>
      <trkpt lat="46.31798" lon="-1.07077">
        <ele>3.4</ele>
        <time>2020-06-02T13:17:24Z</time>
      </trkpt>
      <trkpt lat="46.31798" lon="-1.07077">
        <ele>3.4</ele>
        <time>2020-06-02T13:17:25Z</time>
      </trkpt>
      <trkpt lat="46.31798" lon="-1.07077">
        <ele>3.4</ele>
        <time>2020-06-02T13:17:26Z</time>
      </trkpt>
      <trkpt lat="46.31798" lon="-1.07077">
        <ele>3.4</ele>
        <time>2020-06-02T13:17:27Z</time>
      </trkpt>
      <trkpt lat="46.31798" lon="-1.07077">
        <ele>3.4</ele>
        <time>2020-06-02T13:17:28Z</time>
      </trkpt>
      <trkpt lat="46.31798" lon="-1.07077">
        <ele>3.4</ele>
        <time>2020-06-02T13:17:29Z</time>
      </trkpt>
      <trkpt lat="46.31798" lon="-1.07077">
        <ele>3.4</ele>
        <time>2020-06-02T13:17:30Z</time>
      </trkpt>
      <trkpt lat="46.31798" lon="-1.07077">
        <ele>3.4</ele>
        <time>2020-06-02T13:17:31Z</time>
      </trkpt>
      <trkpt lat="46.31798" lon="-1.07077">
        <ele>3.4</ele>
        <time>2020-06-02T13:17:32Z</time>
      </trkpt>
      <trkpt lat="46.31798" lon="-1.07077">
        <ele>3.4</ele>
        <time>2020-06-02T13:17:33Z</time>
      </trkpt>
      <trkpt lat="46.31798" lon="-1.07077">
        <ele>3.4</ele>
        <time>2020-06-02T13:17:34Z</time>
      </trkpt>
      <trkpt lat="46.31798" lon="-1.07077">
        <ele>3.4</ele>
        <time>2020-06-02T13:17:35Z</time>
      </trkpt>
      <trkpt lat="46.31798" lon="-1.07077">
        <ele>3.4</ele>
        <time>2020-06-02T13:17:36Z</time>
      </trkpt>
      <trkpt lat="46.31798" lon="-1.07077">
        <ele>3.4</ele>
        <time>2020-06-02T13:17:37Z</time>
      </trkpt>
      <trkpt lat="46.31798" lon="-1.07077">
        <ele>3.4</ele>
        <time>2020-06-02T13:17:38Z</time>
      </trkpt>
      <trkpt lat="46.31799" lon="-1.07077">
        <ele>3.4</ele>
        <time>2020-06-02T13:17:39Z</time>
      </trkpt>
      <trkpt lat="46.318" lon="-1.07077">
        <ele>3.3</ele>
        <time>2020-06-02T13:17:40Z</time>
      </trkpt>
      <trkpt lat="46.31801" lon="-1.07076">
        <ele>3.3</ele>
        <time>2020-06-02T13:17:41Z</time>
      </trkpt>
      <trkpt lat="46.31801" lon="-1.07077">
        <ele>3.3</ele>
        <time>2020-06-02T13:17:42Z</time>
      </trkpt>
      <trkpt lat="46.31801" lon="-1.0708">
        <ele>3.3</ele>
        <time>2020-06-02T13:17:43Z</time>
      </trkpt>
      <trkpt lat="46.31801" lon="-1.07082">
        <ele>3.3</ele>
        <time>2020-06-02T13:17:44Z</time>
      </trkpt>
      <trkpt lat="46.31801" lon="-1.07084">
        <ele>3.3</ele>
        <time>2020-06-02T13:17:45Z</time>
      </trkpt>
      <trkpt lat="46.318" lon="-1.07088">
        <ele>3.3</ele>
        <time>2020-06-02T13:17:46Z</time>
      </trkpt>
      <trkpt lat="46.31799" lon="-1.0709">
        <ele>3.3</ele>
        <time>2020-06-02T13:17:47Z</time>
      </trkpt>
      <trkpt lat="46.31799" lon="-1.07092">
        <ele>3.3</ele>
        <time>2020-06-02T13:17:48Z</time>
      </trkpt>
      <trkpt lat="46.31798" lon="-1.07094">
        <ele>3.3</ele>
        <time>2020-06-02T13:17:49Z</time>
      </trkpt>
      <trkpt lat="46.31798" lon="-1.07095">
        <ele>3.3</ele>
        <time>2020-06-02T13:17:50Z</time>
      </trkpt>
      <trkpt lat="46.31797" lon="-1.07096">
        <ele>3.3</ele>
        <time>2020-06-02T13:17:51Z</time>
      </trkpt>
      <trkpt lat="46.31797" lon="-1.07098">
        <ele>3.3</ele>
        <time>2020-06-02T13:17:52Z</time>
      </trkpt>
      <trkpt lat="46.31796" lon="-1.071">
        <ele>3.3</ele>
        <time>2020-06-02T13:17:53Z</time>
      </trkpt>
      <trkpt lat="46.31794" lon="-1.07101">
        <ele>3.3</ele>
        <time>2020-06-02T13:17:54Z</time>
      </trkpt>
      <trkpt lat="46.31793" lon="-1.07102">
        <ele>3.3</ele>
        <time>2020-06-02T13:17:55Z</time>
      </trkpt>
      <trkpt lat="46.31792" lon="-1.07104">
        <ele>3.3</ele>
        <time>2020-06-02T13:17:56Z</time>
      </trkpt>
      <trkpt lat="46.3179" lon="-1.07105">
        <ele>3.3</ele>
        <time>2020-06-02T13:17:57Z</time>
      </trkpt>
      <trkpt lat="46.31789" lon="-1.07106">
        <ele>3.3</ele>
        <time>2020-06-02T13:17:58Z</time>
      </trkpt>
      <trkpt lat="46.31788" lon="-1.07108">
        <ele>3.3</ele>
        <time>2020-06-02T13:17:59Z</time>
      </trkpt>
      <trkpt lat="46.31787" lon="-1.0711">
        <ele>3.3</ele>
        <time>2020-06-02T13:18:00Z</time>
      </trkpt>
      <trkpt lat="46.31785" lon="-1.07111">
        <ele>3.3</ele>
        <time>2020-06-02T13:18:01Z</time>
      </trkpt>
      <trkpt lat="46.31785" lon="-1.07111">
        <ele>3.3</ele>
        <time>2020-06-02T13:18:02Z</time>
      </trkpt>
      <trkpt lat="46.31785" lon="-1.07112">
        <ele>3.3</ele>
        <time>2020-06-02T13:18:03Z</time>
      </trkpt>
      <trkpt lat="46.31785" lon="-1.07112">
        <ele>3.3</ele>
        <time>2020-06-02T13:18:04Z</time>
      </trkpt>
      <trkpt lat="46.31785" lon="-1.07113">
        <ele>3.3</ele>
        <time>2020-06-02T13:18:05Z</time>
      </trkpt>
      <trkpt lat="46.31785" lon="-1.07113">
        <ele>3.3</ele>
        <time>2020-06-02T13:18:06Z</time>
      </trkpt>
      <trkpt lat="46.31785" lon="-1.07114">
        <ele>3.3</ele>
        <time>2020-06-02T13:18:07Z</time>
      </trkpt>
      <trkpt lat="46.31785" lon="-1.07114">
        <ele>3.3</ele>
        <time>2020-06-02T13:18:08Z</time>
      </trkpt>
      <trkpt lat="46.31785" lon="-1.07115">
        <ele>3.3</ele>
        <time>2020-06-02T13:18:09Z</time>
      </trkpt>
      <trkpt lat="46.31785" lon="-1.07117">
        <ele>3.3</ele>
        <time>2020-06-02T13:18:10Z</time>
      </trkpt>
      <trkpt lat="46.31784" lon="-1.07119">
        <ele>3.3</ele>
        <time>2020-06-02T13:18:11Z</time>
      </trkpt>
      <trkpt lat="46.31785" lon="-1.07121">
        <ele>3.3</ele>
        <time>2020-06-02T13:18:12Z</time>
      </trkpt>
      <trkpt lat="46.31785" lon="-1.07124">
        <ele>3.3</ele>
        <time>2020-06-02T13:18:13Z</time>
      </trkpt>
      <trkpt lat="46.31785" lon="-1.07127">
        <ele>3.3</ele>
        <time>2020-06-02T13:18:14Z</time>
      </trkpt>
      <trkpt lat="46.31785" lon="-1.07128">
        <ele>3.3</ele>
        <time>2020-06-02T13:18:15Z</time>
      </trkpt>
      <trkpt lat="46.31785" lon="-1.0713">
        <ele>3.3</ele>
        <time>2020-06-02T13:18:16Z</time>
      </trkpt>
      <trkpt lat="46.31786" lon="-1.07131">
        <ele>3.3</ele>
        <time>2020-06-02T13:18:17Z</time>
      </trkpt>
      <trkpt lat="46.31786" lon="-1.07132">
        <ele>3.3</ele>
        <time>2020-06-02T13:18:18Z</time>
      </trkpt>
      <trkpt lat="46.31786" lon="-1.07134">
        <ele>3.3</ele>
        <time>2020-06-02T13:18:19Z</time>
      </trkpt>
      <trkpt lat="46.31786" lon="-1.07135">
        <ele>3.3</ele>
        <time>2020-06-02T13:18:20Z</time>
      </trkpt>
      <trkpt lat="46.31787" lon="-1.07136">
        <ele>3.3</ele>
        <time>2020-06-02T13:18:21Z</time>
      </trkpt>
      <trkpt lat="46.31788" lon="-1.07136">
        <ele>3.3</ele>
        <time>2020-06-02T13:18:22Z</time>
      </trkpt>
      <trkpt lat="46.31788" lon="-1.07137">
        <ele>3.3</ele>
        <time>2020-06-02T13:18:23Z</time>
      </trkpt>
      <trkpt lat="46.31789" lon="-1.07136">
        <ele>3.3</ele>
        <time>2020-06-02T13:18:24Z</time>
      </trkpt>
      <trkpt lat="46.31788" lon="-1.07138">
        <ele>3.3</ele>
        <time>2020-06-02T13:18:25Z</time>
      </trkpt>
      <trkpt lat="46.31788" lon="-1.07138">
        <ele>3.3</ele>
        <time>2020-06-02T13:18:26Z</time>
      </trkpt>
      <trkpt lat="46.31787" lon="-1.07138">
        <ele>3.3</ele>
        <time>2020-06-02T13:18:27Z</time>
      </trkpt>
      <trkpt lat="46.31787" lon="-1.07138">
        <ele>3.3</ele>
        <time>2020-06-02T13:18:28Z</time>
      </trkpt>
      <trkpt lat="46.31787" lon="-1.07138">
        <ele>3.3</ele>
        <time>2020-06-02T13:18:29Z</time>
      </trkpt>
      <trkpt lat="46.31786" lon="-1.07138">
        <ele>3.3</ele>
        <time>2020-06-02T13:18:30Z</time>
      </trkpt>
      <trkpt lat="46.31786" lon="-1.07138">
        <ele>3.3</ele>
        <time>2020-06-02T13:18:31Z</time>
      </trkpt>
      <trkpt lat="46.31786" lon="-1.07138">
        <ele>3.3</ele>
        <time>2020-06-02T13:18:32Z</time>
      </trkpt>
      <trkpt lat="46.31786" lon="-1.07138">
        <ele>3.3</ele>
        <time>2020-06-02T13:18:33Z</time>
      </trkpt>
      <trkpt lat="46.31785" lon="-1.07139">
        <ele>3.3</ele>
        <time>2020-06-02T13:18:34Z</time>
      </trkpt>
      <trkpt lat="46.31785" lon="-1.07139">
        <ele>3.3</ele>
        <time>2020-06-02T13:18:35Z</time>
      </trkpt>
      <trkpt lat="46.31784" lon="-1.07139">
        <ele>3.3</ele>
        <time>2020-06-02T13:18:36Z</time>
      </trkpt>
      <trkpt lat="46.31783" lon="-1.07139">
        <ele>3.3</ele>
        <time>2020-06-02T13:18:37Z</time>
      </trkpt>
      <trkpt lat="46.31782" lon="-1.0714">
        <ele>3.3</ele>
        <time>2020-06-02T13:18:38Z</time>
      </trkpt>
      <trkpt lat="46.31781" lon="-1.0714">
        <ele>3.3</ele>
        <time>2020-06-02T13:18:39Z</time>
      </trkpt>
      <trkpt lat="46.3178" lon="-1.07139">
        <ele>3.3</ele>
        <time>2020-06-02T13:18:40Z</time>
      </trkpt>
      <trkpt lat="46.31779" lon="-1.07138">
        <ele>3.3</ele>
        <time>2020-06-02T13:18:41Z</time>
      </trkpt>
      <trkpt lat="46.31779" lon="-1.07139">
        <ele>3.3</ele>
        <time>2020-06-02T13:18:42Z</time>
      </trkpt>
      <trkpt lat="46.31778" lon="-1.07139">
        <ele>3.3</ele>
        <time>2020-06-02T13:18:43Z</time>
      </trkpt>
      <trkpt lat="46.31778" lon="-1.07139">
        <ele>3.3</ele>
        <time>2020-06-02T13:18:44Z</time>
      </trkpt>
      <trkpt lat="46.31777" lon="-1.07139">
        <ele>3.3</ele>
        <time>2020-06-02T13:18:45Z</time>
      </trkpt>
      <trkpt lat="46.31777" lon="-1.07139">
        <ele>3.3</ele>
        <time>2020-06-02T13:18:46Z</time>
      </trkpt>
      <trkpt lat="46.31777" lon="-1.07139">
        <ele>3.3</ele>
        <time>2020-06-02T13:18:47Z</time>
      </trkpt>
      <trkpt lat="46.31777" lon="-1.07139">
        <ele>3.3</ele>
        <time>2020-06-02T13:18:48Z</time>
      </trkpt>
      <trkpt lat="46.31776" lon="-1.0714">
        <ele>3.3</ele>
        <time>2020-06-02T13:18:49Z</time>
      </trkpt>
      <trkpt lat="46.31776" lon="-1.0714">
        <ele>3.3</ele>
        <time>2020-06-02T13:18:50Z</time>
      </trkpt>
      <trkpt lat="46.31775" lon="-1.0714">
        <ele>3.3</ele>
        <time>2020-06-02T13:18:51Z</time>
      </trkpt>
      <trkpt lat="46.31776" lon="-1.07139">
        <ele>3.3</ele>
        <time>2020-06-02T13:18:52Z</time>
      </trkpt>
      <trkpt lat="46.31776" lon="-1.0714">
        <ele>3.3</ele>
        <time>2020-06-02T13:18:53Z</time>
      </trkpt>
      <trkpt lat="46.31777" lon="-1.0714">
        <ele>3.3</ele>
        <time>2020-06-02T13:18:54Z</time>
      </trkpt>
      <trkpt lat="46.31777" lon="-1.0714">
        <ele>3.3</ele>
        <time>2020-06-02T13:18:55Z</time>
      </trkpt>
      <trkpt lat="46.31778" lon="-1.0714">
        <ele>3.3</ele>
        <time>2020-06-02T13:18:56Z</time>
      </trkpt>
      <trkpt lat="46.3178" lon="-1.07141">
        <ele>3.3</ele>
        <time>2020-06-02T13:18:57Z</time>
      </trkpt>
      <trkpt lat="46.31781" lon="-1.07141">
        <ele>3.3</ele>
        <time>2020-06-02T13:18:58Z</time>
      </trkpt>
      <trkpt lat="46.31783" lon="-1.07141">
        <ele>3.3</ele>
        <time>2020-06-02T13:18:59Z</time>
      </trkpt>
      <trkpt lat="46.31784" lon="-1.0714">
        <ele>3.3</ele>
        <time>2020-06-02T13:19:00Z</time>
      </trkpt>
      <trkpt lat="46.31786" lon="-1.0714">
        <ele>3.3</ele>
        <time>2020-06-02T13:19:01Z</time>
      </trkpt>
      <trkpt lat="46.31787" lon="-1.0714">
        <ele>3.3</ele>
        <time>2020-06-02T13:19:02Z</time>
      </trkpt>
      <trkpt lat="46.31789" lon="-1.0714">
        <ele>3.3</ele>
        <time>2020-06-02T13:19:03Z</time>
      </trkpt>
      <trkpt lat="46.3179" lon="-1.0714">
        <ele>3.3</ele>
        <time>2020-06-02T13:19:04Z</time>
      </trkpt>
      <trkpt lat="46.31792" lon="-1.0714">
        <ele>3.4</ele>
        <time>2020-06-02T13:19:05Z</time>
      </trkpt>
      <trkpt lat="46.31795" lon="-1.07138">
        <ele>3.4</ele>
        <time>2020-06-02T13:19:06Z</time>
      </trkpt>
      <trkpt lat="46.31796" lon="-1.07138">
        <ele>3.4</ele>
        <time>2020-06-02T13:19:07Z</time>
      </trkpt>
      <trkpt lat="46.31799" lon="-1.07138">
        <ele>3.4</ele>
        <time>2020-06-02T13:19:08Z</time>
      </trkpt>
      <trkpt lat="46.31802" lon="-1.07138">
        <ele>3.4</ele>
        <time>2020-06-02T13:19:09Z</time>
      </trkpt>
      <trkpt lat="46.31806" lon="-1.07138">
        <ele>3.4</ele>
        <time>2020-06-02T13:19:10Z</time>
      </trkpt>
      <trkpt lat="46.3181" lon="-1.07137">
        <ele>3.4</ele>
        <time>2020-06-02T13:19:11Z</time>
      </trkpt>
      <trkpt lat="46.31814" lon="-1.07138">
        <ele>3.4</ele>
        <time>2020-06-02T13:19:12Z</time>
      </trkpt>
      <trkpt lat="46.31818" lon="-1.07138">
        <ele>3.4</ele>
        <time>2020-06-02T13:19:13Z</time>
      </trkpt>
      <trkpt lat="46.31822" lon="-1.07138">
        <ele>3.4</ele>
        <time>2020-06-02T13:19:14Z</time>
      </trkpt>
      <trkpt lat="46.31826" lon="-1.07138">
        <ele>3.4</ele>
        <time>2020-06-02T13:19:15Z</time>
      </trkpt>
      <trkpt lat="46.31829" lon="-1.07137">
        <ele>3.4</ele>
        <time>2020-06-02T13:19:16Z</time>
      </trkpt>
      <trkpt lat="46.31833" lon="-1.07136">
        <ele>3.4</ele>
        <time>2020-06-02T13:19:17Z</time>
      </trkpt>
      <trkpt lat="46.31837" lon="-1.07137">
        <ele>3.3</ele>
        <time>2020-06-02T13:19:18Z</time>
      </trkpt>
      <trkpt lat="46.3184" lon="-1.07138">
        <ele>3.3</ele>
        <time>2020-06-02T13:19:19Z</time>
      </trkpt>
      <trkpt lat="46.31843" lon="-1.0714">
        <ele>3.3</ele>
        <time>2020-06-02T13:19:20Z</time>
      </trkpt>
      <trkpt lat="46.31847" lon="-1.07142">
        <ele>3.3</ele>
        <time>2020-06-02T13:19:21Z</time>
      </trkpt>
      <trkpt lat="46.3185" lon="-1.07143">
        <ele>3.2</ele>
        <time>2020-06-02T13:19:22Z</time>
      </trkpt>
      <trkpt lat="46.31853" lon="-1.07145">
        <ele>3.2</ele>
        <time>2020-06-02T13:19:23Z</time>
      </trkpt>
      <trkpt lat="46.31856" lon="-1.07148">
        <ele>3.2</ele>
        <time>2020-06-02T13:19:24Z</time>
      </trkpt>
      <trkpt lat="46.31859" lon="-1.07151">
        <ele>3.2</ele>
        <time>2020-06-02T13:19:25Z</time>
      </trkpt>
      <trkpt lat="46.31861" lon="-1.07155">
        <ele>3.2</ele>
        <time>2020-06-02T13:19:26Z</time>
      </trkpt>
      <trkpt lat="46.31863" lon="-1.0716">
        <ele>3.2</ele>
        <time>2020-06-02T13:19:27Z</time>
      </trkpt>
      <trkpt lat="46.31866" lon="-1.07164">
        <ele>3.2</ele>
        <time>2020-06-02T13:19:28Z</time>
      </trkpt>
      <trkpt lat="46.31868" lon="-1.07169">
        <ele>3.2</ele>
        <time>2020-06-02T13:19:29Z</time>
      </trkpt>
      <trkpt lat="46.3187" lon="-1.07175">
        <ele>3.2</ele>
        <time>2020-06-02T13:19:30Z</time>
      </trkpt>
      <trkpt lat="46.31872" lon="-1.07179">
        <ele>3.3</ele>
        <time>2020-06-02T13:19:31Z</time>
      </trkpt>
      <trkpt lat="46.31874" lon="-1.07184">
        <ele>3.3</ele>
        <time>2020-06-02T13:19:32Z</time>
      </trkpt>
      <trkpt lat="46.31876" lon="-1.07189">
        <ele>3.3</ele>
        <time>2020-06-02T13:19:33Z</time>
      </trkpt>
      <trkpt lat="46.31877" lon="-1.07195">
        <ele>3.4</ele>
        <time>2020-06-02T13:19:34Z</time>
      </trkpt>
      <trkpt lat="46.31879" lon="-1.07201">
        <ele>3.4</ele>
        <time>2020-06-02T13:19:35Z</time>
      </trkpt>
      <trkpt lat="46.31881" lon="-1.07206">
        <ele>3.4</ele>
        <time>2020-06-02T13:19:36Z</time>
      </trkpt>
      <trkpt lat="46.31884" lon="-1.07212">
        <ele>3.5</ele>
        <time>2020-06-02T13:19:37Z</time>
      </trkpt>
      <trkpt lat="46.31887" lon="-1.07217">
        <ele>3.5</ele>
        <time>2020-06-02T13:19:38Z</time>
      </trkpt>
      <trkpt lat="46.31889" lon="-1.07222">
        <ele>3.6</ele>
        <time>2020-06-02T13:19:39Z</time>
      </trkpt>
      <trkpt lat="46.31892" lon="-1.07228">
        <ele>3.6</ele>
        <time>2020-06-02T13:19:40Z</time>
      </trkpt>
      <trkpt lat="46.31895" lon="-1.07233">
        <ele>3.7</ele>
        <time>2020-06-02T13:19:41Z</time>
      </trkpt>
      <trkpt lat="46.31897" lon="-1.07239">
        <ele>3.7</ele>
        <time>2020-06-02T13:19:42Z</time>
      </trkpt>
      <trkpt lat="46.31899" lon="-1.07245">
        <ele>3.8</ele>
        <time>2020-06-02T13:19:43Z</time>
      </trkpt>
      <trkpt lat="46.31901" lon="-1.07251">
        <ele>3.8</ele>
        <time>2020-06-02T13:19:44Z</time>
      </trkpt>
      <trkpt lat="46.31904" lon="-1.07258">
        <ele>3.9</ele>
        <time>2020-06-02T13:19:45Z</time>
      </trkpt>
      <trkpt lat="46.31906" lon="-1.07264">
        <ele>3.9</ele>
        <time>2020-06-02T13:19:46Z</time>
      </trkpt>
      <trkpt lat="46.31909" lon="-1.0727">
        <ele>4</ele>
        <time>2020-06-02T13:19:47Z</time>
      </trkpt>
      <trkpt lat="46.31911" lon="-1.07277">
        <ele>4</ele>
        <time>2020-06-02T13:19:48Z</time>
      </trkpt>
      <trkpt lat="46.31913" lon="-1.07283">
        <ele>4.1</ele>
        <time>2020-06-02T13:19:49Z</time>
      </trkpt>
      <trkpt lat="46.31915" lon="-1.07289">
        <ele>4.1</ele>
        <time>2020-06-02T13:19:50Z</time>
      </trkpt>
      <trkpt lat="46.31918" lon="-1.07295">
        <ele>4.1</ele>
        <time>2020-06-02T13:19:51Z</time>
      </trkpt>
      <trkpt lat="46.3192" lon="-1.07302">
        <ele>4.2</ele>
        <time>2020-06-02T13:19:52Z</time>
      </trkpt>
      <trkpt lat="46.31922" lon="-1.07309">
        <ele>4.2</ele>
        <time>2020-06-02T13:19:53Z</time>
      </trkpt>
      <trkpt lat="46.31924" lon="-1.07315">
        <ele>4.2</ele>
        <time>2020-06-02T13:19:54Z</time>
      </trkpt>
      <trkpt lat="46.31927" lon="-1.07322">
        <ele>4.3</ele>
        <time>2020-06-02T13:19:55Z</time>
      </trkpt>
      <trkpt lat="46.31929" lon="-1.07328">
        <ele>4.3</ele>
        <time>2020-06-02T13:19:56Z</time>
      </trkpt>
      <trkpt lat="46.31932" lon="-1.07334">
        <ele>4.3</ele>
        <time>2020-06-02T13:19:57Z</time>
      </trkpt>
      <trkpt lat="46.31933" lon="-1.07341">
        <ele>4.4</ele>
        <time>2020-06-02T13:19:58Z</time>
      </trkpt>
      <trkpt lat="46.31936" lon="-1.07347">
        <ele>4.4</ele>
        <time>2020-06-02T13:19:59Z</time>
      </trkpt>
      <trkpt lat="46.31938" lon="-1.07352">
        <ele>4.5</ele>
        <time>2020-06-02T13:20:00Z</time>
      </trkpt>
      <trkpt lat="46.31939" lon="-1.07357">
        <ele>4.6</ele>
        <time>2020-06-02T13:20:01Z</time>
      </trkpt>
      <trkpt lat="46.31941" lon="-1.07363">
        <ele>4.7</ele>
        <time>2020-06-02T13:20:02Z</time>
      </trkpt>
      <trkpt lat="46.31942" lon="-1.0737">
        <ele>4.8</ele>
        <time>2020-06-02T13:20:03Z</time>
      </trkpt>
      <trkpt lat="46.31943" lon="-1.07376">
        <ele>4.9</ele>
        <time>2020-06-02T13:20:04Z</time>
      </trkpt>
      <trkpt lat="46.31943" lon="-1.07383">
        <ele>5</ele>
        <time>2020-06-02T13:20:05Z</time>
      </trkpt>
      <trkpt lat="46.31944" lon="-1.07389">
        <ele>5.1</ele>
        <time>2020-06-02T13:20:06Z</time>
      </trkpt>
      <trkpt lat="46.31944" lon="-1.07394">
        <ele>5.2</ele>
        <time>2020-06-02T13:20:07Z</time>
      </trkpt>
      <trkpt lat="46.31944" lon="-1.07399">
        <ele>5.3</ele>
        <time>2020-06-02T13:20:08Z</time>
      </trkpt>
      <trkpt lat="46.31944" lon="-1.07405">
        <ele>5.5</ele>
        <time>2020-06-02T13:20:09Z</time>
      </trkpt>
      <trkpt lat="46.31943" lon="-1.07412">
        <ele>5.6</ele>
        <time>2020-06-02T13:20:10Z</time>
      </trkpt>
      <trkpt lat="46.31942" lon="-1.07418">
        <ele>5.7</ele>
        <time>2020-06-02T13:20:11Z</time>
      </trkpt>
      <trkpt lat="46.31942" lon="-1.07423">
        <ele>5.7</ele>
        <time>2020-06-02T13:20:12Z</time>
      </trkpt>
      <trkpt lat="46.31942" lon="-1.07425">
        <ele>5.7</ele>
        <time>2020-06-02T13:20:13Z</time>
      </trkpt>
      <trkpt lat="46.31941" lon="-1.0743">
        <ele>5.7</ele>
        <time>2020-06-02T13:20:14Z</time>
      </trkpt>
      <trkpt lat="46.31941" lon="-1.07432">
        <ele>5.7</ele>
        <time>2020-06-02T13:20:15Z</time>
      </trkpt>
      <trkpt lat="46.3194" lon="-1.07436">
        <ele>5.8</ele>
        <time>2020-06-02T13:20:16Z</time>
      </trkpt>
      <trkpt lat="46.31939" lon="-1.07442">
        <ele>5.8</ele>
        <time>2020-06-02T13:20:17Z</time>
      </trkpt>
      <trkpt lat="46.31939" lon="-1.07445">
        <ele>5.8</ele>
        <time>2020-06-02T13:20:18Z</time>
      </trkpt>
      <trkpt lat="46.31938" lon="-1.0745">
        <ele>5.8</ele>
        <time>2020-06-02T13:20:19Z</time>
      </trkpt>
      <trkpt lat="46.31938" lon="-1.07452">
        <ele>5.8</ele>
        <time>2020-06-02T13:20:20Z</time>
      </trkpt>
      <trkpt lat="46.31937" lon="-1.07455">
        <ele>5.8</ele>
        <time>2020-06-02T13:20:21Z</time>
      </trkpt>
      <trkpt lat="46.31937" lon="-1.07457">
        <ele>5.8</ele>
        <time>2020-06-02T13:20:22Z</time>
      </trkpt>
      <trkpt lat="46.31936" lon="-1.07461">
        <ele>5.8</ele>
        <time>2020-06-02T13:20:23Z</time>
      </trkpt>
      <trkpt lat="46.31936" lon="-1.07463">
        <ele>5.8</ele>
        <time>2020-06-02T13:20:24Z</time>
      </trkpt>
      <trkpt lat="46.31936" lon="-1.07465">
        <ele>5.8</ele>
        <time>2020-06-02T13:20:25Z</time>
      </trkpt>
      <trkpt lat="46.31935" lon="-1.07467">
        <ele>5.8</ele>
        <time>2020-06-02T13:20:26Z</time>
      </trkpt>
      <trkpt lat="46.31934" lon="-1.07469">
        <ele>5.8</ele>
        <time>2020-06-02T13:20:27Z</time>
      </trkpt>
      <trkpt lat="46.31933" lon="-1.07472">
        <ele>5.8</ele>
        <time>2020-06-02T13:20:28Z</time>
      </trkpt>
      <trkpt lat="46.31933" lon="-1.07476">
        <ele>5.8</ele>
        <time>2020-06-02T13:20:29Z</time>
      </trkpt>
      <trkpt lat="46.31933" lon="-1.07478">
        <ele>5.8</ele>
        <time>2020-06-02T13:20:30Z</time>
      </trkpt>
      <trkpt lat="46.31933" lon="-1.07483">
        <ele>5.8</ele>
        <time>2020-06-02T13:20:31Z</time>
      </trkpt>
      <trkpt lat="46.31933" lon="-1.07485">
        <ele>5.8</ele>
        <time>2020-06-02T13:20:32Z</time>
      </trkpt>
      <trkpt lat="46.31932" lon="-1.0749">
        <ele>5.8</ele>
        <time>2020-06-02T13:20:33Z</time>
      </trkpt>
      <trkpt lat="46.31932" lon="-1.07492">
        <ele>5.8</ele>
        <time>2020-06-02T13:20:34Z</time>
      </trkpt>
      <trkpt lat="46.31932" lon="-1.07496">
        <ele>5.8</ele>
        <time>2020-06-02T13:20:35Z</time>
      </trkpt>
      <trkpt lat="46.31931" lon="-1.075">
        <ele>5.8</ele>
        <time>2020-06-02T13:20:36Z</time>
      </trkpt>
      <trkpt lat="46.3193" lon="-1.07504">
        <ele>5.8</ele>
        <time>2020-06-02T13:20:37Z</time>
      </trkpt>
      <trkpt lat="46.3193" lon="-1.07506">
        <ele>5.8</ele>
        <time>2020-06-02T13:20:38Z</time>
      </trkpt>
      <trkpt lat="46.31929" lon="-1.07508">
        <ele>5.8</ele>
        <time>2020-06-02T13:20:39Z</time>
      </trkpt>
      <trkpt lat="46.31929" lon="-1.0751">
        <ele>5.8</ele>
        <time>2020-06-02T13:20:40Z</time>
      </trkpt>
      <trkpt lat="46.31929" lon="-1.07509">
        <ele>5.8</ele>
        <time>2020-06-02T13:20:41Z</time>
      </trkpt>
      <trkpt lat="46.31928" lon="-1.0751">
        <ele>5.8</ele>
        <time>2020-06-02T13:20:42Z</time>
      </trkpt>
      <trkpt lat="46.31928" lon="-1.0751">
        <ele>5.8</ele>
        <time>2020-06-02T13:20:43Z</time>
      </trkpt>
      <trkpt lat="46.31928" lon="-1.07509">
        <ele>5.8</ele>
        <time>2020-06-02T13:20:44Z</time>
      </trkpt>
      <trkpt lat="46.31928" lon="-1.07509">
        <ele>5.8</ele>
        <time>2020-06-02T13:20:45Z</time>
      </trkpt>
      <trkpt lat="46.31928" lon="-1.07509">
        <ele>5.8</ele>
        <time>2020-06-02T13:20:46Z</time>
      </trkpt>
      <trkpt lat="46.31927" lon="-1.07508">
        <ele>5.8</ele>
        <time>2020-06-02T13:20:47Z</time>
      </trkpt>
      <trkpt lat="46.31927" lon="-1.07508">
        <ele>5.8</ele>
        <time>2020-06-02T13:20:48Z</time>
      </trkpt>
      <trkpt lat="46.31926" lon="-1.07508">
        <ele>5.8</ele>
        <time>2020-06-02T13:20:49Z</time>
      </trkpt>
      <trkpt lat="46.31926" lon="-1.07507">
        <ele>5.8</ele>
        <time>2020-06-02T13:20:50Z</time>
      </trkpt>
      <trkpt lat="46.31927" lon="-1.07507">
        <ele>5.8</ele>
        <time>2020-06-02T13:20:51Z</time>
      </trkpt>
      <trkpt lat="46.31926" lon="-1.07507">
        <ele>5.8</ele>
        <time>2020-06-02T13:20:52Z</time>
      </trkpt>
      <trkpt lat="46.31926" lon="-1.07507">
        <ele>5.8</ele>
        <time>2020-06-02T13:20:53Z</time>
      </trkpt>
      <trkpt lat="46.31926" lon="-1.07505">
        <ele>5.8</ele>
        <time>2020-06-02T13:20:54Z</time>
      </trkpt>
      <trkpt lat="46.31926" lon="-1.07505">
        <ele>5.8</ele>
        <time>2020-06-02T13:20:55Z</time>
      </trkpt>
      <trkpt lat="46.31926" lon="-1.07505">
        <ele>5.8</ele>
        <time>2020-06-02T13:20:56Z</time>
      </trkpt>
      <trkpt lat="46.31927" lon="-1.07505">
        <ele>5.8</ele>
        <time>2020-06-02T13:20:57Z</time>
      </trkpt>
      <trkpt lat="46.31927" lon="-1.07505">
        <ele>5.8</ele>
        <time>2020-06-02T13:20:58Z</time>
      </trkpt>
      <trkpt lat="46.31927" lon="-1.07504">
        <ele>5.8</ele>
        <time>2020-06-02T13:20:59Z</time>
      </trkpt>
      <trkpt lat="46.31927" lon="-1.07503">
        <ele>5.8</ele>
        <time>2020-06-02T13:21:00Z</time>
      </trkpt>
      <trkpt lat="46.31928" lon="-1.07503">
        <ele>5.8</ele>
        <time>2020-06-02T13:21:01Z</time>
      </trkpt>
      <trkpt lat="46.31928" lon="-1.07503">
        <ele>5.8</ele>
        <time>2020-06-02T13:21:02Z</time>
      </trkpt>
      <trkpt lat="46.31928" lon="-1.07503">
        <ele>5.8</ele>
        <time>2020-06-02T13:21:03Z</time>
      </trkpt>
      <trkpt lat="46.31929" lon="-1.07503">
        <ele>5.8</ele>
        <time>2020-06-02T13:21:04Z</time>
      </trkpt>
      <trkpt lat="46.31929" lon="-1.07502">
        <ele>5.8</ele>
        <time>2020-06-02T13:21:05Z</time>
      </trkpt>
      <trkpt lat="46.31929" lon="-1.07503">
        <ele>5.8</ele>
        <time>2020-06-02T13:21:06Z</time>
      </trkpt>
      <trkpt lat="46.31929" lon="-1.07504">
        <ele>5.8</ele>
        <time>2020-06-02T13:21:07Z</time>
      </trkpt>
      <trkpt lat="46.31929" lon="-1.07505">
        <ele>5.8</ele>
        <time>2020-06-02T13:21:08Z</time>
      </trkpt>
      <trkpt lat="46.31928" lon="-1.07505">
        <ele>5.8</ele>
        <time>2020-06-02T13:21:09Z</time>
      </trkpt>
      <trkpt lat="46.31928" lon="-1.07505">
        <ele>5.8</ele>
        <time>2020-06-02T13:21:10Z</time>
      </trkpt>
      <trkpt lat="46.31928" lon="-1.07505">
        <ele>5.8</ele>
        <time>2020-06-02T13:21:11Z</time>
      </trkpt>
      <trkpt lat="46.31928" lon="-1.07506">
        <ele>5.8</ele>
        <time>2020-06-02T13:21:12Z</time>
      </trkpt>
      <trkpt lat="46.31928" lon="-1.07506">
        <ele>5.8</ele>
        <time>2020-06-02T13:21:13Z</time>
      </trkpt>
      <trkpt lat="46.31928" lon="-1.07506">
        <ele>5.8</ele>
        <time>2020-06-02T13:21:14Z</time>
      </trkpt>
      <trkpt lat="46.31928" lon="-1.07506">
        <ele>5.8</ele>
        <time>2020-06-02T13:21:15Z</time>
      </trkpt>
      <trkpt lat="46.31928" lon="-1.07506">
        <ele>5.8</ele>
        <time>2020-06-02T13:21:16Z</time>
      </trkpt>
      <trkpt lat="46.31928" lon="-1.07506">
        <ele>5.8</ele>
        <time>2020-06-02T13:21:17Z</time>
      </trkpt>
      <trkpt lat="46.31928" lon="-1.07506">
        <ele>5.8</ele>
        <time>2020-06-02T13:21:18Z</time>
      </trkpt>
      <trkpt lat="46.31928" lon="-1.07506">
        <ele>5.8</ele>
        <time>2020-06-02T13:21:19Z</time>
      </trkpt>
      <trkpt lat="46.31928" lon="-1.07506">
        <ele>5.8</ele>
        <time>2020-06-02T13:21:20Z</time>
      </trkpt>
      <trkpt lat="46.31928" lon="-1.07506">
        <ele>5.8</ele>
        <time>2020-06-02T13:21:21Z</time>
      </trkpt>
      <trkpt lat="46.31928" lon="-1.07506">
        <ele>5.8</ele>
        <time>2020-06-02T13:21:22Z</time>
      </trkpt>
      <trkpt lat="46.31928" lon="-1.07506">
        <ele>5.8</ele>
        <time>2020-06-02T13:21:23Z</time>
      </trkpt>
      <trkpt lat="46.31928" lon="-1.07506">
        <ele>5.8</ele>
        <time>2020-06-02T13:21:24Z</time>
      </trkpt>
      <trkpt lat="46.31928" lon="-1.07506">
        <ele>5.8</ele>
        <time>2020-06-02T13:21:25Z</time>
      </trkpt>
      <trkpt lat="46.31928" lon="-1.07506">
        <ele>5.8</ele>
        <time>2020-06-02T13:21:26Z</time>
      </trkpt>
      <trkpt lat="46.31928" lon="-1.07507">
        <ele>5.8</ele>
        <time>2020-06-02T13:21:27Z</time>
      </trkpt>
      <trkpt lat="46.31928" lon="-1.07507">
        <ele>5.8</ele>
        <time>2020-06-02T13:21:28Z</time>
      </trkpt>
      <trkpt lat="46.31928" lon="-1.07507">
        <ele>5.8</ele>
        <time>2020-06-02T13:21:29Z</time>
      </trkpt>
      <trkpt lat="46.31928" lon="-1.07507">
        <ele>5.8</ele>
        <time>2020-06-02T13:21:30Z</time>
      </trkpt>
      <trkpt lat="46.31928" lon="-1.07507">
        <ele>5.8</ele>
        <time>2020-06-02T13:21:31Z</time>
      </trkpt>
      <trkpt lat="46.31928" lon="-1.07507">
        <ele>5.8</ele>
        <time>2020-06-02T13:21:32Z</time>
      </trkpt>
      <trkpt lat="46.31927" lon="-1.07507">
        <ele>5.8</ele>
        <time>2020-06-02T13:21:33Z</time>
      </trkpt>
      <trkpt lat="46.31927" lon="-1.07507">
        <ele>5.8</ele>
        <time>2020-06-02T13:21:34Z</time>
      </trkpt>
      <trkpt lat="46.31927" lon="-1.07507">
        <ele>5.8</ele>
        <time>2020-06-02T13:21:35Z</time>
      </trkpt>
      <trkpt lat="46.31927" lon="-1.07507">
        <ele>5.8</ele>
        <time>2020-06-02T13:21:36Z</time>
      </trkpt>
      <trkpt lat="46.31927" lon="-1.07507">
        <ele>5.8</ele>
        <time>2020-06-02T13:21:37Z</time>
      </trkpt>
      <trkpt lat="46.31927" lon="-1.07507">
        <ele>5.8</ele>
        <time>2020-06-02T13:21:38Z</time>
      </trkpt>
      <trkpt lat="46.31927" lon="-1.07507">
        <ele>5.8</ele>
        <time>2020-06-02T13:21:39Z</time>
      </trkpt>
      <trkpt lat="46.31927" lon="-1.07507">
        <ele>5.8</ele>
        <time>2020-06-02T13:21:40Z</time>
      </trkpt>
      <trkpt lat="46.31927" lon="-1.07507">
        <ele>5.8</ele>
        <time>2020-06-02T13:21:41Z</time>
      </trkpt>
      <trkpt lat="46.31927" lon="-1.07507">
        <ele>5.8</ele>
        <time>2020-06-02T13:21:42Z</time>
      </trkpt>
      <trkpt lat="46.31927" lon="-1.07507">
        <ele>5.8</ele>
        <time>2020-06-02T13:21:43Z</time>
      </trkpt>
      <trkpt lat="46.31927" lon="-1.07507">
        <ele>5.8</ele>
        <time>2020-06-02T13:21:44Z</time>
      </trkpt>
      <trkpt lat="46.31927" lon="-1.07507">
        <ele>5.8</ele>
        <time>2020-06-02T13:21:45Z</time>
      </trkpt>
      <trkpt lat="46.31927" lon="-1.07507">
        <ele>5.8</ele>
        <time>2020-06-02T13:21:46Z</time>
      </trkpt>
      <trkpt lat="46.31927" lon="-1.07507">
        <ele>5.8</ele>
        <time>2020-06-02T13:21:47Z</time>
      </trkpt>
      <trkpt lat="46.31927" lon="-1.07507">
        <ele>5.8</ele>
        <time>2020-06-02T13:21:48Z</time>
      </trkpt>
      <trkpt lat="46.31927" lon="-1.07507">
        <ele>5.8</ele>
        <time>2020-06-02T13:21:49Z</time>
      </trkpt>
      <trkpt lat="46.31927" lon="-1.07507">
        <ele>5.8</ele>
        <time>2020-06-02T13:21:50Z</time>
      </trkpt>
      <trkpt lat="46.31927" lon="-1.07507">
        <ele>5.8</ele>
        <time>2020-06-02T13:21:51Z</time>
      </trkpt>
      <trkpt lat="46.31927" lon="-1.07507">
        <ele>5.8</ele>
        <time>2020-06-02T13:21:52Z</time>
      </trkpt>
      <trkpt lat="46.31927" lon="-1.07507">
        <ele>5.8</ele>
        <time>2020-06-02T13:21:53Z</time>
      </trkpt>
      <trkpt lat="46.31927" lon="-1.07507">
        <ele>5.8</ele>
        <time>2020-06-02T13:21:54Z</time>
      </trkpt>
      <trkpt lat="46.31927" lon="-1.07507">
        <ele>5.8</ele>
        <time>2020-06-02T13:21:55Z</time>
      </trkpt>
      <trkpt lat="46.31927" lon="-1.07507">
        <ele>5.8</ele>
        <time>2020-06-02T13:21:56Z</time>
      </trkpt>
      <trkpt lat="46.31927" lon="-1.07507">
        <ele>5.8</ele>
        <time>2020-06-02T13:21:57Z</time>
      </trkpt>
      <trkpt lat="46.31927" lon="-1.07507">
        <ele>5.8</ele>
        <time>2020-06-02T13:21:58Z</time>
      </trkpt>
      <trkpt lat="46.31927" lon="-1.07507">
        <ele>5.8</ele>
        <time>2020-06-02T13:21:59Z</time>
      </trkpt>
      <trkpt lat="46.31927" lon="-1.07507">
        <ele>5.8</ele>
        <time>2020-06-02T13:22:00Z</time>
      </trkpt>
      <trkpt lat="46.31927" lon="-1.07507">
        <ele>5.8</ele>
        <time>2020-06-02T13:22:01Z</time>
      </trkpt>
      <trkpt lat="46.31927" lon="-1.07507">
        <ele>5.8</ele>
        <time>2020-06-02T13:22:02Z</time>
      </trkpt>
      <trkpt lat="46.31927" lon="-1.07507">
        <ele>5.8</ele>
        <time>2020-06-02T13:22:03Z</time>
      </trkpt>
      <trkpt lat="46.31927" lon="-1.07507">
        <ele>5.8</ele>
        <time>2020-06-02T13:22:04Z</time>
      </trkpt>
      <trkpt lat="46.31927" lon="-1.07507">
        <ele>5.8</ele>
        <time>2020-06-02T13:22:05Z</time>
      </trkpt>
      <trkpt lat="46.31927" lon="-1.07507">
        <ele>5.8</ele>
        <time>2020-06-02T13:22:06Z</time>
      </trkpt>
      <trkpt lat="46.31927" lon="-1.07507">
        <ele>5.8</ele>
        <time>2020-06-02T13:22:07Z</time>
      </trkpt>
      <trkpt lat="46.31927" lon="-1.07507">
        <ele>5.8</ele>
        <time>2020-06-02T13:22:08Z</time>
      </trkpt>
      <trkpt lat="46.31927" lon="-1.07507">
        <ele>5.8</ele>
        <time>2020-06-02T13:22:09Z</time>
      </trkpt>
      <trkpt lat="46.31927" lon="-1.07507">
        <ele>5.8</ele>
        <time>2020-06-02T13:22:10Z</time>
      </trkpt>
      <trkpt lat="46.31927" lon="-1.07507">
        <ele>5.8</ele>
        <time>2020-06-02T13:22:11Z</time>
      </trkpt>
      <trkpt lat="46.31927" lon="-1.07507">
        <ele>5.8</ele>
        <time>2020-06-02T13:22:12Z</time>
      </trkpt>
      <trkpt lat="46.31927" lon="-1.07507">
        <ele>5.8</ele>
        <time>2020-06-02T13:22:13Z</time>
      </trkpt>
      <trkpt lat="46.31927" lon="-1.07507">
        <ele>5.8</ele>
        <time>2020-06-02T13:22:14Z</time>
      </trkpt>
      <trkpt lat="46.31927" lon="-1.07508">
        <ele>5.8</ele>
        <time>2020-06-02T13:22:15Z</time>
      </trkpt>
      <trkpt lat="46.31927" lon="-1.07507">
        <ele>5.8</ele>
        <time>2020-06-02T13:22:16Z</time>
      </trkpt>
      <trkpt lat="46.31927" lon="-1.07507">
        <ele>5.8</ele>
        <time>2020-06-02T13:22:17Z</time>
      </trkpt>
      <trkpt lat="46.31927" lon="-1.07507">
        <ele>5.8</ele>
        <time>2020-06-02T13:22:18Z</time>
      </trkpt>
      <trkpt lat="46.31927" lon="-1.07507">
        <ele>5.8</ele>
        <time>2020-06-02T13:22:19Z</time>
      </trkpt>
      <trkpt lat="46.31927" lon="-1.07507">
        <ele>5.8</ele>
        <time>2020-06-02T13:22:20Z</time>
      </trkpt>
      <trkpt lat="46.31927" lon="-1.07507">
        <ele>5.8</ele>
        <time>2020-06-02T13:22:21Z</time>
      </trkpt>
      <trkpt lat="46.31927" lon="-1.07507">
        <ele>5.8</ele>
        <time>2020-06-02T13:22:22Z</time>
      </trkpt>
      <trkpt lat="46.31927" lon="-1.07507">
        <ele>5.8</ele>
        <time>2020-06-02T13:22:23Z</time>
      </trkpt>
      <trkpt lat="46.31927" lon="-1.07507">
        <ele>5.8</ele>
        <time>2020-06-02T13:22:24Z</time>
      </trkpt>
      <trkpt lat="46.31927" lon="-1.07507">
        <ele>5.8</ele>
        <time>2020-06-02T13:22:25Z</time>
      </trkpt>
      <trkpt lat="46.31927" lon="-1.07507">
        <ele>5.8</ele>
        <time>2020-06-02T13:22:26Z</time>
      </trkpt>
      <trkpt lat="46.31927" lon="-1.07507">
        <ele>5.8</ele>
        <time>2020-06-02T13:22:27Z</time>
      </trkpt>
      <trkpt lat="46.31927" lon="-1.07507">
        <ele>5.8</ele>
        <time>2020-06-02T13:22:28Z</time>
      </trkpt>
      <trkpt lat="46.31927" lon="-1.07507">
        <ele>5.8</ele>
        <time>2020-06-02T13:22:29Z</time>
      </trkpt>
      <trkpt lat="46.31927" lon="-1.07507">
        <ele>5.8</ele>
        <time>2020-06-02T13:22:30Z</time>
      </trkpt>
      <trkpt lat="46.31927" lon="-1.07507">
        <ele>5.8</ele>
        <time>2020-06-02T13:22:31Z</time>
      </trkpt>
      <trkpt lat="46.31927" lon="-1.07507">
        <ele>5.8</ele>
        <time>2020-06-02T13:22:32Z</time>
      </trkpt>
      <trkpt lat="46.31927" lon="-1.07507">
        <ele>5.8</ele>
        <time>2020-06-02T13:22:33Z</time>
      </trkpt>
      <trkpt lat="46.31927" lon="-1.07507">
        <ele>5.8</ele>
        <time>2020-06-02T13:22:34Z</time>
      </trkpt>
      <trkpt lat="46.31927" lon="-1.07507">
        <ele>5.8</ele>
        <time>2020-06-02T13:22:35Z</time>
      </trkpt>
      <trkpt lat="46.31927" lon="-1.07507">
        <ele>5.8</ele>
        <time>2020-06-02T13:22:36Z</time>
      </trkpt>
      <trkpt lat="46.31928" lon="-1.07507">
        <ele>5.8</ele>
        <time>2020-06-02T13:22:37Z</time>
      </trkpt>
      <trkpt lat="46.31927" lon="-1.07507">
        <ele>5.8</ele>
        <time>2020-06-02T13:22:38Z</time>
      </trkpt>
      <trkpt lat="46.31927" lon="-1.07507">
        <ele>5.8</ele>
        <time>2020-06-02T13:22:39Z</time>
      </trkpt>
      <trkpt lat="46.31927" lon="-1.07507">
        <ele>5.8</ele>
        <time>2020-06-02T13:22:40Z</time>
      </trkpt>
      <trkpt lat="46.31927" lon="-1.07507">
        <ele>5.8</ele>
        <time>2020-06-02T13:22:41Z</time>
      </trkpt>
      <trkpt lat="46.31927" lon="-1.07507">
        <ele>5.8</ele>
        <time>2020-06-02T13:22:42Z</time>
      </trkpt>
      <trkpt lat="46.31927" lon="-1.07507">
        <ele>5.8</ele>
        <time>2020-06-02T13:22:43Z</time>
      </trkpt>
      <trkpt lat="46.31927" lon="-1.07507">
        <ele>5.8</ele>
        <time>2020-06-02T13:22:44Z</time>
      </trkpt>
      <trkpt lat="46.31927" lon="-1.07507">
        <ele>5.8</ele>
        <time>2020-06-02T13:22:45Z</time>
      </trkpt>
      <trkpt lat="46.31927" lon="-1.07507">
        <ele>5.8</ele>
        <time>2020-06-02T13:22:46Z</time>
      </trkpt>
      <trkpt lat="46.31927" lon="-1.07507">
        <ele>5.8</ele>
        <time>2020-06-02T13:22:47Z</time>
      </trkpt>
      <trkpt lat="46.31927" lon="-1.07507">
        <ele>5.8</ele>
        <time>2020-06-02T13:22:48Z</time>
      </trkpt>
      <trkpt lat="46.31927" lon="-1.07507">
        <ele>5.8</ele>
        <time>2020-06-02T13:22:49Z</time>
      </trkpt>
      <trkpt lat="46.31927" lon="-1.07507">
        <ele>5.8</ele>
        <time>2020-06-02T13:22:50Z</time>
      </trkpt>
      <trkpt lat="46.31927" lon="-1.07507">
        <ele>5.8</ele>
        <time>2020-06-02T13:22:51Z</time>
      </trkpt>
      <trkpt lat="46.31927" lon="-1.07507">
        <ele>5.8</ele>
        <time>2020-06-02T13:22:52Z</time>
      </trkpt>
      <trkpt lat="46.31927" lon="-1.07507">
        <ele>5.8</ele>
        <time>2020-06-02T13:22:53Z</time>
      </trkpt>
      <trkpt lat="46.31927" lon="-1.07507">
        <ele>5.8</ele>
        <time>2020-06-02T13:22:54Z</time>
      </trkpt>
      <trkpt lat="46.31927" lon="-1.07507">
        <ele>5.8</ele>
        <time>2020-06-02T13:22:55Z</time>
      </trkpt>
      <trkpt lat="46.31927" lon="-1.07507">
        <ele>5.8</ele>
        <time>2020-06-02T13:22:56Z</time>
      </trkpt>
      <trkpt lat="46.31927" lon="-1.07507">
        <ele>5.8</ele>
        <time>2020-06-02T13:22:57Z</time>
      </trkpt>
      <trkpt lat="46.31927" lon="-1.07507">
        <ele>5.8</ele>
        <time>2020-06-02T13:22:58Z</time>
      </trkpt>
      <trkpt lat="46.31927" lon="-1.07507">
        <ele>5.8</ele>
        <time>2020-06-02T13:22:59Z</time>
      </trkpt>
      <trkpt lat="46.31927" lon="-1.07506">
        <ele>5.8</ele>
        <time>2020-06-02T13:23:00Z</time>
      </trkpt>
      <trkpt lat="46.31927" lon="-1.07507">
        <ele>5.8</ele>
        <time>2020-06-02T13:23:01Z</time>
      </trkpt>
      <trkpt lat="46.31928" lon="-1.07507">
        <ele>5.8</ele>
        <time>2020-06-02T13:23:02Z</time>
      </trkpt>
      <trkpt lat="46.31928" lon="-1.07505">
        <ele>5.8</ele>
        <time>2020-06-02T13:23:03Z</time>
      </trkpt>
      <trkpt lat="46.31928" lon="-1.07505">
        <ele>5.8</ele>
        <time>2020-06-02T13:23:04Z</time>
      </trkpt>
      <trkpt lat="46.31928" lon="-1.07505">
        <ele>5.8</ele>
        <time>2020-06-02T13:23:05Z</time>
      </trkpt>
      <trkpt lat="46.31928" lon="-1.07505">
        <ele>5.8</ele>
        <time>2020-06-02T13:23:06Z</time>
      </trkpt>
      <trkpt lat="46.31928" lon="-1.07505">
        <ele>5.8</ele>
        <time>2020-06-02T13:23:07Z</time>
      </trkpt>
      <trkpt lat="46.31928" lon="-1.07505">
        <ele>5.8</ele>
        <time>2020-06-02T13:23:08Z</time>
      </trkpt>
      <trkpt lat="46.31928" lon="-1.07505">
        <ele>5.8</ele>
        <time>2020-06-02T13:23:09Z</time>
      </trkpt>
      <trkpt lat="46.31928" lon="-1.07505">
        <ele>5.8</ele>
        <time>2020-06-02T13:23:10Z</time>
      </trkpt>
      <trkpt lat="46.31928" lon="-1.07505">
        <ele>5.8</ele>
        <time>2020-06-02T13:23:11Z</time>
      </trkpt>
      <trkpt lat="46.31928" lon="-1.07505">
        <ele>5.8</ele>
        <time>2020-06-02T13:23:12Z</time>
      </trkpt>
      <trkpt lat="46.31928" lon="-1.07505">
        <ele>5.8</ele>
        <time>2020-06-02T13:23:13Z</time>
      </trkpt>
      <trkpt lat="46.31928" lon="-1.07505">
        <ele>5.8</ele>
        <time>2020-06-02T13:23:14Z</time>
      </trkpt>
      <trkpt lat="46.31928" lon="-1.07505">
        <ele>5.8</ele>
        <time>2020-06-02T13:23:15Z</time>
      </trkpt>
      <trkpt lat="46.31928" lon="-1.07505">
        <ele>5.8</ele>
        <time>2020-06-02T13:23:16Z</time>
      </trkpt>
      <trkpt lat="46.31928" lon="-1.07506">
        <ele>5.8</ele>
        <time>2020-06-02T13:23:17Z</time>
      </trkpt>
      <trkpt lat="46.31928" lon="-1.07506">
        <ele>5.8</ele>
        <time>2020-06-02T13:23:18Z</time>
      </trkpt>
      <trkpt lat="46.31928" lon="-1.07506">
        <ele>5.8</ele>
        <time>2020-06-02T13:23:19Z</time>
      </trkpt>
      <trkpt lat="46.31927" lon="-1.07506">
        <ele>5.8</ele>
        <time>2020-06-02T13:23:20Z</time>
      </trkpt>
      <trkpt lat="46.31927" lon="-1.07506">
        <ele>5.8</ele>
        <time>2020-06-02T13:23:21Z</time>
      </trkpt>
      <trkpt lat="46.31927" lon="-1.07506">
        <ele>5.8</ele>
        <time>2020-06-02T13:23:22Z</time>
      </trkpt>
      <trkpt lat="46.31927" lon="-1.07506">
        <ele>5.8</ele>
        <time>2020-06-02T13:23:23Z</time>
      </trkpt>
      <trkpt lat="46.31927" lon="-1.07506">
        <ele>5.8</ele>
        <time>2020-06-02T13:23:24Z</time>
      </trkpt>
      <trkpt lat="46.31927" lon="-1.07506">
        <ele>5.8</ele>
        <time>2020-06-02T13:23:25Z</time>
      </trkpt>
      <trkpt lat="46.31927" lon="-1.07506">
        <ele>5.8</ele>
        <time>2020-06-02T13:23:26Z</time>
      </trkpt>
      <trkpt lat="46.31927" lon="-1.07506">
        <ele>5.8</ele>
        <time>2020-06-02T13:23:27Z</time>
      </trkpt>
      <trkpt lat="46.31927" lon="-1.07507">
        <ele>5.8</ele>
        <time>2020-06-02T13:23:28Z</time>
      </trkpt>
      <trkpt lat="46.31927" lon="-1.07507">
        <ele>5.8</ele>
        <time>2020-06-02T13:23:29Z</time>
      </trkpt>
      <trkpt lat="46.31927" lon="-1.07507">
        <ele>5.8</ele>
        <time>2020-06-02T13:23:30Z</time>
      </trkpt>
      <trkpt lat="46.31927" lon="-1.07507">
        <ele>5.8</ele>
        <time>2020-06-02T13:23:31Z</time>
      </trkpt>
      <trkpt lat="46.31927" lon="-1.07507">
        <ele>5.8</ele>
        <time>2020-06-02T13:23:32Z</time>
      </trkpt>
      <trkpt lat="46.31927" lon="-1.07507">
        <ele>5.8</ele>
        <time>2020-06-02T13:23:33Z</time>
      </trkpt>
      <trkpt lat="46.31927" lon="-1.07507">
        <ele>5.8</ele>
        <time>2020-06-02T13:23:34Z</time>
      </trkpt>
      <trkpt lat="46.31927" lon="-1.07507">
        <ele>5.8</ele>
        <time>2020-06-02T13:23:35Z</time>
      </trkpt>
      <trkpt lat="46.31927" lon="-1.07507">
        <ele>5.8</ele>
        <time>2020-06-02T13:23:36Z</time>
      </trkpt>
      <trkpt lat="46.31927" lon="-1.07507">
        <ele>5.8</ele>
        <time>2020-06-02T13:23:37Z</time>
      </trkpt>
      <trkpt lat="46.31927" lon="-1.07507">
        <ele>5.8</ele>
        <time>2020-06-02T13:23:38Z</time>
      </trkpt>
      <trkpt lat="46.31927" lon="-1.07508">
        <ele>5.8</ele>
        <time>2020-06-02T13:23:39Z</time>
      </trkpt>
      <trkpt lat="46.31927" lon="-1.07508">
        <ele>5.8</ele>
        <time>2020-06-02T13:23:40Z</time>
      </trkpt>
      <trkpt lat="46.31927" lon="-1.07508">
        <ele>5.8</ele>
        <time>2020-06-02T13:23:41Z</time>
      </trkpt>
      <trkpt lat="46.31927" lon="-1.07508">
        <ele>5.8</ele>
        <time>2020-06-02T13:23:42Z</time>
      </trkpt>
      <trkpt lat="46.31927" lon="-1.07508">
        <ele>5.8</ele>
        <time>2020-06-02T13:23:43Z</time>
      </trkpt>
      <trkpt lat="46.31927" lon="-1.07508">
        <ele>5.8</ele>
        <time>2020-06-02T13:23:44Z</time>
      </trkpt>
      <trkpt lat="46.31927" lon="-1.07508">
        <ele>5.8</ele>
        <time>2020-06-02T13:23:45Z</time>
      </trkpt>
      <trkpt lat="46.31927" lon="-1.07508">
        <ele>5.8</ele>
        <time>2020-06-02T13:23:46Z</time>
      </trkpt>
      <trkpt lat="46.31927" lon="-1.07508">
        <ele>5.8</ele>
        <time>2020-06-02T13:23:47Z</time>
      </trkpt>
      <trkpt lat="46.31927" lon="-1.07508">
        <ele>5.8</ele>
        <time>2020-06-02T13:23:48Z</time>
      </trkpt>
      <trkpt lat="46.31927" lon="-1.07508">
        <ele>5.8</ele>
        <time>2020-06-02T13:23:49Z</time>
      </trkpt>
      <trkpt lat="46.31927" lon="-1.07508">
        <ele>5.8</ele>
        <time>2020-06-02T13:23:50Z</time>
      </trkpt>
      <trkpt lat="46.31927" lon="-1.07508">
        <ele>5.8</ele>
        <time>2020-06-02T13:23:51Z</time>
      </trkpt>
      <trkpt lat="46.31927" lon="-1.07508">
        <ele>5.8</ele>
        <time>2020-06-02T13:23:52Z</time>
      </trkpt>
      <trkpt lat="46.31927" lon="-1.07508">
        <ele>5.8</ele>
        <time>2020-06-02T13:23:53Z</time>
      </trkpt>
      <trkpt lat="46.31927" lon="-1.07508">
        <ele>5.8</ele>
        <time>2020-06-02T13:23:54Z</time>
      </trkpt>
      <trkpt lat="46.31927" lon="-1.07508">
        <ele>5.8</ele>
        <time>2020-06-02T13:23:55Z</time>
      </trkpt>
      <trkpt lat="46.31927" lon="-1.07508">
        <ele>5.8</ele>
        <time>2020-06-02T13:23:56Z</time>
      </trkpt>
      <trkpt lat="46.31927" lon="-1.07508">
        <ele>5.8</ele>
        <time>2020-06-02T13:23:57Z</time>
      </trkpt>
      <trkpt lat="46.31927" lon="-1.07508">
        <ele>5.8</ele>
        <time>2020-06-02T13:23:58Z</time>
      </trkpt>
      <trkpt lat="46.31927" lon="-1.07508">
        <ele>5.8</ele>
        <time>2020-06-02T13:23:59Z</time>
      </trkpt>
      <trkpt lat="46.31927" lon="-1.07508">
        <ele>5.8</ele>
        <time>2020-06-02T13:24:00Z</time>
      </trkpt>
      <trkpt lat="46.31927" lon="-1.07508">
        <ele>5.8</ele>
        <time>2020-06-02T13:24:01Z</time>
      </trkpt>
      <trkpt lat="46.31927" lon="-1.07508">
        <ele>5.8</ele>
        <time>2020-06-02T13:24:02Z</time>
      </trkpt>
      <trkpt lat="46.31927" lon="-1.07508">
        <ele>5.8</ele>
        <time>2020-06-02T13:24:03Z</time>
      </trkpt>
      <trkpt lat="46.31927" lon="-1.07508">
        <ele>5.8</ele>
        <time>2020-06-02T13:24:04Z</time>
      </trkpt>
      <trkpt lat="46.31927" lon="-1.07508">
        <ele>5.8</ele>
        <time>2020-06-02T13:24:05Z</time>
      </trkpt>
      <trkpt lat="46.31927" lon="-1.07508">
        <ele>5.8</ele>
        <time>2020-06-02T13:24:06Z</time>
      </trkpt>
      <trkpt lat="46.31927" lon="-1.07508">
        <ele>5.8</ele>
        <time>2020-06-02T13:24:07Z</time>
      </trkpt>
      <trkpt lat="46.31927" lon="-1.07508">
        <ele>5.8</ele>
        <time>2020-06-02T13:24:08Z</time>
      </trkpt>
      <trkpt lat="46.31927" lon="-1.07508">
        <ele>5.8</ele>
        <time>2020-06-02T13:24:09Z</time>
      </trkpt>
      <trkpt lat="46.31927" lon="-1.07508">
        <ele>5.8</ele>
        <time>2020-06-02T13:24:10Z</time>
      </trkpt>
      <trkpt lat="46.31927" lon="-1.07508">
        <ele>5.8</ele>
        <time>2020-06-02T13:24:11Z</time>
      </trkpt>
      <trkpt lat="46.31927" lon="-1.07508">
        <ele>5.8</ele>
        <time>2020-06-02T13:24:12Z</time>
      </trkpt>
      <trkpt lat="46.31927" lon="-1.07508">
        <ele>5.8</ele>
        <time>2020-06-02T13:24:13Z</time>
      </trkpt>
      <trkpt lat="46.31927" lon="-1.07508">
        <ele>5.8</ele>
        <time>2020-06-02T13:24:14Z</time>
      </trkpt>
      <trkpt lat="46.31927" lon="-1.07508">
        <ele>5.8</ele>
        <time>2020-06-02T13:24:15Z</time>
      </trkpt>
      <trkpt lat="46.31927" lon="-1.07508">
        <ele>5.8</ele>
        <time>2020-06-02T13:24:16Z</time>
      </trkpt>
      <trkpt lat="46.31927" lon="-1.07508">
        <ele>5.8</ele>
        <time>2020-06-02T13:24:17Z</time>
      </trkpt>
      <trkpt lat="46.31927" lon="-1.07508">
        <ele>5.8</ele>
        <time>2020-06-02T13:24:18Z</time>
      </trkpt>
      <trkpt lat="46.31927" lon="-1.07508">
        <ele>5.8</ele>
        <time>2020-06-02T13:24:19Z</time>
      </trkpt>
      <trkpt lat="46.31926" lon="-1.07508">
        <ele>5.8</ele>
        <time>2020-06-02T13:24:20Z</time>
      </trkpt>
      <trkpt lat="46.31926" lon="-1.07508">
        <ele>5.8</ele>
        <time>2020-06-02T13:24:21Z</time>
      </trkpt>
      <trkpt lat="46.31926" lon="-1.07508">
        <ele>5.8</ele>
        <time>2020-06-02T13:24:22Z</time>
      </trkpt>
      <trkpt lat="46.31926" lon="-1.07508">
        <ele>5.8</ele>
        <time>2020-06-02T13:24:23Z</time>
      </trkpt>
      <trkpt lat="46.31926" lon="-1.07507">
        <ele>5.8</ele>
        <time>2020-06-02T13:24:24Z</time>
      </trkpt>
      <trkpt lat="46.31926" lon="-1.07507">
        <ele>5.8</ele>
        <time>2020-06-02T13:24:25Z</time>
      </trkpt>
      <trkpt lat="46.31926" lon="-1.07507">
        <ele>5.8</ele>
        <time>2020-06-02T13:24:26Z</time>
      </trkpt>
      <trkpt lat="46.31926" lon="-1.07507">
        <ele>5.8</ele>
        <time>2020-06-02T13:24:27Z</time>
      </trkpt>
      <trkpt lat="46.31926" lon="-1.07507">
        <ele>5.8</ele>
        <time>2020-06-02T13:24:28Z</time>
      </trkpt>
      <trkpt lat="46.31926" lon="-1.07507">
        <ele>5.8</ele>
        <time>2020-06-02T13:24:29Z</time>
      </trkpt>
      <trkpt lat="46.31926" lon="-1.07507">
        <ele>5.8</ele>
        <time>2020-06-02T13:24:30Z</time>
      </trkpt>
      <trkpt lat="46.31926" lon="-1.07507">
        <ele>5.8</ele>
        <time>2020-06-02T13:24:31Z</time>
      </trkpt>
      <trkpt lat="46.31926" lon="-1.07507">
        <ele>5.8</ele>
        <time>2020-06-02T13:24:32Z</time>
      </trkpt>
      <trkpt lat="46.31926" lon="-1.07507">
        <ele>5.8</ele>
        <time>2020-06-02T13:24:33Z</time>
      </trkpt>
      <trkpt lat="46.31926" lon="-1.07507">
        <ele>5.8</ele>
        <time>2020-06-02T13:24:34Z</time>
      </trkpt>
      <trkpt lat="46.31926" lon="-1.07507">
        <ele>5.8</ele>
        <time>2020-06-02T13:24:35Z</time>
      </trkpt>
      <trkpt lat="46.31926" lon="-1.07507">
        <ele>5.8</ele>
        <time>2020-06-02T13:24:36Z</time>
      </trkpt>
      <trkpt lat="46.31926" lon="-1.07507">
        <ele>5.8</ele>
        <time>2020-06-02T13:24:37Z</time>
      </trkpt>
      <trkpt lat="46.31927" lon="-1.07507">
        <ele>5.8</ele>
        <time>2020-06-02T13:24:38Z</time>
      </trkpt>
      <trkpt lat="46.31927" lon="-1.07507">
        <ele>5.8</ele>
        <time>2020-06-02T13:24:39Z</time>
      </trkpt>
      <trkpt lat="46.31927" lon="-1.07507">
        <ele>5.8</ele>
        <time>2020-06-02T13:24:40Z</time>
      </trkpt>
      <trkpt lat="46.31927" lon="-1.07507">
        <ele>5.8</ele>
        <time>2020-06-02T13:24:41Z</time>
      </trkpt>
      <trkpt lat="46.31927" lon="-1.07507">
        <ele>5.8</ele>
        <time>2020-06-02T13:24:42Z</time>
      </trkpt>
      <trkpt lat="46.31927" lon="-1.07507">
        <ele>5.8</ele>
        <time>2020-06-02T13:24:43Z</time>
      </trkpt>
      <trkpt lat="46.31927" lon="-1.07507">
        <ele>5.8</ele>
        <time>2020-06-02T13:24:44Z</time>
      </trkpt>
      <trkpt lat="46.31927" lon="-1.07507">
        <ele>5.8</ele>
        <time>2020-06-02T13:24:45Z</time>
      </trkpt>
      <trkpt lat="46.31927" lon="-1.07507">
        <ele>5.8</ele>
        <time>2020-06-02T13:24:46Z</time>
      </trkpt>
      <trkpt lat="46.31927" lon="-1.07507">
        <ele>5.8</ele>
        <time>2020-06-02T13:24:47Z</time>
      </trkpt>
      <trkpt lat="46.31927" lon="-1.07507">
        <ele>5.8</ele>
        <time>2020-06-02T13:24:48Z</time>
      </trkpt>
      <trkpt lat="46.31927" lon="-1.07507">
        <ele>5.8</ele>
        <time>2020-06-02T13:24:49Z</time>
      </trkpt>
      <trkpt lat="46.31927" lon="-1.07507">
        <ele>5.8</ele>
        <time>2020-06-02T13:24:50Z</time>
      </trkpt>
      <trkpt lat="46.31927" lon="-1.07507">
        <ele>5.8</ele>
        <time>2020-06-02T13:24:51Z</time>
      </trkpt>
      <trkpt lat="46.31927" lon="-1.07507">
        <ele>5.8</ele>
        <time>2020-06-02T13:24:52Z</time>
      </trkpt>
      <trkpt lat="46.31927" lon="-1.07507">
        <ele>5.8</ele>
        <time>2020-06-02T13:24:53Z</time>
      </trkpt>
      <trkpt lat="46.31927" lon="-1.07507">
        <ele>5.8</ele>
        <time>2020-06-02T13:24:54Z</time>
      </trkpt>
      <trkpt lat="46.31927" lon="-1.07507">
        <ele>5.8</ele>
        <time>2020-06-02T13:24:55Z</time>
      </trkpt>
      <trkpt lat="46.31927" lon="-1.07507">
        <ele>5.8</ele>
        <time>2020-06-02T13:24:56Z</time>
      </trkpt>
      <trkpt lat="46.31927" lon="-1.07507">
        <ele>5.8</ele>
        <time>2020-06-02T13:24:57Z</time>
      </trkpt>
      <trkpt lat="46.31927" lon="-1.07507">
        <ele>5.8</ele>
        <time>2020-06-02T13:24:58Z</time>
      </trkpt>
      <trkpt lat="46.31927" lon="-1.07507">
        <ele>5.8</ele>
        <time>2020-06-02T13:24:59Z</time>
      </trkpt>
      <trkpt lat="46.31927" lon="-1.07507">
        <ele>5.8</ele>
        <time>2020-06-02T13:25:00Z</time>
      </trkpt>
      <trkpt lat="46.31927" lon="-1.07507">
        <ele>5.8</ele>
        <time>2020-06-02T13:25:01Z</time>
      </trkpt>
      <trkpt lat="46.31927" lon="-1.07507">
        <ele>5.8</ele>
        <time>2020-06-02T13:25:02Z</time>
      </trkpt>
      <trkpt lat="46.31927" lon="-1.07507">
        <ele>5.8</ele>
        <time>2020-06-02T13:25:03Z</time>
      </trkpt>
      <trkpt lat="46.31927" lon="-1.07507">
        <ele>5.8</ele>
        <time>2020-06-02T13:25:04Z</time>
      </trkpt>
      <trkpt lat="46.31927" lon="-1.07507">
        <ele>5.8</ele>
        <time>2020-06-02T13:25:05Z</time>
      </trkpt>
      <trkpt lat="46.31927" lon="-1.07507">
        <ele>5.8</ele>
        <time>2020-06-02T13:25:06Z</time>
      </trkpt>
      <trkpt lat="46.31927" lon="-1.07507">
        <ele>5.8</ele>
        <time>2020-06-02T13:25:07Z</time>
      </trkpt>
      <trkpt lat="46.31927" lon="-1.07507">
        <ele>5.8</ele>
        <time>2020-06-02T13:25:08Z</time>
      </trkpt>
      <trkpt lat="46.31927" lon="-1.07507">
        <ele>5.8</ele>
        <time>2020-06-02T13:25:09Z</time>
      </trkpt>
      <trkpt lat="46.31927" lon="-1.07507">
        <ele>5.8</ele>
        <time>2020-06-02T13:25:10Z</time>
      </trkpt>
      <trkpt lat="46.31927" lon="-1.07507">
        <ele>5.8</ele>
        <time>2020-06-02T13:25:11Z</time>
      </trkpt>
      <trkpt lat="46.31927" lon="-1.07507">
        <ele>5.8</ele>
        <time>2020-06-02T13:25:12Z</time>
      </trkpt>
      <trkpt lat="46.31927" lon="-1.07507">
        <ele>5.8</ele>
        <time>2020-06-02T13:25:13Z</time>
      </trkpt>
      <trkpt lat="46.31927" lon="-1.07507">
        <ele>5.8</ele>
        <time>2020-06-02T13:25:14Z</time>
      </trkpt>
      <trkpt lat="46.31927" lon="-1.07507">
        <ele>5.8</ele>
        <time>2020-06-02T13:25:15Z</time>
      </trkpt>
      <trkpt lat="46.31927" lon="-1.07507">
        <ele>5.8</ele>
        <time>2020-06-02T13:25:16Z</time>
      </trkpt>
      <trkpt lat="46.31927" lon="-1.07507">
        <ele>5.8</ele>
        <time>2020-06-02T13:25:17Z</time>
      </trkpt>
      <trkpt lat="46.31927" lon="-1.07507">
        <ele>5.8</ele>
        <time>2020-06-02T13:25:18Z</time>
      </trkpt>
      <trkpt lat="46.31927" lon="-1.07507">
        <ele>5.8</ele>
        <time>2020-06-02T13:25:19Z</time>
      </trkpt>
      <trkpt lat="46.31927" lon="-1.07507">
        <ele>5.8</ele>
        <time>2020-06-02T13:25:20Z</time>
      </trkpt>
      <trkpt lat="46.31927" lon="-1.07507">
        <ele>5.8</ele>
        <time>2020-06-02T13:25:21Z</time>
      </trkpt>
      <trkpt lat="46.31927" lon="-1.07507">
        <ele>5.8</ele>
        <time>2020-06-02T13:25:22Z</time>
      </trkpt>
      <trkpt lat="46.31926" lon="-1.07507">
        <ele>5.8</ele>
        <time>2020-06-02T13:25:23Z</time>
      </trkpt>
      <trkpt lat="46.31927" lon="-1.07507">
        <ele>5.8</ele>
        <time>2020-06-02T13:25:24Z</time>
      </trkpt>
      <trkpt lat="46.31927" lon="-1.07507">
        <ele>5.8</ele>
        <time>2020-06-02T13:25:25Z</time>
      </trkpt>
      <trkpt lat="46.31927" lon="-1.07507">
        <ele>5.8</ele>
        <time>2020-06-02T13:25:26Z</time>
      </trkpt>
      <trkpt lat="46.31927" lon="-1.07507">
        <ele>5.8</ele>
        <time>2020-06-02T13:25:27Z</time>
      </trkpt>
      <trkpt lat="46.31927" lon="-1.07507">
        <ele>5.8</ele>
        <time>2020-06-02T13:25:28Z</time>
      </trkpt>
      <trkpt lat="46.31927" lon="-1.07507">
        <ele>5.8</ele>
        <time>2020-06-02T13:25:29Z</time>
      </trkpt>
      <trkpt lat="46.31927" lon="-1.07507">
        <ele>5.8</ele>
        <time>2020-06-02T13:25:30Z</time>
      </trkpt>
      <trkpt lat="46.31927" lon="-1.07507">
        <ele>5.8</ele>
        <time>2020-06-02T13:25:31Z</time>
      </trkpt>
      <trkpt lat="46.31926" lon="-1.07506">
        <ele>5.8</ele>
        <time>2020-06-02T13:25:32Z</time>
      </trkpt>
      <trkpt lat="46.31926" lon="-1.07507">
        <ele>5.8</ele>
        <time>2020-06-02T13:25:33Z</time>
      </trkpt>
      <trkpt lat="46.31925" lon="-1.07507">
        <ele>5.8</ele>
        <time>2020-06-02T13:25:34Z</time>
      </trkpt>
      <trkpt lat="46.31925" lon="-1.07507">
        <ele>5.8</ele>
        <time>2020-06-02T13:25:35Z</time>
      </trkpt>
      <trkpt lat="46.31925" lon="-1.07507">
        <ele>5.8</ele>
        <time>2020-06-02T13:25:36Z</time>
      </trkpt>
      <trkpt lat="46.31925" lon="-1.07506">
        <ele>5.8</ele>
        <time>2020-06-02T13:25:37Z</time>
      </trkpt>
      <trkpt lat="46.31925" lon="-1.07506">
        <ele>5.8</ele>
        <time>2020-06-02T13:25:38Z</time>
      </trkpt>
      <trkpt lat="46.31925" lon="-1.07506">
        <ele>5.8</ele>
        <time>2020-06-02T13:25:39Z</time>
      </trkpt>
      <trkpt lat="46.31925" lon="-1.07506">
        <ele>5.8</ele>
        <time>2020-06-02T13:25:40Z</time>
      </trkpt>
      <trkpt lat="46.31924" lon="-1.07506">
        <ele>5.8</ele>
        <time>2020-06-02T13:25:41Z</time>
      </trkpt>
      <trkpt lat="46.31924" lon="-1.07506">
        <ele>5.8</ele>
        <time>2020-06-02T13:25:42Z</time>
      </trkpt>
      <trkpt lat="46.31924" lon="-1.07506">
        <ele>5.8</ele>
        <time>2020-06-02T13:25:43Z</time>
      </trkpt>
      <trkpt lat="46.31924" lon="-1.07506">
        <ele>5.8</ele>
        <time>2020-06-02T13:25:44Z</time>
      </trkpt>
      <trkpt lat="46.31924" lon="-1.07506">
        <ele>5.8</ele>
        <time>2020-06-02T13:25:45Z</time>
      </trkpt>
      <trkpt lat="46.31924" lon="-1.07506">
        <ele>5.8</ele>
        <time>2020-06-02T13:25:46Z</time>
      </trkpt>
      <trkpt lat="46.31924" lon="-1.07506">
        <ele>5.8</ele>
        <time>2020-06-02T13:25:47Z</time>
      </trkpt>
      <trkpt lat="46.31924" lon="-1.07506">
        <ele>5.8</ele>
        <time>2020-06-02T13:25:48Z</time>
      </trkpt>
      <trkpt lat="46.31924" lon="-1.07506">
        <ele>5.8</ele>
        <time>2020-06-02T13:25:49Z</time>
      </trkpt>
      <trkpt lat="46.31924" lon="-1.07506">
        <ele>5.8</ele>
        <time>2020-06-02T13:25:50Z</time>
      </trkpt>
      <trkpt lat="46.31924" lon="-1.07506">
        <ele>5.8</ele>
        <time>2020-06-02T13:25:51Z</time>
      </trkpt>
      <trkpt lat="46.31924" lon="-1.07506">
        <ele>5.8</ele>
        <time>2020-06-02T13:25:52Z</time>
      </trkpt>
      <trkpt lat="46.31924" lon="-1.07506">
        <ele>5.8</ele>
        <time>2020-06-02T13:25:53Z</time>
      </trkpt>
      <trkpt lat="46.31924" lon="-1.07506">
        <ele>5.8</ele>
        <time>2020-06-02T13:25:54Z</time>
      </trkpt>
      <trkpt lat="46.31924" lon="-1.07506">
        <ele>5.8</ele>
        <time>2020-06-02T13:25:55Z</time>
      </trkpt>
      <trkpt lat="46.31924" lon="-1.07506">
        <ele>5.8</ele>
        <time>2020-06-02T13:25:56Z</time>
      </trkpt>
      <trkpt lat="46.31924" lon="-1.07506">
        <ele>5.8</ele>
        <time>2020-06-02T13:25:57Z</time>
      </trkpt>
      <trkpt lat="46.31924" lon="-1.07506">
        <ele>5.8</ele>
        <time>2020-06-02T13:25:58Z</time>
      </trkpt>
      <trkpt lat="46.31924" lon="-1.07506">
        <ele>5.8</ele>
        <time>2020-06-02T13:25:59Z</time>
      </trkpt>
      <trkpt lat="46.31924" lon="-1.07506">
        <ele>5.8</ele>
        <time>2020-06-02T13:26:00Z</time>
      </trkpt>
      <trkpt lat="46.31924" lon="-1.07506">
        <ele>5.8</ele>
        <time>2020-06-02T13:26:01Z</time>
      </trkpt>
      <trkpt lat="46.31924" lon="-1.07506">
        <ele>5.8</ele>
        <time>2020-06-02T13:26:02Z</time>
      </trkpt>
      <trkpt lat="46.31924" lon="-1.07506">
        <ele>5.8</ele>
        <time>2020-06-02T13:26:03Z</time>
      </trkpt>
      <trkpt lat="46.31924" lon="-1.07506">
        <ele>5.8</ele>
        <time>2020-06-02T13:26:04Z</time>
      </trkpt>
      <trkpt lat="46.31924" lon="-1.07506">
        <ele>5.8</ele>
        <time>2020-06-02T13:26:05Z</time>
      </trkpt>
      <trkpt lat="46.31924" lon="-1.07506">
        <ele>5.8</ele>
        <time>2020-06-02T13:26:06Z</time>
      </trkpt>
      <trkpt lat="46.31924" lon="-1.07506">
        <ele>5.8</ele>
        <time>2020-06-02T13:26:07Z</time>
      </trkpt>
      <trkpt lat="46.31924" lon="-1.07506">
        <ele>5.8</ele>
        <time>2020-06-02T13:26:08Z</time>
      </trkpt>
      <trkpt lat="46.31924" lon="-1.07506">
        <ele>5.8</ele>
        <time>2020-06-02T13:26:09Z</time>
      </trkpt>
      <trkpt lat="46.31924" lon="-1.07506">
        <ele>5.8</ele>
        <time>2020-06-02T13:26:10Z</time>
      </trkpt>
      <trkpt lat="46.31924" lon="-1.07506">
        <ele>5.8</ele>
        <time>2020-06-02T13:26:11Z</time>
      </trkpt>
      <trkpt lat="46.31924" lon="-1.07506">
        <ele>5.8</ele>
        <time>2020-06-02T13:26:12Z</time>
      </trkpt>
      <trkpt lat="46.31924" lon="-1.07506">
        <ele>5.8</ele>
        <time>2020-06-02T13:26:13Z</time>
      </trkpt>
      <trkpt lat="46.31924" lon="-1.07506">
        <ele>5.8</ele>
        <time>2020-06-02T13:26:14Z</time>
      </trkpt>
      <trkpt lat="46.31924" lon="-1.07506">
        <ele>5.8</ele>
        <time>2020-06-02T13:26:15Z</time>
      </trkpt>
      <trkpt lat="46.31924" lon="-1.07506">
        <ele>5.8</ele>
        <time>2020-06-02T13:26:16Z</time>
      </trkpt>
      <trkpt lat="46.31924" lon="-1.07506">
        <ele>5.8</ele>
        <time>2020-06-02T13:26:17Z</time>
      </trkpt>
      <trkpt lat="46.31924" lon="-1.07506">
        <ele>5.8</ele>
        <time>2020-06-02T13:26:18Z</time>
      </trkpt>
      <trkpt lat="46.31924" lon="-1.07506">
        <ele>5.8</ele>
        <time>2020-06-02T13:26:19Z</time>
      </trkpt>
      <trkpt lat="46.31923" lon="-1.07506">
        <ele>5.8</ele>
        <time>2020-06-02T13:26:20Z</time>
      </trkpt>
      <trkpt lat="46.31923" lon="-1.07506">
        <ele>5.8</ele>
        <time>2020-06-02T13:26:21Z</time>
      </trkpt>
      <trkpt lat="46.31923" lon="-1.07507">
        <ele>5.8</ele>
        <time>2020-06-02T13:26:22Z</time>
      </trkpt>
      <trkpt lat="46.31924" lon="-1.07507">
        <ele>5.8</ele>
        <time>2020-06-02T13:26:23Z</time>
      </trkpt>
      <trkpt lat="46.31923" lon="-1.07507">
        <ele>5.8</ele>
        <time>2020-06-02T13:26:24Z</time>
      </trkpt>
      <trkpt lat="46.31923" lon="-1.07507">
        <ele>5.8</ele>
        <time>2020-06-02T13:26:25Z</time>
      </trkpt>
      <trkpt lat="46.31923" lon="-1.07507">
        <ele>5.8</ele>
        <time>2020-06-02T13:26:26Z</time>
      </trkpt>
      <trkpt lat="46.31923" lon="-1.07507">
        <ele>5.8</ele>
        <time>2020-06-02T13:26:27Z</time>
      </trkpt>
      <trkpt lat="46.31923" lon="-1.07507">
        <ele>5.8</ele>
        <time>2020-06-02T13:26:28Z</time>
      </trkpt>
      <trkpt lat="46.31923" lon="-1.07507">
        <ele>5.8</ele>
        <time>2020-06-02T13:26:29Z</time>
      </trkpt>
      <trkpt lat="46.31923" lon="-1.07507">
        <ele>5.8</ele>
        <time>2020-06-02T13:26:30Z</time>
      </trkpt>
      <trkpt lat="46.31923" lon="-1.07507">
        <ele>5.8</ele>
        <time>2020-06-02T13:26:31Z</time>
      </trkpt>
      <trkpt lat="46.31923" lon="-1.07507">
        <ele>5.8</ele>
        <time>2020-06-02T13:26:32Z</time>
      </trkpt>
      <trkpt lat="46.31923" lon="-1.07507">
        <ele>5.8</ele>
        <time>2020-06-02T13:26:33Z</time>
      </trkpt>
      <trkpt lat="46.31923" lon="-1.07507">
        <ele>5.8</ele>
        <time>2020-06-02T13:26:34Z</time>
      </trkpt>
      <trkpt lat="46.31923" lon="-1.07507">
        <ele>5.8</ele>
        <time>2020-06-02T13:26:35Z</time>
      </trkpt>
      <trkpt lat="46.31924" lon="-1.07507">
        <ele>5.8</ele>
        <time>2020-06-02T13:26:36Z</time>
      </trkpt>
      <trkpt lat="46.31924" lon="-1.07507">
        <ele>5.8</ele>
        <time>2020-06-02T13:26:37Z</time>
      </trkpt>
      <trkpt lat="46.31924" lon="-1.07506">
        <ele>5.8</ele>
        <time>2020-06-02T13:26:38Z</time>
      </trkpt>
      <trkpt lat="46.31924" lon="-1.07506">
        <ele>5.8</ele>
        <time>2020-06-02T13:26:39Z</time>
      </trkpt>
      <trkpt lat="46.31924" lon="-1.07506">
        <ele>5.8</ele>
        <time>2020-06-02T13:26:40Z</time>
      </trkpt>
      <trkpt lat="46.31925" lon="-1.07506">
        <ele>5.8</ele>
        <time>2020-06-02T13:26:41Z</time>
      </trkpt>
      <trkpt lat="46.31925" lon="-1.07506">
        <ele>5.8</ele>
        <time>2020-06-02T13:26:42Z</time>
      </trkpt>
      <trkpt lat="46.31925" lon="-1.07506">
        <ele>5.8</ele>
        <time>2020-06-02T13:26:43Z</time>
      </trkpt>
      <trkpt lat="46.31925" lon="-1.07506">
        <ele>5.8</ele>
        <time>2020-06-02T13:26:44Z</time>
      </trkpt>
      <trkpt lat="46.31925" lon="-1.07506">
        <ele>5.8</ele>
        <time>2020-06-02T13:26:45Z</time>
      </trkpt>
      <trkpt lat="46.31925" lon="-1.07506">
        <ele>5.8</ele>
        <time>2020-06-02T13:26:46Z</time>
      </trkpt>
      <trkpt lat="46.31925" lon="-1.07506">
        <ele>5.8</ele>
        <time>2020-06-02T13:26:47Z</time>
      </trkpt>
      <trkpt lat="46.31925" lon="-1.07506">
        <ele>5.8</ele>
        <time>2020-06-02T13:26:48Z</time>
      </trkpt>
      <trkpt lat="46.31925" lon="-1.07506">
        <ele>5.8</ele>
        <time>2020-06-02T13:26:49Z</time>
      </trkpt>
      <trkpt lat="46.31925" lon="-1.07506">
        <ele>5.8</ele>
        <time>2020-06-02T13:26:50Z</time>
      </trkpt>
      <trkpt lat="46.31924" lon="-1.07506">
        <ele>5.8</ele>
        <time>2020-06-02T13:26:51Z</time>
      </trkpt>
      <trkpt lat="46.31925" lon="-1.07506">
        <ele>5.8</ele>
        <time>2020-06-02T13:26:52Z</time>
      </trkpt>
      <trkpt lat="46.31925" lon="-1.07505">
        <ele>5.8</ele>
        <time>2020-06-02T13:26:53Z</time>
      </trkpt>
      <trkpt lat="46.31925" lon="-1.07505">
        <ele>5.8</ele>
        <time>2020-06-02T13:26:54Z</time>
      </trkpt>
      <trkpt lat="46.31925" lon="-1.07505">
        <ele>5.8</ele>
        <time>2020-06-02T13:26:55Z</time>
      </trkpt>
      <trkpt lat="46.31925" lon="-1.07505">
        <ele>5.8</ele>
        <time>2020-06-02T13:26:56Z</time>
      </trkpt>
      <trkpt lat="46.31925" lon="-1.07505">
        <ele>5.8</ele>
        <time>2020-06-02T13:26:57Z</time>
      </trkpt>
      <trkpt lat="46.31925" lon="-1.07505">
        <ele>5.8</ele>
        <time>2020-06-02T13:26:58Z</time>
      </trkpt>
      <trkpt lat="46.31925" lon="-1.07505">
        <ele>5.8</ele>
        <time>2020-06-02T13:26:59Z</time>
      </trkpt>
      <trkpt lat="46.31925" lon="-1.07505">
        <ele>5.8</ele>
        <time>2020-06-02T13:27:00Z</time>
      </trkpt>
      <trkpt lat="46.31925" lon="-1.07505">
        <ele>5.8</ele>
        <time>2020-06-02T13:27:01Z</time>
      </trkpt>
      <trkpt lat="46.31925" lon="-1.07505">
        <ele>5.8</ele>
        <time>2020-06-02T13:27:02Z</time>
      </trkpt>
      <trkpt lat="46.31925" lon="-1.07505">
        <ele>5.8</ele>
        <time>2020-06-02T13:27:03Z</time>
      </trkpt>
      <trkpt lat="46.31925" lon="-1.07505">
        <ele>5.8</ele>
        <time>2020-06-02T13:27:04Z</time>
      </trkpt>
      <trkpt lat="46.31925" lon="-1.07505">
        <ele>5.8</ele>
        <time>2020-06-02T13:27:05Z</time>
      </trkpt>
      <trkpt lat="46.31925" lon="-1.07505">
        <ele>5.8</ele>
        <time>2020-06-02T13:27:06Z</time>
      </trkpt>
      <trkpt lat="46.31926" lon="-1.07505">
        <ele>5.8</ele>
        <time>2020-06-02T13:27:07Z</time>
      </trkpt>
      <trkpt lat="46.31926" lon="-1.07504">
        <ele>5.8</ele>
        <time>2020-06-02T13:27:08Z</time>
      </trkpt>
      <trkpt lat="46.31926" lon="-1.07503">
        <ele>5.8</ele>
        <time>2020-06-02T13:27:09Z</time>
      </trkpt>
      <trkpt lat="46.31926" lon="-1.07502">
        <ele>5.8</ele>
        <time>2020-06-02T13:27:10Z</time>
      </trkpt>
      <trkpt lat="46.31927" lon="-1.075">
        <ele>5.8</ele>
        <time>2020-06-02T13:27:11Z</time>
      </trkpt>
      <trkpt lat="46.31928" lon="-1.07497">
        <ele>5.8</ele>
        <time>2020-06-02T13:27:12Z</time>
      </trkpt>
      <trkpt lat="46.31929" lon="-1.07495">
        <ele>5.8</ele>
        <time>2020-06-02T13:27:13Z</time>
      </trkpt>
      <trkpt lat="46.31929" lon="-1.07494">
        <ele>5.8</ele>
        <time>2020-06-02T13:27:14Z</time>
      </trkpt>
      <trkpt lat="46.31929" lon="-1.07493">
        <ele>5.8</ele>
        <time>2020-06-02T13:27:15Z</time>
      </trkpt>
      <trkpt lat="46.31929" lon="-1.07492">
        <ele>5.8</ele>
        <time>2020-06-02T13:27:16Z</time>
      </trkpt>
      <trkpt lat="46.31929" lon="-1.07492">
        <ele>5.8</ele>
        <time>2020-06-02T13:27:17Z</time>
      </trkpt>
      <trkpt lat="46.31929" lon="-1.07492">
        <ele>5.8</ele>
        <time>2020-06-02T13:27:18Z</time>
      </trkpt>
      <trkpt lat="46.31929" lon="-1.07492">
        <ele>5.8</ele>
        <time>2020-06-02T13:27:19Z</time>
      </trkpt>
      <trkpt lat="46.31929" lon="-1.07492">
        <ele>5.8</ele>
        <time>2020-06-02T13:27:20Z</time>
      </trkpt>
      <trkpt lat="46.31929" lon="-1.07492">
        <ele>5.8</ele>
        <time>2020-06-02T13:27:21Z</time>
      </trkpt>
      <trkpt lat="46.31929" lon="-1.07492">
        <ele>5.8</ele>
        <time>2020-06-02T13:27:22Z</time>
      </trkpt>
      <trkpt lat="46.31929" lon="-1.07492">
        <ele>5.8</ele>
        <time>2020-06-02T13:27:23Z</time>
      </trkpt>
      <trkpt lat="46.31929" lon="-1.07492">
        <ele>5.8</ele>
        <time>2020-06-02T13:27:24Z</time>
      </trkpt>
      <trkpt lat="46.31929" lon="-1.07492">
        <ele>5.8</ele>
        <time>2020-06-02T13:27:25Z</time>
      </trkpt>
      <trkpt lat="46.31929" lon="-1.07492">
        <ele>5.8</ele>
        <time>2020-06-02T13:27:26Z</time>
      </trkpt>
      <trkpt lat="46.31929" lon="-1.07492">
        <ele>5.8</ele>
        <time>2020-06-02T13:27:27Z</time>
      </trkpt>
      <trkpt lat="46.31929" lon="-1.07492">
        <ele>5.8</ele>
        <time>2020-06-02T13:27:28Z</time>
      </trkpt>
      <trkpt lat="46.31929" lon="-1.07492">
        <ele>5.8</ele>
        <time>2020-06-02T13:27:29Z</time>
      </trkpt>
      <trkpt lat="46.31929" lon="-1.07492">
        <ele>5.8</ele>
        <time>2020-06-02T13:27:30Z</time>
      </trkpt>
      <trkpt lat="46.31929" lon="-1.07492">
        <ele>5.8</ele>
        <time>2020-06-02T13:27:31Z</time>
      </trkpt>
      <trkpt lat="46.31929" lon="-1.07492">
        <ele>5.8</ele>
        <time>2020-06-02T13:27:32Z</time>
      </trkpt>
      <trkpt lat="46.31929" lon="-1.07491">
        <ele>5.8</ele>
        <time>2020-06-02T13:27:33Z</time>
      </trkpt>
      <trkpt lat="46.31929" lon="-1.07491">
        <ele>5.8</ele>
        <time>2020-06-02T13:27:34Z</time>
      </trkpt>
      <trkpt lat="46.31929" lon="-1.07491">
        <ele>5.8</ele>
        <time>2020-06-02T13:27:35Z</time>
      </trkpt>
      <trkpt lat="46.31929" lon="-1.07491">
        <ele>5.8</ele>
        <time>2020-06-02T13:27:36Z</time>
      </trkpt>
      <trkpt lat="46.31929" lon="-1.07491">
        <ele>5.8</ele>
        <time>2020-06-02T13:27:37Z</time>
      </trkpt>
      <trkpt lat="46.31929" lon="-1.07491">
        <ele>5.8</ele>
        <time>2020-06-02T13:27:38Z</time>
      </trkpt>
      <trkpt lat="46.3193" lon="-1.0749">
        <ele>5.8</ele>
        <time>2020-06-02T13:27:39Z</time>
      </trkpt>
      <trkpt lat="46.3193" lon="-1.0749">
        <ele>5.8</ele>
        <time>2020-06-02T13:27:40Z</time>
      </trkpt>
      <trkpt lat="46.3193" lon="-1.0749">
        <ele>5.8</ele>
        <time>2020-06-02T13:27:41Z</time>
      </trkpt>
      <trkpt lat="46.3193" lon="-1.0749">
        <ele>5.8</ele>
        <time>2020-06-02T13:27:42Z</time>
      </trkpt>
      <trkpt lat="46.3193" lon="-1.0749">
        <ele>5.8</ele>
        <time>2020-06-02T13:27:43Z</time>
      </trkpt>
      <trkpt lat="46.3193" lon="-1.0749">
        <ele>5.8</ele>
        <time>2020-06-02T13:27:44Z</time>
      </trkpt>
      <trkpt lat="46.3193" lon="-1.0749">
        <ele>5.8</ele>
        <time>2020-06-02T13:27:45Z</time>
      </trkpt>
      <trkpt lat="46.3193" lon="-1.0749">
        <ele>5.8</ele>
        <time>2020-06-02T13:27:46Z</time>
      </trkpt>
      <trkpt lat="46.3193" lon="-1.07489">
        <ele>5.8</ele>
        <time>2020-06-02T13:27:47Z</time>
      </trkpt>
      <trkpt lat="46.3193" lon="-1.07489">
        <ele>5.8</ele>
        <time>2020-06-02T13:27:48Z</time>
      </trkpt>
      <trkpt lat="46.3193" lon="-1.07489">
        <ele>5.8</ele>
        <time>2020-06-02T13:27:49Z</time>
      </trkpt>
      <trkpt lat="46.3193" lon="-1.07489">
        <ele>5.8</ele>
        <time>2020-06-02T13:27:50Z</time>
      </trkpt>
      <trkpt lat="46.3193" lon="-1.07489">
        <ele>5.8</ele>
        <time>2020-06-02T13:27:51Z</time>
      </trkpt>
      <trkpt lat="46.3193" lon="-1.07489">
        <ele>5.8</ele>
        <time>2020-06-02T13:27:52Z</time>
      </trkpt>
      <trkpt lat="46.3193" lon="-1.07489">
        <ele>5.8</ele>
        <time>2020-06-02T13:27:53Z</time>
      </trkpt>
      <trkpt lat="46.3193" lon="-1.07489">
        <ele>5.8</ele>
        <time>2020-06-02T13:27:54Z</time>
      </trkpt>
      <trkpt lat="46.3193" lon="-1.07489">
        <ele>5.8</ele>
        <time>2020-06-02T13:27:55Z</time>
      </trkpt>
      <trkpt lat="46.3193" lon="-1.07489">
        <ele>5.8</ele>
        <time>2020-06-02T13:27:56Z</time>
      </trkpt>
      <trkpt lat="46.3193" lon="-1.07488">
        <ele>5.8</ele>
        <time>2020-06-02T13:27:57Z</time>
      </trkpt>
      <trkpt lat="46.3193" lon="-1.07488">
        <ele>5.8</ele>
        <time>2020-06-02T13:27:58Z</time>
      </trkpt>
      <trkpt lat="46.3193" lon="-1.07488">
        <ele>5.8</ele>
        <time>2020-06-02T13:27:59Z</time>
      </trkpt>
      <trkpt lat="46.3193" lon="-1.07488">
        <ele>5.8</ele>
        <time>2020-06-02T13:28:00Z</time>
      </trkpt>
      <trkpt lat="46.3193" lon="-1.07488">
        <ele>5.8</ele>
        <time>2020-06-02T13:28:01Z</time>
      </trkpt>
      <trkpt lat="46.3193" lon="-1.07488">
        <ele>5.8</ele>
        <time>2020-06-02T13:28:02Z</time>
      </trkpt>
      <trkpt lat="46.3193" lon="-1.07488">
        <ele>5.8</ele>
        <time>2020-06-02T13:28:03Z</time>
      </trkpt>
      <trkpt lat="46.3193" lon="-1.07488">
        <ele>5.8</ele>
        <time>2020-06-02T13:28:04Z</time>
      </trkpt>
      <trkpt lat="46.3193" lon="-1.07487">
        <ele>5.8</ele>
        <time>2020-06-02T13:28:05Z</time>
      </trkpt>
      <trkpt lat="46.31931" lon="-1.07489">
        <ele>5.8</ele>
        <time>2020-06-02T13:28:06Z</time>
      </trkpt>
      <trkpt lat="46.31931" lon="-1.0749">
        <ele>5.8</ele>
        <time>2020-06-02T13:28:07Z</time>
      </trkpt>
      <trkpt lat="46.31931" lon="-1.07491">
        <ele>5.8</ele>
        <time>2020-06-02T13:28:08Z</time>
      </trkpt>
      <trkpt lat="46.31931" lon="-1.07491">
        <ele>5.8</ele>
        <time>2020-06-02T13:28:09Z</time>
      </trkpt>
      <trkpt lat="46.31931" lon="-1.07493">
        <ele>5.8</ele>
        <time>2020-06-02T13:28:10Z</time>
      </trkpt>
      <trkpt lat="46.31931" lon="-1.07494">
        <ele>5.8</ele>
        <time>2020-06-02T13:28:11Z</time>
      </trkpt>
      <trkpt lat="46.31931" lon="-1.07494">
        <ele>5.8</ele>
        <time>2020-06-02T13:28:12Z</time>
      </trkpt>
      <trkpt lat="46.31931" lon="-1.07495">
        <ele>5.8</ele>
        <time>2020-06-02T13:28:13Z</time>
      </trkpt>
      <trkpt lat="46.31931" lon="-1.07496">
        <ele>5.8</ele>
        <time>2020-06-02T13:28:14Z</time>
      </trkpt>
      <trkpt lat="46.31931" lon="-1.07497">
        <ele>5.8</ele>
        <time>2020-06-02T13:28:15Z</time>
      </trkpt>
      <trkpt lat="46.31931" lon="-1.07498">
        <ele>5.8</ele>
        <time>2020-06-02T13:28:16Z</time>
      </trkpt>
      <trkpt lat="46.31932" lon="-1.07498">
        <ele>5.8</ele>
        <time>2020-06-02T13:28:17Z</time>
      </trkpt>
      <trkpt lat="46.31932" lon="-1.07499">
        <ele>5.8</ele>
        <time>2020-06-02T13:28:18Z</time>
      </trkpt>
      <trkpt lat="46.31931" lon="-1.07502">
        <ele>5.8</ele>
        <time>2020-06-02T13:28:19Z</time>
      </trkpt>
      <trkpt lat="46.31931" lon="-1.07504">
        <ele>5.8</ele>
        <time>2020-06-02T13:28:20Z</time>
      </trkpt>
      <trkpt lat="46.3193" lon="-1.07506">
        <ele>5.8</ele>
        <time>2020-06-02T13:28:21Z</time>
      </trkpt>
      <trkpt lat="46.3193" lon="-1.07507">
        <ele>5.8</ele>
        <time>2020-06-02T13:28:22Z</time>
      </trkpt>
      <trkpt lat="46.3193" lon="-1.07507">
        <ele>5.8</ele>
        <time>2020-06-02T13:28:23Z</time>
      </trkpt>
      <trkpt lat="46.31929" lon="-1.07508">
        <ele>5.8</ele>
        <time>2020-06-02T13:28:24Z</time>
      </trkpt>
      <trkpt lat="46.31929" lon="-1.07509">
        <ele>5.8</ele>
        <time>2020-06-02T13:28:25Z</time>
      </trkpt>
      <trkpt lat="46.31929" lon="-1.07509">
        <ele>5.8</ele>
        <time>2020-06-02T13:28:26Z</time>
      </trkpt>
      <trkpt lat="46.31929" lon="-1.07509">
        <ele>5.8</ele>
        <time>2020-06-02T13:28:27Z</time>
      </trkpt>
      <trkpt lat="46.31929" lon="-1.07509">
        <ele>5.8</ele>
        <time>2020-06-02T13:28:28Z</time>
      </trkpt>
      <trkpt lat="46.31929" lon="-1.07509">
        <ele>5.8</ele>
        <time>2020-06-02T13:28:29Z</time>
      </trkpt>
      <trkpt lat="46.31929" lon="-1.07509">
        <ele>5.8</ele>
        <time>2020-06-02T13:28:30Z</time>
      </trkpt>
      <trkpt lat="46.31929" lon="-1.07509">
        <ele>5.8</ele>
        <time>2020-06-02T13:28:31Z</time>
      </trkpt>
      <trkpt lat="46.31929" lon="-1.07509">
        <ele>5.8</ele>
        <time>2020-06-02T13:28:32Z</time>
      </trkpt>
      <trkpt lat="46.31929" lon="-1.07509">
        <ele>5.8</ele>
        <time>2020-06-02T13:28:33Z</time>
      </trkpt>
      <trkpt lat="46.31929" lon="-1.07509">
        <ele>5.8</ele>
        <time>2020-06-02T13:28:34Z</time>
      </trkpt>
      <trkpt lat="46.31929" lon="-1.07509">
        <ele>5.8</ele>
        <time>2020-06-02T13:28:35Z</time>
      </trkpt>
      <trkpt lat="46.31929" lon="-1.07509">
        <ele>5.8</ele>
        <time>2020-06-02T13:28:36Z</time>
      </trkpt>
      <trkpt lat="46.31929" lon="-1.07509">
        <ele>5.8</ele>
        <time>2020-06-02T13:28:37Z</time>
      </trkpt>
      <trkpt lat="46.31929" lon="-1.07509">
        <ele>5.8</ele>
        <time>2020-06-02T13:28:38Z</time>
      </trkpt>
      <trkpt lat="46.31929" lon="-1.07509">
        <ele>5.8</ele>
        <time>2020-06-02T13:28:39Z</time>
      </trkpt>
      <trkpt lat="46.31929" lon="-1.07509">
        <ele>5.8</ele>
        <time>2020-06-02T13:28:40Z</time>
      </trkpt>
      <trkpt lat="46.31929" lon="-1.07509">
        <ele>5.8</ele>
        <time>2020-06-02T13:28:41Z</time>
      </trkpt>
      <trkpt lat="46.31929" lon="-1.07509">
        <ele>5.8</ele>
        <time>2020-06-02T13:28:42Z</time>
      </trkpt>
      <trkpt lat="46.31929" lon="-1.0751">
        <ele>5.8</ele>
        <time>2020-06-02T13:28:43Z</time>
      </trkpt>
      <trkpt lat="46.31929" lon="-1.0751">
        <ele>5.8</ele>
        <time>2020-06-02T13:28:44Z</time>
      </trkpt>
      <trkpt lat="46.31929" lon="-1.0751">
        <ele>5.8</ele>
        <time>2020-06-02T13:28:45Z</time>
      </trkpt>
      <trkpt lat="46.31929" lon="-1.0751">
        <ele>5.8</ele>
        <time>2020-06-02T13:28:46Z</time>
      </trkpt>
      <trkpt lat="46.31928" lon="-1.0751">
        <ele>5.8</ele>
        <time>2020-06-02T13:28:47Z</time>
      </trkpt>
      <trkpt lat="46.31928" lon="-1.0751">
        <ele>5.8</ele>
        <time>2020-06-02T13:28:48Z</time>
      </trkpt>
      <trkpt lat="46.31928" lon="-1.0751">
        <ele>5.8</ele>
        <time>2020-06-02T13:28:49Z</time>
      </trkpt>
      <trkpt lat="46.31929" lon="-1.0751">
        <ele>5.8</ele>
        <time>2020-06-02T13:28:50Z</time>
      </trkpt>
      <trkpt lat="46.31929" lon="-1.0751">
        <ele>5.8</ele>
        <time>2020-06-02T13:28:51Z</time>
      </trkpt>
      <trkpt lat="46.31929" lon="-1.0751">
        <ele>5.8</ele>
        <time>2020-06-02T13:28:52Z</time>
      </trkpt>
      <trkpt lat="46.31928" lon="-1.0751">
        <ele>5.8</ele>
        <time>2020-06-02T13:28:53Z</time>
      </trkpt>
      <trkpt lat="46.31928" lon="-1.0751">
        <ele>5.8</ele>
        <time>2020-06-02T13:28:54Z</time>
      </trkpt>
      <trkpt lat="46.31929" lon="-1.0751">
        <ele>5.8</ele>
        <time>2020-06-02T13:28:55Z</time>
      </trkpt>
      <trkpt lat="46.31929" lon="-1.0751">
        <ele>5.8</ele>
        <time>2020-06-02T13:28:56Z</time>
      </trkpt>
      <trkpt lat="46.31929" lon="-1.0751">
        <ele>5.8</ele>
        <time>2020-06-02T13:28:57Z</time>
      </trkpt>
      <trkpt lat="46.31928" lon="-1.0751">
        <ele>5.8</ele>
        <time>2020-06-02T13:28:58Z</time>
      </trkpt>
      <trkpt lat="46.31929" lon="-1.0751">
        <ele>5.8</ele>
        <time>2020-06-02T13:28:59Z</time>
      </trkpt>
      <trkpt lat="46.31928" lon="-1.0751">
        <ele>5.8</ele>
        <time>2020-06-02T13:29:00Z</time>
      </trkpt>
      <trkpt lat="46.31928" lon="-1.0751">
        <ele>5.8</ele>
        <time>2020-06-02T13:29:01Z</time>
      </trkpt>
      <trkpt lat="46.31928" lon="-1.0751">
        <ele>5.8</ele>
        <time>2020-06-02T13:29:02Z</time>
      </trkpt>
      <trkpt lat="46.31928" lon="-1.0751">
        <ele>5.8</ele>
        <time>2020-06-02T13:29:03Z</time>
      </trkpt>
      <trkpt lat="46.31928" lon="-1.0751">
        <ele>5.8</ele>
        <time>2020-06-02T13:29:04Z</time>
      </trkpt>
      <trkpt lat="46.31928" lon="-1.07511">
        <ele>5.8</ele>
        <time>2020-06-02T13:29:05Z</time>
      </trkpt>
      <trkpt lat="46.31928" lon="-1.07511">
        <ele>5.8</ele>
        <time>2020-06-02T13:29:06Z</time>
      </trkpt>
      <trkpt lat="46.31927" lon="-1.07512">
        <ele>5.8</ele>
        <time>2020-06-02T13:29:07Z</time>
      </trkpt>
      <trkpt lat="46.31927" lon="-1.07512">
        <ele>5.8</ele>
        <time>2020-06-02T13:29:08Z</time>
      </trkpt>
      <trkpt lat="46.31926" lon="-1.07512">
        <ele>5.8</ele>
        <time>2020-06-02T13:29:09Z</time>
      </trkpt>
      <trkpt lat="46.31926" lon="-1.07512">
        <ele>5.8</ele>
        <time>2020-06-02T13:29:10Z</time>
      </trkpt>
      <trkpt lat="46.31926" lon="-1.07512">
        <ele>5.8</ele>
        <time>2020-06-02T13:29:11Z</time>
      </trkpt>
      <trkpt lat="46.31926" lon="-1.07512">
        <ele>5.7</ele>
        <time>2020-06-02T13:29:12Z</time>
      </trkpt>
      <trkpt lat="46.31926" lon="-1.07512">
        <ele>5.7</ele>
        <time>2020-06-02T13:29:13Z</time>
      </trkpt>
      <trkpt lat="46.31926" lon="-1.07512">
        <ele>5.7</ele>
        <time>2020-06-02T13:29:14Z</time>
      </trkpt>
      <trkpt lat="46.31925" lon="-1.07512">
        <ele>5.7</ele>
        <time>2020-06-02T13:29:15Z</time>
      </trkpt>
      <trkpt lat="46.31925" lon="-1.07511">
        <ele>5.7</ele>
        <time>2020-06-02T13:29:16Z</time>
      </trkpt>
      <trkpt lat="46.31926" lon="-1.07511">
        <ele>5.7</ele>
        <time>2020-06-02T13:29:17Z</time>
      </trkpt>
      <trkpt lat="46.31926" lon="-1.07511">
        <ele>5.7</ele>
        <time>2020-06-02T13:29:18Z</time>
      </trkpt>
      <trkpt lat="46.31926" lon="-1.07511">
        <ele>5.7</ele>
        <time>2020-06-02T13:29:19Z</time>
      </trkpt>
      <trkpt lat="46.31926" lon="-1.07511">
        <ele>5.7</ele>
        <time>2020-06-02T13:29:20Z</time>
      </trkpt>
      <trkpt lat="46.31926" lon="-1.07511">
        <ele>5.7</ele>
        <time>2020-06-02T13:29:21Z</time>
      </trkpt>
      <trkpt lat="46.31925" lon="-1.07511">
        <ele>5.7</ele>
        <time>2020-06-02T13:29:22Z</time>
      </trkpt>
      <trkpt lat="46.31925" lon="-1.07511">
        <ele>5.7</ele>
        <time>2020-06-02T13:29:23Z</time>
      </trkpt>
      <trkpt lat="46.31926" lon="-1.07511">
        <ele>5.7</ele>
        <time>2020-06-02T13:29:24Z</time>
      </trkpt>
      <trkpt lat="46.31926" lon="-1.07511">
        <ele>5.7</ele>
        <time>2020-06-02T13:29:25Z</time>
      </trkpt>
      <trkpt lat="46.31925" lon="-1.07511">
        <ele>5.7</ele>
        <time>2020-06-02T13:29:26Z</time>
      </trkpt>
      <trkpt lat="46.31925" lon="-1.0751">
        <ele>5.7</ele>
        <time>2020-06-02T13:29:27Z</time>
      </trkpt>
      <trkpt lat="46.31925" lon="-1.0751">
        <ele>5.7</ele>
        <time>2020-06-02T13:29:28Z</time>
      </trkpt>
      <trkpt lat="46.31925" lon="-1.0751">
        <ele>5.7</ele>
        <time>2020-06-02T13:29:29Z</time>
      </trkpt>
      <trkpt lat="46.31925" lon="-1.0751">
        <ele>5.7</ele>
        <time>2020-06-02T13:29:30Z</time>
      </trkpt>
      <trkpt lat="46.31926" lon="-1.0751">
        <ele>5.7</ele>
        <time>2020-06-02T13:29:31Z</time>
      </trkpt>
      <trkpt lat="46.31926" lon="-1.0751">
        <ele>5.7</ele>
        <time>2020-06-02T13:29:32Z</time>
      </trkpt>
      <trkpt lat="46.31925" lon="-1.0751">
        <ele>5.7</ele>
        <time>2020-06-02T13:29:33Z</time>
      </trkpt>
      <trkpt lat="46.31926" lon="-1.07509">
        <ele>5.7</ele>
        <time>2020-06-02T13:29:34Z</time>
      </trkpt>
      <trkpt lat="46.31926" lon="-1.07509">
        <ele>5.7</ele>
        <time>2020-06-02T13:29:35Z</time>
      </trkpt>
      <trkpt lat="46.31926" lon="-1.07507">
        <ele>5.7</ele>
        <time>2020-06-02T13:29:36Z</time>
      </trkpt>
      <trkpt lat="46.31926" lon="-1.07506">
        <ele>5.7</ele>
        <time>2020-06-02T13:29:37Z</time>
      </trkpt>
      <trkpt lat="46.31926" lon="-1.07504">
        <ele>5.7</ele>
        <time>2020-06-02T13:29:38Z</time>
      </trkpt>
      <trkpt lat="46.31928" lon="-1.07503">
        <ele>5.7</ele>
        <time>2020-06-02T13:29:39Z</time>
      </trkpt>
      <trkpt lat="46.31928" lon="-1.07502">
        <ele>5.7</ele>
        <time>2020-06-02T13:29:40Z</time>
      </trkpt>
      <trkpt lat="46.31928" lon="-1.07502">
        <ele>5.7</ele>
        <time>2020-06-02T13:29:41Z</time>
      </trkpt>
      <trkpt lat="46.31928" lon="-1.07501">
        <ele>5.7</ele>
        <time>2020-06-02T13:29:42Z</time>
      </trkpt>
      <trkpt lat="46.31928" lon="-1.07503">
        <ele>5.7</ele>
        <time>2020-06-02T13:29:43Z</time>
      </trkpt>
      <trkpt lat="46.31928" lon="-1.07503">
        <ele>5.7</ele>
        <time>2020-06-02T13:29:44Z</time>
      </trkpt>
      <trkpt lat="46.31928" lon="-1.07504">
        <ele>5.7</ele>
        <time>2020-06-02T13:29:45Z</time>
      </trkpt>
      <trkpt lat="46.31928" lon="-1.07503">
        <ele>5.7</ele>
        <time>2020-06-02T13:29:46Z</time>
      </trkpt>
      <trkpt lat="46.31928" lon="-1.07503">
        <ele>5.7</ele>
        <time>2020-06-02T13:29:47Z</time>
      </trkpt>
      <trkpt lat="46.31928" lon="-1.07502">
        <ele>5.7</ele>
        <time>2020-06-02T13:29:48Z</time>
      </trkpt>
      <trkpt lat="46.31927" lon="-1.07502">
        <ele>5.7</ele>
        <time>2020-06-02T13:29:49Z</time>
      </trkpt>
      <trkpt lat="46.31928" lon="-1.07502">
        <ele>5.7</ele>
        <time>2020-06-02T13:29:50Z</time>
      </trkpt>
      <trkpt lat="46.31928" lon="-1.07501">
        <ele>5.7</ele>
        <time>2020-06-02T13:29:51Z</time>
      </trkpt>
      <trkpt lat="46.31928" lon="-1.07501">
        <ele>5.7</ele>
        <time>2020-06-02T13:29:52Z</time>
      </trkpt>
      <trkpt lat="46.31928" lon="-1.07501">
        <ele>5.7</ele>
        <time>2020-06-02T13:29:53Z</time>
      </trkpt>
      <trkpt lat="46.31928" lon="-1.07501">
        <ele>5.7</ele>
        <time>2020-06-02T13:29:54Z</time>
      </trkpt>
      <trkpt lat="46.31928" lon="-1.07501">
        <ele>5.7</ele>
        <time>2020-06-02T13:29:55Z</time>
      </trkpt>
      <trkpt lat="46.31928" lon="-1.07501">
        <ele>5.7</ele>
        <time>2020-06-02T13:29:56Z</time>
      </trkpt>
      <trkpt lat="46.31928" lon="-1.07501">
        <ele>5.7</ele>
        <time>2020-06-02T13:29:57Z</time>
      </trkpt>
      <trkpt lat="46.31928" lon="-1.07501">
        <ele>5.7</ele>
        <time>2020-06-02T13:29:58Z</time>
      </trkpt>
      <trkpt lat="46.31928" lon="-1.07501">
        <ele>5.7</ele>
        <time>2020-06-02T13:29:59Z</time>
      </trkpt>
      <trkpt lat="46.31928" lon="-1.07501">
        <ele>5.7</ele>
        <time>2020-06-02T13:30:00Z</time>
      </trkpt>
      <trkpt lat="46.31928" lon="-1.07501">
        <ele>5.7</ele>
        <time>2020-06-02T13:30:01Z</time>
      </trkpt>
      <trkpt lat="46.31928" lon="-1.07501">
        <ele>5.7</ele>
        <time>2020-06-02T13:30:02Z</time>
      </trkpt>
      <trkpt lat="46.31928" lon="-1.07501">
        <ele>5.7</ele>
        <time>2020-06-02T13:30:03Z</time>
      </trkpt>
      <trkpt lat="46.31928" lon="-1.07501">
        <ele>5.7</ele>
        <time>2020-06-02T13:30:04Z</time>
      </trkpt>
      <trkpt lat="46.31928" lon="-1.07501">
        <ele>5.7</ele>
        <time>2020-06-02T13:30:05Z</time>
      </trkpt>
      <trkpt lat="46.31928" lon="-1.07501">
        <ele>5.7</ele>
        <time>2020-06-02T13:30:06Z</time>
      </trkpt>
      <trkpt lat="46.31928" lon="-1.07501">
        <ele>5.7</ele>
        <time>2020-06-02T13:30:07Z</time>
      </trkpt>
      <trkpt lat="46.31928" lon="-1.07501">
        <ele>5.7</ele>
        <time>2020-06-02T13:30:08Z</time>
      </trkpt>
      <trkpt lat="46.31928" lon="-1.07501">
        <ele>5.7</ele>
        <time>2020-06-02T13:30:09Z</time>
      </trkpt>
      <trkpt lat="46.31928" lon="-1.07501">
        <ele>5.7</ele>
        <time>2020-06-02T13:30:10Z</time>
      </trkpt>
      <trkpt lat="46.31928" lon="-1.07502">
        <ele>5.7</ele>
        <time>2020-06-02T13:30:11Z</time>
      </trkpt>
      <trkpt lat="46.31929" lon="-1.07503">
        <ele>5.7</ele>
        <time>2020-06-02T13:30:12Z</time>
      </trkpt>
      <trkpt lat="46.31928" lon="-1.07504">
        <ele>5.7</ele>
        <time>2020-06-02T13:30:13Z</time>
      </trkpt>
      <trkpt lat="46.31928" lon="-1.07506">
        <ele>5.7</ele>
        <time>2020-06-02T13:30:14Z</time>
      </trkpt>
      <trkpt lat="46.31928" lon="-1.07508">
        <ele>5.7</ele>
        <time>2020-06-02T13:30:15Z</time>
      </trkpt>
      <trkpt lat="46.31928" lon="-1.07508">
        <ele>5.7</ele>
        <time>2020-06-02T13:30:16Z</time>
      </trkpt>
      <trkpt lat="46.31928" lon="-1.07508">
        <ele>5.7</ele>
        <time>2020-06-02T13:30:17Z</time>
      </trkpt>
      <trkpt lat="46.31927" lon="-1.07508">
        <ele>5.7</ele>
        <time>2020-06-02T13:30:18Z</time>
      </trkpt>
      <trkpt lat="46.31927" lon="-1.07509">
        <ele>5.7</ele>
        <time>2020-06-02T13:30:19Z</time>
      </trkpt>
      <trkpt lat="46.31927" lon="-1.07509">
        <ele>5.7</ele>
        <time>2020-06-02T13:30:20Z</time>
      </trkpt>
      <trkpt lat="46.31927" lon="-1.07509">
        <ele>5.7</ele>
        <time>2020-06-02T13:30:21Z</time>
      </trkpt>
      <trkpt lat="46.31927" lon="-1.07509">
        <ele>5.7</ele>
        <time>2020-06-02T13:30:22Z</time>
      </trkpt>
      <trkpt lat="46.31927" lon="-1.0751">
        <ele>5.7</ele>
        <time>2020-06-02T13:30:23Z</time>
      </trkpt>
      <trkpt lat="46.31927" lon="-1.0751">
        <ele>5.7</ele>
        <time>2020-06-02T13:30:24Z</time>
      </trkpt>
      <trkpt lat="46.31927" lon="-1.0751">
        <ele>5.7</ele>
        <time>2020-06-02T13:30:25Z</time>
      </trkpt>
      <trkpt lat="46.31927" lon="-1.0751">
        <ele>5.7</ele>
        <time>2020-06-02T13:30:26Z</time>
      </trkpt>
      <trkpt lat="46.31927" lon="-1.0751">
        <ele>5.7</ele>
        <time>2020-06-02T13:30:27Z</time>
      </trkpt>
      <trkpt lat="46.31927" lon="-1.0751">
        <ele>5.7</ele>
        <time>2020-06-02T13:30:28Z</time>
      </trkpt>
      <trkpt lat="46.31927" lon="-1.0751">
        <ele>5.7</ele>
        <time>2020-06-02T13:30:29Z</time>
      </trkpt>
      <trkpt lat="46.31927" lon="-1.0751">
        <ele>5.7</ele>
        <time>2020-06-02T13:30:30Z</time>
      </trkpt>
      <trkpt lat="46.31927" lon="-1.0751">
        <ele>5.7</ele>
        <time>2020-06-02T13:30:31Z</time>
      </trkpt>
      <trkpt lat="46.31927" lon="-1.0751">
        <ele>5.7</ele>
        <time>2020-06-02T13:30:32Z</time>
      </trkpt>
      <trkpt lat="46.31927" lon="-1.0751">
        <ele>5.7</ele>
        <time>2020-06-02T13:30:33Z</time>
      </trkpt>
      <trkpt lat="46.31927" lon="-1.0751">
        <ele>5.7</ele>
        <time>2020-06-02T13:30:34Z</time>
      </trkpt>
      <trkpt lat="46.31927" lon="-1.07511">
        <ele>5.7</ele>
        <time>2020-06-02T13:30:35Z</time>
      </trkpt>
      <trkpt lat="46.31927" lon="-1.07511">
        <ele>5.7</ele>
        <time>2020-06-02T13:30:36Z</time>
      </trkpt>
      <trkpt lat="46.31927" lon="-1.07511">
        <ele>5.7</ele>
        <time>2020-06-02T13:30:37Z</time>
      </trkpt>
      <trkpt lat="46.31927" lon="-1.07511">
        <ele>5.7</ele>
        <time>2020-06-02T13:30:38Z</time>
      </trkpt>
      <trkpt lat="46.31927" lon="-1.07511">
        <ele>5.7</ele>
        <time>2020-06-02T13:30:39Z</time>
      </trkpt>
      <trkpt lat="46.31927" lon="-1.07511">
        <ele>5.7</ele>
        <time>2020-06-02T13:30:40Z</time>
      </trkpt>
      <trkpt lat="46.31927" lon="-1.07511">
        <ele>5.7</ele>
        <time>2020-06-02T13:30:41Z</time>
      </trkpt>
      <trkpt lat="46.31927" lon="-1.07511">
        <ele>5.7</ele>
        <time>2020-06-02T13:30:42Z</time>
      </trkpt>
      <trkpt lat="46.31927" lon="-1.07511">
        <ele>5.7</ele>
        <time>2020-06-02T13:30:43Z</time>
      </trkpt>
      <trkpt lat="46.31927" lon="-1.07511">
        <ele>5.7</ele>
        <time>2020-06-02T13:30:44Z</time>
      </trkpt>
      <trkpt lat="46.31927" lon="-1.07511">
        <ele>5.7</ele>
        <time>2020-06-02T13:30:45Z</time>
      </trkpt>
      <trkpt lat="46.31927" lon="-1.07511">
        <ele>5.7</ele>
        <time>2020-06-02T13:30:46Z</time>
      </trkpt>
      <trkpt lat="46.31927" lon="-1.07511">
        <ele>5.7</ele>
        <time>2020-06-02T13:30:47Z</time>
      </trkpt>
      <trkpt lat="46.31927" lon="-1.07511">
        <ele>5.7</ele>
        <time>2020-06-02T13:30:48Z</time>
      </trkpt>
      <trkpt lat="46.31927" lon="-1.07511">
        <ele>5.7</ele>
        <time>2020-06-02T13:30:49Z</time>
      </trkpt>
      <trkpt lat="46.31927" lon="-1.07511">
        <ele>5.7</ele>
        <time>2020-06-02T13:30:50Z</time>
      </trkpt>
      <trkpt lat="46.31927" lon="-1.07511">
        <ele>5.7</ele>
        <time>2020-06-02T13:30:51Z</time>
      </trkpt>
      <trkpt lat="46.31927" lon="-1.07511">
        <ele>5.7</ele>
        <time>2020-06-02T13:30:52Z</time>
      </trkpt>
      <trkpt lat="46.31927" lon="-1.07511">
        <ele>5.7</ele>
        <time>2020-06-02T13:30:53Z</time>
      </trkpt>
      <trkpt lat="46.31927" lon="-1.07511">
        <ele>5.7</ele>
        <time>2020-06-02T13:30:54Z</time>
      </trkpt>
      <trkpt lat="46.31926" lon="-1.07511">
        <ele>5.7</ele>
        <time>2020-06-02T13:30:55Z</time>
      </trkpt>
      <trkpt lat="46.31926" lon="-1.07511">
        <ele>5.7</ele>
        <time>2020-06-02T13:30:56Z</time>
      </trkpt>
      <trkpt lat="46.31926" lon="-1.07511">
        <ele>5.7</ele>
        <time>2020-06-02T13:30:57Z</time>
      </trkpt>
      <trkpt lat="46.31926" lon="-1.07511">
        <ele>5.7</ele>
        <time>2020-06-02T13:30:58Z</time>
      </trkpt>
      <trkpt lat="46.31926" lon="-1.0751">
        <ele>5.7</ele>
        <time>2020-06-02T13:30:59Z</time>
      </trkpt>
      <trkpt lat="46.31926" lon="-1.0751">
        <ele>5.7</ele>
        <time>2020-06-02T13:31:00Z</time>
      </trkpt>
      <trkpt lat="46.31926" lon="-1.07511">
        <ele>5.7</ele>
        <time>2020-06-02T13:31:01Z</time>
      </trkpt>
      <trkpt lat="46.31925" lon="-1.07509">
        <ele>5.7</ele>
        <time>2020-06-02T13:31:02Z</time>
      </trkpt>
      <trkpt lat="46.31925" lon="-1.07508">
        <ele>5.7</ele>
        <time>2020-06-02T13:31:03Z</time>
      </trkpt>
      <trkpt lat="46.31925" lon="-1.07507">
        <ele>5.7</ele>
        <time>2020-06-02T13:31:04Z</time>
      </trkpt>
      <trkpt lat="46.31925" lon="-1.07505">
        <ele>5.7</ele>
        <time>2020-06-02T13:31:05Z</time>
      </trkpt>
      <trkpt lat="46.31926" lon="-1.07502">
        <ele>5.7</ele>
        <time>2020-06-02T13:31:06Z</time>
      </trkpt>
      <trkpt lat="46.31926" lon="-1.075">
        <ele>5.7</ele>
        <time>2020-06-02T13:31:07Z</time>
      </trkpt>
      <trkpt lat="46.31927" lon="-1.07499">
        <ele>5.7</ele>
        <time>2020-06-02T13:31:08Z</time>
      </trkpt>
      <trkpt lat="46.31928" lon="-1.07496">
        <ele>5.7</ele>
        <time>2020-06-02T13:31:09Z</time>
      </trkpt>
      <trkpt lat="46.31928" lon="-1.07494">
        <ele>5.7</ele>
        <time>2020-06-02T13:31:10Z</time>
      </trkpt>
      <trkpt lat="46.31929" lon="-1.07492">
        <ele>5.7</ele>
        <time>2020-06-02T13:31:11Z</time>
      </trkpt>
      <trkpt lat="46.31929" lon="-1.0749">
        <ele>5.7</ele>
        <time>2020-06-02T13:31:12Z</time>
      </trkpt>
      <trkpt lat="46.31931" lon="-1.07489">
        <ele>5.7</ele>
        <time>2020-06-02T13:31:13Z</time>
      </trkpt>
      <trkpt lat="46.31931" lon="-1.07488">
        <ele>5.6</ele>
        <time>2020-06-02T13:31:14Z</time>
      </trkpt>
      <trkpt lat="46.3193" lon="-1.07488">
        <ele>5.6</ele>
        <time>2020-06-02T13:31:15Z</time>
      </trkpt>
      <trkpt lat="46.3193" lon="-1.07489">
        <ele>5.6</ele>
        <time>2020-06-02T13:31:16Z</time>
      </trkpt>
      <trkpt lat="46.3193" lon="-1.0749">
        <ele>5.6</ele>
        <time>2020-06-02T13:31:17Z</time>
      </trkpt>
      <trkpt lat="46.3193" lon="-1.0749">
        <ele>5.6</ele>
        <time>2020-06-02T13:31:18Z</time>
      </trkpt>
      <trkpt lat="46.3193" lon="-1.0749">
        <ele>5.6</ele>
        <time>2020-06-02T13:31:19Z</time>
      </trkpt>
      <trkpt lat="46.3193" lon="-1.0749">
        <ele>5.6</ele>
        <time>2020-06-02T13:31:20Z</time>
      </trkpt>
      <trkpt lat="46.3193" lon="-1.0749">
        <ele>5.6</ele>
        <time>2020-06-02T13:31:21Z</time>
      </trkpt>
      <trkpt lat="46.3193" lon="-1.0749">
        <ele>5.6</ele>
        <time>2020-06-02T13:31:22Z</time>
      </trkpt>
      <trkpt lat="46.3193" lon="-1.0749">
        <ele>5.6</ele>
        <time>2020-06-02T13:31:23Z</time>
      </trkpt>
      <trkpt lat="46.3193" lon="-1.0749">
        <ele>5.6</ele>
        <time>2020-06-02T13:31:24Z</time>
      </trkpt>
      <trkpt lat="46.3193" lon="-1.0749">
        <ele>5.6</ele>
        <time>2020-06-02T13:31:25Z</time>
      </trkpt>
      <trkpt lat="46.3193" lon="-1.0749">
        <ele>5.6</ele>
        <time>2020-06-02T13:31:26Z</time>
      </trkpt>
      <trkpt lat="46.3193" lon="-1.0749">
        <ele>5.6</ele>
        <time>2020-06-02T13:31:27Z</time>
      </trkpt>
      <trkpt lat="46.3193" lon="-1.0749">
        <ele>5.6</ele>
        <time>2020-06-02T13:31:28Z</time>
      </trkpt>
      <trkpt lat="46.3193" lon="-1.0749">
        <ele>5.6</ele>
        <time>2020-06-02T13:31:29Z</time>
      </trkpt>
      <trkpt lat="46.3193" lon="-1.0749">
        <ele>5.6</ele>
        <time>2020-06-02T13:31:30Z</time>
      </trkpt>
      <trkpt lat="46.3193" lon="-1.0749">
        <ele>5.6</ele>
        <time>2020-06-02T13:31:31Z</time>
      </trkpt>
      <trkpt lat="46.3193" lon="-1.0749">
        <ele>5.6</ele>
        <time>2020-06-02T13:31:32Z</time>
      </trkpt>
      <trkpt lat="46.3193" lon="-1.0749">
        <ele>5.6</ele>
        <time>2020-06-02T13:31:33Z</time>
      </trkpt>
      <trkpt lat="46.3193" lon="-1.0749">
        <ele>5.6</ele>
        <time>2020-06-02T13:31:34Z</time>
      </trkpt>
      <trkpt lat="46.3193" lon="-1.0749">
        <ele>5.6</ele>
        <time>2020-06-02T13:31:35Z</time>
      </trkpt>
      <trkpt lat="46.3193" lon="-1.07489">
        <ele>5.6</ele>
        <time>2020-06-02T13:31:36Z</time>
      </trkpt>
      <trkpt lat="46.3193" lon="-1.07489">
        <ele>5.6</ele>
        <time>2020-06-02T13:31:37Z</time>
      </trkpt>
      <trkpt lat="46.3193" lon="-1.07489">
        <ele>5.6</ele>
        <time>2020-06-02T13:31:38Z</time>
      </trkpt>
      <trkpt lat="46.3193" lon="-1.07489">
        <ele>5.6</ele>
        <time>2020-06-02T13:31:39Z</time>
      </trkpt>
      <trkpt lat="46.3193" lon="-1.07489">
        <ele>5.6</ele>
        <time>2020-06-02T13:31:40Z</time>
      </trkpt>
      <trkpt lat="46.3193" lon="-1.07489">
        <ele>5.6</ele>
        <time>2020-06-02T13:31:41Z</time>
      </trkpt>
      <trkpt lat="46.3193" lon="-1.07489">
        <ele>5.6</ele>
        <time>2020-06-02T13:31:42Z</time>
      </trkpt>
      <trkpt lat="46.3193" lon="-1.07489">
        <ele>5.6</ele>
        <time>2020-06-02T13:31:43Z</time>
      </trkpt>
      <trkpt lat="46.3193" lon="-1.07489">
        <ele>5.6</ele>
        <time>2020-06-02T13:31:44Z</time>
      </trkpt>
      <trkpt lat="46.3193" lon="-1.07489">
        <ele>5.6</ele>
        <time>2020-06-02T13:31:45Z</time>
      </trkpt>
      <trkpt lat="46.3193" lon="-1.07489">
        <ele>5.6</ele>
        <time>2020-06-02T13:31:46Z</time>
      </trkpt>
      <trkpt lat="46.3193" lon="-1.07489">
        <ele>5.6</ele>
        <time>2020-06-02T13:31:47Z</time>
      </trkpt>
      <trkpt lat="46.3193" lon="-1.07489">
        <ele>5.6</ele>
        <time>2020-06-02T13:31:48Z</time>
      </trkpt>
      <trkpt lat="46.3193" lon="-1.07489">
        <ele>5.6</ele>
        <time>2020-06-02T13:31:49Z</time>
      </trkpt>
      <trkpt lat="46.3193" lon="-1.07489">
        <ele>5.6</ele>
        <time>2020-06-02T13:31:50Z</time>
      </trkpt>
      <trkpt lat="46.3193" lon="-1.07489">
        <ele>5.6</ele>
        <time>2020-06-02T13:31:51Z</time>
      </trkpt>
      <trkpt lat="46.3193" lon="-1.07489">
        <ele>5.6</ele>
        <time>2020-06-02T13:31:52Z</time>
      </trkpt>
      <trkpt lat="46.3193" lon="-1.07489">
        <ele>5.6</ele>
        <time>2020-06-02T13:31:53Z</time>
      </trkpt>
      <trkpt lat="46.3193" lon="-1.07489">
        <ele>5.6</ele>
        <time>2020-06-02T13:31:54Z</time>
      </trkpt>
      <trkpt lat="46.3193" lon="-1.07489">
        <ele>5.6</ele>
        <time>2020-06-02T13:31:55Z</time>
      </trkpt>
      <trkpt lat="46.3193" lon="-1.07489">
        <ele>5.6</ele>
        <time>2020-06-02T13:31:56Z</time>
      </trkpt>
      <trkpt lat="46.3193" lon="-1.07488">
        <ele>5.6</ele>
        <time>2020-06-02T13:31:57Z</time>
      </trkpt>
      <trkpt lat="46.3193" lon="-1.0749">
        <ele>5.6</ele>
        <time>2020-06-02T13:31:58Z</time>
      </trkpt>
      <trkpt lat="46.31929" lon="-1.07491">
        <ele>5.6</ele>
        <time>2020-06-02T13:31:59Z</time>
      </trkpt>
      <trkpt lat="46.31928" lon="-1.07492">
        <ele>5.6</ele>
        <time>2020-06-02T13:32:00Z</time>
      </trkpt>
      <trkpt lat="46.31928" lon="-1.07493">
        <ele>5.6</ele>
        <time>2020-06-02T13:32:01Z</time>
      </trkpt>
      <trkpt lat="46.31927" lon="-1.07494">
        <ele>5.6</ele>
        <time>2020-06-02T13:32:02Z</time>
      </trkpt>
      <trkpt lat="46.31927" lon="-1.07494">
        <ele>5.6</ele>
        <time>2020-06-02T13:32:03Z</time>
      </trkpt>
      <trkpt lat="46.31927" lon="-1.07494">
        <ele>5.6</ele>
        <time>2020-06-02T13:32:04Z</time>
      </trkpt>
      <trkpt lat="46.31927" lon="-1.07494">
        <ele>5.6</ele>
        <time>2020-06-02T13:32:05Z</time>
      </trkpt>
      <trkpt lat="46.31927" lon="-1.07494">
        <ele>5.6</ele>
        <time>2020-06-02T13:32:06Z</time>
      </trkpt>
      <trkpt lat="46.31927" lon="-1.07494">
        <ele>5.6</ele>
        <time>2020-06-02T13:32:07Z</time>
      </trkpt>
      <trkpt lat="46.31927" lon="-1.07494">
        <ele>5.6</ele>
        <time>2020-06-02T13:32:08Z</time>
      </trkpt>
      <trkpt lat="46.31927" lon="-1.07494">
        <ele>5.6</ele>
        <time>2020-06-02T13:32:09Z</time>
      </trkpt>
      <trkpt lat="46.31927" lon="-1.07494">
        <ele>5.6</ele>
        <time>2020-06-02T13:32:10Z</time>
      </trkpt>
      <trkpt lat="46.31927" lon="-1.07494">
        <ele>5.6</ele>
        <time>2020-06-02T13:32:11Z</time>
      </trkpt>
      <trkpt lat="46.31927" lon="-1.07494">
        <ele>5.6</ele>
        <time>2020-06-02T13:32:12Z</time>
      </trkpt>
      <trkpt lat="46.31927" lon="-1.07494">
        <ele>5.6</ele>
        <time>2020-06-02T13:32:13Z</time>
      </trkpt>
      <trkpt lat="46.31927" lon="-1.07494">
        <ele>5.6</ele>
        <time>2020-06-02T13:32:14Z</time>
      </trkpt>
      <trkpt lat="46.31927" lon="-1.07494">
        <ele>5.6</ele>
        <time>2020-06-02T13:32:15Z</time>
      </trkpt>
      <trkpt lat="46.31927" lon="-1.07495">
        <ele>5.6</ele>
        <time>2020-06-02T13:32:16Z</time>
      </trkpt>
      <trkpt lat="46.31927" lon="-1.07495">
        <ele>5.6</ele>
        <time>2020-06-02T13:32:17Z</time>
      </trkpt>
      <trkpt lat="46.31926" lon="-1.07495">
        <ele>5.6</ele>
        <time>2020-06-02T13:32:18Z</time>
      </trkpt>
      <trkpt lat="46.31926" lon="-1.07495">
        <ele>5.6</ele>
        <time>2020-06-02T13:32:19Z</time>
      </trkpt>
      <trkpt lat="46.31926" lon="-1.07495">
        <ele>5.6</ele>
        <time>2020-06-02T13:32:20Z</time>
      </trkpt>
      <trkpt lat="46.31926" lon="-1.07495">
        <ele>5.6</ele>
        <time>2020-06-02T13:32:21Z</time>
      </trkpt>
      <trkpt lat="46.31926" lon="-1.07496">
        <ele>5.6</ele>
        <time>2020-06-02T13:32:22Z</time>
      </trkpt>
      <trkpt lat="46.31926" lon="-1.07496">
        <ele>5.6</ele>
        <time>2020-06-02T13:32:23Z</time>
      </trkpt>
      <trkpt lat="46.31926" lon="-1.07496">
        <ele>5.6</ele>
        <time>2020-06-02T13:32:24Z</time>
      </trkpt>
      <trkpt lat="46.31926" lon="-1.07497">
        <ele>5.6</ele>
        <time>2020-06-02T13:32:25Z</time>
      </trkpt>
      <trkpt lat="46.31926" lon="-1.07497">
        <ele>5.6</ele>
        <time>2020-06-02T13:32:26Z</time>
      </trkpt>
      <trkpt lat="46.31926" lon="-1.07497">
        <ele>5.6</ele>
        <time>2020-06-02T13:32:27Z</time>
      </trkpt>
      <trkpt lat="46.31926" lon="-1.07497">
        <ele>5.6</ele>
        <time>2020-06-02T13:32:28Z</time>
      </trkpt>
      <trkpt lat="46.31926" lon="-1.07497">
        <ele>5.6</ele>
        <time>2020-06-02T13:32:29Z</time>
      </trkpt>
      <trkpt lat="46.31926" lon="-1.07497">
        <ele>5.6</ele>
        <time>2020-06-02T13:32:30Z</time>
      </trkpt>
      <trkpt lat="46.31926" lon="-1.07498">
        <ele>5.6</ele>
        <time>2020-06-02T13:32:31Z</time>
      </trkpt>
      <trkpt lat="46.31926" lon="-1.07499">
        <ele>5.6</ele>
        <time>2020-06-02T13:32:32Z</time>
      </trkpt>
      <trkpt lat="46.31926" lon="-1.07499">
        <ele>5.6</ele>
        <time>2020-06-02T13:32:33Z</time>
      </trkpt>
      <trkpt lat="46.31926" lon="-1.07499">
        <ele>5.6</ele>
        <time>2020-06-02T13:32:34Z</time>
      </trkpt>
      <trkpt lat="46.31925" lon="-1.07498">
        <ele>5.6</ele>
        <time>2020-06-02T13:32:35Z</time>
      </trkpt>
      <trkpt lat="46.31925" lon="-1.07498">
        <ele>5.6</ele>
        <time>2020-06-02T13:32:36Z</time>
      </trkpt>
      <trkpt lat="46.31925" lon="-1.07498">
        <ele>5.6</ele>
        <time>2020-06-02T13:32:37Z</time>
      </trkpt>
      <trkpt lat="46.31925" lon="-1.075">
        <ele>5.6</ele>
        <time>2020-06-02T13:32:38Z</time>
      </trkpt>
      <trkpt lat="46.31925" lon="-1.07501">
        <ele>5.6</ele>
        <time>2020-06-02T13:32:39Z</time>
      </trkpt>
      <trkpt lat="46.31925" lon="-1.07501">
        <ele>5.6</ele>
        <time>2020-06-02T13:32:40Z</time>
      </trkpt>
      <trkpt lat="46.31925" lon="-1.07501">
        <ele>5.6</ele>
        <time>2020-06-02T13:32:41Z</time>
      </trkpt>
      <trkpt lat="46.31925" lon="-1.07502">
        <ele>5.6</ele>
        <time>2020-06-02T13:32:42Z</time>
      </trkpt>
      <trkpt lat="46.31925" lon="-1.07501">
        <ele>5.6</ele>
        <time>2020-06-02T13:32:43Z</time>
      </trkpt>
      <trkpt lat="46.31925" lon="-1.075">
        <ele>5.6</ele>
        <time>2020-06-02T13:32:44Z</time>
      </trkpt>
      <trkpt lat="46.31925" lon="-1.075">
        <ele>5.6</ele>
        <time>2020-06-02T13:32:45Z</time>
      </trkpt>
      <trkpt lat="46.31925" lon="-1.075">
        <ele>5.6</ele>
        <time>2020-06-02T13:32:46Z</time>
      </trkpt>
      <trkpt lat="46.31925" lon="-1.075">
        <ele>5.6</ele>
        <time>2020-06-02T13:32:47Z</time>
      </trkpt>
      <trkpt lat="46.31925" lon="-1.075">
        <ele>5.6</ele>
        <time>2020-06-02T13:32:48Z</time>
      </trkpt>
      <trkpt lat="46.31925" lon="-1.075">
        <ele>5.6</ele>
        <time>2020-06-02T13:32:49Z</time>
      </trkpt>
      <trkpt lat="46.31926" lon="-1.07498">
        <ele>5.6</ele>
        <time>2020-06-02T13:32:50Z</time>
      </trkpt>
      <trkpt lat="46.31926" lon="-1.07497">
        <ele>5.6</ele>
        <time>2020-06-02T13:32:51Z</time>
      </trkpt>
      <trkpt lat="46.31928" lon="-1.07496">
        <ele>5.6</ele>
        <time>2020-06-02T13:32:52Z</time>
      </trkpt>
      <trkpt lat="46.31928" lon="-1.07495">
        <ele>5.6</ele>
        <time>2020-06-02T13:32:53Z</time>
      </trkpt>
      <trkpt lat="46.31928" lon="-1.07495">
        <ele>5.6</ele>
        <time>2020-06-02T13:32:54Z</time>
      </trkpt>
      <trkpt lat="46.31928" lon="-1.07495">
        <ele>5.6</ele>
        <time>2020-06-02T13:32:55Z</time>
      </trkpt>
      <trkpt lat="46.31928" lon="-1.07496">
        <ele>5.6</ele>
        <time>2020-06-02T13:32:56Z</time>
      </trkpt>
      <trkpt lat="46.31928" lon="-1.07496">
        <ele>5.6</ele>
        <time>2020-06-02T13:32:57Z</time>
      </trkpt>
      <trkpt lat="46.31928" lon="-1.07496">
        <ele>5.6</ele>
        <time>2020-06-02T13:32:58Z</time>
      </trkpt>
      <trkpt lat="46.31928" lon="-1.07496">
        <ele>5.6</ele>
        <time>2020-06-02T13:32:59Z</time>
      </trkpt>
      <trkpt lat="46.31928" lon="-1.07496">
        <ele>5.6</ele>
        <time>2020-06-02T13:33:00Z</time>
      </trkpt>
      <trkpt lat="46.31928" lon="-1.07496">
        <ele>5.6</ele>
        <time>2020-06-02T13:33:01Z</time>
      </trkpt>
      <trkpt lat="46.31928" lon="-1.07496">
        <ele>5.6</ele>
        <time>2020-06-02T13:33:02Z</time>
      </trkpt>
      <trkpt lat="46.31928" lon="-1.07496">
        <ele>5.6</ele>
        <time>2020-06-02T13:33:03Z</time>
      </trkpt>
      <trkpt lat="46.31928" lon="-1.07496">
        <ele>5.6</ele>
        <time>2020-06-02T13:33:04Z</time>
      </trkpt>
      <trkpt lat="46.31928" lon="-1.07496">
        <ele>5.6</ele>
        <time>2020-06-02T13:33:05Z</time>
      </trkpt>
      <trkpt lat="46.31928" lon="-1.07496">
        <ele>5.6</ele>
        <time>2020-06-02T13:33:06Z</time>
      </trkpt>
      <trkpt lat="46.31928" lon="-1.07496">
        <ele>5.6</ele>
        <time>2020-06-02T13:33:07Z</time>
      </trkpt>
      <trkpt lat="46.31928" lon="-1.07496">
        <ele>5.6</ele>
        <time>2020-06-02T13:33:08Z</time>
      </trkpt>
      <trkpt lat="46.31928" lon="-1.07495">
        <ele>5.6</ele>
        <time>2020-06-02T13:33:09Z</time>
      </trkpt>
      <trkpt lat="46.31929" lon="-1.07496">
        <ele>5.6</ele>
        <time>2020-06-02T13:33:10Z</time>
      </trkpt>
      <trkpt lat="46.31929" lon="-1.07497">
        <ele>5.6</ele>
        <time>2020-06-02T13:33:11Z</time>
      </trkpt>
      <trkpt lat="46.3193" lon="-1.07499">
        <ele>5.6</ele>
        <time>2020-06-02T13:33:12Z</time>
      </trkpt>
      <trkpt lat="46.3193" lon="-1.07502">
        <ele>5.6</ele>
        <time>2020-06-02T13:33:13Z</time>
      </trkpt>
      <trkpt lat="46.3193" lon="-1.07504">
        <ele>5.6</ele>
        <time>2020-06-02T13:33:14Z</time>
      </trkpt>
      <trkpt lat="46.3193" lon="-1.07505">
        <ele>5.6</ele>
        <time>2020-06-02T13:33:15Z</time>
      </trkpt>
      <trkpt lat="46.31929" lon="-1.07506">
        <ele>5.6</ele>
        <time>2020-06-02T13:33:16Z</time>
      </trkpt>
      <trkpt lat="46.31929" lon="-1.07507">
        <ele>5.6</ele>
        <time>2020-06-02T13:33:17Z</time>
      </trkpt>
      <trkpt lat="46.31929" lon="-1.07508">
        <ele>5.6</ele>
        <time>2020-06-02T13:33:18Z</time>
      </trkpt>
      <trkpt lat="46.31928" lon="-1.07508">
        <ele>5.6</ele>
        <time>2020-06-02T13:33:19Z</time>
      </trkpt>
      <trkpt lat="46.31928" lon="-1.07508">
        <ele>5.6</ele>
        <time>2020-06-02T13:33:20Z</time>
      </trkpt>
      <trkpt lat="46.31928" lon="-1.07509">
        <ele>5.6</ele>
        <time>2020-06-02T13:33:21Z</time>
      </trkpt>
      <trkpt lat="46.31928" lon="-1.07509">
        <ele>5.6</ele>
        <time>2020-06-02T13:33:22Z</time>
      </trkpt>
      <trkpt lat="46.31928" lon="-1.07509">
        <ele>5.6</ele>
        <time>2020-06-02T13:33:23Z</time>
      </trkpt>
      <trkpt lat="46.31928" lon="-1.07509">
        <ele>5.6</ele>
        <time>2020-06-02T13:33:24Z</time>
      </trkpt>
      <trkpt lat="46.31928" lon="-1.07509">
        <ele>5.6</ele>
        <time>2020-06-02T13:33:25Z</time>
      </trkpt>
      <trkpt lat="46.31928" lon="-1.07509">
        <ele>5.6</ele>
        <time>2020-06-02T13:33:26Z</time>
      </trkpt>
      <trkpt lat="46.31928" lon="-1.07509">
        <ele>5.6</ele>
        <time>2020-06-02T13:33:27Z</time>
      </trkpt>
      <trkpt lat="46.31928" lon="-1.07509">
        <ele>5.6</ele>
        <time>2020-06-02T13:33:28Z</time>
      </trkpt>
      <trkpt lat="46.31928" lon="-1.07509">
        <ele>5.6</ele>
        <time>2020-06-02T13:33:29Z</time>
      </trkpt>
      <trkpt lat="46.31928" lon="-1.07509">
        <ele>5.6</ele>
        <time>2020-06-02T13:33:30Z</time>
      </trkpt>
      <trkpt lat="46.31928" lon="-1.07509">
        <ele>5.6</ele>
        <time>2020-06-02T13:33:31Z</time>
      </trkpt>
      <trkpt lat="46.31928" lon="-1.07509">
        <ele>5.6</ele>
        <time>2020-06-02T13:33:32Z</time>
      </trkpt>
      <trkpt lat="46.31928" lon="-1.07509">
        <ele>5.6</ele>
        <time>2020-06-02T13:33:33Z</time>
      </trkpt>
      <trkpt lat="46.31928" lon="-1.07509">
        <ele>5.6</ele>
        <time>2020-06-02T13:33:34Z</time>
      </trkpt>
      <trkpt lat="46.31928" lon="-1.07509">
        <ele>5.6</ele>
        <time>2020-06-02T13:33:35Z</time>
      </trkpt>
      <trkpt lat="46.31928" lon="-1.07509">
        <ele>5.6</ele>
        <time>2020-06-02T13:33:36Z</time>
      </trkpt>
      <trkpt lat="46.31928" lon="-1.07509">
        <ele>5.6</ele>
        <time>2020-06-02T13:33:37Z</time>
      </trkpt>
      <trkpt lat="46.31928" lon="-1.07509">
        <ele>5.6</ele>
        <time>2020-06-02T13:33:38Z</time>
      </trkpt>
      <trkpt lat="46.31928" lon="-1.07509">
        <ele>5.6</ele>
        <time>2020-06-02T13:33:39Z</time>
      </trkpt>
      <trkpt lat="46.31928" lon="-1.07509">
        <ele>5.6</ele>
        <time>2020-06-02T13:33:40Z</time>
      </trkpt>
      <trkpt lat="46.31928" lon="-1.07509">
        <ele>5.6</ele>
        <time>2020-06-02T13:33:41Z</time>
      </trkpt>
      <trkpt lat="46.31928" lon="-1.07509">
        <ele>5.6</ele>
        <time>2020-06-02T13:33:42Z</time>
      </trkpt>
      <trkpt lat="46.31928" lon="-1.07509">
        <ele>5.6</ele>
        <time>2020-06-02T13:33:43Z</time>
      </trkpt>
      <trkpt lat="46.31928" lon="-1.0751">
        <ele>5.6</ele>
        <time>2020-06-02T13:33:44Z</time>
      </trkpt>
      <trkpt lat="46.31928" lon="-1.0751">
        <ele>5.6</ele>
        <time>2020-06-02T13:33:45Z</time>
      </trkpt>
      <trkpt lat="46.31928" lon="-1.0751">
        <ele>5.6</ele>
        <time>2020-06-02T13:33:46Z</time>
      </trkpt>
      <trkpt lat="46.31927" lon="-1.07509">
        <ele>5.6</ele>
        <time>2020-06-02T13:33:47Z</time>
      </trkpt>
      <trkpt lat="46.31927" lon="-1.07509">
        <ele>5.6</ele>
        <time>2020-06-02T13:33:48Z</time>
      </trkpt>
      <trkpt lat="46.31927" lon="-1.07509">
        <ele>5.6</ele>
        <time>2020-06-02T13:33:49Z</time>
      </trkpt>
      <trkpt lat="46.31927" lon="-1.07508">
        <ele>5.6</ele>
        <time>2020-06-02T13:33:50Z</time>
      </trkpt>
      <trkpt lat="46.31926" lon="-1.07508">
        <ele>5.6</ele>
        <time>2020-06-02T13:33:51Z</time>
      </trkpt>
      <trkpt lat="46.31926" lon="-1.07508">
        <ele>5.6</ele>
        <time>2020-06-02T13:33:52Z</time>
      </trkpt>
      <trkpt lat="46.31926" lon="-1.07508">
        <ele>5.6</ele>
        <time>2020-06-02T13:33:53Z</time>
      </trkpt>
      <trkpt lat="46.31926" lon="-1.07508">
        <ele>5.6</ele>
        <time>2020-06-02T13:33:54Z</time>
      </trkpt>
      <trkpt lat="46.31926" lon="-1.07508">
        <ele>5.6</ele>
        <time>2020-06-02T13:33:55Z</time>
      </trkpt>
      <trkpt lat="46.31926" lon="-1.07508">
        <ele>5.6</ele>
        <time>2020-06-02T13:33:56Z</time>
      </trkpt>
      <trkpt lat="46.31926" lon="-1.07508">
        <ele>5.6</ele>
        <time>2020-06-02T13:33:57Z</time>
      </trkpt>
      <trkpt lat="46.31926" lon="-1.07508">
        <ele>5.6</ele>
        <time>2020-06-02T13:33:58Z</time>
      </trkpt>
      <trkpt lat="46.31926" lon="-1.07507">
        <ele>5.6</ele>
        <time>2020-06-02T13:33:59Z</time>
      </trkpt>
      <trkpt lat="46.31926" lon="-1.07507">
        <ele>5.6</ele>
        <time>2020-06-02T13:34:00Z</time>
      </trkpt>
      <trkpt lat="46.31926" lon="-1.07507">
        <ele>5.6</ele>
        <time>2020-06-02T13:34:01Z</time>
      </trkpt>
      <trkpt lat="46.31926" lon="-1.07507">
        <ele>5.6</ele>
        <time>2020-06-02T13:34:02Z</time>
      </trkpt>
      <trkpt lat="46.31926" lon="-1.07507">
        <ele>5.6</ele>
        <time>2020-06-02T13:34:03Z</time>
      </trkpt>
      <trkpt lat="46.31926" lon="-1.07507">
        <ele>5.6</ele>
        <time>2020-06-02T13:34:04Z</time>
      </trkpt>
      <trkpt lat="46.31926" lon="-1.07507">
        <ele>5.6</ele>
        <time>2020-06-02T13:34:05Z</time>
      </trkpt>
      <trkpt lat="46.31926" lon="-1.07507">
        <ele>5.6</ele>
        <time>2020-06-02T13:34:06Z</time>
      </trkpt>
      <trkpt lat="46.31926" lon="-1.07507">
        <ele>5.6</ele>
        <time>2020-06-02T13:34:07Z</time>
      </trkpt>
      <trkpt lat="46.31926" lon="-1.07507">
        <ele>5.6</ele>
        <time>2020-06-02T13:34:08Z</time>
      </trkpt>
      <trkpt lat="46.31926" lon="-1.07507">
        <ele>5.6</ele>
        <time>2020-06-02T13:34:09Z</time>
      </trkpt>
      <trkpt lat="46.31926" lon="-1.07507">
        <ele>5.6</ele>
        <time>2020-06-02T13:34:10Z</time>
      </trkpt>
      <trkpt lat="46.31926" lon="-1.07507">
        <ele>5.6</ele>
        <time>2020-06-02T13:34:11Z</time>
      </trkpt>
      <trkpt lat="46.31926" lon="-1.07507">
        <ele>5.6</ele>
        <time>2020-06-02T13:34:12Z</time>
      </trkpt>
      <trkpt lat="46.31926" lon="-1.07507">
        <ele>5.6</ele>
        <time>2020-06-02T13:34:13Z</time>
      </trkpt>
      <trkpt lat="46.31926" lon="-1.07507">
        <ele>5.6</ele>
        <time>2020-06-02T13:34:14Z</time>
      </trkpt>
      <trkpt lat="46.31925" lon="-1.07508">
        <ele>5.6</ele>
        <time>2020-06-02T13:34:15Z</time>
      </trkpt>
      <trkpt lat="46.31925" lon="-1.07508">
        <ele>5.6</ele>
        <time>2020-06-02T13:34:16Z</time>
      </trkpt>
      <trkpt lat="46.31925" lon="-1.07508">
        <ele>5.6</ele>
        <time>2020-06-02T13:34:17Z</time>
      </trkpt>
      <trkpt lat="46.31925" lon="-1.07508">
        <ele>5.6</ele>
        <time>2020-06-02T13:34:18Z</time>
      </trkpt>
      <trkpt lat="46.31925" lon="-1.07509">
        <ele>5.6</ele>
        <time>2020-06-02T13:34:19Z</time>
      </trkpt>
      <trkpt lat="46.31925" lon="-1.07509">
        <ele>5.6</ele>
        <time>2020-06-02T13:34:20Z</time>
      </trkpt>
      <trkpt lat="46.31925" lon="-1.07508">
        <ele>5.6</ele>
        <time>2020-06-02T13:34:21Z</time>
      </trkpt>
      <trkpt lat="46.31925" lon="-1.07509">
        <ele>5.6</ele>
        <time>2020-06-02T13:34:22Z</time>
      </trkpt>
      <trkpt lat="46.31925" lon="-1.07509">
        <ele>5.6</ele>
        <time>2020-06-02T13:34:23Z</time>
      </trkpt>
      <trkpt lat="46.31925" lon="-1.07509">
        <ele>5.6</ele>
        <time>2020-06-02T13:34:24Z</time>
      </trkpt>
      <trkpt lat="46.31925" lon="-1.07509">
        <ele>5.6</ele>
        <time>2020-06-02T13:34:25Z</time>
      </trkpt>
      <trkpt lat="46.31925" lon="-1.07509">
        <ele>5.6</ele>
        <time>2020-06-02T13:34:26Z</time>
      </trkpt>
      <trkpt lat="46.31925" lon="-1.07509">
        <ele>5.6</ele>
        <time>2020-06-02T13:34:27Z</time>
      </trkpt>
      <trkpt lat="46.31925" lon="-1.07509">
        <ele>5.6</ele>
        <time>2020-06-02T13:34:28Z</time>
      </trkpt>
      <trkpt lat="46.31925" lon="-1.07509">
        <ele>5.6</ele>
        <time>2020-06-02T13:34:29Z</time>
      </trkpt>
      <trkpt lat="46.31925" lon="-1.07509">
        <ele>5.6</ele>
        <time>2020-06-02T13:34:30Z</time>
      </trkpt>
      <trkpt lat="46.31925" lon="-1.07509">
        <ele>5.6</ele>
        <time>2020-06-02T13:34:31Z</time>
      </trkpt>
      <trkpt lat="46.31925" lon="-1.07509">
        <ele>5.6</ele>
        <time>2020-06-02T13:34:32Z</time>
      </trkpt>
      <trkpt lat="46.31925" lon="-1.07509">
        <ele>5.6</ele>
        <time>2020-06-02T13:34:33Z</time>
      </trkpt>
      <trkpt lat="46.31925" lon="-1.0751">
        <ele>5.6</ele>
        <time>2020-06-02T13:34:34Z</time>
      </trkpt>
      <trkpt lat="46.31925" lon="-1.07509">
        <ele>5.6</ele>
        <time>2020-06-02T13:34:35Z</time>
      </trkpt>
      <trkpt lat="46.31924" lon="-1.07509">
        <ele>5.6</ele>
        <time>2020-06-02T13:34:36Z</time>
      </trkpt>
      <trkpt lat="46.31924" lon="-1.07509">
        <ele>5.6</ele>
        <time>2020-06-02T13:34:37Z</time>
      </trkpt>
      <trkpt lat="46.31924" lon="-1.07509">
        <ele>5.6</ele>
        <time>2020-06-02T13:34:38Z</time>
      </trkpt>
      <trkpt lat="46.31924" lon="-1.07509">
        <ele>5.6</ele>
        <time>2020-06-02T13:34:39Z</time>
      </trkpt>
      <trkpt lat="46.31924" lon="-1.07509">
        <ele>5.6</ele>
        <time>2020-06-02T13:34:40Z</time>
      </trkpt>
      <trkpt lat="46.31924" lon="-1.07509">
        <ele>5.6</ele>
        <time>2020-06-02T13:34:41Z</time>
      </trkpt>
      <trkpt lat="46.31924" lon="-1.07509">
        <ele>5.6</ele>
        <time>2020-06-02T13:34:42Z</time>
      </trkpt>
      <trkpt lat="46.31924" lon="-1.07509">
        <ele>5.6</ele>
        <time>2020-06-02T13:34:43Z</time>
      </trkpt>
      <trkpt lat="46.31924" lon="-1.07509">
        <ele>5.6</ele>
        <time>2020-06-02T13:34:44Z</time>
      </trkpt>
      <trkpt lat="46.31924" lon="-1.07509">
        <ele>5.6</ele>
        <time>2020-06-02T13:34:45Z</time>
      </trkpt>
      <trkpt lat="46.31924" lon="-1.07509">
        <ele>5.6</ele>
        <time>2020-06-02T13:34:46Z</time>
      </trkpt>
      <trkpt lat="46.31924" lon="-1.07509">
        <ele>5.6</ele>
        <time>2020-06-02T13:34:47Z</time>
      </trkpt>
      <trkpt lat="46.31925" lon="-1.07509">
        <ele>5.6</ele>
        <time>2020-06-02T13:34:48Z</time>
      </trkpt>
      <trkpt lat="46.31925" lon="-1.07508">
        <ele>5.6</ele>
        <time>2020-06-02T13:34:49Z</time>
      </trkpt>
      <trkpt lat="46.31925" lon="-1.07509">
        <ele>5.6</ele>
        <time>2020-06-02T13:34:50Z</time>
      </trkpt>
      <trkpt lat="46.31925" lon="-1.07509">
        <ele>5.6</ele>
        <time>2020-06-02T13:34:51Z</time>
      </trkpt>
      <trkpt lat="46.31924" lon="-1.07509">
        <ele>5.6</ele>
        <time>2020-06-02T13:34:52Z</time>
      </trkpt>
      <trkpt lat="46.31925" lon="-1.07509">
        <ele>5.6</ele>
        <time>2020-06-02T13:34:53Z</time>
      </trkpt>
      <trkpt lat="46.31924" lon="-1.07509">
        <ele>5.6</ele>
        <time>2020-06-02T13:34:54Z</time>
      </trkpt>
      <trkpt lat="46.31924" lon="-1.07509">
        <ele>5.6</ele>
        <time>2020-06-02T13:34:55Z</time>
      </trkpt>
      <trkpt lat="46.31924" lon="-1.07509">
        <ele>5.6</ele>
        <time>2020-06-02T13:34:56Z</time>
      </trkpt>
      <trkpt lat="46.31924" lon="-1.07509">
        <ele>5.6</ele>
        <time>2020-06-02T13:34:57Z</time>
      </trkpt>
      <trkpt lat="46.31924" lon="-1.07509">
        <ele>5.6</ele>
        <time>2020-06-02T13:34:58Z</time>
      </trkpt>
      <trkpt lat="46.31924" lon="-1.07509">
        <ele>5.6</ele>
        <time>2020-06-02T13:34:59Z</time>
      </trkpt>
      <trkpt lat="46.31924" lon="-1.07509">
        <ele>5.6</ele>
        <time>2020-06-02T13:35:00Z</time>
      </trkpt>
      <trkpt lat="46.31924" lon="-1.07509">
        <ele>5.6</ele>
        <time>2020-06-02T13:35:01Z</time>
      </trkpt>
      <trkpt lat="46.31924" lon="-1.07509">
        <ele>5.6</ele>
        <time>2020-06-02T13:35:02Z</time>
      </trkpt>
      <trkpt lat="46.31924" lon="-1.07509">
        <ele>5.6</ele>
        <time>2020-06-02T13:35:03Z</time>
      </trkpt>
      <trkpt lat="46.31924" lon="-1.07509">
        <ele>5.6</ele>
        <time>2020-06-02T13:35:04Z</time>
      </trkpt>
      <trkpt lat="46.31924" lon="-1.07509">
        <ele>5.6</ele>
        <time>2020-06-02T13:35:05Z</time>
      </trkpt>
      <trkpt lat="46.31924" lon="-1.07509">
        <ele>5.6</ele>
        <time>2020-06-02T13:35:06Z</time>
      </trkpt>
      <trkpt lat="46.31924" lon="-1.07509">
        <ele>5.6</ele>
        <time>2020-06-02T13:35:07Z</time>
      </trkpt>
      <trkpt lat="46.31924" lon="-1.07509">
        <ele>5.6</ele>
        <time>2020-06-02T13:35:08Z</time>
      </trkpt>
      <trkpt lat="46.31924" lon="-1.07509">
        <ele>5.6</ele>
        <time>2020-06-02T13:35:09Z</time>
      </trkpt>
      <trkpt lat="46.31924" lon="-1.07509">
        <ele>5.6</ele>
        <time>2020-06-02T13:35:10Z</time>
      </trkpt>
      <trkpt lat="46.31924" lon="-1.07509">
        <ele>5.6</ele>
        <time>2020-06-02T13:35:11Z</time>
      </trkpt>
      <trkpt lat="46.31924" lon="-1.07509">
        <ele>5.6</ele>
        <time>2020-06-02T13:35:12Z</time>
      </trkpt>
      <trkpt lat="46.31924" lon="-1.07509">
        <ele>5.6</ele>
        <time>2020-06-02T13:35:13Z</time>
      </trkpt>
      <trkpt lat="46.31924" lon="-1.07509">
        <ele>5.6</ele>
        <time>2020-06-02T13:35:14Z</time>
      </trkpt>
      <trkpt lat="46.31924" lon="-1.07509">
        <ele>5.6</ele>
        <time>2020-06-02T13:35:15Z</time>
      </trkpt>
      <trkpt lat="46.31924" lon="-1.07509">
        <ele>5.6</ele>
        <time>2020-06-02T13:35:16Z</time>
      </trkpt>
      <trkpt lat="46.31924" lon="-1.07509">
        <ele>5.6</ele>
        <time>2020-06-02T13:35:17Z</time>
      </trkpt>
      <trkpt lat="46.31924" lon="-1.07509">
        <ele>5.6</ele>
        <time>2020-06-02T13:35:18Z</time>
      </trkpt>
      <trkpt lat="46.31924" lon="-1.07509">
        <ele>5.6</ele>
        <time>2020-06-02T13:35:19Z</time>
      </trkpt>
      <trkpt lat="46.31924" lon="-1.07509">
        <ele>5.6</ele>
        <time>2020-06-02T13:35:20Z</time>
      </trkpt>
      <trkpt lat="46.31924" lon="-1.07509">
        <ele>5.6</ele>
        <time>2020-06-02T13:35:21Z</time>
      </trkpt>
      <trkpt lat="46.31924" lon="-1.07509">
        <ele>5.6</ele>
        <time>2020-06-02T13:35:22Z</time>
      </trkpt>
      <trkpt lat="46.31924" lon="-1.07508">
        <ele>5.6</ele>
        <time>2020-06-02T13:35:23Z</time>
      </trkpt>
      <trkpt lat="46.31924" lon="-1.07508">
        <ele>5.6</ele>
        <time>2020-06-02T13:35:24Z</time>
      </trkpt>
      <trkpt lat="46.31924" lon="-1.07509">
        <ele>5.6</ele>
        <time>2020-06-02T13:35:25Z</time>
      </trkpt>
      <trkpt lat="46.31924" lon="-1.07511">
        <ele>5.6</ele>
        <time>2020-06-02T13:35:26Z</time>
      </trkpt>
      <trkpt lat="46.31925" lon="-1.07511">
        <ele>5.6</ele>
        <time>2020-06-02T13:35:27Z</time>
      </trkpt>
      <trkpt lat="46.31926" lon="-1.07513">
        <ele>5.6</ele>
        <time>2020-06-02T13:35:28Z</time>
      </trkpt>
      <trkpt lat="46.31927" lon="-1.07513">
        <ele>5.6</ele>
        <time>2020-06-02T13:35:29Z</time>
      </trkpt>
      <trkpt lat="46.31926" lon="-1.07513">
        <ele>5.6</ele>
        <time>2020-06-02T13:35:30Z</time>
      </trkpt>
      <trkpt lat="46.31927" lon="-1.07513">
        <ele>5.6</ele>
        <time>2020-06-02T13:35:31Z</time>
      </trkpt>
      <trkpt lat="46.31927" lon="-1.07513">
        <ele>5.6</ele>
        <time>2020-06-02T13:35:32Z</time>
      </trkpt>
      <trkpt lat="46.31927" lon="-1.07513">
        <ele>5.6</ele>
        <time>2020-06-02T13:35:33Z</time>
      </trkpt>
      <trkpt lat="46.31927" lon="-1.07513">
        <ele>5.6</ele>
        <time>2020-06-02T13:35:34Z</time>
      </trkpt>
      <trkpt lat="46.31927" lon="-1.07513">
        <ele>5.6</ele>
        <time>2020-06-02T13:35:35Z</time>
      </trkpt>
      <trkpt lat="46.31927" lon="-1.07513">
        <ele>5.6</ele>
        <time>2020-06-02T13:35:36Z</time>
      </trkpt>
      <trkpt lat="46.31927" lon="-1.07513">
        <ele>5.6</ele>
        <time>2020-06-02T13:35:37Z</time>
      </trkpt>
      <trkpt lat="46.31927" lon="-1.07513">
        <ele>5.6</ele>
        <time>2020-06-02T13:35:38Z</time>
      </trkpt>
      <trkpt lat="46.31927" lon="-1.07513">
        <ele>5.6</ele>
        <time>2020-06-02T13:35:39Z</time>
      </trkpt>
      <trkpt lat="46.31927" lon="-1.07513">
        <ele>5.6</ele>
        <time>2020-06-02T13:35:40Z</time>
      </trkpt>
      <trkpt lat="46.31927" lon="-1.07513">
        <ele>5.6</ele>
        <time>2020-06-02T13:35:41Z</time>
      </trkpt>
      <trkpt lat="46.31927" lon="-1.07513">
        <ele>5.6</ele>
        <time>2020-06-02T13:35:42Z</time>
      </trkpt>
      <trkpt lat="46.31927" lon="-1.07513">
        <ele>5.6</ele>
        <time>2020-06-02T13:35:43Z</time>
      </trkpt>
      <trkpt lat="46.31927" lon="-1.07513">
        <ele>5.6</ele>
        <time>2020-06-02T13:35:44Z</time>
      </trkpt>
      <trkpt lat="46.31927" lon="-1.07513">
        <ele>5.6</ele>
        <time>2020-06-02T13:35:45Z</time>
      </trkpt>
      <trkpt lat="46.31927" lon="-1.07513">
        <ele>5.6</ele>
        <time>2020-06-02T13:35:46Z</time>
      </trkpt>
      <trkpt lat="46.31927" lon="-1.07513">
        <ele>5.6</ele>
        <time>2020-06-02T13:35:47Z</time>
      </trkpt>
      <trkpt lat="46.31927" lon="-1.07514">
        <ele>5.6</ele>
        <time>2020-06-02T13:35:48Z</time>
      </trkpt>
      <trkpt lat="46.31927" lon="-1.07514">
        <ele>5.6</ele>
        <time>2020-06-02T13:35:49Z</time>
      </trkpt>
      <trkpt lat="46.31927" lon="-1.07514">
        <ele>5.6</ele>
        <time>2020-06-02T13:35:50Z</time>
      </trkpt>
      <trkpt lat="46.31927" lon="-1.07514">
        <ele>5.6</ele>
        <time>2020-06-02T13:35:51Z</time>
      </trkpt>
      <trkpt lat="46.31927" lon="-1.07514">
        <ele>5.6</ele>
        <time>2020-06-02T13:35:52Z</time>
      </trkpt>
      <trkpt lat="46.31928" lon="-1.07514">
        <ele>5.6</ele>
        <time>2020-06-02T13:35:53Z</time>
      </trkpt>
      <trkpt lat="46.31928" lon="-1.07514">
        <ele>5.6</ele>
        <time>2020-06-02T13:35:54Z</time>
      </trkpt>
      <trkpt lat="46.31928" lon="-1.07514">
        <ele>5.6</ele>
        <time>2020-06-02T13:35:55Z</time>
      </trkpt>
      <trkpt lat="46.31928" lon="-1.07514">
        <ele>5.6</ele>
        <time>2020-06-02T13:35:56Z</time>
      </trkpt>
      <trkpt lat="46.31928" lon="-1.07514">
        <ele>5.6</ele>
        <time>2020-06-02T13:35:57Z</time>
      </trkpt>
      <trkpt lat="46.31928" lon="-1.07514">
        <ele>5.6</ele>
        <time>2020-06-02T13:35:58Z</time>
      </trkpt>
      <trkpt lat="46.31928" lon="-1.07514">
        <ele>5.6</ele>
        <time>2020-06-02T13:35:59Z</time>
      </trkpt>
      <trkpt lat="46.31928" lon="-1.07515">
        <ele>5.6</ele>
        <time>2020-06-02T13:36:00Z</time>
      </trkpt>
      <trkpt lat="46.31928" lon="-1.07516">
        <ele>5.6</ele>
        <time>2020-06-02T13:36:01Z</time>
      </trkpt>
      <trkpt lat="46.31929" lon="-1.07515">
        <ele>5.6</ele>
        <time>2020-06-02T13:36:02Z</time>
      </trkpt>
      <trkpt lat="46.31929" lon="-1.07515">
        <ele>5.6</ele>
        <time>2020-06-02T13:36:03Z</time>
      </trkpt>
      <trkpt lat="46.31929" lon="-1.07515">
        <ele>5.6</ele>
        <time>2020-06-02T13:36:04Z</time>
      </trkpt>
      <trkpt lat="46.31929" lon="-1.07515">
        <ele>5.6</ele>
        <time>2020-06-02T13:36:05Z</time>
      </trkpt>
      <trkpt lat="46.31929" lon="-1.07515">
        <ele>5.6</ele>
        <time>2020-06-02T13:36:06Z</time>
      </trkpt>
      <trkpt lat="46.31929" lon="-1.07514">
        <ele>5.6</ele>
        <time>2020-06-02T13:36:07Z</time>
      </trkpt>
      <trkpt lat="46.31929" lon="-1.07513">
        <ele>5.6</ele>
        <time>2020-06-02T13:36:08Z</time>
      </trkpt>
      <trkpt lat="46.31929" lon="-1.07512">
        <ele>5.6</ele>
        <time>2020-06-02T13:36:09Z</time>
      </trkpt>
      <trkpt lat="46.31929" lon="-1.07511">
        <ele>5.6</ele>
        <time>2020-06-02T13:36:10Z</time>
      </trkpt>
      <trkpt lat="46.31929" lon="-1.07511">
        <ele>5.6</ele>
        <time>2020-06-02T13:36:11Z</time>
      </trkpt>
      <trkpt lat="46.31929" lon="-1.0751">
        <ele>5.6</ele>
        <time>2020-06-02T13:36:12Z</time>
      </trkpt>
      <trkpt lat="46.31929" lon="-1.07509">
        <ele>5.6</ele>
        <time>2020-06-02T13:36:13Z</time>
      </trkpt>
      <trkpt lat="46.3193" lon="-1.07507">
        <ele>5.6</ele>
        <time>2020-06-02T13:36:14Z</time>
      </trkpt>
      <trkpt lat="46.3193" lon="-1.07506">
        <ele>5.6</ele>
        <time>2020-06-02T13:36:15Z</time>
      </trkpt>
      <trkpt lat="46.3193" lon="-1.07505">
        <ele>5.6</ele>
        <time>2020-06-02T13:36:16Z</time>
      </trkpt>
      <trkpt lat="46.3193" lon="-1.07503">
        <ele>5.6</ele>
        <time>2020-06-02T13:36:17Z</time>
      </trkpt>
      <trkpt lat="46.3193" lon="-1.07502">
        <ele>5.6</ele>
        <time>2020-06-02T13:36:18Z</time>
      </trkpt>
      <trkpt lat="46.3193" lon="-1.07501">
        <ele>5.6</ele>
        <time>2020-06-02T13:36:19Z</time>
      </trkpt>
      <trkpt lat="46.3193" lon="-1.075">
        <ele>5.6</ele>
        <time>2020-06-02T13:36:20Z</time>
      </trkpt>
      <trkpt lat="46.3193" lon="-1.075">
        <ele>5.6</ele>
        <time>2020-06-02T13:36:21Z</time>
      </trkpt>
      <trkpt lat="46.3193" lon="-1.075">
        <ele>5.6</ele>
        <time>2020-06-02T13:36:22Z</time>
      </trkpt>
      <trkpt lat="46.3193" lon="-1.075">
        <ele>5.6</ele>
        <time>2020-06-02T13:36:23Z</time>
      </trkpt>
      <trkpt lat="46.3193" lon="-1.075">
        <ele>5.6</ele>
        <time>2020-06-02T13:36:24Z</time>
      </trkpt>
      <trkpt lat="46.3193" lon="-1.075">
        <ele>5.6</ele>
        <time>2020-06-02T13:36:25Z</time>
      </trkpt>
      <trkpt lat="46.3193" lon="-1.075">
        <ele>5.6</ele>
        <time>2020-06-02T13:36:26Z</time>
      </trkpt>
      <trkpt lat="46.3193" lon="-1.075">
        <ele>5.6</ele>
        <time>2020-06-02T13:36:27Z</time>
      </trkpt>
      <trkpt lat="46.3193" lon="-1.075">
        <ele>5.6</ele>
        <time>2020-06-02T13:36:28Z</time>
      </trkpt>
      <trkpt lat="46.3193" lon="-1.075">
        <ele>5.6</ele>
        <time>2020-06-02T13:36:29Z</time>
      </trkpt>
      <trkpt lat="46.3193" lon="-1.075">
        <ele>5.6</ele>
        <time>2020-06-02T13:36:30Z</time>
      </trkpt>
      <trkpt lat="46.3193" lon="-1.075">
        <ele>5.6</ele>
        <time>2020-06-02T13:36:31Z</time>
      </trkpt>
      <trkpt lat="46.3193" lon="-1.075">
        <ele>5.6</ele>
        <time>2020-06-02T13:36:32Z</time>
      </trkpt>
      <trkpt lat="46.3193" lon="-1.075">
        <ele>5.6</ele>
        <time>2020-06-02T13:36:33Z</time>
      </trkpt>
      <trkpt lat="46.3193" lon="-1.07499">
        <ele>5.6</ele>
        <time>2020-06-02T13:36:34Z</time>
      </trkpt>
      <trkpt lat="46.3193" lon="-1.07499">
        <ele>5.6</ele>
        <time>2020-06-02T13:36:35Z</time>
      </trkpt>
      <trkpt lat="46.3193" lon="-1.07499">
        <ele>5.6</ele>
        <time>2020-06-02T13:36:36Z</time>
      </trkpt>
      <trkpt lat="46.3193" lon="-1.07498">
        <ele>5.6</ele>
        <time>2020-06-02T13:36:37Z</time>
      </trkpt>
      <trkpt lat="46.3193" lon="-1.07498">
        <ele>5.6</ele>
        <time>2020-06-02T13:36:38Z</time>
      </trkpt>
      <trkpt lat="46.3193" lon="-1.07499">
        <ele>5.6</ele>
        <time>2020-06-02T13:36:39Z</time>
      </trkpt>
      <trkpt lat="46.31929" lon="-1.07498">
        <ele>5.6</ele>
        <time>2020-06-02T13:36:40Z</time>
      </trkpt>
      <trkpt lat="46.31929" lon="-1.07498">
        <ele>5.6</ele>
        <time>2020-06-02T13:36:41Z</time>
      </trkpt>
      <trkpt lat="46.31928" lon="-1.07498">
        <ele>5.6</ele>
        <time>2020-06-02T13:36:42Z</time>
      </trkpt>
      <trkpt lat="46.31928" lon="-1.07499">
        <ele>5.6</ele>
        <time>2020-06-02T13:36:43Z</time>
      </trkpt>
      <trkpt lat="46.31929" lon="-1.075">
        <ele>5.6</ele>
        <time>2020-06-02T13:36:44Z</time>
      </trkpt>
      <trkpt lat="46.31929" lon="-1.07501">
        <ele>5.6</ele>
        <time>2020-06-02T13:36:45Z</time>
      </trkpt>
      <trkpt lat="46.31928" lon="-1.07503">
        <ele>5.6</ele>
        <time>2020-06-02T13:36:46Z</time>
      </trkpt>
      <trkpt lat="46.31928" lon="-1.07503">
        <ele>5.6</ele>
        <time>2020-06-02T13:36:47Z</time>
      </trkpt>
      <trkpt lat="46.31927" lon="-1.07504">
        <ele>5.6</ele>
        <time>2020-06-02T13:36:48Z</time>
      </trkpt>
      <trkpt lat="46.31926" lon="-1.07505">
        <ele>5.6</ele>
        <time>2020-06-02T13:36:49Z</time>
      </trkpt>
      <trkpt lat="46.31926" lon="-1.07506">
        <ele>5.6</ele>
        <time>2020-06-02T13:36:50Z</time>
      </trkpt>
      <trkpt lat="46.31926" lon="-1.07506">
        <ele>5.6</ele>
        <time>2020-06-02T13:36:51Z</time>
      </trkpt>
      <trkpt lat="46.31926" lon="-1.07507">
        <ele>5.6</ele>
        <time>2020-06-02T13:36:52Z</time>
      </trkpt>
      <trkpt lat="46.31924" lon="-1.07506">
        <ele>5.6</ele>
        <time>2020-06-02T13:36:53Z</time>
      </trkpt>
      <trkpt lat="46.31924" lon="-1.07507">
        <ele>5.6</ele>
        <time>2020-06-02T13:36:54Z</time>
      </trkpt>
      <trkpt lat="46.31923" lon="-1.07507">
        <ele>5.6</ele>
        <time>2020-06-02T13:36:55Z</time>
      </trkpt>
      <trkpt lat="46.31923" lon="-1.07507">
        <ele>5.6</ele>
        <time>2020-06-02T13:36:56Z</time>
      </trkpt>
      <trkpt lat="46.31923" lon="-1.07507">
        <ele>5.6</ele>
        <time>2020-06-02T13:36:57Z</time>
      </trkpt>
      <trkpt lat="46.31923" lon="-1.07507">
        <ele>5.6</ele>
        <time>2020-06-02T13:36:58Z</time>
      </trkpt>
      <trkpt lat="46.31923" lon="-1.07507">
        <ele>5.6</ele>
        <time>2020-06-02T13:36:59Z</time>
      </trkpt>
      <trkpt lat="46.31923" lon="-1.07507">
        <ele>5.6</ele>
        <time>2020-06-02T13:37:00Z</time>
      </trkpt>
      <trkpt lat="46.31923" lon="-1.07507">
        <ele>5.6</ele>
        <time>2020-06-02T13:37:01Z</time>
      </trkpt>
      <trkpt lat="46.31923" lon="-1.07507">
        <ele>5.6</ele>
        <time>2020-06-02T13:37:02Z</time>
      </trkpt>
      <trkpt lat="46.31923" lon="-1.07507">
        <ele>5.6</ele>
        <time>2020-06-02T13:37:03Z</time>
      </trkpt>
      <trkpt lat="46.31923" lon="-1.07507">
        <ele>5.6</ele>
        <time>2020-06-02T13:37:04Z</time>
      </trkpt>
      <trkpt lat="46.31923" lon="-1.07507">
        <ele>5.6</ele>
        <time>2020-06-02T13:37:05Z</time>
      </trkpt>
      <trkpt lat="46.31923" lon="-1.07507">
        <ele>5.6</ele>
        <time>2020-06-02T13:37:06Z</time>
      </trkpt>
      <trkpt lat="46.31923" lon="-1.07507">
        <ele>5.6</ele>
        <time>2020-06-02T13:37:07Z</time>
      </trkpt>
      <trkpt lat="46.31923" lon="-1.07507">
        <ele>5.6</ele>
        <time>2020-06-02T13:37:08Z</time>
      </trkpt>
      <trkpt lat="46.31923" lon="-1.07508">
        <ele>5.6</ele>
        <time>2020-06-02T13:37:09Z</time>
      </trkpt>
      <trkpt lat="46.31923" lon="-1.07508">
        <ele>5.6</ele>
        <time>2020-06-02T13:37:10Z</time>
      </trkpt>
      <trkpt lat="46.31923" lon="-1.07508">
        <ele>5.6</ele>
        <time>2020-06-02T13:37:11Z</time>
      </trkpt>
      <trkpt lat="46.31924" lon="-1.07508">
        <ele>5.6</ele>
        <time>2020-06-02T13:37:12Z</time>
      </trkpt>
      <trkpt lat="46.31924" lon="-1.07507">
        <ele>5.6</ele>
        <time>2020-06-02T13:37:13Z</time>
      </trkpt>
      <trkpt lat="46.31924" lon="-1.07507">
        <ele>5.6</ele>
        <time>2020-06-02T13:37:14Z</time>
      </trkpt>
      <trkpt lat="46.31924" lon="-1.07508">
        <ele>5.6</ele>
        <time>2020-06-02T13:37:15Z</time>
      </trkpt>
      <trkpt lat="46.31924" lon="-1.07508">
        <ele>5.6</ele>
        <time>2020-06-02T13:37:16Z</time>
      </trkpt>
      <trkpt lat="46.31925" lon="-1.07509">
        <ele>5.6</ele>
        <time>2020-06-02T13:37:17Z</time>
      </trkpt>
      <trkpt lat="46.31925" lon="-1.07509">
        <ele>5.6</ele>
        <time>2020-06-02T13:37:18Z</time>
      </trkpt>
      <trkpt lat="46.31925" lon="-1.0751">
        <ele>5.6</ele>
        <time>2020-06-02T13:37:19Z</time>
      </trkpt>
      <trkpt lat="46.31925" lon="-1.0751">
        <ele>5.6</ele>
        <time>2020-06-02T13:37:20Z</time>
      </trkpt>
      <trkpt lat="46.31925" lon="-1.0751">
        <ele>5.6</ele>
        <time>2020-06-02T13:37:21Z</time>
      </trkpt>
      <trkpt lat="46.31925" lon="-1.0751">
        <ele>5.6</ele>
        <time>2020-06-02T13:37:22Z</time>
      </trkpt>
      <trkpt lat="46.31925" lon="-1.0751">
        <ele>5.6</ele>
        <time>2020-06-02T13:37:23Z</time>
      </trkpt>
      <trkpt lat="46.31925" lon="-1.0751">
        <ele>5.6</ele>
        <time>2020-06-02T13:37:24Z</time>
      </trkpt>
      <trkpt lat="46.31925" lon="-1.0751">
        <ele>5.6</ele>
        <time>2020-06-02T13:37:25Z</time>
      </trkpt>
      <trkpt lat="46.31925" lon="-1.0751">
        <ele>5.6</ele>
        <time>2020-06-02T13:37:26Z</time>
      </trkpt>
      <trkpt lat="46.31925" lon="-1.0751">
        <ele>5.6</ele>
        <time>2020-06-02T13:37:27Z</time>
      </trkpt>
      <trkpt lat="46.31925" lon="-1.07511">
        <ele>5.6</ele>
        <time>2020-06-02T13:37:28Z</time>
      </trkpt>
      <trkpt lat="46.31925" lon="-1.07511">
        <ele>5.6</ele>
        <time>2020-06-02T13:37:29Z</time>
      </trkpt>
      <trkpt lat="46.31925" lon="-1.0751">
        <ele>5.6</ele>
        <time>2020-06-02T13:37:30Z</time>
      </trkpt>
      <trkpt lat="46.31925" lon="-1.0751">
        <ele>5.6</ele>
        <time>2020-06-02T13:37:31Z</time>
      </trkpt>
      <trkpt lat="46.31925" lon="-1.07511">
        <ele>5.6</ele>
        <time>2020-06-02T13:37:32Z</time>
      </trkpt>
      <trkpt lat="46.31925" lon="-1.07511">
        <ele>5.6</ele>
        <time>2020-06-02T13:37:33Z</time>
      </trkpt>
      <trkpt lat="46.31925" lon="-1.07511">
        <ele>5.6</ele>
        <time>2020-06-02T13:37:34Z</time>
      </trkpt>
      <trkpt lat="46.31925" lon="-1.07511">
        <ele>5.6</ele>
        <time>2020-06-02T13:37:35Z</time>
      </trkpt>
      <trkpt lat="46.31925" lon="-1.07511">
        <ele>5.6</ele>
        <time>2020-06-02T13:37:36Z</time>
      </trkpt>
      <trkpt lat="46.31925" lon="-1.07511">
        <ele>5.6</ele>
        <time>2020-06-02T13:37:37Z</time>
      </trkpt>
      <trkpt lat="46.31925" lon="-1.07511">
        <ele>5.6</ele>
        <time>2020-06-02T13:37:38Z</time>
      </trkpt>
      <trkpt lat="46.31925" lon="-1.07511">
        <ele>5.6</ele>
        <time>2020-06-02T13:37:39Z</time>
      </trkpt>
      <trkpt lat="46.31925" lon="-1.07511">
        <ele>5.6</ele>
        <time>2020-06-02T13:37:40Z</time>
      </trkpt>
      <trkpt lat="46.31925" lon="-1.07511">
        <ele>5.6</ele>
        <time>2020-06-02T13:37:41Z</time>
      </trkpt>
      <trkpt lat="46.31925" lon="-1.07511">
        <ele>5.6</ele>
        <time>2020-06-02T13:37:42Z</time>
      </trkpt>
      <trkpt lat="46.31925" lon="-1.07511">
        <ele>5.6</ele>
        <time>2020-06-02T13:37:43Z</time>
      </trkpt>
      <trkpt lat="46.31925" lon="-1.07511">
        <ele>5.6</ele>
        <time>2020-06-02T13:37:44Z</time>
      </trkpt>
      <trkpt lat="46.31925" lon="-1.07511">
        <ele>5.6</ele>
        <time>2020-06-02T13:37:45Z</time>
      </trkpt>
      <trkpt lat="46.31925" lon="-1.07511">
        <ele>5.6</ele>
        <time>2020-06-02T13:37:46Z</time>
      </trkpt>
      <trkpt lat="46.31925" lon="-1.07511">
        <ele>5.6</ele>
        <time>2020-06-02T13:37:47Z</time>
      </trkpt>
      <trkpt lat="46.31925" lon="-1.07511">
        <ele>5.6</ele>
        <time>2020-06-02T13:37:48Z</time>
      </trkpt>
      <trkpt lat="46.31925" lon="-1.07511">
        <ele>5.6</ele>
        <time>2020-06-02T13:37:49Z</time>
      </trkpt>
      <trkpt lat="46.31925" lon="-1.07511">
        <ele>5.6</ele>
        <time>2020-06-02T13:37:50Z</time>
      </trkpt>
      <trkpt lat="46.31925" lon="-1.07512">
        <ele>5.6</ele>
        <time>2020-06-02T13:37:51Z</time>
      </trkpt>
      <trkpt lat="46.31925" lon="-1.07512">
        <ele>5.6</ele>
        <time>2020-06-02T13:37:52Z</time>
      </trkpt>
      <trkpt lat="46.31925" lon="-1.07512">
        <ele>5.6</ele>
        <time>2020-06-02T13:37:53Z</time>
      </trkpt>
      <trkpt lat="46.31925" lon="-1.07512">
        <ele>5.6</ele>
        <time>2020-06-02T13:37:54Z</time>
      </trkpt>
      <trkpt lat="46.31925" lon="-1.07512">
        <ele>5.6</ele>
        <time>2020-06-02T13:37:55Z</time>
      </trkpt>
      <trkpt lat="46.31925" lon="-1.07512">
        <ele>5.6</ele>
        <time>2020-06-02T13:37:56Z</time>
      </trkpt>
      <trkpt lat="46.31925" lon="-1.07512">
        <ele>5.6</ele>
        <time>2020-06-02T13:37:57Z</time>
      </trkpt>
      <trkpt lat="46.31925" lon="-1.07512">
        <ele>5.6</ele>
        <time>2020-06-02T13:37:58Z</time>
      </trkpt>
      <trkpt lat="46.31925" lon="-1.07512">
        <ele>5.6</ele>
        <time>2020-06-02T13:37:59Z</time>
      </trkpt>
      <trkpt lat="46.31925" lon="-1.07512">
        <ele>5.6</ele>
        <time>2020-06-02T13:38:00Z</time>
      </trkpt>
      <trkpt lat="46.31925" lon="-1.07512">
        <ele>5.6</ele>
        <time>2020-06-02T13:38:01Z</time>
      </trkpt>
      <trkpt lat="46.31926" lon="-1.07512">
        <ele>5.6</ele>
        <time>2020-06-02T13:38:02Z</time>
      </trkpt>
      <trkpt lat="46.31926" lon="-1.07512">
        <ele>5.6</ele>
        <time>2020-06-02T13:38:03Z</time>
      </trkpt>
      <trkpt lat="46.31926" lon="-1.07513">
        <ele>5.6</ele>
        <time>2020-06-02T13:38:04Z</time>
      </trkpt>
      <trkpt lat="46.31926" lon="-1.07513">
        <ele>5.6</ele>
        <time>2020-06-02T13:38:05Z</time>
      </trkpt>
      <trkpt lat="46.31926" lon="-1.07514">
        <ele>5.6</ele>
        <time>2020-06-02T13:38:06Z</time>
      </trkpt>
      <trkpt lat="46.31926" lon="-1.07514">
        <ele>5.6</ele>
        <time>2020-06-02T13:38:07Z</time>
      </trkpt>
      <trkpt lat="46.31927" lon="-1.07513">
        <ele>5.6</ele>
        <time>2020-06-02T13:38:08Z</time>
      </trkpt>
      <trkpt lat="46.31927" lon="-1.07512">
        <ele>5.6</ele>
        <time>2020-06-02T13:38:09Z</time>
      </trkpt>
      <trkpt lat="46.31927" lon="-1.07512">
        <ele>5.6</ele>
        <time>2020-06-02T13:38:10Z</time>
      </trkpt>
      <trkpt lat="46.31927" lon="-1.07512">
        <ele>5.6</ele>
        <time>2020-06-02T13:38:11Z</time>
      </trkpt>
      <trkpt lat="46.31927" lon="-1.07512">
        <ele>5.6</ele>
        <time>2020-06-02T13:38:12Z</time>
      </trkpt>
      <trkpt lat="46.31927" lon="-1.07512">
        <ele>5.6</ele>
        <time>2020-06-02T13:38:13Z</time>
      </trkpt>
      <trkpt lat="46.31927" lon="-1.07512">
        <ele>5.6</ele>
        <time>2020-06-02T13:38:14Z</time>
      </trkpt>
      <trkpt lat="46.31927" lon="-1.07512">
        <ele>5.6</ele>
        <time>2020-06-02T13:38:15Z</time>
      </trkpt>
      <trkpt lat="46.31927" lon="-1.07512">
        <ele>5.6</ele>
        <time>2020-06-02T13:38:16Z</time>
      </trkpt>
      <trkpt lat="46.31927" lon="-1.07512">
        <ele>5.6</ele>
        <time>2020-06-02T13:38:17Z</time>
      </trkpt>
      <trkpt lat="46.31927" lon="-1.07512">
        <ele>5.6</ele>
        <time>2020-06-02T13:38:18Z</time>
      </trkpt>
      <trkpt lat="46.31927" lon="-1.07512">
        <ele>5.6</ele>
        <time>2020-06-02T13:38:19Z</time>
      </trkpt>
      <trkpt lat="46.31927" lon="-1.07512">
        <ele>5.6</ele>
        <time>2020-06-02T13:38:20Z</time>
      </trkpt>
      <trkpt lat="46.31926" lon="-1.07512">
        <ele>5.6</ele>
        <time>2020-06-02T13:38:21Z</time>
      </trkpt>
      <trkpt lat="46.31926" lon="-1.07512">
        <ele>5.6</ele>
        <time>2020-06-02T13:38:22Z</time>
      </trkpt>
      <trkpt lat="46.31926" lon="-1.07512">
        <ele>5.6</ele>
        <time>2020-06-02T13:38:23Z</time>
      </trkpt>
      <trkpt lat="46.31926" lon="-1.07512">
        <ele>5.6</ele>
        <time>2020-06-02T13:38:24Z</time>
      </trkpt>
      <trkpt lat="46.31926" lon="-1.07511">
        <ele>5.6</ele>
        <time>2020-06-02T13:38:25Z</time>
      </trkpt>
      <trkpt lat="46.31926" lon="-1.0751">
        <ele>5.6</ele>
        <time>2020-06-02T13:38:26Z</time>
      </trkpt>
      <trkpt lat="46.31926" lon="-1.0751">
        <ele>5.6</ele>
        <time>2020-06-02T13:38:27Z</time>
      </trkpt>
      <trkpt lat="46.31927" lon="-1.07508">
        <ele>5.6</ele>
        <time>2020-06-02T13:38:28Z</time>
      </trkpt>
      <trkpt lat="46.31927" lon="-1.07507">
        <ele>5.6</ele>
        <time>2020-06-02T13:38:29Z</time>
      </trkpt>
      <trkpt lat="46.31927" lon="-1.07506">
        <ele>5.6</ele>
        <time>2020-06-02T13:38:30Z</time>
      </trkpt>
      <trkpt lat="46.31928" lon="-1.07504">
        <ele>5.6</ele>
        <time>2020-06-02T13:38:31Z</time>
      </trkpt>
      <trkpt lat="46.31928" lon="-1.07502">
        <ele>5.6</ele>
        <time>2020-06-02T13:38:32Z</time>
      </trkpt>
      <trkpt lat="46.3193" lon="-1.07501">
        <ele>5.6</ele>
        <time>2020-06-02T13:38:33Z</time>
      </trkpt>
      <trkpt lat="46.3193" lon="-1.07501">
        <ele>5.6</ele>
        <time>2020-06-02T13:38:34Z</time>
      </trkpt>
      <trkpt lat="46.3193" lon="-1.07501">
        <ele>5.6</ele>
        <time>2020-06-02T13:38:35Z</time>
      </trkpt>
      <trkpt lat="46.3193" lon="-1.075">
        <ele>5.6</ele>
        <time>2020-06-02T13:38:36Z</time>
      </trkpt>
      <trkpt lat="46.3193" lon="-1.075">
        <ele>5.6</ele>
        <time>2020-06-02T13:38:37Z</time>
      </trkpt>
      <trkpt lat="46.3193" lon="-1.075">
        <ele>5.6</ele>
        <time>2020-06-02T13:38:38Z</time>
      </trkpt>
      <trkpt lat="46.3193" lon="-1.075">
        <ele>5.6</ele>
        <time>2020-06-02T13:38:39Z</time>
      </trkpt>
      <trkpt lat="46.3193" lon="-1.075">
        <ele>5.6</ele>
        <time>2020-06-02T13:38:40Z</time>
      </trkpt>
      <trkpt lat="46.3193" lon="-1.075">
        <ele>5.6</ele>
        <time>2020-06-02T13:38:41Z</time>
      </trkpt>
      <trkpt lat="46.3193" lon="-1.075">
        <ele>5.6</ele>
        <time>2020-06-02T13:38:42Z</time>
      </trkpt>
      <trkpt lat="46.3193" lon="-1.075">
        <ele>5.6</ele>
        <time>2020-06-02T13:38:43Z</time>
      </trkpt>
      <trkpt lat="46.3193" lon="-1.075">
        <ele>5.6</ele>
        <time>2020-06-02T13:38:44Z</time>
      </trkpt>
      <trkpt lat="46.3193" lon="-1.075">
        <ele>5.6</ele>
        <time>2020-06-02T13:38:45Z</time>
      </trkpt>
      <trkpt lat="46.3193" lon="-1.075">
        <ele>5.6</ele>
        <time>2020-06-02T13:38:46Z</time>
      </trkpt>
      <trkpt lat="46.3193" lon="-1.075">
        <ele>5.6</ele>
        <time>2020-06-02T13:38:47Z</time>
      </trkpt>
      <trkpt lat="46.3193" lon="-1.075">
        <ele>5.6</ele>
        <time>2020-06-02T13:38:48Z</time>
      </trkpt>
      <trkpt lat="46.3193" lon="-1.075">
        <ele>5.6</ele>
        <time>2020-06-02T13:38:49Z</time>
      </trkpt>
      <trkpt lat="46.3193" lon="-1.07499">
        <ele>5.6</ele>
        <time>2020-06-02T13:38:50Z</time>
      </trkpt>
      <trkpt lat="46.3193" lon="-1.07499">
        <ele>5.6</ele>
        <time>2020-06-02T13:38:51Z</time>
      </trkpt>
      <trkpt lat="46.3193" lon="-1.07499">
        <ele>5.6</ele>
        <time>2020-06-02T13:38:52Z</time>
      </trkpt>
      <trkpt lat="46.3193" lon="-1.07499">
        <ele>5.6</ele>
        <time>2020-06-02T13:38:53Z</time>
      </trkpt>
      <trkpt lat="46.3193" lon="-1.07499">
        <ele>5.6</ele>
        <time>2020-06-02T13:38:54Z</time>
      </trkpt>
      <trkpt lat="46.3193" lon="-1.07499">
        <ele>5.6</ele>
        <time>2020-06-02T13:38:55Z</time>
      </trkpt>
      <trkpt lat="46.3193" lon="-1.07499">
        <ele>5.6</ele>
        <time>2020-06-02T13:38:56Z</time>
      </trkpt>
      <trkpt lat="46.3193" lon="-1.07499">
        <ele>5.6</ele>
        <time>2020-06-02T13:38:57Z</time>
      </trkpt>
      <trkpt lat="46.3193" lon="-1.07498">
        <ele>5.6</ele>
        <time>2020-06-02T13:38:58Z</time>
      </trkpt>
      <trkpt lat="46.3193" lon="-1.07498">
        <ele>5.6</ele>
        <time>2020-06-02T13:38:59Z</time>
      </trkpt>
      <trkpt lat="46.31931" lon="-1.07498">
        <ele>5.6</ele>
        <time>2020-06-02T13:39:00Z</time>
      </trkpt>
      <trkpt lat="46.31931" lon="-1.07498">
        <ele>5.6</ele>
        <time>2020-06-02T13:39:01Z</time>
      </trkpt>
      <trkpt lat="46.31932" lon="-1.07497">
        <ele>5.6</ele>
        <time>2020-06-02T13:39:02Z</time>
      </trkpt>
      <trkpt lat="46.31932" lon="-1.07497">
        <ele>5.6</ele>
        <time>2020-06-02T13:39:03Z</time>
      </trkpt>
      <trkpt lat="46.31933" lon="-1.07496">
        <ele>5.6</ele>
        <time>2020-06-02T13:39:04Z</time>
      </trkpt>
      <trkpt lat="46.31933" lon="-1.07495">
        <ele>5.6</ele>
        <time>2020-06-02T13:39:05Z</time>
      </trkpt>
      <trkpt lat="46.31933" lon="-1.07496">
        <ele>5.6</ele>
        <time>2020-06-02T13:39:06Z</time>
      </trkpt>
      <trkpt lat="46.31933" lon="-1.07496">
        <ele>5.6</ele>
        <time>2020-06-02T13:39:07Z</time>
      </trkpt>
      <trkpt lat="46.31933" lon="-1.07496">
        <ele>5.6</ele>
        <time>2020-06-02T13:39:08Z</time>
      </trkpt>
      <trkpt lat="46.31933" lon="-1.07496">
        <ele>5.6</ele>
        <time>2020-06-02T13:39:09Z</time>
      </trkpt>
      <trkpt lat="46.31933" lon="-1.07496">
        <ele>5.6</ele>
        <time>2020-06-02T13:39:10Z</time>
      </trkpt>
      <trkpt lat="46.31933" lon="-1.07496">
        <ele>5.6</ele>
        <time>2020-06-02T13:39:11Z</time>
      </trkpt>
      <trkpt lat="46.31933" lon="-1.07496">
        <ele>5.6</ele>
        <time>2020-06-02T13:39:12Z</time>
      </trkpt>
      <trkpt lat="46.31933" lon="-1.07496">
        <ele>5.6</ele>
        <time>2020-06-02T13:39:13Z</time>
      </trkpt>
      <trkpt lat="46.31933" lon="-1.07496">
        <ele>5.6</ele>
        <time>2020-06-02T13:39:14Z</time>
      </trkpt>
      <trkpt lat="46.31933" lon="-1.07496">
        <ele>5.6</ele>
        <time>2020-06-02T13:39:15Z</time>
      </trkpt>
      <trkpt lat="46.31933" lon="-1.07496">
        <ele>5.6</ele>
        <time>2020-06-02T13:39:16Z</time>
      </trkpt>
      <trkpt lat="46.31933" lon="-1.07496">
        <ele>5.6</ele>
        <time>2020-06-02T13:39:17Z</time>
      </trkpt>
      <trkpt lat="46.31932" lon="-1.07496">
        <ele>5.6</ele>
        <time>2020-06-02T13:39:18Z</time>
      </trkpt>
      <trkpt lat="46.31932" lon="-1.07496">
        <ele>5.6</ele>
        <time>2020-06-02T13:39:19Z</time>
      </trkpt>
      <trkpt lat="46.31932" lon="-1.07496">
        <ele>5.6</ele>
        <time>2020-06-02T13:39:20Z</time>
      </trkpt>
      <trkpt lat="46.31932" lon="-1.07496">
        <ele>5.6</ele>
        <time>2020-06-02T13:39:21Z</time>
      </trkpt>
      <trkpt lat="46.31932" lon="-1.07496">
        <ele>5.6</ele>
        <time>2020-06-02T13:39:22Z</time>
      </trkpt>
      <trkpt lat="46.31932" lon="-1.07496">
        <ele>5.6</ele>
        <time>2020-06-02T13:39:23Z</time>
      </trkpt>
      <trkpt lat="46.31932" lon="-1.07495">
        <ele>5.6</ele>
        <time>2020-06-02T13:39:24Z</time>
      </trkpt>
      <trkpt lat="46.31932" lon="-1.07495">
        <ele>5.6</ele>
        <time>2020-06-02T13:39:25Z</time>
      </trkpt>
      <trkpt lat="46.31932" lon="-1.07495">
        <ele>5.6</ele>
        <time>2020-06-02T13:39:26Z</time>
      </trkpt>
      <trkpt lat="46.31932" lon="-1.07495">
        <ele>5.6</ele>
        <time>2020-06-02T13:39:27Z</time>
      </trkpt>
      <trkpt lat="46.31932" lon="-1.07495">
        <ele>5.6</ele>
        <time>2020-06-02T13:39:28Z</time>
      </trkpt>
      <trkpt lat="46.31932" lon="-1.07495">
        <ele>5.6</ele>
        <time>2020-06-02T13:39:29Z</time>
      </trkpt>
      <trkpt lat="46.31932" lon="-1.07495">
        <ele>5.6</ele>
        <time>2020-06-02T13:39:30Z</time>
      </trkpt>
      <trkpt lat="46.31932" lon="-1.07495">
        <ele>5.6</ele>
        <time>2020-06-02T13:39:31Z</time>
      </trkpt>
      <trkpt lat="46.31932" lon="-1.07495">
        <ele>5.6</ele>
        <time>2020-06-02T13:39:32Z</time>
      </trkpt>
      <trkpt lat="46.31932" lon="-1.07495">
        <ele>5.6</ele>
        <time>2020-06-02T13:39:33Z</time>
      </trkpt>
      <trkpt lat="46.31932" lon="-1.07495">
        <ele>5.6</ele>
        <time>2020-06-02T13:39:34Z</time>
      </trkpt>
      <trkpt lat="46.31932" lon="-1.07495">
        <ele>5.6</ele>
        <time>2020-06-02T13:39:35Z</time>
      </trkpt>
      <trkpt lat="46.31932" lon="-1.07495">
        <ele>5.6</ele>
        <time>2020-06-02T13:39:36Z</time>
      </trkpt>
      <trkpt lat="46.31932" lon="-1.07495">
        <ele>5.6</ele>
        <time>2020-06-02T13:39:37Z</time>
      </trkpt>
      <trkpt lat="46.31932" lon="-1.07495">
        <ele>5.6</ele>
        <time>2020-06-02T13:39:38Z</time>
      </trkpt>
      <trkpt lat="46.31932" lon="-1.07495">
        <ele>5.6</ele>
        <time>2020-06-02T13:39:39Z</time>
      </trkpt>
      <trkpt lat="46.31932" lon="-1.07495">
        <ele>5.6</ele>
        <time>2020-06-02T13:39:40Z</time>
      </trkpt>
      <trkpt lat="46.31932" lon="-1.07495">
        <ele>5.6</ele>
        <time>2020-06-02T13:39:41Z</time>
      </trkpt>
      <trkpt lat="46.31932" lon="-1.07495">
        <ele>5.6</ele>
        <time>2020-06-02T13:39:42Z</time>
      </trkpt>
      <trkpt lat="46.31932" lon="-1.07495">
        <ele>5.6</ele>
        <time>2020-06-02T13:39:43Z</time>
      </trkpt>
      <trkpt lat="46.31932" lon="-1.07495">
        <ele>5.6</ele>
        <time>2020-06-02T13:39:44Z</time>
      </trkpt>
      <trkpt lat="46.31931" lon="-1.07495">
        <ele>5.6</ele>
        <time>2020-06-02T13:39:45Z</time>
      </trkpt>
      <trkpt lat="46.31931" lon="-1.07495">
        <ele>5.6</ele>
        <time>2020-06-02T13:39:46Z</time>
      </trkpt>
      <trkpt lat="46.31931" lon="-1.07495">
        <ele>5.6</ele>
        <time>2020-06-02T13:39:47Z</time>
      </trkpt>
      <trkpt lat="46.31931" lon="-1.07495">
        <ele>5.6</ele>
        <time>2020-06-02T13:39:48Z</time>
      </trkpt>
      <trkpt lat="46.31931" lon="-1.07495">
        <ele>5.6</ele>
        <time>2020-06-02T13:39:49Z</time>
      </trkpt>
      <trkpt lat="46.31931" lon="-1.07495">
        <ele>5.6</ele>
        <time>2020-06-02T13:39:50Z</time>
      </trkpt>
      <trkpt lat="46.31931" lon="-1.07495">
        <ele>5.6</ele>
        <time>2020-06-02T13:39:51Z</time>
      </trkpt>
      <trkpt lat="46.31931" lon="-1.07495">
        <ele>5.6</ele>
        <time>2020-06-02T13:39:52Z</time>
      </trkpt>
      <trkpt lat="46.31931" lon="-1.07495">
        <ele>5.6</ele>
        <time>2020-06-02T13:39:53Z</time>
      </trkpt>
      <trkpt lat="46.31931" lon="-1.07495">
        <ele>5.6</ele>
        <time>2020-06-02T13:39:54Z</time>
      </trkpt>
      <trkpt lat="46.31931" lon="-1.07495">
        <ele>5.6</ele>
        <time>2020-06-02T13:39:55Z</time>
      </trkpt>
      <trkpt lat="46.31931" lon="-1.07495">
        <ele>5.6</ele>
        <time>2020-06-02T13:39:56Z</time>
      </trkpt>
      <trkpt lat="46.31931" lon="-1.07495">
        <ele>5.6</ele>
        <time>2020-06-02T13:39:57Z</time>
      </trkpt>
      <trkpt lat="46.31931" lon="-1.07495">
        <ele>5.6</ele>
        <time>2020-06-02T13:39:58Z</time>
      </trkpt>
      <trkpt lat="46.31931" lon="-1.07495">
        <ele>5.6</ele>
        <time>2020-06-02T13:39:59Z</time>
      </trkpt>
      <trkpt lat="46.31931" lon="-1.07495">
        <ele>5.6</ele>
        <time>2020-06-02T13:40:00Z</time>
      </trkpt>
      <trkpt lat="46.31931" lon="-1.07495">
        <ele>5.6</ele>
        <time>2020-06-02T13:40:01Z</time>
      </trkpt>
      <trkpt lat="46.31931" lon="-1.07495">
        <ele>5.6</ele>
        <time>2020-06-02T13:40:02Z</time>
      </trkpt>
      <trkpt lat="46.31931" lon="-1.07495">
        <ele>5.6</ele>
        <time>2020-06-02T13:40:03Z</time>
      </trkpt>
      <trkpt lat="46.31932" lon="-1.07493">
        <ele>5.6</ele>
        <time>2020-06-02T13:40:04Z</time>
      </trkpt>
      <trkpt lat="46.31932" lon="-1.07492">
        <ele>5.6</ele>
        <time>2020-06-02T13:40:05Z</time>
      </trkpt>
      <trkpt lat="46.31932" lon="-1.07492">
        <ele>5.6</ele>
        <time>2020-06-02T13:40:06Z</time>
      </trkpt>
      <trkpt lat="46.31932" lon="-1.07492">
        <ele>5.6</ele>
        <time>2020-06-02T13:40:07Z</time>
      </trkpt>
      <trkpt lat="46.31932" lon="-1.07492">
        <ele>5.6</ele>
        <time>2020-06-02T13:40:08Z</time>
      </trkpt>
      <trkpt lat="46.31932" lon="-1.07492">
        <ele>5.6</ele>
        <time>2020-06-02T13:40:09Z</time>
      </trkpt>
      <trkpt lat="46.31932" lon="-1.07492">
        <ele>5.6</ele>
        <time>2020-06-02T13:40:10Z</time>
      </trkpt>
      <trkpt lat="46.31932" lon="-1.07492">
        <ele>5.6</ele>
        <time>2020-06-02T13:40:11Z</time>
      </trkpt>
      <trkpt lat="46.31932" lon="-1.07492">
        <ele>5.6</ele>
        <time>2020-06-02T13:40:12Z</time>
      </trkpt>
      <trkpt lat="46.31931" lon="-1.07492">
        <ele>5.6</ele>
        <time>2020-06-02T13:40:13Z</time>
      </trkpt>
      <trkpt lat="46.31931" lon="-1.07492">
        <ele>5.6</ele>
        <time>2020-06-02T13:40:14Z</time>
      </trkpt>
      <trkpt lat="46.31931" lon="-1.07492">
        <ele>5.6</ele>
        <time>2020-06-02T13:40:15Z</time>
      </trkpt>
      <trkpt lat="46.31931" lon="-1.07492">
        <ele>5.6</ele>
        <time>2020-06-02T13:40:16Z</time>
      </trkpt>
      <trkpt lat="46.31931" lon="-1.07492">
        <ele>5.6</ele>
        <time>2020-06-02T13:40:17Z</time>
      </trkpt>
      <trkpt lat="46.31931" lon="-1.07492">
        <ele>5.6</ele>
        <time>2020-06-02T13:40:18Z</time>
      </trkpt>
      <trkpt lat="46.31931" lon="-1.07492">
        <ele>5.6</ele>
        <time>2020-06-02T13:40:19Z</time>
      </trkpt>
      <trkpt lat="46.31931" lon="-1.07492">
        <ele>5.6</ele>
        <time>2020-06-02T13:40:20Z</time>
      </trkpt>
      <trkpt lat="46.31931" lon="-1.07492">
        <ele>5.6</ele>
        <time>2020-06-02T13:40:21Z</time>
      </trkpt>
      <trkpt lat="46.31931" lon="-1.07492">
        <ele>5.6</ele>
        <time>2020-06-02T13:40:22Z</time>
      </trkpt>
      <trkpt lat="46.31931" lon="-1.07492">
        <ele>5.6</ele>
        <time>2020-06-02T13:40:23Z</time>
      </trkpt>
      <trkpt lat="46.31931" lon="-1.07492">
        <ele>5.6</ele>
        <time>2020-06-02T13:40:24Z</time>
      </trkpt>
      <trkpt lat="46.31931" lon="-1.07492">
        <ele>5.6</ele>
        <time>2020-06-02T13:40:25Z</time>
      </trkpt>
      <trkpt lat="46.31931" lon="-1.07492">
        <ele>5.6</ele>
        <time>2020-06-02T13:40:26Z</time>
      </trkpt>
      <trkpt lat="46.31931" lon="-1.07492">
        <ele>5.6</ele>
        <time>2020-06-02T13:40:27Z</time>
      </trkpt>
      <trkpt lat="46.31931" lon="-1.07492">
        <ele>5.6</ele>
        <time>2020-06-02T13:40:28Z</time>
      </trkpt>
      <trkpt lat="46.31931" lon="-1.07492">
        <ele>5.6</ele>
        <time>2020-06-02T13:40:29Z</time>
      </trkpt>
      <trkpt lat="46.31931" lon="-1.07492">
        <ele>5.6</ele>
        <time>2020-06-02T13:40:30Z</time>
      </trkpt>
      <trkpt lat="46.31931" lon="-1.07492">
        <ele>5.6</ele>
        <time>2020-06-02T13:40:31Z</time>
      </trkpt>
      <trkpt lat="46.31931" lon="-1.07492">
        <ele>5.6</ele>
        <time>2020-06-02T13:40:32Z</time>
      </trkpt>
      <trkpt lat="46.31931" lon="-1.07492">
        <ele>5.6</ele>
        <time>2020-06-02T13:40:33Z</time>
      </trkpt>
      <trkpt lat="46.31931" lon="-1.07492">
        <ele>5.6</ele>
        <time>2020-06-02T13:40:34Z</time>
      </trkpt>
      <trkpt lat="46.31931" lon="-1.07492">
        <ele>5.6</ele>
        <time>2020-06-02T13:40:35Z</time>
      </trkpt>
      <trkpt lat="46.31931" lon="-1.07492">
        <ele>5.6</ele>
        <time>2020-06-02T13:40:36Z</time>
      </trkpt>
      <trkpt lat="46.31931" lon="-1.07492">
        <ele>5.6</ele>
        <time>2020-06-02T13:40:37Z</time>
      </trkpt>
      <trkpt lat="46.31931" lon="-1.07492">
        <ele>5.6</ele>
        <time>2020-06-02T13:40:38Z</time>
      </trkpt>
      <trkpt lat="46.31931" lon="-1.07492">
        <ele>5.6</ele>
        <time>2020-06-02T13:40:39Z</time>
      </trkpt>
      <trkpt lat="46.31931" lon="-1.07492">
        <ele>5.6</ele>
        <time>2020-06-02T13:40:40Z</time>
      </trkpt>
      <trkpt lat="46.31931" lon="-1.07492">
        <ele>5.6</ele>
        <time>2020-06-02T13:40:41Z</time>
      </trkpt>
      <trkpt lat="46.31931" lon="-1.07492">
        <ele>5.6</ele>
        <time>2020-06-02T13:40:42Z</time>
      </trkpt>
      <trkpt lat="46.31931" lon="-1.07492">
        <ele>5.6</ele>
        <time>2020-06-02T13:40:43Z</time>
      </trkpt>
      <trkpt lat="46.31931" lon="-1.07492">
        <ele>5.6</ele>
        <time>2020-06-02T13:40:44Z</time>
      </trkpt>
      <trkpt lat="46.31931" lon="-1.07492">
        <ele>5.6</ele>
        <time>2020-06-02T13:40:45Z</time>
      </trkpt>
      <trkpt lat="46.31931" lon="-1.07492">
        <ele>5.6</ele>
        <time>2020-06-02T13:40:46Z</time>
      </trkpt>
      <trkpt lat="46.31931" lon="-1.07492">
        <ele>5.6</ele>
        <time>2020-06-02T13:40:47Z</time>
      </trkpt>
      <trkpt lat="46.31931" lon="-1.07492">
        <ele>5.6</ele>
        <time>2020-06-02T13:40:48Z</time>
      </trkpt>
      <trkpt lat="46.31931" lon="-1.07492">
        <ele>5.6</ele>
        <time>2020-06-02T13:40:49Z</time>
      </trkpt>
      <trkpt lat="46.31931" lon="-1.07492">
        <ele>5.6</ele>
        <time>2020-06-02T13:40:50Z</time>
      </trkpt>
      <trkpt lat="46.31931" lon="-1.07492">
        <ele>5.6</ele>
        <time>2020-06-02T13:40:51Z</time>
      </trkpt>
      <trkpt lat="46.31931" lon="-1.07492">
        <ele>5.6</ele>
        <time>2020-06-02T13:40:52Z</time>
      </trkpt>
      <trkpt lat="46.31931" lon="-1.07492">
        <ele>5.6</ele>
        <time>2020-06-02T13:40:53Z</time>
      </trkpt>
      <trkpt lat="46.31931" lon="-1.07492">
        <ele>5.6</ele>
        <time>2020-06-02T13:40:54Z</time>
      </trkpt>
      <trkpt lat="46.31931" lon="-1.07492">
        <ele>5.6</ele>
        <time>2020-06-02T13:40:55Z</time>
      </trkpt>
      <trkpt lat="46.31931" lon="-1.07492">
        <ele>5.6</ele>
        <time>2020-06-02T13:40:56Z</time>
      </trkpt>
      <trkpt lat="46.31931" lon="-1.07491">
        <ele>5.6</ele>
        <time>2020-06-02T13:40:57Z</time>
      </trkpt>
      <trkpt lat="46.31931" lon="-1.07491">
        <ele>5.6</ele>
        <time>2020-06-02T13:40:58Z</time>
      </trkpt>
      <trkpt lat="46.31931" lon="-1.07491">
        <ele>5.6</ele>
        <time>2020-06-02T13:40:59Z</time>
      </trkpt>
      <trkpt lat="46.31931" lon="-1.07491">
        <ele>5.6</ele>
        <time>2020-06-02T13:41:00Z</time>
      </trkpt>
      <trkpt lat="46.31931" lon="-1.07491">
        <ele>5.6</ele>
        <time>2020-06-02T13:41:01Z</time>
      </trkpt>
      <trkpt lat="46.31931" lon="-1.07491">
        <ele>5.6</ele>
        <time>2020-06-02T13:41:02Z</time>
      </trkpt>
      <trkpt lat="46.31931" lon="-1.07491">
        <ele>5.6</ele>
        <time>2020-06-02T13:41:03Z</time>
      </trkpt>
      <trkpt lat="46.31931" lon="-1.07491">
        <ele>5.6</ele>
        <time>2020-06-02T13:41:04Z</time>
      </trkpt>
      <trkpt lat="46.31931" lon="-1.07491">
        <ele>5.6</ele>
        <time>2020-06-02T13:41:05Z</time>
      </trkpt>
      <trkpt lat="46.31931" lon="-1.07491">
        <ele>5.6</ele>
        <time>2020-06-02T13:41:06Z</time>
      </trkpt>
      <trkpt lat="46.31931" lon="-1.07491">
        <ele>5.6</ele>
        <time>2020-06-02T13:41:07Z</time>
      </trkpt>
      <trkpt lat="46.31931" lon="-1.07491">
        <ele>5.6</ele>
        <time>2020-06-02T13:41:08Z</time>
      </trkpt>
      <trkpt lat="46.31931" lon="-1.07491">
        <ele>5.6</ele>
        <time>2020-06-02T13:41:09Z</time>
      </trkpt>
      <trkpt lat="46.31931" lon="-1.07491">
        <ele>5.6</ele>
        <time>2020-06-02T13:41:10Z</time>
      </trkpt>
      <trkpt lat="46.31931" lon="-1.07491">
        <ele>5.6</ele>
        <time>2020-06-02T13:41:11Z</time>
      </trkpt>
      <trkpt lat="46.31931" lon="-1.07491">
        <ele>5.6</ele>
        <time>2020-06-02T13:41:12Z</time>
      </trkpt>
      <trkpt lat="46.3193" lon="-1.07491">
        <ele>5.6</ele>
        <time>2020-06-02T13:41:13Z</time>
      </trkpt>
      <trkpt lat="46.3193" lon="-1.07491">
        <ele>5.6</ele>
        <time>2020-06-02T13:41:14Z</time>
      </trkpt>
      <trkpt lat="46.3193" lon="-1.07491">
        <ele>5.6</ele>
        <time>2020-06-02T13:41:15Z</time>
      </trkpt>
      <trkpt lat="46.31931" lon="-1.07491">
        <ele>5.6</ele>
        <time>2020-06-02T13:41:16Z</time>
      </trkpt>
      <trkpt lat="46.3193" lon="-1.07491">
        <ele>5.6</ele>
        <time>2020-06-02T13:41:17Z</time>
      </trkpt>
      <trkpt lat="46.31929" lon="-1.0749">
        <ele>5.6</ele>
        <time>2020-06-02T13:41:18Z</time>
      </trkpt>
      <trkpt lat="46.31929" lon="-1.07489">
        <ele>5.6</ele>
        <time>2020-06-02T13:41:19Z</time>
      </trkpt>
      <trkpt lat="46.31928" lon="-1.07489">
        <ele>5.6</ele>
        <time>2020-06-02T13:41:20Z</time>
      </trkpt>
      <trkpt lat="46.31928" lon="-1.0749">
        <ele>5.6</ele>
        <time>2020-06-02T13:41:21Z</time>
      </trkpt>
      <trkpt lat="46.31928" lon="-1.0749">
        <ele>5.6</ele>
        <time>2020-06-02T13:41:22Z</time>
      </trkpt>
      <trkpt lat="46.31927" lon="-1.0749">
        <ele>5.6</ele>
        <time>2020-06-02T13:41:23Z</time>
      </trkpt>
      <trkpt lat="46.31927" lon="-1.0749">
        <ele>5.6</ele>
        <time>2020-06-02T13:41:24Z</time>
      </trkpt>
      <trkpt lat="46.31927" lon="-1.07489">
        <ele>5.6</ele>
        <time>2020-06-02T13:41:25Z</time>
      </trkpt>
      <trkpt lat="46.31927" lon="-1.07489">
        <ele>5.6</ele>
        <time>2020-06-02T13:41:26Z</time>
      </trkpt>
      <trkpt lat="46.31927" lon="-1.07489">
        <ele>5.6</ele>
        <time>2020-06-02T13:41:27Z</time>
      </trkpt>
      <trkpt lat="46.31927" lon="-1.07489">
        <ele>5.6</ele>
        <time>2020-06-02T13:41:28Z</time>
      </trkpt>
      <trkpt lat="46.31927" lon="-1.07489">
        <ele>5.6</ele>
        <time>2020-06-02T13:41:29Z</time>
      </trkpt>
      <trkpt lat="46.31927" lon="-1.07489">
        <ele>5.6</ele>
        <time>2020-06-02T13:41:30Z</time>
      </trkpt>
      <trkpt lat="46.31927" lon="-1.07489">
        <ele>5.6</ele>
        <time>2020-06-02T13:41:31Z</time>
      </trkpt>
      <trkpt lat="46.31927" lon="-1.07489">
        <ele>5.6</ele>
        <time>2020-06-02T13:41:32Z</time>
      </trkpt>
      <trkpt lat="46.31927" lon="-1.07489">
        <ele>5.6</ele>
        <time>2020-06-02T13:41:33Z</time>
      </trkpt>
      <trkpt lat="46.31928" lon="-1.07489">
        <ele>5.6</ele>
        <time>2020-06-02T13:41:34Z</time>
      </trkpt>
      <trkpt lat="46.31928" lon="-1.0749">
        <ele>5.6</ele>
        <time>2020-06-02T13:41:35Z</time>
      </trkpt>
      <trkpt lat="46.31928" lon="-1.07492">
        <ele>5.6</ele>
        <time>2020-06-02T13:41:36Z</time>
      </trkpt>
      <trkpt lat="46.31928" lon="-1.07494">
        <ele>5.6</ele>
        <time>2020-06-02T13:41:37Z</time>
      </trkpt>
      <trkpt lat="46.31927" lon="-1.07497">
        <ele>5.6</ele>
        <time>2020-06-02T13:41:38Z</time>
      </trkpt>
      <trkpt lat="46.31928" lon="-1.07498">
        <ele>5.6</ele>
        <time>2020-06-02T13:41:39Z</time>
      </trkpt>
      <trkpt lat="46.31927" lon="-1.075">
        <ele>5.6</ele>
        <time>2020-06-02T13:41:40Z</time>
      </trkpt>
      <trkpt lat="46.31928" lon="-1.07502">
        <ele>5.6</ele>
        <time>2020-06-02T13:41:41Z</time>
      </trkpt>
      <trkpt lat="46.31928" lon="-1.07504">
        <ele>5.6</ele>
        <time>2020-06-02T13:41:42Z</time>
      </trkpt>
      <trkpt lat="46.31927" lon="-1.07505">
        <ele>5.6</ele>
        <time>2020-06-02T13:41:43Z</time>
      </trkpt>
      <trkpt lat="46.31927" lon="-1.07506">
        <ele>5.6</ele>
        <time>2020-06-02T13:41:44Z</time>
      </trkpt>
      <trkpt lat="46.31927" lon="-1.07508">
        <ele>5.6</ele>
        <time>2020-06-02T13:41:45Z</time>
      </trkpt>
      <trkpt lat="46.31927" lon="-1.0751">
        <ele>5.6</ele>
        <time>2020-06-02T13:41:46Z</time>
      </trkpt>
      <trkpt lat="46.31927" lon="-1.0751">
        <ele>5.6</ele>
        <time>2020-06-02T13:41:47Z</time>
      </trkpt>
      <trkpt lat="46.31927" lon="-1.0751">
        <ele>5.6</ele>
        <time>2020-06-02T13:41:48Z</time>
      </trkpt>
      <trkpt lat="46.31927" lon="-1.0751">
        <ele>5.6</ele>
        <time>2020-06-02T13:41:49Z</time>
      </trkpt>
      <trkpt lat="46.31927" lon="-1.0751">
        <ele>5.6</ele>
        <time>2020-06-02T13:41:50Z</time>
      </trkpt>
      <trkpt lat="46.31927" lon="-1.0751">
        <ele>5.6</ele>
        <time>2020-06-02T13:41:51Z</time>
      </trkpt>
      <trkpt lat="46.31927" lon="-1.0751">
        <ele>5.6</ele>
        <time>2020-06-02T13:41:52Z</time>
      </trkpt>
      <trkpt lat="46.31927" lon="-1.07509">
        <ele>5.6</ele>
        <time>2020-06-02T13:41:53Z</time>
      </trkpt>
      <trkpt lat="46.31927" lon="-1.07509">
        <ele>5.6</ele>
        <time>2020-06-02T13:41:54Z</time>
      </trkpt>
      <trkpt lat="46.31926" lon="-1.07509">
        <ele>5.6</ele>
        <time>2020-06-02T13:41:55Z</time>
      </trkpt>
      <trkpt lat="46.31926" lon="-1.07509">
        <ele>5.6</ele>
        <time>2020-06-02T13:41:56Z</time>
      </trkpt>
      <trkpt lat="46.31926" lon="-1.07509">
        <ele>5.6</ele>
        <time>2020-06-02T13:41:57Z</time>
      </trkpt>
      <trkpt lat="46.31926" lon="-1.07509">
        <ele>5.6</ele>
        <time>2020-06-02T13:41:58Z</time>
      </trkpt>
      <trkpt lat="46.31926" lon="-1.07509">
        <ele>5.6</ele>
        <time>2020-06-02T13:41:59Z</time>
      </trkpt>
      <trkpt lat="46.31927" lon="-1.07508">
        <ele>5.6</ele>
        <time>2020-06-02T13:42:00Z</time>
      </trkpt>
      <trkpt lat="46.31927" lon="-1.07509">
        <ele>5.6</ele>
        <time>2020-06-02T13:42:01Z</time>
      </trkpt>
      <trkpt lat="46.31927" lon="-1.07509">
        <ele>5.6</ele>
        <time>2020-06-02T13:42:02Z</time>
      </trkpt>
      <trkpt lat="46.31927" lon="-1.07509">
        <ele>5.6</ele>
        <time>2020-06-02T13:42:03Z</time>
      </trkpt>
      <trkpt lat="46.31927" lon="-1.07508">
        <ele>5.6</ele>
        <time>2020-06-02T13:42:04Z</time>
      </trkpt>
      <trkpt lat="46.31927" lon="-1.07508">
        <ele>5.6</ele>
        <time>2020-06-02T13:42:05Z</time>
      </trkpt>
      <trkpt lat="46.31928" lon="-1.07507">
        <ele>5.6</ele>
        <time>2020-06-02T13:42:06Z</time>
      </trkpt>
      <trkpt lat="46.31928" lon="-1.07507">
        <ele>5.6</ele>
        <time>2020-06-02T13:42:07Z</time>
      </trkpt>
      <trkpt lat="46.31928" lon="-1.07508">
        <ele>5.6</ele>
        <time>2020-06-02T13:42:08Z</time>
      </trkpt>
      <trkpt lat="46.31928" lon="-1.07508">
        <ele>5.6</ele>
        <time>2020-06-02T13:42:09Z</time>
      </trkpt>
      <trkpt lat="46.31928" lon="-1.07508">
        <ele>5.6</ele>
        <time>2020-06-02T13:42:10Z</time>
      </trkpt>
      <trkpt lat="46.31928" lon="-1.07508">
        <ele>5.6</ele>
        <time>2020-06-02T13:42:11Z</time>
      </trkpt>
      <trkpt lat="46.31928" lon="-1.07508">
        <ele>5.6</ele>
        <time>2020-06-02T13:42:12Z</time>
      </trkpt>
      <trkpt lat="46.31928" lon="-1.07508">
        <ele>5.6</ele>
        <time>2020-06-02T13:42:13Z</time>
      </trkpt>
      <trkpt lat="46.31928" lon="-1.07508">
        <ele>5.6</ele>
        <time>2020-06-02T13:42:14Z</time>
      </trkpt>
      <trkpt lat="46.31928" lon="-1.07508">
        <ele>5.6</ele>
        <time>2020-06-02T13:42:15Z</time>
      </trkpt>
      <trkpt lat="46.31928" lon="-1.07508">
        <ele>5.6</ele>
        <time>2020-06-02T13:42:16Z</time>
      </trkpt>
      <trkpt lat="46.31928" lon="-1.07508">
        <ele>5.6</ele>
        <time>2020-06-02T13:42:17Z</time>
      </trkpt>
      <trkpt lat="46.31928" lon="-1.07508">
        <ele>5.6</ele>
        <time>2020-06-02T13:42:18Z</time>
      </trkpt>
      <trkpt lat="46.31928" lon="-1.07508">
        <ele>5.6</ele>
        <time>2020-06-02T13:42:19Z</time>
      </trkpt>
      <trkpt lat="46.31928" lon="-1.07508">
        <ele>5.6</ele>
        <time>2020-06-02T13:42:20Z</time>
      </trkpt>
      <trkpt lat="46.31928" lon="-1.07508">
        <ele>5.6</ele>
        <time>2020-06-02T13:42:21Z</time>
      </trkpt>
      <trkpt lat="46.31928" lon="-1.07508">
        <ele>5.6</ele>
        <time>2020-06-02T13:42:22Z</time>
      </trkpt>
      <trkpt lat="46.31928" lon="-1.07508">
        <ele>5.6</ele>
        <time>2020-06-02T13:42:23Z</time>
      </trkpt>
      <trkpt lat="46.31928" lon="-1.07508">
        <ele>5.6</ele>
        <time>2020-06-02T13:42:24Z</time>
      </trkpt>
      <trkpt lat="46.31928" lon="-1.07508">
        <ele>5.6</ele>
        <time>2020-06-02T13:42:25Z</time>
      </trkpt>
      <trkpt lat="46.31928" lon="-1.07508">
        <ele>5.6</ele>
        <time>2020-06-02T13:42:26Z</time>
      </trkpt>
      <trkpt lat="46.31928" lon="-1.07508">
        <ele>5.6</ele>
        <time>2020-06-02T13:42:27Z</time>
      </trkpt>
      <trkpt lat="46.31928" lon="-1.07507">
        <ele>5.6</ele>
        <time>2020-06-02T13:42:28Z</time>
      </trkpt>
      <trkpt lat="46.31928" lon="-1.07508">
        <ele>5.6</ele>
        <time>2020-06-02T13:42:29Z</time>
      </trkpt>
      <trkpt lat="46.31928" lon="-1.07509">
        <ele>5.6</ele>
        <time>2020-06-02T13:42:30Z</time>
      </trkpt>
      <trkpt lat="46.31927" lon="-1.07509">
        <ele>5.6</ele>
        <time>2020-06-02T13:42:31Z</time>
      </trkpt>
      <trkpt lat="46.31927" lon="-1.07509">
        <ele>5.6</ele>
        <time>2020-06-02T13:42:32Z</time>
      </trkpt>
      <trkpt lat="46.31927" lon="-1.07509">
        <ele>5.6</ele>
        <time>2020-06-02T13:42:33Z</time>
      </trkpt>
      <trkpt lat="46.31927" lon="-1.07509">
        <ele>5.6</ele>
        <time>2020-06-02T13:42:34Z</time>
      </trkpt>
      <trkpt lat="46.31927" lon="-1.07508">
        <ele>5.6</ele>
        <time>2020-06-02T13:42:35Z</time>
      </trkpt>
      <trkpt lat="46.31926" lon="-1.07508">
        <ele>5.6</ele>
        <time>2020-06-02T13:42:36Z</time>
      </trkpt>
      <trkpt lat="46.31926" lon="-1.07507">
        <ele>5.6</ele>
        <time>2020-06-02T13:42:37Z</time>
      </trkpt>
      <trkpt lat="46.31926" lon="-1.07508">
        <ele>5.6</ele>
        <time>2020-06-02T13:42:38Z</time>
      </trkpt>
      <trkpt lat="46.31925" lon="-1.07509">
        <ele>5.6</ele>
        <time>2020-06-02T13:42:39Z</time>
      </trkpt>
      <trkpt lat="46.31925" lon="-1.07509">
        <ele>5.6</ele>
        <time>2020-06-02T13:42:40Z</time>
      </trkpt>
      <trkpt lat="46.31925" lon="-1.07509">
        <ele>5.6</ele>
        <time>2020-06-02T13:42:41Z</time>
      </trkpt>
      <trkpt lat="46.31925" lon="-1.07509">
        <ele>5.6</ele>
        <time>2020-06-02T13:42:42Z</time>
      </trkpt>
      <trkpt lat="46.31925" lon="-1.07509">
        <ele>5.6</ele>
        <time>2020-06-02T13:42:43Z</time>
      </trkpt>
      <trkpt lat="46.31925" lon="-1.07509">
        <ele>5.6</ele>
        <time>2020-06-02T13:42:44Z</time>
      </trkpt>
      <trkpt lat="46.31924" lon="-1.07509">
        <ele>5.6</ele>
        <time>2020-06-02T13:42:45Z</time>
      </trkpt>
      <trkpt lat="46.31923" lon="-1.07509">
        <ele>5.6</ele>
        <time>2020-06-02T13:42:46Z</time>
      </trkpt>
      <trkpt lat="46.31923" lon="-1.07509">
        <ele>5.6</ele>
        <time>2020-06-02T13:42:47Z</time>
      </trkpt>
      <trkpt lat="46.31923" lon="-1.07509">
        <ele>5.6</ele>
        <time>2020-06-02T13:42:48Z</time>
      </trkpt>
      <trkpt lat="46.31923" lon="-1.07508">
        <ele>5.6</ele>
        <time>2020-06-02T13:42:49Z</time>
      </trkpt>
      <trkpt lat="46.31923" lon="-1.07507">
        <ele>5.6</ele>
        <time>2020-06-02T13:42:50Z</time>
      </trkpt>
      <trkpt lat="46.31923" lon="-1.07507">
        <ele>5.6</ele>
        <time>2020-06-02T13:42:51Z</time>
      </trkpt>
      <trkpt lat="46.31923" lon="-1.07507">
        <ele>5.6</ele>
        <time>2020-06-02T13:42:52Z</time>
      </trkpt>
      <trkpt lat="46.31923" lon="-1.07507">
        <ele>5.6</ele>
        <time>2020-06-02T13:42:53Z</time>
      </trkpt>
      <trkpt lat="46.31923" lon="-1.07507">
        <ele>5.6</ele>
        <time>2020-06-02T13:42:54Z</time>
      </trkpt>
      <trkpt lat="46.31923" lon="-1.07507">
        <ele>5.6</ele>
        <time>2020-06-02T13:42:55Z</time>
      </trkpt>
      <trkpt lat="46.31923" lon="-1.07507">
        <ele>5.6</ele>
        <time>2020-06-02T13:42:56Z</time>
      </trkpt>
      <trkpt lat="46.31922" lon="-1.07506">
        <ele>5.6</ele>
        <time>2020-06-02T13:42:57Z</time>
      </trkpt>
      <trkpt lat="46.31923" lon="-1.07506">
        <ele>5.6</ele>
        <time>2020-06-02T13:42:58Z</time>
      </trkpt>
      <trkpt lat="46.31924" lon="-1.07506">
        <ele>5.6</ele>
        <time>2020-06-02T13:42:59Z</time>
      </trkpt>
      <trkpt lat="46.31924" lon="-1.07506">
        <ele>5.6</ele>
        <time>2020-06-02T13:43:00Z</time>
      </trkpt>
      <trkpt lat="46.31926" lon="-1.07506">
        <ele>5.6</ele>
        <time>2020-06-02T13:43:01Z</time>
      </trkpt>
      <trkpt lat="46.31926" lon="-1.07506">
        <ele>5.6</ele>
        <time>2020-06-02T13:43:02Z</time>
      </trkpt>
      <trkpt lat="46.31926" lon="-1.07506">
        <ele>5.6</ele>
        <time>2020-06-02T13:43:03Z</time>
      </trkpt>
      <trkpt lat="46.31926" lon="-1.07507">
        <ele>5.6</ele>
        <time>2020-06-02T13:43:04Z</time>
      </trkpt>
      <trkpt lat="46.31925" lon="-1.07505">
        <ele>5.6</ele>
        <time>2020-06-02T13:43:05Z</time>
      </trkpt>
      <trkpt lat="46.31925" lon="-1.07505">
        <ele>5.6</ele>
        <time>2020-06-02T13:43:06Z</time>
      </trkpt>
      <trkpt lat="46.31925" lon="-1.07505">
        <ele>5.6</ele>
        <time>2020-06-02T13:43:07Z</time>
      </trkpt>
      <trkpt lat="46.31924" lon="-1.07506">
        <ele>5.6</ele>
        <time>2020-06-02T13:43:08Z</time>
      </trkpt>
      <trkpt lat="46.31925" lon="-1.07507">
        <ele>5.6</ele>
        <time>2020-06-02T13:43:09Z</time>
      </trkpt>
      <trkpt lat="46.31925" lon="-1.07508">
        <ele>5.6</ele>
        <time>2020-06-02T13:43:10Z</time>
      </trkpt>
      <trkpt lat="46.31923" lon="-1.07507">
        <ele>5.6</ele>
        <time>2020-06-02T13:43:11Z</time>
      </trkpt>
      <trkpt lat="46.31924" lon="-1.07508">
        <ele>5.6</ele>
        <time>2020-06-02T13:43:12Z</time>
      </trkpt>
      <trkpt lat="46.31924" lon="-1.07509">
        <ele>5.6</ele>
        <time>2020-06-02T13:43:13Z</time>
      </trkpt>
      <trkpt lat="46.31924" lon="-1.07509">
        <ele>5.6</ele>
        <time>2020-06-02T13:43:14Z</time>
      </trkpt>
      <trkpt lat="46.31924" lon="-1.07509">
        <ele>5.6</ele>
        <time>2020-06-02T13:43:15Z</time>
      </trkpt>
      <trkpt lat="46.31924" lon="-1.07509">
        <ele>5.6</ele>
        <time>2020-06-02T13:43:16Z</time>
      </trkpt>
      <trkpt lat="46.31924" lon="-1.07509">
        <ele>5.6</ele>
        <time>2020-06-02T13:43:17Z</time>
      </trkpt>
      <trkpt lat="46.31923" lon="-1.07509">
        <ele>5.6</ele>
        <time>2020-06-02T13:43:18Z</time>
      </trkpt>
      <trkpt lat="46.31923" lon="-1.07508">
        <ele>5.6</ele>
        <time>2020-06-02T13:43:19Z</time>
      </trkpt>
      <trkpt lat="46.31923" lon="-1.07508">
        <ele>5.6</ele>
        <time>2020-06-02T13:43:20Z</time>
      </trkpt>
      <trkpt lat="46.31923" lon="-1.07508">
        <ele>5.6</ele>
        <time>2020-06-02T13:43:21Z</time>
      </trkpt>
      <trkpt lat="46.31923" lon="-1.07508">
        <ele>5.6</ele>
        <time>2020-06-02T13:43:22Z</time>
      </trkpt>
      <trkpt lat="46.31923" lon="-1.07508">
        <ele>5.6</ele>
        <time>2020-06-02T13:43:23Z</time>
      </trkpt>
      <trkpt lat="46.31923" lon="-1.07508">
        <ele>5.6</ele>
        <time>2020-06-02T13:43:24Z</time>
      </trkpt>
      <trkpt lat="46.31923" lon="-1.07508">
        <ele>5.6</ele>
        <time>2020-06-02T13:43:25Z</time>
      </trkpt>
      <trkpt lat="46.31923" lon="-1.07508">
        <ele>5.6</ele>
        <time>2020-06-02T13:43:26Z</time>
      </trkpt>
      <trkpt lat="46.31923" lon="-1.07508">
        <ele>5.6</ele>
        <time>2020-06-02T13:43:27Z</time>
      </trkpt>
      <trkpt lat="46.31924" lon="-1.07508">
        <ele>5.6</ele>
        <time>2020-06-02T13:43:28Z</time>
      </trkpt>
      <trkpt lat="46.31924" lon="-1.07508">
        <ele>5.6</ele>
        <time>2020-06-02T13:43:29Z</time>
      </trkpt>
      <trkpt lat="46.31924" lon="-1.07508">
        <ele>5.6</ele>
        <time>2020-06-02T13:43:30Z</time>
      </trkpt>
      <trkpt lat="46.31924" lon="-1.07508">
        <ele>5.6</ele>
        <time>2020-06-02T13:43:31Z</time>
      </trkpt>
      <trkpt lat="46.31924" lon="-1.07508">
        <ele>5.6</ele>
        <time>2020-06-02T13:43:32Z</time>
      </trkpt>
      <trkpt lat="46.31924" lon="-1.07508">
        <ele>5.6</ele>
        <time>2020-06-02T13:43:33Z</time>
      </trkpt>
      <trkpt lat="46.31924" lon="-1.07508">
        <ele>5.6</ele>
        <time>2020-06-02T13:43:34Z</time>
      </trkpt>
      <trkpt lat="46.31924" lon="-1.07508">
        <ele>5.6</ele>
        <time>2020-06-02T13:43:35Z</time>
      </trkpt>
      <trkpt lat="46.31924" lon="-1.07508">
        <ele>5.6</ele>
        <time>2020-06-02T13:43:36Z</time>
      </trkpt>
      <trkpt lat="46.31924" lon="-1.07507">
        <ele>5.6</ele>
        <time>2020-06-02T13:43:37Z</time>
      </trkpt>
      <trkpt lat="46.31924" lon="-1.07508">
        <ele>5.6</ele>
        <time>2020-06-02T13:43:38Z</time>
      </trkpt>
      <trkpt lat="46.31924" lon="-1.07508">
        <ele>5.6</ele>
        <time>2020-06-02T13:43:39Z</time>
      </trkpt>
      <trkpt lat="46.31924" lon="-1.07508">
        <ele>5.6</ele>
        <time>2020-06-02T13:43:40Z</time>
      </trkpt>
      <trkpt lat="46.31924" lon="-1.07508">
        <ele>5.6</ele>
        <time>2020-06-02T13:43:41Z</time>
      </trkpt>
      <trkpt lat="46.31924" lon="-1.07508">
        <ele>5.6</ele>
        <time>2020-06-02T13:43:42Z</time>
      </trkpt>
      <trkpt lat="46.31924" lon="-1.07508">
        <ele>5.6</ele>
        <time>2020-06-02T13:43:43Z</time>
      </trkpt>
      <trkpt lat="46.31924" lon="-1.07508">
        <ele>5.6</ele>
        <time>2020-06-02T13:43:44Z</time>
      </trkpt>
      <trkpt lat="46.31924" lon="-1.07509">
        <ele>5.6</ele>
        <time>2020-06-02T13:43:45Z</time>
      </trkpt>
      <trkpt lat="46.31924" lon="-1.07509">
        <ele>5.6</ele>
        <time>2020-06-02T13:43:46Z</time>
      </trkpt>
      <trkpt lat="46.31924" lon="-1.07509">
        <ele>5.6</ele>
        <time>2020-06-02T13:43:47Z</time>
      </trkpt>
      <trkpt lat="46.31925" lon="-1.07509">
        <ele>5.6</ele>
        <time>2020-06-02T13:43:48Z</time>
      </trkpt>
      <trkpt lat="46.31925" lon="-1.07509">
        <ele>5.6</ele>
        <time>2020-06-02T13:43:49Z</time>
      </trkpt>
      <trkpt lat="46.31925" lon="-1.07509">
        <ele>5.6</ele>
        <time>2020-06-02T13:43:50Z</time>
      </trkpt>
      <trkpt lat="46.31925" lon="-1.07509">
        <ele>5.6</ele>
        <time>2020-06-02T13:43:51Z</time>
      </trkpt>
      <trkpt lat="46.31925" lon="-1.07509">
        <ele>5.6</ele>
        <time>2020-06-02T13:43:52Z</time>
      </trkpt>
      <trkpt lat="46.31925" lon="-1.07509">
        <ele>5.6</ele>
        <time>2020-06-02T13:43:53Z</time>
      </trkpt>
      <trkpt lat="46.31925" lon="-1.07509">
        <ele>5.6</ele>
        <time>2020-06-02T13:43:54Z</time>
      </trkpt>
      <trkpt lat="46.31925" lon="-1.0751">
        <ele>5.6</ele>
        <time>2020-06-02T13:43:55Z</time>
      </trkpt>
      <trkpt lat="46.31925" lon="-1.0751">
        <ele>5.6</ele>
        <time>2020-06-02T13:43:56Z</time>
      </trkpt>
      <trkpt lat="46.31925" lon="-1.0751">
        <ele>5.6</ele>
        <time>2020-06-02T13:43:57Z</time>
      </trkpt>
      <trkpt lat="46.31925" lon="-1.0751">
        <ele>5.6</ele>
        <time>2020-06-02T13:43:58Z</time>
      </trkpt>
      <trkpt lat="46.31925" lon="-1.0751">
        <ele>5.6</ele>
        <time>2020-06-02T13:43:59Z</time>
      </trkpt>
      <trkpt lat="46.31925" lon="-1.0751">
        <ele>5.6</ele>
        <time>2020-06-02T13:44:00Z</time>
      </trkpt>
      <trkpt lat="46.31925" lon="-1.0751">
        <ele>5.6</ele>
        <time>2020-06-02T13:44:01Z</time>
      </trkpt>
      <trkpt lat="46.31925" lon="-1.07509">
        <ele>5.6</ele>
        <time>2020-06-02T13:44:02Z</time>
      </trkpt>
      <trkpt lat="46.31925" lon="-1.07509">
        <ele>5.6</ele>
        <time>2020-06-02T13:44:03Z</time>
      </trkpt>
      <trkpt lat="46.31925" lon="-1.07509">
        <ele>5.6</ele>
        <time>2020-06-02T13:44:04Z</time>
      </trkpt>
      <trkpt lat="46.31925" lon="-1.07509">
        <ele>5.6</ele>
        <time>2020-06-02T13:44:05Z</time>
      </trkpt>
      <trkpt lat="46.31925" lon="-1.07509">
        <ele>5.6</ele>
        <time>2020-06-02T13:44:06Z</time>
      </trkpt>
      <trkpt lat="46.31926" lon="-1.07509">
        <ele>5.6</ele>
        <time>2020-06-02T13:44:07Z</time>
      </trkpt>
      <trkpt lat="46.31926" lon="-1.07509">
        <ele>5.6</ele>
        <time>2020-06-02T13:44:08Z</time>
      </trkpt>
      <trkpt lat="46.31926" lon="-1.07509">
        <ele>5.6</ele>
        <time>2020-06-02T13:44:09Z</time>
      </trkpt>
      <trkpt lat="46.31926" lon="-1.07509">
        <ele>5.6</ele>
        <time>2020-06-02T13:44:10Z</time>
      </trkpt>
      <trkpt lat="46.31926" lon="-1.07509">
        <ele>5.6</ele>
        <time>2020-06-02T13:44:11Z</time>
      </trkpt>
      <trkpt lat="46.31926" lon="-1.07509">
        <ele>5.6</ele>
        <time>2020-06-02T13:44:12Z</time>
      </trkpt>
      <trkpt lat="46.31926" lon="-1.07509">
        <ele>5.6</ele>
        <time>2020-06-02T13:44:13Z</time>
      </trkpt>
      <trkpt lat="46.31926" lon="-1.07509">
        <ele>5.6</ele>
        <time>2020-06-02T13:44:14Z</time>
      </trkpt>
      <trkpt lat="46.31926" lon="-1.07509">
        <ele>5.6</ele>
        <time>2020-06-02T13:44:15Z</time>
      </trkpt>
      <trkpt lat="46.31926" lon="-1.07509">
        <ele>5.6</ele>
        <time>2020-06-02T13:44:16Z</time>
      </trkpt>
      <trkpt lat="46.31926" lon="-1.07509">
        <ele>5.6</ele>
        <time>2020-06-02T13:44:17Z</time>
      </trkpt>
      <trkpt lat="46.31926" lon="-1.07509">
        <ele>5.6</ele>
        <time>2020-06-02T13:44:18Z</time>
      </trkpt>
      <trkpt lat="46.31926" lon="-1.07509">
        <ele>5.6</ele>
        <time>2020-06-02T13:44:19Z</time>
      </trkpt>
      <trkpt lat="46.31926" lon="-1.07509">
        <ele>5.6</ele>
        <time>2020-06-02T13:44:20Z</time>
      </trkpt>
      <trkpt lat="46.31926" lon="-1.07509">
        <ele>5.6</ele>
        <time>2020-06-02T13:44:21Z</time>
      </trkpt>
      <trkpt lat="46.31926" lon="-1.07509">
        <ele>5.6</ele>
        <time>2020-06-02T13:44:22Z</time>
      </trkpt>
      <trkpt lat="46.31926" lon="-1.07509">
        <ele>5.6</ele>
        <time>2020-06-02T13:44:23Z</time>
      </trkpt>
      <trkpt lat="46.31926" lon="-1.07509">
        <ele>5.6</ele>
        <time>2020-06-02T13:44:24Z</time>
      </trkpt>
      <trkpt lat="46.31926" lon="-1.07509">
        <ele>5.6</ele>
        <time>2020-06-02T13:44:25Z</time>
      </trkpt>
      <trkpt lat="46.31926" lon="-1.07509">
        <ele>5.6</ele>
        <time>2020-06-02T13:44:26Z</time>
      </trkpt>
      <trkpt lat="46.31926" lon="-1.07509">
        <ele>5.6</ele>
        <time>2020-06-02T13:44:27Z</time>
      </trkpt>
      <trkpt lat="46.31926" lon="-1.07509">
        <ele>5.6</ele>
        <time>2020-06-02T13:44:28Z</time>
      </trkpt>
      <trkpt lat="46.31926" lon="-1.07509">
        <ele>5.6</ele>
        <time>2020-06-02T13:44:29Z</time>
      </trkpt>
      <trkpt lat="46.31926" lon="-1.07509">
        <ele>5.6</ele>
        <time>2020-06-02T13:44:30Z</time>
      </trkpt>
      <trkpt lat="46.31926" lon="-1.07509">
        <ele>5.6</ele>
        <time>2020-06-02T13:44:31Z</time>
      </trkpt>
      <trkpt lat="46.31926" lon="-1.07509">
        <ele>5.6</ele>
        <time>2020-06-02T13:44:32Z</time>
      </trkpt>
      <trkpt lat="46.31926" lon="-1.07509">
        <ele>5.6</ele>
        <time>2020-06-02T13:44:33Z</time>
      </trkpt>
      <trkpt lat="46.31927" lon="-1.07507">
        <ele>5.6</ele>
        <time>2020-06-02T13:44:34Z</time>
      </trkpt>
      <trkpt lat="46.31927" lon="-1.07505">
        <ele>5.6</ele>
        <time>2020-06-02T13:44:35Z</time>
      </trkpt>
      <trkpt lat="46.31927" lon="-1.07503">
        <ele>5.6</ele>
        <time>2020-06-02T13:44:36Z</time>
      </trkpt>
      <trkpt lat="46.31928" lon="-1.07502">
        <ele>5.6</ele>
        <time>2020-06-02T13:44:37Z</time>
      </trkpt>
      <trkpt lat="46.31929" lon="-1.07499">
        <ele>5.6</ele>
        <time>2020-06-02T13:44:38Z</time>
      </trkpt>
      <trkpt lat="46.31929" lon="-1.07497">
        <ele>5.6</ele>
        <time>2020-06-02T13:44:39Z</time>
      </trkpt>
      <trkpt lat="46.3193" lon="-1.07494">
        <ele>5.6</ele>
        <time>2020-06-02T13:44:40Z</time>
      </trkpt>
      <trkpt lat="46.3193" lon="-1.07493">
        <ele>5.6</ele>
        <time>2020-06-02T13:44:41Z</time>
      </trkpt>
      <trkpt lat="46.3193" lon="-1.07492">
        <ele>5.6</ele>
        <time>2020-06-02T13:44:42Z</time>
      </trkpt>
      <trkpt lat="46.3193" lon="-1.07492">
        <ele>5.6</ele>
        <time>2020-06-02T13:44:43Z</time>
      </trkpt>
      <trkpt lat="46.3193" lon="-1.07491">
        <ele>5.6</ele>
        <time>2020-06-02T13:44:44Z</time>
      </trkpt>
      <trkpt lat="46.3193" lon="-1.07491">
        <ele>5.6</ele>
        <time>2020-06-02T13:44:45Z</time>
      </trkpt>
      <trkpt lat="46.3193" lon="-1.07491">
        <ele>5.6</ele>
        <time>2020-06-02T13:44:46Z</time>
      </trkpt>
      <trkpt lat="46.3193" lon="-1.07491">
        <ele>5.6</ele>
        <time>2020-06-02T13:44:47Z</time>
      </trkpt>
      <trkpt lat="46.3193" lon="-1.07491">
        <ele>5.6</ele>
        <time>2020-06-02T13:44:48Z</time>
      </trkpt>
      <trkpt lat="46.3193" lon="-1.07491">
        <ele>5.6</ele>
        <time>2020-06-02T13:44:49Z</time>
      </trkpt>
      <trkpt lat="46.3193" lon="-1.0749">
        <ele>5.6</ele>
        <time>2020-06-02T13:44:50Z</time>
      </trkpt>
      <trkpt lat="46.3193" lon="-1.0749">
        <ele>5.6</ele>
        <time>2020-06-02T13:44:51Z</time>
      </trkpt>
      <trkpt lat="46.3193" lon="-1.0749">
        <ele>5.6</ele>
        <time>2020-06-02T13:44:52Z</time>
      </trkpt>
      <trkpt lat="46.3193" lon="-1.0749">
        <ele>5.6</ele>
        <time>2020-06-02T13:44:53Z</time>
      </trkpt>
      <trkpt lat="46.3193" lon="-1.0749">
        <ele>5.6</ele>
        <time>2020-06-02T13:44:54Z</time>
      </trkpt>
      <trkpt lat="46.3193" lon="-1.0749">
        <ele>5.6</ele>
        <time>2020-06-02T13:44:55Z</time>
      </trkpt>
      <trkpt lat="46.3193" lon="-1.0749">
        <ele>5.6</ele>
        <time>2020-06-02T13:44:56Z</time>
      </trkpt>
      <trkpt lat="46.3193" lon="-1.0749">
        <ele>5.6</ele>
        <time>2020-06-02T13:44:57Z</time>
      </trkpt>
      <trkpt lat="46.3193" lon="-1.0749">
        <ele>5.6</ele>
        <time>2020-06-02T13:44:58Z</time>
      </trkpt>
      <trkpt lat="46.3193" lon="-1.0749">
        <ele>5.6</ele>
        <time>2020-06-02T13:44:59Z</time>
      </trkpt>
      <trkpt lat="46.3193" lon="-1.0749">
        <ele>5.6</ele>
        <time>2020-06-02T13:45:00Z</time>
      </trkpt>
      <trkpt lat="46.3193" lon="-1.0749">
        <ele>5.6</ele>
        <time>2020-06-02T13:45:01Z</time>
      </trkpt>
      <trkpt lat="46.3193" lon="-1.0749">
        <ele>5.6</ele>
        <time>2020-06-02T13:45:02Z</time>
      </trkpt>
      <trkpt lat="46.3193" lon="-1.0749">
        <ele>5.6</ele>
        <time>2020-06-02T13:45:03Z</time>
      </trkpt>
      <trkpt lat="46.3193" lon="-1.0749">
        <ele>5.6</ele>
        <time>2020-06-02T13:45:04Z</time>
      </trkpt>
      <trkpt lat="46.3193" lon="-1.0749">
        <ele>5.6</ele>
        <time>2020-06-02T13:45:05Z</time>
      </trkpt>
      <trkpt lat="46.3193" lon="-1.0749">
        <ele>5.6</ele>
        <time>2020-06-02T13:45:06Z</time>
      </trkpt>
      <trkpt lat="46.3193" lon="-1.0749">
        <ele>5.6</ele>
        <time>2020-06-02T13:45:07Z</time>
      </trkpt>
      <trkpt lat="46.3193" lon="-1.0749">
        <ele>5.6</ele>
        <time>2020-06-02T13:45:08Z</time>
      </trkpt>
      <trkpt lat="46.3193" lon="-1.0749">
        <ele>5.6</ele>
        <time>2020-06-02T13:45:09Z</time>
      </trkpt>
      <trkpt lat="46.3193" lon="-1.07489">
        <ele>5.6</ele>
        <time>2020-06-02T13:45:10Z</time>
      </trkpt>
      <trkpt lat="46.3193" lon="-1.07489">
        <ele>5.6</ele>
        <time>2020-06-02T13:45:11Z</time>
      </trkpt>
      <trkpt lat="46.3193" lon="-1.07489">
        <ele>5.6</ele>
        <time>2020-06-02T13:45:12Z</time>
      </trkpt>
      <trkpt lat="46.3193" lon="-1.07489">
        <ele>5.6</ele>
        <time>2020-06-02T13:45:13Z</time>
      </trkpt>
      <trkpt lat="46.3193" lon="-1.07489">
        <ele>5.6</ele>
        <time>2020-06-02T13:45:14Z</time>
      </trkpt>
      <trkpt lat="46.31929" lon="-1.07489">
        <ele>5.6</ele>
        <time>2020-06-02T13:45:15Z</time>
      </trkpt>
      <trkpt lat="46.31927" lon="-1.07488">
        <ele>5.6</ele>
        <time>2020-06-02T13:45:16Z</time>
      </trkpt>
      <trkpt lat="46.31927" lon="-1.07489">
        <ele>5.6</ele>
        <time>2020-06-02T13:45:17Z</time>
      </trkpt>
      <trkpt lat="46.31927" lon="-1.0749">
        <ele>5.6</ele>
        <time>2020-06-02T13:45:18Z</time>
      </trkpt>
      <trkpt lat="46.31927" lon="-1.0749">
        <ele>5.6</ele>
        <time>2020-06-02T13:45:19Z</time>
      </trkpt>
      <trkpt lat="46.31927" lon="-1.07491">
        <ele>5.6</ele>
        <time>2020-06-02T13:45:20Z</time>
      </trkpt>
      <trkpt lat="46.31927" lon="-1.07492">
        <ele>5.6</ele>
        <time>2020-06-02T13:45:21Z</time>
      </trkpt>
      <trkpt lat="46.31927" lon="-1.07492">
        <ele>5.6</ele>
        <time>2020-06-02T13:45:22Z</time>
      </trkpt>
      <trkpt lat="46.31927" lon="-1.07493">
        <ele>5.6</ele>
        <time>2020-06-02T13:45:23Z</time>
      </trkpt>
      <trkpt lat="46.31927" lon="-1.07494">
        <ele>5.6</ele>
        <time>2020-06-02T13:45:24Z</time>
      </trkpt>
      <trkpt lat="46.31927" lon="-1.07494">
        <ele>5.6</ele>
        <time>2020-06-02T13:45:25Z</time>
      </trkpt>
      <trkpt lat="46.31927" lon="-1.07495">
        <ele>5.6</ele>
        <time>2020-06-02T13:45:26Z</time>
      </trkpt>
      <trkpt lat="46.31927" lon="-1.075">
        <ele>5.6</ele>
        <time>2020-06-02T13:45:27Z</time>
      </trkpt>
      <trkpt lat="46.31927" lon="-1.07502">
        <ele>5.6</ele>
        <time>2020-06-02T13:45:28Z</time>
      </trkpt>
      <trkpt lat="46.31927" lon="-1.07504">
        <ele>5.6</ele>
        <time>2020-06-02T13:45:29Z</time>
      </trkpt>
      <trkpt lat="46.31927" lon="-1.07507">
        <ele>5.6</ele>
        <time>2020-06-02T13:45:30Z</time>
      </trkpt>
      <trkpt lat="46.31926" lon="-1.07509">
        <ele>5.6</ele>
        <time>2020-06-02T13:45:31Z</time>
      </trkpt>
      <trkpt lat="46.31926" lon="-1.07509">
        <ele>5.6</ele>
        <time>2020-06-02T13:45:32Z</time>
      </trkpt>
      <trkpt lat="46.31927" lon="-1.0751">
        <ele>5.6</ele>
        <time>2020-06-02T13:45:33Z</time>
      </trkpt>
      <trkpt lat="46.31927" lon="-1.07509">
        <ele>5.6</ele>
        <time>2020-06-02T13:45:34Z</time>
      </trkpt>
      <trkpt lat="46.31927" lon="-1.07509">
        <ele>5.6</ele>
        <time>2020-06-02T13:45:35Z</time>
      </trkpt>
      <trkpt lat="46.31927" lon="-1.07509">
        <ele>5.6</ele>
        <time>2020-06-02T13:45:36Z</time>
      </trkpt>
      <trkpt lat="46.31927" lon="-1.07509">
        <ele>5.6</ele>
        <time>2020-06-02T13:45:37Z</time>
      </trkpt>
      <trkpt lat="46.31927" lon="-1.07509">
        <ele>5.6</ele>
        <time>2020-06-02T13:45:38Z</time>
      </trkpt>
      <trkpt lat="46.31927" lon="-1.07509">
        <ele>5.6</ele>
        <time>2020-06-02T13:45:39Z</time>
      </trkpt>
      <trkpt lat="46.31927" lon="-1.07509">
        <ele>5.6</ele>
        <time>2020-06-02T13:45:40Z</time>
      </trkpt>
      <trkpt lat="46.31927" lon="-1.07509">
        <ele>5.6</ele>
        <time>2020-06-02T13:45:41Z</time>
      </trkpt>
      <trkpt lat="46.31927" lon="-1.07509">
        <ele>5.6</ele>
        <time>2020-06-02T13:45:42Z</time>
      </trkpt>
      <trkpt lat="46.31928" lon="-1.07509">
        <ele>5.6</ele>
        <time>2020-06-02T13:45:43Z</time>
      </trkpt>
      <trkpt lat="46.31928" lon="-1.07509">
        <ele>5.6</ele>
        <time>2020-06-02T13:45:44Z</time>
      </trkpt>
      <trkpt lat="46.31928" lon="-1.07509">
        <ele>5.6</ele>
        <time>2020-06-02T13:45:45Z</time>
      </trkpt>
      <trkpt lat="46.31928" lon="-1.07509">
        <ele>5.6</ele>
        <time>2020-06-02T13:45:46Z</time>
      </trkpt>
      <trkpt lat="46.31928" lon="-1.07509">
        <ele>5.6</ele>
        <time>2020-06-02T13:45:47Z</time>
      </trkpt>
      <trkpt lat="46.31928" lon="-1.07509">
        <ele>5.6</ele>
        <time>2020-06-02T13:45:48Z</time>
      </trkpt>
      <trkpt lat="46.31928" lon="-1.07509">
        <ele>5.6</ele>
        <time>2020-06-02T13:45:49Z</time>
      </trkpt>
      <trkpt lat="46.31928" lon="-1.07509">
        <ele>5.6</ele>
        <time>2020-06-02T13:45:50Z</time>
      </trkpt>
      <trkpt lat="46.31928" lon="-1.07509">
        <ele>5.6</ele>
        <time>2020-06-02T13:45:51Z</time>
      </trkpt>
      <trkpt lat="46.31928" lon="-1.07509">
        <ele>5.6</ele>
        <time>2020-06-02T13:45:52Z</time>
      </trkpt>
      <trkpt lat="46.31928" lon="-1.07509">
        <ele>5.6</ele>
        <time>2020-06-02T13:45:53Z</time>
      </trkpt>
      <trkpt lat="46.31928" lon="-1.07509">
        <ele>5.6</ele>
        <time>2020-06-02T13:45:54Z</time>
      </trkpt>
      <trkpt lat="46.31927" lon="-1.07509">
        <ele>5.6</ele>
        <time>2020-06-02T13:45:55Z</time>
      </trkpt>
      <trkpt lat="46.31927" lon="-1.07508">
        <ele>5.6</ele>
        <time>2020-06-02T13:45:56Z</time>
      </trkpt>
      <trkpt lat="46.31927" lon="-1.07507">
        <ele>5.6</ele>
        <time>2020-06-02T13:45:57Z</time>
      </trkpt>
      <trkpt lat="46.31926" lon="-1.07507">
        <ele>5.6</ele>
        <time>2020-06-02T13:45:58Z</time>
      </trkpt>
      <trkpt lat="46.31926" lon="-1.07506">
        <ele>5.6</ele>
        <time>2020-06-02T13:45:59Z</time>
      </trkpt>
      <trkpt lat="46.31926" lon="-1.07506">
        <ele>5.6</ele>
        <time>2020-06-02T13:46:00Z</time>
      </trkpt>
      <trkpt lat="46.31926" lon="-1.07504">
        <ele>5.6</ele>
        <time>2020-06-02T13:46:01Z</time>
      </trkpt>
      <trkpt lat="46.31925" lon="-1.07502">
        <ele>5.6</ele>
        <time>2020-06-02T13:46:02Z</time>
      </trkpt>
      <trkpt lat="46.31925" lon="-1.07499">
        <ele>5.6</ele>
        <time>2020-06-02T13:46:03Z</time>
      </trkpt>
      <trkpt lat="46.31925" lon="-1.07498">
        <ele>5.6</ele>
        <time>2020-06-02T13:46:04Z</time>
      </trkpt>
      <trkpt lat="46.31925" lon="-1.07497">
        <ele>5.6</ele>
        <time>2020-06-02T13:46:05Z</time>
      </trkpt>
      <trkpt lat="46.31926" lon="-1.07496">
        <ele>5.6</ele>
        <time>2020-06-02T13:46:06Z</time>
      </trkpt>
      <trkpt lat="46.31926" lon="-1.07495">
        <ele>5.6</ele>
        <time>2020-06-02T13:46:07Z</time>
      </trkpt>
      <trkpt lat="46.31926" lon="-1.07493">
        <ele>5.6</ele>
        <time>2020-06-02T13:46:08Z</time>
      </trkpt>
      <trkpt lat="46.31924" lon="-1.07489">
        <ele>5.6</ele>
        <time>2020-06-02T13:46:09Z</time>
      </trkpt>
      <trkpt lat="46.31924" lon="-1.07486">
        <ele>5.6</ele>
        <time>2020-06-02T13:46:10Z</time>
      </trkpt>
      <trkpt lat="46.31923" lon="-1.07485">
        <ele>5.6</ele>
        <time>2020-06-02T13:46:11Z</time>
      </trkpt>
      <trkpt lat="46.31923" lon="-1.07485">
        <ele>5.6</ele>
        <time>2020-06-02T13:46:12Z</time>
      </trkpt>
      <trkpt lat="46.31923" lon="-1.07484">
        <ele>5.6</ele>
        <time>2020-06-02T13:46:13Z</time>
      </trkpt>
      <trkpt lat="46.31923" lon="-1.07483">
        <ele>5.6</ele>
        <time>2020-06-02T13:46:14Z</time>
      </trkpt>
      <trkpt lat="46.31923" lon="-1.07483">
        <ele>5.6</ele>
        <time>2020-06-02T13:46:15Z</time>
      </trkpt>
      <trkpt lat="46.31923" lon="-1.07482">
        <ele>5.6</ele>
        <time>2020-06-02T13:46:16Z</time>
      </trkpt>
      <trkpt lat="46.31923" lon="-1.07482">
        <ele>5.6</ele>
        <time>2020-06-02T13:46:17Z</time>
      </trkpt>
      <trkpt lat="46.31923" lon="-1.07482">
        <ele>5.6</ele>
        <time>2020-06-02T13:46:18Z</time>
      </trkpt>
      <trkpt lat="46.31923" lon="-1.07482">
        <ele>5.6</ele>
        <time>2020-06-02T13:46:19Z</time>
      </trkpt>
      <trkpt lat="46.31923" lon="-1.07482">
        <ele>5.6</ele>
        <time>2020-06-02T13:46:20Z</time>
      </trkpt>
      <trkpt lat="46.31923" lon="-1.07482">
        <ele>5.6</ele>
        <time>2020-06-02T13:46:21Z</time>
      </trkpt>
      <trkpt lat="46.31923" lon="-1.07482">
        <ele>5.6</ele>
        <time>2020-06-02T13:46:22Z</time>
      </trkpt>
      <trkpt lat="46.31923" lon="-1.07482">
        <ele>5.6</ele>
        <time>2020-06-02T13:46:23Z</time>
      </trkpt>
      <trkpt lat="46.31923" lon="-1.07482">
        <ele>5.6</ele>
        <time>2020-06-02T13:46:24Z</time>
      </trkpt>
      <trkpt lat="46.31923" lon="-1.07482">
        <ele>5.6</ele>
        <time>2020-06-02T13:46:25Z</time>
      </trkpt>
      <trkpt lat="46.31923" lon="-1.07482">
        <ele>5.6</ele>
        <time>2020-06-02T13:46:26Z</time>
      </trkpt>
      <trkpt lat="46.31923" lon="-1.07482">
        <ele>5.6</ele>
        <time>2020-06-02T13:46:27Z</time>
      </trkpt>
      <trkpt lat="46.31923" lon="-1.07482">
        <ele>5.6</ele>
        <time>2020-06-02T13:46:28Z</time>
      </trkpt>
      <trkpt lat="46.31923" lon="-1.07482">
        <ele>5.6</ele>
        <time>2020-06-02T13:46:29Z</time>
      </trkpt>
      <trkpt lat="46.31923" lon="-1.07482">
        <ele>5.6</ele>
        <time>2020-06-02T13:46:30Z</time>
      </trkpt>
      <trkpt lat="46.31923" lon="-1.07482">
        <ele>5.6</ele>
        <time>2020-06-02T13:46:31Z</time>
      </trkpt>
      <trkpt lat="46.31923" lon="-1.07482">
        <ele>5.6</ele>
        <time>2020-06-02T13:46:32Z</time>
      </trkpt>
      <trkpt lat="46.31923" lon="-1.07482">
        <ele>5.6</ele>
        <time>2020-06-02T13:46:33Z</time>
      </trkpt>
      <trkpt lat="46.31923" lon="-1.07482">
        <ele>5.6</ele>
        <time>2020-06-02T13:46:34Z</time>
      </trkpt>
      <trkpt lat="46.31923" lon="-1.07482">
        <ele>5.6</ele>
        <time>2020-06-02T13:46:35Z</time>
      </trkpt>
      <trkpt lat="46.31923" lon="-1.07481">
        <ele>5.6</ele>
        <time>2020-06-02T13:46:36Z</time>
      </trkpt>
      <trkpt lat="46.31923" lon="-1.07481">
        <ele>5.6</ele>
        <time>2020-06-02T13:46:37Z</time>
      </trkpt>
      <trkpt lat="46.31923" lon="-1.07481">
        <ele>5.6</ele>
        <time>2020-06-02T13:46:38Z</time>
      </trkpt>
      <trkpt lat="46.31923" lon="-1.07481">
        <ele>5.6</ele>
        <time>2020-06-02T13:46:39Z</time>
      </trkpt>
      <trkpt lat="46.31923" lon="-1.07481">
        <ele>5.6</ele>
        <time>2020-06-02T13:46:40Z</time>
      </trkpt>
      <trkpt lat="46.31923" lon="-1.07481">
        <ele>5.6</ele>
        <time>2020-06-02T13:46:41Z</time>
      </trkpt>
      <trkpt lat="46.31923" lon="-1.07481">
        <ele>5.6</ele>
        <time>2020-06-02T13:46:42Z</time>
      </trkpt>
      <trkpt lat="46.31923" lon="-1.07481">
        <ele>5.6</ele>
        <time>2020-06-02T13:46:43Z</time>
      </trkpt>
      <trkpt lat="46.31923" lon="-1.07481">
        <ele>5.6</ele>
        <time>2020-06-02T13:46:44Z</time>
      </trkpt>
      <trkpt lat="46.31923" lon="-1.07481">
        <ele>5.6</ele>
        <time>2020-06-02T13:46:45Z</time>
      </trkpt>
      <trkpt lat="46.31923" lon="-1.07481">
        <ele>5.6</ele>
        <time>2020-06-02T13:46:46Z</time>
      </trkpt>
      <trkpt lat="46.31923" lon="-1.07482">
        <ele>5.6</ele>
        <time>2020-06-02T13:46:47Z</time>
      </trkpt>
      <trkpt lat="46.31922" lon="-1.07482">
        <ele>5.6</ele>
        <time>2020-06-02T13:46:48Z</time>
      </trkpt>
      <trkpt lat="46.31923" lon="-1.0748">
        <ele>5.6</ele>
        <time>2020-06-02T13:46:49Z</time>
      </trkpt>
      <trkpt lat="46.31923" lon="-1.0748">
        <ele>5.6</ele>
        <time>2020-06-02T13:46:50Z</time>
      </trkpt>
      <trkpt lat="46.31922" lon="-1.0748">
        <ele>5.6</ele>
        <time>2020-06-02T13:46:51Z</time>
      </trkpt>
      <trkpt lat="46.31922" lon="-1.0748">
        <ele>5.6</ele>
        <time>2020-06-02T13:46:52Z</time>
      </trkpt>
      <trkpt lat="46.31922" lon="-1.0748">
        <ele>5.6</ele>
        <time>2020-06-02T13:46:53Z</time>
      </trkpt>
      <trkpt lat="46.31922" lon="-1.0748">
        <ele>5.6</ele>
        <time>2020-06-02T13:46:54Z</time>
      </trkpt>
      <trkpt lat="46.31922" lon="-1.0748">
        <ele>5.6</ele>
        <time>2020-06-02T13:46:55Z</time>
      </trkpt>
      <trkpt lat="46.31922" lon="-1.0748">
        <ele>5.6</ele>
        <time>2020-06-02T13:46:56Z</time>
      </trkpt>
      <trkpt lat="46.31922" lon="-1.0748">
        <ele>5.6</ele>
        <time>2020-06-02T13:46:57Z</time>
      </trkpt>
      <trkpt lat="46.31922" lon="-1.0748">
        <ele>5.6</ele>
        <time>2020-06-02T13:46:58Z</time>
      </trkpt>
      <trkpt lat="46.31922" lon="-1.0748">
        <ele>5.6</ele>
        <time>2020-06-02T13:46:59Z</time>
      </trkpt>
      <trkpt lat="46.31922" lon="-1.0748">
        <ele>5.6</ele>
        <time>2020-06-02T13:47:00Z</time>
      </trkpt>
      <trkpt lat="46.31922" lon="-1.0748">
        <ele>5.6</ele>
        <time>2020-06-02T13:47:01Z</time>
      </trkpt>
      <trkpt lat="46.31923" lon="-1.0748">
        <ele>5.6</ele>
        <time>2020-06-02T13:47:02Z</time>
      </trkpt>
      <trkpt lat="46.31923" lon="-1.07481">
        <ele>5.6</ele>
        <time>2020-06-02T13:47:03Z</time>
      </trkpt>
      <trkpt lat="46.31922" lon="-1.07483">
        <ele>5.6</ele>
        <time>2020-06-02T13:47:04Z</time>
      </trkpt>
      <trkpt lat="46.31922" lon="-1.07484">
        <ele>5.6</ele>
        <time>2020-06-02T13:47:05Z</time>
      </trkpt>
      <trkpt lat="46.31923" lon="-1.07488">
        <ele>5.6</ele>
        <time>2020-06-02T13:47:06Z</time>
      </trkpt>
      <trkpt lat="46.31924" lon="-1.0749">
        <ele>5.6</ele>
        <time>2020-06-02T13:47:07Z</time>
      </trkpt>
      <trkpt lat="46.31925" lon="-1.07492">
        <ele>5.6</ele>
        <time>2020-06-02T13:47:08Z</time>
      </trkpt>
      <trkpt lat="46.31925" lon="-1.07494">
        <ele>5.6</ele>
        <time>2020-06-02T13:47:09Z</time>
      </trkpt>
      <trkpt lat="46.31926" lon="-1.07498">
        <ele>5.6</ele>
        <time>2020-06-02T13:47:10Z</time>
      </trkpt>
      <trkpt lat="46.31926" lon="-1.07499">
        <ele>5.6</ele>
        <time>2020-06-02T13:47:11Z</time>
      </trkpt>
      <trkpt lat="46.31925" lon="-1.07503">
        <ele>5.6</ele>
        <time>2020-06-02T13:47:12Z</time>
      </trkpt>
      <trkpt lat="46.31925" lon="-1.07503">
        <ele>5.6</ele>
        <time>2020-06-02T13:47:13Z</time>
      </trkpt>
      <trkpt lat="46.31925" lon="-1.07504">
        <ele>5.6</ele>
        <time>2020-06-02T13:47:14Z</time>
      </trkpt>
      <trkpt lat="46.31925" lon="-1.07507">
        <ele>5.6</ele>
        <time>2020-06-02T13:47:15Z</time>
      </trkpt>
      <trkpt lat="46.31925" lon="-1.07509">
        <ele>5.6</ele>
        <time>2020-06-02T13:47:16Z</time>
      </trkpt>
      <trkpt lat="46.31925" lon="-1.0751">
        <ele>5.6</ele>
        <time>2020-06-02T13:47:17Z</time>
      </trkpt>
      <trkpt lat="46.31924" lon="-1.0751">
        <ele>5.6</ele>
        <time>2020-06-02T13:47:18Z</time>
      </trkpt>
      <trkpt lat="46.31925" lon="-1.0751">
        <ele>5.6</ele>
        <time>2020-06-02T13:47:19Z</time>
      </trkpt>
      <trkpt lat="46.31925" lon="-1.0751">
        <ele>5.6</ele>
        <time>2020-06-02T13:47:20Z</time>
      </trkpt>
      <trkpt lat="46.31925" lon="-1.0751">
        <ele>5.6</ele>
        <time>2020-06-02T13:47:21Z</time>
      </trkpt>
      <trkpt lat="46.31925" lon="-1.0751">
        <ele>5.6</ele>
        <time>2020-06-02T13:47:22Z</time>
      </trkpt>
      <trkpt lat="46.31926" lon="-1.07509">
        <ele>5.6</ele>
        <time>2020-06-02T13:47:23Z</time>
      </trkpt>
      <trkpt lat="46.31926" lon="-1.07507">
        <ele>5.6</ele>
        <time>2020-06-02T13:47:24Z</time>
      </trkpt>
      <trkpt lat="46.31926" lon="-1.07506">
        <ele>5.6</ele>
        <time>2020-06-02T13:47:25Z</time>
      </trkpt>
      <trkpt lat="46.31926" lon="-1.07506">
        <ele>5.6</ele>
        <time>2020-06-02T13:47:26Z</time>
      </trkpt>
      <trkpt lat="46.31927" lon="-1.07505">
        <ele>5.6</ele>
        <time>2020-06-02T13:47:27Z</time>
      </trkpt>
      <trkpt lat="46.31927" lon="-1.07503">
        <ele>5.6</ele>
        <time>2020-06-02T13:47:28Z</time>
      </trkpt>
      <trkpt lat="46.31927" lon="-1.07503">
        <ele>5.6</ele>
        <time>2020-06-02T13:47:29Z</time>
      </trkpt>
      <trkpt lat="46.31927" lon="-1.07502">
        <ele>5.6</ele>
        <time>2020-06-02T13:47:30Z</time>
      </trkpt>
      <trkpt lat="46.31927" lon="-1.07502">
        <ele>5.6</ele>
        <time>2020-06-02T13:47:31Z</time>
      </trkpt>
      <trkpt lat="46.31927" lon="-1.07501">
        <ele>5.6</ele>
        <time>2020-06-02T13:47:32Z</time>
      </trkpt>
      <trkpt lat="46.31927" lon="-1.07501">
        <ele>5.6</ele>
        <time>2020-06-02T13:47:33Z</time>
      </trkpt>
      <trkpt lat="46.31927" lon="-1.075">
        <ele>5.6</ele>
        <time>2020-06-02T13:47:34Z</time>
      </trkpt>
      <trkpt lat="46.31926" lon="-1.07499">
        <ele>5.6</ele>
        <time>2020-06-02T13:47:35Z</time>
      </trkpt>
      <trkpt lat="46.31926" lon="-1.07499">
        <ele>5.6</ele>
        <time>2020-06-02T13:47:36Z</time>
      </trkpt>
      <trkpt lat="46.31926" lon="-1.07497">
        <ele>5.6</ele>
        <time>2020-06-02T13:47:37Z</time>
      </trkpt>
      <trkpt lat="46.31927" lon="-1.07495">
        <ele>5.6</ele>
        <time>2020-06-02T13:47:38Z</time>
      </trkpt>
      <trkpt lat="46.31927" lon="-1.07495">
        <ele>5.6</ele>
        <time>2020-06-02T13:47:39Z</time>
      </trkpt>
      <trkpt lat="46.31927" lon="-1.07495">
        <ele>5.6</ele>
        <time>2020-06-02T13:47:40Z</time>
      </trkpt>
      <trkpt lat="46.31927" lon="-1.07495">
        <ele>5.6</ele>
        <time>2020-06-02T13:47:41Z</time>
      </trkpt>
      <trkpt lat="46.31927" lon="-1.07495">
        <ele>5.6</ele>
        <time>2020-06-02T13:47:42Z</time>
      </trkpt>
      <trkpt lat="46.31927" lon="-1.07494">
        <ele>5.6</ele>
        <time>2020-06-02T13:47:43Z</time>
      </trkpt>
      <trkpt lat="46.31927" lon="-1.07493">
        <ele>5.6</ele>
        <time>2020-06-02T13:47:44Z</time>
      </trkpt>
      <trkpt lat="46.31928" lon="-1.07491">
        <ele>5.6</ele>
        <time>2020-06-02T13:47:45Z</time>
      </trkpt>
      <trkpt lat="46.31928" lon="-1.0749">
        <ele>5.6</ele>
        <time>2020-06-02T13:47:46Z</time>
      </trkpt>
      <trkpt lat="46.31929" lon="-1.07489">
        <ele>5.6</ele>
        <time>2020-06-02T13:47:47Z</time>
      </trkpt>
      <trkpt lat="46.31929" lon="-1.07489">
        <ele>5.6</ele>
        <time>2020-06-02T13:47:48Z</time>
      </trkpt>
      <trkpt lat="46.31929" lon="-1.07488">
        <ele>5.6</ele>
        <time>2020-06-02T13:47:49Z</time>
      </trkpt>
      <trkpt lat="46.31929" lon="-1.07488">
        <ele>5.6</ele>
        <time>2020-06-02T13:47:50Z</time>
      </trkpt>
      <trkpt lat="46.31929" lon="-1.07488">
        <ele>5.6</ele>
        <time>2020-06-02T13:47:51Z</time>
      </trkpt>
      <trkpt lat="46.31929" lon="-1.07488">
        <ele>5.6</ele>
        <time>2020-06-02T13:47:52Z</time>
      </trkpt>
      <trkpt lat="46.31929" lon="-1.07488">
        <ele>5.6</ele>
        <time>2020-06-02T13:47:53Z</time>
      </trkpt>
      <trkpt lat="46.31929" lon="-1.07488">
        <ele>5.6</ele>
        <time>2020-06-02T13:47:54Z</time>
      </trkpt>
      <trkpt lat="46.31929" lon="-1.07488">
        <ele>5.6</ele>
        <time>2020-06-02T13:47:55Z</time>
      </trkpt>
      <trkpt lat="46.31929" lon="-1.07487">
        <ele>5.6</ele>
        <time>2020-06-02T13:47:56Z</time>
      </trkpt>
      <trkpt lat="46.31929" lon="-1.07487">
        <ele>5.6</ele>
        <time>2020-06-02T13:47:57Z</time>
      </trkpt>
      <trkpt lat="46.31929" lon="-1.07487">
        <ele>5.6</ele>
        <time>2020-06-02T13:47:58Z</time>
      </trkpt>
      <trkpt lat="46.31929" lon="-1.07487">
        <ele>5.6</ele>
        <time>2020-06-02T13:47:59Z</time>
      </trkpt>
      <trkpt lat="46.31929" lon="-1.07487">
        <ele>5.6</ele>
        <time>2020-06-02T13:48:00Z</time>
      </trkpt>
      <trkpt lat="46.31929" lon="-1.07487">
        <ele>5.6</ele>
        <time>2020-06-02T13:48:01Z</time>
      </trkpt>
      <trkpt lat="46.31929" lon="-1.07487">
        <ele>5.6</ele>
        <time>2020-06-02T13:48:02Z</time>
      </trkpt>
      <trkpt lat="46.31929" lon="-1.07487">
        <ele>5.6</ele>
        <time>2020-06-02T13:48:03Z</time>
      </trkpt>
      <trkpt lat="46.31929" lon="-1.07487">
        <ele>5.6</ele>
        <time>2020-06-02T13:48:04Z</time>
      </trkpt>
      <trkpt lat="46.31929" lon="-1.07487">
        <ele>5.6</ele>
        <time>2020-06-02T13:48:05Z</time>
      </trkpt>
      <trkpt lat="46.31929" lon="-1.07487">
        <ele>5.6</ele>
        <time>2020-06-02T13:48:06Z</time>
      </trkpt>
      <trkpt lat="46.31929" lon="-1.07487">
        <ele>5.6</ele>
        <time>2020-06-02T13:48:07Z</time>
      </trkpt>
      <trkpt lat="46.31929" lon="-1.07487">
        <ele>5.6</ele>
        <time>2020-06-02T13:48:08Z</time>
      </trkpt>
      <trkpt lat="46.31929" lon="-1.07487">
        <ele>5.6</ele>
        <time>2020-06-02T13:48:09Z</time>
      </trkpt>
      <trkpt lat="46.31929" lon="-1.07487">
        <ele>5.6</ele>
        <time>2020-06-02T13:48:10Z</time>
      </trkpt>
      <trkpt lat="46.31929" lon="-1.07488">
        <ele>5.6</ele>
        <time>2020-06-02T13:48:11Z</time>
      </trkpt>
      <trkpt lat="46.3193" lon="-1.07489">
        <ele>5.6</ele>
        <time>2020-06-02T13:48:12Z</time>
      </trkpt>
      <trkpt lat="46.3193" lon="-1.07491">
        <ele>5.6</ele>
        <time>2020-06-02T13:48:13Z</time>
      </trkpt>
      <trkpt lat="46.3193" lon="-1.07492">
        <ele>5.6</ele>
        <time>2020-06-02T13:48:14Z</time>
      </trkpt>
      <trkpt lat="46.3193" lon="-1.07493">
        <ele>5.6</ele>
        <time>2020-06-02T13:48:15Z</time>
      </trkpt>
      <trkpt lat="46.31929" lon="-1.07494">
        <ele>5.6</ele>
        <time>2020-06-02T13:48:16Z</time>
      </trkpt>
      <trkpt lat="46.31929" lon="-1.07495">
        <ele>5.6</ele>
        <time>2020-06-02T13:48:17Z</time>
      </trkpt>
      <trkpt lat="46.31929" lon="-1.07496">
        <ele>5.6</ele>
        <time>2020-06-02T13:48:18Z</time>
      </trkpt>
      <trkpt lat="46.31928" lon="-1.07497">
        <ele>5.6</ele>
        <time>2020-06-02T13:48:19Z</time>
      </trkpt>
      <trkpt lat="46.31928" lon="-1.07498">
        <ele>5.6</ele>
        <time>2020-06-02T13:48:20Z</time>
      </trkpt>
      <trkpt lat="46.31927" lon="-1.07501">
        <ele>5.6</ele>
        <time>2020-06-02T13:48:21Z</time>
      </trkpt>
      <trkpt lat="46.31928" lon="-1.07502">
        <ele>5.6</ele>
        <time>2020-06-02T13:48:22Z</time>
      </trkpt>
      <trkpt lat="46.31928" lon="-1.07504">
        <ele>5.6</ele>
        <time>2020-06-02T13:48:23Z</time>
      </trkpt>
      <trkpt lat="46.31927" lon="-1.07505">
        <ele>5.6</ele>
        <time>2020-06-02T13:48:24Z</time>
      </trkpt>
      <trkpt lat="46.31926" lon="-1.07505">
        <ele>5.6</ele>
        <time>2020-06-02T13:48:25Z</time>
      </trkpt>
      <trkpt lat="46.31926" lon="-1.07505">
        <ele>5.6</ele>
        <time>2020-06-02T13:48:26Z</time>
      </trkpt>
      <trkpt lat="46.31926" lon="-1.07505">
        <ele>5.6</ele>
        <time>2020-06-02T13:48:27Z</time>
      </trkpt>
      <trkpt lat="46.31926" lon="-1.07505">
        <ele>5.6</ele>
        <time>2020-06-02T13:48:28Z</time>
      </trkpt>
      <trkpt lat="46.31926" lon="-1.07504">
        <ele>5.6</ele>
        <time>2020-06-02T13:48:29Z</time>
      </trkpt>
      <trkpt lat="46.31926" lon="-1.07504">
        <ele>5.6</ele>
        <time>2020-06-02T13:48:30Z</time>
      </trkpt>
      <trkpt lat="46.31926" lon="-1.07504">
        <ele>5.6</ele>
        <time>2020-06-02T13:48:31Z</time>
      </trkpt>
      <trkpt lat="46.31926" lon="-1.07503">
        <ele>5.6</ele>
        <time>2020-06-02T13:48:32Z</time>
      </trkpt>
      <trkpt lat="46.31926" lon="-1.07503">
        <ele>5.6</ele>
        <time>2020-06-02T13:48:33Z</time>
      </trkpt>
      <trkpt lat="46.31926" lon="-1.07502">
        <ele>5.6</ele>
        <time>2020-06-02T13:48:34Z</time>
      </trkpt>
      <trkpt lat="46.31926" lon="-1.07502">
        <ele>5.6</ele>
        <time>2020-06-02T13:48:35Z</time>
      </trkpt>
      <trkpt lat="46.31926" lon="-1.07502">
        <ele>5.6</ele>
        <time>2020-06-02T13:48:36Z</time>
      </trkpt>
      <trkpt lat="46.31926" lon="-1.07503">
        <ele>5.6</ele>
        <time>2020-06-02T13:48:37Z</time>
      </trkpt>
      <trkpt lat="46.31926" lon="-1.07504">
        <ele>5.6</ele>
        <time>2020-06-02T13:48:38Z</time>
      </trkpt>
      <trkpt lat="46.31926" lon="-1.07506">
        <ele>5.6</ele>
        <time>2020-06-02T13:48:39Z</time>
      </trkpt>
      <trkpt lat="46.31926" lon="-1.07506">
        <ele>5.6</ele>
        <time>2020-06-02T13:48:40Z</time>
      </trkpt>
      <trkpt lat="46.31926" lon="-1.07507">
        <ele>5.6</ele>
        <time>2020-06-02T13:48:41Z</time>
      </trkpt>
      <trkpt lat="46.31926" lon="-1.07507">
        <ele>5.6</ele>
        <time>2020-06-02T13:48:42Z</time>
      </trkpt>
      <trkpt lat="46.31926" lon="-1.07507">
        <ele>5.6</ele>
        <time>2020-06-02T13:48:43Z</time>
      </trkpt>
      <trkpt lat="46.31926" lon="-1.07506">
        <ele>5.6</ele>
        <time>2020-06-02T13:48:44Z</time>
      </trkpt>
      <trkpt lat="46.31926" lon="-1.07506">
        <ele>5.6</ele>
        <time>2020-06-02T13:48:45Z</time>
      </trkpt>
      <trkpt lat="46.31926" lon="-1.07507">
        <ele>5.6</ele>
        <time>2020-06-02T13:48:46Z</time>
      </trkpt>
      <trkpt lat="46.31926" lon="-1.07506">
        <ele>5.6</ele>
        <time>2020-06-02T13:48:47Z</time>
      </trkpt>
      <trkpt lat="46.31926" lon="-1.07506">
        <ele>5.6</ele>
        <time>2020-06-02T13:48:48Z</time>
      </trkpt>
      <trkpt lat="46.31926" lon="-1.07506">
        <ele>5.6</ele>
        <time>2020-06-02T13:48:49Z</time>
      </trkpt>
      <trkpt lat="46.31926" lon="-1.07507">
        <ele>5.6</ele>
        <time>2020-06-02T13:48:50Z</time>
      </trkpt>
      <trkpt lat="46.31926" lon="-1.07507">
        <ele>5.6</ele>
        <time>2020-06-02T13:48:51Z</time>
      </trkpt>
      <trkpt lat="46.31926" lon="-1.07507">
        <ele>5.6</ele>
        <time>2020-06-02T13:48:52Z</time>
      </trkpt>
      <trkpt lat="46.31926" lon="-1.07507">
        <ele>5.6</ele>
        <time>2020-06-02T13:48:53Z</time>
      </trkpt>
      <trkpt lat="46.31926" lon="-1.07507">
        <ele>5.6</ele>
        <time>2020-06-02T13:48:54Z</time>
      </trkpt>
      <trkpt lat="46.31926" lon="-1.07507">
        <ele>5.6</ele>
        <time>2020-06-02T13:48:55Z</time>
      </trkpt>
      <trkpt lat="46.31926" lon="-1.07507">
        <ele>5.6</ele>
        <time>2020-06-02T13:48:56Z</time>
      </trkpt>
      <trkpt lat="46.31926" lon="-1.07507">
        <ele>5.6</ele>
        <time>2020-06-02T13:48:57Z</time>
      </trkpt>
      <trkpt lat="46.31926" lon="-1.07507">
        <ele>5.6</ele>
        <time>2020-06-02T13:48:58Z</time>
      </trkpt>
      <trkpt lat="46.31926" lon="-1.07507">
        <ele>5.6</ele>
        <time>2020-06-02T13:48:59Z</time>
      </trkpt>
      <trkpt lat="46.31926" lon="-1.07507">
        <ele>5.6</ele>
        <time>2020-06-02T13:49:00Z</time>
      </trkpt>
      <trkpt lat="46.31926" lon="-1.07507">
        <ele>5.6</ele>
        <time>2020-06-02T13:49:01Z</time>
      </trkpt>
      <trkpt lat="46.31925" lon="-1.07507">
        <ele>5.6</ele>
        <time>2020-06-02T13:49:02Z</time>
      </trkpt>
      <trkpt lat="46.31925" lon="-1.07507">
        <ele>5.6</ele>
        <time>2020-06-02T13:49:03Z</time>
      </trkpt>
      <trkpt lat="46.31925" lon="-1.07507">
        <ele>5.6</ele>
        <time>2020-06-02T13:49:04Z</time>
      </trkpt>
      <trkpt lat="46.31924" lon="-1.07506">
        <ele>5.6</ele>
        <time>2020-06-02T13:49:05Z</time>
      </trkpt>
      <trkpt lat="46.31924" lon="-1.07506">
        <ele>5.6</ele>
        <time>2020-06-02T13:49:06Z</time>
      </trkpt>
      <trkpt lat="46.31925" lon="-1.07506">
        <ele>5.6</ele>
        <time>2020-06-02T13:49:07Z</time>
      </trkpt>
      <trkpt lat="46.31924" lon="-1.07506">
        <ele>5.6</ele>
        <time>2020-06-02T13:49:08Z</time>
      </trkpt>
      <trkpt lat="46.31924" lon="-1.07506">
        <ele>5.6</ele>
        <time>2020-06-02T13:49:09Z</time>
      </trkpt>
      <trkpt lat="46.31923" lon="-1.07506">
        <ele>5.6</ele>
        <time>2020-06-02T13:49:10Z</time>
      </trkpt>
      <trkpt lat="46.31923" lon="-1.07505">
        <ele>5.6</ele>
        <time>2020-06-02T13:49:11Z</time>
      </trkpt>
      <trkpt lat="46.31924" lon="-1.07504">
        <ele>5.6</ele>
        <time>2020-06-02T13:49:12Z</time>
      </trkpt>
      <trkpt lat="46.31924" lon="-1.07504">
        <ele>5.6</ele>
        <time>2020-06-02T13:49:13Z</time>
      </trkpt>
      <trkpt lat="46.31924" lon="-1.07503">
        <ele>5.6</ele>
        <time>2020-06-02T13:49:14Z</time>
      </trkpt>
      <trkpt lat="46.31924" lon="-1.07502">
        <ele>5.6</ele>
        <time>2020-06-02T13:49:15Z</time>
      </trkpt>
      <trkpt lat="46.31925" lon="-1.07501">
        <ele>5.6</ele>
        <time>2020-06-02T13:49:16Z</time>
      </trkpt>
      <trkpt lat="46.31925" lon="-1.07501">
        <ele>5.6</ele>
        <time>2020-06-02T13:49:17Z</time>
      </trkpt>
      <trkpt lat="46.31925" lon="-1.075">
        <ele>5.6</ele>
        <time>2020-06-02T13:49:18Z</time>
      </trkpt>
      <trkpt lat="46.31925" lon="-1.075">
        <ele>5.6</ele>
        <time>2020-06-02T13:49:19Z</time>
      </trkpt>
      <trkpt lat="46.31925" lon="-1.07499">
        <ele>5.6</ele>
        <time>2020-06-02T13:49:20Z</time>
      </trkpt>
      <trkpt lat="46.31926" lon="-1.07499">
        <ele>5.6</ele>
        <time>2020-06-02T13:49:21Z</time>
      </trkpt>
      <trkpt lat="46.31925" lon="-1.07498">
        <ele>5.6</ele>
        <time>2020-06-02T13:49:22Z</time>
      </trkpt>
      <trkpt lat="46.31925" lon="-1.07496">
        <ele>5.6</ele>
        <time>2020-06-02T13:49:23Z</time>
      </trkpt>
      <trkpt lat="46.31924" lon="-1.07495">
        <ele>5.6</ele>
        <time>2020-06-02T13:49:24Z</time>
      </trkpt>
      <trkpt lat="46.31924" lon="-1.07494">
        <ele>5.6</ele>
        <time>2020-06-02T13:49:25Z</time>
      </trkpt>
      <trkpt lat="46.31925" lon="-1.07494">
        <ele>5.6</ele>
        <time>2020-06-02T13:49:26Z</time>
      </trkpt>
      <trkpt lat="46.31925" lon="-1.07495">
        <ele>5.6</ele>
        <time>2020-06-02T13:49:27Z</time>
      </trkpt>
      <trkpt lat="46.31925" lon="-1.07497">
        <ele>5.6</ele>
        <time>2020-06-02T13:49:28Z</time>
      </trkpt>
      <trkpt lat="46.31925" lon="-1.07499">
        <ele>5.6</ele>
        <time>2020-06-02T13:49:29Z</time>
      </trkpt>
      <trkpt lat="46.31925" lon="-1.07501">
        <ele>5.6</ele>
        <time>2020-06-02T13:49:30Z</time>
      </trkpt>
      <trkpt lat="46.31925" lon="-1.07503">
        <ele>5.6</ele>
        <time>2020-06-02T13:49:31Z</time>
      </trkpt>
      <trkpt lat="46.31926" lon="-1.07505">
        <ele>5.6</ele>
        <time>2020-06-02T13:49:32Z</time>
      </trkpt>
      <trkpt lat="46.31927" lon="-1.07507">
        <ele>5.6</ele>
        <time>2020-06-02T13:49:33Z</time>
      </trkpt>
      <trkpt lat="46.31927" lon="-1.07509">
        <ele>5.6</ele>
        <time>2020-06-02T13:49:34Z</time>
      </trkpt>
      <trkpt lat="46.31926" lon="-1.0751">
        <ele>5.6</ele>
        <time>2020-06-02T13:49:35Z</time>
      </trkpt>
      <trkpt lat="46.31926" lon="-1.0751">
        <ele>5.6</ele>
        <time>2020-06-02T13:49:36Z</time>
      </trkpt>
      <trkpt lat="46.31926" lon="-1.07509">
        <ele>5.6</ele>
        <time>2020-06-02T13:49:37Z</time>
      </trkpt>
      <trkpt lat="46.31926" lon="-1.0751">
        <ele>5.6</ele>
        <time>2020-06-02T13:49:38Z</time>
      </trkpt>
      <trkpt lat="46.31926" lon="-1.07509">
        <ele>5.6</ele>
        <time>2020-06-02T13:49:39Z</time>
      </trkpt>
      <trkpt lat="46.31926" lon="-1.0751">
        <ele>5.6</ele>
        <time>2020-06-02T13:49:40Z</time>
      </trkpt>
      <trkpt lat="46.31926" lon="-1.0751">
        <ele>5.6</ele>
        <time>2020-06-02T13:49:41Z</time>
      </trkpt>
      <trkpt lat="46.31926" lon="-1.0751">
        <ele>5.6</ele>
        <time>2020-06-02T13:49:42Z</time>
      </trkpt>
      <trkpt lat="46.31926" lon="-1.0751">
        <ele>5.6</ele>
        <time>2020-06-02T13:49:43Z</time>
      </trkpt>
      <trkpt lat="46.31926" lon="-1.0751">
        <ele>5.6</ele>
        <time>2020-06-02T13:49:44Z</time>
      </trkpt>
      <trkpt lat="46.31926" lon="-1.0751">
        <ele>5.6</ele>
        <time>2020-06-02T13:49:45Z</time>
      </trkpt>
      <trkpt lat="46.31926" lon="-1.0751">
        <ele>5.6</ele>
        <time>2020-06-02T13:49:46Z</time>
      </trkpt>
      <trkpt lat="46.31926" lon="-1.0751">
        <ele>5.6</ele>
        <time>2020-06-02T13:49:47Z</time>
      </trkpt>
      <trkpt lat="46.31927" lon="-1.0751">
        <ele>5.6</ele>
        <time>2020-06-02T13:49:48Z</time>
      </trkpt>
      <trkpt lat="46.31927" lon="-1.0751">
        <ele>5.6</ele>
        <time>2020-06-02T13:49:49Z</time>
      </trkpt>
      <trkpt lat="46.31927" lon="-1.0751">
        <ele>5.6</ele>
        <time>2020-06-02T13:49:50Z</time>
      </trkpt>
      <trkpt lat="46.31927" lon="-1.0751">
        <ele>5.6</ele>
        <time>2020-06-02T13:49:51Z</time>
      </trkpt>
      <trkpt lat="46.31927" lon="-1.0751">
        <ele>5.6</ele>
        <time>2020-06-02T13:49:52Z</time>
      </trkpt>
      <trkpt lat="46.31927" lon="-1.0751">
        <ele>5.6</ele>
        <time>2020-06-02T13:49:53Z</time>
      </trkpt>
      <trkpt lat="46.31927" lon="-1.0751">
        <ele>5.6</ele>
        <time>2020-06-02T13:49:54Z</time>
      </trkpt>
      <trkpt lat="46.31927" lon="-1.0751">
        <ele>5.6</ele>
        <time>2020-06-02T13:49:55Z</time>
      </trkpt>
      <trkpt lat="46.31927" lon="-1.0751">
        <ele>5.6</ele>
        <time>2020-06-02T13:49:56Z</time>
      </trkpt>
      <trkpt lat="46.31927" lon="-1.0751">
        <ele>5.6</ele>
        <time>2020-06-02T13:49:57Z</time>
      </trkpt>
      <trkpt lat="46.31927" lon="-1.0751">
        <ele>5.6</ele>
        <time>2020-06-02T13:49:58Z</time>
      </trkpt>
      <trkpt lat="46.31927" lon="-1.0751">
        <ele>5.6</ele>
        <time>2020-06-02T13:49:59Z</time>
      </trkpt>
      <trkpt lat="46.31927" lon="-1.0751">
        <ele>5.6</ele>
        <time>2020-06-02T13:50:00Z</time>
      </trkpt>
      <trkpt lat="46.31927" lon="-1.0751">
        <ele>5.6</ele>
        <time>2020-06-02T13:50:01Z</time>
      </trkpt>
      <trkpt lat="46.31927" lon="-1.0751">
        <ele>5.6</ele>
        <time>2020-06-02T13:50:02Z</time>
      </trkpt>
      <trkpt lat="46.31927" lon="-1.0751">
        <ele>5.6</ele>
        <time>2020-06-02T13:50:03Z</time>
      </trkpt>
      <trkpt lat="46.31926" lon="-1.0751">
        <ele>5.6</ele>
        <time>2020-06-02T13:50:04Z</time>
      </trkpt>
      <trkpt lat="46.31925" lon="-1.07509">
        <ele>5.6</ele>
        <time>2020-06-02T13:50:05Z</time>
      </trkpt>
      <trkpt lat="46.31925" lon="-1.07508">
        <ele>5.6</ele>
        <time>2020-06-02T13:50:06Z</time>
      </trkpt>
      <trkpt lat="46.31926" lon="-1.07507">
        <ele>5.6</ele>
        <time>2020-06-02T13:50:07Z</time>
      </trkpt>
      <trkpt lat="46.31925" lon="-1.07508">
        <ele>5.6</ele>
        <time>2020-06-02T13:50:08Z</time>
      </trkpt>
      <trkpt lat="46.31924" lon="-1.07507">
        <ele>5.6</ele>
        <time>2020-06-02T13:50:09Z</time>
      </trkpt>
      <trkpt lat="46.31924" lon="-1.07507">
        <ele>5.6</ele>
        <time>2020-06-02T13:50:10Z</time>
      </trkpt>
      <trkpt lat="46.31924" lon="-1.07507">
        <ele>5.6</ele>
        <time>2020-06-02T13:50:11Z</time>
      </trkpt>
      <trkpt lat="46.31925" lon="-1.07507">
        <ele>5.6</ele>
        <time>2020-06-02T13:50:12Z</time>
      </trkpt>
      <trkpt lat="46.31925" lon="-1.07507">
        <ele>5.6</ele>
        <time>2020-06-02T13:50:13Z</time>
      </trkpt>
      <trkpt lat="46.31924" lon="-1.07506">
        <ele>5.6</ele>
        <time>2020-06-02T13:50:14Z</time>
      </trkpt>
      <trkpt lat="46.31925" lon="-1.07505">
        <ele>5.6</ele>
        <time>2020-06-02T13:50:15Z</time>
      </trkpt>
      <trkpt lat="46.31925" lon="-1.07503">
        <ele>5.6</ele>
        <time>2020-06-02T13:50:16Z</time>
      </trkpt>
      <trkpt lat="46.31925" lon="-1.07501">
        <ele>5.6</ele>
        <time>2020-06-02T13:50:17Z</time>
      </trkpt>
      <trkpt lat="46.31926" lon="-1.07499">
        <ele>5.6</ele>
        <time>2020-06-02T13:50:18Z</time>
      </trkpt>
      <trkpt lat="46.31927" lon="-1.07497">
        <ele>5.6</ele>
        <time>2020-06-02T13:50:19Z</time>
      </trkpt>
      <trkpt lat="46.31927" lon="-1.07492">
        <ele>5.6</ele>
        <time>2020-06-02T13:50:20Z</time>
      </trkpt>
      <trkpt lat="46.31927" lon="-1.0749">
        <ele>5.6</ele>
        <time>2020-06-02T13:50:21Z</time>
      </trkpt>
      <trkpt lat="46.31927" lon="-1.07488">
        <ele>5.6</ele>
        <time>2020-06-02T13:50:22Z</time>
      </trkpt>
      <trkpt lat="46.31929" lon="-1.07487">
        <ele>5.6</ele>
        <time>2020-06-02T13:50:23Z</time>
      </trkpt>
      <trkpt lat="46.31929" lon="-1.07488">
        <ele>5.6</ele>
        <time>2020-06-02T13:50:24Z</time>
      </trkpt>
      <trkpt lat="46.3193" lon="-1.07487">
        <ele>5.6</ele>
        <time>2020-06-02T13:50:25Z</time>
      </trkpt>
      <trkpt lat="46.31929" lon="-1.07487">
        <ele>5.6</ele>
        <time>2020-06-02T13:50:26Z</time>
      </trkpt>
      <trkpt lat="46.31929" lon="-1.07487">
        <ele>5.6</ele>
        <time>2020-06-02T13:50:27Z</time>
      </trkpt>
      <trkpt lat="46.31929" lon="-1.07487">
        <ele>5.6</ele>
        <time>2020-06-02T13:50:28Z</time>
      </trkpt>
      <trkpt lat="46.31929" lon="-1.07487">
        <ele>5.6</ele>
        <time>2020-06-02T13:50:29Z</time>
      </trkpt>
      <trkpt lat="46.31929" lon="-1.07487">
        <ele>5.6</ele>
        <time>2020-06-02T13:50:30Z</time>
      </trkpt>
      <trkpt lat="46.31929" lon="-1.07487">
        <ele>5.6</ele>
        <time>2020-06-02T13:50:31Z</time>
      </trkpt>
      <trkpt lat="46.31929" lon="-1.07487">
        <ele>5.6</ele>
        <time>2020-06-02T13:50:32Z</time>
      </trkpt>
      <trkpt lat="46.31929" lon="-1.07487">
        <ele>5.6</ele>
        <time>2020-06-02T13:50:33Z</time>
      </trkpt>
      <trkpt lat="46.31929" lon="-1.07486">
        <ele>5.6</ele>
        <time>2020-06-02T13:50:34Z</time>
      </trkpt>
      <trkpt lat="46.31929" lon="-1.07486">
        <ele>5.6</ele>
        <time>2020-06-02T13:50:35Z</time>
      </trkpt>
      <trkpt lat="46.31929" lon="-1.07486">
        <ele>5.6</ele>
        <time>2020-06-02T13:50:36Z</time>
      </trkpt>
      <trkpt lat="46.31929" lon="-1.07486">
        <ele>5.6</ele>
        <time>2020-06-02T13:50:37Z</time>
      </trkpt>
      <trkpt lat="46.31929" lon="-1.07486">
        <ele>5.6</ele>
        <time>2020-06-02T13:50:38Z</time>
      </trkpt>
      <trkpt lat="46.31929" lon="-1.07486">
        <ele>5.6</ele>
        <time>2020-06-02T13:50:39Z</time>
      </trkpt>
      <trkpt lat="46.31929" lon="-1.07486">
        <ele>5.6</ele>
        <time>2020-06-02T13:50:40Z</time>
      </trkpt>
      <trkpt lat="46.31929" lon="-1.07486">
        <ele>5.6</ele>
        <time>2020-06-02T13:50:41Z</time>
      </trkpt>
      <trkpt lat="46.31929" lon="-1.07486">
        <ele>5.6</ele>
        <time>2020-06-02T13:50:42Z</time>
      </trkpt>
      <trkpt lat="46.31929" lon="-1.07486">
        <ele>5.6</ele>
        <time>2020-06-02T13:50:43Z</time>
      </trkpt>
      <trkpt lat="46.31929" lon="-1.07486">
        <ele>5.6</ele>
        <time>2020-06-02T13:50:44Z</time>
      </trkpt>
      <trkpt lat="46.31929" lon="-1.07486">
        <ele>5.6</ele>
        <time>2020-06-02T13:50:45Z</time>
      </trkpt>
      <trkpt lat="46.31929" lon="-1.07486">
        <ele>5.6</ele>
        <time>2020-06-02T13:50:46Z</time>
      </trkpt>
      <trkpt lat="46.3193" lon="-1.07486">
        <ele>5.6</ele>
        <time>2020-06-02T13:50:47Z</time>
      </trkpt>
      <trkpt lat="46.3193" lon="-1.07486">
        <ele>5.6</ele>
        <time>2020-06-02T13:50:48Z</time>
      </trkpt>
      <trkpt lat="46.3193" lon="-1.07486">
        <ele>5.6</ele>
        <time>2020-06-02T13:50:49Z</time>
      </trkpt>
      <trkpt lat="46.3193" lon="-1.07486">
        <ele>5.6</ele>
        <time>2020-06-02T13:50:50Z</time>
      </trkpt>
      <trkpt lat="46.3193" lon="-1.07486">
        <ele>5.6</ele>
        <time>2020-06-02T13:50:51Z</time>
      </trkpt>
      <trkpt lat="46.3193" lon="-1.07486">
        <ele>5.6</ele>
        <time>2020-06-02T13:50:52Z</time>
      </trkpt>
      <trkpt lat="46.3193" lon="-1.07488">
        <ele>5.6</ele>
        <time>2020-06-02T13:50:53Z</time>
      </trkpt>
      <trkpt lat="46.3193" lon="-1.07491">
        <ele>5.6</ele>
        <time>2020-06-02T13:50:54Z</time>
      </trkpt>
      <trkpt lat="46.3193" lon="-1.07494">
        <ele>5.6</ele>
        <time>2020-06-02T13:50:55Z</time>
      </trkpt>
      <trkpt lat="46.3193" lon="-1.07496">
        <ele>5.6</ele>
        <time>2020-06-02T13:50:56Z</time>
      </trkpt>
      <trkpt lat="46.3193" lon="-1.075">
        <ele>5.6</ele>
        <time>2020-06-02T13:50:57Z</time>
      </trkpt>
      <trkpt lat="46.31929" lon="-1.07501">
        <ele>5.6</ele>
        <time>2020-06-02T13:50:58Z</time>
      </trkpt>
      <trkpt lat="46.31929" lon="-1.07504">
        <ele>5.6</ele>
        <time>2020-06-02T13:50:59Z</time>
      </trkpt>
      <trkpt lat="46.31929" lon="-1.07505">
        <ele>5.6</ele>
        <time>2020-06-02T13:51:00Z</time>
      </trkpt>
      <trkpt lat="46.31929" lon="-1.07507">
        <ele>5.6</ele>
        <time>2020-06-02T13:51:01Z</time>
      </trkpt>
      <trkpt lat="46.31929" lon="-1.07508">
        <ele>5.6</ele>
        <time>2020-06-02T13:51:02Z</time>
      </trkpt>
      <trkpt lat="46.31928" lon="-1.07508">
        <ele>5.6</ele>
        <time>2020-06-02T13:51:03Z</time>
      </trkpt>
      <trkpt lat="46.31928" lon="-1.07508">
        <ele>5.6</ele>
        <time>2020-06-02T13:51:04Z</time>
      </trkpt>
      <trkpt lat="46.31928" lon="-1.07509">
        <ele>5.6</ele>
        <time>2020-06-02T13:51:05Z</time>
      </trkpt>
      <trkpt lat="46.31928" lon="-1.07509">
        <ele>5.6</ele>
        <time>2020-06-02T13:51:06Z</time>
      </trkpt>
      <trkpt lat="46.31927" lon="-1.07509">
        <ele>5.6</ele>
        <time>2020-06-02T13:51:07Z</time>
      </trkpt>
      <trkpt lat="46.31927" lon="-1.07509">
        <ele>5.6</ele>
        <time>2020-06-02T13:51:08Z</time>
      </trkpt>
      <trkpt lat="46.31927" lon="-1.07509">
        <ele>5.6</ele>
        <time>2020-06-02T13:51:09Z</time>
      </trkpt>
      <trkpt lat="46.31927" lon="-1.07509">
        <ele>5.6</ele>
        <time>2020-06-02T13:51:10Z</time>
      </trkpt>
      <trkpt lat="46.31927" lon="-1.07509">
        <ele>5.6</ele>
        <time>2020-06-02T13:51:11Z</time>
      </trkpt>
      <trkpt lat="46.31927" lon="-1.07509">
        <ele>5.6</ele>
        <time>2020-06-02T13:51:12Z</time>
      </trkpt>
      <trkpt lat="46.31927" lon="-1.07509">
        <ele>5.6</ele>
        <time>2020-06-02T13:51:13Z</time>
      </trkpt>
      <trkpt lat="46.31927" lon="-1.07509">
        <ele>5.6</ele>
        <time>2020-06-02T13:51:14Z</time>
      </trkpt>
      <trkpt lat="46.31927" lon="-1.07509">
        <ele>5.6</ele>
        <time>2020-06-02T13:51:15Z</time>
      </trkpt>
      <trkpt lat="46.31927" lon="-1.07509">
        <ele>5.6</ele>
        <time>2020-06-02T13:51:16Z</time>
      </trkpt>
      <trkpt lat="46.31927" lon="-1.07509">
        <ele>5.6</ele>
        <time>2020-06-02T13:51:17Z</time>
      </trkpt>
      <trkpt lat="46.31927" lon="-1.07509">
        <ele>5.6</ele>
        <time>2020-06-02T13:51:18Z</time>
      </trkpt>
      <trkpt lat="46.31927" lon="-1.07509">
        <ele>5.6</ele>
        <time>2020-06-02T13:51:19Z</time>
      </trkpt>
      <trkpt lat="46.31927" lon="-1.07509">
        <ele>5.6</ele>
        <time>2020-06-02T13:51:20Z</time>
      </trkpt>
      <trkpt lat="46.31927" lon="-1.07509">
        <ele>5.6</ele>
        <time>2020-06-02T13:51:21Z</time>
      </trkpt>
      <trkpt lat="46.31927" lon="-1.07509">
        <ele>5.6</ele>
        <time>2020-06-02T13:51:22Z</time>
      </trkpt>
      <trkpt lat="46.31927" lon="-1.07509">
        <ele>5.6</ele>
        <time>2020-06-02T13:51:23Z</time>
      </trkpt>
      <trkpt lat="46.31927" lon="-1.07509">
        <ele>5.6</ele>
        <time>2020-06-02T13:51:24Z</time>
      </trkpt>
      <trkpt lat="46.31927" lon="-1.07509">
        <ele>5.6</ele>
        <time>2020-06-02T13:51:25Z</time>
      </trkpt>
      <trkpt lat="46.31927" lon="-1.07509">
        <ele>5.6</ele>
        <time>2020-06-02T13:51:26Z</time>
      </trkpt>
      <trkpt lat="46.31927" lon="-1.07509">
        <ele>5.6</ele>
        <time>2020-06-02T13:51:27Z</time>
      </trkpt>
      <trkpt lat="46.31927" lon="-1.07509">
        <ele>5.6</ele>
        <time>2020-06-02T13:51:28Z</time>
      </trkpt>
      <trkpt lat="46.31927" lon="-1.0751">
        <ele>5.6</ele>
        <time>2020-06-02T13:51:29Z</time>
      </trkpt>
      <trkpt lat="46.31927" lon="-1.0751">
        <ele>5.6</ele>
        <time>2020-06-02T13:51:30Z</time>
      </trkpt>
      <trkpt lat="46.31927" lon="-1.0751">
        <ele>5.6</ele>
        <time>2020-06-02T13:51:31Z</time>
      </trkpt>
      <trkpt lat="46.31927" lon="-1.0751">
        <ele>5.6</ele>
        <time>2020-06-02T13:51:32Z</time>
      </trkpt>
      <trkpt lat="46.31927" lon="-1.0751">
        <ele>5.6</ele>
        <time>2020-06-02T13:51:33Z</time>
      </trkpt>
      <trkpt lat="46.31927" lon="-1.07509">
        <ele>5.6</ele>
        <time>2020-06-02T13:51:34Z</time>
      </trkpt>
      <trkpt lat="46.31927" lon="-1.07509">
        <ele>5.6</ele>
        <time>2020-06-02T13:51:35Z</time>
      </trkpt>
      <trkpt lat="46.31927" lon="-1.07509">
        <ele>5.6</ele>
        <time>2020-06-02T13:51:36Z</time>
      </trkpt>
      <trkpt lat="46.31927" lon="-1.07509">
        <ele>5.6</ele>
        <time>2020-06-02T13:51:37Z</time>
      </trkpt>
      <trkpt lat="46.31927" lon="-1.07509">
        <ele>5.6</ele>
        <time>2020-06-02T13:51:38Z</time>
      </trkpt>
      <trkpt lat="46.31927" lon="-1.07509">
        <ele>5.6</ele>
        <time>2020-06-02T13:51:39Z</time>
      </trkpt>
      <trkpt lat="46.31927" lon="-1.07509">
        <ele>5.6</ele>
        <time>2020-06-02T13:51:40Z</time>
      </trkpt>
      <trkpt lat="46.31927" lon="-1.07509">
        <ele>5.6</ele>
        <time>2020-06-02T13:51:41Z</time>
      </trkpt>
      <trkpt lat="46.31927" lon="-1.07509">
        <ele>5.6</ele>
        <time>2020-06-02T13:51:42Z</time>
      </trkpt>
      <trkpt lat="46.31927" lon="-1.07509">
        <ele>5.6</ele>
        <time>2020-06-02T13:51:43Z</time>
      </trkpt>
      <trkpt lat="46.31927" lon="-1.07509">
        <ele>5.6</ele>
        <time>2020-06-02T13:51:44Z</time>
      </trkpt>
      <trkpt lat="46.31927" lon="-1.07509">
        <ele>5.6</ele>
        <time>2020-06-02T13:51:45Z</time>
      </trkpt>
      <trkpt lat="46.31927" lon="-1.07509">
        <ele>5.6</ele>
        <time>2020-06-02T13:51:46Z</time>
      </trkpt>
      <trkpt lat="46.31928" lon="-1.0751">
        <ele>5.6</ele>
        <time>2020-06-02T13:51:47Z</time>
      </trkpt>
      <trkpt lat="46.31928" lon="-1.0751">
        <ele>5.6</ele>
        <time>2020-06-02T13:51:48Z</time>
      </trkpt>
      <trkpt lat="46.31928" lon="-1.0751">
        <ele>5.6</ele>
        <time>2020-06-02T13:51:49Z</time>
      </trkpt>
      <trkpt lat="46.31927" lon="-1.0751">
        <ele>5.6</ele>
        <time>2020-06-02T13:51:50Z</time>
      </trkpt>
      <trkpt lat="46.31927" lon="-1.0751">
        <ele>5.6</ele>
        <time>2020-06-02T13:51:51Z</time>
      </trkpt>
      <trkpt lat="46.31928" lon="-1.0751">
        <ele>5.6</ele>
        <time>2020-06-02T13:51:52Z</time>
      </trkpt>
      <trkpt lat="46.31928" lon="-1.0751">
        <ele>5.6</ele>
        <time>2020-06-02T13:51:53Z</time>
      </trkpt>
      <trkpt lat="46.31928" lon="-1.0751">
        <ele>5.6</ele>
        <time>2020-06-02T13:51:54Z</time>
      </trkpt>
      <trkpt lat="46.31928" lon="-1.0751">
        <ele>5.6</ele>
        <time>2020-06-02T13:51:55Z</time>
      </trkpt>
      <trkpt lat="46.31928" lon="-1.0751">
        <ele>5.6</ele>
        <time>2020-06-02T13:51:56Z</time>
      </trkpt>
      <trkpt lat="46.31928" lon="-1.0751">
        <ele>5.6</ele>
        <time>2020-06-02T13:51:57Z</time>
      </trkpt>
      <trkpt lat="46.31928" lon="-1.0751">
        <ele>5.6</ele>
        <time>2020-06-02T13:51:58Z</time>
      </trkpt>
      <trkpt lat="46.31928" lon="-1.0751">
        <ele>5.6</ele>
        <time>2020-06-02T13:51:59Z</time>
      </trkpt>
      <trkpt lat="46.31927" lon="-1.0751">
        <ele>5.6</ele>
        <time>2020-06-02T13:52:00Z</time>
      </trkpt>
      <trkpt lat="46.31928" lon="-1.0751">
        <ele>5.6</ele>
        <time>2020-06-02T13:52:01Z</time>
      </trkpt>
      <trkpt lat="46.31928" lon="-1.07508">
        <ele>5.6</ele>
        <time>2020-06-02T13:52:02Z</time>
      </trkpt>
      <trkpt lat="46.31928" lon="-1.07506">
        <ele>5.6</ele>
        <time>2020-06-02T13:52:03Z</time>
      </trkpt>
      <trkpt lat="46.31928" lon="-1.07506">
        <ele>5.6</ele>
        <time>2020-06-02T13:52:04Z</time>
      </trkpt>
      <trkpt lat="46.31928" lon="-1.07504">
        <ele>5.6</ele>
        <time>2020-06-02T13:52:05Z</time>
      </trkpt>
      <trkpt lat="46.31927" lon="-1.07504">
        <ele>5.6</ele>
        <time>2020-06-02T13:52:06Z</time>
      </trkpt>
      <trkpt lat="46.31927" lon="-1.07503">
        <ele>5.6</ele>
        <time>2020-06-02T13:52:07Z</time>
      </trkpt>
      <trkpt lat="46.31926" lon="-1.07502">
        <ele>5.6</ele>
        <time>2020-06-02T13:52:08Z</time>
      </trkpt>
      <trkpt lat="46.31926" lon="-1.07502">
        <ele>5.6</ele>
        <time>2020-06-02T13:52:09Z</time>
      </trkpt>
      <trkpt lat="46.31926" lon="-1.07502">
        <ele>5.6</ele>
        <time>2020-06-02T13:52:10Z</time>
      </trkpt>
      <trkpt lat="46.31926" lon="-1.07502">
        <ele>5.6</ele>
        <time>2020-06-02T13:52:11Z</time>
      </trkpt>
      <trkpt lat="46.31926" lon="-1.07501">
        <ele>5.6</ele>
        <time>2020-06-02T13:52:12Z</time>
      </trkpt>
      <trkpt lat="46.31926" lon="-1.07501">
        <ele>5.6</ele>
        <time>2020-06-02T13:52:13Z</time>
      </trkpt>
      <trkpt lat="46.31926" lon="-1.07501">
        <ele>5.6</ele>
        <time>2020-06-02T13:52:14Z</time>
      </trkpt>
      <trkpt lat="46.31926" lon="-1.07501">
        <ele>5.6</ele>
        <time>2020-06-02T13:52:15Z</time>
      </trkpt>
      <trkpt lat="46.31926" lon="-1.07501">
        <ele>5.6</ele>
        <time>2020-06-02T13:52:16Z</time>
      </trkpt>
      <trkpt lat="46.31926" lon="-1.075">
        <ele>5.6</ele>
        <time>2020-06-02T13:52:17Z</time>
      </trkpt>
      <trkpt lat="46.31926" lon="-1.075">
        <ele>5.6</ele>
        <time>2020-06-02T13:52:18Z</time>
      </trkpt>
      <trkpt lat="46.31926" lon="-1.075">
        <ele>5.6</ele>
        <time>2020-06-02T13:52:19Z</time>
      </trkpt>
      <trkpt lat="46.31926" lon="-1.075">
        <ele>5.6</ele>
        <time>2020-06-02T13:52:20Z</time>
      </trkpt>
      <trkpt lat="46.31926" lon="-1.07499">
        <ele>5.6</ele>
        <time>2020-06-02T13:52:21Z</time>
      </trkpt>
      <trkpt lat="46.31926" lon="-1.07499">
        <ele>5.6</ele>
        <time>2020-06-02T13:52:22Z</time>
      </trkpt>
      <trkpt lat="46.31926" lon="-1.07499">
        <ele>5.6</ele>
        <time>2020-06-02T13:52:23Z</time>
      </trkpt>
      <trkpt lat="46.31925" lon="-1.07499">
        <ele>5.6</ele>
        <time>2020-06-02T13:52:24Z</time>
      </trkpt>
      <trkpt lat="46.31925" lon="-1.07498">
        <ele>5.6</ele>
        <time>2020-06-02T13:52:25Z</time>
      </trkpt>
      <trkpt lat="46.31927" lon="-1.07494">
        <ele>5.6</ele>
        <time>2020-06-02T13:52:26Z</time>
      </trkpt>
      <trkpt lat="46.31927" lon="-1.07493">
        <ele>5.6</ele>
        <time>2020-06-02T13:52:27Z</time>
      </trkpt>
      <trkpt lat="46.31927" lon="-1.07493">
        <ele>5.6</ele>
        <time>2020-06-02T13:52:28Z</time>
      </trkpt>
      <trkpt lat="46.31926" lon="-1.07493">
        <ele>5.6</ele>
        <time>2020-06-02T13:52:29Z</time>
      </trkpt>
      <trkpt lat="46.31926" lon="-1.07493">
        <ele>5.6</ele>
        <time>2020-06-02T13:52:30Z</time>
      </trkpt>
      <trkpt lat="46.31926" lon="-1.07493">
        <ele>5.6</ele>
        <time>2020-06-02T13:52:31Z</time>
      </trkpt>
      <trkpt lat="46.31926" lon="-1.07493">
        <ele>5.6</ele>
        <time>2020-06-02T13:52:32Z</time>
      </trkpt>
      <trkpt lat="46.31926" lon="-1.07493">
        <ele>5.6</ele>
        <time>2020-06-02T13:52:33Z</time>
      </trkpt>
      <trkpt lat="46.31926" lon="-1.07493">
        <ele>5.6</ele>
        <time>2020-06-02T13:52:34Z</time>
      </trkpt>
      <trkpt lat="46.31927" lon="-1.07493">
        <ele>5.6</ele>
        <time>2020-06-02T13:52:35Z</time>
      </trkpt>
      <trkpt lat="46.31927" lon="-1.07493">
        <ele>5.6</ele>
        <time>2020-06-02T13:52:36Z</time>
      </trkpt>
      <trkpt lat="46.31927" lon="-1.07493">
        <ele>5.6</ele>
        <time>2020-06-02T13:52:37Z</time>
      </trkpt>
      <trkpt lat="46.31927" lon="-1.07493">
        <ele>5.6</ele>
        <time>2020-06-02T13:52:38Z</time>
      </trkpt>
      <trkpt lat="46.31927" lon="-1.07493">
        <ele>5.6</ele>
        <time>2020-06-02T13:52:39Z</time>
      </trkpt>
      <trkpt lat="46.31927" lon="-1.07493">
        <ele>5.6</ele>
        <time>2020-06-02T13:52:40Z</time>
      </trkpt>
      <trkpt lat="46.31927" lon="-1.07493">
        <ele>5.6</ele>
        <time>2020-06-02T13:52:41Z</time>
      </trkpt>
      <trkpt lat="46.31927" lon="-1.07493">
        <ele>5.6</ele>
        <time>2020-06-02T13:52:42Z</time>
      </trkpt>
      <trkpt lat="46.31927" lon="-1.07492">
        <ele>5.6</ele>
        <time>2020-06-02T13:52:43Z</time>
      </trkpt>
      <trkpt lat="46.31927" lon="-1.07493">
        <ele>5.6</ele>
        <time>2020-06-02T13:52:44Z</time>
      </trkpt>
      <trkpt lat="46.31927" lon="-1.07492">
        <ele>5.6</ele>
        <time>2020-06-02T13:52:45Z</time>
      </trkpt>
      <trkpt lat="46.31927" lon="-1.07492">
        <ele>5.6</ele>
        <time>2020-06-02T13:52:46Z</time>
      </trkpt>
      <trkpt lat="46.31927" lon="-1.07492">
        <ele>5.6</ele>
        <time>2020-06-02T13:52:47Z</time>
      </trkpt>
      <trkpt lat="46.31927" lon="-1.07492">
        <ele>5.6</ele>
        <time>2020-06-02T13:52:48Z</time>
      </trkpt>
      <trkpt lat="46.31927" lon="-1.07492">
        <ele>5.6</ele>
        <time>2020-06-02T13:52:49Z</time>
      </trkpt>
      <trkpt lat="46.31927" lon="-1.07492">
        <ele>5.6</ele>
        <time>2020-06-02T13:52:50Z</time>
      </trkpt>
      <trkpt lat="46.31927" lon="-1.07492">
        <ele>5.6</ele>
        <time>2020-06-02T13:52:51Z</time>
      </trkpt>
      <trkpt lat="46.31927" lon="-1.07492">
        <ele>5.6</ele>
        <time>2020-06-02T13:52:52Z</time>
      </trkpt>
      <trkpt lat="46.31927" lon="-1.07492">
        <ele>5.6</ele>
        <time>2020-06-02T13:52:53Z</time>
      </trkpt>
      <trkpt lat="46.31927" lon="-1.07493">
        <ele>5.6</ele>
        <time>2020-06-02T13:52:54Z</time>
      </trkpt>
      <trkpt lat="46.31927" lon="-1.07493">
        <ele>5.6</ele>
        <time>2020-06-02T13:52:55Z</time>
      </trkpt>
      <trkpt lat="46.31927" lon="-1.07493">
        <ele>5.6</ele>
        <time>2020-06-02T13:52:56Z</time>
      </trkpt>
      <trkpt lat="46.31927" lon="-1.07493">
        <ele>5.6</ele>
        <time>2020-06-02T13:52:57Z</time>
      </trkpt>
      <trkpt lat="46.31926" lon="-1.07492">
        <ele>5.6</ele>
        <time>2020-06-02T13:52:58Z</time>
      </trkpt>
      <trkpt lat="46.31926" lon="-1.07492">
        <ele>5.6</ele>
        <time>2020-06-02T13:52:59Z</time>
      </trkpt>
      <trkpt lat="46.31926" lon="-1.07491">
        <ele>5.6</ele>
        <time>2020-06-02T13:53:00Z</time>
      </trkpt>
      <trkpt lat="46.31926" lon="-1.07491">
        <ele>5.6</ele>
        <time>2020-06-02T13:53:01Z</time>
      </trkpt>
      <trkpt lat="46.31926" lon="-1.07492">
        <ele>5.6</ele>
        <time>2020-06-02T13:53:02Z</time>
      </trkpt>
      <trkpt lat="46.31926" lon="-1.07492">
        <ele>5.6</ele>
        <time>2020-06-02T13:53:03Z</time>
      </trkpt>
      <trkpt lat="46.31926" lon="-1.07492">
        <ele>5.6</ele>
        <time>2020-06-02T13:53:04Z</time>
      </trkpt>
      <trkpt lat="46.31926" lon="-1.07492">
        <ele>5.6</ele>
        <time>2020-06-02T13:53:05Z</time>
      </trkpt>
      <trkpt lat="46.31926" lon="-1.07492">
        <ele>5.6</ele>
        <time>2020-06-02T13:53:06Z</time>
      </trkpt>
      <trkpt lat="46.31926" lon="-1.07492">
        <ele>5.6</ele>
        <time>2020-06-02T13:53:07Z</time>
      </trkpt>
      <trkpt lat="46.31927" lon="-1.07491">
        <ele>5.6</ele>
        <time>2020-06-02T13:53:08Z</time>
      </trkpt>
      <trkpt lat="46.31927" lon="-1.07491">
        <ele>5.6</ele>
        <time>2020-06-02T13:53:09Z</time>
      </trkpt>
      <trkpt lat="46.31927" lon="-1.07491">
        <ele>5.6</ele>
        <time>2020-06-02T13:53:10Z</time>
      </trkpt>
      <trkpt lat="46.31927" lon="-1.07491">
        <ele>5.6</ele>
        <time>2020-06-02T13:53:11Z</time>
      </trkpt>
      <trkpt lat="46.31927" lon="-1.07491">
        <ele>5.6</ele>
        <time>2020-06-02T13:53:12Z</time>
      </trkpt>
      <trkpt lat="46.31927" lon="-1.07491">
        <ele>5.6</ele>
        <time>2020-06-02T13:53:13Z</time>
      </trkpt>
      <trkpt lat="46.31927" lon="-1.07491">
        <ele>5.6</ele>
        <time>2020-06-02T13:53:14Z</time>
      </trkpt>
      <trkpt lat="46.31927" lon="-1.07491">
        <ele>5.6</ele>
        <time>2020-06-02T13:53:15Z</time>
      </trkpt>
      <trkpt lat="46.31925" lon="-1.07505">
        <ele>5.6</ele>
        <time>2020-06-02T14:46:33Z</time>
      </trkpt>
      <trkpt lat="46.31925" lon="-1.07505">
        <ele>5.6</ele>
        <time>2020-06-02T14:46:34Z</time>
      </trkpt>
      <trkpt lat="46.31925" lon="-1.07506">
        <ele>5.6</ele>
        <time>2020-06-02T14:46:35Z</time>
      </trkpt>
      <trkpt lat="46.31925" lon="-1.07506">
        <ele>5.6</ele>
        <time>2020-06-02T14:46:36Z</time>
      </trkpt>
      <trkpt lat="46.31925" lon="-1.07505">
        <ele>5.6</ele>
        <time>2020-06-02T14:46:37Z</time>
      </trkpt>
      <trkpt lat="46.31924" lon="-1.07504">
        <ele>5.6</ele>
        <time>2020-06-02T14:46:38Z</time>
      </trkpt>
      <trkpt lat="46.31924" lon="-1.07504">
        <ele>5.6</ele>
        <time>2020-06-02T14:46:39Z</time>
      </trkpt>
      <trkpt lat="46.31924" lon="-1.07505">
        <ele>5.6</ele>
        <time>2020-06-02T14:46:40Z</time>
      </trkpt>
      <trkpt lat="46.31925" lon="-1.07504">
        <ele>5.6</ele>
        <time>2020-06-02T14:46:41Z</time>
      </trkpt>
      <trkpt lat="46.31925" lon="-1.07503">
        <ele>5.6</ele>
        <time>2020-06-02T14:46:42Z</time>
      </trkpt>
      <trkpt lat="46.31925" lon="-1.07504">
        <ele>5.6</ele>
        <time>2020-06-02T14:46:43Z</time>
      </trkpt>
      <trkpt lat="46.31925" lon="-1.07503">
        <ele>5.6</ele>
        <time>2020-06-02T14:46:44Z</time>
      </trkpt>
      <trkpt lat="46.31926" lon="-1.07503">
        <ele>5.6</ele>
        <time>2020-06-02T14:46:45Z</time>
      </trkpt>
      <trkpt lat="46.31926" lon="-1.07503">
        <ele>5.6</ele>
        <time>2020-06-02T14:46:46Z</time>
      </trkpt>
      <trkpt lat="46.31926" lon="-1.07503">
        <ele>5.6</ele>
        <time>2020-06-02T14:46:47Z</time>
      </trkpt>
      <trkpt lat="46.31926" lon="-1.07503">
        <ele>5.6</ele>
        <time>2020-06-02T14:46:48Z</time>
      </trkpt>
      <trkpt lat="46.31926" lon="-1.07503">
        <ele>5.6</ele>
        <time>2020-06-02T14:46:49Z</time>
      </trkpt>
      <trkpt lat="46.31926" lon="-1.07503">
        <ele>5.6</ele>
        <time>2020-06-02T14:46:50Z</time>
      </trkpt>
      <trkpt lat="46.31926" lon="-1.07502">
        <ele>5.6</ele>
        <time>2020-06-02T14:46:51Z</time>
      </trkpt>
      <trkpt lat="46.31926" lon="-1.07501">
        <ele>5.6</ele>
        <time>2020-06-02T14:46:52Z</time>
      </trkpt>
      <trkpt lat="46.31926" lon="-1.075">
        <ele>5.6</ele>
        <time>2020-06-02T14:46:53Z</time>
      </trkpt>
      <trkpt lat="46.31926" lon="-1.075">
        <ele>5.6</ele>
        <time>2020-06-02T14:46:54Z</time>
      </trkpt>
      <trkpt lat="46.31926" lon="-1.07499">
        <ele>5.6</ele>
        <time>2020-06-02T14:46:55Z</time>
      </trkpt>
      <trkpt lat="46.31926" lon="-1.07499">
        <ele>5.6</ele>
        <time>2020-06-02T14:46:56Z</time>
      </trkpt>
      <trkpt lat="46.31926" lon="-1.07499">
        <ele>5.6</ele>
        <time>2020-06-02T14:46:57Z</time>
      </trkpt>
      <trkpt lat="46.31926" lon="-1.075">
        <ele>5.6</ele>
        <time>2020-06-02T14:46:58Z</time>
      </trkpt>
      <trkpt lat="46.31925" lon="-1.075">
        <ele>5.6</ele>
        <time>2020-06-02T14:46:59Z</time>
      </trkpt>
      <trkpt lat="46.31925" lon="-1.07502">
        <ele>5.6</ele>
        <time>2020-06-02T14:47:00Z</time>
      </trkpt>
      <trkpt lat="46.31925" lon="-1.07503">
        <ele>5.6</ele>
        <time>2020-06-02T14:47:01Z</time>
      </trkpt>
      <trkpt lat="46.31925" lon="-1.07504">
        <ele>5.6</ele>
        <time>2020-06-02T14:47:02Z</time>
      </trkpt>
      <trkpt lat="46.31925" lon="-1.07506">
        <ele>5.6</ele>
        <time>2020-06-02T14:47:03Z</time>
      </trkpt>
      <trkpt lat="46.31925" lon="-1.07508">
        <ele>5.6</ele>
        <time>2020-06-02T14:47:04Z</time>
      </trkpt>
      <trkpt lat="46.31925" lon="-1.07513">
        <ele>5.6</ele>
        <time>2020-06-02T14:47:05Z</time>
      </trkpt>
      <trkpt lat="46.31925" lon="-1.07515">
        <ele>5.6</ele>
        <time>2020-06-02T14:47:06Z</time>
      </trkpt>
      <trkpt lat="46.31925" lon="-1.07521">
        <ele>5.6</ele>
        <time>2020-06-02T14:47:07Z</time>
      </trkpt>
      <trkpt lat="46.31925" lon="-1.07527">
        <ele>5.6</ele>
        <time>2020-06-02T14:47:08Z</time>
      </trkpt>
      <trkpt lat="46.31925" lon="-1.07532">
        <ele>5.6</ele>
        <time>2020-06-02T14:47:09Z</time>
      </trkpt>
      <trkpt lat="46.31924" lon="-1.07538">
        <ele>5.5</ele>
        <time>2020-06-02T14:47:10Z</time>
      </trkpt>
      <trkpt lat="46.31923" lon="-1.07544">
        <ele>5.4</ele>
        <time>2020-06-02T14:47:11Z</time>
      </trkpt>
      <trkpt lat="46.31921" lon="-1.07551">
        <ele>5.2</ele>
        <time>2020-06-02T14:47:12Z</time>
      </trkpt>
      <trkpt lat="46.3192" lon="-1.07558">
        <ele>5.1</ele>
        <time>2020-06-02T14:47:13Z</time>
      </trkpt>
      <trkpt lat="46.31919" lon="-1.07565">
        <ele>4.9</ele>
        <time>2020-06-02T14:47:14Z</time>
      </trkpt>
      <trkpt lat="46.31919" lon="-1.07572">
        <ele>4.8</ele>
        <time>2020-06-02T14:47:15Z</time>
      </trkpt>
      <trkpt lat="46.31918" lon="-1.07579">
        <ele>4.6</ele>
        <time>2020-06-02T14:47:16Z</time>
      </trkpt>
      <trkpt lat="46.31917" lon="-1.07586">
        <ele>4.5</ele>
        <time>2020-06-02T14:47:17Z</time>
      </trkpt>
      <trkpt lat="46.31916" lon="-1.07595">
        <ele>4.3</ele>
        <time>2020-06-02T14:47:18Z</time>
      </trkpt>
      <trkpt lat="46.31914" lon="-1.07604">
        <ele>4.2</ele>
        <time>2020-06-02T14:47:19Z</time>
      </trkpt>
      <trkpt lat="46.31912" lon="-1.07614">
        <ele>4.1</ele>
        <time>2020-06-02T14:47:20Z</time>
      </trkpt>
      <trkpt lat="46.31911" lon="-1.07623">
        <ele>4</ele>
        <time>2020-06-02T14:47:21Z</time>
      </trkpt>
      <trkpt lat="46.31909" lon="-1.07632">
        <ele>3.8</ele>
        <time>2020-06-02T14:47:22Z</time>
      </trkpt>
      <trkpt lat="46.31907" lon="-1.07639">
        <ele>3.7</ele>
        <time>2020-06-02T14:47:23Z</time>
      </trkpt>
      <trkpt lat="46.31905" lon="-1.07647">
        <ele>3.6</ele>
        <time>2020-06-02T14:47:24Z</time>
      </trkpt>
      <trkpt lat="46.31904" lon="-1.07656">
        <ele>3.4</ele>
        <time>2020-06-02T14:47:25Z</time>
      </trkpt>
      <trkpt lat="46.31903" lon="-1.07665">
        <ele>3.3</ele>
        <time>2020-06-02T14:47:26Z</time>
      </trkpt>
      <trkpt lat="46.31902" lon="-1.07674">
        <ele>3.2</ele>
        <time>2020-06-02T14:47:27Z</time>
      </trkpt>
      <trkpt lat="46.31902" lon="-1.07685">
        <ele>3.1</ele>
        <time>2020-06-02T14:47:28Z</time>
      </trkpt>
      <trkpt lat="46.31902" lon="-1.07695">
        <ele>3</ele>
        <time>2020-06-02T14:47:29Z</time>
      </trkpt>
      <trkpt lat="46.31902" lon="-1.07705">
        <ele>2.9</ele>
        <time>2020-06-02T14:47:30Z</time>
      </trkpt>
      <trkpt lat="46.31902" lon="-1.07714">
        <ele>2.8</ele>
        <time>2020-06-02T14:47:31Z</time>
      </trkpt>
      <trkpt lat="46.31901" lon="-1.07725">
        <ele>2.7</ele>
        <time>2020-06-02T14:47:32Z</time>
      </trkpt>
      <trkpt lat="46.31904" lon="-1.07736">
        <ele>2.6</ele>
        <time>2020-06-02T14:47:33Z</time>
      </trkpt>
      <trkpt lat="46.31907" lon="-1.07746">
        <ele>2.5</ele>
        <time>2020-06-02T14:47:34Z</time>
      </trkpt>
      <trkpt lat="46.3191" lon="-1.07754">
        <ele>2.5</ele>
        <time>2020-06-02T14:47:35Z</time>
      </trkpt>
      <trkpt lat="46.31913" lon="-1.07764">
        <ele>2.4</ele>
        <time>2020-06-02T14:47:36Z</time>
      </trkpt>
      <trkpt lat="46.31917" lon="-1.07772">
        <ele>2.3</ele>
        <time>2020-06-02T14:47:37Z</time>
      </trkpt>
      <trkpt lat="46.3192" lon="-1.07783">
        <ele>2.2</ele>
        <time>2020-06-02T14:47:38Z</time>
      </trkpt>
      <trkpt lat="46.31924" lon="-1.07792">
        <ele>2.1</ele>
        <time>2020-06-02T14:47:39Z</time>
      </trkpt>
      <trkpt lat="46.31927" lon="-1.07801">
        <ele>2.1</ele>
        <time>2020-06-02T14:47:40Z</time>
      </trkpt>
      <trkpt lat="46.31931" lon="-1.07809">
        <ele>2</ele>
        <time>2020-06-02T14:47:41Z</time>
      </trkpt>
      <trkpt lat="46.31935" lon="-1.07818">
        <ele>2</ele>
        <time>2020-06-02T14:47:42Z</time>
      </trkpt>
      <trkpt lat="46.31938" lon="-1.07825">
        <ele>1.9</ele>
        <time>2020-06-02T14:47:43Z</time>
      </trkpt>
      <trkpt lat="46.31941" lon="-1.07832">
        <ele>1.9</ele>
        <time>2020-06-02T14:47:44Z</time>
      </trkpt>
      <trkpt lat="46.31945" lon="-1.0784">
        <ele>1.9</ele>
        <time>2020-06-02T14:47:45Z</time>
      </trkpt>
      <trkpt lat="46.31949" lon="-1.07847">
        <ele>1.9</ele>
        <time>2020-06-02T14:47:46Z</time>
      </trkpt>
      <trkpt lat="46.31953" lon="-1.07854">
        <ele>1.8</ele>
        <time>2020-06-02T14:47:47Z</time>
      </trkpt>
      <trkpt lat="46.31956" lon="-1.07861">
        <ele>1.8</ele>
        <time>2020-06-02T14:47:48Z</time>
      </trkpt>
      <trkpt lat="46.31959" lon="-1.07868">
        <ele>1.8</ele>
        <time>2020-06-02T14:47:49Z</time>
      </trkpt>
      <trkpt lat="46.31961" lon="-1.07874">
        <ele>1.8</ele>
        <time>2020-06-02T14:47:50Z</time>
      </trkpt>
      <trkpt lat="46.31964" lon="-1.07881">
        <ele>1.8</ele>
        <time>2020-06-02T14:47:51Z</time>
      </trkpt>
      <trkpt lat="46.31966" lon="-1.07887">
        <ele>1.8</ele>
        <time>2020-06-02T14:47:52Z</time>
      </trkpt>
      <trkpt lat="46.31969" lon="-1.07894">
        <ele>1.8</ele>
        <time>2020-06-02T14:47:53Z</time>
      </trkpt>
      <trkpt lat="46.31971" lon="-1.07901">
        <ele>1.7</ele>
        <time>2020-06-02T14:47:54Z</time>
      </trkpt>
      <trkpt lat="46.31974" lon="-1.07908">
        <ele>1.7</ele>
        <time>2020-06-02T14:47:55Z</time>
      </trkpt>
      <trkpt lat="46.31976" lon="-1.07915">
        <ele>1.7</ele>
        <time>2020-06-02T14:47:56Z</time>
      </trkpt>
      <trkpt lat="46.31979" lon="-1.07921">
        <ele>1.7</ele>
        <time>2020-06-02T14:47:57Z</time>
      </trkpt>
      <trkpt lat="46.31982" lon="-1.07927">
        <ele>1.7</ele>
        <time>2020-06-02T14:47:58Z</time>
      </trkpt>
      <trkpt lat="46.31983" lon="-1.07934">
        <ele>1.7</ele>
        <time>2020-06-02T14:47:59Z</time>
      </trkpt>
      <trkpt lat="46.31986" lon="-1.0794">
        <ele>1.7</ele>
        <time>2020-06-02T14:48:00Z</time>
      </trkpt>
      <trkpt lat="46.31989" lon="-1.07946">
        <ele>1.7</ele>
        <time>2020-06-02T14:48:01Z</time>
      </trkpt>
      <trkpt lat="46.31991" lon="-1.07952">
        <ele>1.7</ele>
        <time>2020-06-02T14:48:02Z</time>
      </trkpt>
      <trkpt lat="46.31994" lon="-1.07958">
        <ele>1.7</ele>
        <time>2020-06-02T14:48:03Z</time>
      </trkpt>
      <trkpt lat="46.31996" lon="-1.07964">
        <ele>1.7</ele>
        <time>2020-06-02T14:48:04Z</time>
      </trkpt>
      <trkpt lat="46.31999" lon="-1.0797">
        <ele>1.7</ele>
        <time>2020-06-02T14:48:05Z</time>
      </trkpt>
      <trkpt lat="46.32001" lon="-1.07976">
        <ele>1.6</ele>
        <time>2020-06-02T14:48:06Z</time>
      </trkpt>
      <trkpt lat="46.32003" lon="-1.07982">
        <ele>1.6</ele>
        <time>2020-06-02T14:48:07Z</time>
      </trkpt>
      <trkpt lat="46.32005" lon="-1.07988">
        <ele>1.6</ele>
        <time>2020-06-02T14:48:08Z</time>
      </trkpt>
      <trkpt lat="46.32007" lon="-1.07994">
        <ele>1.6</ele>
        <time>2020-06-02T14:48:09Z</time>
      </trkpt>
      <trkpt lat="46.32009" lon="-1.08">
        <ele>1.6</ele>
        <time>2020-06-02T14:48:10Z</time>
      </trkpt>
      <trkpt lat="46.32011" lon="-1.08006">
        <ele>1.6</ele>
        <time>2020-06-02T14:48:11Z</time>
      </trkpt>
      <trkpt lat="46.32013" lon="-1.08012">
        <ele>1.6</ele>
        <time>2020-06-02T14:48:12Z</time>
      </trkpt>
      <trkpt lat="46.32015" lon="-1.08018">
        <ele>1.6</ele>
        <time>2020-06-02T14:48:13Z</time>
      </trkpt>
      <trkpt lat="46.32018" lon="-1.08024">
        <ele>1.6</ele>
        <time>2020-06-02T14:48:14Z</time>
      </trkpt>
      <trkpt lat="46.3202" lon="-1.0803">
        <ele>1.6</ele>
        <time>2020-06-02T14:48:15Z</time>
      </trkpt>
      <trkpt lat="46.32023" lon="-1.08036">
        <ele>1.6</ele>
        <time>2020-06-02T14:48:16Z</time>
      </trkpt>
      <trkpt lat="46.32025" lon="-1.08042">
        <ele>1.6</ele>
        <time>2020-06-02T14:48:17Z</time>
      </trkpt>
      <trkpt lat="46.32027" lon="-1.08048">
        <ele>1.6</ele>
        <time>2020-06-02T14:48:18Z</time>
      </trkpt>
      <trkpt lat="46.32029" lon="-1.08054">
        <ele>1.6</ele>
        <time>2020-06-02T14:48:19Z</time>
      </trkpt>
      <trkpt lat="46.32031" lon="-1.08061">
        <ele>1.7</ele>
        <time>2020-06-02T14:48:20Z</time>
      </trkpt>
      <trkpt lat="46.32034" lon="-1.08067">
        <ele>1.7</ele>
        <time>2020-06-02T14:48:21Z</time>
      </trkpt>
      <trkpt lat="46.32036" lon="-1.08073">
        <ele>1.7</ele>
        <time>2020-06-02T14:48:22Z</time>
      </trkpt>
      <trkpt lat="46.32039" lon="-1.08079">
        <ele>1.7</ele>
        <time>2020-06-02T14:48:23Z</time>
      </trkpt>
      <trkpt lat="46.32042" lon="-1.08086">
        <ele>1.7</ele>
        <time>2020-06-02T14:48:24Z</time>
      </trkpt>
      <trkpt lat="46.32045" lon="-1.08093">
        <ele>1.7</ele>
        <time>2020-06-02T14:48:25Z</time>
      </trkpt>
      <trkpt lat="46.32048" lon="-1.081">
        <ele>1.7</ele>
        <time>2020-06-02T14:48:26Z</time>
      </trkpt>
      <trkpt lat="46.32051" lon="-1.08107">
        <ele>1.7</ele>
        <time>2020-06-02T14:48:27Z</time>
      </trkpt>
      <trkpt lat="46.32053" lon="-1.08114">
        <ele>1.7</ele>
        <time>2020-06-02T14:48:28Z</time>
      </trkpt>
      <trkpt lat="46.32056" lon="-1.08121">
        <ele>1.7</ele>
        <time>2020-06-02T14:48:29Z</time>
      </trkpt>
      <trkpt lat="46.32059" lon="-1.08128">
        <ele>1.7</ele>
        <time>2020-06-02T14:48:30Z</time>
      </trkpt>
      <trkpt lat="46.32062" lon="-1.08135">
        <ele>1.7</ele>
        <time>2020-06-02T14:48:31Z</time>
      </trkpt>
      <trkpt lat="46.32065" lon="-1.08143">
        <ele>1.7</ele>
        <time>2020-06-02T14:48:32Z</time>
      </trkpt>
      <trkpt lat="46.32067" lon="-1.08151">
        <ele>1.7</ele>
        <time>2020-06-02T14:48:33Z</time>
      </trkpt>
      <trkpt lat="46.3207" lon="-1.08158">
        <ele>1.7</ele>
        <time>2020-06-02T14:48:34Z</time>
      </trkpt>
      <trkpt lat="46.32073" lon="-1.08165">
        <ele>1.8</ele>
        <time>2020-06-02T14:48:35Z</time>
      </trkpt>
      <trkpt lat="46.32077" lon="-1.08173">
        <ele>1.8</ele>
        <time>2020-06-02T14:48:36Z</time>
      </trkpt>
      <trkpt lat="46.3208" lon="-1.08179">
        <ele>1.8</ele>
        <time>2020-06-02T14:48:37Z</time>
      </trkpt>
      <trkpt lat="46.32084" lon="-1.08185">
        <ele>1.9</ele>
        <time>2020-06-02T14:48:38Z</time>
      </trkpt>
      <trkpt lat="46.32087" lon="-1.08191">
        <ele>1.9</ele>
        <time>2020-06-02T14:48:39Z</time>
      </trkpt>
      <trkpt lat="46.3209" lon="-1.08196">
        <ele>1.9</ele>
        <time>2020-06-02T14:48:40Z</time>
      </trkpt>
      <trkpt lat="46.32092" lon="-1.082">
        <ele>2</ele>
        <time>2020-06-02T14:48:41Z</time>
      </trkpt>
      <trkpt lat="46.32095" lon="-1.082">
        <ele>2</ele>
        <time>2020-06-02T14:48:42Z</time>
      </trkpt>
      <trkpt lat="46.32098" lon="-1.08203">
        <ele>2</ele>
        <time>2020-06-02T14:48:43Z</time>
      </trkpt>
      <trkpt lat="46.32102" lon="-1.08207">
        <ele>2</ele>
        <time>2020-06-02T14:48:44Z</time>
      </trkpt>
      <trkpt lat="46.32107" lon="-1.0821">
        <ele>2</ele>
        <time>2020-06-02T14:48:45Z</time>
      </trkpt>
      <trkpt lat="46.32112" lon="-1.08214">
        <ele>1.9</ele>
        <time>2020-06-02T14:48:46Z</time>
      </trkpt>
      <trkpt lat="46.32117" lon="-1.08216">
        <ele>1.9</ele>
        <time>2020-06-02T14:48:47Z</time>
      </trkpt>
      <trkpt lat="46.32122" lon="-1.08218">
        <ele>1.8</ele>
        <time>2020-06-02T14:48:48Z</time>
      </trkpt>
      <trkpt lat="46.32126" lon="-1.08219">
        <ele>1.8</ele>
        <time>2020-06-02T14:48:49Z</time>
      </trkpt>
      <trkpt lat="46.3213" lon="-1.08221">
        <ele>1.7</ele>
        <time>2020-06-02T14:48:50Z</time>
      </trkpt>
      <trkpt lat="46.32135" lon="-1.08221">
        <ele>1.7</ele>
        <time>2020-06-02T14:48:51Z</time>
      </trkpt>
      <trkpt lat="46.3214" lon="-1.08221">
        <ele>1.8</ele>
        <time>2020-06-02T14:48:52Z</time>
      </trkpt>
      <trkpt lat="46.32145" lon="-1.0822">
        <ele>1.8</ele>
        <time>2020-06-02T14:48:53Z</time>
      </trkpt>
      <trkpt lat="46.32151" lon="-1.08219">
        <ele>1.8</ele>
        <time>2020-06-02T14:48:54Z</time>
      </trkpt>
      <trkpt lat="46.32157" lon="-1.08217">
        <ele>1.8</ele>
        <time>2020-06-02T14:48:55Z</time>
      </trkpt>
      <trkpt lat="46.32163" lon="-1.08215">
        <ele>1.9</ele>
        <time>2020-06-02T14:48:56Z</time>
      </trkpt>
      <trkpt lat="46.32169" lon="-1.08214">
        <ele>1.9</ele>
        <time>2020-06-02T14:48:57Z</time>
      </trkpt>
      <trkpt lat="46.32175" lon="-1.08215">
        <ele>1.9</ele>
        <time>2020-06-02T14:48:58Z</time>
      </trkpt>
      <trkpt lat="46.32181" lon="-1.08215">
        <ele>1.9</ele>
        <time>2020-06-02T14:48:59Z</time>
      </trkpt>
      <trkpt lat="46.32187" lon="-1.08215">
        <ele>2</ele>
        <time>2020-06-02T14:49:00Z</time>
      </trkpt>
      <trkpt lat="46.32193" lon="-1.08214">
        <ele>2</ele>
        <time>2020-06-02T14:49:01Z</time>
      </trkpt>
      <trkpt lat="46.32199" lon="-1.08213">
        <ele>2</ele>
        <time>2020-06-02T14:49:02Z</time>
      </trkpt>
      <trkpt lat="46.32205" lon="-1.08213">
        <ele>2</ele>
        <time>2020-06-02T14:49:03Z</time>
      </trkpt>
      <trkpt lat="46.3221" lon="-1.08213">
        <ele>2.1</ele>
        <time>2020-06-02T14:49:04Z</time>
      </trkpt>
      <trkpt lat="46.32216" lon="-1.08213">
        <ele>2.1</ele>
        <time>2020-06-02T14:49:05Z</time>
      </trkpt>
      <trkpt lat="46.32221" lon="-1.08214">
        <ele>2.1</ele>
        <time>2020-06-02T14:49:06Z</time>
      </trkpt>
      <trkpt lat="46.32227" lon="-1.08212">
        <ele>2.1</ele>
        <time>2020-06-02T14:49:07Z</time>
      </trkpt>
      <trkpt lat="46.32232" lon="-1.08212">
        <ele>2.2</ele>
        <time>2020-06-02T14:49:08Z</time>
      </trkpt>
      <trkpt lat="46.32238" lon="-1.08213">
        <ele>2.2</ele>
        <time>2020-06-02T14:49:09Z</time>
      </trkpt>
      <trkpt lat="46.32243" lon="-1.08212">
        <ele>2.2</ele>
        <time>2020-06-02T14:49:10Z</time>
      </trkpt>
      <trkpt lat="46.32248" lon="-1.08214">
        <ele>2.2</ele>
        <time>2020-06-02T14:49:11Z</time>
      </trkpt>
      <trkpt lat="46.32254" lon="-1.08214">
        <ele>2.2</ele>
        <time>2020-06-02T14:49:12Z</time>
      </trkpt>
      <trkpt lat="46.32259" lon="-1.08215">
        <ele>2.2</ele>
        <time>2020-06-02T14:49:13Z</time>
      </trkpt>
      <trkpt lat="46.32264" lon="-1.08215">
        <ele>2.3</ele>
        <time>2020-06-02T14:49:14Z</time>
      </trkpt>
      <trkpt lat="46.32269" lon="-1.08215">
        <ele>2.3</ele>
        <time>2020-06-02T14:49:15Z</time>
      </trkpt>
      <trkpt lat="46.32274" lon="-1.08216">
        <ele>2.3</ele>
        <time>2020-06-02T14:49:16Z</time>
      </trkpt>
      <trkpt lat="46.32279" lon="-1.08217">
        <ele>2.3</ele>
        <time>2020-06-02T14:49:17Z</time>
      </trkpt>
      <trkpt lat="46.32284" lon="-1.08217">
        <ele>2.3</ele>
        <time>2020-06-02T14:49:18Z</time>
      </trkpt>
      <trkpt lat="46.32287" lon="-1.08217">
        <ele>2.3</ele>
        <time>2020-06-02T14:49:19Z</time>
      </trkpt>
      <trkpt lat="46.32291" lon="-1.08217">
        <ele>2.3</ele>
        <time>2020-06-02T14:49:20Z</time>
      </trkpt>
      <trkpt lat="46.32295" lon="-1.08217">
        <ele>2.4</ele>
        <time>2020-06-02T14:49:21Z</time>
      </trkpt>
      <trkpt lat="46.32296" lon="-1.08217">
        <ele>2.4</ele>
        <time>2020-06-02T14:49:22Z</time>
      </trkpt>
      <trkpt lat="46.32298" lon="-1.0822">
        <ele>2.4</ele>
        <time>2020-06-02T14:49:23Z</time>
      </trkpt>
      <trkpt lat="46.32299" lon="-1.08221">
        <ele>2.4</ele>
        <time>2020-06-02T14:49:24Z</time>
      </trkpt>
      <trkpt lat="46.32298" lon="-1.08222">
        <ele>2.4</ele>
        <time>2020-06-02T14:49:25Z</time>
      </trkpt>
      <trkpt lat="46.32298" lon="-1.08222">
        <ele>2.4</ele>
        <time>2020-06-02T14:49:26Z</time>
      </trkpt>
      <trkpt lat="46.32298" lon="-1.08222">
        <ele>2.4</ele>
        <time>2020-06-02T14:49:27Z</time>
      </trkpt>
      <trkpt lat="46.32297" lon="-1.08222">
        <ele>2.4</ele>
        <time>2020-06-02T14:49:28Z</time>
      </trkpt>
      <trkpt lat="46.32297" lon="-1.08222">
        <ele>2.4</ele>
        <time>2020-06-02T14:49:29Z</time>
      </trkpt>
      <trkpt lat="46.32297" lon="-1.08222">
        <ele>2.4</ele>
        <time>2020-06-02T14:49:30Z</time>
      </trkpt>
      <trkpt lat="46.32297" lon="-1.08222">
        <ele>2.4</ele>
        <time>2020-06-02T14:49:31Z</time>
      </trkpt>
      <trkpt lat="46.32296" lon="-1.08221">
        <ele>2.4</ele>
        <time>2020-06-02T14:49:32Z</time>
      </trkpt>
      <trkpt lat="46.32296" lon="-1.08221">
        <ele>2.4</ele>
        <time>2020-06-02T14:49:33Z</time>
      </trkpt>
      <trkpt lat="46.32296" lon="-1.08221">
        <ele>2.4</ele>
        <time>2020-06-02T14:49:34Z</time>
      </trkpt>
      <trkpt lat="46.32295" lon="-1.08221">
        <ele>2.4</ele>
        <time>2020-06-02T14:49:35Z</time>
      </trkpt>
      <trkpt lat="46.32295" lon="-1.08221">
        <ele>2.4</ele>
        <time>2020-06-02T14:49:36Z</time>
      </trkpt>
      <trkpt lat="46.32295" lon="-1.08221">
        <ele>2.4</ele>
        <time>2020-06-02T14:49:37Z</time>
      </trkpt>
      <trkpt lat="46.32295" lon="-1.08221">
        <ele>2.4</ele>
        <time>2020-06-02T14:49:38Z</time>
      </trkpt>
      <trkpt lat="46.32294" lon="-1.08221">
        <ele>2.4</ele>
        <time>2020-06-02T14:49:39Z</time>
      </trkpt>
      <trkpt lat="46.32294" lon="-1.08221">
        <ele>2.4</ele>
        <time>2020-06-02T14:49:40Z</time>
      </trkpt>
      <trkpt lat="46.32294" lon="-1.08221">
        <ele>2.4</ele>
        <time>2020-06-02T14:49:41Z</time>
      </trkpt>
      <trkpt lat="46.32294" lon="-1.08221">
        <ele>2.4</ele>
        <time>2020-06-02T14:49:42Z</time>
      </trkpt>
      <trkpt lat="46.32293" lon="-1.08221">
        <ele>2.4</ele>
        <time>2020-06-02T14:49:43Z</time>
      </trkpt>
      <trkpt lat="46.32293" lon="-1.0822">
        <ele>2.4</ele>
        <time>2020-06-02T14:49:44Z</time>
      </trkpt>
      <trkpt lat="46.32293" lon="-1.0822">
        <ele>2.4</ele>
        <time>2020-06-02T14:49:45Z</time>
      </trkpt>
      <trkpt lat="46.32293" lon="-1.0822">
        <ele>2.4</ele>
        <time>2020-06-02T14:49:46Z</time>
      </trkpt>
      <trkpt lat="46.32292" lon="-1.0822">
        <ele>2.4</ele>
        <time>2020-06-02T14:49:47Z</time>
      </trkpt>
      <trkpt lat="46.32292" lon="-1.0822">
        <ele>2.4</ele>
        <time>2020-06-02T14:49:48Z</time>
      </trkpt>
      <trkpt lat="46.32292" lon="-1.0822">
        <ele>2.4</ele>
        <time>2020-06-02T14:49:49Z</time>
      </trkpt>
      <trkpt lat="46.32287" lon="-1.08219">
        <ele>2.4</ele>
        <time>2020-06-02T14:49:50Z</time>
      </trkpt>
      <trkpt lat="46.32282" lon="-1.08218">
        <ele>2.4</ele>
        <time>2020-06-02T14:49:51Z</time>
      </trkpt>
      <trkpt lat="46.32276" lon="-1.08217">
        <ele>2.3</ele>
        <time>2020-06-02T14:49:52Z</time>
      </trkpt>
      <trkpt lat="46.32271" lon="-1.08217">
        <ele>2.3</ele>
        <time>2020-06-02T14:49:53Z</time>
      </trkpt>
      <trkpt lat="46.32266" lon="-1.08217">
        <ele>2.3</ele>
        <time>2020-06-02T14:49:54Z</time>
      </trkpt>
      <trkpt lat="46.3226" lon="-1.08217">
        <ele>2.3</ele>
        <time>2020-06-02T14:49:55Z</time>
      </trkpt>
      <trkpt lat="46.32254" lon="-1.08217">
        <ele>2.3</ele>
        <time>2020-06-02T14:49:56Z</time>
      </trkpt>
      <trkpt lat="46.32249" lon="-1.08216">
        <ele>2.3</ele>
        <time>2020-06-02T14:49:57Z</time>
      </trkpt>
      <trkpt lat="46.32243" lon="-1.08214">
        <ele>2.2</ele>
        <time>2020-06-02T14:49:58Z</time>
      </trkpt>
      <trkpt lat="46.32238" lon="-1.08214">
        <ele>2.2</ele>
        <time>2020-06-02T14:49:59Z</time>
      </trkpt>
      <trkpt lat="46.32232" lon="-1.08214">
        <ele>2.2</ele>
        <time>2020-06-02T14:50:00Z</time>
      </trkpt>
      <trkpt lat="46.32227" lon="-1.08214">
        <ele>2.2</ele>
        <time>2020-06-02T14:50:01Z</time>
      </trkpt>
      <trkpt lat="46.32221" lon="-1.08213">
        <ele>2.2</ele>
        <time>2020-06-02T14:50:02Z</time>
      </trkpt>
      <trkpt lat="46.32216" lon="-1.08213">
        <ele>2.1</ele>
        <time>2020-06-02T14:50:03Z</time>
      </trkpt>
      <trkpt lat="46.32211" lon="-1.08213">
        <ele>2.1</ele>
        <time>2020-06-02T14:50:04Z</time>
      </trkpt>
      <trkpt lat="46.32205" lon="-1.08213">
        <ele>2.1</ele>
        <time>2020-06-02T14:50:05Z</time>
      </trkpt>
      <trkpt lat="46.322" lon="-1.08213">
        <ele>2.1</ele>
        <time>2020-06-02T14:50:06Z</time>
      </trkpt>
      <trkpt lat="46.32195" lon="-1.08212">
        <ele>2</ele>
        <time>2020-06-02T14:50:07Z</time>
      </trkpt>
      <trkpt lat="46.32189" lon="-1.08213">
        <ele>2</ele>
        <time>2020-06-02T14:50:08Z</time>
      </trkpt>
      <trkpt lat="46.32184" lon="-1.08214">
        <ele>2</ele>
        <time>2020-06-02T14:50:09Z</time>
      </trkpt>
      <trkpt lat="46.32178" lon="-1.08215">
        <ele>2</ele>
        <time>2020-06-02T14:50:10Z</time>
      </trkpt>
      <trkpt lat="46.32173" lon="-1.08216">
        <ele>1.9</ele>
        <time>2020-06-02T14:50:11Z</time>
      </trkpt>
      <trkpt lat="46.32167" lon="-1.08217">
        <ele>1.9</ele>
        <time>2020-06-02T14:50:12Z</time>
      </trkpt>
      <trkpt lat="46.32162" lon="-1.08219">
        <ele>1.9</ele>
        <time>2020-06-02T14:50:13Z</time>
      </trkpt>
      <trkpt lat="46.32156" lon="-1.08219">
        <ele>1.9</ele>
        <time>2020-06-02T14:50:14Z</time>
      </trkpt>
      <trkpt lat="46.32151" lon="-1.08219">
        <ele>1.8</ele>
        <time>2020-06-02T14:50:15Z</time>
      </trkpt>
      <trkpt lat="46.32146" lon="-1.0822">
        <ele>1.8</ele>
        <time>2020-06-02T14:50:16Z</time>
      </trkpt>
      <trkpt lat="46.32141" lon="-1.08219">
        <ele>1.8</ele>
        <time>2020-06-02T14:50:17Z</time>
      </trkpt>
      <trkpt lat="46.32137" lon="-1.08219">
        <ele>1.8</ele>
        <time>2020-06-02T14:50:18Z</time>
      </trkpt>
      <trkpt lat="46.32132" lon="-1.08219">
        <ele>1.7</ele>
        <time>2020-06-02T14:50:19Z</time>
      </trkpt>
      <trkpt lat="46.32128" lon="-1.0822">
        <ele>1.7</ele>
        <time>2020-06-02T14:50:20Z</time>
      </trkpt>
      <trkpt lat="46.32123" lon="-1.0822">
        <ele>1.7</ele>
        <time>2020-06-02T14:50:21Z</time>
      </trkpt>
      <trkpt lat="46.32118" lon="-1.08221">
        <ele>1.7</ele>
        <time>2020-06-02T14:50:22Z</time>
      </trkpt>
      <trkpt lat="46.32113" lon="-1.08222">
        <ele>1.8</ele>
        <time>2020-06-02T14:50:23Z</time>
      </trkpt>
      <trkpt lat="46.32108" lon="-1.08224">
        <ele>1.8</ele>
        <time>2020-06-02T14:50:24Z</time>
      </trkpt>
      <trkpt lat="46.32103" lon="-1.08225">
        <ele>1.8</ele>
        <time>2020-06-02T14:50:25Z</time>
      </trkpt>
      <trkpt lat="46.32098" lon="-1.08226">
        <ele>1.8</ele>
        <time>2020-06-02T14:50:26Z</time>
      </trkpt>
      <trkpt lat="46.32093" lon="-1.08226">
        <ele>1.8</ele>
        <time>2020-06-02T14:50:27Z</time>
      </trkpt>
      <trkpt lat="46.32088" lon="-1.08227">
        <ele>1.8</ele>
        <time>2020-06-02T14:50:28Z</time>
      </trkpt>
      <trkpt lat="46.32083" lon="-1.08227">
        <ele>1.8</ele>
        <time>2020-06-02T14:50:29Z</time>
      </trkpt>
      <trkpt lat="46.32078" lon="-1.08228">
        <ele>1.8</ele>
        <time>2020-06-02T14:50:30Z</time>
      </trkpt>
      <trkpt lat="46.32072" lon="-1.08228">
        <ele>1.8</ele>
        <time>2020-06-02T14:50:31Z</time>
      </trkpt>
      <trkpt lat="46.32067" lon="-1.08229">
        <ele>1.8</ele>
        <time>2020-06-02T14:50:32Z</time>
      </trkpt>
      <trkpt lat="46.32062" lon="-1.08229">
        <ele>1.8</ele>
        <time>2020-06-02T14:50:33Z</time>
      </trkpt>
      <trkpt lat="46.32056" lon="-1.08229">
        <ele>1.8</ele>
        <time>2020-06-02T14:50:34Z</time>
      </trkpt>
      <trkpt lat="46.3205" lon="-1.08229">
        <ele>1.8</ele>
        <time>2020-06-02T14:50:35Z</time>
      </trkpt>
      <trkpt lat="46.32045" lon="-1.08229">
        <ele>1.8</ele>
        <time>2020-06-02T14:50:36Z</time>
      </trkpt>
      <trkpt lat="46.32039" lon="-1.0823">
        <ele>1.8</ele>
        <time>2020-06-02T14:50:37Z</time>
      </trkpt>
      <trkpt lat="46.32033" lon="-1.0823">
        <ele>1.8</ele>
        <time>2020-06-02T14:50:38Z</time>
      </trkpt>
      <trkpt lat="46.32028" lon="-1.0823">
        <ele>1.8</ele>
        <time>2020-06-02T14:50:39Z</time>
      </trkpt>
      <trkpt lat="46.32022" lon="-1.0823">
        <ele>1.8</ele>
        <time>2020-06-02T14:50:40Z</time>
      </trkpt>
      <trkpt lat="46.32016" lon="-1.08231">
        <ele>1.9</ele>
        <time>2020-06-02T14:50:41Z</time>
      </trkpt>
      <trkpt lat="46.3201" lon="-1.08231">
        <ele>1.9</ele>
        <time>2020-06-02T14:50:42Z</time>
      </trkpt>
      <trkpt lat="46.32005" lon="-1.08231">
        <ele>1.9</ele>
        <time>2020-06-02T14:50:43Z</time>
      </trkpt>
      <trkpt lat="46.31999" lon="-1.08232">
        <ele>1.9</ele>
        <time>2020-06-02T14:50:44Z</time>
      </trkpt>
      <trkpt lat="46.31994" lon="-1.08233">
        <ele>1.9</ele>
        <time>2020-06-02T14:50:45Z</time>
      </trkpt>
      <trkpt lat="46.31989" lon="-1.08233">
        <ele>1.9</ele>
        <time>2020-06-02T14:50:46Z</time>
      </trkpt>
      <trkpt lat="46.31983" lon="-1.08233">
        <ele>1.9</ele>
        <time>2020-06-02T14:50:47Z</time>
      </trkpt>
      <trkpt lat="46.31978" lon="-1.08235">
        <ele>1.9</ele>
        <time>2020-06-02T14:50:48Z</time>
      </trkpt>
      <trkpt lat="46.31972" lon="-1.08235">
        <ele>2</ele>
        <time>2020-06-02T14:50:49Z</time>
      </trkpt>
      <trkpt lat="46.31967" lon="-1.08237">
        <ele>2</ele>
        <time>2020-06-02T14:50:50Z</time>
      </trkpt>
      <trkpt lat="46.31961" lon="-1.08236">
        <ele>2</ele>
        <time>2020-06-02T14:50:51Z</time>
      </trkpt>
      <trkpt lat="46.31956" lon="-1.08236">
        <ele>2</ele>
        <time>2020-06-02T14:50:52Z</time>
      </trkpt>
      <trkpt lat="46.3195" lon="-1.08236">
        <ele>2</ele>
        <time>2020-06-02T14:50:53Z</time>
      </trkpt>
      <trkpt lat="46.31945" lon="-1.08237">
        <ele>2.1</ele>
        <time>2020-06-02T14:50:54Z</time>
      </trkpt>
      <trkpt lat="46.3194" lon="-1.08237">
        <ele>2.1</ele>
        <time>2020-06-02T14:50:55Z</time>
      </trkpt>
      <trkpt lat="46.31935" lon="-1.08236">
        <ele>2.1</ele>
        <time>2020-06-02T14:50:56Z</time>
      </trkpt>
      <trkpt lat="46.3193" lon="-1.08237">
        <ele>2.1</ele>
        <time>2020-06-02T14:50:57Z</time>
      </trkpt>
      <trkpt lat="46.31925" lon="-1.08237">
        <ele>2.1</ele>
        <time>2020-06-02T14:50:58Z</time>
      </trkpt>
      <trkpt lat="46.31919" lon="-1.08237">
        <ele>2.2</ele>
        <time>2020-06-02T14:50:59Z</time>
      </trkpt>
      <trkpt lat="46.31914" lon="-1.08238">
        <ele>2.2</ele>
        <time>2020-06-02T14:51:00Z</time>
      </trkpt>
      <trkpt lat="46.31908" lon="-1.08238">
        <ele>2.2</ele>
        <time>2020-06-02T14:51:01Z</time>
      </trkpt>
      <trkpt lat="46.31903" lon="-1.08238">
        <ele>2.2</ele>
        <time>2020-06-02T14:51:02Z</time>
      </trkpt>
      <trkpt lat="46.31898" lon="-1.08238">
        <ele>2.2</ele>
        <time>2020-06-02T14:51:03Z</time>
      </trkpt>
      <trkpt lat="46.31892" lon="-1.08239">
        <ele>2.2</ele>
        <time>2020-06-02T14:51:04Z</time>
      </trkpt>
      <trkpt lat="46.31887" lon="-1.08239">
        <ele>2.3</ele>
        <time>2020-06-02T14:51:05Z</time>
      </trkpt>
      <trkpt lat="46.31881" lon="-1.08241">
        <ele>2.3</ele>
        <time>2020-06-02T14:51:06Z</time>
      </trkpt>
      <trkpt lat="46.31876" lon="-1.08242">
        <ele>2.3</ele>
        <time>2020-06-02T14:51:07Z</time>
      </trkpt>
      <trkpt lat="46.3187" lon="-1.08244">
        <ele>2.3</ele>
        <time>2020-06-02T14:51:08Z</time>
      </trkpt>
      <trkpt lat="46.31865" lon="-1.08246">
        <ele>2.3</ele>
        <time>2020-06-02T14:51:09Z</time>
      </trkpt>
      <trkpt lat="46.3186" lon="-1.08248">
        <ele>2.4</ele>
        <time>2020-06-02T14:51:10Z</time>
      </trkpt>
      <trkpt lat="46.31855" lon="-1.08248">
        <ele>2.4</ele>
        <time>2020-06-02T14:51:11Z</time>
      </trkpt>
      <trkpt lat="46.3185" lon="-1.08249">
        <ele>2.4</ele>
        <time>2020-06-02T14:51:12Z</time>
      </trkpt>
      <trkpt lat="46.31845" lon="-1.0825">
        <ele>2.4</ele>
        <time>2020-06-02T14:51:13Z</time>
      </trkpt>
      <trkpt lat="46.31839" lon="-1.0825">
        <ele>2.4</ele>
        <time>2020-06-02T14:51:14Z</time>
      </trkpt>
      <trkpt lat="46.31834" lon="-1.08251">
        <ele>2.5</ele>
        <time>2020-06-02T14:51:15Z</time>
      </trkpt>
      <trkpt lat="46.31828" lon="-1.0825">
        <ele>2.5</ele>
        <time>2020-06-02T14:51:16Z</time>
      </trkpt>
      <trkpt lat="46.31823" lon="-1.08249">
        <ele>2.5</ele>
        <time>2020-06-02T14:51:17Z</time>
      </trkpt>
      <trkpt lat="46.31817" lon="-1.08249">
        <ele>2.5</ele>
        <time>2020-06-02T14:51:18Z</time>
      </trkpt>
      <trkpt lat="46.31812" lon="-1.08249">
        <ele>2.5</ele>
        <time>2020-06-02T14:51:19Z</time>
      </trkpt>
      <trkpt lat="46.31807" lon="-1.08248">
        <ele>2.6</ele>
        <time>2020-06-02T14:51:20Z</time>
      </trkpt>
      <trkpt lat="46.31802" lon="-1.08246">
        <ele>2.6</ele>
        <time>2020-06-02T14:51:21Z</time>
      </trkpt>
      <trkpt lat="46.31798" lon="-1.08245">
        <ele>2.6</ele>
        <time>2020-06-02T14:51:22Z</time>
      </trkpt>
      <trkpt lat="46.31794" lon="-1.08244">
        <ele>2.6</ele>
        <time>2020-06-02T14:51:23Z</time>
      </trkpt>
      <trkpt lat="46.3179" lon="-1.08245">
        <ele>2.6</ele>
        <time>2020-06-02T14:51:24Z</time>
      </trkpt>
      <trkpt lat="46.31789" lon="-1.08245">
        <ele>2.6</ele>
        <time>2020-06-02T14:51:25Z</time>
      </trkpt>
      <trkpt lat="46.31788" lon="-1.08248">
        <ele>2.6</ele>
        <time>2020-06-02T14:51:26Z</time>
      </trkpt>
      <trkpt lat="46.31789" lon="-1.08254">
        <ele>2.8</ele>
        <time>2020-06-02T14:51:27Z</time>
      </trkpt>
      <trkpt lat="46.3179" lon="-1.08261">
        <ele>2.9</ele>
        <time>2020-06-02T14:51:28Z</time>
      </trkpt>
      <trkpt lat="46.3179" lon="-1.08269">
        <ele>3</ele>
        <time>2020-06-02T14:51:29Z</time>
      </trkpt>
      <trkpt lat="46.31789" lon="-1.08275">
        <ele>3.1</ele>
        <time>2020-06-02T14:51:30Z</time>
      </trkpt>
      <trkpt lat="46.3179" lon="-1.0828">
        <ele>3.2</ele>
        <time>2020-06-02T14:51:31Z</time>
      </trkpt>
      <trkpt lat="46.31789" lon="-1.08286">
        <ele>3.7</ele>
        <time>2020-06-02T14:51:32Z</time>
      </trkpt>
      <trkpt lat="46.3179" lon="-1.08291">
        <ele>3.8</ele>
        <time>2020-06-02T14:51:33Z</time>
      </trkpt>
      <trkpt lat="46.31787" lon="-1.08294">
        <ele>3.9</ele>
        <time>2020-06-02T14:51:34Z</time>
      </trkpt>
      <trkpt lat="46.31786" lon="-1.08295">
        <ele>3.9</ele>
        <time>2020-06-02T14:51:35Z</time>
      </trkpt>
      <trkpt lat="46.31784" lon="-1.08295">
        <ele>3.9</ele>
        <time>2020-06-02T14:51:36Z</time>
      </trkpt>
      <trkpt lat="46.31781" lon="-1.08294">
        <ele>4</ele>
        <time>2020-06-02T14:51:37Z</time>
      </trkpt>
      <trkpt lat="46.31778" lon="-1.08293">
        <ele>4.1</ele>
        <time>2020-06-02T14:51:38Z</time>
      </trkpt>
      <trkpt lat="46.31775" lon="-1.08293">
        <ele>4.1</ele>
        <time>2020-06-02T14:51:39Z</time>
      </trkpt>
      <trkpt lat="46.31772" lon="-1.08292">
        <ele>4.2</ele>
        <time>2020-06-02T14:51:40Z</time>
      </trkpt>
      <trkpt lat="46.31768" lon="-1.08292">
        <ele>4.3</ele>
        <time>2020-06-02T14:51:41Z</time>
      </trkpt>
      <trkpt lat="46.31767" lon="-1.08292">
        <ele>4.3</ele>
        <time>2020-06-02T14:51:42Z</time>
      </trkpt>
      <trkpt lat="46.31766" lon="-1.08291">
        <ele>4.3</ele>
        <time>2020-06-02T14:51:43Z</time>
      </trkpt>
      <trkpt lat="46.31764" lon="-1.0829">
        <ele>4.4</ele>
        <time>2020-06-02T14:51:44Z</time>
      </trkpt>
      <trkpt lat="46.31763" lon="-1.08291">
        <ele>4.4</ele>
        <time>2020-06-02T14:51:45Z</time>
      </trkpt>
      <trkpt lat="46.31764" lon="-1.08294">
        <ele>4.4</ele>
        <time>2020-06-02T14:51:46Z</time>
      </trkpt>
      <trkpt lat="46.31764" lon="-1.08299">
        <ele>4.4</ele>
        <time>2020-06-02T14:51:47Z</time>
      </trkpt>
      <trkpt lat="46.31764" lon="-1.08304">
        <ele>4.5</ele>
        <time>2020-06-02T14:51:48Z</time>
      </trkpt>
      <trkpt lat="46.31763" lon="-1.08309">
        <ele>4.5</ele>
        <time>2020-06-02T14:51:49Z</time>
      </trkpt>
      <trkpt lat="46.31763" lon="-1.08315">
        <ele>4.5</ele>
        <time>2020-06-02T14:51:50Z</time>
      </trkpt>
      <trkpt lat="46.31763" lon="-1.08321">
        <ele>4.5</ele>
        <time>2020-06-02T14:51:51Z</time>
      </trkpt>
      <trkpt lat="46.31762" lon="-1.08327">
        <ele>4.5</ele>
        <time>2020-06-02T14:51:52Z</time>
      </trkpt>
      <trkpt lat="46.31761" lon="-1.08333">
        <ele>4.5</ele>
        <time>2020-06-02T14:51:53Z</time>
      </trkpt>
      <trkpt lat="46.31761" lon="-1.08338">
        <ele>4.5</ele>
        <time>2020-06-02T14:51:54Z</time>
      </trkpt>
      <trkpt lat="46.31761" lon="-1.08344">
        <ele>4.5</ele>
        <time>2020-06-02T14:51:55Z</time>
      </trkpt>
      <trkpt lat="46.31761" lon="-1.0835">
        <ele>4.5</ele>
        <time>2020-06-02T14:51:56Z</time>
      </trkpt>
      <trkpt lat="46.31761" lon="-1.08356">
        <ele>4.6</ele>
        <time>2020-06-02T14:51:57Z</time>
      </trkpt>
      <trkpt lat="46.3176" lon="-1.08362">
        <ele>4.6</ele>
        <time>2020-06-02T14:51:58Z</time>
      </trkpt>
      <trkpt lat="46.3176" lon="-1.08368">
        <ele>4.6</ele>
        <time>2020-06-02T14:51:59Z</time>
      </trkpt>
      <trkpt lat="46.3176" lon="-1.08374">
        <ele>4.6</ele>
        <time>2020-06-02T14:52:00Z</time>
      </trkpt>
      <trkpt lat="46.31759" lon="-1.0838">
        <ele>4.6</ele>
        <time>2020-06-02T14:52:01Z</time>
      </trkpt>
      <trkpt lat="46.31759" lon="-1.08386">
        <ele>4.6</ele>
        <time>2020-06-02T14:52:02Z</time>
      </trkpt>
      <trkpt lat="46.31758" lon="-1.08392">
        <ele>4.6</ele>
        <time>2020-06-02T14:52:03Z</time>
      </trkpt>
      <trkpt lat="46.31757" lon="-1.08398">
        <ele>4.6</ele>
        <time>2020-06-02T14:52:04Z</time>
      </trkpt>
      <trkpt lat="46.31756" lon="-1.08404">
        <ele>4.6</ele>
        <time>2020-06-02T14:52:05Z</time>
      </trkpt>
      <trkpt lat="46.31755" lon="-1.0841">
        <ele>4.7</ele>
        <time>2020-06-02T14:52:06Z</time>
      </trkpt>
      <trkpt lat="46.31755" lon="-1.08417">
        <ele>4.7</ele>
        <time>2020-06-02T14:52:07Z</time>
      </trkpt>
      <trkpt lat="46.31754" lon="-1.08423">
        <ele>4.7</ele>
        <time>2020-06-02T14:52:08Z</time>
      </trkpt>
      <trkpt lat="46.31753" lon="-1.08429">
        <ele>4.8</ele>
        <time>2020-06-02T14:52:09Z</time>
      </trkpt>
      <trkpt lat="46.31753" lon="-1.08436">
        <ele>4.8</ele>
        <time>2020-06-02T14:52:10Z</time>
      </trkpt>
      <trkpt lat="46.31753" lon="-1.08441">
        <ele>4.8</ele>
        <time>2020-06-02T14:52:11Z</time>
      </trkpt>
      <trkpt lat="46.31753" lon="-1.08446">
        <ele>4.8</ele>
        <time>2020-06-02T14:52:12Z</time>
      </trkpt>
      <trkpt lat="46.31754" lon="-1.0845">
        <ele>4.9</ele>
        <time>2020-06-02T14:52:13Z</time>
      </trkpt>
      <trkpt lat="46.31756" lon="-1.08454">
        <ele>4.9</ele>
        <time>2020-06-02T14:52:14Z</time>
      </trkpt>
      <trkpt lat="46.31757" lon="-1.08458">
        <ele>4.9</ele>
        <time>2020-06-02T14:52:15Z</time>
      </trkpt>
      <trkpt lat="46.3176" lon="-1.08463">
        <ele>4.9</ele>
        <time>2020-06-02T14:52:16Z</time>
      </trkpt>
      <trkpt lat="46.31762" lon="-1.08468">
        <ele>4.9</ele>
        <time>2020-06-02T14:52:17Z</time>
      </trkpt>
      <trkpt lat="46.31764" lon="-1.08473">
        <ele>5</ele>
        <time>2020-06-02T14:52:18Z</time>
      </trkpt>
      <trkpt lat="46.31766" lon="-1.08478">
        <ele>5</ele>
        <time>2020-06-02T14:52:19Z</time>
      </trkpt>
      <trkpt lat="46.31768" lon="-1.08483">
        <ele>5</ele>
        <time>2020-06-02T14:52:20Z</time>
      </trkpt>
      <trkpt lat="46.3177" lon="-1.08488">
        <ele>5</ele>
        <time>2020-06-02T14:52:21Z</time>
      </trkpt>
      <trkpt lat="46.31772" lon="-1.08493">
        <ele>5</ele>
        <time>2020-06-02T14:52:22Z</time>
      </trkpt>
      <trkpt lat="46.31774" lon="-1.08498">
        <ele>5</ele>
        <time>2020-06-02T14:52:23Z</time>
      </trkpt>
      <trkpt lat="46.31777" lon="-1.08503">
        <ele>5</ele>
        <time>2020-06-02T14:52:24Z</time>
      </trkpt>
      <trkpt lat="46.3178" lon="-1.08508">
        <ele>5</ele>
        <time>2020-06-02T14:52:25Z</time>
      </trkpt>
      <trkpt lat="46.31782" lon="-1.08512">
        <ele>5.1</ele>
        <time>2020-06-02T14:52:26Z</time>
      </trkpt>
      <trkpt lat="46.31784" lon="-1.08516">
        <ele>5.1</ele>
        <time>2020-06-02T14:52:27Z</time>
      </trkpt>
      <trkpt lat="46.31785" lon="-1.08519">
        <ele>5.1</ele>
        <time>2020-06-02T14:52:28Z</time>
      </trkpt>
      <trkpt lat="46.31786" lon="-1.0852">
        <ele>5.1</ele>
        <time>2020-06-02T14:52:29Z</time>
      </trkpt>
      <trkpt lat="46.31786" lon="-1.0852">
        <ele>5.1</ele>
        <time>2020-06-02T14:52:30Z</time>
      </trkpt>
      <trkpt lat="46.31787" lon="-1.08519">
        <ele>5.1</ele>
        <time>2020-06-02T14:52:31Z</time>
      </trkpt>
      <trkpt lat="46.31787" lon="-1.08519">
        <ele>5.1</ele>
        <time>2020-06-02T14:52:32Z</time>
      </trkpt>
      <trkpt lat="46.31787" lon="-1.08519">
        <ele>5.1</ele>
        <time>2020-06-02T14:52:33Z</time>
      </trkpt>
      <trkpt lat="46.31787" lon="-1.08519">
        <ele>5.1</ele>
        <time>2020-06-02T14:52:34Z</time>
      </trkpt>
      <trkpt lat="46.31787" lon="-1.08519">
        <ele>5.1</ele>
        <time>2020-06-02T14:52:35Z</time>
      </trkpt>
      <trkpt lat="46.31787" lon="-1.08519">
        <ele>5.1</ele>
        <time>2020-06-02T14:52:36Z</time>
      </trkpt>
      <trkpt lat="46.31787" lon="-1.08519">
        <ele>5.1</ele>
        <time>2020-06-02T14:52:37Z</time>
      </trkpt>
      <trkpt lat="46.31787" lon="-1.08519">
        <ele>5.1</ele>
        <time>2020-06-02T14:52:38Z</time>
      </trkpt>
      <trkpt lat="46.31788" lon="-1.08518">
        <ele>5.1</ele>
        <time>2020-06-02T14:52:39Z</time>
      </trkpt>
      <trkpt lat="46.31787" lon="-1.08519">
        <ele>5.1</ele>
        <time>2020-06-02T14:52:40Z</time>
      </trkpt>
      <trkpt lat="46.31787" lon="-1.0852">
        <ele>5.1</ele>
        <time>2020-06-02T14:52:41Z</time>
      </trkpt>
      <trkpt lat="46.31787" lon="-1.0852">
        <ele>5.1</ele>
        <time>2020-06-02T14:52:42Z</time>
      </trkpt>
      <trkpt lat="46.31787" lon="-1.0852">
        <ele>5.1</ele>
        <time>2020-06-02T14:52:43Z</time>
      </trkpt>
      <trkpt lat="46.31787" lon="-1.0852">
        <ele>5.1</ele>
        <time>2020-06-02T14:52:44Z</time>
      </trkpt>
      <trkpt lat="46.31787" lon="-1.08519">
        <ele>5.1</ele>
        <time>2020-06-02T14:52:45Z</time>
      </trkpt>
      <trkpt lat="46.31787" lon="-1.08519">
        <ele>5.1</ele>
        <time>2020-06-02T14:52:46Z</time>
      </trkpt>
      <trkpt lat="46.31787" lon="-1.08519">
        <ele>5.1</ele>
        <time>2020-06-02T14:52:47Z</time>
      </trkpt>
      <trkpt lat="46.31787" lon="-1.08519">
        <ele>5.1</ele>
        <time>2020-06-02T14:52:48Z</time>
      </trkpt>
      <trkpt lat="46.31787" lon="-1.0852">
        <ele>5.1</ele>
        <time>2020-06-02T14:52:49Z</time>
      </trkpt>
      <trkpt lat="46.31786" lon="-1.0852">
        <ele>5.1</ele>
        <time>2020-06-02T14:52:50Z</time>
      </trkpt>
      <trkpt lat="46.31786" lon="-1.0852">
        <ele>5.1</ele>
        <time>2020-06-02T14:52:51Z</time>
      </trkpt>
      <trkpt lat="46.31786" lon="-1.0852">
        <ele>5.1</ele>
        <time>2020-06-02T14:52:52Z</time>
      </trkpt>
      <trkpt lat="46.31787" lon="-1.08519">
        <ele>5.1</ele>
        <time>2020-06-02T14:52:53Z</time>
      </trkpt>
      <trkpt lat="46.31786" lon="-1.08519">
        <ele>5.1</ele>
        <time>2020-06-02T14:52:54Z</time>
      </trkpt>
      <trkpt lat="46.31786" lon="-1.08519">
        <ele>5.1</ele>
        <time>2020-06-02T14:52:55Z</time>
      </trkpt>
      <trkpt lat="46.31786" lon="-1.0852">
        <ele>5.1</ele>
        <time>2020-06-02T14:52:56Z</time>
      </trkpt>
      <trkpt lat="46.31786" lon="-1.08519">
        <ele>5.1</ele>
        <time>2020-06-02T14:52:57Z</time>
      </trkpt>
      <trkpt lat="46.31786" lon="-1.0852">
        <ele>5.1</ele>
        <time>2020-06-02T14:52:58Z</time>
      </trkpt>
      <trkpt lat="46.31786" lon="-1.0852">
        <ele>5.1</ele>
        <time>2020-06-02T14:52:59Z</time>
      </trkpt>
      <trkpt lat="46.31787" lon="-1.0852">
        <ele>5.1</ele>
        <time>2020-06-02T14:53:00Z</time>
      </trkpt>
      <trkpt lat="46.31787" lon="-1.0852">
        <ele>5.1</ele>
        <time>2020-06-02T14:53:01Z</time>
      </trkpt>
      <trkpt lat="46.31787" lon="-1.0852">
        <ele>5.1</ele>
        <time>2020-06-02T14:53:02Z</time>
      </trkpt>
      <trkpt lat="46.31786" lon="-1.0852">
        <ele>5.1</ele>
        <time>2020-06-02T14:53:03Z</time>
      </trkpt>
      <trkpt lat="46.31786" lon="-1.0852">
        <ele>5.1</ele>
        <time>2020-06-02T14:53:04Z</time>
      </trkpt>
      <trkpt lat="46.31786" lon="-1.08521">
        <ele>5.1</ele>
        <time>2020-06-02T14:53:05Z</time>
      </trkpt>
      <trkpt lat="46.31785" lon="-1.08521">
        <ele>5.1</ele>
        <time>2020-06-02T14:53:06Z</time>
      </trkpt>
      <trkpt lat="46.31785" lon="-1.08521">
        <ele>5.2</ele>
        <time>2020-06-02T14:53:07Z</time>
      </trkpt>
      <trkpt lat="46.31785" lon="-1.08521">
        <ele>5.2</ele>
        <time>2020-06-02T14:53:08Z</time>
      </trkpt>
      <trkpt lat="46.31785" lon="-1.08522">
        <ele>5.2</ele>
        <time>2020-06-02T14:53:09Z</time>
      </trkpt>
      <trkpt lat="46.31785" lon="-1.08521">
        <ele>5.2</ele>
        <time>2020-06-02T14:53:10Z</time>
      </trkpt>
      <trkpt lat="46.31785" lon="-1.08521">
        <ele>5.2</ele>
        <time>2020-06-02T14:53:11Z</time>
      </trkpt>
      <trkpt lat="46.31786" lon="-1.0852">
        <ele>5.2</ele>
        <time>2020-06-02T14:53:12Z</time>
      </trkpt>
      <trkpt lat="46.31787" lon="-1.0852">
        <ele>5.2</ele>
        <time>2020-06-02T14:53:13Z</time>
      </trkpt>
      <trkpt lat="46.31787" lon="-1.0852">
        <ele>5.2</ele>
        <time>2020-06-02T14:53:14Z</time>
      </trkpt>
      <trkpt lat="46.31788" lon="-1.08519">
        <ele>5.2</ele>
        <time>2020-06-02T14:53:15Z</time>
      </trkpt>
      <trkpt lat="46.31788" lon="-1.08519">
        <ele>5.2</ele>
        <time>2020-06-02T14:53:16Z</time>
      </trkpt>
      <trkpt lat="46.31788" lon="-1.08519">
        <ele>5.2</ele>
        <time>2020-06-02T14:53:17Z</time>
      </trkpt>
      <trkpt lat="46.31788" lon="-1.08519">
        <ele>5.2</ele>
        <time>2020-06-02T14:53:18Z</time>
      </trkpt>
      <trkpt lat="46.31787" lon="-1.08519">
        <ele>5.2</ele>
        <time>2020-06-02T14:53:19Z</time>
      </trkpt>
      <trkpt lat="46.31787" lon="-1.0852">
        <ele>5.2</ele>
        <time>2020-06-02T14:53:20Z</time>
      </trkpt>
      <trkpt lat="46.31787" lon="-1.0852">
        <ele>5.2</ele>
        <time>2020-06-02T14:53:21Z</time>
      </trkpt>
      <trkpt lat="46.31787" lon="-1.0852">
        <ele>5.2</ele>
        <time>2020-06-02T14:53:22Z</time>
      </trkpt>
      <trkpt lat="46.31787" lon="-1.0852">
        <ele>5.2</ele>
        <time>2020-06-02T14:53:23Z</time>
      </trkpt>
      <trkpt lat="46.31788" lon="-1.0852">
        <ele>5.2</ele>
        <time>2020-06-02T14:53:24Z</time>
      </trkpt>
      <trkpt lat="46.31788" lon="-1.0852">
        <ele>5.2</ele>
        <time>2020-06-02T14:53:25Z</time>
      </trkpt>
      <trkpt lat="46.31788" lon="-1.0852">
        <ele>5.2</ele>
        <time>2020-06-02T14:53:26Z</time>
      </trkpt>
      <trkpt lat="46.31787" lon="-1.0852">
        <ele>5.2</ele>
        <time>2020-06-02T14:53:27Z</time>
      </trkpt>
      <trkpt lat="46.31787" lon="-1.08521">
        <ele>5.2</ele>
        <time>2020-06-02T14:53:28Z</time>
      </trkpt>
      <trkpt lat="46.31787" lon="-1.08521">
        <ele>5.2</ele>
        <time>2020-06-02T14:53:29Z</time>
      </trkpt>
      <trkpt lat="46.31787" lon="-1.08521">
        <ele>5.2</ele>
        <time>2020-06-02T14:53:30Z</time>
      </trkpt>
      <trkpt lat="46.31787" lon="-1.08521">
        <ele>5.2</ele>
        <time>2020-06-02T14:53:31Z</time>
      </trkpt>
      <trkpt lat="46.31787" lon="-1.08521">
        <ele>5.2</ele>
        <time>2020-06-02T14:53:32Z</time>
      </trkpt>
      <trkpt lat="46.31787" lon="-1.08521">
        <ele>5.2</ele>
        <time>2020-06-02T14:53:33Z</time>
      </trkpt>
      <trkpt lat="46.31787" lon="-1.08521">
        <ele>5.2</ele>
        <time>2020-06-02T14:53:34Z</time>
      </trkpt>
      <trkpt lat="46.31787" lon="-1.08521">
        <ele>5.2</ele>
        <time>2020-06-02T14:53:35Z</time>
      </trkpt>
      <trkpt lat="46.31787" lon="-1.08522">
        <ele>5.2</ele>
        <time>2020-06-02T14:53:36Z</time>
      </trkpt>
      <trkpt lat="46.31787" lon="-1.08522">
        <ele>5.2</ele>
        <time>2020-06-02T14:53:37Z</time>
      </trkpt>
      <trkpt lat="46.31787" lon="-1.08522">
        <ele>5.2</ele>
        <time>2020-06-02T14:53:38Z</time>
      </trkpt>
      <trkpt lat="46.31787" lon="-1.08521">
        <ele>5.2</ele>
        <time>2020-06-02T14:53:39Z</time>
      </trkpt>
      <trkpt lat="46.31787" lon="-1.08521">
        <ele>5.2</ele>
        <time>2020-06-02T14:53:40Z</time>
      </trkpt>
      <trkpt lat="46.31786" lon="-1.08522">
        <ele>5.2</ele>
        <time>2020-06-02T14:53:41Z</time>
      </trkpt>
      <trkpt lat="46.31786" lon="-1.08521">
        <ele>5.2</ele>
        <time>2020-06-02T14:53:42Z</time>
      </trkpt>
      <trkpt lat="46.31786" lon="-1.08522">
        <ele>5.2</ele>
        <time>2020-06-02T14:53:43Z</time>
      </trkpt>
      <trkpt lat="46.31787" lon="-1.08522">
        <ele>5.2</ele>
        <time>2020-06-02T14:53:44Z</time>
      </trkpt>
      <trkpt lat="46.31787" lon="-1.08522">
        <ele>5.2</ele>
        <time>2020-06-02T14:53:45Z</time>
      </trkpt>
      <trkpt lat="46.31788" lon="-1.08522">
        <ele>5.2</ele>
        <time>2020-06-02T14:53:46Z</time>
      </trkpt>
      <trkpt lat="46.31787" lon="-1.08522">
        <ele>5.2</ele>
        <time>2020-06-02T14:53:47Z</time>
      </trkpt>
      <trkpt lat="46.31787" lon="-1.08522">
        <ele>5.2</ele>
        <time>2020-06-02T14:53:48Z</time>
      </trkpt>
      <trkpt lat="46.31787" lon="-1.08523">
        <ele>5.2</ele>
        <time>2020-06-02T14:53:49Z</time>
      </trkpt>
      <trkpt lat="46.31787" lon="-1.08523">
        <ele>5.2</ele>
        <time>2020-06-02T14:53:50Z</time>
      </trkpt>
      <trkpt lat="46.31787" lon="-1.08523">
        <ele>5.2</ele>
        <time>2020-06-02T14:53:51Z</time>
      </trkpt>
      <trkpt lat="46.31788" lon="-1.08522">
        <ele>5.2</ele>
        <time>2020-06-02T14:53:52Z</time>
      </trkpt>
      <trkpt lat="46.31788" lon="-1.08521">
        <ele>5.2</ele>
        <time>2020-06-02T14:53:53Z</time>
      </trkpt>
      <trkpt lat="46.31788" lon="-1.08522">
        <ele>5.2</ele>
        <time>2020-06-02T14:53:54Z</time>
      </trkpt>
      <trkpt lat="46.31788" lon="-1.08521">
        <ele>5.2</ele>
        <time>2020-06-02T14:53:55Z</time>
      </trkpt>
      <trkpt lat="46.31789" lon="-1.0852">
        <ele>5.2</ele>
        <time>2020-06-02T14:53:56Z</time>
      </trkpt>
      <trkpt lat="46.31789" lon="-1.0852">
        <ele>5.2</ele>
        <time>2020-06-02T14:53:57Z</time>
      </trkpt>
      <trkpt lat="46.31789" lon="-1.08522">
        <ele>5.2</ele>
        <time>2020-06-02T14:53:58Z</time>
      </trkpt>
      <trkpt lat="46.3179" lon="-1.08523">
        <ele>5.2</ele>
        <time>2020-06-02T14:53:59Z</time>
      </trkpt>
      <trkpt lat="46.31791" lon="-1.08523">
        <ele>5.2</ele>
        <time>2020-06-02T14:54:00Z</time>
      </trkpt>
      <trkpt lat="46.31791" lon="-1.08523">
        <ele>5.2</ele>
        <time>2020-06-02T14:54:01Z</time>
      </trkpt>
      <trkpt lat="46.31792" lon="-1.08523">
        <ele>5.2</ele>
        <time>2020-06-02T14:54:02Z</time>
      </trkpt>
      <trkpt lat="46.31792" lon="-1.08524">
        <ele>5.2</ele>
        <time>2020-06-02T14:54:03Z</time>
      </trkpt>
      <trkpt lat="46.31792" lon="-1.08524">
        <ele>5.2</ele>
        <time>2020-06-02T14:54:04Z</time>
      </trkpt>
      <trkpt lat="46.31793" lon="-1.08524">
        <ele>5.2</ele>
        <time>2020-06-02T14:54:05Z</time>
      </trkpt>
      <trkpt lat="46.31793" lon="-1.08524">
        <ele>5.2</ele>
        <time>2020-06-02T14:54:06Z</time>
      </trkpt>
      <trkpt lat="46.31793" lon="-1.08524">
        <ele>5.2</ele>
        <time>2020-06-02T14:54:07Z</time>
      </trkpt>
      <trkpt lat="46.31794" lon="-1.08524">
        <ele>5.2</ele>
        <time>2020-06-02T14:54:08Z</time>
      </trkpt>
      <trkpt lat="46.31794" lon="-1.08525">
        <ele>5.2</ele>
        <time>2020-06-02T14:54:09Z</time>
      </trkpt>
      <trkpt lat="46.31794" lon="-1.08525">
        <ele>5.2</ele>
        <time>2020-06-02T14:54:10Z</time>
      </trkpt>
      <trkpt lat="46.31796" lon="-1.08525">
        <ele>5.2</ele>
        <time>2020-06-02T14:54:11Z</time>
      </trkpt>
      <trkpt lat="46.31797" lon="-1.08524">
        <ele>5.2</ele>
        <time>2020-06-02T14:54:12Z</time>
      </trkpt>
      <trkpt lat="46.31797" lon="-1.08524">
        <ele>5.2</ele>
        <time>2020-06-02T14:54:13Z</time>
      </trkpt>
      <trkpt lat="46.31797" lon="-1.08524">
        <ele>5.2</ele>
        <time>2020-06-02T14:54:14Z</time>
      </trkpt>
      <trkpt lat="46.31797" lon="-1.08523">
        <ele>5.2</ele>
        <time>2020-06-02T14:54:15Z</time>
      </trkpt>
      <trkpt lat="46.31798" lon="-1.08521">
        <ele>5.2</ele>
        <time>2020-06-02T14:54:16Z</time>
      </trkpt>
      <trkpt lat="46.31798" lon="-1.0852">
        <ele>5.2</ele>
        <time>2020-06-02T14:54:17Z</time>
      </trkpt>
      <trkpt lat="46.31797" lon="-1.08518">
        <ele>5.2</ele>
        <time>2020-06-02T14:54:18Z</time>
      </trkpt>
      <trkpt lat="46.31797" lon="-1.08518">
        <ele>5.2</ele>
        <time>2020-06-02T14:54:19Z</time>
      </trkpt>
      <trkpt lat="46.31798" lon="-1.08517">
        <ele>5.2</ele>
        <time>2020-06-02T14:54:20Z</time>
      </trkpt>
      <trkpt lat="46.31797" lon="-1.08516">
        <ele>5.2</ele>
        <time>2020-06-02T14:54:21Z</time>
      </trkpt>
      <trkpt lat="46.31797" lon="-1.08515">
        <ele>5.2</ele>
        <time>2020-06-02T14:54:22Z</time>
      </trkpt>
      <trkpt lat="46.31796" lon="-1.08515">
        <ele>5.2</ele>
        <time>2020-06-02T14:54:23Z</time>
      </trkpt>
      <trkpt lat="46.31797" lon="-1.08514">
        <ele>5.2</ele>
        <time>2020-06-02T14:54:24Z</time>
      </trkpt>
      <trkpt lat="46.31797" lon="-1.08515">
        <ele>5.2</ele>
        <time>2020-06-02T14:54:25Z</time>
      </trkpt>
      <trkpt lat="46.31796" lon="-1.08514">
        <ele>5.2</ele>
        <time>2020-06-02T14:54:26Z</time>
      </trkpt>
      <trkpt lat="46.31796" lon="-1.08513">
        <ele>5.2</ele>
        <time>2020-06-02T14:54:27Z</time>
      </trkpt>
      <trkpt lat="46.31796" lon="-1.08513">
        <ele>5.2</ele>
        <time>2020-06-02T14:54:28Z</time>
      </trkpt>
      <trkpt lat="46.31796" lon="-1.08513">
        <ele>5.2</ele>
        <time>2020-06-02T14:54:29Z</time>
      </trkpt>
      <trkpt lat="46.31796" lon="-1.08513">
        <ele>5.2</ele>
        <time>2020-06-02T14:54:30Z</time>
      </trkpt>
      <trkpt lat="46.31796" lon="-1.08513">
        <ele>5.2</ele>
        <time>2020-06-02T14:54:31Z</time>
      </trkpt>
      <trkpt lat="46.31796" lon="-1.08513">
        <ele>5.2</ele>
        <time>2020-06-02T14:54:32Z</time>
      </trkpt>
      <trkpt lat="46.31796" lon="-1.08515">
        <ele>5.2</ele>
        <time>2020-06-02T14:54:33Z</time>
      </trkpt>
      <trkpt lat="46.31796" lon="-1.08515">
        <ele>5.2</ele>
        <time>2020-06-02T14:54:34Z</time>
      </trkpt>
      <trkpt lat="46.31796" lon="-1.08515">
        <ele>5.2</ele>
        <time>2020-06-02T14:54:35Z</time>
      </trkpt>
      <trkpt lat="46.31796" lon="-1.08516">
        <ele>5.2</ele>
        <time>2020-06-02T14:54:36Z</time>
      </trkpt>
      <trkpt lat="46.31796" lon="-1.08517">
        <ele>5.2</ele>
        <time>2020-06-02T14:54:37Z</time>
      </trkpt>
      <trkpt lat="46.31796" lon="-1.08517">
        <ele>5.2</ele>
        <time>2020-06-02T14:54:38Z</time>
      </trkpt>
      <trkpt lat="46.31796" lon="-1.08517">
        <ele>5.2</ele>
        <time>2020-06-02T14:54:39Z</time>
      </trkpt>
      <trkpt lat="46.31795" lon="-1.08517">
        <ele>5.2</ele>
        <time>2020-06-02T14:54:40Z</time>
      </trkpt>
      <trkpt lat="46.31795" lon="-1.08517">
        <ele>5.2</ele>
        <time>2020-06-02T14:54:41Z</time>
      </trkpt>
      <trkpt lat="46.31794" lon="-1.08518">
        <ele>5.2</ele>
        <time>2020-06-02T14:54:42Z</time>
      </trkpt>
      <trkpt lat="46.31793" lon="-1.08518">
        <ele>5.2</ele>
        <time>2020-06-02T14:54:43Z</time>
      </trkpt>
      <trkpt lat="46.31793" lon="-1.08519">
        <ele>5.2</ele>
        <time>2020-06-02T14:54:44Z</time>
      </trkpt>
      <trkpt lat="46.31794" lon="-1.08519">
        <ele>5.2</ele>
        <time>2020-06-02T14:54:45Z</time>
      </trkpt>
      <trkpt lat="46.31794" lon="-1.0852">
        <ele>5.2</ele>
        <time>2020-06-02T14:54:46Z</time>
      </trkpt>
      <trkpt lat="46.31794" lon="-1.08521">
        <ele>5.2</ele>
        <time>2020-06-02T14:54:47Z</time>
      </trkpt>
      <trkpt lat="46.31794" lon="-1.08521">
        <ele>5.2</ele>
        <time>2020-06-02T14:54:48Z</time>
      </trkpt>
      <trkpt lat="46.31794" lon="-1.08521">
        <ele>5.2</ele>
        <time>2020-06-02T14:54:49Z</time>
      </trkpt>
      <trkpt lat="46.31794" lon="-1.08521">
        <ele>5.2</ele>
        <time>2020-06-02T14:54:50Z</time>
      </trkpt>
      <trkpt lat="46.31794" lon="-1.08521">
        <ele>5.2</ele>
        <time>2020-06-02T14:54:51Z</time>
      </trkpt>
      <trkpt lat="46.31794" lon="-1.08521">
        <ele>5.2</ele>
        <time>2020-06-02T14:54:52Z</time>
      </trkpt>
      <trkpt lat="46.31794" lon="-1.08521">
        <ele>5.2</ele>
        <time>2020-06-02T14:54:53Z</time>
      </trkpt>
      <trkpt lat="46.31795" lon="-1.08521">
        <ele>5.2</ele>
        <time>2020-06-02T14:54:54Z</time>
      </trkpt>
      <trkpt lat="46.31794" lon="-1.08522">
        <ele>5.2</ele>
        <time>2020-06-02T14:54:55Z</time>
      </trkpt>
      <trkpt lat="46.31794" lon="-1.08523">
        <ele>5.2</ele>
        <time>2020-06-02T14:54:56Z</time>
      </trkpt>
      <trkpt lat="46.31794" lon="-1.08524">
        <ele>5.2</ele>
        <time>2020-06-02T14:54:57Z</time>
      </trkpt>
      <trkpt lat="46.31793" lon="-1.08524">
        <ele>5.2</ele>
        <time>2020-06-02T14:54:58Z</time>
      </trkpt>
      <trkpt lat="46.31793" lon="-1.08524">
        <ele>5.2</ele>
        <time>2020-06-02T14:54:59Z</time>
      </trkpt>
      <trkpt lat="46.31793" lon="-1.08524">
        <ele>5.2</ele>
        <time>2020-06-02T14:55:00Z</time>
      </trkpt>
      <trkpt lat="46.31793" lon="-1.08524">
        <ele>5.2</ele>
        <time>2020-06-02T14:55:01Z</time>
      </trkpt>
      <trkpt lat="46.31792" lon="-1.08525">
        <ele>5.2</ele>
        <time>2020-06-02T14:55:02Z</time>
      </trkpt>
      <trkpt lat="46.31791" lon="-1.08525">
        <ele>5.2</ele>
        <time>2020-06-02T14:55:03Z</time>
      </trkpt>
      <trkpt lat="46.31791" lon="-1.08525">
        <ele>5.2</ele>
        <time>2020-06-02T14:55:04Z</time>
      </trkpt>
      <trkpt lat="46.31791" lon="-1.08526">
        <ele>5.2</ele>
        <time>2020-06-02T14:55:05Z</time>
      </trkpt>
      <trkpt lat="46.31791" lon="-1.08526">
        <ele>5.2</ele>
        <time>2020-06-02T14:55:06Z</time>
      </trkpt>
      <trkpt lat="46.3179" lon="-1.08527">
        <ele>5.2</ele>
        <time>2020-06-02T14:55:07Z</time>
      </trkpt>
      <trkpt lat="46.3179" lon="-1.08527">
        <ele>5.2</ele>
        <time>2020-06-02T14:55:08Z</time>
      </trkpt>
      <trkpt lat="46.31789" lon="-1.08528">
        <ele>5.2</ele>
        <time>2020-06-02T14:55:09Z</time>
      </trkpt>
      <trkpt lat="46.31789" lon="-1.08528">
        <ele>5.2</ele>
        <time>2020-06-02T14:55:10Z</time>
      </trkpt>
      <trkpt lat="46.31788" lon="-1.08528">
        <ele>5.2</ele>
        <time>2020-06-02T14:55:11Z</time>
      </trkpt>
      <trkpt lat="46.31787" lon="-1.08528">
        <ele>5.2</ele>
        <time>2020-06-02T14:55:12Z</time>
      </trkpt>
      <trkpt lat="46.31786" lon="-1.08528">
        <ele>5.2</ele>
        <time>2020-06-02T14:55:13Z</time>
      </trkpt>
      <trkpt lat="46.31787" lon="-1.08528">
        <ele>5.2</ele>
        <time>2020-06-02T14:55:14Z</time>
      </trkpt>
      <trkpt lat="46.31787" lon="-1.08528">
        <ele>5.2</ele>
        <time>2020-06-02T14:55:15Z</time>
      </trkpt>
      <trkpt lat="46.31786" lon="-1.08528">
        <ele>5.2</ele>
        <time>2020-06-02T14:55:16Z</time>
      </trkpt>
      <trkpt lat="46.31786" lon="-1.08528">
        <ele>5.2</ele>
        <time>2020-06-02T14:55:17Z</time>
      </trkpt>
      <trkpt lat="46.31786" lon="-1.08528">
        <ele>5.2</ele>
        <time>2020-06-02T14:55:18Z</time>
      </trkpt>
      <trkpt lat="46.31786" lon="-1.08528">
        <ele>5.2</ele>
        <time>2020-06-02T14:55:19Z</time>
      </trkpt>
      <trkpt lat="46.31786" lon="-1.08528">
        <ele>5.2</ele>
        <time>2020-06-02T14:55:20Z</time>
      </trkpt>
      <trkpt lat="46.31786" lon="-1.08528">
        <ele>5.2</ele>
        <time>2020-06-02T14:55:21Z</time>
      </trkpt>
      <trkpt lat="46.31785" lon="-1.08528">
        <ele>5.2</ele>
        <time>2020-06-02T14:55:22Z</time>
      </trkpt>
      <trkpt lat="46.31785" lon="-1.08529">
        <ele>5.2</ele>
        <time>2020-06-02T14:55:23Z</time>
      </trkpt>
      <trkpt lat="46.31784" lon="-1.08529">
        <ele>5.2</ele>
        <time>2020-06-02T14:55:24Z</time>
      </trkpt>
      <trkpt lat="46.31783" lon="-1.0853">
        <ele>5.2</ele>
        <time>2020-06-02T14:55:25Z</time>
      </trkpt>
      <trkpt lat="46.31783" lon="-1.08529">
        <ele>5.2</ele>
        <time>2020-06-02T14:55:26Z</time>
      </trkpt>
      <trkpt lat="46.31783" lon="-1.08529">
        <ele>5.2</ele>
        <time>2020-06-02T14:55:27Z</time>
      </trkpt>
      <trkpt lat="46.31783" lon="-1.08528">
        <ele>5.2</ele>
        <time>2020-06-02T14:55:28Z</time>
      </trkpt>
      <trkpt lat="46.31783" lon="-1.08528">
        <ele>5.2</ele>
        <time>2020-06-02T14:55:29Z</time>
      </trkpt>
      <trkpt lat="46.31783" lon="-1.08528">
        <ele>5.2</ele>
        <time>2020-06-02T14:55:30Z</time>
      </trkpt>
      <trkpt lat="46.31783" lon="-1.08527">
        <ele>5.2</ele>
        <time>2020-06-02T14:55:31Z</time>
      </trkpt>
      <trkpt lat="46.31783" lon="-1.08527">
        <ele>5.2</ele>
        <time>2020-06-02T14:55:32Z</time>
      </trkpt>
      <trkpt lat="46.31783" lon="-1.08526">
        <ele>5.2</ele>
        <time>2020-06-02T14:55:33Z</time>
      </trkpt>
      <trkpt lat="46.31783" lon="-1.08526">
        <ele>5.2</ele>
        <time>2020-06-02T14:55:34Z</time>
      </trkpt>
      <trkpt lat="46.31783" lon="-1.08526">
        <ele>5.2</ele>
        <time>2020-06-02T14:55:35Z</time>
      </trkpt>
      <trkpt lat="46.31783" lon="-1.08525">
        <ele>5.2</ele>
        <time>2020-06-02T14:55:36Z</time>
      </trkpt>
      <trkpt lat="46.31783" lon="-1.08525">
        <ele>5.2</ele>
        <time>2020-06-02T14:55:37Z</time>
      </trkpt>
      <trkpt lat="46.31783" lon="-1.08524">
        <ele>5.2</ele>
        <time>2020-06-02T14:55:38Z</time>
      </trkpt>
      <trkpt lat="46.31783" lon="-1.08524">
        <ele>5.2</ele>
        <time>2020-06-02T14:55:39Z</time>
      </trkpt>
      <trkpt lat="46.31784" lon="-1.08523">
        <ele>5.2</ele>
        <time>2020-06-02T14:55:40Z</time>
      </trkpt>
      <trkpt lat="46.31785" lon="-1.08522">
        <ele>5.2</ele>
        <time>2020-06-02T14:55:41Z</time>
      </trkpt>
      <trkpt lat="46.31785" lon="-1.08521">
        <ele>5.2</ele>
        <time>2020-06-02T14:55:42Z</time>
      </trkpt>
      <trkpt lat="46.31785" lon="-1.08521">
        <ele>5.2</ele>
        <time>2020-06-02T14:55:43Z</time>
      </trkpt>
      <trkpt lat="46.31785" lon="-1.08521">
        <ele>5.2</ele>
        <time>2020-06-02T14:55:44Z</time>
      </trkpt>
      <trkpt lat="46.31785" lon="-1.08521">
        <ele>5.2</ele>
        <time>2020-06-02T14:55:45Z</time>
      </trkpt>
      <trkpt lat="46.31785" lon="-1.08521">
        <ele>5.2</ele>
        <time>2020-06-02T14:55:46Z</time>
      </trkpt>
      <trkpt lat="46.31785" lon="-1.08521">
        <ele>5.2</ele>
        <time>2020-06-02T14:55:47Z</time>
      </trkpt>
      <trkpt lat="46.31785" lon="-1.0852">
        <ele>5.2</ele>
        <time>2020-06-02T14:55:48Z</time>
      </trkpt>
      <trkpt lat="46.31786" lon="-1.08521">
        <ele>5.2</ele>
        <time>2020-06-02T14:55:49Z</time>
      </trkpt>
      <trkpt lat="46.31786" lon="-1.08521">
        <ele>5.2</ele>
        <time>2020-06-02T14:55:50Z</time>
      </trkpt>
      <trkpt lat="46.31786" lon="-1.0852">
        <ele>5.2</ele>
        <time>2020-06-02T14:55:51Z</time>
      </trkpt>
      <trkpt lat="46.31786" lon="-1.0852">
        <ele>5.2</ele>
        <time>2020-06-02T14:55:52Z</time>
      </trkpt>
      <trkpt lat="46.31786" lon="-1.0852">
        <ele>5.2</ele>
        <time>2020-06-02T14:55:53Z</time>
      </trkpt>
      <trkpt lat="46.31786" lon="-1.0852">
        <ele>5.2</ele>
        <time>2020-06-02T14:55:54Z</time>
      </trkpt>
      <trkpt lat="46.31786" lon="-1.0852">
        <ele>5.2</ele>
        <time>2020-06-02T14:55:55Z</time>
      </trkpt>
      <trkpt lat="46.31787" lon="-1.0852">
        <ele>5.2</ele>
        <time>2020-06-02T14:55:56Z</time>
      </trkpt>
      <trkpt lat="46.31787" lon="-1.0852">
        <ele>5.2</ele>
        <time>2020-06-02T14:55:57Z</time>
      </trkpt>
      <trkpt lat="46.31787" lon="-1.0852">
        <ele>5.2</ele>
        <time>2020-06-02T14:55:58Z</time>
      </trkpt>
      <trkpt lat="46.31787" lon="-1.0852">
        <ele>5.2</ele>
        <time>2020-06-02T14:55:59Z</time>
      </trkpt>
      <trkpt lat="46.31787" lon="-1.0852">
        <ele>5.2</ele>
        <time>2020-06-02T14:56:00Z</time>
      </trkpt>
      <trkpt lat="46.31787" lon="-1.0852">
        <ele>5.2</ele>
        <time>2020-06-02T14:56:01Z</time>
      </trkpt>
      <trkpt lat="46.31787" lon="-1.0852">
        <ele>5.2</ele>
        <time>2020-06-02T14:56:02Z</time>
      </trkpt>
      <trkpt lat="46.31786" lon="-1.0852">
        <ele>5.2</ele>
        <time>2020-06-02T14:56:03Z</time>
      </trkpt>
      <trkpt lat="46.31786" lon="-1.0852">
        <ele>5.2</ele>
        <time>2020-06-02T14:56:04Z</time>
      </trkpt>
      <trkpt lat="46.31786" lon="-1.08519">
        <ele>5.2</ele>
        <time>2020-06-02T14:56:05Z</time>
      </trkpt>
      <trkpt lat="46.31786" lon="-1.08519">
        <ele>5.2</ele>
        <time>2020-06-02T14:56:06Z</time>
      </trkpt>
      <trkpt lat="46.31787" lon="-1.08519">
        <ele>5.2</ele>
        <time>2020-06-02T14:56:07Z</time>
      </trkpt>
      <trkpt lat="46.31787" lon="-1.0852">
        <ele>5.2</ele>
        <time>2020-06-02T14:56:08Z</time>
      </trkpt>
      <trkpt lat="46.31788" lon="-1.0852">
        <ele>5.2</ele>
        <time>2020-06-02T14:56:09Z</time>
      </trkpt>
      <trkpt lat="46.31788" lon="-1.08521">
        <ele>5.2</ele>
        <time>2020-06-02T14:56:10Z</time>
      </trkpt>
      <trkpt lat="46.31788" lon="-1.08521">
        <ele>5.2</ele>
        <time>2020-06-02T14:56:11Z</time>
      </trkpt>
      <trkpt lat="46.31788" lon="-1.08521">
        <ele>5.2</ele>
        <time>2020-06-02T14:56:12Z</time>
      </trkpt>
      <trkpt lat="46.31789" lon="-1.08521">
        <ele>5.2</ele>
        <time>2020-06-02T14:56:13Z</time>
      </trkpt>
      <trkpt lat="46.31789" lon="-1.08521">
        <ele>5.2</ele>
        <time>2020-06-02T14:56:14Z</time>
      </trkpt>
      <trkpt lat="46.31789" lon="-1.08521">
        <ele>5.2</ele>
        <time>2020-06-02T14:56:15Z</time>
      </trkpt>
      <trkpt lat="46.31789" lon="-1.08521">
        <ele>5.2</ele>
        <time>2020-06-02T14:56:16Z</time>
      </trkpt>
      <trkpt lat="46.31789" lon="-1.08521">
        <ele>5.2</ele>
        <time>2020-06-02T14:56:17Z</time>
      </trkpt>
      <trkpt lat="46.31789" lon="-1.08521">
        <ele>5.2</ele>
        <time>2020-06-02T14:56:18Z</time>
      </trkpt>
      <trkpt lat="46.3179" lon="-1.08522">
        <ele>5.2</ele>
        <time>2020-06-02T14:56:19Z</time>
      </trkpt>
      <trkpt lat="46.3179" lon="-1.08522">
        <ele>5.2</ele>
        <time>2020-06-02T14:56:20Z</time>
      </trkpt>
      <trkpt lat="46.3179" lon="-1.08522">
        <ele>5.2</ele>
        <time>2020-06-02T14:56:21Z</time>
      </trkpt>
      <trkpt lat="46.3179" lon="-1.08522">
        <ele>5.2</ele>
        <time>2020-06-02T14:56:22Z</time>
      </trkpt>
      <trkpt lat="46.3179" lon="-1.08522">
        <ele>5.2</ele>
        <time>2020-06-02T14:56:23Z</time>
      </trkpt>
      <trkpt lat="46.31791" lon="-1.08522">
        <ele>5.2</ele>
        <time>2020-06-02T14:56:24Z</time>
      </trkpt>
      <trkpt lat="46.31791" lon="-1.08522">
        <ele>5.2</ele>
        <time>2020-06-02T14:56:25Z</time>
      </trkpt>
      <trkpt lat="46.31791" lon="-1.08522">
        <ele>5.2</ele>
        <time>2020-06-02T14:56:26Z</time>
      </trkpt>
      <trkpt lat="46.31791" lon="-1.08522">
        <ele>5.2</ele>
        <time>2020-06-02T14:56:27Z</time>
      </trkpt>
      <trkpt lat="46.31791" lon="-1.08522">
        <ele>5.2</ele>
        <time>2020-06-02T14:56:28Z</time>
      </trkpt>
      <trkpt lat="46.31791" lon="-1.08522">
        <ele>5.2</ele>
        <time>2020-06-02T14:56:29Z</time>
      </trkpt>
      <trkpt lat="46.31792" lon="-1.08522">
        <ele>5.2</ele>
        <time>2020-06-02T14:56:30Z</time>
      </trkpt>
      <trkpt lat="46.31792" lon="-1.08522">
        <ele>5.2</ele>
        <time>2020-06-02T14:56:31Z</time>
      </trkpt>
      <trkpt lat="46.31792" lon="-1.08522">
        <ele>5.2</ele>
        <time>2020-06-02T14:56:32Z</time>
      </trkpt>
      <trkpt lat="46.31792" lon="-1.08522">
        <ele>5.2</ele>
        <time>2020-06-02T14:56:33Z</time>
      </trkpt>
      <trkpt lat="46.31792" lon="-1.08522">
        <ele>5.2</ele>
        <time>2020-06-02T14:56:34Z</time>
      </trkpt>
      <trkpt lat="46.31795" lon="-1.08526">
        <ele>5.2</ele>
        <time>2020-06-02T14:56:35Z</time>
      </trkpt>
      <trkpt lat="46.31796" lon="-1.08527">
        <ele>5.1</ele>
        <time>2020-06-02T14:56:36Z</time>
      </trkpt>
      <trkpt lat="46.31798" lon="-1.0853">
        <ele>5.1</ele>
        <time>2020-06-02T14:56:37Z</time>
      </trkpt>
      <trkpt lat="46.31798" lon="-1.08531">
        <ele>5.1</ele>
        <time>2020-06-02T14:56:38Z</time>
      </trkpt>
      <trkpt lat="46.318" lon="-1.08535">
        <ele>5.1</ele>
        <time>2020-06-02T14:56:39Z</time>
      </trkpt>
      <trkpt lat="46.318" lon="-1.08537">
        <ele>5.1</ele>
        <time>2020-06-02T14:56:40Z</time>
      </trkpt>
      <trkpt lat="46.31802" lon="-1.0854">
        <ele>5.1</ele>
        <time>2020-06-02T14:56:41Z</time>
      </trkpt>
      <trkpt lat="46.31803" lon="-1.08541">
        <ele>5.1</ele>
        <time>2020-06-02T14:56:42Z</time>
      </trkpt>
      <trkpt lat="46.31805" lon="-1.08547">
        <ele>5.1</ele>
        <time>2020-06-02T14:56:43Z</time>
      </trkpt>
      <trkpt lat="46.31806" lon="-1.08549">
        <ele>5.1</ele>
        <time>2020-06-02T14:56:44Z</time>
      </trkpt>
      <trkpt lat="46.31808" lon="-1.08554">
        <ele>5.1</ele>
        <time>2020-06-02T14:56:45Z</time>
      </trkpt>
      <trkpt lat="46.31809" lon="-1.08558">
        <ele>5.1</ele>
        <time>2020-06-02T14:56:46Z</time>
      </trkpt>
      <trkpt lat="46.31811" lon="-1.08562">
        <ele>5.1</ele>
        <time>2020-06-02T14:56:47Z</time>
      </trkpt>
      <trkpt lat="46.31813" lon="-1.08566">
        <ele>5.1</ele>
        <time>2020-06-02T14:56:48Z</time>
      </trkpt>
      <trkpt lat="46.31815" lon="-1.0857">
        <ele>5.1</ele>
        <time>2020-06-02T14:56:49Z</time>
      </trkpt>
      <trkpt lat="46.31816" lon="-1.08574">
        <ele>5.1</ele>
        <time>2020-06-02T14:56:50Z</time>
      </trkpt>
      <trkpt lat="46.31818" lon="-1.08579">
        <ele>5.1</ele>
        <time>2020-06-02T14:56:51Z</time>
      </trkpt>
      <trkpt lat="46.3182" lon="-1.08584">
        <ele>5.2</ele>
        <time>2020-06-02T14:56:52Z</time>
      </trkpt>
      <trkpt lat="46.31822" lon="-1.08589">
        <ele>5.2</ele>
        <time>2020-06-02T14:56:53Z</time>
      </trkpt>
      <trkpt lat="46.31824" lon="-1.08594">
        <ele>5.2</ele>
        <time>2020-06-02T14:56:54Z</time>
      </trkpt>
      <trkpt lat="46.31826" lon="-1.08599">
        <ele>5.2</ele>
        <time>2020-06-02T14:56:55Z</time>
      </trkpt>
      <trkpt lat="46.31829" lon="-1.08605">
        <ele>5.2</ele>
        <time>2020-06-02T14:56:56Z</time>
      </trkpt>
      <trkpt lat="46.3183" lon="-1.0861">
        <ele>5.2</ele>
        <time>2020-06-02T14:56:57Z</time>
      </trkpt>
      <trkpt lat="46.31832" lon="-1.08615">
        <ele>5.2</ele>
        <time>2020-06-02T14:56:58Z</time>
      </trkpt>
      <trkpt lat="46.31834" lon="-1.0862">
        <ele>5.2</ele>
        <time>2020-06-02T14:56:59Z</time>
      </trkpt>
      <trkpt lat="46.31836" lon="-1.08626">
        <ele>5.2</ele>
        <time>2020-06-02T14:57:00Z</time>
      </trkpt>
      <trkpt lat="46.31838" lon="-1.08632">
        <ele>5.2</ele>
        <time>2020-06-02T14:57:01Z</time>
      </trkpt>
      <trkpt lat="46.31839" lon="-1.08639">
        <ele>5.2</ele>
        <time>2020-06-02T14:57:02Z</time>
      </trkpt>
      <trkpt lat="46.31841" lon="-1.08646">
        <ele>5.2</ele>
        <time>2020-06-02T14:57:03Z</time>
      </trkpt>
      <trkpt lat="46.31842" lon="-1.08653">
        <ele>5.2</ele>
        <time>2020-06-02T14:57:04Z</time>
      </trkpt>
      <trkpt lat="46.31844" lon="-1.08661">
        <ele>5.2</ele>
        <time>2020-06-02T14:57:05Z</time>
      </trkpt>
      <trkpt lat="46.31845" lon="-1.08669">
        <ele>5.2</ele>
        <time>2020-06-02T14:57:06Z</time>
      </trkpt>
      <trkpt lat="46.31846" lon="-1.08677">
        <ele>5.2</ele>
        <time>2020-06-02T14:57:07Z</time>
      </trkpt>
      <trkpt lat="46.31847" lon="-1.08683">
        <ele>5.2</ele>
        <time>2020-06-02T14:57:08Z</time>
      </trkpt>
      <trkpt lat="46.31848" lon="-1.0869">
        <ele>5.2</ele>
        <time>2020-06-02T14:57:09Z</time>
      </trkpt>
      <trkpt lat="46.31848" lon="-1.08697">
        <ele>5.2</ele>
        <time>2020-06-02T14:57:10Z</time>
      </trkpt>
      <trkpt lat="46.31849" lon="-1.08705">
        <ele>5.2</ele>
        <time>2020-06-02T14:57:11Z</time>
      </trkpt>
      <trkpt lat="46.3185" lon="-1.08712">
        <ele>5.2</ele>
        <time>2020-06-02T14:57:12Z</time>
      </trkpt>
      <trkpt lat="46.31851" lon="-1.08719">
        <ele>5.2</ele>
        <time>2020-06-02T14:57:13Z</time>
      </trkpt>
      <trkpt lat="46.31851" lon="-1.08725">
        <ele>5.2</ele>
        <time>2020-06-02T14:57:14Z</time>
      </trkpt>
      <trkpt lat="46.31852" lon="-1.08732">
        <ele>5.2</ele>
        <time>2020-06-02T14:57:15Z</time>
      </trkpt>
      <trkpt lat="46.31853" lon="-1.08738">
        <ele>5.3</ele>
        <time>2020-06-02T14:57:16Z</time>
      </trkpt>
      <trkpt lat="46.31854" lon="-1.08745">
        <ele>5.3</ele>
        <time>2020-06-02T14:57:17Z</time>
      </trkpt>
      <trkpt lat="46.31855" lon="-1.08751">
        <ele>5.3</ele>
        <time>2020-06-02T14:57:18Z</time>
      </trkpt>
      <trkpt lat="46.31856" lon="-1.08758">
        <ele>5.3</ele>
        <time>2020-06-02T14:57:19Z</time>
      </trkpt>
      <trkpt lat="46.31856" lon="-1.08764">
        <ele>5.3</ele>
        <time>2020-06-02T14:57:20Z</time>
      </trkpt>
      <trkpt lat="46.31857" lon="-1.08769">
        <ele>5.3</ele>
        <time>2020-06-02T14:57:21Z</time>
      </trkpt>
      <trkpt lat="46.31858" lon="-1.08774">
        <ele>5.3</ele>
        <time>2020-06-02T14:57:22Z</time>
      </trkpt>
      <trkpt lat="46.31859" lon="-1.08779">
        <ele>5.4</ele>
        <time>2020-06-02T14:57:23Z</time>
      </trkpt>
      <trkpt lat="46.3186" lon="-1.08784">
        <ele>5.4</ele>
        <time>2020-06-02T14:57:24Z</time>
      </trkpt>
      <trkpt lat="46.31861" lon="-1.08788">
        <ele>5.4</ele>
        <time>2020-06-02T14:57:25Z</time>
      </trkpt>
      <trkpt lat="46.31861" lon="-1.08793">
        <ele>5.4</ele>
        <time>2020-06-02T14:57:26Z</time>
      </trkpt>
      <trkpt lat="46.31861" lon="-1.08795">
        <ele>5.4</ele>
        <time>2020-06-02T14:57:27Z</time>
      </trkpt>
      <trkpt lat="46.31861" lon="-1.08796">
        <ele>5.4</ele>
        <time>2020-06-02T14:57:28Z</time>
      </trkpt>
      <trkpt lat="46.31861" lon="-1.08796">
        <ele>5.4</ele>
        <time>2020-06-02T14:57:29Z</time>
      </trkpt>
      <trkpt lat="46.31861" lon="-1.08795">
        <ele>5.4</ele>
        <time>2020-06-02T14:57:30Z</time>
      </trkpt>
      <trkpt lat="46.31861" lon="-1.08794">
        <ele>5.4</ele>
        <time>2020-06-02T14:57:31Z</time>
      </trkpt>
      <trkpt lat="46.31862" lon="-1.08794">
        <ele>5.4</ele>
        <time>2020-06-02T14:57:32Z</time>
      </trkpt>
      <trkpt lat="46.31862" lon="-1.08794">
        <ele>5.4</ele>
        <time>2020-06-02T14:57:33Z</time>
      </trkpt>
      <trkpt lat="46.31862" lon="-1.08794">
        <ele>5.4</ele>
        <time>2020-06-02T14:57:34Z</time>
      </trkpt>
      <trkpt lat="46.31862" lon="-1.08793">
        <ele>5.4</ele>
        <time>2020-06-02T14:57:35Z</time>
      </trkpt>
      <trkpt lat="46.31862" lon="-1.08793">
        <ele>5.4</ele>
        <time>2020-06-02T14:57:36Z</time>
      </trkpt>
      <trkpt lat="46.31863" lon="-1.08793">
        <ele>5.4</ele>
        <time>2020-06-02T14:57:37Z</time>
      </trkpt>
      <trkpt lat="46.31864" lon="-1.08794">
        <ele>5.4</ele>
        <time>2020-06-02T14:57:38Z</time>
      </trkpt>
      <trkpt lat="46.31863" lon="-1.08793">
        <ele>5.4</ele>
        <time>2020-06-02T14:57:39Z</time>
      </trkpt>
      <trkpt lat="46.31863" lon="-1.08792">
        <ele>5.4</ele>
        <time>2020-06-02T14:57:40Z</time>
      </trkpt>
      <trkpt lat="46.31861" lon="-1.08792">
        <ele>5.4</ele>
        <time>2020-06-02T14:57:41Z</time>
      </trkpt>
      <trkpt lat="46.31861" lon="-1.08791">
        <ele>5.4</ele>
        <time>2020-06-02T14:57:42Z</time>
      </trkpt>
      <trkpt lat="46.3186" lon="-1.08791">
        <ele>5.4</ele>
        <time>2020-06-02T14:57:43Z</time>
      </trkpt>
      <trkpt lat="46.3186" lon="-1.0879">
        <ele>5.4</ele>
        <time>2020-06-02T14:57:44Z</time>
      </trkpt>
      <trkpt lat="46.31859" lon="-1.08791">
        <ele>5.4</ele>
        <time>2020-06-02T14:57:45Z</time>
      </trkpt>
      <trkpt lat="46.31859" lon="-1.08791">
        <ele>5.4</ele>
        <time>2020-06-02T14:57:46Z</time>
      </trkpt>
      <trkpt lat="46.3186" lon="-1.08792">
        <ele>5.5</ele>
        <time>2020-06-02T14:57:47Z</time>
      </trkpt>
      <trkpt lat="46.3186" lon="-1.08793">
        <ele>5.5</ele>
        <time>2020-06-02T14:57:48Z</time>
      </trkpt>
      <trkpt lat="46.3186" lon="-1.08795">
        <ele>5.5</ele>
        <time>2020-06-02T14:57:49Z</time>
      </trkpt>
      <trkpt lat="46.31861" lon="-1.088">
        <ele>5.5</ele>
        <time>2020-06-02T14:57:50Z</time>
      </trkpt>
      <trkpt lat="46.31861" lon="-1.08801">
        <ele>5.5</ele>
        <time>2020-06-02T14:57:51Z</time>
      </trkpt>
      <trkpt lat="46.31862" lon="-1.08806">
        <ele>5.5</ele>
        <time>2020-06-02T14:57:52Z</time>
      </trkpt>
      <trkpt lat="46.31862" lon="-1.08812">
        <ele>5.5</ele>
        <time>2020-06-02T14:57:53Z</time>
      </trkpt>
      <trkpt lat="46.31863" lon="-1.08816">
        <ele>5.5</ele>
        <time>2020-06-02T14:57:54Z</time>
      </trkpt>
      <trkpt lat="46.31864" lon="-1.08821">
        <ele>5.5</ele>
        <time>2020-06-02T14:57:55Z</time>
      </trkpt>
      <trkpt lat="46.31865" lon="-1.08826">
        <ele>5.5</ele>
        <time>2020-06-02T14:57:56Z</time>
      </trkpt>
      <trkpt lat="46.31865" lon="-1.08831">
        <ele>5.5</ele>
        <time>2020-06-02T14:57:57Z</time>
      </trkpt>
      <trkpt lat="46.31865" lon="-1.08836">
        <ele>5.5</ele>
        <time>2020-06-02T14:57:59Z</time>
      </trkpt>
      <trkpt lat="46.31865" lon="-1.08837">
        <ele>5.5</ele>
        <time>2020-06-02T14:58:00Z</time>
      </trkpt>
      <trkpt lat="46.31865" lon="-1.08841">
        <ele>5.5</ele>
        <time>2020-06-02T14:58:01Z</time>
      </trkpt>
      <trkpt lat="46.31866" lon="-1.08846">
        <ele>5.5</ele>
        <time>2020-06-02T14:58:02Z</time>
      </trkpt>
      <trkpt lat="46.31866" lon="-1.08847">
        <ele>5.5</ele>
        <time>2020-06-02T14:58:03Z</time>
      </trkpt>
      <trkpt lat="46.31868" lon="-1.08851">
        <ele>5.5</ele>
        <time>2020-06-02T14:58:04Z</time>
      </trkpt>
      <trkpt lat="46.31871" lon="-1.08855">
        <ele>5.5</ele>
        <time>2020-06-02T14:58:05Z</time>
      </trkpt>
      <trkpt lat="46.31872" lon="-1.08856">
        <ele>5.4</ele>
        <time>2020-06-02T14:58:06Z</time>
      </trkpt>
      <trkpt lat="46.31874" lon="-1.08858">
        <ele>5.4</ele>
        <time>2020-06-02T14:58:07Z</time>
      </trkpt>
      <trkpt lat="46.31877" lon="-1.08863">
        <ele>5.4</ele>
        <time>2020-06-02T14:58:08Z</time>
      </trkpt>
      <trkpt lat="46.31879" lon="-1.08867">
        <ele>5.4</ele>
        <time>2020-06-02T14:58:09Z</time>
      </trkpt>
      <trkpt lat="46.31882" lon="-1.08871">
        <ele>5.4</ele>
        <time>2020-06-02T14:58:10Z</time>
      </trkpt>
      <trkpt lat="46.31885" lon="-1.08874">
        <ele>5.4</ele>
        <time>2020-06-02T14:58:11Z</time>
      </trkpt>
      <trkpt lat="46.31888" lon="-1.08877">
        <ele>5.4</ele>
        <time>2020-06-02T14:58:12Z</time>
      </trkpt>
      <trkpt lat="46.31891" lon="-1.08881">
        <ele>5.4</ele>
        <time>2020-06-02T14:58:13Z</time>
      </trkpt>
      <trkpt lat="46.31893" lon="-1.08885">
        <ele>5.3</ele>
        <time>2020-06-02T14:58:14Z</time>
      </trkpt>
      <trkpt lat="46.31896" lon="-1.08888">
        <ele>5.3</ele>
        <time>2020-06-02T14:58:15Z</time>
      </trkpt>
      <trkpt lat="46.31899" lon="-1.08891">
        <ele>5.3</ele>
        <time>2020-06-02T14:58:16Z</time>
      </trkpt>
      <trkpt lat="46.31902" lon="-1.08895">
        <ele>5.3</ele>
        <time>2020-06-02T14:58:17Z</time>
      </trkpt>
      <trkpt lat="46.31905" lon="-1.08897">
        <ele>5.2</ele>
        <time>2020-06-02T14:58:18Z</time>
      </trkpt>
      <trkpt lat="46.31908" lon="-1.089">
        <ele>5.2</ele>
        <time>2020-06-02T14:58:19Z</time>
      </trkpt>
      <trkpt lat="46.31911" lon="-1.08903">
        <ele>5.2</ele>
        <time>2020-06-02T14:58:20Z</time>
      </trkpt>
      <trkpt lat="46.31917" lon="-1.08908">
        <ele>5.1</ele>
        <time>2020-06-02T14:58:21Z</time>
      </trkpt>
      <trkpt lat="46.31921" lon="-1.08911">
        <ele>5.1</ele>
        <time>2020-06-02T14:58:22Z</time>
      </trkpt>
      <trkpt lat="46.31924" lon="-1.08914">
        <ele>5</ele>
        <time>2020-06-02T14:58:23Z</time>
      </trkpt>
      <trkpt lat="46.31928" lon="-1.08916">
        <ele>5</ele>
        <time>2020-06-02T14:58:24Z</time>
      </trkpt>
      <trkpt lat="46.31932" lon="-1.08919">
        <ele>5</ele>
        <time>2020-06-02T14:58:25Z</time>
      </trkpt>
      <trkpt lat="46.31935" lon="-1.08922">
        <ele>4.9</ele>
        <time>2020-06-02T14:58:26Z</time>
      </trkpt>
      <trkpt lat="46.31939" lon="-1.08924">
        <ele>4.9</ele>
        <time>2020-06-02T14:58:27Z</time>
      </trkpt>
      <trkpt lat="46.31943" lon="-1.08927">
        <ele>4.8</ele>
        <time>2020-06-02T14:58:28Z</time>
      </trkpt>
      <trkpt lat="46.31945" lon="-1.08931">
        <ele>4.8</ele>
        <time>2020-06-02T14:58:29Z</time>
      </trkpt>
      <trkpt lat="46.31948" lon="-1.08935">
        <ele>4.7</ele>
        <time>2020-06-02T14:58:30Z</time>
      </trkpt>
      <trkpt lat="46.31951" lon="-1.08939">
        <ele>4.7</ele>
        <time>2020-06-02T14:58:31Z</time>
      </trkpt>
      <trkpt lat="46.31953" lon="-1.08942">
        <ele>4.6</ele>
        <time>2020-06-02T14:58:32Z</time>
      </trkpt>
      <trkpt lat="46.31955" lon="-1.08945">
        <ele>4.6</ele>
        <time>2020-06-02T14:58:33Z</time>
      </trkpt>
      <trkpt lat="46.31957" lon="-1.08948">
        <ele>4.5</ele>
        <time>2020-06-02T14:58:34Z</time>
      </trkpt>
      <trkpt lat="46.31959" lon="-1.08951">
        <ele>4.5</ele>
        <time>2020-06-02T14:58:35Z</time>
      </trkpt>
      <trkpt lat="46.31962" lon="-1.08953">
        <ele>4.4</ele>
        <time>2020-06-02T14:58:36Z</time>
      </trkpt>
      <trkpt lat="46.31963" lon="-1.08954">
        <ele>4.4</ele>
        <time>2020-06-02T14:58:37Z</time>
      </trkpt>
      <trkpt lat="46.31966" lon="-1.08957">
        <ele>4.4</ele>
        <time>2020-06-02T14:58:38Z</time>
      </trkpt>
      <trkpt lat="46.31966" lon="-1.08958">
        <ele>4.4</ele>
        <time>2020-06-02T14:58:39Z</time>
      </trkpt>
      <trkpt lat="46.31969" lon="-1.08962">
        <ele>4.3</ele>
        <time>2020-06-02T14:58:40Z</time>
      </trkpt>
      <trkpt lat="46.3197" lon="-1.08963">
        <ele>4.3</ele>
        <time>2020-06-02T14:58:41Z</time>
      </trkpt>
      <trkpt lat="46.31971" lon="-1.08964">
        <ele>4.3</ele>
        <time>2020-06-02T14:58:42Z</time>
      </trkpt>
      <trkpt lat="46.31972" lon="-1.08966">
        <ele>4.3</ele>
        <time>2020-06-02T14:58:43Z</time>
      </trkpt>
      <trkpt lat="46.31973" lon="-1.08968">
        <ele>4.3</ele>
        <time>2020-06-02T14:58:44Z</time>
      </trkpt>
      <trkpt lat="46.31973" lon="-1.08968">
        <ele>4.3</ele>
        <time>2020-06-02T14:58:45Z</time>
      </trkpt>
      <trkpt lat="46.31973" lon="-1.08968">
        <ele>4.3</ele>
        <time>2020-06-02T14:58:46Z</time>
      </trkpt>
      <trkpt lat="46.31973" lon="-1.08968">
        <ele>4.3</ele>
        <time>2020-06-02T14:58:47Z</time>
      </trkpt>
      <trkpt lat="46.31973" lon="-1.08968">
        <ele>4.3</ele>
        <time>2020-06-02T14:58:48Z</time>
      </trkpt>
      <trkpt lat="46.31974" lon="-1.08969">
        <ele>4.3</ele>
        <time>2020-06-02T14:58:49Z</time>
      </trkpt>
      <trkpt lat="46.31973" lon="-1.08969">
        <ele>4.3</ele>
        <time>2020-06-02T14:58:50Z</time>
      </trkpt>
      <trkpt lat="46.31973" lon="-1.08968">
        <ele>4.3</ele>
        <time>2020-06-02T14:58:51Z</time>
      </trkpt>
      <trkpt lat="46.31973" lon="-1.08968">
        <ele>4.3</ele>
        <time>2020-06-02T14:58:52Z</time>
      </trkpt>
      <trkpt lat="46.31973" lon="-1.08969">
        <ele>4.3</ele>
        <time>2020-06-02T14:58:53Z</time>
      </trkpt>
      <trkpt lat="46.31973" lon="-1.08969">
        <ele>4.3</ele>
        <time>2020-06-02T14:58:54Z</time>
      </trkpt>
      <trkpt lat="46.31973" lon="-1.08969">
        <ele>4.3</ele>
        <time>2020-06-02T14:58:55Z</time>
      </trkpt>
      <trkpt lat="46.31973" lon="-1.0897">
        <ele>4.3</ele>
        <time>2020-06-02T14:58:56Z</time>
      </trkpt>
      <trkpt lat="46.31973" lon="-1.08971">
        <ele>4.2</ele>
        <time>2020-06-02T14:58:57Z</time>
      </trkpt>
      <trkpt lat="46.31974" lon="-1.0897">
        <ele>4.2</ele>
        <time>2020-06-02T14:58:58Z</time>
      </trkpt>
      <trkpt lat="46.31974" lon="-1.0897">
        <ele>4.2</ele>
        <time>2020-06-02T14:58:59Z</time>
      </trkpt>
      <trkpt lat="46.31975" lon="-1.08973">
        <ele>4.2</ele>
        <time>2020-06-02T14:59:00Z</time>
      </trkpt>
      <trkpt lat="46.31976" lon="-1.08975">
        <ele>4.2</ele>
        <time>2020-06-02T14:59:01Z</time>
      </trkpt>
      <trkpt lat="46.31977" lon="-1.08977">
        <ele>4.2</ele>
        <time>2020-06-02T14:59:02Z</time>
      </trkpt>
      <trkpt lat="46.31978" lon="-1.0898">
        <ele>4.2</ele>
        <time>2020-06-02T14:59:03Z</time>
      </trkpt>
      <trkpt lat="46.31979" lon="-1.08981">
        <ele>4.2</ele>
        <time>2020-06-02T14:59:04Z</time>
      </trkpt>
      <trkpt lat="46.31979" lon="-1.08982">
        <ele>4.2</ele>
        <time>2020-06-02T14:59:05Z</time>
      </trkpt>
      <trkpt lat="46.3198" lon="-1.08984">
        <ele>4.2</ele>
        <time>2020-06-02T14:59:06Z</time>
      </trkpt>
      <trkpt lat="46.31981" lon="-1.08985">
        <ele>4.2</ele>
        <time>2020-06-02T14:59:07Z</time>
      </trkpt>
      <trkpt lat="46.31984" lon="-1.08987">
        <ele>4.2</ele>
        <time>2020-06-02T14:59:08Z</time>
      </trkpt>
      <trkpt lat="46.31985" lon="-1.08988">
        <ele>4.2</ele>
        <time>2020-06-02T14:59:09Z</time>
      </trkpt>
      <trkpt lat="46.31987" lon="-1.08991">
        <ele>4.2</ele>
        <time>2020-06-02T14:59:10Z</time>
      </trkpt>
      <trkpt lat="46.31988" lon="-1.08993">
        <ele>4.2</ele>
        <time>2020-06-02T14:59:11Z</time>
      </trkpt>
      <trkpt lat="46.3199" lon="-1.08995">
        <ele>4.2</ele>
        <time>2020-06-02T14:59:12Z</time>
      </trkpt>
      <trkpt lat="46.31992" lon="-1.08998">
        <ele>4.2</ele>
        <time>2020-06-02T14:59:13Z</time>
      </trkpt>
      <trkpt lat="46.31994" lon="-1.09001">
        <ele>4.2</ele>
        <time>2020-06-02T14:59:14Z</time>
      </trkpt>
      <trkpt lat="46.31997" lon="-1.09003">
        <ele>4.2</ele>
        <time>2020-06-02T14:59:15Z</time>
      </trkpt>
      <trkpt lat="46.32" lon="-1.09006">
        <ele>4.2</ele>
        <time>2020-06-02T14:59:16Z</time>
      </trkpt>
      <trkpt lat="46.32" lon="-1.09007">
        <ele>4.2</ele>
        <time>2020-06-02T14:59:17Z</time>
      </trkpt>
      <trkpt lat="46.32001" lon="-1.09009">
        <ele>4.2</ele>
        <time>2020-06-02T14:59:18Z</time>
      </trkpt>
      <trkpt lat="46.32002" lon="-1.09009">
        <ele>4.2</ele>
        <time>2020-06-02T14:59:19Z</time>
      </trkpt>
      <trkpt lat="46.32002" lon="-1.09009">
        <ele>4.2</ele>
        <time>2020-06-02T14:59:20Z</time>
      </trkpt>
      <trkpt lat="46.32002" lon="-1.09009">
        <ele>4.2</ele>
        <time>2020-06-02T14:59:21Z</time>
      </trkpt>
      <trkpt lat="46.32002" lon="-1.09009">
        <ele>4.2</ele>
        <time>2020-06-02T14:59:22Z</time>
      </trkpt>
      <trkpt lat="46.32002" lon="-1.09009">
        <ele>4.2</ele>
        <time>2020-06-02T14:59:23Z</time>
      </trkpt>
      <trkpt lat="46.32003" lon="-1.09009">
        <ele>4.2</ele>
        <time>2020-06-02T14:59:24Z</time>
      </trkpt>
      <trkpt lat="46.32003" lon="-1.09009">
        <ele>4.2</ele>
        <time>2020-06-02T14:59:25Z</time>
      </trkpt>
      <trkpt lat="46.32003" lon="-1.09009">
        <ele>4.2</ele>
        <time>2020-06-02T14:59:26Z</time>
      </trkpt>
      <trkpt lat="46.32003" lon="-1.09009">
        <ele>4.2</ele>
        <time>2020-06-02T14:59:27Z</time>
      </trkpt>
      <trkpt lat="46.32003" lon="-1.09009">
        <ele>4.2</ele>
        <time>2020-06-02T14:59:28Z</time>
      </trkpt>
      <trkpt lat="46.32003" lon="-1.09009">
        <ele>4.2</ele>
        <time>2020-06-02T14:59:29Z</time>
      </trkpt>
      <trkpt lat="46.32003" lon="-1.09009">
        <ele>4.2</ele>
        <time>2020-06-02T14:59:30Z</time>
      </trkpt>
      <trkpt lat="46.32003" lon="-1.09009">
        <ele>4.2</ele>
        <time>2020-06-02T14:59:31Z</time>
      </trkpt>
      <trkpt lat="46.32003" lon="-1.09009">
        <ele>4.2</ele>
        <time>2020-06-02T14:59:32Z</time>
      </trkpt>
      <trkpt lat="46.32003" lon="-1.09009">
        <ele>4.2</ele>
        <time>2020-06-02T14:59:33Z</time>
      </trkpt>
      <trkpt lat="46.32003" lon="-1.09009">
        <ele>4.2</ele>
        <time>2020-06-02T14:59:34Z</time>
      </trkpt>
      <trkpt lat="46.32003" lon="-1.09009">
        <ele>4.2</ele>
        <time>2020-06-02T14:59:35Z</time>
      </trkpt>
      <trkpt lat="46.32003" lon="-1.09009">
        <ele>4.2</ele>
        <time>2020-06-02T14:59:36Z</time>
      </trkpt>
      <trkpt lat="46.32004" lon="-1.09009">
        <ele>4.2</ele>
        <time>2020-06-02T14:59:37Z</time>
      </trkpt>
      <trkpt lat="46.32004" lon="-1.09009">
        <ele>4.2</ele>
        <time>2020-06-02T14:59:38Z</time>
      </trkpt>
      <trkpt lat="46.32003" lon="-1.0901">
        <ele>4.2</ele>
        <time>2020-06-02T14:59:39Z</time>
      </trkpt>
      <trkpt lat="46.32004" lon="-1.09011">
        <ele>4.2</ele>
        <time>2020-06-02T14:59:40Z</time>
      </trkpt>
      <trkpt lat="46.32005" lon="-1.09012">
        <ele>4.2</ele>
        <time>2020-06-02T14:59:41Z</time>
      </trkpt>
      <trkpt lat="46.32007" lon="-1.09015">
        <ele>4.2</ele>
        <time>2020-06-02T14:59:42Z</time>
      </trkpt>
      <trkpt lat="46.32007" lon="-1.09016">
        <ele>4.2</ele>
        <time>2020-06-02T14:59:43Z</time>
      </trkpt>
      <trkpt lat="46.3201" lon="-1.0902">
        <ele>4.2</ele>
        <time>2020-06-02T14:59:44Z</time>
      </trkpt>
      <trkpt lat="46.32011" lon="-1.09022">
        <ele>4.2</ele>
        <time>2020-06-02T14:59:45Z</time>
      </trkpt>
      <trkpt lat="46.32013" lon="-1.09025">
        <ele>4.2</ele>
        <time>2020-06-02T14:59:46Z</time>
      </trkpt>
      <trkpt lat="46.32015" lon="-1.09028">
        <ele>4.3</ele>
        <time>2020-06-02T14:59:47Z</time>
      </trkpt>
      <trkpt lat="46.32016" lon="-1.09029">
        <ele>4.3</ele>
        <time>2020-06-02T14:59:48Z</time>
      </trkpt>
      <trkpt lat="46.32019" lon="-1.09032">
        <ele>4.3</ele>
        <time>2020-06-02T14:59:49Z</time>
      </trkpt>
      <trkpt lat="46.3202" lon="-1.09033">
        <ele>4.3</ele>
        <time>2020-06-02T14:59:50Z</time>
      </trkpt>
      <trkpt lat="46.32023" lon="-1.09036">
        <ele>4.3</ele>
        <time>2020-06-02T14:59:51Z</time>
      </trkpt>
      <trkpt lat="46.32024" lon="-1.09037">
        <ele>4.3</ele>
        <time>2020-06-02T14:59:52Z</time>
      </trkpt>
      <trkpt lat="46.32026" lon="-1.09041">
        <ele>4.3</ele>
        <time>2020-06-02T14:59:53Z</time>
      </trkpt>
      <trkpt lat="46.32027" lon="-1.09042">
        <ele>4.3</ele>
        <time>2020-06-02T14:59:54Z</time>
      </trkpt>
      <trkpt lat="46.3203" lon="-1.09044">
        <ele>4.3</ele>
        <time>2020-06-02T14:59:55Z</time>
      </trkpt>
      <trkpt lat="46.32034" lon="-1.09046">
        <ele>4.3</ele>
        <time>2020-06-02T14:59:56Z</time>
      </trkpt>
      <trkpt lat="46.32037" lon="-1.09049">
        <ele>4.3</ele>
        <time>2020-06-02T14:59:57Z</time>
      </trkpt>
      <trkpt lat="46.3204" lon="-1.09051">
        <ele>4.3</ele>
        <time>2020-06-02T14:59:58Z</time>
      </trkpt>
      <trkpt lat="46.32043" lon="-1.09054">
        <ele>4.3</ele>
        <time>2020-06-02T14:59:59Z</time>
      </trkpt>
      <trkpt lat="46.32045" lon="-1.09057">
        <ele>4.3</ele>
        <time>2020-06-02T15:00:00Z</time>
      </trkpt>
      <trkpt lat="46.32049" lon="-1.09061">
        <ele>4.3</ele>
        <time>2020-06-02T15:00:01Z</time>
      </trkpt>
      <trkpt lat="46.32051" lon="-1.09063">
        <ele>4.3</ele>
        <time>2020-06-02T15:00:02Z</time>
      </trkpt>
      <trkpt lat="46.32054" lon="-1.09065">
        <ele>4.3</ele>
        <time>2020-06-02T15:00:03Z</time>
      </trkpt>
      <trkpt lat="46.32056" lon="-1.09069">
        <ele>4.3</ele>
        <time>2020-06-02T15:00:04Z</time>
      </trkpt>
      <trkpt lat="46.32058" lon="-1.09072">
        <ele>4.3</ele>
        <time>2020-06-02T15:00:05Z</time>
      </trkpt>
      <trkpt lat="46.3206" lon="-1.09076">
        <ele>4.3</ele>
        <time>2020-06-02T15:00:06Z</time>
      </trkpt>
      <trkpt lat="46.32062" lon="-1.09079">
        <ele>4.3</ele>
        <time>2020-06-02T15:00:07Z</time>
      </trkpt>
      <trkpt lat="46.32065" lon="-1.09082">
        <ele>4.3</ele>
        <time>2020-06-02T15:00:08Z</time>
      </trkpt>
      <trkpt lat="46.32068" lon="-1.09086">
        <ele>4.3</ele>
        <time>2020-06-02T15:00:09Z</time>
      </trkpt>
      <trkpt lat="46.32071" lon="-1.09089">
        <ele>4.3</ele>
        <time>2020-06-02T15:00:10Z</time>
      </trkpt>
      <trkpt lat="46.32073" lon="-1.09092">
        <ele>4.3</ele>
        <time>2020-06-02T15:00:11Z</time>
      </trkpt>
      <trkpt lat="46.32076" lon="-1.09096">
        <ele>4.3</ele>
        <time>2020-06-02T15:00:12Z</time>
      </trkpt>
      <trkpt lat="46.3208" lon="-1.09101">
        <ele>4.3</ele>
        <time>2020-06-02T15:00:13Z</time>
      </trkpt>
      <trkpt lat="46.32084" lon="-1.09106">
        <ele>4.3</ele>
        <time>2020-06-02T15:00:14Z</time>
      </trkpt>
      <trkpt lat="46.32086" lon="-1.09109">
        <ele>4.3</ele>
        <time>2020-06-02T15:00:15Z</time>
      </trkpt>
      <trkpt lat="46.32089" lon="-1.09112">
        <ele>4.3</ele>
        <time>2020-06-02T15:00:16Z</time>
      </trkpt>
      <trkpt lat="46.32091" lon="-1.09115">
        <ele>4.3</ele>
        <time>2020-06-02T15:00:17Z</time>
      </trkpt>
      <trkpt lat="46.32095" lon="-1.09119">
        <ele>4.3</ele>
        <time>2020-06-02T15:00:18Z</time>
      </trkpt>
      <trkpt lat="46.32098" lon="-1.09123">
        <ele>4.3</ele>
        <time>2020-06-02T15:00:19Z</time>
      </trkpt>
      <trkpt lat="46.32101" lon="-1.09126">
        <ele>4.4</ele>
        <time>2020-06-02T15:00:20Z</time>
      </trkpt>
      <trkpt lat="46.32104" lon="-1.0913">
        <ele>4.4</ele>
        <time>2020-06-02T15:00:21Z</time>
      </trkpt>
      <trkpt lat="46.32107" lon="-1.09135">
        <ele>4.4</ele>
        <time>2020-06-02T15:00:22Z</time>
      </trkpt>
      <trkpt lat="46.3211" lon="-1.0914">
        <ele>4.4</ele>
        <time>2020-06-02T15:00:23Z</time>
      </trkpt>
      <trkpt lat="46.32114" lon="-1.09144">
        <ele>4.4</ele>
        <time>2020-06-02T15:00:24Z</time>
      </trkpt>
      <trkpt lat="46.32117" lon="-1.09148">
        <ele>4.4</ele>
        <time>2020-06-02T15:00:25Z</time>
      </trkpt>
      <trkpt lat="46.3212" lon="-1.09152">
        <ele>4.4</ele>
        <time>2020-06-02T15:00:26Z</time>
      </trkpt>
      <trkpt lat="46.32124" lon="-1.09155">
        <ele>4.4</ele>
        <time>2020-06-02T15:00:27Z</time>
      </trkpt>
      <trkpt lat="46.32128" lon="-1.09157">
        <ele>4.3</ele>
        <time>2020-06-02T15:00:28Z</time>
      </trkpt>
      <trkpt lat="46.32131" lon="-1.09161">
        <ele>4.3</ele>
        <time>2020-06-02T15:00:29Z</time>
      </trkpt>
      <trkpt lat="46.32134" lon="-1.09163">
        <ele>4.3</ele>
        <time>2020-06-02T15:00:30Z</time>
      </trkpt>
      <trkpt lat="46.32136" lon="-1.09166">
        <ele>4.3</ele>
        <time>2020-06-02T15:00:31Z</time>
      </trkpt>
      <trkpt lat="46.3214" lon="-1.09169">
        <ele>4.3</ele>
        <time>2020-06-02T15:00:32Z</time>
      </trkpt>
      <trkpt lat="46.32143" lon="-1.09172">
        <ele>4.3</ele>
        <time>2020-06-02T15:00:33Z</time>
      </trkpt>
      <trkpt lat="46.32147" lon="-1.09175">
        <ele>4.3</ele>
        <time>2020-06-02T15:00:34Z</time>
      </trkpt>
      <trkpt lat="46.3215" lon="-1.09179">
        <ele>4.3</ele>
        <time>2020-06-02T15:00:35Z</time>
      </trkpt>
      <trkpt lat="46.32153" lon="-1.09182">
        <ele>4.3</ele>
        <time>2020-06-02T15:00:36Z</time>
      </trkpt>
      <trkpt lat="46.32157" lon="-1.09186">
        <ele>4.3</ele>
        <time>2020-06-02T15:00:37Z</time>
      </trkpt>
      <trkpt lat="46.3216" lon="-1.0919">
        <ele>4.3</ele>
        <time>2020-06-02T15:00:38Z</time>
      </trkpt>
      <trkpt lat="46.32164" lon="-1.09194">
        <ele>4.3</ele>
        <time>2020-06-02T15:00:39Z</time>
      </trkpt>
      <trkpt lat="46.32166" lon="-1.09197">
        <ele>4.3</ele>
        <time>2020-06-02T15:00:40Z</time>
      </trkpt>
      <trkpt lat="46.32169" lon="-1.09199">
        <ele>4.3</ele>
        <time>2020-06-02T15:00:41Z</time>
      </trkpt>
      <trkpt lat="46.32172" lon="-1.09203">
        <ele>4.3</ele>
        <time>2020-06-02T15:00:42Z</time>
      </trkpt>
      <trkpt lat="46.32175" lon="-1.09206">
        <ele>4.3</ele>
        <time>2020-06-02T15:00:43Z</time>
      </trkpt>
      <trkpt lat="46.32179" lon="-1.0921">
        <ele>4.3</ele>
        <time>2020-06-02T15:00:44Z</time>
      </trkpt>
      <trkpt lat="46.32183" lon="-1.09214">
        <ele>4.3</ele>
        <time>2020-06-02T15:00:45Z</time>
      </trkpt>
      <trkpt lat="46.32186" lon="-1.09218">
        <ele>4.3</ele>
        <time>2020-06-02T15:00:46Z</time>
      </trkpt>
      <trkpt lat="46.32189" lon="-1.09222">
        <ele>4.3</ele>
        <time>2020-06-02T15:00:47Z</time>
      </trkpt>
      <trkpt lat="46.32192" lon="-1.09224">
        <ele>4.3</ele>
        <time>2020-06-02T15:00:48Z</time>
      </trkpt>
      <trkpt lat="46.32193" lon="-1.09225">
        <ele>4.3</ele>
        <time>2020-06-02T15:00:49Z</time>
      </trkpt>
      <trkpt lat="46.32194" lon="-1.09226">
        <ele>4.3</ele>
        <time>2020-06-02T15:00:50Z</time>
      </trkpt>
      <trkpt lat="46.32195" lon="-1.09226">
        <ele>4.3</ele>
        <time>2020-06-02T15:00:51Z</time>
      </trkpt>
      <trkpt lat="46.32195" lon="-1.09225">
        <ele>4.3</ele>
        <time>2020-06-02T15:00:52Z</time>
      </trkpt>
      <trkpt lat="46.32196" lon="-1.09223">
        <ele>4.3</ele>
        <time>2020-06-02T15:00:53Z</time>
      </trkpt>
      <trkpt lat="46.32196" lon="-1.09222">
        <ele>4.3</ele>
        <time>2020-06-02T15:00:54Z</time>
      </trkpt>
      <trkpt lat="46.32195" lon="-1.09221">
        <ele>4.3</ele>
        <time>2020-06-02T15:00:55Z</time>
      </trkpt>
      <trkpt lat="46.32195" lon="-1.09222">
        <ele>4.3</ele>
        <time>2020-06-02T15:00:56Z</time>
      </trkpt>
      <trkpt lat="46.32194" lon="-1.09222">
        <ele>4.3</ele>
        <time>2020-06-02T15:00:57Z</time>
      </trkpt>
      <trkpt lat="46.32194" lon="-1.09222">
        <ele>4.3</ele>
        <time>2020-06-02T15:00:58Z</time>
      </trkpt>
      <trkpt lat="46.32194" lon="-1.09222">
        <ele>4.3</ele>
        <time>2020-06-02T15:00:59Z</time>
      </trkpt>
      <trkpt lat="46.32195" lon="-1.09221">
        <ele>4.3</ele>
        <time>2020-06-02T15:01:00Z</time>
      </trkpt>
      <trkpt lat="46.32195" lon="-1.09221">
        <ele>4.3</ele>
        <time>2020-06-02T15:01:01Z</time>
      </trkpt>
      <trkpt lat="46.32194" lon="-1.09222">
        <ele>4.3</ele>
        <time>2020-06-02T15:01:02Z</time>
      </trkpt>
      <trkpt lat="46.32194" lon="-1.09222">
        <ele>4.3</ele>
        <time>2020-06-02T15:01:03Z</time>
      </trkpt>
      <trkpt lat="46.32194" lon="-1.09222">
        <ele>4.3</ele>
        <time>2020-06-02T15:01:04Z</time>
      </trkpt>
      <trkpt lat="46.32194" lon="-1.09222">
        <ele>4.3</ele>
        <time>2020-06-02T15:01:05Z</time>
      </trkpt>
      <trkpt lat="46.32194" lon="-1.09222">
        <ele>4.3</ele>
        <time>2020-06-02T15:01:06Z</time>
      </trkpt>
      <trkpt lat="46.32194" lon="-1.09223">
        <ele>4.3</ele>
        <time>2020-06-02T15:01:07Z</time>
      </trkpt>
      <trkpt lat="46.32194" lon="-1.09223">
        <ele>4.3</ele>
        <time>2020-06-02T15:01:08Z</time>
      </trkpt>
      <trkpt lat="46.32195" lon="-1.09224">
        <ele>4.3</ele>
        <time>2020-06-02T15:01:09Z</time>
      </trkpt>
      <trkpt lat="46.32195" lon="-1.09224">
        <ele>4.3</ele>
        <time>2020-06-02T15:01:10Z</time>
      </trkpt>
      <trkpt lat="46.32195" lon="-1.09224">
        <ele>4.3</ele>
        <time>2020-06-02T15:01:11Z</time>
      </trkpt>
      <trkpt lat="46.32196" lon="-1.09224">
        <ele>4.3</ele>
        <time>2020-06-02T15:01:12Z</time>
      </trkpt>
      <trkpt lat="46.32196" lon="-1.09224">
        <ele>4.3</ele>
        <time>2020-06-02T15:01:13Z</time>
      </trkpt>
      <trkpt lat="46.32196" lon="-1.09224">
        <ele>4.3</ele>
        <time>2020-06-02T15:01:14Z</time>
      </trkpt>
      <trkpt lat="46.32196" lon="-1.09224">
        <ele>4.3</ele>
        <time>2020-06-02T15:01:15Z</time>
      </trkpt>
      <trkpt lat="46.32196" lon="-1.09224">
        <ele>4.3</ele>
        <time>2020-06-02T15:01:16Z</time>
      </trkpt>
      <trkpt lat="46.32196" lon="-1.09225">
        <ele>4.3</ele>
        <time>2020-06-02T15:01:17Z</time>
      </trkpt>
      <trkpt lat="46.32196" lon="-1.09225">
        <ele>4.3</ele>
        <time>2020-06-02T15:01:18Z</time>
      </trkpt>
      <trkpt lat="46.32197" lon="-1.09225">
        <ele>4.3</ele>
        <time>2020-06-02T15:01:19Z</time>
      </trkpt>
      <trkpt lat="46.32197" lon="-1.09225">
        <ele>4.3</ele>
        <time>2020-06-02T15:01:20Z</time>
      </trkpt>
      <trkpt lat="46.32197" lon="-1.09225">
        <ele>4.3</ele>
        <time>2020-06-02T15:01:21Z</time>
      </trkpt>
      <trkpt lat="46.32197" lon="-1.09225">
        <ele>4.3</ele>
        <time>2020-06-02T15:01:22Z</time>
      </trkpt>
      <trkpt lat="46.32197" lon="-1.09225">
        <ele>4.3</ele>
        <time>2020-06-02T15:01:23Z</time>
      </trkpt>
      <trkpt lat="46.32197" lon="-1.09225">
        <ele>4.3</ele>
        <time>2020-06-02T15:01:24Z</time>
      </trkpt>
      <trkpt lat="46.32197" lon="-1.09225">
        <ele>4.3</ele>
        <time>2020-06-02T15:01:25Z</time>
      </trkpt>
      <trkpt lat="46.32197" lon="-1.09225">
        <ele>4.3</ele>
        <time>2020-06-02T15:01:26Z</time>
      </trkpt>
      <trkpt lat="46.32197" lon="-1.09225">
        <ele>4.3</ele>
        <time>2020-06-02T15:01:27Z</time>
      </trkpt>
      <trkpt lat="46.32197" lon="-1.09226">
        <ele>4.3</ele>
        <time>2020-06-02T15:01:28Z</time>
      </trkpt>
      <trkpt lat="46.32197" lon="-1.09226">
        <ele>4.3</ele>
        <time>2020-06-02T15:01:29Z</time>
      </trkpt>
      <trkpt lat="46.32197" lon="-1.09226">
        <ele>4.3</ele>
        <time>2020-06-02T15:01:30Z</time>
      </trkpt>
      <trkpt lat="46.32197" lon="-1.09226">
        <ele>4.3</ele>
        <time>2020-06-02T15:01:31Z</time>
      </trkpt>
      <trkpt lat="46.32197" lon="-1.09226">
        <ele>4.3</ele>
        <time>2020-06-02T15:01:32Z</time>
      </trkpt>
      <trkpt lat="46.32198" lon="-1.09226">
        <ele>4.3</ele>
        <time>2020-06-02T15:01:33Z</time>
      </trkpt>
      <trkpt lat="46.32198" lon="-1.09226">
        <ele>4.3</ele>
        <time>2020-06-02T15:01:34Z</time>
      </trkpt>
      <trkpt lat="46.32198" lon="-1.09226">
        <ele>4.3</ele>
        <time>2020-06-02T15:01:35Z</time>
      </trkpt>
      <trkpt lat="46.32198" lon="-1.09227">
        <ele>4.3</ele>
        <time>2020-06-02T15:01:36Z</time>
      </trkpt>
      <trkpt lat="46.32198" lon="-1.09227">
        <ele>4.3</ele>
        <time>2020-06-02T15:01:37Z</time>
      </trkpt>
      <trkpt lat="46.32198" lon="-1.09227">
        <ele>4.3</ele>
        <time>2020-06-02T15:01:38Z</time>
      </trkpt>
      <trkpt lat="46.32198" lon="-1.09227">
        <ele>4.3</ele>
        <time>2020-06-02T15:01:39Z</time>
      </trkpt>
      <trkpt lat="46.32198" lon="-1.09228">
        <ele>4.3</ele>
        <time>2020-06-02T15:01:40Z</time>
      </trkpt>
      <trkpt lat="46.32198" lon="-1.09228">
        <ele>4.3</ele>
        <time>2020-06-02T15:01:41Z</time>
      </trkpt>
      <trkpt lat="46.32198" lon="-1.09228">
        <ele>4.3</ele>
        <time>2020-06-02T15:01:42Z</time>
      </trkpt>
      <trkpt lat="46.32198" lon="-1.09228">
        <ele>4.3</ele>
        <time>2020-06-02T15:01:43Z</time>
      </trkpt>
      <trkpt lat="46.32198" lon="-1.09228">
        <ele>4.3</ele>
        <time>2020-06-02T15:01:44Z</time>
      </trkpt>
      <trkpt lat="46.32198" lon="-1.09229">
        <ele>4.3</ele>
        <time>2020-06-02T15:01:45Z</time>
      </trkpt>
      <trkpt lat="46.32198" lon="-1.09229">
        <ele>4.3</ele>
        <time>2020-06-02T15:01:46Z</time>
      </trkpt>
      <trkpt lat="46.32198" lon="-1.09229">
        <ele>4.3</ele>
        <time>2020-06-02T15:01:47Z</time>
      </trkpt>
      <trkpt lat="46.32198" lon="-1.09229">
        <ele>4.3</ele>
        <time>2020-06-02T15:01:48Z</time>
      </trkpt>
      <trkpt lat="46.32198" lon="-1.09229">
        <ele>4.3</ele>
        <time>2020-06-02T15:01:49Z</time>
      </trkpt>
      <trkpt lat="46.32198" lon="-1.09229">
        <ele>4.3</ele>
        <time>2020-06-02T15:01:50Z</time>
      </trkpt>
      <trkpt lat="46.32198" lon="-1.09229">
        <ele>4.3</ele>
        <time>2020-06-02T15:01:51Z</time>
      </trkpt>
      <trkpt lat="46.32198" lon="-1.0923">
        <ele>4.3</ele>
        <time>2020-06-02T15:01:52Z</time>
      </trkpt>
      <trkpt lat="46.32197" lon="-1.09231">
        <ele>4.3</ele>
        <time>2020-06-02T15:01:53Z</time>
      </trkpt>
      <trkpt lat="46.32197" lon="-1.09231">
        <ele>4.3</ele>
        <time>2020-06-02T15:01:54Z</time>
      </trkpt>
      <trkpt lat="46.32197" lon="-1.09231">
        <ele>4.3</ele>
        <time>2020-06-02T15:01:55Z</time>
      </trkpt>
      <trkpt lat="46.32197" lon="-1.09231">
        <ele>4.3</ele>
        <time>2020-06-02T15:01:56Z</time>
      </trkpt>
      <trkpt lat="46.32197" lon="-1.09231">
        <ele>4.3</ele>
        <time>2020-06-02T15:01:57Z</time>
      </trkpt>
      <trkpt lat="46.32197" lon="-1.09231">
        <ele>4.3</ele>
        <time>2020-06-02T15:01:58Z</time>
      </trkpt>
      <trkpt lat="46.32197" lon="-1.09231">
        <ele>4.3</ele>
        <time>2020-06-02T15:01:59Z</time>
      </trkpt>
      <trkpt lat="46.32198" lon="-1.09231">
        <ele>4.3</ele>
        <time>2020-06-02T15:02:00Z</time>
      </trkpt>
      <trkpt lat="46.32198" lon="-1.09231">
        <ele>4.3</ele>
        <time>2020-06-02T15:02:01Z</time>
      </trkpt>
      <trkpt lat="46.32198" lon="-1.09231">
        <ele>4.3</ele>
        <time>2020-06-02T15:02:02Z</time>
      </trkpt>
      <trkpt lat="46.32198" lon="-1.09231">
        <ele>4.3</ele>
        <time>2020-06-02T15:02:03Z</time>
      </trkpt>
      <trkpt lat="46.32198" lon="-1.09231">
        <ele>4.3</ele>
        <time>2020-06-02T15:02:04Z</time>
      </trkpt>
      <trkpt lat="46.32198" lon="-1.09231">
        <ele>4.3</ele>
        <time>2020-06-02T15:02:05Z</time>
      </trkpt>
      <trkpt lat="46.32198" lon="-1.09232">
        <ele>4.3</ele>
        <time>2020-06-02T15:02:06Z</time>
      </trkpt>
      <trkpt lat="46.32198" lon="-1.09233">
        <ele>4.3</ele>
        <time>2020-06-02T15:02:07Z</time>
      </trkpt>
      <trkpt lat="46.32198" lon="-1.09234">
        <ele>4.3</ele>
        <time>2020-06-02T15:02:08Z</time>
      </trkpt>
      <trkpt lat="46.32198" lon="-1.09234">
        <ele>4.3</ele>
        <time>2020-06-02T15:02:09Z</time>
      </trkpt>
      <trkpt lat="46.32198" lon="-1.09233">
        <ele>4.3</ele>
        <time>2020-06-02T15:02:10Z</time>
      </trkpt>
      <trkpt lat="46.32198" lon="-1.09233">
        <ele>4.3</ele>
        <time>2020-06-02T15:02:11Z</time>
      </trkpt>
      <trkpt lat="46.32198" lon="-1.09234">
        <ele>4.3</ele>
        <time>2020-06-02T15:02:12Z</time>
      </trkpt>
      <trkpt lat="46.32198" lon="-1.09233">
        <ele>4.3</ele>
        <time>2020-06-02T15:02:13Z</time>
      </trkpt>
      <trkpt lat="46.32198" lon="-1.09233">
        <ele>4.3</ele>
        <time>2020-06-02T15:02:14Z</time>
      </trkpt>
      <trkpt lat="46.32198" lon="-1.09233">
        <ele>4.3</ele>
        <time>2020-06-02T15:02:15Z</time>
      </trkpt>
      <trkpt lat="46.32198" lon="-1.09232">
        <ele>4.3</ele>
        <time>2020-06-02T15:02:16Z</time>
      </trkpt>
      <trkpt lat="46.32198" lon="-1.09232">
        <ele>4.3</ele>
        <time>2020-06-02T15:02:17Z</time>
      </trkpt>
      <trkpt lat="46.32198" lon="-1.09232">
        <ele>4.3</ele>
        <time>2020-06-02T15:02:18Z</time>
      </trkpt>
      <trkpt lat="46.32198" lon="-1.09232">
        <ele>4.3</ele>
        <time>2020-06-02T15:02:19Z</time>
      </trkpt>
      <trkpt lat="46.32198" lon="-1.09232">
        <ele>4.3</ele>
        <time>2020-06-02T15:02:20Z</time>
      </trkpt>
      <trkpt lat="46.32198" lon="-1.09232">
        <ele>4.3</ele>
        <time>2020-06-02T15:02:21Z</time>
      </trkpt>
      <trkpt lat="46.32199" lon="-1.09232">
        <ele>4.3</ele>
        <time>2020-06-02T15:02:22Z</time>
      </trkpt>
      <trkpt lat="46.32199" lon="-1.09232">
        <ele>4.3</ele>
        <time>2020-06-02T15:02:23Z</time>
      </trkpt>
      <trkpt lat="46.32199" lon="-1.09232">
        <ele>4.3</ele>
        <time>2020-06-02T15:02:24Z</time>
      </trkpt>
      <trkpt lat="46.32199" lon="-1.09233">
        <ele>4.3</ele>
        <time>2020-06-02T15:02:25Z</time>
      </trkpt>
      <trkpt lat="46.32199" lon="-1.09233">
        <ele>4.3</ele>
        <time>2020-06-02T15:02:26Z</time>
      </trkpt>
      <trkpt lat="46.32199" lon="-1.09233">
        <ele>4.3</ele>
        <time>2020-06-02T15:02:27Z</time>
      </trkpt>
      <trkpt lat="46.32199" lon="-1.09232">
        <ele>4.3</ele>
        <time>2020-06-02T15:02:28Z</time>
      </trkpt>
      <trkpt lat="46.322" lon="-1.09232">
        <ele>4.3</ele>
        <time>2020-06-02T15:02:29Z</time>
      </trkpt>
      <trkpt lat="46.32201" lon="-1.09232">
        <ele>4.3</ele>
        <time>2020-06-02T15:02:30Z</time>
      </trkpt>
      <trkpt lat="46.32201" lon="-1.09233">
        <ele>4.3</ele>
        <time>2020-06-02T15:02:31Z</time>
      </trkpt>
      <trkpt lat="46.32201" lon="-1.09233">
        <ele>4.3</ele>
        <time>2020-06-02T15:02:32Z</time>
      </trkpt>
      <trkpt lat="46.32201" lon="-1.09233">
        <ele>4.3</ele>
        <time>2020-06-02T15:02:33Z</time>
      </trkpt>
      <trkpt lat="46.32201" lon="-1.09233">
        <ele>4.3</ele>
        <time>2020-06-02T15:02:34Z</time>
      </trkpt>
      <trkpt lat="46.32201" lon="-1.09233">
        <ele>4.3</ele>
        <time>2020-06-02T15:02:35Z</time>
      </trkpt>
      <trkpt lat="46.32201" lon="-1.09233">
        <ele>4.3</ele>
        <time>2020-06-02T15:02:36Z</time>
      </trkpt>
      <trkpt lat="46.32201" lon="-1.09233">
        <ele>4.3</ele>
        <time>2020-06-02T15:02:37Z</time>
      </trkpt>
      <trkpt lat="46.32201" lon="-1.09233">
        <ele>4.3</ele>
        <time>2020-06-02T15:02:38Z</time>
      </trkpt>
      <trkpt lat="46.32201" lon="-1.09233">
        <ele>4.3</ele>
        <time>2020-06-02T15:02:39Z</time>
      </trkpt>
      <trkpt lat="46.32201" lon="-1.09233">
        <ele>4.3</ele>
        <time>2020-06-02T15:02:40Z</time>
      </trkpt>
      <trkpt lat="46.32201" lon="-1.09233">
        <ele>4.3</ele>
        <time>2020-06-02T15:02:41Z</time>
      </trkpt>
      <trkpt lat="46.32201" lon="-1.09233">
        <ele>4.3</ele>
        <time>2020-06-02T15:02:42Z</time>
      </trkpt>
      <trkpt lat="46.32201" lon="-1.09232">
        <ele>4.3</ele>
        <time>2020-06-02T15:02:43Z</time>
      </trkpt>
      <trkpt lat="46.32201" lon="-1.09232">
        <ele>4.3</ele>
        <time>2020-06-02T15:02:44Z</time>
      </trkpt>
      <trkpt lat="46.32202" lon="-1.09233">
        <ele>4.3</ele>
        <time>2020-06-02T15:02:45Z</time>
      </trkpt>
      <trkpt lat="46.32202" lon="-1.09233">
        <ele>4.3</ele>
        <time>2020-06-02T15:02:46Z</time>
      </trkpt>
      <trkpt lat="46.32201" lon="-1.09234">
        <ele>4.3</ele>
        <time>2020-06-02T15:02:47Z</time>
      </trkpt>
      <trkpt lat="46.32201" lon="-1.09233">
        <ele>4.3</ele>
        <time>2020-06-02T15:02:48Z</time>
      </trkpt>
      <trkpt lat="46.32202" lon="-1.09233">
        <ele>4.3</ele>
        <time>2020-06-02T15:02:49Z</time>
      </trkpt>
      <trkpt lat="46.32202" lon="-1.09233">
        <ele>4.3</ele>
        <time>2020-06-02T15:02:50Z</time>
      </trkpt>
      <trkpt lat="46.32202" lon="-1.09233">
        <ele>4.3</ele>
        <time>2020-06-02T15:02:51Z</time>
      </trkpt>
      <trkpt lat="46.32202" lon="-1.09233">
        <ele>4.3</ele>
        <time>2020-06-02T15:02:52Z</time>
      </trkpt>
      <trkpt lat="46.32202" lon="-1.09233">
        <ele>4.3</ele>
        <time>2020-06-02T15:02:53Z</time>
      </trkpt>
      <trkpt lat="46.32202" lon="-1.09233">
        <ele>4.3</ele>
        <time>2020-06-02T15:02:54Z</time>
      </trkpt>
      <trkpt lat="46.32202" lon="-1.09233">
        <ele>4.3</ele>
        <time>2020-06-02T15:02:55Z</time>
      </trkpt>
      <trkpt lat="46.32202" lon="-1.09233">
        <ele>4.3</ele>
        <time>2020-06-02T15:02:56Z</time>
      </trkpt>
      <trkpt lat="46.32202" lon="-1.09233">
        <ele>4.3</ele>
        <time>2020-06-02T15:02:57Z</time>
      </trkpt>
      <trkpt lat="46.32202" lon="-1.09233">
        <ele>4.3</ele>
        <time>2020-06-02T15:02:58Z</time>
      </trkpt>
      <trkpt lat="46.32203" lon="-1.09233">
        <ele>4.3</ele>
        <time>2020-06-02T15:02:59Z</time>
      </trkpt>
      <trkpt lat="46.32203" lon="-1.09233">
        <ele>4.3</ele>
        <time>2020-06-02T15:03:00Z</time>
      </trkpt>
      <trkpt lat="46.32203" lon="-1.09233">
        <ele>4.3</ele>
        <time>2020-06-02T15:03:01Z</time>
      </trkpt>
      <trkpt lat="46.32203" lon="-1.09233">
        <ele>4.3</ele>
        <time>2020-06-02T15:03:02Z</time>
      </trkpt>
      <trkpt lat="46.32203" lon="-1.09233">
        <ele>4.3</ele>
        <time>2020-06-02T15:03:03Z</time>
      </trkpt>
      <trkpt lat="46.32203" lon="-1.09233">
        <ele>4.3</ele>
        <time>2020-06-02T15:03:04Z</time>
      </trkpt>
      <trkpt lat="46.32203" lon="-1.09233">
        <ele>4.3</ele>
        <time>2020-06-02T15:03:05Z</time>
      </trkpt>
      <trkpt lat="46.32203" lon="-1.09233">
        <ele>4.3</ele>
        <time>2020-06-02T15:03:06Z</time>
      </trkpt>
      <trkpt lat="46.32203" lon="-1.09233">
        <ele>4.3</ele>
        <time>2020-06-02T15:03:07Z</time>
      </trkpt>
      <trkpt lat="46.32203" lon="-1.09233">
        <ele>4.3</ele>
        <time>2020-06-02T15:03:08Z</time>
      </trkpt>
      <trkpt lat="46.32203" lon="-1.09232">
        <ele>4.3</ele>
        <time>2020-06-02T15:03:09Z</time>
      </trkpt>
      <trkpt lat="46.32204" lon="-1.09232">
        <ele>4.3</ele>
        <time>2020-06-02T15:03:10Z</time>
      </trkpt>
      <trkpt lat="46.32204" lon="-1.09233">
        <ele>4.3</ele>
        <time>2020-06-02T15:03:11Z</time>
      </trkpt>
      <trkpt lat="46.32204" lon="-1.09232">
        <ele>4.3</ele>
        <time>2020-06-02T15:03:12Z</time>
      </trkpt>
      <trkpt lat="46.32204" lon="-1.09232">
        <ele>4.3</ele>
        <time>2020-06-02T15:03:13Z</time>
      </trkpt>
      <trkpt lat="46.32204" lon="-1.09233">
        <ele>4.3</ele>
        <time>2020-06-02T15:03:14Z</time>
      </trkpt>
      <trkpt lat="46.32204" lon="-1.09233">
        <ele>4.3</ele>
        <time>2020-06-02T15:03:15Z</time>
      </trkpt>
      <trkpt lat="46.32204" lon="-1.09233">
        <ele>4.3</ele>
        <time>2020-06-02T15:03:16Z</time>
      </trkpt>
      <trkpt lat="46.32204" lon="-1.09233">
        <ele>4.3</ele>
        <time>2020-06-02T15:03:17Z</time>
      </trkpt>
      <trkpt lat="46.32204" lon="-1.09233">
        <ele>4.3</ele>
        <time>2020-06-02T15:03:18Z</time>
      </trkpt>
      <trkpt lat="46.32204" lon="-1.09233">
        <ele>4.3</ele>
        <time>2020-06-02T15:03:19Z</time>
      </trkpt>
      <trkpt lat="46.32204" lon="-1.09233">
        <ele>4.3</ele>
        <time>2020-06-02T15:03:20Z</time>
      </trkpt>
      <trkpt lat="46.32203" lon="-1.09233">
        <ele>4.3</ele>
        <time>2020-06-02T15:03:21Z</time>
      </trkpt>
      <trkpt lat="46.32203" lon="-1.09233">
        <ele>4.3</ele>
        <time>2020-06-02T15:03:22Z</time>
      </trkpt>
      <trkpt lat="46.32203" lon="-1.09232">
        <ele>4.3</ele>
        <time>2020-06-02T15:03:23Z</time>
      </trkpt>
      <trkpt lat="46.32203" lon="-1.09232">
        <ele>4.3</ele>
        <time>2020-06-02T15:03:24Z</time>
      </trkpt>
      <trkpt lat="46.32202" lon="-1.09233">
        <ele>4.3</ele>
        <time>2020-06-02T15:03:25Z</time>
      </trkpt>
      <trkpt lat="46.32202" lon="-1.09233">
        <ele>4.3</ele>
        <time>2020-06-02T15:03:26Z</time>
      </trkpt>
      <trkpt lat="46.32202" lon="-1.09233">
        <ele>4.3</ele>
        <time>2020-06-02T15:03:27Z</time>
      </trkpt>
      <trkpt lat="46.32202" lon="-1.09233">
        <ele>4.3</ele>
        <time>2020-06-02T15:03:28Z</time>
      </trkpt>
      <trkpt lat="46.32202" lon="-1.09233">
        <ele>4.3</ele>
        <time>2020-06-02T15:03:29Z</time>
      </trkpt>
      <trkpt lat="46.32202" lon="-1.09233">
        <ele>4.3</ele>
        <time>2020-06-02T15:03:30Z</time>
      </trkpt>
      <trkpt lat="46.32202" lon="-1.09233">
        <ele>4.3</ele>
        <time>2020-06-02T15:03:31Z</time>
      </trkpt>
      <trkpt lat="46.32202" lon="-1.09233">
        <ele>4.3</ele>
        <time>2020-06-02T15:03:32Z</time>
      </trkpt>
      <trkpt lat="46.32202" lon="-1.09232">
        <ele>4.3</ele>
        <time>2020-06-02T15:03:33Z</time>
      </trkpt>
      <trkpt lat="46.32201" lon="-1.09232">
        <ele>4.3</ele>
        <time>2020-06-02T15:03:34Z</time>
      </trkpt>
      <trkpt lat="46.322" lon="-1.09231">
        <ele>4.3</ele>
        <time>2020-06-02T15:03:35Z</time>
      </trkpt>
      <trkpt lat="46.32201" lon="-1.09232">
        <ele>4.3</ele>
        <time>2020-06-02T15:03:36Z</time>
      </trkpt>
      <trkpt lat="46.32201" lon="-1.09233">
        <ele>4.3</ele>
        <time>2020-06-02T15:03:37Z</time>
      </trkpt>
      <trkpt lat="46.32202" lon="-1.09234">
        <ele>4.3</ele>
        <time>2020-06-02T15:03:38Z</time>
      </trkpt>
      <trkpt lat="46.32202" lon="-1.09235">
        <ele>4.3</ele>
        <time>2020-06-02T15:03:39Z</time>
      </trkpt>
      <trkpt lat="46.32203" lon="-1.09236">
        <ele>4.3</ele>
        <time>2020-06-02T15:03:40Z</time>
      </trkpt>
      <trkpt lat="46.32204" lon="-1.09236">
        <ele>4.3</ele>
        <time>2020-06-02T15:03:41Z</time>
      </trkpt>
      <trkpt lat="46.32205" lon="-1.0924">
        <ele>4.3</ele>
        <time>2020-06-02T15:03:42Z</time>
      </trkpt>
      <trkpt lat="46.32209" lon="-1.09243">
        <ele>4.4</ele>
        <time>2020-06-02T15:03:43Z</time>
      </trkpt>
      <trkpt lat="46.32213" lon="-1.09246">
        <ele>4.4</ele>
        <time>2020-06-02T15:03:44Z</time>
      </trkpt>
      <trkpt lat="46.32218" lon="-1.09251">
        <ele>4.4</ele>
        <time>2020-06-02T15:03:45Z</time>
      </trkpt>
      <trkpt lat="46.32223" lon="-1.09256">
        <ele>4.4</ele>
        <time>2020-06-02T15:03:46Z</time>
      </trkpt>
      <trkpt lat="46.32228" lon="-1.09262">
        <ele>4.4</ele>
        <time>2020-06-02T15:03:47Z</time>
      </trkpt>
      <trkpt lat="46.32233" lon="-1.09267">
        <ele>4.4</ele>
        <time>2020-06-02T15:03:48Z</time>
      </trkpt>
      <trkpt lat="46.3224" lon="-1.09272">
        <ele>4.4</ele>
        <time>2020-06-02T15:03:49Z</time>
      </trkpt>
      <trkpt lat="46.32245" lon="-1.09278">
        <ele>4.4</ele>
        <time>2020-06-02T15:03:50Z</time>
      </trkpt>
      <trkpt lat="46.32251" lon="-1.09283">
        <ele>4.4</ele>
        <time>2020-06-02T15:03:51Z</time>
      </trkpt>
      <trkpt lat="46.32257" lon="-1.09288">
        <ele>4.4</ele>
        <time>2020-06-02T15:03:52Z</time>
      </trkpt>
      <trkpt lat="46.32262" lon="-1.09293">
        <ele>4.3</ele>
        <time>2020-06-02T15:03:53Z</time>
      </trkpt>
      <trkpt lat="46.32268" lon="-1.09299">
        <ele>4.2</ele>
        <time>2020-06-02T15:03:54Z</time>
      </trkpt>
      <trkpt lat="46.32274" lon="-1.09305">
        <ele>4.2</ele>
        <time>2020-06-02T15:03:55Z</time>
      </trkpt>
      <trkpt lat="46.32279" lon="-1.09311">
        <ele>4.2</ele>
        <time>2020-06-02T15:03:56Z</time>
      </trkpt>
      <trkpt lat="46.32285" lon="-1.09317">
        <ele>4.3</ele>
        <time>2020-06-02T15:03:57Z</time>
      </trkpt>
      <trkpt lat="46.3229" lon="-1.09323">
        <ele>4.6</ele>
        <time>2020-06-02T15:03:58Z</time>
      </trkpt>
      <trkpt lat="46.32295" lon="-1.09328">
        <ele>4.8</ele>
        <time>2020-06-02T15:03:59Z</time>
      </trkpt>
      <trkpt lat="46.323" lon="-1.09333">
        <ele>5.1</ele>
        <time>2020-06-02T15:04:00Z</time>
      </trkpt>
      <trkpt lat="46.32304" lon="-1.09338">
        <ele>5.3</ele>
        <time>2020-06-02T15:04:01Z</time>
      </trkpt>
      <trkpt lat="46.32309" lon="-1.09345">
        <ele>5.3</ele>
        <time>2020-06-02T15:04:02Z</time>
      </trkpt>
      <trkpt lat="46.32313" lon="-1.0935">
        <ele>5.2</ele>
        <time>2020-06-02T15:04:03Z</time>
      </trkpt>
      <trkpt lat="46.32317" lon="-1.09357">
        <ele>5.1</ele>
        <time>2020-06-02T15:04:04Z</time>
      </trkpt>
      <trkpt lat="46.32322" lon="-1.09364">
        <ele>5</ele>
        <time>2020-06-02T15:04:05Z</time>
      </trkpt>
      <trkpt lat="46.32327" lon="-1.09369">
        <ele>4.9</ele>
        <time>2020-06-02T15:04:06Z</time>
      </trkpt>
      <trkpt lat="46.32331" lon="-1.09376">
        <ele>4.9</ele>
        <time>2020-06-02T15:04:07Z</time>
      </trkpt>
      <trkpt lat="46.32337" lon="-1.09383">
        <ele>4.9</ele>
        <time>2020-06-02T15:04:08Z</time>
      </trkpt>
      <trkpt lat="46.32341" lon="-1.09391">
        <ele>4.9</ele>
        <time>2020-06-02T15:04:09Z</time>
      </trkpt>
      <trkpt lat="46.32346" lon="-1.09397">
        <ele>4.9</ele>
        <time>2020-06-02T15:04:10Z</time>
      </trkpt>
      <trkpt lat="46.32351" lon="-1.09403">
        <ele>4.9</ele>
        <time>2020-06-02T15:04:11Z</time>
      </trkpt>
      <trkpt lat="46.32356" lon="-1.09409">
        <ele>4.9</ele>
        <time>2020-06-02T15:04:12Z</time>
      </trkpt>
      <trkpt lat="46.32361" lon="-1.09415">
        <ele>4.9</ele>
        <time>2020-06-02T15:04:13Z</time>
      </trkpt>
      <trkpt lat="46.32366" lon="-1.0942">
        <ele>4.9</ele>
        <time>2020-06-02T15:04:14Z</time>
      </trkpt>
      <trkpt lat="46.32371" lon="-1.09426">
        <ele>4.9</ele>
        <time>2020-06-02T15:04:15Z</time>
      </trkpt>
      <trkpt lat="46.32376" lon="-1.09433">
        <ele>4.9</ele>
        <time>2020-06-02T15:04:16Z</time>
      </trkpt>
      <trkpt lat="46.3238" lon="-1.09438">
        <ele>4.9</ele>
        <time>2020-06-02T15:04:17Z</time>
      </trkpt>
      <trkpt lat="46.32385" lon="-1.09444">
        <ele>4.9</ele>
        <time>2020-06-02T15:04:18Z</time>
      </trkpt>
      <trkpt lat="46.32389" lon="-1.09449">
        <ele>4.9</ele>
        <time>2020-06-02T15:04:19Z</time>
      </trkpt>
      <trkpt lat="46.32394" lon="-1.09456">
        <ele>4.8</ele>
        <time>2020-06-02T15:04:20Z</time>
      </trkpt>
      <trkpt lat="46.32399" lon="-1.09462">
        <ele>4.8</ele>
        <time>2020-06-02T15:04:21Z</time>
      </trkpt>
      <trkpt lat="46.32404" lon="-1.09469">
        <ele>4.8</ele>
        <time>2020-06-02T15:04:22Z</time>
      </trkpt>
      <trkpt lat="46.32409" lon="-1.09476">
        <ele>4.8</ele>
        <time>2020-06-02T15:04:23Z</time>
      </trkpt>
      <trkpt lat="46.32413" lon="-1.09482">
        <ele>4.9</ele>
        <time>2020-06-02T15:04:24Z</time>
      </trkpt>
      <trkpt lat="46.32417" lon="-1.09488">
        <ele>4.9</ele>
        <time>2020-06-02T15:04:25Z</time>
      </trkpt>
      <trkpt lat="46.32421" lon="-1.09493">
        <ele>4.9</ele>
        <time>2020-06-02T15:04:26Z</time>
      </trkpt>
      <trkpt lat="46.32425" lon="-1.09498">
        <ele>4.8</ele>
        <time>2020-06-02T15:04:27Z</time>
      </trkpt>
      <trkpt lat="46.3243" lon="-1.09504">
        <ele>4.8</ele>
        <time>2020-06-02T15:04:28Z</time>
      </trkpt>
      <trkpt lat="46.32434" lon="-1.09509">
        <ele>4.8</ele>
        <time>2020-06-02T15:04:29Z</time>
      </trkpt>
      <trkpt lat="46.32439" lon="-1.09516">
        <ele>4.7</ele>
        <time>2020-06-02T15:04:30Z</time>
      </trkpt>
      <trkpt lat="46.32442" lon="-1.09521">
        <ele>4.7</ele>
        <time>2020-06-02T15:04:31Z</time>
      </trkpt>
      <trkpt lat="46.32446" lon="-1.09527">
        <ele>4.7</ele>
        <time>2020-06-02T15:04:32Z</time>
      </trkpt>
      <trkpt lat="46.32449" lon="-1.09532">
        <ele>4.7</ele>
        <time>2020-06-02T15:04:33Z</time>
      </trkpt>
      <trkpt lat="46.32453" lon="-1.09537">
        <ele>4.7</ele>
        <time>2020-06-02T15:04:34Z</time>
      </trkpt>
      <trkpt lat="46.32457" lon="-1.09542">
        <ele>4.7</ele>
        <time>2020-06-02T15:04:35Z</time>
      </trkpt>
      <trkpt lat="46.3246" lon="-1.09546">
        <ele>4.7</ele>
        <time>2020-06-02T15:04:36Z</time>
      </trkpt>
      <trkpt lat="46.32464" lon="-1.09551">
        <ele>4.7</ele>
        <time>2020-06-02T15:04:37Z</time>
      </trkpt>
      <trkpt lat="46.32468" lon="-1.09555">
        <ele>4.7</ele>
        <time>2020-06-02T15:04:38Z</time>
      </trkpt>
      <trkpt lat="46.32472" lon="-1.0956">
        <ele>4.6</ele>
        <time>2020-06-02T15:04:39Z</time>
      </trkpt>
      <trkpt lat="46.32476" lon="-1.09565">
        <ele>4.6</ele>
        <time>2020-06-02T15:04:40Z</time>
      </trkpt>
      <trkpt lat="46.3248" lon="-1.09569">
        <ele>4.5</ele>
        <time>2020-06-02T15:04:41Z</time>
      </trkpt>
      <trkpt lat="46.32484" lon="-1.09573">
        <ele>4.5</ele>
        <time>2020-06-02T15:04:42Z</time>
      </trkpt>
      <trkpt lat="46.32487" lon="-1.09577">
        <ele>4.4</ele>
        <time>2020-06-02T15:04:43Z</time>
      </trkpt>
      <trkpt lat="46.32491" lon="-1.09582">
        <ele>4.3</ele>
        <time>2020-06-02T15:04:44Z</time>
      </trkpt>
      <trkpt lat="46.32494" lon="-1.09585">
        <ele>4.2</ele>
        <time>2020-06-02T15:04:45Z</time>
      </trkpt>
      <trkpt lat="46.32497" lon="-1.09588">
        <ele>4.2</ele>
        <time>2020-06-02T15:04:46Z</time>
      </trkpt>
      <trkpt lat="46.325" lon="-1.09591">
        <ele>4.1</ele>
        <time>2020-06-02T15:04:47Z</time>
      </trkpt>
      <trkpt lat="46.32504" lon="-1.09595">
        <ele>4.1</ele>
        <time>2020-06-02T15:04:48Z</time>
      </trkpt>
      <trkpt lat="46.32507" lon="-1.096">
        <ele>4.1</ele>
        <time>2020-06-02T15:04:49Z</time>
      </trkpt>
      <trkpt lat="46.32509" lon="-1.09603">
        <ele>4.1</ele>
        <time>2020-06-02T15:04:50Z</time>
      </trkpt>
      <trkpt lat="46.32512" lon="-1.09608">
        <ele>4.2</ele>
        <time>2020-06-02T15:04:51Z</time>
      </trkpt>
      <trkpt lat="46.32515" lon="-1.09612">
        <ele>4.2</ele>
        <time>2020-06-02T15:04:52Z</time>
      </trkpt>
      <trkpt lat="46.32518" lon="-1.09616">
        <ele>4.3</ele>
        <time>2020-06-02T15:04:53Z</time>
      </trkpt>
      <trkpt lat="46.32521" lon="-1.0962">
        <ele>4.4</ele>
        <time>2020-06-02T15:04:54Z</time>
      </trkpt>
      <trkpt lat="46.32524" lon="-1.09623">
        <ele>4.5</ele>
        <time>2020-06-02T15:04:55Z</time>
      </trkpt>
      <trkpt lat="46.32527" lon="-1.09627">
        <ele>4.6</ele>
        <time>2020-06-02T15:04:56Z</time>
      </trkpt>
      <trkpt lat="46.32529" lon="-1.0963">
        <ele>4.7</ele>
        <time>2020-06-02T15:04:57Z</time>
      </trkpt>
      <trkpt lat="46.32532" lon="-1.09633">
        <ele>4.8</ele>
        <time>2020-06-02T15:04:58Z</time>
      </trkpt>
      <trkpt lat="46.32535" lon="-1.09637">
        <ele>4.9</ele>
        <time>2020-06-02T15:04:59Z</time>
      </trkpt>
      <trkpt lat="46.32539" lon="-1.09641">
        <ele>4.9</ele>
        <time>2020-06-02T15:05:00Z</time>
      </trkpt>
      <trkpt lat="46.32542" lon="-1.09645">
        <ele>5</ele>
        <time>2020-06-02T15:05:01Z</time>
      </trkpt>
      <trkpt lat="46.32545" lon="-1.09648">
        <ele>5</ele>
        <time>2020-06-02T15:05:02Z</time>
      </trkpt>
      <trkpt lat="46.32548" lon="-1.09652">
        <ele>5</ele>
        <time>2020-06-02T15:05:03Z</time>
      </trkpt>
      <trkpt lat="46.3255" lon="-1.09655">
        <ele>4.9</ele>
        <time>2020-06-02T15:05:04Z</time>
      </trkpt>
      <trkpt lat="46.32553" lon="-1.09659">
        <ele>4.8</ele>
        <time>2020-06-02T15:05:05Z</time>
      </trkpt>
      <trkpt lat="46.32557" lon="-1.09664">
        <ele>4.7</ele>
        <time>2020-06-02T15:05:06Z</time>
      </trkpt>
      <trkpt lat="46.32561" lon="-1.09669">
        <ele>4.6</ele>
        <time>2020-06-02T15:05:07Z</time>
      </trkpt>
      <trkpt lat="46.32564" lon="-1.09671">
        <ele>4.5</ele>
        <time>2020-06-02T15:05:08Z</time>
      </trkpt>
      <trkpt lat="46.32567" lon="-1.09675">
        <ele>4.4</ele>
        <time>2020-06-02T15:05:09Z</time>
      </trkpt>
      <trkpt lat="46.32569" lon="-1.09678">
        <ele>4.3</ele>
        <time>2020-06-02T15:05:10Z</time>
      </trkpt>
      <trkpt lat="46.32572" lon="-1.09682">
        <ele>4.2</ele>
        <time>2020-06-02T15:05:11Z</time>
      </trkpt>
      <trkpt lat="46.32574" lon="-1.09684">
        <ele>4.2</ele>
        <time>2020-06-02T15:05:12Z</time>
      </trkpt>
      <trkpt lat="46.32577" lon="-1.09687">
        <ele>4.2</ele>
        <time>2020-06-02T15:05:13Z</time>
      </trkpt>
      <trkpt lat="46.32577" lon="-1.09687">
        <ele>4.2</ele>
        <time>2020-06-02T15:05:14Z</time>
      </trkpt>
      <trkpt lat="46.32578" lon="-1.09687">
        <ele>4.2</ele>
        <time>2020-06-02T15:05:15Z</time>
      </trkpt>
      <trkpt lat="46.32577" lon="-1.09687">
        <ele>4.1</ele>
        <time>2020-06-02T15:05:16Z</time>
      </trkpt>
      <trkpt lat="46.32576" lon="-1.09686">
        <ele>4.1</ele>
        <time>2020-06-02T15:05:17Z</time>
      </trkpt>
      <trkpt lat="46.32576" lon="-1.09685">
        <ele>4.1</ele>
        <time>2020-06-02T15:05:18Z</time>
      </trkpt>
      <trkpt lat="46.32575" lon="-1.09685">
        <ele>4.1</ele>
        <time>2020-06-02T15:05:19Z</time>
      </trkpt>
      <trkpt lat="46.32575" lon="-1.09684">
        <ele>4.1</ele>
        <time>2020-06-02T15:05:20Z</time>
      </trkpt>
      <trkpt lat="46.32575" lon="-1.09684">
        <ele>4.1</ele>
        <time>2020-06-02T15:05:21Z</time>
      </trkpt>
      <trkpt lat="46.32575" lon="-1.09685">
        <ele>4.1</ele>
        <time>2020-06-02T15:05:22Z</time>
      </trkpt>
      <trkpt lat="46.32575" lon="-1.09685">
        <ele>4.1</ele>
        <time>2020-06-02T15:05:23Z</time>
      </trkpt>
      <trkpt lat="46.32575" lon="-1.09685">
        <ele>4.1</ele>
        <time>2020-06-02T15:05:24Z</time>
      </trkpt>
      <trkpt lat="46.32575" lon="-1.09685">
        <ele>4.1</ele>
        <time>2020-06-02T15:05:25Z</time>
      </trkpt>
      <trkpt lat="46.32575" lon="-1.09685">
        <ele>4.1</ele>
        <time>2020-06-02T15:05:26Z</time>
      </trkpt>
      <trkpt lat="46.32575" lon="-1.09685">
        <ele>4.1</ele>
        <time>2020-06-02T15:05:27Z</time>
      </trkpt>
      <trkpt lat="46.32576" lon="-1.09685">
        <ele>4.1</ele>
        <time>2020-06-02T15:05:28Z</time>
      </trkpt>
      <trkpt lat="46.32576" lon="-1.09685">
        <ele>4.1</ele>
        <time>2020-06-02T15:05:29Z</time>
      </trkpt>
      <trkpt lat="46.32576" lon="-1.09685">
        <ele>4.1</ele>
        <time>2020-06-02T15:05:30Z</time>
      </trkpt>
      <trkpt lat="46.32576" lon="-1.09685">
        <ele>4.1</ele>
        <time>2020-06-02T15:05:31Z</time>
      </trkpt>
      <trkpt lat="46.32576" lon="-1.09685">
        <ele>4.1</ele>
        <time>2020-06-02T15:05:32Z</time>
      </trkpt>
      <trkpt lat="46.32576" lon="-1.09685">
        <ele>4.1</ele>
        <time>2020-06-02T15:05:33Z</time>
      </trkpt>
      <trkpt lat="46.32576" lon="-1.09686">
        <ele>4.1</ele>
        <time>2020-06-02T15:05:34Z</time>
      </trkpt>
      <trkpt lat="46.32576" lon="-1.09686">
        <ele>4.1</ele>
        <time>2020-06-02T15:05:35Z</time>
      </trkpt>
      <trkpt lat="46.32576" lon="-1.09686">
        <ele>4.1</ele>
        <time>2020-06-02T15:05:36Z</time>
      </trkpt>
      <trkpt lat="46.32576" lon="-1.09686">
        <ele>4.1</ele>
        <time>2020-06-02T15:05:37Z</time>
      </trkpt>
      <trkpt lat="46.32576" lon="-1.09686">
        <ele>4.1</ele>
        <time>2020-06-02T15:05:38Z</time>
      </trkpt>
      <trkpt lat="46.32576" lon="-1.09686">
        <ele>4.1</ele>
        <time>2020-06-02T15:05:39Z</time>
      </trkpt>
      <trkpt lat="46.32577" lon="-1.09686">
        <ele>4.1</ele>
        <time>2020-06-02T15:05:40Z</time>
      </trkpt>
      <trkpt lat="46.32577" lon="-1.09686">
        <ele>4.1</ele>
        <time>2020-06-02T15:05:41Z</time>
      </trkpt>
      <trkpt lat="46.32577" lon="-1.09686">
        <ele>4.1</ele>
        <time>2020-06-02T15:05:42Z</time>
      </trkpt>
      <trkpt lat="46.32577" lon="-1.09686">
        <ele>4.1</ele>
        <time>2020-06-02T15:05:43Z</time>
      </trkpt>
      <trkpt lat="46.32577" lon="-1.09686">
        <ele>4.1</ele>
        <time>2020-06-02T15:05:44Z</time>
      </trkpt>
      <trkpt lat="46.32577" lon="-1.09686">
        <ele>4.1</ele>
        <time>2020-06-02T15:05:45Z</time>
      </trkpt>
      <trkpt lat="46.32577" lon="-1.09687">
        <ele>4.1</ele>
        <time>2020-06-02T15:05:46Z</time>
      </trkpt>
      <trkpt lat="46.32577" lon="-1.09687">
        <ele>4.1</ele>
        <time>2020-06-02T15:05:47Z</time>
      </trkpt>
      <trkpt lat="46.32577" lon="-1.09687">
        <ele>4.1</ele>
        <time>2020-06-02T15:05:48Z</time>
      </trkpt>
      <trkpt lat="46.32577" lon="-1.09687">
        <ele>4.1</ele>
        <time>2020-06-02T15:05:49Z</time>
      </trkpt>
      <trkpt lat="46.32577" lon="-1.09687">
        <ele>4.1</ele>
        <time>2020-06-02T15:05:50Z</time>
      </trkpt>
      <trkpt lat="46.32577" lon="-1.09687">
        <ele>4.1</ele>
        <time>2020-06-02T15:05:51Z</time>
      </trkpt>
      <trkpt lat="46.32578" lon="-1.09687">
        <ele>4.1</ele>
        <time>2020-06-02T15:05:52Z</time>
      </trkpt>
      <trkpt lat="46.32578" lon="-1.09687">
        <ele>4.1</ele>
        <time>2020-06-02T15:05:53Z</time>
      </trkpt>
      <trkpt lat="46.32578" lon="-1.09687">
        <ele>4.1</ele>
        <time>2020-06-02T15:05:54Z</time>
      </trkpt>
      <trkpt lat="46.32578" lon="-1.09687">
        <ele>4.1</ele>
        <time>2020-06-02T15:05:55Z</time>
      </trkpt>
      <trkpt lat="46.32578" lon="-1.09687">
        <ele>4.1</ele>
        <time>2020-06-02T15:05:56Z</time>
      </trkpt>
      <trkpt lat="46.32578" lon="-1.09687">
        <ele>4.1</ele>
        <time>2020-06-02T15:05:57Z</time>
      </trkpt>
      <trkpt lat="46.32578" lon="-1.09688">
        <ele>4.1</ele>
        <time>2020-06-02T15:05:58Z</time>
      </trkpt>
      <trkpt lat="46.32578" lon="-1.09688">
        <ele>4.1</ele>
        <time>2020-06-02T15:05:59Z</time>
      </trkpt>
      <trkpt lat="46.32578" lon="-1.09688">
        <ele>4.1</ele>
        <time>2020-06-02T15:06:00Z</time>
      </trkpt>
      <trkpt lat="46.32578" lon="-1.09688">
        <ele>4.1</ele>
        <time>2020-06-02T15:06:01Z</time>
      </trkpt>
      <trkpt lat="46.32578" lon="-1.09688">
        <ele>4.1</ele>
        <time>2020-06-02T15:06:02Z</time>
      </trkpt>
      <trkpt lat="46.3258" lon="-1.09691">
        <ele>4.1</ele>
        <time>2020-06-02T15:06:03Z</time>
      </trkpt>
      <trkpt lat="46.32583" lon="-1.09696">
        <ele>4</ele>
        <time>2020-06-02T15:06:04Z</time>
      </trkpt>
      <trkpt lat="46.32584" lon="-1.09697">
        <ele>4</ele>
        <time>2020-06-02T15:06:05Z</time>
      </trkpt>
      <trkpt lat="46.32586" lon="-1.097">
        <ele>4</ele>
        <time>2020-06-02T15:06:06Z</time>
      </trkpt>
      <trkpt lat="46.32589" lon="-1.09703">
        <ele>4</ele>
        <time>2020-06-02T15:06:07Z</time>
      </trkpt>
      <trkpt lat="46.32592" lon="-1.09707">
        <ele>4</ele>
        <time>2020-06-02T15:06:08Z</time>
      </trkpt>
      <trkpt lat="46.32595" lon="-1.0971">
        <ele>4.1</ele>
        <time>2020-06-02T15:06:09Z</time>
      </trkpt>
      <trkpt lat="46.32598" lon="-1.09713">
        <ele>4.1</ele>
        <time>2020-06-02T15:06:10Z</time>
      </trkpt>
      <trkpt lat="46.32602" lon="-1.09716">
        <ele>4.1</ele>
        <time>2020-06-02T15:06:11Z</time>
      </trkpt>
      <trkpt lat="46.32604" lon="-1.0972">
        <ele>4.1</ele>
        <time>2020-06-02T15:06:12Z</time>
      </trkpt>
      <trkpt lat="46.32607" lon="-1.09724">
        <ele>4.1</ele>
        <time>2020-06-02T15:06:13Z</time>
      </trkpt>
      <trkpt lat="46.3261" lon="-1.09726">
        <ele>4.1</ele>
        <time>2020-06-02T15:06:14Z</time>
      </trkpt>
      <trkpt lat="46.32612" lon="-1.0973">
        <ele>4.1</ele>
        <time>2020-06-02T15:06:15Z</time>
      </trkpt>
      <trkpt lat="46.32616" lon="-1.09734">
        <ele>4.1</ele>
        <time>2020-06-02T15:06:16Z</time>
      </trkpt>
      <trkpt lat="46.32619" lon="-1.09737">
        <ele>4.1</ele>
        <time>2020-06-02T15:06:17Z</time>
      </trkpt>
      <trkpt lat="46.32623" lon="-1.0974">
        <ele>4.1</ele>
        <time>2020-06-02T15:06:18Z</time>
      </trkpt>
      <trkpt lat="46.32626" lon="-1.09744">
        <ele>4.1</ele>
        <time>2020-06-02T15:06:19Z</time>
      </trkpt>
      <trkpt lat="46.32629" lon="-1.09749">
        <ele>4.1</ele>
        <time>2020-06-02T15:06:20Z</time>
      </trkpt>
      <trkpt lat="46.32633" lon="-1.09753">
        <ele>4.1</ele>
        <time>2020-06-02T15:06:21Z</time>
      </trkpt>
      <trkpt lat="46.32637" lon="-1.09757">
        <ele>4.1</ele>
        <time>2020-06-02T15:06:22Z</time>
      </trkpt>
      <trkpt lat="46.3264" lon="-1.09761">
        <ele>4.1</ele>
        <time>2020-06-02T15:06:23Z</time>
      </trkpt>
      <trkpt lat="46.32644" lon="-1.09765">
        <ele>4.1</ele>
        <time>2020-06-02T15:06:24Z</time>
      </trkpt>
      <trkpt lat="46.32648" lon="-1.09769">
        <ele>4.1</ele>
        <time>2020-06-02T15:06:25Z</time>
      </trkpt>
      <trkpt lat="46.3265" lon="-1.09773">
        <ele>4</ele>
        <time>2020-06-02T15:06:26Z</time>
      </trkpt>
      <trkpt lat="46.32654" lon="-1.09777">
        <ele>4</ele>
        <time>2020-06-02T15:06:27Z</time>
      </trkpt>
      <trkpt lat="46.32657" lon="-1.09781">
        <ele>4</ele>
        <time>2020-06-02T15:06:28Z</time>
      </trkpt>
      <trkpt lat="46.32661" lon="-1.09785">
        <ele>4</ele>
        <time>2020-06-02T15:06:29Z</time>
      </trkpt>
      <trkpt lat="46.32664" lon="-1.09789">
        <ele>4.1</ele>
        <time>2020-06-02T15:06:30Z</time>
      </trkpt>
      <trkpt lat="46.32666" lon="-1.09794">
        <ele>4.1</ele>
        <time>2020-06-02T15:06:31Z</time>
      </trkpt>
      <trkpt lat="46.3267" lon="-1.09799">
        <ele>4.1</ele>
        <time>2020-06-02T15:06:32Z</time>
      </trkpt>
      <trkpt lat="46.32674" lon="-1.09803">
        <ele>4.1</ele>
        <time>2020-06-02T15:06:33Z</time>
      </trkpt>
      <trkpt lat="46.32677" lon="-1.09807">
        <ele>4.1</ele>
        <time>2020-06-02T15:06:34Z</time>
      </trkpt>
      <trkpt lat="46.32681" lon="-1.09811">
        <ele>4.1</ele>
        <time>2020-06-02T15:06:35Z</time>
      </trkpt>
      <trkpt lat="46.32684" lon="-1.09815">
        <ele>4.1</ele>
        <time>2020-06-02T15:06:36Z</time>
      </trkpt>
      <trkpt lat="46.32687" lon="-1.09818">
        <ele>4.1</ele>
        <time>2020-06-02T15:06:37Z</time>
      </trkpt>
      <trkpt lat="46.3269" lon="-1.09821">
        <ele>4.1</ele>
        <time>2020-06-02T15:06:38Z</time>
      </trkpt>
      <trkpt lat="46.32693" lon="-1.09826">
        <ele>4.1</ele>
        <time>2020-06-02T15:06:39Z</time>
      </trkpt>
      <trkpt lat="46.32697" lon="-1.0983">
        <ele>4.1</ele>
        <time>2020-06-02T15:06:40Z</time>
      </trkpt>
      <trkpt lat="46.32701" lon="-1.09835">
        <ele>4.1</ele>
        <time>2020-06-02T15:06:41Z</time>
      </trkpt>
      <trkpt lat="46.32705" lon="-1.09839">
        <ele>4.1</ele>
        <time>2020-06-02T15:06:42Z</time>
      </trkpt>
      <trkpt lat="46.32709" lon="-1.09844">
        <ele>4.1</ele>
        <time>2020-06-02T15:06:43Z</time>
      </trkpt>
      <trkpt lat="46.32714" lon="-1.09849">
        <ele>4.1</ele>
        <time>2020-06-02T15:06:44Z</time>
      </trkpt>
      <trkpt lat="46.32717" lon="-1.09854">
        <ele>4.1</ele>
        <time>2020-06-02T15:06:45Z</time>
      </trkpt>
      <trkpt lat="46.32721" lon="-1.09858">
        <ele>4.1</ele>
        <time>2020-06-02T15:06:46Z</time>
      </trkpt>
      <trkpt lat="46.32725" lon="-1.09863">
        <ele>4.1</ele>
        <time>2020-06-02T15:06:47Z</time>
      </trkpt>
      <trkpt lat="46.32728" lon="-1.09867">
        <ele>4.1</ele>
        <time>2020-06-02T15:06:48Z</time>
      </trkpt>
      <trkpt lat="46.32731" lon="-1.09872">
        <ele>4.2</ele>
        <time>2020-06-02T15:06:49Z</time>
      </trkpt>
      <trkpt lat="46.32735" lon="-1.09875">
        <ele>4.2</ele>
        <time>2020-06-02T15:06:50Z</time>
      </trkpt>
      <trkpt lat="46.32738" lon="-1.09879">
        <ele>4.2</ele>
        <time>2020-06-02T15:06:51Z</time>
      </trkpt>
      <trkpt lat="46.32741" lon="-1.09883">
        <ele>4.3</ele>
        <time>2020-06-02T15:06:52Z</time>
      </trkpt>
      <trkpt lat="46.32744" lon="-1.09888">
        <ele>4.3</ele>
        <time>2020-06-02T15:06:53Z</time>
      </trkpt>
      <trkpt lat="46.32748" lon="-1.09891">
        <ele>4.3</ele>
        <time>2020-06-02T15:06:54Z</time>
      </trkpt>
      <trkpt lat="46.32751" lon="-1.09894">
        <ele>4.3</ele>
        <time>2020-06-02T15:06:55Z</time>
      </trkpt>
      <trkpt lat="46.32754" lon="-1.099">
        <ele>4.3</ele>
        <time>2020-06-02T15:06:56Z</time>
      </trkpt>
      <trkpt lat="46.32758" lon="-1.09905">
        <ele>4.3</ele>
        <time>2020-06-02T15:06:57Z</time>
      </trkpt>
      <trkpt lat="46.32761" lon="-1.09909">
        <ele>4.2</ele>
        <time>2020-06-02T15:06:58Z</time>
      </trkpt>
      <trkpt lat="46.32765" lon="-1.09914">
        <ele>4.2</ele>
        <time>2020-06-02T15:06:59Z</time>
      </trkpt>
      <trkpt lat="46.32768" lon="-1.09918">
        <ele>4.2</ele>
        <time>2020-06-02T15:07:00Z</time>
      </trkpt>
      <trkpt lat="46.32772" lon="-1.09923">
        <ele>4.1</ele>
        <time>2020-06-02T15:07:01Z</time>
      </trkpt>
      <trkpt lat="46.32775" lon="-1.09926">
        <ele>4.1</ele>
        <time>2020-06-02T15:07:02Z</time>
      </trkpt>
      <trkpt lat="46.32778" lon="-1.0993">
        <ele>4.1</ele>
        <time>2020-06-02T15:07:03Z</time>
      </trkpt>
      <trkpt lat="46.32782" lon="-1.09933">
        <ele>4.1</ele>
        <time>2020-06-02T15:07:04Z</time>
      </trkpt>
      <trkpt lat="46.32785" lon="-1.09936">
        <ele>4</ele>
        <time>2020-06-02T15:07:05Z</time>
      </trkpt>
      <trkpt lat="46.32788" lon="-1.09938">
        <ele>4</ele>
        <time>2020-06-02T15:07:06Z</time>
      </trkpt>
      <trkpt lat="46.3279" lon="-1.09941">
        <ele>4</ele>
        <time>2020-06-02T15:07:07Z</time>
      </trkpt>
      <trkpt lat="46.32793" lon="-1.09944">
        <ele>3.9</ele>
        <time>2020-06-02T15:07:08Z</time>
      </trkpt>
      <trkpt lat="46.32794" lon="-1.09945">
        <ele>3.9</ele>
        <time>2020-06-02T15:07:09Z</time>
      </trkpt>
      <trkpt lat="46.32795" lon="-1.09946">
        <ele>3.9</ele>
        <time>2020-06-02T15:07:10Z</time>
      </trkpt>
      <trkpt lat="46.32796" lon="-1.09947">
        <ele>3.9</ele>
        <time>2020-06-02T15:07:11Z</time>
      </trkpt>
      <trkpt lat="46.32796" lon="-1.09947">
        <ele>3.9</ele>
        <time>2020-06-02T15:07:12Z</time>
      </trkpt>
      <trkpt lat="46.32796" lon="-1.09948">
        <ele>3.9</ele>
        <time>2020-06-02T15:07:13Z</time>
      </trkpt>
      <trkpt lat="46.32796" lon="-1.09948">
        <ele>3.9</ele>
        <time>2020-06-02T15:07:14Z</time>
      </trkpt>
      <trkpt lat="46.32796" lon="-1.09949">
        <ele>3.9</ele>
        <time>2020-06-02T15:07:15Z</time>
      </trkpt>
      <trkpt lat="46.32799" lon="-1.09951">
        <ele>3.8</ele>
        <time>2020-06-02T15:07:16Z</time>
      </trkpt>
      <trkpt lat="46.328" lon="-1.09952">
        <ele>3.8</ele>
        <time>2020-06-02T15:07:17Z</time>
      </trkpt>
      <trkpt lat="46.32804" lon="-1.09953">
        <ele>3.8</ele>
        <time>2020-06-02T15:07:18Z</time>
      </trkpt>
      <trkpt lat="46.32806" lon="-1.09956">
        <ele>3.7</ele>
        <time>2020-06-02T15:07:19Z</time>
      </trkpt>
      <trkpt lat="46.32808" lon="-1.09958">
        <ele>3.7</ele>
        <time>2020-06-02T15:07:20Z</time>
      </trkpt>
      <trkpt lat="46.32811" lon="-1.09957">
        <ele>3.7</ele>
        <time>2020-06-02T15:07:21Z</time>
      </trkpt>
      <trkpt lat="46.32812" lon="-1.09956">
        <ele>3.7</ele>
        <time>2020-06-02T15:07:22Z</time>
      </trkpt>
      <trkpt lat="46.32812" lon="-1.09956">
        <ele>3.7</ele>
        <time>2020-06-02T15:07:23Z</time>
      </trkpt>
      <trkpt lat="46.32812" lon="-1.09956">
        <ele>3.7</ele>
        <time>2020-06-02T15:07:24Z</time>
      </trkpt>
      <trkpt lat="46.32812" lon="-1.09956">
        <ele>3.7</ele>
        <time>2020-06-02T15:07:25Z</time>
      </trkpt>
      <trkpt lat="46.32812" lon="-1.09957">
        <ele>3.7</ele>
        <time>2020-06-02T15:07:26Z</time>
      </trkpt>
      <trkpt lat="46.32812" lon="-1.09957">
        <ele>3.7</ele>
        <time>2020-06-02T15:07:27Z</time>
      </trkpt>
      <trkpt lat="46.32812" lon="-1.09957">
        <ele>3.7</ele>
        <time>2020-06-02T15:07:28Z</time>
      </trkpt>
      <trkpt lat="46.32812" lon="-1.09958">
        <ele>3.7</ele>
        <time>2020-06-02T15:07:29Z</time>
      </trkpt>
      <trkpt lat="46.32812" lon="-1.09958">
        <ele>3.7</ele>
        <time>2020-06-02T15:07:30Z</time>
      </trkpt>
      <trkpt lat="46.32813" lon="-1.09958">
        <ele>3.7</ele>
        <time>2020-06-02T15:07:31Z</time>
      </trkpt>
      <trkpt lat="46.32813" lon="-1.09959">
        <ele>3.7</ele>
        <time>2020-06-02T15:07:32Z</time>
      </trkpt>
      <trkpt lat="46.32813" lon="-1.09959">
        <ele>3.7</ele>
        <time>2020-06-02T15:07:33Z</time>
      </trkpt>
      <trkpt lat="46.32813" lon="-1.09959">
        <ele>3.7</ele>
        <time>2020-06-02T15:07:34Z</time>
      </trkpt>
      <trkpt lat="46.32813" lon="-1.0996">
        <ele>3.7</ele>
        <time>2020-06-02T15:07:35Z</time>
      </trkpt>
      <trkpt lat="46.32813" lon="-1.0996">
        <ele>3.7</ele>
        <time>2020-06-02T15:07:36Z</time>
      </trkpt>
      <trkpt lat="46.32813" lon="-1.0996">
        <ele>3.7</ele>
        <time>2020-06-02T15:07:37Z</time>
      </trkpt>
      <trkpt lat="46.32813" lon="-1.09961">
        <ele>3.7</ele>
        <time>2020-06-02T15:07:38Z</time>
      </trkpt>
      <trkpt lat="46.32813" lon="-1.09961">
        <ele>3.7</ele>
        <time>2020-06-02T15:07:39Z</time>
      </trkpt>
      <trkpt lat="46.32813" lon="-1.09961">
        <ele>3.7</ele>
        <time>2020-06-02T15:07:40Z</time>
      </trkpt>
      <trkpt lat="46.32813" lon="-1.09961">
        <ele>3.7</ele>
        <time>2020-06-02T15:07:41Z</time>
      </trkpt>
      <trkpt lat="46.32813" lon="-1.09961">
        <ele>3.7</ele>
        <time>2020-06-02T15:07:42Z</time>
      </trkpt>
      <trkpt lat="46.32814" lon="-1.09961">
        <ele>3.7</ele>
        <time>2020-06-02T15:07:43Z</time>
      </trkpt>
      <trkpt lat="46.32813" lon="-1.09961">
        <ele>3.7</ele>
        <time>2020-06-02T15:07:44Z</time>
      </trkpt>
      <trkpt lat="46.32813" lon="-1.09961">
        <ele>3.7</ele>
        <time>2020-06-02T15:07:45Z</time>
      </trkpt>
      <trkpt lat="46.32813" lon="-1.09961">
        <ele>3.7</ele>
        <time>2020-06-02T15:07:46Z</time>
      </trkpt>
      <trkpt lat="46.32814" lon="-1.09962">
        <ele>3.7</ele>
        <time>2020-06-02T15:07:47Z</time>
      </trkpt>
      <trkpt lat="46.32814" lon="-1.09961">
        <ele>3.7</ele>
        <time>2020-06-02T15:07:48Z</time>
      </trkpt>
      <trkpt lat="46.32814" lon="-1.09961">
        <ele>3.7</ele>
        <time>2020-06-02T15:07:49Z</time>
      </trkpt>
      <trkpt lat="46.32814" lon="-1.09961">
        <ele>3.7</ele>
        <time>2020-06-02T15:07:50Z</time>
      </trkpt>
      <trkpt lat="46.32814" lon="-1.09961">
        <ele>3.7</ele>
        <time>2020-06-02T15:07:51Z</time>
      </trkpt>
      <trkpt lat="46.32814" lon="-1.09961">
        <ele>3.7</ele>
        <time>2020-06-02T15:07:52Z</time>
      </trkpt>
      <trkpt lat="46.32814" lon="-1.09961">
        <ele>3.7</ele>
        <time>2020-06-02T15:07:53Z</time>
      </trkpt>
      <trkpt lat="46.32814" lon="-1.09961">
        <ele>3.7</ele>
        <time>2020-06-02T15:07:54Z</time>
      </trkpt>
      <trkpt lat="46.32814" lon="-1.09961">
        <ele>3.7</ele>
        <time>2020-06-02T15:07:55Z</time>
      </trkpt>
      <trkpt lat="46.32814" lon="-1.09961">
        <ele>3.7</ele>
        <time>2020-06-02T15:07:56Z</time>
      </trkpt>
      <trkpt lat="46.32814" lon="-1.09961">
        <ele>3.7</ele>
        <time>2020-06-02T15:07:57Z</time>
      </trkpt>
      <trkpt lat="46.32814" lon="-1.09962">
        <ele>3.7</ele>
        <time>2020-06-02T15:07:58Z</time>
      </trkpt>
      <trkpt lat="46.32814" lon="-1.09962">
        <ele>3.7</ele>
        <time>2020-06-02T15:07:59Z</time>
      </trkpt>
      <trkpt lat="46.32814" lon="-1.09962">
        <ele>3.7</ele>
        <time>2020-06-02T15:08:00Z</time>
      </trkpt>
      <trkpt lat="46.32814" lon="-1.09962">
        <ele>3.7</ele>
        <time>2020-06-02T15:08:01Z</time>
      </trkpt>
      <trkpt lat="46.32814" lon="-1.09962">
        <ele>3.7</ele>
        <time>2020-06-02T15:08:02Z</time>
      </trkpt>
      <trkpt lat="46.32813" lon="-1.09962">
        <ele>3.7</ele>
        <time>2020-06-02T15:08:03Z</time>
      </trkpt>
      <trkpt lat="46.32813" lon="-1.09962">
        <ele>3.7</ele>
        <time>2020-06-02T15:08:04Z</time>
      </trkpt>
      <trkpt lat="46.32813" lon="-1.09962">
        <ele>3.7</ele>
        <time>2020-06-02T15:08:05Z</time>
      </trkpt>
      <trkpt lat="46.32813" lon="-1.09962">
        <ele>3.7</ele>
        <time>2020-06-02T15:08:06Z</time>
      </trkpt>
      <trkpt lat="46.32813" lon="-1.09962">
        <ele>3.7</ele>
        <time>2020-06-02T15:08:07Z</time>
      </trkpt>
      <trkpt lat="46.32813" lon="-1.09962">
        <ele>3.7</ele>
        <time>2020-06-02T15:08:08Z</time>
      </trkpt>
      <trkpt lat="46.32813" lon="-1.09962">
        <ele>3.7</ele>
        <time>2020-06-02T15:08:09Z</time>
      </trkpt>
      <trkpt lat="46.32813" lon="-1.09962">
        <ele>3.7</ele>
        <time>2020-06-02T15:08:10Z</time>
      </trkpt>
      <trkpt lat="46.32813" lon="-1.09962">
        <ele>3.7</ele>
        <time>2020-06-02T15:08:11Z</time>
      </trkpt>
      <trkpt lat="46.32813" lon="-1.09962">
        <ele>3.7</ele>
        <time>2020-06-02T15:08:12Z</time>
      </trkpt>
      <trkpt lat="46.32813" lon="-1.09962">
        <ele>3.7</ele>
        <time>2020-06-02T15:08:13Z</time>
      </trkpt>
      <trkpt lat="46.32813" lon="-1.09963">
        <ele>3.7</ele>
        <time>2020-06-02T15:08:14Z</time>
      </trkpt>
      <trkpt lat="46.32813" lon="-1.09963">
        <ele>3.7</ele>
        <time>2020-06-02T15:08:15Z</time>
      </trkpt>
      <trkpt lat="46.32814" lon="-1.09964">
        <ele>3.7</ele>
        <time>2020-06-02T15:08:16Z</time>
      </trkpt>
      <trkpt lat="46.32814" lon="-1.09965">
        <ele>3.7</ele>
        <time>2020-06-02T15:08:17Z</time>
      </trkpt>
      <trkpt lat="46.32814" lon="-1.09965">
        <ele>3.7</ele>
        <time>2020-06-02T15:08:18Z</time>
      </trkpt>
      <trkpt lat="46.32814" lon="-1.09965">
        <ele>3.7</ele>
        <time>2020-06-02T15:08:19Z</time>
      </trkpt>
      <trkpt lat="46.32813" lon="-1.09964">
        <ele>3.7</ele>
        <time>2020-06-02T15:08:20Z</time>
      </trkpt>
      <trkpt lat="46.32812" lon="-1.09963">
        <ele>3.7</ele>
        <time>2020-06-02T15:08:21Z</time>
      </trkpt>
      <trkpt lat="46.32812" lon="-1.09963">
        <ele>3.7</ele>
        <time>2020-06-02T15:08:22Z</time>
      </trkpt>
      <trkpt lat="46.32812" lon="-1.09963">
        <ele>3.7</ele>
        <time>2020-06-02T15:08:23Z</time>
      </trkpt>
      <trkpt lat="46.32812" lon="-1.09963">
        <ele>3.7</ele>
        <time>2020-06-02T15:08:24Z</time>
      </trkpt>
      <trkpt lat="46.32812" lon="-1.09963">
        <ele>3.7</ele>
        <time>2020-06-02T15:08:25Z</time>
      </trkpt>
      <trkpt lat="46.32812" lon="-1.09965">
        <ele>3.7</ele>
        <time>2020-06-02T15:08:26Z</time>
      </trkpt>
      <trkpt lat="46.32812" lon="-1.09966">
        <ele>3.7</ele>
        <time>2020-06-02T15:08:27Z</time>
      </trkpt>
      <trkpt lat="46.32812" lon="-1.09967">
        <ele>3.7</ele>
        <time>2020-06-02T15:08:28Z</time>
      </trkpt>
      <trkpt lat="46.32812" lon="-1.09966">
        <ele>3.7</ele>
        <time>2020-06-02T15:08:29Z</time>
      </trkpt>
      <trkpt lat="46.32813" lon="-1.09966">
        <ele>3.7</ele>
        <time>2020-06-02T15:08:30Z</time>
      </trkpt>
      <trkpt lat="46.32813" lon="-1.09967">
        <ele>3.7</ele>
        <time>2020-06-02T15:08:31Z</time>
      </trkpt>
      <trkpt lat="46.32813" lon="-1.09967">
        <ele>3.7</ele>
        <time>2020-06-02T15:08:32Z</time>
      </trkpt>
      <trkpt lat="46.32813" lon="-1.09967">
        <ele>3.7</ele>
        <time>2020-06-02T15:08:33Z</time>
      </trkpt>
      <trkpt lat="46.32813" lon="-1.09967">
        <ele>3.7</ele>
        <time>2020-06-02T15:08:34Z</time>
      </trkpt>
      <trkpt lat="46.32813" lon="-1.09968">
        <ele>3.7</ele>
        <time>2020-06-02T15:08:35Z</time>
      </trkpt>
      <trkpt lat="46.32813" lon="-1.09969">
        <ele>3.7</ele>
        <time>2020-06-02T15:08:36Z</time>
      </trkpt>
      <trkpt lat="46.32814" lon="-1.0997">
        <ele>3.7</ele>
        <time>2020-06-02T15:08:37Z</time>
      </trkpt>
      <trkpt lat="46.32814" lon="-1.0997">
        <ele>3.7</ele>
        <time>2020-06-02T15:08:38Z</time>
      </trkpt>
      <trkpt lat="46.32814" lon="-1.0997">
        <ele>3.7</ele>
        <time>2020-06-02T15:08:39Z</time>
      </trkpt>
      <trkpt lat="46.32814" lon="-1.09969">
        <ele>3.7</ele>
        <time>2020-06-02T15:08:40Z</time>
      </trkpt>
      <trkpt lat="46.32814" lon="-1.09969">
        <ele>3.7</ele>
        <time>2020-06-02T15:08:41Z</time>
      </trkpt>
      <trkpt lat="46.32816" lon="-1.09971">
        <ele>3.7</ele>
        <time>2020-06-02T15:08:42Z</time>
      </trkpt>
      <trkpt lat="46.32818" lon="-1.09973">
        <ele>3.7</ele>
        <time>2020-06-02T15:08:43Z</time>
      </trkpt>
      <trkpt lat="46.32819" lon="-1.09974">
        <ele>3.7</ele>
        <time>2020-06-02T15:08:44Z</time>
      </trkpt>
      <trkpt lat="46.3282" lon="-1.09975">
        <ele>3.7</ele>
        <time>2020-06-02T15:08:45Z</time>
      </trkpt>
      <trkpt lat="46.32822" lon="-1.09977">
        <ele>3.7</ele>
        <time>2020-06-02T15:08:46Z</time>
      </trkpt>
      <trkpt lat="46.32826" lon="-1.0998">
        <ele>3.7</ele>
        <time>2020-06-02T15:08:47Z</time>
      </trkpt>
      <trkpt lat="46.32828" lon="-1.09984">
        <ele>3.7</ele>
        <time>2020-06-02T15:08:48Z</time>
      </trkpt>
      <trkpt lat="46.32832" lon="-1.09988">
        <ele>3.7</ele>
        <time>2020-06-02T15:08:49Z</time>
      </trkpt>
      <trkpt lat="46.32837" lon="-1.09991">
        <ele>3.7</ele>
        <time>2020-06-02T15:08:50Z</time>
      </trkpt>
      <trkpt lat="46.3284" lon="-1.09995">
        <ele>3.7</ele>
        <time>2020-06-02T15:08:51Z</time>
      </trkpt>
      <trkpt lat="46.32844" lon="-1.09998">
        <ele>3.7</ele>
        <time>2020-06-02T15:08:52Z</time>
      </trkpt>
      <trkpt lat="46.32848" lon="-1.10002">
        <ele>3.7</ele>
        <time>2020-06-02T15:08:53Z</time>
      </trkpt>
      <trkpt lat="46.32851" lon="-1.10005">
        <ele>3.7</ele>
        <time>2020-06-02T15:08:54Z</time>
      </trkpt>
      <trkpt lat="46.32854" lon="-1.10007">
        <ele>3.7</ele>
        <time>2020-06-02T15:08:55Z</time>
      </trkpt>
      <trkpt lat="46.32857" lon="-1.1001">
        <ele>3.7</ele>
        <time>2020-06-02T15:08:56Z</time>
      </trkpt>
      <trkpt lat="46.3286" lon="-1.10014">
        <ele>3.7</ele>
        <time>2020-06-02T15:08:57Z</time>
      </trkpt>
      <trkpt lat="46.32863" lon="-1.10018">
        <ele>3.7</ele>
        <time>2020-06-02T15:08:58Z</time>
      </trkpt>
      <trkpt lat="46.32867" lon="-1.10022">
        <ele>3.8</ele>
        <time>2020-06-02T15:08:59Z</time>
      </trkpt>
      <trkpt lat="46.3287" lon="-1.10027">
        <ele>3.8</ele>
        <time>2020-06-02T15:09:00Z</time>
      </trkpt>
      <trkpt lat="46.32873" lon="-1.1003">
        <ele>3.8</ele>
        <time>2020-06-02T15:09:01Z</time>
      </trkpt>
      <trkpt lat="46.32876" lon="-1.10034">
        <ele>3.8</ele>
        <time>2020-06-02T15:09:02Z</time>
      </trkpt>
      <trkpt lat="46.3288" lon="-1.10036">
        <ele>3.8</ele>
        <time>2020-06-02T15:09:03Z</time>
      </trkpt>
      <trkpt lat="46.32883" lon="-1.10039">
        <ele>3.8</ele>
        <time>2020-06-02T15:09:04Z</time>
      </trkpt>
      <trkpt lat="46.32886" lon="-1.10041">
        <ele>3.8</ele>
        <time>2020-06-02T15:09:05Z</time>
      </trkpt>
      <trkpt lat="46.3289" lon="-1.10044">
        <ele>3.8</ele>
        <time>2020-06-02T15:09:06Z</time>
      </trkpt>
      <trkpt lat="46.32893" lon="-1.10048">
        <ele>3.8</ele>
        <time>2020-06-02T15:09:07Z</time>
      </trkpt>
      <trkpt lat="46.32897" lon="-1.10051">
        <ele>3.8</ele>
        <time>2020-06-02T15:09:08Z</time>
      </trkpt>
      <trkpt lat="46.32901" lon="-1.10055">
        <ele>3.8</ele>
        <time>2020-06-02T15:09:09Z</time>
      </trkpt>
      <trkpt lat="46.32905" lon="-1.10059">
        <ele>3.8</ele>
        <time>2020-06-02T15:09:10Z</time>
      </trkpt>
      <trkpt lat="46.32908" lon="-1.10062">
        <ele>3.8</ele>
        <time>2020-06-02T15:09:11Z</time>
      </trkpt>
      <trkpt lat="46.32911" lon="-1.10066">
        <ele>3.8</ele>
        <time>2020-06-02T15:09:12Z</time>
      </trkpt>
      <trkpt lat="46.32914" lon="-1.10071">
        <ele>3.8</ele>
        <time>2020-06-02T15:09:13Z</time>
      </trkpt>
      <trkpt lat="46.32917" lon="-1.10075">
        <ele>3.7</ele>
        <time>2020-06-02T15:09:14Z</time>
      </trkpt>
      <trkpt lat="46.32921" lon="-1.10079">
        <ele>3.7</ele>
        <time>2020-06-02T15:09:15Z</time>
      </trkpt>
      <trkpt lat="46.32924" lon="-1.10083">
        <ele>3.7</ele>
        <time>2020-06-02T15:09:16Z</time>
      </trkpt>
      <trkpt lat="46.32928" lon="-1.10087">
        <ele>3.7</ele>
        <time>2020-06-02T15:09:17Z</time>
      </trkpt>
      <trkpt lat="46.32932" lon="-1.1009">
        <ele>3.7</ele>
        <time>2020-06-02T15:09:18Z</time>
      </trkpt>
      <trkpt lat="46.32935" lon="-1.10093">
        <ele>3.7</ele>
        <time>2020-06-02T15:09:19Z</time>
      </trkpt>
      <trkpt lat="46.3294" lon="-1.10096">
        <ele>3.7</ele>
        <time>2020-06-02T15:09:20Z</time>
      </trkpt>
      <trkpt lat="46.32943" lon="-1.101">
        <ele>3.7</ele>
        <time>2020-06-02T15:09:21Z</time>
      </trkpt>
      <trkpt lat="46.32947" lon="-1.10103">
        <ele>3.6</ele>
        <time>2020-06-02T15:09:22Z</time>
      </trkpt>
      <trkpt lat="46.32951" lon="-1.10107">
        <ele>3.6</ele>
        <time>2020-06-02T15:09:23Z</time>
      </trkpt>
      <trkpt lat="46.32956" lon="-1.10111">
        <ele>3.6</ele>
        <time>2020-06-02T15:09:24Z</time>
      </trkpt>
      <trkpt lat="46.3296" lon="-1.10114">
        <ele>3.6</ele>
        <time>2020-06-02T15:09:25Z</time>
      </trkpt>
      <trkpt lat="46.32965" lon="-1.10117">
        <ele>3.6</ele>
        <time>2020-06-02T15:09:26Z</time>
      </trkpt>
      <trkpt lat="46.32969" lon="-1.1012">
        <ele>3.6</ele>
        <time>2020-06-02T15:09:27Z</time>
      </trkpt>
      <trkpt lat="46.32973" lon="-1.10121">
        <ele>3.5</ele>
        <time>2020-06-02T15:09:28Z</time>
      </trkpt>
      <trkpt lat="46.32978" lon="-1.10123">
        <ele>3.5</ele>
        <time>2020-06-02T15:09:29Z</time>
      </trkpt>
      <trkpt lat="46.32982" lon="-1.10126">
        <ele>3.5</ele>
        <time>2020-06-02T15:09:30Z</time>
      </trkpt>
      <trkpt lat="46.32986" lon="-1.10129">
        <ele>3.5</ele>
        <time>2020-06-02T15:09:31Z</time>
      </trkpt>
      <trkpt lat="46.32991" lon="-1.10131">
        <ele>3.5</ele>
        <time>2020-06-02T15:09:32Z</time>
      </trkpt>
      <trkpt lat="46.32996" lon="-1.10133">
        <ele>3.5</ele>
        <time>2020-06-02T15:09:33Z</time>
      </trkpt>
      <trkpt lat="46.33001" lon="-1.10135">
        <ele>3.5</ele>
        <time>2020-06-02T15:09:34Z</time>
      </trkpt>
      <trkpt lat="46.33005" lon="-1.10137">
        <ele>3.5</ele>
        <time>2020-06-02T15:09:35Z</time>
      </trkpt>
      <trkpt lat="46.3301" lon="-1.10138">
        <ele>3.5</ele>
        <time>2020-06-02T15:09:36Z</time>
      </trkpt>
      <trkpt lat="46.33014" lon="-1.10139">
        <ele>3.5</ele>
        <time>2020-06-02T15:09:37Z</time>
      </trkpt>
      <trkpt lat="46.33018" lon="-1.1014">
        <ele>3.4</ele>
        <time>2020-06-02T15:09:38Z</time>
      </trkpt>
      <trkpt lat="46.33022" lon="-1.10141">
        <ele>3.4</ele>
        <time>2020-06-02T15:09:39Z</time>
      </trkpt>
      <trkpt lat="46.33026" lon="-1.10143">
        <ele>3.4</ele>
        <time>2020-06-02T15:09:40Z</time>
      </trkpt>
      <trkpt lat="46.33029" lon="-1.10145">
        <ele>3.4</ele>
        <time>2020-06-02T15:09:41Z</time>
      </trkpt>
      <trkpt lat="46.33033" lon="-1.10147">
        <ele>3.4</ele>
        <time>2020-06-02T15:09:42Z</time>
      </trkpt>
      <trkpt lat="46.33036" lon="-1.10148">
        <ele>3.4</ele>
        <time>2020-06-02T15:09:43Z</time>
      </trkpt>
      <trkpt lat="46.33039" lon="-1.1015">
        <ele>3.3</ele>
        <time>2020-06-02T15:09:44Z</time>
      </trkpt>
      <trkpt lat="46.33042" lon="-1.1015">
        <ele>3.3</ele>
        <time>2020-06-02T15:09:45Z</time>
      </trkpt>
      <trkpt lat="46.33045" lon="-1.10152">
        <ele>3.3</ele>
        <time>2020-06-02T15:09:46Z</time>
      </trkpt>
      <trkpt lat="46.33048" lon="-1.10154">
        <ele>3.3</ele>
        <time>2020-06-02T15:09:47Z</time>
      </trkpt>
      <trkpt lat="46.3305" lon="-1.10154">
        <ele>3.3</ele>
        <time>2020-06-02T15:09:48Z</time>
      </trkpt>
      <trkpt lat="46.33053" lon="-1.10155">
        <ele>3.3</ele>
        <time>2020-06-02T15:09:49Z</time>
      </trkpt>
      <trkpt lat="46.33056" lon="-1.10158">
        <ele>3.3</ele>
        <time>2020-06-02T15:09:50Z</time>
      </trkpt>
      <trkpt lat="46.33059" lon="-1.1016">
        <ele>3.3</ele>
        <time>2020-06-02T15:09:51Z</time>
      </trkpt>
      <trkpt lat="46.33062" lon="-1.10162">
        <ele>3.3</ele>
        <time>2020-06-02T15:09:52Z</time>
      </trkpt>
      <trkpt lat="46.33066" lon="-1.10164">
        <ele>3.3</ele>
        <time>2020-06-02T15:09:53Z</time>
      </trkpt>
      <trkpt lat="46.33069" lon="-1.10165">
        <ele>3.3</ele>
        <time>2020-06-02T15:09:54Z</time>
      </trkpt>
      <trkpt lat="46.33073" lon="-1.10167">
        <ele>3.3</ele>
        <time>2020-06-02T15:09:55Z</time>
      </trkpt>
      <trkpt lat="46.33076" lon="-1.10169">
        <ele>3.3</ele>
        <time>2020-06-02T15:09:56Z</time>
      </trkpt>
      <trkpt lat="46.3308" lon="-1.10171">
        <ele>3.3</ele>
        <time>2020-06-02T15:09:57Z</time>
      </trkpt>
      <trkpt lat="46.33083" lon="-1.10173">
        <ele>3.3</ele>
        <time>2020-06-02T15:09:58Z</time>
      </trkpt>
      <trkpt lat="46.33087" lon="-1.10175">
        <ele>3.3</ele>
        <time>2020-06-02T15:09:59Z</time>
      </trkpt>
      <trkpt lat="46.33091" lon="-1.10178">
        <ele>3.3</ele>
        <time>2020-06-02T15:10:00Z</time>
      </trkpt>
      <trkpt lat="46.33094" lon="-1.1018">
        <ele>3.3</ele>
        <time>2020-06-02T15:10:01Z</time>
      </trkpt>
      <trkpt lat="46.33098" lon="-1.10182">
        <ele>3.3</ele>
        <time>2020-06-02T15:10:02Z</time>
      </trkpt>
      <trkpt lat="46.33102" lon="-1.10184">
        <ele>3.3</ele>
        <time>2020-06-02T15:10:03Z</time>
      </trkpt>
      <trkpt lat="46.33106" lon="-1.10186">
        <ele>3.3</ele>
        <time>2020-06-02T15:10:04Z</time>
      </trkpt>
      <trkpt lat="46.3311" lon="-1.10188">
        <ele>3.3</ele>
        <time>2020-06-02T15:10:05Z</time>
      </trkpt>
      <trkpt lat="46.33115" lon="-1.1019">
        <ele>3.2</ele>
        <time>2020-06-02T15:10:06Z</time>
      </trkpt>
      <trkpt lat="46.33119" lon="-1.10192">
        <ele>3.2</ele>
        <time>2020-06-02T15:10:07Z</time>
      </trkpt>
      <trkpt lat="46.33123" lon="-1.10194">
        <ele>3.2</ele>
        <time>2020-06-02T15:10:08Z</time>
      </trkpt>
      <trkpt lat="46.33127" lon="-1.10196">
        <ele>3.2</ele>
        <time>2020-06-02T15:10:09Z</time>
      </trkpt>
      <trkpt lat="46.33132" lon="-1.10198">
        <ele>3.2</ele>
        <time>2020-06-02T15:10:10Z</time>
      </trkpt>
      <trkpt lat="46.33136" lon="-1.102">
        <ele>3.2</ele>
        <time>2020-06-02T15:10:11Z</time>
      </trkpt>
      <trkpt lat="46.33141" lon="-1.10201">
        <ele>3.2</ele>
        <time>2020-06-02T15:10:12Z</time>
      </trkpt>
      <trkpt lat="46.33145" lon="-1.10204">
        <ele>3.2</ele>
        <time>2020-06-02T15:10:13Z</time>
      </trkpt>
      <trkpt lat="46.33148" lon="-1.10207">
        <ele>3.2</ele>
        <time>2020-06-02T15:10:14Z</time>
      </trkpt>
      <trkpt lat="46.33152" lon="-1.10211">
        <ele>3.2</ele>
        <time>2020-06-02T15:10:15Z</time>
      </trkpt>
      <trkpt lat="46.33154" lon="-1.10214">
        <ele>3.2</ele>
        <time>2020-06-02T15:10:16Z</time>
      </trkpt>
      <trkpt lat="46.33157" lon="-1.10218">
        <ele>3.2</ele>
        <time>2020-06-02T15:10:17Z</time>
      </trkpt>
      <trkpt lat="46.33159" lon="-1.10221">
        <ele>3.1</ele>
        <time>2020-06-02T15:10:18Z</time>
      </trkpt>
      <trkpt lat="46.33161" lon="-1.10224">
        <ele>3.1</ele>
        <time>2020-06-02T15:10:19Z</time>
      </trkpt>
      <trkpt lat="46.33163" lon="-1.10229">
        <ele>3.2</ele>
        <time>2020-06-02T15:10:20Z</time>
      </trkpt>
      <trkpt lat="46.33163" lon="-1.10229">
        <ele>3.2</ele>
        <time>2020-06-02T15:10:21Z</time>
      </trkpt>
      <trkpt lat="46.33164" lon="-1.10231">
        <ele>3.2</ele>
        <time>2020-06-02T15:10:22Z</time>
      </trkpt>
      <trkpt lat="46.33164" lon="-1.10232">
        <ele>3.2</ele>
        <time>2020-06-02T15:10:23Z</time>
      </trkpt>
      <trkpt lat="46.33164" lon="-1.10233">
        <ele>3.2</ele>
        <time>2020-06-02T15:10:24Z</time>
      </trkpt>
      <trkpt lat="46.33164" lon="-1.10234">
        <ele>3.2</ele>
        <time>2020-06-02T15:10:25Z</time>
      </trkpt>
      <trkpt lat="46.33164" lon="-1.10233">
        <ele>3.2</ele>
        <time>2020-06-02T15:10:26Z</time>
      </trkpt>
      <trkpt lat="46.33164" lon="-1.10233">
        <ele>3.2</ele>
        <time>2020-06-02T15:10:27Z</time>
      </trkpt>
      <trkpt lat="46.33163" lon="-1.10233">
        <ele>3.2</ele>
        <time>2020-06-02T15:10:28Z</time>
      </trkpt>
      <trkpt lat="46.33163" lon="-1.10234">
        <ele>3.2</ele>
        <time>2020-06-02T15:10:29Z</time>
      </trkpt>
      <trkpt lat="46.33163" lon="-1.10234">
        <ele>3.2</ele>
        <time>2020-06-02T15:10:30Z</time>
      </trkpt>
      <trkpt lat="46.33162" lon="-1.10233">
        <ele>3.2</ele>
        <time>2020-06-02T15:10:31Z</time>
      </trkpt>
      <trkpt lat="46.33162" lon="-1.10234">
        <ele>3.2</ele>
        <time>2020-06-02T15:10:32Z</time>
      </trkpt>
      <trkpt lat="46.33162" lon="-1.10233">
        <ele>3.2</ele>
        <time>2020-06-02T15:10:33Z</time>
      </trkpt>
      <trkpt lat="46.33162" lon="-1.10233">
        <ele>3.2</ele>
        <time>2020-06-02T15:10:34Z</time>
      </trkpt>
      <trkpt lat="46.33162" lon="-1.10233">
        <ele>3.2</ele>
        <time>2020-06-02T15:10:35Z</time>
      </trkpt>
      <trkpt lat="46.33162" lon="-1.10233">
        <ele>3.2</ele>
        <time>2020-06-02T15:10:36Z</time>
      </trkpt>
      <trkpt lat="46.33162" lon="-1.10233">
        <ele>3.2</ele>
        <time>2020-06-02T15:10:37Z</time>
      </trkpt>
      <trkpt lat="46.33162" lon="-1.10233">
        <ele>3.2</ele>
        <time>2020-06-02T15:10:38Z</time>
      </trkpt>
      <trkpt lat="46.33162" lon="-1.10233">
        <ele>3.2</ele>
        <time>2020-06-02T15:10:39Z</time>
      </trkpt>
      <trkpt lat="46.33162" lon="-1.10233">
        <ele>3.2</ele>
        <time>2020-06-02T15:10:40Z</time>
      </trkpt>
      <trkpt lat="46.33162" lon="-1.10233">
        <ele>3.2</ele>
        <time>2020-06-02T15:10:41Z</time>
      </trkpt>
      <trkpt lat="46.33162" lon="-1.10233">
        <ele>3.2</ele>
        <time>2020-06-02T15:10:42Z</time>
      </trkpt>
      <trkpt lat="46.33162" lon="-1.10233">
        <ele>3.2</ele>
        <time>2020-06-02T15:10:43Z</time>
      </trkpt>
      <trkpt lat="46.33162" lon="-1.10233">
        <ele>3.2</ele>
        <time>2020-06-02T15:10:44Z</time>
      </trkpt>
      <trkpt lat="46.33162" lon="-1.10233">
        <ele>3.2</ele>
        <time>2020-06-02T15:10:45Z</time>
      </trkpt>
      <trkpt lat="46.33162" lon="-1.10233">
        <ele>3.2</ele>
        <time>2020-06-02T15:10:46Z</time>
      </trkpt>
      <trkpt lat="46.33162" lon="-1.10233">
        <ele>3.2</ele>
        <time>2020-06-02T15:10:47Z</time>
      </trkpt>
      <trkpt lat="46.33162" lon="-1.10233">
        <ele>3.2</ele>
        <time>2020-06-02T15:10:48Z</time>
      </trkpt>
      <trkpt lat="46.33162" lon="-1.10233">
        <ele>3.2</ele>
        <time>2020-06-02T15:10:49Z</time>
      </trkpt>
      <trkpt lat="46.33162" lon="-1.10233">
        <ele>3.2</ele>
        <time>2020-06-02T15:10:50Z</time>
      </trkpt>
      <trkpt lat="46.33162" lon="-1.10233">
        <ele>3.2</ele>
        <time>2020-06-02T15:10:51Z</time>
      </trkpt>
      <trkpt lat="46.33162" lon="-1.10233">
        <ele>3.2</ele>
        <time>2020-06-02T15:10:52Z</time>
      </trkpt>
      <trkpt lat="46.33162" lon="-1.10233">
        <ele>3.2</ele>
        <time>2020-06-02T15:10:53Z</time>
      </trkpt>
      <trkpt lat="46.33162" lon="-1.10233">
        <ele>3.2</ele>
        <time>2020-06-02T15:10:54Z</time>
      </trkpt>
      <trkpt lat="46.33163" lon="-1.10232">
        <ele>3.2</ele>
        <time>2020-06-02T15:10:55Z</time>
      </trkpt>
      <trkpt lat="46.33162" lon="-1.10232">
        <ele>3.2</ele>
        <time>2020-06-02T15:10:56Z</time>
      </trkpt>
      <trkpt lat="46.33162" lon="-1.10231">
        <ele>3.2</ele>
        <time>2020-06-02T15:10:57Z</time>
      </trkpt>
      <trkpt lat="46.33162" lon="-1.10232">
        <ele>3.2</ele>
        <time>2020-06-02T15:10:58Z</time>
      </trkpt>
      <trkpt lat="46.33162" lon="-1.10232">
        <ele>3.2</ele>
        <time>2020-06-02T15:10:59Z</time>
      </trkpt>
      <trkpt lat="46.33162" lon="-1.10232">
        <ele>3.2</ele>
        <time>2020-06-02T15:11:00Z</time>
      </trkpt>
      <trkpt lat="46.33162" lon="-1.10232">
        <ele>3.2</ele>
        <time>2020-06-02T15:11:01Z</time>
      </trkpt>
      <trkpt lat="46.33162" lon="-1.10232">
        <ele>3.2</ele>
        <time>2020-06-02T15:11:02Z</time>
      </trkpt>
      <trkpt lat="46.33162" lon="-1.10231">
        <ele>3.2</ele>
        <time>2020-06-02T15:11:03Z</time>
      </trkpt>
      <trkpt lat="46.33162" lon="-1.10231">
        <ele>3.2</ele>
        <time>2020-06-02T15:11:04Z</time>
      </trkpt>
      <trkpt lat="46.33162" lon="-1.10231">
        <ele>3.2</ele>
        <time>2020-06-02T15:11:05Z</time>
      </trkpt>
      <trkpt lat="46.33162" lon="-1.10232">
        <ele>3.2</ele>
        <time>2020-06-02T15:11:06Z</time>
      </trkpt>
      <trkpt lat="46.33162" lon="-1.10232">
        <ele>3.2</ele>
        <time>2020-06-02T15:11:07Z</time>
      </trkpt>
      <trkpt lat="46.33162" lon="-1.10232">
        <ele>3.2</ele>
        <time>2020-06-02T15:11:08Z</time>
      </trkpt>
      <trkpt lat="46.33162" lon="-1.10231">
        <ele>3.2</ele>
        <time>2020-06-02T15:11:09Z</time>
      </trkpt>
      <trkpt lat="46.33162" lon="-1.10231">
        <ele>3.2</ele>
        <time>2020-06-02T15:11:10Z</time>
      </trkpt>
      <trkpt lat="46.33162" lon="-1.10231">
        <ele>3.2</ele>
        <time>2020-06-02T15:11:11Z</time>
      </trkpt>
      <trkpt lat="46.33162" lon="-1.10232">
        <ele>3.2</ele>
        <time>2020-06-02T15:11:12Z</time>
      </trkpt>
      <trkpt lat="46.33162" lon="-1.10232">
        <ele>3.2</ele>
        <time>2020-06-02T15:11:13Z</time>
      </trkpt>
      <trkpt lat="46.33162" lon="-1.10231">
        <ele>3.2</ele>
        <time>2020-06-02T15:11:14Z</time>
      </trkpt>
      <trkpt lat="46.33162" lon="-1.10231">
        <ele>3.2</ele>
        <time>2020-06-02T15:11:15Z</time>
      </trkpt>
      <trkpt lat="46.33162" lon="-1.10231">
        <ele>3.2</ele>
        <time>2020-06-02T15:11:16Z</time>
      </trkpt>
      <trkpt lat="46.33162" lon="-1.10231">
        <ele>3.2</ele>
        <time>2020-06-02T15:11:17Z</time>
      </trkpt>
      <trkpt lat="46.33162" lon="-1.10231">
        <ele>3.2</ele>
        <time>2020-06-02T15:11:18Z</time>
      </trkpt>
      <trkpt lat="46.33162" lon="-1.10231">
        <ele>3.2</ele>
        <time>2020-06-02T15:11:19Z</time>
      </trkpt>
      <trkpt lat="46.33162" lon="-1.10231">
        <ele>3.2</ele>
        <time>2020-06-02T15:11:20Z</time>
      </trkpt>
      <trkpt lat="46.33162" lon="-1.10231">
        <ele>3.2</ele>
        <time>2020-06-02T15:11:21Z</time>
      </trkpt>
      <trkpt lat="46.33162" lon="-1.10231">
        <ele>3.2</ele>
        <time>2020-06-02T15:11:22Z</time>
      </trkpt>
      <trkpt lat="46.33162" lon="-1.10231">
        <ele>3.2</ele>
        <time>2020-06-02T15:11:23Z</time>
      </trkpt>
      <trkpt lat="46.33162" lon="-1.10231">
        <ele>3.2</ele>
        <time>2020-06-02T15:11:24Z</time>
      </trkpt>
      <trkpt lat="46.33163" lon="-1.10231">
        <ele>3.2</ele>
        <time>2020-06-02T15:11:25Z</time>
      </trkpt>
      <trkpt lat="46.33162" lon="-1.10231">
        <ele>3.2</ele>
        <time>2020-06-02T15:11:26Z</time>
      </trkpt>
      <trkpt lat="46.33162" lon="-1.10231">
        <ele>3.2</ele>
        <time>2020-06-02T15:11:27Z</time>
      </trkpt>
      <trkpt lat="46.33162" lon="-1.10231">
        <ele>3.2</ele>
        <time>2020-06-02T15:11:28Z</time>
      </trkpt>
      <trkpt lat="46.33162" lon="-1.10231">
        <ele>3.2</ele>
        <time>2020-06-02T15:11:29Z</time>
      </trkpt>
      <trkpt lat="46.33162" lon="-1.10231">
        <ele>3.2</ele>
        <time>2020-06-02T15:11:30Z</time>
      </trkpt>
      <trkpt lat="46.33162" lon="-1.10231">
        <ele>3.2</ele>
        <time>2020-06-02T15:11:31Z</time>
      </trkpt>
      <trkpt lat="46.33162" lon="-1.10231">
        <ele>3.2</ele>
        <time>2020-06-02T15:11:32Z</time>
      </trkpt>
      <trkpt lat="46.33162" lon="-1.10231">
        <ele>3.2</ele>
        <time>2020-06-02T15:11:33Z</time>
      </trkpt>
      <trkpt lat="46.33162" lon="-1.10231">
        <ele>3.2</ele>
        <time>2020-06-02T15:11:34Z</time>
      </trkpt>
      <trkpt lat="46.33162" lon="-1.10231">
        <ele>3.2</ele>
        <time>2020-06-02T15:11:35Z</time>
      </trkpt>
      <trkpt lat="46.33162" lon="-1.10231">
        <ele>3.2</ele>
        <time>2020-06-02T15:11:36Z</time>
      </trkpt>
      <trkpt lat="46.33163" lon="-1.10231">
        <ele>3.2</ele>
        <time>2020-06-02T15:11:37Z</time>
      </trkpt>
      <trkpt lat="46.33163" lon="-1.10231">
        <ele>3.2</ele>
        <time>2020-06-02T15:11:38Z</time>
      </trkpt>
      <trkpt lat="46.33163" lon="-1.10231">
        <ele>3.2</ele>
        <time>2020-06-02T15:11:39Z</time>
      </trkpt>
      <trkpt lat="46.33163" lon="-1.10231">
        <ele>3.2</ele>
        <time>2020-06-02T15:11:40Z</time>
      </trkpt>
      <trkpt lat="46.33163" lon="-1.10231">
        <ele>3.2</ele>
        <time>2020-06-02T15:11:41Z</time>
      </trkpt>
      <trkpt lat="46.33163" lon="-1.10231">
        <ele>3.2</ele>
        <time>2020-06-02T15:11:42Z</time>
      </trkpt>
      <trkpt lat="46.33163" lon="-1.10231">
        <ele>3.2</ele>
        <time>2020-06-02T15:11:43Z</time>
      </trkpt>
      <trkpt lat="46.33163" lon="-1.10231">
        <ele>3.2</ele>
        <time>2020-06-02T15:11:44Z</time>
      </trkpt>
      <trkpt lat="46.33163" lon="-1.10231">
        <ele>3.2</ele>
        <time>2020-06-02T15:11:45Z</time>
      </trkpt>
      <trkpt lat="46.33163" lon="-1.10231">
        <ele>3.2</ele>
        <time>2020-06-02T15:11:46Z</time>
      </trkpt>
      <trkpt lat="46.33163" lon="-1.10231">
        <ele>3.2</ele>
        <time>2020-06-02T15:11:47Z</time>
      </trkpt>
      <trkpt lat="46.33163" lon="-1.1023">
        <ele>3.2</ele>
        <time>2020-06-02T15:11:48Z</time>
      </trkpt>
      <trkpt lat="46.33163" lon="-1.1023">
        <ele>3.2</ele>
        <time>2020-06-02T15:11:49Z</time>
      </trkpt>
      <trkpt lat="46.33163" lon="-1.1023">
        <ele>3.2</ele>
        <time>2020-06-02T15:11:50Z</time>
      </trkpt>
      <trkpt lat="46.33163" lon="-1.1023">
        <ele>3.2</ele>
        <time>2020-06-02T15:11:51Z</time>
      </trkpt>
      <trkpt lat="46.33163" lon="-1.1023">
        <ele>3.2</ele>
        <time>2020-06-02T15:11:52Z</time>
      </trkpt>
      <trkpt lat="46.33163" lon="-1.1023">
        <ele>3.2</ele>
        <time>2020-06-02T15:11:53Z</time>
      </trkpt>
      <trkpt lat="46.33162" lon="-1.1023">
        <ele>3.2</ele>
        <time>2020-06-02T15:11:54Z</time>
      </trkpt>
      <trkpt lat="46.33162" lon="-1.1023">
        <ele>3.2</ele>
        <time>2020-06-02T15:11:55Z</time>
      </trkpt>
      <trkpt lat="46.33162" lon="-1.1023">
        <ele>3.2</ele>
        <time>2020-06-02T15:11:56Z</time>
      </trkpt>
      <trkpt lat="46.33162" lon="-1.1023">
        <ele>3.2</ele>
        <time>2020-06-02T15:11:57Z</time>
      </trkpt>
      <trkpt lat="46.33161" lon="-1.1023">
        <ele>3.2</ele>
        <time>2020-06-02T15:11:58Z</time>
      </trkpt>
      <trkpt lat="46.33161" lon="-1.1023">
        <ele>3.2</ele>
        <time>2020-06-02T15:11:59Z</time>
      </trkpt>
      <trkpt lat="46.33161" lon="-1.1023">
        <ele>3.2</ele>
        <time>2020-06-02T15:12:00Z</time>
      </trkpt>
      <trkpt lat="46.33161" lon="-1.1023">
        <ele>3.2</ele>
        <time>2020-06-02T15:12:01Z</time>
      </trkpt>
      <trkpt lat="46.33161" lon="-1.1023">
        <ele>3.2</ele>
        <time>2020-06-02T15:12:02Z</time>
      </trkpt>
      <trkpt lat="46.33161" lon="-1.1023">
        <ele>3.2</ele>
        <time>2020-06-02T15:12:03Z</time>
      </trkpt>
      <trkpt lat="46.33161" lon="-1.1023">
        <ele>3.2</ele>
        <time>2020-06-02T15:12:04Z</time>
      </trkpt>
      <trkpt lat="46.33161" lon="-1.1023">
        <ele>3.2</ele>
        <time>2020-06-02T15:12:05Z</time>
      </trkpt>
      <trkpt lat="46.33161" lon="-1.1023">
        <ele>3.2</ele>
        <time>2020-06-02T15:12:06Z</time>
      </trkpt>
      <trkpt lat="46.33161" lon="-1.1023">
        <ele>3.2</ele>
        <time>2020-06-02T15:12:07Z</time>
      </trkpt>
      <trkpt lat="46.33161" lon="-1.1023">
        <ele>3.2</ele>
        <time>2020-06-02T15:12:08Z</time>
      </trkpt>
      <trkpt lat="46.33161" lon="-1.1023">
        <ele>3.2</ele>
        <time>2020-06-02T15:12:09Z</time>
      </trkpt>
      <trkpt lat="46.33161" lon="-1.1023">
        <ele>3.2</ele>
        <time>2020-06-02T15:12:10Z</time>
      </trkpt>
      <trkpt lat="46.33161" lon="-1.1023">
        <ele>3.2</ele>
        <time>2020-06-02T15:12:11Z</time>
      </trkpt>
      <trkpt lat="46.33161" lon="-1.1023">
        <ele>3.2</ele>
        <time>2020-06-02T15:12:12Z</time>
      </trkpt>
      <trkpt lat="46.33161" lon="-1.1023">
        <ele>3.2</ele>
        <time>2020-06-02T15:12:13Z</time>
      </trkpt>
      <trkpt lat="46.33161" lon="-1.1023">
        <ele>3.2</ele>
        <time>2020-06-02T15:12:14Z</time>
      </trkpt>
      <trkpt lat="46.33161" lon="-1.1023">
        <ele>3.2</ele>
        <time>2020-06-02T15:12:15Z</time>
      </trkpt>
      <trkpt lat="46.33161" lon="-1.1023">
        <ele>3.2</ele>
        <time>2020-06-02T15:12:16Z</time>
      </trkpt>
      <trkpt lat="46.33161" lon="-1.1023">
        <ele>3.2</ele>
        <time>2020-06-02T15:12:17Z</time>
      </trkpt>
      <trkpt lat="46.33161" lon="-1.1023">
        <ele>3.2</ele>
        <time>2020-06-02T15:12:18Z</time>
      </trkpt>
      <trkpt lat="46.33161" lon="-1.1023">
        <ele>3.2</ele>
        <time>2020-06-02T15:12:19Z</time>
      </trkpt>
      <trkpt lat="46.33161" lon="-1.1023">
        <ele>3.2</ele>
        <time>2020-06-02T15:12:20Z</time>
      </trkpt>
      <trkpt lat="46.33161" lon="-1.1023">
        <ele>3.2</ele>
        <time>2020-06-02T15:12:21Z</time>
      </trkpt>
      <trkpt lat="46.33161" lon="-1.1023">
        <ele>3.2</ele>
        <time>2020-06-02T15:12:22Z</time>
      </trkpt>
      <trkpt lat="46.33161" lon="-1.1023">
        <ele>3.2</ele>
        <time>2020-06-02T15:12:23Z</time>
      </trkpt>
      <trkpt lat="46.33161" lon="-1.1023">
        <ele>3.2</ele>
        <time>2020-06-02T15:12:24Z</time>
      </trkpt>
      <trkpt lat="46.33162" lon="-1.1023">
        <ele>3.2</ele>
        <time>2020-06-02T15:12:25Z</time>
      </trkpt>
      <trkpt lat="46.33162" lon="-1.1023">
        <ele>3.2</ele>
        <time>2020-06-02T15:12:26Z</time>
      </trkpt>
      <trkpt lat="46.33162" lon="-1.10231">
        <ele>3.2</ele>
        <time>2020-06-02T15:12:27Z</time>
      </trkpt>
      <trkpt lat="46.33162" lon="-1.10232">
        <ele>3.2</ele>
        <time>2020-06-02T15:12:28Z</time>
      </trkpt>
      <trkpt lat="46.33162" lon="-1.10235">
        <ele>3.2</ele>
        <time>2020-06-02T15:12:29Z</time>
      </trkpt>
      <trkpt lat="46.33162" lon="-1.10241">
        <ele>3.2</ele>
        <time>2020-06-02T15:12:30Z</time>
      </trkpt>
      <trkpt lat="46.33161" lon="-1.10244">
        <ele>3.2</ele>
        <time>2020-06-02T15:12:31Z</time>
      </trkpt>
      <trkpt lat="46.33161" lon="-1.10248">
        <ele>3.2</ele>
        <time>2020-06-02T15:12:32Z</time>
      </trkpt>
      <trkpt lat="46.33162" lon="-1.10252">
        <ele>3.2</ele>
        <time>2020-06-02T15:12:33Z</time>
      </trkpt>
      <trkpt lat="46.33162" lon="-1.10256">
        <ele>3.2</ele>
        <time>2020-06-02T15:12:34Z</time>
      </trkpt>
      <trkpt lat="46.33163" lon="-1.10261">
        <ele>3.2</ele>
        <time>2020-06-02T15:12:35Z</time>
      </trkpt>
      <trkpt lat="46.33164" lon="-1.10267">
        <ele>3.2</ele>
        <time>2020-06-02T15:12:36Z</time>
      </trkpt>
      <trkpt lat="46.33165" lon="-1.10274">
        <ele>3.2</ele>
        <time>2020-06-02T15:12:37Z</time>
      </trkpt>
      <trkpt lat="46.33166" lon="-1.1028">
        <ele>3.2</ele>
        <time>2020-06-02T15:12:38Z</time>
      </trkpt>
      <trkpt lat="46.33168" lon="-1.10286">
        <ele>3.2</ele>
        <time>2020-06-02T15:12:39Z</time>
      </trkpt>
      <trkpt lat="46.33169" lon="-1.10292">
        <ele>3.2</ele>
        <time>2020-06-02T15:12:40Z</time>
      </trkpt>
      <trkpt lat="46.33171" lon="-1.10298">
        <ele>3.2</ele>
        <time>2020-06-02T15:12:41Z</time>
      </trkpt>
      <trkpt lat="46.33172" lon="-1.10304">
        <ele>3.2</ele>
        <time>2020-06-02T15:12:42Z</time>
      </trkpt>
      <trkpt lat="46.33174" lon="-1.1031">
        <ele>3.3</ele>
        <time>2020-06-02T15:12:43Z</time>
      </trkpt>
      <trkpt lat="46.33175" lon="-1.10316">
        <ele>3.3</ele>
        <time>2020-06-02T15:12:44Z</time>
      </trkpt>
      <trkpt lat="46.33176" lon="-1.10322">
        <ele>3.3</ele>
        <time>2020-06-02T15:12:45Z</time>
      </trkpt>
      <trkpt lat="46.33177" lon="-1.10329">
        <ele>3.3</ele>
        <time>2020-06-02T15:12:46Z</time>
      </trkpt>
      <trkpt lat="46.33178" lon="-1.10337">
        <ele>3.3</ele>
        <time>2020-06-02T15:12:47Z</time>
      </trkpt>
      <trkpt lat="46.33179" lon="-1.10344">
        <ele>3.3</ele>
        <time>2020-06-02T15:12:48Z</time>
      </trkpt>
      <trkpt lat="46.33179" lon="-1.10352">
        <ele>3.3</ele>
        <time>2020-06-02T15:12:49Z</time>
      </trkpt>
      <trkpt lat="46.33181" lon="-1.10358">
        <ele>3.3</ele>
        <time>2020-06-02T15:12:50Z</time>
      </trkpt>
      <trkpt lat="46.33182" lon="-1.10364">
        <ele>3.3</ele>
        <time>2020-06-02T15:12:51Z</time>
      </trkpt>
      <trkpt lat="46.33183" lon="-1.1037">
        <ele>3.3</ele>
        <time>2020-06-02T15:12:52Z</time>
      </trkpt>
      <trkpt lat="46.33184" lon="-1.10375">
        <ele>3.3</ele>
        <time>2020-06-02T15:12:53Z</time>
      </trkpt>
      <trkpt lat="46.33185" lon="-1.1038">
        <ele>3.3</ele>
        <time>2020-06-02T15:12:54Z</time>
      </trkpt>
      <trkpt lat="46.33185" lon="-1.10385">
        <ele>3.3</ele>
        <time>2020-06-02T15:12:55Z</time>
      </trkpt>
      <trkpt lat="46.33186" lon="-1.10391">
        <ele>3.3</ele>
        <time>2020-06-02T15:12:56Z</time>
      </trkpt>
      <trkpt lat="46.33187" lon="-1.10396">
        <ele>3.2</ele>
        <time>2020-06-02T15:12:57Z</time>
      </trkpt>
      <trkpt lat="46.33187" lon="-1.10402">
        <ele>3.2</ele>
        <time>2020-06-02T15:12:58Z</time>
      </trkpt>
      <trkpt lat="46.33188" lon="-1.10407">
        <ele>3.2</ele>
        <time>2020-06-02T15:12:59Z</time>
      </trkpt>
      <trkpt lat="46.33189" lon="-1.10412">
        <ele>3.2</ele>
        <time>2020-06-02T15:13:00Z</time>
      </trkpt>
      <trkpt lat="46.3319" lon="-1.10417">
        <ele>3.2</ele>
        <time>2020-06-02T15:13:01Z</time>
      </trkpt>
      <trkpt lat="46.33191" lon="-1.10423">
        <ele>3.2</ele>
        <time>2020-06-02T15:13:02Z</time>
      </trkpt>
      <trkpt lat="46.33192" lon="-1.1043">
        <ele>3.2</ele>
        <time>2020-06-02T15:13:03Z</time>
      </trkpt>
      <trkpt lat="46.33193" lon="-1.10435">
        <ele>3.2</ele>
        <time>2020-06-02T15:13:04Z</time>
      </trkpt>
      <trkpt lat="46.33194" lon="-1.10442">
        <ele>3.2</ele>
        <time>2020-06-02T15:13:05Z</time>
      </trkpt>
      <trkpt lat="46.33194" lon="-1.10449">
        <ele>3.2</ele>
        <time>2020-06-02T15:13:06Z</time>
      </trkpt>
      <trkpt lat="46.33195" lon="-1.10455">
        <ele>3.2</ele>
        <time>2020-06-02T15:13:07Z</time>
      </trkpt>
      <trkpt lat="46.33196" lon="-1.10461">
        <ele>3.2</ele>
        <time>2020-06-02T15:13:08Z</time>
      </trkpt>
      <trkpt lat="46.33197" lon="-1.10467">
        <ele>3.2</ele>
        <time>2020-06-02T15:13:09Z</time>
      </trkpt>
      <trkpt lat="46.33199" lon="-1.10472">
        <ele>3.2</ele>
        <time>2020-06-02T15:13:10Z</time>
      </trkpt>
      <trkpt lat="46.332" lon="-1.10477">
        <ele>3.2</ele>
        <time>2020-06-02T15:13:11Z</time>
      </trkpt>
      <trkpt lat="46.33201" lon="-1.10483">
        <ele>3.2</ele>
        <time>2020-06-02T15:13:12Z</time>
      </trkpt>
      <trkpt lat="46.33202" lon="-1.10489">
        <ele>3.2</ele>
        <time>2020-06-02T15:13:13Z</time>
      </trkpt>
      <trkpt lat="46.33204" lon="-1.10496">
        <ele>3.2</ele>
        <time>2020-06-02T15:13:14Z</time>
      </trkpt>
      <trkpt lat="46.33205" lon="-1.10503">
        <ele>3.2</ele>
        <time>2020-06-02T15:13:15Z</time>
      </trkpt>
      <trkpt lat="46.33207" lon="-1.10511">
        <ele>3.2</ele>
        <time>2020-06-02T15:13:16Z</time>
      </trkpt>
      <trkpt lat="46.33208" lon="-1.10518">
        <ele>3.2</ele>
        <time>2020-06-02T15:13:17Z</time>
      </trkpt>
      <trkpt lat="46.33208" lon="-1.10524">
        <ele>3.2</ele>
        <time>2020-06-02T15:13:18Z</time>
      </trkpt>
      <trkpt lat="46.3321" lon="-1.10531">
        <ele>3.2</ele>
        <time>2020-06-02T15:13:19Z</time>
      </trkpt>
      <trkpt lat="46.33211" lon="-1.10538">
        <ele>3.2</ele>
        <time>2020-06-02T15:13:20Z</time>
      </trkpt>
      <trkpt lat="46.33212" lon="-1.10545">
        <ele>3.2</ele>
        <time>2020-06-02T15:13:21Z</time>
      </trkpt>
      <trkpt lat="46.33213" lon="-1.10552">
        <ele>3.2</ele>
        <time>2020-06-02T15:13:22Z</time>
      </trkpt>
      <trkpt lat="46.33214" lon="-1.10559">
        <ele>3.2</ele>
        <time>2020-06-02T15:13:23Z</time>
      </trkpt>
      <trkpt lat="46.33215" lon="-1.10566">
        <ele>3.2</ele>
        <time>2020-06-02T15:13:24Z</time>
      </trkpt>
      <trkpt lat="46.33216" lon="-1.10575">
        <ele>3.2</ele>
        <time>2020-06-02T15:13:25Z</time>
      </trkpt>
      <trkpt lat="46.33216" lon="-1.10583">
        <ele>3.2</ele>
        <time>2020-06-02T15:13:26Z</time>
      </trkpt>
      <trkpt lat="46.33218" lon="-1.10591">
        <ele>3.2</ele>
        <time>2020-06-02T15:13:27Z</time>
      </trkpt>
      <trkpt lat="46.33219" lon="-1.10599">
        <ele>3.2</ele>
        <time>2020-06-02T15:13:28Z</time>
      </trkpt>
      <trkpt lat="46.3322" lon="-1.10608">
        <ele>3.2</ele>
        <time>2020-06-02T15:13:29Z</time>
      </trkpt>
      <trkpt lat="46.33222" lon="-1.10616">
        <ele>3.1</ele>
        <time>2020-06-02T15:13:30Z</time>
      </trkpt>
      <trkpt lat="46.3322" lon="-1.10622">
        <ele>3.1</ele>
        <time>2020-06-02T15:13:31Z</time>
      </trkpt>
      <trkpt lat="46.33218" lon="-1.1063">
        <ele>3.1</ele>
        <time>2020-06-02T15:13:32Z</time>
      </trkpt>
      <trkpt lat="46.33216" lon="-1.10637">
        <ele>3.1</ele>
        <time>2020-06-02T15:13:33Z</time>
      </trkpt>
      <trkpt lat="46.33214" lon="-1.10643">
        <ele>3.1</ele>
        <time>2020-06-02T15:13:34Z</time>
      </trkpt>
      <trkpt lat="46.33211" lon="-1.1065">
        <ele>3.1</ele>
        <time>2020-06-02T15:13:35Z</time>
      </trkpt>
      <trkpt lat="46.33207" lon="-1.10655">
        <ele>3</ele>
        <time>2020-06-02T15:13:36Z</time>
      </trkpt>
      <trkpt lat="46.33204" lon="-1.10661">
        <ele>3</ele>
        <time>2020-06-02T15:13:37Z</time>
      </trkpt>
      <trkpt lat="46.332" lon="-1.10667">
        <ele>3</ele>
        <time>2020-06-02T15:13:38Z</time>
      </trkpt>
      <trkpt lat="46.33197" lon="-1.10673">
        <ele>3</ele>
        <time>2020-06-02T15:13:39Z</time>
      </trkpt>
      <trkpt lat="46.33193" lon="-1.1068">
        <ele>3</ele>
        <time>2020-06-02T15:13:40Z</time>
      </trkpt>
      <trkpt lat="46.3319" lon="-1.10687">
        <ele>3</ele>
        <time>2020-06-02T15:13:41Z</time>
      </trkpt>
      <trkpt lat="46.33186" lon="-1.10696">
        <ele>3</ele>
        <time>2020-06-02T15:13:42Z</time>
      </trkpt>
      <trkpt lat="46.33182" lon="-1.10704">
        <ele>3</ele>
        <time>2020-06-02T15:13:43Z</time>
      </trkpt>
      <trkpt lat="46.33178" lon="-1.10711">
        <ele>3</ele>
        <time>2020-06-02T15:13:44Z</time>
      </trkpt>
      <trkpt lat="46.33174" lon="-1.10719">
        <ele>3</ele>
        <time>2020-06-02T15:13:45Z</time>
      </trkpt>
      <trkpt lat="46.3317" lon="-1.10726">
        <ele>3</ele>
        <time>2020-06-02T15:13:46Z</time>
      </trkpt>
      <trkpt lat="46.33166" lon="-1.10733">
        <ele>3</ele>
        <time>2020-06-02T15:13:47Z</time>
      </trkpt>
      <trkpt lat="46.33162" lon="-1.1074">
        <ele>3.1</ele>
        <time>2020-06-02T15:13:48Z</time>
      </trkpt>
      <trkpt lat="46.33159" lon="-1.10746">
        <ele>3.1</ele>
        <time>2020-06-02T15:13:49Z</time>
      </trkpt>
      <trkpt lat="46.33155" lon="-1.10753">
        <ele>3.1</ele>
        <time>2020-06-02T15:13:50Z</time>
      </trkpt>
      <trkpt lat="46.33151" lon="-1.1076">
        <ele>3.1</ele>
        <time>2020-06-02T15:13:51Z</time>
      </trkpt>
      <trkpt lat="46.33147" lon="-1.10766">
        <ele>3.1</ele>
        <time>2020-06-02T15:13:52Z</time>
      </trkpt>
      <trkpt lat="46.33143" lon="-1.10774">
        <ele>3.1</ele>
        <time>2020-06-02T15:13:53Z</time>
      </trkpt>
      <trkpt lat="46.33139" lon="-1.10779">
        <ele>3.1</ele>
        <time>2020-06-02T15:13:54Z</time>
      </trkpt>
      <trkpt lat="46.33136" lon="-1.10785">
        <ele>3.1</ele>
        <time>2020-06-02T15:13:55Z</time>
      </trkpt>
      <trkpt lat="46.33133" lon="-1.10791">
        <ele>3.1</ele>
        <time>2020-06-02T15:13:56Z</time>
      </trkpt>
      <trkpt lat="46.3313" lon="-1.10796">
        <ele>3.1</ele>
        <time>2020-06-02T15:13:57Z</time>
      </trkpt>
      <trkpt lat="46.33127" lon="-1.10801">
        <ele>3.1</ele>
        <time>2020-06-02T15:13:58Z</time>
      </trkpt>
      <trkpt lat="46.33124" lon="-1.10806">
        <ele>3.1</ele>
        <time>2020-06-02T15:13:59Z</time>
      </trkpt>
      <trkpt lat="46.33121" lon="-1.10811">
        <ele>3.1</ele>
        <time>2020-06-02T15:14:00Z</time>
      </trkpt>
      <trkpt lat="46.33118" lon="-1.10817">
        <ele>3.1</ele>
        <time>2020-06-02T15:14:01Z</time>
      </trkpt>
      <trkpt lat="46.33115" lon="-1.10822">
        <ele>3.1</ele>
        <time>2020-06-02T15:14:02Z</time>
      </trkpt>
      <trkpt lat="46.33113" lon="-1.10826">
        <ele>3.1</ele>
        <time>2020-06-02T15:14:03Z</time>
      </trkpt>
      <trkpt lat="46.3311" lon="-1.10832">
        <ele>3.1</ele>
        <time>2020-06-02T15:14:04Z</time>
      </trkpt>
      <trkpt lat="46.33107" lon="-1.10837">
        <ele>3.1</ele>
        <time>2020-06-02T15:14:05Z</time>
      </trkpt>
      <trkpt lat="46.33104" lon="-1.10843">
        <ele>3.1</ele>
        <time>2020-06-02T15:14:06Z</time>
      </trkpt>
      <trkpt lat="46.331" lon="-1.1085">
        <ele>3.1</ele>
        <time>2020-06-02T15:14:07Z</time>
      </trkpt>
      <trkpt lat="46.33097" lon="-1.10856">
        <ele>3.1</ele>
        <time>2020-06-02T15:14:08Z</time>
      </trkpt>
      <trkpt lat="46.33094" lon="-1.10862">
        <ele>3.1</ele>
        <time>2020-06-02T15:14:09Z</time>
      </trkpt>
      <trkpt lat="46.33091" lon="-1.10867">
        <ele>3.1</ele>
        <time>2020-06-02T15:14:10Z</time>
      </trkpt>
      <trkpt lat="46.33087" lon="-1.10873">
        <ele>3.1</ele>
        <time>2020-06-02T15:14:11Z</time>
      </trkpt>
      <trkpt lat="46.33083" lon="-1.10879">
        <ele>3.1</ele>
        <time>2020-06-02T15:14:12Z</time>
      </trkpt>
      <trkpt lat="46.33079" lon="-1.10885">
        <ele>3.1</ele>
        <time>2020-06-02T15:14:13Z</time>
      </trkpt>
      <trkpt lat="46.33076" lon="-1.10891">
        <ele>3</ele>
        <time>2020-06-02T15:14:14Z</time>
      </trkpt>
      <trkpt lat="46.33073" lon="-1.10897">
        <ele>3</ele>
        <time>2020-06-02T15:14:15Z</time>
      </trkpt>
      <trkpt lat="46.33069" lon="-1.10903">
        <ele>3</ele>
        <time>2020-06-02T15:14:16Z</time>
      </trkpt>
      <trkpt lat="46.33065" lon="-1.10909">
        <ele>3</ele>
        <time>2020-06-02T15:14:17Z</time>
      </trkpt>
      <trkpt lat="46.33062" lon="-1.10915">
        <ele>3</ele>
        <time>2020-06-02T15:14:18Z</time>
      </trkpt>
      <trkpt lat="46.33059" lon="-1.10921">
        <ele>3</ele>
        <time>2020-06-02T15:14:19Z</time>
      </trkpt>
      <trkpt lat="46.33055" lon="-1.10929">
        <ele>3</ele>
        <time>2020-06-02T15:14:20Z</time>
      </trkpt>
      <trkpt lat="46.33052" lon="-1.10935">
        <ele>3</ele>
        <time>2020-06-02T15:14:21Z</time>
      </trkpt>
      <trkpt lat="46.33048" lon="-1.10943">
        <ele>3</ele>
        <time>2020-06-02T15:14:22Z</time>
      </trkpt>
      <trkpt lat="46.33044" lon="-1.1095">
        <ele>3</ele>
        <time>2020-06-02T15:14:23Z</time>
      </trkpt>
      <trkpt lat="46.33041" lon="-1.10956">
        <ele>3.1</ele>
        <time>2020-06-02T15:14:24Z</time>
      </trkpt>
      <trkpt lat="46.33037" lon="-1.10963">
        <ele>3.1</ele>
        <time>2020-06-02T15:14:25Z</time>
      </trkpt>
      <trkpt lat="46.33033" lon="-1.10969">
        <ele>3.1</ele>
        <time>2020-06-02T15:14:26Z</time>
      </trkpt>
      <trkpt lat="46.3303" lon="-1.10976">
        <ele>3.1</ele>
        <time>2020-06-02T15:14:27Z</time>
      </trkpt>
      <trkpt lat="46.33026" lon="-1.10981">
        <ele>3.1</ele>
        <time>2020-06-02T15:14:28Z</time>
      </trkpt>
      <trkpt lat="46.33022" lon="-1.10987">
        <ele>3.1</ele>
        <time>2020-06-02T15:14:29Z</time>
      </trkpt>
      <trkpt lat="46.33018" lon="-1.10993">
        <ele>3.1</ele>
        <time>2020-06-02T15:14:30Z</time>
      </trkpt>
      <trkpt lat="46.33015" lon="-1.11">
        <ele>3.1</ele>
        <time>2020-06-02T15:14:31Z</time>
      </trkpt>
      <trkpt lat="46.33011" lon="-1.11007">
        <ele>3</ele>
        <time>2020-06-02T15:14:32Z</time>
      </trkpt>
      <trkpt lat="46.33008" lon="-1.11013">
        <ele>3</ele>
        <time>2020-06-02T15:14:33Z</time>
      </trkpt>
      <trkpt lat="46.33004" lon="-1.11019">
        <ele>3</ele>
        <time>2020-06-02T15:14:34Z</time>
      </trkpt>
      <trkpt lat="46.33001" lon="-1.11025">
        <ele>3</ele>
        <time>2020-06-02T15:14:35Z</time>
      </trkpt>
      <trkpt lat="46.32997" lon="-1.1103">
        <ele>3</ele>
        <time>2020-06-02T15:14:36Z</time>
      </trkpt>
      <trkpt lat="46.32994" lon="-1.11035">
        <ele>2.9</ele>
        <time>2020-06-02T15:14:37Z</time>
      </trkpt>
      <trkpt lat="46.32991" lon="-1.11041">
        <ele>2.9</ele>
        <time>2020-06-02T15:14:38Z</time>
      </trkpt>
      <trkpt lat="46.32988" lon="-1.11045">
        <ele>2.9</ele>
        <time>2020-06-02T15:14:39Z</time>
      </trkpt>
      <trkpt lat="46.32986" lon="-1.11049">
        <ele>2.9</ele>
        <time>2020-06-02T15:14:40Z</time>
      </trkpt>
      <trkpt lat="46.32983" lon="-1.11055">
        <ele>2.9</ele>
        <time>2020-06-02T15:14:41Z</time>
      </trkpt>
      <trkpt lat="46.32979" lon="-1.11061">
        <ele>2.9</ele>
        <time>2020-06-02T15:14:42Z</time>
      </trkpt>
      <trkpt lat="46.32976" lon="-1.11067">
        <ele>2.9</ele>
        <time>2020-06-02T15:14:43Z</time>
      </trkpt>
      <trkpt lat="46.32973" lon="-1.11074">
        <ele>2.9</ele>
        <time>2020-06-02T15:14:44Z</time>
      </trkpt>
      <trkpt lat="46.3297" lon="-1.11079">
        <ele>2.9</ele>
        <time>2020-06-02T15:14:45Z</time>
      </trkpt>
      <trkpt lat="46.32966" lon="-1.11086">
        <ele>2.9</ele>
        <time>2020-06-02T15:14:46Z</time>
      </trkpt>
      <trkpt lat="46.32962" lon="-1.11093">
        <ele>2.9</ele>
        <time>2020-06-02T15:14:47Z</time>
      </trkpt>
      <trkpt lat="46.32959" lon="-1.11098">
        <ele>2.9</ele>
        <time>2020-06-02T15:14:48Z</time>
      </trkpt>
      <trkpt lat="46.32956" lon="-1.11104">
        <ele>2.9</ele>
        <time>2020-06-02T15:14:49Z</time>
      </trkpt>
      <trkpt lat="46.32952" lon="-1.11111">
        <ele>2.9</ele>
        <time>2020-06-02T15:14:50Z</time>
      </trkpt>
      <trkpt lat="46.3295" lon="-1.1112">
        <ele>2.9</ele>
        <time>2020-06-02T15:14:51Z</time>
      </trkpt>
      <trkpt lat="46.32947" lon="-1.11128">
        <ele>3</ele>
        <time>2020-06-02T15:14:52Z</time>
      </trkpt>
      <trkpt lat="46.32945" lon="-1.11135">
        <ele>3</ele>
        <time>2020-06-02T15:14:53Z</time>
      </trkpt>
      <trkpt lat="46.32943" lon="-1.11143">
        <ele>3</ele>
        <time>2020-06-02T15:14:54Z</time>
      </trkpt>
      <trkpt lat="46.32941" lon="-1.11149">
        <ele>3.1</ele>
        <time>2020-06-02T15:14:55Z</time>
      </trkpt>
      <trkpt lat="46.3294" lon="-1.11157">
        <ele>3.1</ele>
        <time>2020-06-02T15:14:56Z</time>
      </trkpt>
      <trkpt lat="46.32938" lon="-1.11164">
        <ele>3.1</ele>
        <time>2020-06-02T15:14:57Z</time>
      </trkpt>
      <trkpt lat="46.32938" lon="-1.1117">
        <ele>3.1</ele>
        <time>2020-06-02T15:14:58Z</time>
      </trkpt>
      <trkpt lat="46.32937" lon="-1.11176">
        <ele>3.2</ele>
        <time>2020-06-02T15:14:59Z</time>
      </trkpt>
      <trkpt lat="46.32936" lon="-1.11182">
        <ele>3.2</ele>
        <time>2020-06-02T15:15:00Z</time>
      </trkpt>
      <trkpt lat="46.32936" lon="-1.11187">
        <ele>3.2</ele>
        <time>2020-06-02T15:15:01Z</time>
      </trkpt>
      <trkpt lat="46.32936" lon="-1.11191">
        <ele>3.2</ele>
        <time>2020-06-02T15:15:02Z</time>
      </trkpt>
      <trkpt lat="46.32935" lon="-1.11196">
        <ele>3.2</ele>
        <time>2020-06-02T15:15:03Z</time>
      </trkpt>
      <trkpt lat="46.32935" lon="-1.11201">
        <ele>3.2</ele>
        <time>2020-06-02T15:15:04Z</time>
      </trkpt>
      <trkpt lat="46.32934" lon="-1.11207">
        <ele>3.2</ele>
        <time>2020-06-02T15:15:05Z</time>
      </trkpt>
      <trkpt lat="46.32934" lon="-1.11213">
        <ele>3.2</ele>
        <time>2020-06-02T15:15:06Z</time>
      </trkpt>
      <trkpt lat="46.32933" lon="-1.11219">
        <ele>3.2</ele>
        <time>2020-06-02T15:15:07Z</time>
      </trkpt>
      <trkpt lat="46.32933" lon="-1.11227">
        <ele>3.3</ele>
        <time>2020-06-02T15:15:08Z</time>
      </trkpt>
      <trkpt lat="46.32933" lon="-1.11234">
        <ele>3.3</ele>
        <time>2020-06-02T15:15:09Z</time>
      </trkpt>
      <trkpt lat="46.32933" lon="-1.11242">
        <ele>3.3</ele>
        <time>2020-06-02T15:15:10Z</time>
      </trkpt>
      <trkpt lat="46.32932" lon="-1.1125">
        <ele>3.3</ele>
        <time>2020-06-02T15:15:11Z</time>
      </trkpt>
      <trkpt lat="46.32933" lon="-1.11257">
        <ele>3.3</ele>
        <time>2020-06-02T15:15:12Z</time>
      </trkpt>
      <trkpt lat="46.32932" lon="-1.11265">
        <ele>3.3</ele>
        <time>2020-06-02T15:15:13Z</time>
      </trkpt>
      <trkpt lat="46.32932" lon="-1.11272">
        <ele>3.3</ele>
        <time>2020-06-02T15:15:14Z</time>
      </trkpt>
      <trkpt lat="46.32932" lon="-1.11278">
        <ele>3.4</ele>
        <time>2020-06-02T15:15:15Z</time>
      </trkpt>
      <trkpt lat="46.32932" lon="-1.11285">
        <ele>3.4</ele>
        <time>2020-06-02T15:15:16Z</time>
      </trkpt>
      <trkpt lat="46.32931" lon="-1.11292">
        <ele>3.4</ele>
        <time>2020-06-02T15:15:17Z</time>
      </trkpt>
      <trkpt lat="46.3293" lon="-1.113">
        <ele>3.4</ele>
        <time>2020-06-02T15:15:18Z</time>
      </trkpt>
      <trkpt lat="46.32929" lon="-1.11308">
        <ele>3.5</ele>
        <time>2020-06-02T15:15:19Z</time>
      </trkpt>
      <trkpt lat="46.32929" lon="-1.11316">
        <ele>3.5</ele>
        <time>2020-06-02T15:15:20Z</time>
      </trkpt>
      <trkpt lat="46.32929" lon="-1.11323">
        <ele>3.5</ele>
        <time>2020-06-02T15:15:21Z</time>
      </trkpt>
      <trkpt lat="46.32928" lon="-1.1133">
        <ele>3.5</ele>
        <time>2020-06-02T15:15:22Z</time>
      </trkpt>
      <trkpt lat="46.32928" lon="-1.11337">
        <ele>3.5</ele>
        <time>2020-06-02T15:15:23Z</time>
      </trkpt>
      <trkpt lat="46.32927" lon="-1.11344">
        <ele>3.5</ele>
        <time>2020-06-02T15:15:24Z</time>
      </trkpt>
      <trkpt lat="46.32926" lon="-1.11351">
        <ele>3.5</ele>
        <time>2020-06-02T15:15:25Z</time>
      </trkpt>
      <trkpt lat="46.32926" lon="-1.11358">
        <ele>3.5</ele>
        <time>2020-06-02T15:15:26Z</time>
      </trkpt>
      <trkpt lat="46.32926" lon="-1.11364">
        <ele>3.5</ele>
        <time>2020-06-02T15:15:27Z</time>
      </trkpt>
      <trkpt lat="46.32926" lon="-1.11372">
        <ele>3.5</ele>
        <time>2020-06-02T15:15:28Z</time>
      </trkpt>
      <trkpt lat="46.32925" lon="-1.1138">
        <ele>3.6</ele>
        <time>2020-06-02T15:15:29Z</time>
      </trkpt>
      <trkpt lat="46.32925" lon="-1.11388">
        <ele>3.6</ele>
        <time>2020-06-02T15:15:30Z</time>
      </trkpt>
      <trkpt lat="46.32924" lon="-1.11395">
        <ele>3.6</ele>
        <time>2020-06-02T15:15:31Z</time>
      </trkpt>
      <trkpt lat="46.32924" lon="-1.11403">
        <ele>3.6</ele>
        <time>2020-06-02T15:15:32Z</time>
      </trkpt>
      <trkpt lat="46.32923" lon="-1.11412">
        <ele>3.6</ele>
        <time>2020-06-02T15:15:33Z</time>
      </trkpt>
      <trkpt lat="46.32923" lon="-1.11418">
        <ele>3.6</ele>
        <time>2020-06-02T15:15:34Z</time>
      </trkpt>
      <trkpt lat="46.32923" lon="-1.11426">
        <ele>3.6</ele>
        <time>2020-06-02T15:15:35Z</time>
      </trkpt>
      <trkpt lat="46.32922" lon="-1.11434">
        <ele>3.6</ele>
        <time>2020-06-02T15:15:36Z</time>
      </trkpt>
      <trkpt lat="46.32921" lon="-1.11441">
        <ele>3.6</ele>
        <time>2020-06-02T15:15:37Z</time>
      </trkpt>
      <trkpt lat="46.32921" lon="-1.11449">
        <ele>3.6</ele>
        <time>2020-06-02T15:15:38Z</time>
      </trkpt>
      <trkpt lat="46.3292" lon="-1.11455">
        <ele>3.6</ele>
        <time>2020-06-02T15:15:39Z</time>
      </trkpt>
      <trkpt lat="46.32919" lon="-1.11462">
        <ele>3.6</ele>
        <time>2020-06-02T15:15:40Z</time>
      </trkpt>
      <trkpt lat="46.32918" lon="-1.11468">
        <ele>3.6</ele>
        <time>2020-06-02T15:15:41Z</time>
      </trkpt>
      <trkpt lat="46.32919" lon="-1.11475">
        <ele>3.6</ele>
        <time>2020-06-02T15:15:42Z</time>
      </trkpt>
      <trkpt lat="46.32919" lon="-1.11479">
        <ele>3.6</ele>
        <time>2020-06-02T15:15:43Z</time>
      </trkpt>
      <trkpt lat="46.32921" lon="-1.11485">
        <ele>3.6</ele>
        <time>2020-06-02T15:15:44Z</time>
      </trkpt>
      <trkpt lat="46.32922" lon="-1.11492">
        <ele>3.6</ele>
        <time>2020-06-02T15:15:45Z</time>
      </trkpt>
      <trkpt lat="46.32923" lon="-1.11498">
        <ele>3.6</ele>
        <time>2020-06-02T15:15:46Z</time>
      </trkpt>
      <trkpt lat="46.32923" lon="-1.11506">
        <ele>3.6</ele>
        <time>2020-06-02T15:15:47Z</time>
      </trkpt>
      <trkpt lat="46.32924" lon="-1.11513">
        <ele>3.5</ele>
        <time>2020-06-02T15:15:48Z</time>
      </trkpt>
      <trkpt lat="46.32925" lon="-1.11521">
        <ele>3.5</ele>
        <time>2020-06-02T15:15:49Z</time>
      </trkpt>
      <trkpt lat="46.32925" lon="-1.11529">
        <ele>3.5</ele>
        <time>2020-06-02T15:15:50Z</time>
      </trkpt>
      <trkpt lat="46.32925" lon="-1.11536">
        <ele>3.5</ele>
        <time>2020-06-02T15:15:51Z</time>
      </trkpt>
      <trkpt lat="46.32925" lon="-1.11543">
        <ele>3.4</ele>
        <time>2020-06-02T15:15:52Z</time>
      </trkpt>
      <trkpt lat="46.32925" lon="-1.11551">
        <ele>3.4</ele>
        <time>2020-06-02T15:15:53Z</time>
      </trkpt>
      <trkpt lat="46.32925" lon="-1.11559">
        <ele>3.4</ele>
        <time>2020-06-02T15:15:54Z</time>
      </trkpt>
      <trkpt lat="46.32924" lon="-1.11566">
        <ele>3.3</ele>
        <time>2020-06-02T15:15:55Z</time>
      </trkpt>
      <trkpt lat="46.32924" lon="-1.11574">
        <ele>3.3</ele>
        <time>2020-06-02T15:15:56Z</time>
      </trkpt>
      <trkpt lat="46.32923" lon="-1.11581">
        <ele>3.3</ele>
        <time>2020-06-02T15:15:57Z</time>
      </trkpt>
      <trkpt lat="46.32922" lon="-1.1159">
        <ele>3.3</ele>
        <time>2020-06-02T15:15:58Z</time>
      </trkpt>
      <trkpt lat="46.3292" lon="-1.11598">
        <ele>3.2</ele>
        <time>2020-06-02T15:15:59Z</time>
      </trkpt>
      <trkpt lat="46.32919" lon="-1.11606">
        <ele>3.2</ele>
        <time>2020-06-02T15:16:00Z</time>
      </trkpt>
      <trkpt lat="46.32917" lon="-1.11614">
        <ele>3.2</ele>
        <time>2020-06-02T15:16:01Z</time>
      </trkpt>
      <trkpt lat="46.32916" lon="-1.11622">
        <ele>3.1</ele>
        <time>2020-06-02T15:16:02Z</time>
      </trkpt>
      <trkpt lat="46.32915" lon="-1.1163">
        <ele>3</ele>
        <time>2020-06-02T15:16:03Z</time>
      </trkpt>
      <trkpt lat="46.32914" lon="-1.11639">
        <ele>3</ele>
        <time>2020-06-02T15:16:04Z</time>
      </trkpt>
      <trkpt lat="46.32913" lon="-1.11647">
        <ele>3</ele>
        <time>2020-06-02T15:16:05Z</time>
      </trkpt>
      <trkpt lat="46.32912" lon="-1.11655">
        <ele>3</ele>
        <time>2020-06-02T15:16:06Z</time>
      </trkpt>
      <trkpt lat="46.32911" lon="-1.11662">
        <ele>2.9</ele>
        <time>2020-06-02T15:16:07Z</time>
      </trkpt>
      <trkpt lat="46.3291" lon="-1.1167">
        <ele>2.9</ele>
        <time>2020-06-02T15:16:08Z</time>
      </trkpt>
      <trkpt lat="46.32909" lon="-1.11678">
        <ele>2.9</ele>
        <time>2020-06-02T15:16:09Z</time>
      </trkpt>
      <trkpt lat="46.32909" lon="-1.11685">
        <ele>2.9</ele>
        <time>2020-06-02T15:16:10Z</time>
      </trkpt>
      <trkpt lat="46.32908" lon="-1.11692">
        <ele>2.9</ele>
        <time>2020-06-02T15:16:11Z</time>
      </trkpt>
      <trkpt lat="46.32908" lon="-1.117">
        <ele>2.9</ele>
        <time>2020-06-02T15:16:12Z</time>
      </trkpt>
      <trkpt lat="46.32908" lon="-1.11708">
        <ele>2.9</ele>
        <time>2020-06-02T15:16:13Z</time>
      </trkpt>
      <trkpt lat="46.32907" lon="-1.11715">
        <ele>2.9</ele>
        <time>2020-06-02T15:16:14Z</time>
      </trkpt>
      <trkpt lat="46.32907" lon="-1.11723">
        <ele>2.9</ele>
        <time>2020-06-02T15:16:15Z</time>
      </trkpt>
      <trkpt lat="46.32907" lon="-1.11731">
        <ele>2.9</ele>
        <time>2020-06-02T15:16:16Z</time>
      </trkpt>
      <trkpt lat="46.32907" lon="-1.11739">
        <ele>2.9</ele>
        <time>2020-06-02T15:16:17Z</time>
      </trkpt>
      <trkpt lat="46.32907" lon="-1.11746">
        <ele>2.9</ele>
        <time>2020-06-02T15:16:18Z</time>
      </trkpt>
      <trkpt lat="46.32908" lon="-1.11754">
        <ele>2.9</ele>
        <time>2020-06-02T15:16:19Z</time>
      </trkpt>
      <trkpt lat="46.32908" lon="-1.11762">
        <ele>2.9</ele>
        <time>2020-06-02T15:16:20Z</time>
      </trkpt>
      <trkpt lat="46.32909" lon="-1.1177">
        <ele>2.9</ele>
        <time>2020-06-02T15:16:21Z</time>
      </trkpt>
      <trkpt lat="46.3291" lon="-1.11777">
        <ele>2.8</ele>
        <time>2020-06-02T15:16:22Z</time>
      </trkpt>
      <trkpt lat="46.32911" lon="-1.11785">
        <ele>2.8</ele>
        <time>2020-06-02T15:16:23Z</time>
      </trkpt>
      <trkpt lat="46.32911" lon="-1.11792">
        <ele>2.8</ele>
        <time>2020-06-02T15:16:24Z</time>
      </trkpt>
      <trkpt lat="46.32912" lon="-1.11801">
        <ele>2.8</ele>
        <time>2020-06-02T15:16:25Z</time>
      </trkpt>
      <trkpt lat="46.32912" lon="-1.11809">
        <ele>2.8</ele>
        <time>2020-06-02T15:16:26Z</time>
      </trkpt>
      <trkpt lat="46.32913" lon="-1.11817">
        <ele>2.8</ele>
        <time>2020-06-02T15:16:27Z</time>
      </trkpt>
      <trkpt lat="46.32914" lon="-1.11823">
        <ele>2.8</ele>
        <time>2020-06-02T15:16:28Z</time>
      </trkpt>
      <trkpt lat="46.32915" lon="-1.11831">
        <ele>2.8</ele>
        <time>2020-06-02T15:16:29Z</time>
      </trkpt>
      <trkpt lat="46.32916" lon="-1.11838">
        <ele>2.8</ele>
        <time>2020-06-02T15:16:30Z</time>
      </trkpt>
      <trkpt lat="46.32917" lon="-1.11845">
        <ele>2.8</ele>
        <time>2020-06-02T15:16:31Z</time>
      </trkpt>
      <trkpt lat="46.32917" lon="-1.11853">
        <ele>2.8</ele>
        <time>2020-06-02T15:16:32Z</time>
      </trkpt>
      <trkpt lat="46.32919" lon="-1.11859">
        <ele>2.8</ele>
        <time>2020-06-02T15:16:33Z</time>
      </trkpt>
      <trkpt lat="46.32919" lon="-1.11867">
        <ele>2.8</ele>
        <time>2020-06-02T15:16:34Z</time>
      </trkpt>
      <trkpt lat="46.32919" lon="-1.11876">
        <ele>2.8</ele>
        <time>2020-06-02T15:16:35Z</time>
      </trkpt>
      <trkpt lat="46.3292" lon="-1.11884">
        <ele>2.8</ele>
        <time>2020-06-02T15:16:36Z</time>
      </trkpt>
      <trkpt lat="46.3292" lon="-1.11892">
        <ele>2.8</ele>
        <time>2020-06-02T15:16:37Z</time>
      </trkpt>
      <trkpt lat="46.32921" lon="-1.119">
        <ele>2.8</ele>
        <time>2020-06-02T15:16:38Z</time>
      </trkpt>
      <trkpt lat="46.32921" lon="-1.11908">
        <ele>2.8</ele>
        <time>2020-06-02T15:16:39Z</time>
      </trkpt>
      <trkpt lat="46.32922" lon="-1.11914">
        <ele>2.8</ele>
        <time>2020-06-02T15:16:40Z</time>
      </trkpt>
      <trkpt lat="46.32922" lon="-1.11922">
        <ele>2.8</ele>
        <time>2020-06-02T15:16:41Z</time>
      </trkpt>
      <trkpt lat="46.32923" lon="-1.11929">
        <ele>2.8</ele>
        <time>2020-06-02T15:16:42Z</time>
      </trkpt>
      <trkpt lat="46.32924" lon="-1.11937">
        <ele>2.7</ele>
        <time>2020-06-02T15:16:43Z</time>
      </trkpt>
      <trkpt lat="46.32925" lon="-1.11946">
        <ele>2.7</ele>
        <time>2020-06-02T15:16:44Z</time>
      </trkpt>
      <trkpt lat="46.32926" lon="-1.11954">
        <ele>2.7</ele>
        <time>2020-06-02T15:16:45Z</time>
      </trkpt>
      <trkpt lat="46.32926" lon="-1.11963">
        <ele>2.7</ele>
        <time>2020-06-02T15:16:46Z</time>
      </trkpt>
      <trkpt lat="46.32927" lon="-1.1197">
        <ele>2.7</ele>
        <time>2020-06-02T15:16:47Z</time>
      </trkpt>
      <trkpt lat="46.32928" lon="-1.11977">
        <ele>2.7</ele>
        <time>2020-06-02T15:16:48Z</time>
      </trkpt>
      <trkpt lat="46.3293" lon="-1.11984">
        <ele>2.7</ele>
        <time>2020-06-02T15:16:49Z</time>
      </trkpt>
      <trkpt lat="46.32931" lon="-1.11992">
        <ele>2.6</ele>
        <time>2020-06-02T15:16:50Z</time>
      </trkpt>
      <trkpt lat="46.32932" lon="-1.11999">
        <ele>2.6</ele>
        <time>2020-06-02T15:16:51Z</time>
      </trkpt>
      <trkpt lat="46.32933" lon="-1.12008">
        <ele>2.6</ele>
        <time>2020-06-02T15:16:52Z</time>
      </trkpt>
      <trkpt lat="46.32934" lon="-1.12015">
        <ele>2.6</ele>
        <time>2020-06-02T15:16:53Z</time>
      </trkpt>
      <trkpt lat="46.32934" lon="-1.12024">
        <ele>2.6</ele>
        <time>2020-06-02T15:16:54Z</time>
      </trkpt>
      <trkpt lat="46.32936" lon="-1.12031">
        <ele>2.6</ele>
        <time>2020-06-02T15:16:55Z</time>
      </trkpt>
      <trkpt lat="46.32936" lon="-1.1204">
        <ele>2.6</ele>
        <time>2020-06-02T15:16:56Z</time>
      </trkpt>
      <trkpt lat="46.32937" lon="-1.12048">
        <ele>2.6</ele>
        <time>2020-06-02T15:16:57Z</time>
      </trkpt>
      <trkpt lat="46.32938" lon="-1.12056">
        <ele>2.6</ele>
        <time>2020-06-02T15:16:58Z</time>
      </trkpt>
      <trkpt lat="46.32938" lon="-1.12065">
        <ele>2.6</ele>
        <time>2020-06-02T15:16:59Z</time>
      </trkpt>
      <trkpt lat="46.32939" lon="-1.12073">
        <ele>2.5</ele>
        <time>2020-06-02T15:17:00Z</time>
      </trkpt>
      <trkpt lat="46.32939" lon="-1.12081">
        <ele>2.5</ele>
        <time>2020-06-02T15:17:01Z</time>
      </trkpt>
      <trkpt lat="46.32941" lon="-1.12087">
        <ele>2.5</ele>
        <time>2020-06-02T15:17:02Z</time>
      </trkpt>
      <trkpt lat="46.32942" lon="-1.12094">
        <ele>2.5</ele>
        <time>2020-06-02T15:17:03Z</time>
      </trkpt>
      <trkpt lat="46.32943" lon="-1.12102">
        <ele>2.5</ele>
        <time>2020-06-02T15:17:04Z</time>
      </trkpt>
      <trkpt lat="46.32944" lon="-1.12109">
        <ele>2.5</ele>
        <time>2020-06-02T15:17:05Z</time>
      </trkpt>
      <trkpt lat="46.32945" lon="-1.12117">
        <ele>2.5</ele>
        <time>2020-06-02T15:17:06Z</time>
      </trkpt>
      <trkpt lat="46.32945" lon="-1.12125">
        <ele>2.5</ele>
        <time>2020-06-02T15:17:07Z</time>
      </trkpt>
      <trkpt lat="46.32946" lon="-1.12132">
        <ele>2.5</ele>
        <time>2020-06-02T15:17:08Z</time>
      </trkpt>
      <trkpt lat="46.32946" lon="-1.1214">
        <ele>2.5</ele>
        <time>2020-06-02T15:17:09Z</time>
      </trkpt>
      <trkpt lat="46.32947" lon="-1.12146">
        <ele>2.4</ele>
        <time>2020-06-02T15:17:10Z</time>
      </trkpt>
      <trkpt lat="46.32948" lon="-1.12154">
        <ele>2.4</ele>
        <time>2020-06-02T15:17:11Z</time>
      </trkpt>
      <trkpt lat="46.32951" lon="-1.1216">
        <ele>2.4</ele>
        <time>2020-06-02T15:17:12Z</time>
      </trkpt>
      <trkpt lat="46.32952" lon="-1.12168">
        <ele>2.4</ele>
        <time>2020-06-02T15:17:13Z</time>
      </trkpt>
      <trkpt lat="46.32953" lon="-1.12176">
        <ele>2.5</ele>
        <time>2020-06-02T15:17:14Z</time>
      </trkpt>
      <trkpt lat="46.32954" lon="-1.12184">
        <ele>2.5</ele>
        <time>2020-06-02T15:17:15Z</time>
      </trkpt>
      <trkpt lat="46.32954" lon="-1.12191">
        <ele>2.5</ele>
        <time>2020-06-02T15:17:16Z</time>
      </trkpt>
      <trkpt lat="46.32955" lon="-1.12198">
        <ele>2.5</ele>
        <time>2020-06-02T15:17:17Z</time>
      </trkpt>
      <trkpt lat="46.32955" lon="-1.12206">
        <ele>2.5</ele>
        <time>2020-06-02T15:17:18Z</time>
      </trkpt>
      <trkpt lat="46.32955" lon="-1.12214">
        <ele>2.5</ele>
        <time>2020-06-02T15:17:19Z</time>
      </trkpt>
      <trkpt lat="46.32956" lon="-1.12222">
        <ele>2.5</ele>
        <time>2020-06-02T15:17:20Z</time>
      </trkpt>
      <trkpt lat="46.32956" lon="-1.12229">
        <ele>2.5</ele>
        <time>2020-06-02T15:17:21Z</time>
      </trkpt>
      <trkpt lat="46.32957" lon="-1.12237">
        <ele>2.4</ele>
        <time>2020-06-02T15:17:22Z</time>
      </trkpt>
      <trkpt lat="46.32958" lon="-1.12244">
        <ele>2.4</ele>
        <time>2020-06-02T15:17:23Z</time>
      </trkpt>
      <trkpt lat="46.3296" lon="-1.12251">
        <ele>2.4</ele>
        <time>2020-06-02T15:17:24Z</time>
      </trkpt>
      <trkpt lat="46.32961" lon="-1.12258">
        <ele>2.4</ele>
        <time>2020-06-02T15:17:25Z</time>
      </trkpt>
      <trkpt lat="46.32962" lon="-1.12264">
        <ele>2.4</ele>
        <time>2020-06-02T15:17:26Z</time>
      </trkpt>
      <trkpt lat="46.32963" lon="-1.12271">
        <ele>2.4</ele>
        <time>2020-06-02T15:17:27Z</time>
      </trkpt>
      <trkpt lat="46.32964" lon="-1.12278">
        <ele>2.4</ele>
        <time>2020-06-02T15:17:28Z</time>
      </trkpt>
      <trkpt lat="46.32965" lon="-1.12285">
        <ele>2.4</ele>
        <time>2020-06-02T15:17:29Z</time>
      </trkpt>
      <trkpt lat="46.32966" lon="-1.12293">
        <ele>2.4</ele>
        <time>2020-06-02T15:17:30Z</time>
      </trkpt>
      <trkpt lat="46.32968" lon="-1.123">
        <ele>2.4</ele>
        <time>2020-06-02T15:17:31Z</time>
      </trkpt>
      <trkpt lat="46.3297" lon="-1.12307">
        <ele>2.4</ele>
        <time>2020-06-02T15:17:32Z</time>
      </trkpt>
      <trkpt lat="46.32972" lon="-1.12314">
        <ele>2.4</ele>
        <time>2020-06-02T15:17:33Z</time>
      </trkpt>
      <trkpt lat="46.32975" lon="-1.1232">
        <ele>2.4</ele>
        <time>2020-06-02T15:17:34Z</time>
      </trkpt>
      <trkpt lat="46.32978" lon="-1.12328">
        <ele>2.4</ele>
        <time>2020-06-02T15:17:35Z</time>
      </trkpt>
      <trkpt lat="46.32982" lon="-1.12335">
        <ele>2.4</ele>
        <time>2020-06-02T15:17:36Z</time>
      </trkpt>
      <trkpt lat="46.32986" lon="-1.1234">
        <ele>2.4</ele>
        <time>2020-06-02T15:17:37Z</time>
      </trkpt>
      <trkpt lat="46.32989" lon="-1.12346">
        <ele>2.4</ele>
        <time>2020-06-02T15:17:38Z</time>
      </trkpt>
      <trkpt lat="46.32993" lon="-1.12352">
        <ele>2.4</ele>
        <time>2020-06-02T15:17:39Z</time>
      </trkpt>
      <trkpt lat="46.32997" lon="-1.12358">
        <ele>2.4</ele>
        <time>2020-06-02T15:17:40Z</time>
      </trkpt>
      <trkpt lat="46.33001" lon="-1.12364">
        <ele>2.5</ele>
        <time>2020-06-02T15:17:41Z</time>
      </trkpt>
      <trkpt lat="46.33005" lon="-1.12369">
        <ele>2.5</ele>
        <time>2020-06-02T15:17:42Z</time>
      </trkpt>
      <trkpt lat="46.3301" lon="-1.12374">
        <ele>2.5</ele>
        <time>2020-06-02T15:17:43Z</time>
      </trkpt>
      <trkpt lat="46.33015" lon="-1.12381">
        <ele>2.5</ele>
        <time>2020-06-02T15:17:44Z</time>
      </trkpt>
      <trkpt lat="46.33019" lon="-1.12387">
        <ele>2.5</ele>
        <time>2020-06-02T15:17:45Z</time>
      </trkpt>
      <trkpt lat="46.33023" lon="-1.12393">
        <ele>2.5</ele>
        <time>2020-06-02T15:17:46Z</time>
      </trkpt>
      <trkpt lat="46.33027" lon="-1.12399">
        <ele>2.5</ele>
        <time>2020-06-02T15:17:47Z</time>
      </trkpt>
      <trkpt lat="46.33031" lon="-1.12406">
        <ele>2.5</ele>
        <time>2020-06-02T15:17:48Z</time>
      </trkpt>
      <trkpt lat="46.33035" lon="-1.12412">
        <ele>2.5</ele>
        <time>2020-06-02T15:17:49Z</time>
      </trkpt>
      <trkpt lat="46.33039" lon="-1.12419">
        <ele>2.5</ele>
        <time>2020-06-02T15:17:50Z</time>
      </trkpt>
      <trkpt lat="46.33043" lon="-1.12425">
        <ele>2.5</ele>
        <time>2020-06-02T15:17:51Z</time>
      </trkpt>
      <trkpt lat="46.33047" lon="-1.12432">
        <ele>2.5</ele>
        <time>2020-06-02T15:17:52Z</time>
      </trkpt>
      <trkpt lat="46.33051" lon="-1.12437">
        <ele>2.5</ele>
        <time>2020-06-02T15:17:53Z</time>
      </trkpt>
      <trkpt lat="46.33056" lon="-1.12445">
        <ele>2.5</ele>
        <time>2020-06-02T15:17:54Z</time>
      </trkpt>
      <trkpt lat="46.33061" lon="-1.1245">
        <ele>2.5</ele>
        <time>2020-06-02T15:17:55Z</time>
      </trkpt>
      <trkpt lat="46.33065" lon="-1.12456">
        <ele>2.5</ele>
        <time>2020-06-02T15:17:56Z</time>
      </trkpt>
      <trkpt lat="46.33069" lon="-1.12462">
        <ele>2.5</ele>
        <time>2020-06-02T15:17:57Z</time>
      </trkpt>
      <trkpt lat="46.33072" lon="-1.12469">
        <ele>2.5</ele>
        <time>2020-06-02T15:17:58Z</time>
      </trkpt>
      <trkpt lat="46.33076" lon="-1.12475">
        <ele>2.5</ele>
        <time>2020-06-02T15:17:59Z</time>
      </trkpt>
      <trkpt lat="46.3308" lon="-1.12481">
        <ele>2.5</ele>
        <time>2020-06-02T15:18:00Z</time>
      </trkpt>
      <trkpt lat="46.33083" lon="-1.12488">
        <ele>2.5</ele>
        <time>2020-06-02T15:18:01Z</time>
      </trkpt>
      <trkpt lat="46.33087" lon="-1.12493">
        <ele>2.5</ele>
        <time>2020-06-02T15:18:02Z</time>
      </trkpt>
      <trkpt lat="46.3309" lon="-1.12499">
        <ele>2.5</ele>
        <time>2020-06-02T15:18:03Z</time>
      </trkpt>
      <trkpt lat="46.33094" lon="-1.12505">
        <ele>2.5</ele>
        <time>2020-06-02T15:18:04Z</time>
      </trkpt>
      <trkpt lat="46.33098" lon="-1.12511">
        <ele>2.5</ele>
        <time>2020-06-02T15:18:05Z</time>
      </trkpt>
      <trkpt lat="46.33101" lon="-1.12516">
        <ele>2.5</ele>
        <time>2020-06-02T15:18:06Z</time>
      </trkpt>
      <trkpt lat="46.33105" lon="-1.12522">
        <ele>2.5</ele>
        <time>2020-06-02T15:18:07Z</time>
      </trkpt>
      <trkpt lat="46.33109" lon="-1.12528">
        <ele>2.5</ele>
        <time>2020-06-02T15:18:08Z</time>
      </trkpt>
      <trkpt lat="46.33113" lon="-1.12534">
        <ele>2.5</ele>
        <time>2020-06-02T15:18:09Z</time>
      </trkpt>
      <trkpt lat="46.33117" lon="-1.12541">
        <ele>2.5</ele>
        <time>2020-06-02T15:18:10Z</time>
      </trkpt>
      <trkpt lat="46.33121" lon="-1.12547">
        <ele>2.5</ele>
        <time>2020-06-02T15:18:11Z</time>
      </trkpt>
      <trkpt lat="46.33125" lon="-1.12554">
        <ele>2.5</ele>
        <time>2020-06-02T15:18:12Z</time>
      </trkpt>
      <trkpt lat="46.33128" lon="-1.1256">
        <ele>2.5</ele>
        <time>2020-06-02T15:18:13Z</time>
      </trkpt>
      <trkpt lat="46.33132" lon="-1.12566">
        <ele>2.5</ele>
        <time>2020-06-02T15:18:14Z</time>
      </trkpt>
      <trkpt lat="46.33136" lon="-1.12571">
        <ele>2.5</ele>
        <time>2020-06-02T15:18:15Z</time>
      </trkpt>
      <trkpt lat="46.3314" lon="-1.12576">
        <ele>2.5</ele>
        <time>2020-06-02T15:18:16Z</time>
      </trkpt>
      <trkpt lat="46.33145" lon="-1.12581">
        <ele>2.5</ele>
        <time>2020-06-02T15:18:17Z</time>
      </trkpt>
      <trkpt lat="46.33149" lon="-1.12586">
        <ele>2.5</ele>
        <time>2020-06-02T15:18:18Z</time>
      </trkpt>
      <trkpt lat="46.33154" lon="-1.12592">
        <ele>2.5</ele>
        <time>2020-06-02T15:18:19Z</time>
      </trkpt>
      <trkpt lat="46.33158" lon="-1.12597">
        <ele>2.5</ele>
        <time>2020-06-02T15:18:20Z</time>
      </trkpt>
      <trkpt lat="46.33162" lon="-1.12602">
        <ele>2.5</ele>
        <time>2020-06-02T15:18:21Z</time>
      </trkpt>
      <trkpt lat="46.33165" lon="-1.12608">
        <ele>2.5</ele>
        <time>2020-06-02T15:18:22Z</time>
      </trkpt>
      <trkpt lat="46.33169" lon="-1.12613">
        <ele>2.5</ele>
        <time>2020-06-02T15:18:23Z</time>
      </trkpt>
      <trkpt lat="46.33173" lon="-1.12618">
        <ele>2.5</ele>
        <time>2020-06-02T15:18:24Z</time>
      </trkpt>
      <trkpt lat="46.33176" lon="-1.12624">
        <ele>2.4</ele>
        <time>2020-06-02T15:18:25Z</time>
      </trkpt>
      <trkpt lat="46.3318" lon="-1.1263">
        <ele>2.4</ele>
        <time>2020-06-02T15:18:26Z</time>
      </trkpt>
      <trkpt lat="46.33184" lon="-1.12637">
        <ele>2.4</ele>
        <time>2020-06-02T15:18:27Z</time>
      </trkpt>
      <trkpt lat="46.33188" lon="-1.12643">
        <ele>2.4</ele>
        <time>2020-06-02T15:18:28Z</time>
      </trkpt>
      <trkpt lat="46.33191" lon="-1.12649">
        <ele>2.4</ele>
        <time>2020-06-02T15:18:29Z</time>
      </trkpt>
      <trkpt lat="46.33195" lon="-1.12655">
        <ele>2.4</ele>
        <time>2020-06-02T15:18:30Z</time>
      </trkpt>
      <trkpt lat="46.33199" lon="-1.12662">
        <ele>2.4</ele>
        <time>2020-06-02T15:18:31Z</time>
      </trkpt>
      <trkpt lat="46.33203" lon="-1.12668">
        <ele>2.4</ele>
        <time>2020-06-02T15:18:32Z</time>
      </trkpt>
      <trkpt lat="46.33207" lon="-1.12675">
        <ele>2.3</ele>
        <time>2020-06-02T15:18:33Z</time>
      </trkpt>
      <trkpt lat="46.33211" lon="-1.12682">
        <ele>2.3</ele>
        <time>2020-06-02T15:18:34Z</time>
      </trkpt>
      <trkpt lat="46.33215" lon="-1.12688">
        <ele>2.3</ele>
        <time>2020-06-02T15:18:35Z</time>
      </trkpt>
      <trkpt lat="46.3322" lon="-1.12693">
        <ele>2.3</ele>
        <time>2020-06-02T15:18:36Z</time>
      </trkpt>
      <trkpt lat="46.33224" lon="-1.127">
        <ele>2.3</ele>
        <time>2020-06-02T15:18:37Z</time>
      </trkpt>
      <trkpt lat="46.33227" lon="-1.12705">
        <ele>2.3</ele>
        <time>2020-06-02T15:18:38Z</time>
      </trkpt>
      <trkpt lat="46.33231" lon="-1.12711">
        <ele>2.3</ele>
        <time>2020-06-02T15:18:39Z</time>
      </trkpt>
      <trkpt lat="46.33235" lon="-1.12715">
        <ele>2.3</ele>
        <time>2020-06-02T15:18:40Z</time>
      </trkpt>
      <trkpt lat="46.33238" lon="-1.12719">
        <ele>2.3</ele>
        <time>2020-06-02T15:18:41Z</time>
      </trkpt>
      <trkpt lat="46.33241" lon="-1.12723">
        <ele>2.3</ele>
        <time>2020-06-02T15:18:42Z</time>
      </trkpt>
      <trkpt lat="46.33244" lon="-1.12728">
        <ele>2.3</ele>
        <time>2020-06-02T15:18:43Z</time>
      </trkpt>
      <trkpt lat="46.33247" lon="-1.12733">
        <ele>2.3</ele>
        <time>2020-06-02T15:18:44Z</time>
      </trkpt>
      <trkpt lat="46.33251" lon="-1.12739">
        <ele>2.3</ele>
        <time>2020-06-02T15:18:45Z</time>
      </trkpt>
      <trkpt lat="46.33255" lon="-1.12746">
        <ele>2.4</ele>
        <time>2020-06-02T15:18:46Z</time>
      </trkpt>
      <trkpt lat="46.33259" lon="-1.12751">
        <ele>2.4</ele>
        <time>2020-06-02T15:18:47Z</time>
      </trkpt>
      <trkpt lat="46.33262" lon="-1.12757">
        <ele>2.4</ele>
        <time>2020-06-02T15:18:48Z</time>
      </trkpt>
      <trkpt lat="46.33266" lon="-1.12763">
        <ele>2.4</ele>
        <time>2020-06-02T15:18:49Z</time>
      </trkpt>
      <trkpt lat="46.33271" lon="-1.12771">
        <ele>2.4</ele>
        <time>2020-06-02T15:18:50Z</time>
      </trkpt>
      <trkpt lat="46.33276" lon="-1.12779">
        <ele>2.4</ele>
        <time>2020-06-02T15:18:51Z</time>
      </trkpt>
      <trkpt lat="46.3328" lon="-1.12786">
        <ele>2.4</ele>
        <time>2020-06-02T15:18:52Z</time>
      </trkpt>
      <trkpt lat="46.33284" lon="-1.12792">
        <ele>2.4</ele>
        <time>2020-06-02T15:18:53Z</time>
      </trkpt>
      <trkpt lat="46.33287" lon="-1.12798">
        <ele>2.4</ele>
        <time>2020-06-02T15:18:54Z</time>
      </trkpt>
      <trkpt lat="46.3329" lon="-1.12803">
        <ele>2.4</ele>
        <time>2020-06-02T15:18:55Z</time>
      </trkpt>
      <trkpt lat="46.33293" lon="-1.12807">
        <ele>2.4</ele>
        <time>2020-06-02T15:18:56Z</time>
      </trkpt>
      <trkpt lat="46.33296" lon="-1.12811">
        <ele>2.4</ele>
        <time>2020-06-02T15:18:57Z</time>
      </trkpt>
      <trkpt lat="46.33299" lon="-1.12815">
        <ele>2.4</ele>
        <time>2020-06-02T15:18:58Z</time>
      </trkpt>
      <trkpt lat="46.33302" lon="-1.12819">
        <ele>2.4</ele>
        <time>2020-06-02T15:18:59Z</time>
      </trkpt>
      <trkpt lat="46.33305" lon="-1.12823">
        <ele>2.4</ele>
        <time>2020-06-02T15:19:00Z</time>
      </trkpt>
      <trkpt lat="46.33308" lon="-1.12829">
        <ele>2.4</ele>
        <time>2020-06-02T15:19:01Z</time>
      </trkpt>
      <trkpt lat="46.33312" lon="-1.12834">
        <ele>2.4</ele>
        <time>2020-06-02T15:19:02Z</time>
      </trkpt>
      <trkpt lat="46.33315" lon="-1.1284">
        <ele>2.4</ele>
        <time>2020-06-02T15:19:03Z</time>
      </trkpt>
      <trkpt lat="46.33318" lon="-1.12846">
        <ele>2.4</ele>
        <time>2020-06-02T15:19:04Z</time>
      </trkpt>
      <trkpt lat="46.33322" lon="-1.12852">
        <ele>2.4</ele>
        <time>2020-06-02T15:19:05Z</time>
      </trkpt>
      <trkpt lat="46.33325" lon="-1.12857">
        <ele>2.4</ele>
        <time>2020-06-02T15:19:06Z</time>
      </trkpt>
      <trkpt lat="46.33329" lon="-1.12862">
        <ele>2.4</ele>
        <time>2020-06-02T15:19:07Z</time>
      </trkpt>
      <trkpt lat="46.33332" lon="-1.12866">
        <ele>2.4</ele>
        <time>2020-06-02T15:19:08Z</time>
      </trkpt>
      <trkpt lat="46.33337" lon="-1.12871">
        <ele>2.4</ele>
        <time>2020-06-02T15:19:09Z</time>
      </trkpt>
      <trkpt lat="46.33339" lon="-1.12875">
        <ele>2.4</ele>
        <time>2020-06-02T15:19:10Z</time>
      </trkpt>
      <trkpt lat="46.33342" lon="-1.12879">
        <ele>2.4</ele>
        <time>2020-06-02T15:19:11Z</time>
      </trkpt>
      <trkpt lat="46.33346" lon="-1.12885">
        <ele>2.4</ele>
        <time>2020-06-02T15:19:12Z</time>
      </trkpt>
      <trkpt lat="46.33349" lon="-1.1289">
        <ele>2.4</ele>
        <time>2020-06-02T15:19:13Z</time>
      </trkpt>
      <trkpt lat="46.33352" lon="-1.12895">
        <ele>2.4</ele>
        <time>2020-06-02T15:19:14Z</time>
      </trkpt>
      <trkpt lat="46.33356" lon="-1.12901">
        <ele>2.4</ele>
        <time>2020-06-02T15:19:15Z</time>
      </trkpt>
      <trkpt lat="46.33359" lon="-1.12906">
        <ele>2.4</ele>
        <time>2020-06-02T15:19:16Z</time>
      </trkpt>
      <trkpt lat="46.33363" lon="-1.12911">
        <ele>2.4</ele>
        <time>2020-06-02T15:19:17Z</time>
      </trkpt>
      <trkpt lat="46.33367" lon="-1.12918">
        <ele>2.4</ele>
        <time>2020-06-02T15:19:18Z</time>
      </trkpt>
      <trkpt lat="46.33371" lon="-1.12924">
        <ele>2.4</ele>
        <time>2020-06-02T15:19:19Z</time>
      </trkpt>
      <trkpt lat="46.33376" lon="-1.1293">
        <ele>2.4</ele>
        <time>2020-06-02T15:19:20Z</time>
      </trkpt>
      <trkpt lat="46.3338" lon="-1.12936">
        <ele>2.4</ele>
        <time>2020-06-02T15:19:21Z</time>
      </trkpt>
      <trkpt lat="46.33383" lon="-1.12943">
        <ele>2.4</ele>
        <time>2020-06-02T15:19:22Z</time>
      </trkpt>
      <trkpt lat="46.33386" lon="-1.12947">
        <ele>2.4</ele>
        <time>2020-06-02T15:19:23Z</time>
      </trkpt>
      <trkpt lat="46.33388" lon="-1.12953">
        <ele>2.4</ele>
        <time>2020-06-02T15:19:24Z</time>
      </trkpt>
      <trkpt lat="46.33391" lon="-1.12957">
        <ele>2.4</ele>
        <time>2020-06-02T15:19:25Z</time>
      </trkpt>
      <trkpt lat="46.33394" lon="-1.12963">
        <ele>2.4</ele>
        <time>2020-06-02T15:19:26Z</time>
      </trkpt>
      <trkpt lat="46.33398" lon="-1.12969">
        <ele>2.4</ele>
        <time>2020-06-02T15:19:27Z</time>
      </trkpt>
      <trkpt lat="46.33401" lon="-1.12974">
        <ele>2.4</ele>
        <time>2020-06-02T15:19:28Z</time>
      </trkpt>
      <trkpt lat="46.33404" lon="-1.12979">
        <ele>2.4</ele>
        <time>2020-06-02T15:19:29Z</time>
      </trkpt>
      <trkpt lat="46.33408" lon="-1.12985">
        <ele>2.4</ele>
        <time>2020-06-02T15:19:30Z</time>
      </trkpt>
      <trkpt lat="46.33411" lon="-1.12992">
        <ele>2.4</ele>
        <time>2020-06-02T15:19:31Z</time>
      </trkpt>
      <trkpt lat="46.33415" lon="-1.12996">
        <ele>2.4</ele>
        <time>2020-06-02T15:19:32Z</time>
      </trkpt>
      <trkpt lat="46.33418" lon="-1.13003">
        <ele>2.4</ele>
        <time>2020-06-02T15:19:33Z</time>
      </trkpt>
      <trkpt lat="46.33422" lon="-1.13008">
        <ele>2.4</ele>
        <time>2020-06-02T15:19:34Z</time>
      </trkpt>
      <trkpt lat="46.33426" lon="-1.13013">
        <ele>2.4</ele>
        <time>2020-06-02T15:19:35Z</time>
      </trkpt>
      <trkpt lat="46.33429" lon="-1.1302">
        <ele>2.4</ele>
        <time>2020-06-02T15:19:36Z</time>
      </trkpt>
      <trkpt lat="46.33432" lon="-1.13026">
        <ele>2.4</ele>
        <time>2020-06-02T15:19:37Z</time>
      </trkpt>
      <trkpt lat="46.33436" lon="-1.13031">
        <ele>2.4</ele>
        <time>2020-06-02T15:19:38Z</time>
      </trkpt>
      <trkpt lat="46.3344" lon="-1.13036">
        <ele>2.4</ele>
        <time>2020-06-02T15:19:39Z</time>
      </trkpt>
      <trkpt lat="46.33444" lon="-1.13041">
        <ele>2.4</ele>
        <time>2020-06-02T15:19:40Z</time>
      </trkpt>
      <trkpt lat="46.33448" lon="-1.13047">
        <ele>2.4</ele>
        <time>2020-06-02T15:19:41Z</time>
      </trkpt>
      <trkpt lat="46.33452" lon="-1.13053">
        <ele>2.4</ele>
        <time>2020-06-02T15:19:42Z</time>
      </trkpt>
      <trkpt lat="46.33456" lon="-1.1306">
        <ele>2.4</ele>
        <time>2020-06-02T15:19:43Z</time>
      </trkpt>
      <trkpt lat="46.3346" lon="-1.13064">
        <ele>2.4</ele>
        <time>2020-06-02T15:19:44Z</time>
      </trkpt>
      <trkpt lat="46.33465" lon="-1.1307">
        <ele>2.4</ele>
        <time>2020-06-02T15:19:45Z</time>
      </trkpt>
      <trkpt lat="46.33469" lon="-1.13075">
        <ele>2.4</ele>
        <time>2020-06-02T15:19:46Z</time>
      </trkpt>
      <trkpt lat="46.33473" lon="-1.13081">
        <ele>2.4</ele>
        <time>2020-06-02T15:19:47Z</time>
      </trkpt>
      <trkpt lat="46.33476" lon="-1.13088">
        <ele>2.4</ele>
        <time>2020-06-02T15:19:48Z</time>
      </trkpt>
      <trkpt lat="46.3348" lon="-1.13094">
        <ele>2.4</ele>
        <time>2020-06-02T15:19:49Z</time>
      </trkpt>
      <trkpt lat="46.33484" lon="-1.13098">
        <ele>2.4</ele>
        <time>2020-06-02T15:19:50Z</time>
      </trkpt>
      <trkpt lat="46.33488" lon="-1.13104">
        <ele>2.4</ele>
        <time>2020-06-02T15:19:51Z</time>
      </trkpt>
      <trkpt lat="46.33492" lon="-1.13109">
        <ele>2.4</ele>
        <time>2020-06-02T15:19:52Z</time>
      </trkpt>
      <trkpt lat="46.33495" lon="-1.13115">
        <ele>2.4</ele>
        <time>2020-06-02T15:19:53Z</time>
      </trkpt>
      <trkpt lat="46.335" lon="-1.1312">
        <ele>2.4</ele>
        <time>2020-06-02T15:19:54Z</time>
      </trkpt>
      <trkpt lat="46.33504" lon="-1.13127">
        <ele>2.4</ele>
        <time>2020-06-02T15:19:55Z</time>
      </trkpt>
      <trkpt lat="46.33508" lon="-1.13133">
        <ele>2.4</ele>
        <time>2020-06-02T15:19:56Z</time>
      </trkpt>
      <trkpt lat="46.33512" lon="-1.13138">
        <ele>2.4</ele>
        <time>2020-06-02T15:19:57Z</time>
      </trkpt>
      <trkpt lat="46.33516" lon="-1.13144">
        <ele>2.4</ele>
        <time>2020-06-02T15:19:58Z</time>
      </trkpt>
      <trkpt lat="46.3352" lon="-1.13151">
        <ele>2.4</ele>
        <time>2020-06-02T15:19:59Z</time>
      </trkpt>
      <trkpt lat="46.33524" lon="-1.13157">
        <ele>2.4</ele>
        <time>2020-06-02T15:20:00Z</time>
      </trkpt>
      <trkpt lat="46.33528" lon="-1.13163">
        <ele>2.4</ele>
        <time>2020-06-02T15:20:01Z</time>
      </trkpt>
      <trkpt lat="46.33531" lon="-1.13169">
        <ele>2.4</ele>
        <time>2020-06-02T15:20:02Z</time>
      </trkpt>
      <trkpt lat="46.33535" lon="-1.13176">
        <ele>2.4</ele>
        <time>2020-06-02T15:20:03Z</time>
      </trkpt>
      <trkpt lat="46.33538" lon="-1.13182">
        <ele>2.4</ele>
        <time>2020-06-02T15:20:04Z</time>
      </trkpt>
      <trkpt lat="46.33542" lon="-1.13189">
        <ele>2.4</ele>
        <time>2020-06-02T15:20:05Z</time>
      </trkpt>
      <trkpt lat="46.33547" lon="-1.13197">
        <ele>2.4</ele>
        <time>2020-06-02T15:20:06Z</time>
      </trkpt>
      <trkpt lat="46.33551" lon="-1.13203">
        <ele>2.4</ele>
        <time>2020-06-02T15:20:07Z</time>
      </trkpt>
      <trkpt lat="46.33554" lon="-1.13208">
        <ele>2.4</ele>
        <time>2020-06-02T15:20:08Z</time>
      </trkpt>
      <trkpt lat="46.33558" lon="-1.13214">
        <ele>2.4</ele>
        <time>2020-06-02T15:20:09Z</time>
      </trkpt>
      <trkpt lat="46.33562" lon="-1.13219">
        <ele>2.4</ele>
        <time>2020-06-02T15:20:10Z</time>
      </trkpt>
      <trkpt lat="46.33565" lon="-1.13225">
        <ele>2.4</ele>
        <time>2020-06-02T15:20:11Z</time>
      </trkpt>
      <trkpt lat="46.33569" lon="-1.13232">
        <ele>2.4</ele>
        <time>2020-06-02T15:20:12Z</time>
      </trkpt>
      <trkpt lat="46.33573" lon="-1.13239">
        <ele>2.4</ele>
        <time>2020-06-02T15:20:13Z</time>
      </trkpt>
      <trkpt lat="46.33576" lon="-1.13245">
        <ele>2.4</ele>
        <time>2020-06-02T15:20:14Z</time>
      </trkpt>
      <trkpt lat="46.3358" lon="-1.1325">
        <ele>2.4</ele>
        <time>2020-06-02T15:20:15Z</time>
      </trkpt>
      <trkpt lat="46.33583" lon="-1.13254">
        <ele>2.4</ele>
        <time>2020-06-02T15:20:16Z</time>
      </trkpt>
      <trkpt lat="46.33588" lon="-1.1326">
        <ele>2.4</ele>
        <time>2020-06-02T15:20:17Z</time>
      </trkpt>
      <trkpt lat="46.33591" lon="-1.13266">
        <ele>2.4</ele>
        <time>2020-06-02T15:20:18Z</time>
      </trkpt>
      <trkpt lat="46.33596" lon="-1.13271">
        <ele>2.3</ele>
        <time>2020-06-02T15:20:19Z</time>
      </trkpt>
      <trkpt lat="46.336" lon="-1.13278">
        <ele>2.3</ele>
        <time>2020-06-02T15:20:20Z</time>
      </trkpt>
      <trkpt lat="46.33605" lon="-1.13284">
        <ele>2.3</ele>
        <time>2020-06-02T15:20:21Z</time>
      </trkpt>
      <trkpt lat="46.33608" lon="-1.1329">
        <ele>2.3</ele>
        <time>2020-06-02T15:20:22Z</time>
      </trkpt>
      <trkpt lat="46.33613" lon="-1.13297">
        <ele>2.3</ele>
        <time>2020-06-02T15:20:23Z</time>
      </trkpt>
      <trkpt lat="46.33617" lon="-1.13305">
        <ele>2.3</ele>
        <time>2020-06-02T15:20:24Z</time>
      </trkpt>
      <trkpt lat="46.33621" lon="-1.13311">
        <ele>2.3</ele>
        <time>2020-06-02T15:20:25Z</time>
      </trkpt>
      <trkpt lat="46.33624" lon="-1.13316">
        <ele>2.3</ele>
        <time>2020-06-02T15:20:26Z</time>
      </trkpt>
      <trkpt lat="46.33627" lon="-1.13322">
        <ele>2.3</ele>
        <time>2020-06-02T15:20:27Z</time>
      </trkpt>
      <trkpt lat="46.3363" lon="-1.13326">
        <ele>2.3</ele>
        <time>2020-06-02T15:20:28Z</time>
      </trkpt>
      <trkpt lat="46.33634" lon="-1.13333">
        <ele>2.3</ele>
        <time>2020-06-02T15:20:29Z</time>
      </trkpt>
      <trkpt lat="46.33638" lon="-1.13339">
        <ele>2.3</ele>
        <time>2020-06-02T15:20:30Z</time>
      </trkpt>
      <trkpt lat="46.33641" lon="-1.13343">
        <ele>2.3</ele>
        <time>2020-06-02T15:20:31Z</time>
      </trkpt>
      <trkpt lat="46.33645" lon="-1.1335">
        <ele>2.3</ele>
        <time>2020-06-02T15:20:32Z</time>
      </trkpt>
      <trkpt lat="46.33649" lon="-1.13356">
        <ele>2.2</ele>
        <time>2020-06-02T15:20:33Z</time>
      </trkpt>
      <trkpt lat="46.33652" lon="-1.13362">
        <ele>2.2</ele>
        <time>2020-06-02T15:20:34Z</time>
      </trkpt>
      <trkpt lat="46.33657" lon="-1.13368">
        <ele>2.2</ele>
        <time>2020-06-02T15:20:35Z</time>
      </trkpt>
      <trkpt lat="46.33661" lon="-1.13373">
        <ele>2.2</ele>
        <time>2020-06-02T15:20:36Z</time>
      </trkpt>
      <trkpt lat="46.33665" lon="-1.13379">
        <ele>2.2</ele>
        <time>2020-06-02T15:20:37Z</time>
      </trkpt>
      <trkpt lat="46.33669" lon="-1.13386">
        <ele>2.2</ele>
        <time>2020-06-02T15:20:38Z</time>
      </trkpt>
      <trkpt lat="46.33674" lon="-1.13393">
        <ele>2.1</ele>
        <time>2020-06-02T15:20:39Z</time>
      </trkpt>
      <trkpt lat="46.33677" lon="-1.13399">
        <ele>2.1</ele>
        <time>2020-06-02T15:20:40Z</time>
      </trkpt>
      <trkpt lat="46.33681" lon="-1.13406">
        <ele>2.1</ele>
        <time>2020-06-02T15:20:41Z</time>
      </trkpt>
      <trkpt lat="46.33685" lon="-1.13414">
        <ele>2.1</ele>
        <time>2020-06-02T15:20:42Z</time>
      </trkpt>
      <trkpt lat="46.33689" lon="-1.13419">
        <ele>2.1</ele>
        <time>2020-06-02T15:20:43Z</time>
      </trkpt>
      <trkpt lat="46.33693" lon="-1.13424">
        <ele>2</ele>
        <time>2020-06-02T15:20:44Z</time>
      </trkpt>
      <trkpt lat="46.33697" lon="-1.1343">
        <ele>2</ele>
        <time>2020-06-02T15:20:45Z</time>
      </trkpt>
      <trkpt lat="46.33702" lon="-1.13437">
        <ele>2</ele>
        <time>2020-06-02T15:20:46Z</time>
      </trkpt>
      <trkpt lat="46.33706" lon="-1.13443">
        <ele>2</ele>
        <time>2020-06-02T15:20:47Z</time>
      </trkpt>
      <trkpt lat="46.33709" lon="-1.13448">
        <ele>2</ele>
        <time>2020-06-02T15:20:48Z</time>
      </trkpt>
      <trkpt lat="46.33713" lon="-1.13454">
        <ele>2</ele>
        <time>2020-06-02T15:20:49Z</time>
      </trkpt>
      <trkpt lat="46.33716" lon="-1.13459">
        <ele>2</ele>
        <time>2020-06-02T15:20:50Z</time>
      </trkpt>
      <trkpt lat="46.3372" lon="-1.13465">
        <ele>2</ele>
        <time>2020-06-02T15:20:51Z</time>
      </trkpt>
      <trkpt lat="46.33723" lon="-1.1347">
        <ele>2</ele>
        <time>2020-06-02T15:20:52Z</time>
      </trkpt>
      <trkpt lat="46.33726" lon="-1.13475">
        <ele>2</ele>
        <time>2020-06-02T15:20:53Z</time>
      </trkpt>
      <trkpt lat="46.3373" lon="-1.1348">
        <ele>2.1</ele>
        <time>2020-06-02T15:20:54Z</time>
      </trkpt>
      <trkpt lat="46.33733" lon="-1.13485">
        <ele>2.1</ele>
        <time>2020-06-02T15:20:55Z</time>
      </trkpt>
      <trkpt lat="46.33735" lon="-1.13489">
        <ele>2.1</ele>
        <time>2020-06-02T15:20:56Z</time>
      </trkpt>
      <trkpt lat="46.33738" lon="-1.13493">
        <ele>2.1</ele>
        <time>2020-06-02T15:20:57Z</time>
      </trkpt>
      <trkpt lat="46.3374" lon="-1.13497">
        <ele>2.1</ele>
        <time>2020-06-02T15:20:58Z</time>
      </trkpt>
      <trkpt lat="46.33742" lon="-1.135">
        <ele>2.1</ele>
        <time>2020-06-02T15:20:59Z</time>
      </trkpt>
      <trkpt lat="46.33743" lon="-1.13503">
        <ele>2.1</ele>
        <time>2020-06-02T15:21:00Z</time>
      </trkpt>
      <trkpt lat="46.33744" lon="-1.13505">
        <ele>2.1</ele>
        <time>2020-06-02T15:21:01Z</time>
      </trkpt>
      <trkpt lat="46.33747" lon="-1.13509">
        <ele>2.1</ele>
        <time>2020-06-02T15:21:02Z</time>
      </trkpt>
      <trkpt lat="46.3375" lon="-1.13513">
        <ele>2.2</ele>
        <time>2020-06-02T15:21:03Z</time>
      </trkpt>
      <trkpt lat="46.33753" lon="-1.13518">
        <ele>2.2</ele>
        <time>2020-06-02T15:21:04Z</time>
      </trkpt>
      <trkpt lat="46.33756" lon="-1.13523">
        <ele>2.2</ele>
        <time>2020-06-02T15:21:05Z</time>
      </trkpt>
      <trkpt lat="46.3376" lon="-1.13529">
        <ele>2.2</ele>
        <time>2020-06-02T15:21:06Z</time>
      </trkpt>
      <trkpt lat="46.33763" lon="-1.13536">
        <ele>2.2</ele>
        <time>2020-06-02T15:21:07Z</time>
      </trkpt>
      <trkpt lat="46.33768" lon="-1.13541">
        <ele>2.3</ele>
        <time>2020-06-02T15:21:08Z</time>
      </trkpt>
      <trkpt lat="46.33771" lon="-1.13547">
        <ele>2.3</ele>
        <time>2020-06-02T15:21:09Z</time>
      </trkpt>
      <trkpt lat="46.33775" lon="-1.13553">
        <ele>2.3</ele>
        <time>2020-06-02T15:21:10Z</time>
      </trkpt>
      <trkpt lat="46.33778" lon="-1.13558">
        <ele>2.4</ele>
        <time>2020-06-02T15:21:11Z</time>
      </trkpt>
      <trkpt lat="46.33782" lon="-1.13565">
        <ele>2.4</ele>
        <time>2020-06-02T15:21:12Z</time>
      </trkpt>
      <trkpt lat="46.33786" lon="-1.13572">
        <ele>2.4</ele>
        <time>2020-06-02T15:21:13Z</time>
      </trkpt>
      <trkpt lat="46.33791" lon="-1.13579">
        <ele>2.4</ele>
        <time>2020-06-02T15:21:14Z</time>
      </trkpt>
      <trkpt lat="46.33795" lon="-1.13586">
        <ele>2.5</ele>
        <time>2020-06-02T15:21:15Z</time>
      </trkpt>
      <trkpt lat="46.338" lon="-1.13593">
        <ele>2.5</ele>
        <time>2020-06-02T15:21:16Z</time>
      </trkpt>
      <trkpt lat="46.33804" lon="-1.13601">
        <ele>2.5</ele>
        <time>2020-06-02T15:21:17Z</time>
      </trkpt>
      <trkpt lat="46.33809" lon="-1.1361">
        <ele>2.5</ele>
        <time>2020-06-02T15:21:18Z</time>
      </trkpt>
      <trkpt lat="46.33815" lon="-1.13617">
        <ele>2.5</ele>
        <time>2020-06-02T15:21:19Z</time>
      </trkpt>
      <trkpt lat="46.3382" lon="-1.13626">
        <ele>2.5</ele>
        <time>2020-06-02T15:21:20Z</time>
      </trkpt>
      <trkpt lat="46.33826" lon="-1.13634">
        <ele>2.5</ele>
        <time>2020-06-02T15:21:21Z</time>
      </trkpt>
      <trkpt lat="46.33832" lon="-1.13642">
        <ele>2.5</ele>
        <time>2020-06-02T15:21:22Z</time>
      </trkpt>
      <trkpt lat="46.33837" lon="-1.1365">
        <ele>2.6</ele>
        <time>2020-06-02T15:21:23Z</time>
      </trkpt>
      <trkpt lat="46.33843" lon="-1.13659">
        <ele>2.6</ele>
        <time>2020-06-02T15:21:24Z</time>
      </trkpt>
      <trkpt lat="46.33849" lon="-1.13666">
        <ele>2.6</ele>
        <time>2020-06-02T15:21:25Z</time>
      </trkpt>
      <trkpt lat="46.33854" lon="-1.13675">
        <ele>2.6</ele>
        <time>2020-06-02T15:21:26Z</time>
      </trkpt>
      <trkpt lat="46.3386" lon="-1.13683">
        <ele>2.6</ele>
        <time>2020-06-02T15:21:27Z</time>
      </trkpt>
      <trkpt lat="46.33865" lon="-1.13691">
        <ele>2.6</ele>
        <time>2020-06-02T15:21:28Z</time>
      </trkpt>
      <trkpt lat="46.3387" lon="-1.13699">
        <ele>2.7</ele>
        <time>2020-06-02T15:21:29Z</time>
      </trkpt>
      <trkpt lat="46.33876" lon="-1.13708">
        <ele>2.7</ele>
        <time>2020-06-02T15:21:30Z</time>
      </trkpt>
      <trkpt lat="46.33881" lon="-1.13717">
        <ele>2.7</ele>
        <time>2020-06-02T15:21:31Z</time>
      </trkpt>
      <trkpt lat="46.33886" lon="-1.13726">
        <ele>2.7</ele>
        <time>2020-06-02T15:21:32Z</time>
      </trkpt>
      <trkpt lat="46.33892" lon="-1.13735">
        <ele>2.7</ele>
        <time>2020-06-02T15:21:33Z</time>
      </trkpt>
      <trkpt lat="46.33897" lon="-1.13745">
        <ele>2.8</ele>
        <time>2020-06-02T15:21:34Z</time>
      </trkpt>
      <trkpt lat="46.33902" lon="-1.13754">
        <ele>2.8</ele>
        <time>2020-06-02T15:21:35Z</time>
      </trkpt>
      <trkpt lat="46.33908" lon="-1.13762">
        <ele>2.8</ele>
        <time>2020-06-02T15:21:36Z</time>
      </trkpt>
      <trkpt lat="46.33914" lon="-1.1377">
        <ele>2.8</ele>
        <time>2020-06-02T15:21:37Z</time>
      </trkpt>
      <trkpt lat="46.3392" lon="-1.13778">
        <ele>2.9</ele>
        <time>2020-06-02T15:21:38Z</time>
      </trkpt>
      <trkpt lat="46.33926" lon="-1.13787">
        <ele>2.9</ele>
        <time>2020-06-02T15:21:39Z</time>
      </trkpt>
      <trkpt lat="46.33931" lon="-1.13795">
        <ele>2.9</ele>
        <time>2020-06-02T15:21:40Z</time>
      </trkpt>
      <trkpt lat="46.33936" lon="-1.13804">
        <ele>2.9</ele>
        <time>2020-06-02T15:21:41Z</time>
      </trkpt>
      <trkpt lat="46.33941" lon="-1.13812">
        <ele>2.9</ele>
        <time>2020-06-02T15:21:42Z</time>
      </trkpt>
      <trkpt lat="46.33947" lon="-1.1382">
        <ele>2.9</ele>
        <time>2020-06-02T15:21:43Z</time>
      </trkpt>
      <trkpt lat="46.33952" lon="-1.13828">
        <ele>2.9</ele>
        <time>2020-06-02T15:21:44Z</time>
      </trkpt>
      <trkpt lat="46.33956" lon="-1.13836">
        <ele>2.9</ele>
        <time>2020-06-02T15:21:45Z</time>
      </trkpt>
      <trkpt lat="46.33961" lon="-1.13843">
        <ele>2.9</ele>
        <time>2020-06-02T15:21:46Z</time>
      </trkpt>
      <trkpt lat="46.33966" lon="-1.1385">
        <ele>2.9</ele>
        <time>2020-06-02T15:21:47Z</time>
      </trkpt>
      <trkpt lat="46.33971" lon="-1.13855">
        <ele>2.9</ele>
        <time>2020-06-02T15:21:48Z</time>
      </trkpt>
      <trkpt lat="46.33975" lon="-1.13862">
        <ele>2.9</ele>
        <time>2020-06-02T15:21:49Z</time>
      </trkpt>
      <trkpt lat="46.33979" lon="-1.13868">
        <ele>2.9</ele>
        <time>2020-06-02T15:21:50Z</time>
      </trkpt>
      <trkpt lat="46.33982" lon="-1.13874">
        <ele>2.9</ele>
        <time>2020-06-02T15:21:51Z</time>
      </trkpt>
      <trkpt lat="46.33985" lon="-1.1388">
        <ele>2.9</ele>
        <time>2020-06-02T15:21:52Z</time>
      </trkpt>
      <trkpt lat="46.33988" lon="-1.13887">
        <ele>2.9</ele>
        <time>2020-06-02T15:21:53Z</time>
      </trkpt>
      <trkpt lat="46.33991" lon="-1.13893">
        <ele>2.9</ele>
        <time>2020-06-02T15:21:54Z</time>
      </trkpt>
      <trkpt lat="46.33995" lon="-1.13898">
        <ele>2.9</ele>
        <time>2020-06-02T15:21:55Z</time>
      </trkpt>
      <trkpt lat="46.33998" lon="-1.13904">
        <ele>2.9</ele>
        <time>2020-06-02T15:21:56Z</time>
      </trkpt>
      <trkpt lat="46.34001" lon="-1.13909">
        <ele>2.9</ele>
        <time>2020-06-02T15:21:57Z</time>
      </trkpt>
      <trkpt lat="46.34005" lon="-1.13913">
        <ele>2.9</ele>
        <time>2020-06-02T15:21:58Z</time>
      </trkpt>
      <trkpt lat="46.34009" lon="-1.13919">
        <ele>2.9</ele>
        <time>2020-06-02T15:21:59Z</time>
      </trkpt>
      <trkpt lat="46.34012" lon="-1.13924">
        <ele>2.9</ele>
        <time>2020-06-02T15:22:00Z</time>
      </trkpt>
      <trkpt lat="46.34015" lon="-1.13929">
        <ele>2.9</ele>
        <time>2020-06-02T15:22:01Z</time>
      </trkpt>
      <trkpt lat="46.34019" lon="-1.13934">
        <ele>2.9</ele>
        <time>2020-06-02T15:22:02Z</time>
      </trkpt>
      <trkpt lat="46.34022" lon="-1.1394">
        <ele>2.9</ele>
        <time>2020-06-02T15:22:03Z</time>
      </trkpt>
      <trkpt lat="46.34025" lon="-1.13944">
        <ele>2.9</ele>
        <time>2020-06-02T15:22:04Z</time>
      </trkpt>
      <trkpt lat="46.34029" lon="-1.13949">
        <ele>2.9</ele>
        <time>2020-06-02T15:22:05Z</time>
      </trkpt>
      <trkpt lat="46.34031" lon="-1.13954">
        <ele>2.9</ele>
        <time>2020-06-02T15:22:06Z</time>
      </trkpt>
      <trkpt lat="46.34034" lon="-1.13959">
        <ele>2.9</ele>
        <time>2020-06-02T15:22:07Z</time>
      </trkpt>
      <trkpt lat="46.34038" lon="-1.13965">
        <ele>2.9</ele>
        <time>2020-06-02T15:22:08Z</time>
      </trkpt>
      <trkpt lat="46.34041" lon="-1.13971">
        <ele>2.9</ele>
        <time>2020-06-02T15:22:09Z</time>
      </trkpt>
      <trkpt lat="46.34044" lon="-1.13977">
        <ele>2.9</ele>
        <time>2020-06-02T15:22:10Z</time>
      </trkpt>
      <trkpt lat="46.34048" lon="-1.13983">
        <ele>2.9</ele>
        <time>2020-06-02T15:22:11Z</time>
      </trkpt>
      <trkpt lat="46.34052" lon="-1.13988">
        <ele>2.9</ele>
        <time>2020-06-02T15:22:12Z</time>
      </trkpt>
      <trkpt lat="46.34055" lon="-1.13993">
        <ele>3</ele>
        <time>2020-06-02T15:22:13Z</time>
      </trkpt>
      <trkpt lat="46.34058" lon="-1.13998">
        <ele>3</ele>
        <time>2020-06-02T15:22:14Z</time>
      </trkpt>
      <trkpt lat="46.34061" lon="-1.14004">
        <ele>3</ele>
        <time>2020-06-02T15:22:15Z</time>
      </trkpt>
      <trkpt lat="46.34064" lon="-1.14009">
        <ele>3</ele>
        <time>2020-06-02T15:22:16Z</time>
      </trkpt>
      <trkpt lat="46.34067" lon="-1.14014">
        <ele>3</ele>
        <time>2020-06-02T15:22:17Z</time>
      </trkpt>
      <trkpt lat="46.3407" lon="-1.14019">
        <ele>3</ele>
        <time>2020-06-02T15:22:18Z</time>
      </trkpt>
      <trkpt lat="46.34073" lon="-1.14025">
        <ele>3</ele>
        <time>2020-06-02T15:22:19Z</time>
      </trkpt>
      <trkpt lat="46.34077" lon="-1.14029">
        <ele>3</ele>
        <time>2020-06-02T15:22:20Z</time>
      </trkpt>
      <trkpt lat="46.3408" lon="-1.14034">
        <ele>3</ele>
        <time>2020-06-02T15:22:21Z</time>
      </trkpt>
      <trkpt lat="46.34083" lon="-1.1404">
        <ele>3</ele>
        <time>2020-06-02T15:22:22Z</time>
      </trkpt>
      <trkpt lat="46.34086" lon="-1.14046">
        <ele>3</ele>
        <time>2020-06-02T15:22:23Z</time>
      </trkpt>
      <trkpt lat="46.34089" lon="-1.14052">
        <ele>3</ele>
        <time>2020-06-02T15:22:24Z</time>
      </trkpt>
      <trkpt lat="46.34093" lon="-1.14059">
        <ele>3</ele>
        <time>2020-06-02T15:22:25Z</time>
      </trkpt>
      <trkpt lat="46.34096" lon="-1.14066">
        <ele>3</ele>
        <time>2020-06-02T15:22:26Z</time>
      </trkpt>
      <trkpt lat="46.34099" lon="-1.14073">
        <ele>3</ele>
        <time>2020-06-02T15:22:27Z</time>
      </trkpt>
      <trkpt lat="46.34103" lon="-1.14079">
        <ele>3</ele>
        <time>2020-06-02T15:22:28Z</time>
      </trkpt>
      <trkpt lat="46.34106" lon="-1.14085">
        <ele>3</ele>
        <time>2020-06-02T15:22:29Z</time>
      </trkpt>
      <trkpt lat="46.34109" lon="-1.14092">
        <ele>3</ele>
        <time>2020-06-02T15:22:30Z</time>
      </trkpt>
      <trkpt lat="46.34112" lon="-1.14099">
        <ele>3</ele>
        <time>2020-06-02T15:22:31Z</time>
      </trkpt>
      <trkpt lat="46.34115" lon="-1.14106">
        <ele>3</ele>
        <time>2020-06-02T15:22:32Z</time>
      </trkpt>
      <trkpt lat="46.3412" lon="-1.14111">
        <ele>3</ele>
        <time>2020-06-02T15:22:33Z</time>
      </trkpt>
      <trkpt lat="46.34123" lon="-1.14117">
        <ele>3</ele>
        <time>2020-06-02T15:22:34Z</time>
      </trkpt>
      <trkpt lat="46.34126" lon="-1.14124">
        <ele>3</ele>
        <time>2020-06-02T15:22:35Z</time>
      </trkpt>
      <trkpt lat="46.34129" lon="-1.14131">
        <ele>3</ele>
        <time>2020-06-02T15:22:36Z</time>
      </trkpt>
      <trkpt lat="46.34132" lon="-1.14137">
        <ele>3</ele>
        <time>2020-06-02T15:22:37Z</time>
      </trkpt>
      <trkpt lat="46.34135" lon="-1.14144">
        <ele>3</ele>
        <time>2020-06-02T15:22:38Z</time>
      </trkpt>
      <trkpt lat="46.34137" lon="-1.14151">
        <ele>3</ele>
        <time>2020-06-02T15:22:39Z</time>
      </trkpt>
      <trkpt lat="46.3414" lon="-1.14157">
        <ele>3</ele>
        <time>2020-06-02T15:22:40Z</time>
      </trkpt>
      <trkpt lat="46.34142" lon="-1.14164">
        <ele>3</ele>
        <time>2020-06-02T15:22:41Z</time>
      </trkpt>
      <trkpt lat="46.34144" lon="-1.14171">
        <ele>3</ele>
        <time>2020-06-02T15:22:42Z</time>
      </trkpt>
      <trkpt lat="46.34147" lon="-1.14177">
        <ele>3</ele>
        <time>2020-06-02T15:22:43Z</time>
      </trkpt>
      <trkpt lat="46.3415" lon="-1.14182">
        <ele>3</ele>
        <time>2020-06-02T15:22:44Z</time>
      </trkpt>
      <trkpt lat="46.34152" lon="-1.14188">
        <ele>3</ele>
        <time>2020-06-02T15:22:45Z</time>
      </trkpt>
      <trkpt lat="46.34157" lon="-1.14192">
        <ele>3</ele>
        <time>2020-06-02T15:22:46Z</time>
      </trkpt>
      <trkpt lat="46.3416" lon="-1.14197">
        <ele>3</ele>
        <time>2020-06-02T15:22:47Z</time>
      </trkpt>
      <trkpt lat="46.34162" lon="-1.14203">
        <ele>3</ele>
        <time>2020-06-02T15:22:48Z</time>
      </trkpt>
      <trkpt lat="46.34165" lon="-1.14208">
        <ele>3</ele>
        <time>2020-06-02T15:22:49Z</time>
      </trkpt>
      <trkpt lat="46.34168" lon="-1.14213">
        <ele>3</ele>
        <time>2020-06-02T15:22:50Z</time>
      </trkpt>
      <trkpt lat="46.34171" lon="-1.14218">
        <ele>3</ele>
        <time>2020-06-02T15:22:51Z</time>
      </trkpt>
      <trkpt lat="46.34174" lon="-1.14222">
        <ele>3</ele>
        <time>2020-06-02T15:22:52Z</time>
      </trkpt>
      <trkpt lat="46.34177" lon="-1.14227">
        <ele>3</ele>
        <time>2020-06-02T15:22:53Z</time>
      </trkpt>
      <trkpt lat="46.3418" lon="-1.14232">
        <ele>3</ele>
        <time>2020-06-02T15:22:54Z</time>
      </trkpt>
      <trkpt lat="46.34183" lon="-1.14237">
        <ele>3</ele>
        <time>2020-06-02T15:22:55Z</time>
      </trkpt>
      <trkpt lat="46.34186" lon="-1.14242">
        <ele>3</ele>
        <time>2020-06-02T15:22:56Z</time>
      </trkpt>
      <trkpt lat="46.34188" lon="-1.14248">
        <ele>3</ele>
        <time>2020-06-02T15:22:57Z</time>
      </trkpt>
      <trkpt lat="46.3419" lon="-1.14254">
        <ele>3.1</ele>
        <time>2020-06-02T15:22:58Z</time>
      </trkpt>
      <trkpt lat="46.34193" lon="-1.14259">
        <ele>3.1</ele>
        <time>2020-06-02T15:22:59Z</time>
      </trkpt>
      <trkpt lat="46.34195" lon="-1.14264">
        <ele>3.1</ele>
        <time>2020-06-02T15:23:00Z</time>
      </trkpt>
      <trkpt lat="46.34198" lon="-1.14269">
        <ele>3.1</ele>
        <time>2020-06-02T15:23:01Z</time>
      </trkpt>
      <trkpt lat="46.342" lon="-1.14275">
        <ele>3.1</ele>
        <time>2020-06-02T15:23:02Z</time>
      </trkpt>
      <trkpt lat="46.34203" lon="-1.1428">
        <ele>3.1</ele>
        <time>2020-06-02T15:23:03Z</time>
      </trkpt>
      <trkpt lat="46.34205" lon="-1.14286">
        <ele>3.1</ele>
        <time>2020-06-02T15:23:04Z</time>
      </trkpt>
      <trkpt lat="46.34207" lon="-1.1429">
        <ele>3.1</ele>
        <time>2020-06-02T15:23:05Z</time>
      </trkpt>
      <trkpt lat="46.3421" lon="-1.14295">
        <ele>3.1</ele>
        <time>2020-06-02T15:23:06Z</time>
      </trkpt>
      <trkpt lat="46.34212" lon="-1.14301">
        <ele>3.1</ele>
        <time>2020-06-02T15:23:07Z</time>
      </trkpt>
      <trkpt lat="46.34214" lon="-1.14306">
        <ele>3.1</ele>
        <time>2020-06-02T15:23:08Z</time>
      </trkpt>
      <trkpt lat="46.34217" lon="-1.14312">
        <ele>3.1</ele>
        <time>2020-06-02T15:23:09Z</time>
      </trkpt>
      <trkpt lat="46.34219" lon="-1.14317">
        <ele>3.1</ele>
        <time>2020-06-02T15:23:10Z</time>
      </trkpt>
      <trkpt lat="46.34221" lon="-1.14323">
        <ele>3.1</ele>
        <time>2020-06-02T15:23:11Z</time>
      </trkpt>
      <trkpt lat="46.34224" lon="-1.14328">
        <ele>3.1</ele>
        <time>2020-06-02T15:23:12Z</time>
      </trkpt>
      <trkpt lat="46.34227" lon="-1.14333">
        <ele>3.1</ele>
        <time>2020-06-02T15:23:13Z</time>
      </trkpt>
      <trkpt lat="46.3423" lon="-1.14337">
        <ele>3</ele>
        <time>2020-06-02T15:23:14Z</time>
      </trkpt>
      <trkpt lat="46.34233" lon="-1.14342">
        <ele>3</ele>
        <time>2020-06-02T15:23:15Z</time>
      </trkpt>
      <trkpt lat="46.34236" lon="-1.14346">
        <ele>3</ele>
        <time>2020-06-02T15:23:16Z</time>
      </trkpt>
      <trkpt lat="46.34238" lon="-1.14352">
        <ele>3</ele>
        <time>2020-06-02T15:23:17Z</time>
      </trkpt>
      <trkpt lat="46.3424" lon="-1.14358">
        <ele>3</ele>
        <time>2020-06-02T15:23:18Z</time>
      </trkpt>
      <trkpt lat="46.34242" lon="-1.14363">
        <ele>3</ele>
        <time>2020-06-02T15:23:19Z</time>
      </trkpt>
      <trkpt lat="46.34244" lon="-1.14368">
        <ele>3</ele>
        <time>2020-06-02T15:23:20Z</time>
      </trkpt>
      <trkpt lat="46.34247" lon="-1.14373">
        <ele>3</ele>
        <time>2020-06-02T15:23:21Z</time>
      </trkpt>
      <trkpt lat="46.3425" lon="-1.14378">
        <ele>3</ele>
        <time>2020-06-02T15:23:22Z</time>
      </trkpt>
      <trkpt lat="46.34252" lon="-1.14384">
        <ele>3</ele>
        <time>2020-06-02T15:23:23Z</time>
      </trkpt>
      <trkpt lat="46.34256" lon="-1.14389">
        <ele>3</ele>
        <time>2020-06-02T15:23:24Z</time>
      </trkpt>
      <trkpt lat="46.34259" lon="-1.14393">
        <ele>3</ele>
        <time>2020-06-02T15:23:25Z</time>
      </trkpt>
      <trkpt lat="46.34262" lon="-1.144">
        <ele>3</ele>
        <time>2020-06-02T15:23:26Z</time>
      </trkpt>
      <trkpt lat="46.34264" lon="-1.14406">
        <ele>3</ele>
        <time>2020-06-02T15:23:27Z</time>
      </trkpt>
      <trkpt lat="46.34268" lon="-1.14412">
        <ele>3</ele>
        <time>2020-06-02T15:23:28Z</time>
      </trkpt>
      <trkpt lat="46.3427" lon="-1.14418">
        <ele>3</ele>
        <time>2020-06-02T15:23:29Z</time>
      </trkpt>
      <trkpt lat="46.34273" lon="-1.14424">
        <ele>3</ele>
        <time>2020-06-02T15:23:30Z</time>
      </trkpt>
      <trkpt lat="46.34276" lon="-1.1443">
        <ele>3</ele>
        <time>2020-06-02T15:23:31Z</time>
      </trkpt>
      <trkpt lat="46.34278" lon="-1.14436">
        <ele>3</ele>
        <time>2020-06-02T15:23:32Z</time>
      </trkpt>
      <trkpt lat="46.34281" lon="-1.14442">
        <ele>3</ele>
        <time>2020-06-02T15:23:33Z</time>
      </trkpt>
      <trkpt lat="46.34284" lon="-1.14447">
        <ele>3</ele>
        <time>2020-06-02T15:23:34Z</time>
      </trkpt>
      <trkpt lat="46.34288" lon="-1.14452">
        <ele>3</ele>
        <time>2020-06-02T15:23:35Z</time>
      </trkpt>
      <trkpt lat="46.34291" lon="-1.14458">
        <ele>3</ele>
        <time>2020-06-02T15:23:36Z</time>
      </trkpt>
      <trkpt lat="46.34294" lon="-1.14463">
        <ele>3</ele>
        <time>2020-06-02T15:23:37Z</time>
      </trkpt>
      <trkpt lat="46.34297" lon="-1.14468">
        <ele>3</ele>
        <time>2020-06-02T15:23:38Z</time>
      </trkpt>
      <trkpt lat="46.343" lon="-1.14473">
        <ele>3</ele>
        <time>2020-06-02T15:23:39Z</time>
      </trkpt>
      <trkpt lat="46.34303" lon="-1.14478">
        <ele>3</ele>
        <time>2020-06-02T15:23:40Z</time>
      </trkpt>
      <trkpt lat="46.34305" lon="-1.14484">
        <ele>3</ele>
        <time>2020-06-02T15:23:41Z</time>
      </trkpt>
      <trkpt lat="46.34307" lon="-1.14489">
        <ele>3</ele>
        <time>2020-06-02T15:23:42Z</time>
      </trkpt>
      <trkpt lat="46.3431" lon="-1.14495">
        <ele>3</ele>
        <time>2020-06-02T15:23:43Z</time>
      </trkpt>
      <trkpt lat="46.34312" lon="-1.14501">
        <ele>3</ele>
        <time>2020-06-02T15:23:44Z</time>
      </trkpt>
      <trkpt lat="46.34315" lon="-1.14506">
        <ele>3</ele>
        <time>2020-06-02T15:23:45Z</time>
      </trkpt>
      <trkpt lat="46.34318" lon="-1.14511">
        <ele>3</ele>
        <time>2020-06-02T15:23:46Z</time>
      </trkpt>
      <trkpt lat="46.34321" lon="-1.14516">
        <ele>3</ele>
        <time>2020-06-02T15:23:47Z</time>
      </trkpt>
      <trkpt lat="46.34324" lon="-1.14521">
        <ele>3.1</ele>
        <time>2020-06-02T15:23:48Z</time>
      </trkpt>
      <trkpt lat="46.34327" lon="-1.14526">
        <ele>3.1</ele>
        <time>2020-06-02T15:23:49Z</time>
      </trkpt>
      <trkpt lat="46.3433" lon="-1.14531">
        <ele>3.1</ele>
        <time>2020-06-02T15:23:50Z</time>
      </trkpt>
      <trkpt lat="46.34332" lon="-1.14537">
        <ele>3.1</ele>
        <time>2020-06-02T15:23:51Z</time>
      </trkpt>
      <trkpt lat="46.34335" lon="-1.14542">
        <ele>3.1</ele>
        <time>2020-06-02T15:23:52Z</time>
      </trkpt>
      <trkpt lat="46.34338" lon="-1.14547">
        <ele>3.1</ele>
        <time>2020-06-02T15:23:53Z</time>
      </trkpt>
      <trkpt lat="46.3434" lon="-1.14552">
        <ele>3.1</ele>
        <time>2020-06-02T15:23:54Z</time>
      </trkpt>
      <trkpt lat="46.34342" lon="-1.14558">
        <ele>3.1</ele>
        <time>2020-06-02T15:23:55Z</time>
      </trkpt>
      <trkpt lat="46.34345" lon="-1.14563">
        <ele>3.1</ele>
        <time>2020-06-02T15:23:56Z</time>
      </trkpt>
      <trkpt lat="46.34347" lon="-1.14568">
        <ele>3.1</ele>
        <time>2020-06-02T15:23:57Z</time>
      </trkpt>
      <trkpt lat="46.3435" lon="-1.14573">
        <ele>3.1</ele>
        <time>2020-06-02T15:23:58Z</time>
      </trkpt>
      <trkpt lat="46.34353" lon="-1.14579">
        <ele>3.1</ele>
        <time>2020-06-02T15:23:59Z</time>
      </trkpt>
      <trkpt lat="46.34356" lon="-1.14585">
        <ele>3.1</ele>
        <time>2020-06-02T15:24:00Z</time>
      </trkpt>
      <trkpt lat="46.34358" lon="-1.14591">
        <ele>3.1</ele>
        <time>2020-06-02T15:24:01Z</time>
      </trkpt>
      <trkpt lat="46.34361" lon="-1.14597">
        <ele>3.1</ele>
        <time>2020-06-02T15:24:02Z</time>
      </trkpt>
      <trkpt lat="46.34364" lon="-1.14602">
        <ele>3.1</ele>
        <time>2020-06-02T15:24:03Z</time>
      </trkpt>
      <trkpt lat="46.34367" lon="-1.14608">
        <ele>3.1</ele>
        <time>2020-06-02T15:24:04Z</time>
      </trkpt>
      <trkpt lat="46.34369" lon="-1.14614">
        <ele>3.1</ele>
        <time>2020-06-02T15:24:05Z</time>
      </trkpt>
      <trkpt lat="46.34372" lon="-1.14619">
        <ele>3.1</ele>
        <time>2020-06-02T15:24:06Z</time>
      </trkpt>
      <trkpt lat="46.34375" lon="-1.14625">
        <ele>3.1</ele>
        <time>2020-06-02T15:24:07Z</time>
      </trkpt>
      <trkpt lat="46.34378" lon="-1.14632">
        <ele>3.1</ele>
        <time>2020-06-02T15:24:08Z</time>
      </trkpt>
      <trkpt lat="46.34381" lon="-1.14637">
        <ele>3.1</ele>
        <time>2020-06-02T15:24:09Z</time>
      </trkpt>
      <trkpt lat="46.34384" lon="-1.14644">
        <ele>3.1</ele>
        <time>2020-06-02T15:24:10Z</time>
      </trkpt>
      <trkpt lat="46.34387" lon="-1.1465">
        <ele>3.1</ele>
        <time>2020-06-02T15:24:11Z</time>
      </trkpt>
      <trkpt lat="46.3439" lon="-1.14656">
        <ele>3.1</ele>
        <time>2020-06-02T15:24:12Z</time>
      </trkpt>
      <trkpt lat="46.34393" lon="-1.14662">
        <ele>3.1</ele>
        <time>2020-06-02T15:24:13Z</time>
      </trkpt>
      <trkpt lat="46.34396" lon="-1.14668">
        <ele>3.1</ele>
        <time>2020-06-02T15:24:14Z</time>
      </trkpt>
      <trkpt lat="46.34399" lon="-1.14675">
        <ele>3.1</ele>
        <time>2020-06-02T15:24:15Z</time>
      </trkpt>
      <trkpt lat="46.34402" lon="-1.14681">
        <ele>3.1</ele>
        <time>2020-06-02T15:24:16Z</time>
      </trkpt>
      <trkpt lat="46.34405" lon="-1.14687">
        <ele>3.1</ele>
        <time>2020-06-02T15:24:17Z</time>
      </trkpt>
      <trkpt lat="46.34408" lon="-1.14693">
        <ele>3.1</ele>
        <time>2020-06-02T15:24:18Z</time>
      </trkpt>
      <trkpt lat="46.34411" lon="-1.14699">
        <ele>3.1</ele>
        <time>2020-06-02T15:24:19Z</time>
      </trkpt>
      <trkpt lat="46.34414" lon="-1.14706">
        <ele>3.1</ele>
        <time>2020-06-02T15:24:20Z</time>
      </trkpt>
      <trkpt lat="46.34417" lon="-1.14711">
        <ele>3.1</ele>
        <time>2020-06-02T15:24:21Z</time>
      </trkpt>
      <trkpt lat="46.3442" lon="-1.14717">
        <ele>3.1</ele>
        <time>2020-06-02T15:24:22Z</time>
      </trkpt>
      <trkpt lat="46.34424" lon="-1.14722">
        <ele>3.1</ele>
        <time>2020-06-02T15:24:23Z</time>
      </trkpt>
      <trkpt lat="46.34427" lon="-1.14727">
        <ele>3.1</ele>
        <time>2020-06-02T15:24:24Z</time>
      </trkpt>
      <trkpt lat="46.34431" lon="-1.14732">
        <ele>3.1</ele>
        <time>2020-06-02T15:24:25Z</time>
      </trkpt>
      <trkpt lat="46.34433" lon="-1.14739">
        <ele>3.1</ele>
        <time>2020-06-02T15:24:26Z</time>
      </trkpt>
      <trkpt lat="46.34435" lon="-1.14745">
        <ele>3.1</ele>
        <time>2020-06-02T15:24:27Z</time>
      </trkpt>
      <trkpt lat="46.34438" lon="-1.14752">
        <ele>3.1</ele>
        <time>2020-06-02T15:24:28Z</time>
      </trkpt>
      <trkpt lat="46.34441" lon="-1.14758">
        <ele>3.1</ele>
        <time>2020-06-02T15:24:29Z</time>
      </trkpt>
      <trkpt lat="46.34444" lon="-1.14764">
        <ele>3.1</ele>
        <time>2020-06-02T15:24:30Z</time>
      </trkpt>
      <trkpt lat="46.34447" lon="-1.14771">
        <ele>3.1</ele>
        <time>2020-06-02T15:24:31Z</time>
      </trkpt>
      <trkpt lat="46.34451" lon="-1.14777">
        <ele>3.1</ele>
        <time>2020-06-02T15:24:32Z</time>
      </trkpt>
      <trkpt lat="46.34454" lon="-1.14783">
        <ele>3.1</ele>
        <time>2020-06-02T15:24:33Z</time>
      </trkpt>
      <trkpt lat="46.34458" lon="-1.14789">
        <ele>3.1</ele>
        <time>2020-06-02T15:24:34Z</time>
      </trkpt>
      <trkpt lat="46.34461" lon="-1.14796">
        <ele>3.1</ele>
        <time>2020-06-02T15:24:35Z</time>
      </trkpt>
      <trkpt lat="46.34464" lon="-1.14802">
        <ele>3.1</ele>
        <time>2020-06-02T15:24:36Z</time>
      </trkpt>
      <trkpt lat="46.34467" lon="-1.14808">
        <ele>3.1</ele>
        <time>2020-06-02T15:24:37Z</time>
      </trkpt>
      <trkpt lat="46.34469" lon="-1.14815">
        <ele>3.1</ele>
        <time>2020-06-02T15:24:38Z</time>
      </trkpt>
      <trkpt lat="46.34472" lon="-1.1482">
        <ele>3.1</ele>
        <time>2020-06-02T15:24:39Z</time>
      </trkpt>
      <trkpt lat="46.34475" lon="-1.14825">
        <ele>3.1</ele>
        <time>2020-06-02T15:24:40Z</time>
      </trkpt>
      <trkpt lat="46.34478" lon="-1.1483">
        <ele>3.1</ele>
        <time>2020-06-02T15:24:41Z</time>
      </trkpt>
      <trkpt lat="46.34481" lon="-1.14836">
        <ele>3.1</ele>
        <time>2020-06-02T15:24:42Z</time>
      </trkpt>
      <trkpt lat="46.34484" lon="-1.1484">
        <ele>3.1</ele>
        <time>2020-06-02T15:24:43Z</time>
      </trkpt>
      <trkpt lat="46.34487" lon="-1.14845">
        <ele>3.1</ele>
        <time>2020-06-02T15:24:44Z</time>
      </trkpt>
      <trkpt lat="46.34489" lon="-1.14851">
        <ele>3.1</ele>
        <time>2020-06-02T15:24:45Z</time>
      </trkpt>
      <trkpt lat="46.34492" lon="-1.14856">
        <ele>3.1</ele>
        <time>2020-06-02T15:24:46Z</time>
      </trkpt>
      <trkpt lat="46.34495" lon="-1.14862">
        <ele>3.1</ele>
        <time>2020-06-02T15:24:47Z</time>
      </trkpt>
      <trkpt lat="46.34497" lon="-1.14868">
        <ele>3.1</ele>
        <time>2020-06-02T15:24:48Z</time>
      </trkpt>
      <trkpt lat="46.345" lon="-1.14874">
        <ele>3.1</ele>
        <time>2020-06-02T15:24:49Z</time>
      </trkpt>
      <trkpt lat="46.34503" lon="-1.1488">
        <ele>3.1</ele>
        <time>2020-06-02T15:24:50Z</time>
      </trkpt>
      <trkpt lat="46.34506" lon="-1.14886">
        <ele>3.1</ele>
        <time>2020-06-02T15:24:51Z</time>
      </trkpt>
      <trkpt lat="46.34509" lon="-1.14892">
        <ele>3.1</ele>
        <time>2020-06-02T15:24:52Z</time>
      </trkpt>
      <trkpt lat="46.34512" lon="-1.14898">
        <ele>3.1</ele>
        <time>2020-06-02T15:24:53Z</time>
      </trkpt>
      <trkpt lat="46.34514" lon="-1.14904">
        <ele>3.1</ele>
        <time>2020-06-02T15:24:54Z</time>
      </trkpt>
      <trkpt lat="46.34518" lon="-1.1491">
        <ele>3.1</ele>
        <time>2020-06-02T15:24:55Z</time>
      </trkpt>
      <trkpt lat="46.34521" lon="-1.14916">
        <ele>3.1</ele>
        <time>2020-06-02T15:24:56Z</time>
      </trkpt>
      <trkpt lat="46.34524" lon="-1.14922">
        <ele>3.1</ele>
        <time>2020-06-02T15:24:57Z</time>
      </trkpt>
      <trkpt lat="46.34527" lon="-1.14927">
        <ele>3.1</ele>
        <time>2020-06-02T15:24:58Z</time>
      </trkpt>
      <trkpt lat="46.3453" lon="-1.14933">
        <ele>3.1</ele>
        <time>2020-06-02T15:24:59Z</time>
      </trkpt>
      <trkpt lat="46.34534" lon="-1.14939">
        <ele>3.1</ele>
        <time>2020-06-02T15:25:00Z</time>
      </trkpt>
      <trkpt lat="46.34538" lon="-1.14945">
        <ele>3.1</ele>
        <time>2020-06-02T15:25:01Z</time>
      </trkpt>
      <trkpt lat="46.34541" lon="-1.14952">
        <ele>3.1</ele>
        <time>2020-06-02T15:25:02Z</time>
      </trkpt>
      <trkpt lat="46.34545" lon="-1.14958">
        <ele>3.1</ele>
        <time>2020-06-02T15:25:03Z</time>
      </trkpt>
      <trkpt lat="46.34547" lon="-1.14966">
        <ele>3.2</ele>
        <time>2020-06-02T15:25:04Z</time>
      </trkpt>
      <trkpt lat="46.34551" lon="-1.14972">
        <ele>3.2</ele>
        <time>2020-06-02T15:25:05Z</time>
      </trkpt>
      <trkpt lat="46.34554" lon="-1.14979">
        <ele>3.2</ele>
        <time>2020-06-02T15:25:06Z</time>
      </trkpt>
      <trkpt lat="46.34557" lon="-1.14986">
        <ele>3.2</ele>
        <time>2020-06-02T15:25:07Z</time>
      </trkpt>
      <trkpt lat="46.34561" lon="-1.14993">
        <ele>3.2</ele>
        <time>2020-06-02T15:25:08Z</time>
      </trkpt>
      <trkpt lat="46.34564" lon="-1.14999">
        <ele>3.2</ele>
        <time>2020-06-02T15:25:09Z</time>
      </trkpt>
      <trkpt lat="46.34566" lon="-1.15006">
        <ele>3.2</ele>
        <time>2020-06-02T15:25:10Z</time>
      </trkpt>
      <trkpt lat="46.34569" lon="-1.15013">
        <ele>3.2</ele>
        <time>2020-06-02T15:25:11Z</time>
      </trkpt>
      <trkpt lat="46.34572" lon="-1.15019">
        <ele>3.2</ele>
        <time>2020-06-02T15:25:12Z</time>
      </trkpt>
      <trkpt lat="46.34575" lon="-1.15025">
        <ele>3.2</ele>
        <time>2020-06-02T15:25:13Z</time>
      </trkpt>
      <trkpt lat="46.34578" lon="-1.15031">
        <ele>3.2</ele>
        <time>2020-06-02T15:25:14Z</time>
      </trkpt>
      <trkpt lat="46.34581" lon="-1.15038">
        <ele>3.2</ele>
        <time>2020-06-02T15:25:15Z</time>
      </trkpt>
      <trkpt lat="46.34584" lon="-1.15044">
        <ele>3.2</ele>
        <time>2020-06-02T15:25:16Z</time>
      </trkpt>
      <trkpt lat="46.34587" lon="-1.1505">
        <ele>3.2</ele>
        <time>2020-06-02T15:25:17Z</time>
      </trkpt>
      <trkpt lat="46.34591" lon="-1.15057">
        <ele>3.1</ele>
        <time>2020-06-02T15:25:18Z</time>
      </trkpt>
      <trkpt lat="46.34594" lon="-1.15063">
        <ele>3.1</ele>
        <time>2020-06-02T15:25:19Z</time>
      </trkpt>
      <trkpt lat="46.34599" lon="-1.15069">
        <ele>3.1</ele>
        <time>2020-06-02T15:25:20Z</time>
      </trkpt>
      <trkpt lat="46.34602" lon="-1.15074">
        <ele>3.1</ele>
        <time>2020-06-02T15:25:21Z</time>
      </trkpt>
      <trkpt lat="46.34606" lon="-1.15079">
        <ele>3.1</ele>
        <time>2020-06-02T15:25:22Z</time>
      </trkpt>
      <trkpt lat="46.3461" lon="-1.15084">
        <ele>3.1</ele>
        <time>2020-06-02T15:25:23Z</time>
      </trkpt>
      <trkpt lat="46.34614" lon="-1.15088">
        <ele>3</ele>
        <time>2020-06-02T15:25:24Z</time>
      </trkpt>
      <trkpt lat="46.34619" lon="-1.15092">
        <ele>3</ele>
        <time>2020-06-02T15:25:25Z</time>
      </trkpt>
      <trkpt lat="46.34626" lon="-1.15093">
        <ele>3</ele>
        <time>2020-06-02T15:25:26Z</time>
      </trkpt>
      <trkpt lat="46.34632" lon="-1.15093">
        <ele>3</ele>
        <time>2020-06-02T15:25:27Z</time>
      </trkpt>
      <trkpt lat="46.34637" lon="-1.15092">
        <ele>3</ele>
        <time>2020-06-02T15:25:28Z</time>
      </trkpt>
      <trkpt lat="46.34642" lon="-1.15092">
        <ele>3</ele>
        <time>2020-06-02T15:25:29Z</time>
      </trkpt>
      <trkpt lat="46.34649" lon="-1.1509">
        <ele>3</ele>
        <time>2020-06-02T15:25:30Z</time>
      </trkpt>
      <trkpt lat="46.34654" lon="-1.15089">
        <ele>3.1</ele>
        <time>2020-06-02T15:25:31Z</time>
      </trkpt>
      <trkpt lat="46.3466" lon="-1.15087">
        <ele>3.1</ele>
        <time>2020-06-02T15:25:32Z</time>
      </trkpt>
      <trkpt lat="46.34665" lon="-1.15086">
        <ele>3.1</ele>
        <time>2020-06-02T15:25:33Z</time>
      </trkpt>
      <trkpt lat="46.3467" lon="-1.15085">
        <ele>3.1</ele>
        <time>2020-06-02T15:25:34Z</time>
      </trkpt>
      <trkpt lat="46.34677" lon="-1.15082">
        <ele>3.1</ele>
        <time>2020-06-02T15:25:35Z</time>
      </trkpt>
      <trkpt lat="46.34683" lon="-1.1508">
        <ele>3.1</ele>
        <time>2020-06-02T15:25:36Z</time>
      </trkpt>
      <trkpt lat="46.34689" lon="-1.15078">
        <ele>3.1</ele>
        <time>2020-06-02T15:25:37Z</time>
      </trkpt>
      <trkpt lat="46.34695" lon="-1.15076">
        <ele>3.1</ele>
        <time>2020-06-02T15:25:38Z</time>
      </trkpt>
      <trkpt lat="46.34701" lon="-1.15074">
        <ele>3.2</ele>
        <time>2020-06-02T15:25:39Z</time>
      </trkpt>
      <trkpt lat="46.34706" lon="-1.15071">
        <ele>3.2</ele>
        <time>2020-06-02T15:25:40Z</time>
      </trkpt>
      <trkpt lat="46.34711" lon="-1.1507">
        <ele>3.2</ele>
        <time>2020-06-02T15:25:41Z</time>
      </trkpt>
      <trkpt lat="46.34716" lon="-1.15068">
        <ele>3.2</ele>
        <time>2020-06-02T15:25:42Z</time>
      </trkpt>
      <trkpt lat="46.34721" lon="-1.15067">
        <ele>3.2</ele>
        <time>2020-06-02T15:25:43Z</time>
      </trkpt>
      <trkpt lat="46.34726" lon="-1.15066">
        <ele>3.2</ele>
        <time>2020-06-02T15:25:44Z</time>
      </trkpt>
      <trkpt lat="46.34733" lon="-1.15063">
        <ele>3.2</ele>
        <time>2020-06-02T15:25:45Z</time>
      </trkpt>
      <trkpt lat="46.34738" lon="-1.15062">
        <ele>3.2</ele>
        <time>2020-06-02T15:25:46Z</time>
      </trkpt>
      <trkpt lat="46.34742" lon="-1.15062">
        <ele>3.2</ele>
        <time>2020-06-02T15:25:47Z</time>
      </trkpt>
      <trkpt lat="46.34747" lon="-1.15062">
        <ele>3.2</ele>
        <time>2020-06-02T15:25:48Z</time>
      </trkpt>
      <trkpt lat="46.34752" lon="-1.15061">
        <ele>3.2</ele>
        <time>2020-06-02T15:25:49Z</time>
      </trkpt>
      <trkpt lat="46.34758" lon="-1.15061">
        <ele>3.2</ele>
        <time>2020-06-02T15:25:50Z</time>
      </trkpt>
      <trkpt lat="46.34763" lon="-1.15062">
        <ele>3.2</ele>
        <time>2020-06-02T15:25:51Z</time>
      </trkpt>
      <trkpt lat="46.34768" lon="-1.15063">
        <ele>3.3</ele>
        <time>2020-06-02T15:25:52Z</time>
      </trkpt>
      <trkpt lat="46.34774" lon="-1.15064">
        <ele>3.3</ele>
        <time>2020-06-02T15:25:53Z</time>
      </trkpt>
      <trkpt lat="46.3478" lon="-1.15067">
        <ele>3.3</ele>
        <time>2020-06-02T15:25:54Z</time>
      </trkpt>
      <trkpt lat="46.34785" lon="-1.15068">
        <ele>3.3</ele>
        <time>2020-06-02T15:25:55Z</time>
      </trkpt>
      <trkpt lat="46.34791" lon="-1.1507">
        <ele>3.4</ele>
        <time>2020-06-02T15:25:56Z</time>
      </trkpt>
      <trkpt lat="46.34796" lon="-1.15074">
        <ele>3.4</ele>
        <time>2020-06-02T15:25:57Z</time>
      </trkpt>
      <trkpt lat="46.34801" lon="-1.15077">
        <ele>3.4</ele>
        <time>2020-06-02T15:25:58Z</time>
      </trkpt>
      <trkpt lat="46.34806" lon="-1.15081">
        <ele>3.4</ele>
        <time>2020-06-02T15:25:59Z</time>
      </trkpt>
      <trkpt lat="46.34811" lon="-1.15084">
        <ele>3.4</ele>
        <time>2020-06-02T15:26:00Z</time>
      </trkpt>
      <trkpt lat="46.34815" lon="-1.15088">
        <ele>3.4</ele>
        <time>2020-06-02T15:26:01Z</time>
      </trkpt>
      <trkpt lat="46.3482" lon="-1.15091">
        <ele>3.4</ele>
        <time>2020-06-02T15:26:02Z</time>
      </trkpt>
      <trkpt lat="46.34824" lon="-1.15095">
        <ele>3.4</ele>
        <time>2020-06-02T15:26:03Z</time>
      </trkpt>
      <trkpt lat="46.34829" lon="-1.15099">
        <ele>3.4</ele>
        <time>2020-06-02T15:26:04Z</time>
      </trkpt>
      <trkpt lat="46.34834" lon="-1.15102">
        <ele>3.4</ele>
        <time>2020-06-02T15:26:05Z</time>
      </trkpt>
      <trkpt lat="46.34839" lon="-1.15106">
        <ele>3.4</ele>
        <time>2020-06-02T15:26:06Z</time>
      </trkpt>
      <trkpt lat="46.34844" lon="-1.1511">
        <ele>3.4</ele>
        <time>2020-06-02T15:26:07Z</time>
      </trkpt>
      <trkpt lat="46.34848" lon="-1.15113">
        <ele>3.3</ele>
        <time>2020-06-02T15:26:08Z</time>
      </trkpt>
      <trkpt lat="46.34852" lon="-1.15116">
        <ele>3.3</ele>
        <time>2020-06-02T15:26:09Z</time>
      </trkpt>
      <trkpt lat="46.34857" lon="-1.15121">
        <ele>3.3</ele>
        <time>2020-06-02T15:26:10Z</time>
      </trkpt>
      <trkpt lat="46.34862" lon="-1.15125">
        <ele>3.3</ele>
        <time>2020-06-02T15:26:11Z</time>
      </trkpt>
      <trkpt lat="46.34866" lon="-1.15129">
        <ele>3.3</ele>
        <time>2020-06-02T15:26:13Z</time>
      </trkpt>
      <trkpt lat="46.34871" lon="-1.15133">
        <ele>3.3</ele>
        <time>2020-06-02T15:26:14Z</time>
      </trkpt>
      <trkpt lat="46.34876" lon="-1.15136">
        <ele>3.3</ele>
        <time>2020-06-02T15:26:15Z</time>
      </trkpt>
      <trkpt lat="46.34881" lon="-1.15139">
        <ele>3.3</ele>
        <time>2020-06-02T15:26:16Z</time>
      </trkpt>
      <trkpt lat="46.34886" lon="-1.15143">
        <ele>3.3</ele>
        <time>2020-06-02T15:26:17Z</time>
      </trkpt>
      <trkpt lat="46.34891" lon="-1.15146">
        <ele>3.4</ele>
        <time>2020-06-02T15:26:18Z</time>
      </trkpt>
      <trkpt lat="46.34895" lon="-1.15149">
        <ele>3.4</ele>
        <time>2020-06-02T15:26:19Z</time>
      </trkpt>
      <trkpt lat="46.34899" lon="-1.15153">
        <ele>3.4</ele>
        <time>2020-06-02T15:26:20Z</time>
      </trkpt>
      <trkpt lat="46.34904" lon="-1.15156">
        <ele>3.4</ele>
        <time>2020-06-02T15:26:21Z</time>
      </trkpt>
      <trkpt lat="46.34909" lon="-1.15159">
        <ele>3.4</ele>
        <time>2020-06-02T15:26:22Z</time>
      </trkpt>
      <trkpt lat="46.34913" lon="-1.15162">
        <ele>3.4</ele>
        <time>2020-06-02T15:26:23Z</time>
      </trkpt>
      <trkpt lat="46.34917" lon="-1.15166">
        <ele>3.4</ele>
        <time>2020-06-02T15:26:24Z</time>
      </trkpt>
      <trkpt lat="46.34921" lon="-1.15169">
        <ele>3.4</ele>
        <time>2020-06-02T15:26:25Z</time>
      </trkpt>
      <trkpt lat="46.34925" lon="-1.15173">
        <ele>3.3</ele>
        <time>2020-06-02T15:26:26Z</time>
      </trkpt>
      <trkpt lat="46.34929" lon="-1.15176">
        <ele>3.3</ele>
        <time>2020-06-02T15:26:27Z</time>
      </trkpt>
      <trkpt lat="46.34934" lon="-1.1518">
        <ele>3.3</ele>
        <time>2020-06-02T15:26:28Z</time>
      </trkpt>
      <trkpt lat="46.34939" lon="-1.15185">
        <ele>3.3</ele>
        <time>2020-06-02T15:26:29Z</time>
      </trkpt>
      <trkpt lat="46.34942" lon="-1.15189">
        <ele>3.4</ele>
        <time>2020-06-02T15:26:30Z</time>
      </trkpt>
      <trkpt lat="46.34946" lon="-1.15195">
        <ele>3.4</ele>
        <time>2020-06-02T15:26:31Z</time>
      </trkpt>
      <trkpt lat="46.34949" lon="-1.152">
        <ele>3.4</ele>
        <time>2020-06-02T15:26:32Z</time>
      </trkpt>
      <trkpt lat="46.34953" lon="-1.15207">
        <ele>3.4</ele>
        <time>2020-06-02T15:26:33Z</time>
      </trkpt>
      <trkpt lat="46.34957" lon="-1.15213">
        <ele>3.4</ele>
        <time>2020-06-02T15:26:34Z</time>
      </trkpt>
      <trkpt lat="46.3496" lon="-1.15219">
        <ele>3.4</ele>
        <time>2020-06-02T15:26:35Z</time>
      </trkpt>
      <trkpt lat="46.34964" lon="-1.15226">
        <ele>3.4</ele>
        <time>2020-06-02T15:26:36Z</time>
      </trkpt>
      <trkpt lat="46.34967" lon="-1.15231">
        <ele>3.4</ele>
        <time>2020-06-02T15:26:37Z</time>
      </trkpt>
      <trkpt lat="46.34972" lon="-1.15243">
        <ele>3.4</ele>
        <time>2020-06-02T15:26:38Z</time>
      </trkpt>
      <trkpt lat="46.34975" lon="-1.1525">
        <ele>3.4</ele>
        <time>2020-06-02T15:26:39Z</time>
      </trkpt>
      <trkpt lat="46.34978" lon="-1.15256">
        <ele>3.4</ele>
        <time>2020-06-02T15:26:40Z</time>
      </trkpt>
      <trkpt lat="46.34981" lon="-1.15263">
        <ele>3.4</ele>
        <time>2020-06-02T15:26:41Z</time>
      </trkpt>
      <trkpt lat="46.34983" lon="-1.15269">
        <ele>3.4</ele>
        <time>2020-06-02T15:26:42Z</time>
      </trkpt>
      <trkpt lat="46.34986" lon="-1.15274">
        <ele>3.4</ele>
        <time>2020-06-02T15:26:43Z</time>
      </trkpt>
      <trkpt lat="46.34989" lon="-1.1528">
        <ele>3.4</ele>
        <time>2020-06-02T15:26:44Z</time>
      </trkpt>
      <trkpt lat="46.34991" lon="-1.15285">
        <ele>3.4</ele>
        <time>2020-06-02T15:26:45Z</time>
      </trkpt>
      <trkpt lat="46.34994" lon="-1.15291">
        <ele>3.4</ele>
        <time>2020-06-02T15:26:46Z</time>
      </trkpt>
      <trkpt lat="46.34997" lon="-1.15297">
        <ele>3.4</ele>
        <time>2020-06-02T15:26:47Z</time>
      </trkpt>
      <trkpt lat="46.35001" lon="-1.15303">
        <ele>3.4</ele>
        <time>2020-06-02T15:26:48Z</time>
      </trkpt>
      <trkpt lat="46.35004" lon="-1.15309">
        <ele>3.4</ele>
        <time>2020-06-02T15:26:49Z</time>
      </trkpt>
      <trkpt lat="46.35007" lon="-1.15316">
        <ele>3.4</ele>
        <time>2020-06-02T15:26:50Z</time>
      </trkpt>
      <trkpt lat="46.35009" lon="-1.15324">
        <ele>3.4</ele>
        <time>2020-06-02T15:26:51Z</time>
      </trkpt>
      <trkpt lat="46.35012" lon="-1.15331">
        <ele>3.4</ele>
        <time>2020-06-02T15:26:52Z</time>
      </trkpt>
      <trkpt lat="46.35015" lon="-1.15337">
        <ele>3.4</ele>
        <time>2020-06-02T15:26:53Z</time>
      </trkpt>
      <trkpt lat="46.35018" lon="-1.15344">
        <ele>3.4</ele>
        <time>2020-06-02T15:26:54Z</time>
      </trkpt>
      <trkpt lat="46.35021" lon="-1.15351">
        <ele>3.4</ele>
        <time>2020-06-02T15:26:55Z</time>
      </trkpt>
      <trkpt lat="46.35024" lon="-1.15357">
        <ele>3.4</ele>
        <time>2020-06-02T15:26:56Z</time>
      </trkpt>
      <trkpt lat="46.35028" lon="-1.15365">
        <ele>3.4</ele>
        <time>2020-06-02T15:26:57Z</time>
      </trkpt>
      <trkpt lat="46.3503" lon="-1.15372">
        <ele>3.4</ele>
        <time>2020-06-02T15:26:58Z</time>
      </trkpt>
      <trkpt lat="46.35033" lon="-1.15378">
        <ele>3.4</ele>
        <time>2020-06-02T15:26:59Z</time>
      </trkpt>
      <trkpt lat="46.35036" lon="-1.15385">
        <ele>3.4</ele>
        <time>2020-06-02T15:27:00Z</time>
      </trkpt>
      <trkpt lat="46.35039" lon="-1.15391">
        <ele>3.4</ele>
        <time>2020-06-02T15:27:01Z</time>
      </trkpt>
      <trkpt lat="46.35042" lon="-1.15397">
        <ele>3.4</ele>
        <time>2020-06-02T15:27:02Z</time>
      </trkpt>
      <trkpt lat="46.35045" lon="-1.15403">
        <ele>3.4</ele>
        <time>2020-06-02T15:27:03Z</time>
      </trkpt>
      <trkpt lat="46.35048" lon="-1.15408">
        <ele>3.4</ele>
        <time>2020-06-02T15:27:04Z</time>
      </trkpt>
      <trkpt lat="46.35051" lon="-1.15415">
        <ele>3.4</ele>
        <time>2020-06-02T15:27:05Z</time>
      </trkpt>
      <trkpt lat="46.35053" lon="-1.15421">
        <ele>3.4</ele>
        <time>2020-06-02T15:27:06Z</time>
      </trkpt>
      <trkpt lat="46.35056" lon="-1.15427">
        <ele>3.4</ele>
        <time>2020-06-02T15:27:07Z</time>
      </trkpt>
      <trkpt lat="46.35059" lon="-1.15433">
        <ele>3.4</ele>
        <time>2020-06-02T15:27:08Z</time>
      </trkpt>
      <trkpt lat="46.35063" lon="-1.1544">
        <ele>3.4</ele>
        <time>2020-06-02T15:27:09Z</time>
      </trkpt>
      <trkpt lat="46.35066" lon="-1.15446">
        <ele>3.4</ele>
        <time>2020-06-02T15:27:10Z</time>
      </trkpt>
      <trkpt lat="46.3507" lon="-1.15453">
        <ele>3.4</ele>
        <time>2020-06-02T15:27:11Z</time>
      </trkpt>
      <trkpt lat="46.35073" lon="-1.15459">
        <ele>3.4</ele>
        <time>2020-06-02T15:27:12Z</time>
      </trkpt>
      <trkpt lat="46.35076" lon="-1.15465">
        <ele>3.4</ele>
        <time>2020-06-02T15:27:13Z</time>
      </trkpt>
      <trkpt lat="46.35079" lon="-1.15472">
        <ele>3.4</ele>
        <time>2020-06-02T15:27:14Z</time>
      </trkpt>
      <trkpt lat="46.35082" lon="-1.15479">
        <ele>3.4</ele>
        <time>2020-06-02T15:27:15Z</time>
      </trkpt>
      <trkpt lat="46.35085" lon="-1.15485">
        <ele>3.4</ele>
        <time>2020-06-02T15:27:16Z</time>
      </trkpt>
      <trkpt lat="46.35088" lon="-1.15491">
        <ele>3.4</ele>
        <time>2020-06-02T15:27:17Z</time>
      </trkpt>
      <trkpt lat="46.35091" lon="-1.15497">
        <ele>3.4</ele>
        <time>2020-06-02T15:27:18Z</time>
      </trkpt>
      <trkpt lat="46.35094" lon="-1.15503">
        <ele>3.4</ele>
        <time>2020-06-02T15:27:19Z</time>
      </trkpt>
      <trkpt lat="46.35096" lon="-1.1551">
        <ele>3.4</ele>
        <time>2020-06-02T15:27:20Z</time>
      </trkpt>
      <trkpt lat="46.351" lon="-1.15514">
        <ele>3.5</ele>
        <time>2020-06-02T15:27:21Z</time>
      </trkpt>
      <trkpt lat="46.35103" lon="-1.1552">
        <ele>3.5</ele>
        <time>2020-06-02T15:27:22Z</time>
      </trkpt>
      <trkpt lat="46.35106" lon="-1.15526">
        <ele>3.5</ele>
        <time>2020-06-02T15:27:23Z</time>
      </trkpt>
      <trkpt lat="46.35109" lon="-1.15532">
        <ele>3.5</ele>
        <time>2020-06-02T15:27:24Z</time>
      </trkpt>
      <trkpt lat="46.35112" lon="-1.15539">
        <ele>3.5</ele>
        <time>2020-06-02T15:27:25Z</time>
      </trkpt>
      <trkpt lat="46.35115" lon="-1.15546">
        <ele>3.5</ele>
        <time>2020-06-02T15:27:26Z</time>
      </trkpt>
      <trkpt lat="46.35118" lon="-1.15552">
        <ele>3.5</ele>
        <time>2020-06-02T15:27:27Z</time>
      </trkpt>
      <trkpt lat="46.35121" lon="-1.15559">
        <ele>3.5</ele>
        <time>2020-06-02T15:27:28Z</time>
      </trkpt>
      <trkpt lat="46.35124" lon="-1.15565">
        <ele>3.5</ele>
        <time>2020-06-02T15:27:29Z</time>
      </trkpt>
      <trkpt lat="46.35126" lon="-1.1557">
        <ele>3.6</ele>
        <time>2020-06-02T15:27:30Z</time>
      </trkpt>
      <trkpt lat="46.35129" lon="-1.15576">
        <ele>3.6</ele>
        <time>2020-06-02T15:27:31Z</time>
      </trkpt>
      <trkpt lat="46.35131" lon="-1.15582">
        <ele>3.6</ele>
        <time>2020-06-02T15:27:32Z</time>
      </trkpt>
      <trkpt lat="46.35134" lon="-1.15587">
        <ele>3.6</ele>
        <time>2020-06-02T15:27:33Z</time>
      </trkpt>
      <trkpt lat="46.35137" lon="-1.15592">
        <ele>3.6</ele>
        <time>2020-06-02T15:27:34Z</time>
      </trkpt>
      <trkpt lat="46.35139" lon="-1.15598">
        <ele>3.5</ele>
        <time>2020-06-02T15:27:35Z</time>
      </trkpt>
      <trkpt lat="46.35142" lon="-1.15604">
        <ele>3.5</ele>
        <time>2020-06-02T15:27:36Z</time>
      </trkpt>
      <trkpt lat="46.35144" lon="-1.15611">
        <ele>3.5</ele>
        <time>2020-06-02T15:27:37Z</time>
      </trkpt>
      <trkpt lat="46.35147" lon="-1.15617">
        <ele>3.5</ele>
        <time>2020-06-02T15:27:38Z</time>
      </trkpt>
      <trkpt lat="46.3515" lon="-1.15622">
        <ele>3.5</ele>
        <time>2020-06-02T15:27:39Z</time>
      </trkpt>
      <trkpt lat="46.35154" lon="-1.15629">
        <ele>3.5</ele>
        <time>2020-06-02T15:27:40Z</time>
      </trkpt>
      <trkpt lat="46.35157" lon="-1.15635">
        <ele>3.5</ele>
        <time>2020-06-02T15:27:41Z</time>
      </trkpt>
      <trkpt lat="46.3516" lon="-1.15641">
        <ele>3.5</ele>
        <time>2020-06-02T15:27:42Z</time>
      </trkpt>
      <trkpt lat="46.35162" lon="-1.15647">
        <ele>3.5</ele>
        <time>2020-06-02T15:27:43Z</time>
      </trkpt>
      <trkpt lat="46.35166" lon="-1.15653">
        <ele>3.5</ele>
        <time>2020-06-02T15:27:44Z</time>
      </trkpt>
      <trkpt lat="46.35169" lon="-1.15659">
        <ele>3.5</ele>
        <time>2020-06-02T15:27:45Z</time>
      </trkpt>
      <trkpt lat="46.35171" lon="-1.15665">
        <ele>3.5</ele>
        <time>2020-06-02T15:27:46Z</time>
      </trkpt>
      <trkpt lat="46.35174" lon="-1.15671">
        <ele>3.5</ele>
        <time>2020-06-02T15:27:47Z</time>
      </trkpt>
      <trkpt lat="46.35178" lon="-1.15677">
        <ele>3.5</ele>
        <time>2020-06-02T15:27:48Z</time>
      </trkpt>
      <trkpt lat="46.35181" lon="-1.15682">
        <ele>3.5</ele>
        <time>2020-06-02T15:27:49Z</time>
      </trkpt>
      <trkpt lat="46.35184" lon="-1.15688">
        <ele>3.5</ele>
        <time>2020-06-02T15:27:50Z</time>
      </trkpt>
      <trkpt lat="46.35187" lon="-1.15693">
        <ele>3.5</ele>
        <time>2020-06-02T15:27:51Z</time>
      </trkpt>
      <trkpt lat="46.35189" lon="-1.15699">
        <ele>3.5</ele>
        <time>2020-06-02T15:27:52Z</time>
      </trkpt>
      <trkpt lat="46.35191" lon="-1.15705">
        <ele>3.5</ele>
        <time>2020-06-02T15:27:53Z</time>
      </trkpt>
      <trkpt lat="46.35194" lon="-1.1571">
        <ele>3.5</ele>
        <time>2020-06-02T15:27:54Z</time>
      </trkpt>
      <trkpt lat="46.35196" lon="-1.15716">
        <ele>3.5</ele>
        <time>2020-06-02T15:27:55Z</time>
      </trkpt>
      <trkpt lat="46.35198" lon="-1.15722">
        <ele>3.5</ele>
        <time>2020-06-02T15:27:56Z</time>
      </trkpt>
      <trkpt lat="46.352" lon="-1.15727">
        <ele>3.5</ele>
        <time>2020-06-02T15:27:57Z</time>
      </trkpt>
      <trkpt lat="46.35203" lon="-1.15733">
        <ele>3.5</ele>
        <time>2020-06-02T15:27:58Z</time>
      </trkpt>
      <trkpt lat="46.35205" lon="-1.15738">
        <ele>3.5</ele>
        <time>2020-06-02T15:27:59Z</time>
      </trkpt>
      <trkpt lat="46.35208" lon="-1.15744">
        <ele>3.5</ele>
        <time>2020-06-02T15:28:00Z</time>
      </trkpt>
      <trkpt lat="46.35211" lon="-1.1575">
        <ele>3.4</ele>
        <time>2020-06-02T15:28:01Z</time>
      </trkpt>
      <trkpt lat="46.35214" lon="-1.15755">
        <ele>3.4</ele>
        <time>2020-06-02T15:28:02Z</time>
      </trkpt>
      <trkpt lat="46.35217" lon="-1.15761">
        <ele>3.4</ele>
        <time>2020-06-02T15:28:03Z</time>
      </trkpt>
      <trkpt lat="46.3522" lon="-1.15766">
        <ele>3.4</ele>
        <time>2020-06-02T15:28:04Z</time>
      </trkpt>
      <trkpt lat="46.35223" lon="-1.15771">
        <ele>3.4</ele>
        <time>2020-06-02T15:28:05Z</time>
      </trkpt>
      <trkpt lat="46.35226" lon="-1.15776">
        <ele>3.4</ele>
        <time>2020-06-02T15:28:06Z</time>
      </trkpt>
      <trkpt lat="46.35229" lon="-1.15782">
        <ele>3.4</ele>
        <time>2020-06-02T15:28:07Z</time>
      </trkpt>
      <trkpt lat="46.35231" lon="-1.15788">
        <ele>3.4</ele>
        <time>2020-06-02T15:28:08Z</time>
      </trkpt>
      <trkpt lat="46.35234" lon="-1.15794">
        <ele>3.4</ele>
        <time>2020-06-02T15:28:09Z</time>
      </trkpt>
      <trkpt lat="46.35237" lon="-1.15799">
        <ele>3.4</ele>
        <time>2020-06-02T15:28:10Z</time>
      </trkpt>
      <trkpt lat="46.3524" lon="-1.15805">
        <ele>3.4</ele>
        <time>2020-06-02T15:28:11Z</time>
      </trkpt>
      <trkpt lat="46.35243" lon="-1.15811">
        <ele>3.4</ele>
        <time>2020-06-02T15:28:12Z</time>
      </trkpt>
      <trkpt lat="46.35245" lon="-1.15818">
        <ele>3.3</ele>
        <time>2020-06-02T15:28:13Z</time>
      </trkpt>
      <trkpt lat="46.35248" lon="-1.15823">
        <ele>3.3</ele>
        <time>2020-06-02T15:28:14Z</time>
      </trkpt>
      <trkpt lat="46.3525" lon="-1.15828">
        <ele>3.4</ele>
        <time>2020-06-02T15:28:15Z</time>
      </trkpt>
      <trkpt lat="46.35253" lon="-1.15833">
        <ele>3.4</ele>
        <time>2020-06-02T15:28:16Z</time>
      </trkpt>
      <trkpt lat="46.35255" lon="-1.15838">
        <ele>3.4</ele>
        <time>2020-06-02T15:28:17Z</time>
      </trkpt>
      <trkpt lat="46.35258" lon="-1.15843">
        <ele>3.4</ele>
        <time>2020-06-02T15:28:18Z</time>
      </trkpt>
      <trkpt lat="46.35261" lon="-1.15849">
        <ele>3.4</ele>
        <time>2020-06-02T15:28:19Z</time>
      </trkpt>
      <trkpt lat="46.35263" lon="-1.15855">
        <ele>3.4</ele>
        <time>2020-06-02T15:28:20Z</time>
      </trkpt>
      <trkpt lat="46.35266" lon="-1.15862">
        <ele>3.4</ele>
        <time>2020-06-02T15:28:21Z</time>
      </trkpt>
      <trkpt lat="46.35269" lon="-1.15868">
        <ele>3.4</ele>
        <time>2020-06-02T15:28:22Z</time>
      </trkpt>
      <trkpt lat="46.35271" lon="-1.15873">
        <ele>3.4</ele>
        <time>2020-06-02T15:28:23Z</time>
      </trkpt>
      <trkpt lat="46.35274" lon="-1.15879">
        <ele>3.4</ele>
        <time>2020-06-02T15:28:24Z</time>
      </trkpt>
      <trkpt lat="46.35277" lon="-1.15885">
        <ele>3.4</ele>
        <time>2020-06-02T15:28:25Z</time>
      </trkpt>
      <trkpt lat="46.3528" lon="-1.15892">
        <ele>3.4</ele>
        <time>2020-06-02T15:28:26Z</time>
      </trkpt>
      <trkpt lat="46.35283" lon="-1.15898">
        <ele>3.4</ele>
        <time>2020-06-02T15:28:27Z</time>
      </trkpt>
      <trkpt lat="46.35286" lon="-1.15904">
        <ele>3.5</ele>
        <time>2020-06-02T15:28:28Z</time>
      </trkpt>
      <trkpt lat="46.35289" lon="-1.1591">
        <ele>3.5</ele>
        <time>2020-06-02T15:28:29Z</time>
      </trkpt>
      <trkpt lat="46.35292" lon="-1.15916">
        <ele>3.5</ele>
        <time>2020-06-02T15:28:30Z</time>
      </trkpt>
      <trkpt lat="46.35295" lon="-1.15922">
        <ele>3.5</ele>
        <time>2020-06-02T15:28:31Z</time>
      </trkpt>
      <trkpt lat="46.35298" lon="-1.15927">
        <ele>3.5</ele>
        <time>2020-06-02T15:28:32Z</time>
      </trkpt>
      <trkpt lat="46.35302" lon="-1.15932">
        <ele>3.5</ele>
        <time>2020-06-02T15:28:33Z</time>
      </trkpt>
      <trkpt lat="46.35305" lon="-1.15938">
        <ele>3.5</ele>
        <time>2020-06-02T15:28:34Z</time>
      </trkpt>
      <trkpt lat="46.35308" lon="-1.15944">
        <ele>3.5</ele>
        <time>2020-06-02T15:28:35Z</time>
      </trkpt>
      <trkpt lat="46.35311" lon="-1.1595">
        <ele>3.6</ele>
        <time>2020-06-02T15:28:36Z</time>
      </trkpt>
      <trkpt lat="46.35314" lon="-1.15955">
        <ele>3.6</ele>
        <time>2020-06-02T15:28:37Z</time>
      </trkpt>
      <trkpt lat="46.35317" lon="-1.15962">
        <ele>3.6</ele>
        <time>2020-06-02T15:28:38Z</time>
      </trkpt>
      <trkpt lat="46.35319" lon="-1.15968">
        <ele>3.6</ele>
        <time>2020-06-02T15:28:39Z</time>
      </trkpt>
      <trkpt lat="46.35322" lon="-1.15974">
        <ele>3.6</ele>
        <time>2020-06-02T15:28:40Z</time>
      </trkpt>
      <trkpt lat="46.35325" lon="-1.15979">
        <ele>3.6</ele>
        <time>2020-06-02T15:28:41Z</time>
      </trkpt>
      <trkpt lat="46.35328" lon="-1.15985">
        <ele>3.6</ele>
        <time>2020-06-02T15:28:42Z</time>
      </trkpt>
      <trkpt lat="46.3533" lon="-1.15991">
        <ele>3.6</ele>
        <time>2020-06-02T15:28:43Z</time>
      </trkpt>
      <trkpt lat="46.35333" lon="-1.15996">
        <ele>3.6</ele>
        <time>2020-06-02T15:28:44Z</time>
      </trkpt>
      <trkpt lat="46.35335" lon="-1.16001">
        <ele>3.6</ele>
        <time>2020-06-02T15:28:45Z</time>
      </trkpt>
      <trkpt lat="46.35337" lon="-1.16005">
        <ele>3.6</ele>
        <time>2020-06-02T15:28:46Z</time>
      </trkpt>
      <trkpt lat="46.35339" lon="-1.16011">
        <ele>3.6</ele>
        <time>2020-06-02T15:28:47Z</time>
      </trkpt>
      <trkpt lat="46.35341" lon="-1.16015">
        <ele>3.6</ele>
        <time>2020-06-02T15:28:48Z</time>
      </trkpt>
      <trkpt lat="46.35343" lon="-1.16018">
        <ele>3.6</ele>
        <time>2020-06-02T15:28:49Z</time>
      </trkpt>
      <trkpt lat="46.35344" lon="-1.16023">
        <ele>3.7</ele>
        <time>2020-06-02T15:28:50Z</time>
      </trkpt>
      <trkpt lat="46.35345" lon="-1.16025">
        <ele>3.7</ele>
        <time>2020-06-02T15:28:51Z</time>
      </trkpt>
      <trkpt lat="46.35345" lon="-1.16026">
        <ele>3.7</ele>
        <time>2020-06-02T15:28:52Z</time>
      </trkpt>
      <trkpt lat="46.35345" lon="-1.16027">
        <ele>3.7</ele>
        <time>2020-06-02T15:28:53Z</time>
      </trkpt>
      <trkpt lat="46.35345" lon="-1.16027">
        <ele>3.7</ele>
        <time>2020-06-02T15:28:54Z</time>
      </trkpt>
      <trkpt lat="46.35346" lon="-1.16027">
        <ele>3.7</ele>
        <time>2020-06-02T15:28:55Z</time>
      </trkpt>
      <trkpt lat="46.35346" lon="-1.16027">
        <ele>3.7</ele>
        <time>2020-06-02T15:28:56Z</time>
      </trkpt>
      <trkpt lat="46.35346" lon="-1.16027">
        <ele>3.7</ele>
        <time>2020-06-02T15:28:57Z</time>
      </trkpt>
      <trkpt lat="46.35346" lon="-1.16027">
        <ele>3.7</ele>
        <time>2020-06-02T15:28:58Z</time>
      </trkpt>
      <trkpt lat="46.35346" lon="-1.16027">
        <ele>3.7</ele>
        <time>2020-06-02T15:28:59Z</time>
      </trkpt>
      <trkpt lat="46.35346" lon="-1.16027">
        <ele>3.7</ele>
        <time>2020-06-02T15:29:00Z</time>
      </trkpt>
      <trkpt lat="46.35346" lon="-1.16027">
        <ele>3.7</ele>
        <time>2020-06-02T15:29:01Z</time>
      </trkpt>
      <trkpt lat="46.35346" lon="-1.16027">
        <ele>3.7</ele>
        <time>2020-06-02T15:29:02Z</time>
      </trkpt>
      <trkpt lat="46.35346" lon="-1.16027">
        <ele>3.7</ele>
        <time>2020-06-02T15:29:03Z</time>
      </trkpt>
      <trkpt lat="46.35346" lon="-1.16027">
        <ele>3.7</ele>
        <time>2020-06-02T15:29:04Z</time>
      </trkpt>
      <trkpt lat="46.35346" lon="-1.16027">
        <ele>3.7</ele>
        <time>2020-06-02T15:29:05Z</time>
      </trkpt>
      <trkpt lat="46.35346" lon="-1.16027">
        <ele>3.7</ele>
        <time>2020-06-02T15:29:06Z</time>
      </trkpt>
      <trkpt lat="46.35346" lon="-1.16027">
        <ele>3.7</ele>
        <time>2020-06-02T15:29:07Z</time>
      </trkpt>
      <trkpt lat="46.35346" lon="-1.16027">
        <ele>3.7</ele>
        <time>2020-06-02T15:29:08Z</time>
      </trkpt>
      <trkpt lat="46.35346" lon="-1.16027">
        <ele>3.7</ele>
        <time>2020-06-02T15:29:09Z</time>
      </trkpt>
      <trkpt lat="46.35346" lon="-1.16027">
        <ele>3.7</ele>
        <time>2020-06-02T15:29:10Z</time>
      </trkpt>
      <trkpt lat="46.35346" lon="-1.16027">
        <ele>3.7</ele>
        <time>2020-06-02T15:29:11Z</time>
      </trkpt>
      <trkpt lat="46.35346" lon="-1.16027">
        <ele>3.7</ele>
        <time>2020-06-02T15:29:12Z</time>
      </trkpt>
      <trkpt lat="46.35346" lon="-1.16027">
        <ele>3.7</ele>
        <time>2020-06-02T15:29:13Z</time>
      </trkpt>
      <trkpt lat="46.35346" lon="-1.16027">
        <ele>3.7</ele>
        <time>2020-06-02T15:29:14Z</time>
      </trkpt>
      <trkpt lat="46.35346" lon="-1.16027">
        <ele>3.7</ele>
        <time>2020-06-02T15:29:15Z</time>
      </trkpt>
      <trkpt lat="46.35346" lon="-1.16027">
        <ele>3.7</ele>
        <time>2020-06-02T15:29:16Z</time>
      </trkpt>
      <trkpt lat="46.35346" lon="-1.16027">
        <ele>3.7</ele>
        <time>2020-06-02T15:29:17Z</time>
      </trkpt>
      <trkpt lat="46.35346" lon="-1.16027">
        <ele>3.7</ele>
        <time>2020-06-02T15:29:18Z</time>
      </trkpt>
      <trkpt lat="46.35346" lon="-1.16027">
        <ele>3.7</ele>
        <time>2020-06-02T15:29:19Z</time>
      </trkpt>
      <trkpt lat="46.35346" lon="-1.16027">
        <ele>3.7</ele>
        <time>2020-06-02T15:29:20Z</time>
      </trkpt>
      <trkpt lat="46.35346" lon="-1.16028">
        <ele>3.7</ele>
        <time>2020-06-02T15:29:21Z</time>
      </trkpt>
      <trkpt lat="46.35347" lon="-1.16028">
        <ele>3.7</ele>
        <time>2020-06-02T15:29:22Z</time>
      </trkpt>
      <trkpt lat="46.35347" lon="-1.16028">
        <ele>3.7</ele>
        <time>2020-06-02T15:29:23Z</time>
      </trkpt>
      <trkpt lat="46.35347" lon="-1.16028">
        <ele>3.7</ele>
        <time>2020-06-02T15:29:24Z</time>
      </trkpt>
      <trkpt lat="46.35347" lon="-1.16028">
        <ele>3.7</ele>
        <time>2020-06-02T15:29:25Z</time>
      </trkpt>
      <trkpt lat="46.35347" lon="-1.16028">
        <ele>3.7</ele>
        <time>2020-06-02T15:29:26Z</time>
      </trkpt>
      <trkpt lat="46.35347" lon="-1.16028">
        <ele>3.7</ele>
        <time>2020-06-02T15:29:27Z</time>
      </trkpt>
      <trkpt lat="46.35347" lon="-1.16028">
        <ele>3.7</ele>
        <time>2020-06-02T15:29:28Z</time>
      </trkpt>
      <trkpt lat="46.35347" lon="-1.16028">
        <ele>3.7</ele>
        <time>2020-06-02T15:29:29Z</time>
      </trkpt>
      <trkpt lat="46.35347" lon="-1.16028">
        <ele>3.7</ele>
        <time>2020-06-02T15:29:30Z</time>
      </trkpt>
      <trkpt lat="46.35347" lon="-1.16028">
        <ele>3.7</ele>
        <time>2020-06-02T15:29:31Z</time>
      </trkpt>
      <trkpt lat="46.35347" lon="-1.16028">
        <ele>3.7</ele>
        <time>2020-06-02T15:29:32Z</time>
      </trkpt>
      <trkpt lat="46.35347" lon="-1.16028">
        <ele>3.7</ele>
        <time>2020-06-02T15:29:33Z</time>
      </trkpt>
      <trkpt lat="46.35347" lon="-1.16028">
        <ele>3.7</ele>
        <time>2020-06-02T15:29:34Z</time>
      </trkpt>
      <trkpt lat="46.35347" lon="-1.16028">
        <ele>3.7</ele>
        <time>2020-06-02T15:29:35Z</time>
      </trkpt>
      <trkpt lat="46.35347" lon="-1.16028">
        <ele>3.7</ele>
        <time>2020-06-02T15:29:36Z</time>
      </trkpt>
      <trkpt lat="46.35347" lon="-1.16028">
        <ele>3.7</ele>
        <time>2020-06-02T15:29:37Z</time>
      </trkpt>
      <trkpt lat="46.35347" lon="-1.16028">
        <ele>3.7</ele>
        <time>2020-06-02T15:29:38Z</time>
      </trkpt>
      <trkpt lat="46.35347" lon="-1.16028">
        <ele>3.7</ele>
        <time>2020-06-02T15:29:39Z</time>
      </trkpt>
      <trkpt lat="46.35347" lon="-1.16028">
        <ele>3.7</ele>
        <time>2020-06-02T15:29:40Z</time>
      </trkpt>
      <trkpt lat="46.35347" lon="-1.16028">
        <ele>3.7</ele>
        <time>2020-06-02T15:29:41Z</time>
      </trkpt>
      <trkpt lat="46.35347" lon="-1.16028">
        <ele>3.7</ele>
        <time>2020-06-02T15:29:42Z</time>
      </trkpt>
      <trkpt lat="46.35347" lon="-1.16028">
        <ele>3.7</ele>
        <time>2020-06-02T15:29:43Z</time>
      </trkpt>
      <trkpt lat="46.35347" lon="-1.16028">
        <ele>3.7</ele>
        <time>2020-06-02T15:29:44Z</time>
      </trkpt>
      <trkpt lat="46.35349" lon="-1.16032">
        <ele>3.7</ele>
        <time>2020-06-02T15:29:45Z</time>
      </trkpt>
      <trkpt lat="46.3535" lon="-1.16033">
        <ele>3.7</ele>
        <time>2020-06-02T15:29:46Z</time>
      </trkpt>
      <trkpt lat="46.35351" lon="-1.16037">
        <ele>3.7</ele>
        <time>2020-06-02T15:29:47Z</time>
      </trkpt>
      <trkpt lat="46.35353" lon="-1.16041">
        <ele>3.7</ele>
        <time>2020-06-02T15:29:48Z</time>
      </trkpt>
      <trkpt lat="46.35356" lon="-1.16046">
        <ele>3.7</ele>
        <time>2020-06-02T15:29:49Z</time>
      </trkpt>
      <trkpt lat="46.35358" lon="-1.1605">
        <ele>3.7</ele>
        <time>2020-06-02T15:29:50Z</time>
      </trkpt>
      <trkpt lat="46.3536" lon="-1.16055">
        <ele>3.7</ele>
        <time>2020-06-02T15:29:51Z</time>
      </trkpt>
      <trkpt lat="46.35363" lon="-1.1606">
        <ele>3.7</ele>
        <time>2020-06-02T15:29:52Z</time>
      </trkpt>
      <trkpt lat="46.35365" lon="-1.16065">
        <ele>3.7</ele>
        <time>2020-06-02T15:29:53Z</time>
      </trkpt>
      <trkpt lat="46.35367" lon="-1.1607">
        <ele>3.7</ele>
        <time>2020-06-02T15:29:54Z</time>
      </trkpt>
      <trkpt lat="46.3537" lon="-1.16075">
        <ele>3.7</ele>
        <time>2020-06-02T15:29:55Z</time>
      </trkpt>
      <trkpt lat="46.35373" lon="-1.16081">
        <ele>3.7</ele>
        <time>2020-06-02T15:29:56Z</time>
      </trkpt>
      <trkpt lat="46.35375" lon="-1.16087">
        <ele>3.7</ele>
        <time>2020-06-02T15:29:57Z</time>
      </trkpt>
      <trkpt lat="46.35378" lon="-1.16093">
        <ele>3.7</ele>
        <time>2020-06-02T15:29:58Z</time>
      </trkpt>
      <trkpt lat="46.3538" lon="-1.16099">
        <ele>3.7</ele>
        <time>2020-06-02T15:29:59Z</time>
      </trkpt>
      <trkpt lat="46.35383" lon="-1.16104">
        <ele>3.7</ele>
        <time>2020-06-02T15:30:00Z</time>
      </trkpt>
      <trkpt lat="46.35386" lon="-1.1611">
        <ele>3.7</ele>
        <time>2020-06-02T15:30:01Z</time>
      </trkpt>
      <trkpt lat="46.35389" lon="-1.16116">
        <ele>3.7</ele>
        <time>2020-06-02T15:30:02Z</time>
      </trkpt>
      <trkpt lat="46.35391" lon="-1.16121">
        <ele>3.7</ele>
        <time>2020-06-02T15:30:03Z</time>
      </trkpt>
      <trkpt lat="46.35394" lon="-1.16127">
        <ele>3.7</ele>
        <time>2020-06-02T15:30:04Z</time>
      </trkpt>
      <trkpt lat="46.35396" lon="-1.16132">
        <ele>3.7</ele>
        <time>2020-06-02T15:30:05Z</time>
      </trkpt>
      <trkpt lat="46.35399" lon="-1.16138">
        <ele>3.7</ele>
        <time>2020-06-02T15:30:06Z</time>
      </trkpt>
      <trkpt lat="46.35401" lon="-1.16143">
        <ele>3.7</ele>
        <time>2020-06-02T15:30:07Z</time>
      </trkpt>
      <trkpt lat="46.35403" lon="-1.16149">
        <ele>3.7</ele>
        <time>2020-06-02T15:30:08Z</time>
      </trkpt>
      <trkpt lat="46.35406" lon="-1.16155">
        <ele>3.7</ele>
        <time>2020-06-02T15:30:09Z</time>
      </trkpt>
      <trkpt lat="46.35409" lon="-1.1616">
        <ele>3.7</ele>
        <time>2020-06-02T15:30:10Z</time>
      </trkpt>
      <trkpt lat="46.35411" lon="-1.16166">
        <ele>3.7</ele>
        <time>2020-06-02T15:30:11Z</time>
      </trkpt>
      <trkpt lat="46.35414" lon="-1.16171">
        <ele>3.7</ele>
        <time>2020-06-02T15:30:12Z</time>
      </trkpt>
      <trkpt lat="46.35417" lon="-1.16177">
        <ele>3.7</ele>
        <time>2020-06-02T15:30:13Z</time>
      </trkpt>
      <trkpt lat="46.35419" lon="-1.16183">
        <ele>3.7</ele>
        <time>2020-06-02T15:30:14Z</time>
      </trkpt>
      <trkpt lat="46.35421" lon="-1.16188">
        <ele>3.7</ele>
        <time>2020-06-02T15:30:15Z</time>
      </trkpt>
      <trkpt lat="46.35424" lon="-1.16194">
        <ele>3.7</ele>
        <time>2020-06-02T15:30:16Z</time>
      </trkpt>
      <trkpt lat="46.35426" lon="-1.16199">
        <ele>3.7</ele>
        <time>2020-06-02T15:30:17Z</time>
      </trkpt>
      <trkpt lat="46.35428" lon="-1.16203">
        <ele>3.7</ele>
        <time>2020-06-02T15:30:18Z</time>
      </trkpt>
      <trkpt lat="46.35429" lon="-1.16207">
        <ele>3.8</ele>
        <time>2020-06-02T15:30:19Z</time>
      </trkpt>
      <trkpt lat="46.3543" lon="-1.1621">
        <ele>3.8</ele>
        <time>2020-06-02T15:30:20Z</time>
      </trkpt>
      <trkpt lat="46.35432" lon="-1.16214">
        <ele>3.8</ele>
        <time>2020-06-02T15:30:21Z</time>
      </trkpt>
      <trkpt lat="46.35432" lon="-1.16216">
        <ele>3.8</ele>
        <time>2020-06-02T15:30:22Z</time>
      </trkpt>
      <trkpt lat="46.35435" lon="-1.16219">
        <ele>3.8</ele>
        <time>2020-06-02T15:30:23Z</time>
      </trkpt>
      <trkpt lat="46.35436" lon="-1.16219">
        <ele>3.8</ele>
        <time>2020-06-02T15:30:24Z</time>
      </trkpt>
      <trkpt lat="46.35439" lon="-1.16222">
        <ele>3.8</ele>
        <time>2020-06-02T15:30:25Z</time>
      </trkpt>
      <trkpt lat="46.3544" lon="-1.16224">
        <ele>3.8</ele>
        <time>2020-06-02T15:30:26Z</time>
      </trkpt>
      <trkpt lat="46.35442" lon="-1.16228">
        <ele>3.8</ele>
        <time>2020-06-02T15:30:27Z</time>
      </trkpt>
      <trkpt lat="46.35443" lon="-1.16229">
        <ele>3.8</ele>
        <time>2020-06-02T15:30:28Z</time>
      </trkpt>
      <trkpt lat="46.35444" lon="-1.16234">
        <ele>3.8</ele>
        <time>2020-06-02T15:30:29Z</time>
      </trkpt>
      <trkpt lat="46.35444" lon="-1.16235">
        <ele>3.8</ele>
        <time>2020-06-02T15:30:30Z</time>
      </trkpt>
      <trkpt lat="46.35446" lon="-1.16239">
        <ele>3.8</ele>
        <time>2020-06-02T15:30:31Z</time>
      </trkpt>
      <trkpt lat="46.35447" lon="-1.16241">
        <ele>3.8</ele>
        <time>2020-06-02T15:30:32Z</time>
      </trkpt>
      <trkpt lat="46.35448" lon="-1.16244">
        <ele>3.8</ele>
        <time>2020-06-02T15:30:33Z</time>
      </trkpt>
      <trkpt lat="46.3545" lon="-1.16249">
        <ele>3.8</ele>
        <time>2020-06-02T15:30:34Z</time>
      </trkpt>
      <trkpt lat="46.35452" lon="-1.16253">
        <ele>3.8</ele>
        <time>2020-06-02T15:30:35Z</time>
      </trkpt>
      <trkpt lat="46.35454" lon="-1.16258">
        <ele>3.8</ele>
        <time>2020-06-02T15:30:36Z</time>
      </trkpt>
      <trkpt lat="46.35455" lon="-1.16263">
        <ele>3.8</ele>
        <time>2020-06-02T15:30:37Z</time>
      </trkpt>
      <trkpt lat="46.35457" lon="-1.16269">
        <ele>3.8</ele>
        <time>2020-06-02T15:30:38Z</time>
      </trkpt>
      <trkpt lat="46.35458" lon="-1.16275">
        <ele>3.8</ele>
        <time>2020-06-02T15:30:39Z</time>
      </trkpt>
      <trkpt lat="46.35459" lon="-1.16281">
        <ele>3.8</ele>
        <time>2020-06-02T15:30:40Z</time>
      </trkpt>
      <trkpt lat="46.3546" lon="-1.1629">
        <ele>3.8</ele>
        <time>2020-06-02T15:30:41Z</time>
      </trkpt>
      <trkpt lat="46.35461" lon="-1.16298">
        <ele>3.8</ele>
        <time>2020-06-02T15:30:42Z</time>
      </trkpt>
      <trkpt lat="46.35462" lon="-1.16304">
        <ele>3.8</ele>
        <time>2020-06-02T15:30:43Z</time>
      </trkpt>
      <trkpt lat="46.35462" lon="-1.16312">
        <ele>3.8</ele>
        <time>2020-06-02T15:30:44Z</time>
      </trkpt>
      <trkpt lat="46.35463" lon="-1.16319">
        <ele>3.8</ele>
        <time>2020-06-02T15:30:45Z</time>
      </trkpt>
      <trkpt lat="46.35464" lon="-1.16327">
        <ele>3.8</ele>
        <time>2020-06-02T15:30:46Z</time>
      </trkpt>
      <trkpt lat="46.35465" lon="-1.16335">
        <ele>3.8</ele>
        <time>2020-06-02T15:30:47Z</time>
      </trkpt>
      <trkpt lat="46.35466" lon="-1.16343">
        <ele>3.7</ele>
        <time>2020-06-02T15:30:48Z</time>
      </trkpt>
      <trkpt lat="46.35467" lon="-1.16351">
        <ele>3.7</ele>
        <time>2020-06-02T15:30:49Z</time>
      </trkpt>
      <trkpt lat="46.35468" lon="-1.1636">
        <ele>3.7</ele>
        <time>2020-06-02T15:30:50Z</time>
      </trkpt>
      <trkpt lat="46.3547" lon="-1.16368">
        <ele>3.7</ele>
        <time>2020-06-02T15:30:51Z</time>
      </trkpt>
      <trkpt lat="46.35471" lon="-1.16377">
        <ele>3.7</ele>
        <time>2020-06-02T15:30:52Z</time>
      </trkpt>
      <trkpt lat="46.35472" lon="-1.16386">
        <ele>3.7</ele>
        <time>2020-06-02T15:30:53Z</time>
      </trkpt>
      <trkpt lat="46.35473" lon="-1.16394">
        <ele>3.7</ele>
        <time>2020-06-02T15:30:54Z</time>
      </trkpt>
      <trkpt lat="46.35473" lon="-1.16403">
        <ele>3.7</ele>
        <time>2020-06-02T15:30:55Z</time>
      </trkpt>
      <trkpt lat="46.35474" lon="-1.16412">
        <ele>3.7</ele>
        <time>2020-06-02T15:30:56Z</time>
      </trkpt>
      <trkpt lat="46.35474" lon="-1.1642">
        <ele>3.7</ele>
        <time>2020-06-02T15:30:57Z</time>
      </trkpt>
      <trkpt lat="46.35474" lon="-1.16428">
        <ele>3.8</ele>
        <time>2020-06-02T15:30:58Z</time>
      </trkpt>
      <trkpt lat="46.35474" lon="-1.16436">
        <ele>3.8</ele>
        <time>2020-06-02T15:30:59Z</time>
      </trkpt>
      <trkpt lat="46.35475" lon="-1.16445">
        <ele>3.8</ele>
        <time>2020-06-02T15:31:00Z</time>
      </trkpt>
      <trkpt lat="46.35476" lon="-1.16453">
        <ele>3.8</ele>
        <time>2020-06-02T15:31:01Z</time>
      </trkpt>
      <trkpt lat="46.35478" lon="-1.1646">
        <ele>3.8</ele>
        <time>2020-06-02T15:31:02Z</time>
      </trkpt>
      <trkpt lat="46.3548" lon="-1.16467">
        <ele>3.8</ele>
        <time>2020-06-02T15:31:03Z</time>
      </trkpt>
      <trkpt lat="46.35483" lon="-1.16474">
        <ele>3.8</ele>
        <time>2020-06-02T15:31:04Z</time>
      </trkpt>
      <trkpt lat="46.35485" lon="-1.16482">
        <ele>3.8</ele>
        <time>2020-06-02T15:31:05Z</time>
      </trkpt>
      <trkpt lat="46.35487" lon="-1.16489">
        <ele>3.8</ele>
        <time>2020-06-02T15:31:06Z</time>
      </trkpt>
      <trkpt lat="46.35489" lon="-1.16496">
        <ele>3.8</ele>
        <time>2020-06-02T15:31:07Z</time>
      </trkpt>
      <trkpt lat="46.3549" lon="-1.16504">
        <ele>3.8</ele>
        <time>2020-06-02T15:31:08Z</time>
      </trkpt>
      <trkpt lat="46.35493" lon="-1.16511">
        <ele>3.8</ele>
        <time>2020-06-02T15:31:09Z</time>
      </trkpt>
      <trkpt lat="46.35495" lon="-1.16519">
        <ele>3.8</ele>
        <time>2020-06-02T15:31:10Z</time>
      </trkpt>
      <trkpt lat="46.35498" lon="-1.16527">
        <ele>3.8</ele>
        <time>2020-06-02T15:31:11Z</time>
      </trkpt>
      <trkpt lat="46.355" lon="-1.16534">
        <ele>3.8</ele>
        <time>2020-06-02T15:31:12Z</time>
      </trkpt>
      <trkpt lat="46.35503" lon="-1.16541">
        <ele>3.8</ele>
        <time>2020-06-02T15:31:13Z</time>
      </trkpt>
      <trkpt lat="46.35505" lon="-1.16548">
        <ele>3.8</ele>
        <time>2020-06-02T15:31:14Z</time>
      </trkpt>
      <trkpt lat="46.35508" lon="-1.16554">
        <ele>3.8</ele>
        <time>2020-06-02T15:31:15Z</time>
      </trkpt>
      <trkpt lat="46.3551" lon="-1.1656">
        <ele>3.8</ele>
        <time>2020-06-02T15:31:16Z</time>
      </trkpt>
      <trkpt lat="46.35514" lon="-1.16565">
        <ele>3.8</ele>
        <time>2020-06-02T15:31:17Z</time>
      </trkpt>
      <trkpt lat="46.35518" lon="-1.16568">
        <ele>3.8</ele>
        <time>2020-06-02T15:31:18Z</time>
      </trkpt>
      <trkpt lat="46.35524" lon="-1.16568">
        <ele>3.8</ele>
        <time>2020-06-02T15:31:19Z</time>
      </trkpt>
      <trkpt lat="46.3553" lon="-1.16567">
        <ele>3.8</ele>
        <time>2020-06-02T15:31:20Z</time>
      </trkpt>
      <trkpt lat="46.35535" lon="-1.16567">
        <ele>3.8</ele>
        <time>2020-06-02T15:31:21Z</time>
      </trkpt>
      <trkpt lat="46.3554" lon="-1.16567">
        <ele>3.8</ele>
        <time>2020-06-02T15:31:22Z</time>
      </trkpt>
      <trkpt lat="46.35546" lon="-1.16567">
        <ele>3.8</ele>
        <time>2020-06-02T15:31:23Z</time>
      </trkpt>
      <trkpt lat="46.35551" lon="-1.16568">
        <ele>3.8</ele>
        <time>2020-06-02T15:31:24Z</time>
      </trkpt>
      <trkpt lat="46.35556" lon="-1.16569">
        <ele>3.8</ele>
        <time>2020-06-02T15:31:25Z</time>
      </trkpt>
      <trkpt lat="46.35561" lon="-1.16571">
        <ele>3.7</ele>
        <time>2020-06-02T15:31:26Z</time>
      </trkpt>
      <trkpt lat="46.35564" lon="-1.16573">
        <ele>3.7</ele>
        <time>2020-06-02T15:31:27Z</time>
      </trkpt>
      <trkpt lat="46.35567" lon="-1.16575">
        <ele>3.7</ele>
        <time>2020-06-02T15:31:28Z</time>
      </trkpt>
      <trkpt lat="46.3557" lon="-1.16577">
        <ele>3.7</ele>
        <time>2020-06-02T15:31:29Z</time>
      </trkpt>
      <trkpt lat="46.35572" lon="-1.16577">
        <ele>3.7</ele>
        <time>2020-06-02T15:31:30Z</time>
      </trkpt>
      <trkpt lat="46.35575" lon="-1.16577">
        <ele>3.7</ele>
        <time>2020-06-02T15:31:31Z</time>
      </trkpt>
      <trkpt lat="46.35577" lon="-1.16581">
        <ele>3.7</ele>
        <time>2020-06-02T15:31:32Z</time>
      </trkpt>
      <trkpt lat="46.35578" lon="-1.16585">
        <ele>3.7</ele>
        <time>2020-06-02T15:31:33Z</time>
      </trkpt>
      <trkpt lat="46.35578" lon="-1.1659">
        <ele>3.8</ele>
        <time>2020-06-02T15:31:34Z</time>
      </trkpt>
      <trkpt lat="46.35578" lon="-1.16591">
        <ele>3.8</ele>
        <time>2020-06-02T15:31:35Z</time>
      </trkpt>
      <trkpt lat="46.35578" lon="-1.16593">
        <ele>3.8</ele>
        <time>2020-06-02T15:31:36Z</time>
      </trkpt>
      <trkpt lat="46.35578" lon="-1.16595">
        <ele>3.8</ele>
        <time>2020-06-02T15:31:37Z</time>
      </trkpt>
      <trkpt lat="46.35578" lon="-1.166">
        <ele>3.8</ele>
        <time>2020-06-02T15:31:38Z</time>
      </trkpt>
      <trkpt lat="46.35578" lon="-1.16602">
        <ele>3.8</ele>
        <time>2020-06-02T15:31:39Z</time>
      </trkpt>
      <trkpt lat="46.35577" lon="-1.16605">
        <ele>3.8</ele>
        <time>2020-06-02T15:31:40Z</time>
      </trkpt>
      <trkpt lat="46.35577" lon="-1.16606">
        <ele>3.8</ele>
        <time>2020-06-02T15:31:41Z</time>
      </trkpt>
      <trkpt lat="46.35577" lon="-1.1661">
        <ele>3.8</ele>
        <time>2020-06-02T15:31:42Z</time>
      </trkpt>
      <trkpt lat="46.35577" lon="-1.16612">
        <ele>3.8</ele>
        <time>2020-06-02T15:31:43Z</time>
      </trkpt>
      <trkpt lat="46.35577" lon="-1.16614">
        <ele>3.8</ele>
        <time>2020-06-02T15:31:44Z</time>
      </trkpt>
      <trkpt lat="46.35579" lon="-1.16616">
        <ele>3.8</ele>
        <time>2020-06-02T15:31:45Z</time>
      </trkpt>
      <trkpt lat="46.35583" lon="-1.16615">
        <ele>3.8</ele>
        <time>2020-06-02T15:31:46Z</time>
      </trkpt>
      <trkpt lat="46.35584" lon="-1.16614">
        <ele>3.8</ele>
        <time>2020-06-02T15:31:47Z</time>
      </trkpt>
      <trkpt lat="46.35587" lon="-1.16615">
        <ele>3.8</ele>
        <time>2020-06-02T15:31:48Z</time>
      </trkpt>
      <trkpt lat="46.3559" lon="-1.16616">
        <ele>3.8</ele>
        <time>2020-06-02T15:31:49Z</time>
      </trkpt>
      <trkpt lat="46.35594" lon="-1.16617">
        <ele>3.8</ele>
        <time>2020-06-02T15:31:50Z</time>
      </trkpt>
      <trkpt lat="46.35597" lon="-1.16618">
        <ele>3.8</ele>
        <time>2020-06-02T15:31:51Z</time>
      </trkpt>
      <trkpt lat="46.35602" lon="-1.16618">
        <ele>3.8</ele>
        <time>2020-06-02T15:31:52Z</time>
      </trkpt>
      <trkpt lat="46.35606" lon="-1.1662">
        <ele>3.8</ele>
        <time>2020-06-02T15:31:53Z</time>
      </trkpt>
      <trkpt lat="46.3561" lon="-1.16621">
        <ele>3.8</ele>
        <time>2020-06-02T15:31:54Z</time>
      </trkpt>
      <trkpt lat="46.35615" lon="-1.1662">
        <ele>3.8</ele>
        <time>2020-06-02T15:31:55Z</time>
      </trkpt>
      <trkpt lat="46.3562" lon="-1.16621">
        <ele>3.8</ele>
        <time>2020-06-02T15:31:56Z</time>
      </trkpt>
      <trkpt lat="46.35625" lon="-1.16621">
        <ele>3.8</ele>
        <time>2020-06-02T15:31:57Z</time>
      </trkpt>
      <trkpt lat="46.3563" lon="-1.16623">
        <ele>3.8</ele>
        <time>2020-06-02T15:31:58Z</time>
      </trkpt>
      <trkpt lat="46.35636" lon="-1.16624">
        <ele>3.8</ele>
        <time>2020-06-02T15:31:59Z</time>
      </trkpt>
      <trkpt lat="46.3564" lon="-1.16626">
        <ele>3.8</ele>
        <time>2020-06-02T15:32:00Z</time>
      </trkpt>
      <trkpt lat="46.35645" lon="-1.16628">
        <ele>3.8</ele>
        <time>2020-06-02T15:32:01Z</time>
      </trkpt>
      <trkpt lat="46.3565" lon="-1.16629">
        <ele>3.7</ele>
        <time>2020-06-02T15:32:02Z</time>
      </trkpt>
      <trkpt lat="46.35656" lon="-1.16631">
        <ele>3.7</ele>
        <time>2020-06-02T15:32:03Z</time>
      </trkpt>
      <trkpt lat="46.35661" lon="-1.16632">
        <ele>3.7</ele>
        <time>2020-06-02T15:32:04Z</time>
      </trkpt>
      <trkpt lat="46.35667" lon="-1.16633">
        <ele>3.7</ele>
        <time>2020-06-02T15:32:05Z</time>
      </trkpt>
      <trkpt lat="46.35672" lon="-1.16634">
        <ele>3.7</ele>
        <time>2020-06-02T15:32:06Z</time>
      </trkpt>
      <trkpt lat="46.35679" lon="-1.16634">
        <ele>3.7</ele>
        <time>2020-06-02T15:32:07Z</time>
      </trkpt>
      <trkpt lat="46.35685" lon="-1.16635">
        <ele>3.7</ele>
        <time>2020-06-02T15:32:08Z</time>
      </trkpt>
      <trkpt lat="46.3569" lon="-1.16636">
        <ele>3.7</ele>
        <time>2020-06-02T15:32:09Z</time>
      </trkpt>
      <trkpt lat="46.35696" lon="-1.16637">
        <ele>3.7</ele>
        <time>2020-06-02T15:32:10Z</time>
      </trkpt>
      <trkpt lat="46.35701" lon="-1.16638">
        <ele>3.7</ele>
        <time>2020-06-02T15:32:11Z</time>
      </trkpt>
      <trkpt lat="46.35707" lon="-1.16639">
        <ele>3.7</ele>
        <time>2020-06-02T15:32:12Z</time>
      </trkpt>
      <trkpt lat="46.35712" lon="-1.1664">
        <ele>3.7</ele>
        <time>2020-06-02T15:32:13Z</time>
      </trkpt>
      <trkpt lat="46.35718" lon="-1.1664">
        <ele>3.7</ele>
        <time>2020-06-02T15:32:14Z</time>
      </trkpt>
      <trkpt lat="46.35724" lon="-1.16642">
        <ele>3.8</ele>
        <time>2020-06-02T15:32:15Z</time>
      </trkpt>
      <trkpt lat="46.35729" lon="-1.16642">
        <ele>3.8</ele>
        <time>2020-06-02T15:32:16Z</time>
      </trkpt>
      <trkpt lat="46.35734" lon="-1.16643">
        <ele>3.8</ele>
        <time>2020-06-02T15:32:17Z</time>
      </trkpt>
      <trkpt lat="46.3574" lon="-1.16643">
        <ele>3.8</ele>
        <time>2020-06-02T15:32:18Z</time>
      </trkpt>
      <trkpt lat="46.35745" lon="-1.16644">
        <ele>3.8</ele>
        <time>2020-06-02T15:32:19Z</time>
      </trkpt>
      <trkpt lat="46.3575" lon="-1.16645">
        <ele>3.8</ele>
        <time>2020-06-02T15:32:20Z</time>
      </trkpt>
      <trkpt lat="46.35755" lon="-1.16646">
        <ele>3.8</ele>
        <time>2020-06-02T15:32:21Z</time>
      </trkpt>
      <trkpt lat="46.35761" lon="-1.16647">
        <ele>3.8</ele>
        <time>2020-06-02T15:32:22Z</time>
      </trkpt>
      <trkpt lat="46.35767" lon="-1.16647">
        <ele>3.8</ele>
        <time>2020-06-02T15:32:23Z</time>
      </trkpt>
      <trkpt lat="46.35773" lon="-1.16649">
        <ele>3.7</ele>
        <time>2020-06-02T15:32:24Z</time>
      </trkpt>
      <trkpt lat="46.35779" lon="-1.16651">
        <ele>3.7</ele>
        <time>2020-06-02T15:32:25Z</time>
      </trkpt>
      <trkpt lat="46.35785" lon="-1.16653">
        <ele>3.7</ele>
        <time>2020-06-02T15:32:26Z</time>
      </trkpt>
      <trkpt lat="46.3579" lon="-1.16653">
        <ele>3.7</ele>
        <time>2020-06-02T15:32:27Z</time>
      </trkpt>
      <trkpt lat="46.35796" lon="-1.16654">
        <ele>3.7</ele>
        <time>2020-06-02T15:32:28Z</time>
      </trkpt>
      <trkpt lat="46.35801" lon="-1.16654">
        <ele>3.7</ele>
        <time>2020-06-02T15:32:29Z</time>
      </trkpt>
      <trkpt lat="46.35806" lon="-1.16655">
        <ele>3.7</ele>
        <time>2020-06-02T15:32:30Z</time>
      </trkpt>
      <trkpt lat="46.3581" lon="-1.16655">
        <ele>3.7</ele>
        <time>2020-06-02T15:32:31Z</time>
      </trkpt>
      <trkpt lat="46.35814" lon="-1.16657">
        <ele>3.7</ele>
        <time>2020-06-02T15:32:32Z</time>
      </trkpt>
      <trkpt lat="46.35818" lon="-1.16658">
        <ele>3.7</ele>
        <time>2020-06-02T15:32:33Z</time>
      </trkpt>
      <trkpt lat="46.35822" lon="-1.16658">
        <ele>3.6</ele>
        <time>2020-06-02T15:32:34Z</time>
      </trkpt>
      <trkpt lat="46.35826" lon="-1.16659">
        <ele>3.6</ele>
        <time>2020-06-02T15:32:35Z</time>
      </trkpt>
      <trkpt lat="46.3583" lon="-1.16659">
        <ele>3.5</ele>
        <time>2020-06-02T15:32:36Z</time>
      </trkpt>
      <trkpt lat="46.35833" lon="-1.1666">
        <ele>3.5</ele>
        <time>2020-06-02T15:32:37Z</time>
      </trkpt>
      <trkpt lat="46.35837" lon="-1.16662">
        <ele>3.4</ele>
        <time>2020-06-02T15:32:38Z</time>
      </trkpt>
      <trkpt lat="46.35839" lon="-1.16665">
        <ele>3.4</ele>
        <time>2020-06-02T15:32:39Z</time>
      </trkpt>
      <trkpt lat="46.35839" lon="-1.16666">
        <ele>3.3</ele>
        <time>2020-06-02T15:32:40Z</time>
      </trkpt>
      <trkpt lat="46.35836" lon="-1.16676">
        <ele>3.3</ele>
        <time>2020-06-02T15:32:41Z</time>
      </trkpt>
      <trkpt lat="46.35834" lon="-1.16682">
        <ele>3.2</ele>
        <time>2020-06-02T15:32:42Z</time>
      </trkpt>
      <trkpt lat="46.35833" lon="-1.16688">
        <ele>3.2</ele>
        <time>2020-06-02T15:32:43Z</time>
      </trkpt>
      <trkpt lat="46.35833" lon="-1.16695">
        <ele>3.2</ele>
        <time>2020-06-02T15:32:44Z</time>
      </trkpt>
      <trkpt lat="46.35832" lon="-1.16703">
        <ele>3.2</ele>
        <time>2020-06-02T15:32:45Z</time>
      </trkpt>
      <trkpt lat="46.3583" lon="-1.1671">
        <ele>3.1</ele>
        <time>2020-06-02T15:32:46Z</time>
      </trkpt>
      <trkpt lat="46.35829" lon="-1.16718">
        <ele>3.1</ele>
        <time>2020-06-02T15:32:47Z</time>
      </trkpt>
      <trkpt lat="46.35828" lon="-1.16724">
        <ele>3.1</ele>
        <time>2020-06-02T15:32:48Z</time>
      </trkpt>
      <trkpt lat="46.35827" lon="-1.16731">
        <ele>3</ele>
        <time>2020-06-02T15:32:49Z</time>
      </trkpt>
      <trkpt lat="46.35826" lon="-1.16737">
        <ele>3</ele>
        <time>2020-06-02T15:32:50Z</time>
      </trkpt>
      <trkpt lat="46.35825" lon="-1.16744">
        <ele>3</ele>
        <time>2020-06-02T15:32:51Z</time>
      </trkpt>
      <trkpt lat="46.35824" lon="-1.1675">
        <ele>3</ele>
        <time>2020-06-02T15:32:52Z</time>
      </trkpt>
      <trkpt lat="46.35823" lon="-1.16756">
        <ele>3</ele>
        <time>2020-06-02T15:32:53Z</time>
      </trkpt>
      <trkpt lat="46.35821" lon="-1.16763">
        <ele>3</ele>
        <time>2020-06-02T15:32:54Z</time>
      </trkpt>
      <trkpt lat="46.35821" lon="-1.16769">
        <ele>3</ele>
        <time>2020-06-02T15:32:55Z</time>
      </trkpt>
      <trkpt lat="46.3582" lon="-1.16776">
        <ele>3</ele>
        <time>2020-06-02T15:32:56Z</time>
      </trkpt>
      <trkpt lat="46.35818" lon="-1.16783">
        <ele>3</ele>
        <time>2020-06-02T15:32:57Z</time>
      </trkpt>
      <trkpt lat="46.35817" lon="-1.1679">
        <ele>3.1</ele>
        <time>2020-06-02T15:32:58Z</time>
      </trkpt>
      <trkpt lat="46.35816" lon="-1.16798">
        <ele>3.1</ele>
        <time>2020-06-02T15:32:59Z</time>
      </trkpt>
      <trkpt lat="46.35815" lon="-1.16805">
        <ele>3.2</ele>
        <time>2020-06-02T15:33:00Z</time>
      </trkpt>
      <trkpt lat="46.35814" lon="-1.16812">
        <ele>3.3</ele>
        <time>2020-06-02T15:33:01Z</time>
      </trkpt>
      <trkpt lat="46.35814" lon="-1.1682">
        <ele>3.3</ele>
        <time>2020-06-02T15:33:02Z</time>
      </trkpt>
      <trkpt lat="46.35814" lon="-1.16827">
        <ele>3.4</ele>
        <time>2020-06-02T15:33:03Z</time>
      </trkpt>
      <trkpt lat="46.35815" lon="-1.16832">
        <ele>3.5</ele>
        <time>2020-06-02T15:33:04Z</time>
      </trkpt>
      <trkpt lat="46.35817" lon="-1.16838">
        <ele>3.5</ele>
        <time>2020-06-02T15:33:05Z</time>
      </trkpt>
      <trkpt lat="46.3582" lon="-1.16842">
        <ele>3.6</ele>
        <time>2020-06-02T15:33:06Z</time>
      </trkpt>
      <trkpt lat="46.35823" lon="-1.16847">
        <ele>3.6</ele>
        <time>2020-06-02T15:33:07Z</time>
      </trkpt>
      <trkpt lat="46.35826" lon="-1.16852">
        <ele>3.6</ele>
        <time>2020-06-02T15:33:08Z</time>
      </trkpt>
      <trkpt lat="46.35829" lon="-1.16857">
        <ele>3.6</ele>
        <time>2020-06-02T15:33:09Z</time>
      </trkpt>
      <trkpt lat="46.35832" lon="-1.16862">
        <ele>3.6</ele>
        <time>2020-06-02T15:33:10Z</time>
      </trkpt>
      <trkpt lat="46.35835" lon="-1.16867">
        <ele>3.6</ele>
        <time>2020-06-02T15:33:11Z</time>
      </trkpt>
      <trkpt lat="46.35838" lon="-1.16873">
        <ele>3.7</ele>
        <time>2020-06-02T15:33:12Z</time>
      </trkpt>
      <trkpt lat="46.35842" lon="-1.16879">
        <ele>3.7</ele>
        <time>2020-06-02T15:33:13Z</time>
      </trkpt>
      <trkpt lat="46.35845" lon="-1.16885">
        <ele>3.7</ele>
        <time>2020-06-02T15:33:14Z</time>
      </trkpt>
      <trkpt lat="46.35849" lon="-1.1689">
        <ele>3.7</ele>
        <time>2020-06-02T15:33:15Z</time>
      </trkpt>
      <trkpt lat="46.35853" lon="-1.16896">
        <ele>3.7</ele>
        <time>2020-06-02T15:33:16Z</time>
      </trkpt>
      <trkpt lat="46.35858" lon="-1.16901">
        <ele>3.7</ele>
        <time>2020-06-02T15:33:17Z</time>
      </trkpt>
      <trkpt lat="46.35862" lon="-1.16907">
        <ele>3.7</ele>
        <time>2020-06-02T15:33:18Z</time>
      </trkpt>
      <trkpt lat="46.35865" lon="-1.16912">
        <ele>3.7</ele>
        <time>2020-06-02T15:33:19Z</time>
      </trkpt>
      <trkpt lat="46.35869" lon="-1.16917">
        <ele>3.7</ele>
        <time>2020-06-02T15:33:20Z</time>
      </trkpt>
      <trkpt lat="46.35873" lon="-1.16922">
        <ele>3.7</ele>
        <time>2020-06-02T15:33:21Z</time>
      </trkpt>
      <trkpt lat="46.35877" lon="-1.16927">
        <ele>3.7</ele>
        <time>2020-06-02T15:33:22Z</time>
      </trkpt>
      <trkpt lat="46.35882" lon="-1.16933">
        <ele>3.7</ele>
        <time>2020-06-02T15:33:23Z</time>
      </trkpt>
      <trkpt lat="46.35886" lon="-1.16938">
        <ele>3.7</ele>
        <time>2020-06-02T15:33:24Z</time>
      </trkpt>
      <trkpt lat="46.3589" lon="-1.16945">
        <ele>3.6</ele>
        <time>2020-06-02T15:33:25Z</time>
      </trkpt>
      <trkpt lat="46.35894" lon="-1.16951">
        <ele>3.6</ele>
        <time>2020-06-02T15:33:26Z</time>
      </trkpt>
      <trkpt lat="46.35898" lon="-1.16957">
        <ele>3.6</ele>
        <time>2020-06-02T15:33:27Z</time>
      </trkpt>
      <trkpt lat="46.35902" lon="-1.16962">
        <ele>3.6</ele>
        <time>2020-06-02T15:33:28Z</time>
      </trkpt>
      <trkpt lat="46.35904" lon="-1.16966">
        <ele>3.6</ele>
        <time>2020-06-02T15:33:29Z</time>
      </trkpt>
      <trkpt lat="46.35906" lon="-1.16969">
        <ele>3.6</ele>
        <time>2020-06-02T15:33:31Z</time>
      </trkpt>
      <trkpt lat="46.35906" lon="-1.16969">
        <ele>3.6</ele>
        <time>2020-06-02T15:33:32Z</time>
      </trkpt>
      <trkpt lat="46.35906" lon="-1.16969">
        <ele>3.6</ele>
        <time>2020-06-02T15:33:33Z</time>
      </trkpt>
      <trkpt lat="46.35906" lon="-1.16969">
        <ele>3.6</ele>
        <time>2020-06-02T15:33:34Z</time>
      </trkpt>
      <trkpt lat="46.35906" lon="-1.16969">
        <ele>3.6</ele>
        <time>2020-06-02T15:33:35Z</time>
      </trkpt>
      <trkpt lat="46.35906" lon="-1.16969">
        <ele>3.6</ele>
        <time>2020-06-02T15:33:36Z</time>
      </trkpt>
      <trkpt lat="46.35906" lon="-1.16969">
        <ele>3.6</ele>
        <time>2020-06-02T15:33:37Z</time>
      </trkpt>
      <trkpt lat="46.35906" lon="-1.16969">
        <ele>3.6</ele>
        <time>2020-06-02T15:33:38Z</time>
      </trkpt>
      <trkpt lat="46.35906" lon="-1.16969">
        <ele>3.6</ele>
        <time>2020-06-02T15:33:39Z</time>
      </trkpt>
      <trkpt lat="46.35906" lon="-1.16969">
        <ele>3.6</ele>
        <time>2020-06-02T15:33:40Z</time>
      </trkpt>
      <trkpt lat="46.35906" lon="-1.16969">
        <ele>3.6</ele>
        <time>2020-06-02T15:33:41Z</time>
      </trkpt>
      <trkpt lat="46.35907" lon="-1.16969">
        <ele>3.6</ele>
        <time>2020-06-02T15:33:42Z</time>
      </trkpt>
      <trkpt lat="46.35907" lon="-1.16969">
        <ele>3.6</ele>
        <time>2020-06-02T15:33:43Z</time>
      </trkpt>
      <trkpt lat="46.35907" lon="-1.16969">
        <ele>3.6</ele>
        <time>2020-06-02T15:33:44Z</time>
      </trkpt>
      <trkpt lat="46.35907" lon="-1.16969">
        <ele>3.6</ele>
        <time>2020-06-02T15:33:45Z</time>
      </trkpt>
      <trkpt lat="46.35907" lon="-1.16969">
        <ele>3.6</ele>
        <time>2020-06-02T15:33:46Z</time>
      </trkpt>
      <trkpt lat="46.35907" lon="-1.16969">
        <ele>3.6</ele>
        <time>2020-06-02T15:33:47Z</time>
      </trkpt>
      <trkpt lat="46.35907" lon="-1.16969">
        <ele>3.6</ele>
        <time>2020-06-02T15:33:48Z</time>
      </trkpt>
      <trkpt lat="46.35907" lon="-1.16969">
        <ele>3.6</ele>
        <time>2020-06-02T15:33:49Z</time>
      </trkpt>
      <trkpt lat="46.35907" lon="-1.16969">
        <ele>3.6</ele>
        <time>2020-06-02T15:33:50Z</time>
      </trkpt>
      <trkpt lat="46.35907" lon="-1.1697">
        <ele>3.6</ele>
        <time>2020-06-02T15:33:51Z</time>
      </trkpt>
      <trkpt lat="46.35907" lon="-1.1697">
        <ele>3.6</ele>
        <time>2020-06-02T15:33:52Z</time>
      </trkpt>
      <trkpt lat="46.35907" lon="-1.1697">
        <ele>3.6</ele>
        <time>2020-06-02T15:33:53Z</time>
      </trkpt>
      <trkpt lat="46.35907" lon="-1.1697">
        <ele>3.6</ele>
        <time>2020-06-02T15:33:54Z</time>
      </trkpt>
      <trkpt lat="46.35907" lon="-1.1697">
        <ele>3.6</ele>
        <time>2020-06-02T15:33:55Z</time>
      </trkpt>
      <trkpt lat="46.35907" lon="-1.1697">
        <ele>3.6</ele>
        <time>2020-06-02T15:33:56Z</time>
      </trkpt>
      <trkpt lat="46.35907" lon="-1.1697">
        <ele>3.6</ele>
        <time>2020-06-02T15:33:57Z</time>
      </trkpt>
      <trkpt lat="46.35908" lon="-1.1697">
        <ele>3.6</ele>
        <time>2020-06-02T15:33:58Z</time>
      </trkpt>
      <trkpt lat="46.35908" lon="-1.1697">
        <ele>3.6</ele>
        <time>2020-06-02T15:33:59Z</time>
      </trkpt>
      <trkpt lat="46.35908" lon="-1.1697">
        <ele>3.6</ele>
        <time>2020-06-02T15:34:00Z</time>
      </trkpt>
      <trkpt lat="46.35908" lon="-1.1697">
        <ele>3.6</ele>
        <time>2020-06-02T15:34:01Z</time>
      </trkpt>
      <trkpt lat="46.35908" lon="-1.1697">
        <ele>3.6</ele>
        <time>2020-06-02T15:34:02Z</time>
      </trkpt>
      <trkpt lat="46.35908" lon="-1.1697">
        <ele>3.6</ele>
        <time>2020-06-02T15:34:03Z</time>
      </trkpt>
      <trkpt lat="46.35908" lon="-1.1697">
        <ele>3.6</ele>
        <time>2020-06-02T15:34:04Z</time>
      </trkpt>
      <trkpt lat="46.35908" lon="-1.1697">
        <ele>3.6</ele>
        <time>2020-06-02T15:34:05Z</time>
      </trkpt>
      <trkpt lat="46.35908" lon="-1.1697">
        <ele>3.6</ele>
        <time>2020-06-02T15:34:06Z</time>
      </trkpt>
      <trkpt lat="46.35908" lon="-1.1697">
        <ele>3.6</ele>
        <time>2020-06-02T15:34:07Z</time>
      </trkpt>
      <trkpt lat="46.35908" lon="-1.1697">
        <ele>3.6</ele>
        <time>2020-06-02T15:34:08Z</time>
      </trkpt>
      <trkpt lat="46.35908" lon="-1.1697">
        <ele>3.6</ele>
        <time>2020-06-02T15:34:09Z</time>
      </trkpt>
      <trkpt lat="46.35908" lon="-1.1697">
        <ele>3.6</ele>
        <time>2020-06-02T15:34:10Z</time>
      </trkpt>
      <trkpt lat="46.35908" lon="-1.1697">
        <ele>3.6</ele>
        <time>2020-06-02T15:34:11Z</time>
      </trkpt>
      <trkpt lat="46.35908" lon="-1.1697">
        <ele>3.6</ele>
        <time>2020-06-02T15:34:12Z</time>
      </trkpt>
      <trkpt lat="46.35908" lon="-1.1697">
        <ele>3.6</ele>
        <time>2020-06-02T15:34:13Z</time>
      </trkpt>
      <trkpt lat="46.35909" lon="-1.1697">
        <ele>3.6</ele>
        <time>2020-06-02T15:34:14Z</time>
      </trkpt>
      <trkpt lat="46.35909" lon="-1.16971">
        <ele>3.6</ele>
        <time>2020-06-02T15:34:15Z</time>
      </trkpt>
      <trkpt lat="46.35909" lon="-1.16971">
        <ele>3.6</ele>
        <time>2020-06-02T15:34:16Z</time>
      </trkpt>
      <trkpt lat="46.35909" lon="-1.16971">
        <ele>3.6</ele>
        <time>2020-06-02T15:34:17Z</time>
      </trkpt>
      <trkpt lat="46.35909" lon="-1.16971">
        <ele>3.6</ele>
        <time>2020-06-02T15:34:18Z</time>
      </trkpt>
      <trkpt lat="46.35909" lon="-1.16971">
        <ele>3.6</ele>
        <time>2020-06-02T15:34:19Z</time>
      </trkpt>
      <trkpt lat="46.35909" lon="-1.16971">
        <ele>3.6</ele>
        <time>2020-06-02T15:34:20Z</time>
      </trkpt>
      <trkpt lat="46.35909" lon="-1.16971">
        <ele>3.6</ele>
        <time>2020-06-02T15:34:21Z</time>
      </trkpt>
      <trkpt lat="46.35909" lon="-1.16971">
        <ele>3.6</ele>
        <time>2020-06-02T15:34:22Z</time>
      </trkpt>
      <trkpt lat="46.35909" lon="-1.16971">
        <ele>3.6</ele>
        <time>2020-06-02T15:34:23Z</time>
      </trkpt>
      <trkpt lat="46.35909" lon="-1.16971">
        <ele>3.6</ele>
        <time>2020-06-02T15:34:24Z</time>
      </trkpt>
      <trkpt lat="46.35909" lon="-1.16971">
        <ele>3.6</ele>
        <time>2020-06-02T15:34:25Z</time>
      </trkpt>
      <trkpt lat="46.35909" lon="-1.16971">
        <ele>3.6</ele>
        <time>2020-06-02T15:34:26Z</time>
      </trkpt>
      <trkpt lat="46.35909" lon="-1.16971">
        <ele>3.6</ele>
        <time>2020-06-02T15:34:27Z</time>
      </trkpt>
      <trkpt lat="46.35909" lon="-1.16971">
        <ele>3.6</ele>
        <time>2020-06-02T15:34:28Z</time>
      </trkpt>
      <trkpt lat="46.35909" lon="-1.16971">
        <ele>3.6</ele>
        <time>2020-06-02T15:34:29Z</time>
      </trkpt>
      <trkpt lat="46.3591" lon="-1.16971">
        <ele>3.6</ele>
        <time>2020-06-02T15:34:30Z</time>
      </trkpt>
      <trkpt lat="46.3591" lon="-1.16971">
        <ele>3.6</ele>
        <time>2020-06-02T15:34:31Z</time>
      </trkpt>
      <trkpt lat="46.3591" lon="-1.16971">
        <ele>3.6</ele>
        <time>2020-06-02T15:34:32Z</time>
      </trkpt>
      <trkpt lat="46.3591" lon="-1.16971">
        <ele>3.6</ele>
        <time>2020-06-02T15:34:33Z</time>
      </trkpt>
      <trkpt lat="46.3591" lon="-1.16971">
        <ele>3.6</ele>
        <time>2020-06-02T15:34:34Z</time>
      </trkpt>
      <trkpt lat="46.3591" lon="-1.16971">
        <ele>3.6</ele>
        <time>2020-06-02T15:34:35Z</time>
      </trkpt>
      <trkpt lat="46.3591" lon="-1.16971">
        <ele>3.6</ele>
        <time>2020-06-02T15:34:36Z</time>
      </trkpt>
      <trkpt lat="46.3591" lon="-1.16971">
        <ele>3.6</ele>
        <time>2020-06-02T15:34:37Z</time>
      </trkpt>
      <trkpt lat="46.3591" lon="-1.16971">
        <ele>3.6</ele>
        <time>2020-06-02T15:34:38Z</time>
      </trkpt>
      <trkpt lat="46.35913" lon="-1.16975">
        <ele>3.6</ele>
        <time>2020-06-02T15:34:39Z</time>
      </trkpt>
      <trkpt lat="46.35914" lon="-1.16976">
        <ele>3.6</ele>
        <time>2020-06-02T15:34:40Z</time>
      </trkpt>
      <trkpt lat="46.35916" lon="-1.16979">
        <ele>3.6</ele>
        <time>2020-06-02T15:34:41Z</time>
      </trkpt>
      <trkpt lat="46.35918" lon="-1.16983">
        <ele>3.6</ele>
        <time>2020-06-02T15:34:42Z</time>
      </trkpt>
      <trkpt lat="46.35921" lon="-1.16986">
        <ele>3.6</ele>
        <time>2020-06-02T15:34:43Z</time>
      </trkpt>
      <trkpt lat="46.35924" lon="-1.16991">
        <ele>3.6</ele>
        <time>2020-06-02T15:34:44Z</time>
      </trkpt>
      <trkpt lat="46.35926" lon="-1.16995">
        <ele>3.6</ele>
        <time>2020-06-02T15:34:45Z</time>
      </trkpt>
      <trkpt lat="46.3593" lon="-1.17">
        <ele>3.6</ele>
        <time>2020-06-02T15:34:46Z</time>
      </trkpt>
      <trkpt lat="46.35934" lon="-1.17004">
        <ele>3.6</ele>
        <time>2020-06-02T15:34:47Z</time>
      </trkpt>
      <trkpt lat="46.35937" lon="-1.17009">
        <ele>3.6</ele>
        <time>2020-06-02T15:34:48Z</time>
      </trkpt>
      <trkpt lat="46.35941" lon="-1.17014">
        <ele>3.6</ele>
        <time>2020-06-02T15:34:49Z</time>
      </trkpt>
      <trkpt lat="46.35945" lon="-1.1702">
        <ele>3.6</ele>
        <time>2020-06-02T15:34:50Z</time>
      </trkpt>
      <trkpt lat="46.35949" lon="-1.17026">
        <ele>3.6</ele>
        <time>2020-06-02T15:34:51Z</time>
      </trkpt>
      <trkpt lat="46.35952" lon="-1.17031">
        <ele>3.6</ele>
        <time>2020-06-02T15:34:52Z</time>
      </trkpt>
      <trkpt lat="46.35956" lon="-1.17036">
        <ele>3.6</ele>
        <time>2020-06-02T15:34:53Z</time>
      </trkpt>
      <trkpt lat="46.35961" lon="-1.17043">
        <ele>3.6</ele>
        <time>2020-06-02T15:34:54Z</time>
      </trkpt>
      <trkpt lat="46.35965" lon="-1.17047">
        <ele>3.6</ele>
        <time>2020-06-02T15:34:55Z</time>
      </trkpt>
      <trkpt lat="46.35969" lon="-1.17052">
        <ele>3.6</ele>
        <time>2020-06-02T15:34:56Z</time>
      </trkpt>
      <trkpt lat="46.35973" lon="-1.17057">
        <ele>3.6</ele>
        <time>2020-06-02T15:34:57Z</time>
      </trkpt>
      <trkpt lat="46.35977" lon="-1.17063">
        <ele>3.6</ele>
        <time>2020-06-02T15:34:58Z</time>
      </trkpt>
      <trkpt lat="46.35981" lon="-1.17069">
        <ele>3.6</ele>
        <time>2020-06-02T15:34:59Z</time>
      </trkpt>
      <trkpt lat="46.35986" lon="-1.17075">
        <ele>3.6</ele>
        <time>2020-06-02T15:35:00Z</time>
      </trkpt>
      <trkpt lat="46.3599" lon="-1.17081">
        <ele>3.6</ele>
        <time>2020-06-02T15:35:01Z</time>
      </trkpt>
      <trkpt lat="46.35994" lon="-1.17087">
        <ele>3.6</ele>
        <time>2020-06-02T15:35:02Z</time>
      </trkpt>
      <trkpt lat="46.35999" lon="-1.17093">
        <ele>3.6</ele>
        <time>2020-06-02T15:35:03Z</time>
      </trkpt>
      <trkpt lat="46.36003" lon="-1.17099">
        <ele>3.6</ele>
        <time>2020-06-02T15:35:04Z</time>
      </trkpt>
      <trkpt lat="46.36007" lon="-1.17104">
        <ele>3.6</ele>
        <time>2020-06-02T15:35:05Z</time>
      </trkpt>
      <trkpt lat="46.36011" lon="-1.1711">
        <ele>3.6</ele>
        <time>2020-06-02T15:35:06Z</time>
      </trkpt>
      <trkpt lat="46.36016" lon="-1.17115">
        <ele>3.6</ele>
        <time>2020-06-02T15:35:07Z</time>
      </trkpt>
      <trkpt lat="46.36021" lon="-1.1712">
        <ele>3.6</ele>
        <time>2020-06-02T15:35:08Z</time>
      </trkpt>
      <trkpt lat="46.36025" lon="-1.17125">
        <ele>3.5</ele>
        <time>2020-06-02T15:35:09Z</time>
      </trkpt>
      <trkpt lat="46.36029" lon="-1.1713">
        <ele>3.5</ele>
        <time>2020-06-02T15:35:10Z</time>
      </trkpt>
      <trkpt lat="46.36034" lon="-1.17135">
        <ele>3.5</ele>
        <time>2020-06-02T15:35:11Z</time>
      </trkpt>
      <trkpt lat="46.36038" lon="-1.17141">
        <ele>3.5</ele>
        <time>2020-06-02T15:35:12Z</time>
      </trkpt>
      <trkpt lat="46.36043" lon="-1.17147">
        <ele>3.5</ele>
        <time>2020-06-02T15:35:13Z</time>
      </trkpt>
      <trkpt lat="46.36047" lon="-1.17153">
        <ele>3.5</ele>
        <time>2020-06-02T15:35:14Z</time>
      </trkpt>
      <trkpt lat="46.36052" lon="-1.17158">
        <ele>3.5</ele>
        <time>2020-06-02T15:35:15Z</time>
      </trkpt>
      <trkpt lat="46.36056" lon="-1.17165">
        <ele>3.5</ele>
        <time>2020-06-02T15:35:16Z</time>
      </trkpt>
      <trkpt lat="46.3606" lon="-1.17171">
        <ele>3.5</ele>
        <time>2020-06-02T15:35:17Z</time>
      </trkpt>
      <trkpt lat="46.36064" lon="-1.17177">
        <ele>3.5</ele>
        <time>2020-06-02T15:35:18Z</time>
      </trkpt>
      <trkpt lat="46.36069" lon="-1.17183">
        <ele>3.5</ele>
        <time>2020-06-02T15:35:19Z</time>
      </trkpt>
      <trkpt lat="46.36073" lon="-1.17189">
        <ele>3.5</ele>
        <time>2020-06-02T15:35:20Z</time>
      </trkpt>
      <trkpt lat="46.36078" lon="-1.17195">
        <ele>3.5</ele>
        <time>2020-06-02T15:35:21Z</time>
      </trkpt>
      <trkpt lat="46.36082" lon="-1.17202">
        <ele>3.5</ele>
        <time>2020-06-02T15:35:22Z</time>
      </trkpt>
      <trkpt lat="46.36086" lon="-1.17207">
        <ele>3.5</ele>
        <time>2020-06-02T15:35:23Z</time>
      </trkpt>
      <trkpt lat="46.3609" lon="-1.17212">
        <ele>3.5</ele>
        <time>2020-06-02T15:35:24Z</time>
      </trkpt>
      <trkpt lat="46.36093" lon="-1.17217">
        <ele>3.5</ele>
        <time>2020-06-02T15:35:25Z</time>
      </trkpt>
      <trkpt lat="46.36096" lon="-1.17222">
        <ele>3.5</ele>
        <time>2020-06-02T15:35:26Z</time>
      </trkpt>
      <trkpt lat="46.361" lon="-1.17228">
        <ele>3.5</ele>
        <time>2020-06-02T15:35:27Z</time>
      </trkpt>
      <trkpt lat="46.36101" lon="-1.17232">
        <ele>3.5</ele>
        <time>2020-06-02T15:35:28Z</time>
      </trkpt>
      <trkpt lat="46.36104" lon="-1.17236">
        <ele>3.4</ele>
        <time>2020-06-02T15:35:29Z</time>
      </trkpt>
      <trkpt lat="46.36107" lon="-1.17242">
        <ele>3.4</ele>
        <time>2020-06-02T15:35:30Z</time>
      </trkpt>
      <trkpt lat="46.36108" lon="-1.17247">
        <ele>3.4</ele>
        <time>2020-06-02T15:35:31Z</time>
      </trkpt>
      <trkpt lat="46.3611" lon="-1.17254">
        <ele>3.4</ele>
        <time>2020-06-02T15:35:32Z</time>
      </trkpt>
      <trkpt lat="46.36111" lon="-1.17261">
        <ele>3.4</ele>
        <time>2020-06-02T15:35:33Z</time>
      </trkpt>
      <trkpt lat="46.36111" lon="-1.17267">
        <ele>3.4</ele>
        <time>2020-06-02T15:35:34Z</time>
      </trkpt>
      <trkpt lat="46.36111" lon="-1.17273">
        <ele>3.4</ele>
        <time>2020-06-02T15:35:35Z</time>
      </trkpt>
      <trkpt lat="46.36112" lon="-1.17279">
        <ele>3.4</ele>
        <time>2020-06-02T15:35:36Z</time>
      </trkpt>
      <trkpt lat="46.36112" lon="-1.17284">
        <ele>3.4</ele>
        <time>2020-06-02T15:35:37Z</time>
      </trkpt>
      <trkpt lat="46.36113" lon="-1.1729">
        <ele>3.4</ele>
        <time>2020-06-02T15:35:38Z</time>
      </trkpt>
      <trkpt lat="46.36112" lon="-1.17295">
        <ele>3.4</ele>
        <time>2020-06-02T15:35:39Z</time>
      </trkpt>
      <trkpt lat="46.36112" lon="-1.17297">
        <ele>3.4</ele>
        <time>2020-06-02T15:35:40Z</time>
      </trkpt>
      <trkpt lat="46.36112" lon="-1.17299">
        <ele>3.4</ele>
        <time>2020-06-02T15:35:41Z</time>
      </trkpt>
      <trkpt lat="46.36111" lon="-1.17297">
        <ele>3.4</ele>
        <time>2020-06-02T15:35:42Z</time>
      </trkpt>
      <trkpt lat="46.36111" lon="-1.173">
        <ele>3.4</ele>
        <time>2020-06-02T15:35:43Z</time>
      </trkpt>
      <trkpt lat="46.36111" lon="-1.17305">
        <ele>3.4</ele>
        <time>2020-06-02T15:35:44Z</time>
      </trkpt>
      <trkpt lat="46.36112" lon="-1.17309">
        <ele>3.4</ele>
        <time>2020-06-02T15:35:45Z</time>
      </trkpt>
      <trkpt lat="46.36111" lon="-1.17315">
        <ele>3.4</ele>
        <time>2020-06-02T15:35:46Z</time>
      </trkpt>
      <trkpt lat="46.3611" lon="-1.17317">
        <ele>3.4</ele>
        <time>2020-06-02T15:35:47Z</time>
      </trkpt>
      <trkpt lat="46.36109" lon="-1.17319">
        <ele>3.4</ele>
        <time>2020-06-02T15:35:48Z</time>
      </trkpt>
      <trkpt lat="46.36108" lon="-1.17324">
        <ele>3.4</ele>
        <time>2020-06-02T15:35:49Z</time>
      </trkpt>
      <trkpt lat="46.36108" lon="-1.17329">
        <ele>3.4</ele>
        <time>2020-06-02T15:35:50Z</time>
      </trkpt>
      <trkpt lat="46.36107" lon="-1.17334">
        <ele>3.4</ele>
        <time>2020-06-02T15:35:51Z</time>
      </trkpt>
      <trkpt lat="46.36107" lon="-1.17339">
        <ele>3.4</ele>
        <time>2020-06-02T15:35:52Z</time>
      </trkpt>
      <trkpt lat="46.36106" lon="-1.17344">
        <ele>3.4</ele>
        <time>2020-06-02T15:35:53Z</time>
      </trkpt>
      <trkpt lat="46.36106" lon="-1.1735">
        <ele>3.4</ele>
        <time>2020-06-02T15:35:54Z</time>
      </trkpt>
      <trkpt lat="46.36106" lon="-1.17356">
        <ele>3.4</ele>
        <time>2020-06-02T15:35:55Z</time>
      </trkpt>
      <trkpt lat="46.36106" lon="-1.17363">
        <ele>3.3</ele>
        <time>2020-06-02T15:35:56Z</time>
      </trkpt>
      <trkpt lat="46.36106" lon="-1.1737">
        <ele>3.3</ele>
        <time>2020-06-02T15:35:57Z</time>
      </trkpt>
      <trkpt lat="46.36105" lon="-1.17378">
        <ele>3.3</ele>
        <time>2020-06-02T15:35:58Z</time>
      </trkpt>
      <trkpt lat="46.36104" lon="-1.17386">
        <ele>3.3</ele>
        <time>2020-06-02T15:35:59Z</time>
      </trkpt>
      <trkpt lat="46.36103" lon="-1.17396">
        <ele>3.3</ele>
        <time>2020-06-02T15:36:00Z</time>
      </trkpt>
      <trkpt lat="46.36103" lon="-1.17405">
        <ele>3.3</ele>
        <time>2020-06-02T15:36:01Z</time>
      </trkpt>
      <trkpt lat="46.36102" lon="-1.17415">
        <ele>3.3</ele>
        <time>2020-06-02T15:36:02Z</time>
      </trkpt>
      <trkpt lat="46.36102" lon="-1.17424">
        <ele>3.3</ele>
        <time>2020-06-02T15:36:03Z</time>
      </trkpt>
      <trkpt lat="46.36102" lon="-1.17432">
        <ele>3.3</ele>
        <time>2020-06-02T15:36:04Z</time>
      </trkpt>
      <trkpt lat="46.36102" lon="-1.1744">
        <ele>3.3</ele>
        <time>2020-06-02T15:36:05Z</time>
      </trkpt>
      <trkpt lat="46.36101" lon="-1.17448">
        <ele>3.3</ele>
        <time>2020-06-02T15:36:06Z</time>
      </trkpt>
      <trkpt lat="46.36101" lon="-1.17457">
        <ele>3.3</ele>
        <time>2020-06-02T15:36:07Z</time>
      </trkpt>
      <trkpt lat="46.36101" lon="-1.17466">
        <ele>3.3</ele>
        <time>2020-06-02T15:36:08Z</time>
      </trkpt>
      <trkpt lat="46.36101" lon="-1.17474">
        <ele>3.3</ele>
        <time>2020-06-02T15:36:09Z</time>
      </trkpt>
      <trkpt lat="46.36101" lon="-1.17483">
        <ele>3.3</ele>
        <time>2020-06-02T15:36:10Z</time>
      </trkpt>
      <trkpt lat="46.361" lon="-1.17491">
        <ele>3.3</ele>
        <time>2020-06-02T15:36:11Z</time>
      </trkpt>
      <trkpt lat="46.361" lon="-1.17498">
        <ele>3.3</ele>
        <time>2020-06-02T15:36:12Z</time>
      </trkpt>
      <trkpt lat="46.361" lon="-1.17505">
        <ele>3.3</ele>
        <time>2020-06-02T15:36:13Z</time>
      </trkpt>
      <trkpt lat="46.361" lon="-1.17513">
        <ele>3.3</ele>
        <time>2020-06-02T15:36:14Z</time>
      </trkpt>
      <trkpt lat="46.36099" lon="-1.1752">
        <ele>3.3</ele>
        <time>2020-06-02T15:36:15Z</time>
      </trkpt>
      <trkpt lat="46.36099" lon="-1.17528">
        <ele>3.3</ele>
        <time>2020-06-02T15:36:16Z</time>
      </trkpt>
      <trkpt lat="46.36098" lon="-1.17537">
        <ele>3.3</ele>
        <time>2020-06-02T15:36:17Z</time>
      </trkpt>
      <trkpt lat="46.36098" lon="-1.17544">
        <ele>3.3</ele>
        <time>2020-06-02T15:36:18Z</time>
      </trkpt>
      <trkpt lat="46.36098" lon="-1.17552">
        <ele>3.3</ele>
        <time>2020-06-02T15:36:19Z</time>
      </trkpt>
      <trkpt lat="46.36098" lon="-1.1756">
        <ele>3.3</ele>
        <time>2020-06-02T15:36:20Z</time>
      </trkpt>
      <trkpt lat="46.36098" lon="-1.17567">
        <ele>3.3</ele>
        <time>2020-06-02T15:36:21Z</time>
      </trkpt>
      <trkpt lat="46.36097" lon="-1.17575">
        <ele>3.3</ele>
        <time>2020-06-02T15:36:22Z</time>
      </trkpt>
      <trkpt lat="46.36097" lon="-1.17584">
        <ele>3.3</ele>
        <time>2020-06-02T15:36:23Z</time>
      </trkpt>
      <trkpt lat="46.36097" lon="-1.17592">
        <ele>3.3</ele>
        <time>2020-06-02T15:36:24Z</time>
      </trkpt>
      <trkpt lat="46.36096" lon="-1.176">
        <ele>3.3</ele>
        <time>2020-06-02T15:36:25Z</time>
      </trkpt>
      <trkpt lat="46.36096" lon="-1.17608">
        <ele>3.3</ele>
        <time>2020-06-02T15:36:26Z</time>
      </trkpt>
      <trkpt lat="46.36096" lon="-1.17616">
        <ele>3.3</ele>
        <time>2020-06-02T15:36:27Z</time>
      </trkpt>
      <trkpt lat="46.36095" lon="-1.17624">
        <ele>3.3</ele>
        <time>2020-06-02T15:36:28Z</time>
      </trkpt>
      <trkpt lat="46.36095" lon="-1.17631">
        <ele>3.3</ele>
        <time>2020-06-02T15:36:29Z</time>
      </trkpt>
      <trkpt lat="46.36095" lon="-1.17638">
        <ele>3.3</ele>
        <time>2020-06-02T15:36:30Z</time>
      </trkpt>
      <trkpt lat="46.36095" lon="-1.17646">
        <ele>3.3</ele>
        <time>2020-06-02T15:36:31Z</time>
      </trkpt>
      <trkpt lat="46.36095" lon="-1.17654">
        <ele>3.3</ele>
        <time>2020-06-02T15:36:32Z</time>
      </trkpt>
      <trkpt lat="46.36095" lon="-1.17661">
        <ele>3.3</ele>
        <time>2020-06-02T15:36:33Z</time>
      </trkpt>
      <trkpt lat="46.36096" lon="-1.17668">
        <ele>3.3</ele>
        <time>2020-06-02T15:36:34Z</time>
      </trkpt>
      <trkpt lat="46.36096" lon="-1.17675">
        <ele>3.3</ele>
        <time>2020-06-02T15:36:35Z</time>
      </trkpt>
      <trkpt lat="46.36096" lon="-1.17682">
        <ele>3.3</ele>
        <time>2020-06-02T15:36:36Z</time>
      </trkpt>
      <trkpt lat="46.36095" lon="-1.17689">
        <ele>3.3</ele>
        <time>2020-06-02T15:36:37Z</time>
      </trkpt>
      <trkpt lat="46.36095" lon="-1.17697">
        <ele>3.3</ele>
        <time>2020-06-02T15:36:38Z</time>
      </trkpt>
      <trkpt lat="46.36096" lon="-1.17705">
        <ele>3.3</ele>
        <time>2020-06-02T15:36:39Z</time>
      </trkpt>
      <trkpt lat="46.36096" lon="-1.17714">
        <ele>3.3</ele>
        <time>2020-06-02T15:36:40Z</time>
      </trkpt>
      <trkpt lat="46.36096" lon="-1.17722">
        <ele>3.3</ele>
        <time>2020-06-02T15:36:41Z</time>
      </trkpt>
      <trkpt lat="46.36096" lon="-1.1773">
        <ele>3.3</ele>
        <time>2020-06-02T15:36:42Z</time>
      </trkpt>
      <trkpt lat="46.36095" lon="-1.17738">
        <ele>3.3</ele>
        <time>2020-06-02T15:36:43Z</time>
      </trkpt>
      <trkpt lat="46.36095" lon="-1.17745">
        <ele>3.3</ele>
        <time>2020-06-02T15:36:44Z</time>
      </trkpt>
      <trkpt lat="46.36095" lon="-1.17752">
        <ele>3.3</ele>
        <time>2020-06-02T15:36:45Z</time>
      </trkpt>
      <trkpt lat="46.36095" lon="-1.17759">
        <ele>3.3</ele>
        <time>2020-06-02T15:36:46Z</time>
      </trkpt>
      <trkpt lat="46.36095" lon="-1.17766">
        <ele>3.3</ele>
        <time>2020-06-02T15:36:47Z</time>
      </trkpt>
      <trkpt lat="46.36095" lon="-1.17774">
        <ele>3.3</ele>
        <time>2020-06-02T15:36:48Z</time>
      </trkpt>
      <trkpt lat="46.36094" lon="-1.17781">
        <ele>3.3</ele>
        <time>2020-06-02T15:36:49Z</time>
      </trkpt>
      <trkpt lat="46.36093" lon="-1.17789">
        <ele>3.3</ele>
        <time>2020-06-02T15:36:50Z</time>
      </trkpt>
      <trkpt lat="46.36093" lon="-1.17797">
        <ele>3.3</ele>
        <time>2020-06-02T15:36:51Z</time>
      </trkpt>
      <trkpt lat="46.36094" lon="-1.17804">
        <ele>3.3</ele>
        <time>2020-06-02T15:36:52Z</time>
      </trkpt>
      <trkpt lat="46.36094" lon="-1.17812">
        <ele>3.3</ele>
        <time>2020-06-02T15:36:53Z</time>
      </trkpt>
      <trkpt lat="46.36094" lon="-1.17819">
        <ele>3.3</ele>
        <time>2020-06-02T15:36:54Z</time>
      </trkpt>
      <trkpt lat="46.36095" lon="-1.17826">
        <ele>3.3</ele>
        <time>2020-06-02T15:36:55Z</time>
      </trkpt>
      <trkpt lat="46.36095" lon="-1.17833">
        <ele>3.3</ele>
        <time>2020-06-02T15:36:56Z</time>
      </trkpt>
      <trkpt lat="46.36095" lon="-1.17841">
        <ele>3.3</ele>
        <time>2020-06-02T15:36:57Z</time>
      </trkpt>
      <trkpt lat="46.36095" lon="-1.17848">
        <ele>3.4</ele>
        <time>2020-06-02T15:36:58Z</time>
      </trkpt>
      <trkpt lat="46.36096" lon="-1.17855">
        <ele>3.4</ele>
        <time>2020-06-02T15:36:59Z</time>
      </trkpt>
      <trkpt lat="46.36096" lon="-1.17862">
        <ele>3.4</ele>
        <time>2020-06-02T15:37:00Z</time>
      </trkpt>
      <trkpt lat="46.36096" lon="-1.17869">
        <ele>3.4</ele>
        <time>2020-06-02T15:37:01Z</time>
      </trkpt>
      <trkpt lat="46.36096" lon="-1.17877">
        <ele>3.4</ele>
        <time>2020-06-02T15:37:02Z</time>
      </trkpt>
      <trkpt lat="46.36097" lon="-1.17885">
        <ele>3.4</ele>
        <time>2020-06-02T15:37:03Z</time>
      </trkpt>
      <trkpt lat="46.36096" lon="-1.17893">
        <ele>3.4</ele>
        <time>2020-06-02T15:37:04Z</time>
      </trkpt>
      <trkpt lat="46.36096" lon="-1.179">
        <ele>3.4</ele>
        <time>2020-06-02T15:37:05Z</time>
      </trkpt>
      <trkpt lat="46.36096" lon="-1.17907">
        <ele>3.4</ele>
        <time>2020-06-02T15:37:06Z</time>
      </trkpt>
      <trkpt lat="46.36096" lon="-1.17914">
        <ele>3.4</ele>
        <time>2020-06-02T15:37:07Z</time>
      </trkpt>
      <trkpt lat="46.36096" lon="-1.17921">
        <ele>3.4</ele>
        <time>2020-06-02T15:37:08Z</time>
      </trkpt>
      <trkpt lat="46.36096" lon="-1.17928">
        <ele>3.4</ele>
        <time>2020-06-02T15:37:09Z</time>
      </trkpt>
      <trkpt lat="46.36097" lon="-1.17936">
        <ele>3.4</ele>
        <time>2020-06-02T15:37:10Z</time>
      </trkpt>
      <trkpt lat="46.36097" lon="-1.17943">
        <ele>3.4</ele>
        <time>2020-06-02T15:37:11Z</time>
      </trkpt>
      <trkpt lat="46.36098" lon="-1.17951">
        <ele>3.4</ele>
        <time>2020-06-02T15:37:12Z</time>
      </trkpt>
      <trkpt lat="46.36098" lon="-1.17958">
        <ele>3.4</ele>
        <time>2020-06-02T15:37:13Z</time>
      </trkpt>
      <trkpt lat="46.36098" lon="-1.17967">
        <ele>3.4</ele>
        <time>2020-06-02T15:37:14Z</time>
      </trkpt>
      <trkpt lat="46.36098" lon="-1.17975">
        <ele>3.4</ele>
        <time>2020-06-02T15:37:15Z</time>
      </trkpt>
      <trkpt lat="46.36098" lon="-1.17982">
        <ele>3.4</ele>
        <time>2020-06-02T15:37:16Z</time>
      </trkpt>
      <trkpt lat="46.36098" lon="-1.17991">
        <ele>3.4</ele>
        <time>2020-06-02T15:37:17Z</time>
      </trkpt>
      <trkpt lat="46.36098" lon="-1.17999">
        <ele>3.4</ele>
        <time>2020-06-02T15:37:18Z</time>
      </trkpt>
      <trkpt lat="46.36099" lon="-1.18007">
        <ele>3.4</ele>
        <time>2020-06-02T15:37:19Z</time>
      </trkpt>
      <trkpt lat="46.36099" lon="-1.18016">
        <ele>3.4</ele>
        <time>2020-06-02T15:37:20Z</time>
      </trkpt>
      <trkpt lat="46.361" lon="-1.18024">
        <ele>3.4</ele>
        <time>2020-06-02T15:37:21Z</time>
      </trkpt>
      <trkpt lat="46.361" lon="-1.18032">
        <ele>3.4</ele>
        <time>2020-06-02T15:37:22Z</time>
      </trkpt>
      <trkpt lat="46.36101" lon="-1.1804">
        <ele>3.4</ele>
        <time>2020-06-02T15:37:23Z</time>
      </trkpt>
      <trkpt lat="46.36101" lon="-1.18048">
        <ele>3.4</ele>
        <time>2020-06-02T15:37:24Z</time>
      </trkpt>
      <trkpt lat="46.36102" lon="-1.18056">
        <ele>3.4</ele>
        <time>2020-06-02T15:37:25Z</time>
      </trkpt>
      <trkpt lat="46.36102" lon="-1.18064">
        <ele>3.4</ele>
        <time>2020-06-02T15:37:26Z</time>
      </trkpt>
      <trkpt lat="46.36103" lon="-1.18072">
        <ele>3.4</ele>
        <time>2020-06-02T15:37:27Z</time>
      </trkpt>
      <trkpt lat="46.36104" lon="-1.1808">
        <ele>3.4</ele>
        <time>2020-06-02T15:37:28Z</time>
      </trkpt>
      <trkpt lat="46.36105" lon="-1.18088">
        <ele>3.4</ele>
        <time>2020-06-02T15:37:29Z</time>
      </trkpt>
      <trkpt lat="46.36106" lon="-1.18095">
        <ele>3.4</ele>
        <time>2020-06-02T15:37:30Z</time>
      </trkpt>
      <trkpt lat="46.36106" lon="-1.18103">
        <ele>3.4</ele>
        <time>2020-06-02T15:37:31Z</time>
      </trkpt>
      <trkpt lat="46.36107" lon="-1.18111">
        <ele>3.4</ele>
        <time>2020-06-02T15:37:32Z</time>
      </trkpt>
      <trkpt lat="46.36108" lon="-1.18119">
        <ele>3.4</ele>
        <time>2020-06-02T15:37:33Z</time>
      </trkpt>
      <trkpt lat="46.36109" lon="-1.18126">
        <ele>3.4</ele>
        <time>2020-06-02T15:37:34Z</time>
      </trkpt>
      <trkpt lat="46.36109" lon="-1.18134">
        <ele>3.4</ele>
        <time>2020-06-02T15:37:35Z</time>
      </trkpt>
      <trkpt lat="46.3611" lon="-1.18142">
        <ele>3.4</ele>
        <time>2020-06-02T15:37:36Z</time>
      </trkpt>
      <trkpt lat="46.36111" lon="-1.18149">
        <ele>3.4</ele>
        <time>2020-06-02T15:37:37Z</time>
      </trkpt>
      <trkpt lat="46.36112" lon="-1.18157">
        <ele>3.4</ele>
        <time>2020-06-02T15:37:38Z</time>
      </trkpt>
      <trkpt lat="46.36113" lon="-1.18165">
        <ele>3.4</ele>
        <time>2020-06-02T15:37:39Z</time>
      </trkpt>
      <trkpt lat="46.36115" lon="-1.18173">
        <ele>3.5</ele>
        <time>2020-06-02T15:37:40Z</time>
      </trkpt>
      <trkpt lat="46.36115" lon="-1.18181">
        <ele>3.5</ele>
        <time>2020-06-02T15:37:41Z</time>
      </trkpt>
      <trkpt lat="46.36116" lon="-1.18189">
        <ele>3.5</ele>
        <time>2020-06-02T15:37:42Z</time>
      </trkpt>
      <trkpt lat="46.36117" lon="-1.18197">
        <ele>3.5</ele>
        <time>2020-06-02T15:37:43Z</time>
      </trkpt>
      <trkpt lat="46.36118" lon="-1.18205">
        <ele>3.5</ele>
        <time>2020-06-02T15:37:44Z</time>
      </trkpt>
      <trkpt lat="46.36119" lon="-1.18213">
        <ele>3.5</ele>
        <time>2020-06-02T15:37:45Z</time>
      </trkpt>
      <trkpt lat="46.3612" lon="-1.1822">
        <ele>3.5</ele>
        <time>2020-06-02T15:37:46Z</time>
      </trkpt>
      <trkpt lat="46.36121" lon="-1.18228">
        <ele>3.5</ele>
        <time>2020-06-02T15:37:47Z</time>
      </trkpt>
      <trkpt lat="46.36122" lon="-1.18236">
        <ele>3.6</ele>
        <time>2020-06-02T15:37:48Z</time>
      </trkpt>
      <trkpt lat="46.36123" lon="-1.18244">
        <ele>3.6</ele>
        <time>2020-06-02T15:37:49Z</time>
      </trkpt>
      <trkpt lat="46.36124" lon="-1.18252">
        <ele>3.6</ele>
        <time>2020-06-02T15:37:50Z</time>
      </trkpt>
      <trkpt lat="46.36125" lon="-1.1826">
        <ele>3.6</ele>
        <time>2020-06-02T15:37:51Z</time>
      </trkpt>
      <trkpt lat="46.36126" lon="-1.18269">
        <ele>3.6</ele>
        <time>2020-06-02T15:37:52Z</time>
      </trkpt>
      <trkpt lat="46.36126" lon="-1.18277">
        <ele>3.6</ele>
        <time>2020-06-02T15:37:53Z</time>
      </trkpt>
      <trkpt lat="46.36127" lon="-1.18285">
        <ele>3.6</ele>
        <time>2020-06-02T15:37:54Z</time>
      </trkpt>
      <trkpt lat="46.36128" lon="-1.18293">
        <ele>3.6</ele>
        <time>2020-06-02T15:37:55Z</time>
      </trkpt>
      <trkpt lat="46.36129" lon="-1.18301">
        <ele>3.6</ele>
        <time>2020-06-02T15:37:56Z</time>
      </trkpt>
      <trkpt lat="46.3613" lon="-1.18309">
        <ele>3.6</ele>
        <time>2020-06-02T15:37:57Z</time>
      </trkpt>
      <trkpt lat="46.36132" lon="-1.18317">
        <ele>3.6</ele>
        <time>2020-06-02T15:37:58Z</time>
      </trkpt>
      <trkpt lat="46.36133" lon="-1.18325">
        <ele>3.6</ele>
        <time>2020-06-02T15:37:59Z</time>
      </trkpt>
      <trkpt lat="46.36134" lon="-1.18333">
        <ele>3.6</ele>
        <time>2020-06-02T15:38:00Z</time>
      </trkpt>
      <trkpt lat="46.36135" lon="-1.18341">
        <ele>3.6</ele>
        <time>2020-06-02T15:38:01Z</time>
      </trkpt>
      <trkpt lat="46.36135" lon="-1.18349">
        <ele>3.6</ele>
        <time>2020-06-02T15:38:02Z</time>
      </trkpt>
      <trkpt lat="46.36136" lon="-1.18359">
        <ele>3.6</ele>
        <time>2020-06-02T15:38:03Z</time>
      </trkpt>
      <trkpt lat="46.36137" lon="-1.18367">
        <ele>3.6</ele>
        <time>2020-06-02T15:38:04Z</time>
      </trkpt>
      <trkpt lat="46.36138" lon="-1.18376">
        <ele>3.6</ele>
        <time>2020-06-02T15:38:05Z</time>
      </trkpt>
      <trkpt lat="46.3614" lon="-1.18384">
        <ele>3.6</ele>
        <time>2020-06-02T15:38:06Z</time>
      </trkpt>
      <trkpt lat="46.36141" lon="-1.18392">
        <ele>3.6</ele>
        <time>2020-06-02T15:38:07Z</time>
      </trkpt>
      <trkpt lat="46.36141" lon="-1.18401">
        <ele>3.6</ele>
        <time>2020-06-02T15:38:08Z</time>
      </trkpt>
      <trkpt lat="46.36142" lon="-1.18409">
        <ele>3.6</ele>
        <time>2020-06-02T15:38:09Z</time>
      </trkpt>
      <trkpt lat="46.36144" lon="-1.18417">
        <ele>3.6</ele>
        <time>2020-06-02T15:38:10Z</time>
      </trkpt>
      <trkpt lat="46.36145" lon="-1.18425">
        <ele>3.6</ele>
        <time>2020-06-02T15:38:11Z</time>
      </trkpt>
      <trkpt lat="46.36146" lon="-1.18433">
        <ele>3.6</ele>
        <time>2020-06-02T15:38:12Z</time>
      </trkpt>
      <trkpt lat="46.36147" lon="-1.18441">
        <ele>3.6</ele>
        <time>2020-06-02T15:38:13Z</time>
      </trkpt>
      <trkpt lat="46.36148" lon="-1.1845">
        <ele>3.6</ele>
        <time>2020-06-02T15:38:14Z</time>
      </trkpt>
      <trkpt lat="46.36149" lon="-1.18459">
        <ele>3.6</ele>
        <time>2020-06-02T15:38:15Z</time>
      </trkpt>
      <trkpt lat="46.3615" lon="-1.18467">
        <ele>3.6</ele>
        <time>2020-06-02T15:38:16Z</time>
      </trkpt>
      <trkpt lat="46.3615" lon="-1.18475">
        <ele>3.6</ele>
        <time>2020-06-02T15:38:17Z</time>
      </trkpt>
      <trkpt lat="46.36151" lon="-1.18483">
        <ele>3.6</ele>
        <time>2020-06-02T15:38:18Z</time>
      </trkpt>
      <trkpt lat="46.36151" lon="-1.18491">
        <ele>3.6</ele>
        <time>2020-06-02T15:38:19Z</time>
      </trkpt>
      <trkpt lat="46.36151" lon="-1.18499">
        <ele>3.6</ele>
        <time>2020-06-02T15:38:20Z</time>
      </trkpt>
      <trkpt lat="46.36151" lon="-1.18507">
        <ele>3.6</ele>
        <time>2020-06-02T15:38:21Z</time>
      </trkpt>
      <trkpt lat="46.3615" lon="-1.18513">
        <ele>3.6</ele>
        <time>2020-06-02T15:38:22Z</time>
      </trkpt>
      <trkpt lat="46.36149" lon="-1.18521">
        <ele>3.6</ele>
        <time>2020-06-02T15:38:23Z</time>
      </trkpt>
      <trkpt lat="46.36148" lon="-1.1853">
        <ele>3.6</ele>
        <time>2020-06-02T15:38:24Z</time>
      </trkpt>
      <trkpt lat="46.36147" lon="-1.18538">
        <ele>3.6</ele>
        <time>2020-06-02T15:38:25Z</time>
      </trkpt>
      <trkpt lat="46.36146" lon="-1.18547">
        <ele>3.6</ele>
        <time>2020-06-02T15:38:26Z</time>
      </trkpt>
      <trkpt lat="46.36145" lon="-1.18556">
        <ele>3.6</ele>
        <time>2020-06-02T15:38:27Z</time>
      </trkpt>
      <trkpt lat="46.36144" lon="-1.18564">
        <ele>3.6</ele>
        <time>2020-06-02T15:38:28Z</time>
      </trkpt>
      <trkpt lat="46.36142" lon="-1.18573">
        <ele>3.6</ele>
        <time>2020-06-02T15:38:29Z</time>
      </trkpt>
      <trkpt lat="46.3614" lon="-1.18582">
        <ele>3.6</ele>
        <time>2020-06-02T15:38:30Z</time>
      </trkpt>
      <trkpt lat="46.36139" lon="-1.1859">
        <ele>3.6</ele>
        <time>2020-06-02T15:38:31Z</time>
      </trkpt>
      <trkpt lat="46.36137" lon="-1.18599">
        <ele>3.6</ele>
        <time>2020-06-02T15:38:32Z</time>
      </trkpt>
      <trkpt lat="46.36135" lon="-1.18608">
        <ele>3.7</ele>
        <time>2020-06-02T15:38:33Z</time>
      </trkpt>
      <trkpt lat="46.36134" lon="-1.18616">
        <ele>3.7</ele>
        <time>2020-06-02T15:38:34Z</time>
      </trkpt>
      <trkpt lat="46.36133" lon="-1.18625">
        <ele>3.7</ele>
        <time>2020-06-02T15:38:35Z</time>
      </trkpt>
      <trkpt lat="46.36132" lon="-1.18633">
        <ele>3.7</ele>
        <time>2020-06-02T15:38:36Z</time>
      </trkpt>
      <trkpt lat="46.3613" lon="-1.18641">
        <ele>3.7</ele>
        <time>2020-06-02T15:38:37Z</time>
      </trkpt>
      <trkpt lat="46.36129" lon="-1.18648">
        <ele>3.7</ele>
        <time>2020-06-02T15:38:38Z</time>
      </trkpt>
      <trkpt lat="46.36128" lon="-1.18656">
        <ele>3.7</ele>
        <time>2020-06-02T15:38:39Z</time>
      </trkpt>
      <trkpt lat="46.36126" lon="-1.18665">
        <ele>3.7</ele>
        <time>2020-06-02T15:38:40Z</time>
      </trkpt>
      <trkpt lat="46.36125" lon="-1.18673">
        <ele>3.7</ele>
        <time>2020-06-02T15:38:41Z</time>
      </trkpt>
      <trkpt lat="46.36124" lon="-1.18681">
        <ele>3.7</ele>
        <time>2020-06-02T15:38:42Z</time>
      </trkpt>
      <trkpt lat="46.36123" lon="-1.1869">
        <ele>3.7</ele>
        <time>2020-06-02T15:38:43Z</time>
      </trkpt>
      <trkpt lat="46.36121" lon="-1.18698">
        <ele>3.7</ele>
        <time>2020-06-02T15:38:44Z</time>
      </trkpt>
      <trkpt lat="46.3612" lon="-1.18707">
        <ele>3.7</ele>
        <time>2020-06-02T15:38:45Z</time>
      </trkpt>
      <trkpt lat="46.36119" lon="-1.18715">
        <ele>3.7</ele>
        <time>2020-06-02T15:38:46Z</time>
      </trkpt>
      <trkpt lat="46.36118" lon="-1.18722">
        <ele>3.7</ele>
        <time>2020-06-02T15:38:47Z</time>
      </trkpt>
      <trkpt lat="46.36116" lon="-1.1873">
        <ele>3.7</ele>
        <time>2020-06-02T15:38:48Z</time>
      </trkpt>
      <trkpt lat="46.36115" lon="-1.18738">
        <ele>3.7</ele>
        <time>2020-06-02T15:38:49Z</time>
      </trkpt>
      <trkpt lat="46.36113" lon="-1.18746">
        <ele>3.7</ele>
        <time>2020-06-02T15:38:50Z</time>
      </trkpt>
      <trkpt lat="46.36112" lon="-1.18754">
        <ele>3.7</ele>
        <time>2020-06-02T15:38:51Z</time>
      </trkpt>
      <trkpt lat="46.3611" lon="-1.18762">
        <ele>3.7</ele>
        <time>2020-06-02T15:38:52Z</time>
      </trkpt>
      <trkpt lat="46.36109" lon="-1.18771">
        <ele>3.7</ele>
        <time>2020-06-02T15:38:53Z</time>
      </trkpt>
      <trkpt lat="46.36108" lon="-1.18779">
        <ele>3.7</ele>
        <time>2020-06-02T15:38:54Z</time>
      </trkpt>
      <trkpt lat="46.36107" lon="-1.18786">
        <ele>3.7</ele>
        <time>2020-06-02T15:38:55Z</time>
      </trkpt>
      <trkpt lat="46.36107" lon="-1.18793">
        <ele>3.7</ele>
        <time>2020-06-02T15:38:56Z</time>
      </trkpt>
      <trkpt lat="46.36106" lon="-1.18801">
        <ele>3.7</ele>
        <time>2020-06-02T15:38:57Z</time>
      </trkpt>
      <trkpt lat="46.36105" lon="-1.18809">
        <ele>3.7</ele>
        <time>2020-06-02T15:38:58Z</time>
      </trkpt>
      <trkpt lat="46.36104" lon="-1.18818">
        <ele>3.7</ele>
        <time>2020-06-02T15:38:59Z</time>
      </trkpt>
      <trkpt lat="46.36103" lon="-1.18825">
        <ele>3.7</ele>
        <time>2020-06-02T15:39:00Z</time>
      </trkpt>
      <trkpt lat="46.36102" lon="-1.18832">
        <ele>3.7</ele>
        <time>2020-06-02T15:39:01Z</time>
      </trkpt>
      <trkpt lat="46.36101" lon="-1.1884">
        <ele>3.7</ele>
        <time>2020-06-02T15:39:02Z</time>
      </trkpt>
      <trkpt lat="46.361" lon="-1.18848">
        <ele>3.7</ele>
        <time>2020-06-02T15:39:03Z</time>
      </trkpt>
      <trkpt lat="46.36099" lon="-1.18856">
        <ele>3.7</ele>
        <time>2020-06-02T15:39:04Z</time>
      </trkpt>
      <trkpt lat="46.36098" lon="-1.18865">
        <ele>3.7</ele>
        <time>2020-06-02T15:39:05Z</time>
      </trkpt>
      <trkpt lat="46.36097" lon="-1.18874">
        <ele>3.7</ele>
        <time>2020-06-02T15:39:06Z</time>
      </trkpt>
      <trkpt lat="46.36097" lon="-1.18883">
        <ele>3.7</ele>
        <time>2020-06-02T15:39:07Z</time>
      </trkpt>
      <trkpt lat="46.36096" lon="-1.18891">
        <ele>3.7</ele>
        <time>2020-06-02T15:39:08Z</time>
      </trkpt>
      <trkpt lat="46.36094" lon="-1.189">
        <ele>3.7</ele>
        <time>2020-06-02T15:39:09Z</time>
      </trkpt>
      <trkpt lat="46.36093" lon="-1.18908">
        <ele>3.8</ele>
        <time>2020-06-02T15:39:10Z</time>
      </trkpt>
      <trkpt lat="46.36093" lon="-1.18916">
        <ele>3.8</ele>
        <time>2020-06-02T15:39:11Z</time>
      </trkpt>
      <trkpt lat="46.36092" lon="-1.18924">
        <ele>3.8</ele>
        <time>2020-06-02T15:39:12Z</time>
      </trkpt>
      <trkpt lat="46.3609" lon="-1.18931">
        <ele>3.8</ele>
        <time>2020-06-02T15:39:13Z</time>
      </trkpt>
      <trkpt lat="46.3609" lon="-1.18939">
        <ele>3.8</ele>
        <time>2020-06-02T15:39:14Z</time>
      </trkpt>
      <trkpt lat="46.36088" lon="-1.18947">
        <ele>3.8</ele>
        <time>2020-06-02T15:39:15Z</time>
      </trkpt>
      <trkpt lat="46.36087" lon="-1.18955">
        <ele>3.8</ele>
        <time>2020-06-02T15:39:16Z</time>
      </trkpt>
      <trkpt lat="46.36087" lon="-1.18964">
        <ele>3.8</ele>
        <time>2020-06-02T15:39:17Z</time>
      </trkpt>
      <trkpt lat="46.36086" lon="-1.18973">
        <ele>3.8</ele>
        <time>2020-06-02T15:39:18Z</time>
      </trkpt>
      <trkpt lat="46.36085" lon="-1.18983">
        <ele>3.8</ele>
        <time>2020-06-02T15:39:19Z</time>
      </trkpt>
      <trkpt lat="46.36084" lon="-1.18993">
        <ele>3.8</ele>
        <time>2020-06-02T15:39:20Z</time>
      </trkpt>
      <trkpt lat="46.36083" lon="-1.19004">
        <ele>3.8</ele>
        <time>2020-06-02T15:39:21Z</time>
      </trkpt>
      <trkpt lat="46.36082" lon="-1.19014">
        <ele>3.8</ele>
        <time>2020-06-02T15:39:22Z</time>
      </trkpt>
      <trkpt lat="46.36081" lon="-1.19024">
        <ele>3.8</ele>
        <time>2020-06-02T15:39:23Z</time>
      </trkpt>
      <trkpt lat="46.3608" lon="-1.19035">
        <ele>3.8</ele>
        <time>2020-06-02T15:39:24Z</time>
      </trkpt>
      <trkpt lat="46.36078" lon="-1.19044">
        <ele>3.8</ele>
        <time>2020-06-02T15:39:25Z</time>
      </trkpt>
      <trkpt lat="46.36077" lon="-1.19054">
        <ele>3.8</ele>
        <time>2020-06-02T15:39:26Z</time>
      </trkpt>
      <trkpt lat="46.36075" lon="-1.19064">
        <ele>3.8</ele>
        <time>2020-06-02T15:39:27Z</time>
      </trkpt>
      <trkpt lat="46.36074" lon="-1.19073">
        <ele>3.8</ele>
        <time>2020-06-02T15:39:28Z</time>
      </trkpt>
      <trkpt lat="46.36073" lon="-1.19082">
        <ele>3.8</ele>
        <time>2020-06-02T15:39:29Z</time>
      </trkpt>
      <trkpt lat="46.36072" lon="-1.19092">
        <ele>3.8</ele>
        <time>2020-06-02T15:39:30Z</time>
      </trkpt>
      <trkpt lat="46.36071" lon="-1.19102">
        <ele>3.8</ele>
        <time>2020-06-02T15:39:31Z</time>
      </trkpt>
      <trkpt lat="46.3607" lon="-1.19112">
        <ele>3.8</ele>
        <time>2020-06-02T15:39:32Z</time>
      </trkpt>
      <trkpt lat="46.36069" lon="-1.19121">
        <ele>3.8</ele>
        <time>2020-06-02T15:39:33Z</time>
      </trkpt>
      <trkpt lat="46.36068" lon="-1.19131">
        <ele>3.8</ele>
        <time>2020-06-02T15:39:34Z</time>
      </trkpt>
      <trkpt lat="46.36067" lon="-1.1914">
        <ele>3.8</ele>
        <time>2020-06-02T15:39:35Z</time>
      </trkpt>
      <trkpt lat="46.36066" lon="-1.1915">
        <ele>3.8</ele>
        <time>2020-06-02T15:39:36Z</time>
      </trkpt>
      <trkpt lat="46.36065" lon="-1.1916">
        <ele>3.8</ele>
        <time>2020-06-02T15:39:37Z</time>
      </trkpt>
      <trkpt lat="46.36063" lon="-1.19169">
        <ele>3.8</ele>
        <time>2020-06-02T15:39:38Z</time>
      </trkpt>
      <trkpt lat="46.36062" lon="-1.19178">
        <ele>3.8</ele>
        <time>2020-06-02T15:39:39Z</time>
      </trkpt>
      <trkpt lat="46.36061" lon="-1.19188">
        <ele>3.8</ele>
        <time>2020-06-02T15:39:40Z</time>
      </trkpt>
      <trkpt lat="46.3606" lon="-1.19198">
        <ele>3.8</ele>
        <time>2020-06-02T15:39:41Z</time>
      </trkpt>
      <trkpt lat="46.36059" lon="-1.19207">
        <ele>3.8</ele>
        <time>2020-06-02T15:39:42Z</time>
      </trkpt>
      <trkpt lat="46.36058" lon="-1.19217">
        <ele>3.8</ele>
        <time>2020-06-02T15:39:43Z</time>
      </trkpt>
      <trkpt lat="46.36057" lon="-1.19226">
        <ele>3.8</ele>
        <time>2020-06-02T15:39:44Z</time>
      </trkpt>
      <trkpt lat="46.36056" lon="-1.19236">
        <ele>3.8</ele>
        <time>2020-06-02T15:39:45Z</time>
      </trkpt>
      <trkpt lat="46.36055" lon="-1.19246">
        <ele>3.8</ele>
        <time>2020-06-02T15:39:46Z</time>
      </trkpt>
      <trkpt lat="46.36054" lon="-1.19256">
        <ele>3.8</ele>
        <time>2020-06-02T15:39:47Z</time>
      </trkpt>
      <trkpt lat="46.36053" lon="-1.19266">
        <ele>3.8</ele>
        <time>2020-06-02T15:39:48Z</time>
      </trkpt>
      <trkpt lat="46.36052" lon="-1.19277">
        <ele>3.8</ele>
        <time>2020-06-02T15:39:49Z</time>
      </trkpt>
      <trkpt lat="46.3605" lon="-1.19287">
        <ele>3.8</ele>
        <time>2020-06-02T15:39:50Z</time>
      </trkpt>
      <trkpt lat="46.36049" lon="-1.19297">
        <ele>3.8</ele>
        <time>2020-06-02T15:39:51Z</time>
      </trkpt>
      <trkpt lat="46.36048" lon="-1.19307">
        <ele>3.8</ele>
        <time>2020-06-02T15:39:52Z</time>
      </trkpt>
      <trkpt lat="46.36047" lon="-1.19318">
        <ele>3.8</ele>
        <time>2020-06-02T15:39:53Z</time>
      </trkpt>
      <trkpt lat="46.36046" lon="-1.19328">
        <ele>3.8</ele>
        <time>2020-06-02T15:39:54Z</time>
      </trkpt>
      <trkpt lat="46.36045" lon="-1.19338">
        <ele>3.8</ele>
        <time>2020-06-02T15:39:55Z</time>
      </trkpt>
      <trkpt lat="46.36044" lon="-1.19348">
        <ele>3.8</ele>
        <time>2020-06-02T15:39:56Z</time>
      </trkpt>
      <trkpt lat="46.36042" lon="-1.19357">
        <ele>3.8</ele>
        <time>2020-06-02T15:39:57Z</time>
      </trkpt>
      <trkpt lat="46.36041" lon="-1.19366">
        <ele>3.8</ele>
        <time>2020-06-02T15:39:58Z</time>
      </trkpt>
      <trkpt lat="46.3604" lon="-1.19375">
        <ele>3.8</ele>
        <time>2020-06-02T15:39:59Z</time>
      </trkpt>
      <trkpt lat="46.3604" lon="-1.19384">
        <ele>3.8</ele>
        <time>2020-06-02T15:40:00Z</time>
      </trkpt>
      <trkpt lat="46.36039" lon="-1.19392">
        <ele>3.8</ele>
        <time>2020-06-02T15:40:01Z</time>
      </trkpt>
      <trkpt lat="46.36039" lon="-1.194">
        <ele>3.8</ele>
        <time>2020-06-02T15:40:02Z</time>
      </trkpt>
      <trkpt lat="46.36039" lon="-1.19408">
        <ele>3.8</ele>
        <time>2020-06-02T15:40:03Z</time>
      </trkpt>
      <trkpt lat="46.36038" lon="-1.19416">
        <ele>3.8</ele>
        <time>2020-06-02T15:40:04Z</time>
      </trkpt>
      <trkpt lat="46.36038" lon="-1.19425">
        <ele>3.8</ele>
        <time>2020-06-02T15:40:05Z</time>
      </trkpt>
      <trkpt lat="46.36037" lon="-1.19433">
        <ele>3.8</ele>
        <time>2020-06-02T15:40:06Z</time>
      </trkpt>
      <trkpt lat="46.36036" lon="-1.19441">
        <ele>3.8</ele>
        <time>2020-06-02T15:40:07Z</time>
      </trkpt>
      <trkpt lat="46.36035" lon="-1.19449">
        <ele>3.8</ele>
        <time>2020-06-02T15:40:08Z</time>
      </trkpt>
      <trkpt lat="46.36034" lon="-1.19457">
        <ele>3.8</ele>
        <time>2020-06-02T15:40:09Z</time>
      </trkpt>
      <trkpt lat="46.36033" lon="-1.19465">
        <ele>3.8</ele>
        <time>2020-06-02T15:40:10Z</time>
      </trkpt>
      <trkpt lat="46.36033" lon="-1.19473">
        <ele>3.8</ele>
        <time>2020-06-02T15:40:11Z</time>
      </trkpt>
      <trkpt lat="46.36032" lon="-1.19481">
        <ele>3.8</ele>
        <time>2020-06-02T15:40:12Z</time>
      </trkpt>
      <trkpt lat="46.36031" lon="-1.1949">
        <ele>3.8</ele>
        <time>2020-06-02T15:40:13Z</time>
      </trkpt>
      <trkpt lat="46.36029" lon="-1.19501">
        <ele>3.8</ele>
        <time>2020-06-02T15:40:14Z</time>
      </trkpt>
      <trkpt lat="46.36027" lon="-1.19512">
        <ele>3.7</ele>
        <time>2020-06-02T15:40:15Z</time>
      </trkpt>
      <trkpt lat="46.36026" lon="-1.19522">
        <ele>3.7</ele>
        <time>2020-06-02T15:40:16Z</time>
      </trkpt>
      <trkpt lat="46.36025" lon="-1.19532">
        <ele>3.7</ele>
        <time>2020-06-02T15:40:17Z</time>
      </trkpt>
      <trkpt lat="46.36024" lon="-1.19541">
        <ele>3.7</ele>
        <time>2020-06-02T15:40:18Z</time>
      </trkpt>
      <trkpt lat="46.36023" lon="-1.1955">
        <ele>3.7</ele>
        <time>2020-06-02T15:40:19Z</time>
      </trkpt>
      <trkpt lat="46.36022" lon="-1.19559">
        <ele>3.7</ele>
        <time>2020-06-02T15:40:20Z</time>
      </trkpt>
      <trkpt lat="46.36021" lon="-1.19568">
        <ele>3.7</ele>
        <time>2020-06-02T15:40:21Z</time>
      </trkpt>
      <trkpt lat="46.3602" lon="-1.19576">
        <ele>3.7</ele>
        <time>2020-06-02T15:40:22Z</time>
      </trkpt>
      <trkpt lat="46.36019" lon="-1.19585">
        <ele>3.7</ele>
        <time>2020-06-02T15:40:23Z</time>
      </trkpt>
      <trkpt lat="46.36018" lon="-1.19594">
        <ele>3.7</ele>
        <time>2020-06-02T15:40:24Z</time>
      </trkpt>
      <trkpt lat="46.36017" lon="-1.19602">
        <ele>3.7</ele>
        <time>2020-06-02T15:40:25Z</time>
      </trkpt>
      <trkpt lat="46.36016" lon="-1.19611">
        <ele>3.7</ele>
        <time>2020-06-02T15:40:26Z</time>
      </trkpt>
      <trkpt lat="46.36015" lon="-1.19619">
        <ele>3.7</ele>
        <time>2020-06-02T15:40:27Z</time>
      </trkpt>
      <trkpt lat="46.36014" lon="-1.19626">
        <ele>3.7</ele>
        <time>2020-06-02T15:40:28Z</time>
      </trkpt>
      <trkpt lat="46.36013" lon="-1.19634">
        <ele>3.7</ele>
        <time>2020-06-02T15:40:29Z</time>
      </trkpt>
      <trkpt lat="46.36012" lon="-1.19642">
        <ele>3.7</ele>
        <time>2020-06-02T15:40:30Z</time>
      </trkpt>
      <trkpt lat="46.3601" lon="-1.19652">
        <ele>3.6</ele>
        <time>2020-06-02T15:40:31Z</time>
      </trkpt>
      <trkpt lat="46.36009" lon="-1.19661">
        <ele>3.6</ele>
        <time>2020-06-02T15:40:32Z</time>
      </trkpt>
      <trkpt lat="46.36008" lon="-1.1967">
        <ele>3.6</ele>
        <time>2020-06-02T15:40:33Z</time>
      </trkpt>
      <trkpt lat="46.36007" lon="-1.19677">
        <ele>3.6</ele>
        <time>2020-06-02T15:40:34Z</time>
      </trkpt>
      <trkpt lat="46.36007" lon="-1.19685">
        <ele>3.6</ele>
        <time>2020-06-02T15:40:35Z</time>
      </trkpt>
      <trkpt lat="46.36007" lon="-1.19693">
        <ele>3.6</ele>
        <time>2020-06-02T15:40:36Z</time>
      </trkpt>
      <trkpt lat="46.36006" lon="-1.19699">
        <ele>3.6</ele>
        <time>2020-06-02T15:40:37Z</time>
      </trkpt>
      <trkpt lat="46.36005" lon="-1.19706">
        <ele>3.6</ele>
        <time>2020-06-02T15:40:38Z</time>
      </trkpt>
      <trkpt lat="46.36004" lon="-1.19713">
        <ele>3.6</ele>
        <time>2020-06-02T15:40:39Z</time>
      </trkpt>
      <trkpt lat="46.36003" lon="-1.1972">
        <ele>3.6</ele>
        <time>2020-06-02T15:40:40Z</time>
      </trkpt>
      <trkpt lat="46.36002" lon="-1.19727">
        <ele>3.7</ele>
        <time>2020-06-02T15:40:41Z</time>
      </trkpt>
      <trkpt lat="46.36001" lon="-1.19734">
        <ele>3.7</ele>
        <time>2020-06-02T15:40:42Z</time>
      </trkpt>
      <trkpt lat="46.36" lon="-1.19741">
        <ele>3.7</ele>
        <time>2020-06-02T15:40:43Z</time>
      </trkpt>
      <trkpt lat="46.35999" lon="-1.19749">
        <ele>3.7</ele>
        <time>2020-06-02T15:40:44Z</time>
      </trkpt>
      <trkpt lat="46.35999" lon="-1.19756">
        <ele>3.7</ele>
        <time>2020-06-02T15:40:45Z</time>
      </trkpt>
      <trkpt lat="46.35998" lon="-1.19764">
        <ele>3.7</ele>
        <time>2020-06-02T15:40:46Z</time>
      </trkpt>
      <trkpt lat="46.35997" lon="-1.19772">
        <ele>3.7</ele>
        <time>2020-06-02T15:40:47Z</time>
      </trkpt>
      <trkpt lat="46.35997" lon="-1.19779">
        <ele>3.7</ele>
        <time>2020-06-02T15:40:48Z</time>
      </trkpt>
      <trkpt lat="46.35997" lon="-1.19785">
        <ele>3.7</ele>
        <time>2020-06-02T15:40:49Z</time>
      </trkpt>
      <trkpt lat="46.35996" lon="-1.19791">
        <ele>3.7</ele>
        <time>2020-06-02T15:40:50Z</time>
      </trkpt>
      <trkpt lat="46.35996" lon="-1.19798">
        <ele>3.7</ele>
        <time>2020-06-02T15:40:51Z</time>
      </trkpt>
      <trkpt lat="46.35995" lon="-1.19805">
        <ele>3.7</ele>
        <time>2020-06-02T15:40:52Z</time>
      </trkpt>
      <trkpt lat="46.35995" lon="-1.19812">
        <ele>3.7</ele>
        <time>2020-06-02T15:40:53Z</time>
      </trkpt>
      <trkpt lat="46.35994" lon="-1.1982">
        <ele>3.7</ele>
        <time>2020-06-02T15:40:54Z</time>
      </trkpt>
      <trkpt lat="46.35993" lon="-1.19828">
        <ele>3.7</ele>
        <time>2020-06-02T15:40:55Z</time>
      </trkpt>
      <trkpt lat="46.35992" lon="-1.19837">
        <ele>3.6</ele>
        <time>2020-06-02T15:40:56Z</time>
      </trkpt>
      <trkpt lat="46.35992" lon="-1.19845">
        <ele>3.6</ele>
        <time>2020-06-02T15:40:57Z</time>
      </trkpt>
      <trkpt lat="46.35991" lon="-1.19854">
        <ele>3.6</ele>
        <time>2020-06-02T15:40:58Z</time>
      </trkpt>
      <trkpt lat="46.3599" lon="-1.19862">
        <ele>3.6</ele>
        <time>2020-06-02T15:40:59Z</time>
      </trkpt>
      <trkpt lat="46.35989" lon="-1.1987">
        <ele>3.6</ele>
        <time>2020-06-02T15:41:00Z</time>
      </trkpt>
      <trkpt lat="46.35987" lon="-1.19877">
        <ele>3.6</ele>
        <time>2020-06-02T15:41:01Z</time>
      </trkpt>
      <trkpt lat="46.35986" lon="-1.19885">
        <ele>3.6</ele>
        <time>2020-06-02T15:41:02Z</time>
      </trkpt>
      <trkpt lat="46.35985" lon="-1.19892">
        <ele>3.5</ele>
        <time>2020-06-02T15:41:03Z</time>
      </trkpt>
      <trkpt lat="46.35985" lon="-1.19899">
        <ele>3.5</ele>
        <time>2020-06-02T15:41:04Z</time>
      </trkpt>
      <trkpt lat="46.35984" lon="-1.19906">
        <ele>3.5</ele>
        <time>2020-06-02T15:41:05Z</time>
      </trkpt>
      <trkpt lat="46.35984" lon="-1.19913">
        <ele>3.5</ele>
        <time>2020-06-02T15:41:06Z</time>
      </trkpt>
      <trkpt lat="46.35983" lon="-1.19919">
        <ele>3.4</ele>
        <time>2020-06-02T15:41:07Z</time>
      </trkpt>
      <trkpt lat="46.35983" lon="-1.19927">
        <ele>3.4</ele>
        <time>2020-06-02T15:41:08Z</time>
      </trkpt>
      <trkpt lat="46.35982" lon="-1.19934">
        <ele>3.4</ele>
        <time>2020-06-02T15:41:09Z</time>
      </trkpt>
      <trkpt lat="46.35982" lon="-1.19941">
        <ele>3.4</ele>
        <time>2020-06-02T15:41:10Z</time>
      </trkpt>
      <trkpt lat="46.35982" lon="-1.19948">
        <ele>3.4</ele>
        <time>2020-06-02T15:41:11Z</time>
      </trkpt>
      <trkpt lat="46.35981" lon="-1.19956">
        <ele>3.4</ele>
        <time>2020-06-02T15:41:12Z</time>
      </trkpt>
      <trkpt lat="46.3598" lon="-1.19963">
        <ele>3.4</ele>
        <time>2020-06-02T15:41:13Z</time>
      </trkpt>
      <trkpt lat="46.3598" lon="-1.1997">
        <ele>3.4</ele>
        <time>2020-06-02T15:41:14Z</time>
      </trkpt>
      <trkpt lat="46.3598" lon="-1.19977">
        <ele>3.4</ele>
        <time>2020-06-02T15:41:15Z</time>
      </trkpt>
      <trkpt lat="46.35979" lon="-1.19984">
        <ele>3.4</ele>
        <time>2020-06-02T15:41:16Z</time>
      </trkpt>
      <trkpt lat="46.35978" lon="-1.19992">
        <ele>3.4</ele>
        <time>2020-06-02T15:41:17Z</time>
      </trkpt>
      <trkpt lat="46.35978" lon="-1.19999">
        <ele>3.4</ele>
        <time>2020-06-02T15:41:18Z</time>
      </trkpt>
      <trkpt lat="46.35977" lon="-1.20008">
        <ele>3.4</ele>
        <time>2020-06-02T15:41:19Z</time>
      </trkpt>
      <trkpt lat="46.35976" lon="-1.20015">
        <ele>3.4</ele>
        <time>2020-06-02T15:41:20Z</time>
      </trkpt>
      <trkpt lat="46.35975" lon="-1.20023">
        <ele>3.4</ele>
        <time>2020-06-02T15:41:21Z</time>
      </trkpt>
      <trkpt lat="46.35974" lon="-1.2003">
        <ele>3.3</ele>
        <time>2020-06-02T15:41:22Z</time>
      </trkpt>
      <trkpt lat="46.35974" lon="-1.20036">
        <ele>3.3</ele>
        <time>2020-06-02T15:41:23Z</time>
      </trkpt>
      <trkpt lat="46.35973" lon="-1.20043">
        <ele>3.3</ele>
        <time>2020-06-02T15:41:24Z</time>
      </trkpt>
      <trkpt lat="46.35973" lon="-1.2005">
        <ele>3.3</ele>
        <time>2020-06-02T15:41:25Z</time>
      </trkpt>
      <trkpt lat="46.35973" lon="-1.20056">
        <ele>3.3</ele>
        <time>2020-06-02T15:41:26Z</time>
      </trkpt>
      <trkpt lat="46.35972" lon="-1.20063">
        <ele>3.3</ele>
        <time>2020-06-02T15:41:27Z</time>
      </trkpt>
      <trkpt lat="46.35972" lon="-1.2007">
        <ele>3.3</ele>
        <time>2020-06-02T15:41:28Z</time>
      </trkpt>
      <trkpt lat="46.35971" lon="-1.20076">
        <ele>3.3</ele>
        <time>2020-06-02T15:41:29Z</time>
      </trkpt>
      <trkpt lat="46.35971" lon="-1.20083">
        <ele>3.3</ele>
        <time>2020-06-02T15:41:30Z</time>
      </trkpt>
      <trkpt lat="46.35971" lon="-1.20089">
        <ele>3.3</ele>
        <time>2020-06-02T15:41:31Z</time>
      </trkpt>
      <trkpt lat="46.35971" lon="-1.20096">
        <ele>3.3</ele>
        <time>2020-06-02T15:41:32Z</time>
      </trkpt>
      <trkpt lat="46.3597" lon="-1.20103">
        <ele>3.3</ele>
        <time>2020-06-02T15:41:33Z</time>
      </trkpt>
      <trkpt lat="46.3597" lon="-1.20109">
        <ele>3.3</ele>
        <time>2020-06-02T15:41:34Z</time>
      </trkpt>
      <trkpt lat="46.35969" lon="-1.20116">
        <ele>3.3</ele>
        <time>2020-06-02T15:41:35Z</time>
      </trkpt>
      <trkpt lat="46.35969" lon="-1.20122">
        <ele>3.3</ele>
        <time>2020-06-02T15:41:36Z</time>
      </trkpt>
      <trkpt lat="46.35968" lon="-1.20128">
        <ele>3.3</ele>
        <time>2020-06-02T15:41:37Z</time>
      </trkpt>
      <trkpt lat="46.35967" lon="-1.20134">
        <ele>3.3</ele>
        <time>2020-06-02T15:41:38Z</time>
      </trkpt>
      <trkpt lat="46.35966" lon="-1.2014">
        <ele>3.3</ele>
        <time>2020-06-02T15:41:39Z</time>
      </trkpt>
      <trkpt lat="46.35964" lon="-1.20146">
        <ele>3.3</ele>
        <time>2020-06-02T15:41:40Z</time>
      </trkpt>
      <trkpt lat="46.35963" lon="-1.20153">
        <ele>3.3</ele>
        <time>2020-06-02T15:41:41Z</time>
      </trkpt>
      <trkpt lat="46.35963" lon="-1.20161">
        <ele>3.3</ele>
        <time>2020-06-02T15:41:42Z</time>
      </trkpt>
      <trkpt lat="46.35962" lon="-1.20167">
        <ele>3.3</ele>
        <time>2020-06-02T15:41:43Z</time>
      </trkpt>
      <trkpt lat="46.35962" lon="-1.20174">
        <ele>3.3</ele>
        <time>2020-06-02T15:41:44Z</time>
      </trkpt>
      <trkpt lat="46.35962" lon="-1.20182">
        <ele>3.3</ele>
        <time>2020-06-02T15:41:45Z</time>
      </trkpt>
      <trkpt lat="46.35962" lon="-1.20189">
        <ele>3.3</ele>
        <time>2020-06-02T15:41:46Z</time>
      </trkpt>
      <trkpt lat="46.35962" lon="-1.20196">
        <ele>3.3</ele>
        <time>2020-06-02T15:41:47Z</time>
      </trkpt>
      <trkpt lat="46.35962" lon="-1.20204">
        <ele>3.3</ele>
        <time>2020-06-02T15:41:48Z</time>
      </trkpt>
      <trkpt lat="46.35961" lon="-1.20211">
        <ele>3.3</ele>
        <time>2020-06-02T15:41:49Z</time>
      </trkpt>
      <trkpt lat="46.3596" lon="-1.20218">
        <ele>3.3</ele>
        <time>2020-06-02T15:41:50Z</time>
      </trkpt>
      <trkpt lat="46.3596" lon="-1.20226">
        <ele>3.3</ele>
        <time>2020-06-02T15:41:51Z</time>
      </trkpt>
      <trkpt lat="46.35959" lon="-1.20234">
        <ele>3.3</ele>
        <time>2020-06-02T15:41:52Z</time>
      </trkpt>
      <trkpt lat="46.35958" lon="-1.20242">
        <ele>3.3</ele>
        <time>2020-06-02T15:41:53Z</time>
      </trkpt>
      <trkpt lat="46.35957" lon="-1.2025">
        <ele>3.3</ele>
        <time>2020-06-02T15:41:54Z</time>
      </trkpt>
      <trkpt lat="46.35956" lon="-1.20258">
        <ele>3.3</ele>
        <time>2020-06-02T15:41:55Z</time>
      </trkpt>
      <trkpt lat="46.35956" lon="-1.20265">
        <ele>3.3</ele>
        <time>2020-06-02T15:41:56Z</time>
      </trkpt>
      <trkpt lat="46.35955" lon="-1.20274">
        <ele>3.4</ele>
        <time>2020-06-02T15:41:57Z</time>
      </trkpt>
      <trkpt lat="46.35954" lon="-1.20282">
        <ele>3.4</ele>
        <time>2020-06-02T15:41:58Z</time>
      </trkpt>
      <trkpt lat="46.35953" lon="-1.20289">
        <ele>3.4</ele>
        <time>2020-06-02T15:41:59Z</time>
      </trkpt>
      <trkpt lat="46.35952" lon="-1.20297">
        <ele>3.4</ele>
        <time>2020-06-02T15:42:00Z</time>
      </trkpt>
      <trkpt lat="46.35951" lon="-1.20304">
        <ele>3.4</ele>
        <time>2020-06-02T15:42:01Z</time>
      </trkpt>
      <trkpt lat="46.3595" lon="-1.20311">
        <ele>3.4</ele>
        <time>2020-06-02T15:42:02Z</time>
      </trkpt>
      <trkpt lat="46.35949" lon="-1.20319">
        <ele>3.4</ele>
        <time>2020-06-02T15:42:03Z</time>
      </trkpt>
      <trkpt lat="46.35949" lon="-1.20327">
        <ele>3.5</ele>
        <time>2020-06-02T15:42:04Z</time>
      </trkpt>
      <trkpt lat="46.35948" lon="-1.20336">
        <ele>3.5</ele>
        <time>2020-06-02T15:42:05Z</time>
      </trkpt>
      <trkpt lat="46.35948" lon="-1.20344">
        <ele>3.5</ele>
        <time>2020-06-02T15:42:06Z</time>
      </trkpt>
      <trkpt lat="46.35947" lon="-1.20353">
        <ele>3.5</ele>
        <time>2020-06-02T15:42:07Z</time>
      </trkpt>
      <trkpt lat="46.35947" lon="-1.20361">
        <ele>3.5</ele>
        <time>2020-06-02T15:42:08Z</time>
      </trkpt>
      <trkpt lat="46.35946" lon="-1.2037">
        <ele>3.5</ele>
        <time>2020-06-02T15:42:09Z</time>
      </trkpt>
      <trkpt lat="46.35945" lon="-1.20378">
        <ele>3.5</ele>
        <time>2020-06-02T15:42:10Z</time>
      </trkpt>
      <trkpt lat="46.35944" lon="-1.20386">
        <ele>3.5</ele>
        <time>2020-06-02T15:42:11Z</time>
      </trkpt>
      <trkpt lat="46.35944" lon="-1.20394">
        <ele>3.5</ele>
        <time>2020-06-02T15:42:12Z</time>
      </trkpt>
      <trkpt lat="46.35943" lon="-1.20402">
        <ele>3.5</ele>
        <time>2020-06-02T15:42:13Z</time>
      </trkpt>
      <trkpt lat="46.35942" lon="-1.2041">
        <ele>3.5</ele>
        <time>2020-06-02T15:42:14Z</time>
      </trkpt>
      <trkpt lat="46.35941" lon="-1.20418">
        <ele>3.5</ele>
        <time>2020-06-02T15:42:15Z</time>
      </trkpt>
      <trkpt lat="46.3594" lon="-1.20427">
        <ele>3.5</ele>
        <time>2020-06-02T15:42:16Z</time>
      </trkpt>
      <trkpt lat="46.35939" lon="-1.20434">
        <ele>3.5</ele>
        <time>2020-06-02T15:42:17Z</time>
      </trkpt>
      <trkpt lat="46.35938" lon="-1.20442">
        <ele>3.5</ele>
        <time>2020-06-02T15:42:18Z</time>
      </trkpt>
      <trkpt lat="46.35937" lon="-1.20449">
        <ele>3.5</ele>
        <time>2020-06-02T15:42:19Z</time>
      </trkpt>
      <trkpt lat="46.35936" lon="-1.20458">
        <ele>3.5</ele>
        <time>2020-06-02T15:42:20Z</time>
      </trkpt>
      <trkpt lat="46.35935" lon="-1.20466">
        <ele>3.4</ele>
        <time>2020-06-02T15:42:21Z</time>
      </trkpt>
      <trkpt lat="46.35935" lon="-1.20475">
        <ele>3.4</ele>
        <time>2020-06-02T15:42:22Z</time>
      </trkpt>
      <trkpt lat="46.35934" lon="-1.20485">
        <ele>3.4</ele>
        <time>2020-06-02T15:42:23Z</time>
      </trkpt>
      <trkpt lat="46.35934" lon="-1.20494">
        <ele>3.4</ele>
        <time>2020-06-02T15:42:24Z</time>
      </trkpt>
      <trkpt lat="46.35933" lon="-1.20503">
        <ele>3.4</ele>
        <time>2020-06-02T15:42:25Z</time>
      </trkpt>
      <trkpt lat="46.35932" lon="-1.20511">
        <ele>3.4</ele>
        <time>2020-06-02T15:42:26Z</time>
      </trkpt>
      <trkpt lat="46.35932" lon="-1.20521">
        <ele>3.4</ele>
        <time>2020-06-02T15:42:27Z</time>
      </trkpt>
      <trkpt lat="46.35931" lon="-1.20531">
        <ele>3.3</ele>
        <time>2020-06-02T15:42:28Z</time>
      </trkpt>
      <trkpt lat="46.3593" lon="-1.2054">
        <ele>3.3</ele>
        <time>2020-06-02T15:42:29Z</time>
      </trkpt>
      <trkpt lat="46.35929" lon="-1.20551">
        <ele>3.3</ele>
        <time>2020-06-02T15:42:30Z</time>
      </trkpt>
      <trkpt lat="46.35928" lon="-1.2056">
        <ele>3.3</ele>
        <time>2020-06-02T15:42:31Z</time>
      </trkpt>
      <trkpt lat="46.35928" lon="-1.20569">
        <ele>3.3</ele>
        <time>2020-06-02T15:42:32Z</time>
      </trkpt>
      <trkpt lat="46.35927" lon="-1.20579">
        <ele>3.3</ele>
        <time>2020-06-02T15:42:33Z</time>
      </trkpt>
      <trkpt lat="46.35925" lon="-1.20588">
        <ele>3.3</ele>
        <time>2020-06-02T15:42:34Z</time>
      </trkpt>
      <trkpt lat="46.35924" lon="-1.20597">
        <ele>3.3</ele>
        <time>2020-06-02T15:42:35Z</time>
      </trkpt>
      <trkpt lat="46.35922" lon="-1.20606">
        <ele>3.3</ele>
        <time>2020-06-02T15:42:36Z</time>
      </trkpt>
      <trkpt lat="46.35922" lon="-1.20613">
        <ele>3.3</ele>
        <time>2020-06-02T15:42:37Z</time>
      </trkpt>
      <trkpt lat="46.35922" lon="-1.2062">
        <ele>3.3</ele>
        <time>2020-06-02T15:42:38Z</time>
      </trkpt>
      <trkpt lat="46.35921" lon="-1.20629">
        <ele>3.3</ele>
        <time>2020-06-02T15:42:39Z</time>
      </trkpt>
      <trkpt lat="46.35921" lon="-1.20638">
        <ele>3.3</ele>
        <time>2020-06-02T15:42:40Z</time>
      </trkpt>
      <trkpt lat="46.35921" lon="-1.20647">
        <ele>3.4</ele>
        <time>2020-06-02T15:42:41Z</time>
      </trkpt>
      <trkpt lat="46.35921" lon="-1.20656">
        <ele>3.4</ele>
        <time>2020-06-02T15:42:42Z</time>
      </trkpt>
      <trkpt lat="46.35921" lon="-1.20664">
        <ele>3.4</ele>
        <time>2020-06-02T15:42:43Z</time>
      </trkpt>
      <trkpt lat="46.35921" lon="-1.20671">
        <ele>3.5</ele>
        <time>2020-06-02T15:42:44Z</time>
      </trkpt>
      <trkpt lat="46.35921" lon="-1.20679">
        <ele>3.5</ele>
        <time>2020-06-02T15:42:45Z</time>
      </trkpt>
      <trkpt lat="46.35921" lon="-1.20687">
        <ele>3.5</ele>
        <time>2020-06-02T15:42:46Z</time>
      </trkpt>
      <trkpt lat="46.35921" lon="-1.20695">
        <ele>3.6</ele>
        <time>2020-06-02T15:42:47Z</time>
      </trkpt>
      <trkpt lat="46.35921" lon="-1.20703">
        <ele>3.6</ele>
        <time>2020-06-02T15:42:48Z</time>
      </trkpt>
      <trkpt lat="46.35921" lon="-1.2071">
        <ele>3.6</ele>
        <time>2020-06-02T15:42:49Z</time>
      </trkpt>
      <trkpt lat="46.35921" lon="-1.20719">
        <ele>3.6</ele>
        <time>2020-06-02T15:42:50Z</time>
      </trkpt>
      <trkpt lat="46.35922" lon="-1.20727">
        <ele>3.6</ele>
        <time>2020-06-02T15:42:51Z</time>
      </trkpt>
      <trkpt lat="46.35922" lon="-1.20736">
        <ele>3.6</ele>
        <time>2020-06-02T15:42:52Z</time>
      </trkpt>
      <trkpt lat="46.35922" lon="-1.20744">
        <ele>3.6</ele>
        <time>2020-06-02T15:42:53Z</time>
      </trkpt>
      <trkpt lat="46.35922" lon="-1.20753">
        <ele>3.6</ele>
        <time>2020-06-02T15:42:54Z</time>
      </trkpt>
      <trkpt lat="46.35922" lon="-1.20763">
        <ele>3.6</ele>
        <time>2020-06-02T15:42:55Z</time>
      </trkpt>
      <trkpt lat="46.35923" lon="-1.20772">
        <ele>3.6</ele>
        <time>2020-06-02T15:42:56Z</time>
      </trkpt>
      <trkpt lat="46.35923" lon="-1.20781">
        <ele>3.6</ele>
        <time>2020-06-02T15:42:57Z</time>
      </trkpt>
      <trkpt lat="46.35923" lon="-1.2079">
        <ele>3.6</ele>
        <time>2020-06-02T15:42:58Z</time>
      </trkpt>
      <trkpt lat="46.35924" lon="-1.20798">
        <ele>3.6</ele>
        <time>2020-06-02T15:42:59Z</time>
      </trkpt>
      <trkpt lat="46.35925" lon="-1.20807">
        <ele>3.5</ele>
        <time>2020-06-02T15:43:00Z</time>
      </trkpt>
      <trkpt lat="46.35926" lon="-1.20816">
        <ele>3.5</ele>
        <time>2020-06-02T15:43:01Z</time>
      </trkpt>
      <trkpt lat="46.35926" lon="-1.20824">
        <ele>3.5</ele>
        <time>2020-06-02T15:43:02Z</time>
      </trkpt>
      <trkpt lat="46.35927" lon="-1.20833">
        <ele>3.4</ele>
        <time>2020-06-02T15:43:03Z</time>
      </trkpt>
      <trkpt lat="46.35928" lon="-1.20841">
        <ele>3.4</ele>
        <time>2020-06-02T15:43:04Z</time>
      </trkpt>
      <trkpt lat="46.35929" lon="-1.20851">
        <ele>3.4</ele>
        <time>2020-06-02T15:43:05Z</time>
      </trkpt>
      <trkpt lat="46.35929" lon="-1.2086">
        <ele>3.4</ele>
        <time>2020-06-02T15:43:06Z</time>
      </trkpt>
      <trkpt lat="46.35929" lon="-1.20869">
        <ele>3.4</ele>
        <time>2020-06-02T15:43:07Z</time>
      </trkpt>
      <trkpt lat="46.35929" lon="-1.20878">
        <ele>3.4</ele>
        <time>2020-06-02T15:43:08Z</time>
      </trkpt>
      <trkpt lat="46.35929" lon="-1.20887">
        <ele>3.4</ele>
        <time>2020-06-02T15:43:09Z</time>
      </trkpt>
      <trkpt lat="46.3593" lon="-1.20896">
        <ele>3.4</ele>
        <time>2020-06-02T15:43:10Z</time>
      </trkpt>
      <trkpt lat="46.3593" lon="-1.20905">
        <ele>3.3</ele>
        <time>2020-06-02T15:43:11Z</time>
      </trkpt>
      <trkpt lat="46.3593" lon="-1.20913">
        <ele>3.3</ele>
        <time>2020-06-02T15:43:12Z</time>
      </trkpt>
      <trkpt lat="46.35931" lon="-1.20922">
        <ele>3.3</ele>
        <time>2020-06-02T15:43:13Z</time>
      </trkpt>
      <trkpt lat="46.35931" lon="-1.20931">
        <ele>3.3</ele>
        <time>2020-06-02T15:43:14Z</time>
      </trkpt>
      <trkpt lat="46.35932" lon="-1.20939">
        <ele>3.3</ele>
        <time>2020-06-02T15:43:15Z</time>
      </trkpt>
      <trkpt lat="46.35932" lon="-1.20948">
        <ele>3.3</ele>
        <time>2020-06-02T15:43:16Z</time>
      </trkpt>
      <trkpt lat="46.35933" lon="-1.20955">
        <ele>3.3</ele>
        <time>2020-06-02T15:43:17Z</time>
      </trkpt>
      <trkpt lat="46.35934" lon="-1.20964">
        <ele>3.3</ele>
        <time>2020-06-02T15:43:18Z</time>
      </trkpt>
      <trkpt lat="46.35935" lon="-1.20975">
        <ele>3.2</ele>
        <time>2020-06-02T15:43:19Z</time>
      </trkpt>
      <trkpt lat="46.35936" lon="-1.20984">
        <ele>3.2</ele>
        <time>2020-06-02T15:43:20Z</time>
      </trkpt>
      <trkpt lat="46.35936" lon="-1.20993">
        <ele>3.2</ele>
        <time>2020-06-02T15:43:21Z</time>
      </trkpt>
      <trkpt lat="46.35937" lon="-1.21002">
        <ele>3.2</ele>
        <time>2020-06-02T15:43:22Z</time>
      </trkpt>
      <trkpt lat="46.35938" lon="-1.21012">
        <ele>3.2</ele>
        <time>2020-06-02T15:43:23Z</time>
      </trkpt>
      <trkpt lat="46.35938" lon="-1.21021">
        <ele>3.1</ele>
        <time>2020-06-02T15:43:24Z</time>
      </trkpt>
      <trkpt lat="46.35938" lon="-1.2103">
        <ele>3.1</ele>
        <time>2020-06-02T15:43:25Z</time>
      </trkpt>
      <trkpt lat="46.35939" lon="-1.21039">
        <ele>3.1</ele>
        <time>2020-06-02T15:43:26Z</time>
      </trkpt>
      <trkpt lat="46.3594" lon="-1.21049">
        <ele>3.1</ele>
        <time>2020-06-02T15:43:27Z</time>
      </trkpt>
      <trkpt lat="46.35941" lon="-1.21056">
        <ele>3.1</ele>
        <time>2020-06-02T15:43:28Z</time>
      </trkpt>
      <trkpt lat="46.35942" lon="-1.21065">
        <ele>3.1</ele>
        <time>2020-06-02T15:43:29Z</time>
      </trkpt>
      <trkpt lat="46.35943" lon="-1.21073">
        <ele>3.1</ele>
        <time>2020-06-02T15:43:30Z</time>
      </trkpt>
      <trkpt lat="46.35943" lon="-1.21082">
        <ele>3.1</ele>
        <time>2020-06-02T15:43:31Z</time>
      </trkpt>
      <trkpt lat="46.35944" lon="-1.21092">
        <ele>3.1</ele>
        <time>2020-06-02T15:43:32Z</time>
      </trkpt>
      <trkpt lat="46.35944" lon="-1.21101">
        <ele>3.1</ele>
        <time>2020-06-02T15:43:33Z</time>
      </trkpt>
      <trkpt lat="46.35944" lon="-1.2111">
        <ele>3.1</ele>
        <time>2020-06-02T15:43:34Z</time>
      </trkpt>
      <trkpt lat="46.35944" lon="-1.21119">
        <ele>3.1</ele>
        <time>2020-06-02T15:43:35Z</time>
      </trkpt>
      <trkpt lat="46.35945" lon="-1.21127">
        <ele>3.2</ele>
        <time>2020-06-02T15:43:36Z</time>
      </trkpt>
      <trkpt lat="46.35945" lon="-1.21136">
        <ele>3.2</ele>
        <time>2020-06-02T15:43:37Z</time>
      </trkpt>
      <trkpt lat="46.35946" lon="-1.21145">
        <ele>3.2</ele>
        <time>2020-06-02T15:43:38Z</time>
      </trkpt>
      <trkpt lat="46.35946" lon="-1.21153">
        <ele>3.2</ele>
        <time>2020-06-02T15:43:39Z</time>
      </trkpt>
      <trkpt lat="46.35946" lon="-1.21162">
        <ele>3.3</ele>
        <time>2020-06-02T15:43:40Z</time>
      </trkpt>
      <trkpt lat="46.35946" lon="-1.21171">
        <ele>3.3</ele>
        <time>2020-06-02T15:43:41Z</time>
      </trkpt>
      <trkpt lat="46.35947" lon="-1.21181">
        <ele>3.3</ele>
        <time>2020-06-02T15:43:42Z</time>
      </trkpt>
      <trkpt lat="46.35947" lon="-1.21191">
        <ele>3.3</ele>
        <time>2020-06-02T15:43:43Z</time>
      </trkpt>
      <trkpt lat="46.35948" lon="-1.21199">
        <ele>3.2</ele>
        <time>2020-06-02T15:43:44Z</time>
      </trkpt>
      <trkpt lat="46.35948" lon="-1.21208">
        <ele>3.2</ele>
        <time>2020-06-02T15:43:45Z</time>
      </trkpt>
      <trkpt lat="46.35949" lon="-1.21215">
        <ele>3.2</ele>
        <time>2020-06-02T15:43:46Z</time>
      </trkpt>
      <trkpt lat="46.35949" lon="-1.21222">
        <ele>3.2</ele>
        <time>2020-06-02T15:43:47Z</time>
      </trkpt>
      <trkpt lat="46.3595" lon="-1.21231">
        <ele>3.2</ele>
        <time>2020-06-02T15:43:48Z</time>
      </trkpt>
      <trkpt lat="46.3595" lon="-1.21241">
        <ele>3.2</ele>
        <time>2020-06-02T15:43:49Z</time>
      </trkpt>
      <trkpt lat="46.3595" lon="-1.21252">
        <ele>3.2</ele>
        <time>2020-06-02T15:43:50Z</time>
      </trkpt>
      <trkpt lat="46.35952" lon="-1.21261">
        <ele>3.2</ele>
        <time>2020-06-02T15:43:51Z</time>
      </trkpt>
      <trkpt lat="46.35953" lon="-1.2127">
        <ele>3.2</ele>
        <time>2020-06-02T15:43:52Z</time>
      </trkpt>
      <trkpt lat="46.35954" lon="-1.21277">
        <ele>3.2</ele>
        <time>2020-06-02T15:43:53Z</time>
      </trkpt>
      <trkpt lat="46.35955" lon="-1.21284">
        <ele>3.2</ele>
        <time>2020-06-02T15:43:54Z</time>
      </trkpt>
      <trkpt lat="46.35956" lon="-1.21292">
        <ele>3.2</ele>
        <time>2020-06-02T15:43:55Z</time>
      </trkpt>
      <trkpt lat="46.35956" lon="-1.213">
        <ele>3.2</ele>
        <time>2020-06-02T15:43:56Z</time>
      </trkpt>
      <trkpt lat="46.35956" lon="-1.21308">
        <ele>3.2</ele>
        <time>2020-06-02T15:43:57Z</time>
      </trkpt>
      <trkpt lat="46.35956" lon="-1.21317">
        <ele>3.2</ele>
        <time>2020-06-02T15:43:58Z</time>
      </trkpt>
      <trkpt lat="46.35956" lon="-1.21326">
        <ele>3.3</ele>
        <time>2020-06-02T15:43:59Z</time>
      </trkpt>
      <trkpt lat="46.35956" lon="-1.21335">
        <ele>3.3</ele>
        <time>2020-06-02T15:44:00Z</time>
      </trkpt>
      <trkpt lat="46.35956" lon="-1.21344">
        <ele>3.3</ele>
        <time>2020-06-02T15:44:01Z</time>
      </trkpt>
      <trkpt lat="46.35956" lon="-1.21353">
        <ele>3.3</ele>
        <time>2020-06-02T15:44:02Z</time>
      </trkpt>
      <trkpt lat="46.35957" lon="-1.21362">
        <ele>3.3</ele>
        <time>2020-06-02T15:44:03Z</time>
      </trkpt>
      <trkpt lat="46.35958" lon="-1.21372">
        <ele>3.4</ele>
        <time>2020-06-02T15:44:04Z</time>
      </trkpt>
      <trkpt lat="46.35959" lon="-1.2138">
        <ele>3.4</ele>
        <time>2020-06-02T15:44:05Z</time>
      </trkpt>
      <trkpt lat="46.35959" lon="-1.21389">
        <ele>3.4</ele>
        <time>2020-06-02T15:44:06Z</time>
      </trkpt>
      <trkpt lat="46.3596" lon="-1.21398">
        <ele>3.4</ele>
        <time>2020-06-02T15:44:07Z</time>
      </trkpt>
      <trkpt lat="46.35961" lon="-1.21407">
        <ele>3.4</ele>
        <time>2020-06-02T15:44:08Z</time>
      </trkpt>
      <trkpt lat="46.35961" lon="-1.21415">
        <ele>3.4</ele>
        <time>2020-06-02T15:44:09Z</time>
      </trkpt>
      <trkpt lat="46.35961" lon="-1.21424">
        <ele>3.4</ele>
        <time>2020-06-02T15:44:10Z</time>
      </trkpt>
      <trkpt lat="46.35961" lon="-1.21432">
        <ele>3.4</ele>
        <time>2020-06-02T15:44:11Z</time>
      </trkpt>
      <trkpt lat="46.35962" lon="-1.21439">
        <ele>3.4</ele>
        <time>2020-06-02T15:44:12Z</time>
      </trkpt>
      <trkpt lat="46.35962" lon="-1.21447">
        <ele>3.4</ele>
        <time>2020-06-02T15:44:13Z</time>
      </trkpt>
      <trkpt lat="46.35963" lon="-1.21455">
        <ele>3.3</ele>
        <time>2020-06-02T15:44:14Z</time>
      </trkpt>
      <trkpt lat="46.35964" lon="-1.21462">
        <ele>3.3</ele>
        <time>2020-06-02T15:44:15Z</time>
      </trkpt>
      <trkpt lat="46.35964" lon="-1.2147">
        <ele>3.3</ele>
        <time>2020-06-02T15:44:16Z</time>
      </trkpt>
      <trkpt lat="46.35965" lon="-1.21478">
        <ele>3.3</ele>
        <time>2020-06-02T15:44:17Z</time>
      </trkpt>
      <trkpt lat="46.35965" lon="-1.21486">
        <ele>3.2</ele>
        <time>2020-06-02T15:44:18Z</time>
      </trkpt>
      <trkpt lat="46.35966" lon="-1.21495">
        <ele>3.2</ele>
        <time>2020-06-02T15:44:19Z</time>
      </trkpt>
      <trkpt lat="46.35966" lon="-1.21503">
        <ele>3.1</ele>
        <time>2020-06-02T15:44:20Z</time>
      </trkpt>
      <trkpt lat="46.35967" lon="-1.21512">
        <ele>3.1</ele>
        <time>2020-06-02T15:44:21Z</time>
      </trkpt>
      <trkpt lat="46.35967" lon="-1.2152">
        <ele>3.1</ele>
        <time>2020-06-02T15:44:22Z</time>
      </trkpt>
      <trkpt lat="46.35967" lon="-1.21527">
        <ele>3.1</ele>
        <time>2020-06-02T15:44:23Z</time>
      </trkpt>
      <trkpt lat="46.35968" lon="-1.21536">
        <ele>3.2</ele>
        <time>2020-06-02T15:44:24Z</time>
      </trkpt>
      <trkpt lat="46.35969" lon="-1.21543">
        <ele>3.2</ele>
        <time>2020-06-02T15:44:25Z</time>
      </trkpt>
      <trkpt lat="46.35969" lon="-1.21551">
        <ele>3.2</ele>
        <time>2020-06-02T15:44:26Z</time>
      </trkpt>
      <trkpt lat="46.35969" lon="-1.2156">
        <ele>3.3</ele>
        <time>2020-06-02T15:44:27Z</time>
      </trkpt>
      <trkpt lat="46.35969" lon="-1.21567">
        <ele>3.3</ele>
        <time>2020-06-02T15:44:28Z</time>
      </trkpt>
      <trkpt lat="46.3597" lon="-1.21575">
        <ele>3.4</ele>
        <time>2020-06-02T15:44:29Z</time>
      </trkpt>
      <trkpt lat="46.3597" lon="-1.21583">
        <ele>3.4</ele>
        <time>2020-06-02T15:44:30Z</time>
      </trkpt>
      <trkpt lat="46.3597" lon="-1.21591">
        <ele>3.5</ele>
        <time>2020-06-02T15:44:31Z</time>
      </trkpt>
      <trkpt lat="46.35971" lon="-1.21599">
        <ele>3.5</ele>
        <time>2020-06-02T15:44:32Z</time>
      </trkpt>
      <trkpt lat="46.35971" lon="-1.21607">
        <ele>3.5</ele>
        <time>2020-06-02T15:44:33Z</time>
      </trkpt>
      <trkpt lat="46.35971" lon="-1.21615">
        <ele>3.5</ele>
        <time>2020-06-02T15:44:34Z</time>
      </trkpt>
      <trkpt lat="46.35971" lon="-1.21622">
        <ele>3.6</ele>
        <time>2020-06-02T15:44:35Z</time>
      </trkpt>
      <trkpt lat="46.35971" lon="-1.2163">
        <ele>3.6</ele>
        <time>2020-06-02T15:44:36Z</time>
      </trkpt>
      <trkpt lat="46.35971" lon="-1.21637">
        <ele>3.6</ele>
        <time>2020-06-02T15:44:37Z</time>
      </trkpt>
      <trkpt lat="46.35971" lon="-1.21645">
        <ele>3.6</ele>
        <time>2020-06-02T15:44:38Z</time>
      </trkpt>
      <trkpt lat="46.35971" lon="-1.21653">
        <ele>3.6</ele>
        <time>2020-06-02T15:44:39Z</time>
      </trkpt>
      <trkpt lat="46.35971" lon="-1.2166">
        <ele>3.6</ele>
        <time>2020-06-02T15:44:40Z</time>
      </trkpt>
      <trkpt lat="46.35972" lon="-1.21666">
        <ele>3.7</ele>
        <time>2020-06-02T15:44:41Z</time>
      </trkpt>
      <trkpt lat="46.35972" lon="-1.21672">
        <ele>3.7</ele>
        <time>2020-06-02T15:44:42Z</time>
      </trkpt>
      <trkpt lat="46.35972" lon="-1.21677">
        <ele>3.7</ele>
        <time>2020-06-02T15:44:43Z</time>
      </trkpt>
      <trkpt lat="46.35971" lon="-1.21682">
        <ele>3.6</ele>
        <time>2020-06-02T15:44:44Z</time>
      </trkpt>
      <trkpt lat="46.35971" lon="-1.21683">
        <ele>3.6</ele>
        <time>2020-06-02T15:44:45Z</time>
      </trkpt>
      <trkpt lat="46.35971" lon="-1.21684">
        <ele>3.6</ele>
        <time>2020-06-02T15:44:46Z</time>
      </trkpt>
      <trkpt lat="46.35971" lon="-1.21684">
        <ele>3.5</ele>
        <time>2020-06-02T15:44:47Z</time>
      </trkpt>
      <trkpt lat="46.3597" lon="-1.21686">
        <ele>3.5</ele>
        <time>2020-06-02T15:44:48Z</time>
      </trkpt>
      <trkpt lat="46.35969" lon="-1.21687">
        <ele>3.5</ele>
        <time>2020-06-02T15:44:49Z</time>
      </trkpt>
      <trkpt lat="46.35969" lon="-1.21691">
        <ele>3.4</ele>
        <time>2020-06-02T15:44:50Z</time>
      </trkpt>
      <trkpt lat="46.35968" lon="-1.21693">
        <ele>3.4</ele>
        <time>2020-06-02T15:44:51Z</time>
      </trkpt>
      <trkpt lat="46.35965" lon="-1.21695">
        <ele>3.4</ele>
        <time>2020-06-02T15:44:52Z</time>
      </trkpt>
      <trkpt lat="46.35964" lon="-1.21695">
        <ele>3.4</ele>
        <time>2020-06-02T15:44:53Z</time>
      </trkpt>
      <trkpt lat="46.35959" lon="-1.21694">
        <ele>3.3</ele>
        <time>2020-06-02T15:44:54Z</time>
      </trkpt>
      <trkpt lat="46.35955" lon="-1.21692">
        <ele>3.3</ele>
        <time>2020-06-02T15:44:55Z</time>
      </trkpt>
      <trkpt lat="46.35952" lon="-1.2169">
        <ele>3.3</ele>
        <time>2020-06-02T15:44:56Z</time>
      </trkpt>
      <trkpt lat="46.35947" lon="-1.21688">
        <ele>3.3</ele>
        <time>2020-06-02T15:44:57Z</time>
      </trkpt>
      <trkpt lat="46.35943" lon="-1.21688">
        <ele>3.3</ele>
        <time>2020-06-02T15:44:58Z</time>
      </trkpt>
      <trkpt lat="46.35939" lon="-1.21687">
        <ele>3.3</ele>
        <time>2020-06-02T15:44:59Z</time>
      </trkpt>
      <trkpt lat="46.35935" lon="-1.21686">
        <ele>3.4</ele>
        <time>2020-06-02T15:45:00Z</time>
      </trkpt>
      <trkpt lat="46.35931" lon="-1.21685">
        <ele>3.4</ele>
        <time>2020-06-02T15:45:01Z</time>
      </trkpt>
      <trkpt lat="46.35927" lon="-1.21684">
        <ele>3.4</ele>
        <time>2020-06-02T15:45:02Z</time>
      </trkpt>
      <trkpt lat="46.35923" lon="-1.21681">
        <ele>3.4</ele>
        <time>2020-06-02T15:45:03Z</time>
      </trkpt>
      <trkpt lat="46.35919" lon="-1.2168">
        <ele>3.4</ele>
        <time>2020-06-02T15:45:04Z</time>
      </trkpt>
      <trkpt lat="46.35915" lon="-1.21678">
        <ele>3.4</ele>
        <time>2020-06-02T15:45:05Z</time>
      </trkpt>
      <trkpt lat="46.3591" lon="-1.21677">
        <ele>3.5</ele>
        <time>2020-06-02T15:45:06Z</time>
      </trkpt>
      <trkpt lat="46.35906" lon="-1.21675">
        <ele>3.5</ele>
        <time>2020-06-02T15:45:07Z</time>
      </trkpt>
      <trkpt lat="46.35902" lon="-1.21673">
        <ele>3.5</ele>
        <time>2020-06-02T15:45:08Z</time>
      </trkpt>
      <trkpt lat="46.35898" lon="-1.21673">
        <ele>3.5</ele>
        <time>2020-06-02T15:45:09Z</time>
      </trkpt>
      <trkpt lat="46.35893" lon="-1.21671">
        <ele>3.6</ele>
        <time>2020-06-02T15:45:10Z</time>
      </trkpt>
      <trkpt lat="46.35889" lon="-1.2167">
        <ele>3.6</ele>
        <time>2020-06-02T15:45:11Z</time>
      </trkpt>
      <trkpt lat="46.35884" lon="-1.21668">
        <ele>3.6</ele>
        <time>2020-06-02T15:45:12Z</time>
      </trkpt>
      <trkpt lat="46.3588" lon="-1.21666">
        <ele>3.7</ele>
        <time>2020-06-02T15:45:13Z</time>
      </trkpt>
      <trkpt lat="46.35875" lon="-1.21665">
        <ele>3.7</ele>
        <time>2020-06-02T15:45:14Z</time>
      </trkpt>
      <trkpt lat="46.35871" lon="-1.21663">
        <ele>3.7</ele>
        <time>2020-06-02T15:45:15Z</time>
      </trkpt>
      <trkpt lat="46.35866" lon="-1.21661">
        <ele>3.7</ele>
        <time>2020-06-02T15:45:16Z</time>
      </trkpt>
      <trkpt lat="46.35862" lon="-1.21659">
        <ele>3.7</ele>
        <time>2020-06-02T15:45:17Z</time>
      </trkpt>
      <trkpt lat="46.35858" lon="-1.21658">
        <ele>3.7</ele>
        <time>2020-06-02T15:45:18Z</time>
      </trkpt>
      <trkpt lat="46.35854" lon="-1.21656">
        <ele>3.8</ele>
        <time>2020-06-02T15:45:19Z</time>
      </trkpt>
      <trkpt lat="46.3585" lon="-1.21655">
        <ele>3.8</ele>
        <time>2020-06-02T15:45:20Z</time>
      </trkpt>
      <trkpt lat="46.35847" lon="-1.21654">
        <ele>3.8</ele>
        <time>2020-06-02T15:45:21Z</time>
      </trkpt>
      <trkpt lat="46.35843" lon="-1.21653">
        <ele>3.8</ele>
        <time>2020-06-02T15:45:22Z</time>
      </trkpt>
      <trkpt lat="46.35839" lon="-1.21651">
        <ele>3.9</ele>
        <time>2020-06-02T15:45:23Z</time>
      </trkpt>
      <trkpt lat="46.35835" lon="-1.21649">
        <ele>4</ele>
        <time>2020-06-02T15:45:24Z</time>
      </trkpt>
      <trkpt lat="46.35831" lon="-1.21647">
        <ele>4</ele>
        <time>2020-06-02T15:45:25Z</time>
      </trkpt>
      <trkpt lat="46.35827" lon="-1.21645">
        <ele>4.1</ele>
        <time>2020-06-02T15:45:26Z</time>
      </trkpt>
      <trkpt lat="46.35823" lon="-1.21642">
        <ele>4.2</ele>
        <time>2020-06-02T15:45:27Z</time>
      </trkpt>
      <trkpt lat="46.35819" lon="-1.21639">
        <ele>4.3</ele>
        <time>2020-06-02T15:45:28Z</time>
      </trkpt>
      <trkpt lat="46.35815" lon="-1.21639">
        <ele>4.4</ele>
        <time>2020-06-02T15:45:29Z</time>
      </trkpt>
      <trkpt lat="46.35811" lon="-1.21637">
        <ele>4.5</ele>
        <time>2020-06-02T15:45:30Z</time>
      </trkpt>
      <trkpt lat="46.35807" lon="-1.21635">
        <ele>4.5</ele>
        <time>2020-06-02T15:45:31Z</time>
      </trkpt>
      <trkpt lat="46.35804" lon="-1.21634">
        <ele>4.6</ele>
        <time>2020-06-02T15:45:32Z</time>
      </trkpt>
      <trkpt lat="46.358" lon="-1.21633">
        <ele>4.7</ele>
        <time>2020-06-02T15:45:33Z</time>
      </trkpt>
      <trkpt lat="46.35798" lon="-1.21633">
        <ele>4.7</ele>
        <time>2020-06-02T15:45:34Z</time>
      </trkpt>
      <trkpt lat="46.35799" lon="-1.21633">
        <ele>4.7</ele>
        <time>2020-06-02T15:45:35Z</time>
      </trkpt>
      <trkpt lat="46.35799" lon="-1.21634">
        <ele>4.7</ele>
        <time>2020-06-02T15:45:36Z</time>
      </trkpt>
      <trkpt lat="46.35799" lon="-1.21635">
        <ele>4.7</ele>
        <time>2020-06-02T15:45:37Z</time>
      </trkpt>
      <trkpt lat="46.35799" lon="-1.21636">
        <ele>4.7</ele>
        <time>2020-06-02T15:45:38Z</time>
      </trkpt>
      <trkpt lat="46.35799" lon="-1.21636">
        <ele>4.7</ele>
        <time>2020-06-02T15:45:39Z</time>
      </trkpt>
      <trkpt lat="46.35799" lon="-1.21637">
        <ele>4.8</ele>
        <time>2020-06-02T15:45:40Z</time>
      </trkpt>
      <trkpt lat="46.358" lon="-1.21638">
        <ele>4.8</ele>
        <time>2020-06-02T15:45:41Z</time>
      </trkpt>
      <trkpt lat="46.358" lon="-1.21639">
        <ele>4.8</ele>
        <time>2020-06-02T15:45:42Z</time>
      </trkpt>
      <trkpt lat="46.358" lon="-1.21641">
        <ele>4.8</ele>
        <time>2020-06-02T15:45:43Z</time>
      </trkpt>
      <trkpt lat="46.358" lon="-1.21643">
        <ele>4.8</ele>
        <time>2020-06-02T15:45:44Z</time>
      </trkpt>
      <trkpt lat="46.35799" lon="-1.21647">
        <ele>4.8</ele>
        <time>2020-06-02T15:45:45Z</time>
      </trkpt>
      <trkpt lat="46.35799" lon="-1.21649">
        <ele>4.8</ele>
        <time>2020-06-02T15:45:46Z</time>
      </trkpt>
      <trkpt lat="46.35798" lon="-1.2165">
        <ele>4.8</ele>
        <time>2020-06-02T15:45:47Z</time>
      </trkpt>
      <trkpt lat="46.35798" lon="-1.21651">
        <ele>4.8</ele>
        <time>2020-06-02T15:45:48Z</time>
      </trkpt>
      <trkpt lat="46.35797" lon="-1.21652">
        <ele>4.8</ele>
        <time>2020-06-02T15:45:49Z</time>
      </trkpt>
      <trkpt lat="46.35797" lon="-1.21653">
        <ele>4.8</ele>
        <time>2020-06-02T15:45:50Z</time>
      </trkpt>
      <trkpt lat="46.35797" lon="-1.21654">
        <ele>4.8</ele>
        <time>2020-06-02T15:45:51Z</time>
      </trkpt>
      <trkpt lat="46.35796" lon="-1.21655">
        <ele>4.8</ele>
        <time>2020-06-02T15:45:52Z</time>
      </trkpt>
      <trkpt lat="46.35796" lon="-1.21655">
        <ele>4.8</ele>
        <time>2020-06-02T15:45:53Z</time>
      </trkpt>
      <trkpt lat="46.35796" lon="-1.21655">
        <ele>4.8</ele>
        <time>2020-06-02T15:45:54Z</time>
      </trkpt>
      <trkpt lat="46.35796" lon="-1.21655">
        <ele>4.8</ele>
        <time>2020-06-02T15:45:55Z</time>
      </trkpt>
      <trkpt lat="46.35796" lon="-1.21655">
        <ele>4.8</ele>
        <time>2020-06-02T15:45:56Z</time>
      </trkpt>
      <trkpt lat="46.35796" lon="-1.21655">
        <ele>4.8</ele>
        <time>2020-06-02T15:45:57Z</time>
      </trkpt>
      <trkpt lat="46.35796" lon="-1.21655">
        <ele>4.8</ele>
        <time>2020-06-02T15:45:58Z</time>
      </trkpt>
      <trkpt lat="46.35796" lon="-1.21655">
        <ele>4.8</ele>
        <time>2020-06-02T15:45:59Z</time>
      </trkpt>
      <trkpt lat="46.35796" lon="-1.21655">
        <ele>4.8</ele>
        <time>2020-06-02T15:46:00Z</time>
      </trkpt>
      <trkpt lat="46.35796" lon="-1.21655">
        <ele>4.8</ele>
        <time>2020-06-02T15:46:01Z</time>
      </trkpt>
      <trkpt lat="46.35796" lon="-1.21655">
        <ele>4.8</ele>
        <time>2020-06-02T15:46:02Z</time>
      </trkpt>
      <trkpt lat="46.35796" lon="-1.21655">
        <ele>4.8</ele>
        <time>2020-06-02T15:46:03Z</time>
      </trkpt>
      <trkpt lat="46.35796" lon="-1.21655">
        <ele>4.8</ele>
        <time>2020-06-02T15:46:04Z</time>
      </trkpt>
      <trkpt lat="46.35796" lon="-1.21655">
        <ele>4.8</ele>
        <time>2020-06-02T15:46:05Z</time>
      </trkpt>
      <trkpt lat="46.35796" lon="-1.21655">
        <ele>4.8</ele>
        <time>2020-06-02T15:46:06Z</time>
      </trkpt>
      <trkpt lat="46.35796" lon="-1.21655">
        <ele>4.8</ele>
        <time>2020-06-02T15:46:07Z</time>
      </trkpt>
      <trkpt lat="46.35796" lon="-1.21655">
        <ele>4.8</ele>
        <time>2020-06-02T15:46:08Z</time>
      </trkpt>
      <trkpt lat="46.35796" lon="-1.21655">
        <ele>4.8</ele>
        <time>2020-06-02T15:46:09Z</time>
      </trkpt>
      <trkpt lat="46.35796" lon="-1.21655">
        <ele>4.8</ele>
        <time>2020-06-02T15:46:10Z</time>
      </trkpt>
      <trkpt lat="46.35796" lon="-1.21655">
        <ele>4.8</ele>
        <time>2020-06-02T15:46:11Z</time>
      </trkpt>
      <trkpt lat="46.35796" lon="-1.21655">
        <ele>4.8</ele>
        <time>2020-06-02T15:46:12Z</time>
      </trkpt>
      <trkpt lat="46.35796" lon="-1.21655">
        <ele>4.8</ele>
        <time>2020-06-02T15:46:13Z</time>
      </trkpt>
      <trkpt lat="46.35796" lon="-1.21655">
        <ele>4.8</ele>
        <time>2020-06-02T15:46:14Z</time>
      </trkpt>
      <trkpt lat="46.35796" lon="-1.21655">
        <ele>4.8</ele>
        <time>2020-06-02T15:46:15Z</time>
      </trkpt>
      <trkpt lat="46.35796" lon="-1.21655">
        <ele>4.8</ele>
        <time>2020-06-02T15:46:16Z</time>
      </trkpt>
      <trkpt lat="46.35796" lon="-1.21655">
        <ele>4.8</ele>
        <time>2020-06-02T15:46:17Z</time>
      </trkpt>
      <trkpt lat="46.35796" lon="-1.21655">
        <ele>4.8</ele>
        <time>2020-06-02T15:46:18Z</time>
      </trkpt>
      <trkpt lat="46.35796" lon="-1.21655">
        <ele>4.8</ele>
        <time>2020-06-02T15:46:19Z</time>
      </trkpt>
      <trkpt lat="46.35795" lon="-1.21655">
        <ele>4.8</ele>
        <time>2020-06-02T15:46:20Z</time>
      </trkpt>
      <trkpt lat="46.35795" lon="-1.21655">
        <ele>4.8</ele>
        <time>2020-06-02T15:46:21Z</time>
      </trkpt>
      <trkpt lat="46.35796" lon="-1.21655">
        <ele>4.8</ele>
        <time>2020-06-02T15:46:22Z</time>
      </trkpt>
      <trkpt lat="46.35796" lon="-1.21655">
        <ele>4.8</ele>
        <time>2020-06-02T15:46:23Z</time>
      </trkpt>
      <trkpt lat="46.35796" lon="-1.21655">
        <ele>4.8</ele>
        <time>2020-06-02T15:46:24Z</time>
      </trkpt>
      <trkpt lat="46.35795" lon="-1.21655">
        <ele>4.8</ele>
        <time>2020-06-02T15:46:25Z</time>
      </trkpt>
      <trkpt lat="46.35795" lon="-1.21655">
        <ele>4.8</ele>
        <time>2020-06-02T15:46:26Z</time>
      </trkpt>
      <trkpt lat="46.35795" lon="-1.21655">
        <ele>4.8</ele>
        <time>2020-06-02T15:46:27Z</time>
      </trkpt>
      <trkpt lat="46.35795" lon="-1.21656">
        <ele>4.8</ele>
        <time>2020-06-02T15:46:28Z</time>
      </trkpt>
      <trkpt lat="46.35795" lon="-1.21655">
        <ele>4.8</ele>
        <time>2020-06-02T15:46:29Z</time>
      </trkpt>
      <trkpt lat="46.35794" lon="-1.21655">
        <ele>4.8</ele>
        <time>2020-06-02T15:46:30Z</time>
      </trkpt>
      <trkpt lat="46.35794" lon="-1.21655">
        <ele>4.8</ele>
        <time>2020-06-02T15:46:31Z</time>
      </trkpt>
      <trkpt lat="46.35794" lon="-1.21655">
        <ele>4.8</ele>
        <time>2020-06-02T15:46:32Z</time>
      </trkpt>
      <trkpt lat="46.35795" lon="-1.21655">
        <ele>4.8</ele>
        <time>2020-06-02T15:46:33Z</time>
      </trkpt>
      <trkpt lat="46.35795" lon="-1.21655">
        <ele>4.8</ele>
        <time>2020-06-02T15:46:34Z</time>
      </trkpt>
      <trkpt lat="46.35795" lon="-1.21655">
        <ele>4.8</ele>
        <time>2020-06-02T15:46:35Z</time>
      </trkpt>
      <trkpt lat="46.35795" lon="-1.21655">
        <ele>4.8</ele>
        <time>2020-06-02T15:46:36Z</time>
      </trkpt>
      <trkpt lat="46.35795" lon="-1.21655">
        <ele>4.8</ele>
        <time>2020-06-02T15:46:37Z</time>
      </trkpt>
      <trkpt lat="46.35795" lon="-1.21655">
        <ele>4.8</ele>
        <time>2020-06-02T15:46:38Z</time>
      </trkpt>
      <trkpt lat="46.35795" lon="-1.21655">
        <ele>4.8</ele>
        <time>2020-06-02T15:46:39Z</time>
      </trkpt>
      <trkpt lat="46.35795" lon="-1.21655">
        <ele>4.8</ele>
        <time>2020-06-02T15:46:40Z</time>
      </trkpt>
      <trkpt lat="46.35795" lon="-1.21654">
        <ele>4.8</ele>
        <time>2020-06-02T15:46:41Z</time>
      </trkpt>
      <trkpt lat="46.35795" lon="-1.21654">
        <ele>4.8</ele>
        <time>2020-06-02T15:46:42Z</time>
      </trkpt>
      <trkpt lat="46.35795" lon="-1.21654">
        <ele>4.8</ele>
        <time>2020-06-02T15:46:43Z</time>
      </trkpt>
      <trkpt lat="46.35795" lon="-1.21654">
        <ele>4.8</ele>
        <time>2020-06-02T15:46:44Z</time>
      </trkpt>
      <trkpt lat="46.35795" lon="-1.21654">
        <ele>4.8</ele>
        <time>2020-06-02T15:46:45Z</time>
      </trkpt>
      <trkpt lat="46.35795" lon="-1.21654">
        <ele>4.8</ele>
        <time>2020-06-02T15:46:46Z</time>
      </trkpt>
      <trkpt lat="46.35795" lon="-1.21654">
        <ele>4.8</ele>
        <time>2020-06-02T15:46:47Z</time>
      </trkpt>
      <trkpt lat="46.35795" lon="-1.21654">
        <ele>4.8</ele>
        <time>2020-06-02T15:46:48Z</time>
      </trkpt>
      <trkpt lat="46.35795" lon="-1.21654">
        <ele>4.8</ele>
        <time>2020-06-02T15:46:49Z</time>
      </trkpt>
      <trkpt lat="46.35795" lon="-1.21654">
        <ele>4.8</ele>
        <time>2020-06-02T15:46:50Z</time>
      </trkpt>
      <trkpt lat="46.35795" lon="-1.21654">
        <ele>4.8</ele>
        <time>2020-06-02T15:46:51Z</time>
      </trkpt>
      <trkpt lat="46.35795" lon="-1.21654">
        <ele>4.8</ele>
        <time>2020-06-02T15:46:52Z</time>
      </trkpt>
      <trkpt lat="46.35795" lon="-1.21655">
        <ele>4.8</ele>
        <time>2020-06-02T15:46:53Z</time>
      </trkpt>
      <trkpt lat="46.35795" lon="-1.21655">
        <ele>4.8</ele>
        <time>2020-06-02T15:46:54Z</time>
      </trkpt>
      <trkpt lat="46.35795" lon="-1.21655">
        <ele>4.8</ele>
        <time>2020-06-02T15:46:55Z</time>
      </trkpt>
      <trkpt lat="46.35795" lon="-1.21655">
        <ele>4.8</ele>
        <time>2020-06-02T15:46:56Z</time>
      </trkpt>
      <trkpt lat="46.35795" lon="-1.21655">
        <ele>4.8</ele>
        <time>2020-06-02T15:46:57Z</time>
      </trkpt>
      <trkpt lat="46.35795" lon="-1.21655">
        <ele>4.8</ele>
        <time>2020-06-02T15:46:58Z</time>
      </trkpt>
      <trkpt lat="46.35795" lon="-1.21656">
        <ele>4.8</ele>
        <time>2020-06-02T15:46:59Z</time>
      </trkpt>
      <trkpt lat="46.35795" lon="-1.21657">
        <ele>4.8</ele>
        <time>2020-06-02T15:47:00Z</time>
      </trkpt>
      <trkpt lat="46.35795" lon="-1.21658">
        <ele>4.8</ele>
        <time>2020-06-02T15:47:01Z</time>
      </trkpt>
      <trkpt lat="46.35796" lon="-1.21658">
        <ele>4.8</ele>
        <time>2020-06-02T15:47:02Z</time>
      </trkpt>
      <trkpt lat="46.35796" lon="-1.21658">
        <ele>4.8</ele>
        <time>2020-06-02T15:47:03Z</time>
      </trkpt>
      <trkpt lat="46.35796" lon="-1.21658">
        <ele>4.8</ele>
        <time>2020-06-02T15:47:04Z</time>
      </trkpt>
      <trkpt lat="46.35796" lon="-1.21658">
        <ele>4.8</ele>
        <time>2020-06-02T15:47:05Z</time>
      </trkpt>
      <trkpt lat="46.35796" lon="-1.21658">
        <ele>4.8</ele>
        <time>2020-06-02T15:47:06Z</time>
      </trkpt>
      <trkpt lat="46.35796" lon="-1.21658">
        <ele>4.8</ele>
        <time>2020-06-02T15:47:07Z</time>
      </trkpt>
      <trkpt lat="46.35797" lon="-1.21658">
        <ele>4.8</ele>
        <time>2020-06-02T15:47:08Z</time>
      </trkpt>
      <trkpt lat="46.35796" lon="-1.21657">
        <ele>4.8</ele>
        <time>2020-06-02T15:47:09Z</time>
      </trkpt>
      <trkpt lat="46.35796" lon="-1.21658">
        <ele>4.8</ele>
        <time>2020-06-02T15:47:10Z</time>
      </trkpt>
      <trkpt lat="46.35796" lon="-1.21658">
        <ele>4.8</ele>
        <time>2020-06-02T15:47:11Z</time>
      </trkpt>
      <trkpt lat="46.35796" lon="-1.21658">
        <ele>4.8</ele>
        <time>2020-06-02T15:47:12Z</time>
      </trkpt>
      <trkpt lat="46.35796" lon="-1.21658">
        <ele>4.8</ele>
        <time>2020-06-02T15:47:13Z</time>
      </trkpt>
      <trkpt lat="46.35796" lon="-1.21659">
        <ele>4.8</ele>
        <time>2020-06-02T15:47:14Z</time>
      </trkpt>
      <trkpt lat="46.35796" lon="-1.21659">
        <ele>4.8</ele>
        <time>2020-06-02T15:47:15Z</time>
      </trkpt>
      <trkpt lat="46.35796" lon="-1.21659">
        <ele>4.8</ele>
        <time>2020-06-02T15:47:16Z</time>
      </trkpt>
      <trkpt lat="46.35796" lon="-1.21659">
        <ele>4.8</ele>
        <time>2020-06-02T15:47:17Z</time>
      </trkpt>
      <trkpt lat="46.35796" lon="-1.2166">
        <ele>4.8</ele>
        <time>2020-06-02T15:47:18Z</time>
      </trkpt>
      <trkpt lat="46.35796" lon="-1.2166">
        <ele>4.8</ele>
        <time>2020-06-02T15:47:19Z</time>
      </trkpt>
      <trkpt lat="46.35796" lon="-1.2166">
        <ele>4.8</ele>
        <time>2020-06-02T15:47:20Z</time>
      </trkpt>
      <trkpt lat="46.35796" lon="-1.2166">
        <ele>4.8</ele>
        <time>2020-06-02T15:47:21Z</time>
      </trkpt>
      <trkpt lat="46.35796" lon="-1.21661">
        <ele>4.8</ele>
        <time>2020-06-02T15:47:22Z</time>
      </trkpt>
      <trkpt lat="46.35796" lon="-1.21661">
        <ele>4.8</ele>
        <time>2020-06-02T15:47:23Z</time>
      </trkpt>
      <trkpt lat="46.35796" lon="-1.21661">
        <ele>4.8</ele>
        <time>2020-06-02T15:47:24Z</time>
      </trkpt>
      <trkpt lat="46.35796" lon="-1.21661">
        <ele>4.8</ele>
        <time>2020-06-02T15:47:25Z</time>
      </trkpt>
      <trkpt lat="46.35796" lon="-1.21662">
        <ele>4.8</ele>
        <time>2020-06-02T15:47:26Z</time>
      </trkpt>
      <trkpt lat="46.35796" lon="-1.21662">
        <ele>4.8</ele>
        <time>2020-06-02T15:47:27Z</time>
      </trkpt>
      <trkpt lat="46.35797" lon="-1.21662">
        <ele>4.8</ele>
        <time>2020-06-02T15:47:28Z</time>
      </trkpt>
      <trkpt lat="46.35797" lon="-1.21662">
        <ele>4.8</ele>
        <time>2020-06-02T15:47:29Z</time>
      </trkpt>
      <trkpt lat="46.35797" lon="-1.21663">
        <ele>4.8</ele>
        <time>2020-06-02T15:47:30Z</time>
      </trkpt>
      <trkpt lat="46.35797" lon="-1.21663">
        <ele>4.8</ele>
        <time>2020-06-02T15:47:31Z</time>
      </trkpt>
      <trkpt lat="46.35797" lon="-1.21663">
        <ele>4.8</ele>
        <time>2020-06-02T15:47:32Z</time>
      </trkpt>
      <trkpt lat="46.35797" lon="-1.21663">
        <ele>4.8</ele>
        <time>2020-06-02T15:47:33Z</time>
      </trkpt>
      <trkpt lat="46.35796" lon="-1.21666">
        <ele>4.8</ele>
        <time>2020-06-02T15:47:34Z</time>
      </trkpt>
      <trkpt lat="46.35795" lon="-1.21668">
        <ele>4.8</ele>
        <time>2020-06-02T15:47:35Z</time>
      </trkpt>
      <trkpt lat="46.35793" lon="-1.21672">
        <ele>4.8</ele>
        <time>2020-06-02T15:47:36Z</time>
      </trkpt>
      <trkpt lat="46.35793" lon="-1.21674">
        <ele>4.8</ele>
        <time>2020-06-02T15:47:37Z</time>
      </trkpt>
      <trkpt lat="46.35792" lon="-1.21677">
        <ele>4.8</ele>
        <time>2020-06-02T15:47:38Z</time>
      </trkpt>
      <trkpt lat="46.35792" lon="-1.21679">
        <ele>4.8</ele>
        <time>2020-06-02T15:47:39Z</time>
      </trkpt>
      <trkpt lat="46.35796" lon="-1.21682">
        <ele>4.8</ele>
        <time>2020-06-02T15:47:40Z</time>
      </trkpt>
      <trkpt lat="46.35797" lon="-1.21683">
        <ele>4.7</ele>
        <time>2020-06-02T15:47:41Z</time>
      </trkpt>
      <trkpt lat="46.35799" lon="-1.21685">
        <ele>4.7</ele>
        <time>2020-06-02T15:47:42Z</time>
      </trkpt>
      <trkpt lat="46.35801" lon="-1.21687">
        <ele>4.7</ele>
        <time>2020-06-02T15:47:43Z</time>
      </trkpt>
      <trkpt lat="46.35804" lon="-1.21691">
        <ele>4.7</ele>
        <time>2020-06-02T15:47:44Z</time>
      </trkpt>
      <trkpt lat="46.35806" lon="-1.21693">
        <ele>4.7</ele>
        <time>2020-06-02T15:47:45Z</time>
      </trkpt>
      <trkpt lat="46.35808" lon="-1.21696">
        <ele>4.7</ele>
        <time>2020-06-02T15:47:46Z</time>
      </trkpt>
      <trkpt lat="46.35811" lon="-1.21697">
        <ele>4.7</ele>
        <time>2020-06-02T15:47:47Z</time>
      </trkpt>
      <trkpt lat="46.35814" lon="-1.21699">
        <ele>4.6</ele>
        <time>2020-06-02T15:47:48Z</time>
      </trkpt>
      <trkpt lat="46.35818" lon="-1.21701">
        <ele>4.6</ele>
        <time>2020-06-02T15:47:49Z</time>
      </trkpt>
      <trkpt lat="46.35821" lon="-1.21703">
        <ele>4.6</ele>
        <time>2020-06-02T15:47:50Z</time>
      </trkpt>
      <trkpt lat="46.35823" lon="-1.21706">
        <ele>4.6</ele>
        <time>2020-06-02T15:47:51Z</time>
      </trkpt>
      <trkpt lat="46.35826" lon="-1.21708">
        <ele>4.6</ele>
        <time>2020-06-02T15:47:52Z</time>
      </trkpt>
      <trkpt lat="46.35828" lon="-1.21711">
        <ele>4.6</ele>
        <time>2020-06-02T15:47:53Z</time>
      </trkpt>
      <trkpt lat="46.35831" lon="-1.21712">
        <ele>4.5</ele>
        <time>2020-06-02T15:47:54Z</time>
      </trkpt>
      <trkpt lat="46.35833" lon="-1.21714">
        <ele>4.5</ele>
        <time>2020-06-02T15:47:55Z</time>
      </trkpt>
      <trkpt lat="46.35836" lon="-1.21717">
        <ele>4.5</ele>
        <time>2020-06-02T15:47:56Z</time>
      </trkpt>
      <trkpt lat="46.35838" lon="-1.2172">
        <ele>4.4</ele>
        <time>2020-06-02T15:47:57Z</time>
      </trkpt>
      <trkpt lat="46.3584" lon="-1.21723">
        <ele>4.4</ele>
        <time>2020-06-02T15:47:58Z</time>
      </trkpt>
      <trkpt lat="46.35842" lon="-1.21726">
        <ele>4.3</ele>
        <time>2020-06-02T15:47:59Z</time>
      </trkpt>
      <trkpt lat="46.35844" lon="-1.21729">
        <ele>4.3</ele>
        <time>2020-06-02T15:48:00Z</time>
      </trkpt>
      <trkpt lat="46.35846" lon="-1.21733">
        <ele>4.2</ele>
        <time>2020-06-02T15:48:01Z</time>
      </trkpt>
      <trkpt lat="46.35848" lon="-1.21736">
        <ele>4.2</ele>
        <time>2020-06-02T15:48:02Z</time>
      </trkpt>
      <trkpt lat="46.35851" lon="-1.21741">
        <ele>4.2</ele>
        <time>2020-06-02T15:48:03Z</time>
      </trkpt>
      <trkpt lat="46.35852" lon="-1.21743">
        <ele>4.1</ele>
        <time>2020-06-02T15:48:04Z</time>
      </trkpt>
      <trkpt lat="46.35854" lon="-1.21746">
        <ele>4.1</ele>
        <time>2020-06-02T15:48:05Z</time>
      </trkpt>
      <trkpt lat="46.35857" lon="-1.2175">
        <ele>4.1</ele>
        <time>2020-06-02T15:48:06Z</time>
      </trkpt>
      <trkpt lat="46.35859" lon="-1.21755">
        <ele>4</ele>
        <time>2020-06-02T15:48:07Z</time>
      </trkpt>
      <trkpt lat="46.35862" lon="-1.21759">
        <ele>4</ele>
        <time>2020-06-02T15:48:08Z</time>
      </trkpt>
      <trkpt lat="46.35864" lon="-1.21762">
        <ele>4</ele>
        <time>2020-06-02T15:48:09Z</time>
      </trkpt>
      <trkpt lat="46.35866" lon="-1.21766">
        <ele>4</ele>
        <time>2020-06-02T15:48:10Z</time>
      </trkpt>
      <trkpt lat="46.35869" lon="-1.21771">
        <ele>3.9</ele>
        <time>2020-06-02T15:48:11Z</time>
      </trkpt>
      <trkpt lat="46.35872" lon="-1.21775">
        <ele>3.9</ele>
        <time>2020-06-02T15:48:12Z</time>
      </trkpt>
      <trkpt lat="46.35875" lon="-1.21779">
        <ele>3.9</ele>
        <time>2020-06-02T15:48:13Z</time>
      </trkpt>
      <trkpt lat="46.35878" lon="-1.21783">
        <ele>3.9</ele>
        <time>2020-06-02T15:48:14Z</time>
      </trkpt>
      <trkpt lat="46.3588" lon="-1.21787">
        <ele>3.9</ele>
        <time>2020-06-02T15:48:15Z</time>
      </trkpt>
      <trkpt lat="46.35883" lon="-1.21792">
        <ele>3.9</ele>
        <time>2020-06-02T15:48:16Z</time>
      </trkpt>
      <trkpt lat="46.35885" lon="-1.21797">
        <ele>3.9</ele>
        <time>2020-06-02T15:48:17Z</time>
      </trkpt>
      <trkpt lat="46.35889" lon="-1.21801">
        <ele>3.9</ele>
        <time>2020-06-02T15:48:18Z</time>
      </trkpt>
      <trkpt lat="46.35891" lon="-1.21804">
        <ele>3.9</ele>
        <time>2020-06-02T15:48:19Z</time>
      </trkpt>
      <trkpt lat="46.35894" lon="-1.21809">
        <ele>3.9</ele>
        <time>2020-06-02T15:48:20Z</time>
      </trkpt>
      <trkpt lat="46.35897" lon="-1.21812">
        <ele>3.9</ele>
        <time>2020-06-02T15:48:21Z</time>
      </trkpt>
      <trkpt lat="46.35899" lon="-1.21816">
        <ele>3.9</ele>
        <time>2020-06-02T15:48:22Z</time>
      </trkpt>
      <trkpt lat="46.35902" lon="-1.2182">
        <ele>4</ele>
        <time>2020-06-02T15:48:23Z</time>
      </trkpt>
      <trkpt lat="46.35903" lon="-1.21824">
        <ele>4</ele>
        <time>2020-06-02T15:48:24Z</time>
      </trkpt>
      <trkpt lat="46.35906" lon="-1.21828">
        <ele>4</ele>
        <time>2020-06-02T15:48:25Z</time>
      </trkpt>
      <trkpt lat="46.35908" lon="-1.21833">
        <ele>4</ele>
        <time>2020-06-02T15:48:26Z</time>
      </trkpt>
      <trkpt lat="46.3591" lon="-1.21837">
        <ele>3.9</ele>
        <time>2020-06-02T15:48:27Z</time>
      </trkpt>
      <trkpt lat="46.35911" lon="-1.21841">
        <ele>3.9</ele>
        <time>2020-06-02T15:48:28Z</time>
      </trkpt>
      <trkpt lat="46.35913" lon="-1.21844">
        <ele>3.8</ele>
        <time>2020-06-02T15:48:29Z</time>
      </trkpt>
      <trkpt lat="46.35915" lon="-1.21847">
        <ele>3.8</ele>
        <time>2020-06-02T15:48:30Z</time>
      </trkpt>
      <trkpt lat="46.35917" lon="-1.2185">
        <ele>3.8</ele>
        <time>2020-06-02T15:48:31Z</time>
      </trkpt>
      <trkpt lat="46.3592" lon="-1.21853">
        <ele>3.7</ele>
        <time>2020-06-02T15:48:32Z</time>
      </trkpt>
      <trkpt lat="46.35921" lon="-1.21857">
        <ele>3.6</ele>
        <time>2020-06-02T15:48:33Z</time>
      </trkpt>
      <trkpt lat="46.35923" lon="-1.2186">
        <ele>3.6</ele>
        <time>2020-06-02T15:48:34Z</time>
      </trkpt>
      <trkpt lat="46.35925" lon="-1.21864">
        <ele>3.5</ele>
        <time>2020-06-02T15:48:35Z</time>
      </trkpt>
      <trkpt lat="46.35927" lon="-1.21867">
        <ele>3.4</ele>
        <time>2020-06-02T15:48:36Z</time>
      </trkpt>
      <trkpt lat="46.35928" lon="-1.21872">
        <ele>3.3</ele>
        <time>2020-06-02T15:48:37Z</time>
      </trkpt>
      <trkpt lat="46.35926" lon="-1.21877">
        <ele>3.3</ele>
        <time>2020-06-02T15:48:38Z</time>
      </trkpt>
      <trkpt lat="46.35923" lon="-1.21881">
        <ele>3.2</ele>
        <time>2020-06-02T15:48:39Z</time>
      </trkpt>
      <trkpt lat="46.3592" lon="-1.21884">
        <ele>3.2</ele>
        <time>2020-06-02T15:48:40Z</time>
      </trkpt>
      <trkpt lat="46.35917" lon="-1.21887">
        <ele>3.2</ele>
        <time>2020-06-02T15:48:41Z</time>
      </trkpt>
      <trkpt lat="46.35914" lon="-1.21891">
        <ele>3.2</ele>
        <time>2020-06-02T15:48:42Z</time>
      </trkpt>
      <trkpt lat="46.35911" lon="-1.21894">
        <ele>3.2</ele>
        <time>2020-06-02T15:48:43Z</time>
      </trkpt>
      <trkpt lat="46.35908" lon="-1.21897">
        <ele>3.2</ele>
        <time>2020-06-02T15:48:44Z</time>
      </trkpt>
      <trkpt lat="46.35905" lon="-1.21902">
        <ele>3.1</ele>
        <time>2020-06-02T15:48:45Z</time>
      </trkpt>
      <trkpt lat="46.35903" lon="-1.21905">
        <ele>3.1</ele>
        <time>2020-06-02T15:48:46Z</time>
      </trkpt>
      <trkpt lat="46.35899" lon="-1.21909">
        <ele>3.1</ele>
        <time>2020-06-02T15:48:47Z</time>
      </trkpt>
      <trkpt lat="46.35896" lon="-1.21913">
        <ele>3.1</ele>
        <time>2020-06-02T15:48:48Z</time>
      </trkpt>
      <trkpt lat="46.35893" lon="-1.21918">
        <ele>3.1</ele>
        <time>2020-06-02T15:48:49Z</time>
      </trkpt>
      <trkpt lat="46.35891" lon="-1.21924">
        <ele>3.1</ele>
        <time>2020-06-02T15:48:50Z</time>
      </trkpt>
      <trkpt lat="46.35889" lon="-1.2193">
        <ele>3.1</ele>
        <time>2020-06-02T15:48:51Z</time>
      </trkpt>
      <trkpt lat="46.35887" lon="-1.21937">
        <ele>3.1</ele>
        <time>2020-06-02T15:48:52Z</time>
      </trkpt>
      <trkpt lat="46.35886" lon="-1.21943">
        <ele>3.1</ele>
        <time>2020-06-02T15:48:53Z</time>
      </trkpt>
      <trkpt lat="46.35884" lon="-1.21949">
        <ele>3.1</ele>
        <time>2020-06-02T15:48:54Z</time>
      </trkpt>
      <trkpt lat="46.35882" lon="-1.21956">
        <ele>3.1</ele>
        <time>2020-06-02T15:48:55Z</time>
      </trkpt>
      <trkpt lat="46.35881" lon="-1.21963">
        <ele>3.1</ele>
        <time>2020-06-02T15:48:56Z</time>
      </trkpt>
      <trkpt lat="46.3588" lon="-1.2197">
        <ele>3.1</ele>
        <time>2020-06-02T15:48:57Z</time>
      </trkpt>
      <trkpt lat="46.35879" lon="-1.21976">
        <ele>3.1</ele>
        <time>2020-06-02T15:48:58Z</time>
      </trkpt>
      <trkpt lat="46.35877" lon="-1.21983">
        <ele>3.1</ele>
        <time>2020-06-02T15:48:59Z</time>
      </trkpt>
      <trkpt lat="46.35874" lon="-1.21988">
        <ele>3.1</ele>
        <time>2020-06-02T15:49:00Z</time>
      </trkpt>
      <trkpt lat="46.35872" lon="-1.21994">
        <ele>3.1</ele>
        <time>2020-06-02T15:49:01Z</time>
      </trkpt>
      <trkpt lat="46.3587" lon="-1.22001">
        <ele>3.1</ele>
        <time>2020-06-02T15:49:02Z</time>
      </trkpt>
      <trkpt lat="46.35868" lon="-1.22007">
        <ele>3.1</ele>
        <time>2020-06-02T15:49:03Z</time>
      </trkpt>
      <trkpt lat="46.35866" lon="-1.22013">
        <ele>3.1</ele>
        <time>2020-06-02T15:49:04Z</time>
      </trkpt>
      <trkpt lat="46.35865" lon="-1.2202">
        <ele>3.1</ele>
        <time>2020-06-02T15:49:05Z</time>
      </trkpt>
      <trkpt lat="46.35863" lon="-1.22027">
        <ele>3.2</ele>
        <time>2020-06-02T15:49:06Z</time>
      </trkpt>
      <trkpt lat="46.35861" lon="-1.22033">
        <ele>3.2</ele>
        <time>2020-06-02T15:49:07Z</time>
      </trkpt>
      <trkpt lat="46.35859" lon="-1.2204">
        <ele>3.2</ele>
        <time>2020-06-02T15:49:08Z</time>
      </trkpt>
      <trkpt lat="46.35857" lon="-1.22046">
        <ele>3.2</ele>
        <time>2020-06-02T15:49:09Z</time>
      </trkpt>
      <trkpt lat="46.35855" lon="-1.22051">
        <ele>3.2</ele>
        <time>2020-06-02T15:49:10Z</time>
      </trkpt>
      <trkpt lat="46.35853" lon="-1.22056">
        <ele>3.2</ele>
        <time>2020-06-02T15:49:11Z</time>
      </trkpt>
      <trkpt lat="46.35851" lon="-1.22061">
        <ele>3.2</ele>
        <time>2020-06-02T15:49:12Z</time>
      </trkpt>
      <trkpt lat="46.35848" lon="-1.22067">
        <ele>3.2</ele>
        <time>2020-06-02T15:49:13Z</time>
      </trkpt>
      <trkpt lat="46.35846" lon="-1.22073">
        <ele>3.2</ele>
        <time>2020-06-02T15:49:14Z</time>
      </trkpt>
      <trkpt lat="46.35843" lon="-1.2208">
        <ele>3.2</ele>
        <time>2020-06-02T15:49:15Z</time>
      </trkpt>
      <trkpt lat="46.35841" lon="-1.22086">
        <ele>3.2</ele>
        <time>2020-06-02T15:49:16Z</time>
      </trkpt>
      <trkpt lat="46.35839" lon="-1.22094">
        <ele>3.2</ele>
        <time>2020-06-02T15:49:17Z</time>
      </trkpt>
      <trkpt lat="46.35836" lon="-1.221">
        <ele>3.2</ele>
        <time>2020-06-02T15:49:18Z</time>
      </trkpt>
      <trkpt lat="46.35834" lon="-1.22108">
        <ele>3.2</ele>
        <time>2020-06-02T15:49:19Z</time>
      </trkpt>
      <trkpt lat="46.35831" lon="-1.22115">
        <ele>3.2</ele>
        <time>2020-06-02T15:49:20Z</time>
      </trkpt>
      <trkpt lat="46.35828" lon="-1.22123">
        <ele>3.2</ele>
        <time>2020-06-02T15:49:21Z</time>
      </trkpt>
      <trkpt lat="46.35825" lon="-1.2213">
        <ele>3.2</ele>
        <time>2020-06-02T15:49:22Z</time>
      </trkpt>
      <trkpt lat="46.35822" lon="-1.22137">
        <ele>3.2</ele>
        <time>2020-06-02T15:49:23Z</time>
      </trkpt>
      <trkpt lat="46.35819" lon="-1.22144">
        <ele>3.2</ele>
        <time>2020-06-02T15:49:24Z</time>
      </trkpt>
      <trkpt lat="46.35815" lon="-1.22152">
        <ele>3.2</ele>
        <time>2020-06-02T15:49:25Z</time>
      </trkpt>
      <trkpt lat="46.35811" lon="-1.2216">
        <ele>3.2</ele>
        <time>2020-06-02T15:49:26Z</time>
      </trkpt>
      <trkpt lat="46.35807" lon="-1.22168">
        <ele>3.2</ele>
        <time>2020-06-02T15:49:27Z</time>
      </trkpt>
      <trkpt lat="46.35804" lon="-1.22177">
        <ele>3.2</ele>
        <time>2020-06-02T15:49:28Z</time>
      </trkpt>
      <trkpt lat="46.358" lon="-1.22185">
        <ele>3.1</ele>
        <time>2020-06-02T15:49:29Z</time>
      </trkpt>
      <trkpt lat="46.35797" lon="-1.22192">
        <ele>3.1</ele>
        <time>2020-06-02T15:49:30Z</time>
      </trkpt>
      <trkpt lat="46.35794" lon="-1.222">
        <ele>3.1</ele>
        <time>2020-06-02T15:49:31Z</time>
      </trkpt>
      <trkpt lat="46.3579" lon="-1.22208">
        <ele>3.1</ele>
        <time>2020-06-02T15:49:32Z</time>
      </trkpt>
      <trkpt lat="46.35787" lon="-1.22216">
        <ele>3.1</ele>
        <time>2020-06-02T15:49:33Z</time>
      </trkpt>
      <trkpt lat="46.35784" lon="-1.22224">
        <ele>3</ele>
        <time>2020-06-02T15:49:34Z</time>
      </trkpt>
      <trkpt lat="46.3578" lon="-1.22232">
        <ele>3</ele>
        <time>2020-06-02T15:49:35Z</time>
      </trkpt>
      <trkpt lat="46.35777" lon="-1.22242">
        <ele>3</ele>
        <time>2020-06-02T15:49:36Z</time>
      </trkpt>
      <trkpt lat="46.35773" lon="-1.2225">
        <ele>3</ele>
        <time>2020-06-02T15:49:37Z</time>
      </trkpt>
      <trkpt lat="46.3577" lon="-1.22257">
        <ele>3.1</ele>
        <time>2020-06-02T15:49:38Z</time>
      </trkpt>
      <trkpt lat="46.35767" lon="-1.22264">
        <ele>3.1</ele>
        <time>2020-06-02T15:49:39Z</time>
      </trkpt>
      <trkpt lat="46.35764" lon="-1.22273">
        <ele>3.1</ele>
        <time>2020-06-02T15:49:40Z</time>
      </trkpt>
      <trkpt lat="46.35762" lon="-1.2228">
        <ele>3</ele>
        <time>2020-06-02T15:49:41Z</time>
      </trkpt>
      <trkpt lat="46.35759" lon="-1.22289">
        <ele>3</ele>
        <time>2020-06-02T15:49:42Z</time>
      </trkpt>
      <trkpt lat="46.35757" lon="-1.22297">
        <ele>3</ele>
        <time>2020-06-02T15:49:43Z</time>
      </trkpt>
      <trkpt lat="46.35755" lon="-1.22305">
        <ele>3</ele>
        <time>2020-06-02T15:49:44Z</time>
      </trkpt>
      <trkpt lat="46.35752" lon="-1.22313">
        <ele>3</ele>
        <time>2020-06-02T15:49:45Z</time>
      </trkpt>
      <trkpt lat="46.3575" lon="-1.22322">
        <ele>3</ele>
        <time>2020-06-02T15:49:46Z</time>
      </trkpt>
      <trkpt lat="46.35748" lon="-1.2233">
        <ele>3</ele>
        <time>2020-06-02T15:49:47Z</time>
      </trkpt>
      <trkpt lat="46.35745" lon="-1.22339">
        <ele>3</ele>
        <time>2020-06-02T15:49:48Z</time>
      </trkpt>
      <trkpt lat="46.35743" lon="-1.22347">
        <ele>2.9</ele>
        <time>2020-06-02T15:49:49Z</time>
      </trkpt>
      <trkpt lat="46.35741" lon="-1.22355">
        <ele>2.9</ele>
        <time>2020-06-02T15:49:50Z</time>
      </trkpt>
      <trkpt lat="46.35738" lon="-1.22364">
        <ele>2.9</ele>
        <time>2020-06-02T15:49:51Z</time>
      </trkpt>
      <trkpt lat="46.35736" lon="-1.22374">
        <ele>2.9</ele>
        <time>2020-06-02T15:49:52Z</time>
      </trkpt>
      <trkpt lat="46.35734" lon="-1.22382">
        <ele>2.9</ele>
        <time>2020-06-02T15:49:53Z</time>
      </trkpt>
      <trkpt lat="46.35731" lon="-1.2239">
        <ele>2.9</ele>
        <time>2020-06-02T15:49:54Z</time>
      </trkpt>
      <trkpt lat="46.35728" lon="-1.22399">
        <ele>2.8</ele>
        <time>2020-06-02T15:49:55Z</time>
      </trkpt>
      <trkpt lat="46.35726" lon="-1.22409">
        <ele>2.8</ele>
        <time>2020-06-02T15:49:56Z</time>
      </trkpt>
      <trkpt lat="46.35724" lon="-1.22417">
        <ele>2.8</ele>
        <time>2020-06-02T15:49:57Z</time>
      </trkpt>
      <trkpt lat="46.35721" lon="-1.22427">
        <ele>2.8</ele>
        <time>2020-06-02T15:49:58Z</time>
      </trkpt>
      <trkpt lat="46.35719" lon="-1.22435">
        <ele>2.8</ele>
        <time>2020-06-02T15:49:59Z</time>
      </trkpt>
      <trkpt lat="46.35716" lon="-1.22443">
        <ele>2.8</ele>
        <time>2020-06-02T15:50:00Z</time>
      </trkpt>
      <trkpt lat="46.35714" lon="-1.22452">
        <ele>2.7</ele>
        <time>2020-06-02T15:50:01Z</time>
      </trkpt>
      <trkpt lat="46.35711" lon="-1.2246">
        <ele>2.7</ele>
        <time>2020-06-02T15:50:02Z</time>
      </trkpt>
      <trkpt lat="46.35709" lon="-1.22469">
        <ele>2.7</ele>
        <time>2020-06-02T15:50:03Z</time>
      </trkpt>
      <trkpt lat="46.35706" lon="-1.22477">
        <ele>2.7</ele>
        <time>2020-06-02T15:50:04Z</time>
      </trkpt>
      <trkpt lat="46.35704" lon="-1.22486">
        <ele>2.7</ele>
        <time>2020-06-02T15:50:05Z</time>
      </trkpt>
      <trkpt lat="46.35701" lon="-1.22495">
        <ele>2.7</ele>
        <time>2020-06-02T15:50:06Z</time>
      </trkpt>
      <trkpt lat="46.35698" lon="-1.22503">
        <ele>2.7</ele>
        <time>2020-06-02T15:50:07Z</time>
      </trkpt>
      <trkpt lat="46.35695" lon="-1.22512">
        <ele>2.7</ele>
        <time>2020-06-02T15:50:08Z</time>
      </trkpt>
      <trkpt lat="46.35693" lon="-1.2252">
        <ele>2.7</ele>
        <time>2020-06-02T15:50:09Z</time>
      </trkpt>
      <trkpt lat="46.3569" lon="-1.22529">
        <ele>2.7</ele>
        <time>2020-06-02T15:50:10Z</time>
      </trkpt>
      <trkpt lat="46.35688" lon="-1.22538">
        <ele>2.7</ele>
        <time>2020-06-02T15:50:11Z</time>
      </trkpt>
      <trkpt lat="46.35685" lon="-1.22547">
        <ele>2.7</ele>
        <time>2020-06-02T15:50:12Z</time>
      </trkpt>
      <trkpt lat="46.35683" lon="-1.22556">
        <ele>2.6</ele>
        <time>2020-06-02T15:50:13Z</time>
      </trkpt>
      <trkpt lat="46.3568" lon="-1.22565">
        <ele>2.6</ele>
        <time>2020-06-02T15:50:14Z</time>
      </trkpt>
      <trkpt lat="46.35678" lon="-1.22574">
        <ele>2.6</ele>
        <time>2020-06-02T15:50:15Z</time>
      </trkpt>
      <trkpt lat="46.35675" lon="-1.22582">
        <ele>2.6</ele>
        <time>2020-06-02T15:50:16Z</time>
      </trkpt>
      <trkpt lat="46.35673" lon="-1.22591">
        <ele>2.6</ele>
        <time>2020-06-02T15:50:17Z</time>
      </trkpt>
      <trkpt lat="46.3567" lon="-1.226">
        <ele>2.6</ele>
        <time>2020-06-02T15:50:18Z</time>
      </trkpt>
      <trkpt lat="46.35668" lon="-1.22609">
        <ele>2.6</ele>
        <time>2020-06-02T15:50:19Z</time>
      </trkpt>
      <trkpt lat="46.35665" lon="-1.22617">
        <ele>2.6</ele>
        <time>2020-06-02T15:50:20Z</time>
      </trkpt>
      <trkpt lat="46.35662" lon="-1.22626">
        <ele>2.6</ele>
        <time>2020-06-02T15:50:21Z</time>
      </trkpt>
      <trkpt lat="46.35659" lon="-1.22634">
        <ele>2.6</ele>
        <time>2020-06-02T15:50:22Z</time>
      </trkpt>
      <trkpt lat="46.35657" lon="-1.22643">
        <ele>2.6</ele>
        <time>2020-06-02T15:50:23Z</time>
      </trkpt>
      <trkpt lat="46.35654" lon="-1.22653">
        <ele>2.5</ele>
        <time>2020-06-02T15:50:24Z</time>
      </trkpt>
      <trkpt lat="46.35653" lon="-1.22662">
        <ele>2.5</ele>
        <time>2020-06-02T15:50:25Z</time>
      </trkpt>
      <trkpt lat="46.3565" lon="-1.22671">
        <ele>2.5</ele>
        <time>2020-06-02T15:50:26Z</time>
      </trkpt>
      <trkpt lat="46.35647" lon="-1.2268">
        <ele>2.5</ele>
        <time>2020-06-02T15:50:27Z</time>
      </trkpt>
      <trkpt lat="46.35644" lon="-1.22689">
        <ele>2.6</ele>
        <time>2020-06-02T15:50:28Z</time>
      </trkpt>
      <trkpt lat="46.35642" lon="-1.22697">
        <ele>2.6</ele>
        <time>2020-06-02T15:50:29Z</time>
      </trkpt>
      <trkpt lat="46.35639" lon="-1.22706">
        <ele>2.6</ele>
        <time>2020-06-02T15:50:30Z</time>
      </trkpt>
      <trkpt lat="46.35636" lon="-1.22714">
        <ele>2.6</ele>
        <time>2020-06-02T15:50:31Z</time>
      </trkpt>
      <trkpt lat="46.35634" lon="-1.22723">
        <ele>2.6</ele>
        <time>2020-06-02T15:50:32Z</time>
      </trkpt>
      <trkpt lat="46.35632" lon="-1.22731">
        <ele>2.7</ele>
        <time>2020-06-02T15:50:33Z</time>
      </trkpt>
      <trkpt lat="46.3563" lon="-1.2274">
        <ele>2.9</ele>
        <time>2020-06-02T15:50:34Z</time>
      </trkpt>
      <trkpt lat="46.35628" lon="-1.22748">
        <ele>3</ele>
        <time>2020-06-02T15:50:35Z</time>
      </trkpt>
      <trkpt lat="46.35627" lon="-1.22757">
        <ele>3</ele>
        <time>2020-06-02T15:50:36Z</time>
      </trkpt>
      <trkpt lat="46.35625" lon="-1.22766">
        <ele>3</ele>
        <time>2020-06-02T15:50:37Z</time>
      </trkpt>
      <trkpt lat="46.35623" lon="-1.22775">
        <ele>3</ele>
        <time>2020-06-02T15:50:38Z</time>
      </trkpt>
      <trkpt lat="46.35621" lon="-1.22783">
        <ele>3</ele>
        <time>2020-06-02T15:50:39Z</time>
      </trkpt>
      <trkpt lat="46.35619" lon="-1.22791">
        <ele>3</ele>
        <time>2020-06-02T15:50:40Z</time>
      </trkpt>
      <trkpt lat="46.35616" lon="-1.228">
        <ele>3</ele>
        <time>2020-06-02T15:50:41Z</time>
      </trkpt>
      <trkpt lat="46.35614" lon="-1.22808">
        <ele>3</ele>
        <time>2020-06-02T15:50:42Z</time>
      </trkpt>
      <trkpt lat="46.35612" lon="-1.22816">
        <ele>3</ele>
        <time>2020-06-02T15:50:43Z</time>
      </trkpt>
      <trkpt lat="46.35609" lon="-1.22824">
        <ele>3</ele>
        <time>2020-06-02T15:50:44Z</time>
      </trkpt>
      <trkpt lat="46.35606" lon="-1.22832">
        <ele>3</ele>
        <time>2020-06-02T15:50:45Z</time>
      </trkpt>
      <trkpt lat="46.35604" lon="-1.2284">
        <ele>3</ele>
        <time>2020-06-02T15:50:46Z</time>
      </trkpt>
      <trkpt lat="46.35602" lon="-1.22848">
        <ele>3</ele>
        <time>2020-06-02T15:50:47Z</time>
      </trkpt>
      <trkpt lat="46.356" lon="-1.22856">
        <ele>3</ele>
        <time>2020-06-02T15:50:48Z</time>
      </trkpt>
      <trkpt lat="46.35598" lon="-1.22864">
        <ele>3</ele>
        <time>2020-06-02T15:50:49Z</time>
      </trkpt>
      <trkpt lat="46.35596" lon="-1.22872">
        <ele>3</ele>
        <time>2020-06-02T15:50:50Z</time>
      </trkpt>
      <trkpt lat="46.35594" lon="-1.2288">
        <ele>3</ele>
        <time>2020-06-02T15:50:51Z</time>
      </trkpt>
      <trkpt lat="46.35591" lon="-1.22887">
        <ele>3</ele>
        <time>2020-06-02T15:50:52Z</time>
      </trkpt>
      <trkpt lat="46.35589" lon="-1.22893">
        <ele>3</ele>
        <time>2020-06-02T15:50:53Z</time>
      </trkpt>
      <trkpt lat="46.35587" lon="-1.22899">
        <ele>3</ele>
        <time>2020-06-02T15:50:54Z</time>
      </trkpt>
      <trkpt lat="46.35585" lon="-1.22906">
        <ele>3</ele>
        <time>2020-06-02T15:50:55Z</time>
      </trkpt>
      <trkpt lat="46.35584" lon="-1.22913">
        <ele>3</ele>
        <time>2020-06-02T15:50:56Z</time>
      </trkpt>
      <trkpt lat="46.35582" lon="-1.22919">
        <ele>3</ele>
        <time>2020-06-02T15:50:57Z</time>
      </trkpt>
      <trkpt lat="46.35581" lon="-1.22926">
        <ele>3</ele>
        <time>2020-06-02T15:50:58Z</time>
      </trkpt>
      <trkpt lat="46.35578" lon="-1.22932">
        <ele>3</ele>
        <time>2020-06-02T15:50:59Z</time>
      </trkpt>
      <trkpt lat="46.35575" lon="-1.22938">
        <ele>3</ele>
        <time>2020-06-02T15:51:00Z</time>
      </trkpt>
      <trkpt lat="46.35573" lon="-1.22945">
        <ele>3</ele>
        <time>2020-06-02T15:51:01Z</time>
      </trkpt>
      <trkpt lat="46.35571" lon="-1.22952">
        <ele>3</ele>
        <time>2020-06-02T15:51:02Z</time>
      </trkpt>
      <trkpt lat="46.35569" lon="-1.22959">
        <ele>3</ele>
        <time>2020-06-02T15:51:03Z</time>
      </trkpt>
      <trkpt lat="46.35566" lon="-1.22966">
        <ele>3.1</ele>
        <time>2020-06-02T15:51:04Z</time>
      </trkpt>
      <trkpt lat="46.35565" lon="-1.22973">
        <ele>3.1</ele>
        <time>2020-06-02T15:51:05Z</time>
      </trkpt>
      <trkpt lat="46.35563" lon="-1.2298">
        <ele>3.1</ele>
        <time>2020-06-02T15:51:06Z</time>
      </trkpt>
      <trkpt lat="46.35562" lon="-1.22987">
        <ele>3.1</ele>
        <time>2020-06-02T15:51:07Z</time>
      </trkpt>
      <trkpt lat="46.3556" lon="-1.22994">
        <ele>3.1</ele>
        <time>2020-06-02T15:51:08Z</time>
      </trkpt>
      <trkpt lat="46.35558" lon="-1.23">
        <ele>3.1</ele>
        <time>2020-06-02T15:51:09Z</time>
      </trkpt>
      <trkpt lat="46.35557" lon="-1.23007">
        <ele>3.1</ele>
        <time>2020-06-02T15:51:10Z</time>
      </trkpt>
      <trkpt lat="46.35555" lon="-1.23014">
        <ele>3.1</ele>
        <time>2020-06-02T15:51:11Z</time>
      </trkpt>
      <trkpt lat="46.35553" lon="-1.23021">
        <ele>3.1</ele>
        <time>2020-06-02T15:51:12Z</time>
      </trkpt>
      <trkpt lat="46.3555" lon="-1.23028">
        <ele>3.1</ele>
        <time>2020-06-02T15:51:13Z</time>
      </trkpt>
      <trkpt lat="46.35548" lon="-1.23035">
        <ele>3.1</ele>
        <time>2020-06-02T15:51:14Z</time>
      </trkpt>
      <trkpt lat="46.35546" lon="-1.23041">
        <ele>3.1</ele>
        <time>2020-06-02T15:51:15Z</time>
      </trkpt>
      <trkpt lat="46.35544" lon="-1.23048">
        <ele>3.1</ele>
        <time>2020-06-02T15:51:16Z</time>
      </trkpt>
      <trkpt lat="46.35543" lon="-1.23055">
        <ele>3.1</ele>
        <time>2020-06-02T15:51:17Z</time>
      </trkpt>
      <trkpt lat="46.35541" lon="-1.23062">
        <ele>3.1</ele>
        <time>2020-06-02T15:51:18Z</time>
      </trkpt>
      <trkpt lat="46.35539" lon="-1.23069">
        <ele>3.1</ele>
        <time>2020-06-02T15:51:19Z</time>
      </trkpt>
      <trkpt lat="46.35537" lon="-1.23077">
        <ele>3.1</ele>
        <time>2020-06-02T15:51:20Z</time>
      </trkpt>
      <trkpt lat="46.35535" lon="-1.23084">
        <ele>3.1</ele>
        <time>2020-06-02T15:51:21Z</time>
      </trkpt>
      <trkpt lat="46.35533" lon="-1.23091">
        <ele>3.1</ele>
        <time>2020-06-02T15:51:22Z</time>
      </trkpt>
      <trkpt lat="46.35531" lon="-1.23099">
        <ele>3.1</ele>
        <time>2020-06-02T15:51:23Z</time>
      </trkpt>
      <trkpt lat="46.35529" lon="-1.23107">
        <ele>3.1</ele>
        <time>2020-06-02T15:51:24Z</time>
      </trkpt>
      <trkpt lat="46.35527" lon="-1.23116">
        <ele>3.1</ele>
        <time>2020-06-02T15:51:25Z</time>
      </trkpt>
      <trkpt lat="46.35526" lon="-1.23126">
        <ele>3.1</ele>
        <time>2020-06-02T15:51:26Z</time>
      </trkpt>
      <trkpt lat="46.35524" lon="-1.23135">
        <ele>3.1</ele>
        <time>2020-06-02T15:51:27Z</time>
      </trkpt>
      <trkpt lat="46.35522" lon="-1.23144">
        <ele>3.1</ele>
        <time>2020-06-02T15:51:28Z</time>
      </trkpt>
      <trkpt lat="46.3552" lon="-1.23153">
        <ele>3.1</ele>
        <time>2020-06-02T15:51:29Z</time>
      </trkpt>
      <trkpt lat="46.35519" lon="-1.23162">
        <ele>3.1</ele>
        <time>2020-06-02T15:51:30Z</time>
      </trkpt>
      <trkpt lat="46.35517" lon="-1.2317">
        <ele>3.1</ele>
        <time>2020-06-02T15:51:31Z</time>
      </trkpt>
      <trkpt lat="46.35514" lon="-1.23178">
        <ele>3.1</ele>
        <time>2020-06-02T15:51:32Z</time>
      </trkpt>
      <trkpt lat="46.35512" lon="-1.23186">
        <ele>3.1</ele>
        <time>2020-06-02T15:51:33Z</time>
      </trkpt>
      <trkpt lat="46.3551" lon="-1.23195">
        <ele>3.1</ele>
        <time>2020-06-02T15:51:34Z</time>
      </trkpt>
      <trkpt lat="46.35508" lon="-1.23203">
        <ele>3.1</ele>
        <time>2020-06-02T15:51:35Z</time>
      </trkpt>
      <trkpt lat="46.35505" lon="-1.23211">
        <ele>3.1</ele>
        <time>2020-06-02T15:51:36Z</time>
      </trkpt>
      <trkpt lat="46.35503" lon="-1.23219">
        <ele>3.1</ele>
        <time>2020-06-02T15:51:37Z</time>
      </trkpt>
      <trkpt lat="46.35502" lon="-1.23227">
        <ele>3.1</ele>
        <time>2020-06-02T15:51:38Z</time>
      </trkpt>
      <trkpt lat="46.355" lon="-1.23236">
        <ele>3.1</ele>
        <time>2020-06-02T15:51:39Z</time>
      </trkpt>
      <trkpt lat="46.35498" lon="-1.23244">
        <ele>3.1</ele>
        <time>2020-06-02T15:51:40Z</time>
      </trkpt>
      <trkpt lat="46.35496" lon="-1.23253">
        <ele>3.1</ele>
        <time>2020-06-02T15:51:41Z</time>
      </trkpt>
      <trkpt lat="46.35494" lon="-1.23261">
        <ele>3.1</ele>
        <time>2020-06-02T15:51:42Z</time>
      </trkpt>
      <trkpt lat="46.35491" lon="-1.2327">
        <ele>3.1</ele>
        <time>2020-06-02T15:51:43Z</time>
      </trkpt>
      <trkpt lat="46.35489" lon="-1.23279">
        <ele>3.1</ele>
        <time>2020-06-02T15:51:44Z</time>
      </trkpt>
      <trkpt lat="46.35487" lon="-1.23288">
        <ele>3.1</ele>
        <time>2020-06-02T15:51:45Z</time>
      </trkpt>
      <trkpt lat="46.35485" lon="-1.23296">
        <ele>3.1</ele>
        <time>2020-06-02T15:51:46Z</time>
      </trkpt>
      <trkpt lat="46.35483" lon="-1.23305">
        <ele>3.1</ele>
        <time>2020-06-02T15:51:47Z</time>
      </trkpt>
      <trkpt lat="46.3548" lon="-1.23314">
        <ele>3</ele>
        <time>2020-06-02T15:51:48Z</time>
      </trkpt>
      <trkpt lat="46.35478" lon="-1.23322">
        <ele>3</ele>
        <time>2020-06-02T15:51:49Z</time>
      </trkpt>
      <trkpt lat="46.35476" lon="-1.23331">
        <ele>3</ele>
        <time>2020-06-02T15:51:50Z</time>
      </trkpt>
      <trkpt lat="46.35473" lon="-1.2334">
        <ele>3</ele>
        <time>2020-06-02T15:51:51Z</time>
      </trkpt>
      <trkpt lat="46.3547" lon="-1.23349">
        <ele>3</ele>
        <time>2020-06-02T15:51:52Z</time>
      </trkpt>
      <trkpt lat="46.35468" lon="-1.23357">
        <ele>3</ele>
        <time>2020-06-02T15:51:53Z</time>
      </trkpt>
      <trkpt lat="46.35465" lon="-1.23365">
        <ele>3</ele>
        <time>2020-06-02T15:51:54Z</time>
      </trkpt>
      <trkpt lat="46.35462" lon="-1.23374">
        <ele>3</ele>
        <time>2020-06-02T15:51:55Z</time>
      </trkpt>
      <trkpt lat="46.35459" lon="-1.23382">
        <ele>3</ele>
        <time>2020-06-02T15:51:56Z</time>
      </trkpt>
      <trkpt lat="46.35457" lon="-1.23391">
        <ele>3</ele>
        <time>2020-06-02T15:51:57Z</time>
      </trkpt>
      <trkpt lat="46.35453" lon="-1.234">
        <ele>2.9</ele>
        <time>2020-06-02T15:51:58Z</time>
      </trkpt>
      <trkpt lat="46.3545" lon="-1.23408">
        <ele>2.9</ele>
        <time>2020-06-02T15:51:59Z</time>
      </trkpt>
      <trkpt lat="46.35447" lon="-1.23416">
        <ele>2.9</ele>
        <time>2020-06-02T15:52:00Z</time>
      </trkpt>
      <trkpt lat="46.35444" lon="-1.23424">
        <ele>2.9</ele>
        <time>2020-06-02T15:52:01Z</time>
      </trkpt>
      <trkpt lat="46.35441" lon="-1.23432">
        <ele>2.9</ele>
        <time>2020-06-02T15:52:02Z</time>
      </trkpt>
      <trkpt lat="46.35438" lon="-1.2344">
        <ele>2.9</ele>
        <time>2020-06-02T15:52:03Z</time>
      </trkpt>
      <trkpt lat="46.35435" lon="-1.23448">
        <ele>2.9</ele>
        <time>2020-06-02T15:52:04Z</time>
      </trkpt>
      <trkpt lat="46.35433" lon="-1.23456">
        <ele>2.9</ele>
        <time>2020-06-02T15:52:05Z</time>
      </trkpt>
      <trkpt lat="46.3543" lon="-1.23463">
        <ele>2.9</ele>
        <time>2020-06-02T15:52:06Z</time>
      </trkpt>
      <trkpt lat="46.35426" lon="-1.2347">
        <ele>2.9</ele>
        <time>2020-06-02T15:52:07Z</time>
      </trkpt>
      <trkpt lat="46.35422" lon="-1.23476">
        <ele>2.9</ele>
        <time>2020-06-02T15:52:08Z</time>
      </trkpt>
      <trkpt lat="46.35418" lon="-1.23482">
        <ele>2.9</ele>
        <time>2020-06-02T15:52:09Z</time>
      </trkpt>
      <trkpt lat="46.35414" lon="-1.23488">
        <ele>2.9</ele>
        <time>2020-06-02T15:52:10Z</time>
      </trkpt>
      <trkpt lat="46.3541" lon="-1.23495">
        <ele>2.8</ele>
        <time>2020-06-02T15:52:11Z</time>
      </trkpt>
      <trkpt lat="46.35407" lon="-1.23502">
        <ele>2.8</ele>
        <time>2020-06-02T15:52:12Z</time>
      </trkpt>
      <trkpt lat="46.35404" lon="-1.2351">
        <ele>2.8</ele>
        <time>2020-06-02T15:52:13Z</time>
      </trkpt>
      <trkpt lat="46.35402" lon="-1.23519">
        <ele>2.8</ele>
        <time>2020-06-02T15:52:14Z</time>
      </trkpt>
      <trkpt lat="46.354" lon="-1.23527">
        <ele>2.8</ele>
        <time>2020-06-02T15:52:15Z</time>
      </trkpt>
      <trkpt lat="46.35397" lon="-1.23535">
        <ele>2.8</ele>
        <time>2020-06-02T15:52:16Z</time>
      </trkpt>
      <trkpt lat="46.35395" lon="-1.23543">
        <ele>2.8</ele>
        <time>2020-06-02T15:52:17Z</time>
      </trkpt>
      <trkpt lat="46.35393" lon="-1.23553">
        <ele>2.8</ele>
        <time>2020-06-02T15:52:18Z</time>
      </trkpt>
      <trkpt lat="46.3539" lon="-1.23562">
        <ele>2.8</ele>
        <time>2020-06-02T15:52:19Z</time>
      </trkpt>
      <trkpt lat="46.35387" lon="-1.23572">
        <ele>2.8</ele>
        <time>2020-06-02T15:52:20Z</time>
      </trkpt>
      <trkpt lat="46.35384" lon="-1.23581">
        <ele>2.8</ele>
        <time>2020-06-02T15:52:21Z</time>
      </trkpt>
      <trkpt lat="46.35382" lon="-1.23591">
        <ele>2.9</ele>
        <time>2020-06-02T15:52:22Z</time>
      </trkpt>
      <trkpt lat="46.35379" lon="-1.236">
        <ele>2.9</ele>
        <time>2020-06-02T15:52:23Z</time>
      </trkpt>
      <trkpt lat="46.35376" lon="-1.2361">
        <ele>2.9</ele>
        <time>2020-06-02T15:52:24Z</time>
      </trkpt>
      <trkpt lat="46.35373" lon="-1.23619">
        <ele>2.9</ele>
        <time>2020-06-02T15:52:25Z</time>
      </trkpt>
      <trkpt lat="46.3537" lon="-1.23629">
        <ele>2.9</ele>
        <time>2020-06-02T15:52:26Z</time>
      </trkpt>
      <trkpt lat="46.35368" lon="-1.23639">
        <ele>2.9</ele>
        <time>2020-06-02T15:52:27Z</time>
      </trkpt>
      <trkpt lat="46.35366" lon="-1.23649">
        <ele>2.9</ele>
        <time>2020-06-02T15:52:28Z</time>
      </trkpt>
      <trkpt lat="46.35363" lon="-1.23659">
        <ele>2.9</ele>
        <time>2020-06-02T15:52:29Z</time>
      </trkpt>
      <trkpt lat="46.3536" lon="-1.23669">
        <ele>2.9</ele>
        <time>2020-06-02T15:52:30Z</time>
      </trkpt>
      <trkpt lat="46.35357" lon="-1.23678">
        <ele>2.9</ele>
        <time>2020-06-02T15:52:31Z</time>
      </trkpt>
      <trkpt lat="46.35355" lon="-1.23688">
        <ele>3</ele>
        <time>2020-06-02T15:52:32Z</time>
      </trkpt>
      <trkpt lat="46.35352" lon="-1.23698">
        <ele>3</ele>
        <time>2020-06-02T15:52:33Z</time>
      </trkpt>
      <trkpt lat="46.35349" lon="-1.23706">
        <ele>3</ele>
        <time>2020-06-02T15:52:34Z</time>
      </trkpt>
      <trkpt lat="46.35346" lon="-1.23715">
        <ele>3.1</ele>
        <time>2020-06-02T15:52:35Z</time>
      </trkpt>
      <trkpt lat="46.35344" lon="-1.23725">
        <ele>3.1</ele>
        <time>2020-06-02T15:52:36Z</time>
      </trkpt>
      <trkpt lat="46.35341" lon="-1.23734">
        <ele>3.1</ele>
        <time>2020-06-02T15:52:37Z</time>
      </trkpt>
      <trkpt lat="46.35338" lon="-1.23742">
        <ele>3.1</ele>
        <time>2020-06-02T15:52:38Z</time>
      </trkpt>
      <trkpt lat="46.35334" lon="-1.23751">
        <ele>3.1</ele>
        <time>2020-06-02T15:52:39Z</time>
      </trkpt>
      <trkpt lat="46.35332" lon="-1.2376">
        <ele>3.2</ele>
        <time>2020-06-02T15:52:40Z</time>
      </trkpt>
      <trkpt lat="46.35329" lon="-1.23769">
        <ele>3.2</ele>
        <time>2020-06-02T15:52:41Z</time>
      </trkpt>
      <trkpt lat="46.35326" lon="-1.23778">
        <ele>3.1</ele>
        <time>2020-06-02T15:52:42Z</time>
      </trkpt>
      <trkpt lat="46.35323" lon="-1.23787">
        <ele>3.1</ele>
        <time>2020-06-02T15:52:43Z</time>
      </trkpt>
      <trkpt lat="46.3532" lon="-1.23796">
        <ele>3.1</ele>
        <time>2020-06-02T15:52:44Z</time>
      </trkpt>
      <trkpt lat="46.35318" lon="-1.23805">
        <ele>3.1</ele>
        <time>2020-06-02T15:52:45Z</time>
      </trkpt>
      <trkpt lat="46.35315" lon="-1.23814">
        <ele>3.1</ele>
        <time>2020-06-02T15:52:46Z</time>
      </trkpt>
      <trkpt lat="46.35313" lon="-1.23822">
        <ele>3.1</ele>
        <time>2020-06-02T15:52:47Z</time>
      </trkpt>
      <trkpt lat="46.3531" lon="-1.23831">
        <ele>3.1</ele>
        <time>2020-06-02T15:52:48Z</time>
      </trkpt>
      <trkpt lat="46.35307" lon="-1.2384">
        <ele>3.1</ele>
        <time>2020-06-02T15:52:49Z</time>
      </trkpt>
      <trkpt lat="46.35304" lon="-1.23848">
        <ele>3.1</ele>
        <time>2020-06-02T15:52:50Z</time>
      </trkpt>
      <trkpt lat="46.35302" lon="-1.23857">
        <ele>3.1</ele>
        <time>2020-06-02T15:52:51Z</time>
      </trkpt>
      <trkpt lat="46.35299" lon="-1.23866">
        <ele>3.1</ele>
        <time>2020-06-02T15:52:52Z</time>
      </trkpt>
      <trkpt lat="46.35296" lon="-1.23874">
        <ele>3.1</ele>
        <time>2020-06-02T15:52:53Z</time>
      </trkpt>
      <trkpt lat="46.35293" lon="-1.23883">
        <ele>3.1</ele>
        <time>2020-06-02T15:52:54Z</time>
      </trkpt>
      <trkpt lat="46.3529" lon="-1.23892">
        <ele>3.1</ele>
        <time>2020-06-02T15:52:55Z</time>
      </trkpt>
      <trkpt lat="46.35287" lon="-1.23901">
        <ele>3.1</ele>
        <time>2020-06-02T15:52:56Z</time>
      </trkpt>
      <trkpt lat="46.35284" lon="-1.2391">
        <ele>3.1</ele>
        <time>2020-06-02T15:52:57Z</time>
      </trkpt>
      <trkpt lat="46.35282" lon="-1.23919">
        <ele>3.1</ele>
        <time>2020-06-02T15:52:58Z</time>
      </trkpt>
      <trkpt lat="46.35279" lon="-1.23928">
        <ele>3.1</ele>
        <time>2020-06-02T15:52:59Z</time>
      </trkpt>
      <trkpt lat="46.35276" lon="-1.23937">
        <ele>3.1</ele>
        <time>2020-06-02T15:53:00Z</time>
      </trkpt>
      <trkpt lat="46.35274" lon="-1.23947">
        <ele>3.1</ele>
        <time>2020-06-02T15:53:01Z</time>
      </trkpt>
      <trkpt lat="46.35272" lon="-1.23958">
        <ele>3.1</ele>
        <time>2020-06-02T15:53:02Z</time>
      </trkpt>
      <trkpt lat="46.35271" lon="-1.23968">
        <ele>3.1</ele>
        <time>2020-06-02T15:53:03Z</time>
      </trkpt>
      <trkpt lat="46.3527" lon="-1.23979">
        <ele>3.1</ele>
        <time>2020-06-02T15:53:04Z</time>
      </trkpt>
      <trkpt lat="46.35269" lon="-1.2399">
        <ele>3.1</ele>
        <time>2020-06-02T15:53:05Z</time>
      </trkpt>
      <trkpt lat="46.35268" lon="-1.24">
        <ele>3.1</ele>
        <time>2020-06-02T15:53:06Z</time>
      </trkpt>
      <trkpt lat="46.35268" lon="-1.24009">
        <ele>3.1</ele>
        <time>2020-06-02T15:53:07Z</time>
      </trkpt>
      <trkpt lat="46.35267" lon="-1.24019">
        <ele>3.1</ele>
        <time>2020-06-02T15:53:08Z</time>
      </trkpt>
      <trkpt lat="46.35267" lon="-1.24029">
        <ele>3.1</ele>
        <time>2020-06-02T15:53:09Z</time>
      </trkpt>
      <trkpt lat="46.35266" lon="-1.24039">
        <ele>3.1</ele>
        <time>2020-06-02T15:53:10Z</time>
      </trkpt>
      <trkpt lat="46.35266" lon="-1.24049">
        <ele>3.1</ele>
        <time>2020-06-02T15:53:11Z</time>
      </trkpt>
      <trkpt lat="46.35265" lon="-1.24059">
        <ele>3.1</ele>
        <time>2020-06-02T15:53:12Z</time>
      </trkpt>
      <trkpt lat="46.35264" lon="-1.24069">
        <ele>3.2</ele>
        <time>2020-06-02T15:53:13Z</time>
      </trkpt>
      <trkpt lat="46.35263" lon="-1.24078">
        <ele>3.2</ele>
        <time>2020-06-02T15:53:14Z</time>
      </trkpt>
      <trkpt lat="46.35262" lon="-1.24088">
        <ele>3.1</ele>
        <time>2020-06-02T15:53:15Z</time>
      </trkpt>
      <trkpt lat="46.35261" lon="-1.24098">
        <ele>3.1</ele>
        <time>2020-06-02T15:53:16Z</time>
      </trkpt>
      <trkpt lat="46.35259" lon="-1.24108">
        <ele>3.1</ele>
        <time>2020-06-02T15:53:17Z</time>
      </trkpt>
      <trkpt lat="46.35257" lon="-1.24118">
        <ele>3.1</ele>
        <time>2020-06-02T15:53:18Z</time>
      </trkpt>
      <trkpt lat="46.35255" lon="-1.24128">
        <ele>3.2</ele>
        <time>2020-06-02T15:53:19Z</time>
      </trkpt>
      <trkpt lat="46.35252" lon="-1.24137">
        <ele>3.2</ele>
        <time>2020-06-02T15:53:20Z</time>
      </trkpt>
      <trkpt lat="46.3525" lon="-1.24147">
        <ele>3.2</ele>
        <time>2020-06-02T15:53:21Z</time>
      </trkpt>
      <trkpt lat="46.35247" lon="-1.24156">
        <ele>3.2</ele>
        <time>2020-06-02T15:53:22Z</time>
      </trkpt>
      <trkpt lat="46.35244" lon="-1.24165">
        <ele>3.2</ele>
        <time>2020-06-02T15:53:23Z</time>
      </trkpt>
      <trkpt lat="46.35242" lon="-1.24174">
        <ele>3.2</ele>
        <time>2020-06-02T15:53:24Z</time>
      </trkpt>
      <trkpt lat="46.35239" lon="-1.24182">
        <ele>3.2</ele>
        <time>2020-06-02T15:53:25Z</time>
      </trkpt>
      <trkpt lat="46.35237" lon="-1.2419">
        <ele>3.3</ele>
        <time>2020-06-02T15:53:26Z</time>
      </trkpt>
      <trkpt lat="46.35235" lon="-1.24198">
        <ele>3.3</ele>
        <time>2020-06-02T15:53:27Z</time>
      </trkpt>
      <trkpt lat="46.35232" lon="-1.24206">
        <ele>3.3</ele>
        <time>2020-06-02T15:53:28Z</time>
      </trkpt>
      <trkpt lat="46.3523" lon="-1.24215">
        <ele>3.3</ele>
        <time>2020-06-02T15:53:29Z</time>
      </trkpt>
      <trkpt lat="46.35228" lon="-1.24223">
        <ele>3.4</ele>
        <time>2020-06-02T15:53:30Z</time>
      </trkpt>
      <trkpt lat="46.35226" lon="-1.2423">
        <ele>3.4</ele>
        <time>2020-06-02T15:53:31Z</time>
      </trkpt>
      <trkpt lat="46.35223" lon="-1.24236">
        <ele>3.4</ele>
        <time>2020-06-02T15:53:32Z</time>
      </trkpt>
      <trkpt lat="46.35221" lon="-1.24243">
        <ele>3.4</ele>
        <time>2020-06-02T15:53:33Z</time>
      </trkpt>
      <trkpt lat="46.35219" lon="-1.2425">
        <ele>3.4</ele>
        <time>2020-06-02T15:53:34Z</time>
      </trkpt>
      <trkpt lat="46.35218" lon="-1.24256">
        <ele>3.4</ele>
        <time>2020-06-02T15:53:35Z</time>
      </trkpt>
      <trkpt lat="46.35216" lon="-1.24263">
        <ele>3.5</ele>
        <time>2020-06-02T15:53:36Z</time>
      </trkpt>
      <trkpt lat="46.35215" lon="-1.24269">
        <ele>3.5</ele>
        <time>2020-06-02T15:53:37Z</time>
      </trkpt>
      <trkpt lat="46.35213" lon="-1.24275">
        <ele>3.5</ele>
        <time>2020-06-02T15:53:38Z</time>
      </trkpt>
      <trkpt lat="46.35211" lon="-1.24281">
        <ele>3.5</ele>
        <time>2020-06-02T15:53:39Z</time>
      </trkpt>
      <trkpt lat="46.3521" lon="-1.24287">
        <ele>3.5</ele>
        <time>2020-06-02T15:53:40Z</time>
      </trkpt>
      <trkpt lat="46.35209" lon="-1.24293">
        <ele>3.5</ele>
        <time>2020-06-02T15:53:41Z</time>
      </trkpt>
      <trkpt lat="46.35208" lon="-1.243">
        <ele>3.5</ele>
        <time>2020-06-02T15:53:42Z</time>
      </trkpt>
      <trkpt lat="46.35207" lon="-1.24306">
        <ele>3.5</ele>
        <time>2020-06-02T15:53:43Z</time>
      </trkpt>
      <trkpt lat="46.35205" lon="-1.24311">
        <ele>3.5</ele>
        <time>2020-06-02T15:53:44Z</time>
      </trkpt>
      <trkpt lat="46.35204" lon="-1.24318">
        <ele>3.6</ele>
        <time>2020-06-02T15:53:45Z</time>
      </trkpt>
      <trkpt lat="46.35202" lon="-1.24324">
        <ele>3.6</ele>
        <time>2020-06-02T15:53:46Z</time>
      </trkpt>
      <trkpt lat="46.35201" lon="-1.2433">
        <ele>3.6</ele>
        <time>2020-06-02T15:53:47Z</time>
      </trkpt>
      <trkpt lat="46.352" lon="-1.24337">
        <ele>3.6</ele>
        <time>2020-06-02T15:53:48Z</time>
      </trkpt>
      <trkpt lat="46.35199" lon="-1.24343">
        <ele>3.6</ele>
        <time>2020-06-02T15:53:49Z</time>
      </trkpt>
      <trkpt lat="46.35197" lon="-1.24349">
        <ele>3.6</ele>
        <time>2020-06-02T15:53:50Z</time>
      </trkpt>
      <trkpt lat="46.35196" lon="-1.24355">
        <ele>3.6</ele>
        <time>2020-06-02T15:53:51Z</time>
      </trkpt>
      <trkpt lat="46.35194" lon="-1.24361">
        <ele>3.6</ele>
        <time>2020-06-02T15:53:52Z</time>
      </trkpt>
      <trkpt lat="46.35193" lon="-1.24368">
        <ele>3.6</ele>
        <time>2020-06-02T15:53:53Z</time>
      </trkpt>
      <trkpt lat="46.35191" lon="-1.24374">
        <ele>3.6</ele>
        <time>2020-06-02T15:53:54Z</time>
      </trkpt>
      <trkpt lat="46.35189" lon="-1.2438">
        <ele>3.6</ele>
        <time>2020-06-02T15:53:55Z</time>
      </trkpt>
      <trkpt lat="46.35188" lon="-1.24386">
        <ele>3.6</ele>
        <time>2020-06-02T15:53:56Z</time>
      </trkpt>
      <trkpt lat="46.35186" lon="-1.24393">
        <ele>3.6</ele>
        <time>2020-06-02T15:53:57Z</time>
      </trkpt>
      <trkpt lat="46.35185" lon="-1.24399">
        <ele>3.6</ele>
        <time>2020-06-02T15:53:58Z</time>
      </trkpt>
      <trkpt lat="46.35183" lon="-1.24405">
        <ele>3.6</ele>
        <time>2020-06-02T15:53:59Z</time>
      </trkpt>
      <trkpt lat="46.35181" lon="-1.24411">
        <ele>3.6</ele>
        <time>2020-06-02T15:54:00Z</time>
      </trkpt>
      <trkpt lat="46.35179" lon="-1.24417">
        <ele>3.6</ele>
        <time>2020-06-02T15:54:01Z</time>
      </trkpt>
      <trkpt lat="46.35178" lon="-1.24423">
        <ele>3.6</ele>
        <time>2020-06-02T15:54:02Z</time>
      </trkpt>
      <trkpt lat="46.35177" lon="-1.24429">
        <ele>3.6</ele>
        <time>2020-06-02T15:54:03Z</time>
      </trkpt>
      <trkpt lat="46.35175" lon="-1.24434">
        <ele>3.6</ele>
        <time>2020-06-02T15:54:04Z</time>
      </trkpt>
      <trkpt lat="46.35172" lon="-1.2444">
        <ele>3.6</ele>
        <time>2020-06-02T15:54:05Z</time>
      </trkpt>
      <trkpt lat="46.3517" lon="-1.24446">
        <ele>3.6</ele>
        <time>2020-06-02T15:54:06Z</time>
      </trkpt>
      <trkpt lat="46.35168" lon="-1.24453">
        <ele>3.6</ele>
        <time>2020-06-02T15:54:07Z</time>
      </trkpt>
      <trkpt lat="46.35166" lon="-1.2446">
        <ele>3.6</ele>
        <time>2020-06-02T15:54:08Z</time>
      </trkpt>
      <trkpt lat="46.35163" lon="-1.24466">
        <ele>3.6</ele>
        <time>2020-06-02T15:54:09Z</time>
      </trkpt>
      <trkpt lat="46.35161" lon="-1.24472">
        <ele>3.6</ele>
        <time>2020-06-02T15:54:10Z</time>
      </trkpt>
      <trkpt lat="46.3516" lon="-1.24479">
        <ele>3.7</ele>
        <time>2020-06-02T15:54:11Z</time>
      </trkpt>
      <trkpt lat="46.35158" lon="-1.24486">
        <ele>3.7</ele>
        <time>2020-06-02T15:54:12Z</time>
      </trkpt>
      <trkpt lat="46.35156" lon="-1.24493">
        <ele>3.7</ele>
        <time>2020-06-02T15:54:13Z</time>
      </trkpt>
      <trkpt lat="46.35155" lon="-1.24499">
        <ele>3.7</ele>
        <time>2020-06-02T15:54:14Z</time>
      </trkpt>
      <trkpt lat="46.35153" lon="-1.24505">
        <ele>3.7</ele>
        <time>2020-06-02T15:54:15Z</time>
      </trkpt>
      <trkpt lat="46.35151" lon="-1.24512">
        <ele>3.7</ele>
        <time>2020-06-02T15:54:16Z</time>
      </trkpt>
      <trkpt lat="46.35149" lon="-1.24518">
        <ele>3.6</ele>
        <time>2020-06-02T15:54:17Z</time>
      </trkpt>
      <trkpt lat="46.35147" lon="-1.24525">
        <ele>3.6</ele>
        <time>2020-06-02T15:54:18Z</time>
      </trkpt>
      <trkpt lat="46.35145" lon="-1.24531">
        <ele>3.5</ele>
        <time>2020-06-02T15:54:19Z</time>
      </trkpt>
      <trkpt lat="46.35144" lon="-1.24538">
        <ele>3.5</ele>
        <time>2020-06-02T15:54:20Z</time>
      </trkpt>
      <trkpt lat="46.35142" lon="-1.24545">
        <ele>3.5</ele>
        <time>2020-06-02T15:54:21Z</time>
      </trkpt>
      <trkpt lat="46.3514" lon="-1.24551">
        <ele>3.5</ele>
        <time>2020-06-02T15:54:22Z</time>
      </trkpt>
      <trkpt lat="46.35139" lon="-1.24557">
        <ele>3.5</ele>
        <time>2020-06-02T15:54:23Z</time>
      </trkpt>
      <trkpt lat="46.35137" lon="-1.24563">
        <ele>3.5</ele>
        <time>2020-06-02T15:54:24Z</time>
      </trkpt>
      <trkpt lat="46.35136" lon="-1.2457">
        <ele>3.5</ele>
        <time>2020-06-02T15:54:25Z</time>
      </trkpt>
      <trkpt lat="46.35134" lon="-1.24577">
        <ele>3.5</ele>
        <time>2020-06-02T15:54:26Z</time>
      </trkpt>
      <trkpt lat="46.35131" lon="-1.24583">
        <ele>3.5</ele>
        <time>2020-06-02T15:54:27Z</time>
      </trkpt>
      <trkpt lat="46.35129" lon="-1.2459">
        <ele>3.5</ele>
        <time>2020-06-02T15:54:28Z</time>
      </trkpt>
      <trkpt lat="46.35127" lon="-1.24596">
        <ele>3.5</ele>
        <time>2020-06-02T15:54:29Z</time>
      </trkpt>
      <trkpt lat="46.35126" lon="-1.24604">
        <ele>3.5</ele>
        <time>2020-06-02T15:54:30Z</time>
      </trkpt>
      <trkpt lat="46.35124" lon="-1.24611">
        <ele>3.5</ele>
        <time>2020-06-02T15:54:31Z</time>
      </trkpt>
      <trkpt lat="46.35123" lon="-1.24618">
        <ele>3.5</ele>
        <time>2020-06-02T15:54:32Z</time>
      </trkpt>
      <trkpt lat="46.3512" lon="-1.24624">
        <ele>3.5</ele>
        <time>2020-06-02T15:54:33Z</time>
      </trkpt>
      <trkpt lat="46.35117" lon="-1.24631">
        <ele>3.5</ele>
        <time>2020-06-02T15:54:34Z</time>
      </trkpt>
      <trkpt lat="46.35114" lon="-1.24638">
        <ele>3.5</ele>
        <time>2020-06-02T15:54:35Z</time>
      </trkpt>
      <trkpt lat="46.35112" lon="-1.24645">
        <ele>3.5</ele>
        <time>2020-06-02T15:54:36Z</time>
      </trkpt>
      <trkpt lat="46.35109" lon="-1.24652">
        <ele>3.5</ele>
        <time>2020-06-02T15:54:37Z</time>
      </trkpt>
      <trkpt lat="46.35107" lon="-1.24659">
        <ele>3.5</ele>
        <time>2020-06-02T15:54:38Z</time>
      </trkpt>
      <trkpt lat="46.35105" lon="-1.24666">
        <ele>3.5</ele>
        <time>2020-06-02T15:54:39Z</time>
      </trkpt>
      <trkpt lat="46.35103" lon="-1.24673">
        <ele>3.5</ele>
        <time>2020-06-02T15:54:40Z</time>
      </trkpt>
      <trkpt lat="46.35102" lon="-1.2468">
        <ele>3.5</ele>
        <time>2020-06-02T15:54:41Z</time>
      </trkpt>
      <trkpt lat="46.35101" lon="-1.24687">
        <ele>3.5</ele>
        <time>2020-06-02T15:54:42Z</time>
      </trkpt>
      <trkpt lat="46.35099" lon="-1.24695">
        <ele>3.5</ele>
        <time>2020-06-02T15:54:43Z</time>
      </trkpt>
      <trkpt lat="46.35097" lon="-1.24702">
        <ele>3.5</ele>
        <time>2020-06-02T15:54:44Z</time>
      </trkpt>
      <trkpt lat="46.35094" lon="-1.24708">
        <ele>3.5</ele>
        <time>2020-06-02T15:54:45Z</time>
      </trkpt>
      <trkpt lat="46.35092" lon="-1.24715">
        <ele>3.5</ele>
        <time>2020-06-02T15:54:46Z</time>
      </trkpt>
      <trkpt lat="46.35089" lon="-1.24721">
        <ele>3.5</ele>
        <time>2020-06-02T15:54:47Z</time>
      </trkpt>
      <trkpt lat="46.35088" lon="-1.24728">
        <ele>3.5</ele>
        <time>2020-06-02T15:54:48Z</time>
      </trkpt>
      <trkpt lat="46.35087" lon="-1.24735">
        <ele>3.5</ele>
        <time>2020-06-02T15:54:49Z</time>
      </trkpt>
      <trkpt lat="46.35085" lon="-1.2474">
        <ele>3.4</ele>
        <time>2020-06-02T15:54:50Z</time>
      </trkpt>
      <trkpt lat="46.35082" lon="-1.24742">
        <ele>3.4</ele>
        <time>2020-06-02T15:54:51Z</time>
      </trkpt>
      <trkpt lat="46.35078" lon="-1.2474">
        <ele>3.4</ele>
        <time>2020-06-02T15:54:52Z</time>
      </trkpt>
      <trkpt lat="46.35074" lon="-1.24738">
        <ele>3.4</ele>
        <time>2020-06-02T15:54:53Z</time>
      </trkpt>
      <trkpt lat="46.3507" lon="-1.24739">
        <ele>3.4</ele>
        <time>2020-06-02T15:54:54Z</time>
      </trkpt>
      <trkpt lat="46.35066" lon="-1.24739">
        <ele>3.3</ele>
        <time>2020-06-02T15:54:55Z</time>
      </trkpt>
      <trkpt lat="46.35062" lon="-1.24739">
        <ele>3.3</ele>
        <time>2020-06-02T15:54:56Z</time>
      </trkpt>
      <trkpt lat="46.35058" lon="-1.24739">
        <ele>3.3</ele>
        <time>2020-06-02T15:54:57Z</time>
      </trkpt>
      <trkpt lat="46.35053" lon="-1.24739">
        <ele>3.3</ele>
        <time>2020-06-02T15:54:58Z</time>
      </trkpt>
      <trkpt lat="46.35049" lon="-1.24739">
        <ele>3.2</ele>
        <time>2020-06-02T15:54:59Z</time>
      </trkpt>
      <trkpt lat="46.35044" lon="-1.24741">
        <ele>3.2</ele>
        <time>2020-06-02T15:55:00Z</time>
      </trkpt>
      <trkpt lat="46.35041" lon="-1.24745">
        <ele>3.2</ele>
        <time>2020-06-02T15:55:01Z</time>
      </trkpt>
      <trkpt lat="46.3504" lon="-1.2475">
        <ele>3.2</ele>
        <time>2020-06-02T15:55:02Z</time>
      </trkpt>
      <trkpt lat="46.35039" lon="-1.24755">
        <ele>3.2</ele>
        <time>2020-06-02T15:55:03Z</time>
      </trkpt>
      <trkpt lat="46.35039" lon="-1.2476">
        <ele>3.1</ele>
        <time>2020-06-02T15:55:04Z</time>
      </trkpt>
      <trkpt lat="46.35038" lon="-1.24764">
        <ele>3.1</ele>
        <time>2020-06-02T15:55:05Z</time>
      </trkpt>
      <trkpt lat="46.35035" lon="-1.24766">
        <ele>3.1</ele>
        <time>2020-06-02T15:55:06Z</time>
      </trkpt>
      <trkpt lat="46.35031" lon="-1.24766">
        <ele>3.1</ele>
        <time>2020-06-02T15:55:07Z</time>
      </trkpt>
      <trkpt lat="46.35028" lon="-1.24766">
        <ele>3.1</ele>
        <time>2020-06-02T15:55:08Z</time>
      </trkpt>
      <trkpt lat="46.35024" lon="-1.24767">
        <ele>3.1</ele>
        <time>2020-06-02T15:55:09Z</time>
      </trkpt>
      <trkpt lat="46.3502" lon="-1.24766">
        <ele>3</ele>
        <time>2020-06-02T15:55:10Z</time>
      </trkpt>
      <trkpt lat="46.35016" lon="-1.24765">
        <ele>3</ele>
        <time>2020-06-02T15:55:11Z</time>
      </trkpt>
      <trkpt lat="46.35012" lon="-1.24765">
        <ele>3</ele>
        <time>2020-06-02T15:55:12Z</time>
      </trkpt>
      <trkpt lat="46.35008" lon="-1.24766">
        <ele>3</ele>
        <time>2020-06-02T15:55:13Z</time>
      </trkpt>
      <trkpt lat="46.35003" lon="-1.24767">
        <ele>2.9</ele>
        <time>2020-06-02T15:55:14Z</time>
      </trkpt>
      <trkpt lat="46.34999" lon="-1.24767">
        <ele>2.9</ele>
        <time>2020-06-02T15:55:15Z</time>
      </trkpt>
      <trkpt lat="46.34994" lon="-1.24767">
        <ele>2.9</ele>
        <time>2020-06-02T15:55:16Z</time>
      </trkpt>
      <trkpt lat="46.34989" lon="-1.24767">
        <ele>2.9</ele>
        <time>2020-06-02T15:55:17Z</time>
      </trkpt>
      <trkpt lat="46.34985" lon="-1.24767">
        <ele>2.8</ele>
        <time>2020-06-02T15:55:18Z</time>
      </trkpt>
      <trkpt lat="46.3498" lon="-1.24767">
        <ele>2.8</ele>
        <time>2020-06-02T15:55:19Z</time>
      </trkpt>
      <trkpt lat="46.34976" lon="-1.24768">
        <ele>2.7</ele>
        <time>2020-06-02T15:55:20Z</time>
      </trkpt>
      <trkpt lat="46.34971" lon="-1.2477">
        <ele>2.7</ele>
        <time>2020-06-02T15:55:21Z</time>
      </trkpt>
      <trkpt lat="46.34967" lon="-1.24771">
        <ele>2.7</ele>
        <time>2020-06-02T15:55:22Z</time>
      </trkpt>
      <trkpt lat="46.34963" lon="-1.24773">
        <ele>2.6</ele>
        <time>2020-06-02T15:55:23Z</time>
      </trkpt>
      <trkpt lat="46.34958" lon="-1.24772">
        <ele>2.6</ele>
        <time>2020-06-02T15:55:24Z</time>
      </trkpt>
      <trkpt lat="46.34954" lon="-1.24773">
        <ele>2.6</ele>
        <time>2020-06-02T15:55:25Z</time>
      </trkpt>
      <trkpt lat="46.34949" lon="-1.24773">
        <ele>2.5</ele>
        <time>2020-06-02T15:55:26Z</time>
      </trkpt>
      <trkpt lat="46.34945" lon="-1.24773">
        <ele>2.5</ele>
        <time>2020-06-02T15:55:27Z</time>
      </trkpt>
      <trkpt lat="46.3494" lon="-1.24772">
        <ele>2.5</ele>
        <time>2020-06-02T15:55:28Z</time>
      </trkpt>
      <trkpt lat="46.34937" lon="-1.24768">
        <ele>2.4</ele>
        <time>2020-06-02T15:55:29Z</time>
      </trkpt>
      <trkpt lat="46.34935" lon="-1.24764">
        <ele>2.4</ele>
        <time>2020-06-02T15:55:30Z</time>
      </trkpt>
      <trkpt lat="46.34932" lon="-1.24762">
        <ele>2.4</ele>
        <time>2020-06-02T15:55:31Z</time>
      </trkpt>
      <trkpt lat="46.34928" lon="-1.24763">
        <ele>2.4</ele>
        <time>2020-06-02T15:55:32Z</time>
      </trkpt>
      <trkpt lat="46.34924" lon="-1.24762">
        <ele>2.5</ele>
        <time>2020-06-02T15:55:33Z</time>
      </trkpt>
      <trkpt lat="46.3492" lon="-1.24761">
        <ele>2.5</ele>
        <time>2020-06-02T15:55:34Z</time>
      </trkpt>
      <trkpt lat="46.34916" lon="-1.24762">
        <ele>2.5</ele>
        <time>2020-06-02T15:55:35Z</time>
      </trkpt>
      <trkpt lat="46.34911" lon="-1.24762">
        <ele>2.5</ele>
        <time>2020-06-02T15:55:36Z</time>
      </trkpt>
      <trkpt lat="46.34907" lon="-1.24759">
        <ele>2.6</ele>
        <time>2020-06-02T15:55:37Z</time>
      </trkpt>
      <trkpt lat="46.34903" lon="-1.24759">
        <ele>2.6</ele>
        <time>2020-06-02T15:55:38Z</time>
      </trkpt>
      <trkpt lat="46.34898" lon="-1.24759">
        <ele>2.6</ele>
        <time>2020-06-02T15:55:39Z</time>
      </trkpt>
      <trkpt lat="46.34894" lon="-1.2476">
        <ele>2.7</ele>
        <time>2020-06-02T15:55:40Z</time>
      </trkpt>
      <trkpt lat="46.3489" lon="-1.24761">
        <ele>2.7</ele>
        <time>2020-06-02T15:55:41Z</time>
      </trkpt>
      <trkpt lat="46.34886" lon="-1.2476">
        <ele>2.7</ele>
        <time>2020-06-02T15:55:42Z</time>
      </trkpt>
      <trkpt lat="46.34882" lon="-1.2476">
        <ele>2.8</ele>
        <time>2020-06-02T15:55:43Z</time>
      </trkpt>
      <trkpt lat="46.34878" lon="-1.2476">
        <ele>2.8</ele>
        <time>2020-06-02T15:55:44Z</time>
      </trkpt>
      <trkpt lat="46.34875" lon="-1.24761">
        <ele>2.8</ele>
        <time>2020-06-02T15:55:45Z</time>
      </trkpt>
      <trkpt lat="46.34871" lon="-1.24763">
        <ele>2.8</ele>
        <time>2020-06-02T15:55:46Z</time>
      </trkpt>
      <trkpt lat="46.34867" lon="-1.24764">
        <ele>2.9</ele>
        <time>2020-06-02T15:55:47Z</time>
      </trkpt>
      <trkpt lat="46.34864" lon="-1.24765">
        <ele>2.9</ele>
        <time>2020-06-02T15:55:48Z</time>
      </trkpt>
      <trkpt lat="46.34861" lon="-1.24767">
        <ele>2.9</ele>
        <time>2020-06-02T15:55:49Z</time>
      </trkpt>
      <trkpt lat="46.34859" lon="-1.2477">
        <ele>2.9</ele>
        <time>2020-06-02T15:55:50Z</time>
      </trkpt>
      <trkpt lat="46.34855" lon="-1.24772">
        <ele>3</ele>
        <time>2020-06-02T15:55:51Z</time>
      </trkpt>
      <trkpt lat="46.34854" lon="-1.24772">
        <ele>3</ele>
        <time>2020-06-02T15:55:52Z</time>
      </trkpt>
      <trkpt lat="46.34854" lon="-1.24772">
        <ele>3</ele>
        <time>2020-06-02T15:55:53Z</time>
      </trkpt>
      <trkpt lat="46.34854" lon="-1.24771">
        <ele>3</ele>
        <time>2020-06-02T15:55:54Z</time>
      </trkpt>
      <trkpt lat="46.34854" lon="-1.2477">
        <ele>3</ele>
        <time>2020-06-02T15:55:55Z</time>
      </trkpt>
      <trkpt lat="46.34853" lon="-1.2477">
        <ele>3</ele>
        <time>2020-06-02T15:55:56Z</time>
      </trkpt>
      <trkpt lat="46.34853" lon="-1.24769">
        <ele>3</ele>
        <time>2020-06-02T15:55:57Z</time>
      </trkpt>
      <trkpt lat="46.34852" lon="-1.24768">
        <ele>3</ele>
        <time>2020-06-02T15:55:58Z</time>
      </trkpt>
      <trkpt lat="46.34852" lon="-1.24769">
        <ele>3</ele>
        <time>2020-06-02T15:55:59Z</time>
      </trkpt>
      <trkpt lat="46.34852" lon="-1.24769">
        <ele>3</ele>
        <time>2020-06-02T15:56:00Z</time>
      </trkpt>
      <trkpt lat="46.34852" lon="-1.2477">
        <ele>3</ele>
        <time>2020-06-02T15:56:01Z</time>
      </trkpt>
      <trkpt lat="46.34852" lon="-1.2477">
        <ele>3</ele>
        <time>2020-06-02T15:56:02Z</time>
      </trkpt>
      <trkpt lat="46.34851" lon="-1.24771">
        <ele>3</ele>
        <time>2020-06-02T15:56:03Z</time>
      </trkpt>
      <trkpt lat="46.34852" lon="-1.24772">
        <ele>3</ele>
        <time>2020-06-02T15:56:04Z</time>
      </trkpt>
      <trkpt lat="46.34851" lon="-1.24771">
        <ele>3</ele>
        <time>2020-06-02T15:56:05Z</time>
      </trkpt>
      <trkpt lat="46.34851" lon="-1.24771">
        <ele>3</ele>
        <time>2020-06-02T15:56:06Z</time>
      </trkpt>
      <trkpt lat="46.34851" lon="-1.24771">
        <ele>3</ele>
        <time>2020-06-02T15:56:07Z</time>
      </trkpt>
      <trkpt lat="46.34851" lon="-1.24772">
        <ele>3</ele>
        <time>2020-06-02T15:56:08Z</time>
      </trkpt>
      <trkpt lat="46.34851" lon="-1.24772">
        <ele>3</ele>
        <time>2020-06-02T15:56:09Z</time>
      </trkpt>
      <trkpt lat="46.34851" lon="-1.24772">
        <ele>3</ele>
        <time>2020-06-02T15:56:10Z</time>
      </trkpt>
      <trkpt lat="46.3485" lon="-1.24772">
        <ele>3</ele>
        <time>2020-06-02T15:56:11Z</time>
      </trkpt>
      <trkpt lat="46.3485" lon="-1.24772">
        <ele>3</ele>
        <time>2020-06-02T15:56:12Z</time>
      </trkpt>
      <trkpt lat="46.3485" lon="-1.24772">
        <ele>3</ele>
        <time>2020-06-02T15:56:13Z</time>
      </trkpt>
      <trkpt lat="46.3485" lon="-1.24771">
        <ele>3</ele>
        <time>2020-06-02T15:56:14Z</time>
      </trkpt>
      <trkpt lat="46.34849" lon="-1.24771">
        <ele>3</ele>
        <time>2020-06-02T15:56:15Z</time>
      </trkpt>
      <trkpt lat="46.34849" lon="-1.2477">
        <ele>3</ele>
        <time>2020-06-02T15:56:16Z</time>
      </trkpt>
      <trkpt lat="46.34849" lon="-1.2477">
        <ele>3</ele>
        <time>2020-06-02T15:56:17Z</time>
      </trkpt>
      <trkpt lat="46.34849" lon="-1.24772">
        <ele>3.1</ele>
        <time>2020-06-02T15:56:18Z</time>
      </trkpt>
      <trkpt lat="46.34848" lon="-1.24772">
        <ele>3.1</ele>
        <time>2020-06-02T15:56:19Z</time>
      </trkpt>
      <trkpt lat="46.34849" lon="-1.24773">
        <ele>3.1</ele>
        <time>2020-06-02T15:56:20Z</time>
      </trkpt>
      <trkpt lat="46.34849" lon="-1.24774">
        <ele>3.1</ele>
        <time>2020-06-02T15:56:21Z</time>
      </trkpt>
      <trkpt lat="46.34849" lon="-1.24773">
        <ele>3.1</ele>
        <time>2020-06-02T15:56:22Z</time>
      </trkpt>
      <trkpt lat="46.34848" lon="-1.24772">
        <ele>3.1</ele>
        <time>2020-06-02T15:56:23Z</time>
      </trkpt>
      <trkpt lat="46.34848" lon="-1.24772">
        <ele>3.1</ele>
        <time>2020-06-02T15:56:24Z</time>
      </trkpt>
      <trkpt lat="46.34848" lon="-1.24772">
        <ele>3.1</ele>
        <time>2020-06-02T15:56:25Z</time>
      </trkpt>
      <trkpt lat="46.34847" lon="-1.24771">
        <ele>3.1</ele>
        <time>2020-06-02T15:56:26Z</time>
      </trkpt>
      <trkpt lat="46.34848" lon="-1.24772">
        <ele>3.1</ele>
        <time>2020-06-02T15:56:27Z</time>
      </trkpt>
      <trkpt lat="46.34848" lon="-1.24773">
        <ele>3.1</ele>
        <time>2020-06-02T15:56:28Z</time>
      </trkpt>
      <trkpt lat="46.34848" lon="-1.24774">
        <ele>3.1</ele>
        <time>2020-06-02T15:56:29Z</time>
      </trkpt>
      <trkpt lat="46.34848" lon="-1.24775">
        <ele>3.1</ele>
        <time>2020-06-02T15:56:30Z</time>
      </trkpt>
      <trkpt lat="46.34848" lon="-1.24774">
        <ele>3.1</ele>
        <time>2020-06-02T15:56:31Z</time>
      </trkpt>
      <trkpt lat="46.34848" lon="-1.24774">
        <ele>3.1</ele>
        <time>2020-06-02T15:56:32Z</time>
      </trkpt>
      <trkpt lat="46.34847" lon="-1.24773">
        <ele>3.1</ele>
        <time>2020-06-02T15:56:33Z</time>
      </trkpt>
      <trkpt lat="46.34847" lon="-1.24773">
        <ele>3.1</ele>
        <time>2020-06-02T15:56:34Z</time>
      </trkpt>
      <trkpt lat="46.34846" lon="-1.24773">
        <ele>3.1</ele>
        <time>2020-06-02T15:56:35Z</time>
      </trkpt>
      <trkpt lat="46.34846" lon="-1.24773">
        <ele>3.1</ele>
        <time>2020-06-02T15:56:36Z</time>
      </trkpt>
      <trkpt lat="46.34846" lon="-1.24772">
        <ele>3.1</ele>
        <time>2020-06-02T15:56:37Z</time>
      </trkpt>
      <trkpt lat="46.34845" lon="-1.24773">
        <ele>3.1</ele>
        <time>2020-06-02T15:56:38Z</time>
      </trkpt>
      <trkpt lat="46.34845" lon="-1.24773">
        <ele>3.1</ele>
        <time>2020-06-02T15:56:39Z</time>
      </trkpt>
      <trkpt lat="46.34845" lon="-1.24773">
        <ele>3.1</ele>
        <time>2020-06-02T15:56:40Z</time>
      </trkpt>
      <trkpt lat="46.34845" lon="-1.24774">
        <ele>3.1</ele>
        <time>2020-06-02T15:56:41Z</time>
      </trkpt>
      <trkpt lat="46.34845" lon="-1.24775">
        <ele>3.1</ele>
        <time>2020-06-02T15:56:42Z</time>
      </trkpt>
      <trkpt lat="46.34845" lon="-1.24775">
        <ele>3.1</ele>
        <time>2020-06-02T15:56:43Z</time>
      </trkpt>
      <trkpt lat="46.34845" lon="-1.24776">
        <ele>3.1</ele>
        <time>2020-06-02T15:56:44Z</time>
      </trkpt>
      <trkpt lat="46.34844" lon="-1.24776">
        <ele>3.1</ele>
        <time>2020-06-02T15:56:45Z</time>
      </trkpt>
      <trkpt lat="46.34844" lon="-1.24776">
        <ele>3.1</ele>
        <time>2020-06-02T15:56:46Z</time>
      </trkpt>
      <trkpt lat="46.34843" lon="-1.24775">
        <ele>3.1</ele>
        <time>2020-06-02T15:56:47Z</time>
      </trkpt>
      <trkpt lat="46.34842" lon="-1.24775">
        <ele>3.1</ele>
        <time>2020-06-02T15:56:48Z</time>
      </trkpt>
      <trkpt lat="46.34842" lon="-1.24774">
        <ele>3.1</ele>
        <time>2020-06-02T15:56:49Z</time>
      </trkpt>
      <trkpt lat="46.34842" lon="-1.24775">
        <ele>3.1</ele>
        <time>2020-06-02T15:56:50Z</time>
      </trkpt>
      <trkpt lat="46.34842" lon="-1.24774">
        <ele>3.1</ele>
        <time>2020-06-02T15:56:51Z</time>
      </trkpt>
      <trkpt lat="46.34842" lon="-1.24775">
        <ele>3.1</ele>
        <time>2020-06-02T15:56:52Z</time>
      </trkpt>
      <trkpt lat="46.34841" lon="-1.24773">
        <ele>3.2</ele>
        <time>2020-06-02T15:56:53Z</time>
      </trkpt>
      <trkpt lat="46.34841" lon="-1.24773">
        <ele>3.2</ele>
        <time>2020-06-02T15:56:54Z</time>
      </trkpt>
      <trkpt lat="46.3484" lon="-1.24773">
        <ele>3.2</ele>
        <time>2020-06-02T15:56:55Z</time>
      </trkpt>
      <trkpt lat="46.3484" lon="-1.24773">
        <ele>3.2</ele>
        <time>2020-06-02T15:56:56Z</time>
      </trkpt>
      <trkpt lat="46.34841" lon="-1.24773">
        <ele>3.2</ele>
        <time>2020-06-02T15:56:57Z</time>
      </trkpt>
      <trkpt lat="46.34841" lon="-1.24774">
        <ele>3.2</ele>
        <time>2020-06-02T15:56:58Z</time>
      </trkpt>
      <trkpt lat="46.34841" lon="-1.24773">
        <ele>3.2</ele>
        <time>2020-06-02T15:56:59Z</time>
      </trkpt>
      <trkpt lat="46.34841" lon="-1.24774">
        <ele>3.2</ele>
        <time>2020-06-02T15:57:00Z</time>
      </trkpt>
      <trkpt lat="46.34841" lon="-1.24775">
        <ele>3.2</ele>
        <time>2020-06-02T15:57:01Z</time>
      </trkpt>
      <trkpt lat="46.34841" lon="-1.24775">
        <ele>3.2</ele>
        <time>2020-06-02T15:57:02Z</time>
      </trkpt>
      <trkpt lat="46.34841" lon="-1.24777">
        <ele>3.2</ele>
        <time>2020-06-02T15:57:03Z</time>
      </trkpt>
      <trkpt lat="46.3484" lon="-1.24778">
        <ele>3.2</ele>
        <time>2020-06-02T15:57:04Z</time>
      </trkpt>
      <trkpt lat="46.3484" lon="-1.2478">
        <ele>3.2</ele>
        <time>2020-06-02T15:57:05Z</time>
      </trkpt>
      <trkpt lat="46.34841" lon="-1.24782">
        <ele>3.2</ele>
        <time>2020-06-02T15:57:06Z</time>
      </trkpt>
      <trkpt lat="46.34843" lon="-1.24784">
        <ele>3.2</ele>
        <time>2020-06-02T15:57:07Z</time>
      </trkpt>
      <trkpt lat="46.34844" lon="-1.24783">
        <ele>3.2</ele>
        <time>2020-06-02T15:57:08Z</time>
      </trkpt>
      <trkpt lat="46.34845" lon="-1.24783">
        <ele>3.2</ele>
        <time>2020-06-02T15:57:09Z</time>
      </trkpt>
      <trkpt lat="46.34846" lon="-1.24782">
        <ele>3.2</ele>
        <time>2020-06-02T15:57:10Z</time>
      </trkpt>
      <trkpt lat="46.34847" lon="-1.24783">
        <ele>3.2</ele>
        <time>2020-06-02T15:57:11Z</time>
      </trkpt>
      <trkpt lat="46.3485" lon="-1.24783">
        <ele>3.3</ele>
        <time>2020-06-02T15:57:12Z</time>
      </trkpt>
      <trkpt lat="46.34851" lon="-1.24783">
        <ele>3.3</ele>
        <time>2020-06-02T15:57:13Z</time>
      </trkpt>
      <trkpt lat="46.34854" lon="-1.24784">
        <ele>3.3</ele>
        <time>2020-06-02T15:57:14Z</time>
      </trkpt>
      <trkpt lat="46.34855" lon="-1.24784">
        <ele>3.3</ele>
        <time>2020-06-02T15:57:15Z</time>
      </trkpt>
      <trkpt lat="46.34857" lon="-1.24785">
        <ele>3.3</ele>
        <time>2020-06-02T15:57:16Z</time>
      </trkpt>
      <trkpt lat="46.34858" lon="-1.24785">
        <ele>3.3</ele>
        <time>2020-06-02T15:57:17Z</time>
      </trkpt>
      <trkpt lat="46.34862" lon="-1.24784">
        <ele>3.3</ele>
        <time>2020-06-02T15:57:18Z</time>
      </trkpt>
      <trkpt lat="46.34863" lon="-1.24784">
        <ele>3.3</ele>
        <time>2020-06-02T15:57:19Z</time>
      </trkpt>
      <trkpt lat="46.34867" lon="-1.24783">
        <ele>3.4</ele>
        <time>2020-06-02T15:57:20Z</time>
      </trkpt>
      <trkpt lat="46.34868" lon="-1.24784">
        <ele>3.4</ele>
        <time>2020-06-02T15:57:21Z</time>
      </trkpt>
      <trkpt lat="46.34871" lon="-1.24784">
        <ele>3.4</ele>
        <time>2020-06-02T15:57:22Z</time>
      </trkpt>
      <trkpt lat="46.34874" lon="-1.24783">
        <ele>3.4</ele>
        <time>2020-06-02T15:57:23Z</time>
      </trkpt>
      <trkpt lat="46.34876" lon="-1.24783">
        <ele>3.4</ele>
        <time>2020-06-02T15:57:24Z</time>
      </trkpt>
      <trkpt lat="46.3488" lon="-1.24784">
        <ele>3.4</ele>
        <time>2020-06-02T15:57:25Z</time>
      </trkpt>
      <trkpt lat="46.34881" lon="-1.24785">
        <ele>3.4</ele>
        <time>2020-06-02T15:57:26Z</time>
      </trkpt>
      <trkpt lat="46.34884" lon="-1.24784">
        <ele>3.4</ele>
        <time>2020-06-02T15:57:27Z</time>
      </trkpt>
      <trkpt lat="46.34885" lon="-1.24784">
        <ele>3.4</ele>
        <time>2020-06-02T15:57:28Z</time>
      </trkpt>
      <trkpt lat="46.34889" lon="-1.24785">
        <ele>3.4</ele>
        <time>2020-06-02T15:57:29Z</time>
      </trkpt>
      <trkpt lat="46.3489" lon="-1.24785">
        <ele>3.4</ele>
        <time>2020-06-02T15:57:30Z</time>
      </trkpt>
      <trkpt lat="46.34894" lon="-1.24785">
        <ele>3.4</ele>
        <time>2020-06-02T15:57:31Z</time>
      </trkpt>
      <trkpt lat="46.34895" lon="-1.24785">
        <ele>3.4</ele>
        <time>2020-06-02T15:57:32Z</time>
      </trkpt>
      <trkpt lat="46.34898" lon="-1.24783">
        <ele>3.4</ele>
        <time>2020-06-02T15:57:33Z</time>
      </trkpt>
      <trkpt lat="46.34899" lon="-1.24783">
        <ele>3.4</ele>
        <time>2020-06-02T15:57:34Z</time>
      </trkpt>
      <trkpt lat="46.34902" lon="-1.24781">
        <ele>3.4</ele>
        <time>2020-06-02T15:57:35Z</time>
      </trkpt>
      <trkpt lat="46.34903" lon="-1.2478">
        <ele>3.4</ele>
        <time>2020-06-02T15:57:36Z</time>
      </trkpt>
      <trkpt lat="46.34905" lon="-1.2478">
        <ele>3.4</ele>
        <time>2020-06-02T15:57:37Z</time>
      </trkpt>
      <trkpt lat="46.34906" lon="-1.24781">
        <ele>3.4</ele>
        <time>2020-06-02T15:57:38Z</time>
      </trkpt>
      <trkpt lat="46.34908" lon="-1.24781">
        <ele>3.4</ele>
        <time>2020-06-02T15:57:39Z</time>
      </trkpt>
      <trkpt lat="46.34909" lon="-1.24782">
        <ele>3.4</ele>
        <time>2020-06-02T15:57:40Z</time>
      </trkpt>
      <trkpt lat="46.34912" lon="-1.24785">
        <ele>3.4</ele>
        <time>2020-06-02T15:57:41Z</time>
      </trkpt>
      <trkpt lat="46.34914" lon="-1.24785">
        <ele>3.4</ele>
        <time>2020-06-02T15:57:42Z</time>
      </trkpt>
      <trkpt lat="46.34917" lon="-1.24784">
        <ele>3.4</ele>
        <time>2020-06-02T15:57:43Z</time>
      </trkpt>
      <trkpt lat="46.34918" lon="-1.24783">
        <ele>3.5</ele>
        <time>2020-06-02T15:57:44Z</time>
      </trkpt>
      <trkpt lat="46.34922" lon="-1.24784">
        <ele>3.5</ele>
        <time>2020-06-02T15:57:45Z</time>
      </trkpt>
      <trkpt lat="46.34924" lon="-1.24784">
        <ele>3.5</ele>
        <time>2020-06-02T15:57:46Z</time>
      </trkpt>
      <trkpt lat="46.34927" lon="-1.24784">
        <ele>3.5</ele>
        <time>2020-06-02T15:57:47Z</time>
      </trkpt>
      <trkpt lat="46.3493" lon="-1.24784">
        <ele>3.5</ele>
        <time>2020-06-02T15:57:48Z</time>
      </trkpt>
      <trkpt lat="46.34933" lon="-1.24782">
        <ele>3.5</ele>
        <time>2020-06-02T15:57:49Z</time>
      </trkpt>
      <trkpt lat="46.34937" lon="-1.24783">
        <ele>3.5</ele>
        <time>2020-06-02T15:57:50Z</time>
      </trkpt>
      <trkpt lat="46.34938" lon="-1.24783">
        <ele>3.5</ele>
        <time>2020-06-02T15:57:51Z</time>
      </trkpt>
      <trkpt lat="46.34942" lon="-1.24783">
        <ele>3.5</ele>
        <time>2020-06-02T15:57:52Z</time>
      </trkpt>
      <trkpt lat="46.34943" lon="-1.24783">
        <ele>3.5</ele>
        <time>2020-06-02T15:57:53Z</time>
      </trkpt>
      <trkpt lat="46.34946" lon="-1.24783">
        <ele>3.5</ele>
        <time>2020-06-02T15:57:54Z</time>
      </trkpt>
      <trkpt lat="46.34948" lon="-1.24783">
        <ele>3.5</ele>
        <time>2020-06-02T15:57:55Z</time>
      </trkpt>
      <trkpt lat="46.3495" lon="-1.24781">
        <ele>3.5</ele>
        <time>2020-06-02T15:57:56Z</time>
      </trkpt>
      <trkpt lat="46.34954" lon="-1.2478">
        <ele>3.5</ele>
        <time>2020-06-02T15:57:57Z</time>
      </trkpt>
      <trkpt lat="46.34955" lon="-1.24781">
        <ele>3.5</ele>
        <time>2020-06-02T15:57:58Z</time>
      </trkpt>
      <trkpt lat="46.34958" lon="-1.24783">
        <ele>3.5</ele>
        <time>2020-06-02T15:57:59Z</time>
      </trkpt>
      <trkpt lat="46.3496" lon="-1.24784">
        <ele>3.5</ele>
        <time>2020-06-02T15:58:00Z</time>
      </trkpt>
      <trkpt lat="46.34963" lon="-1.24782">
        <ele>3.5</ele>
        <time>2020-06-02T15:58:01Z</time>
      </trkpt>
      <trkpt lat="46.34965" lon="-1.24782">
        <ele>3.5</ele>
        <time>2020-06-02T15:58:02Z</time>
      </trkpt>
      <trkpt lat="46.34968" lon="-1.24782">
        <ele>3.6</ele>
        <time>2020-06-02T15:58:03Z</time>
      </trkpt>
      <trkpt lat="46.34969" lon="-1.24782">
        <ele>3.6</ele>
        <time>2020-06-02T15:58:04Z</time>
      </trkpt>
      <trkpt lat="46.34972" lon="-1.24782">
        <ele>3.6</ele>
        <time>2020-06-02T15:58:05Z</time>
      </trkpt>
      <trkpt lat="46.34973" lon="-1.24781">
        <ele>3.6</ele>
        <time>2020-06-02T15:58:06Z</time>
      </trkpt>
      <trkpt lat="46.34976" lon="-1.2478">
        <ele>3.6</ele>
        <time>2020-06-02T15:58:07Z</time>
      </trkpt>
      <trkpt lat="46.34977" lon="-1.2478">
        <ele>3.6</ele>
        <time>2020-06-02T15:58:08Z</time>
      </trkpt>
      <trkpt lat="46.3498" lon="-1.2478">
        <ele>3.6</ele>
        <time>2020-06-02T15:58:09Z</time>
      </trkpt>
      <trkpt lat="46.3498" lon="-1.24782">
        <ele>3.6</ele>
        <time>2020-06-02T15:58:10Z</time>
      </trkpt>
      <trkpt lat="46.34982" lon="-1.24782">
        <ele>3.6</ele>
        <time>2020-06-02T15:58:11Z</time>
      </trkpt>
      <trkpt lat="46.34983" lon="-1.24782">
        <ele>3.6</ele>
        <time>2020-06-02T15:58:12Z</time>
      </trkpt>
      <trkpt lat="46.34985" lon="-1.24782">
        <ele>3.6</ele>
        <time>2020-06-02T15:58:13Z</time>
      </trkpt>
      <trkpt lat="46.34987" lon="-1.24782">
        <ele>3.6</ele>
        <time>2020-06-02T15:58:14Z</time>
      </trkpt>
      <trkpt lat="46.3499" lon="-1.24782">
        <ele>3.6</ele>
        <time>2020-06-02T15:58:15Z</time>
      </trkpt>
      <trkpt lat="46.3499" lon="-1.24782">
        <ele>3.6</ele>
        <time>2020-06-02T15:58:16Z</time>
      </trkpt>
      <trkpt lat="46.34993" lon="-1.24781">
        <ele>3.6</ele>
        <time>2020-06-02T15:58:17Z</time>
      </trkpt>
      <trkpt lat="46.34995" lon="-1.24781">
        <ele>3.6</ele>
        <time>2020-06-02T15:58:18Z</time>
      </trkpt>
      <trkpt lat="46.34997" lon="-1.2478">
        <ele>3.6</ele>
        <time>2020-06-02T15:58:19Z</time>
      </trkpt>
      <trkpt lat="46.34998" lon="-1.2478">
        <ele>3.6</ele>
        <time>2020-06-02T15:58:20Z</time>
      </trkpt>
      <trkpt lat="46.35" lon="-1.24781">
        <ele>3.6</ele>
        <time>2020-06-02T15:58:21Z</time>
      </trkpt>
      <trkpt lat="46.35002" lon="-1.24779">
        <ele>3.6</ele>
        <time>2020-06-02T15:58:22Z</time>
      </trkpt>
      <trkpt lat="46.35005" lon="-1.24778">
        <ele>3.6</ele>
        <time>2020-06-02T15:58:23Z</time>
      </trkpt>
      <trkpt lat="46.35006" lon="-1.24778">
        <ele>3.6</ele>
        <time>2020-06-02T15:58:24Z</time>
      </trkpt>
      <trkpt lat="46.35009" lon="-1.24778">
        <ele>3.6</ele>
        <time>2020-06-02T15:58:25Z</time>
      </trkpt>
      <trkpt lat="46.3501" lon="-1.24778">
        <ele>3.6</ele>
        <time>2020-06-02T15:58:26Z</time>
      </trkpt>
      <trkpt lat="46.35011" lon="-1.24778">
        <ele>3.6</ele>
        <time>2020-06-02T15:58:27Z</time>
      </trkpt>
      <trkpt lat="46.35012" lon="-1.2478">
        <ele>3.6</ele>
        <time>2020-06-02T15:58:28Z</time>
      </trkpt>
      <trkpt lat="46.35012" lon="-1.24781">
        <ele>3.6</ele>
        <time>2020-06-02T15:58:29Z</time>
      </trkpt>
      <trkpt lat="46.35013" lon="-1.24781">
        <ele>3.6</ele>
        <time>2020-06-02T15:58:30Z</time>
      </trkpt>
      <trkpt lat="46.35013" lon="-1.24781">
        <ele>3.6</ele>
        <time>2020-06-02T15:58:31Z</time>
      </trkpt>
      <trkpt lat="46.35012" lon="-1.24782">
        <ele>3.6</ele>
        <time>2020-06-02T15:58:32Z</time>
      </trkpt>
      <trkpt lat="46.35012" lon="-1.24783">
        <ele>3.6</ele>
        <time>2020-06-02T15:58:33Z</time>
      </trkpt>
      <trkpt lat="46.35012" lon="-1.24783">
        <ele>3.6</ele>
        <time>2020-06-02T15:58:34Z</time>
      </trkpt>
      <trkpt lat="46.35012" lon="-1.24782">
        <ele>3.6</ele>
        <time>2020-06-02T15:58:35Z</time>
      </trkpt>
      <trkpt lat="46.35013" lon="-1.24784">
        <ele>3.6</ele>
        <time>2020-06-02T15:58:36Z</time>
      </trkpt>
      <trkpt lat="46.35016" lon="-1.24783">
        <ele>3.7</ele>
        <time>2020-06-02T15:58:37Z</time>
      </trkpt>
      <trkpt lat="46.35017" lon="-1.24782">
        <ele>3.7</ele>
        <time>2020-06-02T15:58:38Z</time>
      </trkpt>
      <trkpt lat="46.3502" lon="-1.24779">
        <ele>3.7</ele>
        <time>2020-06-02T15:58:39Z</time>
      </trkpt>
      <trkpt lat="46.3502" lon="-1.24778">
        <ele>3.7</ele>
        <time>2020-06-02T15:58:40Z</time>
      </trkpt>
      <trkpt lat="46.35024" lon="-1.24777">
        <ele>3.7</ele>
        <time>2020-06-02T15:58:41Z</time>
      </trkpt>
      <trkpt lat="46.35026" lon="-1.24777">
        <ele>3.7</ele>
        <time>2020-06-02T15:58:42Z</time>
      </trkpt>
      <trkpt lat="46.3503" lon="-1.24778">
        <ele>3.7</ele>
        <time>2020-06-02T15:58:43Z</time>
      </trkpt>
      <trkpt lat="46.35031" lon="-1.24778">
        <ele>3.7</ele>
        <time>2020-06-02T15:58:44Z</time>
      </trkpt>
      <trkpt lat="46.35034" lon="-1.24778">
        <ele>3.7</ele>
        <time>2020-06-02T15:58:45Z</time>
      </trkpt>
      <trkpt lat="46.35037" lon="-1.24779">
        <ele>3.7</ele>
        <time>2020-06-02T15:58:46Z</time>
      </trkpt>
      <trkpt lat="46.35041" lon="-1.24777">
        <ele>3.7</ele>
        <time>2020-06-02T15:58:47Z</time>
      </trkpt>
      <trkpt lat="46.35044" lon="-1.24776">
        <ele>3.7</ele>
        <time>2020-06-02T15:58:48Z</time>
      </trkpt>
      <trkpt lat="46.35048" lon="-1.24777">
        <ele>3.7</ele>
        <time>2020-06-02T15:58:49Z</time>
      </trkpt>
      <trkpt lat="46.35051" lon="-1.24776">
        <ele>3.7</ele>
        <time>2020-06-02T15:58:50Z</time>
      </trkpt>
      <trkpt lat="46.35054" lon="-1.24776">
        <ele>3.7</ele>
        <time>2020-06-02T15:58:51Z</time>
      </trkpt>
      <trkpt lat="46.35058" lon="-1.24776">
        <ele>3.7</ele>
        <time>2020-06-02T15:58:52Z</time>
      </trkpt>
      <trkpt lat="46.35062" lon="-1.24775">
        <ele>3.7</ele>
        <time>2020-06-02T15:58:53Z</time>
      </trkpt>
      <trkpt lat="46.35064" lon="-1.24775">
        <ele>3.7</ele>
        <time>2020-06-02T15:58:54Z</time>
      </trkpt>
      <trkpt lat="46.35068" lon="-1.24775">
        <ele>3.7</ele>
        <time>2020-06-02T15:58:55Z</time>
      </trkpt>
      <trkpt lat="46.35071" lon="-1.24776">
        <ele>3.7</ele>
        <time>2020-06-02T15:58:56Z</time>
      </trkpt>
      <trkpt lat="46.35076" lon="-1.24775">
        <ele>3.7</ele>
        <time>2020-06-02T15:58:57Z</time>
      </trkpt>
      <trkpt lat="46.35077" lon="-1.24776">
        <ele>3.8</ele>
        <time>2020-06-02T15:58:58Z</time>
      </trkpt>
      <trkpt lat="46.35081" lon="-1.24776">
        <ele>3.8</ele>
        <time>2020-06-02T15:58:59Z</time>
      </trkpt>
      <trkpt lat="46.35085" lon="-1.24777">
        <ele>3.8</ele>
        <time>2020-06-02T15:59:00Z</time>
      </trkpt>
      <trkpt lat="46.35086" lon="-1.24777">
        <ele>3.8</ele>
        <time>2020-06-02T15:59:01Z</time>
      </trkpt>
      <trkpt lat="46.3509" lon="-1.24778">
        <ele>3.8</ele>
        <time>2020-06-02T15:59:02Z</time>
      </trkpt>
      <trkpt lat="46.35091" lon="-1.24778">
        <ele>3.8</ele>
        <time>2020-06-02T15:59:03Z</time>
      </trkpt>
      <trkpt lat="46.35096" lon="-1.24776">
        <ele>3.8</ele>
        <time>2020-06-02T15:59:04Z</time>
      </trkpt>
      <trkpt lat="46.35097" lon="-1.24775">
        <ele>3.8</ele>
        <time>2020-06-02T15:59:05Z</time>
      </trkpt>
      <trkpt lat="46.351" lon="-1.24772">
        <ele>3.8</ele>
        <time>2020-06-02T15:59:06Z</time>
      </trkpt>
      <trkpt lat="46.35101" lon="-1.24771">
        <ele>3.8</ele>
        <time>2020-06-02T15:59:07Z</time>
      </trkpt>
      <trkpt lat="46.35103" lon="-1.24773">
        <ele>3.8</ele>
        <time>2020-06-02T15:59:08Z</time>
      </trkpt>
      <trkpt lat="46.35104" lon="-1.24775">
        <ele>3.8</ele>
        <time>2020-06-02T15:59:09Z</time>
      </trkpt>
      <trkpt lat="46.35103" lon="-1.24776">
        <ele>3.8</ele>
        <time>2020-06-02T15:59:10Z</time>
      </trkpt>
      <trkpt lat="46.35101" lon="-1.24778">
        <ele>3.8</ele>
        <time>2020-06-02T15:59:11Z</time>
      </trkpt>
      <trkpt lat="46.35098" lon="-1.24783">
        <ele>3.8</ele>
        <time>2020-06-02T15:59:12Z</time>
      </trkpt>
      <trkpt lat="46.35097" lon="-1.24786">
        <ele>3.8</ele>
        <time>2020-06-02T15:59:13Z</time>
      </trkpt>
      <trkpt lat="46.35094" lon="-1.24792">
        <ele>3.8</ele>
        <time>2020-06-02T15:59:14Z</time>
      </trkpt>
      <trkpt lat="46.3509" lon="-1.24799">
        <ele>3.8</ele>
        <time>2020-06-02T15:59:15Z</time>
      </trkpt>
      <trkpt lat="46.35087" lon="-1.24804">
        <ele>3.8</ele>
        <time>2020-06-02T15:59:16Z</time>
      </trkpt>
      <trkpt lat="46.35084" lon="-1.2481">
        <ele>3.8</ele>
        <time>2020-06-02T15:59:17Z</time>
      </trkpt>
      <trkpt lat="46.35081" lon="-1.24815">
        <ele>3.8</ele>
        <time>2020-06-02T15:59:18Z</time>
      </trkpt>
      <trkpt lat="46.35078" lon="-1.2482">
        <ele>3.8</ele>
        <time>2020-06-02T15:59:19Z</time>
      </trkpt>
      <trkpt lat="46.35075" lon="-1.24825">
        <ele>3.8</ele>
        <time>2020-06-02T15:59:20Z</time>
      </trkpt>
      <trkpt lat="46.35071" lon="-1.24832">
        <ele>3.9</ele>
        <time>2020-06-02T15:59:21Z</time>
      </trkpt>
      <trkpt lat="46.35067" lon="-1.24839">
        <ele>3.9</ele>
        <time>2020-06-02T15:59:22Z</time>
      </trkpt>
      <trkpt lat="46.35064" lon="-1.24844">
        <ele>4</ele>
        <time>2020-06-02T15:59:23Z</time>
      </trkpt>
      <trkpt lat="46.35061" lon="-1.24848">
        <ele>4</ele>
        <time>2020-06-02T15:59:24Z</time>
      </trkpt>
      <trkpt lat="46.35059" lon="-1.24854">
        <ele>4</ele>
        <time>2020-06-02T15:59:25Z</time>
      </trkpt>
      <trkpt lat="46.35056" lon="-1.2486">
        <ele>4.1</ele>
        <time>2020-06-02T15:59:26Z</time>
      </trkpt>
      <trkpt lat="46.35053" lon="-1.24866">
        <ele>4.1</ele>
        <time>2020-06-02T15:59:27Z</time>
      </trkpt>
      <trkpt lat="46.35051" lon="-1.24871">
        <ele>4.2</ele>
        <time>2020-06-02T15:59:28Z</time>
      </trkpt>
      <trkpt lat="46.35048" lon="-1.24875">
        <ele>4.2</ele>
        <time>2020-06-02T15:59:29Z</time>
      </trkpt>
      <trkpt lat="46.35045" lon="-1.2488">
        <ele>4.3</ele>
        <time>2020-06-02T15:59:30Z</time>
      </trkpt>
      <trkpt lat="46.35042" lon="-1.24886">
        <ele>4.3</ele>
        <time>2020-06-02T15:59:31Z</time>
      </trkpt>
      <trkpt lat="46.35037" lon="-1.24892">
        <ele>4.3</ele>
        <time>2020-06-02T15:59:32Z</time>
      </trkpt>
      <trkpt lat="46.35034" lon="-1.24895">
        <ele>4.3</ele>
        <time>2020-06-02T15:59:33Z</time>
      </trkpt>
      <trkpt lat="46.35031" lon="-1.249">
        <ele>4.3</ele>
        <time>2020-06-02T15:59:34Z</time>
      </trkpt>
      <trkpt lat="46.35028" lon="-1.24907">
        <ele>4.3</ele>
        <time>2020-06-02T15:59:35Z</time>
      </trkpt>
      <trkpt lat="46.35024" lon="-1.24913">
        <ele>4.3</ele>
        <time>2020-06-02T15:59:36Z</time>
      </trkpt>
      <trkpt lat="46.35021" lon="-1.24919">
        <ele>4.2</ele>
        <time>2020-06-02T15:59:37Z</time>
      </trkpt>
      <trkpt lat="46.35019" lon="-1.24924">
        <ele>4.2</ele>
        <time>2020-06-02T15:59:38Z</time>
      </trkpt>
      <trkpt lat="46.35016" lon="-1.24929">
        <ele>4.2</ele>
        <time>2020-06-02T15:59:39Z</time>
      </trkpt>
      <trkpt lat="46.35013" lon="-1.24938">
        <ele>4.1</ele>
        <time>2020-06-02T15:59:40Z</time>
      </trkpt>
      <trkpt lat="46.35011" lon="-1.24943">
        <ele>4.1</ele>
        <time>2020-06-02T15:59:41Z</time>
      </trkpt>
      <trkpt lat="46.35008" lon="-1.24948">
        <ele>4.1</ele>
        <time>2020-06-02T15:59:42Z</time>
      </trkpt>
      <trkpt lat="46.35005" lon="-1.24953">
        <ele>4</ele>
        <time>2020-06-02T15:59:43Z</time>
      </trkpt>
      <trkpt lat="46.35003" lon="-1.24958">
        <ele>4</ele>
        <time>2020-06-02T15:59:44Z</time>
      </trkpt>
      <trkpt lat="46.35" lon="-1.24964">
        <ele>3.9</ele>
        <time>2020-06-02T15:59:45Z</time>
      </trkpt>
      <trkpt lat="46.34997" lon="-1.2497">
        <ele>3.9</ele>
        <time>2020-06-02T15:59:46Z</time>
      </trkpt>
      <trkpt lat="46.34993" lon="-1.24976">
        <ele>3.8</ele>
        <time>2020-06-02T15:59:47Z</time>
      </trkpt>
      <trkpt lat="46.3499" lon="-1.24981">
        <ele>3.8</ele>
        <time>2020-06-02T15:59:48Z</time>
      </trkpt>
      <trkpt lat="46.34987" lon="-1.24987">
        <ele>3.7</ele>
        <time>2020-06-02T15:59:49Z</time>
      </trkpt>
      <trkpt lat="46.34984" lon="-1.24992">
        <ele>3.7</ele>
        <time>2020-06-02T15:59:50Z</time>
      </trkpt>
      <trkpt lat="46.34981" lon="-1.24996">
        <ele>3.7</ele>
        <time>2020-06-02T15:59:51Z</time>
      </trkpt>
      <trkpt lat="46.34979" lon="-1.25002">
        <ele>3.6</ele>
        <time>2020-06-02T15:59:52Z</time>
      </trkpt>
      <trkpt lat="46.34976" lon="-1.25007">
        <ele>3.6</ele>
        <time>2020-06-02T15:59:53Z</time>
      </trkpt>
      <trkpt lat="46.34973" lon="-1.25011">
        <ele>3.6</ele>
        <time>2020-06-02T15:59:54Z</time>
      </trkpt>
      <trkpt lat="46.34971" lon="-1.25015">
        <ele>3.6</ele>
        <time>2020-06-02T15:59:55Z</time>
      </trkpt>
      <trkpt lat="46.34969" lon="-1.25018">
        <ele>3.5</ele>
        <time>2020-06-02T15:59:56Z</time>
      </trkpt>
      <trkpt lat="46.34966" lon="-1.25023">
        <ele>3.5</ele>
        <time>2020-06-02T15:59:57Z</time>
      </trkpt>
      <trkpt lat="46.34965" lon="-1.25025">
        <ele>3.5</ele>
        <time>2020-06-02T15:59:58Z</time>
      </trkpt>
      <trkpt lat="46.34964" lon="-1.2503">
        <ele>3.5</ele>
        <time>2020-06-02T15:59:59Z</time>
      </trkpt>
      <trkpt lat="46.34966" lon="-1.25035">
        <ele>3.5</ele>
        <time>2020-06-02T16:00:00Z</time>
      </trkpt>
      <trkpt lat="46.34968" lon="-1.25039">
        <ele>3.6</ele>
        <time>2020-06-02T16:00:01Z</time>
      </trkpt>
      <trkpt lat="46.34971" lon="-1.25041">
        <ele>3.6</ele>
        <time>2020-06-02T16:00:02Z</time>
      </trkpt>
      <trkpt lat="46.34975" lon="-1.25043">
        <ele>3.6</ele>
        <time>2020-06-02T16:00:03Z</time>
      </trkpt>
      <trkpt lat="46.34978" lon="-1.25046">
        <ele>3.6</ele>
        <time>2020-06-02T16:00:04Z</time>
      </trkpt>
      <trkpt lat="46.34982" lon="-1.2505">
        <ele>3.7</ele>
        <time>2020-06-02T16:00:05Z</time>
      </trkpt>
      <trkpt lat="46.34985" lon="-1.25053">
        <ele>3.7</ele>
        <time>2020-06-02T16:00:06Z</time>
      </trkpt>
      <trkpt lat="46.34989" lon="-1.25055">
        <ele>3.8</ele>
        <time>2020-06-02T16:00:07Z</time>
      </trkpt>
      <trkpt lat="46.34992" lon="-1.25058">
        <ele>3.8</ele>
        <time>2020-06-02T16:00:08Z</time>
      </trkpt>
      <trkpt lat="46.34995" lon="-1.2506">
        <ele>3.8</ele>
        <time>2020-06-02T16:00:09Z</time>
      </trkpt>
      <trkpt lat="46.34998" lon="-1.25063">
        <ele>3.9</ele>
        <time>2020-06-02T16:00:10Z</time>
      </trkpt>
      <trkpt lat="46.35002" lon="-1.25066">
        <ele>3.9</ele>
        <time>2020-06-02T16:00:11Z</time>
      </trkpt>
      <trkpt lat="46.35006" lon="-1.25069">
        <ele>4</ele>
        <time>2020-06-02T16:00:12Z</time>
      </trkpt>
      <trkpt lat="46.3501" lon="-1.25072">
        <ele>4</ele>
        <time>2020-06-02T16:00:13Z</time>
      </trkpt>
      <trkpt lat="46.35014" lon="-1.25076">
        <ele>4</ele>
        <time>2020-06-02T16:00:14Z</time>
      </trkpt>
      <trkpt lat="46.35018" lon="-1.2508">
        <ele>4.1</ele>
        <time>2020-06-02T16:00:15Z</time>
      </trkpt>
      <trkpt lat="46.3502" lon="-1.25084">
        <ele>4.1</ele>
        <time>2020-06-02T16:00:16Z</time>
      </trkpt>
      <trkpt lat="46.35023" lon="-1.25089">
        <ele>4.1</ele>
        <time>2020-06-02T16:00:17Z</time>
      </trkpt>
      <trkpt lat="46.35025" lon="-1.25092">
        <ele>4.1</ele>
        <time>2020-06-02T16:00:18Z</time>
      </trkpt>
      <trkpt lat="46.35027" lon="-1.25093">
        <ele>4.2</ele>
        <time>2020-06-02T16:00:19Z</time>
      </trkpt>
      <trkpt lat="46.35027" lon="-1.25095">
        <ele>4.2</ele>
        <time>2020-06-02T16:00:20Z</time>
      </trkpt>
      <trkpt lat="46.35028" lon="-1.25098">
        <ele>4.2</ele>
        <time>2020-06-02T16:00:21Z</time>
      </trkpt>
      <trkpt lat="46.35026" lon="-1.25103">
        <ele>4.2</ele>
        <time>2020-06-02T16:00:22Z</time>
      </trkpt>
      <trkpt lat="46.35025" lon="-1.25105">
        <ele>4.2</ele>
        <time>2020-06-02T16:00:23Z</time>
      </trkpt>
      <trkpt lat="46.35024" lon="-1.25108">
        <ele>4.2</ele>
        <time>2020-06-02T16:00:24Z</time>
      </trkpt>
      <trkpt lat="46.35022" lon="-1.25112">
        <ele>4.2</ele>
        <time>2020-06-02T16:00:25Z</time>
      </trkpt>
      <trkpt lat="46.35019" lon="-1.25116">
        <ele>4.2</ele>
        <time>2020-06-02T16:00:26Z</time>
      </trkpt>
      <trkpt lat="46.35016" lon="-1.25123">
        <ele>4.2</ele>
        <time>2020-06-02T16:00:27Z</time>
      </trkpt>
      <trkpt lat="46.35013" lon="-1.25129">
        <ele>4.2</ele>
        <time>2020-06-02T16:00:28Z</time>
      </trkpt>
      <trkpt lat="46.35011" lon="-1.25134">
        <ele>4.2</ele>
        <time>2020-06-02T16:00:29Z</time>
      </trkpt>
      <trkpt lat="46.35008" lon="-1.25139">
        <ele>4.2</ele>
        <time>2020-06-02T16:00:30Z</time>
      </trkpt>
      <trkpt lat="46.35007" lon="-1.25143">
        <ele>4.2</ele>
        <time>2020-06-02T16:00:31Z</time>
      </trkpt>
      <trkpt lat="46.35005" lon="-1.25148">
        <ele>4.2</ele>
        <time>2020-06-02T16:00:32Z</time>
      </trkpt>
      <trkpt lat="46.35003" lon="-1.25153">
        <ele>4.2</ele>
        <time>2020-06-02T16:00:33Z</time>
      </trkpt>
      <trkpt lat="46.35001" lon="-1.25159">
        <ele>4.2</ele>
        <time>2020-06-02T16:00:34Z</time>
      </trkpt>
      <trkpt lat="46.34999" lon="-1.25167">
        <ele>4.2</ele>
        <time>2020-06-02T16:00:35Z</time>
      </trkpt>
      <trkpt lat="46.34997" lon="-1.25172">
        <ele>4.3</ele>
        <time>2020-06-02T16:00:36Z</time>
      </trkpt>
      <trkpt lat="46.34995" lon="-1.25179">
        <ele>4.3</ele>
        <time>2020-06-02T16:00:37Z</time>
      </trkpt>
      <trkpt lat="46.34994" lon="-1.25186">
        <ele>4.3</ele>
        <time>2020-06-02T16:00:38Z</time>
      </trkpt>
      <trkpt lat="46.34994" lon="-1.25194">
        <ele>4.3</ele>
        <time>2020-06-02T16:00:39Z</time>
      </trkpt>
      <trkpt lat="46.34993" lon="-1.25203">
        <ele>4.3</ele>
        <time>2020-06-02T16:00:40Z</time>
      </trkpt>
      <trkpt lat="46.3499" lon="-1.25214">
        <ele>4.3</ele>
        <time>2020-06-02T16:00:41Z</time>
      </trkpt>
      <trkpt lat="46.34989" lon="-1.25223">
        <ele>4.3</ele>
        <time>2020-06-02T16:00:42Z</time>
      </trkpt>
      <trkpt lat="46.34988" lon="-1.25231">
        <ele>4.4</ele>
        <time>2020-06-02T16:00:43Z</time>
      </trkpt>
      <trkpt lat="46.34987" lon="-1.2524">
        <ele>4.4</ele>
        <time>2020-06-02T16:00:44Z</time>
      </trkpt>
      <trkpt lat="46.34986" lon="-1.25247">
        <ele>4.4</ele>
        <time>2020-06-02T16:00:45Z</time>
      </trkpt>
      <trkpt lat="46.34985" lon="-1.25253">
        <ele>4.4</ele>
        <time>2020-06-02T16:00:46Z</time>
      </trkpt>
      <trkpt lat="46.34983" lon="-1.25261">
        <ele>4.4</ele>
        <time>2020-06-02T16:00:47Z</time>
      </trkpt>
      <trkpt lat="46.34981" lon="-1.25268">
        <ele>4.3</ele>
        <time>2020-06-02T16:00:48Z</time>
      </trkpt>
      <trkpt lat="46.3498" lon="-1.25275">
        <ele>4.3</ele>
        <time>2020-06-02T16:00:49Z</time>
      </trkpt>
      <trkpt lat="46.34979" lon="-1.25282">
        <ele>4.2</ele>
        <time>2020-06-02T16:00:50Z</time>
      </trkpt>
      <trkpt lat="46.34977" lon="-1.25291">
        <ele>4.2</ele>
        <time>2020-06-02T16:00:51Z</time>
      </trkpt>
      <trkpt lat="46.34975" lon="-1.25299">
        <ele>4.1</ele>
        <time>2020-06-02T16:00:52Z</time>
      </trkpt>
      <trkpt lat="46.34974" lon="-1.25309">
        <ele>4</ele>
        <time>2020-06-02T16:00:53Z</time>
      </trkpt>
      <trkpt lat="46.34973" lon="-1.25317">
        <ele>4</ele>
        <time>2020-06-02T16:00:54Z</time>
      </trkpt>
      <trkpt lat="46.34972" lon="-1.25324">
        <ele>4</ele>
        <time>2020-06-02T16:00:55Z</time>
      </trkpt>
      <trkpt lat="46.34971" lon="-1.25332">
        <ele>3.9</ele>
        <time>2020-06-02T16:00:56Z</time>
      </trkpt>
      <trkpt lat="46.3497" lon="-1.25341">
        <ele>3.9</ele>
        <time>2020-06-02T16:00:57Z</time>
      </trkpt>
      <trkpt lat="46.34968" lon="-1.25349">
        <ele>3.9</ele>
        <time>2020-06-02T16:00:58Z</time>
      </trkpt>
      <trkpt lat="46.34967" lon="-1.25358">
        <ele>3.9</ele>
        <time>2020-06-02T16:00:59Z</time>
      </trkpt>
      <trkpt lat="46.34966" lon="-1.25366">
        <ele>3.8</ele>
        <time>2020-06-02T16:01:00Z</time>
      </trkpt>
      <trkpt lat="46.34964" lon="-1.25374">
        <ele>3.8</ele>
        <time>2020-06-02T16:01:01Z</time>
      </trkpt>
      <trkpt lat="46.34963" lon="-1.25382">
        <ele>3.8</ele>
        <time>2020-06-02T16:01:02Z</time>
      </trkpt>
      <trkpt lat="46.34962" lon="-1.25389">
        <ele>3.8</ele>
        <time>2020-06-02T16:01:03Z</time>
      </trkpt>
      <trkpt lat="46.34961" lon="-1.25397">
        <ele>3.8</ele>
        <time>2020-06-02T16:01:04Z</time>
      </trkpt>
      <trkpt lat="46.3496" lon="-1.25405">
        <ele>3.8</ele>
        <time>2020-06-02T16:01:05Z</time>
      </trkpt>
      <trkpt lat="46.34959" lon="-1.25412">
        <ele>3.8</ele>
        <time>2020-06-02T16:01:06Z</time>
      </trkpt>
      <trkpt lat="46.34957" lon="-1.2542">
        <ele>3.8</ele>
        <time>2020-06-02T16:01:07Z</time>
      </trkpt>
      <trkpt lat="46.34955" lon="-1.25427">
        <ele>3.8</ele>
        <time>2020-06-02T16:01:08Z</time>
      </trkpt>
      <trkpt lat="46.34954" lon="-1.25434">
        <ele>3.8</ele>
        <time>2020-06-02T16:01:09Z</time>
      </trkpt>
      <trkpt lat="46.34953" lon="-1.2544">
        <ele>3.8</ele>
        <time>2020-06-02T16:01:10Z</time>
      </trkpt>
      <trkpt lat="46.34952" lon="-1.25447">
        <ele>3.8</ele>
        <time>2020-06-02T16:01:11Z</time>
      </trkpt>
      <trkpt lat="46.34951" lon="-1.25455">
        <ele>3.8</ele>
        <time>2020-06-02T16:01:12Z</time>
      </trkpt>
      <trkpt lat="46.34949" lon="-1.25464">
        <ele>3.9</ele>
        <time>2020-06-02T16:01:13Z</time>
      </trkpt>
      <trkpt lat="46.34948" lon="-1.25471">
        <ele>3.9</ele>
        <time>2020-06-02T16:01:14Z</time>
      </trkpt>
      <trkpt lat="46.34947" lon="-1.2548">
        <ele>3.9</ele>
        <time>2020-06-02T16:01:15Z</time>
      </trkpt>
      <trkpt lat="46.34947" lon="-1.25486">
        <ele>3.9</ele>
        <time>2020-06-02T16:01:16Z</time>
      </trkpt>
      <trkpt lat="46.34945" lon="-1.25494">
        <ele>3.9</ele>
        <time>2020-06-02T16:01:17Z</time>
      </trkpt>
      <trkpt lat="46.34946" lon="-1.25502">
        <ele>3.9</ele>
        <time>2020-06-02T16:01:18Z</time>
      </trkpt>
      <trkpt lat="46.34945" lon="-1.25508">
        <ele>4</ele>
        <time>2020-06-02T16:01:19Z</time>
      </trkpt>
      <trkpt lat="46.34945" lon="-1.25516">
        <ele>4</ele>
        <time>2020-06-02T16:01:20Z</time>
      </trkpt>
      <trkpt lat="46.34943" lon="-1.25523">
        <ele>4</ele>
        <time>2020-06-02T16:01:21Z</time>
      </trkpt>
      <trkpt lat="46.34942" lon="-1.25533">
        <ele>4</ele>
        <time>2020-06-02T16:01:22Z</time>
      </trkpt>
      <trkpt lat="46.3494" lon="-1.25541">
        <ele>4</ele>
        <time>2020-06-02T16:01:23Z</time>
      </trkpt>
      <trkpt lat="46.34939" lon="-1.2555">
        <ele>4</ele>
        <time>2020-06-02T16:01:24Z</time>
      </trkpt>
      <trkpt lat="46.34939" lon="-1.25556">
        <ele>4.1</ele>
        <time>2020-06-02T16:01:25Z</time>
      </trkpt>
      <trkpt lat="46.34938" lon="-1.25563">
        <ele>4.1</ele>
        <time>2020-06-02T16:01:26Z</time>
      </trkpt>
      <trkpt lat="46.34936" lon="-1.25572">
        <ele>4.1</ele>
        <time>2020-06-02T16:01:27Z</time>
      </trkpt>
      <trkpt lat="46.34935" lon="-1.25579">
        <ele>4.1</ele>
        <time>2020-06-02T16:01:28Z</time>
      </trkpt>
      <trkpt lat="46.34933" lon="-1.25586">
        <ele>4.1</ele>
        <time>2020-06-02T16:01:29Z</time>
      </trkpt>
      <trkpt lat="46.34932" lon="-1.25593">
        <ele>4.1</ele>
        <time>2020-06-02T16:01:30Z</time>
      </trkpt>
      <trkpt lat="46.34931" lon="-1.25601">
        <ele>4.1</ele>
        <time>2020-06-02T16:01:31Z</time>
      </trkpt>
      <trkpt lat="46.34929" lon="-1.2561">
        <ele>4.2</ele>
        <time>2020-06-02T16:01:32Z</time>
      </trkpt>
      <trkpt lat="46.34928" lon="-1.25617">
        <ele>4.2</ele>
        <time>2020-06-02T16:01:33Z</time>
      </trkpt>
      <trkpt lat="46.34927" lon="-1.25625">
        <ele>4.2</ele>
        <time>2020-06-02T16:01:34Z</time>
      </trkpt>
      <trkpt lat="46.34926" lon="-1.25633">
        <ele>4.2</ele>
        <time>2020-06-02T16:01:35Z</time>
      </trkpt>
      <trkpt lat="46.34925" lon="-1.25642">
        <ele>4.2</ele>
        <time>2020-06-02T16:01:36Z</time>
      </trkpt>
      <trkpt lat="46.34923" lon="-1.2565">
        <ele>4.2</ele>
        <time>2020-06-02T16:01:37Z</time>
      </trkpt>
      <trkpt lat="46.34921" lon="-1.25658">
        <ele>4.2</ele>
        <time>2020-06-02T16:01:38Z</time>
      </trkpt>
      <trkpt lat="46.3492" lon="-1.25665">
        <ele>4.2</ele>
        <time>2020-06-02T16:01:39Z</time>
      </trkpt>
      <trkpt lat="46.34919" lon="-1.25673">
        <ele>4.3</ele>
        <time>2020-06-02T16:01:40Z</time>
      </trkpt>
      <trkpt lat="46.34918" lon="-1.25681">
        <ele>4.3</ele>
        <time>2020-06-02T16:01:41Z</time>
      </trkpt>
      <trkpt lat="46.34917" lon="-1.25689">
        <ele>4.3</ele>
        <time>2020-06-02T16:01:42Z</time>
      </trkpt>
      <trkpt lat="46.34917" lon="-1.25698">
        <ele>4.3</ele>
        <time>2020-06-02T16:01:43Z</time>
      </trkpt>
      <trkpt lat="46.34916" lon="-1.25706">
        <ele>4.3</ele>
        <time>2020-06-02T16:01:44Z</time>
      </trkpt>
      <trkpt lat="46.34915" lon="-1.25714">
        <ele>4.3</ele>
        <time>2020-06-02T16:01:45Z</time>
      </trkpt>
      <trkpt lat="46.34914" lon="-1.25722">
        <ele>4.3</ele>
        <time>2020-06-02T16:01:46Z</time>
      </trkpt>
      <trkpt lat="46.34911" lon="-1.25731">
        <ele>4.3</ele>
        <time>2020-06-02T16:01:47Z</time>
      </trkpt>
      <trkpt lat="46.3491" lon="-1.2574">
        <ele>4.3</ele>
        <time>2020-06-02T16:01:48Z</time>
      </trkpt>
      <trkpt lat="46.3491" lon="-1.25749">
        <ele>4.3</ele>
        <time>2020-06-02T16:01:49Z</time>
      </trkpt>
      <trkpt lat="46.34908" lon="-1.25757">
        <ele>4.4</ele>
        <time>2020-06-02T16:01:50Z</time>
      </trkpt>
      <trkpt lat="46.34907" lon="-1.25765">
        <ele>4.4</ele>
        <time>2020-06-02T16:01:51Z</time>
      </trkpt>
      <trkpt lat="46.34906" lon="-1.25773">
        <ele>4.3</ele>
        <time>2020-06-02T16:01:52Z</time>
      </trkpt>
      <trkpt lat="46.34904" lon="-1.25782">
        <ele>4.3</ele>
        <time>2020-06-02T16:01:53Z</time>
      </trkpt>
      <trkpt lat="46.34903" lon="-1.2579">
        <ele>4.2</ele>
        <time>2020-06-02T16:01:55Z</time>
      </trkpt>
      <trkpt lat="46.34902" lon="-1.25798">
        <ele>4.2</ele>
        <time>2020-06-02T16:01:56Z</time>
      </trkpt>
      <trkpt lat="46.34901" lon="-1.25807">
        <ele>4.1</ele>
        <time>2020-06-02T16:01:57Z</time>
      </trkpt>
      <trkpt lat="46.349" lon="-1.25817">
        <ele>4</ele>
        <time>2020-06-02T16:01:58Z</time>
      </trkpt>
      <trkpt lat="46.34899" lon="-1.25827">
        <ele>3.9</ele>
        <time>2020-06-02T16:01:59Z</time>
      </trkpt>
      <trkpt lat="46.34898" lon="-1.25836">
        <ele>3.9</ele>
        <time>2020-06-02T16:02:00Z</time>
      </trkpt>
      <trkpt lat="46.34897" lon="-1.25845">
        <ele>3.8</ele>
        <time>2020-06-02T16:02:01Z</time>
      </trkpt>
      <trkpt lat="46.34894" lon="-1.25862">
        <ele>3.7</ele>
        <time>2020-06-02T16:02:02Z</time>
      </trkpt>
      <trkpt lat="46.34892" lon="-1.25869">
        <ele>3.6</ele>
        <time>2020-06-02T16:02:03Z</time>
      </trkpt>
      <trkpt lat="46.34892" lon="-1.25877">
        <ele>3.6</ele>
        <time>2020-06-02T16:02:04Z</time>
      </trkpt>
      <trkpt lat="46.34892" lon="-1.25884">
        <ele>3.6</ele>
        <time>2020-06-02T16:02:05Z</time>
      </trkpt>
      <trkpt lat="46.34892" lon="-1.25892">
        <ele>3.5</ele>
        <time>2020-06-02T16:02:06Z</time>
      </trkpt>
      <trkpt lat="46.34891" lon="-1.259">
        <ele>3.5</ele>
        <time>2020-06-02T16:02:07Z</time>
      </trkpt>
      <trkpt lat="46.3489" lon="-1.25909">
        <ele>3.5</ele>
        <time>2020-06-02T16:02:08Z</time>
      </trkpt>
      <trkpt lat="46.34889" lon="-1.25918">
        <ele>3.5</ele>
        <time>2020-06-02T16:02:09Z</time>
      </trkpt>
      <trkpt lat="46.34887" lon="-1.25927">
        <ele>3.5</ele>
        <time>2020-06-02T16:02:10Z</time>
      </trkpt>
      <trkpt lat="46.34886" lon="-1.25936">
        <ele>3.5</ele>
        <time>2020-06-02T16:02:11Z</time>
      </trkpt>
      <trkpt lat="46.34884" lon="-1.25945">
        <ele>3.5</ele>
        <time>2020-06-02T16:02:12Z</time>
      </trkpt>
      <trkpt lat="46.34883" lon="-1.25953">
        <ele>3.5</ele>
        <time>2020-06-02T16:02:13Z</time>
      </trkpt>
      <trkpt lat="46.34881" lon="-1.25961">
        <ele>3.5</ele>
        <time>2020-06-02T16:02:14Z</time>
      </trkpt>
      <trkpt lat="46.34879" lon="-1.25969">
        <ele>3.5</ele>
        <time>2020-06-02T16:02:15Z</time>
      </trkpt>
      <trkpt lat="46.34877" lon="-1.25977">
        <ele>3.5</ele>
        <time>2020-06-02T16:02:16Z</time>
      </trkpt>
      <trkpt lat="46.34875" lon="-1.25985">
        <ele>3.5</ele>
        <time>2020-06-02T16:02:17Z</time>
      </trkpt>
      <trkpt lat="46.34874" lon="-1.25991">
        <ele>3.5</ele>
        <time>2020-06-02T16:02:18Z</time>
      </trkpt>
      <trkpt lat="46.34872" lon="-1.25998">
        <ele>3.5</ele>
        <time>2020-06-02T16:02:19Z</time>
      </trkpt>
      <trkpt lat="46.34871" lon="-1.26005">
        <ele>3.4</ele>
        <time>2020-06-02T16:02:20Z</time>
      </trkpt>
      <trkpt lat="46.34869" lon="-1.26014">
        <ele>3.4</ele>
        <time>2020-06-02T16:02:21Z</time>
      </trkpt>
      <trkpt lat="46.34868" lon="-1.26022">
        <ele>3.4</ele>
        <time>2020-06-02T16:02:22Z</time>
      </trkpt>
      <trkpt lat="46.34866" lon="-1.26031">
        <ele>3.4</ele>
        <time>2020-06-02T16:02:23Z</time>
      </trkpt>
      <trkpt lat="46.34864" lon="-1.26039">
        <ele>3.4</ele>
        <time>2020-06-02T16:02:24Z</time>
      </trkpt>
      <trkpt lat="46.34862" lon="-1.26046">
        <ele>3.4</ele>
        <time>2020-06-02T16:02:25Z</time>
      </trkpt>
      <trkpt lat="46.34859" lon="-1.26055">
        <ele>3.4</ele>
        <time>2020-06-02T16:02:26Z</time>
      </trkpt>
      <trkpt lat="46.34857" lon="-1.26063">
        <ele>3.4</ele>
        <time>2020-06-02T16:02:27Z</time>
      </trkpt>
      <trkpt lat="46.34858" lon="-1.2607">
        <ele>3.4</ele>
        <time>2020-06-02T16:02:28Z</time>
      </trkpt>
      <trkpt lat="46.34859" lon="-1.26077">
        <ele>3.5</ele>
        <time>2020-06-02T16:02:29Z</time>
      </trkpt>
      <trkpt lat="46.34861" lon="-1.26086">
        <ele>3.5</ele>
        <time>2020-06-02T16:02:30Z</time>
      </trkpt>
      <trkpt lat="46.34862" lon="-1.26095">
        <ele>3.5</ele>
        <time>2020-06-02T16:02:31Z</time>
      </trkpt>
      <trkpt lat="46.34863" lon="-1.26104">
        <ele>3.6</ele>
        <time>2020-06-02T16:02:32Z</time>
      </trkpt>
      <trkpt lat="46.34864" lon="-1.26112">
        <ele>3.6</ele>
        <time>2020-06-02T16:02:33Z</time>
      </trkpt>
      <trkpt lat="46.34865" lon="-1.26121">
        <ele>3.6</ele>
        <time>2020-06-02T16:02:34Z</time>
      </trkpt>
      <trkpt lat="46.34866" lon="-1.2613">
        <ele>3.5</ele>
        <time>2020-06-02T16:02:35Z</time>
      </trkpt>
      <trkpt lat="46.34867" lon="-1.26138">
        <ele>3.5</ele>
        <time>2020-06-02T16:02:36Z</time>
      </trkpt>
      <trkpt lat="46.34868" lon="-1.26147">
        <ele>3.5</ele>
        <time>2020-06-02T16:02:37Z</time>
      </trkpt>
      <trkpt lat="46.34869" lon="-1.26155">
        <ele>3.5</ele>
        <time>2020-06-02T16:02:38Z</time>
      </trkpt>
      <trkpt lat="46.3487" lon="-1.26164">
        <ele>3.5</ele>
        <time>2020-06-02T16:02:39Z</time>
      </trkpt>
      <trkpt lat="46.34871" lon="-1.26173">
        <ele>3.5</ele>
        <time>2020-06-02T16:02:40Z</time>
      </trkpt>
      <trkpt lat="46.34872" lon="-1.26182">
        <ele>3.6</ele>
        <time>2020-06-02T16:02:41Z</time>
      </trkpt>
      <trkpt lat="46.34872" lon="-1.26192">
        <ele>3.6</ele>
        <time>2020-06-02T16:02:42Z</time>
      </trkpt>
      <trkpt lat="46.34873" lon="-1.262">
        <ele>3.6</ele>
        <time>2020-06-02T16:02:43Z</time>
      </trkpt>
      <trkpt lat="46.34873" lon="-1.2621">
        <ele>3.7</ele>
        <time>2020-06-02T16:02:44Z</time>
      </trkpt>
      <trkpt lat="46.34874" lon="-1.26219">
        <ele>3.7</ele>
        <time>2020-06-02T16:02:45Z</time>
      </trkpt>
      <trkpt lat="46.34874" lon="-1.26228">
        <ele>3.7</ele>
        <time>2020-06-02T16:02:46Z</time>
      </trkpt>
      <trkpt lat="46.34875" lon="-1.26235">
        <ele>3.8</ele>
        <time>2020-06-02T16:02:47Z</time>
      </trkpt>
      <trkpt lat="46.34875" lon="-1.26243">
        <ele>3.8</ele>
        <time>2020-06-02T16:02:48Z</time>
      </trkpt>
      <trkpt lat="46.34875" lon="-1.26251">
        <ele>3.8</ele>
        <time>2020-06-02T16:02:49Z</time>
      </trkpt>
      <trkpt lat="46.34875" lon="-1.26258">
        <ele>3.9</ele>
        <time>2020-06-02T16:02:50Z</time>
      </trkpt>
      <trkpt lat="46.34875" lon="-1.26265">
        <ele>3.9</ele>
        <time>2020-06-02T16:02:51Z</time>
      </trkpt>
      <trkpt lat="46.34876" lon="-1.26272">
        <ele>3.9</ele>
        <time>2020-06-02T16:02:52Z</time>
      </trkpt>
      <trkpt lat="46.34877" lon="-1.26279">
        <ele>3.9</ele>
        <time>2020-06-02T16:02:53Z</time>
      </trkpt>
      <trkpt lat="46.34877" lon="-1.26286">
        <ele>3.9</ele>
        <time>2020-06-02T16:02:54Z</time>
      </trkpt>
      <trkpt lat="46.34878" lon="-1.26295">
        <ele>3.9</ele>
        <time>2020-06-02T16:02:55Z</time>
      </trkpt>
      <trkpt lat="46.3488" lon="-1.26301">
        <ele>3.9</ele>
        <time>2020-06-02T16:02:56Z</time>
      </trkpt>
      <trkpt lat="46.34882" lon="-1.26306">
        <ele>4</ele>
        <time>2020-06-02T16:02:57Z</time>
      </trkpt>
      <trkpt lat="46.34884" lon="-1.26311">
        <ele>4</ele>
        <time>2020-06-02T16:02:58Z</time>
      </trkpt>
      <trkpt lat="46.34887" lon="-1.26317">
        <ele>4</ele>
        <time>2020-06-02T16:02:59Z</time>
      </trkpt>
      <trkpt lat="46.34889" lon="-1.26322">
        <ele>4</ele>
        <time>2020-06-02T16:03:00Z</time>
      </trkpt>
      <trkpt lat="46.34889" lon="-1.26329">
        <ele>4</ele>
        <time>2020-06-02T16:03:01Z</time>
      </trkpt>
      <trkpt lat="46.34887" lon="-1.26334">
        <ele>4</ele>
        <time>2020-06-02T16:03:02Z</time>
      </trkpt>
      <trkpt lat="46.34884" lon="-1.26338">
        <ele>4</ele>
        <time>2020-06-02T16:03:03Z</time>
      </trkpt>
      <trkpt lat="46.34879" lon="-1.26342">
        <ele>4</ele>
        <time>2020-06-02T16:03:04Z</time>
      </trkpt>
      <trkpt lat="46.34875" lon="-1.26346">
        <ele>3.9</ele>
        <time>2020-06-02T16:03:05Z</time>
      </trkpt>
      <trkpt lat="46.34872" lon="-1.26352">
        <ele>3.9</ele>
        <time>2020-06-02T16:03:06Z</time>
      </trkpt>
      <trkpt lat="46.34868" lon="-1.26357">
        <ele>3.9</ele>
        <time>2020-06-02T16:03:07Z</time>
      </trkpt>
      <trkpt lat="46.34864" lon="-1.26362">
        <ele>3.9</ele>
        <time>2020-06-02T16:03:08Z</time>
      </trkpt>
      <trkpt lat="46.34861" lon="-1.26367">
        <ele>3.9</ele>
        <time>2020-06-02T16:03:09Z</time>
      </trkpt>
      <trkpt lat="46.34857" lon="-1.26372">
        <ele>3.9</ele>
        <time>2020-06-02T16:03:10Z</time>
      </trkpt>
      <trkpt lat="46.34853" lon="-1.26378">
        <ele>3.9</ele>
        <time>2020-06-02T16:03:11Z</time>
      </trkpt>
      <trkpt lat="46.34849" lon="-1.26383">
        <ele>3.8</ele>
        <time>2020-06-02T16:03:12Z</time>
      </trkpt>
      <trkpt lat="46.34845" lon="-1.26389">
        <ele>3.8</ele>
        <time>2020-06-02T16:03:13Z</time>
      </trkpt>
      <trkpt lat="46.34841" lon="-1.26395">
        <ele>3.8</ele>
        <time>2020-06-02T16:03:14Z</time>
      </trkpt>
      <trkpt lat="46.34838" lon="-1.264">
        <ele>3.8</ele>
        <time>2020-06-02T16:03:15Z</time>
      </trkpt>
      <trkpt lat="46.34834" lon="-1.26405">
        <ele>3.8</ele>
        <time>2020-06-02T16:03:16Z</time>
      </trkpt>
      <trkpt lat="46.3483" lon="-1.26411">
        <ele>3.8</ele>
        <time>2020-06-02T16:03:17Z</time>
      </trkpt>
      <trkpt lat="46.34826" lon="-1.26417">
        <ele>3.8</ele>
        <time>2020-06-02T16:03:18Z</time>
      </trkpt>
      <trkpt lat="46.34822" lon="-1.26423">
        <ele>3.8</ele>
        <time>2020-06-02T16:03:19Z</time>
      </trkpt>
      <trkpt lat="46.34818" lon="-1.26428">
        <ele>3.8</ele>
        <time>2020-06-02T16:03:20Z</time>
      </trkpt>
      <trkpt lat="46.34813" lon="-1.26434">
        <ele>3.8</ele>
        <time>2020-06-02T16:03:21Z</time>
      </trkpt>
      <trkpt lat="46.34809" lon="-1.2644">
        <ele>3.8</ele>
        <time>2020-06-02T16:03:22Z</time>
      </trkpt>
      <trkpt lat="46.34806" lon="-1.26445">
        <ele>3.7</ele>
        <time>2020-06-02T16:03:23Z</time>
      </trkpt>
      <trkpt lat="46.34802" lon="-1.26451">
        <ele>3.7</ele>
        <time>2020-06-02T16:03:24Z</time>
      </trkpt>
      <trkpt lat="46.34798" lon="-1.26457">
        <ele>3.7</ele>
        <time>2020-06-02T16:03:25Z</time>
      </trkpt>
      <trkpt lat="46.34794" lon="-1.26462">
        <ele>3.7</ele>
        <time>2020-06-02T16:03:26Z</time>
      </trkpt>
      <trkpt lat="46.34791" lon="-1.26467">
        <ele>3.7</ele>
        <time>2020-06-02T16:03:27Z</time>
      </trkpt>
      <trkpt lat="46.34787" lon="-1.26472">
        <ele>3.7</ele>
        <time>2020-06-02T16:03:28Z</time>
      </trkpt>
      <trkpt lat="46.34783" lon="-1.26478">
        <ele>3.7</ele>
        <time>2020-06-02T16:03:29Z</time>
      </trkpt>
      <trkpt lat="46.34779" lon="-1.26484">
        <ele>3.7</ele>
        <time>2020-06-02T16:03:30Z</time>
      </trkpt>
      <trkpt lat="46.34776" lon="-1.2649">
        <ele>3.7</ele>
        <time>2020-06-02T16:03:31Z</time>
      </trkpt>
      <trkpt lat="46.34772" lon="-1.26496">
        <ele>3.6</ele>
        <time>2020-06-02T16:03:32Z</time>
      </trkpt>
      <trkpt lat="46.34768" lon="-1.265">
        <ele>3.6</ele>
        <time>2020-06-02T16:03:33Z</time>
      </trkpt>
      <trkpt lat="46.34764" lon="-1.26505">
        <ele>3.6</ele>
        <time>2020-06-02T16:03:34Z</time>
      </trkpt>
      <trkpt lat="46.3476" lon="-1.26511">
        <ele>3.6</ele>
        <time>2020-06-02T16:03:35Z</time>
      </trkpt>
      <trkpt lat="46.34756" lon="-1.26516">
        <ele>3.6</ele>
        <time>2020-06-02T16:03:36Z</time>
      </trkpt>
      <trkpt lat="46.34752" lon="-1.26521">
        <ele>3.6</ele>
        <time>2020-06-02T16:03:37Z</time>
      </trkpt>
      <trkpt lat="46.34748" lon="-1.26525">
        <ele>3.6</ele>
        <time>2020-06-02T16:03:38Z</time>
      </trkpt>
      <trkpt lat="46.34743" lon="-1.26531">
        <ele>3.6</ele>
        <time>2020-06-02T16:03:39Z</time>
      </trkpt>
      <trkpt lat="46.34739" lon="-1.26537">
        <ele>3.6</ele>
        <time>2020-06-02T16:03:40Z</time>
      </trkpt>
      <trkpt lat="46.34735" lon="-1.26543">
        <ele>3.6</ele>
        <time>2020-06-02T16:03:41Z</time>
      </trkpt>
      <trkpt lat="46.34731" lon="-1.26548">
        <ele>3.6</ele>
        <time>2020-06-02T16:03:42Z</time>
      </trkpt>
      <trkpt lat="46.34728" lon="-1.26554">
        <ele>3.5</ele>
        <time>2020-06-02T16:03:43Z</time>
      </trkpt>
      <trkpt lat="46.34724" lon="-1.26559">
        <ele>3.5</ele>
        <time>2020-06-02T16:03:44Z</time>
      </trkpt>
      <trkpt lat="46.3472" lon="-1.26564">
        <ele>3.5</ele>
        <time>2020-06-02T16:03:45Z</time>
      </trkpt>
      <trkpt lat="46.34716" lon="-1.26569">
        <ele>3.5</ele>
        <time>2020-06-02T16:03:46Z</time>
      </trkpt>
      <trkpt lat="46.34713" lon="-1.26574">
        <ele>3.5</ele>
        <time>2020-06-02T16:03:47Z</time>
      </trkpt>
      <trkpt lat="46.34709" lon="-1.2658">
        <ele>3.5</ele>
        <time>2020-06-02T16:03:48Z</time>
      </trkpt>
      <trkpt lat="46.34705" lon="-1.26586">
        <ele>3.5</ele>
        <time>2020-06-02T16:03:49Z</time>
      </trkpt>
      <trkpt lat="46.34701" lon="-1.26592">
        <ele>3.6</ele>
        <time>2020-06-02T16:03:50Z</time>
      </trkpt>
      <trkpt lat="46.34697" lon="-1.26597">
        <ele>3.6</ele>
        <time>2020-06-02T16:03:51Z</time>
      </trkpt>
      <trkpt lat="46.34693" lon="-1.26604">
        <ele>3.6</ele>
        <time>2020-06-02T16:03:52Z</time>
      </trkpt>
      <trkpt lat="46.3469" lon="-1.2661">
        <ele>3.6</ele>
        <time>2020-06-02T16:03:53Z</time>
      </trkpt>
      <trkpt lat="46.34686" lon="-1.26616">
        <ele>3.6</ele>
        <time>2020-06-02T16:03:54Z</time>
      </trkpt>
      <trkpt lat="46.34682" lon="-1.26621">
        <ele>3.6</ele>
        <time>2020-06-02T16:03:55Z</time>
      </trkpt>
      <trkpt lat="46.34678" lon="-1.26626">
        <ele>3.6</ele>
        <time>2020-06-02T16:03:56Z</time>
      </trkpt>
      <trkpt lat="46.34674" lon="-1.26631">
        <ele>3.6</ele>
        <time>2020-06-02T16:03:57Z</time>
      </trkpt>
      <trkpt lat="46.3467" lon="-1.26636">
        <ele>3.6</ele>
        <time>2020-06-02T16:03:58Z</time>
      </trkpt>
      <trkpt lat="46.34666" lon="-1.26641">
        <ele>3.6</ele>
        <time>2020-06-02T16:03:59Z</time>
      </trkpt>
      <trkpt lat="46.34662" lon="-1.26646">
        <ele>3.6</ele>
        <time>2020-06-02T16:04:00Z</time>
      </trkpt>
      <trkpt lat="46.34658" lon="-1.26651">
        <ele>3.6</ele>
        <time>2020-06-02T16:04:01Z</time>
      </trkpt>
      <trkpt lat="46.34654" lon="-1.26657">
        <ele>3.6</ele>
        <time>2020-06-02T16:04:02Z</time>
      </trkpt>
      <trkpt lat="46.34651" lon="-1.26662">
        <ele>3.6</ele>
        <time>2020-06-02T16:04:03Z</time>
      </trkpt>
      <trkpt lat="46.34647" lon="-1.26667">
        <ele>3.6</ele>
        <time>2020-06-02T16:04:04Z</time>
      </trkpt>
      <trkpt lat="46.34644" lon="-1.26673">
        <ele>3.5</ele>
        <time>2020-06-02T16:04:05Z</time>
      </trkpt>
      <trkpt lat="46.3464" lon="-1.26678">
        <ele>3.5</ele>
        <time>2020-06-02T16:04:06Z</time>
      </trkpt>
      <trkpt lat="46.34637" lon="-1.26684">
        <ele>3.5</ele>
        <time>2020-06-02T16:04:07Z</time>
      </trkpt>
      <trkpt lat="46.34634" lon="-1.26691">
        <ele>3.5</ele>
        <time>2020-06-02T16:04:08Z</time>
      </trkpt>
      <trkpt lat="46.3463" lon="-1.26697">
        <ele>3.5</ele>
        <time>2020-06-02T16:04:09Z</time>
      </trkpt>
      <trkpt lat="46.34626" lon="-1.26702">
        <ele>3.5</ele>
        <time>2020-06-02T16:04:10Z</time>
      </trkpt>
      <trkpt lat="46.34623" lon="-1.26709">
        <ele>3.5</ele>
        <time>2020-06-02T16:04:11Z</time>
      </trkpt>
      <trkpt lat="46.34619" lon="-1.26715">
        <ele>3.5</ele>
        <time>2020-06-02T16:04:12Z</time>
      </trkpt>
      <trkpt lat="46.34616" lon="-1.26722">
        <ele>3.5</ele>
        <time>2020-06-02T16:04:13Z</time>
      </trkpt>
      <trkpt lat="46.34612" lon="-1.26728">
        <ele>3.5</ele>
        <time>2020-06-02T16:04:14Z</time>
      </trkpt>
      <trkpt lat="46.34609" lon="-1.26735">
        <ele>3.5</ele>
        <time>2020-06-02T16:04:15Z</time>
      </trkpt>
      <trkpt lat="46.34605" lon="-1.26741">
        <ele>3.5</ele>
        <time>2020-06-02T16:04:16Z</time>
      </trkpt>
      <trkpt lat="46.34602" lon="-1.26747">
        <ele>3.5</ele>
        <time>2020-06-02T16:04:17Z</time>
      </trkpt>
      <trkpt lat="46.34598" lon="-1.26753">
        <ele>3.5</ele>
        <time>2020-06-02T16:04:18Z</time>
      </trkpt>
      <trkpt lat="46.34595" lon="-1.26759">
        <ele>3.5</ele>
        <time>2020-06-02T16:04:19Z</time>
      </trkpt>
      <trkpt lat="46.34591" lon="-1.26766">
        <ele>3.5</ele>
        <time>2020-06-02T16:04:20Z</time>
      </trkpt>
      <trkpt lat="46.34588" lon="-1.26772">
        <ele>3.5</ele>
        <time>2020-06-02T16:04:21Z</time>
      </trkpt>
      <trkpt lat="46.34584" lon="-1.26778">
        <ele>3.5</ele>
        <time>2020-06-02T16:04:22Z</time>
      </trkpt>
      <trkpt lat="46.34581" lon="-1.26784">
        <ele>3.4</ele>
        <time>2020-06-02T16:04:23Z</time>
      </trkpt>
      <trkpt lat="46.34577" lon="-1.26789">
        <ele>3.4</ele>
        <time>2020-06-02T16:04:24Z</time>
      </trkpt>
      <trkpt lat="46.34574" lon="-1.26795">
        <ele>3.4</ele>
        <time>2020-06-02T16:04:25Z</time>
      </trkpt>
      <trkpt lat="46.3457" lon="-1.26802">
        <ele>3.4</ele>
        <time>2020-06-02T16:04:26Z</time>
      </trkpt>
      <trkpt lat="46.34567" lon="-1.26808">
        <ele>3.4</ele>
        <time>2020-06-02T16:04:27Z</time>
      </trkpt>
      <trkpt lat="46.34563" lon="-1.26814">
        <ele>3.4</ele>
        <time>2020-06-02T16:04:28Z</time>
      </trkpt>
      <trkpt lat="46.3456" lon="-1.26821">
        <ele>3.4</ele>
        <time>2020-06-02T16:04:29Z</time>
      </trkpt>
      <trkpt lat="46.34557" lon="-1.26828">
        <ele>3.4</ele>
        <time>2020-06-02T16:04:30Z</time>
      </trkpt>
      <trkpt lat="46.34553" lon="-1.26833">
        <ele>3.4</ele>
        <time>2020-06-02T16:04:31Z</time>
      </trkpt>
      <trkpt lat="46.3455" lon="-1.26839">
        <ele>3.3</ele>
        <time>2020-06-02T16:04:32Z</time>
      </trkpt>
      <trkpt lat="46.34546" lon="-1.26845">
        <ele>3.3</ele>
        <time>2020-06-02T16:04:33Z</time>
      </trkpt>
      <trkpt lat="46.34544" lon="-1.26851">
        <ele>3.3</ele>
        <time>2020-06-02T16:04:34Z</time>
      </trkpt>
      <trkpt lat="46.3454" lon="-1.26856">
        <ele>3.3</ele>
        <time>2020-06-02T16:04:35Z</time>
      </trkpt>
      <trkpt lat="46.34537" lon="-1.26862">
        <ele>3.3</ele>
        <time>2020-06-02T16:04:36Z</time>
      </trkpt>
      <trkpt lat="46.34534" lon="-1.26868">
        <ele>3.3</ele>
        <time>2020-06-02T16:04:37Z</time>
      </trkpt>
      <trkpt lat="46.34531" lon="-1.26875">
        <ele>3.3</ele>
        <time>2020-06-02T16:04:38Z</time>
      </trkpt>
      <trkpt lat="46.34527" lon="-1.26881">
        <ele>3.3</ele>
        <time>2020-06-02T16:04:39Z</time>
      </trkpt>
      <trkpt lat="46.34524" lon="-1.26887">
        <ele>3.3</ele>
        <time>2020-06-02T16:04:40Z</time>
      </trkpt>
      <trkpt lat="46.34522" lon="-1.26894">
        <ele>3.3</ele>
        <time>2020-06-02T16:04:41Z</time>
      </trkpt>
      <trkpt lat="46.34519" lon="-1.269">
        <ele>3.3</ele>
        <time>2020-06-02T16:04:42Z</time>
      </trkpt>
      <trkpt lat="46.34515" lon="-1.26906">
        <ele>3.3</ele>
        <time>2020-06-02T16:04:43Z</time>
      </trkpt>
      <trkpt lat="46.34512" lon="-1.26911">
        <ele>3.3</ele>
        <time>2020-06-02T16:04:44Z</time>
      </trkpt>
      <trkpt lat="46.34509" lon="-1.26916">
        <ele>3.4</ele>
        <time>2020-06-02T16:04:45Z</time>
      </trkpt>
      <trkpt lat="46.34506" lon="-1.26921">
        <ele>3.4</ele>
        <time>2020-06-02T16:04:46Z</time>
      </trkpt>
      <trkpt lat="46.34503" lon="-1.26925">
        <ele>3.4</ele>
        <time>2020-06-02T16:04:47Z</time>
      </trkpt>
      <trkpt lat="46.345" lon="-1.2693">
        <ele>3.4</ele>
        <time>2020-06-02T16:04:48Z</time>
      </trkpt>
      <trkpt lat="46.34498" lon="-1.26934">
        <ele>3.4</ele>
        <time>2020-06-02T16:04:49Z</time>
      </trkpt>
      <trkpt lat="46.34495" lon="-1.26938">
        <ele>3.4</ele>
        <time>2020-06-02T16:04:50Z</time>
      </trkpt>
      <trkpt lat="46.34492" lon="-1.26942">
        <ele>3.4</ele>
        <time>2020-06-02T16:04:51Z</time>
      </trkpt>
      <trkpt lat="46.3449" lon="-1.26945">
        <ele>3.4</ele>
        <time>2020-06-02T16:04:52Z</time>
      </trkpt>
      <trkpt lat="46.34488" lon="-1.26949">
        <ele>3.4</ele>
        <time>2020-06-02T16:04:53Z</time>
      </trkpt>
      <trkpt lat="46.34486" lon="-1.26952">
        <ele>3.4</ele>
        <time>2020-06-02T16:04:54Z</time>
      </trkpt>
      <trkpt lat="46.34484" lon="-1.26956">
        <ele>3.4</ele>
        <time>2020-06-02T16:04:55Z</time>
      </trkpt>
      <trkpt lat="46.34482" lon="-1.2696">
        <ele>3.4</ele>
        <time>2020-06-02T16:04:56Z</time>
      </trkpt>
      <trkpt lat="46.3448" lon="-1.26964">
        <ele>3.4</ele>
        <time>2020-06-02T16:04:57Z</time>
      </trkpt>
      <trkpt lat="46.34478" lon="-1.26967">
        <ele>3.4</ele>
        <time>2020-06-02T16:04:58Z</time>
      </trkpt>
      <trkpt lat="46.34475" lon="-1.26971">
        <ele>3.4</ele>
        <time>2020-06-02T16:04:59Z</time>
      </trkpt>
      <trkpt lat="46.34473" lon="-1.26975">
        <ele>3.4</ele>
        <time>2020-06-02T16:05:00Z</time>
      </trkpt>
      <trkpt lat="46.3447" lon="-1.26978">
        <ele>3.4</ele>
        <time>2020-06-02T16:05:01Z</time>
      </trkpt>
      <trkpt lat="46.34468" lon="-1.26982">
        <ele>3.4</ele>
        <time>2020-06-02T16:05:02Z</time>
      </trkpt>
      <trkpt lat="46.34466" lon="-1.26986">
        <ele>3.4</ele>
        <time>2020-06-02T16:05:03Z</time>
      </trkpt>
      <trkpt lat="46.34464" lon="-1.26991">
        <ele>3.4</ele>
        <time>2020-06-02T16:05:04Z</time>
      </trkpt>
      <trkpt lat="46.34463" lon="-1.26996">
        <ele>3.4</ele>
        <time>2020-06-02T16:05:05Z</time>
      </trkpt>
      <trkpt lat="46.3446" lon="-1.27001">
        <ele>3.4</ele>
        <time>2020-06-02T16:05:06Z</time>
      </trkpt>
      <trkpt lat="46.34456" lon="-1.27007">
        <ele>3.4</ele>
        <time>2020-06-02T16:05:07Z</time>
      </trkpt>
      <trkpt lat="46.34453" lon="-1.27013">
        <ele>3.4</ele>
        <time>2020-06-02T16:05:08Z</time>
      </trkpt>
      <trkpt lat="46.34449" lon="-1.27019">
        <ele>3.4</ele>
        <time>2020-06-02T16:05:09Z</time>
      </trkpt>
      <trkpt lat="46.34446" lon="-1.27026">
        <ele>3.4</ele>
        <time>2020-06-02T16:05:10Z</time>
      </trkpt>
      <trkpt lat="46.34442" lon="-1.27033">
        <ele>3.4</ele>
        <time>2020-06-02T16:05:11Z</time>
      </trkpt>
      <trkpt lat="46.34438" lon="-1.27039">
        <ele>3.4</ele>
        <time>2020-06-02T16:05:12Z</time>
      </trkpt>
      <trkpt lat="46.34435" lon="-1.27045">
        <ele>3.4</ele>
        <time>2020-06-02T16:05:13Z</time>
      </trkpt>
      <trkpt lat="46.34432" lon="-1.27051">
        <ele>3.4</ele>
        <time>2020-06-02T16:05:14Z</time>
      </trkpt>
      <trkpt lat="46.34428" lon="-1.27058">
        <ele>3.4</ele>
        <time>2020-06-02T16:05:15Z</time>
      </trkpt>
      <trkpt lat="46.34424" lon="-1.27064">
        <ele>3.4</ele>
        <time>2020-06-02T16:05:16Z</time>
      </trkpt>
      <trkpt lat="46.34421" lon="-1.2707">
        <ele>3.5</ele>
        <time>2020-06-02T16:05:17Z</time>
      </trkpt>
      <trkpt lat="46.34417" lon="-1.27076">
        <ele>3.5</ele>
        <time>2020-06-02T16:05:18Z</time>
      </trkpt>
      <trkpt lat="46.34413" lon="-1.27083">
        <ele>3.5</ele>
        <time>2020-06-02T16:05:19Z</time>
      </trkpt>
      <trkpt lat="46.3441" lon="-1.27089">
        <ele>3.5</ele>
        <time>2020-06-02T16:05:20Z</time>
      </trkpt>
      <trkpt lat="46.34406" lon="-1.27095">
        <ele>3.4</ele>
        <time>2020-06-02T16:05:21Z</time>
      </trkpt>
      <trkpt lat="46.34402" lon="-1.27101">
        <ele>3.4</ele>
        <time>2020-06-02T16:05:22Z</time>
      </trkpt>
      <trkpt lat="46.34399" lon="-1.27107">
        <ele>3.4</ele>
        <time>2020-06-02T16:05:23Z</time>
      </trkpt>
      <trkpt lat="46.34395" lon="-1.27113">
        <ele>3.4</ele>
        <time>2020-06-02T16:05:24Z</time>
      </trkpt>
      <trkpt lat="46.34391" lon="-1.2712">
        <ele>3.4</ele>
        <time>2020-06-02T16:05:25Z</time>
      </trkpt>
      <trkpt lat="46.34387" lon="-1.27127">
        <ele>3.4</ele>
        <time>2020-06-02T16:05:26Z</time>
      </trkpt>
      <trkpt lat="46.34384" lon="-1.27134">
        <ele>3.4</ele>
        <time>2020-06-02T16:05:27Z</time>
      </trkpt>
      <trkpt lat="46.34381" lon="-1.2714">
        <ele>3.4</ele>
        <time>2020-06-02T16:05:28Z</time>
      </trkpt>
      <trkpt lat="46.34377" lon="-1.27147">
        <ele>3.4</ele>
        <time>2020-06-02T16:05:29Z</time>
      </trkpt>
      <trkpt lat="46.34374" lon="-1.27153">
        <ele>3.4</ele>
        <time>2020-06-02T16:05:30Z</time>
      </trkpt>
      <trkpt lat="46.3437" lon="-1.27159">
        <ele>3.3</ele>
        <time>2020-06-02T16:05:31Z</time>
      </trkpt>
      <trkpt lat="46.34365" lon="-1.27166">
        <ele>3.3</ele>
        <time>2020-06-02T16:05:32Z</time>
      </trkpt>
      <trkpt lat="46.34361" lon="-1.27172">
        <ele>3.3</ele>
        <time>2020-06-02T16:05:33Z</time>
      </trkpt>
      <trkpt lat="46.34357" lon="-1.27178">
        <ele>3.3</ele>
        <time>2020-06-02T16:05:34Z</time>
      </trkpt>
      <trkpt lat="46.34353" lon="-1.27184">
        <ele>3.3</ele>
        <time>2020-06-02T16:05:35Z</time>
      </trkpt>
      <trkpt lat="46.3435" lon="-1.27191">
        <ele>3.3</ele>
        <time>2020-06-02T16:05:36Z</time>
      </trkpt>
      <trkpt lat="46.34347" lon="-1.27196">
        <ele>3.3</ele>
        <time>2020-06-02T16:05:37Z</time>
      </trkpt>
      <trkpt lat="46.34344" lon="-1.27203">
        <ele>3.3</ele>
        <time>2020-06-02T16:05:38Z</time>
      </trkpt>
      <trkpt lat="46.3434" lon="-1.2721">
        <ele>3.3</ele>
        <time>2020-06-02T16:05:39Z</time>
      </trkpt>
      <trkpt lat="46.34336" lon="-1.27216">
        <ele>3.3</ele>
        <time>2020-06-02T16:05:40Z</time>
      </trkpt>
      <trkpt lat="46.34333" lon="-1.27222">
        <ele>3.3</ele>
        <time>2020-06-02T16:05:41Z</time>
      </trkpt>
      <trkpt lat="46.34329" lon="-1.27229">
        <ele>3.3</ele>
        <time>2020-06-02T16:05:42Z</time>
      </trkpt>
      <trkpt lat="46.34325" lon="-1.27235">
        <ele>3.3</ele>
        <time>2020-06-02T16:05:43Z</time>
      </trkpt>
      <trkpt lat="46.3432" lon="-1.27241">
        <ele>3.3</ele>
        <time>2020-06-02T16:05:44Z</time>
      </trkpt>
      <trkpt lat="46.34317" lon="-1.27247">
        <ele>3.3</ele>
        <time>2020-06-02T16:05:45Z</time>
      </trkpt>
      <trkpt lat="46.34313" lon="-1.27253">
        <ele>3.3</ele>
        <time>2020-06-02T16:05:46Z</time>
      </trkpt>
      <trkpt lat="46.34309" lon="-1.2726">
        <ele>3.3</ele>
        <time>2020-06-02T16:05:47Z</time>
      </trkpt>
      <trkpt lat="46.34306" lon="-1.27266">
        <ele>3.3</ele>
        <time>2020-06-02T16:05:48Z</time>
      </trkpt>
      <trkpt lat="46.34302" lon="-1.27272">
        <ele>3.3</ele>
        <time>2020-06-02T16:05:49Z</time>
      </trkpt>
      <trkpt lat="46.34299" lon="-1.27279">
        <ele>3.3</ele>
        <time>2020-06-02T16:05:50Z</time>
      </trkpt>
      <trkpt lat="46.34296" lon="-1.27285">
        <ele>3.3</ele>
        <time>2020-06-02T16:05:51Z</time>
      </trkpt>
      <trkpt lat="46.34292" lon="-1.27292">
        <ele>3.3</ele>
        <time>2020-06-02T16:05:52Z</time>
      </trkpt>
      <trkpt lat="46.34289" lon="-1.27299">
        <ele>3.3</ele>
        <time>2020-06-02T16:05:53Z</time>
      </trkpt>
      <trkpt lat="46.34286" lon="-1.27305">
        <ele>3.2</ele>
        <time>2020-06-02T16:05:54Z</time>
      </trkpt>
      <trkpt lat="46.34282" lon="-1.27312">
        <ele>3.2</ele>
        <time>2020-06-02T16:05:55Z</time>
      </trkpt>
      <trkpt lat="46.34279" lon="-1.27319">
        <ele>3.2</ele>
        <time>2020-06-02T16:05:56Z</time>
      </trkpt>
      <trkpt lat="46.34275" lon="-1.27327">
        <ele>3.2</ele>
        <time>2020-06-02T16:05:57Z</time>
      </trkpt>
      <trkpt lat="46.34271" lon="-1.27334">
        <ele>3.2</ele>
        <time>2020-06-02T16:05:58Z</time>
      </trkpt>
      <trkpt lat="46.34267" lon="-1.27341">
        <ele>3.1</ele>
        <time>2020-06-02T16:05:59Z</time>
      </trkpt>
      <trkpt lat="46.34264" lon="-1.27348">
        <ele>3.1</ele>
        <time>2020-06-02T16:06:00Z</time>
      </trkpt>
      <trkpt lat="46.3426" lon="-1.27355">
        <ele>3.1</ele>
        <time>2020-06-02T16:06:01Z</time>
      </trkpt>
      <trkpt lat="46.34257" lon="-1.27361">
        <ele>3.1</ele>
        <time>2020-06-02T16:06:02Z</time>
      </trkpt>
      <trkpt lat="46.34254" lon="-1.27368">
        <ele>3.1</ele>
        <time>2020-06-02T16:06:03Z</time>
      </trkpt>
      <trkpt lat="46.3425" lon="-1.27374">
        <ele>3.1</ele>
        <time>2020-06-02T16:06:04Z</time>
      </trkpt>
      <trkpt lat="46.34246" lon="-1.2738">
        <ele>3.1</ele>
        <time>2020-06-02T16:06:05Z</time>
      </trkpt>
      <trkpt lat="46.34242" lon="-1.27387">
        <ele>3.1</ele>
        <time>2020-06-02T16:06:06Z</time>
      </trkpt>
      <trkpt lat="46.34239" lon="-1.27393">
        <ele>3</ele>
        <time>2020-06-02T16:06:07Z</time>
      </trkpt>
      <trkpt lat="46.34235" lon="-1.27398">
        <ele>3</ele>
        <time>2020-06-02T16:06:08Z</time>
      </trkpt>
      <trkpt lat="46.34232" lon="-1.27404">
        <ele>3</ele>
        <time>2020-06-02T16:06:09Z</time>
      </trkpt>
      <trkpt lat="46.34228" lon="-1.2741">
        <ele>3</ele>
        <time>2020-06-02T16:06:10Z</time>
      </trkpt>
      <trkpt lat="46.34225" lon="-1.27417">
        <ele>3</ele>
        <time>2020-06-02T16:06:11Z</time>
      </trkpt>
      <trkpt lat="46.34221" lon="-1.27424">
        <ele>3</ele>
        <time>2020-06-02T16:06:12Z</time>
      </trkpt>
      <trkpt lat="46.34217" lon="-1.2743">
        <ele>3</ele>
        <time>2020-06-02T16:06:13Z</time>
      </trkpt>
      <trkpt lat="46.34214" lon="-1.27436">
        <ele>3</ele>
        <time>2020-06-02T16:06:14Z</time>
      </trkpt>
      <trkpt lat="46.34211" lon="-1.27442">
        <ele>3.1</ele>
        <time>2020-06-02T16:06:15Z</time>
      </trkpt>
      <trkpt lat="46.34208" lon="-1.27448">
        <ele>3.1</ele>
        <time>2020-06-02T16:06:16Z</time>
      </trkpt>
      <trkpt lat="46.34205" lon="-1.27454">
        <ele>3.1</ele>
        <time>2020-06-02T16:06:17Z</time>
      </trkpt>
      <trkpt lat="46.34201" lon="-1.2746">
        <ele>3.1</ele>
        <time>2020-06-02T16:06:18Z</time>
      </trkpt>
      <trkpt lat="46.34197" lon="-1.27466">
        <ele>3.1</ele>
        <time>2020-06-02T16:06:19Z</time>
      </trkpt>
      <trkpt lat="46.34193" lon="-1.27473">
        <ele>3.1</ele>
        <time>2020-06-02T16:06:20Z</time>
      </trkpt>
      <trkpt lat="46.34189" lon="-1.27479">
        <ele>3.1</ele>
        <time>2020-06-02T16:06:21Z</time>
      </trkpt>
      <trkpt lat="46.34185" lon="-1.27486">
        <ele>3.1</ele>
        <time>2020-06-02T16:06:22Z</time>
      </trkpt>
      <trkpt lat="46.34181" lon="-1.27492">
        <ele>3.1</ele>
        <time>2020-06-02T16:06:23Z</time>
      </trkpt>
      <trkpt lat="46.34177" lon="-1.27499">
        <ele>3</ele>
        <time>2020-06-02T16:06:24Z</time>
      </trkpt>
      <trkpt lat="46.34173" lon="-1.27505">
        <ele>3</ele>
        <time>2020-06-02T16:06:25Z</time>
      </trkpt>
      <trkpt lat="46.34169" lon="-1.27512">
        <ele>3</ele>
        <time>2020-06-02T16:06:26Z</time>
      </trkpt>
      <trkpt lat="46.34165" lon="-1.27519">
        <ele>3</ele>
        <time>2020-06-02T16:06:27Z</time>
      </trkpt>
      <trkpt lat="46.34161" lon="-1.27525">
        <ele>3</ele>
        <time>2020-06-02T16:06:28Z</time>
      </trkpt>
      <trkpt lat="46.34157" lon="-1.27532">
        <ele>3</ele>
        <time>2020-06-02T16:06:29Z</time>
      </trkpt>
      <trkpt lat="46.34153" lon="-1.27538">
        <ele>3</ele>
        <time>2020-06-02T16:06:30Z</time>
      </trkpt>
      <trkpt lat="46.3415" lon="-1.27544">
        <ele>3</ele>
        <time>2020-06-02T16:06:31Z</time>
      </trkpt>
      <trkpt lat="46.34146" lon="-1.27551">
        <ele>3</ele>
        <time>2020-06-02T16:06:32Z</time>
      </trkpt>
      <trkpt lat="46.34142" lon="-1.27558">
        <ele>3</ele>
        <time>2020-06-02T16:06:33Z</time>
      </trkpt>
      <trkpt lat="46.34139" lon="-1.27564">
        <ele>3</ele>
        <time>2020-06-02T16:06:34Z</time>
      </trkpt>
      <trkpt lat="46.34135" lon="-1.27571">
        <ele>3</ele>
        <time>2020-06-02T16:06:35Z</time>
      </trkpt>
      <trkpt lat="46.34131" lon="-1.27578">
        <ele>3</ele>
        <time>2020-06-02T16:06:36Z</time>
      </trkpt>
      <trkpt lat="46.34127" lon="-1.27585">
        <ele>3</ele>
        <time>2020-06-02T16:06:37Z</time>
      </trkpt>
      <trkpt lat="46.34123" lon="-1.27592">
        <ele>2.9</ele>
        <time>2020-06-02T16:06:38Z</time>
      </trkpt>
      <trkpt lat="46.34119" lon="-1.27598">
        <ele>2.9</ele>
        <time>2020-06-02T16:06:39Z</time>
      </trkpt>
      <trkpt lat="46.34115" lon="-1.27605">
        <ele>2.9</ele>
        <time>2020-06-02T16:06:40Z</time>
      </trkpt>
      <trkpt lat="46.34111" lon="-1.27612">
        <ele>2.9</ele>
        <time>2020-06-02T16:06:41Z</time>
      </trkpt>
      <trkpt lat="46.34107" lon="-1.27619">
        <ele>2.9</ele>
        <time>2020-06-02T16:06:42Z</time>
      </trkpt>
      <trkpt lat="46.34103" lon="-1.27626">
        <ele>2.9</ele>
        <time>2020-06-02T16:06:43Z</time>
      </trkpt>
      <trkpt lat="46.34099" lon="-1.27633">
        <ele>2.9</ele>
        <time>2020-06-02T16:06:44Z</time>
      </trkpt>
      <trkpt lat="46.34095" lon="-1.2764">
        <ele>3</ele>
        <time>2020-06-02T16:06:45Z</time>
      </trkpt>
      <trkpt lat="46.34091" lon="-1.27646">
        <ele>3</ele>
        <time>2020-06-02T16:06:46Z</time>
      </trkpt>
      <trkpt lat="46.34088" lon="-1.27653">
        <ele>3</ele>
        <time>2020-06-02T16:06:47Z</time>
      </trkpt>
      <trkpt lat="46.34084" lon="-1.2766">
        <ele>3</ele>
        <time>2020-06-02T16:06:48Z</time>
      </trkpt>
      <trkpt lat="46.3408" lon="-1.27667">
        <ele>2.9</ele>
        <time>2020-06-02T16:06:49Z</time>
      </trkpt>
      <trkpt lat="46.34076" lon="-1.27673">
        <ele>2.9</ele>
        <time>2020-06-02T16:06:50Z</time>
      </trkpt>
      <trkpt lat="46.34072" lon="-1.27679">
        <ele>2.9</ele>
        <time>2020-06-02T16:06:51Z</time>
      </trkpt>
      <trkpt lat="46.34069" lon="-1.27685">
        <ele>2.9</ele>
        <time>2020-06-02T16:06:52Z</time>
      </trkpt>
      <trkpt lat="46.34065" lon="-1.27692">
        <ele>2.9</ele>
        <time>2020-06-02T16:06:53Z</time>
      </trkpt>
      <trkpt lat="46.34061" lon="-1.27699">
        <ele>2.9</ele>
        <time>2020-06-02T16:06:54Z</time>
      </trkpt>
      <trkpt lat="46.34058" lon="-1.27707">
        <ele>2.9</ele>
        <time>2020-06-02T16:06:55Z</time>
      </trkpt>
      <trkpt lat="46.34054" lon="-1.27714">
        <ele>2.8</ele>
        <time>2020-06-02T16:06:56Z</time>
      </trkpt>
      <trkpt lat="46.3405" lon="-1.27721">
        <ele>2.8</ele>
        <time>2020-06-02T16:06:57Z</time>
      </trkpt>
      <trkpt lat="46.34046" lon="-1.27728">
        <ele>2.8</ele>
        <time>2020-06-02T16:06:58Z</time>
      </trkpt>
      <trkpt lat="46.34043" lon="-1.27734">
        <ele>2.7</ele>
        <time>2020-06-02T16:06:59Z</time>
      </trkpt>
      <trkpt lat="46.3404" lon="-1.27741">
        <ele>2.7</ele>
        <time>2020-06-02T16:07:00Z</time>
      </trkpt>
      <trkpt lat="46.34036" lon="-1.27747">
        <ele>2.7</ele>
        <time>2020-06-02T16:07:01Z</time>
      </trkpt>
      <trkpt lat="46.34032" lon="-1.27753">
        <ele>2.6</ele>
        <time>2020-06-02T16:07:02Z</time>
      </trkpt>
      <trkpt lat="46.34028" lon="-1.27759">
        <ele>2.6</ele>
        <time>2020-06-02T16:07:03Z</time>
      </trkpt>
      <trkpt lat="46.34024" lon="-1.27766">
        <ele>2.6</ele>
        <time>2020-06-02T16:07:04Z</time>
      </trkpt>
      <trkpt lat="46.3402" lon="-1.27772">
        <ele>2.6</ele>
        <time>2020-06-02T16:07:05Z</time>
      </trkpt>
      <trkpt lat="46.34017" lon="-1.27779">
        <ele>2.6</ele>
        <time>2020-06-02T16:07:06Z</time>
      </trkpt>
      <trkpt lat="46.34013" lon="-1.27786">
        <ele>2.6</ele>
        <time>2020-06-02T16:07:07Z</time>
      </trkpt>
      <trkpt lat="46.34009" lon="-1.27792">
        <ele>2.6</ele>
        <time>2020-06-02T16:07:08Z</time>
      </trkpt>
      <trkpt lat="46.34005" lon="-1.27799">
        <ele>2.6</ele>
        <time>2020-06-02T16:07:09Z</time>
      </trkpt>
      <trkpt lat="46.34001" lon="-1.27806">
        <ele>2.7</ele>
        <time>2020-06-02T16:07:10Z</time>
      </trkpt>
      <trkpt lat="46.33998" lon="-1.27813">
        <ele>2.7</ele>
        <time>2020-06-02T16:07:11Z</time>
      </trkpt>
      <trkpt lat="46.33995" lon="-1.2782">
        <ele>2.7</ele>
        <time>2020-06-02T16:07:12Z</time>
      </trkpt>
      <trkpt lat="46.33991" lon="-1.27827">
        <ele>2.7</ele>
        <time>2020-06-02T16:07:13Z</time>
      </trkpt>
      <trkpt lat="46.33986" lon="-1.27836">
        <ele>2.7</ele>
        <time>2020-06-02T16:07:14Z</time>
      </trkpt>
      <trkpt lat="46.33982" lon="-1.27843">
        <ele>2.7</ele>
        <time>2020-06-02T16:07:15Z</time>
      </trkpt>
      <trkpt lat="46.33977" lon="-1.27851">
        <ele>2.7</ele>
        <time>2020-06-02T16:07:16Z</time>
      </trkpt>
      <trkpt lat="46.33973" lon="-1.27858">
        <ele>2.7</ele>
        <time>2020-06-02T16:07:17Z</time>
      </trkpt>
      <trkpt lat="46.33969" lon="-1.27865">
        <ele>2.7</ele>
        <time>2020-06-02T16:07:18Z</time>
      </trkpt>
      <trkpt lat="46.33966" lon="-1.27871">
        <ele>2.7</ele>
        <time>2020-06-02T16:07:19Z</time>
      </trkpt>
      <trkpt lat="46.33962" lon="-1.27878">
        <ele>2.7</ele>
        <time>2020-06-02T16:07:20Z</time>
      </trkpt>
      <trkpt lat="46.33958" lon="-1.27884">
        <ele>2.7</ele>
        <time>2020-06-02T16:07:21Z</time>
      </trkpt>
      <trkpt lat="46.33954" lon="-1.27891">
        <ele>2.7</ele>
        <time>2020-06-02T16:07:22Z</time>
      </trkpt>
      <trkpt lat="46.3395" lon="-1.27897">
        <ele>2.7</ele>
        <time>2020-06-02T16:07:23Z</time>
      </trkpt>
      <trkpt lat="46.33948" lon="-1.27903">
        <ele>2.7</ele>
        <time>2020-06-02T16:07:24Z</time>
      </trkpt>
      <trkpt lat="46.33944" lon="-1.2791">
        <ele>2.7</ele>
        <time>2020-06-02T16:07:25Z</time>
      </trkpt>
      <trkpt lat="46.33941" lon="-1.27916">
        <ele>2.7</ele>
        <time>2020-06-02T16:07:26Z</time>
      </trkpt>
      <trkpt lat="46.33937" lon="-1.27923">
        <ele>2.8</ele>
        <time>2020-06-02T16:07:27Z</time>
      </trkpt>
      <trkpt lat="46.33934" lon="-1.27929">
        <ele>2.8</ele>
        <time>2020-06-02T16:07:28Z</time>
      </trkpt>
      <trkpt lat="46.33931" lon="-1.27935">
        <ele>2.8</ele>
        <time>2020-06-02T16:07:29Z</time>
      </trkpt>
      <trkpt lat="46.33927" lon="-1.27942">
        <ele>2.8</ele>
        <time>2020-06-02T16:07:30Z</time>
      </trkpt>
      <trkpt lat="46.33924" lon="-1.27949">
        <ele>2.8</ele>
        <time>2020-06-02T16:07:31Z</time>
      </trkpt>
      <trkpt lat="46.3392" lon="-1.27956">
        <ele>2.8</ele>
        <time>2020-06-02T16:07:32Z</time>
      </trkpt>
      <trkpt lat="46.33916" lon="-1.27963">
        <ele>2.8</ele>
        <time>2020-06-02T16:07:33Z</time>
      </trkpt>
      <trkpt lat="46.33912" lon="-1.27969">
        <ele>2.8</ele>
        <time>2020-06-02T16:07:34Z</time>
      </trkpt>
      <trkpt lat="46.33908" lon="-1.27976">
        <ele>2.8</ele>
        <time>2020-06-02T16:07:35Z</time>
      </trkpt>
      <trkpt lat="46.33905" lon="-1.27982">
        <ele>2.8</ele>
        <time>2020-06-02T16:07:36Z</time>
      </trkpt>
      <trkpt lat="46.33901" lon="-1.27987">
        <ele>2.8</ele>
        <time>2020-06-02T16:07:37Z</time>
      </trkpt>
      <trkpt lat="46.33897" lon="-1.27993">
        <ele>2.8</ele>
        <time>2020-06-02T16:07:38Z</time>
      </trkpt>
      <trkpt lat="46.33893" lon="-1.27999">
        <ele>2.8</ele>
        <time>2020-06-02T16:07:39Z</time>
      </trkpt>
      <trkpt lat="46.33889" lon="-1.28004">
        <ele>2.8</ele>
        <time>2020-06-02T16:07:40Z</time>
      </trkpt>
      <trkpt lat="46.33886" lon="-1.28009">
        <ele>2.8</ele>
        <time>2020-06-02T16:07:41Z</time>
      </trkpt>
      <trkpt lat="46.33883" lon="-1.28014">
        <ele>2.8</ele>
        <time>2020-06-02T16:07:42Z</time>
      </trkpt>
      <trkpt lat="46.33879" lon="-1.28019">
        <ele>2.8</ele>
        <time>2020-06-02T16:07:43Z</time>
      </trkpt>
      <trkpt lat="46.33876" lon="-1.28024">
        <ele>2.8</ele>
        <time>2020-06-02T16:07:44Z</time>
      </trkpt>
      <trkpt lat="46.33873" lon="-1.28029">
        <ele>2.8</ele>
        <time>2020-06-02T16:07:45Z</time>
      </trkpt>
      <trkpt lat="46.3387" lon="-1.28035">
        <ele>2.8</ele>
        <time>2020-06-02T16:07:46Z</time>
      </trkpt>
      <trkpt lat="46.33867" lon="-1.28042">
        <ele>3</ele>
        <time>2020-06-02T16:07:47Z</time>
      </trkpt>
      <trkpt lat="46.33865" lon="-1.2805">
        <ele>3.1</ele>
        <time>2020-06-02T16:07:48Z</time>
      </trkpt>
      <trkpt lat="46.33865" lon="-1.28058">
        <ele>3.2</ele>
        <time>2020-06-02T16:07:49Z</time>
      </trkpt>
      <trkpt lat="46.33865" lon="-1.28065">
        <ele>3.3</ele>
        <time>2020-06-02T16:07:50Z</time>
      </trkpt>
      <trkpt lat="46.33865" lon="-1.28071">
        <ele>3.4</ele>
        <time>2020-06-02T16:07:51Z</time>
      </trkpt>
      <trkpt lat="46.33866" lon="-1.28077">
        <ele>3.4</ele>
        <time>2020-06-02T16:07:52Z</time>
      </trkpt>
      <trkpt lat="46.33868" lon="-1.28082">
        <ele>3.5</ele>
        <time>2020-06-02T16:07:53Z</time>
      </trkpt>
      <trkpt lat="46.33873" lon="-1.28086">
        <ele>3.5</ele>
        <time>2020-06-02T16:07:54Z</time>
      </trkpt>
      <trkpt lat="46.33877" lon="-1.2809">
        <ele>3.5</ele>
        <time>2020-06-02T16:07:55Z</time>
      </trkpt>
      <trkpt lat="46.33881" lon="-1.28095">
        <ele>3.4</ele>
        <time>2020-06-02T16:07:56Z</time>
      </trkpt>
      <trkpt lat="46.33885" lon="-1.28099">
        <ele>3.4</ele>
        <time>2020-06-02T16:07:57Z</time>
      </trkpt>
      <trkpt lat="46.33887" lon="-1.28103">
        <ele>3.3</ele>
        <time>2020-06-02T16:07:58Z</time>
      </trkpt>
      <trkpt lat="46.3389" lon="-1.28107">
        <ele>3.3</ele>
        <time>2020-06-02T16:07:59Z</time>
      </trkpt>
      <trkpt lat="46.33892" lon="-1.28114">
        <ele>3.2</ele>
        <time>2020-06-02T16:08:00Z</time>
      </trkpt>
      <trkpt lat="46.33894" lon="-1.2812">
        <ele>3.1</ele>
        <time>2020-06-02T16:08:01Z</time>
      </trkpt>
      <trkpt lat="46.33893" lon="-1.28126">
        <ele>3.1</ele>
        <time>2020-06-02T16:08:02Z</time>
      </trkpt>
      <trkpt lat="46.33892" lon="-1.28134">
        <ele>3</ele>
        <time>2020-06-02T16:08:03Z</time>
      </trkpt>
      <trkpt lat="46.33892" lon="-1.28141">
        <ele>2.9</ele>
        <time>2020-06-02T16:08:04Z</time>
      </trkpt>
      <trkpt lat="46.33892" lon="-1.28148">
        <ele>2.9</ele>
        <time>2020-06-02T16:08:05Z</time>
      </trkpt>
      <trkpt lat="46.33891" lon="-1.28155">
        <ele>2.8</ele>
        <time>2020-06-02T16:08:06Z</time>
      </trkpt>
      <trkpt lat="46.3389" lon="-1.28163">
        <ele>2.8</ele>
        <time>2020-06-02T16:08:07Z</time>
      </trkpt>
      <trkpt lat="46.33888" lon="-1.2817">
        <ele>2.7</ele>
        <time>2020-06-02T16:08:08Z</time>
      </trkpt>
      <trkpt lat="46.33887" lon="-1.28176">
        <ele>2.6</ele>
        <time>2020-06-02T16:08:09Z</time>
      </trkpt>
      <trkpt lat="46.33884" lon="-1.28183">
        <ele>2.6</ele>
        <time>2020-06-02T16:08:10Z</time>
      </trkpt>
      <trkpt lat="46.33883" lon="-1.2819">
        <ele>2.6</ele>
        <time>2020-06-02T16:08:11Z</time>
      </trkpt>
      <trkpt lat="46.33881" lon="-1.28197">
        <ele>2.5</ele>
        <time>2020-06-02T16:08:12Z</time>
      </trkpt>
      <trkpt lat="46.33879" lon="-1.28203">
        <ele>2.5</ele>
        <time>2020-06-02T16:08:13Z</time>
      </trkpt>
      <trkpt lat="46.33877" lon="-1.28209">
        <ele>2.5</ele>
        <time>2020-06-02T16:08:14Z</time>
      </trkpt>
      <trkpt lat="46.33876" lon="-1.28215">
        <ele>2.4</ele>
        <time>2020-06-02T16:08:15Z</time>
      </trkpt>
      <trkpt lat="46.33874" lon="-1.28222">
        <ele>2.4</ele>
        <time>2020-06-02T16:08:16Z</time>
      </trkpt>
      <trkpt lat="46.33874" lon="-1.28228">
        <ele>2.4</ele>
        <time>2020-06-02T16:08:17Z</time>
      </trkpt>
      <trkpt lat="46.33873" lon="-1.28234">
        <ele>2.4</ele>
        <time>2020-06-02T16:08:18Z</time>
      </trkpt>
      <trkpt lat="46.33873" lon="-1.28241">
        <ele>2.4</ele>
        <time>2020-06-02T16:08:19Z</time>
      </trkpt>
      <trkpt lat="46.33876" lon="-1.28247">
        <ele>2.4</ele>
        <time>2020-06-02T16:08:20Z</time>
      </trkpt>
      <trkpt lat="46.33878" lon="-1.28254">
        <ele>2.4</ele>
        <time>2020-06-02T16:08:21Z</time>
      </trkpt>
      <trkpt lat="46.3388" lon="-1.28261">
        <ele>2.4</ele>
        <time>2020-06-02T16:08:22Z</time>
      </trkpt>
      <trkpt lat="46.33881" lon="-1.28268">
        <ele>2.4</ele>
        <time>2020-06-02T16:08:23Z</time>
      </trkpt>
      <trkpt lat="46.33882" lon="-1.28274">
        <ele>2.4</ele>
        <time>2020-06-02T16:08:24Z</time>
      </trkpt>
      <trkpt lat="46.33884" lon="-1.28282">
        <ele>2.4</ele>
        <time>2020-06-02T16:08:25Z</time>
      </trkpt>
      <trkpt lat="46.33885" lon="-1.28289">
        <ele>2.3</ele>
        <time>2020-06-02T16:08:26Z</time>
      </trkpt>
      <trkpt lat="46.33888" lon="-1.28296">
        <ele>2.2</ele>
        <time>2020-06-02T16:08:27Z</time>
      </trkpt>
      <trkpt lat="46.3389" lon="-1.28304">
        <ele>2.2</ele>
        <time>2020-06-02T16:08:28Z</time>
      </trkpt>
      <trkpt lat="46.33891" lon="-1.28312">
        <ele>2.1</ele>
        <time>2020-06-02T16:08:29Z</time>
      </trkpt>
      <trkpt lat="46.33893" lon="-1.2832">
        <ele>2</ele>
        <time>2020-06-02T16:08:30Z</time>
      </trkpt>
      <trkpt lat="46.33894" lon="-1.28329">
        <ele>2</ele>
        <time>2020-06-02T16:08:31Z</time>
      </trkpt>
      <trkpt lat="46.33895" lon="-1.28337">
        <ele>1.9</ele>
        <time>2020-06-02T16:08:32Z</time>
      </trkpt>
      <trkpt lat="46.33896" lon="-1.28345">
        <ele>1.9</ele>
        <time>2020-06-02T16:08:33Z</time>
      </trkpt>
      <trkpt lat="46.33896" lon="-1.28353">
        <ele>1.8</ele>
        <time>2020-06-02T16:08:34Z</time>
      </trkpt>
      <trkpt lat="46.33897" lon="-1.28361">
        <ele>1.8</ele>
        <time>2020-06-02T16:08:35Z</time>
      </trkpt>
      <trkpt lat="46.33897" lon="-1.28369">
        <ele>1.8</ele>
        <time>2020-06-02T16:08:36Z</time>
      </trkpt>
      <trkpt lat="46.33897" lon="-1.28376">
        <ele>1.8</ele>
        <time>2020-06-02T16:08:37Z</time>
      </trkpt>
      <trkpt lat="46.33898" lon="-1.28382">
        <ele>1.8</ele>
        <time>2020-06-02T16:08:38Z</time>
      </trkpt>
      <trkpt lat="46.33898" lon="-1.28389">
        <ele>1.8</ele>
        <time>2020-06-02T16:08:39Z</time>
      </trkpt>
      <trkpt lat="46.33899" lon="-1.28396">
        <ele>1.8</ele>
        <time>2020-06-02T16:08:40Z</time>
      </trkpt>
      <trkpt lat="46.33899" lon="-1.28403">
        <ele>1.8</ele>
        <time>2020-06-02T16:08:41Z</time>
      </trkpt>
      <trkpt lat="46.33899" lon="-1.2841">
        <ele>1.8</ele>
        <time>2020-06-02T16:08:42Z</time>
      </trkpt>
      <trkpt lat="46.339" lon="-1.28417">
        <ele>1.8</ele>
        <time>2020-06-02T16:08:43Z</time>
      </trkpt>
      <trkpt lat="46.339" lon="-1.28424">
        <ele>1.8</ele>
        <time>2020-06-02T16:08:44Z</time>
      </trkpt>
      <trkpt lat="46.33901" lon="-1.28431">
        <ele>1.8</ele>
        <time>2020-06-02T16:08:45Z</time>
      </trkpt>
      <trkpt lat="46.33902" lon="-1.28438">
        <ele>1.8</ele>
        <time>2020-06-02T16:08:46Z</time>
      </trkpt>
      <trkpt lat="46.33903" lon="-1.28444">
        <ele>1.8</ele>
        <time>2020-06-02T16:08:47Z</time>
      </trkpt>
      <trkpt lat="46.33904" lon="-1.2845">
        <ele>1.8</ele>
        <time>2020-06-02T16:08:48Z</time>
      </trkpt>
      <trkpt lat="46.33905" lon="-1.28456">
        <ele>1.8</ele>
        <time>2020-06-02T16:08:49Z</time>
      </trkpt>
      <trkpt lat="46.33905" lon="-1.28462">
        <ele>1.8</ele>
        <time>2020-06-02T16:08:50Z</time>
      </trkpt>
      <trkpt lat="46.33906" lon="-1.28467">
        <ele>1.8</ele>
        <time>2020-06-02T16:08:51Z</time>
      </trkpt>
      <trkpt lat="46.33907" lon="-1.28472">
        <ele>1.8</ele>
        <time>2020-06-02T16:08:52Z</time>
      </trkpt>
      <trkpt lat="46.33909" lon="-1.28476">
        <ele>1.8</ele>
        <time>2020-06-02T16:08:53Z</time>
      </trkpt>
      <trkpt lat="46.33911" lon="-1.28481">
        <ele>1.8</ele>
        <time>2020-06-02T16:08:54Z</time>
      </trkpt>
      <trkpt lat="46.33912" lon="-1.28486">
        <ele>1.8</ele>
        <time>2020-06-02T16:08:55Z</time>
      </trkpt>
      <trkpt lat="46.33912" lon="-1.2849">
        <ele>1.8</ele>
        <time>2020-06-02T16:08:56Z</time>
      </trkpt>
      <trkpt lat="46.33912" lon="-1.28494">
        <ele>1.8</ele>
        <time>2020-06-02T16:08:57Z</time>
      </trkpt>
      <trkpt lat="46.33911" lon="-1.28498">
        <ele>1.8</ele>
        <time>2020-06-02T16:08:58Z</time>
      </trkpt>
      <trkpt lat="46.33912" lon="-1.28502">
        <ele>1.8</ele>
        <time>2020-06-02T16:08:59Z</time>
      </trkpt>
      <trkpt lat="46.33912" lon="-1.28508">
        <ele>1.8</ele>
        <time>2020-06-02T16:09:00Z</time>
      </trkpt>
      <trkpt lat="46.33912" lon="-1.2851">
        <ele>1.8</ele>
        <time>2020-06-02T16:09:01Z</time>
      </trkpt>
      <trkpt lat="46.33913" lon="-1.28514">
        <ele>1.8</ele>
        <time>2020-06-02T16:09:02Z</time>
      </trkpt>
      <trkpt lat="46.33915" lon="-1.28518">
        <ele>1.8</ele>
        <time>2020-06-02T16:09:03Z</time>
      </trkpt>
      <trkpt lat="46.33916" lon="-1.28523">
        <ele>1.8</ele>
        <time>2020-06-02T16:09:04Z</time>
      </trkpt>
      <trkpt lat="46.33917" lon="-1.28527">
        <ele>1.8</ele>
        <time>2020-06-02T16:09:05Z</time>
      </trkpt>
      <trkpt lat="46.33918" lon="-1.28532">
        <ele>1.8</ele>
        <time>2020-06-02T16:09:06Z</time>
      </trkpt>
      <trkpt lat="46.33919" lon="-1.28537">
        <ele>1.8</ele>
        <time>2020-06-02T16:09:07Z</time>
      </trkpt>
      <trkpt lat="46.3392" lon="-1.28542">
        <ele>1.8</ele>
        <time>2020-06-02T16:09:08Z</time>
      </trkpt>
      <trkpt lat="46.33921" lon="-1.28546">
        <ele>1.8</ele>
        <time>2020-06-02T16:09:09Z</time>
      </trkpt>
      <trkpt lat="46.33922" lon="-1.28552">
        <ele>1.8</ele>
        <time>2020-06-02T16:09:10Z</time>
      </trkpt>
      <trkpt lat="46.33923" lon="-1.28556">
        <ele>1.9</ele>
        <time>2020-06-02T16:09:11Z</time>
      </trkpt>
      <trkpt lat="46.33924" lon="-1.28561">
        <ele>1.9</ele>
        <time>2020-06-02T16:09:12Z</time>
      </trkpt>
      <trkpt lat="46.33925" lon="-1.28565">
        <ele>1.9</ele>
        <time>2020-06-02T16:09:13Z</time>
      </trkpt>
      <trkpt lat="46.33926" lon="-1.2857">
        <ele>1.9</ele>
        <time>2020-06-02T16:09:14Z</time>
      </trkpt>
      <trkpt lat="46.33927" lon="-1.28572">
        <ele>1.9</ele>
        <time>2020-06-02T16:09:15Z</time>
      </trkpt>
      <trkpt lat="46.33928" lon="-1.28574">
        <ele>1.9</ele>
        <time>2020-06-02T16:09:16Z</time>
      </trkpt>
      <trkpt lat="46.33928" lon="-1.28576">
        <ele>1.9</ele>
        <time>2020-06-02T16:09:17Z</time>
      </trkpt>
      <trkpt lat="46.3393" lon="-1.28579">
        <ele>1.9</ele>
        <time>2020-06-02T16:09:18Z</time>
      </trkpt>
      <trkpt lat="46.3393" lon="-1.28581">
        <ele>1.9</ele>
        <time>2020-06-02T16:09:19Z</time>
      </trkpt>
      <trkpt lat="46.33932" lon="-1.28585">
        <ele>2</ele>
        <time>2020-06-02T16:09:20Z</time>
      </trkpt>
      <trkpt lat="46.33933" lon="-1.28587">
        <ele>2</ele>
        <time>2020-06-02T16:09:21Z</time>
      </trkpt>
      <trkpt lat="46.33934" lon="-1.28591">
        <ele>2</ele>
        <time>2020-06-02T16:09:22Z</time>
      </trkpt>
      <trkpt lat="46.33934" lon="-1.28592">
        <ele>2</ele>
        <time>2020-06-02T16:09:23Z</time>
      </trkpt>
      <trkpt lat="46.33935" lon="-1.28596">
        <ele>2</ele>
        <time>2020-06-02T16:09:24Z</time>
      </trkpt>
      <trkpt lat="46.33935" lon="-1.28597">
        <ele>2</ele>
        <time>2020-06-02T16:09:25Z</time>
      </trkpt>
      <trkpt lat="46.33936" lon="-1.28598">
        <ele>2</ele>
        <time>2020-06-02T16:09:26Z</time>
      </trkpt>
      <trkpt lat="46.33936" lon="-1.28598">
        <ele>2</ele>
        <time>2020-06-02T16:09:27Z</time>
      </trkpt>
      <trkpt lat="46.33936" lon="-1.28598">
        <ele>2</ele>
        <time>2020-06-02T16:09:28Z</time>
      </trkpt>
      <trkpt lat="46.33936" lon="-1.28597">
        <ele>2</ele>
        <time>2020-06-02T16:09:29Z</time>
      </trkpt>
      <trkpt lat="46.33936" lon="-1.28597">
        <ele>2</ele>
        <time>2020-06-02T16:09:30Z</time>
      </trkpt>
      <trkpt lat="46.33936" lon="-1.28597">
        <ele>2</ele>
        <time>2020-06-02T16:09:31Z</time>
      </trkpt>
      <trkpt lat="46.33936" lon="-1.28597">
        <ele>2</ele>
        <time>2020-06-02T16:09:32Z</time>
      </trkpt>
      <trkpt lat="46.33936" lon="-1.28597">
        <ele>2</ele>
        <time>2020-06-02T16:09:33Z</time>
      </trkpt>
      <trkpt lat="46.33936" lon="-1.28597">
        <ele>2</ele>
        <time>2020-06-02T16:09:34Z</time>
      </trkpt>
      <trkpt lat="46.33936" lon="-1.28598">
        <ele>2</ele>
        <time>2020-06-02T16:09:35Z</time>
      </trkpt>
      <trkpt lat="46.33936" lon="-1.28598">
        <ele>2</ele>
        <time>2020-06-02T16:09:36Z</time>
      </trkpt>
      <trkpt lat="46.33936" lon="-1.28598">
        <ele>2</ele>
        <time>2020-06-02T16:09:37Z</time>
      </trkpt>
      <trkpt lat="46.33936" lon="-1.28598">
        <ele>2</ele>
        <time>2020-06-02T16:09:38Z</time>
      </trkpt>
      <trkpt lat="46.33936" lon="-1.28597">
        <ele>2</ele>
        <time>2020-06-02T16:09:39Z</time>
      </trkpt>
      <trkpt lat="46.33936" lon="-1.28597">
        <ele>2</ele>
        <time>2020-06-02T16:09:40Z</time>
      </trkpt>
      <trkpt lat="46.33936" lon="-1.28598">
        <ele>2</ele>
        <time>2020-06-02T16:09:41Z</time>
      </trkpt>
      <trkpt lat="46.33935" lon="-1.28598">
        <ele>2</ele>
        <time>2020-06-02T16:09:42Z</time>
      </trkpt>
      <trkpt lat="46.33935" lon="-1.28599">
        <ele>2</ele>
        <time>2020-06-02T16:09:43Z</time>
      </trkpt>
      <trkpt lat="46.33935" lon="-1.28598">
        <ele>2</ele>
        <time>2020-06-02T16:09:44Z</time>
      </trkpt>
      <trkpt lat="46.33935" lon="-1.28598">
        <ele>2</ele>
        <time>2020-06-02T16:09:45Z</time>
      </trkpt>
      <trkpt lat="46.33935" lon="-1.28598">
        <ele>2</ele>
        <time>2020-06-02T16:09:46Z</time>
      </trkpt>
      <trkpt lat="46.33935" lon="-1.28598">
        <ele>2</ele>
        <time>2020-06-02T16:09:47Z</time>
      </trkpt>
      <trkpt lat="46.33935" lon="-1.28598">
        <ele>2</ele>
        <time>2020-06-02T16:09:48Z</time>
      </trkpt>
      <trkpt lat="46.33936" lon="-1.28598">
        <ele>2</ele>
        <time>2020-06-02T16:09:49Z</time>
      </trkpt>
      <trkpt lat="46.33936" lon="-1.28598">
        <ele>2</ele>
        <time>2020-06-02T16:09:50Z</time>
      </trkpt>
      <trkpt lat="46.33935" lon="-1.28598">
        <ele>2</ele>
        <time>2020-06-02T16:09:51Z</time>
      </trkpt>
      <trkpt lat="46.33935" lon="-1.28599">
        <ele>2</ele>
        <time>2020-06-02T16:09:52Z</time>
      </trkpt>
      <trkpt lat="46.33935" lon="-1.28599">
        <ele>2</ele>
        <time>2020-06-02T16:09:53Z</time>
      </trkpt>
      <trkpt lat="46.33935" lon="-1.28598">
        <ele>2</ele>
        <time>2020-06-02T16:09:54Z</time>
      </trkpt>
      <trkpt lat="46.33935" lon="-1.28598">
        <ele>2</ele>
        <time>2020-06-02T16:09:55Z</time>
      </trkpt>
      <trkpt lat="46.33936" lon="-1.28599">
        <ele>2</ele>
        <time>2020-06-02T16:09:56Z</time>
      </trkpt>
      <trkpt lat="46.33936" lon="-1.28599">
        <ele>2</ele>
        <time>2020-06-02T16:09:57Z</time>
      </trkpt>
      <trkpt lat="46.33936" lon="-1.28599">
        <ele>2</ele>
        <time>2020-06-02T16:09:58Z</time>
      </trkpt>
      <trkpt lat="46.33936" lon="-1.28599">
        <ele>2</ele>
        <time>2020-06-02T16:09:59Z</time>
      </trkpt>
      <trkpt lat="46.33935" lon="-1.28596">
        <ele>2</ele>
        <time>2020-06-02T16:10:00Z</time>
      </trkpt>
      <trkpt lat="46.33935" lon="-1.28595">
        <ele>2</ele>
        <time>2020-06-02T16:10:01Z</time>
      </trkpt>
      <trkpt lat="46.33934" lon="-1.28593">
        <ele>2</ele>
        <time>2020-06-02T16:10:02Z</time>
      </trkpt>
      <trkpt lat="46.33933" lon="-1.28588">
        <ele>2</ele>
        <time>2020-06-02T16:10:03Z</time>
      </trkpt>
      <trkpt lat="46.33932" lon="-1.28586">
        <ele>2</ele>
        <time>2020-06-02T16:10:04Z</time>
      </trkpt>
      <trkpt lat="46.3393" lon="-1.28581">
        <ele>2</ele>
        <time>2020-06-02T16:10:05Z</time>
      </trkpt>
      <trkpt lat="46.33929" lon="-1.28576">
        <ele>2</ele>
        <time>2020-06-02T16:10:06Z</time>
      </trkpt>
      <trkpt lat="46.33928" lon="-1.28572">
        <ele>2</ele>
        <time>2020-06-02T16:10:07Z</time>
      </trkpt>
      <trkpt lat="46.33927" lon="-1.28567">
        <ele>1.9</ele>
        <time>2020-06-02T16:10:08Z</time>
      </trkpt>
      <trkpt lat="46.33926" lon="-1.28561">
        <ele>1.9</ele>
        <time>2020-06-02T16:10:09Z</time>
      </trkpt>
      <trkpt lat="46.33924" lon="-1.28555">
        <ele>1.9</ele>
        <time>2020-06-02T16:10:10Z</time>
      </trkpt>
      <trkpt lat="46.33923" lon="-1.2855">
        <ele>1.9</ele>
        <time>2020-06-02T16:10:11Z</time>
      </trkpt>
      <trkpt lat="46.33921" lon="-1.28543">
        <ele>1.9</ele>
        <time>2020-06-02T16:10:12Z</time>
      </trkpt>
      <trkpt lat="46.33921" lon="-1.28536">
        <ele>1.8</ele>
        <time>2020-06-02T16:10:13Z</time>
      </trkpt>
      <trkpt lat="46.3392" lon="-1.28529">
        <ele>1.8</ele>
        <time>2020-06-02T16:10:14Z</time>
      </trkpt>
      <trkpt lat="46.33919" lon="-1.28522">
        <ele>1.8</ele>
        <time>2020-06-02T16:10:15Z</time>
      </trkpt>
      <trkpt lat="46.33918" lon="-1.28515">
        <ele>1.8</ele>
        <time>2020-06-02T16:10:16Z</time>
      </trkpt>
      <trkpt lat="46.33917" lon="-1.28509">
        <ele>1.8</ele>
        <time>2020-06-02T16:10:17Z</time>
      </trkpt>
      <trkpt lat="46.33915" lon="-1.285">
        <ele>1.8</ele>
        <time>2020-06-02T16:10:18Z</time>
      </trkpt>
      <trkpt lat="46.33913" lon="-1.28493">
        <ele>1.8</ele>
        <time>2020-06-02T16:10:19Z</time>
      </trkpt>
      <trkpt lat="46.33911" lon="-1.28485">
        <ele>1.8</ele>
        <time>2020-06-02T16:10:20Z</time>
      </trkpt>
      <trkpt lat="46.3391" lon="-1.28479">
        <ele>1.8</ele>
        <time>2020-06-02T16:10:21Z</time>
      </trkpt>
      <trkpt lat="46.33908" lon="-1.28471">
        <ele>1.8</ele>
        <time>2020-06-02T16:10:22Z</time>
      </trkpt>
      <trkpt lat="46.33907" lon="-1.28463">
        <ele>1.8</ele>
        <time>2020-06-02T16:10:23Z</time>
      </trkpt>
      <trkpt lat="46.33905" lon="-1.28456">
        <ele>1.8</ele>
        <time>2020-06-02T16:10:24Z</time>
      </trkpt>
      <trkpt lat="46.33905" lon="-1.28449">
        <ele>1.8</ele>
        <time>2020-06-02T16:10:25Z</time>
      </trkpt>
      <trkpt lat="46.33903" lon="-1.28441">
        <ele>1.8</ele>
        <time>2020-06-02T16:10:26Z</time>
      </trkpt>
      <trkpt lat="46.33902" lon="-1.28434">
        <ele>1.8</ele>
        <time>2020-06-02T16:10:27Z</time>
      </trkpt>
      <trkpt lat="46.33901" lon="-1.28427">
        <ele>1.8</ele>
        <time>2020-06-02T16:10:28Z</time>
      </trkpt>
      <trkpt lat="46.339" lon="-1.2842">
        <ele>1.8</ele>
        <time>2020-06-02T16:10:29Z</time>
      </trkpt>
      <trkpt lat="46.33899" lon="-1.28412">
        <ele>1.8</ele>
        <time>2020-06-02T16:10:30Z</time>
      </trkpt>
      <trkpt lat="46.33897" lon="-1.28405">
        <ele>1.8</ele>
        <time>2020-06-02T16:10:31Z</time>
      </trkpt>
      <trkpt lat="46.33896" lon="-1.28398">
        <ele>1.8</ele>
        <time>2020-06-02T16:10:32Z</time>
      </trkpt>
      <trkpt lat="46.33895" lon="-1.2839">
        <ele>1.8</ele>
        <time>2020-06-02T16:10:33Z</time>
      </trkpt>
      <trkpt lat="46.33895" lon="-1.28383">
        <ele>1.8</ele>
        <time>2020-06-02T16:10:34Z</time>
      </trkpt>
      <trkpt lat="46.33895" lon="-1.28377">
        <ele>1.8</ele>
        <time>2020-06-02T16:10:35Z</time>
      </trkpt>
      <trkpt lat="46.33894" lon="-1.28369">
        <ele>1.8</ele>
        <time>2020-06-02T16:10:36Z</time>
      </trkpt>
      <trkpt lat="46.33894" lon="-1.28362">
        <ele>1.8</ele>
        <time>2020-06-02T16:10:37Z</time>
      </trkpt>
      <trkpt lat="46.33894" lon="-1.28355">
        <ele>1.8</ele>
        <time>2020-06-02T16:10:38Z</time>
      </trkpt>
      <trkpt lat="46.33894" lon="-1.28348">
        <ele>1.8</ele>
        <time>2020-06-02T16:10:39Z</time>
      </trkpt>
      <trkpt lat="46.33894" lon="-1.28341">
        <ele>1.9</ele>
        <time>2020-06-02T16:10:40Z</time>
      </trkpt>
      <trkpt lat="46.33893" lon="-1.28335">
        <ele>1.9</ele>
        <time>2020-06-02T16:10:41Z</time>
      </trkpt>
      <trkpt lat="46.33892" lon="-1.28329">
        <ele>2</ele>
        <time>2020-06-02T16:10:42Z</time>
      </trkpt>
      <trkpt lat="46.33891" lon="-1.28323">
        <ele>2</ele>
        <time>2020-06-02T16:10:43Z</time>
      </trkpt>
      <trkpt lat="46.3389" lon="-1.28317">
        <ele>2</ele>
        <time>2020-06-02T16:10:44Z</time>
      </trkpt>
      <trkpt lat="46.33889" lon="-1.2831">
        <ele>2.1</ele>
        <time>2020-06-02T16:10:45Z</time>
      </trkpt>
      <trkpt lat="46.33888" lon="-1.28303">
        <ele>2.2</ele>
        <time>2020-06-02T16:10:46Z</time>
      </trkpt>
      <trkpt lat="46.33886" lon="-1.28297">
        <ele>2.2</ele>
        <time>2020-06-02T16:10:47Z</time>
      </trkpt>
      <trkpt lat="46.33884" lon="-1.28291">
        <ele>2.3</ele>
        <time>2020-06-02T16:10:48Z</time>
      </trkpt>
      <trkpt lat="46.33882" lon="-1.28284">
        <ele>2.3</ele>
        <time>2020-06-02T16:10:49Z</time>
      </trkpt>
      <trkpt lat="46.3388" lon="-1.28278">
        <ele>2.4</ele>
        <time>2020-06-02T16:10:50Z</time>
      </trkpt>
      <trkpt lat="46.33879" lon="-1.28271">
        <ele>2.4</ele>
        <time>2020-06-02T16:10:51Z</time>
      </trkpt>
      <trkpt lat="46.33877" lon="-1.28265">
        <ele>2.4</ele>
        <time>2020-06-02T16:10:52Z</time>
      </trkpt>
      <trkpt lat="46.33875" lon="-1.28258">
        <ele>2.4</ele>
        <time>2020-06-02T16:10:53Z</time>
      </trkpt>
      <trkpt lat="46.33873" lon="-1.28252">
        <ele>2.4</ele>
        <time>2020-06-02T16:10:54Z</time>
      </trkpt>
      <trkpt lat="46.33872" lon="-1.28246">
        <ele>2.4</ele>
        <time>2020-06-02T16:10:55Z</time>
      </trkpt>
      <trkpt lat="46.33871" lon="-1.28238">
        <ele>2.4</ele>
        <time>2020-06-02T16:10:56Z</time>
      </trkpt>
      <trkpt lat="46.3387" lon="-1.2823">
        <ele>2.4</ele>
        <time>2020-06-02T16:10:57Z</time>
      </trkpt>
      <trkpt lat="46.33871" lon="-1.2822">
        <ele>2.4</ele>
        <time>2020-06-02T16:10:58Z</time>
      </trkpt>
      <trkpt lat="46.33872" lon="-1.28211">
        <ele>2.4</ele>
        <time>2020-06-02T16:10:59Z</time>
      </trkpt>
      <trkpt lat="46.33874" lon="-1.28202">
        <ele>2.5</ele>
        <time>2020-06-02T16:11:00Z</time>
      </trkpt>
      <trkpt lat="46.33876" lon="-1.28194">
        <ele>2.5</ele>
        <time>2020-06-02T16:11:01Z</time>
      </trkpt>
      <trkpt lat="46.33878" lon="-1.28186">
        <ele>2.6</ele>
        <time>2020-06-02T16:11:02Z</time>
      </trkpt>
      <trkpt lat="46.3388" lon="-1.2818">
        <ele>2.6</ele>
        <time>2020-06-02T16:11:03Z</time>
      </trkpt>
      <trkpt lat="46.33881" lon="-1.28173">
        <ele>2.6</ele>
        <time>2020-06-02T16:11:04Z</time>
      </trkpt>
      <trkpt lat="46.33883" lon="-1.28166">
        <ele>2.7</ele>
        <time>2020-06-02T16:11:05Z</time>
      </trkpt>
      <trkpt lat="46.33885" lon="-1.28158">
        <ele>2.8</ele>
        <time>2020-06-02T16:11:06Z</time>
      </trkpt>
      <trkpt lat="46.33886" lon="-1.28151">
        <ele>2.8</ele>
        <time>2020-06-02T16:11:07Z</time>
      </trkpt>
      <trkpt lat="46.33888" lon="-1.28143">
        <ele>2.9</ele>
        <time>2020-06-02T16:11:08Z</time>
      </trkpt>
      <trkpt lat="46.3389" lon="-1.28135">
        <ele>3</ele>
        <time>2020-06-02T16:11:09Z</time>
      </trkpt>
      <trkpt lat="46.33891" lon="-1.28128">
        <ele>3</ele>
        <time>2020-06-02T16:11:10Z</time>
      </trkpt>
      <trkpt lat="46.33892" lon="-1.28121">
        <ele>3.1</ele>
        <time>2020-06-02T16:11:11Z</time>
      </trkpt>
      <trkpt lat="46.33892" lon="-1.28115">
        <ele>3.2</ele>
        <time>2020-06-02T16:11:12Z</time>
      </trkpt>
      <trkpt lat="46.33891" lon="-1.28109">
        <ele>3.2</ele>
        <time>2020-06-02T16:11:13Z</time>
      </trkpt>
      <trkpt lat="46.33888" lon="-1.28103">
        <ele>3.3</ele>
        <time>2020-06-02T16:11:14Z</time>
      </trkpt>
      <trkpt lat="46.33885" lon="-1.28098">
        <ele>3.3</ele>
        <time>2020-06-02T16:11:15Z</time>
      </trkpt>
      <trkpt lat="46.33882" lon="-1.28094">
        <ele>3.4</ele>
        <time>2020-06-02T16:11:16Z</time>
      </trkpt>
      <trkpt lat="46.33879" lon="-1.28092">
        <ele>3.5</ele>
        <time>2020-06-02T16:11:17Z</time>
      </trkpt>
      <trkpt lat="46.33875" lon="-1.2809">
        <ele>3.5</ele>
        <time>2020-06-02T16:11:18Z</time>
      </trkpt>
      <trkpt lat="46.33871" lon="-1.2809">
        <ele>3.6</ele>
        <time>2020-06-02T16:11:19Z</time>
      </trkpt>
      <trkpt lat="46.33868" lon="-1.28093">
        <ele>3.6</ele>
        <time>2020-06-02T16:11:20Z</time>
      </trkpt>
      <trkpt lat="46.33866" lon="-1.28098">
        <ele>3.7</ele>
        <time>2020-06-02T16:11:21Z</time>
      </trkpt>
      <trkpt lat="46.33865" lon="-1.28104">
        <ele>3.8</ele>
        <time>2020-06-02T16:11:22Z</time>
      </trkpt>
      <trkpt lat="46.33863" lon="-1.2811">
        <ele>3.8</ele>
        <time>2020-06-02T16:11:23Z</time>
      </trkpt>
      <trkpt lat="46.33862" lon="-1.28117">
        <ele>3.8</ele>
        <time>2020-06-02T16:11:24Z</time>
      </trkpt>
      <trkpt lat="46.33861" lon="-1.28124">
        <ele>3.9</ele>
        <time>2020-06-02T16:11:25Z</time>
      </trkpt>
      <trkpt lat="46.3386" lon="-1.2813">
        <ele>3.9</ele>
        <time>2020-06-02T16:11:26Z</time>
      </trkpt>
      <trkpt lat="46.33859" lon="-1.28138">
        <ele>3.9</ele>
        <time>2020-06-02T16:11:27Z</time>
      </trkpt>
      <trkpt lat="46.33858" lon="-1.28146">
        <ele>3.9</ele>
        <time>2020-06-02T16:11:28Z</time>
      </trkpt>
      <trkpt lat="46.33857" lon="-1.28154">
        <ele>3.9</ele>
        <time>2020-06-02T16:11:29Z</time>
      </trkpt>
      <trkpt lat="46.33856" lon="-1.28161">
        <ele>3.9</ele>
        <time>2020-06-02T16:11:30Z</time>
      </trkpt>
      <trkpt lat="46.33855" lon="-1.28168">
        <ele>3.9</ele>
        <time>2020-06-02T16:11:31Z</time>
      </trkpt>
      <trkpt lat="46.33853" lon="-1.28175">
        <ele>3.9</ele>
        <time>2020-06-02T16:11:32Z</time>
      </trkpt>
      <trkpt lat="46.33851" lon="-1.28182">
        <ele>3.9</ele>
        <time>2020-06-02T16:11:33Z</time>
      </trkpt>
      <trkpt lat="46.33846" lon="-1.28186">
        <ele>3.9</ele>
        <time>2020-06-02T16:11:34Z</time>
      </trkpt>
      <trkpt lat="46.33841" lon="-1.28189">
        <ele>3.9</ele>
        <time>2020-06-02T16:11:35Z</time>
      </trkpt>
      <trkpt lat="46.33836" lon="-1.28192">
        <ele>3.9</ele>
        <time>2020-06-02T16:11:36Z</time>
      </trkpt>
      <trkpt lat="46.33831" lon="-1.28194">
        <ele>3.9</ele>
        <time>2020-06-02T16:11:37Z</time>
      </trkpt>
      <trkpt lat="46.33825" lon="-1.28195">
        <ele>3.9</ele>
        <time>2020-06-02T16:11:38Z</time>
      </trkpt>
      <trkpt lat="46.33819" lon="-1.28194">
        <ele>3.9</ele>
        <time>2020-06-02T16:11:39Z</time>
      </trkpt>
      <trkpt lat="46.33813" lon="-1.28193">
        <ele>3.8</ele>
        <time>2020-06-02T16:11:40Z</time>
      </trkpt>
      <trkpt lat="46.33807" lon="-1.28192">
        <ele>3.8</ele>
        <time>2020-06-02T16:11:41Z</time>
      </trkpt>
      <trkpt lat="46.33801" lon="-1.28192">
        <ele>3.7</ele>
        <time>2020-06-02T16:11:42Z</time>
      </trkpt>
      <trkpt lat="46.33796" lon="-1.28194">
        <ele>3.6</ele>
        <time>2020-06-02T16:11:43Z</time>
      </trkpt>
      <trkpt lat="46.3379" lon="-1.28199">
        <ele>3.5</ele>
        <time>2020-06-02T16:11:44Z</time>
      </trkpt>
      <trkpt lat="46.33785" lon="-1.28204">
        <ele>3.4</ele>
        <time>2020-06-02T16:11:45Z</time>
      </trkpt>
      <trkpt lat="46.3378" lon="-1.2821">
        <ele>3.3</ele>
        <time>2020-06-02T16:11:46Z</time>
      </trkpt>
      <trkpt lat="46.33775" lon="-1.28216">
        <ele>3.3</ele>
        <time>2020-06-02T16:11:47Z</time>
      </trkpt>
      <trkpt lat="46.3377" lon="-1.28223">
        <ele>3.2</ele>
        <time>2020-06-02T16:11:48Z</time>
      </trkpt>
      <trkpt lat="46.33766" lon="-1.2823">
        <ele>3.1</ele>
        <time>2020-06-02T16:11:49Z</time>
      </trkpt>
      <trkpt lat="46.33761" lon="-1.28236">
        <ele>3</ele>
        <time>2020-06-02T16:11:50Z</time>
      </trkpt>
      <trkpt lat="46.33756" lon="-1.28243">
        <ele>3</ele>
        <time>2020-06-02T16:11:51Z</time>
      </trkpt>
      <trkpt lat="46.33751" lon="-1.28249">
        <ele>3</ele>
        <time>2020-06-02T16:11:52Z</time>
      </trkpt>
      <trkpt lat="46.33747" lon="-1.28256">
        <ele>2.9</ele>
        <time>2020-06-02T16:11:53Z</time>
      </trkpt>
      <trkpt lat="46.33743" lon="-1.28263">
        <ele>2.8</ele>
        <time>2020-06-02T16:11:54Z</time>
      </trkpt>
      <trkpt lat="46.33738" lon="-1.2827">
        <ele>2.8</ele>
        <time>2020-06-02T16:11:55Z</time>
      </trkpt>
      <trkpt lat="46.33734" lon="-1.28277">
        <ele>2.9</ele>
        <time>2020-06-02T16:11:56Z</time>
      </trkpt>
      <trkpt lat="46.3373" lon="-1.28284">
        <ele>2.9</ele>
        <time>2020-06-02T16:11:57Z</time>
      </trkpt>
      <trkpt lat="46.33726" lon="-1.28291">
        <ele>2.9</ele>
        <time>2020-06-02T16:11:58Z</time>
      </trkpt>
      <trkpt lat="46.33722" lon="-1.28297">
        <ele>2.9</ele>
        <time>2020-06-02T16:11:59Z</time>
      </trkpt>
      <trkpt lat="46.33719" lon="-1.28304">
        <ele>2.9</ele>
        <time>2020-06-02T16:12:00Z</time>
      </trkpt>
      <trkpt lat="46.33715" lon="-1.28311">
        <ele>3</ele>
        <time>2020-06-02T16:12:01Z</time>
      </trkpt>
      <trkpt lat="46.33711" lon="-1.28317">
        <ele>3</ele>
        <time>2020-06-02T16:12:02Z</time>
      </trkpt>
      <trkpt lat="46.33708" lon="-1.28323">
        <ele>3</ele>
        <time>2020-06-02T16:12:03Z</time>
      </trkpt>
      <trkpt lat="46.33703" lon="-1.28331">
        <ele>3.1</ele>
        <time>2020-06-02T16:12:04Z</time>
      </trkpt>
      <trkpt lat="46.33698" lon="-1.28338">
        <ele>3.1</ele>
        <time>2020-06-02T16:12:05Z</time>
      </trkpt>
      <trkpt lat="46.33694" lon="-1.28346">
        <ele>3.1</ele>
        <time>2020-06-02T16:12:06Z</time>
      </trkpt>
      <trkpt lat="46.33689" lon="-1.28354">
        <ele>3.1</ele>
        <time>2020-06-02T16:12:07Z</time>
      </trkpt>
      <trkpt lat="46.33685" lon="-1.28362">
        <ele>3.2</ele>
        <time>2020-06-02T16:12:08Z</time>
      </trkpt>
      <trkpt lat="46.33681" lon="-1.28369">
        <ele>3.2</ele>
        <time>2020-06-02T16:12:09Z</time>
      </trkpt>
      <trkpt lat="46.33677" lon="-1.28378">
        <ele>3.3</ele>
        <time>2020-06-02T16:12:10Z</time>
      </trkpt>
      <trkpt lat="46.33674" lon="-1.28386">
        <ele>3.3</ele>
        <time>2020-06-02T16:12:11Z</time>
      </trkpt>
      <trkpt lat="46.3367" lon="-1.28395">
        <ele>3.3</ele>
        <time>2020-06-02T16:12:12Z</time>
      </trkpt>
      <trkpt lat="46.33667" lon="-1.28403">
        <ele>3.3</ele>
        <time>2020-06-02T16:12:13Z</time>
      </trkpt>
      <trkpt lat="46.33664" lon="-1.28411">
        <ele>3.2</ele>
        <time>2020-06-02T16:12:14Z</time>
      </trkpt>
      <trkpt lat="46.3366" lon="-1.2842">
        <ele>3.2</ele>
        <time>2020-06-02T16:12:15Z</time>
      </trkpt>
      <trkpt lat="46.33657" lon="-1.28429">
        <ele>3.2</ele>
        <time>2020-06-02T16:12:16Z</time>
      </trkpt>
      <trkpt lat="46.33653" lon="-1.28437">
        <ele>3.2</ele>
        <time>2020-06-02T16:12:17Z</time>
      </trkpt>
      <trkpt lat="46.3365" lon="-1.28446">
        <ele>3.2</ele>
        <time>2020-06-02T16:12:18Z</time>
      </trkpt>
      <trkpt lat="46.33647" lon="-1.28454">
        <ele>3.2</ele>
        <time>2020-06-02T16:12:19Z</time>
      </trkpt>
      <trkpt lat="46.33644" lon="-1.28463">
        <ele>3.2</ele>
        <time>2020-06-02T16:12:20Z</time>
      </trkpt>
      <trkpt lat="46.3364" lon="-1.28471">
        <ele>3.2</ele>
        <time>2020-06-02T16:12:21Z</time>
      </trkpt>
      <trkpt lat="46.33637" lon="-1.28478">
        <ele>3.2</ele>
        <time>2020-06-02T16:12:22Z</time>
      </trkpt>
      <trkpt lat="46.33634" lon="-1.28486">
        <ele>3.2</ele>
        <time>2020-06-02T16:12:23Z</time>
      </trkpt>
      <trkpt lat="46.33631" lon="-1.28493">
        <ele>3.2</ele>
        <time>2020-06-02T16:12:24Z</time>
      </trkpt>
      <trkpt lat="46.33628" lon="-1.28501">
        <ele>3.2</ele>
        <time>2020-06-02T16:12:25Z</time>
      </trkpt>
      <trkpt lat="46.33625" lon="-1.28508">
        <ele>3.2</ele>
        <time>2020-06-02T16:12:26Z</time>
      </trkpt>
      <trkpt lat="46.33622" lon="-1.28516">
        <ele>3.2</ele>
        <time>2020-06-02T16:12:27Z</time>
      </trkpt>
      <trkpt lat="46.33619" lon="-1.28523">
        <ele>3.1</ele>
        <time>2020-06-02T16:12:28Z</time>
      </trkpt>
      <trkpt lat="46.33616" lon="-1.28531">
        <ele>3.1</ele>
        <time>2020-06-02T16:12:29Z</time>
      </trkpt>
      <trkpt lat="46.33613" lon="-1.28538">
        <ele>3.1</ele>
        <time>2020-06-02T16:12:30Z</time>
      </trkpt>
      <trkpt lat="46.33611" lon="-1.28545">
        <ele>3.1</ele>
        <time>2020-06-02T16:12:31Z</time>
      </trkpt>
      <trkpt lat="46.33608" lon="-1.28553">
        <ele>3.1</ele>
        <time>2020-06-02T16:12:32Z</time>
      </trkpt>
      <trkpt lat="46.33605" lon="-1.28561">
        <ele>3.1</ele>
        <time>2020-06-02T16:12:33Z</time>
      </trkpt>
      <trkpt lat="46.33602" lon="-1.28569">
        <ele>3.1</ele>
        <time>2020-06-02T16:12:34Z</time>
      </trkpt>
      <trkpt lat="46.33599" lon="-1.28577">
        <ele>3.1</ele>
        <time>2020-06-02T16:12:35Z</time>
      </trkpt>
      <trkpt lat="46.33596" lon="-1.28585">
        <ele>3.1</ele>
        <time>2020-06-02T16:12:36Z</time>
      </trkpt>
      <trkpt lat="46.33593" lon="-1.28594">
        <ele>3.1</ele>
        <time>2020-06-02T16:12:37Z</time>
      </trkpt>
      <trkpt lat="46.3359" lon="-1.28602">
        <ele>3.1</ele>
        <time>2020-06-02T16:12:38Z</time>
      </trkpt>
      <trkpt lat="46.33587" lon="-1.2861">
        <ele>3.1</ele>
        <time>2020-06-02T16:12:39Z</time>
      </trkpt>
      <trkpt lat="46.33584" lon="-1.28619">
        <ele>3.1</ele>
        <time>2020-06-02T16:12:40Z</time>
      </trkpt>
      <trkpt lat="46.33581" lon="-1.28627">
        <ele>3.1</ele>
        <time>2020-06-02T16:12:41Z</time>
      </trkpt>
      <trkpt lat="46.33578" lon="-1.28636">
        <ele>3.1</ele>
        <time>2020-06-02T16:12:42Z</time>
      </trkpt>
      <trkpt lat="46.33575" lon="-1.28644">
        <ele>3.1</ele>
        <time>2020-06-02T16:12:43Z</time>
      </trkpt>
      <trkpt lat="46.33571" lon="-1.28652">
        <ele>3.1</ele>
        <time>2020-06-02T16:12:44Z</time>
      </trkpt>
      <trkpt lat="46.33568" lon="-1.2866">
        <ele>3.1</ele>
        <time>2020-06-02T16:12:45Z</time>
      </trkpt>
      <trkpt lat="46.33565" lon="-1.28668">
        <ele>3.1</ele>
        <time>2020-06-02T16:12:46Z</time>
      </trkpt>
      <trkpt lat="46.33561" lon="-1.28675">
        <ele>3.1</ele>
        <time>2020-06-02T16:12:47Z</time>
      </trkpt>
      <trkpt lat="46.33557" lon="-1.28683">
        <ele>3.1</ele>
        <time>2020-06-02T16:12:48Z</time>
      </trkpt>
      <trkpt lat="46.33554" lon="-1.28691">
        <ele>3</ele>
        <time>2020-06-02T16:12:49Z</time>
      </trkpt>
      <trkpt lat="46.33551" lon="-1.287">
        <ele>3</ele>
        <time>2020-06-02T16:12:50Z</time>
      </trkpt>
      <trkpt lat="46.33547" lon="-1.28708">
        <ele>3</ele>
        <time>2020-06-02T16:12:51Z</time>
      </trkpt>
      <trkpt lat="46.33544" lon="-1.28716">
        <ele>3</ele>
        <time>2020-06-02T16:12:52Z</time>
      </trkpt>
      <trkpt lat="46.3354" lon="-1.28724">
        <ele>2.9</ele>
        <time>2020-06-02T16:12:53Z</time>
      </trkpt>
      <trkpt lat="46.33536" lon="-1.28732">
        <ele>2.9</ele>
        <time>2020-06-02T16:12:54Z</time>
      </trkpt>
      <trkpt lat="46.33533" lon="-1.28741">
        <ele>2.9</ele>
        <time>2020-06-02T16:12:55Z</time>
      </trkpt>
      <trkpt lat="46.33529" lon="-1.28749">
        <ele>2.9</ele>
        <time>2020-06-02T16:12:56Z</time>
      </trkpt>
      <trkpt lat="46.33525" lon="-1.28757">
        <ele>2.9</ele>
        <time>2020-06-02T16:12:57Z</time>
      </trkpt>
      <trkpt lat="46.33522" lon="-1.28765">
        <ele>2.9</ele>
        <time>2020-06-02T16:12:58Z</time>
      </trkpt>
      <trkpt lat="46.33518" lon="-1.28773">
        <ele>2.9</ele>
        <time>2020-06-02T16:12:59Z</time>
      </trkpt>
      <trkpt lat="46.33514" lon="-1.28781">
        <ele>2.9</ele>
        <time>2020-06-02T16:13:00Z</time>
      </trkpt>
      <trkpt lat="46.3351" lon="-1.28789">
        <ele>2.9</ele>
        <time>2020-06-02T16:13:01Z</time>
      </trkpt>
      <trkpt lat="46.33507" lon="-1.28798">
        <ele>2.9</ele>
        <time>2020-06-02T16:13:02Z</time>
      </trkpt>
      <trkpt lat="46.33503" lon="-1.28807">
        <ele>2.9</ele>
        <time>2020-06-02T16:13:03Z</time>
      </trkpt>
      <trkpt lat="46.335" lon="-1.28816">
        <ele>2.9</ele>
        <time>2020-06-02T16:13:04Z</time>
      </trkpt>
      <trkpt lat="46.33496" lon="-1.28824">
        <ele>2.8</ele>
        <time>2020-06-02T16:13:05Z</time>
      </trkpt>
      <trkpt lat="46.33493" lon="-1.28832">
        <ele>2.8</ele>
        <time>2020-06-02T16:13:06Z</time>
      </trkpt>
      <trkpt lat="46.33491" lon="-1.2884">
        <ele>2.8</ele>
        <time>2020-06-02T16:13:07Z</time>
      </trkpt>
      <trkpt lat="46.33488" lon="-1.28848">
        <ele>2.8</ele>
        <time>2020-06-02T16:13:08Z</time>
      </trkpt>
      <trkpt lat="46.33484" lon="-1.28856">
        <ele>2.8</ele>
        <time>2020-06-02T16:13:09Z</time>
      </trkpt>
      <trkpt lat="46.33481" lon="-1.28865">
        <ele>2.8</ele>
        <time>2020-06-02T16:13:10Z</time>
      </trkpt>
      <trkpt lat="46.33477" lon="-1.28874">
        <ele>2.8</ele>
        <time>2020-06-02T16:13:11Z</time>
      </trkpt>
      <trkpt lat="46.33473" lon="-1.28884">
        <ele>2.8</ele>
        <time>2020-06-02T16:13:12Z</time>
      </trkpt>
      <trkpt lat="46.3347" lon="-1.28893">
        <ele>2.8</ele>
        <time>2020-06-02T16:13:13Z</time>
      </trkpt>
      <trkpt lat="46.33466" lon="-1.28901">
        <ele>2.8</ele>
        <time>2020-06-02T16:13:14Z</time>
      </trkpt>
      <trkpt lat="46.33462" lon="-1.28911">
        <ele>2.8</ele>
        <time>2020-06-02T16:13:15Z</time>
      </trkpt>
      <trkpt lat="46.33459" lon="-1.28918">
        <ele>2.8</ele>
        <time>2020-06-02T16:13:16Z</time>
      </trkpt>
      <trkpt lat="46.33455" lon="-1.28926">
        <ele>2.8</ele>
        <time>2020-06-02T16:13:17Z</time>
      </trkpt>
      <trkpt lat="46.33452" lon="-1.28934">
        <ele>2.8</ele>
        <time>2020-06-02T16:13:18Z</time>
      </trkpt>
      <trkpt lat="46.33449" lon="-1.28943">
        <ele>2.8</ele>
        <time>2020-06-02T16:13:19Z</time>
      </trkpt>
      <trkpt lat="46.33445" lon="-1.28951">
        <ele>2.8</ele>
        <time>2020-06-02T16:13:20Z</time>
      </trkpt>
      <trkpt lat="46.33442" lon="-1.2896">
        <ele>2.8</ele>
        <time>2020-06-02T16:13:21Z</time>
      </trkpt>
      <trkpt lat="46.33438" lon="-1.28968">
        <ele>2.8</ele>
        <time>2020-06-02T16:13:22Z</time>
      </trkpt>
      <trkpt lat="46.33435" lon="-1.28976">
        <ele>2.8</ele>
        <time>2020-06-02T16:13:23Z</time>
      </trkpt>
      <trkpt lat="46.33432" lon="-1.28984">
        <ele>2.8</ele>
        <time>2020-06-02T16:13:24Z</time>
      </trkpt>
      <trkpt lat="46.33429" lon="-1.28992">
        <ele>2.8</ele>
        <time>2020-06-02T16:13:25Z</time>
      </trkpt>
      <trkpt lat="46.33426" lon="-1.29">
        <ele>2.8</ele>
        <time>2020-06-02T16:13:26Z</time>
      </trkpt>
      <trkpt lat="46.33423" lon="-1.29009">
        <ele>2.7</ele>
        <time>2020-06-02T16:13:27Z</time>
      </trkpt>
      <trkpt lat="46.3342" lon="-1.29018">
        <ele>2.7</ele>
        <time>2020-06-02T16:13:28Z</time>
      </trkpt>
      <trkpt lat="46.33417" lon="-1.29026">
        <ele>2.7</ele>
        <time>2020-06-02T16:13:29Z</time>
      </trkpt>
      <trkpt lat="46.33414" lon="-1.29034">
        <ele>2.7</ele>
        <time>2020-06-02T16:13:30Z</time>
      </trkpt>
      <trkpt lat="46.33411" lon="-1.29042">
        <ele>2.7</ele>
        <time>2020-06-02T16:13:31Z</time>
      </trkpt>
      <trkpt lat="46.33408" lon="-1.2905">
        <ele>2.7</ele>
        <time>2020-06-02T16:13:32Z</time>
      </trkpt>
      <trkpt lat="46.33406" lon="-1.29058">
        <ele>2.7</ele>
        <time>2020-06-02T16:13:33Z</time>
      </trkpt>
      <trkpt lat="46.33403" lon="-1.29066">
        <ele>2.7</ele>
        <time>2020-06-02T16:13:34Z</time>
      </trkpt>
      <trkpt lat="46.334" lon="-1.29073">
        <ele>2.7</ele>
        <time>2020-06-02T16:13:35Z</time>
      </trkpt>
      <trkpt lat="46.33397" lon="-1.29081">
        <ele>2.7</ele>
        <time>2020-06-02T16:13:36Z</time>
      </trkpt>
      <trkpt lat="46.33394" lon="-1.29089">
        <ele>2.7</ele>
        <time>2020-06-02T16:13:37Z</time>
      </trkpt>
      <trkpt lat="46.33391" lon="-1.29097">
        <ele>2.7</ele>
        <time>2020-06-02T16:13:38Z</time>
      </trkpt>
      <trkpt lat="46.33387" lon="-1.29105">
        <ele>2.7</ele>
        <time>2020-06-02T16:13:39Z</time>
      </trkpt>
      <trkpt lat="46.33384" lon="-1.29113">
        <ele>2.7</ele>
        <time>2020-06-02T16:13:40Z</time>
      </trkpt>
      <trkpt lat="46.3338" lon="-1.29121">
        <ele>2.7</ele>
        <time>2020-06-02T16:13:41Z</time>
      </trkpt>
      <trkpt lat="46.33377" lon="-1.29128">
        <ele>2.7</ele>
        <time>2020-06-02T16:13:42Z</time>
      </trkpt>
      <trkpt lat="46.33374" lon="-1.29136">
        <ele>2.7</ele>
        <time>2020-06-02T16:13:43Z</time>
      </trkpt>
      <trkpt lat="46.33371" lon="-1.29144">
        <ele>2.6</ele>
        <time>2020-06-02T16:13:44Z</time>
      </trkpt>
      <trkpt lat="46.33368" lon="-1.29152">
        <ele>2.6</ele>
        <time>2020-06-02T16:13:45Z</time>
      </trkpt>
      <trkpt lat="46.33365" lon="-1.29159">
        <ele>2.6</ele>
        <time>2020-06-02T16:13:46Z</time>
      </trkpt>
      <trkpt lat="46.33362" lon="-1.29167">
        <ele>2.6</ele>
        <time>2020-06-02T16:13:47Z</time>
      </trkpt>
      <trkpt lat="46.33359" lon="-1.29175">
        <ele>2.6</ele>
        <time>2020-06-02T16:13:48Z</time>
      </trkpt>
      <trkpt lat="46.33356" lon="-1.29183">
        <ele>2.6</ele>
        <time>2020-06-02T16:13:49Z</time>
      </trkpt>
      <trkpt lat="46.33353" lon="-1.2919">
        <ele>2.6</ele>
        <time>2020-06-02T16:13:50Z</time>
      </trkpt>
      <trkpt lat="46.3335" lon="-1.29197">
        <ele>2.6</ele>
        <time>2020-06-02T16:13:51Z</time>
      </trkpt>
      <trkpt lat="46.33347" lon="-1.29205">
        <ele>2.6</ele>
        <time>2020-06-02T16:13:52Z</time>
      </trkpt>
      <trkpt lat="46.33345" lon="-1.29212">
        <ele>2.6</ele>
        <time>2020-06-02T16:13:53Z</time>
      </trkpt>
      <trkpt lat="46.33342" lon="-1.29219">
        <ele>2.6</ele>
        <time>2020-06-02T16:13:54Z</time>
      </trkpt>
      <trkpt lat="46.33339" lon="-1.29228">
        <ele>2.7</ele>
        <time>2020-06-02T16:13:55Z</time>
      </trkpt>
      <trkpt lat="46.33337" lon="-1.29236">
        <ele>2.7</ele>
        <time>2020-06-02T16:13:56Z</time>
      </trkpt>
      <trkpt lat="46.33334" lon="-1.29245">
        <ele>2.8</ele>
        <time>2020-06-02T16:13:57Z</time>
      </trkpt>
      <trkpt lat="46.33332" lon="-1.29254">
        <ele>2.8</ele>
        <time>2020-06-02T16:13:58Z</time>
      </trkpt>
      <trkpt lat="46.3333" lon="-1.29261">
        <ele>2.9</ele>
        <time>2020-06-02T16:13:59Z</time>
      </trkpt>
      <trkpt lat="46.33327" lon="-1.2927">
        <ele>3</ele>
        <time>2020-06-02T16:14:00Z</time>
      </trkpt>
      <trkpt lat="46.33325" lon="-1.29279">
        <ele>3.1</ele>
        <time>2020-06-02T16:14:01Z</time>
      </trkpt>
      <trkpt lat="46.33323" lon="-1.29286">
        <ele>3.1</ele>
        <time>2020-06-02T16:14:02Z</time>
      </trkpt>
      <trkpt lat="46.33322" lon="-1.29292">
        <ele>3.1</ele>
        <time>2020-06-02T16:14:03Z</time>
      </trkpt>
      <trkpt lat="46.3332" lon="-1.29298">
        <ele>3.2</ele>
        <time>2020-06-02T16:14:04Z</time>
      </trkpt>
      <trkpt lat="46.33319" lon="-1.29305">
        <ele>3.2</ele>
        <time>2020-06-02T16:14:05Z</time>
      </trkpt>
      <trkpt lat="46.33318" lon="-1.29313">
        <ele>3.3</ele>
        <time>2020-06-02T16:14:06Z</time>
      </trkpt>
      <trkpt lat="46.33319" lon="-1.29321">
        <ele>3.3</ele>
        <time>2020-06-02T16:14:07Z</time>
      </trkpt>
      <trkpt lat="46.33319" lon="-1.29327">
        <ele>3.3</ele>
        <time>2020-06-02T16:14:08Z</time>
      </trkpt>
      <trkpt lat="46.33318" lon="-1.29333">
        <ele>3.4</ele>
        <time>2020-06-02T16:14:09Z</time>
      </trkpt>
      <trkpt lat="46.33317" lon="-1.29338">
        <ele>3.4</ele>
        <time>2020-06-02T16:14:10Z</time>
      </trkpt>
      <trkpt lat="46.33314" lon="-1.29342">
        <ele>3.4</ele>
        <time>2020-06-02T16:14:11Z</time>
      </trkpt>
      <trkpt lat="46.3331" lon="-1.29344">
        <ele>3.5</ele>
        <time>2020-06-02T16:14:12Z</time>
      </trkpt>
      <trkpt lat="46.33306" lon="-1.29345">
        <ele>3.5</ele>
        <time>2020-06-02T16:14:13Z</time>
      </trkpt>
      <trkpt lat="46.33303" lon="-1.29346">
        <ele>3.5</ele>
        <time>2020-06-02T16:14:14Z</time>
      </trkpt>
      <trkpt lat="46.33299" lon="-1.29344">
        <ele>3.6</ele>
        <time>2020-06-02T16:14:15Z</time>
      </trkpt>
      <trkpt lat="46.33294" lon="-1.29342">
        <ele>3.6</ele>
        <time>2020-06-02T16:14:16Z</time>
      </trkpt>
      <trkpt lat="46.33291" lon="-1.29337">
        <ele>3.6</ele>
        <time>2020-06-02T16:14:17Z</time>
      </trkpt>
      <trkpt lat="46.33288" lon="-1.29332">
        <ele>3.5</ele>
        <time>2020-06-02T16:14:18Z</time>
      </trkpt>
      <trkpt lat="46.33286" lon="-1.29326">
        <ele>3.5</ele>
        <time>2020-06-02T16:14:19Z</time>
      </trkpt>
      <trkpt lat="46.33285" lon="-1.2932">
        <ele>3.5</ele>
        <time>2020-06-02T16:14:20Z</time>
      </trkpt>
      <trkpt lat="46.33284" lon="-1.29316">
        <ele>3.5</ele>
        <time>2020-06-02T16:14:21Z</time>
      </trkpt>
      <trkpt lat="46.33282" lon="-1.29311">
        <ele>3.4</ele>
        <time>2020-06-02T16:14:22Z</time>
      </trkpt>
      <trkpt lat="46.3328" lon="-1.29304">
        <ele>3.4</ele>
        <time>2020-06-02T16:14:23Z</time>
      </trkpt>
      <trkpt lat="46.33277" lon="-1.293">
        <ele>3.4</ele>
        <time>2020-06-02T16:14:24Z</time>
      </trkpt>
      <trkpt lat="46.33274" lon="-1.29297">
        <ele>3.3</ele>
        <time>2020-06-02T16:14:25Z</time>
      </trkpt>
      <trkpt lat="46.3327" lon="-1.29293">
        <ele>3.3</ele>
        <time>2020-06-02T16:14:26Z</time>
      </trkpt>
      <trkpt lat="46.33266" lon="-1.2929">
        <ele>3.2</ele>
        <time>2020-06-02T16:14:27Z</time>
      </trkpt>
      <trkpt lat="46.33262" lon="-1.29286">
        <ele>3.2</ele>
        <time>2020-06-02T16:14:28Z</time>
      </trkpt>
      <trkpt lat="46.33258" lon="-1.29283">
        <ele>3.2</ele>
        <time>2020-06-02T16:14:29Z</time>
      </trkpt>
      <trkpt lat="46.33254" lon="-1.2928">
        <ele>3.1</ele>
        <time>2020-06-02T16:14:30Z</time>
      </trkpt>
      <trkpt lat="46.3325" lon="-1.29277">
        <ele>3.1</ele>
        <time>2020-06-02T16:14:31Z</time>
      </trkpt>
      <trkpt lat="46.33247" lon="-1.29275">
        <ele>3.1</ele>
        <time>2020-06-02T16:14:32Z</time>
      </trkpt>
      <trkpt lat="46.33243" lon="-1.29272">
        <ele>3</ele>
        <time>2020-06-02T16:14:33Z</time>
      </trkpt>
      <trkpt lat="46.3324" lon="-1.29269">
        <ele>3</ele>
        <time>2020-06-02T16:14:34Z</time>
      </trkpt>
      <trkpt lat="46.33235" lon="-1.29266">
        <ele>3</ele>
        <time>2020-06-02T16:14:35Z</time>
      </trkpt>
      <trkpt lat="46.33231" lon="-1.29262">
        <ele>3</ele>
        <time>2020-06-02T16:14:36Z</time>
      </trkpt>
      <trkpt lat="46.33227" lon="-1.29258">
        <ele>2.9</ele>
        <time>2020-06-02T16:14:37Z</time>
      </trkpt>
      <trkpt lat="46.33224" lon="-1.29255">
        <ele>2.9</ele>
        <time>2020-06-02T16:14:38Z</time>
      </trkpt>
      <trkpt lat="46.3322" lon="-1.29252">
        <ele>2.9</ele>
        <time>2020-06-02T16:14:39Z</time>
      </trkpt>
      <trkpt lat="46.33216" lon="-1.2925">
        <ele>2.9</ele>
        <time>2020-06-02T16:14:40Z</time>
      </trkpt>
      <trkpt lat="46.33212" lon="-1.29248">
        <ele>2.9</ele>
        <time>2020-06-02T16:14:41Z</time>
      </trkpt>
      <trkpt lat="46.33209" lon="-1.29246">
        <ele>2.9</ele>
        <time>2020-06-02T16:14:42Z</time>
      </trkpt>
      <trkpt lat="46.33207" lon="-1.29239">
        <ele>2.8</ele>
        <time>2020-06-02T16:14:43Z</time>
      </trkpt>
      <trkpt lat="46.33207" lon="-1.29235">
        <ele>2.8</ele>
        <time>2020-06-02T16:14:44Z</time>
      </trkpt>
      <trkpt lat="46.3321" lon="-1.29234">
        <ele>2.8</ele>
        <time>2020-06-02T16:14:45Z</time>
      </trkpt>
      <trkpt lat="46.33214" lon="-1.29229">
        <ele>2.8</ele>
        <time>2020-06-02T16:14:46Z</time>
      </trkpt>
      <trkpt lat="46.33216" lon="-1.29225">
        <ele>2.8</ele>
        <time>2020-06-02T16:14:47Z</time>
      </trkpt>
      <trkpt lat="46.33217" lon="-1.2922">
        <ele>2.8</ele>
        <time>2020-06-02T16:14:48Z</time>
      </trkpt>
      <trkpt lat="46.33218" lon="-1.29215">
        <ele>2.8</ele>
        <time>2020-06-02T16:14:49Z</time>
      </trkpt>
      <trkpt lat="46.33218" lon="-1.2921">
        <ele>2.8</ele>
        <time>2020-06-02T16:14:50Z</time>
      </trkpt>
      <trkpt lat="46.33218" lon="-1.29205">
        <ele>2.8</ele>
        <time>2020-06-02T16:14:51Z</time>
      </trkpt>
      <trkpt lat="46.3322" lon="-1.29199">
        <ele>2.8</ele>
        <time>2020-06-02T16:14:52Z</time>
      </trkpt>
      <trkpt lat="46.3322" lon="-1.29194">
        <ele>2.8</ele>
        <time>2020-06-02T16:14:53Z</time>
      </trkpt>
      <trkpt lat="46.33222" lon="-1.29189">
        <ele>2.8</ele>
        <time>2020-06-02T16:14:54Z</time>
      </trkpt>
      <trkpt lat="46.33222" lon="-1.29185">
        <ele>2.8</ele>
        <time>2020-06-02T16:14:55Z</time>
      </trkpt>
      <trkpt lat="46.33223" lon="-1.29182">
        <ele>2.8</ele>
        <time>2020-06-02T16:14:56Z</time>
      </trkpt>
      <trkpt lat="46.33223" lon="-1.29181">
        <ele>2.8</ele>
        <time>2020-06-02T16:14:57Z</time>
      </trkpt>
      <trkpt lat="46.33223" lon="-1.29179">
        <ele>2.8</ele>
        <time>2020-06-02T16:14:58Z</time>
      </trkpt>
      <trkpt lat="46.33223" lon="-1.29179">
        <ele>2.8</ele>
        <time>2020-06-02T16:14:59Z</time>
      </trkpt>
      <trkpt lat="46.33223" lon="-1.29178">
        <ele>2.8</ele>
        <time>2020-06-02T16:15:00Z</time>
      </trkpt>
      <trkpt lat="46.33224" lon="-1.29179">
        <ele>2.8</ele>
        <time>2020-06-02T16:15:01Z</time>
      </trkpt>
      <trkpt lat="46.33224" lon="-1.29179">
        <ele>2.8</ele>
        <time>2020-06-02T16:15:02Z</time>
      </trkpt>
      <trkpt lat="46.33224" lon="-1.29179">
        <ele>2.8</ele>
        <time>2020-06-02T16:15:03Z</time>
      </trkpt>
      <trkpt lat="46.33224" lon="-1.29181">
        <ele>2.8</ele>
        <time>2020-06-02T16:15:04Z</time>
      </trkpt>
      <trkpt lat="46.33224" lon="-1.29184">
        <ele>2.7</ele>
        <time>2020-06-02T16:15:05Z</time>
      </trkpt>
      <trkpt lat="46.33224" lon="-1.29186">
        <ele>2.7</ele>
        <time>2020-06-02T16:15:06Z</time>
      </trkpt>
      <trkpt lat="46.33224" lon="-1.29186">
        <ele>2.7</ele>
        <time>2020-06-02T16:15:07Z</time>
      </trkpt>
      <trkpt lat="46.33224" lon="-1.29186">
        <ele>2.7</ele>
        <time>2020-06-02T16:15:08Z</time>
      </trkpt>
      <trkpt lat="46.33224" lon="-1.29187">
        <ele>2.7</ele>
        <time>2020-06-02T16:15:09Z</time>
      </trkpt>
      <trkpt lat="46.33224" lon="-1.29186">
        <ele>2.7</ele>
        <time>2020-06-02T16:15:10Z</time>
      </trkpt>
      <trkpt lat="46.33225" lon="-1.29186">
        <ele>2.7</ele>
        <time>2020-06-02T16:15:11Z</time>
      </trkpt>
      <trkpt lat="46.33226" lon="-1.29185">
        <ele>2.7</ele>
        <time>2020-06-02T16:15:12Z</time>
      </trkpt>
      <trkpt lat="46.33226" lon="-1.29184">
        <ele>2.7</ele>
        <time>2020-06-02T16:15:13Z</time>
      </trkpt>
      <trkpt lat="46.33227" lon="-1.29184">
        <ele>2.7</ele>
        <time>2020-06-02T16:15:14Z</time>
      </trkpt>
      <trkpt lat="46.33228" lon="-1.29183">
        <ele>2.7</ele>
        <time>2020-06-02T16:15:15Z</time>
      </trkpt>
      <trkpt lat="46.33228" lon="-1.29183">
        <ele>2.7</ele>
        <time>2020-06-02T16:15:16Z</time>
      </trkpt>
      <trkpt lat="46.33228" lon="-1.29183">
        <ele>2.7</ele>
        <time>2020-06-02T16:15:17Z</time>
      </trkpt>
      <trkpt lat="46.33228" lon="-1.29182">
        <ele>2.7</ele>
        <time>2020-06-02T16:15:18Z</time>
      </trkpt>
      <trkpt lat="46.33228" lon="-1.29182">
        <ele>2.7</ele>
        <time>2020-06-02T16:15:19Z</time>
      </trkpt>
      <trkpt lat="46.33228" lon="-1.29181">
        <ele>2.7</ele>
        <time>2020-06-02T16:15:20Z</time>
      </trkpt>
      <trkpt lat="46.33228" lon="-1.2918">
        <ele>2.7</ele>
        <time>2020-06-02T16:15:21Z</time>
      </trkpt>
      <trkpt lat="46.33228" lon="-1.2918">
        <ele>2.7</ele>
        <time>2020-06-02T16:15:22Z</time>
      </trkpt>
      <trkpt lat="46.33228" lon="-1.2918">
        <ele>2.7</ele>
        <time>2020-06-02T16:15:23Z</time>
      </trkpt>
      <trkpt lat="46.33228" lon="-1.2918">
        <ele>2.7</ele>
        <time>2020-06-02T16:15:24Z</time>
      </trkpt>
      <trkpt lat="46.33227" lon="-1.29179">
        <ele>2.7</ele>
        <time>2020-06-02T16:15:25Z</time>
      </trkpt>
      <trkpt lat="46.33223" lon="-1.29181">
        <ele>2.7</ele>
        <time>2020-06-02T16:49:58Z</time>
      </trkpt>
      <trkpt lat="46.33223" lon="-1.29181">
        <ele>2.7</ele>
        <time>2020-06-02T16:49:59Z</time>
      </trkpt>
      <trkpt lat="46.33223" lon="-1.29181">
        <ele>2.7</ele>
        <time>2020-06-02T16:50:00Z</time>
      </trkpt>
      <trkpt lat="46.33223" lon="-1.29181">
        <ele>2.7</ele>
        <time>2020-06-02T16:50:01Z</time>
      </trkpt>
      <trkpt lat="46.33222" lon="-1.29181">
        <ele>2.7</ele>
        <time>2020-06-02T16:50:02Z</time>
      </trkpt>
      <trkpt lat="46.33222" lon="-1.29182">
        <ele>2.7</ele>
        <time>2020-06-02T16:50:03Z</time>
      </trkpt>
      <trkpt lat="46.33221" lon="-1.29181">
        <ele>2.7</ele>
        <time>2020-06-02T16:50:04Z</time>
      </trkpt>
      <trkpt lat="46.33221" lon="-1.29181">
        <ele>2.7</ele>
        <time>2020-06-02T16:50:05Z</time>
      </trkpt>
      <trkpt lat="46.3322" lon="-1.29181">
        <ele>2.7</ele>
        <time>2020-06-02T16:50:06Z</time>
      </trkpt>
      <trkpt lat="46.3322" lon="-1.2918">
        <ele>2.7</ele>
        <time>2020-06-02T16:50:07Z</time>
      </trkpt>
      <trkpt lat="46.3322" lon="-1.29179">
        <ele>2.7</ele>
        <time>2020-06-02T16:50:08Z</time>
      </trkpt>
      <trkpt lat="46.3322" lon="-1.29177">
        <ele>2.7</ele>
        <time>2020-06-02T16:50:09Z</time>
      </trkpt>
      <trkpt lat="46.3322" lon="-1.29178">
        <ele>2.7</ele>
        <time>2020-06-02T16:50:10Z</time>
      </trkpt>
      <trkpt lat="46.3322" lon="-1.29177">
        <ele>2.7</ele>
        <time>2020-06-02T16:50:11Z</time>
      </trkpt>
      <trkpt lat="46.3322" lon="-1.29177">
        <ele>2.7</ele>
        <time>2020-06-02T16:50:12Z</time>
      </trkpt>
      <trkpt lat="46.3322" lon="-1.29178">
        <ele>2.7</ele>
        <time>2020-06-02T16:50:13Z</time>
      </trkpt>
      <trkpt lat="46.33221" lon="-1.29178">
        <ele>2.7</ele>
        <time>2020-06-02T16:50:14Z</time>
      </trkpt>
      <trkpt lat="46.33221" lon="-1.29178">
        <ele>2.7</ele>
        <time>2020-06-02T16:50:15Z</time>
      </trkpt>
      <trkpt lat="46.33222" lon="-1.2918">
        <ele>2.7</ele>
        <time>2020-06-02T16:50:16Z</time>
      </trkpt>
      <trkpt lat="46.33221" lon="-1.29181">
        <ele>2.7</ele>
        <time>2020-06-02T16:50:17Z</time>
      </trkpt>
      <trkpt lat="46.33221" lon="-1.29186">
        <ele>2.7</ele>
        <time>2020-06-02T16:50:18Z</time>
      </trkpt>
      <trkpt lat="46.33221" lon="-1.29188">
        <ele>2.7</ele>
        <time>2020-06-02T16:50:19Z</time>
      </trkpt>
      <trkpt lat="46.33222" lon="-1.29193">
        <ele>2.7</ele>
        <time>2020-06-02T16:50:20Z</time>
      </trkpt>
      <trkpt lat="46.3322" lon="-1.29201">
        <ele>2.8</ele>
        <time>2020-06-02T16:50:21Z</time>
      </trkpt>
      <trkpt lat="46.33219" lon="-1.29206">
        <ele>2.8</ele>
        <time>2020-06-02T16:50:22Z</time>
      </trkpt>
      <trkpt lat="46.33218" lon="-1.29211">
        <ele>2.8</ele>
        <time>2020-06-02T16:50:23Z</time>
      </trkpt>
      <trkpt lat="46.33218" lon="-1.29213">
        <ele>2.8</ele>
        <time>2020-06-02T16:50:24Z</time>
      </trkpt>
      <trkpt lat="46.33219" lon="-1.29219">
        <ele>2.8</ele>
        <time>2020-06-02T16:50:25Z</time>
      </trkpt>
      <trkpt lat="46.33219" lon="-1.29225">
        <ele>2.8</ele>
        <time>2020-06-02T16:50:26Z</time>
      </trkpt>
      <trkpt lat="46.33219" lon="-1.2923">
        <ele>2.8</ele>
        <time>2020-06-02T16:50:27Z</time>
      </trkpt>
      <trkpt lat="46.33219" lon="-1.29235">
        <ele>2.8</ele>
        <time>2020-06-02T16:50:28Z</time>
      </trkpt>
      <trkpt lat="46.33221" lon="-1.29241">
        <ele>2.9</ele>
        <time>2020-06-02T16:50:29Z</time>
      </trkpt>
      <trkpt lat="46.33222" lon="-1.29246">
        <ele>2.9</ele>
        <time>2020-06-02T16:50:30Z</time>
      </trkpt>
      <trkpt lat="46.33227" lon="-1.29249">
        <ele>2.9</ele>
        <time>2020-06-02T16:50:31Z</time>
      </trkpt>
      <trkpt lat="46.33231" lon="-1.29254">
        <ele>2.9</ele>
        <time>2020-06-02T16:50:32Z</time>
      </trkpt>
      <trkpt lat="46.33236" lon="-1.29259">
        <ele>3</ele>
        <time>2020-06-02T16:50:33Z</time>
      </trkpt>
      <trkpt lat="46.3324" lon="-1.29263">
        <ele>3</ele>
        <time>2020-06-02T16:50:34Z</time>
      </trkpt>
      <trkpt lat="46.33245" lon="-1.29267">
        <ele>3</ele>
        <time>2020-06-02T16:50:35Z</time>
      </trkpt>
      <trkpt lat="46.33249" lon="-1.29272">
        <ele>3.1</ele>
        <time>2020-06-02T16:50:36Z</time>
      </trkpt>
      <trkpt lat="46.33254" lon="-1.29276">
        <ele>3.1</ele>
        <time>2020-06-02T16:50:37Z</time>
      </trkpt>
      <trkpt lat="46.33259" lon="-1.29279">
        <ele>3.2</ele>
        <time>2020-06-02T16:50:38Z</time>
      </trkpt>
      <trkpt lat="46.33265" lon="-1.29284">
        <ele>3.2</ele>
        <time>2020-06-02T16:50:39Z</time>
      </trkpt>
      <trkpt lat="46.33269" lon="-1.29289">
        <ele>3.3</ele>
        <time>2020-06-02T16:50:40Z</time>
      </trkpt>
      <trkpt lat="46.33273" lon="-1.29293">
        <ele>3.3</ele>
        <time>2020-06-02T16:50:41Z</time>
      </trkpt>
      <trkpt lat="46.3328" lon="-1.29296">
        <ele>3.3</ele>
        <time>2020-06-02T16:50:42Z</time>
      </trkpt>
      <trkpt lat="46.33285" lon="-1.293">
        <ele>3.4</ele>
        <time>2020-06-02T16:50:43Z</time>
      </trkpt>
      <trkpt lat="46.33291" lon="-1.29302">
        <ele>3.4</ele>
        <time>2020-06-02T16:50:44Z</time>
      </trkpt>
      <trkpt lat="46.33297" lon="-1.29304">
        <ele>3.3</ele>
        <time>2020-06-02T16:50:45Z</time>
      </trkpt>
      <trkpt lat="46.33302" lon="-1.29304">
        <ele>3.3</ele>
        <time>2020-06-02T16:50:46Z</time>
      </trkpt>
      <trkpt lat="46.33307" lon="-1.29305">
        <ele>3.3</ele>
        <time>2020-06-02T16:50:47Z</time>
      </trkpt>
      <trkpt lat="46.33311" lon="-1.29308">
        <ele>3.3</ele>
        <time>2020-06-02T16:50:48Z</time>
      </trkpt>
      <trkpt lat="46.33315" lon="-1.29309">
        <ele>3.3</ele>
        <time>2020-06-02T16:50:49Z</time>
      </trkpt>
      <trkpt lat="46.3332" lon="-1.29311">
        <ele>3.3</ele>
        <time>2020-06-02T16:50:50Z</time>
      </trkpt>
      <trkpt lat="46.33324" lon="-1.29314">
        <ele>3.3</ele>
        <time>2020-06-02T16:50:51Z</time>
      </trkpt>
      <trkpt lat="46.33327" lon="-1.29323">
        <ele>3.3</ele>
        <time>2020-06-02T16:50:52Z</time>
      </trkpt>
      <trkpt lat="46.33325" lon="-1.2933">
        <ele>3.3</ele>
        <time>2020-06-02T16:50:53Z</time>
      </trkpt>
      <trkpt lat="46.33324" lon="-1.2934">
        <ele>3.4</ele>
        <time>2020-06-02T16:50:54Z</time>
      </trkpt>
      <trkpt lat="46.33325" lon="-1.29349">
        <ele>3.4</ele>
        <time>2020-06-02T16:50:55Z</time>
      </trkpt>
      <trkpt lat="46.33326" lon="-1.29357">
        <ele>3.4</ele>
        <time>2020-06-02T16:50:56Z</time>
      </trkpt>
      <trkpt lat="46.33326" lon="-1.29365">
        <ele>3.4</ele>
        <time>2020-06-02T16:50:57Z</time>
      </trkpt>
      <trkpt lat="46.33327" lon="-1.29373">
        <ele>3.4</ele>
        <time>2020-06-02T16:50:58Z</time>
      </trkpt>
      <trkpt lat="46.33328" lon="-1.29382">
        <ele>3.4</ele>
        <time>2020-06-02T16:50:59Z</time>
      </trkpt>
      <trkpt lat="46.33329" lon="-1.2939">
        <ele>3.4</ele>
        <time>2020-06-02T16:51:00Z</time>
      </trkpt>
      <trkpt lat="46.3333" lon="-1.29399">
        <ele>3.4</ele>
        <time>2020-06-02T16:51:01Z</time>
      </trkpt>
      <trkpt lat="46.3333" lon="-1.29407">
        <ele>3.3</ele>
        <time>2020-06-02T16:51:02Z</time>
      </trkpt>
      <trkpt lat="46.33332" lon="-1.29414">
        <ele>3.3</ele>
        <time>2020-06-02T16:51:03Z</time>
      </trkpt>
      <trkpt lat="46.33333" lon="-1.29423">
        <ele>3.2</ele>
        <time>2020-06-02T16:51:04Z</time>
      </trkpt>
      <trkpt lat="46.33332" lon="-1.29431">
        <ele>3.2</ele>
        <time>2020-06-02T16:51:05Z</time>
      </trkpt>
      <trkpt lat="46.33332" lon="-1.29439">
        <ele>3.2</ele>
        <time>2020-06-02T16:51:06Z</time>
      </trkpt>
      <trkpt lat="46.33332" lon="-1.29447">
        <ele>3.1</ele>
        <time>2020-06-02T16:51:07Z</time>
      </trkpt>
      <trkpt lat="46.33332" lon="-1.29457">
        <ele>3.1</ele>
        <time>2020-06-02T16:51:08Z</time>
      </trkpt>
      <trkpt lat="46.33333" lon="-1.29465">
        <ele>3</ele>
        <time>2020-06-02T16:51:09Z</time>
      </trkpt>
      <trkpt lat="46.33334" lon="-1.29474">
        <ele>3</ele>
        <time>2020-06-02T16:51:10Z</time>
      </trkpt>
      <trkpt lat="46.33335" lon="-1.29483">
        <ele>2.9</ele>
        <time>2020-06-02T16:51:11Z</time>
      </trkpt>
      <trkpt lat="46.33336" lon="-1.29493">
        <ele>2.9</ele>
        <time>2020-06-02T16:51:12Z</time>
      </trkpt>
      <trkpt lat="46.33337" lon="-1.29501">
        <ele>2.9</ele>
        <time>2020-06-02T16:51:13Z</time>
      </trkpt>
      <trkpt lat="46.33338" lon="-1.2951">
        <ele>2.8</ele>
        <time>2020-06-02T16:51:14Z</time>
      </trkpt>
      <trkpt lat="46.33338" lon="-1.29518">
        <ele>2.8</ele>
        <time>2020-06-02T16:51:15Z</time>
      </trkpt>
      <trkpt lat="46.33339" lon="-1.29527">
        <ele>2.8</ele>
        <time>2020-06-02T16:51:16Z</time>
      </trkpt>
      <trkpt lat="46.33341" lon="-1.29536">
        <ele>2.8</ele>
        <time>2020-06-02T16:51:17Z</time>
      </trkpt>
      <trkpt lat="46.33343" lon="-1.29546">
        <ele>2.8</ele>
        <time>2020-06-02T16:51:18Z</time>
      </trkpt>
      <trkpt lat="46.33345" lon="-1.29555">
        <ele>2.8</ele>
        <time>2020-06-02T16:51:19Z</time>
      </trkpt>
      <trkpt lat="46.33347" lon="-1.29565">
        <ele>2.8</ele>
        <time>2020-06-02T16:51:20Z</time>
      </trkpt>
      <trkpt lat="46.33348" lon="-1.29573">
        <ele>2.8</ele>
        <time>2020-06-02T16:51:21Z</time>
      </trkpt>
      <trkpt lat="46.3335" lon="-1.29582">
        <ele>2.8</ele>
        <time>2020-06-02T16:51:22Z</time>
      </trkpt>
      <trkpt lat="46.33352" lon="-1.2959">
        <ele>2.8</ele>
        <time>2020-06-02T16:51:23Z</time>
      </trkpt>
      <trkpt lat="46.33354" lon="-1.29599">
        <ele>2.8</ele>
        <time>2020-06-02T16:51:24Z</time>
      </trkpt>
      <trkpt lat="46.33356" lon="-1.29608">
        <ele>2.8</ele>
        <time>2020-06-02T16:51:25Z</time>
      </trkpt>
      <trkpt lat="46.33358" lon="-1.29616">
        <ele>2.8</ele>
        <time>2020-06-02T16:51:26Z</time>
      </trkpt>
      <trkpt lat="46.33359" lon="-1.29625">
        <ele>2.8</ele>
        <time>2020-06-02T16:51:27Z</time>
      </trkpt>
      <trkpt lat="46.3336" lon="-1.29634">
        <ele>2.8</ele>
        <time>2020-06-02T16:51:28Z</time>
      </trkpt>
      <trkpt lat="46.33362" lon="-1.29642">
        <ele>2.8</ele>
        <time>2020-06-02T16:51:29Z</time>
      </trkpt>
      <trkpt lat="46.33363" lon="-1.2965">
        <ele>2.8</ele>
        <time>2020-06-02T16:51:30Z</time>
      </trkpt>
      <trkpt lat="46.33365" lon="-1.29659">
        <ele>2.8</ele>
        <time>2020-06-02T16:51:31Z</time>
      </trkpt>
      <trkpt lat="46.33367" lon="-1.29667">
        <ele>2.8</ele>
        <time>2020-06-02T16:51:32Z</time>
      </trkpt>
      <trkpt lat="46.33369" lon="-1.29676">
        <ele>2.8</ele>
        <time>2020-06-02T16:51:33Z</time>
      </trkpt>
      <trkpt lat="46.3337" lon="-1.29684">
        <ele>2.8</ele>
        <time>2020-06-02T16:51:34Z</time>
      </trkpt>
      <trkpt lat="46.33372" lon="-1.29693">
        <ele>2.8</ele>
        <time>2020-06-02T16:51:35Z</time>
      </trkpt>
      <trkpt lat="46.33374" lon="-1.29702">
        <ele>2.8</ele>
        <time>2020-06-02T16:51:36Z</time>
      </trkpt>
      <trkpt lat="46.33375" lon="-1.29711">
        <ele>2.8</ele>
        <time>2020-06-02T16:51:37Z</time>
      </trkpt>
      <trkpt lat="46.33377" lon="-1.29718">
        <ele>2.8</ele>
        <time>2020-06-02T16:51:38Z</time>
      </trkpt>
      <trkpt lat="46.33379" lon="-1.29725">
        <ele>2.8</ele>
        <time>2020-06-02T16:51:39Z</time>
      </trkpt>
      <trkpt lat="46.3338" lon="-1.29734">
        <ele>2.8</ele>
        <time>2020-06-02T16:51:40Z</time>
      </trkpt>
      <trkpt lat="46.33382" lon="-1.29741">
        <ele>2.8</ele>
        <time>2020-06-02T16:51:41Z</time>
      </trkpt>
      <trkpt lat="46.33384" lon="-1.2975">
        <ele>2.8</ele>
        <time>2020-06-02T16:51:42Z</time>
      </trkpt>
      <trkpt lat="46.33386" lon="-1.29759">
        <ele>2.8</ele>
        <time>2020-06-02T16:51:43Z</time>
      </trkpt>
      <trkpt lat="46.33387" lon="-1.29767">
        <ele>2.8</ele>
        <time>2020-06-02T16:51:44Z</time>
      </trkpt>
      <trkpt lat="46.33389" lon="-1.29776">
        <ele>2.8</ele>
        <time>2020-06-02T16:51:45Z</time>
      </trkpt>
      <trkpt lat="46.3339" lon="-1.29784">
        <ele>2.8</ele>
        <time>2020-06-02T16:51:46Z</time>
      </trkpt>
      <trkpt lat="46.33392" lon="-1.29793">
        <ele>2.8</ele>
        <time>2020-06-02T16:51:47Z</time>
      </trkpt>
      <trkpt lat="46.33393" lon="-1.298">
        <ele>2.7</ele>
        <time>2020-06-02T16:51:48Z</time>
      </trkpt>
      <trkpt lat="46.33393" lon="-1.29809">
        <ele>2.7</ele>
        <time>2020-06-02T16:51:49Z</time>
      </trkpt>
      <trkpt lat="46.33395" lon="-1.29818">
        <ele>2.7</ele>
        <time>2020-06-02T16:51:50Z</time>
      </trkpt>
      <trkpt lat="46.33396" lon="-1.29824">
        <ele>2.7</ele>
        <time>2020-06-02T16:51:51Z</time>
      </trkpt>
      <trkpt lat="46.33398" lon="-1.29832">
        <ele>2.7</ele>
        <time>2020-06-02T16:51:52Z</time>
      </trkpt>
      <trkpt lat="46.33399" lon="-1.2984">
        <ele>2.6</ele>
        <time>2020-06-02T16:51:53Z</time>
      </trkpt>
      <trkpt lat="46.33399" lon="-1.29848">
        <ele>2.6</ele>
        <time>2020-06-02T16:51:54Z</time>
      </trkpt>
      <trkpt lat="46.334" lon="-1.29856">
        <ele>2.5</ele>
        <time>2020-06-02T16:51:55Z</time>
      </trkpt>
      <trkpt lat="46.33401" lon="-1.29863">
        <ele>2.5</ele>
        <time>2020-06-02T16:51:56Z</time>
      </trkpt>
      <trkpt lat="46.33402" lon="-1.2987">
        <ele>2.5</ele>
        <time>2020-06-02T16:51:57Z</time>
      </trkpt>
      <trkpt lat="46.33403" lon="-1.29877">
        <ele>2.4</ele>
        <time>2020-06-02T16:51:58Z</time>
      </trkpt>
      <trkpt lat="46.33405" lon="-1.29885">
        <ele>2.4</ele>
        <time>2020-06-02T16:51:59Z</time>
      </trkpt>
      <trkpt lat="46.33406" lon="-1.29892">
        <ele>2.4</ele>
        <time>2020-06-02T16:52:00Z</time>
      </trkpt>
      <trkpt lat="46.33407" lon="-1.299">
        <ele>2.4</ele>
        <time>2020-06-02T16:52:01Z</time>
      </trkpt>
      <trkpt lat="46.33408" lon="-1.29908">
        <ele>2.4</ele>
        <time>2020-06-02T16:52:02Z</time>
      </trkpt>
      <trkpt lat="46.33409" lon="-1.29917">
        <ele>2.3</ele>
        <time>2020-06-02T16:52:03Z</time>
      </trkpt>
      <trkpt lat="46.33409" lon="-1.29926">
        <ele>2.4</ele>
        <time>2020-06-02T16:52:04Z</time>
      </trkpt>
      <trkpt lat="46.33408" lon="-1.29934">
        <ele>2.4</ele>
        <time>2020-06-02T16:52:05Z</time>
      </trkpt>
      <trkpt lat="46.33407" lon="-1.2994">
        <ele>2.5</ele>
        <time>2020-06-02T16:52:06Z</time>
      </trkpt>
      <trkpt lat="46.33405" lon="-1.29946">
        <ele>2.5</ele>
        <time>2020-06-02T16:52:07Z</time>
      </trkpt>
      <trkpt lat="46.33402" lon="-1.29952">
        <ele>2.6</ele>
        <time>2020-06-02T16:52:08Z</time>
      </trkpt>
      <trkpt lat="46.33396" lon="-1.29956">
        <ele>2.6</ele>
        <time>2020-06-02T16:52:09Z</time>
      </trkpt>
      <trkpt lat="46.33392" lon="-1.2996">
        <ele>2.7</ele>
        <time>2020-06-02T16:52:10Z</time>
      </trkpt>
      <trkpt lat="46.33387" lon="-1.29964">
        <ele>2.7</ele>
        <time>2020-06-02T16:52:11Z</time>
      </trkpt>
      <trkpt lat="46.33381" lon="-1.2997">
        <ele>2.8</ele>
        <time>2020-06-02T16:52:12Z</time>
      </trkpt>
      <trkpt lat="46.33375" lon="-1.29974">
        <ele>2.8</ele>
        <time>2020-06-02T16:52:13Z</time>
      </trkpt>
      <trkpt lat="46.33369" lon="-1.29978">
        <ele>2.8</ele>
        <time>2020-06-02T16:52:14Z</time>
      </trkpt>
      <trkpt lat="46.33363" lon="-1.29982">
        <ele>2.9</ele>
        <time>2020-06-02T16:52:15Z</time>
      </trkpt>
      <trkpt lat="46.33358" lon="-1.29987">
        <ele>2.9</ele>
        <time>2020-06-02T16:52:16Z</time>
      </trkpt>
      <trkpt lat="46.33352" lon="-1.29991">
        <ele>2.9</ele>
        <time>2020-06-02T16:52:17Z</time>
      </trkpt>
      <trkpt lat="46.33347" lon="-1.29995">
        <ele>3</ele>
        <time>2020-06-02T16:52:18Z</time>
      </trkpt>
      <trkpt lat="46.33342" lon="-1.29999">
        <ele>3</ele>
        <time>2020-06-02T16:52:19Z</time>
      </trkpt>
      <trkpt lat="46.33337" lon="-1.30002">
        <ele>3</ele>
        <time>2020-06-02T16:52:20Z</time>
      </trkpt>
      <trkpt lat="46.33333" lon="-1.30006">
        <ele>3.1</ele>
        <time>2020-06-02T16:52:21Z</time>
      </trkpt>
      <trkpt lat="46.33327" lon="-1.30009">
        <ele>3.2</ele>
        <time>2020-06-02T16:52:22Z</time>
      </trkpt>
      <trkpt lat="46.33322" lon="-1.30012">
        <ele>3.2</ele>
        <time>2020-06-02T16:52:23Z</time>
      </trkpt>
      <trkpt lat="46.33317" lon="-1.30017">
        <ele>3.2</ele>
        <time>2020-06-02T16:52:24Z</time>
      </trkpt>
      <trkpt lat="46.33312" lon="-1.30022">
        <ele>3.3</ele>
        <time>2020-06-02T16:52:25Z</time>
      </trkpt>
      <trkpt lat="46.33307" lon="-1.30027">
        <ele>3.3</ele>
        <time>2020-06-02T16:52:26Z</time>
      </trkpt>
      <trkpt lat="46.33302" lon="-1.30033">
        <ele>3.3</ele>
        <time>2020-06-02T16:52:27Z</time>
      </trkpt>
      <trkpt lat="46.33298" lon="-1.3004">
        <ele>3.4</ele>
        <time>2020-06-02T16:52:28Z</time>
      </trkpt>
      <trkpt lat="46.33294" lon="-1.30044">
        <ele>3.4</ele>
        <time>2020-06-02T16:52:29Z</time>
      </trkpt>
      <trkpt lat="46.33292" lon="-1.3005">
        <ele>3.4</ele>
        <time>2020-06-02T16:52:30Z</time>
      </trkpt>
      <trkpt lat="46.3329" lon="-1.30055">
        <ele>3.4</ele>
        <time>2020-06-02T16:52:31Z</time>
      </trkpt>
      <trkpt lat="46.33287" lon="-1.30063">
        <ele>3.5</ele>
        <time>2020-06-02T16:52:32Z</time>
      </trkpt>
      <trkpt lat="46.33284" lon="-1.3007">
        <ele>3.5</ele>
        <time>2020-06-02T16:52:33Z</time>
      </trkpt>
      <trkpt lat="46.33282" lon="-1.30077">
        <ele>3.6</ele>
        <time>2020-06-02T16:52:34Z</time>
      </trkpt>
      <trkpt lat="46.33279" lon="-1.30084">
        <ele>3.6</ele>
        <time>2020-06-02T16:52:35Z</time>
      </trkpt>
      <trkpt lat="46.33276" lon="-1.30091">
        <ele>3.7</ele>
        <time>2020-06-02T16:52:36Z</time>
      </trkpt>
      <trkpt lat="46.33273" lon="-1.30099">
        <ele>3.7</ele>
        <time>2020-06-02T16:52:37Z</time>
      </trkpt>
      <trkpt lat="46.3327" lon="-1.30106">
        <ele>3.8</ele>
        <time>2020-06-02T16:52:38Z</time>
      </trkpt>
      <trkpt lat="46.33268" lon="-1.30113">
        <ele>3.8</ele>
        <time>2020-06-02T16:52:39Z</time>
      </trkpt>
      <trkpt lat="46.33264" lon="-1.30119">
        <ele>3.9</ele>
        <time>2020-06-02T16:52:40Z</time>
      </trkpt>
      <trkpt lat="46.33262" lon="-1.30126">
        <ele>4</ele>
        <time>2020-06-02T16:52:41Z</time>
      </trkpt>
      <trkpt lat="46.33258" lon="-1.30134">
        <ele>4.1</ele>
        <time>2020-06-02T16:52:42Z</time>
      </trkpt>
      <trkpt lat="46.33256" lon="-1.30141">
        <ele>4.3</ele>
        <time>2020-06-02T16:52:43Z</time>
      </trkpt>
      <trkpt lat="46.33254" lon="-1.30148">
        <ele>4.4</ele>
        <time>2020-06-02T16:52:44Z</time>
      </trkpt>
      <trkpt lat="46.33251" lon="-1.30156">
        <ele>4.5</ele>
        <time>2020-06-02T16:52:45Z</time>
      </trkpt>
      <trkpt lat="46.3325" lon="-1.30164">
        <ele>4.7</ele>
        <time>2020-06-02T16:52:46Z</time>
      </trkpt>
      <trkpt lat="46.33248" lon="-1.30171">
        <ele>4.8</ele>
        <time>2020-06-02T16:52:47Z</time>
      </trkpt>
      <trkpt lat="46.33246" lon="-1.30178">
        <ele>4.9</ele>
        <time>2020-06-02T16:52:48Z</time>
      </trkpt>
      <trkpt lat="46.33244" lon="-1.30185">
        <ele>4.9</ele>
        <time>2020-06-02T16:52:49Z</time>
      </trkpt>
      <trkpt lat="46.33243" lon="-1.30189">
        <ele>5</ele>
        <time>2020-06-02T16:52:50Z</time>
      </trkpt>
      <trkpt lat="46.33243" lon="-1.30194">
        <ele>5</ele>
        <time>2020-06-02T16:52:51Z</time>
      </trkpt>
      <trkpt lat="46.33241" lon="-1.30201">
        <ele>5.1</ele>
        <time>2020-06-02T16:52:52Z</time>
      </trkpt>
      <trkpt lat="46.33239" lon="-1.30208">
        <ele>5.1</ele>
        <time>2020-06-02T16:52:53Z</time>
      </trkpt>
      <trkpt lat="46.33238" lon="-1.30216">
        <ele>5.1</ele>
        <time>2020-06-02T16:52:54Z</time>
      </trkpt>
      <trkpt lat="46.33236" lon="-1.30221">
        <ele>5.2</ele>
        <time>2020-06-02T16:52:55Z</time>
      </trkpt>
      <trkpt lat="46.33236" lon="-1.30227">
        <ele>5.2</ele>
        <time>2020-06-02T16:52:56Z</time>
      </trkpt>
      <trkpt lat="46.33239" lon="-1.30231">
        <ele>5.1</ele>
        <time>2020-06-02T16:52:57Z</time>
      </trkpt>
      <trkpt lat="46.33242" lon="-1.30234">
        <ele>5.1</ele>
        <time>2020-06-02T16:52:58Z</time>
      </trkpt>
      <trkpt lat="46.33246" lon="-1.30238">
        <ele>5.1</ele>
        <time>2020-06-02T16:52:59Z</time>
      </trkpt>
      <trkpt lat="46.33249" lon="-1.30243">
        <ele>5.1</ele>
        <time>2020-06-02T16:53:00Z</time>
      </trkpt>
      <trkpt lat="46.33253" lon="-1.30247">
        <ele>5.1</ele>
        <time>2020-06-02T16:53:01Z</time>
      </trkpt>
      <trkpt lat="46.33257" lon="-1.30251">
        <ele>5.1</ele>
        <time>2020-06-02T16:53:02Z</time>
      </trkpt>
      <trkpt lat="46.3326" lon="-1.30254">
        <ele>5.1</ele>
        <time>2020-06-02T16:53:03Z</time>
      </trkpt>
      <trkpt lat="46.33264" lon="-1.30259">
        <ele>5</ele>
        <time>2020-06-02T16:53:04Z</time>
      </trkpt>
      <trkpt lat="46.33267" lon="-1.30263">
        <ele>5</ele>
        <time>2020-06-02T16:53:05Z</time>
      </trkpt>
      <trkpt lat="46.3327" lon="-1.30268">
        <ele>5</ele>
        <time>2020-06-02T16:53:06Z</time>
      </trkpt>
      <trkpt lat="46.33273" lon="-1.30274">
        <ele>5</ele>
        <time>2020-06-02T16:53:07Z</time>
      </trkpt>
      <trkpt lat="46.33279" lon="-1.30274">
        <ele>5</ele>
        <time>2020-06-02T16:53:08Z</time>
      </trkpt>
      <trkpt lat="46.33283" lon="-1.30278">
        <ele>5</ele>
        <time>2020-06-02T16:53:09Z</time>
      </trkpt>
      <trkpt lat="46.33286" lon="-1.30282">
        <ele>5</ele>
        <time>2020-06-02T16:53:10Z</time>
      </trkpt>
      <trkpt lat="46.3329" lon="-1.30287">
        <ele>4.9</ele>
        <time>2020-06-02T16:53:11Z</time>
      </trkpt>
      <trkpt lat="46.33293" lon="-1.30292">
        <ele>4.9</ele>
        <time>2020-06-02T16:53:12Z</time>
      </trkpt>
      <trkpt lat="46.33297" lon="-1.30297">
        <ele>4.9</ele>
        <time>2020-06-02T16:53:13Z</time>
      </trkpt>
      <trkpt lat="46.33302" lon="-1.30302">
        <ele>4.8</ele>
        <time>2020-06-02T16:53:14Z</time>
      </trkpt>
      <trkpt lat="46.33306" lon="-1.30306">
        <ele>4.8</ele>
        <time>2020-06-02T16:53:15Z</time>
      </trkpt>
      <trkpt lat="46.3331" lon="-1.30311">
        <ele>4.8</ele>
        <time>2020-06-02T16:53:16Z</time>
      </trkpt>
      <trkpt lat="46.33314" lon="-1.30318">
        <ele>4.8</ele>
        <time>2020-06-02T16:53:17Z</time>
      </trkpt>
      <trkpt lat="46.33319" lon="-1.30325">
        <ele>4.8</ele>
        <time>2020-06-02T16:53:18Z</time>
      </trkpt>
      <trkpt lat="46.33323" lon="-1.30331">
        <ele>4.8</ele>
        <time>2020-06-02T16:53:19Z</time>
      </trkpt>
      <trkpt lat="46.33328" lon="-1.30338">
        <ele>4.8</ele>
        <time>2020-06-02T16:53:20Z</time>
      </trkpt>
      <trkpt lat="46.33332" lon="-1.30343">
        <ele>4.8</ele>
        <time>2020-06-02T16:53:21Z</time>
      </trkpt>
      <trkpt lat="46.33336" lon="-1.30348">
        <ele>4.8</ele>
        <time>2020-06-02T16:53:22Z</time>
      </trkpt>
      <trkpt lat="46.33341" lon="-1.30351">
        <ele>4.8</ele>
        <time>2020-06-02T16:53:23Z</time>
      </trkpt>
      <trkpt lat="46.33345" lon="-1.30356">
        <ele>4.8</ele>
        <time>2020-06-02T16:53:24Z</time>
      </trkpt>
      <trkpt lat="46.3335" lon="-1.30362">
        <ele>4.8</ele>
        <time>2020-06-02T16:53:25Z</time>
      </trkpt>
      <trkpt lat="46.33354" lon="-1.30368">
        <ele>4.8</ele>
        <time>2020-06-02T16:53:26Z</time>
      </trkpt>
      <trkpt lat="46.33358" lon="-1.30374">
        <ele>4.8</ele>
        <time>2020-06-02T16:53:27Z</time>
      </trkpt>
      <trkpt lat="46.33363" lon="-1.3038">
        <ele>4.7</ele>
        <time>2020-06-02T16:53:28Z</time>
      </trkpt>
      <trkpt lat="46.33367" lon="-1.30386">
        <ele>4.7</ele>
        <time>2020-06-02T16:53:29Z</time>
      </trkpt>
      <trkpt lat="46.33371" lon="-1.30393">
        <ele>4.7</ele>
        <time>2020-06-02T16:53:30Z</time>
      </trkpt>
      <trkpt lat="46.33376" lon="-1.30398">
        <ele>4.7</ele>
        <time>2020-06-02T16:53:31Z</time>
      </trkpt>
      <trkpt lat="46.3338" lon="-1.30404">
        <ele>4.7</ele>
        <time>2020-06-02T16:53:32Z</time>
      </trkpt>
      <trkpt lat="46.33385" lon="-1.30409">
        <ele>4.7</ele>
        <time>2020-06-02T16:53:33Z</time>
      </trkpt>
      <trkpt lat="46.33389" lon="-1.30416">
        <ele>4.7</ele>
        <time>2020-06-02T16:53:34Z</time>
      </trkpt>
      <trkpt lat="46.33393" lon="-1.30423">
        <ele>4.6</ele>
        <time>2020-06-02T16:53:35Z</time>
      </trkpt>
      <trkpt lat="46.33397" lon="-1.30428">
        <ele>4.6</ele>
        <time>2020-06-02T16:53:36Z</time>
      </trkpt>
      <trkpt lat="46.33401" lon="-1.30433">
        <ele>4.6</ele>
        <time>2020-06-02T16:53:37Z</time>
      </trkpt>
      <trkpt lat="46.33405" lon="-1.3044">
        <ele>4.5</ele>
        <time>2020-06-02T16:53:38Z</time>
      </trkpt>
      <trkpt lat="46.3341" lon="-1.30445">
        <ele>4.5</ele>
        <time>2020-06-02T16:53:39Z</time>
      </trkpt>
      <trkpt lat="46.33415" lon="-1.30451">
        <ele>4.5</ele>
        <time>2020-06-02T16:53:40Z</time>
      </trkpt>
      <trkpt lat="46.3342" lon="-1.30456">
        <ele>4.4</ele>
        <time>2020-06-02T16:53:41Z</time>
      </trkpt>
      <trkpt lat="46.33425" lon="-1.30461">
        <ele>4.4</ele>
        <time>2020-06-02T16:53:42Z</time>
      </trkpt>
      <trkpt lat="46.3343" lon="-1.30467">
        <ele>4.4</ele>
        <time>2020-06-02T16:53:43Z</time>
      </trkpt>
      <trkpt lat="46.33434" lon="-1.30474">
        <ele>4.4</ele>
        <time>2020-06-02T16:53:44Z</time>
      </trkpt>
      <trkpt lat="46.33438" lon="-1.30479">
        <ele>4.4</ele>
        <time>2020-06-02T16:53:45Z</time>
      </trkpt>
      <trkpt lat="46.33442" lon="-1.30485">
        <ele>4.4</ele>
        <time>2020-06-02T16:53:46Z</time>
      </trkpt>
      <trkpt lat="46.33448" lon="-1.30491">
        <ele>4.4</ele>
        <time>2020-06-02T16:53:47Z</time>
      </trkpt>
      <trkpt lat="46.33452" lon="-1.30496">
        <ele>4.4</ele>
        <time>2020-06-02T16:53:48Z</time>
      </trkpt>
      <trkpt lat="46.33457" lon="-1.30502">
        <ele>4.4</ele>
        <time>2020-06-02T16:53:49Z</time>
      </trkpt>
      <trkpt lat="46.33462" lon="-1.30507">
        <ele>4.4</ele>
        <time>2020-06-02T16:53:50Z</time>
      </trkpt>
      <trkpt lat="46.33467" lon="-1.30513">
        <ele>4.4</ele>
        <time>2020-06-02T16:53:51Z</time>
      </trkpt>
      <trkpt lat="46.33472" lon="-1.30518">
        <ele>4.4</ele>
        <time>2020-06-02T16:53:52Z</time>
      </trkpt>
      <trkpt lat="46.33476" lon="-1.30524">
        <ele>4.4</ele>
        <time>2020-06-02T16:53:53Z</time>
      </trkpt>
      <trkpt lat="46.33481" lon="-1.30529">
        <ele>4.4</ele>
        <time>2020-06-02T16:53:54Z</time>
      </trkpt>
      <trkpt lat="46.33486" lon="-1.30537">
        <ele>4.4</ele>
        <time>2020-06-02T16:53:55Z</time>
      </trkpt>
      <trkpt lat="46.33489" lon="-1.30542">
        <ele>4.4</ele>
        <time>2020-06-02T16:53:56Z</time>
      </trkpt>
      <trkpt lat="46.33493" lon="-1.30548">
        <ele>4.4</ele>
        <time>2020-06-02T16:53:57Z</time>
      </trkpt>
      <trkpt lat="46.33497" lon="-1.30553">
        <ele>4.5</ele>
        <time>2020-06-02T16:53:58Z</time>
      </trkpt>
      <trkpt lat="46.335" lon="-1.30559">
        <ele>4.5</ele>
        <time>2020-06-02T16:53:59Z</time>
      </trkpt>
      <trkpt lat="46.33505" lon="-1.30566">
        <ele>4.6</ele>
        <time>2020-06-02T16:54:00Z</time>
      </trkpt>
      <trkpt lat="46.33509" lon="-1.30571">
        <ele>4.6</ele>
        <time>2020-06-02T16:54:01Z</time>
      </trkpt>
      <trkpt lat="46.33513" lon="-1.30577">
        <ele>4.7</ele>
        <time>2020-06-02T16:54:02Z</time>
      </trkpt>
      <trkpt lat="46.33518" lon="-1.30581">
        <ele>4.7</ele>
        <time>2020-06-02T16:54:03Z</time>
      </trkpt>
      <trkpt lat="46.33521" lon="-1.30586">
        <ele>4.7</ele>
        <time>2020-06-02T16:54:04Z</time>
      </trkpt>
      <trkpt lat="46.33526" lon="-1.30592">
        <ele>4.7</ele>
        <time>2020-06-02T16:54:05Z</time>
      </trkpt>
      <trkpt lat="46.33531" lon="-1.30598">
        <ele>4.7</ele>
        <time>2020-06-02T16:54:06Z</time>
      </trkpt>
      <trkpt lat="46.33535" lon="-1.30603">
        <ele>4.7</ele>
        <time>2020-06-02T16:54:07Z</time>
      </trkpt>
      <trkpt lat="46.33538" lon="-1.30608">
        <ele>4.7</ele>
        <time>2020-06-02T16:54:08Z</time>
      </trkpt>
      <trkpt lat="46.33543" lon="-1.30614">
        <ele>4.6</ele>
        <time>2020-06-02T16:54:09Z</time>
      </trkpt>
      <trkpt lat="46.33547" lon="-1.30618">
        <ele>4.6</ele>
        <time>2020-06-02T16:54:10Z</time>
      </trkpt>
      <trkpt lat="46.33551" lon="-1.30623">
        <ele>4.6</ele>
        <time>2020-06-02T16:54:11Z</time>
      </trkpt>
      <trkpt lat="46.33555" lon="-1.30629">
        <ele>4.6</ele>
        <time>2020-06-02T16:54:12Z</time>
      </trkpt>
      <trkpt lat="46.3356" lon="-1.30635">
        <ele>4.6</ele>
        <time>2020-06-02T16:54:13Z</time>
      </trkpt>
      <trkpt lat="46.33565" lon="-1.30641">
        <ele>4.6</ele>
        <time>2020-06-02T16:54:14Z</time>
      </trkpt>
      <trkpt lat="46.3357" lon="-1.30648">
        <ele>4.5</ele>
        <time>2020-06-02T16:54:15Z</time>
      </trkpt>
      <trkpt lat="46.33574" lon="-1.30654">
        <ele>4.5</ele>
        <time>2020-06-02T16:54:16Z</time>
      </trkpt>
      <trkpt lat="46.33579" lon="-1.3066">
        <ele>4.5</ele>
        <time>2020-06-02T16:54:17Z</time>
      </trkpt>
      <trkpt lat="46.33583" lon="-1.30666">
        <ele>4.5</ele>
        <time>2020-06-02T16:54:18Z</time>
      </trkpt>
      <trkpt lat="46.33587" lon="-1.30671">
        <ele>4.4</ele>
        <time>2020-06-02T16:54:19Z</time>
      </trkpt>
      <trkpt lat="46.33592" lon="-1.30676">
        <ele>4.4</ele>
        <time>2020-06-02T16:54:20Z</time>
      </trkpt>
      <trkpt lat="46.33597" lon="-1.30681">
        <ele>4.4</ele>
        <time>2020-06-02T16:54:21Z</time>
      </trkpt>
      <trkpt lat="46.33602" lon="-1.30686">
        <ele>4.3</ele>
        <time>2020-06-02T16:54:22Z</time>
      </trkpt>
      <trkpt lat="46.33607" lon="-1.30691">
        <ele>4.3</ele>
        <time>2020-06-02T16:54:23Z</time>
      </trkpt>
      <trkpt lat="46.3361" lon="-1.30696">
        <ele>4.3</ele>
        <time>2020-06-02T16:54:24Z</time>
      </trkpt>
      <trkpt lat="46.33615" lon="-1.30702">
        <ele>4.3</ele>
        <time>2020-06-02T16:54:25Z</time>
      </trkpt>
      <trkpt lat="46.33619" lon="-1.30707">
        <ele>4.3</ele>
        <time>2020-06-02T16:54:26Z</time>
      </trkpt>
      <trkpt lat="46.33624" lon="-1.30713">
        <ele>4.3</ele>
        <time>2020-06-02T16:54:27Z</time>
      </trkpt>
      <trkpt lat="46.33629" lon="-1.30719">
        <ele>4.3</ele>
        <time>2020-06-02T16:54:28Z</time>
      </trkpt>
      <trkpt lat="46.33633" lon="-1.30729">
        <ele>4.3</ele>
        <time>2020-06-02T16:54:29Z</time>
      </trkpt>
      <trkpt lat="46.33636" lon="-1.30733">
        <ele>4.3</ele>
        <time>2020-06-02T16:54:30Z</time>
      </trkpt>
      <trkpt lat="46.33641" lon="-1.30739">
        <ele>4.3</ele>
        <time>2020-06-02T16:54:31Z</time>
      </trkpt>
      <trkpt lat="46.33644" lon="-1.30743">
        <ele>4.3</ele>
        <time>2020-06-02T16:54:32Z</time>
      </trkpt>
      <trkpt lat="46.33647" lon="-1.30745">
        <ele>4.3</ele>
        <time>2020-06-02T16:54:33Z</time>
      </trkpt>
      <trkpt lat="46.3365" lon="-1.30749">
        <ele>4.3</ele>
        <time>2020-06-02T16:54:34Z</time>
      </trkpt>
      <trkpt lat="46.33653" lon="-1.30752">
        <ele>4.3</ele>
        <time>2020-06-02T16:54:35Z</time>
      </trkpt>
      <trkpt lat="46.33657" lon="-1.30757">
        <ele>4.3</ele>
        <time>2020-06-02T16:54:36Z</time>
      </trkpt>
      <trkpt lat="46.33659" lon="-1.30762">
        <ele>4.2</ele>
        <time>2020-06-02T16:54:37Z</time>
      </trkpt>
      <trkpt lat="46.3366" lon="-1.30768">
        <ele>4.1</ele>
        <time>2020-06-02T16:54:38Z</time>
      </trkpt>
      <trkpt lat="46.33663" lon="-1.30772">
        <ele>4</ele>
        <time>2020-06-02T16:54:39Z</time>
      </trkpt>
      <trkpt lat="46.33666" lon="-1.30777">
        <ele>3.9</ele>
        <time>2020-06-02T16:54:40Z</time>
      </trkpt>
      <trkpt lat="46.3367" lon="-1.30781">
        <ele>3.7</ele>
        <time>2020-06-02T16:54:41Z</time>
      </trkpt>
      <trkpt lat="46.33674" lon="-1.30787">
        <ele>3.7</ele>
        <time>2020-06-02T16:54:42Z</time>
      </trkpt>
      <trkpt lat="46.33678" lon="-1.30792">
        <ele>3.7</ele>
        <time>2020-06-02T16:54:43Z</time>
      </trkpt>
      <trkpt lat="46.33682" lon="-1.30797">
        <ele>3.7</ele>
        <time>2020-06-02T16:54:44Z</time>
      </trkpt>
      <trkpt lat="46.33687" lon="-1.30803">
        <ele>3.7</ele>
        <time>2020-06-02T16:54:45Z</time>
      </trkpt>
      <trkpt lat="46.33692" lon="-1.30808">
        <ele>3.6</ele>
        <time>2020-06-02T16:54:46Z</time>
      </trkpt>
      <trkpt lat="46.33695" lon="-1.30813">
        <ele>3.6</ele>
        <time>2020-06-02T16:54:47Z</time>
      </trkpt>
      <trkpt lat="46.33699" lon="-1.3082">
        <ele>3.6</ele>
        <time>2020-06-02T16:54:48Z</time>
      </trkpt>
      <trkpt lat="46.33703" lon="-1.30827">
        <ele>3.6</ele>
        <time>2020-06-02T16:54:49Z</time>
      </trkpt>
      <trkpt lat="46.33708" lon="-1.30833">
        <ele>3.6</ele>
        <time>2020-06-02T16:54:50Z</time>
      </trkpt>
      <trkpt lat="46.33712" lon="-1.30838">
        <ele>3.6</ele>
        <time>2020-06-02T16:54:51Z</time>
      </trkpt>
      <trkpt lat="46.33716" lon="-1.30844">
        <ele>3.6</ele>
        <time>2020-06-02T16:54:52Z</time>
      </trkpt>
      <trkpt lat="46.33721" lon="-1.30849">
        <ele>3.6</ele>
        <time>2020-06-02T16:54:53Z</time>
      </trkpt>
      <trkpt lat="46.33725" lon="-1.30854">
        <ele>3.6</ele>
        <time>2020-06-02T16:54:54Z</time>
      </trkpt>
      <trkpt lat="46.33729" lon="-1.30859">
        <ele>3.6</ele>
        <time>2020-06-02T16:54:55Z</time>
      </trkpt>
      <trkpt lat="46.33732" lon="-1.30866">
        <ele>3.6</ele>
        <time>2020-06-02T16:54:56Z</time>
      </trkpt>
      <trkpt lat="46.33735" lon="-1.30871">
        <ele>3.5</ele>
        <time>2020-06-02T16:54:57Z</time>
      </trkpt>
      <trkpt lat="46.33739" lon="-1.30876">
        <ele>3.5</ele>
        <time>2020-06-02T16:54:58Z</time>
      </trkpt>
      <trkpt lat="46.33743" lon="-1.30883">
        <ele>3.5</ele>
        <time>2020-06-02T16:54:59Z</time>
      </trkpt>
      <trkpt lat="46.33747" lon="-1.30891">
        <ele>3.5</ele>
        <time>2020-06-02T16:55:00Z</time>
      </trkpt>
      <trkpt lat="46.33751" lon="-1.30896">
        <ele>3.5</ele>
        <time>2020-06-02T16:55:01Z</time>
      </trkpt>
      <trkpt lat="46.33755" lon="-1.30902">
        <ele>3.4</ele>
        <time>2020-06-02T16:55:02Z</time>
      </trkpt>
      <trkpt lat="46.33758" lon="-1.30909">
        <ele>3.4</ele>
        <time>2020-06-02T16:55:03Z</time>
      </trkpt>
      <trkpt lat="46.33763" lon="-1.30916">
        <ele>3.4</ele>
        <time>2020-06-02T16:55:04Z</time>
      </trkpt>
      <trkpt lat="46.33767" lon="-1.30922">
        <ele>3.4</ele>
        <time>2020-06-02T16:55:05Z</time>
      </trkpt>
      <trkpt lat="46.3377" lon="-1.30929">
        <ele>3.3</ele>
        <time>2020-06-02T16:55:06Z</time>
      </trkpt>
      <trkpt lat="46.33774" lon="-1.30935">
        <ele>3.3</ele>
        <time>2020-06-02T16:55:07Z</time>
      </trkpt>
      <trkpt lat="46.33777" lon="-1.30942">
        <ele>3.3</ele>
        <time>2020-06-02T16:55:08Z</time>
      </trkpt>
      <trkpt lat="46.33781" lon="-1.3095">
        <ele>3.3</ele>
        <time>2020-06-02T16:55:09Z</time>
      </trkpt>
      <trkpt lat="46.33783" lon="-1.30955">
        <ele>3.3</ele>
        <time>2020-06-02T16:55:10Z</time>
      </trkpt>
      <trkpt lat="46.33787" lon="-1.30961">
        <ele>3.2</ele>
        <time>2020-06-02T16:55:11Z</time>
      </trkpt>
      <trkpt lat="46.33788" lon="-1.30967">
        <ele>3.2</ele>
        <time>2020-06-02T16:55:12Z</time>
      </trkpt>
      <trkpt lat="46.33792" lon="-1.30972">
        <ele>3.2</ele>
        <time>2020-06-02T16:55:13Z</time>
      </trkpt>
      <trkpt lat="46.33795" lon="-1.30977">
        <ele>3.2</ele>
        <time>2020-06-02T16:55:14Z</time>
      </trkpt>
      <trkpt lat="46.33796" lon="-1.30981">
        <ele>3.2</ele>
        <time>2020-06-02T16:55:15Z</time>
      </trkpt>
      <trkpt lat="46.338" lon="-1.30985">
        <ele>3.2</ele>
        <time>2020-06-02T16:55:16Z</time>
      </trkpt>
      <trkpt lat="46.33802" lon="-1.3099">
        <ele>3.2</ele>
        <time>2020-06-02T16:55:17Z</time>
      </trkpt>
      <trkpt lat="46.33804" lon="-1.30995">
        <ele>3.2</ele>
        <time>2020-06-02T16:55:18Z</time>
      </trkpt>
      <trkpt lat="46.33804" lon="-1.31">
        <ele>3.3</ele>
        <time>2020-06-02T16:55:19Z</time>
      </trkpt>
      <trkpt lat="46.33802" lon="-1.31008">
        <ele>3.3</ele>
        <time>2020-06-02T16:55:20Z</time>
      </trkpt>
      <trkpt lat="46.33799" lon="-1.31013">
        <ele>3.4</ele>
        <time>2020-06-02T16:55:21Z</time>
      </trkpt>
      <trkpt lat="46.33797" lon="-1.31018">
        <ele>3.4</ele>
        <time>2020-06-02T16:55:22Z</time>
      </trkpt>
      <trkpt lat="46.33794" lon="-1.31023">
        <ele>3.4</ele>
        <time>2020-06-02T16:55:23Z</time>
      </trkpt>
      <trkpt lat="46.33792" lon="-1.3103">
        <ele>3.5</ele>
        <time>2020-06-02T16:55:24Z</time>
      </trkpt>
      <trkpt lat="46.33789" lon="-1.31035">
        <ele>3.6</ele>
        <time>2020-06-02T16:55:25Z</time>
      </trkpt>
      <trkpt lat="46.33786" lon="-1.31042">
        <ele>3.6</ele>
        <time>2020-06-02T16:55:26Z</time>
      </trkpt>
      <trkpt lat="46.33784" lon="-1.31048">
        <ele>3.7</ele>
        <time>2020-06-02T16:55:27Z</time>
      </trkpt>
      <trkpt lat="46.33781" lon="-1.31054">
        <ele>3.7</ele>
        <time>2020-06-02T16:55:28Z</time>
      </trkpt>
      <trkpt lat="46.33779" lon="-1.3106">
        <ele>3.8</ele>
        <time>2020-06-02T16:55:29Z</time>
      </trkpt>
      <trkpt lat="46.33776" lon="-1.31065">
        <ele>3.9</ele>
        <time>2020-06-02T16:55:30Z</time>
      </trkpt>
      <trkpt lat="46.33772" lon="-1.31071">
        <ele>3.9</ele>
        <time>2020-06-02T16:55:31Z</time>
      </trkpt>
      <trkpt lat="46.33771" lon="-1.31078">
        <ele>4</ele>
        <time>2020-06-02T16:55:32Z</time>
      </trkpt>
      <trkpt lat="46.33768" lon="-1.31084">
        <ele>4</ele>
        <time>2020-06-02T16:55:33Z</time>
      </trkpt>
      <trkpt lat="46.33765" lon="-1.3109">
        <ele>4.1</ele>
        <time>2020-06-02T16:55:34Z</time>
      </trkpt>
      <trkpt lat="46.33763" lon="-1.31096">
        <ele>4.2</ele>
        <time>2020-06-02T16:55:35Z</time>
      </trkpt>
      <trkpt lat="46.3376" lon="-1.31103">
        <ele>4.2</ele>
        <time>2020-06-02T16:55:36Z</time>
      </trkpt>
      <trkpt lat="46.33756" lon="-1.3111">
        <ele>4.3</ele>
        <time>2020-06-02T16:55:37Z</time>
      </trkpt>
      <trkpt lat="46.33752" lon="-1.31117">
        <ele>4.4</ele>
        <time>2020-06-02T16:55:38Z</time>
      </trkpt>
      <trkpt lat="46.33749" lon="-1.31124">
        <ele>4.5</ele>
        <time>2020-06-02T16:55:39Z</time>
      </trkpt>
      <trkpt lat="46.33745" lon="-1.31131">
        <ele>4.5</ele>
        <time>2020-06-02T16:55:40Z</time>
      </trkpt>
      <trkpt lat="46.33741" lon="-1.31135">
        <ele>4.6</ele>
        <time>2020-06-02T16:55:41Z</time>
      </trkpt>
      <trkpt lat="46.33738" lon="-1.31142">
        <ele>4.6</ele>
        <time>2020-06-02T16:55:42Z</time>
      </trkpt>
      <trkpt lat="46.33734" lon="-1.31148">
        <ele>4.7</ele>
        <time>2020-06-02T16:55:43Z</time>
      </trkpt>
      <trkpt lat="46.3373" lon="-1.31155">
        <ele>4.8</ele>
        <time>2020-06-02T16:55:44Z</time>
      </trkpt>
      <trkpt lat="46.33727" lon="-1.3116">
        <ele>4.8</ele>
        <time>2020-06-02T16:55:45Z</time>
      </trkpt>
      <trkpt lat="46.33724" lon="-1.31166">
        <ele>4.9</ele>
        <time>2020-06-02T16:55:46Z</time>
      </trkpt>
      <trkpt lat="46.33722" lon="-1.31173">
        <ele>5</ele>
        <time>2020-06-02T16:55:47Z</time>
      </trkpt>
      <trkpt lat="46.3372" lon="-1.31178">
        <ele>5</ele>
        <time>2020-06-02T16:55:48Z</time>
      </trkpt>
      <trkpt lat="46.33717" lon="-1.31183">
        <ele>5</ele>
        <time>2020-06-02T16:55:49Z</time>
      </trkpt>
      <trkpt lat="46.33713" lon="-1.31188">
        <ele>5</ele>
        <time>2020-06-02T16:55:50Z</time>
      </trkpt>
      <trkpt lat="46.33709" lon="-1.31194">
        <ele>4.9</ele>
        <time>2020-06-02T16:55:51Z</time>
      </trkpt>
      <trkpt lat="46.33706" lon="-1.31202">
        <ele>4.9</ele>
        <time>2020-06-02T16:55:52Z</time>
      </trkpt>
      <trkpt lat="46.33702" lon="-1.31209">
        <ele>4.9</ele>
        <time>2020-06-02T16:55:53Z</time>
      </trkpt>
      <trkpt lat="46.33699" lon="-1.31215">
        <ele>4.8</ele>
        <time>2020-06-02T16:55:54Z</time>
      </trkpt>
      <trkpt lat="46.33696" lon="-1.31222">
        <ele>4.8</ele>
        <time>2020-06-02T16:55:55Z</time>
      </trkpt>
      <trkpt lat="46.33693" lon="-1.31229">
        <ele>4.8</ele>
        <time>2020-06-02T16:55:56Z</time>
      </trkpt>
      <trkpt lat="46.33689" lon="-1.31236">
        <ele>4.7</ele>
        <time>2020-06-02T16:55:57Z</time>
      </trkpt>
      <trkpt lat="46.33686" lon="-1.31241">
        <ele>4.7</ele>
        <time>2020-06-02T16:55:58Z</time>
      </trkpt>
      <trkpt lat="46.33683" lon="-1.31249">
        <ele>4.6</ele>
        <time>2020-06-02T16:55:59Z</time>
      </trkpt>
      <trkpt lat="46.3368" lon="-1.31256">
        <ele>4.5</ele>
        <time>2020-06-02T16:56:00Z</time>
      </trkpt>
      <trkpt lat="46.33677" lon="-1.31263">
        <ele>4.5</ele>
        <time>2020-06-02T16:56:01Z</time>
      </trkpt>
      <trkpt lat="46.33674" lon="-1.31271">
        <ele>4.4</ele>
        <time>2020-06-02T16:56:02Z</time>
      </trkpt>
      <trkpt lat="46.33671" lon="-1.31277">
        <ele>4.3</ele>
        <time>2020-06-02T16:56:03Z</time>
      </trkpt>
      <trkpt lat="46.33667" lon="-1.31284">
        <ele>4.3</ele>
        <time>2020-06-02T16:56:04Z</time>
      </trkpt>
      <trkpt lat="46.33665" lon="-1.31292">
        <ele>4.3</ele>
        <time>2020-06-02T16:56:05Z</time>
      </trkpt>
      <trkpt lat="46.33662" lon="-1.31299">
        <ele>4.2</ele>
        <time>2020-06-02T16:56:06Z</time>
      </trkpt>
      <trkpt lat="46.33659" lon="-1.31307">
        <ele>4.2</ele>
        <time>2020-06-02T16:56:07Z</time>
      </trkpt>
      <trkpt lat="46.33657" lon="-1.31314">
        <ele>4.2</ele>
        <time>2020-06-02T16:56:08Z</time>
      </trkpt>
      <trkpt lat="46.33654" lon="-1.31322">
        <ele>4.1</ele>
        <time>2020-06-02T16:56:09Z</time>
      </trkpt>
      <trkpt lat="46.3365" lon="-1.31327">
        <ele>4.1</ele>
        <time>2020-06-02T16:56:10Z</time>
      </trkpt>
      <trkpt lat="46.33646" lon="-1.31334">
        <ele>4.1</ele>
        <time>2020-06-02T16:56:11Z</time>
      </trkpt>
      <trkpt lat="46.33643" lon="-1.31343">
        <ele>4.1</ele>
        <time>2020-06-02T16:56:12Z</time>
      </trkpt>
      <trkpt lat="46.33639" lon="-1.3135">
        <ele>4.1</ele>
        <time>2020-06-02T16:56:13Z</time>
      </trkpt>
      <trkpt lat="46.33635" lon="-1.31358">
        <ele>4.1</ele>
        <time>2020-06-02T16:56:14Z</time>
      </trkpt>
      <trkpt lat="46.33632" lon="-1.31367">
        <ele>4.2</ele>
        <time>2020-06-02T16:56:15Z</time>
      </trkpt>
      <trkpt lat="46.33628" lon="-1.31373">
        <ele>4.2</ele>
        <time>2020-06-02T16:56:16Z</time>
      </trkpt>
      <trkpt lat="46.33623" lon="-1.31381">
        <ele>4.3</ele>
        <time>2020-06-02T16:56:17Z</time>
      </trkpt>
      <trkpt lat="46.33619" lon="-1.31389">
        <ele>4.3</ele>
        <time>2020-06-02T16:56:18Z</time>
      </trkpt>
      <trkpt lat="46.33615" lon="-1.31398">
        <ele>4.3</ele>
        <time>2020-06-02T16:56:19Z</time>
      </trkpt>
      <trkpt lat="46.33613" lon="-1.31407">
        <ele>4.3</ele>
        <time>2020-06-02T16:56:20Z</time>
      </trkpt>
      <trkpt lat="46.3361" lon="-1.31413">
        <ele>4.4</ele>
        <time>2020-06-02T16:56:21Z</time>
      </trkpt>
      <trkpt lat="46.33606" lon="-1.3142">
        <ele>4.4</ele>
        <time>2020-06-02T16:56:22Z</time>
      </trkpt>
      <trkpt lat="46.33603" lon="-1.31425">
        <ele>4.4</ele>
        <time>2020-06-02T16:56:23Z</time>
      </trkpt>
      <trkpt lat="46.336" lon="-1.31434">
        <ele>4.4</ele>
        <time>2020-06-02T16:56:24Z</time>
      </trkpt>
      <trkpt lat="46.33597" lon="-1.31441">
        <ele>4.4</ele>
        <time>2020-06-02T16:56:25Z</time>
      </trkpt>
      <trkpt lat="46.33598" lon="-1.31448">
        <ele>4.5</ele>
        <time>2020-06-02T16:56:26Z</time>
      </trkpt>
      <trkpt lat="46.33599" lon="-1.31456">
        <ele>4.6</ele>
        <time>2020-06-02T16:56:27Z</time>
      </trkpt>
      <trkpt lat="46.33599" lon="-1.31463">
        <ele>4.6</ele>
        <time>2020-06-02T16:56:28Z</time>
      </trkpt>
      <trkpt lat="46.33597" lon="-1.3147">
        <ele>4.6</ele>
        <time>2020-06-02T16:56:29Z</time>
      </trkpt>
      <trkpt lat="46.33594" lon="-1.31475">
        <ele>4.6</ele>
        <time>2020-06-02T16:56:30Z</time>
      </trkpt>
      <trkpt lat="46.33589" lon="-1.31479">
        <ele>4.6</ele>
        <time>2020-06-02T16:56:31Z</time>
      </trkpt>
      <trkpt lat="46.33585" lon="-1.31483">
        <ele>4.6</ele>
        <time>2020-06-02T16:56:32Z</time>
      </trkpt>
      <trkpt lat="46.33579" lon="-1.31485">
        <ele>4.6</ele>
        <time>2020-06-02T16:56:33Z</time>
      </trkpt>
      <trkpt lat="46.33574" lon="-1.31489">
        <ele>4.5</ele>
        <time>2020-06-02T16:56:34Z</time>
      </trkpt>
      <trkpt lat="46.3357" lon="-1.31495">
        <ele>4.4</ele>
        <time>2020-06-02T16:56:35Z</time>
      </trkpt>
      <trkpt lat="46.33567" lon="-1.31501">
        <ele>4.4</ele>
        <time>2020-06-02T16:56:36Z</time>
      </trkpt>
      <trkpt lat="46.33565" lon="-1.3151">
        <ele>4.4</ele>
        <time>2020-06-02T16:56:37Z</time>
      </trkpt>
      <trkpt lat="46.33562" lon="-1.31517">
        <ele>4.4</ele>
        <time>2020-06-02T16:56:38Z</time>
      </trkpt>
      <trkpt lat="46.33558" lon="-1.31524">
        <ele>4.4</ele>
        <time>2020-06-02T16:56:39Z</time>
      </trkpt>
      <trkpt lat="46.33555" lon="-1.31532">
        <ele>4.5</ele>
        <time>2020-06-02T16:56:40Z</time>
      </trkpt>
      <trkpt lat="46.33551" lon="-1.31538">
        <ele>4.5</ele>
        <time>2020-06-02T16:56:41Z</time>
      </trkpt>
      <trkpt lat="46.33548" lon="-1.31545">
        <ele>4.5</ele>
        <time>2020-06-02T16:56:42Z</time>
      </trkpt>
      <trkpt lat="46.33545" lon="-1.31551">
        <ele>4.5</ele>
        <time>2020-06-02T16:56:43Z</time>
      </trkpt>
      <trkpt lat="46.33542" lon="-1.31556">
        <ele>4.5</ele>
        <time>2020-06-02T16:56:44Z</time>
      </trkpt>
      <trkpt lat="46.33538" lon="-1.31562">
        <ele>4.6</ele>
        <time>2020-06-02T16:56:45Z</time>
      </trkpt>
      <trkpt lat="46.33536" lon="-1.31568">
        <ele>4.7</ele>
        <time>2020-06-02T16:56:46Z</time>
      </trkpt>
      <trkpt lat="46.33532" lon="-1.31574">
        <ele>4.7</ele>
        <time>2020-06-02T16:56:47Z</time>
      </trkpt>
      <trkpt lat="46.33529" lon="-1.3158">
        <ele>4.8</ele>
        <time>2020-06-02T16:56:48Z</time>
      </trkpt>
      <trkpt lat="46.33527" lon="-1.31588">
        <ele>4.8</ele>
        <time>2020-06-02T16:56:49Z</time>
      </trkpt>
      <trkpt lat="46.33524" lon="-1.31596">
        <ele>4.8</ele>
        <time>2020-06-02T16:56:50Z</time>
      </trkpt>
      <trkpt lat="46.3352" lon="-1.31602">
        <ele>4.8</ele>
        <time>2020-06-02T16:56:51Z</time>
      </trkpt>
      <trkpt lat="46.33517" lon="-1.31609">
        <ele>4.9</ele>
        <time>2020-06-02T16:56:52Z</time>
      </trkpt>
      <trkpt lat="46.33514" lon="-1.31616">
        <ele>4.9</ele>
        <time>2020-06-02T16:56:53Z</time>
      </trkpt>
      <trkpt lat="46.33511" lon="-1.31623">
        <ele>4.9</ele>
        <time>2020-06-02T16:56:54Z</time>
      </trkpt>
      <trkpt lat="46.33507" lon="-1.31628">
        <ele>4.9</ele>
        <time>2020-06-02T16:56:55Z</time>
      </trkpt>
      <trkpt lat="46.33504" lon="-1.31634">
        <ele>4.9</ele>
        <time>2020-06-02T16:56:56Z</time>
      </trkpt>
      <trkpt lat="46.33502" lon="-1.31641">
        <ele>4.9</ele>
        <time>2020-06-02T16:56:57Z</time>
      </trkpt>
      <trkpt lat="46.33499" lon="-1.31647">
        <ele>4.9</ele>
        <time>2020-06-02T16:56:58Z</time>
      </trkpt>
      <trkpt lat="46.33496" lon="-1.31655">
        <ele>4.9</ele>
        <time>2020-06-02T16:56:59Z</time>
      </trkpt>
      <trkpt lat="46.33493" lon="-1.31661">
        <ele>4.9</ele>
        <time>2020-06-02T16:57:00Z</time>
      </trkpt>
      <trkpt lat="46.33491" lon="-1.31667">
        <ele>4.9</ele>
        <time>2020-06-02T16:57:01Z</time>
      </trkpt>
      <trkpt lat="46.33489" lon="-1.31673">
        <ele>4.9</ele>
        <time>2020-06-02T16:57:02Z</time>
      </trkpt>
      <trkpt lat="46.33486" lon="-1.31679">
        <ele>4.8</ele>
        <time>2020-06-02T16:57:03Z</time>
      </trkpt>
      <trkpt lat="46.33483" lon="-1.31683">
        <ele>4.8</ele>
        <time>2020-06-02T16:57:04Z</time>
      </trkpt>
      <trkpt lat="46.33479" lon="-1.31689">
        <ele>4.8</ele>
        <time>2020-06-02T16:57:05Z</time>
      </trkpt>
      <trkpt lat="46.33477" lon="-1.31695">
        <ele>4.8</ele>
        <time>2020-06-02T16:57:06Z</time>
      </trkpt>
      <trkpt lat="46.33475" lon="-1.31701">
        <ele>4.8</ele>
        <time>2020-06-02T16:57:07Z</time>
      </trkpt>
      <trkpt lat="46.33472" lon="-1.31707">
        <ele>4.8</ele>
        <time>2020-06-02T16:57:08Z</time>
      </trkpt>
      <trkpt lat="46.33469" lon="-1.31714">
        <ele>4.8</ele>
        <time>2020-06-02T16:57:09Z</time>
      </trkpt>
      <trkpt lat="46.33465" lon="-1.3172">
        <ele>4.8</ele>
        <time>2020-06-02T16:57:10Z</time>
      </trkpt>
      <trkpt lat="46.33463" lon="-1.31727">
        <ele>4.8</ele>
        <time>2020-06-02T16:57:11Z</time>
      </trkpt>
      <trkpt lat="46.33461" lon="-1.31733">
        <ele>4.8</ele>
        <time>2020-06-02T16:57:12Z</time>
      </trkpt>
      <trkpt lat="46.33457" lon="-1.31741">
        <ele>4.8</ele>
        <time>2020-06-02T16:57:13Z</time>
      </trkpt>
      <trkpt lat="46.33454" lon="-1.31747">
        <ele>4.8</ele>
        <time>2020-06-02T16:57:14Z</time>
      </trkpt>
      <trkpt lat="46.33451" lon="-1.31753">
        <ele>4.8</ele>
        <time>2020-06-02T16:57:15Z</time>
      </trkpt>
      <trkpt lat="46.33448" lon="-1.31759">
        <ele>4.8</ele>
        <time>2020-06-02T16:57:16Z</time>
      </trkpt>
      <trkpt lat="46.33445" lon="-1.31766">
        <ele>4.8</ele>
        <time>2020-06-02T16:57:17Z</time>
      </trkpt>
      <trkpt lat="46.33443" lon="-1.31772">
        <ele>4.8</ele>
        <time>2020-06-02T16:57:18Z</time>
      </trkpt>
      <trkpt lat="46.3344" lon="-1.31778">
        <ele>4.8</ele>
        <time>2020-06-02T16:57:19Z</time>
      </trkpt>
      <trkpt lat="46.33437" lon="-1.31786">
        <ele>4.8</ele>
        <time>2020-06-02T16:57:20Z</time>
      </trkpt>
      <trkpt lat="46.33433" lon="-1.31793">
        <ele>4.7</ele>
        <time>2020-06-02T16:57:21Z</time>
      </trkpt>
      <trkpt lat="46.3343" lon="-1.31801">
        <ele>4.7</ele>
        <time>2020-06-02T16:57:22Z</time>
      </trkpt>
      <trkpt lat="46.33426" lon="-1.31807">
        <ele>4.6</ele>
        <time>2020-06-02T16:57:23Z</time>
      </trkpt>
      <trkpt lat="46.33422" lon="-1.31814">
        <ele>4.5</ele>
        <time>2020-06-02T16:57:24Z</time>
      </trkpt>
      <trkpt lat="46.33418" lon="-1.31822">
        <ele>4.4</ele>
        <time>2020-06-02T16:57:25Z</time>
      </trkpt>
      <trkpt lat="46.33415" lon="-1.31829">
        <ele>4.4</ele>
        <time>2020-06-02T16:57:26Z</time>
      </trkpt>
      <trkpt lat="46.33411" lon="-1.31835">
        <ele>4.3</ele>
        <time>2020-06-02T16:57:27Z</time>
      </trkpt>
      <trkpt lat="46.33408" lon="-1.31842">
        <ele>4.2</ele>
        <time>2020-06-02T16:57:28Z</time>
      </trkpt>
      <trkpt lat="46.33404" lon="-1.31849">
        <ele>4.1</ele>
        <time>2020-06-02T16:57:29Z</time>
      </trkpt>
      <trkpt lat="46.33401" lon="-1.31857">
        <ele>4.1</ele>
        <time>2020-06-02T16:57:30Z</time>
      </trkpt>
      <trkpt lat="46.33398" lon="-1.31864">
        <ele>4</ele>
        <time>2020-06-02T16:57:31Z</time>
      </trkpt>
      <trkpt lat="46.33395" lon="-1.3187">
        <ele>4</ele>
        <time>2020-06-02T16:57:32Z</time>
      </trkpt>
      <trkpt lat="46.33392" lon="-1.31878">
        <ele>4</ele>
        <time>2020-06-02T16:57:33Z</time>
      </trkpt>
      <trkpt lat="46.33389" lon="-1.31885">
        <ele>4</ele>
        <time>2020-06-02T16:57:34Z</time>
      </trkpt>
      <trkpt lat="46.33386" lon="-1.31893">
        <ele>3.9</ele>
        <time>2020-06-02T16:57:35Z</time>
      </trkpt>
      <trkpt lat="46.33382" lon="-1.319">
        <ele>3.9</ele>
        <time>2020-06-02T16:57:36Z</time>
      </trkpt>
      <trkpt lat="46.33379" lon="-1.31906">
        <ele>3.9</ele>
        <time>2020-06-02T16:57:37Z</time>
      </trkpt>
      <trkpt lat="46.33376" lon="-1.31913">
        <ele>3.9</ele>
        <time>2020-06-02T16:57:38Z</time>
      </trkpt>
      <trkpt lat="46.33373" lon="-1.31919">
        <ele>3.8</ele>
        <time>2020-06-02T16:57:39Z</time>
      </trkpt>
      <trkpt lat="46.3337" lon="-1.31926">
        <ele>3.8</ele>
        <time>2020-06-02T16:57:40Z</time>
      </trkpt>
      <trkpt lat="46.33366" lon="-1.31932">
        <ele>3.7</ele>
        <time>2020-06-02T16:57:41Z</time>
      </trkpt>
      <trkpt lat="46.33362" lon="-1.31936">
        <ele>3.7</ele>
        <time>2020-06-02T16:57:42Z</time>
      </trkpt>
      <trkpt lat="46.33359" lon="-1.31942">
        <ele>3.7</ele>
        <time>2020-06-02T16:57:43Z</time>
      </trkpt>
      <trkpt lat="46.33356" lon="-1.31947">
        <ele>3.6</ele>
        <time>2020-06-02T16:57:44Z</time>
      </trkpt>
      <trkpt lat="46.33353" lon="-1.31953">
        <ele>3.6</ele>
        <time>2020-06-02T16:57:45Z</time>
      </trkpt>
      <trkpt lat="46.33351" lon="-1.3196">
        <ele>3.5</ele>
        <time>2020-06-02T16:57:46Z</time>
      </trkpt>
      <trkpt lat="46.33349" lon="-1.31965">
        <ele>3.5</ele>
        <time>2020-06-02T16:57:47Z</time>
      </trkpt>
      <trkpt lat="46.33346" lon="-1.31971">
        <ele>3.4</ele>
        <time>2020-06-02T16:57:48Z</time>
      </trkpt>
      <trkpt lat="46.33343" lon="-1.31977">
        <ele>3.3</ele>
        <time>2020-06-02T16:57:49Z</time>
      </trkpt>
      <trkpt lat="46.33341" lon="-1.31985">
        <ele>3.3</ele>
        <time>2020-06-02T16:57:50Z</time>
      </trkpt>
      <trkpt lat="46.33339" lon="-1.31994">
        <ele>3.2</ele>
        <time>2020-06-02T16:57:51Z</time>
      </trkpt>
      <trkpt lat="46.33337" lon="-1.32002">
        <ele>3.1</ele>
        <time>2020-06-02T16:57:52Z</time>
      </trkpt>
      <trkpt lat="46.33334" lon="-1.3201">
        <ele>3.1</ele>
        <time>2020-06-02T16:57:53Z</time>
      </trkpt>
      <trkpt lat="46.33332" lon="-1.32017">
        <ele>3.1</ele>
        <time>2020-06-02T16:57:54Z</time>
      </trkpt>
      <trkpt lat="46.33329" lon="-1.32026">
        <ele>3.1</ele>
        <time>2020-06-02T16:57:55Z</time>
      </trkpt>
      <trkpt lat="46.33326" lon="-1.32034">
        <ele>3.2</ele>
        <time>2020-06-02T16:57:56Z</time>
      </trkpt>
      <trkpt lat="46.33323" lon="-1.32042">
        <ele>3.2</ele>
        <time>2020-06-02T16:57:57Z</time>
      </trkpt>
      <trkpt lat="46.3332" lon="-1.32049">
        <ele>3.2</ele>
        <time>2020-06-02T16:57:58Z</time>
      </trkpt>
      <trkpt lat="46.33318" lon="-1.32058">
        <ele>3.3</ele>
        <time>2020-06-02T16:57:59Z</time>
      </trkpt>
      <trkpt lat="46.33315" lon="-1.32066">
        <ele>3.3</ele>
        <time>2020-06-02T16:58:00Z</time>
      </trkpt>
      <trkpt lat="46.33313" lon="-1.32075">
        <ele>3.3</ele>
        <time>2020-06-02T16:58:01Z</time>
      </trkpt>
      <trkpt lat="46.33309" lon="-1.32082">
        <ele>3.3</ele>
        <time>2020-06-02T16:58:02Z</time>
      </trkpt>
      <trkpt lat="46.33306" lon="-1.32091">
        <ele>3.2</ele>
        <time>2020-06-02T16:58:03Z</time>
      </trkpt>
      <trkpt lat="46.33303" lon="-1.321">
        <ele>3.2</ele>
        <time>2020-06-02T16:58:04Z</time>
      </trkpt>
      <trkpt lat="46.333" lon="-1.32107">
        <ele>3.1</ele>
        <time>2020-06-02T16:58:05Z</time>
      </trkpt>
      <trkpt lat="46.33297" lon="-1.32115">
        <ele>3.1</ele>
        <time>2020-06-02T16:58:06Z</time>
      </trkpt>
      <trkpt lat="46.33293" lon="-1.32122">
        <ele>3.1</ele>
        <time>2020-06-02T16:58:07Z</time>
      </trkpt>
      <trkpt lat="46.3329" lon="-1.32129">
        <ele>3.1</ele>
        <time>2020-06-02T16:58:08Z</time>
      </trkpt>
      <trkpt lat="46.33288" lon="-1.32138">
        <ele>3</ele>
        <time>2020-06-02T16:58:09Z</time>
      </trkpt>
      <trkpt lat="46.33287" lon="-1.32145">
        <ele>3</ele>
        <time>2020-06-02T16:58:10Z</time>
      </trkpt>
      <trkpt lat="46.33287" lon="-1.32151">
        <ele>3</ele>
        <time>2020-06-02T16:58:11Z</time>
      </trkpt>
      <trkpt lat="46.33287" lon="-1.32158">
        <ele>3</ele>
        <time>2020-06-02T16:58:12Z</time>
      </trkpt>
      <trkpt lat="46.33289" lon="-1.32163">
        <ele>2.9</ele>
        <time>2020-06-02T16:58:13Z</time>
      </trkpt>
      <trkpt lat="46.33291" lon="-1.32168">
        <ele>2.9</ele>
        <time>2020-06-02T16:58:14Z</time>
      </trkpt>
      <trkpt lat="46.33293" lon="-1.32174">
        <ele>2.9</ele>
        <time>2020-06-02T16:58:15Z</time>
      </trkpt>
      <trkpt lat="46.33296" lon="-1.32181">
        <ele>2.9</ele>
        <time>2020-06-02T16:58:16Z</time>
      </trkpt>
      <trkpt lat="46.33299" lon="-1.32187">
        <ele>2.9</ele>
        <time>2020-06-02T16:58:17Z</time>
      </trkpt>
      <trkpt lat="46.33298" lon="-1.32194">
        <ele>2.9</ele>
        <time>2020-06-02T16:58:18Z</time>
      </trkpt>
      <trkpt lat="46.33296" lon="-1.32201">
        <ele>2.9</ele>
        <time>2020-06-02T16:58:19Z</time>
      </trkpt>
      <trkpt lat="46.33294" lon="-1.3221">
        <ele>2.9</ele>
        <time>2020-06-02T16:58:20Z</time>
      </trkpt>
      <trkpt lat="46.33294" lon="-1.32217">
        <ele>2.9</ele>
        <time>2020-06-02T16:58:21Z</time>
      </trkpt>
      <trkpt lat="46.33294" lon="-1.32225">
        <ele>2.9</ele>
        <time>2020-06-02T16:58:22Z</time>
      </trkpt>
      <trkpt lat="46.33294" lon="-1.32233">
        <ele>2.9</ele>
        <time>2020-06-02T16:58:23Z</time>
      </trkpt>
      <trkpt lat="46.33295" lon="-1.3224">
        <ele>2.9</ele>
        <time>2020-06-02T16:58:24Z</time>
      </trkpt>
      <trkpt lat="46.33295" lon="-1.32245">
        <ele>2.9</ele>
        <time>2020-06-02T16:58:25Z</time>
      </trkpt>
      <trkpt lat="46.33298" lon="-1.3225">
        <ele>2.8</ele>
        <time>2020-06-02T16:58:26Z</time>
      </trkpt>
      <trkpt lat="46.333" lon="-1.32256">
        <ele>2.8</ele>
        <time>2020-06-02T16:58:27Z</time>
      </trkpt>
      <trkpt lat="46.33303" lon="-1.32261">
        <ele>2.8</ele>
        <time>2020-06-02T16:58:28Z</time>
      </trkpt>
      <trkpt lat="46.33305" lon="-1.32265">
        <ele>2.8</ele>
        <time>2020-06-02T16:58:29Z</time>
      </trkpt>
      <trkpt lat="46.33308" lon="-1.3227">
        <ele>2.8</ele>
        <time>2020-06-02T16:58:30Z</time>
      </trkpt>
      <trkpt lat="46.33311" lon="-1.32275">
        <ele>2.8</ele>
        <time>2020-06-02T16:58:31Z</time>
      </trkpt>
      <trkpt lat="46.33313" lon="-1.32282">
        <ele>2.8</ele>
        <time>2020-06-02T16:58:32Z</time>
      </trkpt>
      <trkpt lat="46.33316" lon="-1.32289">
        <ele>2.8</ele>
        <time>2020-06-02T16:58:33Z</time>
      </trkpt>
      <trkpt lat="46.33319" lon="-1.32295">
        <ele>2.8</ele>
        <time>2020-06-02T16:58:34Z</time>
      </trkpt>
      <trkpt lat="46.33321" lon="-1.32303">
        <ele>2.8</ele>
        <time>2020-06-02T16:58:35Z</time>
      </trkpt>
      <trkpt lat="46.33324" lon="-1.3231">
        <ele>2.8</ele>
        <time>2020-06-02T16:58:36Z</time>
      </trkpt>
      <trkpt lat="46.33328" lon="-1.32319">
        <ele>2.8</ele>
        <time>2020-06-02T16:58:37Z</time>
      </trkpt>
      <trkpt lat="46.33331" lon="-1.32327">
        <ele>2.8</ele>
        <time>2020-06-02T16:58:38Z</time>
      </trkpt>
      <trkpt lat="46.33334" lon="-1.32334">
        <ele>2.8</ele>
        <time>2020-06-02T16:58:39Z</time>
      </trkpt>
      <trkpt lat="46.33337" lon="-1.32342">
        <ele>2.8</ele>
        <time>2020-06-02T16:58:40Z</time>
      </trkpt>
      <trkpt lat="46.33341" lon="-1.32347">
        <ele>2.8</ele>
        <time>2020-06-02T16:58:41Z</time>
      </trkpt>
      <trkpt lat="46.33344" lon="-1.32355">
        <ele>2.8</ele>
        <time>2020-06-02T16:58:42Z</time>
      </trkpt>
      <trkpt lat="46.33347" lon="-1.32362">
        <ele>2.8</ele>
        <time>2020-06-02T16:58:43Z</time>
      </trkpt>
      <trkpt lat="46.33351" lon="-1.32369">
        <ele>2.8</ele>
        <time>2020-06-02T16:58:44Z</time>
      </trkpt>
      <trkpt lat="46.33354" lon="-1.32374">
        <ele>2.8</ele>
        <time>2020-06-02T16:58:45Z</time>
      </trkpt>
      <trkpt lat="46.33357" lon="-1.32382">
        <ele>2.8</ele>
        <time>2020-06-02T16:58:46Z</time>
      </trkpt>
      <trkpt lat="46.3336" lon="-1.32388">
        <ele>2.8</ele>
        <time>2020-06-02T16:58:47Z</time>
      </trkpt>
      <trkpt lat="46.33363" lon="-1.32396">
        <ele>2.8</ele>
        <time>2020-06-02T16:58:48Z</time>
      </trkpt>
      <trkpt lat="46.33368" lon="-1.32404">
        <ele>2.9</ele>
        <time>2020-06-02T16:58:49Z</time>
      </trkpt>
      <trkpt lat="46.33371" lon="-1.32411">
        <ele>2.9</ele>
        <time>2020-06-02T16:58:50Z</time>
      </trkpt>
      <trkpt lat="46.33374" lon="-1.32417">
        <ele>3</ele>
        <time>2020-06-02T16:58:51Z</time>
      </trkpt>
      <trkpt lat="46.33377" lon="-1.32424">
        <ele>3</ele>
        <time>2020-06-02T16:58:52Z</time>
      </trkpt>
      <trkpt lat="46.3338" lon="-1.32432">
        <ele>3.1</ele>
        <time>2020-06-02T16:58:53Z</time>
      </trkpt>
      <trkpt lat="46.33384" lon="-1.32438">
        <ele>3.2</ele>
        <time>2020-06-02T16:58:54Z</time>
      </trkpt>
      <trkpt lat="46.33388" lon="-1.32446">
        <ele>3.2</ele>
        <time>2020-06-02T16:58:55Z</time>
      </trkpt>
      <trkpt lat="46.33392" lon="-1.32455">
        <ele>3.3</ele>
        <time>2020-06-02T16:58:56Z</time>
      </trkpt>
      <trkpt lat="46.33394" lon="-1.32462">
        <ele>3.3</ele>
        <time>2020-06-02T16:58:57Z</time>
      </trkpt>
      <trkpt lat="46.33396" lon="-1.32468">
        <ele>3.4</ele>
        <time>2020-06-02T16:58:58Z</time>
      </trkpt>
      <trkpt lat="46.33399" lon="-1.32473">
        <ele>3.4</ele>
        <time>2020-06-02T16:58:59Z</time>
      </trkpt>
      <trkpt lat="46.33402" lon="-1.3248">
        <ele>3.4</ele>
        <time>2020-06-02T16:59:00Z</time>
      </trkpt>
      <trkpt lat="46.33404" lon="-1.32485">
        <ele>3.4</ele>
        <time>2020-06-02T16:59:01Z</time>
      </trkpt>
      <trkpt lat="46.33407" lon="-1.32491">
        <ele>3.4</ele>
        <time>2020-06-02T16:59:02Z</time>
      </trkpt>
      <trkpt lat="46.3341" lon="-1.32497">
        <ele>3.4</ele>
        <time>2020-06-02T16:59:03Z</time>
      </trkpt>
      <trkpt lat="46.33412" lon="-1.32502">
        <ele>3.4</ele>
        <time>2020-06-02T16:59:04Z</time>
      </trkpt>
      <trkpt lat="46.33416" lon="-1.32508">
        <ele>3.5</ele>
        <time>2020-06-02T16:59:05Z</time>
      </trkpt>
      <trkpt lat="46.33419" lon="-1.32515">
        <ele>3.5</ele>
        <time>2020-06-02T16:59:06Z</time>
      </trkpt>
      <trkpt lat="46.33421" lon="-1.32521">
        <ele>3.5</ele>
        <time>2020-06-02T16:59:07Z</time>
      </trkpt>
      <trkpt lat="46.33424" lon="-1.32529">
        <ele>3.5</ele>
        <time>2020-06-02T16:59:08Z</time>
      </trkpt>
      <trkpt lat="46.33427" lon="-1.32535">
        <ele>3.5</ele>
        <time>2020-06-02T16:59:09Z</time>
      </trkpt>
      <trkpt lat="46.3343" lon="-1.32541">
        <ele>3.5</ele>
        <time>2020-06-02T16:59:10Z</time>
      </trkpt>
      <trkpt lat="46.33432" lon="-1.32546">
        <ele>3.5</ele>
        <time>2020-06-02T16:59:11Z</time>
      </trkpt>
      <trkpt lat="46.33435" lon="-1.32551">
        <ele>3.5</ele>
        <time>2020-06-02T16:59:12Z</time>
      </trkpt>
      <trkpt lat="46.33437" lon="-1.32558">
        <ele>3.4</ele>
        <time>2020-06-02T16:59:13Z</time>
      </trkpt>
      <trkpt lat="46.33439" lon="-1.32563">
        <ele>3.4</ele>
        <time>2020-06-02T16:59:14Z</time>
      </trkpt>
      <trkpt lat="46.33442" lon="-1.32568">
        <ele>3.4</ele>
        <time>2020-06-02T16:59:15Z</time>
      </trkpt>
      <trkpt lat="46.33444" lon="-1.32574">
        <ele>3.4</ele>
        <time>2020-06-02T16:59:16Z</time>
      </trkpt>
      <trkpt lat="46.33446" lon="-1.3258">
        <ele>3.4</ele>
        <time>2020-06-02T16:59:17Z</time>
      </trkpt>
      <trkpt lat="46.33449" lon="-1.32586">
        <ele>3.4</ele>
        <time>2020-06-02T16:59:18Z</time>
      </trkpt>
      <trkpt lat="46.33452" lon="-1.32593">
        <ele>3.4</ele>
        <time>2020-06-02T16:59:19Z</time>
      </trkpt>
      <trkpt lat="46.33454" lon="-1.32599">
        <ele>3.4</ele>
        <time>2020-06-02T16:59:20Z</time>
      </trkpt>
      <trkpt lat="46.33456" lon="-1.32606">
        <ele>3.3</ele>
        <time>2020-06-02T16:59:21Z</time>
      </trkpt>
      <trkpt lat="46.33459" lon="-1.32612">
        <ele>3.3</ele>
        <time>2020-06-02T16:59:22Z</time>
      </trkpt>
      <trkpt lat="46.33462" lon="-1.32619">
        <ele>3.3</ele>
        <time>2020-06-02T16:59:23Z</time>
      </trkpt>
      <trkpt lat="46.33465" lon="-1.32625">
        <ele>3.2</ele>
        <time>2020-06-02T16:59:24Z</time>
      </trkpt>
      <trkpt lat="46.33468" lon="-1.3263">
        <ele>3.2</ele>
        <time>2020-06-02T16:59:25Z</time>
      </trkpt>
      <trkpt lat="46.33471" lon="-1.32635">
        <ele>3.2</ele>
        <time>2020-06-02T16:59:26Z</time>
      </trkpt>
      <trkpt lat="46.33474" lon="-1.3264">
        <ele>3.2</ele>
        <time>2020-06-02T16:59:27Z</time>
      </trkpt>
      <trkpt lat="46.33477" lon="-1.32647">
        <ele>3.1</ele>
        <time>2020-06-02T16:59:28Z</time>
      </trkpt>
      <trkpt lat="46.33481" lon="-1.32653">
        <ele>3.1</ele>
        <time>2020-06-02T16:59:29Z</time>
      </trkpt>
      <trkpt lat="46.33485" lon="-1.32659">
        <ele>3.1</ele>
        <time>2020-06-02T16:59:30Z</time>
      </trkpt>
      <trkpt lat="46.33487" lon="-1.32666">
        <ele>3.1</ele>
        <time>2020-06-02T16:59:31Z</time>
      </trkpt>
      <trkpt lat="46.33489" lon="-1.32672">
        <ele>3.2</ele>
        <time>2020-06-02T16:59:32Z</time>
      </trkpt>
      <trkpt lat="46.33492" lon="-1.32679">
        <ele>3.2</ele>
        <time>2020-06-02T16:59:33Z</time>
      </trkpt>
      <trkpt lat="46.33494" lon="-1.32686">
        <ele>3.2</ele>
        <time>2020-06-02T16:59:34Z</time>
      </trkpt>
      <trkpt lat="46.33496" lon="-1.32692">
        <ele>3.2</ele>
        <time>2020-06-02T16:59:35Z</time>
      </trkpt>
      <trkpt lat="46.33497" lon="-1.32698">
        <ele>3.2</ele>
        <time>2020-06-02T16:59:36Z</time>
      </trkpt>
      <trkpt lat="46.33499" lon="-1.32702">
        <ele>3.2</ele>
        <time>2020-06-02T16:59:37Z</time>
      </trkpt>
      <trkpt lat="46.33502" lon="-1.32708">
        <ele>3.2</ele>
        <time>2020-06-02T16:59:38Z</time>
      </trkpt>
      <trkpt lat="46.33505" lon="-1.32712">
        <ele>3.2</ele>
        <time>2020-06-02T16:59:39Z</time>
      </trkpt>
      <trkpt lat="46.33508" lon="-1.32718">
        <ele>3.3</ele>
        <time>2020-06-02T16:59:40Z</time>
      </trkpt>
      <trkpt lat="46.33511" lon="-1.32724">
        <ele>3.3</ele>
        <time>2020-06-02T16:59:41Z</time>
      </trkpt>
      <trkpt lat="46.33514" lon="-1.32729">
        <ele>3.4</ele>
        <time>2020-06-02T16:59:42Z</time>
      </trkpt>
      <trkpt lat="46.33517" lon="-1.32735">
        <ele>3.4</ele>
        <time>2020-06-02T16:59:43Z</time>
      </trkpt>
      <trkpt lat="46.33521" lon="-1.32741">
        <ele>3.5</ele>
        <time>2020-06-02T16:59:44Z</time>
      </trkpt>
      <trkpt lat="46.33523" lon="-1.32748">
        <ele>3.5</ele>
        <time>2020-06-02T16:59:45Z</time>
      </trkpt>
      <trkpt lat="46.33526" lon="-1.32754">
        <ele>3.5</ele>
        <time>2020-06-02T16:59:46Z</time>
      </trkpt>
      <trkpt lat="46.33527" lon="-1.32758">
        <ele>3.5</ele>
        <time>2020-06-02T16:59:47Z</time>
      </trkpt>
      <trkpt lat="46.3353" lon="-1.32762">
        <ele>3.5</ele>
        <time>2020-06-02T16:59:48Z</time>
      </trkpt>
      <trkpt lat="46.33532" lon="-1.32766">
        <ele>3.5</ele>
        <time>2020-06-02T16:59:49Z</time>
      </trkpt>
      <trkpt lat="46.33534" lon="-1.32771">
        <ele>3.5</ele>
        <time>2020-06-02T16:59:50Z</time>
      </trkpt>
      <trkpt lat="46.33537" lon="-1.32774">
        <ele>3.5</ele>
        <time>2020-06-02T16:59:51Z</time>
      </trkpt>
      <trkpt lat="46.33539" lon="-1.32779">
        <ele>3.5</ele>
        <time>2020-06-02T16:59:52Z</time>
      </trkpt>
      <trkpt lat="46.33542" lon="-1.32783">
        <ele>3.5</ele>
        <time>2020-06-02T16:59:53Z</time>
      </trkpt>
      <trkpt lat="46.33544" lon="-1.32786">
        <ele>3.5</ele>
        <time>2020-06-02T16:59:54Z</time>
      </trkpt>
      <trkpt lat="46.33546" lon="-1.3279">
        <ele>3.5</ele>
        <time>2020-06-02T16:59:55Z</time>
      </trkpt>
      <trkpt lat="46.33548" lon="-1.32796">
        <ele>3.5</ele>
        <time>2020-06-02T16:59:56Z</time>
      </trkpt>
      <trkpt lat="46.33551" lon="-1.32801">
        <ele>3.5</ele>
        <time>2020-06-02T16:59:57Z</time>
      </trkpt>
      <trkpt lat="46.33553" lon="-1.32807">
        <ele>3.4</ele>
        <time>2020-06-02T16:59:58Z</time>
      </trkpt>
      <trkpt lat="46.33556" lon="-1.32812">
        <ele>3.4</ele>
        <time>2020-06-02T16:59:59Z</time>
      </trkpt>
      <trkpt lat="46.33558" lon="-1.32817">
        <ele>3.4</ele>
        <time>2020-06-02T17:00:00Z</time>
      </trkpt>
      <trkpt lat="46.33561" lon="-1.32824">
        <ele>3.4</ele>
        <time>2020-06-02T17:00:01Z</time>
      </trkpt>
      <trkpt lat="46.33563" lon="-1.32831">
        <ele>3.4</ele>
        <time>2020-06-02T17:00:02Z</time>
      </trkpt>
      <trkpt lat="46.33566" lon="-1.32837">
        <ele>3.4</ele>
        <time>2020-06-02T17:00:03Z</time>
      </trkpt>
      <trkpt lat="46.33569" lon="-1.32843">
        <ele>3.4</ele>
        <time>2020-06-02T17:00:04Z</time>
      </trkpt>
      <trkpt lat="46.33571" lon="-1.3285">
        <ele>3.4</ele>
        <time>2020-06-02T17:00:05Z</time>
      </trkpt>
      <trkpt lat="46.33574" lon="-1.32855">
        <ele>3.4</ele>
        <time>2020-06-02T17:00:06Z</time>
      </trkpt>
      <trkpt lat="46.33576" lon="-1.3286">
        <ele>3.4</ele>
        <time>2020-06-02T17:00:07Z</time>
      </trkpt>
      <trkpt lat="46.33579" lon="-1.32865">
        <ele>3.4</ele>
        <time>2020-06-02T17:00:08Z</time>
      </trkpt>
      <trkpt lat="46.33581" lon="-1.32871">
        <ele>3.4</ele>
        <time>2020-06-02T17:00:09Z</time>
      </trkpt>
      <trkpt lat="46.33583" lon="-1.32876">
        <ele>3.4</ele>
        <time>2020-06-02T17:00:10Z</time>
      </trkpt>
      <trkpt lat="46.33586" lon="-1.32882">
        <ele>3.4</ele>
        <time>2020-06-02T17:00:11Z</time>
      </trkpt>
      <trkpt lat="46.33588" lon="-1.32887">
        <ele>3.4</ele>
        <time>2020-06-02T17:00:12Z</time>
      </trkpt>
      <trkpt lat="46.33591" lon="-1.32892">
        <ele>3.4</ele>
        <time>2020-06-02T17:00:13Z</time>
      </trkpt>
      <trkpt lat="46.33593" lon="-1.32897">
        <ele>3.4</ele>
        <time>2020-06-02T17:00:14Z</time>
      </trkpt>
      <trkpt lat="46.33594" lon="-1.32901">
        <ele>3.4</ele>
        <time>2020-06-02T17:00:15Z</time>
      </trkpt>
      <trkpt lat="46.33596" lon="-1.32903">
        <ele>3.4</ele>
        <time>2020-06-02T17:00:16Z</time>
      </trkpt>
      <trkpt lat="46.33597" lon="-1.32904">
        <ele>3.4</ele>
        <time>2020-06-02T17:00:17Z</time>
      </trkpt>
      <trkpt lat="46.33598" lon="-1.32904">
        <ele>3.3</ele>
        <time>2020-06-02T17:00:18Z</time>
      </trkpt>
      <trkpt lat="46.33599" lon="-1.32907">
        <ele>3.3</ele>
        <time>2020-06-02T17:00:19Z</time>
      </trkpt>
      <trkpt lat="46.336" lon="-1.32909">
        <ele>3.3</ele>
        <time>2020-06-02T17:00:20Z</time>
      </trkpt>
      <trkpt lat="46.33601" lon="-1.3291">
        <ele>3.3</ele>
        <time>2020-06-02T17:00:21Z</time>
      </trkpt>
      <trkpt lat="46.33603" lon="-1.32914">
        <ele>3.3</ele>
        <time>2020-06-02T17:00:22Z</time>
      </trkpt>
      <trkpt lat="46.33604" lon="-1.32916">
        <ele>3.3</ele>
        <time>2020-06-02T17:00:23Z</time>
      </trkpt>
      <trkpt lat="46.33605" lon="-1.32919">
        <ele>3.3</ele>
        <time>2020-06-02T17:00:24Z</time>
      </trkpt>
      <trkpt lat="46.33608" lon="-1.32922">
        <ele>3.3</ele>
        <time>2020-06-02T17:00:25Z</time>
      </trkpt>
      <trkpt lat="46.33608" lon="-1.32923">
        <ele>3.3</ele>
        <time>2020-06-02T17:00:26Z</time>
      </trkpt>
      <trkpt lat="46.3361" lon="-1.32924">
        <ele>3.3</ele>
        <time>2020-06-02T17:00:27Z</time>
      </trkpt>
      <trkpt lat="46.3361" lon="-1.32926">
        <ele>3.3</ele>
        <time>2020-06-02T17:00:28Z</time>
      </trkpt>
      <trkpt lat="46.3361" lon="-1.32927">
        <ele>3.3</ele>
        <time>2020-06-02T17:00:29Z</time>
      </trkpt>
      <trkpt lat="46.3361" lon="-1.32929">
        <ele>3.3</ele>
        <time>2020-06-02T17:00:30Z</time>
      </trkpt>
      <trkpt lat="46.3361" lon="-1.32931">
        <ele>3.3</ele>
        <time>2020-06-02T17:00:31Z</time>
      </trkpt>
      <trkpt lat="46.3361" lon="-1.32933">
        <ele>3.3</ele>
        <time>2020-06-02T17:00:32Z</time>
      </trkpt>
      <trkpt lat="46.33611" lon="-1.32933">
        <ele>3.4</ele>
        <time>2020-06-02T17:00:33Z</time>
      </trkpt>
      <trkpt lat="46.33611" lon="-1.32936">
        <ele>3.4</ele>
        <time>2020-06-02T17:00:34Z</time>
      </trkpt>
      <trkpt lat="46.33612" lon="-1.3294">
        <ele>3.5</ele>
        <time>2020-06-02T17:00:35Z</time>
      </trkpt>
      <trkpt lat="46.33613" lon="-1.32942">
        <ele>3.5</ele>
        <time>2020-06-02T17:00:36Z</time>
      </trkpt>
      <trkpt lat="46.33614" lon="-1.32947">
        <ele>3.5</ele>
        <time>2020-06-02T17:00:37Z</time>
      </trkpt>
      <trkpt lat="46.33614" lon="-1.32949">
        <ele>3.5</ele>
        <time>2020-06-02T17:00:38Z</time>
      </trkpt>
      <trkpt lat="46.33615" lon="-1.32954">
        <ele>3.5</ele>
        <time>2020-06-02T17:00:39Z</time>
      </trkpt>
      <trkpt lat="46.33616" lon="-1.32957">
        <ele>3.5</ele>
        <time>2020-06-02T17:00:40Z</time>
      </trkpt>
      <trkpt lat="46.33617" lon="-1.32962">
        <ele>3.5</ele>
        <time>2020-06-02T17:00:41Z</time>
      </trkpt>
      <trkpt lat="46.33619" lon="-1.32967">
        <ele>3.5</ele>
        <time>2020-06-02T17:00:42Z</time>
      </trkpt>
      <trkpt lat="46.33621" lon="-1.32972">
        <ele>3.6</ele>
        <time>2020-06-02T17:00:43Z</time>
      </trkpt>
      <trkpt lat="46.33623" lon="-1.32978">
        <ele>3.6</ele>
        <time>2020-06-02T17:00:44Z</time>
      </trkpt>
      <trkpt lat="46.33624" lon="-1.32983">
        <ele>3.6</ele>
        <time>2020-06-02T17:00:45Z</time>
      </trkpt>
      <trkpt lat="46.33625" lon="-1.32989">
        <ele>3.6</ele>
        <time>2020-06-02T17:00:46Z</time>
      </trkpt>
      <trkpt lat="46.33626" lon="-1.32994">
        <ele>3.6</ele>
        <time>2020-06-02T17:00:47Z</time>
      </trkpt>
      <trkpt lat="46.33627" lon="-1.33">
        <ele>3.6</ele>
        <time>2020-06-02T17:00:48Z</time>
      </trkpt>
      <trkpt lat="46.33628" lon="-1.33006">
        <ele>3.7</ele>
        <time>2020-06-02T17:00:49Z</time>
      </trkpt>
      <trkpt lat="46.33629" lon="-1.33012">
        <ele>3.7</ele>
        <time>2020-06-02T17:00:50Z</time>
      </trkpt>
      <trkpt lat="46.3363" lon="-1.33018">
        <ele>3.7</ele>
        <time>2020-06-02T17:00:51Z</time>
      </trkpt>
      <trkpt lat="46.33631" lon="-1.33025">
        <ele>3.7</ele>
        <time>2020-06-02T17:00:52Z</time>
      </trkpt>
      <trkpt lat="46.33632" lon="-1.33033">
        <ele>3.7</ele>
        <time>2020-06-02T17:00:53Z</time>
      </trkpt>
      <trkpt lat="46.33632" lon="-1.3304">
        <ele>3.7</ele>
        <time>2020-06-02T17:00:54Z</time>
      </trkpt>
      <trkpt lat="46.33634" lon="-1.33049">
        <ele>3.7</ele>
        <time>2020-06-02T17:00:55Z</time>
      </trkpt>
      <trkpt lat="46.33634" lon="-1.33056">
        <ele>3.7</ele>
        <time>2020-06-02T17:00:56Z</time>
      </trkpt>
      <trkpt lat="46.33634" lon="-1.33063">
        <ele>3.7</ele>
        <time>2020-06-02T17:00:57Z</time>
      </trkpt>
      <trkpt lat="46.33633" lon="-1.3307">
        <ele>3.7</ele>
        <time>2020-06-02T17:00:58Z</time>
      </trkpt>
      <trkpt lat="46.33631" lon="-1.33076">
        <ele>3.7</ele>
        <time>2020-06-02T17:00:59Z</time>
      </trkpt>
      <trkpt lat="46.3363" lon="-1.33083">
        <ele>3.7</ele>
        <time>2020-06-02T17:01:00Z</time>
      </trkpt>
      <trkpt lat="46.33628" lon="-1.3309">
        <ele>3.7</ele>
        <time>2020-06-02T17:01:01Z</time>
      </trkpt>
      <trkpt lat="46.33627" lon="-1.33098">
        <ele>3.7</ele>
        <time>2020-06-02T17:01:02Z</time>
      </trkpt>
      <trkpt lat="46.33626" lon="-1.33106">
        <ele>3.7</ele>
        <time>2020-06-02T17:01:03Z</time>
      </trkpt>
      <trkpt lat="46.33624" lon="-1.33113">
        <ele>3.7</ele>
        <time>2020-06-02T17:01:04Z</time>
      </trkpt>
      <trkpt lat="46.33623" lon="-1.33122">
        <ele>3.7</ele>
        <time>2020-06-02T17:01:05Z</time>
      </trkpt>
      <trkpt lat="46.33621" lon="-1.3313">
        <ele>3.7</ele>
        <time>2020-06-02T17:01:06Z</time>
      </trkpt>
      <trkpt lat="46.3362" lon="-1.33138">
        <ele>3.7</ele>
        <time>2020-06-02T17:01:07Z</time>
      </trkpt>
      <trkpt lat="46.33619" lon="-1.33146">
        <ele>3.7</ele>
        <time>2020-06-02T17:01:08Z</time>
      </trkpt>
      <trkpt lat="46.33617" lon="-1.33154">
        <ele>3.7</ele>
        <time>2020-06-02T17:01:09Z</time>
      </trkpt>
      <trkpt lat="46.33616" lon="-1.33163">
        <ele>3.6</ele>
        <time>2020-06-02T17:01:10Z</time>
      </trkpt>
      <trkpt lat="46.33615" lon="-1.3317">
        <ele>3.6</ele>
        <time>2020-06-02T17:01:11Z</time>
      </trkpt>
      <trkpt lat="46.33614" lon="-1.33178">
        <ele>3.6</ele>
        <time>2020-06-02T17:01:12Z</time>
      </trkpt>
      <trkpt lat="46.33612" lon="-1.33185">
        <ele>3.6</ele>
        <time>2020-06-02T17:01:13Z</time>
      </trkpt>
      <trkpt lat="46.33611" lon="-1.33192">
        <ele>3.6</ele>
        <time>2020-06-02T17:01:14Z</time>
      </trkpt>
      <trkpt lat="46.3361" lon="-1.332">
        <ele>3.6</ele>
        <time>2020-06-02T17:01:15Z</time>
      </trkpt>
      <trkpt lat="46.33609" lon="-1.33207">
        <ele>3.6</ele>
        <time>2020-06-02T17:01:16Z</time>
      </trkpt>
      <trkpt lat="46.33607" lon="-1.33216">
        <ele>3.5</ele>
        <time>2020-06-02T17:01:17Z</time>
      </trkpt>
      <trkpt lat="46.33606" lon="-1.33225">
        <ele>3.5</ele>
        <time>2020-06-02T17:01:18Z</time>
      </trkpt>
      <trkpt lat="46.33605" lon="-1.33233">
        <ele>3.5</ele>
        <time>2020-06-02T17:01:19Z</time>
      </trkpt>
      <trkpt lat="46.33603" lon="-1.3324">
        <ele>3.5</ele>
        <time>2020-06-02T17:01:20Z</time>
      </trkpt>
      <trkpt lat="46.33601" lon="-1.33247">
        <ele>3.5</ele>
        <time>2020-06-02T17:01:21Z</time>
      </trkpt>
      <trkpt lat="46.336" lon="-1.33254">
        <ele>3.5</ele>
        <time>2020-06-02T17:01:22Z</time>
      </trkpt>
      <trkpt lat="46.33599" lon="-1.33261">
        <ele>3.4</ele>
        <time>2020-06-02T17:01:23Z</time>
      </trkpt>
      <trkpt lat="46.33597" lon="-1.33267">
        <ele>3.4</ele>
        <time>2020-06-02T17:01:24Z</time>
      </trkpt>
      <trkpt lat="46.33597" lon="-1.33275">
        <ele>3.4</ele>
        <time>2020-06-02T17:01:25Z</time>
      </trkpt>
      <trkpt lat="46.33597" lon="-1.33283">
        <ele>3.4</ele>
        <time>2020-06-02T17:01:26Z</time>
      </trkpt>
      <trkpt lat="46.33597" lon="-1.33291">
        <ele>3.4</ele>
        <time>2020-06-02T17:01:27Z</time>
      </trkpt>
      <trkpt lat="46.33597" lon="-1.33299">
        <ele>3.4</ele>
        <time>2020-06-02T17:01:28Z</time>
      </trkpt>
      <trkpt lat="46.33597" lon="-1.33306">
        <ele>3.4</ele>
        <time>2020-06-02T17:01:29Z</time>
      </trkpt>
      <trkpt lat="46.33596" lon="-1.33313">
        <ele>3.3</ele>
        <time>2020-06-02T17:01:30Z</time>
      </trkpt>
      <trkpt lat="46.33596" lon="-1.33319">
        <ele>3.3</ele>
        <time>2020-06-02T17:01:31Z</time>
      </trkpt>
      <trkpt lat="46.33597" lon="-1.33324">
        <ele>3.3</ele>
        <time>2020-06-02T17:01:32Z</time>
      </trkpt>
      <trkpt lat="46.336" lon="-1.33331">
        <ele>3.2</ele>
        <time>2020-06-02T17:01:33Z</time>
      </trkpt>
      <trkpt lat="46.33602" lon="-1.33337">
        <ele>3.2</ele>
        <time>2020-06-02T17:01:34Z</time>
      </trkpt>
      <trkpt lat="46.33605" lon="-1.33344">
        <ele>3.2</ele>
        <time>2020-06-02T17:01:35Z</time>
      </trkpt>
      <trkpt lat="46.33608" lon="-1.33351">
        <ele>3.1</ele>
        <time>2020-06-02T17:01:36Z</time>
      </trkpt>
      <trkpt lat="46.33611" lon="-1.33358">
        <ele>3.1</ele>
        <time>2020-06-02T17:01:37Z</time>
      </trkpt>
      <trkpt lat="46.33615" lon="-1.33363">
        <ele>3</ele>
        <time>2020-06-02T17:01:38Z</time>
      </trkpt>
      <trkpt lat="46.3362" lon="-1.3337">
        <ele>3</ele>
        <time>2020-06-02T17:01:39Z</time>
      </trkpt>
      <trkpt lat="46.33624" lon="-1.33377">
        <ele>2.9</ele>
        <time>2020-06-02T17:01:40Z</time>
      </trkpt>
      <trkpt lat="46.33628" lon="-1.33384">
        <ele>2.9</ele>
        <time>2020-06-02T17:01:41Z</time>
      </trkpt>
      <trkpt lat="46.33633" lon="-1.3339">
        <ele>2.8</ele>
        <time>2020-06-02T17:01:42Z</time>
      </trkpt>
      <trkpt lat="46.33638" lon="-1.33398">
        <ele>2.8</ele>
        <time>2020-06-02T17:01:43Z</time>
      </trkpt>
      <trkpt lat="46.33643" lon="-1.33404">
        <ele>2.7</ele>
        <time>2020-06-02T17:01:44Z</time>
      </trkpt>
      <trkpt lat="46.33649" lon="-1.33409">
        <ele>2.6</ele>
        <time>2020-06-02T17:01:45Z</time>
      </trkpt>
      <trkpt lat="46.33652" lon="-1.33416">
        <ele>2.6</ele>
        <time>2020-06-02T17:01:46Z</time>
      </trkpt>
      <trkpt lat="46.33656" lon="-1.33421">
        <ele>2.6</ele>
        <time>2020-06-02T17:01:47Z</time>
      </trkpt>
      <trkpt lat="46.33659" lon="-1.33426">
        <ele>2.5</ele>
        <time>2020-06-02T17:01:48Z</time>
      </trkpt>
      <trkpt lat="46.33665" lon="-1.33431">
        <ele>2.5</ele>
        <time>2020-06-02T17:01:49Z</time>
      </trkpt>
      <trkpt lat="46.33669" lon="-1.33437">
        <ele>2.4</ele>
        <time>2020-06-02T17:01:50Z</time>
      </trkpt>
      <trkpt lat="46.33672" lon="-1.3344">
        <ele>2.4</ele>
        <time>2020-06-02T17:01:51Z</time>
      </trkpt>
      <trkpt lat="46.33675" lon="-1.33446">
        <ele>2.3</ele>
        <time>2020-06-02T17:01:52Z</time>
      </trkpt>
      <trkpt lat="46.33679" lon="-1.33451">
        <ele>2.3</ele>
        <time>2020-06-02T17:01:53Z</time>
      </trkpt>
      <trkpt lat="46.33683" lon="-1.33456">
        <ele>2.2</ele>
        <time>2020-06-02T17:01:54Z</time>
      </trkpt>
      <trkpt lat="46.33687" lon="-1.33462">
        <ele>2.3</ele>
        <time>2020-06-02T17:01:55Z</time>
      </trkpt>
      <trkpt lat="46.33692" lon="-1.33469">
        <ele>2.3</ele>
        <time>2020-06-02T17:01:56Z</time>
      </trkpt>
      <trkpt lat="46.33695" lon="-1.33473">
        <ele>2.3</ele>
        <time>2020-06-02T17:01:57Z</time>
      </trkpt>
      <trkpt lat="46.337" lon="-1.3348">
        <ele>2.3</ele>
        <time>2020-06-02T17:01:58Z</time>
      </trkpt>
      <trkpt lat="46.33705" lon="-1.33486">
        <ele>2.4</ele>
        <time>2020-06-02T17:01:59Z</time>
      </trkpt>
      <trkpt lat="46.3371" lon="-1.33493">
        <ele>2.4</ele>
        <time>2020-06-02T17:02:00Z</time>
      </trkpt>
      <trkpt lat="46.33715" lon="-1.33499">
        <ele>2.4</ele>
        <time>2020-06-02T17:02:01Z</time>
      </trkpt>
      <trkpt lat="46.33719" lon="-1.33505">
        <ele>2.5</ele>
        <time>2020-06-02T17:02:02Z</time>
      </trkpt>
      <trkpt lat="46.33724" lon="-1.33511">
        <ele>2.5</ele>
        <time>2020-06-02T17:02:03Z</time>
      </trkpt>
      <trkpt lat="46.33728" lon="-1.33517">
        <ele>2.5</ele>
        <time>2020-06-02T17:02:04Z</time>
      </trkpt>
      <trkpt lat="46.33732" lon="-1.33523">
        <ele>2.6</ele>
        <time>2020-06-02T17:02:05Z</time>
      </trkpt>
      <trkpt lat="46.33737" lon="-1.33529">
        <ele>2.6</ele>
        <time>2020-06-02T17:02:06Z</time>
      </trkpt>
      <trkpt lat="46.3374" lon="-1.33535">
        <ele>2.6</ele>
        <time>2020-06-02T17:02:07Z</time>
      </trkpt>
      <trkpt lat="46.33742" lon="-1.33541">
        <ele>2.7</ele>
        <time>2020-06-02T17:02:08Z</time>
      </trkpt>
      <trkpt lat="46.33746" lon="-1.33547">
        <ele>2.7</ele>
        <time>2020-06-02T17:02:09Z</time>
      </trkpt>
      <trkpt lat="46.3375" lon="-1.33552">
        <ele>2.7</ele>
        <time>2020-06-02T17:02:10Z</time>
      </trkpt>
      <trkpt lat="46.33753" lon="-1.33558">
        <ele>2.8</ele>
        <time>2020-06-02T17:02:11Z</time>
      </trkpt>
      <trkpt lat="46.33758" lon="-1.33563">
        <ele>2.8</ele>
        <time>2020-06-02T17:02:12Z</time>
      </trkpt>
      <trkpt lat="46.33762" lon="-1.33568">
        <ele>2.8</ele>
        <time>2020-06-02T17:02:13Z</time>
      </trkpt>
      <trkpt lat="46.33766" lon="-1.33574">
        <ele>2.8</ele>
        <time>2020-06-02T17:02:14Z</time>
      </trkpt>
      <trkpt lat="46.3377" lon="-1.33577">
        <ele>2.9</ele>
        <time>2020-06-02T17:02:15Z</time>
      </trkpt>
      <trkpt lat="46.33775" lon="-1.33583">
        <ele>2.9</ele>
        <time>2020-06-02T17:02:16Z</time>
      </trkpt>
      <trkpt lat="46.33779" lon="-1.33588">
        <ele>2.9</ele>
        <time>2020-06-02T17:02:17Z</time>
      </trkpt>
      <trkpt lat="46.33784" lon="-1.33594">
        <ele>3</ele>
        <time>2020-06-02T17:02:18Z</time>
      </trkpt>
      <trkpt lat="46.33788" lon="-1.336">
        <ele>3</ele>
        <time>2020-06-02T17:02:19Z</time>
      </trkpt>
      <trkpt lat="46.33793" lon="-1.33606">
        <ele>2.9</ele>
        <time>2020-06-02T17:02:20Z</time>
      </trkpt>
      <trkpt lat="46.33797" lon="-1.33611">
        <ele>2.9</ele>
        <time>2020-06-02T17:02:21Z</time>
      </trkpt>
      <trkpt lat="46.33802" lon="-1.33617">
        <ele>2.9</ele>
        <time>2020-06-02T17:02:22Z</time>
      </trkpt>
      <trkpt lat="46.33807" lon="-1.33624">
        <ele>2.8</ele>
        <time>2020-06-02T17:02:23Z</time>
      </trkpt>
      <trkpt lat="46.33812" lon="-1.33628">
        <ele>2.8</ele>
        <time>2020-06-02T17:02:24Z</time>
      </trkpt>
      <trkpt lat="46.33817" lon="-1.33634">
        <ele>2.8</ele>
        <time>2020-06-02T17:02:25Z</time>
      </trkpt>
      <trkpt lat="46.33821" lon="-1.33639">
        <ele>2.7</ele>
        <time>2020-06-02T17:02:26Z</time>
      </trkpt>
      <trkpt lat="46.33824" lon="-1.33644">
        <ele>2.7</ele>
        <time>2020-06-02T17:02:27Z</time>
      </trkpt>
      <trkpt lat="46.33829" lon="-1.33648">
        <ele>2.7</ele>
        <time>2020-06-02T17:02:28Z</time>
      </trkpt>
      <trkpt lat="46.33834" lon="-1.33655">
        <ele>2.7</ele>
        <time>2020-06-02T17:02:29Z</time>
      </trkpt>
      <trkpt lat="46.33839" lon="-1.33661">
        <ele>2.6</ele>
        <time>2020-06-02T17:02:30Z</time>
      </trkpt>
      <trkpt lat="46.33844" lon="-1.33666">
        <ele>2.6</ele>
        <time>2020-06-02T17:02:31Z</time>
      </trkpt>
      <trkpt lat="46.33849" lon="-1.33672">
        <ele>2.6</ele>
        <time>2020-06-02T17:02:32Z</time>
      </trkpt>
      <trkpt lat="46.33853" lon="-1.33677">
        <ele>2.5</ele>
        <time>2020-06-02T17:02:33Z</time>
      </trkpt>
      <trkpt lat="46.33858" lon="-1.33683">
        <ele>2.5</ele>
        <time>2020-06-02T17:02:34Z</time>
      </trkpt>
      <trkpt lat="46.33862" lon="-1.33688">
        <ele>2.4</ele>
        <time>2020-06-02T17:02:35Z</time>
      </trkpt>
      <trkpt lat="46.33866" lon="-1.33693">
        <ele>2.4</ele>
        <time>2020-06-02T17:02:36Z</time>
      </trkpt>
      <trkpt lat="46.3387" lon="-1.33698">
        <ele>2.4</ele>
        <time>2020-06-02T17:02:37Z</time>
      </trkpt>
      <trkpt lat="46.33875" lon="-1.33703">
        <ele>2.3</ele>
        <time>2020-06-02T17:02:38Z</time>
      </trkpt>
      <trkpt lat="46.33879" lon="-1.33708">
        <ele>2.3</ele>
        <time>2020-06-02T17:02:39Z</time>
      </trkpt>
      <trkpt lat="46.33881" lon="-1.33712">
        <ele>2.3</ele>
        <time>2020-06-02T17:02:40Z</time>
      </trkpt>
      <trkpt lat="46.33886" lon="-1.33716">
        <ele>2.2</ele>
        <time>2020-06-02T17:02:41Z</time>
      </trkpt>
      <trkpt lat="46.3389" lon="-1.33722">
        <ele>2.2</ele>
        <time>2020-06-02T17:02:42Z</time>
      </trkpt>
      <trkpt lat="46.33894" lon="-1.33727">
        <ele>2.2</ele>
        <time>2020-06-02T17:02:43Z</time>
      </trkpt>
      <trkpt lat="46.33899" lon="-1.33732">
        <ele>2.1</ele>
        <time>2020-06-02T17:02:44Z</time>
      </trkpt>
      <trkpt lat="46.33902" lon="-1.33736">
        <ele>2.1</ele>
        <time>2020-06-02T17:02:45Z</time>
      </trkpt>
      <trkpt lat="46.33905" lon="-1.33741">
        <ele>2.1</ele>
        <time>2020-06-02T17:02:46Z</time>
      </trkpt>
      <trkpt lat="46.33912" lon="-1.33746">
        <ele>2</ele>
        <time>2020-06-02T17:02:47Z</time>
      </trkpt>
      <trkpt lat="46.33915" lon="-1.33751">
        <ele>2</ele>
        <time>2020-06-02T17:02:48Z</time>
      </trkpt>
      <trkpt lat="46.3392" lon="-1.33756">
        <ele>2</ele>
        <time>2020-06-02T17:02:49Z</time>
      </trkpt>
      <trkpt lat="46.33924" lon="-1.33761">
        <ele>1.9</ele>
        <time>2020-06-02T17:02:50Z</time>
      </trkpt>
      <trkpt lat="46.33929" lon="-1.33765">
        <ele>2</ele>
        <time>2020-06-02T17:02:51Z</time>
      </trkpt>
      <trkpt lat="46.33933" lon="-1.33767">
        <ele>2</ele>
        <time>2020-06-02T17:02:52Z</time>
      </trkpt>
      <trkpt lat="46.33937" lon="-1.33771">
        <ele>2</ele>
        <time>2020-06-02T17:02:53Z</time>
      </trkpt>
      <trkpt lat="46.33941" lon="-1.33775">
        <ele>2</ele>
        <time>2020-06-02T17:02:54Z</time>
      </trkpt>
      <trkpt lat="46.33944" lon="-1.33778">
        <ele>2</ele>
        <time>2020-06-02T17:02:55Z</time>
      </trkpt>
      <trkpt lat="46.33947" lon="-1.33782">
        <ele>2.1</ele>
        <time>2020-06-02T17:02:56Z</time>
      </trkpt>
      <trkpt lat="46.33951" lon="-1.33785">
        <ele>2.1</ele>
        <time>2020-06-02T17:02:57Z</time>
      </trkpt>
      <trkpt lat="46.33955" lon="-1.33791">
        <ele>2.1</ele>
        <time>2020-06-02T17:02:58Z</time>
      </trkpt>
      <trkpt lat="46.33959" lon="-1.33797">
        <ele>2.1</ele>
        <time>2020-06-02T17:02:59Z</time>
      </trkpt>
      <trkpt lat="46.33964" lon="-1.33802">
        <ele>2.2</ele>
        <time>2020-06-02T17:03:00Z</time>
      </trkpt>
      <trkpt lat="46.33968" lon="-1.33806">
        <ele>2.2</ele>
        <time>2020-06-02T17:03:01Z</time>
      </trkpt>
      <trkpt lat="46.3397" lon="-1.33811">
        <ele>2.2</ele>
        <time>2020-06-02T17:03:02Z</time>
      </trkpt>
      <trkpt lat="46.33975" lon="-1.33816">
        <ele>2.2</ele>
        <time>2020-06-02T17:03:03Z</time>
      </trkpt>
      <trkpt lat="46.33978" lon="-1.3382">
        <ele>2.3</ele>
        <time>2020-06-02T17:03:04Z</time>
      </trkpt>
      <trkpt lat="46.33984" lon="-1.33825">
        <ele>2.3</ele>
        <time>2020-06-02T17:03:05Z</time>
      </trkpt>
      <trkpt lat="46.33987" lon="-1.33829">
        <ele>2.3</ele>
        <time>2020-06-02T17:03:06Z</time>
      </trkpt>
      <trkpt lat="46.33991" lon="-1.33833">
        <ele>2.3</ele>
        <time>2020-06-02T17:03:07Z</time>
      </trkpt>
      <trkpt lat="46.33995" lon="-1.33839">
        <ele>2.4</ele>
        <time>2020-06-02T17:03:08Z</time>
      </trkpt>
      <trkpt lat="46.33998" lon="-1.33844">
        <ele>2.4</ele>
        <time>2020-06-02T17:03:09Z</time>
      </trkpt>
      <trkpt lat="46.34003" lon="-1.3385">
        <ele>2.4</ele>
        <time>2020-06-02T17:03:10Z</time>
      </trkpt>
      <trkpt lat="46.34007" lon="-1.33854">
        <ele>2.4</ele>
        <time>2020-06-02T17:03:11Z</time>
      </trkpt>
      <trkpt lat="46.3401" lon="-1.33858">
        <ele>2.4</ele>
        <time>2020-06-02T17:03:12Z</time>
      </trkpt>
      <trkpt lat="46.34012" lon="-1.33862">
        <ele>2.5</ele>
        <time>2020-06-02T17:03:13Z</time>
      </trkpt>
      <trkpt lat="46.34016" lon="-1.33866">
        <ele>2.5</ele>
        <time>2020-06-02T17:03:14Z</time>
      </trkpt>
      <trkpt lat="46.34019" lon="-1.33871">
        <ele>2.5</ele>
        <time>2020-06-02T17:03:15Z</time>
      </trkpt>
      <trkpt lat="46.34023" lon="-1.33875">
        <ele>2.5</ele>
        <time>2020-06-02T17:03:16Z</time>
      </trkpt>
      <trkpt lat="46.34026" lon="-1.3388">
        <ele>2.5</ele>
        <time>2020-06-02T17:03:17Z</time>
      </trkpt>
      <trkpt lat="46.3403" lon="-1.33884">
        <ele>2.5</ele>
        <time>2020-06-02T17:03:18Z</time>
      </trkpt>
      <trkpt lat="46.34034" lon="-1.33888">
        <ele>2.5</ele>
        <time>2020-06-02T17:03:19Z</time>
      </trkpt>
      <trkpt lat="46.34039" lon="-1.33892">
        <ele>2.6</ele>
        <time>2020-06-02T17:03:20Z</time>
      </trkpt>
      <trkpt lat="46.34043" lon="-1.33897">
        <ele>2.6</ele>
        <time>2020-06-02T17:03:21Z</time>
      </trkpt>
      <trkpt lat="46.34047" lon="-1.33901">
        <ele>2.6</ele>
        <time>2020-06-02T17:03:22Z</time>
      </trkpt>
      <trkpt lat="46.3405" lon="-1.33906">
        <ele>2.6</ele>
        <time>2020-06-02T17:03:23Z</time>
      </trkpt>
      <trkpt lat="46.34054" lon="-1.33909">
        <ele>2.6</ele>
        <time>2020-06-02T17:03:24Z</time>
      </trkpt>
      <trkpt lat="46.34057" lon="-1.33914">
        <ele>2.6</ele>
        <time>2020-06-02T17:03:25Z</time>
      </trkpt>
      <trkpt lat="46.3406" lon="-1.33918">
        <ele>2.7</ele>
        <time>2020-06-02T17:03:26Z</time>
      </trkpt>
      <trkpt lat="46.34065" lon="-1.33923">
        <ele>2.7</ele>
        <time>2020-06-02T17:03:27Z</time>
      </trkpt>
      <trkpt lat="46.34067" lon="-1.33928">
        <ele>2.7</ele>
        <time>2020-06-02T17:03:28Z</time>
      </trkpt>
      <trkpt lat="46.34069" lon="-1.33932">
        <ele>2.7</ele>
        <time>2020-06-02T17:03:29Z</time>
      </trkpt>
      <trkpt lat="46.34071" lon="-1.33937">
        <ele>2.7</ele>
        <time>2020-06-02T17:03:30Z</time>
      </trkpt>
      <trkpt lat="46.34075" lon="-1.33943">
        <ele>2.7</ele>
        <time>2020-06-02T17:03:31Z</time>
      </trkpt>
      <trkpt lat="46.34078" lon="-1.33946">
        <ele>2.7</ele>
        <time>2020-06-02T17:03:32Z</time>
      </trkpt>
      <trkpt lat="46.34081" lon="-1.3395">
        <ele>2.8</ele>
        <time>2020-06-02T17:03:33Z</time>
      </trkpt>
      <trkpt lat="46.34084" lon="-1.33954">
        <ele>2.8</ele>
        <time>2020-06-02T17:03:34Z</time>
      </trkpt>
      <trkpt lat="46.34088" lon="-1.33958">
        <ele>2.8</ele>
        <time>2020-06-02T17:03:35Z</time>
      </trkpt>
      <trkpt lat="46.34091" lon="-1.33963">
        <ele>2.8</ele>
        <time>2020-06-02T17:03:36Z</time>
      </trkpt>
      <trkpt lat="46.34096" lon="-1.33967">
        <ele>2.9</ele>
        <time>2020-06-02T17:03:37Z</time>
      </trkpt>
      <trkpt lat="46.34099" lon="-1.33972">
        <ele>2.9</ele>
        <time>2020-06-02T17:03:38Z</time>
      </trkpt>
      <trkpt lat="46.34103" lon="-1.33975">
        <ele>3</ele>
        <time>2020-06-02T17:03:39Z</time>
      </trkpt>
      <trkpt lat="46.34105" lon="-1.33979">
        <ele>3</ele>
        <time>2020-06-02T17:03:40Z</time>
      </trkpt>
      <trkpt lat="46.34106" lon="-1.33985">
        <ele>3.1</ele>
        <time>2020-06-02T17:03:41Z</time>
      </trkpt>
      <trkpt lat="46.34109" lon="-1.33989">
        <ele>3.1</ele>
        <time>2020-06-02T17:03:42Z</time>
      </trkpt>
      <trkpt lat="46.34111" lon="-1.33993">
        <ele>3.1</ele>
        <time>2020-06-02T17:03:43Z</time>
      </trkpt>
      <trkpt lat="46.34113" lon="-1.33998">
        <ele>3.1</ele>
        <time>2020-06-02T17:03:44Z</time>
      </trkpt>
      <trkpt lat="46.34116" lon="-1.34004">
        <ele>3.1</ele>
        <time>2020-06-02T17:03:45Z</time>
      </trkpt>
      <trkpt lat="46.34118" lon="-1.34009">
        <ele>3.1</ele>
        <time>2020-06-02T17:03:46Z</time>
      </trkpt>
      <trkpt lat="46.34122" lon="-1.34013">
        <ele>3.1</ele>
        <time>2020-06-02T17:03:47Z</time>
      </trkpt>
      <trkpt lat="46.34125" lon="-1.34019">
        <ele>3.1</ele>
        <time>2020-06-02T17:03:48Z</time>
      </trkpt>
      <trkpt lat="46.34129" lon="-1.34024">
        <ele>3.1</ele>
        <time>2020-06-02T17:03:49Z</time>
      </trkpt>
      <trkpt lat="46.34131" lon="-1.3403">
        <ele>3.1</ele>
        <time>2020-06-02T17:03:50Z</time>
      </trkpt>
      <trkpt lat="46.34134" lon="-1.34036">
        <ele>3.1</ele>
        <time>2020-06-02T17:03:51Z</time>
      </trkpt>
      <trkpt lat="46.34137" lon="-1.34042">
        <ele>3.1</ele>
        <time>2020-06-02T17:03:52Z</time>
      </trkpt>
      <trkpt lat="46.34141" lon="-1.34049">
        <ele>3.1</ele>
        <time>2020-06-02T17:03:53Z</time>
      </trkpt>
      <trkpt lat="46.34144" lon="-1.34054">
        <ele>3.1</ele>
        <time>2020-06-02T17:03:54Z</time>
      </trkpt>
      <trkpt lat="46.34147" lon="-1.34059">
        <ele>3.1</ele>
        <time>2020-06-02T17:03:55Z</time>
      </trkpt>
      <trkpt lat="46.3415" lon="-1.34064">
        <ele>3.1</ele>
        <time>2020-06-02T17:03:56Z</time>
      </trkpt>
      <trkpt lat="46.34153" lon="-1.3407">
        <ele>3.1</ele>
        <time>2020-06-02T17:03:57Z</time>
      </trkpt>
      <trkpt lat="46.34156" lon="-1.34074">
        <ele>3.1</ele>
        <time>2020-06-02T17:03:58Z</time>
      </trkpt>
      <trkpt lat="46.3416" lon="-1.3408">
        <ele>3.2</ele>
        <time>2020-06-02T17:03:59Z</time>
      </trkpt>
      <trkpt lat="46.34162" lon="-1.34084">
        <ele>3.2</ele>
        <time>2020-06-02T17:04:00Z</time>
      </trkpt>
      <trkpt lat="46.34166" lon="-1.3409">
        <ele>3.2</ele>
        <time>2020-06-02T17:04:01Z</time>
      </trkpt>
      <trkpt lat="46.34169" lon="-1.34097">
        <ele>3.2</ele>
        <time>2020-06-02T17:04:02Z</time>
      </trkpt>
      <trkpt lat="46.34172" lon="-1.34103">
        <ele>3.2</ele>
        <time>2020-06-02T17:04:03Z</time>
      </trkpt>
      <trkpt lat="46.34175" lon="-1.34107">
        <ele>3.2</ele>
        <time>2020-06-02T17:04:04Z</time>
      </trkpt>
      <trkpt lat="46.34179" lon="-1.34112">
        <ele>3.2</ele>
        <time>2020-06-02T17:04:05Z</time>
      </trkpt>
      <trkpt lat="46.34181" lon="-1.34117">
        <ele>3.2</ele>
        <time>2020-06-02T17:04:06Z</time>
      </trkpt>
      <trkpt lat="46.34184" lon="-1.34122">
        <ele>3.2</ele>
        <time>2020-06-02T17:04:07Z</time>
      </trkpt>
      <trkpt lat="46.34187" lon="-1.34127">
        <ele>3.2</ele>
        <time>2020-06-02T17:04:08Z</time>
      </trkpt>
      <trkpt lat="46.3419" lon="-1.34128">
        <ele>3.2</ele>
        <time>2020-06-02T17:04:09Z</time>
      </trkpt>
      <trkpt lat="46.34192" lon="-1.34134">
        <ele>3.2</ele>
        <time>2020-06-02T17:04:10Z</time>
      </trkpt>
      <trkpt lat="46.34194" lon="-1.34138">
        <ele>3.2</ele>
        <time>2020-06-02T17:04:11Z</time>
      </trkpt>
      <trkpt lat="46.34197" lon="-1.34141">
        <ele>3.3</ele>
        <time>2020-06-02T17:04:12Z</time>
      </trkpt>
      <trkpt lat="46.342" lon="-1.34145">
        <ele>3.3</ele>
        <time>2020-06-02T17:04:13Z</time>
      </trkpt>
      <trkpt lat="46.34203" lon="-1.3415">
        <ele>3.3</ele>
        <time>2020-06-02T17:04:14Z</time>
      </trkpt>
      <trkpt lat="46.34205" lon="-1.34153">
        <ele>3.3</ele>
        <time>2020-06-02T17:04:15Z</time>
      </trkpt>
      <trkpt lat="46.34208" lon="-1.34156">
        <ele>3.3</ele>
        <time>2020-06-02T17:04:16Z</time>
      </trkpt>
      <trkpt lat="46.34209" lon="-1.3416">
        <ele>3.4</ele>
        <time>2020-06-02T17:04:17Z</time>
      </trkpt>
      <trkpt lat="46.34211" lon="-1.34164">
        <ele>3.4</ele>
        <time>2020-06-02T17:04:18Z</time>
      </trkpt>
      <trkpt lat="46.34213" lon="-1.34168">
        <ele>3.4</ele>
        <time>2020-06-02T17:04:19Z</time>
      </trkpt>
      <trkpt lat="46.34216" lon="-1.34171">
        <ele>3.4</ele>
        <time>2020-06-02T17:04:20Z</time>
      </trkpt>
      <trkpt lat="46.34217" lon="-1.34173">
        <ele>3.4</ele>
        <time>2020-06-02T17:04:21Z</time>
      </trkpt>
      <trkpt lat="46.34218" lon="-1.34177">
        <ele>3.4</ele>
        <time>2020-06-02T17:04:22Z</time>
      </trkpt>
      <trkpt lat="46.34219" lon="-1.34179">
        <ele>3.4</ele>
        <time>2020-06-02T17:04:23Z</time>
      </trkpt>
      <trkpt lat="46.34221" lon="-1.34184">
        <ele>3.5</ele>
        <time>2020-06-02T17:04:24Z</time>
      </trkpt>
      <trkpt lat="46.34222" lon="-1.34186">
        <ele>3.5</ele>
        <time>2020-06-02T17:04:25Z</time>
      </trkpt>
      <trkpt lat="46.34225" lon="-1.34189">
        <ele>3.5</ele>
        <time>2020-06-02T17:04:26Z</time>
      </trkpt>
      <trkpt lat="46.34227" lon="-1.34193">
        <ele>3.5</ele>
        <time>2020-06-02T17:04:27Z</time>
      </trkpt>
      <trkpt lat="46.34229" lon="-1.34197">
        <ele>3.5</ele>
        <time>2020-06-02T17:04:28Z</time>
      </trkpt>
      <trkpt lat="46.3423" lon="-1.34202">
        <ele>3.5</ele>
        <time>2020-06-02T17:04:29Z</time>
      </trkpt>
      <trkpt lat="46.3423" lon="-1.34206">
        <ele>3.5</ele>
        <time>2020-06-02T17:04:30Z</time>
      </trkpt>
      <trkpt lat="46.34233" lon="-1.3421">
        <ele>3.5</ele>
        <time>2020-06-02T17:04:31Z</time>
      </trkpt>
      <trkpt lat="46.34236" lon="-1.34213">
        <ele>3.5</ele>
        <time>2020-06-02T17:04:32Z</time>
      </trkpt>
      <trkpt lat="46.34238" lon="-1.34217">
        <ele>3.5</ele>
        <time>2020-06-02T17:04:33Z</time>
      </trkpt>
      <trkpt lat="46.3424" lon="-1.34222">
        <ele>3.5</ele>
        <time>2020-06-02T17:04:34Z</time>
      </trkpt>
      <trkpt lat="46.34242" lon="-1.34226">
        <ele>3.5</ele>
        <time>2020-06-02T17:04:35Z</time>
      </trkpt>
      <trkpt lat="46.34244" lon="-1.3423">
        <ele>3.5</ele>
        <time>2020-06-02T17:04:36Z</time>
      </trkpt>
      <trkpt lat="46.34245" lon="-1.34236">
        <ele>3.5</ele>
        <time>2020-06-02T17:04:37Z</time>
      </trkpt>
      <trkpt lat="46.34248" lon="-1.3424">
        <ele>3.5</ele>
        <time>2020-06-02T17:04:38Z</time>
      </trkpt>
      <trkpt lat="46.34251" lon="-1.34243">
        <ele>3.5</ele>
        <time>2020-06-02T17:04:39Z</time>
      </trkpt>
      <trkpt lat="46.34253" lon="-1.34247">
        <ele>3.5</ele>
        <time>2020-06-02T17:04:40Z</time>
      </trkpt>
      <trkpt lat="46.34256" lon="-1.34251">
        <ele>3.5</ele>
        <time>2020-06-02T17:04:41Z</time>
      </trkpt>
      <trkpt lat="46.34259" lon="-1.34254">
        <ele>3.6</ele>
        <time>2020-06-02T17:04:42Z</time>
      </trkpt>
      <trkpt lat="46.34262" lon="-1.34259">
        <ele>3.6</ele>
        <time>2020-06-02T17:04:43Z</time>
      </trkpt>
      <trkpt lat="46.34265" lon="-1.34263">
        <ele>3.6</ele>
        <time>2020-06-02T17:04:44Z</time>
      </trkpt>
      <trkpt lat="46.34268" lon="-1.34268">
        <ele>3.6</ele>
        <time>2020-06-02T17:04:45Z</time>
      </trkpt>
      <trkpt lat="46.3427" lon="-1.34273">
        <ele>3.6</ele>
        <time>2020-06-02T17:04:46Z</time>
      </trkpt>
      <trkpt lat="46.34273" lon="-1.34277">
        <ele>3.6</ele>
        <time>2020-06-02T17:04:47Z</time>
      </trkpt>
      <trkpt lat="46.34276" lon="-1.34281">
        <ele>3.6</ele>
        <time>2020-06-02T17:04:48Z</time>
      </trkpt>
      <trkpt lat="46.34278" lon="-1.34285">
        <ele>3.6</ele>
        <time>2020-06-02T17:04:49Z</time>
      </trkpt>
      <trkpt lat="46.34281" lon="-1.3429">
        <ele>3.6</ele>
        <time>2020-06-02T17:04:50Z</time>
      </trkpt>
      <trkpt lat="46.34283" lon="-1.34295">
        <ele>3.6</ele>
        <time>2020-06-02T17:04:51Z</time>
      </trkpt>
      <trkpt lat="46.34284" lon="-1.34299">
        <ele>3.6</ele>
        <time>2020-06-02T17:04:52Z</time>
      </trkpt>
      <trkpt lat="46.34286" lon="-1.34305">
        <ele>3.6</ele>
        <time>2020-06-02T17:04:53Z</time>
      </trkpt>
      <trkpt lat="46.34285" lon="-1.3431">
        <ele>3.6</ele>
        <time>2020-06-02T17:04:54Z</time>
      </trkpt>
      <trkpt lat="46.34286" lon="-1.34316">
        <ele>3.6</ele>
        <time>2020-06-02T17:04:55Z</time>
      </trkpt>
      <trkpt lat="46.34287" lon="-1.34321">
        <ele>3.6</ele>
        <time>2020-06-02T17:04:56Z</time>
      </trkpt>
      <trkpt lat="46.34287" lon="-1.34327">
        <ele>3.6</ele>
        <time>2020-06-02T17:04:57Z</time>
      </trkpt>
      <trkpt lat="46.34287" lon="-1.34334">
        <ele>3.8</ele>
        <time>2020-06-02T17:04:58Z</time>
      </trkpt>
      <trkpt lat="46.34288" lon="-1.3434">
        <ele>3.9</ele>
        <time>2020-06-02T17:04:59Z</time>
      </trkpt>
      <trkpt lat="46.34287" lon="-1.34345">
        <ele>3.9</ele>
        <time>2020-06-02T17:05:00Z</time>
      </trkpt>
      <trkpt lat="46.34285" lon="-1.3435">
        <ele>3.9</ele>
        <time>2020-06-02T17:05:01Z</time>
      </trkpt>
      <trkpt lat="46.34283" lon="-1.34353">
        <ele>4</ele>
        <time>2020-06-02T17:05:02Z</time>
      </trkpt>
      <trkpt lat="46.34279" lon="-1.34357">
        <ele>4</ele>
        <time>2020-06-02T17:05:03Z</time>
      </trkpt>
      <trkpt lat="46.34277" lon="-1.34361">
        <ele>4.1</ele>
        <time>2020-06-02T17:05:04Z</time>
      </trkpt>
      <trkpt lat="46.34273" lon="-1.34365">
        <ele>4.1</ele>
        <time>2020-06-02T17:05:05Z</time>
      </trkpt>
      <trkpt lat="46.34269" lon="-1.34368">
        <ele>4.1</ele>
        <time>2020-06-02T17:05:06Z</time>
      </trkpt>
      <trkpt lat="46.34266" lon="-1.34373">
        <ele>4.2</ele>
        <time>2020-06-02T17:05:07Z</time>
      </trkpt>
      <trkpt lat="46.34262" lon="-1.34375">
        <ele>4.3</ele>
        <time>2020-06-02T17:05:08Z</time>
      </trkpt>
      <trkpt lat="46.34259" lon="-1.34377">
        <ele>4.3</ele>
        <time>2020-06-02T17:05:09Z</time>
      </trkpt>
      <trkpt lat="46.34256" lon="-1.34381">
        <ele>4.4</ele>
        <time>2020-06-02T17:05:10Z</time>
      </trkpt>
      <trkpt lat="46.34253" lon="-1.34384">
        <ele>4.4</ele>
        <time>2020-06-02T17:05:11Z</time>
      </trkpt>
      <trkpt lat="46.34249" lon="-1.34388">
        <ele>4.5</ele>
        <time>2020-06-02T17:05:12Z</time>
      </trkpt>
      <trkpt lat="46.34246" lon="-1.34392">
        <ele>4.6</ele>
        <time>2020-06-02T17:05:13Z</time>
      </trkpt>
      <trkpt lat="46.34241" lon="-1.34395">
        <ele>4.7</ele>
        <time>2020-06-02T17:05:14Z</time>
      </trkpt>
      <trkpt lat="46.34237" lon="-1.34399">
        <ele>4.7</ele>
        <time>2020-06-02T17:05:15Z</time>
      </trkpt>
      <trkpt lat="46.34234" lon="-1.34402">
        <ele>4.8</ele>
        <time>2020-06-02T17:05:16Z</time>
      </trkpt>
      <trkpt lat="46.3423" lon="-1.34407">
        <ele>4.9</ele>
        <time>2020-06-02T17:05:17Z</time>
      </trkpt>
      <trkpt lat="46.34226" lon="-1.34413">
        <ele>4.9</ele>
        <time>2020-06-02T17:05:18Z</time>
      </trkpt>
      <trkpt lat="46.34223" lon="-1.34417">
        <ele>5</ele>
        <time>2020-06-02T17:05:19Z</time>
      </trkpt>
      <trkpt lat="46.34219" lon="-1.34419">
        <ele>5</ele>
        <time>2020-06-02T17:05:20Z</time>
      </trkpt>
      <trkpt lat="46.34215" lon="-1.34421">
        <ele>5.1</ele>
        <time>2020-06-02T17:05:21Z</time>
      </trkpt>
      <trkpt lat="46.34212" lon="-1.34422">
        <ele>5.2</ele>
        <time>2020-06-02T17:05:22Z</time>
      </trkpt>
      <trkpt lat="46.34208" lon="-1.34421">
        <ele>5.2</ele>
        <time>2020-06-02T17:05:23Z</time>
      </trkpt>
      <trkpt lat="46.34203" lon="-1.3442">
        <ele>5.3</ele>
        <time>2020-06-02T17:05:24Z</time>
      </trkpt>
      <trkpt lat="46.34199" lon="-1.3442">
        <ele>5.3</ele>
        <time>2020-06-02T17:05:25Z</time>
      </trkpt>
      <trkpt lat="46.34195" lon="-1.34422">
        <ele>5.3</ele>
        <time>2020-06-02T17:05:26Z</time>
      </trkpt>
      <trkpt lat="46.34192" lon="-1.34424">
        <ele>5.4</ele>
        <time>2020-06-02T17:05:27Z</time>
      </trkpt>
      <trkpt lat="46.34191" lon="-1.34428">
        <ele>5.4</ele>
        <time>2020-06-02T17:05:28Z</time>
      </trkpt>
      <trkpt lat="46.34188" lon="-1.34431">
        <ele>5.4</ele>
        <time>2020-06-02T17:05:29Z</time>
      </trkpt>
      <trkpt lat="46.34188" lon="-1.34432">
        <ele>5.4</ele>
        <time>2020-06-02T17:05:30Z</time>
      </trkpt>
      <trkpt lat="46.34188" lon="-1.34433">
        <ele>5.4</ele>
        <time>2020-06-02T17:05:31Z</time>
      </trkpt>
      <trkpt lat="46.34186" lon="-1.34434">
        <ele>5.4</ele>
        <time>2020-06-02T17:05:32Z</time>
      </trkpt>
      <trkpt lat="46.34186" lon="-1.34434">
        <ele>5.4</ele>
        <time>2020-06-02T17:05:33Z</time>
      </trkpt>
      <trkpt lat="46.34186" lon="-1.34434">
        <ele>5.4</ele>
        <time>2020-06-02T17:05:34Z</time>
      </trkpt>
      <trkpt lat="46.34187" lon="-1.34434">
        <ele>5.4</ele>
        <time>2020-06-02T17:05:35Z</time>
      </trkpt>
      <trkpt lat="46.34186" lon="-1.34432">
        <ele>5.4</ele>
        <time>2020-06-02T17:05:36Z</time>
      </trkpt>
      <trkpt lat="46.34187" lon="-1.34432">
        <ele>5.5</ele>
        <time>2020-06-02T17:05:37Z</time>
      </trkpt>
      <trkpt lat="46.34186" lon="-1.34431">
        <ele>5.5</ele>
        <time>2020-06-02T17:05:38Z</time>
      </trkpt>
      <trkpt lat="46.34186" lon="-1.34431">
        <ele>5.5</ele>
        <time>2020-06-02T17:05:39Z</time>
      </trkpt>
      <trkpt lat="46.34186" lon="-1.34431">
        <ele>5.5</ele>
        <time>2020-06-02T17:05:40Z</time>
      </trkpt>
      <trkpt lat="46.34186" lon="-1.34431">
        <ele>5.5</ele>
        <time>2020-06-02T17:05:41Z</time>
      </trkpt>
      <trkpt lat="46.34185" lon="-1.34431">
        <ele>5.5</ele>
        <time>2020-06-02T17:05:42Z</time>
      </trkpt>
      <trkpt lat="46.34186" lon="-1.34431">
        <ele>5.5</ele>
        <time>2020-06-02T17:05:43Z</time>
      </trkpt>
      <trkpt lat="46.34186" lon="-1.34431">
        <ele>5.5</ele>
        <time>2020-06-02T17:05:44Z</time>
      </trkpt>
      <trkpt lat="46.34186" lon="-1.34431">
        <ele>5.5</ele>
        <time>2020-06-02T17:05:45Z</time>
      </trkpt>
      <trkpt lat="46.34186" lon="-1.34431">
        <ele>5.5</ele>
        <time>2020-06-02T17:05:46Z</time>
      </trkpt>
      <trkpt lat="46.34186" lon="-1.34431">
        <ele>5.5</ele>
        <time>2020-06-02T17:05:47Z</time>
      </trkpt>
      <trkpt lat="46.34186" lon="-1.34431">
        <ele>5.5</ele>
        <time>2020-06-02T17:05:48Z</time>
      </trkpt>
      <trkpt lat="46.34185" lon="-1.34432">
        <ele>5.5</ele>
        <time>2020-06-02T17:05:49Z</time>
      </trkpt>
      <trkpt lat="46.34185" lon="-1.34432">
        <ele>5.5</ele>
        <time>2020-06-02T17:05:50Z</time>
      </trkpt>
      <trkpt lat="46.34186" lon="-1.34432">
        <ele>5.5</ele>
        <time>2020-06-02T17:05:51Z</time>
      </trkpt>
      <trkpt lat="46.34186" lon="-1.34432">
        <ele>5.5</ele>
        <time>2020-06-02T17:05:52Z</time>
      </trkpt>
      <trkpt lat="46.34185" lon="-1.34432">
        <ele>5.5</ele>
        <time>2020-06-02T17:05:53Z</time>
      </trkpt>
      <trkpt lat="46.34185" lon="-1.34432">
        <ele>5.5</ele>
        <time>2020-06-02T17:05:54Z</time>
      </trkpt>
      <trkpt lat="46.34185" lon="-1.34432">
        <ele>5.5</ele>
        <time>2020-06-02T17:05:55Z</time>
      </trkpt>
      <trkpt lat="46.34185" lon="-1.34432">
        <ele>5.5</ele>
        <time>2020-06-02T17:05:56Z</time>
      </trkpt>
      <trkpt lat="46.34185" lon="-1.34432">
        <ele>5.5</ele>
        <time>2020-06-02T17:05:57Z</time>
      </trkpt>
      <trkpt lat="46.34185" lon="-1.34431">
        <ele>5.5</ele>
        <time>2020-06-02T17:05:58Z</time>
      </trkpt>
      <trkpt lat="46.34185" lon="-1.34432">
        <ele>5.5</ele>
        <time>2020-06-02T17:05:59Z</time>
      </trkpt>
      <trkpt lat="46.34185" lon="-1.34432">
        <ele>5.5</ele>
        <time>2020-06-02T17:06:00Z</time>
      </trkpt>
      <trkpt lat="46.34185" lon="-1.34432">
        <ele>5.5</ele>
        <time>2020-06-02T17:06:01Z</time>
      </trkpt>
      <trkpt lat="46.34184" lon="-1.34433">
        <ele>5.5</ele>
        <time>2020-06-02T17:06:02Z</time>
      </trkpt>
      <trkpt lat="46.34184" lon="-1.34432">
        <ele>5.5</ele>
        <time>2020-06-02T17:06:03Z</time>
      </trkpt>
      <trkpt lat="46.34184" lon="-1.34433">
        <ele>5.5</ele>
        <time>2020-06-02T17:06:04Z</time>
      </trkpt>
      <trkpt lat="46.34184" lon="-1.34433">
        <ele>5.5</ele>
        <time>2020-06-02T17:06:05Z</time>
      </trkpt>
      <trkpt lat="46.34184" lon="-1.34433">
        <ele>5.5</ele>
        <time>2020-06-02T17:06:06Z</time>
      </trkpt>
      <trkpt lat="46.34184" lon="-1.34433">
        <ele>5.5</ele>
        <time>2020-06-02T17:06:07Z</time>
      </trkpt>
      <trkpt lat="46.34184" lon="-1.34433">
        <ele>5.5</ele>
        <time>2020-06-02T17:06:08Z</time>
      </trkpt>
      <trkpt lat="46.34184" lon="-1.34433">
        <ele>5.5</ele>
        <time>2020-06-02T17:06:09Z</time>
      </trkpt>
      <trkpt lat="46.34184" lon="-1.34433">
        <ele>5.5</ele>
        <time>2020-06-02T17:06:10Z</time>
      </trkpt>
      <trkpt lat="46.34184" lon="-1.34433">
        <ele>5.5</ele>
        <time>2020-06-02T17:06:11Z</time>
      </trkpt>
      <trkpt lat="46.34184" lon="-1.34433">
        <ele>5.5</ele>
        <time>2020-06-02T17:06:12Z</time>
      </trkpt>
      <trkpt lat="46.34184" lon="-1.34433">
        <ele>5.5</ele>
        <time>2020-06-02T17:06:13Z</time>
      </trkpt>
      <trkpt lat="46.34184" lon="-1.34433">
        <ele>5.5</ele>
        <time>2020-06-02T17:06:14Z</time>
      </trkpt>
      <trkpt lat="46.34184" lon="-1.34433">
        <ele>5.5</ele>
        <time>2020-06-02T17:06:15Z</time>
      </trkpt>
      <trkpt lat="46.34184" lon="-1.34433">
        <ele>5.5</ele>
        <time>2020-06-02T17:06:16Z</time>
      </trkpt>
      <trkpt lat="46.34184" lon="-1.34433">
        <ele>5.5</ele>
        <time>2020-06-02T17:06:17Z</time>
      </trkpt>
      <trkpt lat="46.34184" lon="-1.34433">
        <ele>5.5</ele>
        <time>2020-06-02T17:06:18Z</time>
      </trkpt>
      <trkpt lat="46.34183" lon="-1.34434">
        <ele>5.5</ele>
        <time>2020-06-02T17:06:19Z</time>
      </trkpt>
      <trkpt lat="46.34183" lon="-1.34434">
        <ele>5.5</ele>
        <time>2020-06-02T17:06:20Z</time>
      </trkpt>
      <trkpt lat="46.34183" lon="-1.34434">
        <ele>5.5</ele>
        <time>2020-06-02T17:06:21Z</time>
      </trkpt>
      <trkpt lat="46.34183" lon="-1.34434">
        <ele>5.5</ele>
        <time>2020-06-02T17:06:22Z</time>
      </trkpt>
      <trkpt lat="46.34183" lon="-1.34434">
        <ele>5.5</ele>
        <time>2020-06-02T17:06:23Z</time>
      </trkpt>
      <trkpt lat="46.34183" lon="-1.34434">
        <ele>5.5</ele>
        <time>2020-06-02T17:06:24Z</time>
      </trkpt>
      <trkpt lat="46.34183" lon="-1.34434">
        <ele>5.5</ele>
        <time>2020-06-02T17:06:25Z</time>
      </trkpt>
      <trkpt lat="46.34183" lon="-1.34434">
        <ele>5.5</ele>
        <time>2020-06-02T17:06:26Z</time>
      </trkpt>
      <trkpt lat="46.34183" lon="-1.34434">
        <ele>5.5</ele>
        <time>2020-06-02T17:06:27Z</time>
      </trkpt>
      <trkpt lat="46.34183" lon="-1.34434">
        <ele>5.5</ele>
        <time>2020-06-02T17:06:28Z</time>
      </trkpt>
      <trkpt lat="46.34183" lon="-1.34434">
        <ele>5.5</ele>
        <time>2020-06-02T17:06:29Z</time>
      </trkpt>
      <trkpt lat="46.34183" lon="-1.34434">
        <ele>5.5</ele>
        <time>2020-06-02T17:06:30Z</time>
      </trkpt>
      <trkpt lat="46.34183" lon="-1.34434">
        <ele>5.5</ele>
        <time>2020-06-02T17:06:31Z</time>
      </trkpt>
      <trkpt lat="46.34183" lon="-1.34434">
        <ele>5.5</ele>
        <time>2020-06-02T17:06:32Z</time>
      </trkpt>
      <trkpt lat="46.34183" lon="-1.34434">
        <ele>5.5</ele>
        <time>2020-06-02T17:06:33Z</time>
      </trkpt>
      <trkpt lat="46.34183" lon="-1.34434">
        <ele>5.5</ele>
        <time>2020-06-02T17:06:34Z</time>
      </trkpt>
      <trkpt lat="46.34183" lon="-1.34434">
        <ele>5.5</ele>
        <time>2020-06-02T17:06:35Z</time>
      </trkpt>
      <trkpt lat="46.34183" lon="-1.34433">
        <ele>5.5</ele>
        <time>2020-06-02T17:06:36Z</time>
      </trkpt>
      <trkpt lat="46.34183" lon="-1.34433">
        <ele>5.5</ele>
        <time>2020-06-02T17:06:37Z</time>
      </trkpt>
      <trkpt lat="46.34183" lon="-1.34433">
        <ele>5.5</ele>
        <time>2020-06-02T17:06:38Z</time>
      </trkpt>
      <trkpt lat="46.34183" lon="-1.34433">
        <ele>5.5</ele>
        <time>2020-06-02T17:06:39Z</time>
      </trkpt>
      <trkpt lat="46.34183" lon="-1.34433">
        <ele>5.5</ele>
        <time>2020-06-02T17:06:40Z</time>
      </trkpt>
      <trkpt lat="46.34183" lon="-1.34433">
        <ele>5.5</ele>
        <time>2020-06-02T17:06:41Z</time>
      </trkpt>
      <trkpt lat="46.34182" lon="-1.34433">
        <ele>5.5</ele>
        <time>2020-06-02T17:06:42Z</time>
      </trkpt>
      <trkpt lat="46.34182" lon="-1.34433">
        <ele>5.5</ele>
        <time>2020-06-02T17:06:43Z</time>
      </trkpt>
      <trkpt lat="46.34182" lon="-1.34434">
        <ele>5.5</ele>
        <time>2020-06-02T17:06:44Z</time>
      </trkpt>
      <trkpt lat="46.34182" lon="-1.34434">
        <ele>5.5</ele>
        <time>2020-06-02T17:06:45Z</time>
      </trkpt>
      <trkpt lat="46.34182" lon="-1.34434">
        <ele>5.5</ele>
        <time>2020-06-02T17:06:46Z</time>
      </trkpt>
      <trkpt lat="46.34182" lon="-1.34434">
        <ele>5.5</ele>
        <time>2020-06-02T17:06:47Z</time>
      </trkpt>
      <trkpt lat="46.34182" lon="-1.34434">
        <ele>5.5</ele>
        <time>2020-06-02T17:06:48Z</time>
      </trkpt>
      <trkpt lat="46.34182" lon="-1.34434">
        <ele>5.5</ele>
        <time>2020-06-02T17:06:49Z</time>
      </trkpt>
      <trkpt lat="46.34182" lon="-1.34434">
        <ele>5.5</ele>
        <time>2020-06-02T17:06:50Z</time>
      </trkpt>
      <trkpt lat="46.34183" lon="-1.34434">
        <ele>5.5</ele>
        <time>2020-06-02T17:06:51Z</time>
      </trkpt>
      <trkpt lat="46.34183" lon="-1.34434">
        <ele>5.5</ele>
        <time>2020-06-02T17:06:52Z</time>
      </trkpt>
      <trkpt lat="46.34183" lon="-1.34434">
        <ele>5.5</ele>
        <time>2020-06-02T17:06:53Z</time>
      </trkpt>
      <trkpt lat="46.34183" lon="-1.34434">
        <ele>5.5</ele>
        <time>2020-06-02T17:06:54Z</time>
      </trkpt>
      <trkpt lat="46.34183" lon="-1.34434">
        <ele>5.5</ele>
        <time>2020-06-02T17:06:55Z</time>
      </trkpt>
      <trkpt lat="46.34183" lon="-1.34433">
        <ele>5.5</ele>
        <time>2020-06-02T17:06:56Z</time>
      </trkpt>
      <trkpt lat="46.34183" lon="-1.34433">
        <ele>5.5</ele>
        <time>2020-06-02T17:06:57Z</time>
      </trkpt>
      <trkpt lat="46.34183" lon="-1.34433">
        <ele>5.5</ele>
        <time>2020-06-02T17:06:58Z</time>
      </trkpt>
      <trkpt lat="46.34183" lon="-1.34433">
        <ele>5.5</ele>
        <time>2020-06-02T17:06:59Z</time>
      </trkpt>
      <trkpt lat="46.34183" lon="-1.34433">
        <ele>5.5</ele>
        <time>2020-06-02T17:07:00Z</time>
      </trkpt>
      <trkpt lat="46.34183" lon="-1.34433">
        <ele>5.5</ele>
        <time>2020-06-02T17:07:01Z</time>
      </trkpt>
      <trkpt lat="46.34183" lon="-1.34433">
        <ele>5.5</ele>
        <time>2020-06-02T17:07:02Z</time>
      </trkpt>
      <trkpt lat="46.34183" lon="-1.34433">
        <ele>5.5</ele>
        <time>2020-06-02T17:07:03Z</time>
      </trkpt>
      <trkpt lat="46.34183" lon="-1.34433">
        <ele>5.5</ele>
        <time>2020-06-02T17:07:04Z</time>
      </trkpt>
      <trkpt lat="46.34183" lon="-1.34433">
        <ele>5.5</ele>
        <time>2020-06-02T17:07:05Z</time>
      </trkpt>
      <trkpt lat="46.34183" lon="-1.34433">
        <ele>5.5</ele>
        <time>2020-06-02T17:07:06Z</time>
      </trkpt>
      <trkpt lat="46.34183" lon="-1.34433">
        <ele>5.5</ele>
        <time>2020-06-02T17:07:07Z</time>
      </trkpt>
      <trkpt lat="46.34183" lon="-1.34433">
        <ele>5.5</ele>
        <time>2020-06-02T17:07:08Z</time>
      </trkpt>
      <trkpt lat="46.34183" lon="-1.34433">
        <ele>5.5</ele>
        <time>2020-06-02T17:07:09Z</time>
      </trkpt>
      <trkpt lat="46.34182" lon="-1.34433">
        <ele>5.5</ele>
        <time>2020-06-02T17:07:10Z</time>
      </trkpt>
      <trkpt lat="46.34182" lon="-1.34433">
        <ele>5.5</ele>
        <time>2020-06-02T17:07:11Z</time>
      </trkpt>
      <trkpt lat="46.34182" lon="-1.34433">
        <ele>5.5</ele>
        <time>2020-06-02T17:07:12Z</time>
      </trkpt>
      <trkpt lat="46.34182" lon="-1.34433">
        <ele>5.5</ele>
        <time>2020-06-02T17:07:13Z</time>
      </trkpt>
      <trkpt lat="46.34182" lon="-1.34434">
        <ele>5.5</ele>
        <time>2020-06-02T17:07:14Z</time>
      </trkpt>
      <trkpt lat="46.34182" lon="-1.34434">
        <ele>5.5</ele>
        <time>2020-06-02T17:07:15Z</time>
      </trkpt>
      <trkpt lat="46.34182" lon="-1.34433">
        <ele>5.5</ele>
        <time>2020-06-02T17:07:16Z</time>
      </trkpt>
      <trkpt lat="46.34182" lon="-1.34433">
        <ele>5.5</ele>
        <time>2020-06-02T17:07:17Z</time>
      </trkpt>
      <trkpt lat="46.34182" lon="-1.34433">
        <ele>5.5</ele>
        <time>2020-06-02T17:07:18Z</time>
      </trkpt>
      <trkpt lat="46.34182" lon="-1.34433">
        <ele>5.5</ele>
        <time>2020-06-02T17:07:19Z</time>
      </trkpt>
      <trkpt lat="46.34182" lon="-1.34433">
        <ele>5.5</ele>
        <time>2020-06-02T17:07:20Z</time>
      </trkpt>
      <trkpt lat="46.34183" lon="-1.34434">
        <ele>5.5</ele>
        <time>2020-06-02T17:07:21Z</time>
      </trkpt>
      <trkpt lat="46.34183" lon="-1.34434">
        <ele>5.6</ele>
        <time>2020-06-02T17:07:22Z</time>
      </trkpt>
      <trkpt lat="46.34183" lon="-1.34434">
        <ele>5.6</ele>
        <time>2020-06-02T17:07:23Z</time>
      </trkpt>
      <trkpt lat="46.34183" lon="-1.34434">
        <ele>5.6</ele>
        <time>2020-06-02T17:07:24Z</time>
      </trkpt>
      <trkpt lat="46.34183" lon="-1.34434">
        <ele>5.6</ele>
        <time>2020-06-02T17:07:25Z</time>
      </trkpt>
      <trkpt lat="46.34183" lon="-1.34434">
        <ele>5.6</ele>
        <time>2020-06-02T17:07:26Z</time>
      </trkpt>
      <trkpt lat="46.34183" lon="-1.34434">
        <ele>5.6</ele>
        <time>2020-06-02T17:07:27Z</time>
      </trkpt>
      <trkpt lat="46.34183" lon="-1.34434">
        <ele>5.6</ele>
        <time>2020-06-02T17:07:28Z</time>
      </trkpt>
      <trkpt lat="46.34183" lon="-1.34434">
        <ele>5.6</ele>
        <time>2020-06-02T17:07:29Z</time>
      </trkpt>
      <trkpt lat="46.34183" lon="-1.34435">
        <ele>5.6</ele>
        <time>2020-06-02T17:07:30Z</time>
      </trkpt>
      <trkpt lat="46.34183" lon="-1.34435">
        <ele>5.6</ele>
        <time>2020-06-02T17:07:31Z</time>
      </trkpt>
      <trkpt lat="46.34183" lon="-1.34435">
        <ele>5.6</ele>
        <time>2020-06-02T17:07:32Z</time>
      </trkpt>
      <trkpt lat="46.34183" lon="-1.34435">
        <ele>5.6</ele>
        <time>2020-06-02T17:07:33Z</time>
      </trkpt>
      <trkpt lat="46.34183" lon="-1.34435">
        <ele>5.6</ele>
        <time>2020-06-02T17:07:34Z</time>
      </trkpt>
      <trkpt lat="46.34183" lon="-1.34435">
        <ele>5.6</ele>
        <time>2020-06-02T17:07:35Z</time>
      </trkpt>
      <trkpt lat="46.34183" lon="-1.34435">
        <ele>5.6</ele>
        <time>2020-06-02T17:07:36Z</time>
      </trkpt>
      <trkpt lat="46.34183" lon="-1.34435">
        <ele>5.6</ele>
        <time>2020-06-02T17:07:37Z</time>
      </trkpt>
      <trkpt lat="46.34183" lon="-1.34435">
        <ele>5.6</ele>
        <time>2020-06-02T17:07:38Z</time>
      </trkpt>
      <trkpt lat="46.34183" lon="-1.34435">
        <ele>5.6</ele>
        <time>2020-06-02T17:07:39Z</time>
      </trkpt>
      <trkpt lat="46.34183" lon="-1.34435">
        <ele>5.6</ele>
        <time>2020-06-02T17:07:40Z</time>
      </trkpt>
      <trkpt lat="46.34183" lon="-1.34435">
        <ele>5.6</ele>
        <time>2020-06-02T17:07:41Z</time>
      </trkpt>
      <trkpt lat="46.34183" lon="-1.34435">
        <ele>5.6</ele>
        <time>2020-06-02T17:07:42Z</time>
      </trkpt>
      <trkpt lat="46.34183" lon="-1.34434">
        <ele>5.6</ele>
        <time>2020-06-02T17:07:43Z</time>
      </trkpt>
      <trkpt lat="46.34183" lon="-1.34434">
        <ele>5.6</ele>
        <time>2020-06-02T17:07:44Z</time>
      </trkpt>
      <trkpt lat="46.34183" lon="-1.34434">
        <ele>5.6</ele>
        <time>2020-06-02T17:07:45Z</time>
      </trkpt>
      <trkpt lat="46.34183" lon="-1.34434">
        <ele>5.6</ele>
        <time>2020-06-02T17:07:46Z</time>
      </trkpt>
      <trkpt lat="46.34183" lon="-1.34434">
        <ele>5.6</ele>
        <time>2020-06-02T17:07:47Z</time>
      </trkpt>
      <trkpt lat="46.34184" lon="-1.34433">
        <ele>5.6</ele>
        <time>2020-06-02T17:07:48Z</time>
      </trkpt>
      <trkpt lat="46.34184" lon="-1.34432">
        <ele>5.6</ele>
        <time>2020-06-02T17:07:49Z</time>
      </trkpt>
      <trkpt lat="46.34184" lon="-1.34431">
        <ele>5.6</ele>
        <time>2020-06-02T17:07:50Z</time>
      </trkpt>
      <trkpt lat="46.34184" lon="-1.34431">
        <ele>5.6</ele>
        <time>2020-06-02T17:07:51Z</time>
      </trkpt>
      <trkpt lat="46.34184" lon="-1.34431">
        <ele>5.6</ele>
        <time>2020-06-02T17:07:52Z</time>
      </trkpt>
      <trkpt lat="46.34184" lon="-1.34432">
        <ele>5.6</ele>
        <time>2020-06-02T17:07:53Z</time>
      </trkpt>
      <trkpt lat="46.34184" lon="-1.34432">
        <ele>5.6</ele>
        <time>2020-06-02T17:07:54Z</time>
      </trkpt>
      <trkpt lat="46.34184" lon="-1.34432">
        <ele>5.6</ele>
        <time>2020-06-02T17:07:55Z</time>
      </trkpt>
      <trkpt lat="46.34184" lon="-1.34432">
        <ele>5.6</ele>
        <time>2020-06-02T17:07:56Z</time>
      </trkpt>
      <trkpt lat="46.34184" lon="-1.34432">
        <ele>5.6</ele>
        <time>2020-06-02T17:07:57Z</time>
      </trkpt>
      <trkpt lat="46.34184" lon="-1.34432">
        <ele>5.6</ele>
        <time>2020-06-02T17:07:58Z</time>
      </trkpt>
      <trkpt lat="46.34184" lon="-1.34432">
        <ele>5.6</ele>
        <time>2020-06-02T17:07:59Z</time>
      </trkpt>
      <trkpt lat="46.34184" lon="-1.34432">
        <ele>5.6</ele>
        <time>2020-06-02T17:08:00Z</time>
      </trkpt>
      <trkpt lat="46.34184" lon="-1.34432">
        <ele>5.6</ele>
        <time>2020-06-02T17:08:01Z</time>
      </trkpt>
      <trkpt lat="46.34184" lon="-1.34432">
        <ele>5.6</ele>
        <time>2020-06-02T17:08:02Z</time>
      </trkpt>
      <trkpt lat="46.34184" lon="-1.34432">
        <ele>5.6</ele>
        <time>2020-06-02T17:08:03Z</time>
      </trkpt>
      <trkpt lat="46.34184" lon="-1.34432">
        <ele>5.6</ele>
        <time>2020-06-02T17:08:04Z</time>
      </trkpt>
      <trkpt lat="46.34184" lon="-1.34432">
        <ele>5.6</ele>
        <time>2020-06-02T17:08:05Z</time>
      </trkpt>
      <trkpt lat="46.34184" lon="-1.34433">
        <ele>5.6</ele>
        <time>2020-06-02T17:08:06Z</time>
      </trkpt>
      <trkpt lat="46.34184" lon="-1.34432">
        <ele>5.6</ele>
        <time>2020-06-02T17:08:07Z</time>
      </trkpt>
      <trkpt lat="46.34184" lon="-1.34433">
        <ele>5.6</ele>
        <time>2020-06-02T17:08:08Z</time>
      </trkpt>
      <trkpt lat="46.34184" lon="-1.34433">
        <ele>5.6</ele>
        <time>2020-06-02T17:08:09Z</time>
      </trkpt>
      <trkpt lat="46.34184" lon="-1.34433">
        <ele>5.6</ele>
        <time>2020-06-02T17:08:10Z</time>
      </trkpt>
      <trkpt lat="46.34184" lon="-1.34433">
        <ele>5.6</ele>
        <time>2020-06-02T17:08:11Z</time>
      </trkpt>
      <trkpt lat="46.34184" lon="-1.34433">
        <ele>5.6</ele>
        <time>2020-06-02T17:08:12Z</time>
      </trkpt>
      <trkpt lat="46.34184" lon="-1.34433">
        <ele>5.6</ele>
        <time>2020-06-02T17:08:13Z</time>
      </trkpt>
      <trkpt lat="46.34184" lon="-1.34433">
        <ele>5.6</ele>
        <time>2020-06-02T17:08:14Z</time>
      </trkpt>
      <trkpt lat="46.34184" lon="-1.34433">
        <ele>5.6</ele>
        <time>2020-06-02T17:08:15Z</time>
      </trkpt>
      <trkpt lat="46.34184" lon="-1.34433">
        <ele>5.6</ele>
        <time>2020-06-02T17:08:16Z</time>
      </trkpt>
      <trkpt lat="46.34184" lon="-1.34433">
        <ele>5.6</ele>
        <time>2020-06-02T17:08:17Z</time>
      </trkpt>
      <trkpt lat="46.34184" lon="-1.34433">
        <ele>5.6</ele>
        <time>2020-06-02T17:08:18Z</time>
      </trkpt>
      <trkpt lat="46.34184" lon="-1.34433">
        <ele>5.6</ele>
        <time>2020-06-02T17:08:19Z</time>
      </trkpt>
      <trkpt lat="46.34184" lon="-1.34433">
        <ele>5.6</ele>
        <time>2020-06-02T17:08:20Z</time>
      </trkpt>
      <trkpt lat="46.34184" lon="-1.34433">
        <ele>5.6</ele>
        <time>2020-06-02T17:08:21Z</time>
      </trkpt>
      <trkpt lat="46.34184" lon="-1.34433">
        <ele>5.6</ele>
        <time>2020-06-02T17:08:22Z</time>
      </trkpt>
      <trkpt lat="46.34184" lon="-1.34433">
        <ele>5.6</ele>
        <time>2020-06-02T17:08:23Z</time>
      </trkpt>
      <trkpt lat="46.34184" lon="-1.34433">
        <ele>5.6</ele>
        <time>2020-06-02T17:08:24Z</time>
      </trkpt>
      <trkpt lat="46.34184" lon="-1.34434">
        <ele>5.6</ele>
        <time>2020-06-02T17:08:25Z</time>
      </trkpt>
      <trkpt lat="46.34184" lon="-1.34434">
        <ele>5.6</ele>
        <time>2020-06-02T17:08:26Z</time>
      </trkpt>
      <trkpt lat="46.34184" lon="-1.34434">
        <ele>5.6</ele>
        <time>2020-06-02T17:08:27Z</time>
      </trkpt>
      <trkpt lat="46.34184" lon="-1.34434">
        <ele>5.6</ele>
        <time>2020-06-02T17:08:28Z</time>
      </trkpt>
      <trkpt lat="46.34184" lon="-1.34434">
        <ele>5.6</ele>
        <time>2020-06-02T17:08:29Z</time>
      </trkpt>
      <trkpt lat="46.34184" lon="-1.34434">
        <ele>5.6</ele>
        <time>2020-06-02T17:08:30Z</time>
      </trkpt>
      <trkpt lat="46.34184" lon="-1.34434">
        <ele>5.6</ele>
        <time>2020-06-02T17:08:31Z</time>
      </trkpt>
      <trkpt lat="46.34185" lon="-1.34434">
        <ele>5.6</ele>
        <time>2020-06-02T17:08:32Z</time>
      </trkpt>
      <trkpt lat="46.34185" lon="-1.34434">
        <ele>5.6</ele>
        <time>2020-06-02T17:08:33Z</time>
      </trkpt>
      <trkpt lat="46.34185" lon="-1.34434">
        <ele>5.6</ele>
        <time>2020-06-02T17:08:34Z</time>
      </trkpt>
      <trkpt lat="46.34185" lon="-1.34434">
        <ele>5.6</ele>
        <time>2020-06-02T17:08:35Z</time>
      </trkpt>
      <trkpt lat="46.34184" lon="-1.34434">
        <ele>5.6</ele>
        <time>2020-06-02T17:08:36Z</time>
      </trkpt>
      <trkpt lat="46.34184" lon="-1.34434">
        <ele>5.6</ele>
        <time>2020-06-02T17:08:37Z</time>
      </trkpt>
      <trkpt lat="46.34184" lon="-1.34434">
        <ele>5.6</ele>
        <time>2020-06-02T17:08:38Z</time>
      </trkpt>
      <trkpt lat="46.34184" lon="-1.34434">
        <ele>5.6</ele>
        <time>2020-06-02T17:08:39Z</time>
      </trkpt>
      <trkpt lat="46.34184" lon="-1.34434">
        <ele>5.6</ele>
        <time>2020-06-02T17:08:40Z</time>
      </trkpt>
      <trkpt lat="46.34184" lon="-1.34434">
        <ele>5.6</ele>
        <time>2020-06-02T17:08:41Z</time>
      </trkpt>
      <trkpt lat="46.34184" lon="-1.34434">
        <ele>5.6</ele>
        <time>2020-06-02T17:08:42Z</time>
      </trkpt>
      <trkpt lat="46.34184" lon="-1.34434">
        <ele>5.6</ele>
        <time>2020-06-02T17:08:43Z</time>
      </trkpt>
      <trkpt lat="46.34184" lon="-1.34434">
        <ele>5.6</ele>
        <time>2020-06-02T17:08:44Z</time>
      </trkpt>
      <trkpt lat="46.34184" lon="-1.34434">
        <ele>5.6</ele>
        <time>2020-06-02T17:08:45Z</time>
      </trkpt>
      <trkpt lat="46.34184" lon="-1.34434">
        <ele>5.6</ele>
        <time>2020-06-02T17:08:46Z</time>
      </trkpt>
      <trkpt lat="46.34184" lon="-1.34434">
        <ele>5.6</ele>
        <time>2020-06-02T17:08:47Z</time>
      </trkpt>
      <trkpt lat="46.34184" lon="-1.34434">
        <ele>5.6</ele>
        <time>2020-06-02T17:08:48Z</time>
      </trkpt>
      <trkpt lat="46.34184" lon="-1.34434">
        <ele>5.6</ele>
        <time>2020-06-02T17:08:49Z</time>
      </trkpt>
      <trkpt lat="46.34184" lon="-1.34434">
        <ele>5.6</ele>
        <time>2020-06-02T17:08:50Z</time>
      </trkpt>
      <trkpt lat="46.34184" lon="-1.34434">
        <ele>5.6</ele>
        <time>2020-06-02T17:08:51Z</time>
      </trkpt>
      <trkpt lat="46.34184" lon="-1.34435">
        <ele>5.6</ele>
        <time>2020-06-02T17:08:52Z</time>
      </trkpt>
      <trkpt lat="46.34184" lon="-1.34435">
        <ele>5.6</ele>
        <time>2020-06-02T17:08:53Z</time>
      </trkpt>
      <trkpt lat="46.34184" lon="-1.34435">
        <ele>5.6</ele>
        <time>2020-06-02T17:08:54Z</time>
      </trkpt>
      <trkpt lat="46.34184" lon="-1.34435">
        <ele>5.6</ele>
        <time>2020-06-02T17:08:55Z</time>
      </trkpt>
      <trkpt lat="46.34184" lon="-1.34435">
        <ele>5.6</ele>
        <time>2020-06-02T17:08:56Z</time>
      </trkpt>
      <trkpt lat="46.34184" lon="-1.34435">
        <ele>5.6</ele>
        <time>2020-06-02T17:08:57Z</time>
      </trkpt>
      <trkpt lat="46.34184" lon="-1.34435">
        <ele>5.6</ele>
        <time>2020-06-02T17:08:58Z</time>
      </trkpt>
      <trkpt lat="46.34184" lon="-1.34435">
        <ele>5.6</ele>
        <time>2020-06-02T17:08:59Z</time>
      </trkpt>
      <trkpt lat="46.34184" lon="-1.34435">
        <ele>5.6</ele>
        <time>2020-06-02T17:09:00Z</time>
      </trkpt>
      <trkpt lat="46.34184" lon="-1.34435">
        <ele>5.6</ele>
        <time>2020-06-02T17:09:01Z</time>
      </trkpt>
      <trkpt lat="46.34184" lon="-1.34434">
        <ele>5.6</ele>
        <time>2020-06-02T17:09:02Z</time>
      </trkpt>
      <trkpt lat="46.34184" lon="-1.34435">
        <ele>5.6</ele>
        <time>2020-06-02T17:09:03Z</time>
      </trkpt>
      <trkpt lat="46.34184" lon="-1.34434">
        <ele>5.6</ele>
        <time>2020-06-02T17:09:04Z</time>
      </trkpt>
      <trkpt lat="46.34184" lon="-1.34434">
        <ele>5.6</ele>
        <time>2020-06-02T17:09:05Z</time>
      </trkpt>
      <trkpt lat="46.34184" lon="-1.34434">
        <ele>5.6</ele>
        <time>2020-06-02T17:09:06Z</time>
      </trkpt>
      <trkpt lat="46.34184" lon="-1.34435">
        <ele>5.6</ele>
        <time>2020-06-02T17:09:07Z</time>
      </trkpt>
      <trkpt lat="46.34184" lon="-1.34435">
        <ele>5.6</ele>
        <time>2020-06-02T17:09:08Z</time>
      </trkpt>
      <trkpt lat="46.34184" lon="-1.34434">
        <ele>5.6</ele>
        <time>2020-06-02T17:09:09Z</time>
      </trkpt>
      <trkpt lat="46.34184" lon="-1.34434">
        <ele>5.6</ele>
        <time>2020-06-02T17:09:10Z</time>
      </trkpt>
      <trkpt lat="46.34184" lon="-1.34435">
        <ele>5.6</ele>
        <time>2020-06-02T17:09:11Z</time>
      </trkpt>
      <trkpt lat="46.34184" lon="-1.34435">
        <ele>5.6</ele>
        <time>2020-06-02T17:09:12Z</time>
      </trkpt>
      <trkpt lat="46.34184" lon="-1.34435">
        <ele>5.6</ele>
        <time>2020-06-02T17:09:13Z</time>
      </trkpt>
      <trkpt lat="46.34184" lon="-1.34435">
        <ele>5.6</ele>
        <time>2020-06-02T17:09:14Z</time>
      </trkpt>
      <trkpt lat="46.34184" lon="-1.34435">
        <ele>5.6</ele>
        <time>2020-06-02T17:09:15Z</time>
      </trkpt>
      <trkpt lat="46.34184" lon="-1.34435">
        <ele>5.6</ele>
        <time>2020-06-02T17:09:16Z</time>
      </trkpt>
      <trkpt lat="46.34184" lon="-1.34435">
        <ele>5.6</ele>
        <time>2020-06-02T17:09:17Z</time>
      </trkpt>
      <trkpt lat="46.34184" lon="-1.34435">
        <ele>5.6</ele>
        <time>2020-06-02T17:09:18Z</time>
      </trkpt>
      <trkpt lat="46.34184" lon="-1.34435">
        <ele>5.6</ele>
        <time>2020-06-02T17:09:19Z</time>
      </trkpt>
      <trkpt lat="46.34184" lon="-1.34435">
        <ele>5.6</ele>
        <time>2020-06-02T17:09:20Z</time>
      </trkpt>
      <trkpt lat="46.34184" lon="-1.34435">
        <ele>5.6</ele>
        <time>2020-06-02T17:09:21Z</time>
      </trkpt>
      <trkpt lat="46.34184" lon="-1.34435">
        <ele>5.6</ele>
        <time>2020-06-02T17:09:22Z</time>
      </trkpt>
      <trkpt lat="46.34184" lon="-1.34435">
        <ele>5.6</ele>
        <time>2020-06-02T17:09:23Z</time>
      </trkpt>
      <trkpt lat="46.34184" lon="-1.34435">
        <ele>5.6</ele>
        <time>2020-06-02T17:09:24Z</time>
      </trkpt>
      <trkpt lat="46.34184" lon="-1.34434">
        <ele>5.6</ele>
        <time>2020-06-02T17:09:25Z</time>
      </trkpt>
      <trkpt lat="46.34184" lon="-1.34434">
        <ele>5.6</ele>
        <time>2020-06-02T17:09:26Z</time>
      </trkpt>
      <trkpt lat="46.34184" lon="-1.34434">
        <ele>5.6</ele>
        <time>2020-06-02T17:09:27Z</time>
      </trkpt>
      <trkpt lat="46.34184" lon="-1.34434">
        <ele>5.6</ele>
        <time>2020-06-02T17:09:28Z</time>
      </trkpt>
      <trkpt lat="46.34185" lon="-1.34434">
        <ele>5.6</ele>
        <time>2020-06-02T17:09:29Z</time>
      </trkpt>
      <trkpt lat="46.34185" lon="-1.34434">
        <ele>5.6</ele>
        <time>2020-06-02T17:09:30Z</time>
      </trkpt>
      <trkpt lat="46.34185" lon="-1.34434">
        <ele>5.6</ele>
        <time>2020-06-02T17:09:31Z</time>
      </trkpt>
      <trkpt lat="46.34185" lon="-1.34434">
        <ele>5.6</ele>
        <time>2020-06-02T17:09:32Z</time>
      </trkpt>
      <trkpt lat="46.34185" lon="-1.34434">
        <ele>5.6</ele>
        <time>2020-06-02T17:09:33Z</time>
      </trkpt>
      <trkpt lat="46.34185" lon="-1.34435">
        <ele>5.6</ele>
        <time>2020-06-02T17:09:34Z</time>
      </trkpt>
      <trkpt lat="46.34185" lon="-1.34435">
        <ele>5.6</ele>
        <time>2020-06-02T17:09:35Z</time>
      </trkpt>
      <trkpt lat="46.34185" lon="-1.34435">
        <ele>5.6</ele>
        <time>2020-06-02T17:09:36Z</time>
      </trkpt>
      <trkpt lat="46.34185" lon="-1.34435">
        <ele>5.6</ele>
        <time>2020-06-02T17:09:37Z</time>
      </trkpt>
      <trkpt lat="46.34185" lon="-1.34435">
        <ele>5.6</ele>
        <time>2020-06-02T17:09:38Z</time>
      </trkpt>
      <trkpt lat="46.34185" lon="-1.34435">
        <ele>5.6</ele>
        <time>2020-06-02T17:09:39Z</time>
      </trkpt>
      <trkpt lat="46.34185" lon="-1.34435">
        <ele>5.6</ele>
        <time>2020-06-02T17:09:40Z</time>
      </trkpt>
      <trkpt lat="46.34185" lon="-1.34435">
        <ele>5.6</ele>
        <time>2020-06-02T17:09:41Z</time>
      </trkpt>
      <trkpt lat="46.34185" lon="-1.34435">
        <ele>5.6</ele>
        <time>2020-06-02T17:09:42Z</time>
      </trkpt>
      <trkpt lat="46.34185" lon="-1.34435">
        <ele>5.6</ele>
        <time>2020-06-02T17:09:43Z</time>
      </trkpt>
      <trkpt lat="46.34185" lon="-1.34435">
        <ele>5.6</ele>
        <time>2020-06-02T17:09:44Z</time>
      </trkpt>
      <trkpt lat="46.34185" lon="-1.34435">
        <ele>5.6</ele>
        <time>2020-06-02T17:09:45Z</time>
      </trkpt>
      <trkpt lat="46.34185" lon="-1.34435">
        <ele>5.6</ele>
        <time>2020-06-02T17:09:46Z</time>
      </trkpt>
      <trkpt lat="46.34185" lon="-1.34435">
        <ele>5.6</ele>
        <time>2020-06-02T17:09:47Z</time>
      </trkpt>
      <trkpt lat="46.34185" lon="-1.34435">
        <ele>5.6</ele>
        <time>2020-06-02T17:09:48Z</time>
      </trkpt>
      <trkpt lat="46.34185" lon="-1.34435">
        <ele>5.6</ele>
        <time>2020-06-02T17:09:49Z</time>
      </trkpt>
      <trkpt lat="46.34185" lon="-1.34435">
        <ele>5.6</ele>
        <time>2020-06-02T17:09:50Z</time>
      </trkpt>
      <trkpt lat="46.34185" lon="-1.34435">
        <ele>5.6</ele>
        <time>2020-06-02T17:09:51Z</time>
      </trkpt>
      <trkpt lat="46.34185" lon="-1.34434">
        <ele>5.6</ele>
        <time>2020-06-02T17:09:52Z</time>
      </trkpt>
      <trkpt lat="46.34185" lon="-1.34434">
        <ele>5.6</ele>
        <time>2020-06-02T17:09:53Z</time>
      </trkpt>
      <trkpt lat="46.34185" lon="-1.34434">
        <ele>5.6</ele>
        <time>2020-06-02T17:09:54Z</time>
      </trkpt>
      <trkpt lat="46.34185" lon="-1.34434">
        <ele>5.6</ele>
        <time>2020-06-02T17:09:55Z</time>
      </trkpt>
      <trkpt lat="46.34185" lon="-1.34434">
        <ele>5.6</ele>
        <time>2020-06-02T17:09:56Z</time>
      </trkpt>
      <trkpt lat="46.34185" lon="-1.34434">
        <ele>5.6</ele>
        <time>2020-06-02T17:09:57Z</time>
      </trkpt>
      <trkpt lat="46.34185" lon="-1.34434">
        <ele>5.6</ele>
        <time>2020-06-02T17:09:58Z</time>
      </trkpt>
      <trkpt lat="46.34185" lon="-1.34434">
        <ele>5.6</ele>
        <time>2020-06-02T17:09:59Z</time>
      </trkpt>
      <trkpt lat="46.34185" lon="-1.34434">
        <ele>5.6</ele>
        <time>2020-06-02T17:10:00Z</time>
      </trkpt>
      <trkpt lat="46.34185" lon="-1.34434">
        <ele>5.6</ele>
        <time>2020-06-02T17:10:01Z</time>
      </trkpt>
      <trkpt lat="46.34185" lon="-1.34434">
        <ele>5.6</ele>
        <time>2020-06-02T17:10:02Z</time>
      </trkpt>
      <trkpt lat="46.34185" lon="-1.34434">
        <ele>5.6</ele>
        <time>2020-06-02T17:10:03Z</time>
      </trkpt>
      <trkpt lat="46.34185" lon="-1.34434">
        <ele>5.6</ele>
        <time>2020-06-02T17:10:04Z</time>
      </trkpt>
      <trkpt lat="46.34185" lon="-1.34434">
        <ele>5.6</ele>
        <time>2020-06-02T17:10:05Z</time>
      </trkpt>
      <trkpt lat="46.34185" lon="-1.34434">
        <ele>5.6</ele>
        <time>2020-06-02T17:10:06Z</time>
      </trkpt>
      <trkpt lat="46.34185" lon="-1.34434">
        <ele>5.6</ele>
        <time>2020-06-02T17:10:07Z</time>
      </trkpt>
      <trkpt lat="46.34185" lon="-1.34434">
        <ele>5.6</ele>
        <time>2020-06-02T17:10:08Z</time>
      </trkpt>
      <trkpt lat="46.34185" lon="-1.34434">
        <ele>5.6</ele>
        <time>2020-06-02T17:10:09Z</time>
      </trkpt>
      <trkpt lat="46.34185" lon="-1.34435">
        <ele>5.6</ele>
        <time>2020-06-02T17:10:10Z</time>
      </trkpt>
      <trkpt lat="46.34185" lon="-1.34435">
        <ele>5.6</ele>
        <time>2020-06-02T17:10:11Z</time>
      </trkpt>
      <trkpt lat="46.34185" lon="-1.34435">
        <ele>5.6</ele>
        <time>2020-06-02T17:10:12Z</time>
      </trkpt>
      <trkpt lat="46.34185" lon="-1.34435">
        <ele>5.6</ele>
        <time>2020-06-02T17:10:13Z</time>
      </trkpt>
      <trkpt lat="46.34185" lon="-1.34435">
        <ele>5.6</ele>
        <time>2020-06-02T17:10:14Z</time>
      </trkpt>
      <trkpt lat="46.34185" lon="-1.34435">
        <ele>5.6</ele>
        <time>2020-06-02T17:10:15Z</time>
      </trkpt>
      <trkpt lat="46.34185" lon="-1.34435">
        <ele>5.6</ele>
        <time>2020-06-02T17:10:16Z</time>
      </trkpt>
      <trkpt lat="46.34185" lon="-1.34435">
        <ele>5.6</ele>
        <time>2020-06-02T17:10:17Z</time>
      </trkpt>
      <trkpt lat="46.34185" lon="-1.34435">
        <ele>5.6</ele>
        <time>2020-06-02T17:10:18Z</time>
      </trkpt>
      <trkpt lat="46.34185" lon="-1.34435">
        <ele>5.6</ele>
        <time>2020-06-02T17:10:19Z</time>
      </trkpt>
      <trkpt lat="46.34185" lon="-1.34434">
        <ele>5.6</ele>
        <time>2020-06-02T17:10:20Z</time>
      </trkpt>
      <trkpt lat="46.34185" lon="-1.34434">
        <ele>5.6</ele>
        <time>2020-06-02T17:10:21Z</time>
      </trkpt>
      <trkpt lat="46.34185" lon="-1.34434">
        <ele>5.6</ele>
        <time>2020-06-02T17:10:22Z</time>
      </trkpt>
      <trkpt lat="46.34185" lon="-1.34435">
        <ele>5.6</ele>
        <time>2020-06-02T17:10:23Z</time>
      </trkpt>
      <trkpt lat="46.34185" lon="-1.34435">
        <ele>5.6</ele>
        <time>2020-06-02T17:10:24Z</time>
      </trkpt>
      <trkpt lat="46.34185" lon="-1.34435">
        <ele>5.6</ele>
        <time>2020-06-02T17:10:25Z</time>
      </trkpt>
      <trkpt lat="46.34185" lon="-1.34435">
        <ele>5.6</ele>
        <time>2020-06-02T17:10:26Z</time>
      </trkpt>
      <trkpt lat="46.34185" lon="-1.34435">
        <ele>5.6</ele>
        <time>2020-06-02T17:10:27Z</time>
      </trkpt>
      <trkpt lat="46.34185" lon="-1.34435">
        <ele>5.6</ele>
        <time>2020-06-02T17:10:28Z</time>
      </trkpt>
      <trkpt lat="46.34185" lon="-1.34435">
        <ele>5.6</ele>
        <time>2020-06-02T17:10:29Z</time>
      </trkpt>
      <trkpt lat="46.34185" lon="-1.34435">
        <ele>5.6</ele>
        <time>2020-06-02T17:10:30Z</time>
      </trkpt>
      <trkpt lat="46.34185" lon="-1.34435">
        <ele>5.7</ele>
        <time>2020-06-02T17:10:31Z</time>
      </trkpt>
      <trkpt lat="46.34185" lon="-1.34435">
        <ele>5.7</ele>
        <time>2020-06-02T17:10:32Z</time>
      </trkpt>
      <trkpt lat="46.34185" lon="-1.34435">
        <ele>5.7</ele>
        <time>2020-06-02T17:10:33Z</time>
      </trkpt>
      <trkpt lat="46.34185" lon="-1.34434">
        <ele>5.7</ele>
        <time>2020-06-02T17:10:34Z</time>
      </trkpt>
      <trkpt lat="46.34185" lon="-1.34434">
        <ele>5.7</ele>
        <time>2020-06-02T17:10:35Z</time>
      </trkpt>
      <trkpt lat="46.34185" lon="-1.34434">
        <ele>5.7</ele>
        <time>2020-06-02T17:10:36Z</time>
      </trkpt>
      <trkpt lat="46.34185" lon="-1.34434">
        <ele>5.7</ele>
        <time>2020-06-02T17:10:37Z</time>
      </trkpt>
      <trkpt lat="46.34185" lon="-1.34434">
        <ele>5.7</ele>
        <time>2020-06-02T17:10:38Z</time>
      </trkpt>
      <trkpt lat="46.34185" lon="-1.34434">
        <ele>5.7</ele>
        <time>2020-06-02T17:10:39Z</time>
      </trkpt>
      <trkpt lat="46.34185" lon="-1.34434">
        <ele>5.7</ele>
        <time>2020-06-02T17:10:40Z</time>
      </trkpt>
      <trkpt lat="46.34185" lon="-1.34434">
        <ele>5.7</ele>
        <time>2020-06-02T17:10:41Z</time>
      </trkpt>
      <trkpt lat="46.34185" lon="-1.34434">
        <ele>5.7</ele>
        <time>2020-06-02T17:10:42Z</time>
      </trkpt>
      <trkpt lat="46.34185" lon="-1.34434">
        <ele>5.7</ele>
        <time>2020-06-02T17:10:43Z</time>
      </trkpt>
      <trkpt lat="46.34185" lon="-1.34433">
        <ele>5.7</ele>
        <time>2020-06-02T17:10:44Z</time>
      </trkpt>
      <trkpt lat="46.34186" lon="-1.34433">
        <ele>5.7</ele>
        <time>2020-06-02T17:10:45Z</time>
      </trkpt>
      <trkpt lat="46.34186" lon="-1.34433">
        <ele>5.7</ele>
        <time>2020-06-02T17:10:46Z</time>
      </trkpt>
      <trkpt lat="46.34186" lon="-1.34433">
        <ele>5.7</ele>
        <time>2020-06-02T17:10:47Z</time>
      </trkpt>
      <trkpt lat="46.34187" lon="-1.34433">
        <ele>5.7</ele>
        <time>2020-06-02T17:10:48Z</time>
      </trkpt>
      <trkpt lat="46.34187" lon="-1.34433">
        <ele>5.7</ele>
        <time>2020-06-02T17:10:49Z</time>
      </trkpt>
      <trkpt lat="46.34186" lon="-1.34433">
        <ele>5.7</ele>
        <time>2020-06-02T17:10:50Z</time>
      </trkpt>
      <trkpt lat="46.34186" lon="-1.34433">
        <ele>5.7</ele>
        <time>2020-06-02T17:10:51Z</time>
      </trkpt>
      <trkpt lat="46.34186" lon="-1.34433">
        <ele>5.7</ele>
        <time>2020-06-02T17:10:52Z</time>
      </trkpt>
      <trkpt lat="46.34186" lon="-1.34433">
        <ele>5.7</ele>
        <time>2020-06-02T17:10:53Z</time>
      </trkpt>
      <trkpt lat="46.34186" lon="-1.34433">
        <ele>5.7</ele>
        <time>2020-06-02T17:10:54Z</time>
      </trkpt>
      <trkpt lat="46.34186" lon="-1.34433">
        <ele>5.7</ele>
        <time>2020-06-02T17:10:55Z</time>
      </trkpt>
      <trkpt lat="46.34186" lon="-1.34433">
        <ele>5.7</ele>
        <time>2020-06-02T17:10:56Z</time>
      </trkpt>
      <trkpt lat="46.34186" lon="-1.34433">
        <ele>5.7</ele>
        <time>2020-06-02T17:10:57Z</time>
      </trkpt>
      <trkpt lat="46.34186" lon="-1.34433">
        <ele>5.7</ele>
        <time>2020-06-02T17:10:58Z</time>
      </trkpt>
      <trkpt lat="46.34186" lon="-1.34433">
        <ele>5.7</ele>
        <time>2020-06-02T17:10:59Z</time>
      </trkpt>
      <trkpt lat="46.34186" lon="-1.34433">
        <ele>5.7</ele>
        <time>2020-06-02T17:11:00Z</time>
      </trkpt>
      <trkpt lat="46.34186" lon="-1.34433">
        <ele>5.7</ele>
        <time>2020-06-02T17:11:01Z</time>
      </trkpt>
      <trkpt lat="46.34186" lon="-1.34433">
        <ele>5.7</ele>
        <time>2020-06-02T17:11:02Z</time>
      </trkpt>
      <trkpt lat="46.34186" lon="-1.34433">
        <ele>5.7</ele>
        <time>2020-06-02T17:11:03Z</time>
      </trkpt>
      <trkpt lat="46.34186" lon="-1.34433">
        <ele>5.7</ele>
        <time>2020-06-02T17:11:04Z</time>
      </trkpt>
      <trkpt lat="46.34185" lon="-1.34434">
        <ele>5.7</ele>
        <time>2020-06-02T17:11:05Z</time>
      </trkpt>
      <trkpt lat="46.34185" lon="-1.34433">
        <ele>5.7</ele>
        <time>2020-06-02T17:11:06Z</time>
      </trkpt>
      <trkpt lat="46.34185" lon="-1.34434">
        <ele>5.7</ele>
        <time>2020-06-02T17:11:07Z</time>
      </trkpt>
      <trkpt lat="46.34185" lon="-1.34435">
        <ele>5.7</ele>
        <time>2020-06-02T17:11:08Z</time>
      </trkpt>
      <trkpt lat="46.34184" lon="-1.34435">
        <ele>5.7</ele>
        <time>2020-06-02T17:11:09Z</time>
      </trkpt>
      <trkpt lat="46.34184" lon="-1.34436">
        <ele>5.7</ele>
        <time>2020-06-02T17:11:10Z</time>
      </trkpt>
      <trkpt lat="46.34184" lon="-1.34435">
        <ele>5.7</ele>
        <time>2020-06-02T17:11:11Z</time>
      </trkpt>
      <trkpt lat="46.34184" lon="-1.34435">
        <ele>5.7</ele>
        <time>2020-06-02T17:11:12Z</time>
      </trkpt>
      <trkpt lat="46.34184" lon="-1.34435">
        <ele>5.7</ele>
        <time>2020-06-02T17:11:13Z</time>
      </trkpt>
      <trkpt lat="46.34184" lon="-1.34435">
        <ele>5.7</ele>
        <time>2020-06-02T17:11:14Z</time>
      </trkpt>
      <trkpt lat="46.34184" lon="-1.34435">
        <ele>5.7</ele>
        <time>2020-06-02T17:11:15Z</time>
      </trkpt>
      <trkpt lat="46.34184" lon="-1.34435">
        <ele>5.7</ele>
        <time>2020-06-02T17:11:16Z</time>
      </trkpt>
      <trkpt lat="46.34184" lon="-1.34435">
        <ele>5.7</ele>
        <time>2020-06-02T17:11:17Z</time>
      </trkpt>
      <trkpt lat="46.34184" lon="-1.34434">
        <ele>5.7</ele>
        <time>2020-06-02T17:11:18Z</time>
      </trkpt>
      <trkpt lat="46.34185" lon="-1.34434">
        <ele>5.7</ele>
        <time>2020-06-02T17:11:19Z</time>
      </trkpt>
      <trkpt lat="46.34185" lon="-1.34434">
        <ele>5.7</ele>
        <time>2020-06-02T17:11:20Z</time>
      </trkpt>
      <trkpt lat="46.34186" lon="-1.34434">
        <ele>5.7</ele>
        <time>2020-06-02T17:11:21Z</time>
      </trkpt>
      <trkpt lat="46.34186" lon="-1.34434">
        <ele>5.7</ele>
        <time>2020-06-02T17:11:22Z</time>
      </trkpt>
      <trkpt lat="46.34186" lon="-1.34434">
        <ele>5.7</ele>
        <time>2020-06-02T17:11:23Z</time>
      </trkpt>
      <trkpt lat="46.34186" lon="-1.34434">
        <ele>5.7</ele>
        <time>2020-06-02T17:11:24Z</time>
      </trkpt>
      <trkpt lat="46.34186" lon="-1.34434">
        <ele>5.7</ele>
        <time>2020-06-02T17:11:25Z</time>
      </trkpt>
      <trkpt lat="46.34186" lon="-1.34434">
        <ele>5.7</ele>
        <time>2020-06-02T17:11:26Z</time>
      </trkpt>
      <trkpt lat="46.34186" lon="-1.34434">
        <ele>5.7</ele>
        <time>2020-06-02T17:11:27Z</time>
      </trkpt>
      <trkpt lat="46.34186" lon="-1.34434">
        <ele>5.7</ele>
        <time>2020-06-02T17:11:28Z</time>
      </trkpt>
      <trkpt lat="46.34186" lon="-1.34435">
        <ele>5.7</ele>
        <time>2020-06-02T17:11:29Z</time>
      </trkpt>
      <trkpt lat="46.34186" lon="-1.34435">
        <ele>5.7</ele>
        <time>2020-06-02T17:11:30Z</time>
      </trkpt>
      <trkpt lat="46.34186" lon="-1.34435">
        <ele>5.7</ele>
        <time>2020-06-02T17:11:31Z</time>
      </trkpt>
      <trkpt lat="46.34186" lon="-1.34435">
        <ele>5.7</ele>
        <time>2020-06-02T17:11:32Z</time>
      </trkpt>
      <trkpt lat="46.34186" lon="-1.34435">
        <ele>5.7</ele>
        <time>2020-06-02T17:11:33Z</time>
      </trkpt>
      <trkpt lat="46.34186" lon="-1.34435">
        <ele>5.7</ele>
        <time>2020-06-02T17:11:34Z</time>
      </trkpt>
      <trkpt lat="46.34185" lon="-1.34435">
        <ele>5.7</ele>
        <time>2020-06-02T17:11:35Z</time>
      </trkpt>
      <trkpt lat="46.34185" lon="-1.34435">
        <ele>5.7</ele>
        <time>2020-06-02T17:11:36Z</time>
      </trkpt>
      <trkpt lat="46.34185" lon="-1.34435">
        <ele>5.7</ele>
        <time>2020-06-02T17:11:37Z</time>
      </trkpt>
      <trkpt lat="46.34185" lon="-1.34435">
        <ele>5.7</ele>
        <time>2020-06-02T17:11:38Z</time>
      </trkpt>
      <trkpt lat="46.34185" lon="-1.34435">
        <ele>5.7</ele>
        <time>2020-06-02T17:11:39Z</time>
      </trkpt>
      <trkpt lat="46.34185" lon="-1.34435">
        <ele>5.7</ele>
        <time>2020-06-02T17:11:40Z</time>
      </trkpt>
      <trkpt lat="46.34185" lon="-1.34435">
        <ele>5.7</ele>
        <time>2020-06-02T17:11:41Z</time>
      </trkpt>
      <trkpt lat="46.34185" lon="-1.34435">
        <ele>5.7</ele>
        <time>2020-06-02T17:11:42Z</time>
      </trkpt>
      <trkpt lat="46.34185" lon="-1.34435">
        <ele>5.7</ele>
        <time>2020-06-02T17:11:43Z</time>
      </trkpt>
      <trkpt lat="46.34185" lon="-1.34435">
        <ele>5.7</ele>
        <time>2020-06-02T17:11:44Z</time>
      </trkpt>
      <trkpt lat="46.34185" lon="-1.34435">
        <ele>5.7</ele>
        <time>2020-06-02T17:11:45Z</time>
      </trkpt>
      <trkpt lat="46.34185" lon="-1.34435">
        <ele>5.7</ele>
        <time>2020-06-02T17:11:46Z</time>
      </trkpt>
      <trkpt lat="46.34185" lon="-1.34435">
        <ele>5.7</ele>
        <time>2020-06-02T17:11:47Z</time>
      </trkpt>
      <trkpt lat="46.34185" lon="-1.34435">
        <ele>5.7</ele>
        <time>2020-06-02T17:11:48Z</time>
      </trkpt>
      <trkpt lat="46.34185" lon="-1.34435">
        <ele>5.7</ele>
        <time>2020-06-02T17:11:49Z</time>
      </trkpt>
      <trkpt lat="46.34185" lon="-1.34435">
        <ele>5.7</ele>
        <time>2020-06-02T17:11:50Z</time>
      </trkpt>
      <trkpt lat="46.34185" lon="-1.34435">
        <ele>5.7</ele>
        <time>2020-06-02T17:11:51Z</time>
      </trkpt>
      <trkpt lat="46.34185" lon="-1.34435">
        <ele>5.7</ele>
        <time>2020-06-02T17:11:52Z</time>
      </trkpt>
      <trkpt lat="46.34185" lon="-1.34435">
        <ele>5.7</ele>
        <time>2020-06-02T17:11:53Z</time>
      </trkpt>
      <trkpt lat="46.34185" lon="-1.34435">
        <ele>5.7</ele>
        <time>2020-06-02T17:11:54Z</time>
      </trkpt>
      <trkpt lat="46.34185" lon="-1.34435">
        <ele>5.7</ele>
        <time>2020-06-02T17:11:55Z</time>
      </trkpt>
      <trkpt lat="46.34185" lon="-1.34435">
        <ele>5.7</ele>
        <time>2020-06-02T17:11:56Z</time>
      </trkpt>
      <trkpt lat="46.34186" lon="-1.34436">
        <ele>5.7</ele>
        <time>2020-06-02T17:11:57Z</time>
      </trkpt>
      <trkpt lat="46.34186" lon="-1.34437">
        <ele>5.7</ele>
        <time>2020-06-02T17:11:58Z</time>
      </trkpt>
      <trkpt lat="46.34186" lon="-1.34438">
        <ele>5.8</ele>
        <time>2020-06-02T17:11:59Z</time>
      </trkpt>
      <trkpt lat="46.34186" lon="-1.34438">
        <ele>5.8</ele>
        <time>2020-06-02T17:12:00Z</time>
      </trkpt>
      <trkpt lat="46.34186" lon="-1.34438">
        <ele>5.8</ele>
        <time>2020-06-02T17:12:01Z</time>
      </trkpt>
      <trkpt lat="46.34186" lon="-1.34438">
        <ele>5.8</ele>
        <time>2020-06-02T17:12:02Z</time>
      </trkpt>
      <trkpt lat="46.34186" lon="-1.34439">
        <ele>5.8</ele>
        <time>2020-06-02T17:12:03Z</time>
      </trkpt>
      <trkpt lat="46.34186" lon="-1.34439">
        <ele>5.8</ele>
        <time>2020-06-02T17:12:04Z</time>
      </trkpt>
      <trkpt lat="46.34186" lon="-1.34439">
        <ele>5.8</ele>
        <time>2020-06-02T17:12:05Z</time>
      </trkpt>
      <trkpt lat="46.34186" lon="-1.34439">
        <ele>5.8</ele>
        <time>2020-06-02T17:12:06Z</time>
      </trkpt>
      <trkpt lat="46.34186" lon="-1.3444">
        <ele>5.8</ele>
        <time>2020-06-02T17:12:07Z</time>
      </trkpt>
      <trkpt lat="46.34186" lon="-1.3444">
        <ele>5.8</ele>
        <time>2020-06-02T17:12:08Z</time>
      </trkpt>
      <trkpt lat="46.34187" lon="-1.3444">
        <ele>5.8</ele>
        <time>2020-06-02T17:12:09Z</time>
      </trkpt>
      <trkpt lat="46.34187" lon="-1.3444">
        <ele>5.8</ele>
        <time>2020-06-02T17:12:10Z</time>
      </trkpt>
      <trkpt lat="46.34187" lon="-1.3444">
        <ele>5.8</ele>
        <time>2020-06-02T17:12:11Z</time>
      </trkpt>
      <trkpt lat="46.34187" lon="-1.34441">
        <ele>5.8</ele>
        <time>2020-06-02T17:12:12Z</time>
      </trkpt>
      <trkpt lat="46.34187" lon="-1.34441">
        <ele>5.8</ele>
        <time>2020-06-02T17:12:13Z</time>
      </trkpt>
      <trkpt lat="46.34187" lon="-1.34441">
        <ele>5.8</ele>
        <time>2020-06-02T17:12:14Z</time>
      </trkpt>
      <trkpt lat="46.34187" lon="-1.34441">
        <ele>5.8</ele>
        <time>2020-06-02T17:12:15Z</time>
      </trkpt>
      <trkpt lat="46.34187" lon="-1.34441">
        <ele>5.8</ele>
        <time>2020-06-02T17:12:16Z</time>
      </trkpt>
      <trkpt lat="46.34187" lon="-1.34442">
        <ele>5.8</ele>
        <time>2020-06-02T17:12:17Z</time>
      </trkpt>
      <trkpt lat="46.34187" lon="-1.34442">
        <ele>5.8</ele>
        <time>2020-06-02T17:12:18Z</time>
      </trkpt>
      <trkpt lat="46.34187" lon="-1.34442">
        <ele>5.8</ele>
        <time>2020-06-02T17:12:19Z</time>
      </trkpt>
      <trkpt lat="46.34187" lon="-1.34442">
        <ele>5.8</ele>
        <time>2020-06-02T17:12:20Z</time>
      </trkpt>
      <trkpt lat="46.34187" lon="-1.34442">
        <ele>5.8</ele>
        <time>2020-06-02T17:12:21Z</time>
      </trkpt>
      <trkpt lat="46.34187" lon="-1.34443">
        <ele>5.8</ele>
        <time>2020-06-02T17:12:22Z</time>
      </trkpt>
      <trkpt lat="46.34187" lon="-1.34443">
        <ele>5.8</ele>
        <time>2020-06-02T17:12:23Z</time>
      </trkpt>
      <trkpt lat="46.34187" lon="-1.34443">
        <ele>5.8</ele>
        <time>2020-06-02T17:12:24Z</time>
      </trkpt>
      <trkpt lat="46.34187" lon="-1.34443">
        <ele>5.8</ele>
        <time>2020-06-02T17:12:25Z</time>
      </trkpt>
      <trkpt lat="46.34187" lon="-1.34444">
        <ele>5.8</ele>
        <time>2020-06-02T17:12:26Z</time>
      </trkpt>
      <trkpt lat="46.34187" lon="-1.34444">
        <ele>5.8</ele>
        <time>2020-06-02T17:12:27Z</time>
      </trkpt>
      <trkpt lat="46.34187" lon="-1.34444">
        <ele>5.8</ele>
        <time>2020-06-02T17:12:28Z</time>
      </trkpt>
      <trkpt lat="46.34187" lon="-1.34444">
        <ele>5.8</ele>
        <time>2020-06-02T17:12:29Z</time>
      </trkpt>
      <trkpt lat="46.34187" lon="-1.34444">
        <ele>5.8</ele>
        <time>2020-06-02T17:12:30Z</time>
      </trkpt>
      <trkpt lat="46.34187" lon="-1.34445">
        <ele>5.8</ele>
        <time>2020-06-02T17:12:31Z</time>
      </trkpt>
      <trkpt lat="46.34187" lon="-1.34445">
        <ele>5.8</ele>
        <time>2020-06-02T17:12:32Z</time>
      </trkpt>
      <trkpt lat="46.34187" lon="-1.34445">
        <ele>5.8</ele>
        <time>2020-06-02T17:12:33Z</time>
      </trkpt>
      <trkpt lat="46.34187" lon="-1.34445">
        <ele>5.8</ele>
        <time>2020-06-02T17:12:34Z</time>
      </trkpt>
      <trkpt lat="46.34187" lon="-1.34445">
        <ele>5.8</ele>
        <time>2020-06-02T17:12:35Z</time>
      </trkpt>
      <trkpt lat="46.34187" lon="-1.34446">
        <ele>5.8</ele>
        <time>2020-06-02T17:12:36Z</time>
      </trkpt>
      <trkpt lat="46.34188" lon="-1.34446">
        <ele>5.8</ele>
        <time>2020-06-02T17:12:37Z</time>
      </trkpt>
      <trkpt lat="46.34188" lon="-1.34446">
        <ele>5.8</ele>
        <time>2020-06-02T17:12:38Z</time>
      </trkpt>
      <trkpt lat="46.34188" lon="-1.34446">
        <ele>5.8</ele>
        <time>2020-06-02T17:12:39Z</time>
      </trkpt>
      <trkpt lat="46.34188" lon="-1.34446">
        <ele>5.8</ele>
        <time>2020-06-02T17:12:40Z</time>
      </trkpt>
      <trkpt lat="46.34188" lon="-1.34447">
        <ele>5.8</ele>
        <time>2020-06-02T17:12:41Z</time>
      </trkpt>
      <trkpt lat="46.3419" lon="-1.34453">
        <ele>5.8</ele>
        <time>2020-06-02T17:12:42Z</time>
      </trkpt>
      <trkpt lat="46.34192" lon="-1.3446">
        <ele>5.8</ele>
        <time>2020-06-02T17:12:43Z</time>
      </trkpt>
      <trkpt lat="46.34193" lon="-1.34465">
        <ele>5.9</ele>
        <time>2020-06-02T17:12:44Z</time>
      </trkpt>
      <trkpt lat="46.34195" lon="-1.3447">
        <ele>5.9</ele>
        <time>2020-06-02T17:12:45Z</time>
      </trkpt>
      <trkpt lat="46.34198" lon="-1.34474">
        <ele>5.9</ele>
        <time>2020-06-02T17:12:46Z</time>
      </trkpt>
      <trkpt lat="46.342" lon="-1.34479">
        <ele>5.9</ele>
        <time>2020-06-02T17:12:47Z</time>
      </trkpt>
      <trkpt lat="46.34201" lon="-1.34484">
        <ele>5.9</ele>
        <time>2020-06-02T17:12:48Z</time>
      </trkpt>
      <trkpt lat="46.34204" lon="-1.34489">
        <ele>5.9</ele>
        <time>2020-06-02T17:12:49Z</time>
      </trkpt>
      <trkpt lat="46.34206" lon="-1.34495">
        <ele>5.9</ele>
        <time>2020-06-02T17:12:50Z</time>
      </trkpt>
      <trkpt lat="46.34208" lon="-1.34499">
        <ele>6</ele>
        <time>2020-06-02T17:12:51Z</time>
      </trkpt>
      <trkpt lat="46.3421" lon="-1.34504">
        <ele>6</ele>
        <time>2020-06-02T17:12:52Z</time>
      </trkpt>
      <trkpt lat="46.34212" lon="-1.34508">
        <ele>6</ele>
        <time>2020-06-02T17:12:53Z</time>
      </trkpt>
      <trkpt lat="46.34214" lon="-1.34514">
        <ele>6</ele>
        <time>2020-06-02T17:12:54Z</time>
      </trkpt>
      <trkpt lat="46.34215" lon="-1.34519">
        <ele>6</ele>
        <time>2020-06-02T17:12:55Z</time>
      </trkpt>
      <trkpt lat="46.34217" lon="-1.34525">
        <ele>6</ele>
        <time>2020-06-02T17:12:56Z</time>
      </trkpt>
      <trkpt lat="46.34218" lon="-1.3453">
        <ele>6.1</ele>
        <time>2020-06-02T17:12:57Z</time>
      </trkpt>
      <trkpt lat="46.34218" lon="-1.34536">
        <ele>6.1</ele>
        <time>2020-06-02T17:12:58Z</time>
      </trkpt>
      <trkpt lat="46.34219" lon="-1.3454">
        <ele>6.1</ele>
        <time>2020-06-02T17:12:59Z</time>
      </trkpt>
      <trkpt lat="46.3422" lon="-1.34546">
        <ele>6.1</ele>
        <time>2020-06-02T17:13:00Z</time>
      </trkpt>
      <trkpt lat="46.34221" lon="-1.34551">
        <ele>6.1</ele>
        <time>2020-06-02T17:13:01Z</time>
      </trkpt>
      <trkpt lat="46.34223" lon="-1.34556">
        <ele>6.2</ele>
        <time>2020-06-02T17:13:02Z</time>
      </trkpt>
      <trkpt lat="46.34225" lon="-1.34561">
        <ele>6.2</ele>
        <time>2020-06-02T17:13:03Z</time>
      </trkpt>
      <trkpt lat="46.34226" lon="-1.34566">
        <ele>6.2</ele>
        <time>2020-06-02T17:13:04Z</time>
      </trkpt>
      <trkpt lat="46.34228" lon="-1.34571">
        <ele>6.2</ele>
        <time>2020-06-02T17:13:05Z</time>
      </trkpt>
      <trkpt lat="46.34229" lon="-1.34576">
        <ele>6.2</ele>
        <time>2020-06-02T17:13:06Z</time>
      </trkpt>
      <trkpt lat="46.3423" lon="-1.3458">
        <ele>6</ele>
        <time>2020-06-02T17:13:07Z</time>
      </trkpt>
      <trkpt lat="46.34231" lon="-1.34586">
        <ele>5.7</ele>
        <time>2020-06-02T17:13:08Z</time>
      </trkpt>
      <trkpt lat="46.34232" lon="-1.34591">
        <ele>5.3</ele>
        <time>2020-06-02T17:13:09Z</time>
      </trkpt>
      <trkpt lat="46.34233" lon="-1.34597">
        <ele>5</ele>
        <time>2020-06-02T17:13:10Z</time>
      </trkpt>
      <trkpt lat="46.34234" lon="-1.34602">
        <ele>4.7</ele>
        <time>2020-06-02T17:13:11Z</time>
      </trkpt>
      <trkpt lat="46.34236" lon="-1.34607">
        <ele>4.4</ele>
        <time>2020-06-02T17:13:12Z</time>
      </trkpt>
      <trkpt lat="46.34237" lon="-1.34612">
        <ele>4.2</ele>
        <time>2020-06-02T17:13:13Z</time>
      </trkpt>
      <trkpt lat="46.34238" lon="-1.34619">
        <ele>3.8</ele>
        <time>2020-06-02T17:13:14Z</time>
      </trkpt>
      <trkpt lat="46.3424" lon="-1.34623">
        <ele>3.5</ele>
        <time>2020-06-02T17:13:15Z</time>
      </trkpt>
      <trkpt lat="46.34241" lon="-1.34628">
        <ele>3.3</ele>
        <time>2020-06-02T17:13:16Z</time>
      </trkpt>
      <trkpt lat="46.34242" lon="-1.34632">
        <ele>3</ele>
        <time>2020-06-02T17:13:17Z</time>
      </trkpt>
      <trkpt lat="46.34244" lon="-1.34638">
        <ele>2.7</ele>
        <time>2020-06-02T17:13:18Z</time>
      </trkpt>
      <trkpt lat="46.34245" lon="-1.34644">
        <ele>2.4</ele>
        <time>2020-06-02T17:13:19Z</time>
      </trkpt>
      <trkpt lat="46.34247" lon="-1.34648">
        <ele>2.1</ele>
        <time>2020-06-02T17:13:20Z</time>
      </trkpt>
      <trkpt lat="46.34248" lon="-1.34654">
        <ele>1.5</ele>
        <time>2020-06-02T17:13:21Z</time>
      </trkpt>
      <trkpt lat="46.3425" lon="-1.3466">
        <ele>1.6</ele>
        <time>2020-06-02T17:13:22Z</time>
      </trkpt>
      <trkpt lat="46.34253" lon="-1.34665">
        <ele>1.7</ele>
        <time>2020-06-02T17:13:23Z</time>
      </trkpt>
      <trkpt lat="46.34256" lon="-1.3467">
        <ele>1.7</ele>
        <time>2020-06-02T17:13:24Z</time>
      </trkpt>
      <trkpt lat="46.34259" lon="-1.34675">
        <ele>1.8</ele>
        <time>2020-06-02T17:13:25Z</time>
      </trkpt>
      <trkpt lat="46.34263" lon="-1.34678">
        <ele>1.9</ele>
        <time>2020-06-02T17:13:26Z</time>
      </trkpt>
      <trkpt lat="46.34266" lon="-1.34683">
        <ele>2</ele>
        <time>2020-06-02T17:13:27Z</time>
      </trkpt>
      <trkpt lat="46.34269" lon="-1.34688">
        <ele>2.1</ele>
        <time>2020-06-02T17:13:28Z</time>
      </trkpt>
      <trkpt lat="46.34272" lon="-1.34691">
        <ele>2.1</ele>
        <time>2020-06-02T17:13:29Z</time>
      </trkpt>
      <trkpt lat="46.34274" lon="-1.34694">
        <ele>2.2</ele>
        <time>2020-06-02T17:13:30Z</time>
      </trkpt>
      <trkpt lat="46.34278" lon="-1.34695">
        <ele>2.2</ele>
        <time>2020-06-02T17:13:31Z</time>
      </trkpt>
      <trkpt lat="46.34282" lon="-1.34694">
        <ele>2.3</ele>
        <time>2020-06-02T17:13:32Z</time>
      </trkpt>
      <trkpt lat="46.34286" lon="-1.34695">
        <ele>2.4</ele>
        <time>2020-06-02T17:13:33Z</time>
      </trkpt>
      <trkpt lat="46.34291" lon="-1.34696">
        <ele>2.5</ele>
        <time>2020-06-02T17:13:34Z</time>
      </trkpt>
      <trkpt lat="46.34295" lon="-1.34697">
        <ele>2.5</ele>
        <time>2020-06-02T17:13:35Z</time>
      </trkpt>
      <trkpt lat="46.343" lon="-1.34698">
        <ele>2.6</ele>
        <time>2020-06-02T17:13:36Z</time>
      </trkpt>
      <trkpt lat="46.34304" lon="-1.34699">
        <ele>2.7</ele>
        <time>2020-06-02T17:13:37Z</time>
      </trkpt>
      <trkpt lat="46.34307" lon="-1.347">
        <ele>2.7</ele>
        <time>2020-06-02T17:13:38Z</time>
      </trkpt>
      <trkpt lat="46.34312" lon="-1.34702">
        <ele>2.8</ele>
        <time>2020-06-02T17:13:39Z</time>
      </trkpt>
      <trkpt lat="46.34317" lon="-1.34703">
        <ele>2.9</ele>
        <time>2020-06-02T17:13:40Z</time>
      </trkpt>
      <trkpt lat="46.34321" lon="-1.34705">
        <ele>3</ele>
        <time>2020-06-02T17:13:41Z</time>
      </trkpt>
      <trkpt lat="46.34325" lon="-1.34707">
        <ele>3</ele>
        <time>2020-06-02T17:13:42Z</time>
      </trkpt>
      <trkpt lat="46.3433" lon="-1.3471">
        <ele>3.1</ele>
        <time>2020-06-02T17:13:43Z</time>
      </trkpt>
      <trkpt lat="46.34333" lon="-1.34716">
        <ele>3.2</ele>
        <time>2020-06-02T17:13:44Z</time>
      </trkpt>
      <trkpt lat="46.34336" lon="-1.34721">
        <ele>3.3</ele>
        <time>2020-06-02T17:13:45Z</time>
      </trkpt>
      <trkpt lat="46.34339" lon="-1.34728">
        <ele>3.4</ele>
        <time>2020-06-02T17:13:46Z</time>
      </trkpt>
      <trkpt lat="46.34342" lon="-1.34733">
        <ele>3.4</ele>
        <time>2020-06-02T17:13:47Z</time>
      </trkpt>
      <trkpt lat="46.34344" lon="-1.34738">
        <ele>3.5</ele>
        <time>2020-06-02T17:13:48Z</time>
      </trkpt>
      <trkpt lat="46.34347" lon="-1.34744">
        <ele>3.5</ele>
        <time>2020-06-02T17:13:49Z</time>
      </trkpt>
      <trkpt lat="46.3435" lon="-1.34749">
        <ele>3.6</ele>
        <time>2020-06-02T17:13:50Z</time>
      </trkpt>
      <trkpt lat="46.34353" lon="-1.34755">
        <ele>3.7</ele>
        <time>2020-06-02T17:13:51Z</time>
      </trkpt>
      <trkpt lat="46.34356" lon="-1.3476">
        <ele>3.7</ele>
        <time>2020-06-02T17:13:52Z</time>
      </trkpt>
      <trkpt lat="46.34358" lon="-1.34765">
        <ele>3.8</ele>
        <time>2020-06-02T17:13:53Z</time>
      </trkpt>
      <trkpt lat="46.34361" lon="-1.34771">
        <ele>3.8</ele>
        <time>2020-06-02T17:13:54Z</time>
      </trkpt>
      <trkpt lat="46.34364" lon="-1.34777">
        <ele>3.9</ele>
        <time>2020-06-02T17:13:55Z</time>
      </trkpt>
      <trkpt lat="46.34364" lon="-1.34783">
        <ele>3.9</ele>
        <time>2020-06-02T17:13:56Z</time>
      </trkpt>
      <trkpt lat="46.34365" lon="-1.3479">
        <ele>3.9</ele>
        <time>2020-06-02T17:13:57Z</time>
      </trkpt>
      <trkpt lat="46.34366" lon="-1.34797">
        <ele>4</ele>
        <time>2020-06-02T17:13:58Z</time>
      </trkpt>
      <trkpt lat="46.34366" lon="-1.34804">
        <ele>4</ele>
        <time>2020-06-02T17:13:59Z</time>
      </trkpt>
      <trkpt lat="46.34366" lon="-1.34811">
        <ele>4</ele>
        <time>2020-06-02T17:14:00Z</time>
      </trkpt>
      <trkpt lat="46.34367" lon="-1.34817">
        <ele>4.1</ele>
        <time>2020-06-02T17:14:01Z</time>
      </trkpt>
      <trkpt lat="46.34368" lon="-1.34824">
        <ele>4.2</ele>
        <time>2020-06-02T17:14:02Z</time>
      </trkpt>
      <trkpt lat="46.34368" lon="-1.34831">
        <ele>4.2</ele>
        <time>2020-06-02T17:14:03Z</time>
      </trkpt>
      <trkpt lat="46.34369" lon="-1.34835">
        <ele>4.2</ele>
        <time>2020-06-02T17:14:04Z</time>
      </trkpt>
      <trkpt lat="46.3437" lon="-1.34839">
        <ele>4.3</ele>
        <time>2020-06-02T17:14:05Z</time>
      </trkpt>
      <trkpt lat="46.34371" lon="-1.34844">
        <ele>4.3</ele>
        <time>2020-06-02T17:14:06Z</time>
      </trkpt>
      <trkpt lat="46.34371" lon="-1.34851">
        <ele>4.4</ele>
        <time>2020-06-02T17:14:07Z</time>
      </trkpt>
      <trkpt lat="46.34372" lon="-1.34857">
        <ele>4.4</ele>
        <time>2020-06-02T17:14:08Z</time>
      </trkpt>
      <trkpt lat="46.34374" lon="-1.34862">
        <ele>4.4</ele>
        <time>2020-06-02T17:14:09Z</time>
      </trkpt>
      <trkpt lat="46.34375" lon="-1.34867">
        <ele>4.5</ele>
        <time>2020-06-02T17:14:10Z</time>
      </trkpt>
      <trkpt lat="46.34376" lon="-1.34872">
        <ele>4.5</ele>
        <time>2020-06-02T17:14:11Z</time>
      </trkpt>
      <trkpt lat="46.34377" lon="-1.34876">
        <ele>4.5</ele>
        <time>2020-06-02T17:14:12Z</time>
      </trkpt>
      <trkpt lat="46.34379" lon="-1.3488">
        <ele>4.5</ele>
        <time>2020-06-02T17:14:13Z</time>
      </trkpt>
      <trkpt lat="46.3438" lon="-1.34882">
        <ele>4.5</ele>
        <time>2020-06-02T17:14:14Z</time>
      </trkpt>
      <trkpt lat="46.34382" lon="-1.34883">
        <ele>4.5</ele>
        <time>2020-06-02T17:14:15Z</time>
      </trkpt>
      <trkpt lat="46.34381" lon="-1.34885">
        <ele>4.4</ele>
        <time>2020-06-02T17:14:16Z</time>
      </trkpt>
      <trkpt lat="46.3438" lon="-1.34885">
        <ele>4.4</ele>
        <time>2020-06-02T17:14:17Z</time>
      </trkpt>
      <trkpt lat="46.3438" lon="-1.34885">
        <ele>4.4</ele>
        <time>2020-06-02T17:14:18Z</time>
      </trkpt>
      <trkpt lat="46.34379" lon="-1.34886">
        <ele>4.4</ele>
        <time>2020-06-02T17:14:19Z</time>
      </trkpt>
      <trkpt lat="46.34379" lon="-1.34886">
        <ele>4.4</ele>
        <time>2020-06-02T17:14:20Z</time>
      </trkpt>
      <trkpt lat="46.34379" lon="-1.34887">
        <ele>4.4</ele>
        <time>2020-06-02T17:14:21Z</time>
      </trkpt>
      <trkpt lat="46.34378" lon="-1.34885">
        <ele>4.4</ele>
        <time>2020-06-02T17:14:22Z</time>
      </trkpt>
      <trkpt lat="46.34378" lon="-1.34884">
        <ele>4.4</ele>
        <time>2020-06-02T17:14:23Z</time>
      </trkpt>
      <trkpt lat="46.34378" lon="-1.34882">
        <ele>4.4</ele>
        <time>2020-06-02T17:14:24Z</time>
      </trkpt>
      <trkpt lat="46.34378" lon="-1.34881">
        <ele>4.3</ele>
        <time>2020-06-02T17:14:25Z</time>
      </trkpt>
      <trkpt lat="46.34377" lon="-1.34879">
        <ele>4.3</ele>
        <time>2020-06-02T17:14:26Z</time>
      </trkpt>
      <trkpt lat="46.34376" lon="-1.34877">
        <ele>4.3</ele>
        <time>2020-06-02T17:14:27Z</time>
      </trkpt>
      <trkpt lat="46.34376" lon="-1.34874">
        <ele>4.4</ele>
        <time>2020-06-02T17:14:28Z</time>
      </trkpt>
      <trkpt lat="46.34376" lon="-1.34874">
        <ele>4.4</ele>
        <time>2020-06-02T17:14:29Z</time>
      </trkpt>
      <trkpt lat="46.34376" lon="-1.34872">
        <ele>4.4</ele>
        <time>2020-06-02T17:14:30Z</time>
      </trkpt>
      <trkpt lat="46.34375" lon="-1.34871">
        <ele>4.4</ele>
        <time>2020-06-02T17:14:31Z</time>
      </trkpt>
      <trkpt lat="46.34375" lon="-1.3487">
        <ele>4.4</ele>
        <time>2020-06-02T17:14:32Z</time>
      </trkpt>
      <trkpt lat="46.34375" lon="-1.34869">
        <ele>4.4</ele>
        <time>2020-06-02T17:14:33Z</time>
      </trkpt>
      <trkpt lat="46.34375" lon="-1.34868">
        <ele>4.4</ele>
        <time>2020-06-02T17:14:34Z</time>
      </trkpt>
      <trkpt lat="46.34374" lon="-1.34866">
        <ele>4.5</ele>
        <time>2020-06-02T17:14:35Z</time>
      </trkpt>
      <trkpt lat="46.34374" lon="-1.34863">
        <ele>4.5</ele>
        <time>2020-06-02T17:14:36Z</time>
      </trkpt>
      <trkpt lat="46.34374" lon="-1.34861">
        <ele>4.5</ele>
        <time>2020-06-02T17:14:37Z</time>
      </trkpt>
      <trkpt lat="46.34374" lon="-1.34859">
        <ele>4.5</ele>
        <time>2020-06-02T17:14:38Z</time>
      </trkpt>
      <trkpt lat="46.34373" lon="-1.34858">
        <ele>4.5</ele>
        <time>2020-06-02T17:14:39Z</time>
      </trkpt>
      <trkpt lat="46.34373" lon="-1.34853">
        <ele>4.5</ele>
        <time>2020-06-02T17:14:40Z</time>
      </trkpt>
      <trkpt lat="46.34372" lon="-1.34851">
        <ele>4.5</ele>
        <time>2020-06-02T17:14:41Z</time>
      </trkpt>
      <trkpt lat="46.34372" lon="-1.34847">
        <ele>4.5</ele>
        <time>2020-06-02T17:14:42Z</time>
      </trkpt>
      <trkpt lat="46.34371" lon="-1.34843">
        <ele>4.4</ele>
        <time>2020-06-02T17:14:43Z</time>
      </trkpt>
      <trkpt lat="46.34371" lon="-1.34839">
        <ele>4.4</ele>
        <time>2020-06-02T17:14:44Z</time>
      </trkpt>
      <trkpt lat="46.34369" lon="-1.34833">
        <ele>4.4</ele>
        <time>2020-06-02T17:14:45Z</time>
      </trkpt>
      <trkpt lat="46.34369" lon="-1.34828">
        <ele>4.3</ele>
        <time>2020-06-02T17:14:46Z</time>
      </trkpt>
      <trkpt lat="46.34368" lon="-1.34823">
        <ele>4.3</ele>
        <time>2020-06-02T17:14:47Z</time>
      </trkpt>
      <trkpt lat="46.34368" lon="-1.34818">
        <ele>4.2</ele>
        <time>2020-06-02T17:14:48Z</time>
      </trkpt>
      <trkpt lat="46.34369" lon="-1.34814">
        <ele>4.2</ele>
        <time>2020-06-02T17:14:49Z</time>
      </trkpt>
      <trkpt lat="46.34369" lon="-1.34809">
        <ele>4.2</ele>
        <time>2020-06-02T17:14:50Z</time>
      </trkpt>
      <trkpt lat="46.34373" lon="-1.34806">
        <ele>4.3</ele>
        <time>2020-06-02T17:14:51Z</time>
      </trkpt>
      <trkpt lat="46.34374" lon="-1.34804">
        <ele>4.4</ele>
        <time>2020-06-02T17:14:52Z</time>
      </trkpt>
      <trkpt lat="46.34379" lon="-1.348">
        <ele>4.6</ele>
        <time>2020-06-02T17:14:53Z</time>
      </trkpt>
      <trkpt lat="46.34384" lon="-1.34796">
        <ele>4.7</ele>
        <time>2020-06-02T17:14:54Z</time>
      </trkpt>
      <trkpt lat="46.34388" lon="-1.34792">
        <ele>4.8</ele>
        <time>2020-06-02T17:14:55Z</time>
      </trkpt>
      <trkpt lat="46.34392" lon="-1.34788">
        <ele>4.8</ele>
        <time>2020-06-02T17:14:56Z</time>
      </trkpt>
      <trkpt lat="46.34395" lon="-1.34784">
        <ele>4.9</ele>
        <time>2020-06-02T17:14:57Z</time>
      </trkpt>
      <trkpt lat="46.34399" lon="-1.34781">
        <ele>4.9</ele>
        <time>2020-06-02T17:14:58Z</time>
      </trkpt>
      <trkpt lat="46.34402" lon="-1.34778">
        <ele>4.8</ele>
        <time>2020-06-02T17:14:59Z</time>
      </trkpt>
      <trkpt lat="46.34405" lon="-1.34774">
        <ele>4.8</ele>
        <time>2020-06-02T17:15:00Z</time>
      </trkpt>
      <trkpt lat="46.34409" lon="-1.34769">
        <ele>4.7</ele>
        <time>2020-06-02T17:15:01Z</time>
      </trkpt>
      <trkpt lat="46.34413" lon="-1.34765">
        <ele>4.7</ele>
        <time>2020-06-02T17:15:02Z</time>
      </trkpt>
      <trkpt lat="46.34415" lon="-1.34762">
        <ele>4.6</ele>
        <time>2020-06-02T17:15:03Z</time>
      </trkpt>
      <trkpt lat="46.34418" lon="-1.34759">
        <ele>4.6</ele>
        <time>2020-06-02T17:15:04Z</time>
      </trkpt>
      <trkpt lat="46.34421" lon="-1.34754">
        <ele>4.5</ele>
        <time>2020-06-02T17:15:05Z</time>
      </trkpt>
      <trkpt lat="46.34423" lon="-1.34751">
        <ele>4.4</ele>
        <time>2020-06-02T17:15:06Z</time>
      </trkpt>
      <trkpt lat="46.34426" lon="-1.34749">
        <ele>4.4</ele>
        <time>2020-06-02T17:15:07Z</time>
      </trkpt>
      <trkpt lat="46.3443" lon="-1.3475">
        <ele>4.4</ele>
        <time>2020-06-02T17:15:08Z</time>
      </trkpt>
      <trkpt lat="46.34432" lon="-1.34751">
        <ele>4.4</ele>
        <time>2020-06-02T17:15:09Z</time>
      </trkpt>
      <trkpt lat="46.34435" lon="-1.34756">
        <ele>4.4</ele>
        <time>2020-06-02T17:15:10Z</time>
      </trkpt>
      <trkpt lat="46.34437" lon="-1.34762">
        <ele>4.4</ele>
        <time>2020-06-02T17:15:11Z</time>
      </trkpt>
      <trkpt lat="46.34439" lon="-1.34769">
        <ele>4.4</ele>
        <time>2020-06-02T17:15:12Z</time>
      </trkpt>
      <trkpt lat="46.34442" lon="-1.34774">
        <ele>4.4</ele>
        <time>2020-06-02T17:15:13Z</time>
      </trkpt>
      <trkpt lat="46.34445" lon="-1.34781">
        <ele>4.4</ele>
        <time>2020-06-02T17:15:14Z</time>
      </trkpt>
      <trkpt lat="46.34447" lon="-1.34788">
        <ele>4.4</ele>
        <time>2020-06-02T17:15:15Z</time>
      </trkpt>
      <trkpt lat="46.3445" lon="-1.34794">
        <ele>4.4</ele>
        <time>2020-06-02T17:15:16Z</time>
      </trkpt>
      <trkpt lat="46.34452" lon="-1.348">
        <ele>4.4</ele>
        <time>2020-06-02T17:15:17Z</time>
      </trkpt>
      <trkpt lat="46.34455" lon="-1.34805">
        <ele>4.4</ele>
        <time>2020-06-02T17:15:18Z</time>
      </trkpt>
      <trkpt lat="46.34458" lon="-1.34813">
        <ele>4.4</ele>
        <time>2020-06-02T17:15:19Z</time>
      </trkpt>
      <trkpt lat="46.34461" lon="-1.34818">
        <ele>4.4</ele>
        <time>2020-06-02T17:15:20Z</time>
      </trkpt>
      <trkpt lat="46.34465" lon="-1.34821">
        <ele>4.4</ele>
        <time>2020-06-02T17:15:21Z</time>
      </trkpt>
      <trkpt lat="46.34467" lon="-1.34828">
        <ele>4.3</ele>
        <time>2020-06-02T17:15:22Z</time>
      </trkpt>
      <trkpt lat="46.3447" lon="-1.34834">
        <ele>4.3</ele>
        <time>2020-06-02T17:15:23Z</time>
      </trkpt>
      <trkpt lat="46.34473" lon="-1.3484">
        <ele>4.3</ele>
        <time>2020-06-02T17:15:24Z</time>
      </trkpt>
      <trkpt lat="46.34477" lon="-1.34846">
        <ele>4.3</ele>
        <time>2020-06-02T17:15:25Z</time>
      </trkpt>
      <trkpt lat="46.3448" lon="-1.34851">
        <ele>4.3</ele>
        <time>2020-06-02T17:15:26Z</time>
      </trkpt>
      <trkpt lat="46.34482" lon="-1.34857">
        <ele>4.3</ele>
        <time>2020-06-02T17:15:27Z</time>
      </trkpt>
      <trkpt lat="46.34485" lon="-1.34862">
        <ele>4.3</ele>
        <time>2020-06-02T17:15:28Z</time>
      </trkpt>
      <trkpt lat="46.34488" lon="-1.34867">
        <ele>4.3</ele>
        <time>2020-06-02T17:15:29Z</time>
      </trkpt>
      <trkpt lat="46.34491" lon="-1.34872">
        <ele>4.2</ele>
        <time>2020-06-02T17:15:30Z</time>
      </trkpt>
      <trkpt lat="46.34494" lon="-1.34878">
        <ele>4.2</ele>
        <time>2020-06-02T17:15:31Z</time>
      </trkpt>
      <trkpt lat="46.34496" lon="-1.34883">
        <ele>4.2</ele>
        <time>2020-06-02T17:15:32Z</time>
      </trkpt>
      <trkpt lat="46.34499" lon="-1.34887">
        <ele>4.2</ele>
        <time>2020-06-02T17:15:33Z</time>
      </trkpt>
      <trkpt lat="46.34502" lon="-1.34894">
        <ele>4.2</ele>
        <time>2020-06-02T17:15:34Z</time>
      </trkpt>
      <trkpt lat="46.34504" lon="-1.34899">
        <ele>4.3</ele>
        <time>2020-06-02T17:15:35Z</time>
      </trkpt>
      <trkpt lat="46.34506" lon="-1.34905">
        <ele>4.3</ele>
        <time>2020-06-02T17:15:36Z</time>
      </trkpt>
      <trkpt lat="46.34509" lon="-1.3491">
        <ele>4.3</ele>
        <time>2020-06-02T17:15:37Z</time>
      </trkpt>
      <trkpt lat="46.34512" lon="-1.34915">
        <ele>4.3</ele>
        <time>2020-06-02T17:15:38Z</time>
      </trkpt>
      <trkpt lat="46.34515" lon="-1.34921">
        <ele>4.3</ele>
        <time>2020-06-02T17:15:39Z</time>
      </trkpt>
      <trkpt lat="46.34518" lon="-1.34926">
        <ele>4.3</ele>
        <time>2020-06-02T17:15:40Z</time>
      </trkpt>
      <trkpt lat="46.34521" lon="-1.34932">
        <ele>4.3</ele>
        <time>2020-06-02T17:15:41Z</time>
      </trkpt>
      <trkpt lat="46.34524" lon="-1.34935">
        <ele>4.3</ele>
        <time>2020-06-02T17:15:42Z</time>
      </trkpt>
      <trkpt lat="46.34527" lon="-1.3494">
        <ele>4.2</ele>
        <time>2020-06-02T17:15:43Z</time>
      </trkpt>
      <trkpt lat="46.3453" lon="-1.34945">
        <ele>4.2</ele>
        <time>2020-06-02T17:15:44Z</time>
      </trkpt>
      <trkpt lat="46.34533" lon="-1.34951">
        <ele>4.2</ele>
        <time>2020-06-02T17:15:45Z</time>
      </trkpt>
      <trkpt lat="46.34536" lon="-1.34955">
        <ele>4.2</ele>
        <time>2020-06-02T17:15:46Z</time>
      </trkpt>
      <trkpt lat="46.34539" lon="-1.34961">
        <ele>4.2</ele>
        <time>2020-06-02T17:15:47Z</time>
      </trkpt>
      <trkpt lat="46.34541" lon="-1.34967">
        <ele>4.2</ele>
        <time>2020-06-02T17:15:48Z</time>
      </trkpt>
      <trkpt lat="46.34544" lon="-1.3497">
        <ele>4.2</ele>
        <time>2020-06-02T17:15:49Z</time>
      </trkpt>
      <trkpt lat="46.34547" lon="-1.34975">
        <ele>4.2</ele>
        <time>2020-06-02T17:15:50Z</time>
      </trkpt>
      <trkpt lat="46.3455" lon="-1.3498">
        <ele>4.2</ele>
        <time>2020-06-02T17:15:51Z</time>
      </trkpt>
      <trkpt lat="46.34552" lon="-1.34987">
        <ele>4.2</ele>
        <time>2020-06-02T17:15:52Z</time>
      </trkpt>
      <trkpt lat="46.34555" lon="-1.34992">
        <ele>4.2</ele>
        <time>2020-06-02T17:15:53Z</time>
      </trkpt>
      <trkpt lat="46.34557" lon="-1.34998">
        <ele>4.2</ele>
        <time>2020-06-02T17:15:54Z</time>
      </trkpt>
      <trkpt lat="46.34561" lon="-1.35002">
        <ele>4.3</ele>
        <time>2020-06-02T17:15:55Z</time>
      </trkpt>
      <trkpt lat="46.34563" lon="-1.35007">
        <ele>4.3</ele>
        <time>2020-06-02T17:15:56Z</time>
      </trkpt>
      <trkpt lat="46.34566" lon="-1.35012">
        <ele>4.3</ele>
        <time>2020-06-02T17:15:57Z</time>
      </trkpt>
      <trkpt lat="46.34568" lon="-1.35016">
        <ele>4.3</ele>
        <time>2020-06-02T17:15:58Z</time>
      </trkpt>
      <trkpt lat="46.34571" lon="-1.35021">
        <ele>4.3</ele>
        <time>2020-06-02T17:15:59Z</time>
      </trkpt>
      <trkpt lat="46.34573" lon="-1.35025">
        <ele>4.3</ele>
        <time>2020-06-02T17:16:00Z</time>
      </trkpt>
      <trkpt lat="46.34576" lon="-1.35031">
        <ele>4.3</ele>
        <time>2020-06-02T17:16:01Z</time>
      </trkpt>
      <trkpt lat="46.34578" lon="-1.35034">
        <ele>4.3</ele>
        <time>2020-06-02T17:16:02Z</time>
      </trkpt>
      <trkpt lat="46.3458" lon="-1.3504">
        <ele>4.3</ele>
        <time>2020-06-02T17:16:03Z</time>
      </trkpt>
      <trkpt lat="46.34583" lon="-1.35045">
        <ele>4.3</ele>
        <time>2020-06-02T17:16:04Z</time>
      </trkpt>
      <trkpt lat="46.34585" lon="-1.3505">
        <ele>4.3</ele>
        <time>2020-06-02T17:16:05Z</time>
      </trkpt>
      <trkpt lat="46.34588" lon="-1.35054">
        <ele>4.3</ele>
        <time>2020-06-02T17:16:06Z</time>
      </trkpt>
      <trkpt lat="46.3459" lon="-1.35059">
        <ele>4.3</ele>
        <time>2020-06-02T17:16:07Z</time>
      </trkpt>
      <trkpt lat="46.34593" lon="-1.35064">
        <ele>4.3</ele>
        <time>2020-06-02T17:16:08Z</time>
      </trkpt>
      <trkpt lat="46.34596" lon="-1.35068">
        <ele>4.3</ele>
        <time>2020-06-02T17:16:09Z</time>
      </trkpt>
      <trkpt lat="46.34599" lon="-1.35074">
        <ele>4.3</ele>
        <time>2020-06-02T17:16:10Z</time>
      </trkpt>
      <trkpt lat="46.34602" lon="-1.35079">
        <ele>4.3</ele>
        <time>2020-06-02T17:16:11Z</time>
      </trkpt>
      <trkpt lat="46.34605" lon="-1.35083">
        <ele>4.3</ele>
        <time>2020-06-02T17:16:12Z</time>
      </trkpt>
      <trkpt lat="46.34608" lon="-1.35087">
        <ele>4.3</ele>
        <time>2020-06-02T17:16:13Z</time>
      </trkpt>
      <trkpt lat="46.34611" lon="-1.35092">
        <ele>4.3</ele>
        <time>2020-06-02T17:16:14Z</time>
      </trkpt>
      <trkpt lat="46.34614" lon="-1.35098">
        <ele>4.3</ele>
        <time>2020-06-02T17:16:15Z</time>
      </trkpt>
      <trkpt lat="46.34616" lon="-1.35103">
        <ele>4.3</ele>
        <time>2020-06-02T17:16:16Z</time>
      </trkpt>
      <trkpt lat="46.34619" lon="-1.35108">
        <ele>4.3</ele>
        <time>2020-06-02T17:16:17Z</time>
      </trkpt>
      <trkpt lat="46.34621" lon="-1.35114">
        <ele>4.3</ele>
        <time>2020-06-02T17:16:18Z</time>
      </trkpt>
      <trkpt lat="46.34624" lon="-1.3512">
        <ele>4.3</ele>
        <time>2020-06-02T17:16:19Z</time>
      </trkpt>
      <trkpt lat="46.34627" lon="-1.35126">
        <ele>4.3</ele>
        <time>2020-06-02T17:16:20Z</time>
      </trkpt>
      <trkpt lat="46.3463" lon="-1.35131">
        <ele>4.3</ele>
        <time>2020-06-02T17:16:21Z</time>
      </trkpt>
      <trkpt lat="46.34633" lon="-1.35136">
        <ele>4.3</ele>
        <time>2020-06-02T17:16:22Z</time>
      </trkpt>
      <trkpt lat="46.34636" lon="-1.35141">
        <ele>4.3</ele>
        <time>2020-06-02T17:16:23Z</time>
      </trkpt>
      <trkpt lat="46.3464" lon="-1.35147">
        <ele>4.3</ele>
        <time>2020-06-02T17:16:24Z</time>
      </trkpt>
      <trkpt lat="46.34643" lon="-1.35153">
        <ele>4.3</ele>
        <time>2020-06-02T17:16:25Z</time>
      </trkpt>
      <trkpt lat="46.34646" lon="-1.35158">
        <ele>4.3</ele>
        <time>2020-06-02T17:16:26Z</time>
      </trkpt>
      <trkpt lat="46.34649" lon="-1.35164">
        <ele>4.3</ele>
        <time>2020-06-02T17:16:27Z</time>
      </trkpt>
      <trkpt lat="46.34651" lon="-1.3517">
        <ele>4.3</ele>
        <time>2020-06-02T17:16:28Z</time>
      </trkpt>
      <trkpt lat="46.34653" lon="-1.35175">
        <ele>4.3</ele>
        <time>2020-06-02T17:16:29Z</time>
      </trkpt>
      <trkpt lat="46.34656" lon="-1.3518">
        <ele>4.3</ele>
        <time>2020-06-02T17:16:30Z</time>
      </trkpt>
      <trkpt lat="46.34659" lon="-1.35186">
        <ele>4.3</ele>
        <time>2020-06-02T17:16:31Z</time>
      </trkpt>
      <trkpt lat="46.34662" lon="-1.35192">
        <ele>4.3</ele>
        <time>2020-06-02T17:16:32Z</time>
      </trkpt>
      <trkpt lat="46.34665" lon="-1.35197">
        <ele>4.3</ele>
        <time>2020-06-02T17:16:33Z</time>
      </trkpt>
      <trkpt lat="46.34668" lon="-1.35202">
        <ele>4.3</ele>
        <time>2020-06-02T17:16:34Z</time>
      </trkpt>
      <trkpt lat="46.34671" lon="-1.35208">
        <ele>4.3</ele>
        <time>2020-06-02T17:16:35Z</time>
      </trkpt>
      <trkpt lat="46.34674" lon="-1.35214">
        <ele>4.3</ele>
        <time>2020-06-02T17:16:36Z</time>
      </trkpt>
      <trkpt lat="46.34678" lon="-1.35219">
        <ele>4.3</ele>
        <time>2020-06-02T17:16:37Z</time>
      </trkpt>
      <trkpt lat="46.34681" lon="-1.35224">
        <ele>4.4</ele>
        <time>2020-06-02T17:16:38Z</time>
      </trkpt>
      <trkpt lat="46.34684" lon="-1.3523">
        <ele>4.4</ele>
        <time>2020-06-02T17:16:39Z</time>
      </trkpt>
      <trkpt lat="46.34686" lon="-1.35235">
        <ele>4.4</ele>
        <time>2020-06-02T17:16:40Z</time>
      </trkpt>
      <trkpt lat="46.34688" lon="-1.35241">
        <ele>4.5</ele>
        <time>2020-06-02T17:16:41Z</time>
      </trkpt>
      <trkpt lat="46.3469" lon="-1.35246">
        <ele>4.5</ele>
        <time>2020-06-02T17:16:42Z</time>
      </trkpt>
      <trkpt lat="46.34693" lon="-1.3525">
        <ele>4.5</ele>
        <time>2020-06-02T17:16:43Z</time>
      </trkpt>
      <trkpt lat="46.34696" lon="-1.35256">
        <ele>4.6</ele>
        <time>2020-06-02T17:16:44Z</time>
      </trkpt>
      <trkpt lat="46.34699" lon="-1.35261">
        <ele>4.6</ele>
        <time>2020-06-02T17:16:45Z</time>
      </trkpt>
      <trkpt lat="46.34701" lon="-1.35267">
        <ele>4.7</ele>
        <time>2020-06-02T17:16:46Z</time>
      </trkpt>
      <trkpt lat="46.34703" lon="-1.35273">
        <ele>4.7</ele>
        <time>2020-06-02T17:16:47Z</time>
      </trkpt>
      <trkpt lat="46.34705" lon="-1.35278">
        <ele>4.7</ele>
        <time>2020-06-02T17:16:48Z</time>
      </trkpt>
      <trkpt lat="46.34707" lon="-1.35283">
        <ele>4.7</ele>
        <time>2020-06-02T17:16:49Z</time>
      </trkpt>
      <trkpt lat="46.34708" lon="-1.35289">
        <ele>4.7</ele>
        <time>2020-06-02T17:16:50Z</time>
      </trkpt>
      <trkpt lat="46.3471" lon="-1.35294">
        <ele>4.8</ele>
        <time>2020-06-02T17:16:51Z</time>
      </trkpt>
      <trkpt lat="46.34711" lon="-1.353">
        <ele>4.8</ele>
        <time>2020-06-02T17:16:52Z</time>
      </trkpt>
      <trkpt lat="46.34712" lon="-1.35305">
        <ele>4.8</ele>
        <time>2020-06-02T17:16:53Z</time>
      </trkpt>
      <trkpt lat="46.34714" lon="-1.35311">
        <ele>4.8</ele>
        <time>2020-06-02T17:16:54Z</time>
      </trkpt>
      <trkpt lat="46.34716" lon="-1.35317">
        <ele>4.9</ele>
        <time>2020-06-02T17:16:55Z</time>
      </trkpt>
      <trkpt lat="46.34717" lon="-1.35322">
        <ele>4.9</ele>
        <time>2020-06-02T17:16:56Z</time>
      </trkpt>
      <trkpt lat="46.3472" lon="-1.35327">
        <ele>5</ele>
        <time>2020-06-02T17:16:57Z</time>
      </trkpt>
      <trkpt lat="46.34722" lon="-1.35332">
        <ele>5.1</ele>
        <time>2020-06-02T17:16:58Z</time>
      </trkpt>
      <trkpt lat="46.34724" lon="-1.35338">
        <ele>5.1</ele>
        <time>2020-06-02T17:16:59Z</time>
      </trkpt>
      <trkpt lat="46.34725" lon="-1.35343">
        <ele>5.2</ele>
        <time>2020-06-02T17:17:00Z</time>
      </trkpt>
      <trkpt lat="46.34726" lon="-1.35349">
        <ele>5.3</ele>
        <time>2020-06-02T17:17:01Z</time>
      </trkpt>
      <trkpt lat="46.34728" lon="-1.35353">
        <ele>5.3</ele>
        <time>2020-06-02T17:17:02Z</time>
      </trkpt>
      <trkpt lat="46.3473" lon="-1.35358">
        <ele>5.3</ele>
        <time>2020-06-02T17:17:03Z</time>
      </trkpt>
      <trkpt lat="46.34731" lon="-1.35365">
        <ele>5.4</ele>
        <time>2020-06-02T17:17:04Z</time>
      </trkpt>
      <trkpt lat="46.34733" lon="-1.35371">
        <ele>5.4</ele>
        <time>2020-06-02T17:17:05Z</time>
      </trkpt>
      <trkpt lat="46.34734" lon="-1.35376">
        <ele>5.4</ele>
        <time>2020-06-02T17:17:06Z</time>
      </trkpt>
      <trkpt lat="46.34736" lon="-1.35382">
        <ele>5.4</ele>
        <time>2020-06-02T17:17:07Z</time>
      </trkpt>
      <trkpt lat="46.34737" lon="-1.35387">
        <ele>5.4</ele>
        <time>2020-06-02T17:17:08Z</time>
      </trkpt>
      <trkpt lat="46.34738" lon="-1.35392">
        <ele>5.4</ele>
        <time>2020-06-02T17:17:09Z</time>
      </trkpt>
      <trkpt lat="46.3474" lon="-1.35397">
        <ele>5.4</ele>
        <time>2020-06-02T17:17:10Z</time>
      </trkpt>
      <trkpt lat="46.34741" lon="-1.35402">
        <ele>5.3</ele>
        <time>2020-06-02T17:17:11Z</time>
      </trkpt>
      <trkpt lat="46.34744" lon="-1.35409">
        <ele>5.3</ele>
        <time>2020-06-02T17:17:12Z</time>
      </trkpt>
      <trkpt lat="46.34746" lon="-1.35414">
        <ele>5.3</ele>
        <time>2020-06-02T17:17:13Z</time>
      </trkpt>
      <trkpt lat="46.34747" lon="-1.35421">
        <ele>5.2</ele>
        <time>2020-06-02T17:17:14Z</time>
      </trkpt>
      <trkpt lat="46.34748" lon="-1.35428">
        <ele>5.2</ele>
        <time>2020-06-02T17:17:15Z</time>
      </trkpt>
      <trkpt lat="46.34749" lon="-1.35436">
        <ele>5.2</ele>
        <time>2020-06-02T17:17:16Z</time>
      </trkpt>
      <trkpt lat="46.3475" lon="-1.35439">
        <ele>5.1</ele>
        <time>2020-06-02T17:17:17Z</time>
      </trkpt>
      <trkpt lat="46.34752" lon="-1.35447">
        <ele>5</ele>
        <time>2020-06-02T17:17:18Z</time>
      </trkpt>
      <trkpt lat="46.34753" lon="-1.35455">
        <ele>5</ele>
        <time>2020-06-02T17:17:19Z</time>
      </trkpt>
      <trkpt lat="46.34754" lon="-1.35461">
        <ele>4.9</ele>
        <time>2020-06-02T17:17:20Z</time>
      </trkpt>
      <trkpt lat="46.34755" lon="-1.35469">
        <ele>4.8</ele>
        <time>2020-06-02T17:17:21Z</time>
      </trkpt>
      <trkpt lat="46.34758" lon="-1.35475">
        <ele>4.8</ele>
        <time>2020-06-02T17:17:22Z</time>
      </trkpt>
      <trkpt lat="46.34759" lon="-1.35481">
        <ele>4.7</ele>
        <time>2020-06-02T17:17:23Z</time>
      </trkpt>
      <trkpt lat="46.34761" lon="-1.35487">
        <ele>4.7</ele>
        <time>2020-06-02T17:17:24Z</time>
      </trkpt>
      <trkpt lat="46.34763" lon="-1.35494">
        <ele>4.6</ele>
        <time>2020-06-02T17:17:25Z</time>
      </trkpt>
      <trkpt lat="46.34765" lon="-1.35501">
        <ele>4.5</ele>
        <time>2020-06-02T17:17:26Z</time>
      </trkpt>
      <trkpt lat="46.34766" lon="-1.3551">
        <ele>4.4</ele>
        <time>2020-06-02T17:17:27Z</time>
      </trkpt>
      <trkpt lat="46.34768" lon="-1.35515">
        <ele>4.4</ele>
        <time>2020-06-02T17:17:28Z</time>
      </trkpt>
      <trkpt lat="46.34772" lon="-1.35524">
        <ele>4.3</ele>
        <time>2020-06-02T17:17:29Z</time>
      </trkpt>
      <trkpt lat="46.34774" lon="-1.35532">
        <ele>4.3</ele>
        <time>2020-06-02T17:17:30Z</time>
      </trkpt>
      <trkpt lat="46.34774" lon="-1.35538">
        <ele>4.2</ele>
        <time>2020-06-02T17:17:31Z</time>
      </trkpt>
      <trkpt lat="46.34776" lon="-1.35546">
        <ele>4.2</ele>
        <time>2020-06-02T17:17:32Z</time>
      </trkpt>
      <trkpt lat="46.34779" lon="-1.35553">
        <ele>4.2</ele>
        <time>2020-06-02T17:17:33Z</time>
      </trkpt>
      <trkpt lat="46.34781" lon="-1.3556">
        <ele>4.2</ele>
        <time>2020-06-02T17:17:34Z</time>
      </trkpt>
      <trkpt lat="46.34784" lon="-1.35568">
        <ele>4.2</ele>
        <time>2020-06-02T17:17:35Z</time>
      </trkpt>
      <trkpt lat="46.34786" lon="-1.35577">
        <ele>4.3</ele>
        <time>2020-06-02T17:17:36Z</time>
      </trkpt>
      <trkpt lat="46.34788" lon="-1.35585">
        <ele>4.3</ele>
        <time>2020-06-02T17:17:37Z</time>
      </trkpt>
      <trkpt lat="46.3479" lon="-1.35593">
        <ele>4.3</ele>
        <time>2020-06-02T17:17:38Z</time>
      </trkpt>
      <trkpt lat="46.34791" lon="-1.356">
        <ele>4.4</ele>
        <time>2020-06-02T17:17:39Z</time>
      </trkpt>
      <trkpt lat="46.34793" lon="-1.35607">
        <ele>4.4</ele>
        <time>2020-06-02T17:17:40Z</time>
      </trkpt>
      <trkpt lat="46.34796" lon="-1.35614">
        <ele>4.5</ele>
        <time>2020-06-02T17:17:41Z</time>
      </trkpt>
      <trkpt lat="46.34798" lon="-1.35621">
        <ele>4.5</ele>
        <time>2020-06-02T17:17:42Z</time>
      </trkpt>
      <trkpt lat="46.34799" lon="-1.35628">
        <ele>4.6</ele>
        <time>2020-06-02T17:17:43Z</time>
      </trkpt>
      <trkpt lat="46.348" lon="-1.35635">
        <ele>4.6</ele>
        <time>2020-06-02T17:17:44Z</time>
      </trkpt>
      <trkpt lat="46.34801" lon="-1.35642">
        <ele>4.7</ele>
        <time>2020-06-02T17:17:45Z</time>
      </trkpt>
      <trkpt lat="46.34802" lon="-1.35648">
        <ele>4.7</ele>
        <time>2020-06-02T17:17:46Z</time>
      </trkpt>
      <trkpt lat="46.34805" lon="-1.35654">
        <ele>4.8</ele>
        <time>2020-06-02T17:17:47Z</time>
      </trkpt>
      <trkpt lat="46.34807" lon="-1.3566">
        <ele>4.8</ele>
        <time>2020-06-02T17:17:48Z</time>
      </trkpt>
      <trkpt lat="46.34809" lon="-1.35664">
        <ele>4.8</ele>
        <time>2020-06-02T17:17:49Z</time>
      </trkpt>
      <trkpt lat="46.3481" lon="-1.35672">
        <ele>4.7</ele>
        <time>2020-06-02T17:17:50Z</time>
      </trkpt>
      <trkpt lat="46.34812" lon="-1.35678">
        <ele>4.7</ele>
        <time>2020-06-02T17:17:51Z</time>
      </trkpt>
      <trkpt lat="46.34813" lon="-1.35684">
        <ele>4.7</ele>
        <time>2020-06-02T17:17:52Z</time>
      </trkpt>
      <trkpt lat="46.34815" lon="-1.3569">
        <ele>4.7</ele>
        <time>2020-06-02T17:17:53Z</time>
      </trkpt>
      <trkpt lat="46.34817" lon="-1.35696">
        <ele>4.7</ele>
        <time>2020-06-02T17:17:54Z</time>
      </trkpt>
      <trkpt lat="46.34819" lon="-1.35702">
        <ele>4.7</ele>
        <time>2020-06-02T17:17:55Z</time>
      </trkpt>
      <trkpt lat="46.34821" lon="-1.35707">
        <ele>4.7</ele>
        <time>2020-06-02T17:17:56Z</time>
      </trkpt>
      <trkpt lat="46.34823" lon="-1.35714">
        <ele>4.7</ele>
        <time>2020-06-02T17:17:57Z</time>
      </trkpt>
      <trkpt lat="46.34824" lon="-1.3572">
        <ele>4.6</ele>
        <time>2020-06-02T17:17:58Z</time>
      </trkpt>
      <trkpt lat="46.34826" lon="-1.35726">
        <ele>4.6</ele>
        <time>2020-06-02T17:17:59Z</time>
      </trkpt>
      <trkpt lat="46.34828" lon="-1.35732">
        <ele>4.6</ele>
        <time>2020-06-02T17:18:00Z</time>
      </trkpt>
      <trkpt lat="46.3483" lon="-1.35738">
        <ele>4.6</ele>
        <time>2020-06-02T17:18:01Z</time>
      </trkpt>
      <trkpt lat="46.34832" lon="-1.35745">
        <ele>4.6</ele>
        <time>2020-06-02T17:18:02Z</time>
      </trkpt>
      <trkpt lat="46.34833" lon="-1.35751">
        <ele>4.6</ele>
        <time>2020-06-02T17:18:03Z</time>
      </trkpt>
      <trkpt lat="46.34834" lon="-1.35755">
        <ele>4.6</ele>
        <time>2020-06-02T17:18:04Z</time>
      </trkpt>
      <trkpt lat="46.34836" lon="-1.3576">
        <ele>4.6</ele>
        <time>2020-06-02T17:18:05Z</time>
      </trkpt>
      <trkpt lat="46.34836" lon="-1.35761">
        <ele>4.6</ele>
        <time>2020-06-02T17:18:06Z</time>
      </trkpt>
      <trkpt lat="46.34836" lon="-1.35763">
        <ele>4.6</ele>
        <time>2020-06-02T17:18:07Z</time>
      </trkpt>
      <trkpt lat="46.34835" lon="-1.35764">
        <ele>4.6</ele>
        <time>2020-06-02T17:18:08Z</time>
      </trkpt>
      <trkpt lat="46.34835" lon="-1.35765">
        <ele>4.6</ele>
        <time>2020-06-02T17:18:09Z</time>
      </trkpt>
      <trkpt lat="46.34835" lon="-1.35766">
        <ele>4.6</ele>
        <time>2020-06-02T17:18:10Z</time>
      </trkpt>
      <trkpt lat="46.34835" lon="-1.35767">
        <ele>4.6</ele>
        <time>2020-06-02T17:18:11Z</time>
      </trkpt>
      <trkpt lat="46.34834" lon="-1.35768">
        <ele>4.6</ele>
        <time>2020-06-02T17:18:12Z</time>
      </trkpt>
      <trkpt lat="46.34834" lon="-1.35768">
        <ele>4.5</ele>
        <time>2020-06-02T17:18:13Z</time>
      </trkpt>
      <trkpt lat="46.34834" lon="-1.35768">
        <ele>4.5</ele>
        <time>2020-06-02T17:18:14Z</time>
      </trkpt>
      <trkpt lat="46.34833" lon="-1.35769">
        <ele>4.5</ele>
        <time>2020-06-02T17:18:15Z</time>
      </trkpt>
      <trkpt lat="46.34833" lon="-1.35769">
        <ele>4.5</ele>
        <time>2020-06-02T17:18:16Z</time>
      </trkpt>
      <trkpt lat="46.34833" lon="-1.3577">
        <ele>4.5</ele>
        <time>2020-06-02T17:18:17Z</time>
      </trkpt>
      <trkpt lat="46.34833" lon="-1.35771">
        <ele>4.5</ele>
        <time>2020-06-02T17:18:18Z</time>
      </trkpt>
      <trkpt lat="46.34833" lon="-1.35772">
        <ele>4.5</ele>
        <time>2020-06-02T17:18:19Z</time>
      </trkpt>
      <trkpt lat="46.34832" lon="-1.35771">
        <ele>4.5</ele>
        <time>2020-06-02T17:18:20Z</time>
      </trkpt>
      <trkpt lat="46.34832" lon="-1.35771">
        <ele>4.5</ele>
        <time>2020-06-02T17:18:21Z</time>
      </trkpt>
      <trkpt lat="46.34832" lon="-1.35771">
        <ele>4.5</ele>
        <time>2020-06-02T17:18:22Z</time>
      </trkpt>
      <trkpt lat="46.34832" lon="-1.35771">
        <ele>4.5</ele>
        <time>2020-06-02T17:18:23Z</time>
      </trkpt>
      <trkpt lat="46.34832" lon="-1.35771">
        <ele>4.5</ele>
        <time>2020-06-02T17:18:24Z</time>
      </trkpt>
      <trkpt lat="46.34832" lon="-1.35772">
        <ele>4.5</ele>
        <time>2020-06-02T17:18:25Z</time>
      </trkpt>
      <trkpt lat="46.34832" lon="-1.35772">
        <ele>4.5</ele>
        <time>2020-06-02T17:18:26Z</time>
      </trkpt>
      <trkpt lat="46.34832" lon="-1.35772">
        <ele>4.5</ele>
        <time>2020-06-02T17:18:27Z</time>
      </trkpt>
      <trkpt lat="46.34832" lon="-1.35773">
        <ele>4.5</ele>
        <time>2020-06-02T17:18:28Z</time>
      </trkpt>
      <trkpt lat="46.34832" lon="-1.35775">
        <ele>4.5</ele>
        <time>2020-06-02T17:18:29Z</time>
      </trkpt>
      <trkpt lat="46.34832" lon="-1.35777">
        <ele>4.5</ele>
        <time>2020-06-02T17:18:30Z</time>
      </trkpt>
      <trkpt lat="46.34831" lon="-1.35778">
        <ele>4.5</ele>
        <time>2020-06-02T17:18:31Z</time>
      </trkpt>
      <trkpt lat="46.34831" lon="-1.35779">
        <ele>4.5</ele>
        <time>2020-06-02T17:18:32Z</time>
      </trkpt>
      <trkpt lat="46.3483" lon="-1.35779">
        <ele>4.5</ele>
        <time>2020-06-02T17:18:33Z</time>
      </trkpt>
      <trkpt lat="46.3483" lon="-1.35781">
        <ele>4.5</ele>
        <time>2020-06-02T17:18:34Z</time>
      </trkpt>
      <trkpt lat="46.3483" lon="-1.35782">
        <ele>4.5</ele>
        <time>2020-06-02T17:18:35Z</time>
      </trkpt>
      <trkpt lat="46.3483" lon="-1.35783">
        <ele>4.5</ele>
        <time>2020-06-02T17:18:36Z</time>
      </trkpt>
      <trkpt lat="46.34829" lon="-1.35784">
        <ele>4.5</ele>
        <time>2020-06-02T17:18:37Z</time>
      </trkpt>
      <trkpt lat="46.34829" lon="-1.35785">
        <ele>4.5</ele>
        <time>2020-06-02T17:18:38Z</time>
      </trkpt>
      <trkpt lat="46.34829" lon="-1.35786">
        <ele>4.5</ele>
        <time>2020-06-02T17:18:39Z</time>
      </trkpt>
      <trkpt lat="46.34829" lon="-1.35787">
        <ele>4.5</ele>
        <time>2020-06-02T17:18:40Z</time>
      </trkpt>
      <trkpt lat="46.34829" lon="-1.35789">
        <ele>4.5</ele>
        <time>2020-06-02T17:18:41Z</time>
      </trkpt>
      <trkpt lat="46.34829" lon="-1.3579">
        <ele>4.5</ele>
        <time>2020-06-02T17:18:42Z</time>
      </trkpt>
      <trkpt lat="46.34828" lon="-1.35791">
        <ele>4.5</ele>
        <time>2020-06-02T17:18:43Z</time>
      </trkpt>
      <trkpt lat="46.34828" lon="-1.35793">
        <ele>4.5</ele>
        <time>2020-06-02T17:18:44Z</time>
      </trkpt>
      <trkpt lat="46.34828" lon="-1.35793">
        <ele>4.5</ele>
        <time>2020-06-02T17:18:45Z</time>
      </trkpt>
      <trkpt lat="46.34828" lon="-1.35794">
        <ele>4.5</ele>
        <time>2020-06-02T17:18:46Z</time>
      </trkpt>
      <trkpt lat="46.34828" lon="-1.35793">
        <ele>4.5</ele>
        <time>2020-06-02T17:18:47Z</time>
      </trkpt>
      <trkpt lat="46.34828" lon="-1.35794">
        <ele>4.5</ele>
        <time>2020-06-02T17:18:48Z</time>
      </trkpt>
      <trkpt lat="46.34828" lon="-1.35793">
        <ele>4.5</ele>
        <time>2020-06-02T17:18:49Z</time>
      </trkpt>
      <trkpt lat="46.34829" lon="-1.35793">
        <ele>4.5</ele>
        <time>2020-06-02T17:18:50Z</time>
      </trkpt>
      <trkpt lat="46.34829" lon="-1.35793">
        <ele>4.5</ele>
        <time>2020-06-02T17:18:51Z</time>
      </trkpt>
      <trkpt lat="46.34829" lon="-1.35793">
        <ele>4.5</ele>
        <time>2020-06-02T17:18:52Z</time>
      </trkpt>
      <trkpt lat="46.34829" lon="-1.35792">
        <ele>4.5</ele>
        <time>2020-06-02T17:18:53Z</time>
      </trkpt>
      <trkpt lat="46.34829" lon="-1.35792">
        <ele>4.5</ele>
        <time>2020-06-02T17:18:54Z</time>
      </trkpt>
      <trkpt lat="46.34829" lon="-1.35792">
        <ele>4.5</ele>
        <time>2020-06-02T17:18:55Z</time>
      </trkpt>
      <trkpt lat="46.3483" lon="-1.35789">
        <ele>4.5</ele>
        <time>2020-06-02T17:18:56Z</time>
      </trkpt>
      <trkpt lat="46.3483" lon="-1.35788">
        <ele>4.5</ele>
        <time>2020-06-02T17:18:57Z</time>
      </trkpt>
      <trkpt lat="46.34829" lon="-1.35787">
        <ele>4.5</ele>
        <time>2020-06-02T17:18:58Z</time>
      </trkpt>
      <trkpt lat="46.34829" lon="-1.35787">
        <ele>4.5</ele>
        <time>2020-06-02T17:18:59Z</time>
      </trkpt>
      <trkpt lat="46.34829" lon="-1.35787">
        <ele>4.5</ele>
        <time>2020-06-02T17:19:00Z</time>
      </trkpt>
      <trkpt lat="46.34829" lon="-1.35787">
        <ele>4.5</ele>
        <time>2020-06-02T17:19:01Z</time>
      </trkpt>
      <trkpt lat="46.34829" lon="-1.35786">
        <ele>4.5</ele>
        <time>2020-06-02T17:19:02Z</time>
      </trkpt>
      <trkpt lat="46.34829" lon="-1.35786">
        <ele>4.5</ele>
        <time>2020-06-02T17:19:03Z</time>
      </trkpt>
      <trkpt lat="46.34829" lon="-1.35786">
        <ele>4.5</ele>
        <time>2020-06-02T17:19:04Z</time>
      </trkpt>
      <trkpt lat="46.34829" lon="-1.35786">
        <ele>4.5</ele>
        <time>2020-06-02T17:19:05Z</time>
      </trkpt>
      <trkpt lat="46.34829" lon="-1.35785">
        <ele>4.5</ele>
        <time>2020-06-02T17:19:06Z</time>
      </trkpt>
      <trkpt lat="46.34829" lon="-1.35785">
        <ele>4.5</ele>
        <time>2020-06-02T17:19:07Z</time>
      </trkpt>
      <trkpt lat="46.34829" lon="-1.35785">
        <ele>4.5</ele>
        <time>2020-06-02T17:19:08Z</time>
      </trkpt>
      <trkpt lat="46.34829" lon="-1.35785">
        <ele>4.5</ele>
        <time>2020-06-02T17:19:09Z</time>
      </trkpt>
      <trkpt lat="46.3483" lon="-1.35785">
        <ele>4.5</ele>
        <time>2020-06-02T17:19:10Z</time>
      </trkpt>
      <trkpt lat="46.3483" lon="-1.35785">
        <ele>4.5</ele>
        <time>2020-06-02T17:19:11Z</time>
      </trkpt>
      <trkpt lat="46.34831" lon="-1.35785">
        <ele>4.5</ele>
        <time>2020-06-02T17:19:12Z</time>
      </trkpt>
      <trkpt lat="46.3483" lon="-1.35784">
        <ele>4.5</ele>
        <time>2020-06-02T17:19:13Z</time>
      </trkpt>
      <trkpt lat="46.3483" lon="-1.35785">
        <ele>4.5</ele>
        <time>2020-06-02T17:19:14Z</time>
      </trkpt>
      <trkpt lat="46.3483" lon="-1.35785">
        <ele>4.5</ele>
        <time>2020-06-02T17:19:15Z</time>
      </trkpt>
      <trkpt lat="46.3483" lon="-1.35785">
        <ele>4.5</ele>
        <time>2020-06-02T17:19:16Z</time>
      </trkpt>
      <trkpt lat="46.3483" lon="-1.35785">
        <ele>4.5</ele>
        <time>2020-06-02T17:19:17Z</time>
      </trkpt>
      <trkpt lat="46.3483" lon="-1.35785">
        <ele>4.5</ele>
        <time>2020-06-02T17:19:18Z</time>
      </trkpt>
      <trkpt lat="46.3483" lon="-1.35784">
        <ele>4.5</ele>
        <time>2020-06-02T17:19:19Z</time>
      </trkpt>
      <trkpt lat="46.3483" lon="-1.35784">
        <ele>4.5</ele>
        <time>2020-06-02T17:19:20Z</time>
      </trkpt>
      <trkpt lat="46.3483" lon="-1.35784">
        <ele>4.5</ele>
        <time>2020-06-02T17:19:21Z</time>
      </trkpt>
      <trkpt lat="46.3483" lon="-1.35784">
        <ele>4.5</ele>
        <time>2020-06-02T17:19:22Z</time>
      </trkpt>
      <trkpt lat="46.3483" lon="-1.35783">
        <ele>4.5</ele>
        <time>2020-06-02T17:19:23Z</time>
      </trkpt>
      <trkpt lat="46.3483" lon="-1.35783">
        <ele>4.5</ele>
        <time>2020-06-02T17:19:24Z</time>
      </trkpt>
      <trkpt lat="46.3483" lon="-1.35783">
        <ele>4.5</ele>
        <time>2020-06-02T17:19:25Z</time>
      </trkpt>
      <trkpt lat="46.3483" lon="-1.35783">
        <ele>4.5</ele>
        <time>2020-06-02T17:19:26Z</time>
      </trkpt>
      <trkpt lat="46.3483" lon="-1.35783">
        <ele>4.5</ele>
        <time>2020-06-02T17:19:27Z</time>
      </trkpt>
      <trkpt lat="46.3483" lon="-1.35783">
        <ele>4.5</ele>
        <time>2020-06-02T17:19:28Z</time>
      </trkpt>
      <trkpt lat="46.3483" lon="-1.35783">
        <ele>4.5</ele>
        <time>2020-06-02T17:19:29Z</time>
      </trkpt>
      <trkpt lat="46.3483" lon="-1.35782">
        <ele>4.5</ele>
        <time>2020-06-02T17:19:30Z</time>
      </trkpt>
      <trkpt lat="46.34831" lon="-1.35782">
        <ele>4.5</ele>
        <time>2020-06-02T17:19:31Z</time>
      </trkpt>
      <trkpt lat="46.34831" lon="-1.35781">
        <ele>4.5</ele>
        <time>2020-06-02T17:19:32Z</time>
      </trkpt>
      <trkpt lat="46.34831" lon="-1.35781">
        <ele>4.5</ele>
        <time>2020-06-02T17:19:33Z</time>
      </trkpt>
      <trkpt lat="46.34831" lon="-1.35781">
        <ele>4.5</ele>
        <time>2020-06-02T17:19:34Z</time>
      </trkpt>
      <trkpt lat="46.34831" lon="-1.3578">
        <ele>4.5</ele>
        <time>2020-06-02T17:19:35Z</time>
      </trkpt>
      <trkpt lat="46.34831" lon="-1.3578">
        <ele>4.5</ele>
        <time>2020-06-02T17:19:36Z</time>
      </trkpt>
      <trkpt lat="46.34831" lon="-1.3578">
        <ele>4.5</ele>
        <time>2020-06-02T17:19:37Z</time>
      </trkpt>
      <trkpt lat="46.34831" lon="-1.3578">
        <ele>4.5</ele>
        <time>2020-06-02T17:19:38Z</time>
      </trkpt>
      <trkpt lat="46.34831" lon="-1.3578">
        <ele>4.5</ele>
        <time>2020-06-02T17:19:39Z</time>
      </trkpt>
      <trkpt lat="46.34831" lon="-1.35779">
        <ele>4.5</ele>
        <time>2020-06-02T17:19:40Z</time>
      </trkpt>
      <trkpt lat="46.34831" lon="-1.35779">
        <ele>4.5</ele>
        <time>2020-06-02T17:19:41Z</time>
      </trkpt>
      <trkpt lat="46.34831" lon="-1.35779">
        <ele>4.5</ele>
        <time>2020-06-02T17:19:42Z</time>
      </trkpt>
      <trkpt lat="46.34831" lon="-1.35778">
        <ele>4.5</ele>
        <time>2020-06-02T17:19:43Z</time>
      </trkpt>
      <trkpt lat="46.34831" lon="-1.35778">
        <ele>4.4</ele>
        <time>2020-06-02T17:19:44Z</time>
      </trkpt>
      <trkpt lat="46.34831" lon="-1.35778">
        <ele>4.4</ele>
        <time>2020-06-02T17:19:45Z</time>
      </trkpt>
      <trkpt lat="46.34831" lon="-1.35777">
        <ele>4.4</ele>
        <time>2020-06-02T17:19:46Z</time>
      </trkpt>
      <trkpt lat="46.34831" lon="-1.35777">
        <ele>4.4</ele>
        <time>2020-06-02T17:19:47Z</time>
      </trkpt>
      <trkpt lat="46.34831" lon="-1.35777">
        <ele>4.4</ele>
        <time>2020-06-02T17:19:48Z</time>
      </trkpt>
      <trkpt lat="46.34831" lon="-1.35777">
        <ele>4.4</ele>
        <time>2020-06-02T17:19:49Z</time>
      </trkpt>
      <trkpt lat="46.34832" lon="-1.35777">
        <ele>4.4</ele>
        <time>2020-06-02T17:19:50Z</time>
      </trkpt>
      <trkpt lat="46.34831" lon="-1.35777">
        <ele>4.4</ele>
        <time>2020-06-02T17:19:51Z</time>
      </trkpt>
      <trkpt lat="46.34831" lon="-1.35777">
        <ele>4.4</ele>
        <time>2020-06-02T17:19:52Z</time>
      </trkpt>
      <trkpt lat="46.34831" lon="-1.35777">
        <ele>4.4</ele>
        <time>2020-06-02T17:19:53Z</time>
      </trkpt>
      <trkpt lat="46.34832" lon="-1.35776">
        <ele>4.4</ele>
        <time>2020-06-02T17:19:54Z</time>
      </trkpt>
      <trkpt lat="46.34832" lon="-1.35776">
        <ele>4.4</ele>
        <time>2020-06-02T17:19:55Z</time>
      </trkpt>
      <trkpt lat="46.34831" lon="-1.35776">
        <ele>4.4</ele>
        <time>2020-06-02T17:19:56Z</time>
      </trkpt>
      <trkpt lat="46.34831" lon="-1.35776">
        <ele>4.4</ele>
        <time>2020-06-02T17:19:57Z</time>
      </trkpt>
      <trkpt lat="46.34831" lon="-1.35776">
        <ele>4.4</ele>
        <time>2020-06-02T17:19:58Z</time>
      </trkpt>
      <trkpt lat="46.34831" lon="-1.35775">
        <ele>4.4</ele>
        <time>2020-06-02T17:19:59Z</time>
      </trkpt>
      <trkpt lat="46.34831" lon="-1.35775">
        <ele>4.4</ele>
        <time>2020-06-02T17:20:00Z</time>
      </trkpt>
      <trkpt lat="46.34831" lon="-1.35775">
        <ele>4.4</ele>
        <time>2020-06-02T17:20:01Z</time>
      </trkpt>
      <trkpt lat="46.34831" lon="-1.35775">
        <ele>4.4</ele>
        <time>2020-06-02T17:20:02Z</time>
      </trkpt>
      <trkpt lat="46.34831" lon="-1.35775">
        <ele>4.4</ele>
        <time>2020-06-02T17:20:03Z</time>
      </trkpt>
      <trkpt lat="46.34831" lon="-1.35775">
        <ele>4.4</ele>
        <time>2020-06-02T17:20:04Z</time>
      </trkpt>
      <trkpt lat="46.34831" lon="-1.35775">
        <ele>4.4</ele>
        <time>2020-06-02T17:20:05Z</time>
      </trkpt>
      <trkpt lat="46.34831" lon="-1.35775">
        <ele>4.4</ele>
        <time>2020-06-02T17:20:06Z</time>
      </trkpt>
      <trkpt lat="46.34831" lon="-1.35774">
        <ele>4.4</ele>
        <time>2020-06-02T17:20:07Z</time>
      </trkpt>
      <trkpt lat="46.34831" lon="-1.35774">
        <ele>4.4</ele>
        <time>2020-06-02T17:20:08Z</time>
      </trkpt>
      <trkpt lat="46.34831" lon="-1.35774">
        <ele>4.4</ele>
        <time>2020-06-02T17:20:09Z</time>
      </trkpt>
      <trkpt lat="46.34831" lon="-1.35774">
        <ele>4.4</ele>
        <time>2020-06-02T17:20:10Z</time>
      </trkpt>
      <trkpt lat="46.34831" lon="-1.35774">
        <ele>4.4</ele>
        <time>2020-06-02T17:20:11Z</time>
      </trkpt>
      <trkpt lat="46.34831" lon="-1.35774">
        <ele>4.4</ele>
        <time>2020-06-02T17:20:12Z</time>
      </trkpt>
      <trkpt lat="46.34831" lon="-1.35774">
        <ele>4.4</ele>
        <time>2020-06-02T17:20:13Z</time>
      </trkpt>
      <trkpt lat="46.34831" lon="-1.35774">
        <ele>4.4</ele>
        <time>2020-06-02T17:20:14Z</time>
      </trkpt>
      <trkpt lat="46.34831" lon="-1.35774">
        <ele>4.4</ele>
        <time>2020-06-02T17:20:15Z</time>
      </trkpt>
      <trkpt lat="46.34831" lon="-1.35774">
        <ele>4.4</ele>
        <time>2020-06-02T17:20:16Z</time>
      </trkpt>
      <trkpt lat="46.34831" lon="-1.35774">
        <ele>4.4</ele>
        <time>2020-06-02T17:20:17Z</time>
      </trkpt>
      <trkpt lat="46.34831" lon="-1.35774">
        <ele>4.4</ele>
        <time>2020-06-02T17:20:18Z</time>
      </trkpt>
      <trkpt lat="46.34831" lon="-1.35774">
        <ele>4.4</ele>
        <time>2020-06-02T17:20:19Z</time>
      </trkpt>
      <trkpt lat="46.34831" lon="-1.35774">
        <ele>4.4</ele>
        <time>2020-06-02T17:20:20Z</time>
      </trkpt>
      <trkpt lat="46.34831" lon="-1.35774">
        <ele>4.4</ele>
        <time>2020-06-02T17:20:21Z</time>
      </trkpt>
      <trkpt lat="46.34831" lon="-1.35774">
        <ele>4.4</ele>
        <time>2020-06-02T17:20:22Z</time>
      </trkpt>
      <trkpt lat="46.34831" lon="-1.35774">
        <ele>4.4</ele>
        <time>2020-06-02T17:20:23Z</time>
      </trkpt>
      <trkpt lat="46.34831" lon="-1.35774">
        <ele>4.4</ele>
        <time>2020-06-02T17:20:24Z</time>
      </trkpt>
      <trkpt lat="46.34831" lon="-1.35774">
        <ele>4.4</ele>
        <time>2020-06-02T17:20:25Z</time>
      </trkpt>
      <trkpt lat="46.34831" lon="-1.35774">
        <ele>4.4</ele>
        <time>2020-06-02T17:20:26Z</time>
      </trkpt>
      <trkpt lat="46.34831" lon="-1.35774">
        <ele>4.4</ele>
        <time>2020-06-02T17:20:27Z</time>
      </trkpt>
      <trkpt lat="46.34831" lon="-1.35774">
        <ele>4.4</ele>
        <time>2020-06-02T17:20:28Z</time>
      </trkpt>
      <trkpt lat="46.34831" lon="-1.35774">
        <ele>4.4</ele>
        <time>2020-06-02T17:20:29Z</time>
      </trkpt>
      <trkpt lat="46.34831" lon="-1.35774">
        <ele>4.4</ele>
        <time>2020-06-02T17:20:30Z</time>
      </trkpt>
      <trkpt lat="46.34831" lon="-1.35774">
        <ele>4.4</ele>
        <time>2020-06-02T17:20:31Z</time>
      </trkpt>
      <trkpt lat="46.34831" lon="-1.35773">
        <ele>4.4</ele>
        <time>2020-06-02T17:20:32Z</time>
      </trkpt>
      <trkpt lat="46.34831" lon="-1.35773">
        <ele>4.4</ele>
        <time>2020-06-02T17:20:33Z</time>
      </trkpt>
      <trkpt lat="46.34831" lon="-1.35773">
        <ele>4.4</ele>
        <time>2020-06-02T17:20:34Z</time>
      </trkpt>
      <trkpt lat="46.34831" lon="-1.35773">
        <ele>4.4</ele>
        <time>2020-06-02T17:20:35Z</time>
      </trkpt>
      <trkpt lat="46.34831" lon="-1.35773">
        <ele>4.4</ele>
        <time>2020-06-02T17:20:36Z</time>
      </trkpt>
      <trkpt lat="46.34831" lon="-1.35774">
        <ele>4.4</ele>
        <time>2020-06-02T17:20:37Z</time>
      </trkpt>
      <trkpt lat="46.34831" lon="-1.35774">
        <ele>4.4</ele>
        <time>2020-06-02T17:20:38Z</time>
      </trkpt>
      <trkpt lat="46.34831" lon="-1.35774">
        <ele>4.4</ele>
        <time>2020-06-02T17:20:39Z</time>
      </trkpt>
      <trkpt lat="46.34831" lon="-1.35774">
        <ele>4.4</ele>
        <time>2020-06-02T17:20:40Z</time>
      </trkpt>
      <trkpt lat="46.34831" lon="-1.35774">
        <ele>4.4</ele>
        <time>2020-06-02T17:20:41Z</time>
      </trkpt>
      <trkpt lat="46.34831" lon="-1.35774">
        <ele>4.4</ele>
        <time>2020-06-02T17:20:42Z</time>
      </trkpt>
      <trkpt lat="46.34831" lon="-1.35774">
        <ele>4.4</ele>
        <time>2020-06-02T17:20:43Z</time>
      </trkpt>
      <trkpt lat="46.34831" lon="-1.35774">
        <ele>4.4</ele>
        <time>2020-06-02T17:20:44Z</time>
      </trkpt>
      <trkpt lat="46.34831" lon="-1.35774">
        <ele>4.4</ele>
        <time>2020-06-02T17:20:45Z</time>
      </trkpt>
      <trkpt lat="46.34831" lon="-1.35774">
        <ele>4.4</ele>
        <time>2020-06-02T17:20:46Z</time>
      </trkpt>
      <trkpt lat="46.34831" lon="-1.35774">
        <ele>4.4</ele>
        <time>2020-06-02T17:20:47Z</time>
      </trkpt>
      <trkpt lat="46.34831" lon="-1.35774">
        <ele>4.4</ele>
        <time>2020-06-02T17:20:48Z</time>
      </trkpt>
      <trkpt lat="46.34831" lon="-1.35774">
        <ele>4.4</ele>
        <time>2020-06-02T17:20:49Z</time>
      </trkpt>
      <trkpt lat="46.34831" lon="-1.35774">
        <ele>4.4</ele>
        <time>2020-06-02T17:20:50Z</time>
      </trkpt>
      <trkpt lat="46.34831" lon="-1.35774">
        <ele>4.4</ele>
        <time>2020-06-02T17:20:51Z</time>
      </trkpt>
      <trkpt lat="46.34831" lon="-1.35774">
        <ele>4.4</ele>
        <time>2020-06-02T17:20:52Z</time>
      </trkpt>
      <trkpt lat="46.34831" lon="-1.35774">
        <ele>4.4</ele>
        <time>2020-06-02T17:20:53Z</time>
      </trkpt>
      <trkpt lat="46.34831" lon="-1.35774">
        <ele>4.4</ele>
        <time>2020-06-02T17:20:54Z</time>
      </trkpt>
      <trkpt lat="46.34831" lon="-1.35774">
        <ele>4.4</ele>
        <time>2020-06-02T17:20:55Z</time>
      </trkpt>
      <trkpt lat="46.34831" lon="-1.35774">
        <ele>4.4</ele>
        <time>2020-06-02T17:20:56Z</time>
      </trkpt>
      <trkpt lat="46.34832" lon="-1.35774">
        <ele>4.4</ele>
        <time>2020-06-02T17:20:57Z</time>
      </trkpt>
      <trkpt lat="46.34832" lon="-1.35774">
        <ele>4.4</ele>
        <time>2020-06-02T17:20:58Z</time>
      </trkpt>
      <trkpt lat="46.34832" lon="-1.35773">
        <ele>4.4</ele>
        <time>2020-06-02T17:20:59Z</time>
      </trkpt>
      <trkpt lat="46.34833" lon="-1.35772">
        <ele>4.4</ele>
        <time>2020-06-02T17:21:00Z</time>
      </trkpt>
      <trkpt lat="46.34833" lon="-1.35773">
        <ele>4.4</ele>
        <time>2020-06-02T17:21:01Z</time>
      </trkpt>
      <trkpt lat="46.34833" lon="-1.35772">
        <ele>4.4</ele>
        <time>2020-06-02T17:21:02Z</time>
      </trkpt>
      <trkpt lat="46.34833" lon="-1.35772">
        <ele>4.4</ele>
        <time>2020-06-02T17:21:03Z</time>
      </trkpt>
      <trkpt lat="46.34833" lon="-1.35772">
        <ele>4.4</ele>
        <time>2020-06-02T17:21:04Z</time>
      </trkpt>
      <trkpt lat="46.34833" lon="-1.35772">
        <ele>4.4</ele>
        <time>2020-06-02T17:21:05Z</time>
      </trkpt>
      <trkpt lat="46.34833" lon="-1.35772">
        <ele>4.4</ele>
        <time>2020-06-02T17:21:06Z</time>
      </trkpt>
      <trkpt lat="46.34833" lon="-1.35772">
        <ele>4.4</ele>
        <time>2020-06-02T17:21:07Z</time>
      </trkpt>
      <trkpt lat="46.34833" lon="-1.35772">
        <ele>4.4</ele>
        <time>2020-06-02T17:21:08Z</time>
      </trkpt>
      <trkpt lat="46.34833" lon="-1.35771">
        <ele>4.4</ele>
        <time>2020-06-02T17:21:09Z</time>
      </trkpt>
      <trkpt lat="46.34832" lon="-1.35771">
        <ele>4.4</ele>
        <time>2020-06-02T17:21:10Z</time>
      </trkpt>
      <trkpt lat="46.34832" lon="-1.35771">
        <ele>4.4</ele>
        <time>2020-06-02T17:21:11Z</time>
      </trkpt>
      <trkpt lat="46.34831" lon="-1.35771">
        <ele>4.4</ele>
        <time>2020-06-02T17:21:12Z</time>
      </trkpt>
      <trkpt lat="46.34831" lon="-1.35771">
        <ele>4.4</ele>
        <time>2020-06-02T17:21:13Z</time>
      </trkpt>
      <trkpt lat="46.34831" lon="-1.35771">
        <ele>4.4</ele>
        <time>2020-06-02T17:21:14Z</time>
      </trkpt>
      <trkpt lat="46.34831" lon="-1.35772">
        <ele>4.4</ele>
        <time>2020-06-02T17:21:15Z</time>
      </trkpt>
      <trkpt lat="46.34832" lon="-1.35773">
        <ele>4.4</ele>
        <time>2020-06-02T17:21:16Z</time>
      </trkpt>
      <trkpt lat="46.34833" lon="-1.35772">
        <ele>4.4</ele>
        <time>2020-06-02T17:21:17Z</time>
      </trkpt>
      <trkpt lat="46.34833" lon="-1.35773">
        <ele>4.4</ele>
        <time>2020-06-02T17:21:18Z</time>
      </trkpt>
      <trkpt lat="46.34834" lon="-1.35773">
        <ele>4.4</ele>
        <time>2020-06-02T17:21:19Z</time>
      </trkpt>
      <trkpt lat="46.34835" lon="-1.35773">
        <ele>4.4</ele>
        <time>2020-06-02T17:21:20Z</time>
      </trkpt>
      <trkpt lat="46.34836" lon="-1.35773">
        <ele>4.4</ele>
        <time>2020-06-02T17:21:21Z</time>
      </trkpt>
      <trkpt lat="46.34836" lon="-1.35772">
        <ele>4.4</ele>
        <time>2020-06-02T17:21:22Z</time>
      </trkpt>
      <trkpt lat="46.34837" lon="-1.35771">
        <ele>4.4</ele>
        <time>2020-06-02T17:21:23Z</time>
      </trkpt>
      <trkpt lat="46.34837" lon="-1.35771">
        <ele>4.4</ele>
        <time>2020-06-02T17:21:24Z</time>
      </trkpt>
      <trkpt lat="46.34838" lon="-1.35772">
        <ele>4.4</ele>
        <time>2020-06-02T17:21:25Z</time>
      </trkpt>
      <trkpt lat="46.34838" lon="-1.35771">
        <ele>4.4</ele>
        <time>2020-06-02T17:21:26Z</time>
      </trkpt>
      <trkpt lat="46.34837" lon="-1.35771">
        <ele>4.4</ele>
        <time>2020-06-02T17:21:27Z</time>
      </trkpt>
      <trkpt lat="46.34837" lon="-1.35771">
        <ele>4.4</ele>
        <time>2020-06-02T17:21:28Z</time>
      </trkpt>
      <trkpt lat="46.34837" lon="-1.35771">
        <ele>4.4</ele>
        <time>2020-06-02T17:21:29Z</time>
      </trkpt>
      <trkpt lat="46.34837" lon="-1.35771">
        <ele>4.4</ele>
        <time>2020-06-02T17:21:30Z</time>
      </trkpt>
      <trkpt lat="46.34837" lon="-1.35771">
        <ele>4.4</ele>
        <time>2020-06-02T17:21:31Z</time>
      </trkpt>
      <trkpt lat="46.34837" lon="-1.35771">
        <ele>4.4</ele>
        <time>2020-06-02T17:21:32Z</time>
      </trkpt>
      <trkpt lat="46.34836" lon="-1.35771">
        <ele>4.4</ele>
        <time>2020-06-02T17:21:33Z</time>
      </trkpt>
      <trkpt lat="46.34836" lon="-1.35771">
        <ele>4.4</ele>
        <time>2020-06-02T17:21:34Z</time>
      </trkpt>
      <trkpt lat="46.34836" lon="-1.3577">
        <ele>4.4</ele>
        <time>2020-06-02T17:21:35Z</time>
      </trkpt>
      <trkpt lat="46.34835" lon="-1.35769">
        <ele>4.4</ele>
        <time>2020-06-02T17:21:36Z</time>
      </trkpt>
      <trkpt lat="46.34836" lon="-1.35768">
        <ele>4.4</ele>
        <time>2020-06-02T17:21:37Z</time>
      </trkpt>
      <trkpt lat="46.34836" lon="-1.35766">
        <ele>4.4</ele>
        <time>2020-06-02T17:21:38Z</time>
      </trkpt>
      <trkpt lat="46.34836" lon="-1.35766">
        <ele>4.4</ele>
        <time>2020-06-02T17:21:39Z</time>
      </trkpt>
      <trkpt lat="46.34836" lon="-1.35766">
        <ele>4.4</ele>
        <time>2020-06-02T17:21:40Z</time>
      </trkpt>
      <trkpt lat="46.34836" lon="-1.35766">
        <ele>4.4</ele>
        <time>2020-06-02T17:21:41Z</time>
      </trkpt>
      <trkpt lat="46.34835" lon="-1.35766">
        <ele>4.4</ele>
        <time>2020-06-02T17:21:42Z</time>
      </trkpt>
      <trkpt lat="46.34835" lon="-1.35766">
        <ele>4.4</ele>
        <time>2020-06-02T17:21:43Z</time>
      </trkpt>
      <trkpt lat="46.34835" lon="-1.35766">
        <ele>4.4</ele>
        <time>2020-06-02T17:21:44Z</time>
      </trkpt>
      <trkpt lat="46.34835" lon="-1.35766">
        <ele>4.4</ele>
        <time>2020-06-02T17:21:45Z</time>
      </trkpt>
      <trkpt lat="46.34835" lon="-1.35766">
        <ele>4.4</ele>
        <time>2020-06-02T17:21:46Z</time>
      </trkpt>
      <trkpt lat="46.34835" lon="-1.35767">
        <ele>4.4</ele>
        <time>2020-06-02T17:21:47Z</time>
      </trkpt>
      <trkpt lat="46.34835" lon="-1.35767">
        <ele>4.4</ele>
        <time>2020-06-02T17:21:48Z</time>
      </trkpt>
      <trkpt lat="46.34835" lon="-1.35767">
        <ele>4.4</ele>
        <time>2020-06-02T17:21:49Z</time>
      </trkpt>
      <trkpt lat="46.34835" lon="-1.35767">
        <ele>4.4</ele>
        <time>2020-06-02T17:21:50Z</time>
      </trkpt>
      <trkpt lat="46.34835" lon="-1.35767">
        <ele>4.4</ele>
        <time>2020-06-02T17:21:51Z</time>
      </trkpt>
      <trkpt lat="46.34835" lon="-1.35767">
        <ele>4.4</ele>
        <time>2020-06-02T17:21:52Z</time>
      </trkpt>
      <trkpt lat="46.34835" lon="-1.35767">
        <ele>4.4</ele>
        <time>2020-06-02T17:21:53Z</time>
      </trkpt>
      <trkpt lat="46.34835" lon="-1.35767">
        <ele>4.4</ele>
        <time>2020-06-02T17:21:54Z</time>
      </trkpt>
      <trkpt lat="46.34835" lon="-1.35767">
        <ele>4.4</ele>
        <time>2020-06-02T17:21:55Z</time>
      </trkpt>
      <trkpt lat="46.34835" lon="-1.35767">
        <ele>4.4</ele>
        <time>2020-06-02T17:21:56Z</time>
      </trkpt>
      <trkpt lat="46.34835" lon="-1.35767">
        <ele>4.4</ele>
        <time>2020-06-02T17:21:57Z</time>
      </trkpt>
      <trkpt lat="46.34835" lon="-1.35767">
        <ele>4.4</ele>
        <time>2020-06-02T17:21:58Z</time>
      </trkpt>
      <trkpt lat="46.34835" lon="-1.35767">
        <ele>4.4</ele>
        <time>2020-06-02T17:21:59Z</time>
      </trkpt>
      <trkpt lat="46.34836" lon="-1.35767">
        <ele>4.4</ele>
        <time>2020-06-02T17:22:00Z</time>
      </trkpt>
      <trkpt lat="46.34837" lon="-1.35767">
        <ele>4.4</ele>
        <time>2020-06-02T17:22:01Z</time>
      </trkpt>
      <trkpt lat="46.34837" lon="-1.35767">
        <ele>4.4</ele>
        <time>2020-06-02T17:22:02Z</time>
      </trkpt>
      <trkpt lat="46.34837" lon="-1.35767">
        <ele>4.4</ele>
        <time>2020-06-02T17:22:03Z</time>
      </trkpt>
      <trkpt lat="46.34836" lon="-1.35767">
        <ele>4.4</ele>
        <time>2020-06-02T17:22:04Z</time>
      </trkpt>
      <trkpt lat="46.34836" lon="-1.35768">
        <ele>4.4</ele>
        <time>2020-06-02T17:22:05Z</time>
      </trkpt>
      <trkpt lat="46.34837" lon="-1.35768">
        <ele>4.4</ele>
        <time>2020-06-02T17:22:06Z</time>
      </trkpt>
      <trkpt lat="46.34837" lon="-1.35768">
        <ele>4.4</ele>
        <time>2020-06-02T17:22:07Z</time>
      </trkpt>
      <trkpt lat="46.34836" lon="-1.35768">
        <ele>4.4</ele>
        <time>2020-06-02T17:22:08Z</time>
      </trkpt>
      <trkpt lat="46.34837" lon="-1.35768">
        <ele>4.4</ele>
        <time>2020-06-02T17:22:09Z</time>
      </trkpt>
      <trkpt lat="46.34838" lon="-1.3577">
        <ele>4.4</ele>
        <time>2020-06-02T17:22:10Z</time>
      </trkpt>
      <trkpt lat="46.34837" lon="-1.35772">
        <ele>4.4</ele>
        <time>2020-06-02T17:22:11Z</time>
      </trkpt>
      <trkpt lat="46.34839" lon="-1.35777">
        <ele>4.4</ele>
        <time>2020-06-02T17:22:12Z</time>
      </trkpt>
      <trkpt lat="46.34839" lon="-1.35779">
        <ele>4.4</ele>
        <time>2020-06-02T17:22:13Z</time>
      </trkpt>
      <trkpt lat="46.34841" lon="-1.35788">
        <ele>4.4</ele>
        <time>2020-06-02T17:22:14Z</time>
      </trkpt>
      <trkpt lat="46.34844" lon="-1.35796">
        <ele>4.3</ele>
        <time>2020-06-02T17:22:15Z</time>
      </trkpt>
      <trkpt lat="46.34846" lon="-1.35801">
        <ele>4.3</ele>
        <time>2020-06-02T17:22:16Z</time>
      </trkpt>
      <trkpt lat="46.34847" lon="-1.35807">
        <ele>4.3</ele>
        <time>2020-06-02T17:22:17Z</time>
      </trkpt>
      <trkpt lat="46.34848" lon="-1.35813">
        <ele>4.3</ele>
        <time>2020-06-02T17:22:18Z</time>
      </trkpt>
      <trkpt lat="46.34849" lon="-1.35819">
        <ele>4.3</ele>
        <time>2020-06-02T17:22:19Z</time>
      </trkpt>
      <trkpt lat="46.34851" lon="-1.35824">
        <ele>4.3</ele>
        <time>2020-06-02T17:22:20Z</time>
      </trkpt>
      <trkpt lat="46.34853" lon="-1.35829">
        <ele>4.3</ele>
        <time>2020-06-02T17:22:21Z</time>
      </trkpt>
      <trkpt lat="46.34854" lon="-1.35834">
        <ele>4.3</ele>
        <time>2020-06-02T17:22:22Z</time>
      </trkpt>
      <trkpt lat="46.34856" lon="-1.35838">
        <ele>4.3</ele>
        <time>2020-06-02T17:22:23Z</time>
      </trkpt>
      <trkpt lat="46.34857" lon="-1.35844">
        <ele>4.3</ele>
        <time>2020-06-02T17:22:24Z</time>
      </trkpt>
      <trkpt lat="46.34858" lon="-1.35849">
        <ele>4.3</ele>
        <time>2020-06-02T17:22:25Z</time>
      </trkpt>
      <trkpt lat="46.34859" lon="-1.35854">
        <ele>4.3</ele>
        <time>2020-06-02T17:22:26Z</time>
      </trkpt>
      <trkpt lat="46.3486" lon="-1.3586">
        <ele>4.3</ele>
        <time>2020-06-02T17:22:27Z</time>
      </trkpt>
      <trkpt lat="46.34862" lon="-1.35864">
        <ele>4.3</ele>
        <time>2020-06-02T17:22:28Z</time>
      </trkpt>
      <trkpt lat="46.34863" lon="-1.35871">
        <ele>4.3</ele>
        <time>2020-06-02T17:22:29Z</time>
      </trkpt>
      <trkpt lat="46.34864" lon="-1.35878">
        <ele>4.2</ele>
        <time>2020-06-02T17:22:30Z</time>
      </trkpt>
      <trkpt lat="46.34866" lon="-1.35883">
        <ele>4.2</ele>
        <time>2020-06-02T17:22:31Z</time>
      </trkpt>
      <trkpt lat="46.34867" lon="-1.35888">
        <ele>4.2</ele>
        <time>2020-06-02T17:22:32Z</time>
      </trkpt>
      <trkpt lat="46.34868" lon="-1.35893">
        <ele>4.2</ele>
        <time>2020-06-02T17:22:33Z</time>
      </trkpt>
      <trkpt lat="46.3487" lon="-1.35899">
        <ele>4.2</ele>
        <time>2020-06-02T17:22:34Z</time>
      </trkpt>
      <trkpt lat="46.34872" lon="-1.35906">
        <ele>4.2</ele>
        <time>2020-06-02T17:22:35Z</time>
      </trkpt>
      <trkpt lat="46.34875" lon="-1.35913">
        <ele>4.2</ele>
        <time>2020-06-02T17:22:36Z</time>
      </trkpt>
      <trkpt lat="46.34876" lon="-1.3592">
        <ele>4.2</ele>
        <time>2020-06-02T17:22:37Z</time>
      </trkpt>
      <trkpt lat="46.34876" lon="-1.35926">
        <ele>4.2</ele>
        <time>2020-06-02T17:22:38Z</time>
      </trkpt>
      <trkpt lat="46.34877" lon="-1.35932">
        <ele>4.1</ele>
        <time>2020-06-02T17:22:39Z</time>
      </trkpt>
      <trkpt lat="46.34878" lon="-1.35939">
        <ele>4.1</ele>
        <time>2020-06-02T17:22:40Z</time>
      </trkpt>
      <trkpt lat="46.34878" lon="-1.35945">
        <ele>4.1</ele>
        <time>2020-06-02T17:22:41Z</time>
      </trkpt>
      <trkpt lat="46.34878" lon="-1.35952">
        <ele>4.1</ele>
        <time>2020-06-02T17:22:42Z</time>
      </trkpt>
      <trkpt lat="46.34879" lon="-1.35961">
        <ele>4.1</ele>
        <time>2020-06-02T17:22:43Z</time>
      </trkpt>
      <trkpt lat="46.34878" lon="-1.35967">
        <ele>4.1</ele>
        <time>2020-06-02T17:22:44Z</time>
      </trkpt>
      <trkpt lat="46.34878" lon="-1.35974">
        <ele>4.1</ele>
        <time>2020-06-02T17:22:45Z</time>
      </trkpt>
      <trkpt lat="46.34878" lon="-1.35982">
        <ele>4.1</ele>
        <time>2020-06-02T17:22:46Z</time>
      </trkpt>
      <trkpt lat="46.34878" lon="-1.35989">
        <ele>4.1</ele>
        <time>2020-06-02T17:22:47Z</time>
      </trkpt>
      <trkpt lat="46.34877" lon="-1.35996">
        <ele>4.1</ele>
        <time>2020-06-02T17:22:48Z</time>
      </trkpt>
      <trkpt lat="46.34877" lon="-1.36002">
        <ele>4.1</ele>
        <time>2020-06-02T17:22:49Z</time>
      </trkpt>
      <trkpt lat="46.34877" lon="-1.36008">
        <ele>4.1</ele>
        <time>2020-06-02T17:22:50Z</time>
      </trkpt>
      <trkpt lat="46.34877" lon="-1.36015">
        <ele>4.1</ele>
        <time>2020-06-02T17:22:51Z</time>
      </trkpt>
      <trkpt lat="46.34877" lon="-1.36021">
        <ele>4</ele>
        <time>2020-06-02T17:22:52Z</time>
      </trkpt>
      <trkpt lat="46.34878" lon="-1.36028">
        <ele>4</ele>
        <time>2020-06-02T17:22:53Z</time>
      </trkpt>
      <trkpt lat="46.34878" lon="-1.36035">
        <ele>4</ele>
        <time>2020-06-02T17:22:54Z</time>
      </trkpt>
      <trkpt lat="46.34879" lon="-1.36043">
        <ele>4</ele>
        <time>2020-06-02T17:22:55Z</time>
      </trkpt>
      <trkpt lat="46.3488" lon="-1.36051">
        <ele>4</ele>
        <time>2020-06-02T17:22:56Z</time>
      </trkpt>
      <trkpt lat="46.34881" lon="-1.36059">
        <ele>4</ele>
        <time>2020-06-02T17:22:57Z</time>
      </trkpt>
      <trkpt lat="46.34882" lon="-1.36067">
        <ele>4</ele>
        <time>2020-06-02T17:22:58Z</time>
      </trkpt>
      <trkpt lat="46.34883" lon="-1.36074">
        <ele>4</ele>
        <time>2020-06-02T17:22:59Z</time>
      </trkpt>
      <trkpt lat="46.34884" lon="-1.36081">
        <ele>4</ele>
        <time>2020-06-02T17:23:00Z</time>
      </trkpt>
      <trkpt lat="46.34885" lon="-1.36088">
        <ele>4</ele>
        <time>2020-06-02T17:23:01Z</time>
      </trkpt>
      <trkpt lat="46.34885" lon="-1.36095">
        <ele>4</ele>
        <time>2020-06-02T17:23:02Z</time>
      </trkpt>
      <trkpt lat="46.34885" lon="-1.36102">
        <ele>4</ele>
        <time>2020-06-02T17:23:03Z</time>
      </trkpt>
      <trkpt lat="46.34885" lon="-1.3611">
        <ele>4</ele>
        <time>2020-06-02T17:23:04Z</time>
      </trkpt>
      <trkpt lat="46.34886" lon="-1.36119">
        <ele>4</ele>
        <time>2020-06-02T17:23:05Z</time>
      </trkpt>
      <trkpt lat="46.34886" lon="-1.36126">
        <ele>4</ele>
        <time>2020-06-02T17:23:06Z</time>
      </trkpt>
      <trkpt lat="46.34888" lon="-1.36134">
        <ele>4</ele>
        <time>2020-06-02T17:23:07Z</time>
      </trkpt>
      <trkpt lat="46.34888" lon="-1.36141">
        <ele>4</ele>
        <time>2020-06-02T17:23:08Z</time>
      </trkpt>
      <trkpt lat="46.34888" lon="-1.36148">
        <ele>4</ele>
        <time>2020-06-02T17:23:09Z</time>
      </trkpt>
      <trkpt lat="46.34889" lon="-1.36155">
        <ele>4</ele>
        <time>2020-06-02T17:23:10Z</time>
      </trkpt>
      <trkpt lat="46.34889" lon="-1.36163">
        <ele>4.1</ele>
        <time>2020-06-02T17:23:11Z</time>
      </trkpt>
      <trkpt lat="46.34889" lon="-1.36171">
        <ele>4.1</ele>
        <time>2020-06-02T17:23:12Z</time>
      </trkpt>
      <trkpt lat="46.34889" lon="-1.36179">
        <ele>4.1</ele>
        <time>2020-06-02T17:23:13Z</time>
      </trkpt>
      <trkpt lat="46.34889" lon="-1.36187">
        <ele>4.1</ele>
        <time>2020-06-02T17:23:14Z</time>
      </trkpt>
      <trkpt lat="46.34889" lon="-1.36195">
        <ele>4.1</ele>
        <time>2020-06-02T17:23:15Z</time>
      </trkpt>
      <trkpt lat="46.3489" lon="-1.36203">
        <ele>4.2</ele>
        <time>2020-06-02T17:23:16Z</time>
      </trkpt>
      <trkpt lat="46.34889" lon="-1.36211">
        <ele>4.2</ele>
        <time>2020-06-02T17:23:17Z</time>
      </trkpt>
      <trkpt lat="46.34889" lon="-1.36218">
        <ele>4.2</ele>
        <time>2020-06-02T17:23:18Z</time>
      </trkpt>
      <trkpt lat="46.34889" lon="-1.36226">
        <ele>4.2</ele>
        <time>2020-06-02T17:23:19Z</time>
      </trkpt>
      <trkpt lat="46.34889" lon="-1.36234">
        <ele>4.2</ele>
        <time>2020-06-02T17:23:20Z</time>
      </trkpt>
      <trkpt lat="46.34891" lon="-1.36242">
        <ele>4.2</ele>
        <time>2020-06-02T17:23:21Z</time>
      </trkpt>
      <trkpt lat="46.34891" lon="-1.36249">
        <ele>4.2</ele>
        <time>2020-06-02T17:23:22Z</time>
      </trkpt>
      <trkpt lat="46.34891" lon="-1.36257">
        <ele>4.3</ele>
        <time>2020-06-02T17:23:23Z</time>
      </trkpt>
      <trkpt lat="46.34891" lon="-1.36264">
        <ele>4.3</ele>
        <time>2020-06-02T17:23:24Z</time>
      </trkpt>
      <trkpt lat="46.34891" lon="-1.36272">
        <ele>4.3</ele>
        <time>2020-06-02T17:23:25Z</time>
      </trkpt>
      <trkpt lat="46.34891" lon="-1.3628">
        <ele>4.3</ele>
        <time>2020-06-02T17:23:26Z</time>
      </trkpt>
      <trkpt lat="46.3489" lon="-1.36287">
        <ele>4.3</ele>
        <time>2020-06-02T17:23:27Z</time>
      </trkpt>
      <trkpt lat="46.34891" lon="-1.36295">
        <ele>4.3</ele>
        <time>2020-06-02T17:23:28Z</time>
      </trkpt>
      <trkpt lat="46.34892" lon="-1.36302">
        <ele>4.3</ele>
        <time>2020-06-02T17:23:29Z</time>
      </trkpt>
      <trkpt lat="46.34892" lon="-1.36309">
        <ele>4.3</ele>
        <time>2020-06-02T17:23:30Z</time>
      </trkpt>
      <trkpt lat="46.34892" lon="-1.36317">
        <ele>4.3</ele>
        <time>2020-06-02T17:23:31Z</time>
      </trkpt>
      <trkpt lat="46.34893" lon="-1.36326">
        <ele>4.3</ele>
        <time>2020-06-02T17:23:32Z</time>
      </trkpt>
      <trkpt lat="46.34893" lon="-1.36334">
        <ele>4.3</ele>
        <time>2020-06-02T17:23:33Z</time>
      </trkpt>
      <trkpt lat="46.34894" lon="-1.3634">
        <ele>4.3</ele>
        <time>2020-06-02T17:23:34Z</time>
      </trkpt>
      <trkpt lat="46.34894" lon="-1.36346">
        <ele>4.3</ele>
        <time>2020-06-02T17:23:35Z</time>
      </trkpt>
      <trkpt lat="46.34895" lon="-1.36351">
        <ele>4.3</ele>
        <time>2020-06-02T17:23:36Z</time>
      </trkpt>
      <trkpt lat="46.34896" lon="-1.36358">
        <ele>4.3</ele>
        <time>2020-06-02T17:23:37Z</time>
      </trkpt>
      <trkpt lat="46.34897" lon="-1.36365">
        <ele>4.3</ele>
        <time>2020-06-02T17:23:38Z</time>
      </trkpt>
      <trkpt lat="46.34897" lon="-1.36372">
        <ele>4.3</ele>
        <time>2020-06-02T17:23:39Z</time>
      </trkpt>
      <trkpt lat="46.34897" lon="-1.36379">
        <ele>4.3</ele>
        <time>2020-06-02T17:23:40Z</time>
      </trkpt>
      <trkpt lat="46.34897" lon="-1.36386">
        <ele>4.3</ele>
        <time>2020-06-02T17:23:41Z</time>
      </trkpt>
      <trkpt lat="46.34897" lon="-1.36394">
        <ele>4.3</ele>
        <time>2020-06-02T17:23:42Z</time>
      </trkpt>
      <trkpt lat="46.34896" lon="-1.36402">
        <ele>4.3</ele>
        <time>2020-06-02T17:23:43Z</time>
      </trkpt>
      <trkpt lat="46.34896" lon="-1.36409">
        <ele>4.3</ele>
        <time>2020-06-02T17:23:44Z</time>
      </trkpt>
      <trkpt lat="46.34896" lon="-1.36417">
        <ele>4.3</ele>
        <time>2020-06-02T17:23:45Z</time>
      </trkpt>
      <trkpt lat="46.34895" lon="-1.36423">
        <ele>4.3</ele>
        <time>2020-06-02T17:23:46Z</time>
      </trkpt>
      <trkpt lat="46.34894" lon="-1.36429">
        <ele>4.3</ele>
        <time>2020-06-02T17:23:47Z</time>
      </trkpt>
      <trkpt lat="46.34893" lon="-1.36435">
        <ele>4.3</ele>
        <time>2020-06-02T17:23:48Z</time>
      </trkpt>
      <trkpt lat="46.34893" lon="-1.36442">
        <ele>4.3</ele>
        <time>2020-06-02T17:23:49Z</time>
      </trkpt>
      <trkpt lat="46.34895" lon="-1.36449">
        <ele>4.3</ele>
        <time>2020-06-02T17:23:50Z</time>
      </trkpt>
      <trkpt lat="46.34895" lon="-1.36456">
        <ele>4.2</ele>
        <time>2020-06-02T17:23:51Z</time>
      </trkpt>
      <trkpt lat="46.34896" lon="-1.36463">
        <ele>4.2</ele>
        <time>2020-06-02T17:23:52Z</time>
      </trkpt>
      <trkpt lat="46.34897" lon="-1.3647">
        <ele>4.2</ele>
        <time>2020-06-02T17:23:53Z</time>
      </trkpt>
      <trkpt lat="46.34897" lon="-1.36477">
        <ele>4.2</ele>
        <time>2020-06-02T17:23:54Z</time>
      </trkpt>
      <trkpt lat="46.34897" lon="-1.36484">
        <ele>4.2</ele>
        <time>2020-06-02T17:23:55Z</time>
      </trkpt>
      <trkpt lat="46.34896" lon="-1.36494">
        <ele>4.1</ele>
        <time>2020-06-02T17:23:56Z</time>
      </trkpt>
      <trkpt lat="46.34895" lon="-1.36501">
        <ele>4.1</ele>
        <time>2020-06-02T17:23:57Z</time>
      </trkpt>
      <trkpt lat="46.34895" lon="-1.36506">
        <ele>4.1</ele>
        <time>2020-06-02T17:23:58Z</time>
      </trkpt>
      <trkpt lat="46.34895" lon="-1.36513">
        <ele>4</ele>
        <time>2020-06-02T17:23:59Z</time>
      </trkpt>
      <trkpt lat="46.34896" lon="-1.3652">
        <ele>4</ele>
        <time>2020-06-02T17:24:00Z</time>
      </trkpt>
      <trkpt lat="46.34897" lon="-1.36528">
        <ele>3.9</ele>
        <time>2020-06-02T17:24:01Z</time>
      </trkpt>
      <trkpt lat="46.34897" lon="-1.36537">
        <ele>3.9</ele>
        <time>2020-06-02T17:24:02Z</time>
      </trkpt>
      <trkpt lat="46.34898" lon="-1.36543">
        <ele>3.9</ele>
        <time>2020-06-02T17:24:03Z</time>
      </trkpt>
      <trkpt lat="46.34899" lon="-1.36549">
        <ele>3.9</ele>
        <time>2020-06-02T17:24:04Z</time>
      </trkpt>
      <trkpt lat="46.34899" lon="-1.36555">
        <ele>3.9</ele>
        <time>2020-06-02T17:24:05Z</time>
      </trkpt>
      <trkpt lat="46.349" lon="-1.36561">
        <ele>3.9</ele>
        <time>2020-06-02T17:24:06Z</time>
      </trkpt>
      <trkpt lat="46.349" lon="-1.36568">
        <ele>3.9</ele>
        <time>2020-06-02T17:24:07Z</time>
      </trkpt>
      <trkpt lat="46.34899" lon="-1.36574">
        <ele>3.8</ele>
        <time>2020-06-02T17:24:08Z</time>
      </trkpt>
      <trkpt lat="46.34899" lon="-1.36581">
        <ele>3.8</ele>
        <time>2020-06-02T17:24:09Z</time>
      </trkpt>
      <trkpt lat="46.349" lon="-1.36589">
        <ele>3.8</ele>
        <time>2020-06-02T17:24:10Z</time>
      </trkpt>
      <trkpt lat="46.349" lon="-1.36596">
        <ele>3.8</ele>
        <time>2020-06-02T17:24:11Z</time>
      </trkpt>
      <trkpt lat="46.34901" lon="-1.36603">
        <ele>3.8</ele>
        <time>2020-06-02T17:24:12Z</time>
      </trkpt>
      <trkpt lat="46.34901" lon="-1.36609">
        <ele>3.8</ele>
        <time>2020-06-02T17:24:13Z</time>
      </trkpt>
      <trkpt lat="46.34902" lon="-1.36615">
        <ele>3.7</ele>
        <time>2020-06-02T17:24:14Z</time>
      </trkpt>
      <trkpt lat="46.34904" lon="-1.36621">
        <ele>3.7</ele>
        <time>2020-06-02T17:24:15Z</time>
      </trkpt>
      <trkpt lat="46.34905" lon="-1.36628">
        <ele>3.7</ele>
        <time>2020-06-02T17:24:16Z</time>
      </trkpt>
      <trkpt lat="46.34906" lon="-1.36635">
        <ele>3.7</ele>
        <time>2020-06-02T17:24:17Z</time>
      </trkpt>
      <trkpt lat="46.34908" lon="-1.36641">
        <ele>3.8</ele>
        <time>2020-06-02T17:24:18Z</time>
      </trkpt>
      <trkpt lat="46.3491" lon="-1.36647">
        <ele>3.8</ele>
        <time>2020-06-02T17:24:19Z</time>
      </trkpt>
      <trkpt lat="46.34912" lon="-1.36652">
        <ele>3.9</ele>
        <time>2020-06-02T17:24:20Z</time>
      </trkpt>
      <trkpt lat="46.34915" lon="-1.36657">
        <ele>4</ele>
        <time>2020-06-02T17:24:21Z</time>
      </trkpt>
      <trkpt lat="46.34918" lon="-1.36662">
        <ele>4.1</ele>
        <time>2020-06-02T17:24:22Z</time>
      </trkpt>
      <trkpt lat="46.3492" lon="-1.36668">
        <ele>4.1</ele>
        <time>2020-06-02T17:24:23Z</time>
      </trkpt>
      <trkpt lat="46.34923" lon="-1.36673">
        <ele>4.2</ele>
        <time>2020-06-02T17:24:24Z</time>
      </trkpt>
      <trkpt lat="46.34925" lon="-1.36679">
        <ele>4.3</ele>
        <time>2020-06-02T17:24:25Z</time>
      </trkpt>
      <trkpt lat="46.34927" lon="-1.36685">
        <ele>4.3</ele>
        <time>2020-06-02T17:24:26Z</time>
      </trkpt>
      <trkpt lat="46.34929" lon="-1.36692">
        <ele>4.4</ele>
        <time>2020-06-02T17:24:27Z</time>
      </trkpt>
      <trkpt lat="46.3493" lon="-1.36698">
        <ele>4.5</ele>
        <time>2020-06-02T17:24:28Z</time>
      </trkpt>
      <trkpt lat="46.34931" lon="-1.36704">
        <ele>4.5</ele>
        <time>2020-06-02T17:24:29Z</time>
      </trkpt>
      <trkpt lat="46.34932" lon="-1.36709">
        <ele>4.5</ele>
        <time>2020-06-02T17:24:30Z</time>
      </trkpt>
      <trkpt lat="46.34933" lon="-1.36714">
        <ele>4.5</ele>
        <time>2020-06-02T17:24:31Z</time>
      </trkpt>
      <trkpt lat="46.34935" lon="-1.36719">
        <ele>4.5</ele>
        <time>2020-06-02T17:24:32Z</time>
      </trkpt>
      <trkpt lat="46.34936" lon="-1.36723">
        <ele>4.6</ele>
        <time>2020-06-02T17:24:33Z</time>
      </trkpt>
      <trkpt lat="46.34938" lon="-1.36727">
        <ele>4.6</ele>
        <time>2020-06-02T17:24:34Z</time>
      </trkpt>
      <trkpt lat="46.3494" lon="-1.3673">
        <ele>4.6</ele>
        <time>2020-06-02T17:24:35Z</time>
      </trkpt>
      <trkpt lat="46.34942" lon="-1.36734">
        <ele>4.6</ele>
        <time>2020-06-02T17:24:36Z</time>
      </trkpt>
      <trkpt lat="46.34945" lon="-1.36738">
        <ele>4.6</ele>
        <time>2020-06-02T17:24:37Z</time>
      </trkpt>
      <trkpt lat="46.34947" lon="-1.36744">
        <ele>4.6</ele>
        <time>2020-06-02T17:24:38Z</time>
      </trkpt>
      <trkpt lat="46.34948" lon="-1.3675">
        <ele>4.6</ele>
        <time>2020-06-02T17:24:39Z</time>
      </trkpt>
      <trkpt lat="46.34948" lon="-1.36756">
        <ele>4.6</ele>
        <time>2020-06-02T17:24:40Z</time>
      </trkpt>
      <trkpt lat="46.34948" lon="-1.36762">
        <ele>4.6</ele>
        <time>2020-06-02T17:24:41Z</time>
      </trkpt>
      <trkpt lat="46.34948" lon="-1.36769">
        <ele>4.6</ele>
        <time>2020-06-02T17:24:42Z</time>
      </trkpt>
      <trkpt lat="46.34949" lon="-1.36775">
        <ele>4.6</ele>
        <time>2020-06-02T17:24:43Z</time>
      </trkpt>
      <trkpt lat="46.34949" lon="-1.36781">
        <ele>4.6</ele>
        <time>2020-06-02T17:24:44Z</time>
      </trkpt>
      <trkpt lat="46.3495" lon="-1.36787">
        <ele>4.6</ele>
        <time>2020-06-02T17:24:45Z</time>
      </trkpt>
      <trkpt lat="46.3495" lon="-1.36794">
        <ele>4.6</ele>
        <time>2020-06-02T17:24:46Z</time>
      </trkpt>
      <trkpt lat="46.3495" lon="-1.36801">
        <ele>4.6</ele>
        <time>2020-06-02T17:24:47Z</time>
      </trkpt>
      <trkpt lat="46.34951" lon="-1.36807">
        <ele>4.7</ele>
        <time>2020-06-02T17:24:48Z</time>
      </trkpt>
      <trkpt lat="46.34951" lon="-1.36813">
        <ele>4.7</ele>
        <time>2020-06-02T17:24:49Z</time>
      </trkpt>
      <trkpt lat="46.3495" lon="-1.36819">
        <ele>4.8</ele>
        <time>2020-06-02T17:24:50Z</time>
      </trkpt>
      <trkpt lat="46.34951" lon="-1.36825">
        <ele>4.8</ele>
        <time>2020-06-02T17:24:51Z</time>
      </trkpt>
      <trkpt lat="46.34952" lon="-1.36832">
        <ele>4.9</ele>
        <time>2020-06-02T17:24:52Z</time>
      </trkpt>
      <trkpt lat="46.34952" lon="-1.36837">
        <ele>5</ele>
        <time>2020-06-02T17:24:53Z</time>
      </trkpt>
      <trkpt lat="46.3495" lon="-1.36842">
        <ele>5.1</ele>
        <time>2020-06-02T17:24:54Z</time>
      </trkpt>
      <trkpt lat="46.34949" lon="-1.36848">
        <ele>5.2</ele>
        <time>2020-06-02T17:24:55Z</time>
      </trkpt>
      <trkpt lat="46.34949" lon="-1.36854">
        <ele>5.3</ele>
        <time>2020-06-02T17:24:56Z</time>
      </trkpt>
      <trkpt lat="46.34948" lon="-1.3686">
        <ele>5.4</ele>
        <time>2020-06-02T17:24:57Z</time>
      </trkpt>
      <trkpt lat="46.34948" lon="-1.36867">
        <ele>5.4</ele>
        <time>2020-06-02T17:24:58Z</time>
      </trkpt>
      <trkpt lat="46.34947" lon="-1.36873">
        <ele>5.5</ele>
        <time>2020-06-02T17:24:59Z</time>
      </trkpt>
      <trkpt lat="46.34947" lon="-1.36879">
        <ele>5.5</ele>
        <time>2020-06-02T17:25:00Z</time>
      </trkpt>
      <trkpt lat="46.34947" lon="-1.36885">
        <ele>5.6</ele>
        <time>2020-06-02T17:25:01Z</time>
      </trkpt>
      <trkpt lat="46.34946" lon="-1.3689">
        <ele>5.6</ele>
        <time>2020-06-02T17:25:02Z</time>
      </trkpt>
      <trkpt lat="46.34945" lon="-1.36895">
        <ele>5.6</ele>
        <time>2020-06-02T17:25:03Z</time>
      </trkpt>
      <trkpt lat="46.34946" lon="-1.36901">
        <ele>5.7</ele>
        <time>2020-06-02T17:25:04Z</time>
      </trkpt>
      <trkpt lat="46.34945" lon="-1.36907">
        <ele>5.7</ele>
        <time>2020-06-02T17:25:05Z</time>
      </trkpt>
      <trkpt lat="46.34946" lon="-1.36914">
        <ele>5.7</ele>
        <time>2020-06-02T17:25:06Z</time>
      </trkpt>
      <trkpt lat="46.34946" lon="-1.3692">
        <ele>5.8</ele>
        <time>2020-06-02T17:25:07Z</time>
      </trkpt>
      <trkpt lat="46.34946" lon="-1.36927">
        <ele>5.8</ele>
        <time>2020-06-02T17:25:08Z</time>
      </trkpt>
      <trkpt lat="46.34946" lon="-1.36933">
        <ele>5.9</ele>
        <time>2020-06-02T17:25:09Z</time>
      </trkpt>
      <trkpt lat="46.34945" lon="-1.3694">
        <ele>5.9</ele>
        <time>2020-06-02T17:25:10Z</time>
      </trkpt>
      <trkpt lat="46.34945" lon="-1.36945">
        <ele>6</ele>
        <time>2020-06-02T17:25:11Z</time>
      </trkpt>
      <trkpt lat="46.34945" lon="-1.3695">
        <ele>6</ele>
        <time>2020-06-02T17:25:12Z</time>
      </trkpt>
      <trkpt lat="46.34945" lon="-1.36957">
        <ele>6.1</ele>
        <time>2020-06-02T17:25:13Z</time>
      </trkpt>
      <trkpt lat="46.34945" lon="-1.36964">
        <ele>6.1</ele>
        <time>2020-06-02T17:25:14Z</time>
      </trkpt>
      <trkpt lat="46.34944" lon="-1.3697">
        <ele>6.2</ele>
        <time>2020-06-02T17:25:15Z</time>
      </trkpt>
      <trkpt lat="46.34944" lon="-1.36976">
        <ele>6.2</ele>
        <time>2020-06-02T17:25:16Z</time>
      </trkpt>
      <trkpt lat="46.34943" lon="-1.36982">
        <ele>6.2</ele>
        <time>2020-06-02T17:25:17Z</time>
      </trkpt>
      <trkpt lat="46.34942" lon="-1.3699">
        <ele>6.3</ele>
        <time>2020-06-02T17:25:18Z</time>
      </trkpt>
      <trkpt lat="46.34941" lon="-1.36995">
        <ele>6.3</ele>
        <time>2020-06-02T17:25:19Z</time>
      </trkpt>
      <trkpt lat="46.34942" lon="-1.37001">
        <ele>6.3</ele>
        <time>2020-06-02T17:25:20Z</time>
      </trkpt>
      <trkpt lat="46.34942" lon="-1.37008">
        <ele>6.4</ele>
        <time>2020-06-02T17:25:21Z</time>
      </trkpt>
      <trkpt lat="46.34943" lon="-1.37016">
        <ele>6.4</ele>
        <time>2020-06-02T17:25:22Z</time>
      </trkpt>
      <trkpt lat="46.34943" lon="-1.37022">
        <ele>6.4</ele>
        <time>2020-06-02T17:25:23Z</time>
      </trkpt>
      <trkpt lat="46.34944" lon="-1.37029">
        <ele>6.4</ele>
        <time>2020-06-02T17:25:24Z</time>
      </trkpt>
      <trkpt lat="46.34944" lon="-1.37036">
        <ele>6.4</ele>
        <time>2020-06-02T17:25:25Z</time>
      </trkpt>
      <trkpt lat="46.34945" lon="-1.37042">
        <ele>6.4</ele>
        <time>2020-06-02T17:25:26Z</time>
      </trkpt>
      <trkpt lat="46.34945" lon="-1.37049">
        <ele>6.3</ele>
        <time>2020-06-02T17:25:27Z</time>
      </trkpt>
      <trkpt lat="46.34946" lon="-1.37055">
        <ele>6.3</ele>
        <time>2020-06-02T17:25:28Z</time>
      </trkpt>
      <trkpt lat="46.34946" lon="-1.37062">
        <ele>6.3</ele>
        <time>2020-06-02T17:25:29Z</time>
      </trkpt>
      <trkpt lat="46.34947" lon="-1.37068">
        <ele>6.3</ele>
        <time>2020-06-02T17:25:30Z</time>
      </trkpt>
      <trkpt lat="46.34947" lon="-1.37076">
        <ele>6.3</ele>
        <time>2020-06-02T17:25:31Z</time>
      </trkpt>
      <trkpt lat="46.34947" lon="-1.37083">
        <ele>6.2</ele>
        <time>2020-06-02T17:25:32Z</time>
      </trkpt>
      <trkpt lat="46.34948" lon="-1.37089">
        <ele>6.2</ele>
        <time>2020-06-02T17:25:33Z</time>
      </trkpt>
      <trkpt lat="46.34948" lon="-1.37097">
        <ele>6.2</ele>
        <time>2020-06-02T17:25:34Z</time>
      </trkpt>
      <trkpt lat="46.34949" lon="-1.37104">
        <ele>6.3</ele>
        <time>2020-06-02T17:25:35Z</time>
      </trkpt>
      <trkpt lat="46.3495" lon="-1.37112">
        <ele>6.3</ele>
        <time>2020-06-02T17:25:36Z</time>
      </trkpt>
      <trkpt lat="46.34949" lon="-1.37118">
        <ele>6.3</ele>
        <time>2020-06-02T17:25:37Z</time>
      </trkpt>
      <trkpt lat="46.34949" lon="-1.37124">
        <ele>6.3</ele>
        <time>2020-06-02T17:25:38Z</time>
      </trkpt>
      <trkpt lat="46.34949" lon="-1.37131">
        <ele>6.3</ele>
        <time>2020-06-02T17:25:39Z</time>
      </trkpt>
      <trkpt lat="46.34948" lon="-1.37137">
        <ele>6.3</ele>
        <time>2020-06-02T17:25:40Z</time>
      </trkpt>
      <trkpt lat="46.34947" lon="-1.37144">
        <ele>6.3</ele>
        <time>2020-06-02T17:25:41Z</time>
      </trkpt>
      <trkpt lat="46.34947" lon="-1.37151">
        <ele>6.3</ele>
        <time>2020-06-02T17:25:42Z</time>
      </trkpt>
      <trkpt lat="46.34947" lon="-1.37158">
        <ele>6.3</ele>
        <time>2020-06-02T17:25:43Z</time>
      </trkpt>
      <trkpt lat="46.34947" lon="-1.37165">
        <ele>6.3</ele>
        <time>2020-06-02T17:25:44Z</time>
      </trkpt>
      <trkpt lat="46.34946" lon="-1.37172">
        <ele>6.3</ele>
        <time>2020-06-02T17:25:45Z</time>
      </trkpt>
      <trkpt lat="46.34945" lon="-1.37179">
        <ele>6.2</ele>
        <time>2020-06-02T17:25:46Z</time>
      </trkpt>
      <trkpt lat="46.34943" lon="-1.37187">
        <ele>6.2</ele>
        <time>2020-06-02T17:25:47Z</time>
      </trkpt>
      <trkpt lat="46.34942" lon="-1.37193">
        <ele>6.2</ele>
        <time>2020-06-02T17:25:48Z</time>
      </trkpt>
      <trkpt lat="46.3494" lon="-1.37199">
        <ele>6.2</ele>
        <time>2020-06-02T17:25:49Z</time>
      </trkpt>
      <trkpt lat="46.34938" lon="-1.37205">
        <ele>6.2</ele>
        <time>2020-06-02T17:25:50Z</time>
      </trkpt>
      <trkpt lat="46.34937" lon="-1.37212">
        <ele>6.2</ele>
        <time>2020-06-02T17:25:51Z</time>
      </trkpt>
      <trkpt lat="46.34936" lon="-1.37218">
        <ele>6.1</ele>
        <time>2020-06-02T17:25:52Z</time>
      </trkpt>
      <trkpt lat="46.34936" lon="-1.37223">
        <ele>6.1</ele>
        <time>2020-06-02T17:25:53Z</time>
      </trkpt>
      <trkpt lat="46.34937" lon="-1.37228">
        <ele>6.1</ele>
        <time>2020-06-02T17:25:54Z</time>
      </trkpt>
      <trkpt lat="46.34937" lon="-1.37232">
        <ele>6.1</ele>
        <time>2020-06-02T17:25:55Z</time>
      </trkpt>
      <trkpt lat="46.34937" lon="-1.37237">
        <ele>6.1</ele>
        <time>2020-06-02T17:25:56Z</time>
      </trkpt>
      <trkpt lat="46.34935" lon="-1.37242">
        <ele>6.1</ele>
        <time>2020-06-02T17:25:57Z</time>
      </trkpt>
      <trkpt lat="46.34935" lon="-1.37247">
        <ele>6.1</ele>
        <time>2020-06-02T17:25:58Z</time>
      </trkpt>
      <trkpt lat="46.34934" lon="-1.37251">
        <ele>6.1</ele>
        <time>2020-06-02T17:25:59Z</time>
      </trkpt>
      <trkpt lat="46.34934" lon="-1.37255">
        <ele>6.1</ele>
        <time>2020-06-02T17:26:00Z</time>
      </trkpt>
      <trkpt lat="46.34933" lon="-1.3726">
        <ele>6.1</ele>
        <time>2020-06-02T17:26:01Z</time>
      </trkpt>
      <trkpt lat="46.34932" lon="-1.37266">
        <ele>6.1</ele>
        <time>2020-06-02T17:26:02Z</time>
      </trkpt>
      <trkpt lat="46.34932" lon="-1.37268">
        <ele>6.1</ele>
        <time>2020-06-02T17:26:03Z</time>
      </trkpt>
      <trkpt lat="46.34931" lon="-1.37272">
        <ele>6.1</ele>
        <time>2020-06-02T17:26:04Z</time>
      </trkpt>
      <trkpt lat="46.34929" lon="-1.37277">
        <ele>6.1</ele>
        <time>2020-06-02T17:26:05Z</time>
      </trkpt>
      <trkpt lat="46.34929" lon="-1.37279">
        <ele>6.1</ele>
        <time>2020-06-02T17:26:06Z</time>
      </trkpt>
      <trkpt lat="46.34929" lon="-1.37283">
        <ele>6.1</ele>
        <time>2020-06-02T17:26:07Z</time>
      </trkpt>
      <trkpt lat="46.34928" lon="-1.37288">
        <ele>6.1</ele>
        <time>2020-06-02T17:26:08Z</time>
      </trkpt>
      <trkpt lat="46.34927" lon="-1.3729">
        <ele>6.1</ele>
        <time>2020-06-02T17:26:09Z</time>
      </trkpt>
      <trkpt lat="46.34926" lon="-1.37295">
        <ele>6.1</ele>
        <time>2020-06-02T17:26:10Z</time>
      </trkpt>
      <trkpt lat="46.34926" lon="-1.37297">
        <ele>6.1</ele>
        <time>2020-06-02T17:26:11Z</time>
      </trkpt>
      <trkpt lat="46.34926" lon="-1.37302">
        <ele>6.1</ele>
        <time>2020-06-02T17:26:12Z</time>
      </trkpt>
      <trkpt lat="46.34926" lon="-1.37303">
        <ele>6</ele>
        <time>2020-06-02T17:26:13Z</time>
      </trkpt>
      <trkpt lat="46.34925" lon="-1.37308">
        <ele>6</ele>
        <time>2020-06-02T17:26:14Z</time>
      </trkpt>
      <trkpt lat="46.34925" lon="-1.37309">
        <ele>6</ele>
        <time>2020-06-02T17:26:15Z</time>
      </trkpt>
      <trkpt lat="46.34924" lon="-1.37312">
        <ele>6</ele>
        <time>2020-06-02T17:26:16Z</time>
      </trkpt>
      <trkpt lat="46.34924" lon="-1.37314">
        <ele>6</ele>
        <time>2020-06-02T17:26:17Z</time>
      </trkpt>
      <trkpt lat="46.34924" lon="-1.37316">
        <ele>6</ele>
        <time>2020-06-02T17:26:18Z</time>
      </trkpt>
      <trkpt lat="46.34924" lon="-1.37318">
        <ele>6</ele>
        <time>2020-06-02T17:26:19Z</time>
      </trkpt>
      <trkpt lat="46.34924" lon="-1.3732">
        <ele>6</ele>
        <time>2020-06-02T17:26:20Z</time>
      </trkpt>
      <trkpt lat="46.34923" lon="-1.37322">
        <ele>5.9</ele>
        <time>2020-06-02T17:26:21Z</time>
      </trkpt>
      <trkpt lat="46.34923" lon="-1.37326">
        <ele>5.9</ele>
        <time>2020-06-02T17:26:22Z</time>
      </trkpt>
      <trkpt lat="46.34924" lon="-1.37328">
        <ele>5.9</ele>
        <time>2020-06-02T17:26:23Z</time>
      </trkpt>
      <trkpt lat="46.34923" lon="-1.37332">
        <ele>5.9</ele>
        <time>2020-06-02T17:26:24Z</time>
      </trkpt>
      <trkpt lat="46.34922" lon="-1.37333">
        <ele>5.9</ele>
        <time>2020-06-02T17:26:25Z</time>
      </trkpt>
      <trkpt lat="46.34922" lon="-1.37337">
        <ele>5.9</ele>
        <time>2020-06-02T17:26:26Z</time>
      </trkpt>
      <trkpt lat="46.34922" lon="-1.37339">
        <ele>5.9</ele>
        <time>2020-06-02T17:26:27Z</time>
      </trkpt>
      <trkpt lat="46.3492" lon="-1.37344">
        <ele>5.8</ele>
        <time>2020-06-02T17:26:28Z</time>
      </trkpt>
      <trkpt lat="46.3492" lon="-1.37345">
        <ele>5.8</ele>
        <time>2020-06-02T17:26:29Z</time>
      </trkpt>
      <trkpt lat="46.3492" lon="-1.3735">
        <ele>5.8</ele>
        <time>2020-06-02T17:26:30Z</time>
      </trkpt>
      <trkpt lat="46.34919" lon="-1.37352">
        <ele>5.8</ele>
        <time>2020-06-02T17:26:31Z</time>
      </trkpt>
      <trkpt lat="46.34918" lon="-1.37356">
        <ele>5.8</ele>
        <time>2020-06-02T17:26:32Z</time>
      </trkpt>
      <trkpt lat="46.34918" lon="-1.3736">
        <ele>5.7</ele>
        <time>2020-06-02T17:26:33Z</time>
      </trkpt>
      <trkpt lat="46.34917" lon="-1.37365">
        <ele>5.7</ele>
        <time>2020-06-02T17:26:34Z</time>
      </trkpt>
      <trkpt lat="46.34916" lon="-1.3737">
        <ele>5.7</ele>
        <time>2020-06-02T17:26:35Z</time>
      </trkpt>
      <trkpt lat="46.34915" lon="-1.37374">
        <ele>5.6</ele>
        <time>2020-06-02T17:26:36Z</time>
      </trkpt>
      <trkpt lat="46.34915" lon="-1.37379">
        <ele>5.6</ele>
        <time>2020-06-02T17:26:37Z</time>
      </trkpt>
      <trkpt lat="46.34914" lon="-1.37383">
        <ele>5.6</ele>
        <time>2020-06-02T17:26:38Z</time>
      </trkpt>
      <trkpt lat="46.34913" lon="-1.37387">
        <ele>5.5</ele>
        <time>2020-06-02T17:26:39Z</time>
      </trkpt>
      <trkpt lat="46.34912" lon="-1.37392">
        <ele>5.5</ele>
        <time>2020-06-02T17:26:40Z</time>
      </trkpt>
      <trkpt lat="46.34912" lon="-1.37397">
        <ele>5.4</ele>
        <time>2020-06-02T17:26:41Z</time>
      </trkpt>
      <trkpt lat="46.34913" lon="-1.37402">
        <ele>5.4</ele>
        <time>2020-06-02T17:26:42Z</time>
      </trkpt>
      <trkpt lat="46.34913" lon="-1.37407">
        <ele>5.3</ele>
        <time>2020-06-02T17:26:43Z</time>
      </trkpt>
      <trkpt lat="46.34911" lon="-1.37411">
        <ele>5.3</ele>
        <time>2020-06-02T17:26:44Z</time>
      </trkpt>
      <trkpt lat="46.34911" lon="-1.37416">
        <ele>5.3</ele>
        <time>2020-06-02T17:26:45Z</time>
      </trkpt>
      <trkpt lat="46.3491" lon="-1.37421">
        <ele>5.2</ele>
        <time>2020-06-02T17:26:46Z</time>
      </trkpt>
      <trkpt lat="46.34909" lon="-1.37426">
        <ele>5.2</ele>
        <time>2020-06-02T17:26:47Z</time>
      </trkpt>
      <trkpt lat="46.34908" lon="-1.37431">
        <ele>5.2</ele>
        <time>2020-06-02T17:26:48Z</time>
      </trkpt>
      <trkpt lat="46.34907" lon="-1.37437">
        <ele>5.2</ele>
        <time>2020-06-02T17:26:49Z</time>
      </trkpt>
      <trkpt lat="46.34906" lon="-1.37443">
        <ele>5.2</ele>
        <time>2020-06-02T17:26:50Z</time>
      </trkpt>
      <trkpt lat="46.34906" lon="-1.37448">
        <ele>5.1</ele>
        <time>2020-06-02T17:26:51Z</time>
      </trkpt>
      <trkpt lat="46.34905" lon="-1.37454">
        <ele>5.1</ele>
        <time>2020-06-02T17:26:52Z</time>
      </trkpt>
      <trkpt lat="46.34904" lon="-1.37459">
        <ele>5.1</ele>
        <time>2020-06-02T17:26:53Z</time>
      </trkpt>
      <trkpt lat="46.34903" lon="-1.37465">
        <ele>5.1</ele>
        <time>2020-06-02T17:26:54Z</time>
      </trkpt>
      <trkpt lat="46.34902" lon="-1.37471">
        <ele>5</ele>
        <time>2020-06-02T17:26:55Z</time>
      </trkpt>
      <trkpt lat="46.34901" lon="-1.37476">
        <ele>5</ele>
        <time>2020-06-02T17:26:56Z</time>
      </trkpt>
      <trkpt lat="46.34899" lon="-1.37481">
        <ele>5</ele>
        <time>2020-06-02T17:26:57Z</time>
      </trkpt>
      <trkpt lat="46.34898" lon="-1.37487">
        <ele>4.9</ele>
        <time>2020-06-02T17:26:58Z</time>
      </trkpt>
      <trkpt lat="46.34897" lon="-1.37493">
        <ele>4.9</ele>
        <time>2020-06-02T17:26:59Z</time>
      </trkpt>
      <trkpt lat="46.34897" lon="-1.37498">
        <ele>4.9</ele>
        <time>2020-06-02T17:27:00Z</time>
      </trkpt>
      <trkpt lat="46.34895" lon="-1.37504">
        <ele>4.8</ele>
        <time>2020-06-02T17:27:01Z</time>
      </trkpt>
      <trkpt lat="46.34894" lon="-1.37509">
        <ele>4.7</ele>
        <time>2020-06-02T17:27:02Z</time>
      </trkpt>
      <trkpt lat="46.34893" lon="-1.37514">
        <ele>4.7</ele>
        <time>2020-06-02T17:27:03Z</time>
      </trkpt>
      <trkpt lat="46.34892" lon="-1.37519">
        <ele>4.6</ele>
        <time>2020-06-02T17:27:04Z</time>
      </trkpt>
      <trkpt lat="46.34891" lon="-1.37524">
        <ele>4.6</ele>
        <time>2020-06-02T17:27:05Z</time>
      </trkpt>
      <trkpt lat="46.3489" lon="-1.37529">
        <ele>4.5</ele>
        <time>2020-06-02T17:27:06Z</time>
      </trkpt>
      <trkpt lat="46.34889" lon="-1.37533">
        <ele>4.5</ele>
        <time>2020-06-02T17:27:07Z</time>
      </trkpt>
      <trkpt lat="46.34889" lon="-1.37537">
        <ele>4.4</ele>
        <time>2020-06-02T17:27:08Z</time>
      </trkpt>
      <trkpt lat="46.34889" lon="-1.37542">
        <ele>4.4</ele>
        <time>2020-06-02T17:27:09Z</time>
      </trkpt>
      <trkpt lat="46.34889" lon="-1.37546">
        <ele>4.4</ele>
        <time>2020-06-02T17:27:10Z</time>
      </trkpt>
      <trkpt lat="46.34888" lon="-1.3755">
        <ele>4.4</ele>
        <time>2020-06-02T17:27:11Z</time>
      </trkpt>
      <trkpt lat="46.34888" lon="-1.37554">
        <ele>4.4</ele>
        <time>2020-06-02T17:27:12Z</time>
      </trkpt>
      <trkpt lat="46.34888" lon="-1.3756">
        <ele>4.3</ele>
        <time>2020-06-02T17:27:13Z</time>
      </trkpt>
      <trkpt lat="46.34888" lon="-1.37562">
        <ele>4.3</ele>
        <time>2020-06-02T17:27:14Z</time>
      </trkpt>
      <trkpt lat="46.34887" lon="-1.37567">
        <ele>4.3</ele>
        <time>2020-06-02T17:27:15Z</time>
      </trkpt>
      <trkpt lat="46.34887" lon="-1.37569">
        <ele>4.3</ele>
        <time>2020-06-02T17:27:16Z</time>
      </trkpt>
      <trkpt lat="46.34887" lon="-1.37575">
        <ele>4.3</ele>
        <time>2020-06-02T17:27:17Z</time>
      </trkpt>
      <trkpt lat="46.34886" lon="-1.37577">
        <ele>4.3</ele>
        <time>2020-06-02T17:27:18Z</time>
      </trkpt>
      <trkpt lat="46.34885" lon="-1.37581">
        <ele>4.3</ele>
        <time>2020-06-02T17:27:19Z</time>
      </trkpt>
      <trkpt lat="46.34883" lon="-1.37585">
        <ele>4.2</ele>
        <time>2020-06-02T17:27:20Z</time>
      </trkpt>
      <trkpt lat="46.34883" lon="-1.3759">
        <ele>4.2</ele>
        <time>2020-06-02T17:27:21Z</time>
      </trkpt>
      <trkpt lat="46.34883" lon="-1.37594">
        <ele>4.2</ele>
        <time>2020-06-02T17:27:22Z</time>
      </trkpt>
      <trkpt lat="46.34882" lon="-1.37599">
        <ele>4.2</ele>
        <time>2020-06-02T17:27:23Z</time>
      </trkpt>
      <trkpt lat="46.34882" lon="-1.37604">
        <ele>4.2</ele>
        <time>2020-06-02T17:27:24Z</time>
      </trkpt>
      <trkpt lat="46.34881" lon="-1.37608">
        <ele>4.2</ele>
        <time>2020-06-02T17:27:25Z</time>
      </trkpt>
      <trkpt lat="46.34881" lon="-1.37612">
        <ele>4.2</ele>
        <time>2020-06-02T17:27:26Z</time>
      </trkpt>
      <trkpt lat="46.3488" lon="-1.37616">
        <ele>4.2</ele>
        <time>2020-06-02T17:27:27Z</time>
      </trkpt>
      <trkpt lat="46.34878" lon="-1.3762">
        <ele>4.2</ele>
        <time>2020-06-02T17:27:28Z</time>
      </trkpt>
      <trkpt lat="46.34877" lon="-1.37624">
        <ele>4.2</ele>
        <time>2020-06-02T17:27:29Z</time>
      </trkpt>
      <trkpt lat="46.34876" lon="-1.37629">
        <ele>4.1</ele>
        <time>2020-06-02T17:27:30Z</time>
      </trkpt>
      <trkpt lat="46.34875" lon="-1.37633">
        <ele>4.1</ele>
        <time>2020-06-02T17:27:31Z</time>
      </trkpt>
      <trkpt lat="46.34874" lon="-1.37637">
        <ele>4.1</ele>
        <time>2020-06-02T17:27:32Z</time>
      </trkpt>
      <trkpt lat="46.34874" lon="-1.37641">
        <ele>4.1</ele>
        <time>2020-06-02T17:27:33Z</time>
      </trkpt>
      <trkpt lat="46.34873" lon="-1.37645">
        <ele>4.1</ele>
        <time>2020-06-02T17:27:34Z</time>
      </trkpt>
      <trkpt lat="46.34872" lon="-1.37649">
        <ele>4.2</ele>
        <time>2020-06-02T17:27:35Z</time>
      </trkpt>
      <trkpt lat="46.34872" lon="-1.37653">
        <ele>4.2</ele>
        <time>2020-06-02T17:27:36Z</time>
      </trkpt>
      <trkpt lat="46.3487" lon="-1.37658">
        <ele>4.2</ele>
        <time>2020-06-02T17:27:37Z</time>
      </trkpt>
      <trkpt lat="46.34869" lon="-1.37662">
        <ele>4.2</ele>
        <time>2020-06-02T17:27:38Z</time>
      </trkpt>
      <trkpt lat="46.34868" lon="-1.37666">
        <ele>4.2</ele>
        <time>2020-06-02T17:27:39Z</time>
      </trkpt>
      <trkpt lat="46.34867" lon="-1.3767">
        <ele>4.2</ele>
        <time>2020-06-02T17:27:40Z</time>
      </trkpt>
      <trkpt lat="46.34866" lon="-1.37673">
        <ele>4.2</ele>
        <time>2020-06-02T17:27:41Z</time>
      </trkpt>
      <trkpt lat="46.34865" lon="-1.37678">
        <ele>4.2</ele>
        <time>2020-06-02T17:27:42Z</time>
      </trkpt>
      <trkpt lat="46.34865" lon="-1.37682">
        <ele>4.2</ele>
        <time>2020-06-02T17:27:43Z</time>
      </trkpt>
      <trkpt lat="46.34864" lon="-1.37686">
        <ele>4.2</ele>
        <time>2020-06-02T17:27:44Z</time>
      </trkpt>
      <trkpt lat="46.34864" lon="-1.3769">
        <ele>4.2</ele>
        <time>2020-06-02T17:27:45Z</time>
      </trkpt>
      <trkpt lat="46.34863" lon="-1.37694">
        <ele>4.2</ele>
        <time>2020-06-02T17:27:46Z</time>
      </trkpt>
      <trkpt lat="46.34863" lon="-1.37698">
        <ele>4.2</ele>
        <time>2020-06-02T17:27:47Z</time>
      </trkpt>
      <trkpt lat="46.34861" lon="-1.37702">
        <ele>4.2</ele>
        <time>2020-06-02T17:27:48Z</time>
      </trkpt>
      <trkpt lat="46.34859" lon="-1.37705">
        <ele>4.2</ele>
        <time>2020-06-02T17:27:49Z</time>
      </trkpt>
      <trkpt lat="46.34858" lon="-1.3771">
        <ele>4.2</ele>
        <time>2020-06-02T17:27:50Z</time>
      </trkpt>
      <trkpt lat="46.34857" lon="-1.37714">
        <ele>4.2</ele>
        <time>2020-06-02T17:27:51Z</time>
      </trkpt>
      <trkpt lat="46.34855" lon="-1.37719">
        <ele>4.2</ele>
        <time>2020-06-02T17:27:52Z</time>
      </trkpt>
      <trkpt lat="46.34853" lon="-1.37723">
        <ele>4.2</ele>
        <time>2020-06-02T17:27:53Z</time>
      </trkpt>
      <trkpt lat="46.34852" lon="-1.37727">
        <ele>4.2</ele>
        <time>2020-06-02T17:27:54Z</time>
      </trkpt>
      <trkpt lat="46.3485" lon="-1.37731">
        <ele>4.2</ele>
        <time>2020-06-02T17:27:55Z</time>
      </trkpt>
      <trkpt lat="46.34849" lon="-1.37736">
        <ele>4.2</ele>
        <time>2020-06-02T17:27:56Z</time>
      </trkpt>
      <trkpt lat="46.34848" lon="-1.3774">
        <ele>4.2</ele>
        <time>2020-06-02T17:27:57Z</time>
      </trkpt>
      <trkpt lat="46.34849" lon="-1.37745">
        <ele>4.2</ele>
        <time>2020-06-02T17:27:58Z</time>
      </trkpt>
      <trkpt lat="46.34849" lon="-1.3775">
        <ele>4.2</ele>
        <time>2020-06-02T17:27:59Z</time>
      </trkpt>
      <trkpt lat="46.34847" lon="-1.37754">
        <ele>4.2</ele>
        <time>2020-06-02T17:28:00Z</time>
      </trkpt>
      <trkpt lat="46.34847" lon="-1.37759">
        <ele>4.2</ele>
        <time>2020-06-02T17:28:01Z</time>
      </trkpt>
      <trkpt lat="46.34846" lon="-1.37763">
        <ele>4.2</ele>
        <time>2020-06-02T17:28:02Z</time>
      </trkpt>
      <trkpt lat="46.34844" lon="-1.37767">
        <ele>4.2</ele>
        <time>2020-06-02T17:28:03Z</time>
      </trkpt>
      <trkpt lat="46.34842" lon="-1.37772">
        <ele>4.2</ele>
        <time>2020-06-02T17:28:04Z</time>
      </trkpt>
      <trkpt lat="46.34841" lon="-1.37777">
        <ele>4.2</ele>
        <time>2020-06-02T17:28:05Z</time>
      </trkpt>
      <trkpt lat="46.3484" lon="-1.37782">
        <ele>4.2</ele>
        <time>2020-06-02T17:28:06Z</time>
      </trkpt>
      <trkpt lat="46.34839" lon="-1.37786">
        <ele>4.2</ele>
        <time>2020-06-02T17:28:07Z</time>
      </trkpt>
      <trkpt lat="46.34838" lon="-1.3779">
        <ele>4.2</ele>
        <time>2020-06-02T17:28:08Z</time>
      </trkpt>
      <trkpt lat="46.34837" lon="-1.37795">
        <ele>4.2</ele>
        <time>2020-06-02T17:28:09Z</time>
      </trkpt>
      <trkpt lat="46.34836" lon="-1.37799">
        <ele>4.1</ele>
        <time>2020-06-02T17:28:10Z</time>
      </trkpt>
      <trkpt lat="46.34835" lon="-1.37803">
        <ele>4.1</ele>
        <time>2020-06-02T17:28:11Z</time>
      </trkpt>
      <trkpt lat="46.34834" lon="-1.37807">
        <ele>4.1</ele>
        <time>2020-06-02T17:28:12Z</time>
      </trkpt>
      <trkpt lat="46.34832" lon="-1.37811">
        <ele>4.1</ele>
        <time>2020-06-02T17:28:13Z</time>
      </trkpt>
      <trkpt lat="46.3483" lon="-1.37816">
        <ele>4.1</ele>
        <time>2020-06-02T17:28:14Z</time>
      </trkpt>
      <trkpt lat="46.34829" lon="-1.37818">
        <ele>4.1</ele>
        <time>2020-06-02T17:28:15Z</time>
      </trkpt>
      <trkpt lat="46.34828" lon="-1.37823">
        <ele>4.1</ele>
        <time>2020-06-02T17:28:16Z</time>
      </trkpt>
      <trkpt lat="46.34828" lon="-1.37825">
        <ele>4.1</ele>
        <time>2020-06-02T17:28:17Z</time>
      </trkpt>
      <trkpt lat="46.34826" lon="-1.3783">
        <ele>4.1</ele>
        <time>2020-06-02T17:28:18Z</time>
      </trkpt>
      <trkpt lat="46.34826" lon="-1.37831">
        <ele>4.1</ele>
        <time>2020-06-02T17:28:19Z</time>
      </trkpt>
      <trkpt lat="46.34825" lon="-1.37837">
        <ele>4</ele>
        <time>2020-06-02T17:28:20Z</time>
      </trkpt>
      <trkpt lat="46.34824" lon="-1.37838">
        <ele>4</ele>
        <time>2020-06-02T17:28:21Z</time>
      </trkpt>
      <trkpt lat="46.34823" lon="-1.37844">
        <ele>4</ele>
        <time>2020-06-02T17:28:22Z</time>
      </trkpt>
      <trkpt lat="46.34823" lon="-1.37846">
        <ele>4</ele>
        <time>2020-06-02T17:28:23Z</time>
      </trkpt>
      <trkpt lat="46.34822" lon="-1.37849">
        <ele>4</ele>
        <time>2020-06-02T17:28:24Z</time>
      </trkpt>
      <trkpt lat="46.3482" lon="-1.37853">
        <ele>4</ele>
        <time>2020-06-02T17:28:25Z</time>
      </trkpt>
      <trkpt lat="46.34818" lon="-1.37858">
        <ele>3.9</ele>
        <time>2020-06-02T17:28:26Z</time>
      </trkpt>
      <trkpt lat="46.34816" lon="-1.37862">
        <ele>3.9</ele>
        <time>2020-06-02T17:28:27Z</time>
      </trkpt>
      <trkpt lat="46.34814" lon="-1.37868">
        <ele>3.9</ele>
        <time>2020-06-02T17:28:28Z</time>
      </trkpt>
      <trkpt lat="46.34812" lon="-1.37874">
        <ele>3.9</ele>
        <time>2020-06-02T17:28:29Z</time>
      </trkpt>
      <trkpt lat="46.34811" lon="-1.3788">
        <ele>3.9</ele>
        <time>2020-06-02T17:28:30Z</time>
      </trkpt>
      <trkpt lat="46.34809" lon="-1.37886">
        <ele>3.8</ele>
        <time>2020-06-02T17:28:31Z</time>
      </trkpt>
      <trkpt lat="46.34807" lon="-1.37892">
        <ele>3.8</ele>
        <time>2020-06-02T17:28:32Z</time>
      </trkpt>
      <trkpt lat="46.34804" lon="-1.37897">
        <ele>3.8</ele>
        <time>2020-06-02T17:28:33Z</time>
      </trkpt>
      <trkpt lat="46.34802" lon="-1.37903">
        <ele>3.8</ele>
        <time>2020-06-02T17:28:34Z</time>
      </trkpt>
      <trkpt lat="46.348" lon="-1.3791">
        <ele>3.8</ele>
        <time>2020-06-02T17:28:35Z</time>
      </trkpt>
      <trkpt lat="46.34798" lon="-1.37917">
        <ele>3.8</ele>
        <time>2020-06-02T17:28:36Z</time>
      </trkpt>
      <trkpt lat="46.34796" lon="-1.37923">
        <ele>3.8</ele>
        <time>2020-06-02T17:28:37Z</time>
      </trkpt>
      <trkpt lat="46.34794" lon="-1.3793">
        <ele>3.8</ele>
        <time>2020-06-02T17:28:38Z</time>
      </trkpt>
      <trkpt lat="46.34793" lon="-1.37938">
        <ele>3.8</ele>
        <time>2020-06-02T17:28:39Z</time>
      </trkpt>
      <trkpt lat="46.34792" lon="-1.37946">
        <ele>3.8</ele>
        <time>2020-06-02T17:28:40Z</time>
      </trkpt>
      <trkpt lat="46.34791" lon="-1.37954">
        <ele>3.8</ele>
        <time>2020-06-02T17:28:41Z</time>
      </trkpt>
      <trkpt lat="46.34789" lon="-1.37962">
        <ele>3.8</ele>
        <time>2020-06-02T17:28:42Z</time>
      </trkpt>
      <trkpt lat="46.34788" lon="-1.37969">
        <ele>3.8</ele>
        <time>2020-06-02T17:28:43Z</time>
      </trkpt>
      <trkpt lat="46.34786" lon="-1.37977">
        <ele>3.8</ele>
        <time>2020-06-02T17:28:44Z</time>
      </trkpt>
      <trkpt lat="46.34785" lon="-1.37985">
        <ele>3.8</ele>
        <time>2020-06-02T17:28:45Z</time>
      </trkpt>
      <trkpt lat="46.34785" lon="-1.37993">
        <ele>3.8</ele>
        <time>2020-06-02T17:28:46Z</time>
      </trkpt>
      <trkpt lat="46.34785" lon="-1.38002">
        <ele>3.8</ele>
        <time>2020-06-02T17:28:47Z</time>
      </trkpt>
      <trkpt lat="46.34784" lon="-1.38011">
        <ele>3.8</ele>
        <time>2020-06-02T17:28:48Z</time>
      </trkpt>
      <trkpt lat="46.34784" lon="-1.3802">
        <ele>3.8</ele>
        <time>2020-06-02T17:28:49Z</time>
      </trkpt>
      <trkpt lat="46.34784" lon="-1.38029">
        <ele>3.8</ele>
        <time>2020-06-02T17:28:50Z</time>
      </trkpt>
      <trkpt lat="46.34783" lon="-1.38038">
        <ele>3.8</ele>
        <time>2020-06-02T17:28:51Z</time>
      </trkpt>
      <trkpt lat="46.34783" lon="-1.38048">
        <ele>3.8</ele>
        <time>2020-06-02T17:28:52Z</time>
      </trkpt>
      <trkpt lat="46.34782" lon="-1.38057">
        <ele>3.8</ele>
        <time>2020-06-02T17:28:53Z</time>
      </trkpt>
      <trkpt lat="46.34781" lon="-1.38067">
        <ele>3.8</ele>
        <time>2020-06-02T17:28:54Z</time>
      </trkpt>
      <trkpt lat="46.3478" lon="-1.38077">
        <ele>3.8</ele>
        <time>2020-06-02T17:28:55Z</time>
      </trkpt>
      <trkpt lat="46.34779" lon="-1.38087">
        <ele>3.9</ele>
        <time>2020-06-02T17:28:56Z</time>
      </trkpt>
      <trkpt lat="46.34778" lon="-1.38097">
        <ele>3.9</ele>
        <time>2020-06-02T17:28:57Z</time>
      </trkpt>
      <trkpt lat="46.34778" lon="-1.38107">
        <ele>3.9</ele>
        <time>2020-06-02T17:28:58Z</time>
      </trkpt>
      <trkpt lat="46.34777" lon="-1.38117">
        <ele>4</ele>
        <time>2020-06-02T17:28:59Z</time>
      </trkpt>
      <trkpt lat="46.34776" lon="-1.38126">
        <ele>4</ele>
        <time>2020-06-02T17:29:00Z</time>
      </trkpt>
      <trkpt lat="46.34776" lon="-1.38134">
        <ele>4.1</ele>
        <time>2020-06-02T17:29:01Z</time>
      </trkpt>
      <trkpt lat="46.34776" lon="-1.38143">
        <ele>4.1</ele>
        <time>2020-06-02T17:29:02Z</time>
      </trkpt>
      <trkpt lat="46.34776" lon="-1.38151">
        <ele>4.1</ele>
        <time>2020-06-02T17:29:03Z</time>
      </trkpt>
      <trkpt lat="46.34775" lon="-1.38159">
        <ele>4.2</ele>
        <time>2020-06-02T17:29:04Z</time>
      </trkpt>
      <trkpt lat="46.34775" lon="-1.38167">
        <ele>4.2</ele>
        <time>2020-06-02T17:29:05Z</time>
      </trkpt>
      <trkpt lat="46.34775" lon="-1.38175">
        <ele>4.3</ele>
        <time>2020-06-02T17:29:06Z</time>
      </trkpt>
      <trkpt lat="46.34776" lon="-1.38184">
        <ele>4.3</ele>
        <time>2020-06-02T17:29:07Z</time>
      </trkpt>
      <trkpt lat="46.34776" lon="-1.38193">
        <ele>4.3</ele>
        <time>2020-06-02T17:29:08Z</time>
      </trkpt>
      <trkpt lat="46.34776" lon="-1.38201">
        <ele>4.3</ele>
        <time>2020-06-02T17:29:09Z</time>
      </trkpt>
      <trkpt lat="46.34776" lon="-1.3821">
        <ele>4.4</ele>
        <time>2020-06-02T17:29:10Z</time>
      </trkpt>
      <trkpt lat="46.34776" lon="-1.38218">
        <ele>4.4</ele>
        <time>2020-06-02T17:29:11Z</time>
      </trkpt>
      <trkpt lat="46.34776" lon="-1.38226">
        <ele>4.4</ele>
        <time>2020-06-02T17:29:12Z</time>
      </trkpt>
      <trkpt lat="46.34776" lon="-1.38234">
        <ele>4.5</ele>
        <time>2020-06-02T17:29:13Z</time>
      </trkpt>
      <trkpt lat="46.34776" lon="-1.38242">
        <ele>4.5</ele>
        <time>2020-06-02T17:29:14Z</time>
      </trkpt>
      <trkpt lat="46.34775" lon="-1.38251">
        <ele>4.6</ele>
        <time>2020-06-02T17:29:15Z</time>
      </trkpt>
      <trkpt lat="46.34775" lon="-1.38258">
        <ele>4.6</ele>
        <time>2020-06-02T17:29:16Z</time>
      </trkpt>
      <trkpt lat="46.34775" lon="-1.38266">
        <ele>4.6</ele>
        <time>2020-06-02T17:29:17Z</time>
      </trkpt>
      <trkpt lat="46.34775" lon="-1.38274">
        <ele>4.6</ele>
        <time>2020-06-02T17:29:18Z</time>
      </trkpt>
      <trkpt lat="46.34774" lon="-1.38281">
        <ele>4.7</ele>
        <time>2020-06-02T17:29:19Z</time>
      </trkpt>
      <trkpt lat="46.34773" lon="-1.38289">
        <ele>4.7</ele>
        <time>2020-06-02T17:29:20Z</time>
      </trkpt>
      <trkpt lat="46.34773" lon="-1.38296">
        <ele>4.7</ele>
        <time>2020-06-02T17:29:21Z</time>
      </trkpt>
      <trkpt lat="46.34773" lon="-1.38303">
        <ele>4.6</ele>
        <time>2020-06-02T17:29:22Z</time>
      </trkpt>
      <trkpt lat="46.34772" lon="-1.3831">
        <ele>4.6</ele>
        <time>2020-06-02T17:29:23Z</time>
      </trkpt>
      <trkpt lat="46.34774" lon="-1.38318">
        <ele>4.6</ele>
        <time>2020-06-02T17:29:24Z</time>
      </trkpt>
      <trkpt lat="46.34773" lon="-1.38325">
        <ele>4.6</ele>
        <time>2020-06-02T17:29:25Z</time>
      </trkpt>
      <trkpt lat="46.34773" lon="-1.38332">
        <ele>4.6</ele>
        <time>2020-06-02T17:29:26Z</time>
      </trkpt>
      <trkpt lat="46.34774" lon="-1.38339">
        <ele>4.6</ele>
        <time>2020-06-02T17:29:27Z</time>
      </trkpt>
      <trkpt lat="46.34773" lon="-1.38345">
        <ele>4.6</ele>
        <time>2020-06-02T17:29:28Z</time>
      </trkpt>
      <trkpt lat="46.34772" lon="-1.38351">
        <ele>4.6</ele>
        <time>2020-06-02T17:29:29Z</time>
      </trkpt>
      <trkpt lat="46.34772" lon="-1.38357">
        <ele>4.6</ele>
        <time>2020-06-02T17:29:30Z</time>
      </trkpt>
      <trkpt lat="46.34772" lon="-1.38363">
        <ele>4.6</ele>
        <time>2020-06-02T17:29:31Z</time>
      </trkpt>
      <trkpt lat="46.34772" lon="-1.38369">
        <ele>4.5</ele>
        <time>2020-06-02T17:29:32Z</time>
      </trkpt>
      <trkpt lat="46.34772" lon="-1.38374">
        <ele>4.5</ele>
        <time>2020-06-02T17:29:33Z</time>
      </trkpt>
      <trkpt lat="46.34772" lon="-1.3838">
        <ele>4.5</ele>
        <time>2020-06-02T17:29:34Z</time>
      </trkpt>
      <trkpt lat="46.34771" lon="-1.38385">
        <ele>4.5</ele>
        <time>2020-06-02T17:29:35Z</time>
      </trkpt>
      <trkpt lat="46.3477" lon="-1.38391">
        <ele>4.5</ele>
        <time>2020-06-02T17:29:36Z</time>
      </trkpt>
      <trkpt lat="46.3477" lon="-1.38396">
        <ele>4.5</ele>
        <time>2020-06-02T17:29:37Z</time>
      </trkpt>
      <trkpt lat="46.34771" lon="-1.38401">
        <ele>4.5</ele>
        <time>2020-06-02T17:29:38Z</time>
      </trkpt>
      <trkpt lat="46.34771" lon="-1.38406">
        <ele>4.5</ele>
        <time>2020-06-02T17:29:39Z</time>
      </trkpt>
      <trkpt lat="46.34771" lon="-1.38411">
        <ele>4.6</ele>
        <time>2020-06-02T17:29:40Z</time>
      </trkpt>
      <trkpt lat="46.34771" lon="-1.38416">
        <ele>4.6</ele>
        <time>2020-06-02T17:29:41Z</time>
      </trkpt>
      <trkpt lat="46.34771" lon="-1.38422">
        <ele>4.6</ele>
        <time>2020-06-02T17:29:42Z</time>
      </trkpt>
      <trkpt lat="46.34772" lon="-1.38427">
        <ele>4.7</ele>
        <time>2020-06-02T17:29:43Z</time>
      </trkpt>
      <trkpt lat="46.34773" lon="-1.38434">
        <ele>4.7</ele>
        <time>2020-06-02T17:29:44Z</time>
      </trkpt>
      <trkpt lat="46.34773" lon="-1.38441">
        <ele>4.7</ele>
        <time>2020-06-02T17:29:45Z</time>
      </trkpt>
      <trkpt lat="46.34772" lon="-1.38448">
        <ele>4.8</ele>
        <time>2020-06-02T17:29:46Z</time>
      </trkpt>
      <trkpt lat="46.34772" lon="-1.38455">
        <ele>4.8</ele>
        <time>2020-06-02T17:29:47Z</time>
      </trkpt>
      <trkpt lat="46.34771" lon="-1.38462">
        <ele>4.9</ele>
        <time>2020-06-02T17:29:48Z</time>
      </trkpt>
      <trkpt lat="46.34772" lon="-1.38469">
        <ele>4.9</ele>
        <time>2020-06-02T17:29:49Z</time>
      </trkpt>
      <trkpt lat="46.34772" lon="-1.38477">
        <ele>4.9</ele>
        <time>2020-06-02T17:29:50Z</time>
      </trkpt>
      <trkpt lat="46.34772" lon="-1.38484">
        <ele>5</ele>
        <time>2020-06-02T17:29:51Z</time>
      </trkpt>
      <trkpt lat="46.34771" lon="-1.38492">
        <ele>5</ele>
        <time>2020-06-02T17:29:52Z</time>
      </trkpt>
      <trkpt lat="46.34771" lon="-1.38499">
        <ele>5.1</ele>
        <time>2020-06-02T17:29:53Z</time>
      </trkpt>
      <trkpt lat="46.34769" lon="-1.38507">
        <ele>5.1</ele>
        <time>2020-06-02T17:29:54Z</time>
      </trkpt>
      <trkpt lat="46.34769" lon="-1.38515">
        <ele>5.2</ele>
        <time>2020-06-02T17:29:55Z</time>
      </trkpt>
      <trkpt lat="46.34768" lon="-1.38522">
        <ele>5.2</ele>
        <time>2020-06-02T17:29:56Z</time>
      </trkpt>
      <trkpt lat="46.34767" lon="-1.3853">
        <ele>5.2</ele>
        <time>2020-06-02T17:29:57Z</time>
      </trkpt>
      <trkpt lat="46.34766" lon="-1.38537">
        <ele>5.2</ele>
        <time>2020-06-02T17:29:58Z</time>
      </trkpt>
      <trkpt lat="46.34766" lon="-1.38545">
        <ele>5.2</ele>
        <time>2020-06-02T17:29:59Z</time>
      </trkpt>
      <trkpt lat="46.34765" lon="-1.38552">
        <ele>5.2</ele>
        <time>2020-06-02T17:30:00Z</time>
      </trkpt>
      <trkpt lat="46.34765" lon="-1.3856">
        <ele>5.2</ele>
        <time>2020-06-02T17:30:01Z</time>
      </trkpt>
      <trkpt lat="46.34765" lon="-1.38568">
        <ele>5.2</ele>
        <time>2020-06-02T17:30:02Z</time>
      </trkpt>
      <trkpt lat="46.34765" lon="-1.38576">
        <ele>5.2</ele>
        <time>2020-06-02T17:30:03Z</time>
      </trkpt>
      <trkpt lat="46.34764" lon="-1.38583">
        <ele>5.2</ele>
        <time>2020-06-02T17:30:04Z</time>
      </trkpt>
      <trkpt lat="46.34764" lon="-1.38591">
        <ele>5.2</ele>
        <time>2020-06-02T17:30:05Z</time>
      </trkpt>
      <trkpt lat="46.34764" lon="-1.38599">
        <ele>5.2</ele>
        <time>2020-06-02T17:30:06Z</time>
      </trkpt>
      <trkpt lat="46.34763" lon="-1.38606">
        <ele>5.2</ele>
        <time>2020-06-02T17:30:07Z</time>
      </trkpt>
      <trkpt lat="46.34762" lon="-1.38614">
        <ele>5.2</ele>
        <time>2020-06-02T17:30:08Z</time>
      </trkpt>
      <trkpt lat="46.34761" lon="-1.38621">
        <ele>5.2</ele>
        <time>2020-06-02T17:30:09Z</time>
      </trkpt>
      <trkpt lat="46.34761" lon="-1.38629">
        <ele>5.2</ele>
        <time>2020-06-02T17:30:10Z</time>
      </trkpt>
      <trkpt lat="46.34761" lon="-1.38637">
        <ele>5.2</ele>
        <time>2020-06-02T17:30:11Z</time>
      </trkpt>
      <trkpt lat="46.34761" lon="-1.38644">
        <ele>5.2</ele>
        <time>2020-06-02T17:30:12Z</time>
      </trkpt>
      <trkpt lat="46.3476" lon="-1.38652">
        <ele>5.2</ele>
        <time>2020-06-02T17:30:13Z</time>
      </trkpt>
      <trkpt lat="46.3476" lon="-1.38659">
        <ele>5.2</ele>
        <time>2020-06-02T17:30:14Z</time>
      </trkpt>
      <trkpt lat="46.34758" lon="-1.38667">
        <ele>5.2</ele>
        <time>2020-06-02T17:30:15Z</time>
      </trkpt>
      <trkpt lat="46.34758" lon="-1.38674">
        <ele>5.1</ele>
        <time>2020-06-02T17:30:16Z</time>
      </trkpt>
      <trkpt lat="46.34757" lon="-1.38682">
        <ele>5.1</ele>
        <time>2020-06-02T17:30:17Z</time>
      </trkpt>
      <trkpt lat="46.34757" lon="-1.38689">
        <ele>5.1</ele>
        <time>2020-06-02T17:30:18Z</time>
      </trkpt>
      <trkpt lat="46.34757" lon="-1.38697">
        <ele>5.1</ele>
        <time>2020-06-02T17:30:19Z</time>
      </trkpt>
      <trkpt lat="46.34756" lon="-1.38705">
        <ele>5.1</ele>
        <time>2020-06-02T17:30:20Z</time>
      </trkpt>
      <trkpt lat="46.34756" lon="-1.38712">
        <ele>5.1</ele>
        <time>2020-06-02T17:30:21Z</time>
      </trkpt>
      <trkpt lat="46.34755" lon="-1.3872">
        <ele>5.1</ele>
        <time>2020-06-02T17:30:22Z</time>
      </trkpt>
      <trkpt lat="46.34754" lon="-1.38728">
        <ele>5.1</ele>
        <time>2020-06-02T17:30:23Z</time>
      </trkpt>
      <trkpt lat="46.34753" lon="-1.38735">
        <ele>5.1</ele>
        <time>2020-06-02T17:30:24Z</time>
      </trkpt>
      <trkpt lat="46.34752" lon="-1.38743">
        <ele>5.1</ele>
        <time>2020-06-02T17:30:25Z</time>
      </trkpt>
      <trkpt lat="46.34752" lon="-1.38751">
        <ele>5.1</ele>
        <time>2020-06-02T17:30:26Z</time>
      </trkpt>
      <trkpt lat="46.34751" lon="-1.38759">
        <ele>5.1</ele>
        <time>2020-06-02T17:30:27Z</time>
      </trkpt>
      <trkpt lat="46.3475" lon="-1.38767">
        <ele>5.1</ele>
        <time>2020-06-02T17:30:28Z</time>
      </trkpt>
      <trkpt lat="46.3475" lon="-1.38775">
        <ele>5.1</ele>
        <time>2020-06-02T17:30:29Z</time>
      </trkpt>
      <trkpt lat="46.34749" lon="-1.38782">
        <ele>5.1</ele>
        <time>2020-06-02T17:30:30Z</time>
      </trkpt>
      <trkpt lat="46.34749" lon="-1.3879">
        <ele>5.1</ele>
        <time>2020-06-02T17:30:31Z</time>
      </trkpt>
      <trkpt lat="46.34749" lon="-1.38796">
        <ele>5.1</ele>
        <time>2020-06-02T17:30:32Z</time>
      </trkpt>
      <trkpt lat="46.34749" lon="-1.38802">
        <ele>5.1</ele>
        <time>2020-06-02T17:30:33Z</time>
      </trkpt>
      <trkpt lat="46.34748" lon="-1.38808">
        <ele>5.1</ele>
        <time>2020-06-02T17:30:34Z</time>
      </trkpt>
      <trkpt lat="46.34747" lon="-1.38814">
        <ele>5.1</ele>
        <time>2020-06-02T17:30:35Z</time>
      </trkpt>
      <trkpt lat="46.34746" lon="-1.38819">
        <ele>5.1</ele>
        <time>2020-06-02T17:30:36Z</time>
      </trkpt>
      <trkpt lat="46.34746" lon="-1.38826">
        <ele>5.1</ele>
        <time>2020-06-02T17:30:37Z</time>
      </trkpt>
      <trkpt lat="46.34745" lon="-1.38832">
        <ele>5.1</ele>
        <time>2020-06-02T17:30:38Z</time>
      </trkpt>
      <trkpt lat="46.34745" lon="-1.38839">
        <ele>5</ele>
        <time>2020-06-02T17:30:39Z</time>
      </trkpt>
      <trkpt lat="46.34744" lon="-1.38846">
        <ele>5</ele>
        <time>2020-06-02T17:30:40Z</time>
      </trkpt>
      <trkpt lat="46.34744" lon="-1.38854">
        <ele>5</ele>
        <time>2020-06-02T17:30:41Z</time>
      </trkpt>
      <trkpt lat="46.34744" lon="-1.38861">
        <ele>5</ele>
        <time>2020-06-02T17:30:42Z</time>
      </trkpt>
      <trkpt lat="46.34744" lon="-1.38868">
        <ele>5</ele>
        <time>2020-06-02T17:30:43Z</time>
      </trkpt>
      <trkpt lat="46.34744" lon="-1.38875">
        <ele>5</ele>
        <time>2020-06-02T17:30:44Z</time>
      </trkpt>
      <trkpt lat="46.34743" lon="-1.38882">
        <ele>5</ele>
        <time>2020-06-02T17:30:45Z</time>
      </trkpt>
      <trkpt lat="46.34743" lon="-1.38889">
        <ele>5</ele>
        <time>2020-06-02T17:30:46Z</time>
      </trkpt>
      <trkpt lat="46.34743" lon="-1.38897">
        <ele>5</ele>
        <time>2020-06-02T17:30:47Z</time>
      </trkpt>
      <trkpt lat="46.34742" lon="-1.38905">
        <ele>5</ele>
        <time>2020-06-02T17:30:48Z</time>
      </trkpt>
      <trkpt lat="46.34741" lon="-1.38914">
        <ele>5</ele>
        <time>2020-06-02T17:30:49Z</time>
      </trkpt>
      <trkpt lat="46.3474" lon="-1.38923">
        <ele>5</ele>
        <time>2020-06-02T17:30:50Z</time>
      </trkpt>
      <trkpt lat="46.34739" lon="-1.38931">
        <ele>5</ele>
        <time>2020-06-02T17:30:51Z</time>
      </trkpt>
      <trkpt lat="46.34739" lon="-1.3894">
        <ele>5.1</ele>
        <time>2020-06-02T17:30:52Z</time>
      </trkpt>
      <trkpt lat="46.34738" lon="-1.38949">
        <ele>5.1</ele>
        <time>2020-06-02T17:30:53Z</time>
      </trkpt>
      <trkpt lat="46.34738" lon="-1.38956">
        <ele>5.1</ele>
        <time>2020-06-02T17:30:54Z</time>
      </trkpt>
      <trkpt lat="46.34738" lon="-1.38965">
        <ele>5.1</ele>
        <time>2020-06-02T17:30:55Z</time>
      </trkpt>
      <trkpt lat="46.34737" lon="-1.38973">
        <ele>5.1</ele>
        <time>2020-06-02T17:30:56Z</time>
      </trkpt>
      <trkpt lat="46.34737" lon="-1.38979">
        <ele>5.1</ele>
        <time>2020-06-02T17:30:57Z</time>
      </trkpt>
      <trkpt lat="46.34737" lon="-1.38987">
        <ele>5.1</ele>
        <time>2020-06-02T17:30:58Z</time>
      </trkpt>
      <trkpt lat="46.34736" lon="-1.38995">
        <ele>5.1</ele>
        <time>2020-06-02T17:30:59Z</time>
      </trkpt>
      <trkpt lat="46.34735" lon="-1.39005">
        <ele>5.1</ele>
        <time>2020-06-02T17:31:00Z</time>
      </trkpt>
      <trkpt lat="46.34734" lon="-1.39011">
        <ele>5.1</ele>
        <time>2020-06-02T17:31:01Z</time>
      </trkpt>
      <trkpt lat="46.34732" lon="-1.3902">
        <ele>5</ele>
        <time>2020-06-02T17:31:02Z</time>
      </trkpt>
      <trkpt lat="46.34731" lon="-1.39028">
        <ele>5</ele>
        <time>2020-06-02T17:31:03Z</time>
      </trkpt>
      <trkpt lat="46.3473" lon="-1.39036">
        <ele>5</ele>
        <time>2020-06-02T17:31:04Z</time>
      </trkpt>
      <trkpt lat="46.34729" lon="-1.39045">
        <ele>5</ele>
        <time>2020-06-02T17:31:05Z</time>
      </trkpt>
      <trkpt lat="46.34729" lon="-1.39054">
        <ele>4.9</ele>
        <time>2020-06-02T17:31:06Z</time>
      </trkpt>
      <trkpt lat="46.34728" lon="-1.39062">
        <ele>4.9</ele>
        <time>2020-06-02T17:31:07Z</time>
      </trkpt>
      <trkpt lat="46.34728" lon="-1.3907">
        <ele>4.8</ele>
        <time>2020-06-02T17:31:08Z</time>
      </trkpt>
      <trkpt lat="46.34728" lon="-1.39078">
        <ele>4.8</ele>
        <time>2020-06-02T17:31:09Z</time>
      </trkpt>
      <trkpt lat="46.34727" lon="-1.39086">
        <ele>4.8</ele>
        <time>2020-06-02T17:31:10Z</time>
      </trkpt>
      <trkpt lat="46.34727" lon="-1.39093">
        <ele>4.8</ele>
        <time>2020-06-02T17:31:11Z</time>
      </trkpt>
      <trkpt lat="46.34727" lon="-1.391">
        <ele>4.7</ele>
        <time>2020-06-02T17:31:12Z</time>
      </trkpt>
      <trkpt lat="46.34727" lon="-1.39107">
        <ele>4.7</ele>
        <time>2020-06-02T17:31:13Z</time>
      </trkpt>
      <trkpt lat="46.34726" lon="-1.39116">
        <ele>4.7</ele>
        <time>2020-06-02T17:31:14Z</time>
      </trkpt>
      <trkpt lat="46.34725" lon="-1.39122">
        <ele>4.7</ele>
        <time>2020-06-02T17:31:15Z</time>
      </trkpt>
      <trkpt lat="46.34724" lon="-1.39129">
        <ele>4.6</ele>
        <time>2020-06-02T17:31:16Z</time>
      </trkpt>
      <trkpt lat="46.34723" lon="-1.39138">
        <ele>4.6</ele>
        <time>2020-06-02T17:31:17Z</time>
      </trkpt>
      <trkpt lat="46.34723" lon="-1.39145">
        <ele>4.6</ele>
        <time>2020-06-02T17:31:18Z</time>
      </trkpt>
      <trkpt lat="46.34723" lon="-1.39152">
        <ele>4.5</ele>
        <time>2020-06-02T17:31:19Z</time>
      </trkpt>
      <trkpt lat="46.34723" lon="-1.39159">
        <ele>4.5</ele>
        <time>2020-06-02T17:31:20Z</time>
      </trkpt>
      <trkpt lat="46.34724" lon="-1.39167">
        <ele>4.5</ele>
        <time>2020-06-02T17:31:21Z</time>
      </trkpt>
      <trkpt lat="46.34724" lon="-1.39175">
        <ele>4.4</ele>
        <time>2020-06-02T17:31:22Z</time>
      </trkpt>
      <trkpt lat="46.34724" lon="-1.39182">
        <ele>4.4</ele>
        <time>2020-06-02T17:31:23Z</time>
      </trkpt>
      <trkpt lat="46.34723" lon="-1.39191">
        <ele>4.3</ele>
        <time>2020-06-02T17:31:24Z</time>
      </trkpt>
      <trkpt lat="46.34723" lon="-1.39198">
        <ele>4.3</ele>
        <time>2020-06-02T17:31:25Z</time>
      </trkpt>
      <trkpt lat="46.34723" lon="-1.39205">
        <ele>4.3</ele>
        <time>2020-06-02T17:31:26Z</time>
      </trkpt>
      <trkpt lat="46.34723" lon="-1.39213">
        <ele>4.2</ele>
        <time>2020-06-02T17:31:27Z</time>
      </trkpt>
      <trkpt lat="46.34723" lon="-1.3922">
        <ele>4.2</ele>
        <time>2020-06-02T17:31:28Z</time>
      </trkpt>
      <trkpt lat="46.34723" lon="-1.39226">
        <ele>4.2</ele>
        <time>2020-06-02T17:31:29Z</time>
      </trkpt>
      <trkpt lat="46.34723" lon="-1.39233">
        <ele>4.2</ele>
        <time>2020-06-02T17:31:30Z</time>
      </trkpt>
      <trkpt lat="46.34723" lon="-1.3924">
        <ele>4.2</ele>
        <time>2020-06-02T17:31:31Z</time>
      </trkpt>
      <trkpt lat="46.34725" lon="-1.39247">
        <ele>4.2</ele>
        <time>2020-06-02T17:31:32Z</time>
      </trkpt>
      <trkpt lat="46.34725" lon="-1.39255">
        <ele>4.2</ele>
        <time>2020-06-02T17:31:33Z</time>
      </trkpt>
      <trkpt lat="46.34726" lon="-1.39262">
        <ele>4.2</ele>
        <time>2020-06-02T17:31:34Z</time>
      </trkpt>
      <trkpt lat="46.34726" lon="-1.39271">
        <ele>4.2</ele>
        <time>2020-06-02T17:31:35Z</time>
      </trkpt>
      <trkpt lat="46.34726" lon="-1.3928">
        <ele>4.2</ele>
        <time>2020-06-02T17:31:36Z</time>
      </trkpt>
      <trkpt lat="46.34727" lon="-1.39286">
        <ele>4.2</ele>
        <time>2020-06-02T17:31:37Z</time>
      </trkpt>
      <trkpt lat="46.34728" lon="-1.39294">
        <ele>4.3</ele>
        <time>2020-06-02T17:31:38Z</time>
      </trkpt>
      <trkpt lat="46.34729" lon="-1.39299">
        <ele>4.3</ele>
        <time>2020-06-02T17:31:39Z</time>
      </trkpt>
      <trkpt lat="46.34729" lon="-1.39307">
        <ele>4.4</ele>
        <time>2020-06-02T17:31:40Z</time>
      </trkpt>
      <trkpt lat="46.34729" lon="-1.39315">
        <ele>4.4</ele>
        <time>2020-06-02T17:31:41Z</time>
      </trkpt>
      <trkpt lat="46.3473" lon="-1.39323">
        <ele>4.5</ele>
        <time>2020-06-02T17:31:42Z</time>
      </trkpt>
      <trkpt lat="46.34731" lon="-1.39329">
        <ele>4.6</ele>
        <time>2020-06-02T17:31:43Z</time>
      </trkpt>
      <trkpt lat="46.34733" lon="-1.39336">
        <ele>4.7</ele>
        <time>2020-06-02T17:31:44Z</time>
      </trkpt>
      <trkpt lat="46.34733" lon="-1.39341">
        <ele>4.8</ele>
        <time>2020-06-02T17:31:45Z</time>
      </trkpt>
      <trkpt lat="46.34735" lon="-1.39348">
        <ele>4.9</ele>
        <time>2020-06-02T17:31:46Z</time>
      </trkpt>
      <trkpt lat="46.34737" lon="-1.39356">
        <ele>5</ele>
        <time>2020-06-02T17:31:47Z</time>
      </trkpt>
      <trkpt lat="46.34738" lon="-1.39364">
        <ele>5.1</ele>
        <time>2020-06-02T17:31:48Z</time>
      </trkpt>
      <trkpt lat="46.3474" lon="-1.39368">
        <ele>5.2</ele>
        <time>2020-06-02T17:31:49Z</time>
      </trkpt>
      <trkpt lat="46.34741" lon="-1.39376">
        <ele>5.3</ele>
        <time>2020-06-02T17:31:50Z</time>
      </trkpt>
      <trkpt lat="46.34741" lon="-1.39383">
        <ele>5.3</ele>
        <time>2020-06-02T17:31:51Z</time>
      </trkpt>
      <trkpt lat="46.34742" lon="-1.3939">
        <ele>5.4</ele>
        <time>2020-06-02T17:31:52Z</time>
      </trkpt>
      <trkpt lat="46.34742" lon="-1.39398">
        <ele>5.5</ele>
        <time>2020-06-02T17:31:53Z</time>
      </trkpt>
      <trkpt lat="46.34742" lon="-1.39405">
        <ele>5.6</ele>
        <time>2020-06-02T17:31:54Z</time>
      </trkpt>
      <trkpt lat="46.34742" lon="-1.3941">
        <ele>5.7</ele>
        <time>2020-06-02T17:31:55Z</time>
      </trkpt>
      <trkpt lat="46.34743" lon="-1.39416">
        <ele>5.8</ele>
        <time>2020-06-02T17:31:56Z</time>
      </trkpt>
      <trkpt lat="46.34743" lon="-1.39421">
        <ele>5.8</ele>
        <time>2020-06-02T17:31:57Z</time>
      </trkpt>
      <trkpt lat="46.34743" lon="-1.39428">
        <ele>5.9</ele>
        <time>2020-06-02T17:31:58Z</time>
      </trkpt>
      <trkpt lat="46.34744" lon="-1.39433">
        <ele>5.9</ele>
        <time>2020-06-02T17:31:59Z</time>
      </trkpt>
      <trkpt lat="46.34744" lon="-1.39442">
        <ele>6</ele>
        <time>2020-06-02T17:32:00Z</time>
      </trkpt>
      <trkpt lat="46.34747" lon="-1.39445">
        <ele>6</ele>
        <time>2020-06-02T17:32:01Z</time>
      </trkpt>
      <trkpt lat="46.3475" lon="-1.39452">
        <ele>6</ele>
        <time>2020-06-02T17:32:02Z</time>
      </trkpt>
      <trkpt lat="46.34751" lon="-1.39457">
        <ele>6</ele>
        <time>2020-06-02T17:32:03Z</time>
      </trkpt>
      <trkpt lat="46.34752" lon="-1.39463">
        <ele>5.9</ele>
        <time>2020-06-02T17:32:04Z</time>
      </trkpt>
      <trkpt lat="46.34752" lon="-1.39468">
        <ele>5.9</ele>
        <time>2020-06-02T17:32:05Z</time>
      </trkpt>
      <trkpt lat="46.34753" lon="-1.39476">
        <ele>5.9</ele>
        <time>2020-06-02T17:32:06Z</time>
      </trkpt>
      <trkpt lat="46.34755" lon="-1.39484">
        <ele>5.8</ele>
        <time>2020-06-02T17:32:07Z</time>
      </trkpt>
      <trkpt lat="46.34755" lon="-1.39491">
        <ele>5.8</ele>
        <time>2020-06-02T17:32:08Z</time>
      </trkpt>
      <trkpt lat="46.34756" lon="-1.39497">
        <ele>5.7</ele>
        <time>2020-06-02T17:32:09Z</time>
      </trkpt>
      <trkpt lat="46.34757" lon="-1.39506">
        <ele>5.6</ele>
        <time>2020-06-02T17:32:10Z</time>
      </trkpt>
      <trkpt lat="46.34758" lon="-1.39513">
        <ele>5.6</ele>
        <time>2020-06-02T17:32:11Z</time>
      </trkpt>
      <trkpt lat="46.34758" lon="-1.3952">
        <ele>5.6</ele>
        <time>2020-06-02T17:32:12Z</time>
      </trkpt>
      <trkpt lat="46.34759" lon="-1.39527">
        <ele>5.5</ele>
        <time>2020-06-02T17:32:13Z</time>
      </trkpt>
      <trkpt lat="46.3476" lon="-1.39533">
        <ele>5.5</ele>
        <time>2020-06-02T17:32:14Z</time>
      </trkpt>
      <trkpt lat="46.34761" lon="-1.3954">
        <ele>5.5</ele>
        <time>2020-06-02T17:32:15Z</time>
      </trkpt>
      <trkpt lat="46.34762" lon="-1.39547">
        <ele>5.4</ele>
        <time>2020-06-02T17:32:16Z</time>
      </trkpt>
      <trkpt lat="46.34763" lon="-1.39553">
        <ele>5.3</ele>
        <time>2020-06-02T17:32:17Z</time>
      </trkpt>
      <trkpt lat="46.34764" lon="-1.39559">
        <ele>5.3</ele>
        <time>2020-06-02T17:32:18Z</time>
      </trkpt>
      <trkpt lat="46.34766" lon="-1.39566">
        <ele>5.2</ele>
        <time>2020-06-02T17:32:19Z</time>
      </trkpt>
      <trkpt lat="46.34767" lon="-1.39572">
        <ele>5.2</ele>
        <time>2020-06-02T17:32:20Z</time>
      </trkpt>
      <trkpt lat="46.34768" lon="-1.39579">
        <ele>5.2</ele>
        <time>2020-06-02T17:32:21Z</time>
      </trkpt>
      <trkpt lat="46.34768" lon="-1.39585">
        <ele>5.1</ele>
        <time>2020-06-02T17:32:22Z</time>
      </trkpt>
      <trkpt lat="46.34769" lon="-1.39591">
        <ele>5.1</ele>
        <time>2020-06-02T17:32:23Z</time>
      </trkpt>
      <trkpt lat="46.34769" lon="-1.39597">
        <ele>5.1</ele>
        <time>2020-06-02T17:32:24Z</time>
      </trkpt>
      <trkpt lat="46.34769" lon="-1.39605">
        <ele>5.1</ele>
        <time>2020-06-02T17:32:25Z</time>
      </trkpt>
      <trkpt lat="46.3477" lon="-1.39613">
        <ele>5</ele>
        <time>2020-06-02T17:32:26Z</time>
      </trkpt>
      <trkpt lat="46.3477" lon="-1.39619">
        <ele>5</ele>
        <time>2020-06-02T17:32:27Z</time>
      </trkpt>
      <trkpt lat="46.34769" lon="-1.39625">
        <ele>5</ele>
        <time>2020-06-02T17:32:28Z</time>
      </trkpt>
      <trkpt lat="46.34769" lon="-1.39633">
        <ele>5</ele>
        <time>2020-06-02T17:32:29Z</time>
      </trkpt>
      <trkpt lat="46.3477" lon="-1.3964">
        <ele>5</ele>
        <time>2020-06-02T17:32:30Z</time>
      </trkpt>
      <trkpt lat="46.3477" lon="-1.39647">
        <ele>5</ele>
        <time>2020-06-02T17:32:31Z</time>
      </trkpt>
      <trkpt lat="46.3477" lon="-1.39653">
        <ele>5</ele>
        <time>2020-06-02T17:32:32Z</time>
      </trkpt>
      <trkpt lat="46.3477" lon="-1.3966">
        <ele>5</ele>
        <time>2020-06-02T17:32:33Z</time>
      </trkpt>
      <trkpt lat="46.3477" lon="-1.39667">
        <ele>5</ele>
        <time>2020-06-02T17:32:34Z</time>
      </trkpt>
      <trkpt lat="46.34771" lon="-1.39674">
        <ele>5</ele>
        <time>2020-06-02T17:32:35Z</time>
      </trkpt>
      <trkpt lat="46.34772" lon="-1.3968">
        <ele>5.1</ele>
        <time>2020-06-02T17:32:36Z</time>
      </trkpt>
      <trkpt lat="46.34772" lon="-1.39687">
        <ele>5.1</ele>
        <time>2020-06-02T17:32:37Z</time>
      </trkpt>
      <trkpt lat="46.34772" lon="-1.39693">
        <ele>5.1</ele>
        <time>2020-06-02T17:32:38Z</time>
      </trkpt>
      <trkpt lat="46.34772" lon="-1.39699">
        <ele>5.1</ele>
        <time>2020-06-02T17:32:39Z</time>
      </trkpt>
      <trkpt lat="46.34772" lon="-1.39707">
        <ele>5.2</ele>
        <time>2020-06-02T17:32:40Z</time>
      </trkpt>
      <trkpt lat="46.34772" lon="-1.39714">
        <ele>5.2</ele>
        <time>2020-06-02T17:32:41Z</time>
      </trkpt>
      <trkpt lat="46.34772" lon="-1.39723">
        <ele>5.2</ele>
        <time>2020-06-02T17:32:42Z</time>
      </trkpt>
      <trkpt lat="46.34771" lon="-1.3973">
        <ele>5.2</ele>
        <time>2020-06-02T17:32:43Z</time>
      </trkpt>
      <trkpt lat="46.34771" lon="-1.39737">
        <ele>5.2</ele>
        <time>2020-06-02T17:32:44Z</time>
      </trkpt>
      <trkpt lat="46.3477" lon="-1.39744">
        <ele>5.2</ele>
        <time>2020-06-02T17:32:45Z</time>
      </trkpt>
      <trkpt lat="46.34769" lon="-1.39751">
        <ele>5.2</ele>
        <time>2020-06-02T17:32:46Z</time>
      </trkpt>
      <trkpt lat="46.34768" lon="-1.39756">
        <ele>5.2</ele>
        <time>2020-06-02T17:32:47Z</time>
      </trkpt>
      <trkpt lat="46.34769" lon="-1.39764">
        <ele>5.2</ele>
        <time>2020-06-02T17:32:48Z</time>
      </trkpt>
      <trkpt lat="46.34769" lon="-1.3977">
        <ele>5.2</ele>
        <time>2020-06-02T17:32:49Z</time>
      </trkpt>
      <trkpt lat="46.34769" lon="-1.39776">
        <ele>5.2</ele>
        <time>2020-06-02T17:32:50Z</time>
      </trkpt>
      <trkpt lat="46.34769" lon="-1.39783">
        <ele>5.2</ele>
        <time>2020-06-02T17:32:51Z</time>
      </trkpt>
      <trkpt lat="46.34769" lon="-1.39789">
        <ele>5.2</ele>
        <time>2020-06-02T17:32:52Z</time>
      </trkpt>
      <trkpt lat="46.34768" lon="-1.39797">
        <ele>5.2</ele>
        <time>2020-06-02T17:32:53Z</time>
      </trkpt>
      <trkpt lat="46.34768" lon="-1.39805">
        <ele>5.2</ele>
        <time>2020-06-02T17:32:54Z</time>
      </trkpt>
      <trkpt lat="46.34768" lon="-1.39813">
        <ele>5.2</ele>
        <time>2020-06-02T17:32:55Z</time>
      </trkpt>
      <trkpt lat="46.34768" lon="-1.39822">
        <ele>5.2</ele>
        <time>2020-06-02T17:32:56Z</time>
      </trkpt>
      <trkpt lat="46.34768" lon="-1.39828">
        <ele>5.2</ele>
        <time>2020-06-02T17:32:57Z</time>
      </trkpt>
      <trkpt lat="46.34768" lon="-1.39837">
        <ele>5.2</ele>
        <time>2020-06-02T17:32:58Z</time>
      </trkpt>
      <trkpt lat="46.34768" lon="-1.39843">
        <ele>5.2</ele>
        <time>2020-06-02T17:32:59Z</time>
      </trkpt>
      <trkpt lat="46.34768" lon="-1.39849">
        <ele>5.2</ele>
        <time>2020-06-02T17:33:00Z</time>
      </trkpt>
      <trkpt lat="46.34769" lon="-1.39855">
        <ele>5.2</ele>
        <time>2020-06-02T17:33:01Z</time>
      </trkpt>
      <trkpt lat="46.3477" lon="-1.3986">
        <ele>5.3</ele>
        <time>2020-06-02T17:33:02Z</time>
      </trkpt>
      <trkpt lat="46.3477" lon="-1.39867">
        <ele>5.3</ele>
        <time>2020-06-02T17:33:03Z</time>
      </trkpt>
      <trkpt lat="46.34771" lon="-1.39875">
        <ele>5.3</ele>
        <time>2020-06-02T17:33:04Z</time>
      </trkpt>
      <trkpt lat="46.3477" lon="-1.39883">
        <ele>5.3</ele>
        <time>2020-06-02T17:33:05Z</time>
      </trkpt>
      <trkpt lat="46.34771" lon="-1.39889">
        <ele>5.3</ele>
        <time>2020-06-02T17:33:06Z</time>
      </trkpt>
      <trkpt lat="46.34772" lon="-1.39896">
        <ele>5.4</ele>
        <time>2020-06-02T17:33:07Z</time>
      </trkpt>
      <trkpt lat="46.34772" lon="-1.39902">
        <ele>5.4</ele>
        <time>2020-06-02T17:33:08Z</time>
      </trkpt>
      <trkpt lat="46.34774" lon="-1.39906">
        <ele>5.4</ele>
        <time>2020-06-02T17:33:09Z</time>
      </trkpt>
      <trkpt lat="46.34775" lon="-1.39914">
        <ele>5.4</ele>
        <time>2020-06-02T17:33:10Z</time>
      </trkpt>
      <trkpt lat="46.34776" lon="-1.39921">
        <ele>5.4</ele>
        <time>2020-06-02T17:33:11Z</time>
      </trkpt>
      <trkpt lat="46.34778" lon="-1.39928">
        <ele>5.4</ele>
        <time>2020-06-02T17:33:12Z</time>
      </trkpt>
      <trkpt lat="46.34779" lon="-1.39934">
        <ele>5.4</ele>
        <time>2020-06-02T17:33:13Z</time>
      </trkpt>
      <trkpt lat="46.3478" lon="-1.3994">
        <ele>5.5</ele>
        <time>2020-06-02T17:33:14Z</time>
      </trkpt>
      <trkpt lat="46.34782" lon="-1.39946">
        <ele>5.5</ele>
        <time>2020-06-02T17:33:15Z</time>
      </trkpt>
      <trkpt lat="46.34783" lon="-1.39953">
        <ele>5.5</ele>
        <time>2020-06-02T17:33:16Z</time>
      </trkpt>
      <trkpt lat="46.34784" lon="-1.3996">
        <ele>5.5</ele>
        <time>2020-06-02T17:33:17Z</time>
      </trkpt>
      <trkpt lat="46.34785" lon="-1.39967">
        <ele>5.5</ele>
        <time>2020-06-02T17:33:18Z</time>
      </trkpt>
      <trkpt lat="46.34787" lon="-1.39973">
        <ele>5.6</ele>
        <time>2020-06-02T17:33:19Z</time>
      </trkpt>
      <trkpt lat="46.34787" lon="-1.3998">
        <ele>5.6</ele>
        <time>2020-06-02T17:33:20Z</time>
      </trkpt>
      <trkpt lat="46.34788" lon="-1.39985">
        <ele>5.6</ele>
        <time>2020-06-02T17:33:21Z</time>
      </trkpt>
      <trkpt lat="46.3479" lon="-1.39992">
        <ele>5.7</ele>
        <time>2020-06-02T17:33:22Z</time>
      </trkpt>
      <trkpt lat="46.34791" lon="-1.39996">
        <ele>5.7</ele>
        <time>2020-06-02T17:33:23Z</time>
      </trkpt>
      <trkpt lat="46.34793" lon="-1.40003">
        <ele>5.7</ele>
        <time>2020-06-02T17:33:24Z</time>
      </trkpt>
      <trkpt lat="46.34794" lon="-1.40009">
        <ele>5.7</ele>
        <time>2020-06-02T17:33:25Z</time>
      </trkpt>
      <trkpt lat="46.34795" lon="-1.40016">
        <ele>5.7</ele>
        <time>2020-06-02T17:33:26Z</time>
      </trkpt>
      <trkpt lat="46.34796" lon="-1.40021">
        <ele>5.7</ele>
        <time>2020-06-02T17:33:27Z</time>
      </trkpt>
      <trkpt lat="46.34797" lon="-1.40026">
        <ele>5.7</ele>
        <time>2020-06-02T17:33:28Z</time>
      </trkpt>
      <trkpt lat="46.34798" lon="-1.40031">
        <ele>5.7</ele>
        <time>2020-06-02T17:33:29Z</time>
      </trkpt>
      <trkpt lat="46.34799" lon="-1.40038">
        <ele>5.7</ele>
        <time>2020-06-02T17:33:30Z</time>
      </trkpt>
      <trkpt lat="46.34801" lon="-1.40043">
        <ele>5.7</ele>
        <time>2020-06-02T17:33:31Z</time>
      </trkpt>
      <trkpt lat="46.34802" lon="-1.40049">
        <ele>5.7</ele>
        <time>2020-06-02T17:33:32Z</time>
      </trkpt>
      <trkpt lat="46.34803" lon="-1.40055">
        <ele>5.7</ele>
        <time>2020-06-02T17:33:33Z</time>
      </trkpt>
      <trkpt lat="46.34804" lon="-1.4006">
        <ele>5.7</ele>
        <time>2020-06-02T17:33:34Z</time>
      </trkpt>
      <trkpt lat="46.34806" lon="-1.40067">
        <ele>5.7</ele>
        <time>2020-06-02T17:33:35Z</time>
      </trkpt>
      <trkpt lat="46.34806" lon="-1.40073">
        <ele>5.7</ele>
        <time>2020-06-02T17:33:36Z</time>
      </trkpt>
      <trkpt lat="46.34807" lon="-1.40077">
        <ele>5.6</ele>
        <time>2020-06-02T17:33:37Z</time>
      </trkpt>
      <trkpt lat="46.34808" lon="-1.40084">
        <ele>5.6</ele>
        <time>2020-06-02T17:33:38Z</time>
      </trkpt>
      <trkpt lat="46.34808" lon="-1.40089">
        <ele>5.5</ele>
        <time>2020-06-02T17:33:39Z</time>
      </trkpt>
      <trkpt lat="46.34809" lon="-1.40096">
        <ele>5.5</ele>
        <time>2020-06-02T17:33:40Z</time>
      </trkpt>
      <trkpt lat="46.3481" lon="-1.40103">
        <ele>5.4</ele>
        <time>2020-06-02T17:33:41Z</time>
      </trkpt>
      <trkpt lat="46.34812" lon="-1.4011">
        <ele>5.3</ele>
        <time>2020-06-02T17:33:42Z</time>
      </trkpt>
      <trkpt lat="46.34813" lon="-1.40116">
        <ele>5.3</ele>
        <time>2020-06-02T17:33:43Z</time>
      </trkpt>
      <trkpt lat="46.34814" lon="-1.40123">
        <ele>5.2</ele>
        <time>2020-06-02T17:33:44Z</time>
      </trkpt>
      <trkpt lat="46.34815" lon="-1.40129">
        <ele>5.2</ele>
        <time>2020-06-02T17:33:45Z</time>
      </trkpt>
      <trkpt lat="46.34816" lon="-1.40135">
        <ele>5.1</ele>
        <time>2020-06-02T17:33:46Z</time>
      </trkpt>
      <trkpt lat="46.34818" lon="-1.40142">
        <ele>5.1</ele>
        <time>2020-06-02T17:33:47Z</time>
      </trkpt>
      <trkpt lat="46.34818" lon="-1.4015">
        <ele>5.1</ele>
        <time>2020-06-02T17:33:48Z</time>
      </trkpt>
      <trkpt lat="46.34819" lon="-1.40155">
        <ele>5</ele>
        <time>2020-06-02T17:33:49Z</time>
      </trkpt>
      <trkpt lat="46.3482" lon="-1.40161">
        <ele>5</ele>
        <time>2020-06-02T17:33:50Z</time>
      </trkpt>
      <trkpt lat="46.3482" lon="-1.40168">
        <ele>5</ele>
        <time>2020-06-02T17:33:51Z</time>
      </trkpt>
      <trkpt lat="46.3482" lon="-1.40174">
        <ele>4.9</ele>
        <time>2020-06-02T17:33:52Z</time>
      </trkpt>
      <trkpt lat="46.34821" lon="-1.40181">
        <ele>4.9</ele>
        <time>2020-06-02T17:33:53Z</time>
      </trkpt>
      <trkpt lat="46.34821" lon="-1.40187">
        <ele>4.9</ele>
        <time>2020-06-02T17:33:54Z</time>
      </trkpt>
      <trkpt lat="46.34822" lon="-1.40193">
        <ele>4.9</ele>
        <time>2020-06-02T17:33:55Z</time>
      </trkpt>
      <trkpt lat="46.34823" lon="-1.40201">
        <ele>4.9</ele>
        <time>2020-06-02T17:33:56Z</time>
      </trkpt>
      <trkpt lat="46.34822" lon="-1.40206">
        <ele>4.9</ele>
        <time>2020-06-02T17:33:57Z</time>
      </trkpt>
      <trkpt lat="46.34822" lon="-1.40212">
        <ele>4.9</ele>
        <time>2020-06-02T17:33:58Z</time>
      </trkpt>
      <trkpt lat="46.34822" lon="-1.40219">
        <ele>4.9</ele>
        <time>2020-06-02T17:33:59Z</time>
      </trkpt>
      <trkpt lat="46.34821" lon="-1.40225">
        <ele>4.9</ele>
        <time>2020-06-02T17:34:00Z</time>
      </trkpt>
      <trkpt lat="46.34821" lon="-1.40233">
        <ele>4.9</ele>
        <time>2020-06-02T17:34:01Z</time>
      </trkpt>
      <trkpt lat="46.3482" lon="-1.4024">
        <ele>4.9</ele>
        <time>2020-06-02T17:34:02Z</time>
      </trkpt>
      <trkpt lat="46.3482" lon="-1.40247">
        <ele>4.9</ele>
        <time>2020-06-02T17:34:03Z</time>
      </trkpt>
      <trkpt lat="46.34819" lon="-1.40253">
        <ele>4.9</ele>
        <time>2020-06-02T17:34:04Z</time>
      </trkpt>
      <trkpt lat="46.34818" lon="-1.40259">
        <ele>4.9</ele>
        <time>2020-06-02T17:34:05Z</time>
      </trkpt>
      <trkpt lat="46.34817" lon="-1.40266">
        <ele>5</ele>
        <time>2020-06-02T17:34:06Z</time>
      </trkpt>
      <trkpt lat="46.34816" lon="-1.40273">
        <ele>5</ele>
        <time>2020-06-02T17:34:07Z</time>
      </trkpt>
      <trkpt lat="46.34815" lon="-1.4028">
        <ele>5</ele>
        <time>2020-06-02T17:34:08Z</time>
      </trkpt>
      <trkpt lat="46.34814" lon="-1.40286">
        <ele>5.1</ele>
        <time>2020-06-02T17:34:09Z</time>
      </trkpt>
      <trkpt lat="46.34813" lon="-1.40292">
        <ele>5.1</ele>
        <time>2020-06-02T17:34:10Z</time>
      </trkpt>
      <trkpt lat="46.34813" lon="-1.40299">
        <ele>5.1</ele>
        <time>2020-06-02T17:34:11Z</time>
      </trkpt>
      <trkpt lat="46.34813" lon="-1.40307">
        <ele>5.2</ele>
        <time>2020-06-02T17:34:12Z</time>
      </trkpt>
      <trkpt lat="46.34812" lon="-1.40314">
        <ele>5.2</ele>
        <time>2020-06-02T17:34:13Z</time>
      </trkpt>
      <trkpt lat="46.34811" lon="-1.40319">
        <ele>5.2</ele>
        <time>2020-06-02T17:34:14Z</time>
      </trkpt>
      <trkpt lat="46.3481" lon="-1.40324">
        <ele>5.3</ele>
        <time>2020-06-02T17:34:15Z</time>
      </trkpt>
      <trkpt lat="46.34809" lon="-1.40329">
        <ele>5.3</ele>
        <time>2020-06-02T17:34:16Z</time>
      </trkpt>
      <trkpt lat="46.34808" lon="-1.40333">
        <ele>5.3</ele>
        <time>2020-06-02T17:34:17Z</time>
      </trkpt>
      <trkpt lat="46.34808" lon="-1.40336">
        <ele>5.3</ele>
        <time>2020-06-02T17:34:18Z</time>
      </trkpt>
      <trkpt lat="46.34804" lon="-1.40339">
        <ele>5.3</ele>
        <time>2020-06-02T17:34:19Z</time>
      </trkpt>
      <trkpt lat="46.34802" lon="-1.4034">
        <ele>5.3</ele>
        <time>2020-06-02T17:34:20Z</time>
      </trkpt>
      <trkpt lat="46.34799" lon="-1.40341">
        <ele>5.3</ele>
        <time>2020-06-02T17:34:21Z</time>
      </trkpt>
      <trkpt lat="46.34796" lon="-1.40344">
        <ele>5.3</ele>
        <time>2020-06-02T17:34:22Z</time>
      </trkpt>
      <trkpt lat="46.34795" lon="-1.40345">
        <ele>5.3</ele>
        <time>2020-06-02T17:34:23Z</time>
      </trkpt>
      <trkpt lat="46.34791" lon="-1.40348">
        <ele>5.3</ele>
        <time>2020-06-02T17:34:24Z</time>
      </trkpt>
      <trkpt lat="46.34789" lon="-1.4035">
        <ele>5.3</ele>
        <time>2020-06-02T17:34:25Z</time>
      </trkpt>
      <trkpt lat="46.34785" lon="-1.40352">
        <ele>5.3</ele>
        <time>2020-06-02T17:34:26Z</time>
      </trkpt>
      <trkpt lat="46.34783" lon="-1.40354">
        <ele>5.3</ele>
        <time>2020-06-02T17:34:27Z</time>
      </trkpt>
      <trkpt lat="46.3478" lon="-1.40356">
        <ele>5.3</ele>
        <time>2020-06-02T17:34:28Z</time>
      </trkpt>
      <trkpt lat="46.34777" lon="-1.40357">
        <ele>5.3</ele>
        <time>2020-06-02T17:34:29Z</time>
      </trkpt>
      <trkpt lat="46.34773" lon="-1.40359">
        <ele>5.3</ele>
        <time>2020-06-02T17:34:30Z</time>
      </trkpt>
      <trkpt lat="46.3477" lon="-1.40363">
        <ele>5.4</ele>
        <time>2020-06-02T17:34:31Z</time>
      </trkpt>
      <trkpt lat="46.34768" lon="-1.40364">
        <ele>5.4</ele>
        <time>2020-06-02T17:34:32Z</time>
      </trkpt>
      <trkpt lat="46.34766" lon="-1.40367">
        <ele>5.4</ele>
        <time>2020-06-02T17:34:33Z</time>
      </trkpt>
      <trkpt lat="46.34762" lon="-1.40371">
        <ele>5.4</ele>
        <time>2020-06-02T17:34:34Z</time>
      </trkpt>
      <trkpt lat="46.34759" lon="-1.40372">
        <ele>5.4</ele>
        <time>2020-06-02T17:34:35Z</time>
      </trkpt>
      <trkpt lat="46.34756" lon="-1.40374">
        <ele>5.4</ele>
        <time>2020-06-02T17:34:36Z</time>
      </trkpt>
      <trkpt lat="46.34752" lon="-1.40377">
        <ele>5.4</ele>
        <time>2020-06-02T17:34:37Z</time>
      </trkpt>
      <trkpt lat="46.34751" lon="-1.40379">
        <ele>5.4</ele>
        <time>2020-06-02T17:34:38Z</time>
      </trkpt>
      <trkpt lat="46.34748" lon="-1.40381">
        <ele>5.4</ele>
        <time>2020-06-02T17:34:39Z</time>
      </trkpt>
      <trkpt lat="46.34745" lon="-1.40384">
        <ele>5.4</ele>
        <time>2020-06-02T17:34:40Z</time>
      </trkpt>
      <trkpt lat="46.34741" lon="-1.40383">
        <ele>5.4</ele>
        <time>2020-06-02T17:34:41Z</time>
      </trkpt>
      <trkpt lat="46.34737" lon="-1.40382">
        <ele>5.4</ele>
        <time>2020-06-02T17:34:42Z</time>
      </trkpt>
      <trkpt lat="46.34732" lon="-1.40381">
        <ele>5.5</ele>
        <time>2020-06-02T17:34:43Z</time>
      </trkpt>
      <trkpt lat="46.34727" lon="-1.4038">
        <ele>5.5</ele>
        <time>2020-06-02T17:34:44Z</time>
      </trkpt>
      <trkpt lat="46.34722" lon="-1.4038">
        <ele>5.5</ele>
        <time>2020-06-02T17:34:45Z</time>
      </trkpt>
      <trkpt lat="46.34717" lon="-1.40379">
        <ele>5.5</ele>
        <time>2020-06-02T17:34:46Z</time>
      </trkpt>
      <trkpt lat="46.34713" lon="-1.40378">
        <ele>5.5</ele>
        <time>2020-06-02T17:34:47Z</time>
      </trkpt>
      <trkpt lat="46.34709" lon="-1.40378">
        <ele>5.5</ele>
        <time>2020-06-02T17:34:48Z</time>
      </trkpt>
      <trkpt lat="46.34705" lon="-1.4038">
        <ele>5.5</ele>
        <time>2020-06-02T17:34:49Z</time>
      </trkpt>
      <trkpt lat="46.34701" lon="-1.40383">
        <ele>5.5</ele>
        <time>2020-06-02T17:34:50Z</time>
      </trkpt>
      <trkpt lat="46.34698" lon="-1.40384">
        <ele>5.5</ele>
        <time>2020-06-02T17:34:51Z</time>
      </trkpt>
      <trkpt lat="46.34694" lon="-1.40386">
        <ele>5.5</ele>
        <time>2020-06-02T17:34:52Z</time>
      </trkpt>
      <trkpt lat="46.34692" lon="-1.40388">
        <ele>5.5</ele>
        <time>2020-06-02T17:34:53Z</time>
      </trkpt>
      <trkpt lat="46.34688" lon="-1.4039">
        <ele>5.5</ele>
        <time>2020-06-02T17:34:54Z</time>
      </trkpt>
      <trkpt lat="46.34686" lon="-1.40392">
        <ele>5.5</ele>
        <time>2020-06-02T17:34:55Z</time>
      </trkpt>
      <trkpt lat="46.34683" lon="-1.40394">
        <ele>5.5</ele>
        <time>2020-06-02T17:34:56Z</time>
      </trkpt>
      <trkpt lat="46.34679" lon="-1.40397">
        <ele>5.6</ele>
        <time>2020-06-02T17:34:57Z</time>
      </trkpt>
      <trkpt lat="46.34677" lon="-1.40399">
        <ele>5.6</ele>
        <time>2020-06-02T17:34:58Z</time>
      </trkpt>
      <trkpt lat="46.34674" lon="-1.404">
        <ele>5.6</ele>
        <time>2020-06-02T17:34:59Z</time>
      </trkpt>
      <trkpt lat="46.3467" lon="-1.40402">
        <ele>5.6</ele>
        <time>2020-06-02T17:35:00Z</time>
      </trkpt>
      <trkpt lat="46.34667" lon="-1.40403">
        <ele>5.6</ele>
        <time>2020-06-02T17:35:01Z</time>
      </trkpt>
      <trkpt lat="46.34664" lon="-1.40406">
        <ele>5.6</ele>
        <time>2020-06-02T17:35:02Z</time>
      </trkpt>
      <trkpt lat="46.34662" lon="-1.40409">
        <ele>5.6</ele>
        <time>2020-06-02T17:35:03Z</time>
      </trkpt>
      <trkpt lat="46.34659" lon="-1.40411">
        <ele>5.6</ele>
        <time>2020-06-02T17:35:04Z</time>
      </trkpt>
      <trkpt lat="46.34656" lon="-1.40413">
        <ele>5.6</ele>
        <time>2020-06-02T17:35:05Z</time>
      </trkpt>
      <trkpt lat="46.34652" lon="-1.40414">
        <ele>5.6</ele>
        <time>2020-06-02T17:35:06Z</time>
      </trkpt>
      <trkpt lat="46.3465" lon="-1.40415">
        <ele>5.6</ele>
        <time>2020-06-02T17:35:07Z</time>
      </trkpt>
      <trkpt lat="46.34649" lon="-1.40419">
        <ele>5.7</ele>
        <time>2020-06-02T17:35:08Z</time>
      </trkpt>
      <trkpt lat="46.34648" lon="-1.40423">
        <ele>5.7</ele>
        <time>2020-06-02T17:35:09Z</time>
      </trkpt>
      <trkpt lat="46.34648" lon="-1.40425">
        <ele>5.7</ele>
        <time>2020-06-02T17:35:10Z</time>
      </trkpt>
      <trkpt lat="46.34649" lon="-1.4043">
        <ele>5.8</ele>
        <time>2020-06-02T17:35:11Z</time>
      </trkpt>
      <trkpt lat="46.34651" lon="-1.40434">
        <ele>5.8</ele>
        <time>2020-06-02T17:35:12Z</time>
      </trkpt>
      <trkpt lat="46.34652" lon="-1.40439">
        <ele>5.9</ele>
        <time>2020-06-02T17:35:13Z</time>
      </trkpt>
      <trkpt lat="46.34654" lon="-1.40443">
        <ele>5.9</ele>
        <time>2020-06-02T17:35:14Z</time>
      </trkpt>
      <trkpt lat="46.34656" lon="-1.40446">
        <ele>6</ele>
        <time>2020-06-02T17:35:15Z</time>
      </trkpt>
      <trkpt lat="46.34657" lon="-1.4045">
        <ele>6</ele>
        <time>2020-06-02T17:35:16Z</time>
      </trkpt>
      <trkpt lat="46.34659" lon="-1.40455">
        <ele>6.1</ele>
        <time>2020-06-02T17:35:17Z</time>
      </trkpt>
      <trkpt lat="46.34659" lon="-1.40457">
        <ele>6.1</ele>
        <time>2020-06-02T17:35:18Z</time>
      </trkpt>
      <trkpt lat="46.34659" lon="-1.4046">
        <ele>6.1</ele>
        <time>2020-06-02T17:35:19Z</time>
      </trkpt>
      <trkpt lat="46.34658" lon="-1.40462">
        <ele>6.2</ele>
        <time>2020-06-02T17:35:20Z</time>
      </trkpt>
      <trkpt lat="46.3466" lon="-1.40466">
        <ele>6.2</ele>
        <time>2020-06-02T17:35:21Z</time>
      </trkpt>
      <trkpt lat="46.34661" lon="-1.40467">
        <ele>6.2</ele>
        <time>2020-06-02T17:35:22Z</time>
      </trkpt>
      <trkpt lat="46.34662" lon="-1.40471">
        <ele>6.3</ele>
        <time>2020-06-02T17:35:23Z</time>
      </trkpt>
      <trkpt lat="46.34664" lon="-1.40474">
        <ele>6.3</ele>
        <time>2020-06-02T17:35:24Z</time>
      </trkpt>
      <trkpt lat="46.34666" lon="-1.40478">
        <ele>6.4</ele>
        <time>2020-06-02T17:35:25Z</time>
      </trkpt>
      <trkpt lat="46.34666" lon="-1.4048">
        <ele>6.4</ele>
        <time>2020-06-02T17:35:26Z</time>
      </trkpt>
      <trkpt lat="46.34667" lon="-1.40484">
        <ele>6.4</ele>
        <time>2020-06-02T17:35:27Z</time>
      </trkpt>
      <trkpt lat="46.34668" lon="-1.40488">
        <ele>6.5</ele>
        <time>2020-06-02T17:35:28Z</time>
      </trkpt>
      <trkpt lat="46.34669" lon="-1.40492">
        <ele>6.5</ele>
        <time>2020-06-02T17:35:29Z</time>
      </trkpt>
      <trkpt lat="46.3467" lon="-1.40496">
        <ele>6.5</ele>
        <time>2020-06-02T17:35:30Z</time>
      </trkpt>
      <trkpt lat="46.34673" lon="-1.405">
        <ele>6.6</ele>
        <time>2020-06-02T17:35:31Z</time>
      </trkpt>
      <trkpt lat="46.34674" lon="-1.40501">
        <ele>6.6</ele>
        <time>2020-06-02T17:35:32Z</time>
      </trkpt>
      <trkpt lat="46.34675" lon="-1.40506">
        <ele>6.6</ele>
        <time>2020-06-02T17:35:33Z</time>
      </trkpt>
      <trkpt lat="46.34675" lon="-1.40507">
        <ele>6.6</ele>
        <time>2020-06-02T17:35:34Z</time>
      </trkpt>
      <trkpt lat="46.34677" lon="-1.40512">
        <ele>6.6</ele>
        <time>2020-06-02T17:35:35Z</time>
      </trkpt>
      <trkpt lat="46.34678" lon="-1.40514">
        <ele>6.6</ele>
        <time>2020-06-02T17:35:36Z</time>
      </trkpt>
      <trkpt lat="46.3468" lon="-1.40519">
        <ele>6.6</ele>
        <time>2020-06-02T17:35:37Z</time>
      </trkpt>
      <trkpt lat="46.3468" lon="-1.40521">
        <ele>6.6</ele>
        <time>2020-06-02T17:35:38Z</time>
      </trkpt>
      <trkpt lat="46.34681" lon="-1.40525">
        <ele>6.6</ele>
        <time>2020-06-02T17:35:39Z</time>
      </trkpt>
      <trkpt lat="46.34682" lon="-1.4053">
        <ele>6.6</ele>
        <time>2020-06-02T17:35:40Z</time>
      </trkpt>
      <trkpt lat="46.34684" lon="-1.40535">
        <ele>6.6</ele>
        <time>2020-06-02T17:35:41Z</time>
      </trkpt>
      <trkpt lat="46.34686" lon="-1.40541">
        <ele>6.6</ele>
        <time>2020-06-02T17:35:42Z</time>
      </trkpt>
      <trkpt lat="46.34687" lon="-1.40545">
        <ele>6.6</ele>
        <time>2020-06-02T17:35:43Z</time>
      </trkpt>
      <trkpt lat="46.34688" lon="-1.40551">
        <ele>6.6</ele>
        <time>2020-06-02T17:35:44Z</time>
      </trkpt>
      <trkpt lat="46.34689" lon="-1.40557">
        <ele>6.6</ele>
        <time>2020-06-02T17:35:45Z</time>
      </trkpt>
      <trkpt lat="46.34691" lon="-1.40564">
        <ele>6.6</ele>
        <time>2020-06-02T17:35:46Z</time>
      </trkpt>
      <trkpt lat="46.34692" lon="-1.40569">
        <ele>6.6</ele>
        <time>2020-06-02T17:35:47Z</time>
      </trkpt>
      <trkpt lat="46.34693" lon="-1.40575">
        <ele>6.6</ele>
        <time>2020-06-02T17:35:48Z</time>
      </trkpt>
      <trkpt lat="46.34695" lon="-1.4058">
        <ele>6.7</ele>
        <time>2020-06-02T17:35:49Z</time>
      </trkpt>
      <trkpt lat="46.34696" lon="-1.40586">
        <ele>6.7</ele>
        <time>2020-06-02T17:35:50Z</time>
      </trkpt>
      <trkpt lat="46.34696" lon="-1.40591">
        <ele>6.7</ele>
        <time>2020-06-02T17:35:51Z</time>
      </trkpt>
      <trkpt lat="46.34697" lon="-1.40597">
        <ele>6.7</ele>
        <time>2020-06-02T17:35:52Z</time>
      </trkpt>
      <trkpt lat="46.34698" lon="-1.40602">
        <ele>6.7</ele>
        <time>2020-06-02T17:35:53Z</time>
      </trkpt>
      <trkpt lat="46.34697" lon="-1.40607">
        <ele>6.7</ele>
        <time>2020-06-02T17:35:54Z</time>
      </trkpt>
      <trkpt lat="46.34696" lon="-1.40611">
        <ele>6.7</ele>
        <time>2020-06-02T17:35:55Z</time>
      </trkpt>
      <trkpt lat="46.34694" lon="-1.40614">
        <ele>6.7</ele>
        <time>2020-06-02T17:35:56Z</time>
      </trkpt>
      <trkpt lat="46.34692" lon="-1.40617">
        <ele>6.7</ele>
        <time>2020-06-02T17:35:57Z</time>
      </trkpt>
      <trkpt lat="46.3469" lon="-1.40619">
        <ele>6.7</ele>
        <time>2020-06-02T17:35:58Z</time>
      </trkpt>
      <trkpt lat="46.34686" lon="-1.40622">
        <ele>6.7</ele>
        <time>2020-06-02T17:35:59Z</time>
      </trkpt>
      <trkpt lat="46.34682" lon="-1.40624">
        <ele>6.6</ele>
        <time>2020-06-02T17:36:00Z</time>
      </trkpt>
      <trkpt lat="46.34677" lon="-1.40626">
        <ele>6.6</ele>
        <time>2020-06-02T17:36:01Z</time>
      </trkpt>
      <trkpt lat="46.34673" lon="-1.40627">
        <ele>6.6</ele>
        <time>2020-06-02T17:36:02Z</time>
      </trkpt>
      <trkpt lat="46.34669" lon="-1.40628">
        <ele>6.6</ele>
        <time>2020-06-02T17:36:03Z</time>
      </trkpt>
      <trkpt lat="46.34665" lon="-1.40629">
        <ele>6.6</ele>
        <time>2020-06-02T17:36:04Z</time>
      </trkpt>
      <trkpt lat="46.34661" lon="-1.40633">
        <ele>6.6</ele>
        <time>2020-06-02T17:36:05Z</time>
      </trkpt>
      <trkpt lat="46.34656" lon="-1.40636">
        <ele>6.6</ele>
        <time>2020-06-02T17:36:06Z</time>
      </trkpt>
      <trkpt lat="46.34652" lon="-1.40638">
        <ele>6.6</ele>
        <time>2020-06-02T17:36:07Z</time>
      </trkpt>
      <trkpt lat="46.34649" lon="-1.4064">
        <ele>6.6</ele>
        <time>2020-06-02T17:36:08Z</time>
      </trkpt>
      <trkpt lat="46.34645" lon="-1.40643">
        <ele>6.6</ele>
        <time>2020-06-02T17:36:09Z</time>
      </trkpt>
      <trkpt lat="46.34641" lon="-1.40644">
        <ele>6.6</ele>
        <time>2020-06-02T17:36:10Z</time>
      </trkpt>
      <trkpt lat="46.34637" lon="-1.40646">
        <ele>6.6</ele>
        <time>2020-06-02T17:36:11Z</time>
      </trkpt>
      <trkpt lat="46.34633" lon="-1.40648">
        <ele>6.7</ele>
        <time>2020-06-02T17:36:12Z</time>
      </trkpt>
      <trkpt lat="46.34629" lon="-1.4065">
        <ele>6.7</ele>
        <time>2020-06-02T17:36:13Z</time>
      </trkpt>
      <trkpt lat="46.34625" lon="-1.40651">
        <ele>6.7</ele>
        <time>2020-06-02T17:36:14Z</time>
      </trkpt>
      <trkpt lat="46.34619" lon="-1.40653">
        <ele>6.7</ele>
        <time>2020-06-02T17:36:15Z</time>
      </trkpt>
      <trkpt lat="46.34614" lon="-1.40656">
        <ele>6.8</ele>
        <time>2020-06-02T17:36:16Z</time>
      </trkpt>
      <trkpt lat="46.3461" lon="-1.40658">
        <ele>6.8</ele>
        <time>2020-06-02T17:36:17Z</time>
      </trkpt>
      <trkpt lat="46.34605" lon="-1.40658">
        <ele>6.9</ele>
        <time>2020-06-02T17:36:18Z</time>
      </trkpt>
      <trkpt lat="46.34601" lon="-1.40659">
        <ele>6.9</ele>
        <time>2020-06-02T17:36:19Z</time>
      </trkpt>
      <trkpt lat="46.34595" lon="-1.40661">
        <ele>6.9</ele>
        <time>2020-06-02T17:36:20Z</time>
      </trkpt>
      <trkpt lat="46.3459" lon="-1.40664">
        <ele>7</ele>
        <time>2020-06-02T17:36:21Z</time>
      </trkpt>
      <trkpt lat="46.34586" lon="-1.40666">
        <ele>7</ele>
        <time>2020-06-02T17:36:22Z</time>
      </trkpt>
      <trkpt lat="46.34581" lon="-1.40668">
        <ele>7.1</ele>
        <time>2020-06-02T17:36:23Z</time>
      </trkpt>
      <trkpt lat="46.34576" lon="-1.4067">
        <ele>7.1</ele>
        <time>2020-06-02T17:36:24Z</time>
      </trkpt>
      <trkpt lat="46.34572" lon="-1.40673">
        <ele>7.1</ele>
        <time>2020-06-02T17:36:25Z</time>
      </trkpt>
      <trkpt lat="46.34568" lon="-1.40675">
        <ele>7.1</ele>
        <time>2020-06-02T17:36:26Z</time>
      </trkpt>
      <trkpt lat="46.34564" lon="-1.40677">
        <ele>7.1</ele>
        <time>2020-06-02T17:36:27Z</time>
      </trkpt>
      <trkpt lat="46.3456" lon="-1.40679">
        <ele>7.1</ele>
        <time>2020-06-02T17:36:28Z</time>
      </trkpt>
      <trkpt lat="46.34555" lon="-1.40679">
        <ele>7.2</ele>
        <time>2020-06-02T17:36:29Z</time>
      </trkpt>
      <trkpt lat="46.34551" lon="-1.40682">
        <ele>7.2</ele>
        <time>2020-06-02T17:36:30Z</time>
      </trkpt>
      <trkpt lat="46.34547" lon="-1.40684">
        <ele>7.2</ele>
        <time>2020-06-02T17:36:31Z</time>
      </trkpt>
      <trkpt lat="46.34543" lon="-1.40686">
        <ele>7.2</ele>
        <time>2020-06-02T17:36:32Z</time>
      </trkpt>
      <trkpt lat="46.34541" lon="-1.40688">
        <ele>7.2</ele>
        <time>2020-06-02T17:36:33Z</time>
      </trkpt>
      <trkpt lat="46.34537" lon="-1.4069">
        <ele>7.2</ele>
        <time>2020-06-02T17:36:34Z</time>
      </trkpt>
      <trkpt lat="46.34532" lon="-1.4069">
        <ele>7.2</ele>
        <time>2020-06-02T17:36:35Z</time>
      </trkpt>
      <trkpt lat="46.34528" lon="-1.40694">
        <ele>7.3</ele>
        <time>2020-06-02T17:36:36Z</time>
      </trkpt>
      <trkpt lat="46.34524" lon="-1.40696">
        <ele>7.3</ele>
        <time>2020-06-02T17:36:37Z</time>
      </trkpt>
      <trkpt lat="46.34521" lon="-1.40697">
        <ele>7.3</ele>
        <time>2020-06-02T17:36:38Z</time>
      </trkpt>
      <trkpt lat="46.34516" lon="-1.40699">
        <ele>7.3</ele>
        <time>2020-06-02T17:36:39Z</time>
      </trkpt>
      <trkpt lat="46.34512" lon="-1.407">
        <ele>7.3</ele>
        <time>2020-06-02T17:36:40Z</time>
      </trkpt>
      <trkpt lat="46.34507" lon="-1.40703">
        <ele>7.4</ele>
        <time>2020-06-02T17:36:41Z</time>
      </trkpt>
      <trkpt lat="46.34502" lon="-1.40704">
        <ele>7.4</ele>
        <time>2020-06-02T17:36:42Z</time>
      </trkpt>
      <trkpt lat="46.34498" lon="-1.40705">
        <ele>7.4</ele>
        <time>2020-06-02T17:36:43Z</time>
      </trkpt>
      <trkpt lat="46.34495" lon="-1.40705">
        <ele>7.4</ele>
        <time>2020-06-02T17:36:44Z</time>
      </trkpt>
      <trkpt lat="46.34491" lon="-1.40707">
        <ele>7.4</ele>
        <time>2020-06-02T17:36:45Z</time>
      </trkpt>
      <trkpt lat="46.34489" lon="-1.40709">
        <ele>7.5</ele>
        <time>2020-06-02T17:36:46Z</time>
      </trkpt>
      <trkpt lat="46.34486" lon="-1.40711">
        <ele>7.5</ele>
        <time>2020-06-02T17:36:47Z</time>
      </trkpt>
      <trkpt lat="46.34483" lon="-1.40713">
        <ele>7.5</ele>
        <time>2020-06-02T17:36:48Z</time>
      </trkpt>
      <trkpt lat="46.34481" lon="-1.40715">
        <ele>7.5</ele>
        <time>2020-06-02T17:36:49Z</time>
      </trkpt>
      <trkpt lat="46.34476" lon="-1.40718">
        <ele>7.5</ele>
        <time>2020-06-02T17:36:50Z</time>
      </trkpt>
      <trkpt lat="46.34473" lon="-1.4072">
        <ele>7.5</ele>
        <time>2020-06-02T17:36:51Z</time>
      </trkpt>
      <trkpt lat="46.3447" lon="-1.40722">
        <ele>7.6</ele>
        <time>2020-06-02T17:36:52Z</time>
      </trkpt>
      <trkpt lat="46.34469" lon="-1.40723">
        <ele>7.6</ele>
        <time>2020-06-02T17:36:53Z</time>
      </trkpt>
      <trkpt lat="46.34468" lon="-1.40726">
        <ele>7.6</ele>
        <time>2020-06-02T17:36:54Z</time>
      </trkpt>
      <trkpt lat="46.34468" lon="-1.40728">
        <ele>7.7</ele>
        <time>2020-06-02T17:36:55Z</time>
      </trkpt>
      <trkpt lat="46.34467" lon="-1.40729">
        <ele>7.7</ele>
        <time>2020-06-02T17:36:56Z</time>
      </trkpt>
      <trkpt lat="46.34467" lon="-1.40731">
        <ele>7.7</ele>
        <time>2020-06-02T17:36:57Z</time>
      </trkpt>
      <trkpt lat="46.34467" lon="-1.40732">
        <ele>7.7</ele>
        <time>2020-06-02T17:36:58Z</time>
      </trkpt>
      <trkpt lat="46.34468" lon="-1.40734">
        <ele>7.7</ele>
        <time>2020-06-02T17:36:59Z</time>
      </trkpt>
      <trkpt lat="46.34469" lon="-1.40735">
        <ele>7.8</ele>
        <time>2020-06-02T17:37:00Z</time>
      </trkpt>
      <trkpt lat="46.34469" lon="-1.40737">
        <ele>7.8</ele>
        <time>2020-06-02T17:37:01Z</time>
      </trkpt>
      <trkpt lat="46.3447" lon="-1.40742">
        <ele>7.9</ele>
        <time>2020-06-02T17:37:02Z</time>
      </trkpt>
      <trkpt lat="46.34471" lon="-1.40746">
        <ele>7.9</ele>
        <time>2020-06-02T17:37:03Z</time>
      </trkpt>
      <trkpt lat="46.34472" lon="-1.40747">
        <ele>7.9</ele>
        <time>2020-06-02T17:37:04Z</time>
      </trkpt>
      <trkpt lat="46.34473" lon="-1.40752">
        <ele>8</ele>
        <time>2020-06-02T17:37:05Z</time>
      </trkpt>
      <trkpt lat="46.34473" lon="-1.40754">
        <ele>8</ele>
        <time>2020-06-02T17:37:06Z</time>
      </trkpt>
      <trkpt lat="46.34475" lon="-1.40758">
        <ele>8.1</ele>
        <time>2020-06-02T17:37:07Z</time>
      </trkpt>
      <trkpt lat="46.34477" lon="-1.40762">
        <ele>8.2</ele>
        <time>2020-06-02T17:37:08Z</time>
      </trkpt>
      <trkpt lat="46.34478" lon="-1.40764">
        <ele>8.2</ele>
        <time>2020-06-02T17:37:09Z</time>
      </trkpt>
      <trkpt lat="46.34479" lon="-1.40766">
        <ele>8.3</ele>
        <time>2020-06-02T17:37:10Z</time>
      </trkpt>
      <trkpt lat="46.3448" lon="-1.40768">
        <ele>8.3</ele>
        <time>2020-06-02T17:37:11Z</time>
      </trkpt>
      <trkpt lat="46.3448" lon="-1.4077">
        <ele>8.4</ele>
        <time>2020-06-02T17:37:12Z</time>
      </trkpt>
      <trkpt lat="46.34481" lon="-1.40772">
        <ele>8.4</ele>
        <time>2020-06-02T17:37:13Z</time>
      </trkpt>
      <trkpt lat="46.34481" lon="-1.40776">
        <ele>8.5</ele>
        <time>2020-06-02T17:37:14Z</time>
      </trkpt>
      <trkpt lat="46.34482" lon="-1.40778">
        <ele>8.5</ele>
        <time>2020-06-02T17:37:15Z</time>
      </trkpt>
      <trkpt lat="46.34482" lon="-1.40782">
        <ele>8.6</ele>
        <time>2020-06-02T17:37:16Z</time>
      </trkpt>
      <trkpt lat="46.34483" lon="-1.40788">
        <ele>8.7</ele>
        <time>2020-06-02T17:37:17Z</time>
      </trkpt>
      <trkpt lat="46.34483" lon="-1.40791">
        <ele>8.8</ele>
        <time>2020-06-02T17:37:18Z</time>
      </trkpt>
      <trkpt lat="46.34484" lon="-1.40797">
        <ele>8.9</ele>
        <time>2020-06-02T17:37:19Z</time>
      </trkpt>
      <trkpt lat="46.34486" lon="-1.40801">
        <ele>8.9</ele>
        <time>2020-06-02T17:37:20Z</time>
      </trkpt>
      <trkpt lat="46.34488" lon="-1.40807">
        <ele>9</ele>
        <time>2020-06-02T17:37:21Z</time>
      </trkpt>
      <trkpt lat="46.34489" lon="-1.40812">
        <ele>9.1</ele>
        <time>2020-06-02T17:37:22Z</time>
      </trkpt>
      <trkpt lat="46.3449" lon="-1.40817">
        <ele>9.1</ele>
        <time>2020-06-02T17:37:23Z</time>
      </trkpt>
      <trkpt lat="46.3449" lon="-1.40823">
        <ele>9.2</ele>
        <time>2020-06-02T17:37:24Z</time>
      </trkpt>
      <trkpt lat="46.34491" lon="-1.40829">
        <ele>9.2</ele>
        <time>2020-06-02T17:37:25Z</time>
      </trkpt>
      <trkpt lat="46.34492" lon="-1.40834">
        <ele>9.2</ele>
        <time>2020-06-02T17:37:26Z</time>
      </trkpt>
      <trkpt lat="46.34493" lon="-1.40839">
        <ele>9.3</ele>
        <time>2020-06-02T17:37:27Z</time>
      </trkpt>
      <trkpt lat="46.34494" lon="-1.40845">
        <ele>9.3</ele>
        <time>2020-06-02T17:37:28Z</time>
      </trkpt>
      <trkpt lat="46.34495" lon="-1.40846">
        <ele>9.3</ele>
        <time>2020-06-02T17:37:29Z</time>
      </trkpt>
      <trkpt lat="46.34495" lon="-1.40851">
        <ele>9.4</ele>
        <time>2020-06-02T17:37:30Z</time>
      </trkpt>
      <trkpt lat="46.34496" lon="-1.40856">
        <ele>9.4</ele>
        <time>2020-06-02T17:37:31Z</time>
      </trkpt>
      <trkpt lat="46.34496" lon="-1.40861">
        <ele>9.4</ele>
        <time>2020-06-02T17:37:32Z</time>
      </trkpt>
      <trkpt lat="46.34497" lon="-1.40865">
        <ele>9.4</ele>
        <time>2020-06-02T17:37:33Z</time>
      </trkpt>
      <trkpt lat="46.34498" lon="-1.40869">
        <ele>9.5</ele>
        <time>2020-06-02T17:37:34Z</time>
      </trkpt>
      <trkpt lat="46.34498" lon="-1.40873">
        <ele>9.5</ele>
        <time>2020-06-02T17:37:35Z</time>
      </trkpt>
      <trkpt lat="46.34499" lon="-1.40878">
        <ele>9.5</ele>
        <time>2020-06-02T17:37:36Z</time>
      </trkpt>
      <trkpt lat="46.345" lon="-1.40884">
        <ele>9.5</ele>
        <time>2020-06-02T17:37:37Z</time>
      </trkpt>
      <trkpt lat="46.345" lon="-1.40886">
        <ele>9.5</ele>
        <time>2020-06-02T17:37:38Z</time>
      </trkpt>
      <trkpt lat="46.34502" lon="-1.40891">
        <ele>9.5</ele>
        <time>2020-06-02T17:37:39Z</time>
      </trkpt>
      <trkpt lat="46.34502" lon="-1.40895">
        <ele>9.5</ele>
        <time>2020-06-02T17:37:40Z</time>
      </trkpt>
      <trkpt lat="46.34504" lon="-1.40899">
        <ele>9.5</ele>
        <time>2020-06-02T17:37:41Z</time>
      </trkpt>
      <trkpt lat="46.34505" lon="-1.40904">
        <ele>9.4</ele>
        <time>2020-06-02T17:37:42Z</time>
      </trkpt>
      <trkpt lat="46.34507" lon="-1.40908">
        <ele>9.4</ele>
        <time>2020-06-02T17:37:43Z</time>
      </trkpt>
      <trkpt lat="46.34508" lon="-1.40912">
        <ele>9.4</ele>
        <time>2020-06-02T17:37:44Z</time>
      </trkpt>
      <trkpt lat="46.3451" lon="-1.40917">
        <ele>9.3</ele>
        <time>2020-06-02T17:37:45Z</time>
      </trkpt>
      <trkpt lat="46.34511" lon="-1.40923">
        <ele>9.2</ele>
        <time>2020-06-02T17:37:46Z</time>
      </trkpt>
      <trkpt lat="46.34512" lon="-1.40929">
        <ele>9.1</ele>
        <time>2020-06-02T17:37:47Z</time>
      </trkpt>
      <trkpt lat="46.34512" lon="-1.40935">
        <ele>9</ele>
        <time>2020-06-02T17:37:48Z</time>
      </trkpt>
      <trkpt lat="46.34513" lon="-1.40942">
        <ele>8.9</ele>
        <time>2020-06-02T17:37:49Z</time>
      </trkpt>
      <trkpt lat="46.34514" lon="-1.40948">
        <ele>8.8</ele>
        <time>2020-06-02T17:37:50Z</time>
      </trkpt>
      <trkpt lat="46.34516" lon="-1.40953">
        <ele>8.7</ele>
        <time>2020-06-02T17:37:51Z</time>
      </trkpt>
      <trkpt lat="46.34517" lon="-1.40958">
        <ele>8.7</ele>
        <time>2020-06-02T17:37:52Z</time>
      </trkpt>
      <trkpt lat="46.34519" lon="-1.40961">
        <ele>8.6</ele>
        <time>2020-06-02T17:37:53Z</time>
      </trkpt>
      <trkpt lat="46.3452" lon="-1.40966">
        <ele>8.6</ele>
        <time>2020-06-02T17:37:54Z</time>
      </trkpt>
      <trkpt lat="46.34521" lon="-1.40969">
        <ele>8.6</ele>
        <time>2020-06-02T17:37:55Z</time>
      </trkpt>
      <trkpt lat="46.34522" lon="-1.40972">
        <ele>8.6</ele>
        <time>2020-06-02T17:37:56Z</time>
      </trkpt>
      <trkpt lat="46.34521" lon="-1.40976">
        <ele>8.6</ele>
        <time>2020-06-02T17:37:57Z</time>
      </trkpt>
      <trkpt lat="46.34523" lon="-1.4098">
        <ele>8.5</ele>
        <time>2020-06-02T17:37:58Z</time>
      </trkpt>
      <trkpt lat="46.34524" lon="-1.40984">
        <ele>8.5</ele>
        <time>2020-06-02T17:37:59Z</time>
      </trkpt>
      <trkpt lat="46.34525" lon="-1.40989">
        <ele>8.5</ele>
        <time>2020-06-02T17:38:00Z</time>
      </trkpt>
      <trkpt lat="46.34527" lon="-1.40994">
        <ele>8.5</ele>
        <time>2020-06-02T17:38:01Z</time>
      </trkpt>
      <trkpt lat="46.34527" lon="-1.41">
        <ele>8.5</ele>
        <time>2020-06-02T17:38:02Z</time>
      </trkpt>
      <trkpt lat="46.34528" lon="-1.41006">
        <ele>8.5</ele>
        <time>2020-06-02T17:38:03Z</time>
      </trkpt>
      <trkpt lat="46.34529" lon="-1.41012">
        <ele>8.6</ele>
        <time>2020-06-02T17:38:04Z</time>
      </trkpt>
      <trkpt lat="46.3453" lon="-1.41017">
        <ele>8.6</ele>
        <time>2020-06-02T17:38:05Z</time>
      </trkpt>
      <trkpt lat="46.34532" lon="-1.41022">
        <ele>8.6</ele>
        <time>2020-06-02T17:38:06Z</time>
      </trkpt>
      <trkpt lat="46.34534" lon="-1.41029">
        <ele>8.6</ele>
        <time>2020-06-02T17:38:07Z</time>
      </trkpt>
      <trkpt lat="46.34536" lon="-1.41034">
        <ele>8.6</ele>
        <time>2020-06-02T17:38:08Z</time>
      </trkpt>
      <trkpt lat="46.34537" lon="-1.4104">
        <ele>8.6</ele>
        <time>2020-06-02T17:38:09Z</time>
      </trkpt>
      <trkpt lat="46.34538" lon="-1.41045">
        <ele>8.6</ele>
        <time>2020-06-02T17:38:10Z</time>
      </trkpt>
      <trkpt lat="46.3454" lon="-1.41052">
        <ele>8.7</ele>
        <time>2020-06-02T17:38:11Z</time>
      </trkpt>
      <trkpt lat="46.34541" lon="-1.41058">
        <ele>8.7</ele>
        <time>2020-06-02T17:38:12Z</time>
      </trkpt>
      <trkpt lat="46.34543" lon="-1.41064">
        <ele>8.7</ele>
        <time>2020-06-02T17:38:13Z</time>
      </trkpt>
      <trkpt lat="46.34545" lon="-1.41069">
        <ele>8.7</ele>
        <time>2020-06-02T17:38:14Z</time>
      </trkpt>
      <trkpt lat="46.34546" lon="-1.41075">
        <ele>8.7</ele>
        <time>2020-06-02T17:38:15Z</time>
      </trkpt>
      <trkpt lat="46.34548" lon="-1.41079">
        <ele>8.7</ele>
        <time>2020-06-02T17:38:16Z</time>
      </trkpt>
      <trkpt lat="46.3455" lon="-1.41085">
        <ele>8.7</ele>
        <time>2020-06-02T17:38:17Z</time>
      </trkpt>
      <trkpt lat="46.34551" lon="-1.41091">
        <ele>8.8</ele>
        <time>2020-06-02T17:38:18Z</time>
      </trkpt>
      <trkpt lat="46.34552" lon="-1.41096">
        <ele>8.8</ele>
        <time>2020-06-02T17:38:19Z</time>
      </trkpt>
      <trkpt lat="46.34553" lon="-1.41102">
        <ele>8.8</ele>
        <time>2020-06-02T17:38:20Z</time>
      </trkpt>
      <trkpt lat="46.34554" lon="-1.41109">
        <ele>8.9</ele>
        <time>2020-06-02T17:38:21Z</time>
      </trkpt>
      <trkpt lat="46.34556" lon="-1.41116">
        <ele>8.9</ele>
        <time>2020-06-02T17:38:22Z</time>
      </trkpt>
      <trkpt lat="46.34557" lon="-1.41121">
        <ele>9</ele>
        <time>2020-06-02T17:38:23Z</time>
      </trkpt>
      <trkpt lat="46.34558" lon="-1.41126">
        <ele>9</ele>
        <time>2020-06-02T17:38:24Z</time>
      </trkpt>
      <trkpt lat="46.34559" lon="-1.4113">
        <ele>9</ele>
        <time>2020-06-02T17:38:25Z</time>
      </trkpt>
      <trkpt lat="46.34561" lon="-1.41137">
        <ele>9.1</ele>
        <time>2020-06-02T17:38:26Z</time>
      </trkpt>
      <trkpt lat="46.34562" lon="-1.41144">
        <ele>9.1</ele>
        <time>2020-06-02T17:38:27Z</time>
      </trkpt>
      <trkpt lat="46.34563" lon="-1.41151">
        <ele>9.2</ele>
        <time>2020-06-02T17:38:28Z</time>
      </trkpt>
      <trkpt lat="46.34564" lon="-1.41158">
        <ele>9.2</ele>
        <time>2020-06-02T17:38:29Z</time>
      </trkpt>
      <trkpt lat="46.34565" lon="-1.41163">
        <ele>9.3</ele>
        <time>2020-06-02T17:38:30Z</time>
      </trkpt>
      <trkpt lat="46.34566" lon="-1.41169">
        <ele>9.3</ele>
        <time>2020-06-02T17:38:31Z</time>
      </trkpt>
      <trkpt lat="46.34568" lon="-1.41175">
        <ele>9.3</ele>
        <time>2020-06-02T17:38:32Z</time>
      </trkpt>
      <trkpt lat="46.34571" lon="-1.41182">
        <ele>9.4</ele>
        <time>2020-06-02T17:38:33Z</time>
      </trkpt>
      <trkpt lat="46.34574" lon="-1.41188">
        <ele>9.5</ele>
        <time>2020-06-02T17:38:34Z</time>
      </trkpt>
      <trkpt lat="46.34577" lon="-1.41193">
        <ele>9.5</ele>
        <time>2020-06-02T17:38:35Z</time>
      </trkpt>
      <trkpt lat="46.34582" lon="-1.41193">
        <ele>9.6</ele>
        <time>2020-06-02T17:38:36Z</time>
      </trkpt>
      <trkpt lat="46.34586" lon="-1.41193">
        <ele>9.6</ele>
        <time>2020-06-02T17:38:37Z</time>
      </trkpt>
      <trkpt lat="46.34591" lon="-1.41192">
        <ele>9.6</ele>
        <time>2020-06-02T17:38:38Z</time>
      </trkpt>
      <trkpt lat="46.34595" lon="-1.41191">
        <ele>9.6</ele>
        <time>2020-06-02T17:38:39Z</time>
      </trkpt>
      <trkpt lat="46.34599" lon="-1.41191">
        <ele>9.6</ele>
        <time>2020-06-02T17:38:40Z</time>
      </trkpt>
      <trkpt lat="46.34602" lon="-1.4119">
        <ele>9.6</ele>
        <time>2020-06-02T17:38:41Z</time>
      </trkpt>
      <trkpt lat="46.34607" lon="-1.4119">
        <ele>9.6</ele>
        <time>2020-06-02T17:38:42Z</time>
      </trkpt>
      <trkpt lat="46.34611" lon="-1.41192">
        <ele>9.6</ele>
        <time>2020-06-02T17:38:43Z</time>
      </trkpt>
      <trkpt lat="46.34615" lon="-1.41195">
        <ele>9.7</ele>
        <time>2020-06-02T17:38:44Z</time>
      </trkpt>
      <trkpt lat="46.34619" lon="-1.41201">
        <ele>9.7</ele>
        <time>2020-06-02T17:38:45Z</time>
      </trkpt>
      <trkpt lat="46.34621" lon="-1.41205">
        <ele>9.8</ele>
        <time>2020-06-02T17:38:46Z</time>
      </trkpt>
      <trkpt lat="46.34623" lon="-1.41209">
        <ele>9.8</ele>
        <time>2020-06-02T17:38:47Z</time>
      </trkpt>
      <trkpt lat="46.34625" lon="-1.41214">
        <ele>9.8</ele>
        <time>2020-06-02T17:38:48Z</time>
      </trkpt>
      <trkpt lat="46.34626" lon="-1.4122">
        <ele>9.9</ele>
        <time>2020-06-02T17:38:49Z</time>
      </trkpt>
      <trkpt lat="46.34628" lon="-1.41225">
        <ele>9.9</ele>
        <time>2020-06-02T17:38:50Z</time>
      </trkpt>
      <trkpt lat="46.34629" lon="-1.41231">
        <ele>10</ele>
        <time>2020-06-02T17:38:51Z</time>
      </trkpt>
      <trkpt lat="46.34631" lon="-1.41237">
        <ele>10</ele>
        <time>2020-06-02T17:38:52Z</time>
      </trkpt>
      <trkpt lat="46.34633" lon="-1.41242">
        <ele>10</ele>
        <time>2020-06-02T17:38:53Z</time>
      </trkpt>
      <trkpt lat="46.34635" lon="-1.41248">
        <ele>10.1</ele>
        <time>2020-06-02T17:38:54Z</time>
      </trkpt>
      <trkpt lat="46.34637" lon="-1.41255">
        <ele>10.1</ele>
        <time>2020-06-02T17:38:55Z</time>
      </trkpt>
      <trkpt lat="46.34639" lon="-1.41261">
        <ele>10.1</ele>
        <time>2020-06-02T17:38:56Z</time>
      </trkpt>
      <trkpt lat="46.3464" lon="-1.41268">
        <ele>10.2</ele>
        <time>2020-06-02T17:38:57Z</time>
      </trkpt>
      <trkpt lat="46.34641" lon="-1.41274">
        <ele>10.2</ele>
        <time>2020-06-02T17:38:58Z</time>
      </trkpt>
      <trkpt lat="46.34642" lon="-1.41281">
        <ele>10.2</ele>
        <time>2020-06-02T17:38:59Z</time>
      </trkpt>
      <trkpt lat="46.34644" lon="-1.41286">
        <ele>10.2</ele>
        <time>2020-06-02T17:39:00Z</time>
      </trkpt>
      <trkpt lat="46.34646" lon="-1.41292">
        <ele>10.2</ele>
        <time>2020-06-02T17:39:01Z</time>
      </trkpt>
      <trkpt lat="46.34647" lon="-1.41298">
        <ele>10.2</ele>
        <time>2020-06-02T17:39:02Z</time>
      </trkpt>
      <trkpt lat="46.34647" lon="-1.41303">
        <ele>10.2</ele>
        <time>2020-06-02T17:39:03Z</time>
      </trkpt>
      <trkpt lat="46.34649" lon="-1.41308">
        <ele>10.2</ele>
        <time>2020-06-02T17:39:04Z</time>
      </trkpt>
      <trkpt lat="46.3465" lon="-1.41315">
        <ele>10.3</ele>
        <time>2020-06-02T17:39:05Z</time>
      </trkpt>
      <trkpt lat="46.34651" lon="-1.41322">
        <ele>10.3</ele>
        <time>2020-06-02T17:39:06Z</time>
      </trkpt>
      <trkpt lat="46.34653" lon="-1.41328">
        <ele>10.3</ele>
        <time>2020-06-02T17:39:07Z</time>
      </trkpt>
      <trkpt lat="46.34655" lon="-1.41335">
        <ele>10.3</ele>
        <time>2020-06-02T17:39:08Z</time>
      </trkpt>
      <trkpt lat="46.34657" lon="-1.41341">
        <ele>10.3</ele>
        <time>2020-06-02T17:39:09Z</time>
      </trkpt>
      <trkpt lat="46.34658" lon="-1.41347">
        <ele>10.3</ele>
        <time>2020-06-02T17:39:10Z</time>
      </trkpt>
      <trkpt lat="46.3466" lon="-1.41356">
        <ele>10.4</ele>
        <time>2020-06-02T17:39:11Z</time>
      </trkpt>
      <trkpt lat="46.34663" lon="-1.41362">
        <ele>10.4</ele>
        <time>2020-06-02T17:39:12Z</time>
      </trkpt>
      <trkpt lat="46.34664" lon="-1.41368">
        <ele>10.4</ele>
        <time>2020-06-02T17:39:13Z</time>
      </trkpt>
      <trkpt lat="46.34666" lon="-1.41374">
        <ele>10.3</ele>
        <time>2020-06-02T17:39:14Z</time>
      </trkpt>
      <trkpt lat="46.34669" lon="-1.41378">
        <ele>10.3</ele>
        <time>2020-06-02T17:39:15Z</time>
      </trkpt>
      <trkpt lat="46.3467" lon="-1.41386">
        <ele>10.3</ele>
        <time>2020-06-02T17:39:16Z</time>
      </trkpt>
      <trkpt lat="46.34672" lon="-1.41391">
        <ele>10.3</ele>
        <time>2020-06-02T17:39:17Z</time>
      </trkpt>
      <trkpt lat="46.34673" lon="-1.41397">
        <ele>10.2</ele>
        <time>2020-06-02T17:39:18Z</time>
      </trkpt>
      <trkpt lat="46.34675" lon="-1.41404">
        <ele>10.2</ele>
        <time>2020-06-02T17:39:19Z</time>
      </trkpt>
      <trkpt lat="46.34676" lon="-1.4141">
        <ele>10.1</ele>
        <time>2020-06-02T17:39:20Z</time>
      </trkpt>
      <trkpt lat="46.34678" lon="-1.41417">
        <ele>10.1</ele>
        <time>2020-06-02T17:39:21Z</time>
      </trkpt>
      <trkpt lat="46.3468" lon="-1.41423">
        <ele>10</ele>
        <time>2020-06-02T17:39:22Z</time>
      </trkpt>
      <trkpt lat="46.34682" lon="-1.4143">
        <ele>9.9</ele>
        <time>2020-06-02T17:39:23Z</time>
      </trkpt>
      <trkpt lat="46.34683" lon="-1.41436">
        <ele>9.9</ele>
        <time>2020-06-02T17:39:24Z</time>
      </trkpt>
      <trkpt lat="46.34683" lon="-1.4144">
        <ele>9.8</ele>
        <time>2020-06-02T17:39:25Z</time>
      </trkpt>
      <trkpt lat="46.34685" lon="-1.41444">
        <ele>9.8</ele>
        <time>2020-06-02T17:39:26Z</time>
      </trkpt>
      <trkpt lat="46.34686" lon="-1.41449">
        <ele>9.7</ele>
        <time>2020-06-02T17:39:27Z</time>
      </trkpt>
      <trkpt lat="46.34687" lon="-1.41451">
        <ele>9.7</ele>
        <time>2020-06-02T17:39:28Z</time>
      </trkpt>
      <trkpt lat="46.34688" lon="-1.41457">
        <ele>9.7</ele>
        <time>2020-06-02T17:39:29Z</time>
      </trkpt>
      <trkpt lat="46.34689" lon="-1.4146">
        <ele>9.7</ele>
        <time>2020-06-02T17:39:30Z</time>
      </trkpt>
      <trkpt lat="46.34689" lon="-1.41463">
        <ele>9.6</ele>
        <time>2020-06-02T17:39:31Z</time>
      </trkpt>
      <trkpt lat="46.34688" lon="-1.41464">
        <ele>9.6</ele>
        <time>2020-06-02T17:39:32Z</time>
      </trkpt>
      <trkpt lat="46.34689" lon="-1.41465">
        <ele>9.6</ele>
        <time>2020-06-02T17:39:33Z</time>
      </trkpt>
      <trkpt lat="46.34689" lon="-1.41465">
        <ele>9.6</ele>
        <time>2020-06-02T17:39:34Z</time>
      </trkpt>
      <trkpt lat="46.34689" lon="-1.41465">
        <ele>9.6</ele>
        <time>2020-06-02T17:39:35Z</time>
      </trkpt>
      <trkpt lat="46.34689" lon="-1.41465">
        <ele>9.6</ele>
        <time>2020-06-02T17:39:36Z</time>
      </trkpt>
      <trkpt lat="46.34689" lon="-1.41466">
        <ele>9.6</ele>
        <time>2020-06-02T17:39:37Z</time>
      </trkpt>
      <trkpt lat="46.34689" lon="-1.41466">
        <ele>9.6</ele>
        <time>2020-06-02T17:39:38Z</time>
      </trkpt>
      <trkpt lat="46.3469" lon="-1.41466">
        <ele>9.6</ele>
        <time>2020-06-02T17:39:39Z</time>
      </trkpt>
      <trkpt lat="46.3469" lon="-1.41467">
        <ele>9.6</ele>
        <time>2020-06-02T17:39:40Z</time>
      </trkpt>
      <trkpt lat="46.3469" lon="-1.41467">
        <ele>9.6</ele>
        <time>2020-06-02T17:39:41Z</time>
      </trkpt>
      <trkpt lat="46.3469" lon="-1.41467">
        <ele>9.6</ele>
        <time>2020-06-02T17:39:42Z</time>
      </trkpt>
      <trkpt lat="46.3469" lon="-1.41467">
        <ele>9.6</ele>
        <time>2020-06-02T17:39:43Z</time>
      </trkpt>
      <trkpt lat="46.3469" lon="-1.41468">
        <ele>9.6</ele>
        <time>2020-06-02T17:39:44Z</time>
      </trkpt>
      <trkpt lat="46.3469" lon="-1.41468">
        <ele>9.6</ele>
        <time>2020-06-02T17:39:45Z</time>
      </trkpt>
      <trkpt lat="46.34691" lon="-1.41468">
        <ele>9.6</ele>
        <time>2020-06-02T17:39:46Z</time>
      </trkpt>
      <trkpt lat="46.34691" lon="-1.41469">
        <ele>9.6</ele>
        <time>2020-06-02T17:39:47Z</time>
      </trkpt>
      <trkpt lat="46.34693" lon="-1.41473">
        <ele>9.5</ele>
        <time>2020-06-02T17:39:48Z</time>
      </trkpt>
      <trkpt lat="46.34693" lon="-1.41475">
        <ele>9.5</ele>
        <time>2020-06-02T17:39:49Z</time>
      </trkpt>
      <trkpt lat="46.34695" lon="-1.41479">
        <ele>9.5</ele>
        <time>2020-06-02T17:39:50Z</time>
      </trkpt>
      <trkpt lat="46.34696" lon="-1.41481">
        <ele>9.5</ele>
        <time>2020-06-02T17:39:51Z</time>
      </trkpt>
      <trkpt lat="46.34696" lon="-1.41485">
        <ele>9.4</ele>
        <time>2020-06-02T17:39:52Z</time>
      </trkpt>
      <trkpt lat="46.34698" lon="-1.41489">
        <ele>9.4</ele>
        <time>2020-06-02T17:39:53Z</time>
      </trkpt>
      <trkpt lat="46.34698" lon="-1.41493">
        <ele>9.3</ele>
        <time>2020-06-02T17:39:54Z</time>
      </trkpt>
      <trkpt lat="46.34698" lon="-1.41495">
        <ele>9.3</ele>
        <time>2020-06-02T17:39:55Z</time>
      </trkpt>
      <trkpt lat="46.34698" lon="-1.41497">
        <ele>9.3</ele>
        <time>2020-06-02T17:39:56Z</time>
      </trkpt>
      <trkpt lat="46.34698" lon="-1.41497">
        <ele>9.3</ele>
        <time>2020-06-02T17:39:57Z</time>
      </trkpt>
      <trkpt lat="46.34698" lon="-1.41498">
        <ele>9.3</ele>
        <time>2020-06-02T17:39:58Z</time>
      </trkpt>
      <trkpt lat="46.34697" lon="-1.41497">
        <ele>9.3</ele>
        <time>2020-06-02T17:39:59Z</time>
      </trkpt>
      <trkpt lat="46.34697" lon="-1.41497">
        <ele>9.3</ele>
        <time>2020-06-02T17:40:00Z</time>
      </trkpt>
      <trkpt lat="46.34697" lon="-1.41498">
        <ele>9.3</ele>
        <time>2020-06-02T17:40:01Z</time>
      </trkpt>
      <trkpt lat="46.34697" lon="-1.41498">
        <ele>9.3</ele>
        <time>2020-06-02T17:40:02Z</time>
      </trkpt>
      <trkpt lat="46.34696" lon="-1.41498">
        <ele>9.3</ele>
        <time>2020-06-02T17:40:03Z</time>
      </trkpt>
      <trkpt lat="46.34696" lon="-1.41499">
        <ele>9.3</ele>
        <time>2020-06-02T17:40:04Z</time>
      </trkpt>
      <trkpt lat="46.34696" lon="-1.41499">
        <ele>9.3</ele>
        <time>2020-06-02T17:40:05Z</time>
      </trkpt>
      <trkpt lat="46.34696" lon="-1.41499">
        <ele>9.3</ele>
        <time>2020-06-02T17:40:06Z</time>
      </trkpt>
      <trkpt lat="46.34696" lon="-1.41499">
        <ele>9.3</ele>
        <time>2020-06-02T17:40:07Z</time>
      </trkpt>
      <trkpt lat="46.34696" lon="-1.41499">
        <ele>9.3</ele>
        <time>2020-06-02T17:40:08Z</time>
      </trkpt>
      <trkpt lat="46.34696" lon="-1.41498">
        <ele>9.2</ele>
        <time>2020-06-02T17:40:09Z</time>
      </trkpt>
      <trkpt lat="46.34697" lon="-1.41498">
        <ele>9.2</ele>
        <time>2020-06-02T17:40:10Z</time>
      </trkpt>
      <trkpt lat="46.34696" lon="-1.41499">
        <ele>9.2</ele>
        <time>2020-06-02T17:40:11Z</time>
      </trkpt>
      <trkpt lat="46.34696" lon="-1.415">
        <ele>9.2</ele>
        <time>2020-06-02T17:40:12Z</time>
      </trkpt>
      <trkpt lat="46.34697" lon="-1.415">
        <ele>9.2</ele>
        <time>2020-06-02T17:40:13Z</time>
      </trkpt>
      <trkpt lat="46.34696" lon="-1.415">
        <ele>9.2</ele>
        <time>2020-06-02T17:40:14Z</time>
      </trkpt>
      <trkpt lat="46.34697" lon="-1.415">
        <ele>9.2</ele>
        <time>2020-06-02T17:40:15Z</time>
      </trkpt>
      <trkpt lat="46.34696" lon="-1.415">
        <ele>9.2</ele>
        <time>2020-06-02T17:40:16Z</time>
      </trkpt>
      <trkpt lat="46.34696" lon="-1.415">
        <ele>9.2</ele>
        <time>2020-06-02T17:40:17Z</time>
      </trkpt>
      <trkpt lat="46.34696" lon="-1.415">
        <ele>9.2</ele>
        <time>2020-06-02T17:40:18Z</time>
      </trkpt>
      <trkpt lat="46.34696" lon="-1.415">
        <ele>9.2</ele>
        <time>2020-06-02T17:40:19Z</time>
      </trkpt>
      <trkpt lat="46.34696" lon="-1.415">
        <ele>9.2</ele>
        <time>2020-06-02T17:40:20Z</time>
      </trkpt>
      <trkpt lat="46.34696" lon="-1.415">
        <ele>9.2</ele>
        <time>2020-06-02T17:40:21Z</time>
      </trkpt>
      <trkpt lat="46.34696" lon="-1.415">
        <ele>9.2</ele>
        <time>2020-06-02T17:40:22Z</time>
      </trkpt>
      <trkpt lat="46.34696" lon="-1.415">
        <ele>9.2</ele>
        <time>2020-06-02T17:40:23Z</time>
      </trkpt>
      <trkpt lat="46.34696" lon="-1.415">
        <ele>9.2</ele>
        <time>2020-06-02T17:40:24Z</time>
      </trkpt>
      <trkpt lat="46.34696" lon="-1.415">
        <ele>9.2</ele>
        <time>2020-06-02T17:40:25Z</time>
      </trkpt>
      <trkpt lat="46.34696" lon="-1.415">
        <ele>9.2</ele>
        <time>2020-06-02T17:40:26Z</time>
      </trkpt>
      <trkpt lat="46.34696" lon="-1.415">
        <ele>9.2</ele>
        <time>2020-06-02T17:40:27Z</time>
      </trkpt>
      <trkpt lat="46.34696" lon="-1.415">
        <ele>9.2</ele>
        <time>2020-06-02T17:40:28Z</time>
      </trkpt>
      <trkpt lat="46.34696" lon="-1.415">
        <ele>9.2</ele>
        <time>2020-06-02T17:40:29Z</time>
      </trkpt>
      <trkpt lat="46.34696" lon="-1.415">
        <ele>9.2</ele>
        <time>2020-06-02T17:40:30Z</time>
      </trkpt>
      <trkpt lat="46.34696" lon="-1.415">
        <ele>9.2</ele>
        <time>2020-06-02T17:40:31Z</time>
      </trkpt>
      <trkpt lat="46.34696" lon="-1.415">
        <ele>9.2</ele>
        <time>2020-06-02T17:40:32Z</time>
      </trkpt>
      <trkpt lat="46.34696" lon="-1.415">
        <ele>9.2</ele>
        <time>2020-06-02T17:40:33Z</time>
      </trkpt>
      <trkpt lat="46.34696" lon="-1.415">
        <ele>9.2</ele>
        <time>2020-06-02T17:40:34Z</time>
      </trkpt>
      <trkpt lat="46.34696" lon="-1.415">
        <ele>9.2</ele>
        <time>2020-06-02T17:40:35Z</time>
      </trkpt>
      <trkpt lat="46.34696" lon="-1.415">
        <ele>9.2</ele>
        <time>2020-06-02T17:40:36Z</time>
      </trkpt>
      <trkpt lat="46.34696" lon="-1.415">
        <ele>9.2</ele>
        <time>2020-06-02T17:40:37Z</time>
      </trkpt>
      <trkpt lat="46.34696" lon="-1.415">
        <ele>9.2</ele>
        <time>2020-06-02T17:40:38Z</time>
      </trkpt>
      <trkpt lat="46.34696" lon="-1.415">
        <ele>9.2</ele>
        <time>2020-06-02T17:40:39Z</time>
      </trkpt>
      <trkpt lat="46.34696" lon="-1.415">
        <ele>9.2</ele>
        <time>2020-06-02T17:40:40Z</time>
      </trkpt>
      <trkpt lat="46.34696" lon="-1.415">
        <ele>9.2</ele>
        <time>2020-06-02T17:40:41Z</time>
      </trkpt>
      <trkpt lat="46.34696" lon="-1.415">
        <ele>9.2</ele>
        <time>2020-06-02T17:40:42Z</time>
      </trkpt>
      <trkpt lat="46.34696" lon="-1.415">
        <ele>9.2</ele>
        <time>2020-06-02T17:40:43Z</time>
      </trkpt>
      <trkpt lat="46.34696" lon="-1.415">
        <ele>9.2</ele>
        <time>2020-06-02T17:40:44Z</time>
      </trkpt>
      <trkpt lat="46.34696" lon="-1.415">
        <ele>9.2</ele>
        <time>2020-06-02T17:40:45Z</time>
      </trkpt>
      <trkpt lat="46.34696" lon="-1.415">
        <ele>9.2</ele>
        <time>2020-06-02T17:40:46Z</time>
      </trkpt>
      <trkpt lat="46.34696" lon="-1.415">
        <ele>9.2</ele>
        <time>2020-06-02T17:40:47Z</time>
      </trkpt>
      <trkpt lat="46.34696" lon="-1.415">
        <ele>9.2</ele>
        <time>2020-06-02T17:40:48Z</time>
      </trkpt>
      <trkpt lat="46.34696" lon="-1.415">
        <ele>9.2</ele>
        <time>2020-06-02T17:40:49Z</time>
      </trkpt>
      <trkpt lat="46.34696" lon="-1.415">
        <ele>9.2</ele>
        <time>2020-06-02T17:40:50Z</time>
      </trkpt>
      <trkpt lat="46.34696" lon="-1.415">
        <ele>9.2</ele>
        <time>2020-06-02T17:40:51Z</time>
      </trkpt>
      <trkpt lat="46.34696" lon="-1.415">
        <ele>9.2</ele>
        <time>2020-06-02T17:40:52Z</time>
      </trkpt>
      <trkpt lat="46.34696" lon="-1.415">
        <ele>9.2</ele>
        <time>2020-06-02T17:40:53Z</time>
      </trkpt>
      <trkpt lat="46.34696" lon="-1.415">
        <ele>9.2</ele>
        <time>2020-06-02T17:40:54Z</time>
      </trkpt>
      <trkpt lat="46.34696" lon="-1.415">
        <ele>9.2</ele>
        <time>2020-06-02T17:40:55Z</time>
      </trkpt>
      <trkpt lat="46.34696" lon="-1.415">
        <ele>9.2</ele>
        <time>2020-06-02T17:40:56Z</time>
      </trkpt>
      <trkpt lat="46.34696" lon="-1.415">
        <ele>9.2</ele>
        <time>2020-06-02T17:40:57Z</time>
      </trkpt>
      <trkpt lat="46.34696" lon="-1.415">
        <ele>9.2</ele>
        <time>2020-06-02T17:40:58Z</time>
      </trkpt>
      <trkpt lat="46.34696" lon="-1.415">
        <ele>9.2</ele>
        <time>2020-06-02T17:40:59Z</time>
      </trkpt>
      <trkpt lat="46.34696" lon="-1.415">
        <ele>9.2</ele>
        <time>2020-06-02T17:41:00Z</time>
      </trkpt>
      <trkpt lat="46.34696" lon="-1.415">
        <ele>9.2</ele>
        <time>2020-06-02T17:41:01Z</time>
      </trkpt>
      <trkpt lat="46.34696" lon="-1.415">
        <ele>9.2</ele>
        <time>2020-06-02T17:41:02Z</time>
      </trkpt>
      <trkpt lat="46.34696" lon="-1.415">
        <ele>9.2</ele>
        <time>2020-06-02T17:41:03Z</time>
      </trkpt>
      <trkpt lat="46.34696" lon="-1.415">
        <ele>9.2</ele>
        <time>2020-06-02T17:41:04Z</time>
      </trkpt>
      <trkpt lat="46.34696" lon="-1.415">
        <ele>9.2</ele>
        <time>2020-06-02T17:41:05Z</time>
      </trkpt>
      <trkpt lat="46.34696" lon="-1.415">
        <ele>9.2</ele>
        <time>2020-06-02T17:41:06Z</time>
      </trkpt>
      <trkpt lat="46.34696" lon="-1.415">
        <ele>9.2</ele>
        <time>2020-06-02T17:41:07Z</time>
      </trkpt>
      <trkpt lat="46.34696" lon="-1.415">
        <ele>9.2</ele>
        <time>2020-06-02T17:41:08Z</time>
      </trkpt>
      <trkpt lat="46.34696" lon="-1.415">
        <ele>9.2</ele>
        <time>2020-06-02T17:41:09Z</time>
      </trkpt>
      <trkpt lat="46.34696" lon="-1.415">
        <ele>9.2</ele>
        <time>2020-06-02T17:41:10Z</time>
      </trkpt>
      <trkpt lat="46.34696" lon="-1.415">
        <ele>9.2</ele>
        <time>2020-06-02T17:41:11Z</time>
      </trkpt>
      <trkpt lat="46.34697" lon="-1.41503">
        <ele>9.2</ele>
        <time>2020-06-02T17:41:12Z</time>
      </trkpt>
      <trkpt lat="46.34697" lon="-1.41502">
        <ele>9.2</ele>
        <time>2020-06-02T17:41:13Z</time>
      </trkpt>
      <trkpt lat="46.34697" lon="-1.41503">
        <ele>9.2</ele>
        <time>2020-06-02T17:41:14Z</time>
      </trkpt>
      <trkpt lat="46.34697" lon="-1.41503">
        <ele>9.2</ele>
        <time>2020-06-02T17:41:15Z</time>
      </trkpt>
      <trkpt lat="46.34696" lon="-1.41503">
        <ele>9.2</ele>
        <time>2020-06-02T17:41:16Z</time>
      </trkpt>
      <trkpt lat="46.34696" lon="-1.41503">
        <ele>9.2</ele>
        <time>2020-06-02T17:41:17Z</time>
      </trkpt>
      <trkpt lat="46.34696" lon="-1.41503">
        <ele>9.2</ele>
        <time>2020-06-02T17:41:18Z</time>
      </trkpt>
      <trkpt lat="46.34696" lon="-1.41503">
        <ele>9.2</ele>
        <time>2020-06-02T17:41:19Z</time>
      </trkpt>
      <trkpt lat="46.34696" lon="-1.41503">
        <ele>9.2</ele>
        <time>2020-06-02T17:41:20Z</time>
      </trkpt>
      <trkpt lat="46.34696" lon="-1.41503">
        <ele>9.2</ele>
        <time>2020-06-02T17:41:21Z</time>
      </trkpt>
      <trkpt lat="46.34696" lon="-1.41503">
        <ele>9.2</ele>
        <time>2020-06-02T17:41:22Z</time>
      </trkpt>
      <trkpt lat="46.34696" lon="-1.41503">
        <ele>9.2</ele>
        <time>2020-06-02T17:41:23Z</time>
      </trkpt>
      <trkpt lat="46.34696" lon="-1.41503">
        <ele>9.2</ele>
        <time>2020-06-02T17:41:24Z</time>
      </trkpt>
      <trkpt lat="46.34696" lon="-1.41504">
        <ele>9.2</ele>
        <time>2020-06-02T17:41:25Z</time>
      </trkpt>
      <trkpt lat="46.34696" lon="-1.41504">
        <ele>9.2</ele>
        <time>2020-06-02T17:41:26Z</time>
      </trkpt>
      <trkpt lat="46.34695" lon="-1.41504">
        <ele>9.2</ele>
        <time>2020-06-02T17:41:27Z</time>
      </trkpt>
      <trkpt lat="46.34695" lon="-1.41504">
        <ele>9.2</ele>
        <time>2020-06-02T17:41:28Z</time>
      </trkpt>
      <trkpt lat="46.34695" lon="-1.41504">
        <ele>9.2</ele>
        <time>2020-06-02T17:41:29Z</time>
      </trkpt>
      <trkpt lat="46.34695" lon="-1.41504">
        <ele>9.2</ele>
        <time>2020-06-02T17:41:30Z</time>
      </trkpt>
      <trkpt lat="46.34695" lon="-1.41504">
        <ele>9.2</ele>
        <time>2020-06-02T17:41:31Z</time>
      </trkpt>
      <trkpt lat="46.34695" lon="-1.41504">
        <ele>9.1</ele>
        <time>2020-06-02T17:41:32Z</time>
      </trkpt>
      <trkpt lat="46.34695" lon="-1.41504">
        <ele>9.1</ele>
        <time>2020-06-02T17:41:33Z</time>
      </trkpt>
      <trkpt lat="46.34695" lon="-1.41504">
        <ele>9.1</ele>
        <time>2020-06-02T17:41:34Z</time>
      </trkpt>
      <trkpt lat="46.34695" lon="-1.41505">
        <ele>9.1</ele>
        <time>2020-06-02T17:41:35Z</time>
      </trkpt>
      <trkpt lat="46.34695" lon="-1.41505">
        <ele>9.1</ele>
        <time>2020-06-02T17:41:36Z</time>
      </trkpt>
      <trkpt lat="46.34695" lon="-1.41505">
        <ele>9.1</ele>
        <time>2020-06-02T17:41:37Z</time>
      </trkpt>
      <trkpt lat="46.34694" lon="-1.41505">
        <ele>9.1</ele>
        <time>2020-06-02T17:41:38Z</time>
      </trkpt>
      <trkpt lat="46.34694" lon="-1.41505">
        <ele>9.1</ele>
        <time>2020-06-02T17:41:39Z</time>
      </trkpt>
      <trkpt lat="46.34694" lon="-1.41505">
        <ele>9.1</ele>
        <time>2020-06-02T17:41:40Z</time>
      </trkpt>
      <trkpt lat="46.34694" lon="-1.41505">
        <ele>9.1</ele>
        <time>2020-06-02T17:41:41Z</time>
      </trkpt>
      <trkpt lat="46.34694" lon="-1.41505">
        <ele>9.1</ele>
        <time>2020-06-02T17:41:42Z</time>
      </trkpt>
      <trkpt lat="46.34694" lon="-1.41505">
        <ele>9.1</ele>
        <time>2020-06-02T17:41:43Z</time>
      </trkpt>
      <trkpt lat="46.34694" lon="-1.41505">
        <ele>9.1</ele>
        <time>2020-06-02T17:41:44Z</time>
      </trkpt>
      <trkpt lat="46.34694" lon="-1.41505">
        <ele>9.1</ele>
        <time>2020-06-02T17:41:45Z</time>
      </trkpt>
      <trkpt lat="46.34694" lon="-1.4151">
        <ele>9.1</ele>
        <time>2020-06-02T17:41:46Z</time>
      </trkpt>
      <trkpt lat="46.34693" lon="-1.4151">
        <ele>9.1</ele>
        <time>2020-06-02T17:41:47Z</time>
      </trkpt>
      <trkpt lat="46.34692" lon="-1.4151">
        <ele>9.1</ele>
        <time>2020-06-02T17:41:48Z</time>
      </trkpt>
      <trkpt lat="46.34692" lon="-1.41511">
        <ele>9.1</ele>
        <time>2020-06-02T17:41:49Z</time>
      </trkpt>
      <trkpt lat="46.34691" lon="-1.41511">
        <ele>9.1</ele>
        <time>2020-06-02T17:41:50Z</time>
      </trkpt>
      <trkpt lat="46.34691" lon="-1.41511">
        <ele>9</ele>
        <time>2020-06-02T17:41:51Z</time>
      </trkpt>
      <trkpt lat="46.3469" lon="-1.41511">
        <ele>9</ele>
        <time>2020-06-02T17:41:52Z</time>
      </trkpt>
      <trkpt lat="46.34688" lon="-1.41511">
        <ele>9</ele>
        <time>2020-06-02T17:41:53Z</time>
      </trkpt>
      <trkpt lat="46.34687" lon="-1.41512">
        <ele>9</ele>
        <time>2020-06-02T17:41:54Z</time>
      </trkpt>
      <trkpt lat="46.34687" lon="-1.41512">
        <ele>9</ele>
        <time>2020-06-02T17:41:55Z</time>
      </trkpt>
      <trkpt lat="46.34685" lon="-1.41512">
        <ele>9</ele>
        <time>2020-06-02T17:41:56Z</time>
      </trkpt>
      <trkpt lat="46.34684" lon="-1.41512">
        <ele>9</ele>
        <time>2020-06-02T17:41:57Z</time>
      </trkpt>
      <trkpt lat="46.34683" lon="-1.41513">
        <ele>9</ele>
        <time>2020-06-02T17:41:58Z</time>
      </trkpt>
      <trkpt lat="46.34682" lon="-1.41513">
        <ele>9</ele>
        <time>2020-06-02T17:41:59Z</time>
      </trkpt>
      <trkpt lat="46.34681" lon="-1.41514">
        <ele>8.9</ele>
        <time>2020-06-02T17:42:00Z</time>
      </trkpt>
      <trkpt lat="46.3468" lon="-1.41516">
        <ele>8.9</ele>
        <time>2020-06-02T17:42:01Z</time>
      </trkpt>
      <trkpt lat="46.3468" lon="-1.41517">
        <ele>8.9</ele>
        <time>2020-06-02T17:42:02Z</time>
      </trkpt>
      <trkpt lat="46.34679" lon="-1.41517">
        <ele>8.9</ele>
        <time>2020-06-02T17:42:03Z</time>
      </trkpt>
      <trkpt lat="46.34679" lon="-1.41518">
        <ele>8.9</ele>
        <time>2020-06-02T17:42:04Z</time>
      </trkpt>
      <trkpt lat="46.34679" lon="-1.41518">
        <ele>8.9</ele>
        <time>2020-06-02T17:42:05Z</time>
      </trkpt>
      <trkpt lat="46.34679" lon="-1.41518">
        <ele>8.9</ele>
        <time>2020-06-02T17:42:06Z</time>
      </trkpt>
      <trkpt lat="46.34678" lon="-1.41519">
        <ele>8.9</ele>
        <time>2020-06-02T17:42:07Z</time>
      </trkpt>
      <trkpt lat="46.34677" lon="-1.41519">
        <ele>8.9</ele>
        <time>2020-06-02T17:42:08Z</time>
      </trkpt>
      <trkpt lat="46.34676" lon="-1.4152">
        <ele>8.9</ele>
        <time>2020-06-02T17:42:09Z</time>
      </trkpt>
      <trkpt lat="46.34675" lon="-1.41521">
        <ele>8.9</ele>
        <time>2020-06-02T17:42:10Z</time>
      </trkpt>
      <trkpt lat="46.34674" lon="-1.41522">
        <ele>8.9</ele>
        <time>2020-06-02T17:42:11Z</time>
      </trkpt>
      <trkpt lat="46.34674" lon="-1.41522">
        <ele>8.9</ele>
        <time>2020-06-02T17:42:12Z</time>
      </trkpt>
      <trkpt lat="46.34673" lon="-1.41523">
        <ele>8.9</ele>
        <time>2020-06-02T17:42:13Z</time>
      </trkpt>
      <trkpt lat="46.34672" lon="-1.41523">
        <ele>8.9</ele>
        <time>2020-06-02T17:42:14Z</time>
      </trkpt>
      <trkpt lat="46.34671" lon="-1.41522">
        <ele>8.9</ele>
        <time>2020-06-02T17:42:15Z</time>
      </trkpt>
      <trkpt lat="46.34671" lon="-1.41522">
        <ele>8.9</ele>
        <time>2020-06-02T17:42:16Z</time>
      </trkpt>
      <trkpt lat="46.3467" lon="-1.41522">
        <ele>8.9</ele>
        <time>2020-06-02T17:42:17Z</time>
      </trkpt>
      <trkpt lat="46.3467" lon="-1.41522">
        <ele>8.9</ele>
        <time>2020-06-02T17:42:18Z</time>
      </trkpt>
      <trkpt lat="46.3467" lon="-1.41522">
        <ele>8.9</ele>
        <time>2020-06-02T17:42:19Z</time>
      </trkpt>
      <trkpt lat="46.3467" lon="-1.41522">
        <ele>8.9</ele>
        <time>2020-06-02T17:42:20Z</time>
      </trkpt>
      <trkpt lat="46.3467" lon="-1.41522">
        <ele>8.9</ele>
        <time>2020-06-02T17:42:21Z</time>
      </trkpt>
      <trkpt lat="46.3467" lon="-1.41521">
        <ele>8.9</ele>
        <time>2020-06-02T17:42:22Z</time>
      </trkpt>
      <trkpt lat="46.3467" lon="-1.41521">
        <ele>8.9</ele>
        <time>2020-06-02T17:42:23Z</time>
      </trkpt>
      <trkpt lat="46.3467" lon="-1.41521">
        <ele>8.9</ele>
        <time>2020-06-02T17:42:24Z</time>
      </trkpt>
      <trkpt lat="46.3467" lon="-1.41521">
        <ele>8.9</ele>
        <time>2020-06-02T17:42:25Z</time>
      </trkpt>
      <trkpt lat="46.3467" lon="-1.41521">
        <ele>8.9</ele>
        <time>2020-06-02T17:42:26Z</time>
      </trkpt>
      <trkpt lat="46.3467" lon="-1.41521">
        <ele>8.9</ele>
        <time>2020-06-02T17:42:27Z</time>
      </trkpt>
      <trkpt lat="46.3467" lon="-1.41521">
        <ele>8.9</ele>
        <time>2020-06-02T17:42:28Z</time>
      </trkpt>
      <trkpt lat="46.3467" lon="-1.4152">
        <ele>8.9</ele>
        <time>2020-06-02T17:42:29Z</time>
      </trkpt>
      <trkpt lat="46.34669" lon="-1.4152">
        <ele>8.9</ele>
        <time>2020-06-02T17:42:30Z</time>
      </trkpt>
      <trkpt lat="46.34669" lon="-1.41519">
        <ele>8.9</ele>
        <time>2020-06-02T17:42:31Z</time>
      </trkpt>
      <trkpt lat="46.34669" lon="-1.41519">
        <ele>8.9</ele>
        <time>2020-06-02T17:42:32Z</time>
      </trkpt>
      <trkpt lat="46.34668" lon="-1.41518">
        <ele>8.9</ele>
        <time>2020-06-02T17:42:33Z</time>
      </trkpt>
      <trkpt lat="46.34668" lon="-1.41518">
        <ele>8.9</ele>
        <time>2020-06-02T17:42:34Z</time>
      </trkpt>
      <trkpt lat="46.34668" lon="-1.41518">
        <ele>8.9</ele>
        <time>2020-06-02T17:42:35Z</time>
      </trkpt>
      <trkpt lat="46.34668" lon="-1.41518">
        <ele>8.9</ele>
        <time>2020-06-02T17:42:36Z</time>
      </trkpt>
      <trkpt lat="46.34668" lon="-1.41518">
        <ele>8.9</ele>
        <time>2020-06-02T17:42:37Z</time>
      </trkpt>
      <trkpt lat="46.34668" lon="-1.41518">
        <ele>8.9</ele>
        <time>2020-06-02T17:42:38Z</time>
      </trkpt>
      <trkpt lat="46.34668" lon="-1.41518">
        <ele>8.9</ele>
        <time>2020-06-02T17:42:39Z</time>
      </trkpt>
      <trkpt lat="46.34668" lon="-1.41517">
        <ele>8.9</ele>
        <time>2020-06-02T17:42:40Z</time>
      </trkpt>
      <trkpt lat="46.34668" lon="-1.41517">
        <ele>8.9</ele>
        <time>2020-06-02T17:42:41Z</time>
      </trkpt>
      <trkpt lat="46.34668" lon="-1.41517">
        <ele>8.9</ele>
        <time>2020-06-02T17:42:42Z</time>
      </trkpt>
      <trkpt lat="46.34667" lon="-1.41516">
        <ele>8.9</ele>
        <time>2020-06-02T17:42:43Z</time>
      </trkpt>
      <trkpt lat="46.34667" lon="-1.41515">
        <ele>8.9</ele>
        <time>2020-06-02T17:42:44Z</time>
      </trkpt>
      <trkpt lat="46.34667" lon="-1.41515">
        <ele>8.9</ele>
        <time>2020-06-02T17:42:45Z</time>
      </trkpt>
      <trkpt lat="46.34668" lon="-1.41513">
        <ele>8.9</ele>
        <time>2020-06-02T17:42:46Z</time>
      </trkpt>
      <trkpt lat="46.34668" lon="-1.41511">
        <ele>8.9</ele>
        <time>2020-06-02T17:42:47Z</time>
      </trkpt>
      <trkpt lat="46.34668" lon="-1.41511">
        <ele>8.9</ele>
        <time>2020-06-02T17:42:48Z</time>
      </trkpt>
      <trkpt lat="46.34668" lon="-1.41511">
        <ele>8.9</ele>
        <time>2020-06-02T17:42:49Z</time>
      </trkpt>
      <trkpt lat="46.34668" lon="-1.41509">
        <ele>8.9</ele>
        <time>2020-06-02T17:42:50Z</time>
      </trkpt>
      <trkpt lat="46.34668" lon="-1.41508">
        <ele>8.9</ele>
        <time>2020-06-02T17:42:51Z</time>
      </trkpt>
      <trkpt lat="46.34668" lon="-1.41508">
        <ele>8.9</ele>
        <time>2020-06-02T17:42:52Z</time>
      </trkpt>
      <trkpt lat="46.34668" lon="-1.41508">
        <ele>8.9</ele>
        <time>2020-06-02T17:42:53Z</time>
      </trkpt>
      <trkpt lat="46.34668" lon="-1.41508">
        <ele>8.9</ele>
        <time>2020-06-02T17:42:54Z</time>
      </trkpt>
      <trkpt lat="46.34668" lon="-1.41508">
        <ele>8.9</ele>
        <time>2020-06-02T17:42:55Z</time>
      </trkpt>
      <trkpt lat="46.34668" lon="-1.41508">
        <ele>8.9</ele>
        <time>2020-06-02T17:42:56Z</time>
      </trkpt>
      <trkpt lat="46.34668" lon="-1.41508">
        <ele>8.9</ele>
        <time>2020-06-02T17:42:57Z</time>
      </trkpt>
      <trkpt lat="46.34668" lon="-1.41508">
        <ele>8.9</ele>
        <time>2020-06-02T17:42:58Z</time>
      </trkpt>
      <trkpt lat="46.34668" lon="-1.41508">
        <ele>8.9</ele>
        <time>2020-06-02T17:42:59Z</time>
      </trkpt>
      <trkpt lat="46.34668" lon="-1.41508">
        <ele>8.9</ele>
        <time>2020-06-02T17:43:00Z</time>
      </trkpt>
      <trkpt lat="46.34668" lon="-1.41508">
        <ele>8.9</ele>
        <time>2020-06-02T17:43:01Z</time>
      </trkpt>
      <trkpt lat="46.34668" lon="-1.41508">
        <ele>8.9</ele>
        <time>2020-06-02T17:43:02Z</time>
      </trkpt>
      <trkpt lat="46.34668" lon="-1.41508">
        <ele>8.9</ele>
        <time>2020-06-02T17:43:03Z</time>
      </trkpt>
      <trkpt lat="46.34668" lon="-1.41508">
        <ele>8.9</ele>
        <time>2020-06-02T17:43:04Z</time>
      </trkpt>
      <trkpt lat="46.34668" lon="-1.41508">
        <ele>8.9</ele>
        <time>2020-06-02T17:43:05Z</time>
      </trkpt>
      <trkpt lat="46.34668" lon="-1.41508">
        <ele>8.9</ele>
        <time>2020-06-02T17:43:06Z</time>
      </trkpt>
      <trkpt lat="46.34668" lon="-1.41508">
        <ele>8.9</ele>
        <time>2020-06-02T17:43:07Z</time>
      </trkpt>
      <trkpt lat="46.34668" lon="-1.41508">
        <ele>8.9</ele>
        <time>2020-06-02T17:43:08Z</time>
      </trkpt>
      <trkpt lat="46.34668" lon="-1.41508">
        <ele>8.9</ele>
        <time>2020-06-02T17:43:09Z</time>
      </trkpt>
      <trkpt lat="46.34668" lon="-1.41508">
        <ele>8.9</ele>
        <time>2020-06-02T17:43:10Z</time>
      </trkpt>
      <trkpt lat="46.34668" lon="-1.41508">
        <ele>8.9</ele>
        <time>2020-06-02T17:43:11Z</time>
      </trkpt>
      <trkpt lat="46.34668" lon="-1.41508">
        <ele>8.9</ele>
        <time>2020-06-02T17:43:12Z</time>
      </trkpt>
      <trkpt lat="46.34668" lon="-1.41508">
        <ele>8.9</ele>
        <time>2020-06-02T17:43:13Z</time>
      </trkpt>
      <trkpt lat="46.34668" lon="-1.41508">
        <ele>8.9</ele>
        <time>2020-06-02T17:43:14Z</time>
      </trkpt>
      <trkpt lat="46.34668" lon="-1.41508">
        <ele>8.9</ele>
        <time>2020-06-02T17:43:15Z</time>
      </trkpt>
      <trkpt lat="46.34668" lon="-1.41508">
        <ele>8.9</ele>
        <time>2020-06-02T17:43:16Z</time>
      </trkpt>
      <trkpt lat="46.34668" lon="-1.41508">
        <ele>8.9</ele>
        <time>2020-06-02T17:43:17Z</time>
      </trkpt>
      <trkpt lat="46.34668" lon="-1.41508">
        <ele>8.9</ele>
        <time>2020-06-02T17:43:18Z</time>
      </trkpt>
      <trkpt lat="46.34668" lon="-1.41508">
        <ele>8.9</ele>
        <time>2020-06-02T17:43:19Z</time>
      </trkpt>
      <trkpt lat="46.34668" lon="-1.41508">
        <ele>8.9</ele>
        <time>2020-06-02T17:43:20Z</time>
      </trkpt>
      <trkpt lat="46.34668" lon="-1.41508">
        <ele>8.9</ele>
        <time>2020-06-02T17:43:21Z</time>
      </trkpt>
      <trkpt lat="46.34668" lon="-1.41508">
        <ele>8.9</ele>
        <time>2020-06-02T17:43:22Z</time>
      </trkpt>
      <trkpt lat="46.34668" lon="-1.41508">
        <ele>8.9</ele>
        <time>2020-06-02T17:43:23Z</time>
      </trkpt>
      <trkpt lat="46.34668" lon="-1.41508">
        <ele>8.9</ele>
        <time>2020-06-02T17:43:24Z</time>
      </trkpt>
      <trkpt lat="46.34668" lon="-1.41508">
        <ele>8.9</ele>
        <time>2020-06-02T17:43:25Z</time>
      </trkpt>
      <trkpt lat="46.34668" lon="-1.41508">
        <ele>8.9</ele>
        <time>2020-06-02T17:43:26Z</time>
      </trkpt>
      <trkpt lat="46.34668" lon="-1.41508">
        <ele>8.9</ele>
        <time>2020-06-02T17:43:27Z</time>
      </trkpt>
      <trkpt lat="46.34668" lon="-1.41508">
        <ele>8.9</ele>
        <time>2020-06-02T17:43:28Z</time>
      </trkpt>
      <trkpt lat="46.34668" lon="-1.41508">
        <ele>8.9</ele>
        <time>2020-06-02T17:43:29Z</time>
      </trkpt>
      <trkpt lat="46.34668" lon="-1.41508">
        <ele>8.9</ele>
        <time>2020-06-02T17:43:30Z</time>
      </trkpt>
      <trkpt lat="46.34668" lon="-1.41508">
        <ele>8.9</ele>
        <time>2020-06-02T17:43:31Z</time>
      </trkpt>
      <trkpt lat="46.34668" lon="-1.41508">
        <ele>8.9</ele>
        <time>2020-06-02T17:43:32Z</time>
      </trkpt>
      <trkpt lat="46.34668" lon="-1.41508">
        <ele>8.9</ele>
        <time>2020-06-02T17:43:33Z</time>
      </trkpt>
      <trkpt lat="46.34668" lon="-1.41508">
        <ele>8.9</ele>
        <time>2020-06-02T17:43:34Z</time>
      </trkpt>
      <trkpt lat="46.34668" lon="-1.41508">
        <ele>8.9</ele>
        <time>2020-06-02T17:43:35Z</time>
      </trkpt>
      <trkpt lat="46.34668" lon="-1.41508">
        <ele>8.9</ele>
        <time>2020-06-02T17:43:36Z</time>
      </trkpt>
      <trkpt lat="46.34668" lon="-1.41508">
        <ele>8.9</ele>
        <time>2020-06-02T17:43:37Z</time>
      </trkpt>
      <trkpt lat="46.34668" lon="-1.41508">
        <ele>8.9</ele>
        <time>2020-06-02T17:43:38Z</time>
      </trkpt>
      <trkpt lat="46.34668" lon="-1.41508">
        <ele>8.9</ele>
        <time>2020-06-02T17:43:39Z</time>
      </trkpt>
      <trkpt lat="46.34668" lon="-1.41508">
        <ele>8.9</ele>
        <time>2020-06-02T17:43:40Z</time>
      </trkpt>
      <trkpt lat="46.34668" lon="-1.41508">
        <ele>8.9</ele>
        <time>2020-06-02T17:43:41Z</time>
      </trkpt>
      <trkpt lat="46.34668" lon="-1.41508">
        <ele>8.9</ele>
        <time>2020-06-02T17:43:42Z</time>
      </trkpt>
      <trkpt lat="46.34668" lon="-1.41508">
        <ele>8.9</ele>
        <time>2020-06-02T17:43:43Z</time>
      </trkpt>
      <trkpt lat="46.34668" lon="-1.41508">
        <ele>8.9</ele>
        <time>2020-06-02T17:43:44Z</time>
      </trkpt>
      <trkpt lat="46.34668" lon="-1.41508">
        <ele>8.9</ele>
        <time>2020-06-02T17:43:45Z</time>
      </trkpt>
      <trkpt lat="46.34668" lon="-1.41508">
        <ele>8.9</ele>
        <time>2020-06-02T17:43:46Z</time>
      </trkpt>
      <trkpt lat="46.34668" lon="-1.41508">
        <ele>8.9</ele>
        <time>2020-06-02T17:43:47Z</time>
      </trkpt>
      <trkpt lat="46.34668" lon="-1.41508">
        <ele>8.9</ele>
        <time>2020-06-02T17:43:48Z</time>
      </trkpt>
      <trkpt lat="46.34668" lon="-1.41508">
        <ele>8.9</ele>
        <time>2020-06-02T17:43:49Z</time>
      </trkpt>
      <trkpt lat="46.34668" lon="-1.41508">
        <ele>8.9</ele>
        <time>2020-06-02T17:43:50Z</time>
      </trkpt>
      <trkpt lat="46.34668" lon="-1.41508">
        <ele>8.9</ele>
        <time>2020-06-02T17:43:51Z</time>
      </trkpt>
      <trkpt lat="46.34668" lon="-1.41508">
        <ele>8.9</ele>
        <time>2020-06-02T17:43:52Z</time>
      </trkpt>
      <trkpt lat="46.34668" lon="-1.41508">
        <ele>8.9</ele>
        <time>2020-06-02T17:43:53Z</time>
      </trkpt>
      <trkpt lat="46.34668" lon="-1.41508">
        <ele>8.9</ele>
        <time>2020-06-02T17:43:54Z</time>
      </trkpt>
      <trkpt lat="46.34668" lon="-1.41508">
        <ele>8.9</ele>
        <time>2020-06-02T17:43:55Z</time>
      </trkpt>
      <trkpt lat="46.34668" lon="-1.41508">
        <ele>8.9</ele>
        <time>2020-06-02T17:43:56Z</time>
      </trkpt>
      <trkpt lat="46.34668" lon="-1.41508">
        <ele>8.9</ele>
        <time>2020-06-02T17:43:57Z</time>
      </trkpt>
      <trkpt lat="46.34668" lon="-1.41508">
        <ele>8.9</ele>
        <time>2020-06-02T17:43:58Z</time>
      </trkpt>
      <trkpt lat="46.34668" lon="-1.41508">
        <ele>8.9</ele>
        <time>2020-06-02T17:43:59Z</time>
      </trkpt>
      <trkpt lat="46.34668" lon="-1.41508">
        <ele>8.9</ele>
        <time>2020-06-02T17:44:00Z</time>
      </trkpt>
      <trkpt lat="46.34668" lon="-1.41508">
        <ele>8.9</ele>
        <time>2020-06-02T17:44:01Z</time>
      </trkpt>
      <trkpt lat="46.34668" lon="-1.41508">
        <ele>8.9</ele>
        <time>2020-06-02T17:44:02Z</time>
      </trkpt>
      <trkpt lat="46.34668" lon="-1.41508">
        <ele>8.9</ele>
        <time>2020-06-02T17:44:03Z</time>
      </trkpt>
      <trkpt lat="46.34668" lon="-1.41508">
        <ele>8.9</ele>
        <time>2020-06-02T17:44:04Z</time>
      </trkpt>
      <trkpt lat="46.34668" lon="-1.41508">
        <ele>8.9</ele>
        <time>2020-06-02T17:44:05Z</time>
      </trkpt>
      <trkpt lat="46.34668" lon="-1.41508">
        <ele>8.9</ele>
        <time>2020-06-02T17:44:06Z</time>
      </trkpt>
      <trkpt lat="46.34668" lon="-1.41508">
        <ele>8.9</ele>
        <time>2020-06-02T17:44:07Z</time>
      </trkpt>
      <trkpt lat="46.34668" lon="-1.41508">
        <ele>8.9</ele>
        <time>2020-06-02T17:44:08Z</time>
      </trkpt>
      <trkpt lat="46.34668" lon="-1.41508">
        <ele>8.9</ele>
        <time>2020-06-02T17:44:09Z</time>
      </trkpt>
      <trkpt lat="46.34668" lon="-1.41508">
        <ele>8.9</ele>
        <time>2020-06-02T17:44:10Z</time>
      </trkpt>
      <trkpt lat="46.34668" lon="-1.41508">
        <ele>8.9</ele>
        <time>2020-06-02T17:44:11Z</time>
      </trkpt>
      <trkpt lat="46.34668" lon="-1.41508">
        <ele>8.9</ele>
        <time>2020-06-02T17:44:12Z</time>
      </trkpt>
      <trkpt lat="46.34668" lon="-1.41508">
        <ele>8.9</ele>
        <time>2020-06-02T17:44:13Z</time>
      </trkpt>
      <trkpt lat="46.34668" lon="-1.41508">
        <ele>8.9</ele>
        <time>2020-06-02T17:44:14Z</time>
      </trkpt>
      <trkpt lat="46.34668" lon="-1.41508">
        <ele>8.9</ele>
        <time>2020-06-02T17:44:15Z</time>
      </trkpt>
      <trkpt lat="46.34668" lon="-1.41508">
        <ele>8.9</ele>
        <time>2020-06-02T17:44:16Z</time>
      </trkpt>
      <trkpt lat="46.34668" lon="-1.41508">
        <ele>8.9</ele>
        <time>2020-06-02T17:44:17Z</time>
      </trkpt>
      <trkpt lat="46.34668" lon="-1.41508">
        <ele>8.9</ele>
        <time>2020-06-02T17:44:18Z</time>
      </trkpt>
      <trkpt lat="46.34668" lon="-1.41508">
        <ele>8.9</ele>
        <time>2020-06-02T17:44:19Z</time>
      </trkpt>
      <trkpt lat="46.34668" lon="-1.41506">
        <ele>8.9</ele>
        <time>2020-06-02T17:44:20Z</time>
      </trkpt>
      <trkpt lat="46.34668" lon="-1.41505">
        <ele>8.9</ele>
        <time>2020-06-02T17:44:21Z</time>
      </trkpt>
      <trkpt lat="46.34668" lon="-1.41506">
        <ele>8.9</ele>
        <time>2020-06-02T17:44:22Z</time>
      </trkpt>
      <trkpt lat="46.34668" lon="-1.41506">
        <ele>8.9</ele>
        <time>2020-06-02T17:44:23Z</time>
      </trkpt>
      <trkpt lat="46.34668" lon="-1.41507">
        <ele>8.9</ele>
        <time>2020-06-02T17:44:24Z</time>
      </trkpt>
      <trkpt lat="46.34668" lon="-1.41507">
        <ele>8.9</ele>
        <time>2020-06-02T17:44:25Z</time>
      </trkpt>
      <trkpt lat="46.34668" lon="-1.41508">
        <ele>8.9</ele>
        <time>2020-06-02T17:44:26Z</time>
      </trkpt>
      <trkpt lat="46.34669" lon="-1.41508">
        <ele>8.9</ele>
        <time>2020-06-02T17:44:27Z</time>
      </trkpt>
      <trkpt lat="46.34669" lon="-1.41508">
        <ele>8.9</ele>
        <time>2020-06-02T17:44:28Z</time>
      </trkpt>
      <trkpt lat="46.34669" lon="-1.41507">
        <ele>8.9</ele>
        <time>2020-06-02T17:44:29Z</time>
      </trkpt>
      <trkpt lat="46.34669" lon="-1.41508">
        <ele>8.9</ele>
        <time>2020-06-02T17:44:30Z</time>
      </trkpt>
      <trkpt lat="46.34669" lon="-1.41509">
        <ele>8.9</ele>
        <time>2020-06-02T17:44:31Z</time>
      </trkpt>
      <trkpt lat="46.34669" lon="-1.4151">
        <ele>8.9</ele>
        <time>2020-06-02T17:44:32Z</time>
      </trkpt>
    </trkseg>
  </trk>
</gpx>